<?xml version="1.0" encoding="UTF-8" standalone="no" ?>
<gpx xmlns="http://www.topografix.com/GPX/1/1" xmlns:xsi="http://www.w3.org/2001/XMLSchema-instance" xsi:schemaLocation="http://www.topografix.com/GPX/1/1 http://www.topografix.com/GPX/1/1/gpx.xsd" version="1.1" creator="VisuGPX - https://www.visugpx.com">
  <metadata>
    <name>suite voyage</name>
  </metadata>
  <trk>
    <name><![CDATA[T16]]></name>
    <trkseg>
      <trkpt lat="49.34788" lon="-0.80507">
        <ele>46</ele>
        <time>2020-06-17T06:55:27Z</time>
      </trkpt>
      <trkpt lat="49.34788" lon="-0.80507">
        <ele>46</ele>
        <time>2020-06-17T06:55:28Z</time>
      </trkpt>
      <trkpt lat="49.34788" lon="-0.80507">
        <ele>46</ele>
        <time>2020-06-17T06:55:29Z</time>
      </trkpt>
      <trkpt lat="49.34788" lon="-0.80507">
        <ele>46</ele>
        <time>2020-06-17T06:55:30Z</time>
      </trkpt>
      <trkpt lat="49.34787" lon="-0.80508">
        <ele>46</ele>
        <time>2020-06-17T06:55:31Z</time>
      </trkpt>
      <trkpt lat="49.34787" lon="-0.80508">
        <ele>46</ele>
        <time>2020-06-17T06:55:32Z</time>
      </trkpt>
      <trkpt lat="49.34787" lon="-0.80508">
        <ele>46</ele>
        <time>2020-06-17T06:55:34Z</time>
      </trkpt>
      <trkpt lat="49.34788" lon="-0.80508">
        <ele>46</ele>
        <time>2020-06-17T06:55:35Z</time>
      </trkpt>
      <trkpt lat="49.34788" lon="-0.80508">
        <ele>46</ele>
        <time>2020-06-17T06:55:36Z</time>
      </trkpt>
      <trkpt lat="49.34787" lon="-0.80507">
        <ele>46</ele>
        <time>2020-06-17T06:55:37Z</time>
      </trkpt>
      <trkpt lat="49.34794" lon="-0.80522">
        <ele>46</ele>
        <time>2020-06-17T06:56:29Z</time>
      </trkpt>
      <trkpt lat="49.34795" lon="-0.80522">
        <ele>46</ele>
        <time>2020-06-17T06:56:30Z</time>
      </trkpt>
      <trkpt lat="49.34795" lon="-0.80523">
        <ele>46</ele>
        <time>2020-06-17T06:56:31Z</time>
      </trkpt>
      <trkpt lat="49.34795" lon="-0.80525">
        <ele>46</ele>
        <time>2020-06-17T06:56:32Z</time>
      </trkpt>
      <trkpt lat="49.34796" lon="-0.80525">
        <ele>46</ele>
        <time>2020-06-17T06:56:33Z</time>
      </trkpt>
      <trkpt lat="49.34797" lon="-0.80526">
        <ele>46</ele>
        <time>2020-06-17T06:56:34Z</time>
      </trkpt>
      <trkpt lat="49.34797" lon="-0.80526">
        <ele>46</ele>
        <time>2020-06-17T06:56:35Z</time>
      </trkpt>
      <trkpt lat="49.34798" lon="-0.80527">
        <ele>46</ele>
        <time>2020-06-17T06:56:36Z</time>
      </trkpt>
      <trkpt lat="49.34798" lon="-0.80526">
        <ele>46</ele>
        <time>2020-06-17T06:56:37Z</time>
      </trkpt>
      <trkpt lat="49.34799" lon="-0.80527">
        <ele>46</ele>
        <time>2020-06-17T06:56:38Z</time>
      </trkpt>
      <trkpt lat="49.34799" lon="-0.80528">
        <ele>46</ele>
        <time>2020-06-17T06:56:39Z</time>
      </trkpt>
      <trkpt lat="49.34799" lon="-0.8053">
        <ele>46</ele>
        <time>2020-06-17T06:56:40Z</time>
      </trkpt>
      <trkpt lat="49.34799" lon="-0.80532">
        <ele>46</ele>
        <time>2020-06-17T06:56:41Z</time>
      </trkpt>
      <trkpt lat="49.34799" lon="-0.80533">
        <ele>46</ele>
        <time>2020-06-17T06:56:42Z</time>
      </trkpt>
      <trkpt lat="49.348" lon="-0.80534">
        <ele>46</ele>
        <time>2020-06-17T06:56:43Z</time>
      </trkpt>
      <trkpt lat="49.348" lon="-0.80535">
        <ele>46</ele>
        <time>2020-06-17T06:56:44Z</time>
      </trkpt>
      <trkpt lat="49.34799" lon="-0.80535">
        <ele>46</ele>
        <time>2020-06-17T06:56:45Z</time>
      </trkpt>
      <trkpt lat="49.348" lon="-0.80536">
        <ele>46</ele>
        <time>2020-06-17T06:56:46Z</time>
      </trkpt>
      <trkpt lat="49.348" lon="-0.80537">
        <ele>46</ele>
        <time>2020-06-17T06:56:47Z</time>
      </trkpt>
      <trkpt lat="49.34801" lon="-0.80537">
        <ele>46</ele>
        <time>2020-06-17T06:56:48Z</time>
      </trkpt>
      <trkpt lat="49.34801" lon="-0.80538">
        <ele>46</ele>
        <time>2020-06-17T06:56:49Z</time>
      </trkpt>
      <trkpt lat="49.34802" lon="-0.80538">
        <ele>46</ele>
        <time>2020-06-17T06:56:50Z</time>
      </trkpt>
      <trkpt lat="49.34802" lon="-0.80539">
        <ele>46</ele>
        <time>2020-06-17T06:56:51Z</time>
      </trkpt>
      <trkpt lat="49.34802" lon="-0.8054">
        <ele>46</ele>
        <time>2020-06-17T06:56:52Z</time>
      </trkpt>
      <trkpt lat="49.34802" lon="-0.8054">
        <ele>46</ele>
        <time>2020-06-17T06:56:53Z</time>
      </trkpt>
      <trkpt lat="49.34802" lon="-0.8054">
        <ele>46</ele>
        <time>2020-06-17T06:56:54Z</time>
      </trkpt>
      <trkpt lat="49.34802" lon="-0.80542">
        <ele>46</ele>
        <time>2020-06-17T06:56:55Z</time>
      </trkpt>
      <trkpt lat="49.34801" lon="-0.80543">
        <ele>46</ele>
        <time>2020-06-17T06:56:56Z</time>
      </trkpt>
      <trkpt lat="49.34801" lon="-0.80545">
        <ele>46</ele>
        <time>2020-06-17T06:56:57Z</time>
      </trkpt>
      <trkpt lat="49.34801" lon="-0.80546">
        <ele>46</ele>
        <time>2020-06-17T06:56:58Z</time>
      </trkpt>
      <trkpt lat="49.348" lon="-0.80546">
        <ele>46</ele>
        <time>2020-06-17T06:56:59Z</time>
      </trkpt>
      <trkpt lat="49.348" lon="-0.80547">
        <ele>46</ele>
        <time>2020-06-17T06:57:00Z</time>
      </trkpt>
      <trkpt lat="49.348" lon="-0.80548">
        <ele>46</ele>
        <time>2020-06-17T06:57:01Z</time>
      </trkpt>
      <trkpt lat="49.348" lon="-0.80549">
        <ele>46</ele>
        <time>2020-06-17T06:57:02Z</time>
      </trkpt>
      <trkpt lat="49.348" lon="-0.80549">
        <ele>46</ele>
        <time>2020-06-17T06:57:03Z</time>
      </trkpt>
      <trkpt lat="49.348" lon="-0.8055">
        <ele>46</ele>
        <time>2020-06-17T06:57:04Z</time>
      </trkpt>
      <trkpt lat="49.348" lon="-0.8055">
        <ele>46</ele>
        <time>2020-06-17T06:57:05Z</time>
      </trkpt>
      <trkpt lat="49.34799" lon="-0.8055">
        <ele>46</ele>
        <time>2020-06-17T06:57:06Z</time>
      </trkpt>
      <trkpt lat="49.34799" lon="-0.8055">
        <ele>46</ele>
        <time>2020-06-17T06:57:07Z</time>
      </trkpt>
      <trkpt lat="49.34799" lon="-0.80549">
        <ele>46</ele>
        <time>2020-06-17T06:57:08Z</time>
      </trkpt>
      <trkpt lat="49.348" lon="-0.8055">
        <ele>46</ele>
        <time>2020-06-17T06:57:09Z</time>
      </trkpt>
      <trkpt lat="49.348" lon="-0.80549">
        <ele>46</ele>
        <time>2020-06-17T06:57:10Z</time>
      </trkpt>
      <trkpt lat="49.348" lon="-0.80549">
        <ele>46</ele>
        <time>2020-06-17T06:57:11Z</time>
      </trkpt>
      <trkpt lat="49.348" lon="-0.80549">
        <ele>46</ele>
        <time>2020-06-17T06:57:12Z</time>
      </trkpt>
      <trkpt lat="49.348" lon="-0.80549">
        <ele>46</ele>
        <time>2020-06-17T06:57:13Z</time>
      </trkpt>
      <trkpt lat="49.34801" lon="-0.80549">
        <ele>46</ele>
        <time>2020-06-17T06:57:14Z</time>
      </trkpt>
      <trkpt lat="49.348" lon="-0.80549">
        <ele>46</ele>
        <time>2020-06-17T06:57:15Z</time>
      </trkpt>
      <trkpt lat="49.348" lon="-0.80549">
        <ele>46</ele>
        <time>2020-06-17T06:57:16Z</time>
      </trkpt>
      <trkpt lat="49.34801" lon="-0.80549">
        <ele>46</ele>
        <time>2020-06-17T06:57:17Z</time>
      </trkpt>
      <trkpt lat="49.34811" lon="-0.80524">
        <ele>46</ele>
        <time>2020-06-17T06:58:58Z</time>
      </trkpt>
      <trkpt lat="49.34812" lon="-0.80525">
        <ele>46</ele>
        <time>2020-06-17T06:58:59Z</time>
      </trkpt>
      <trkpt lat="49.34812" lon="-0.80525">
        <ele>46</ele>
        <time>2020-06-17T06:59:00Z</time>
      </trkpt>
      <trkpt lat="49.34812" lon="-0.80525">
        <ele>46</ele>
        <time>2020-06-17T06:59:01Z</time>
      </trkpt>
      <trkpt lat="49.34812" lon="-0.80525">
        <ele>46</ele>
        <time>2020-06-17T06:59:02Z</time>
      </trkpt>
      <trkpt lat="49.34812" lon="-0.80525">
        <ele>46</ele>
        <time>2020-06-17T06:59:03Z</time>
      </trkpt>
      <trkpt lat="49.34813" lon="-0.80526">
        <ele>46</ele>
        <time>2020-06-17T06:59:04Z</time>
      </trkpt>
      <trkpt lat="49.34813" lon="-0.80527">
        <ele>46</ele>
        <time>2020-06-17T06:59:05Z</time>
      </trkpt>
      <trkpt lat="49.34814" lon="-0.80527">
        <ele>46</ele>
        <time>2020-06-17T06:59:06Z</time>
      </trkpt>
      <trkpt lat="49.34814" lon="-0.80527">
        <ele>46</ele>
        <time>2020-06-17T06:59:07Z</time>
      </trkpt>
      <trkpt lat="49.34814" lon="-0.80527">
        <ele>46</ele>
        <time>2020-06-17T06:59:08Z</time>
      </trkpt>
      <trkpt lat="49.34814" lon="-0.80529">
        <ele>46</ele>
        <time>2020-06-17T06:59:09Z</time>
      </trkpt>
      <trkpt lat="49.34814" lon="-0.8053">
        <ele>46</ele>
        <time>2020-06-17T06:59:10Z</time>
      </trkpt>
      <trkpt lat="49.34814" lon="-0.8053">
        <ele>46</ele>
        <time>2020-06-17T06:59:11Z</time>
      </trkpt>
      <trkpt lat="49.34814" lon="-0.80531">
        <ele>46</ele>
        <time>2020-06-17T06:59:12Z</time>
      </trkpt>
      <trkpt lat="49.34813" lon="-0.80532">
        <ele>46</ele>
        <time>2020-06-17T06:59:13Z</time>
      </trkpt>
      <trkpt lat="49.34813" lon="-0.80534">
        <ele>46</ele>
        <time>2020-06-17T06:59:14Z</time>
      </trkpt>
      <trkpt lat="49.34813" lon="-0.80535">
        <ele>46</ele>
        <time>2020-06-17T06:59:15Z</time>
      </trkpt>
      <trkpt lat="49.34813" lon="-0.80536">
        <ele>46</ele>
        <time>2020-06-17T06:59:16Z</time>
      </trkpt>
      <trkpt lat="49.34814" lon="-0.80537">
        <ele>46</ele>
        <time>2020-06-17T06:59:17Z</time>
      </trkpt>
      <trkpt lat="49.34814" lon="-0.80537">
        <ele>46</ele>
        <time>2020-06-17T06:59:18Z</time>
      </trkpt>
      <trkpt lat="49.34814" lon="-0.80537">
        <ele>46</ele>
        <time>2020-06-17T06:59:19Z</time>
      </trkpt>
      <trkpt lat="49.34814" lon="-0.80537">
        <ele>46</ele>
        <time>2020-06-17T06:59:20Z</time>
      </trkpt>
      <trkpt lat="49.34814" lon="-0.80537">
        <ele>46</ele>
        <time>2020-06-17T06:59:21Z</time>
      </trkpt>
      <trkpt lat="49.34814" lon="-0.80539">
        <ele>45.9</ele>
        <time>2020-06-17T06:59:22Z</time>
      </trkpt>
      <trkpt lat="49.34814" lon="-0.80541">
        <ele>45.9</ele>
        <time>2020-06-17T06:59:23Z</time>
      </trkpt>
      <trkpt lat="49.34815" lon="-0.80542">
        <ele>45.8</ele>
        <time>2020-06-17T06:59:24Z</time>
      </trkpt>
      <trkpt lat="49.34815" lon="-0.80542">
        <ele>45.8</ele>
        <time>2020-06-17T06:59:25Z</time>
      </trkpt>
      <trkpt lat="49.34815" lon="-0.80543">
        <ele>45.8</ele>
        <time>2020-06-17T06:59:26Z</time>
      </trkpt>
      <trkpt lat="49.34814" lon="-0.80543">
        <ele>45.8</ele>
        <time>2020-06-17T06:59:27Z</time>
      </trkpt>
      <trkpt lat="49.34814" lon="-0.80544">
        <ele>45.8</ele>
        <time>2020-06-17T06:59:28Z</time>
      </trkpt>
      <trkpt lat="49.34813" lon="-0.80544">
        <ele>45.7</ele>
        <time>2020-06-17T06:59:29Z</time>
      </trkpt>
      <trkpt lat="49.34813" lon="-0.80545">
        <ele>45.7</ele>
        <time>2020-06-17T06:59:30Z</time>
      </trkpt>
      <trkpt lat="49.34813" lon="-0.80544">
        <ele>45.7</ele>
        <time>2020-06-17T06:59:31Z</time>
      </trkpt>
      <trkpt lat="49.34812" lon="-0.80545">
        <ele>45.6</ele>
        <time>2020-06-17T06:59:32Z</time>
      </trkpt>
      <trkpt lat="49.34812" lon="-0.80545">
        <ele>45.6</ele>
        <time>2020-06-17T06:59:33Z</time>
      </trkpt>
      <trkpt lat="49.34812" lon="-0.80545">
        <ele>45.6</ele>
        <time>2020-06-17T06:59:34Z</time>
      </trkpt>
      <trkpt lat="49.34812" lon="-0.80545">
        <ele>45.6</ele>
        <time>2020-06-17T06:59:35Z</time>
      </trkpt>
      <trkpt lat="49.34813" lon="-0.80545">
        <ele>45.6</ele>
        <time>2020-06-17T06:59:36Z</time>
      </trkpt>
      <trkpt lat="49.34813" lon="-0.80546">
        <ele>45.5</ele>
        <time>2020-06-17T06:59:37Z</time>
      </trkpt>
      <trkpt lat="49.34813" lon="-0.80547">
        <ele>45.5</ele>
        <time>2020-06-17T06:59:38Z</time>
      </trkpt>
      <trkpt lat="49.34813" lon="-0.80547">
        <ele>45.5</ele>
        <time>2020-06-17T06:59:39Z</time>
      </trkpt>
      <trkpt lat="49.34813" lon="-0.80548">
        <ele>45.5</ele>
        <time>2020-06-17T06:59:40Z</time>
      </trkpt>
      <trkpt lat="49.34813" lon="-0.80549">
        <ele>45.4</ele>
        <time>2020-06-17T06:59:41Z</time>
      </trkpt>
      <trkpt lat="49.34813" lon="-0.80549">
        <ele>45.4</ele>
        <time>2020-06-17T06:59:42Z</time>
      </trkpt>
      <trkpt lat="49.34813" lon="-0.80549">
        <ele>45.4</ele>
        <time>2020-06-17T06:59:43Z</time>
      </trkpt>
      <trkpt lat="49.34813" lon="-0.8055">
        <ele>45.4</ele>
        <time>2020-06-17T06:59:44Z</time>
      </trkpt>
      <trkpt lat="49.34813" lon="-0.8055">
        <ele>45.4</ele>
        <time>2020-06-17T06:59:45Z</time>
      </trkpt>
      <trkpt lat="49.34812" lon="-0.80549">
        <ele>45.4</ele>
        <time>2020-06-17T06:59:46Z</time>
      </trkpt>
      <trkpt lat="49.34813" lon="-0.80549">
        <ele>45.4</ele>
        <time>2020-06-17T06:59:47Z</time>
      </trkpt>
      <trkpt lat="49.34813" lon="-0.80551">
        <ele>45.3</ele>
        <time>2020-06-17T06:59:48Z</time>
      </trkpt>
      <trkpt lat="49.34813" lon="-0.80552">
        <ele>45.3</ele>
        <time>2020-06-17T06:59:49Z</time>
      </trkpt>
      <trkpt lat="49.34813" lon="-0.80551">
        <ele>45.3</ele>
        <time>2020-06-17T06:59:50Z</time>
      </trkpt>
      <trkpt lat="49.34813" lon="-0.80551">
        <ele>45.3</ele>
        <time>2020-06-17T06:59:51Z</time>
      </trkpt>
      <trkpt lat="49.34813" lon="-0.80551">
        <ele>45.3</ele>
        <time>2020-06-17T06:59:52Z</time>
      </trkpt>
      <trkpt lat="49.34813" lon="-0.80552">
        <ele>45.2</ele>
        <time>2020-06-17T06:59:53Z</time>
      </trkpt>
      <trkpt lat="49.34813" lon="-0.80552">
        <ele>45.2</ele>
        <time>2020-06-17T06:59:54Z</time>
      </trkpt>
      <trkpt lat="49.34812" lon="-0.80552">
        <ele>45.2</ele>
        <time>2020-06-17T06:59:55Z</time>
      </trkpt>
      <trkpt lat="49.34812" lon="-0.80552">
        <ele>45.2</ele>
        <time>2020-06-17T06:59:56Z</time>
      </trkpt>
      <trkpt lat="49.34812" lon="-0.80551">
        <ele>45.1</ele>
        <time>2020-06-17T06:59:57Z</time>
      </trkpt>
      <trkpt lat="49.34812" lon="-0.80551">
        <ele>45.1</ele>
        <time>2020-06-17T06:59:58Z</time>
      </trkpt>
      <trkpt lat="49.34812" lon="-0.80551">
        <ele>45.1</ele>
        <time>2020-06-17T06:59:59Z</time>
      </trkpt>
      <trkpt lat="49.34812" lon="-0.80537">
        <ele>44.8</ele>
        <time>2020-06-17T07:00:09Z</time>
      </trkpt>
      <trkpt lat="49.34813" lon="-0.80535">
        <ele>44.7</ele>
        <time>2020-06-17T07:00:10Z</time>
      </trkpt>
      <trkpt lat="49.34815" lon="-0.80533">
        <ele>44.6</ele>
        <time>2020-06-17T07:00:11Z</time>
      </trkpt>
      <trkpt lat="49.34816" lon="-0.80531">
        <ele>44.6</ele>
        <time>2020-06-17T07:00:12Z</time>
      </trkpt>
      <trkpt lat="49.34818" lon="-0.80527">
        <ele>44.5</ele>
        <time>2020-06-17T07:00:13Z</time>
      </trkpt>
      <trkpt lat="49.34819" lon="-0.80526">
        <ele>44.4</ele>
        <time>2020-06-17T07:00:14Z</time>
      </trkpt>
      <trkpt lat="49.34822" lon="-0.80522">
        <ele>44.3</ele>
        <time>2020-06-17T07:00:15Z</time>
      </trkpt>
      <trkpt lat="49.34823" lon="-0.80521">
        <ele>44.3</ele>
        <time>2020-06-17T07:00:16Z</time>
      </trkpt>
      <trkpt lat="49.34826" lon="-0.80518">
        <ele>44.2</ele>
        <time>2020-06-17T07:00:17Z</time>
      </trkpt>
      <trkpt lat="49.34829" lon="-0.80516">
        <ele>44.1</ele>
        <time>2020-06-17T07:00:18Z</time>
      </trkpt>
      <trkpt lat="49.34831" lon="-0.80513">
        <ele>44</ele>
        <time>2020-06-17T07:00:19Z</time>
      </trkpt>
      <trkpt lat="49.34834" lon="-0.8051">
        <ele>43.9</ele>
        <time>2020-06-17T07:00:20Z</time>
      </trkpt>
      <trkpt lat="49.34837" lon="-0.80506">
        <ele>43.8</ele>
        <time>2020-06-17T07:00:21Z</time>
      </trkpt>
      <trkpt lat="49.3484" lon="-0.80502">
        <ele>43.7</ele>
        <time>2020-06-17T07:00:22Z</time>
      </trkpt>
      <trkpt lat="49.34843" lon="-0.80499">
        <ele>43.6</ele>
        <time>2020-06-17T07:00:23Z</time>
      </trkpt>
      <trkpt lat="49.34846" lon="-0.80496">
        <ele>43.6</ele>
        <time>2020-06-17T07:00:24Z</time>
      </trkpt>
      <trkpt lat="49.34848" lon="-0.80493">
        <ele>43.5</ele>
        <time>2020-06-17T07:00:25Z</time>
      </trkpt>
      <trkpt lat="49.34851" lon="-0.8049">
        <ele>43.4</ele>
        <time>2020-06-17T07:00:26Z</time>
      </trkpt>
      <trkpt lat="49.34854" lon="-0.80487">
        <ele>43.4</ele>
        <time>2020-06-17T07:00:27Z</time>
      </trkpt>
      <trkpt lat="49.34857" lon="-0.80484">
        <ele>43.3</ele>
        <time>2020-06-17T07:00:28Z</time>
      </trkpt>
      <trkpt lat="49.3486" lon="-0.8048">
        <ele>43.2</ele>
        <time>2020-06-17T07:00:29Z</time>
      </trkpt>
      <trkpt lat="49.34863" lon="-0.80477">
        <ele>43.1</ele>
        <time>2020-06-17T07:00:30Z</time>
      </trkpt>
      <trkpt lat="49.34867" lon="-0.80473">
        <ele>43</ele>
        <time>2020-06-17T07:00:31Z</time>
      </trkpt>
      <trkpt lat="49.34871" lon="-0.8047">
        <ele>42.9</ele>
        <time>2020-06-17T07:00:32Z</time>
      </trkpt>
      <trkpt lat="49.34875" lon="-0.80467">
        <ele>42.8</ele>
        <time>2020-06-17T07:00:33Z</time>
      </trkpt>
      <trkpt lat="49.34879" lon="-0.80464">
        <ele>42.7</ele>
        <time>2020-06-17T07:00:34Z</time>
      </trkpt>
      <trkpt lat="49.34883" lon="-0.8046">
        <ele>42.6</ele>
        <time>2020-06-17T07:00:35Z</time>
      </trkpt>
      <trkpt lat="49.34886" lon="-0.80458">
        <ele>42.5</ele>
        <time>2020-06-17T07:00:36Z</time>
      </trkpt>
      <trkpt lat="49.3489" lon="-0.80455">
        <ele>42.4</ele>
        <time>2020-06-17T07:00:37Z</time>
      </trkpt>
      <trkpt lat="49.34891" lon="-0.80454">
        <ele>42.4</ele>
        <time>2020-06-17T07:00:38Z</time>
      </trkpt>
      <trkpt lat="49.34894" lon="-0.8045">
        <ele>42.3</ele>
        <time>2020-06-17T07:00:39Z</time>
      </trkpt>
      <trkpt lat="49.34895" lon="-0.80449">
        <ele>42.3</ele>
        <time>2020-06-17T07:00:40Z</time>
      </trkpt>
      <trkpt lat="49.34895" lon="-0.80447">
        <ele>42.3</ele>
        <time>2020-06-17T07:00:41Z</time>
      </trkpt>
      <trkpt lat="49.34896" lon="-0.80445">
        <ele>42.6</ele>
        <time>2020-06-17T07:00:42Z</time>
      </trkpt>
      <trkpt lat="49.34896" lon="-0.80442">
        <ele>42.7</ele>
        <time>2020-06-17T07:00:43Z</time>
      </trkpt>
      <trkpt lat="49.34895" lon="-0.8044">
        <ele>42.8</ele>
        <time>2020-06-17T07:00:44Z</time>
      </trkpt>
      <trkpt lat="49.34895" lon="-0.80438">
        <ele>42.8</ele>
        <time>2020-06-17T07:00:45Z</time>
      </trkpt>
      <trkpt lat="49.34894" lon="-0.80434">
        <ele>43</ele>
        <time>2020-06-17T07:00:46Z</time>
      </trkpt>
      <trkpt lat="49.34893" lon="-0.80429">
        <ele>43.2</ele>
        <time>2020-06-17T07:00:47Z</time>
      </trkpt>
      <trkpt lat="49.34892" lon="-0.80425">
        <ele>43.4</ele>
        <time>2020-06-17T07:00:48Z</time>
      </trkpt>
      <trkpt lat="49.34891" lon="-0.80421">
        <ele>43.6</ele>
        <time>2020-06-17T07:00:49Z</time>
      </trkpt>
      <trkpt lat="49.3489" lon="-0.80419">
        <ele>43.7</ele>
        <time>2020-06-17T07:00:50Z</time>
      </trkpt>
      <trkpt lat="49.34889" lon="-0.80414">
        <ele>43.9</ele>
        <time>2020-06-17T07:00:51Z</time>
      </trkpt>
      <trkpt lat="49.34888" lon="-0.80408">
        <ele>44.2</ele>
        <time>2020-06-17T07:00:52Z</time>
      </trkpt>
      <trkpt lat="49.34887" lon="-0.80403">
        <ele>44.5</ele>
        <time>2020-06-17T07:00:53Z</time>
      </trkpt>
      <trkpt lat="49.34886" lon="-0.80399">
        <ele>44.7</ele>
        <time>2020-06-17T07:00:54Z</time>
      </trkpt>
      <trkpt lat="49.34886" lon="-0.80395">
        <ele>44.9</ele>
        <time>2020-06-17T07:00:55Z</time>
      </trkpt>
      <trkpt lat="49.34885" lon="-0.8039">
        <ele>45.1</ele>
        <time>2020-06-17T07:00:56Z</time>
      </trkpt>
      <trkpt lat="49.34885" lon="-0.80388">
        <ele>45.2</ele>
        <time>2020-06-17T07:00:57Z</time>
      </trkpt>
      <trkpt lat="49.34883" lon="-0.80384">
        <ele>45.5</ele>
        <time>2020-06-17T07:00:58Z</time>
      </trkpt>
      <trkpt lat="49.34883" lon="-0.80383">
        <ele>45.6</ele>
        <time>2020-06-17T07:00:59Z</time>
      </trkpt>
      <trkpt lat="49.34882" lon="-0.80378">
        <ele>45.8</ele>
        <time>2020-06-17T07:01:00Z</time>
      </trkpt>
      <trkpt lat="49.34882" lon="-0.80376">
        <ele>45.9</ele>
        <time>2020-06-17T07:01:01Z</time>
      </trkpt>
      <trkpt lat="49.34882" lon="-0.80372">
        <ele>46.2</ele>
        <time>2020-06-17T07:01:02Z</time>
      </trkpt>
      <trkpt lat="49.34882" lon="-0.8037">
        <ele>46.3</ele>
        <time>2020-06-17T07:01:03Z</time>
      </trkpt>
      <trkpt lat="49.34881" lon="-0.80365">
        <ele>46.7</ele>
        <time>2020-06-17T07:01:04Z</time>
      </trkpt>
      <trkpt lat="49.3488" lon="-0.80363">
        <ele>46.8</ele>
        <time>2020-06-17T07:01:05Z</time>
      </trkpt>
      <trkpt lat="49.3488" lon="-0.80358">
        <ele>47.1</ele>
        <time>2020-06-17T07:01:06Z</time>
      </trkpt>
      <trkpt lat="49.3488" lon="-0.80356">
        <ele>47.2</ele>
        <time>2020-06-17T07:01:07Z</time>
      </trkpt>
      <trkpt lat="49.34881" lon="-0.80351">
        <ele>47.5</ele>
        <time>2020-06-17T07:01:08Z</time>
      </trkpt>
      <trkpt lat="49.34882" lon="-0.8035">
        <ele>47.6</ele>
        <time>2020-06-17T07:01:09Z</time>
      </trkpt>
      <trkpt lat="49.34883" lon="-0.80346">
        <ele>47.9</ele>
        <time>2020-06-17T07:01:10Z</time>
      </trkpt>
      <trkpt lat="49.34883" lon="-0.80344">
        <ele>47.9</ele>
        <time>2020-06-17T07:01:11Z</time>
      </trkpt>
      <trkpt lat="49.34884" lon="-0.80343">
        <ele>48</ele>
        <time>2020-06-17T07:01:12Z</time>
      </trkpt>
      <trkpt lat="49.34885" lon="-0.80341">
        <ele>48.2</ele>
        <time>2020-06-17T07:01:13Z</time>
      </trkpt>
      <trkpt lat="49.34885" lon="-0.80337">
        <ele>48.4</ele>
        <time>2020-06-17T07:01:14Z</time>
      </trkpt>
      <trkpt lat="49.34886" lon="-0.80335">
        <ele>48.5</ele>
        <time>2020-06-17T07:01:15Z</time>
      </trkpt>
      <trkpt lat="49.34886" lon="-0.80331">
        <ele>48.7</ele>
        <time>2020-06-17T07:01:16Z</time>
      </trkpt>
      <trkpt lat="49.34887" lon="-0.80328">
        <ele>48.8</ele>
        <time>2020-06-17T07:01:17Z</time>
      </trkpt>
      <trkpt lat="49.34888" lon="-0.80322">
        <ele>49.1</ele>
        <time>2020-06-17T07:01:18Z</time>
      </trkpt>
      <trkpt lat="49.34888" lon="-0.8032">
        <ele>49.2</ele>
        <time>2020-06-17T07:01:19Z</time>
      </trkpt>
      <trkpt lat="49.34889" lon="-0.80316">
        <ele>49.4</ele>
        <time>2020-06-17T07:01:20Z</time>
      </trkpt>
      <trkpt lat="49.34889" lon="-0.80313">
        <ele>49.6</ele>
        <time>2020-06-17T07:01:21Z</time>
      </trkpt>
      <trkpt lat="49.34889" lon="-0.80311">
        <ele>49.6</ele>
        <time>2020-06-17T07:01:22Z</time>
      </trkpt>
      <trkpt lat="49.34889" lon="-0.80307">
        <ele>49.8</ele>
        <time>2020-06-17T07:01:23Z</time>
      </trkpt>
      <trkpt lat="49.34889" lon="-0.80305">
        <ele>49.9</ele>
        <time>2020-06-17T07:01:24Z</time>
      </trkpt>
      <trkpt lat="49.34889" lon="-0.803">
        <ele>50</ele>
        <time>2020-06-17T07:01:25Z</time>
      </trkpt>
      <trkpt lat="49.34889" lon="-0.80295">
        <ele>50.2</ele>
        <time>2020-06-17T07:01:26Z</time>
      </trkpt>
      <trkpt lat="49.34889" lon="-0.80293">
        <ele>50.3</ele>
        <time>2020-06-17T07:01:27Z</time>
      </trkpt>
      <trkpt lat="49.3489" lon="-0.80288">
        <ele>50.5</ele>
        <time>2020-06-17T07:01:28Z</time>
      </trkpt>
      <trkpt lat="49.3489" lon="-0.80284">
        <ele>50.6</ele>
        <time>2020-06-17T07:01:29Z</time>
      </trkpt>
      <trkpt lat="49.34891" lon="-0.80279">
        <ele>50.8</ele>
        <time>2020-06-17T07:01:30Z</time>
      </trkpt>
      <trkpt lat="49.34891" lon="-0.80277">
        <ele>50.9</ele>
        <time>2020-06-17T07:01:31Z</time>
      </trkpt>
      <trkpt lat="49.34891" lon="-0.80272">
        <ele>51</ele>
        <time>2020-06-17T07:01:32Z</time>
      </trkpt>
      <trkpt lat="49.34891" lon="-0.8027">
        <ele>51.1</ele>
        <time>2020-06-17T07:01:33Z</time>
      </trkpt>
      <trkpt lat="49.34892" lon="-0.80266">
        <ele>51.3</ele>
        <time>2020-06-17T07:01:34Z</time>
      </trkpt>
      <trkpt lat="49.34892" lon="-0.80265">
        <ele>51.3</ele>
        <time>2020-06-17T07:01:35Z</time>
      </trkpt>
      <trkpt lat="49.34894" lon="-0.8026">
        <ele>51.6</ele>
        <time>2020-06-17T07:01:36Z</time>
      </trkpt>
      <trkpt lat="49.34895" lon="-0.80258">
        <ele>51.7</ele>
        <time>2020-06-17T07:01:37Z</time>
      </trkpt>
      <trkpt lat="49.34897" lon="-0.80253">
        <ele>52</ele>
        <time>2020-06-17T07:01:38Z</time>
      </trkpt>
      <trkpt lat="49.34897" lon="-0.80252">
        <ele>52</ele>
        <time>2020-06-17T07:01:39Z</time>
      </trkpt>
      <trkpt lat="49.34899" lon="-0.80247">
        <ele>52.3</ele>
        <time>2020-06-17T07:01:40Z</time>
      </trkpt>
      <trkpt lat="49.34899" lon="-0.80246">
        <ele>52.5</ele>
        <time>2020-06-17T07:01:41Z</time>
      </trkpt>
      <trkpt lat="49.34901" lon="-0.80241">
        <ele>52.8</ele>
        <time>2020-06-17T07:01:42Z</time>
      </trkpt>
      <trkpt lat="49.34901" lon="-0.80239">
        <ele>52.9</ele>
        <time>2020-06-17T07:01:43Z</time>
      </trkpt>
      <trkpt lat="49.34903" lon="-0.80235">
        <ele>53.2</ele>
        <time>2020-06-17T07:01:44Z</time>
      </trkpt>
      <trkpt lat="49.34905" lon="-0.80232">
        <ele>53.5</ele>
        <time>2020-06-17T07:01:45Z</time>
      </trkpt>
      <trkpt lat="49.34906" lon="-0.80227">
        <ele>53.9</ele>
        <time>2020-06-17T07:01:46Z</time>
      </trkpt>
      <trkpt lat="49.34907" lon="-0.80226">
        <ele>54</ele>
        <time>2020-06-17T07:01:47Z</time>
      </trkpt>
      <trkpt lat="49.34908" lon="-0.80222">
        <ele>54.3</ele>
        <time>2020-06-17T07:01:48Z</time>
      </trkpt>
      <trkpt lat="49.34908" lon="-0.8022">
        <ele>54.5</ele>
        <time>2020-06-17T07:01:49Z</time>
      </trkpt>
      <trkpt lat="49.34909" lon="-0.80215">
        <ele>54.9</ele>
        <time>2020-06-17T07:01:50Z</time>
      </trkpt>
      <trkpt lat="49.34909" lon="-0.80212">
        <ele>55</ele>
        <time>2020-06-17T07:01:51Z</time>
      </trkpt>
      <trkpt lat="49.3491" lon="-0.80206">
        <ele>55.5</ele>
        <time>2020-06-17T07:01:52Z</time>
      </trkpt>
      <trkpt lat="49.3491" lon="-0.80204">
        <ele>55.7</ele>
        <time>2020-06-17T07:01:53Z</time>
      </trkpt>
      <trkpt lat="49.3491" lon="-0.80198">
        <ele>56</ele>
        <time>2020-06-17T07:01:54Z</time>
      </trkpt>
      <trkpt lat="49.3491" lon="-0.80196">
        <ele>56.2</ele>
        <time>2020-06-17T07:01:55Z</time>
      </trkpt>
      <trkpt lat="49.34911" lon="-0.80191">
        <ele>56.5</ele>
        <time>2020-06-17T07:01:56Z</time>
      </trkpt>
      <trkpt lat="49.34911" lon="-0.8019">
        <ele>56.6</ele>
        <time>2020-06-17T07:01:57Z</time>
      </trkpt>
      <trkpt lat="49.34913" lon="-0.80186">
        <ele>56.9</ele>
        <time>2020-06-17T07:01:58Z</time>
      </trkpt>
      <trkpt lat="49.34914" lon="-0.80184">
        <ele>57</ele>
        <time>2020-06-17T07:01:59Z</time>
      </trkpt>
      <trkpt lat="49.34915" lon="-0.80179">
        <ele>57.3</ele>
        <time>2020-06-17T07:02:00Z</time>
      </trkpt>
      <trkpt lat="49.34916" lon="-0.80177">
        <ele>57.4</ele>
        <time>2020-06-17T07:02:01Z</time>
      </trkpt>
      <trkpt lat="49.34918" lon="-0.80174">
        <ele>57.6</ele>
        <time>2020-06-17T07:02:02Z</time>
      </trkpt>
      <trkpt lat="49.34919" lon="-0.80169">
        <ele>57.8</ele>
        <time>2020-06-17T07:02:03Z</time>
      </trkpt>
      <trkpt lat="49.3492" lon="-0.80168">
        <ele>57.9</ele>
        <time>2020-06-17T07:02:04Z</time>
      </trkpt>
      <trkpt lat="49.34922" lon="-0.80164">
        <ele>58.1</ele>
        <time>2020-06-17T07:02:05Z</time>
      </trkpt>
      <trkpt lat="49.34924" lon="-0.80159">
        <ele>58.4</ele>
        <time>2020-06-17T07:02:06Z</time>
      </trkpt>
      <trkpt lat="49.34925" lon="-0.80157">
        <ele>58.5</ele>
        <time>2020-06-17T07:02:07Z</time>
      </trkpt>
      <trkpt lat="49.34926" lon="-0.80153">
        <ele>58.6</ele>
        <time>2020-06-17T07:02:08Z</time>
      </trkpt>
      <trkpt lat="49.34929" lon="-0.80148">
        <ele>58.9</ele>
        <time>2020-06-17T07:02:09Z</time>
      </trkpt>
      <trkpt lat="49.34931" lon="-0.80144">
        <ele>59</ele>
        <time>2020-06-17T07:02:10Z</time>
      </trkpt>
      <trkpt lat="49.34932" lon="-0.80138">
        <ele>59.2</ele>
        <time>2020-06-17T07:02:11Z</time>
      </trkpt>
      <trkpt lat="49.34932" lon="-0.80137">
        <ele>59.2</ele>
        <time>2020-06-17T07:02:12Z</time>
      </trkpt>
      <trkpt lat="49.34931" lon="-0.80132">
        <ele>59.3</ele>
        <time>2020-06-17T07:02:13Z</time>
      </trkpt>
      <trkpt lat="49.34931" lon="-0.80129">
        <ele>59.4</ele>
        <time>2020-06-17T07:02:14Z</time>
      </trkpt>
      <trkpt lat="49.3493" lon="-0.80125">
        <ele>59.5</ele>
        <time>2020-06-17T07:02:15Z</time>
      </trkpt>
      <trkpt lat="49.34929" lon="-0.8012">
        <ele>59.6</ele>
        <time>2020-06-17T07:02:16Z</time>
      </trkpt>
      <trkpt lat="49.34928" lon="-0.80118">
        <ele>59.6</ele>
        <time>2020-06-17T07:02:17Z</time>
      </trkpt>
      <trkpt lat="49.34927" lon="-0.80114">
        <ele>59.7</ele>
        <time>2020-06-17T07:02:18Z</time>
      </trkpt>
      <trkpt lat="49.34926" lon="-0.80107">
        <ele>59.8</ele>
        <time>2020-06-17T07:02:19Z</time>
      </trkpt>
      <trkpt lat="49.34926" lon="-0.80105">
        <ele>59.9</ele>
        <time>2020-06-17T07:02:20Z</time>
      </trkpt>
      <trkpt lat="49.34925" lon="-0.801">
        <ele>60</ele>
        <time>2020-06-17T07:02:21Z</time>
      </trkpt>
      <trkpt lat="49.34922" lon="-0.80094">
        <ele>60.1</ele>
        <time>2020-06-17T07:02:22Z</time>
      </trkpt>
      <trkpt lat="49.34921" lon="-0.80089">
        <ele>60.2</ele>
        <time>2020-06-17T07:02:23Z</time>
      </trkpt>
      <trkpt lat="49.3492" lon="-0.80083">
        <ele>60.3</ele>
        <time>2020-06-17T07:02:24Z</time>
      </trkpt>
      <trkpt lat="49.34919" lon="-0.80078">
        <ele>60.4</ele>
        <time>2020-06-17T07:02:25Z</time>
      </trkpt>
      <trkpt lat="49.34917" lon="-0.80072">
        <ele>60.6</ele>
        <time>2020-06-17T07:02:26Z</time>
      </trkpt>
      <trkpt lat="49.34915" lon="-0.80067">
        <ele>60.7</ele>
        <time>2020-06-17T07:02:27Z</time>
      </trkpt>
      <trkpt lat="49.34913" lon="-0.80063">
        <ele>60.8</ele>
        <time>2020-06-17T07:02:28Z</time>
      </trkpt>
      <trkpt lat="49.34912" lon="-0.80059">
        <ele>60.9</ele>
        <time>2020-06-17T07:02:29Z</time>
      </trkpt>
      <trkpt lat="49.34911" lon="-0.80055">
        <ele>61</ele>
        <time>2020-06-17T07:02:30Z</time>
      </trkpt>
      <trkpt lat="49.34909" lon="-0.80051">
        <ele>61.1</ele>
        <time>2020-06-17T07:02:31Z</time>
      </trkpt>
      <trkpt lat="49.34908" lon="-0.80047">
        <ele>61.2</ele>
        <time>2020-06-17T07:02:32Z</time>
      </trkpt>
      <trkpt lat="49.34907" lon="-0.80043">
        <ele>61.2</ele>
        <time>2020-06-17T07:02:33Z</time>
      </trkpt>
      <trkpt lat="49.34905" lon="-0.80038">
        <ele>61.3</ele>
        <time>2020-06-17T07:02:34Z</time>
      </trkpt>
      <trkpt lat="49.34903" lon="-0.80033">
        <ele>61.4</ele>
        <time>2020-06-17T07:02:35Z</time>
      </trkpt>
      <trkpt lat="49.34901" lon="-0.80028">
        <ele>61.5</ele>
        <time>2020-06-17T07:02:36Z</time>
      </trkpt>
      <trkpt lat="49.349" lon="-0.80024">
        <ele>61.5</ele>
        <time>2020-06-17T07:02:37Z</time>
      </trkpt>
      <trkpt lat="49.34898" lon="-0.8002">
        <ele>61.6</ele>
        <time>2020-06-17T07:02:38Z</time>
      </trkpt>
      <trkpt lat="49.34897" lon="-0.80016">
        <ele>61.7</ele>
        <time>2020-06-17T07:02:39Z</time>
      </trkpt>
      <trkpt lat="49.34895" lon="-0.80012">
        <ele>61.8</ele>
        <time>2020-06-17T07:02:40Z</time>
      </trkpt>
      <trkpt lat="49.34893" lon="-0.80008">
        <ele>61.8</ele>
        <time>2020-06-17T07:02:41Z</time>
      </trkpt>
      <trkpt lat="49.34891" lon="-0.80004">
        <ele>61.9</ele>
        <time>2020-06-17T07:02:42Z</time>
      </trkpt>
      <trkpt lat="49.34889" lon="-0.79998">
        <ele>62</ele>
        <time>2020-06-17T07:02:43Z</time>
      </trkpt>
      <trkpt lat="49.34887" lon="-0.79993">
        <ele>62.1</ele>
        <time>2020-06-17T07:02:44Z</time>
      </trkpt>
      <trkpt lat="49.34886" lon="-0.79989">
        <ele>62.2</ele>
        <time>2020-06-17T07:02:45Z</time>
      </trkpt>
      <trkpt lat="49.34885" lon="-0.79984">
        <ele>62.2</ele>
        <time>2020-06-17T07:02:46Z</time>
      </trkpt>
      <trkpt lat="49.34883" lon="-0.79979">
        <ele>62.3</ele>
        <time>2020-06-17T07:02:47Z</time>
      </trkpt>
      <trkpt lat="49.34882" lon="-0.79975">
        <ele>62.3</ele>
        <time>2020-06-17T07:02:48Z</time>
      </trkpt>
      <trkpt lat="49.3488" lon="-0.7997">
        <ele>62.4</ele>
        <time>2020-06-17T07:02:49Z</time>
      </trkpt>
      <trkpt lat="49.34879" lon="-0.79966">
        <ele>62.4</ele>
        <time>2020-06-17T07:02:50Z</time>
      </trkpt>
      <trkpt lat="49.34877" lon="-0.79962">
        <ele>62.5</ele>
        <time>2020-06-17T07:02:51Z</time>
      </trkpt>
      <trkpt lat="49.34875" lon="-0.79957">
        <ele>62.5</ele>
        <time>2020-06-17T07:02:52Z</time>
      </trkpt>
      <trkpt lat="49.34875" lon="-0.79955">
        <ele>62.5</ele>
        <time>2020-06-17T07:02:53Z</time>
      </trkpt>
      <trkpt lat="49.34873" lon="-0.79951">
        <ele>62.6</ele>
        <time>2020-06-17T07:02:54Z</time>
      </trkpt>
      <trkpt lat="49.34872" lon="-0.79946">
        <ele>62.6</ele>
        <time>2020-06-17T07:02:55Z</time>
      </trkpt>
      <trkpt lat="49.34871" lon="-0.79944">
        <ele>62.6</ele>
        <time>2020-06-17T07:02:56Z</time>
      </trkpt>
      <trkpt lat="49.3487" lon="-0.7994">
        <ele>62.6</ele>
        <time>2020-06-17T07:02:57Z</time>
      </trkpt>
      <trkpt lat="49.34869" lon="-0.79939">
        <ele>62.6</ele>
        <time>2020-06-17T07:02:58Z</time>
      </trkpt>
      <trkpt lat="49.34867" lon="-0.79934">
        <ele>62.6</ele>
        <time>2020-06-17T07:02:59Z</time>
      </trkpt>
      <trkpt lat="49.34867" lon="-0.79932">
        <ele>62.6</ele>
        <time>2020-06-17T07:03:00Z</time>
      </trkpt>
      <trkpt lat="49.34867" lon="-0.79925">
        <ele>62.6</ele>
        <time>2020-06-17T07:03:01Z</time>
      </trkpt>
      <trkpt lat="49.34868" lon="-0.79923">
        <ele>62.5</ele>
        <time>2020-06-17T07:03:02Z</time>
      </trkpt>
      <trkpt lat="49.34869" lon="-0.79918">
        <ele>62.5</ele>
        <time>2020-06-17T07:03:03Z</time>
      </trkpt>
      <trkpt lat="49.34871" lon="-0.79913">
        <ele>62.4</ele>
        <time>2020-06-17T07:03:04Z</time>
      </trkpt>
      <trkpt lat="49.34872" lon="-0.79908">
        <ele>62.4</ele>
        <time>2020-06-17T07:03:05Z</time>
      </trkpt>
      <trkpt lat="49.34875" lon="-0.79901">
        <ele>62.3</ele>
        <time>2020-06-17T07:03:06Z</time>
      </trkpt>
      <trkpt lat="49.34878" lon="-0.79894">
        <ele>62.2</ele>
        <time>2020-06-17T07:03:07Z</time>
      </trkpt>
      <trkpt lat="49.3488" lon="-0.79886">
        <ele>62.2</ele>
        <time>2020-06-17T07:03:08Z</time>
      </trkpt>
      <trkpt lat="49.34883" lon="-0.79879">
        <ele>62.1</ele>
        <time>2020-06-17T07:03:09Z</time>
      </trkpt>
      <trkpt lat="49.34886" lon="-0.79872">
        <ele>62</ele>
        <time>2020-06-17T07:03:10Z</time>
      </trkpt>
      <trkpt lat="49.34889" lon="-0.79865">
        <ele>61.9</ele>
        <time>2020-06-17T07:03:11Z</time>
      </trkpt>
      <trkpt lat="49.34891" lon="-0.79858">
        <ele>61.9</ele>
        <time>2020-06-17T07:03:12Z</time>
      </trkpt>
      <trkpt lat="49.34894" lon="-0.79852">
        <ele>61.9</ele>
        <time>2020-06-17T07:03:13Z</time>
      </trkpt>
      <trkpt lat="49.34895" lon="-0.79844">
        <ele>61.9</ele>
        <time>2020-06-17T07:03:14Z</time>
      </trkpt>
      <trkpt lat="49.34896" lon="-0.79837">
        <ele>61.9</ele>
        <time>2020-06-17T07:03:15Z</time>
      </trkpt>
      <trkpt lat="49.34897" lon="-0.79829">
        <ele>61.9</ele>
        <time>2020-06-17T07:03:16Z</time>
      </trkpt>
      <trkpt lat="49.34898" lon="-0.79821">
        <ele>62</ele>
        <time>2020-06-17T07:03:17Z</time>
      </trkpt>
      <trkpt lat="49.34899" lon="-0.79813">
        <ele>62</ele>
        <time>2020-06-17T07:03:18Z</time>
      </trkpt>
      <trkpt lat="49.34899" lon="-0.79805">
        <ele>62</ele>
        <time>2020-06-17T07:03:19Z</time>
      </trkpt>
      <trkpt lat="49.34899" lon="-0.79797">
        <ele>62.1</ele>
        <time>2020-06-17T07:03:20Z</time>
      </trkpt>
      <trkpt lat="49.349" lon="-0.79789">
        <ele>62.2</ele>
        <time>2020-06-17T07:03:21Z</time>
      </trkpt>
      <trkpt lat="49.34901" lon="-0.79782">
        <ele>62.3</ele>
        <time>2020-06-17T07:03:22Z</time>
      </trkpt>
      <trkpt lat="49.34901" lon="-0.79775">
        <ele>62.4</ele>
        <time>2020-06-17T07:03:23Z</time>
      </trkpt>
      <trkpt lat="49.34902" lon="-0.79767">
        <ele>62.5</ele>
        <time>2020-06-17T07:03:24Z</time>
      </trkpt>
      <trkpt lat="49.34903" lon="-0.7976">
        <ele>62.5</ele>
        <time>2020-06-17T07:03:25Z</time>
      </trkpt>
      <trkpt lat="49.34904" lon="-0.79752">
        <ele>62.6</ele>
        <time>2020-06-17T07:03:26Z</time>
      </trkpt>
      <trkpt lat="49.34904" lon="-0.79744">
        <ele>62.6</ele>
        <time>2020-06-17T07:03:27Z</time>
      </trkpt>
      <trkpt lat="49.34904" lon="-0.79737">
        <ele>62.7</ele>
        <time>2020-06-17T07:03:28Z</time>
      </trkpt>
      <trkpt lat="49.34904" lon="-0.79731">
        <ele>62.7</ele>
        <time>2020-06-17T07:03:29Z</time>
      </trkpt>
      <trkpt lat="49.34904" lon="-0.79723">
        <ele>62.8</ele>
        <time>2020-06-17T07:03:30Z</time>
      </trkpt>
      <trkpt lat="49.34905" lon="-0.79716">
        <ele>62.9</ele>
        <time>2020-06-17T07:03:31Z</time>
      </trkpt>
      <trkpt lat="49.34906" lon="-0.79708">
        <ele>62.9</ele>
        <time>2020-06-17T07:03:32Z</time>
      </trkpt>
      <trkpt lat="49.34907" lon="-0.797">
        <ele>63</ele>
        <time>2020-06-17T07:03:33Z</time>
      </trkpt>
      <trkpt lat="49.34907" lon="-0.79692">
        <ele>63</ele>
        <time>2020-06-17T07:03:34Z</time>
      </trkpt>
      <trkpt lat="49.34907" lon="-0.79684">
        <ele>63</ele>
        <time>2020-06-17T07:03:35Z</time>
      </trkpt>
      <trkpt lat="49.34907" lon="-0.79677">
        <ele>63</ele>
        <time>2020-06-17T07:03:36Z</time>
      </trkpt>
      <trkpt lat="49.34908" lon="-0.79669">
        <ele>63.1</ele>
        <time>2020-06-17T07:03:37Z</time>
      </trkpt>
      <trkpt lat="49.34908" lon="-0.79661">
        <ele>63.1</ele>
        <time>2020-06-17T07:03:38Z</time>
      </trkpt>
      <trkpt lat="49.34909" lon="-0.79652">
        <ele>63.1</ele>
        <time>2020-06-17T07:03:39Z</time>
      </trkpt>
      <trkpt lat="49.3491" lon="-0.79643">
        <ele>63</ele>
        <time>2020-06-17T07:03:40Z</time>
      </trkpt>
      <trkpt lat="49.34911" lon="-0.79634">
        <ele>63</ele>
        <time>2020-06-17T07:03:41Z</time>
      </trkpt>
      <trkpt lat="49.34911" lon="-0.79625">
        <ele>63</ele>
        <time>2020-06-17T07:03:42Z</time>
      </trkpt>
      <trkpt lat="49.34912" lon="-0.79616">
        <ele>63.1</ele>
        <time>2020-06-17T07:03:43Z</time>
      </trkpt>
      <trkpt lat="49.34913" lon="-0.79608">
        <ele>63.1</ele>
        <time>2020-06-17T07:03:44Z</time>
      </trkpt>
      <trkpt lat="49.34915" lon="-0.79599">
        <ele>63.1</ele>
        <time>2020-06-17T07:03:45Z</time>
      </trkpt>
      <trkpt lat="49.34916" lon="-0.7959">
        <ele>63.2</ele>
        <time>2020-06-17T07:03:46Z</time>
      </trkpt>
      <trkpt lat="49.34918" lon="-0.79581">
        <ele>63.3</ele>
        <time>2020-06-17T07:03:47Z</time>
      </trkpt>
      <trkpt lat="49.34919" lon="-0.79573">
        <ele>63.5</ele>
        <time>2020-06-17T07:03:48Z</time>
      </trkpt>
      <trkpt lat="49.3492" lon="-0.79565">
        <ele>63.5</ele>
        <time>2020-06-17T07:03:49Z</time>
      </trkpt>
      <trkpt lat="49.34921" lon="-0.79557">
        <ele>63.5</ele>
        <time>2020-06-17T07:03:50Z</time>
      </trkpt>
      <trkpt lat="49.34922" lon="-0.79549">
        <ele>63.5</ele>
        <time>2020-06-17T07:03:51Z</time>
      </trkpt>
      <trkpt lat="49.34923" lon="-0.79542">
        <ele>63.5</ele>
        <time>2020-06-17T07:03:52Z</time>
      </trkpt>
      <trkpt lat="49.34923" lon="-0.79534">
        <ele>63.5</ele>
        <time>2020-06-17T07:03:53Z</time>
      </trkpt>
      <trkpt lat="49.34924" lon="-0.79526">
        <ele>63.5</ele>
        <time>2020-06-17T07:03:54Z</time>
      </trkpt>
      <trkpt lat="49.34924" lon="-0.79517">
        <ele>63.5</ele>
        <time>2020-06-17T07:03:55Z</time>
      </trkpt>
      <trkpt lat="49.34925" lon="-0.79509">
        <ele>63.5</ele>
        <time>2020-06-17T07:03:56Z</time>
      </trkpt>
      <trkpt lat="49.34925" lon="-0.79502">
        <ele>63.5</ele>
        <time>2020-06-17T07:03:57Z</time>
      </trkpt>
      <trkpt lat="49.34926" lon="-0.79494">
        <ele>63.5</ele>
        <time>2020-06-17T07:03:58Z</time>
      </trkpt>
      <trkpt lat="49.34926" lon="-0.79486">
        <ele>63.5</ele>
        <time>2020-06-17T07:03:59Z</time>
      </trkpt>
      <trkpt lat="49.34927" lon="-0.79479">
        <ele>63.5</ele>
        <time>2020-06-17T07:04:00Z</time>
      </trkpt>
      <trkpt lat="49.34927" lon="-0.79471">
        <ele>63.5</ele>
        <time>2020-06-17T07:04:01Z</time>
      </trkpt>
      <trkpt lat="49.34928" lon="-0.79462">
        <ele>63.5</ele>
        <time>2020-06-17T07:04:02Z</time>
      </trkpt>
      <trkpt lat="49.34928" lon="-0.79452">
        <ele>63.4</ele>
        <time>2020-06-17T07:04:03Z</time>
      </trkpt>
      <trkpt lat="49.34928" lon="-0.79443">
        <ele>63.4</ele>
        <time>2020-06-17T07:04:04Z</time>
      </trkpt>
      <trkpt lat="49.34928" lon="-0.79434">
        <ele>63.4</ele>
        <time>2020-06-17T07:04:05Z</time>
      </trkpt>
      <trkpt lat="49.34929" lon="-0.79425">
        <ele>63.4</ele>
        <time>2020-06-17T07:04:06Z</time>
      </trkpt>
      <trkpt lat="49.34929" lon="-0.79415">
        <ele>63.3</ele>
        <time>2020-06-17T07:04:07Z</time>
      </trkpt>
      <trkpt lat="49.34929" lon="-0.79406">
        <ele>63.3</ele>
        <time>2020-06-17T07:04:08Z</time>
      </trkpt>
      <trkpt lat="49.34929" lon="-0.79396">
        <ele>63.3</ele>
        <time>2020-06-17T07:04:09Z</time>
      </trkpt>
      <trkpt lat="49.3493" lon="-0.79388">
        <ele>63.3</ele>
        <time>2020-06-17T07:04:10Z</time>
      </trkpt>
      <trkpt lat="49.3493" lon="-0.79379">
        <ele>63.2</ele>
        <time>2020-06-17T07:04:11Z</time>
      </trkpt>
      <trkpt lat="49.3493" lon="-0.7937">
        <ele>63.2</ele>
        <time>2020-06-17T07:04:12Z</time>
      </trkpt>
      <trkpt lat="49.34931" lon="-0.79361">
        <ele>63.1</ele>
        <time>2020-06-17T07:04:13Z</time>
      </trkpt>
      <trkpt lat="49.34931" lon="-0.79353">
        <ele>63.1</ele>
        <time>2020-06-17T07:04:14Z</time>
      </trkpt>
      <trkpt lat="49.34931" lon="-0.79343">
        <ele>63.1</ele>
        <time>2020-06-17T07:04:15Z</time>
      </trkpt>
      <trkpt lat="49.34931" lon="-0.79336">
        <ele>63.1</ele>
        <time>2020-06-17T07:04:16Z</time>
      </trkpt>
      <trkpt lat="49.34931" lon="-0.79328">
        <ele>63</ele>
        <time>2020-06-17T07:04:17Z</time>
      </trkpt>
      <trkpt lat="49.34931" lon="-0.7932">
        <ele>63</ele>
        <time>2020-06-17T07:04:18Z</time>
      </trkpt>
      <trkpt lat="49.34931" lon="-0.79311">
        <ele>63</ele>
        <time>2020-06-17T07:04:19Z</time>
      </trkpt>
      <trkpt lat="49.3493" lon="-0.79303">
        <ele>62.9</ele>
        <time>2020-06-17T07:04:20Z</time>
      </trkpt>
      <trkpt lat="49.34929" lon="-0.79294">
        <ele>62.9</ele>
        <time>2020-06-17T07:04:21Z</time>
      </trkpt>
      <trkpt lat="49.34927" lon="-0.79286">
        <ele>62.8</ele>
        <time>2020-06-17T07:04:22Z</time>
      </trkpt>
      <trkpt lat="49.34925" lon="-0.79278">
        <ele>62.8</ele>
        <time>2020-06-17T07:04:23Z</time>
      </trkpt>
      <trkpt lat="49.34922" lon="-0.79271">
        <ele>62.8</ele>
        <time>2020-06-17T07:04:24Z</time>
      </trkpt>
      <trkpt lat="49.34919" lon="-0.79263">
        <ele>62.8</ele>
        <time>2020-06-17T07:04:25Z</time>
      </trkpt>
      <trkpt lat="49.34916" lon="-0.79255">
        <ele>62.7</ele>
        <time>2020-06-17T07:04:26Z</time>
      </trkpt>
      <trkpt lat="49.34913" lon="-0.79247">
        <ele>62.7</ele>
        <time>2020-06-17T07:04:27Z</time>
      </trkpt>
      <trkpt lat="49.34909" lon="-0.7924">
        <ele>62.7</ele>
        <time>2020-06-17T07:04:28Z</time>
      </trkpt>
      <trkpt lat="49.34905" lon="-0.79233">
        <ele>62.7</ele>
        <time>2020-06-17T07:04:29Z</time>
      </trkpt>
      <trkpt lat="49.349" lon="-0.79225">
        <ele>62.7</ele>
        <time>2020-06-17T07:04:30Z</time>
      </trkpt>
      <trkpt lat="49.34895" lon="-0.79219">
        <ele>62.8</ele>
        <time>2020-06-17T07:04:31Z</time>
      </trkpt>
      <trkpt lat="49.34891" lon="-0.79212">
        <ele>62.8</ele>
        <time>2020-06-17T07:04:32Z</time>
      </trkpt>
      <trkpt lat="49.34887" lon="-0.79205">
        <ele>62.9</ele>
        <time>2020-06-17T07:04:33Z</time>
      </trkpt>
      <trkpt lat="49.34883" lon="-0.79199">
        <ele>63</ele>
        <time>2020-06-17T07:04:34Z</time>
      </trkpt>
      <trkpt lat="49.34879" lon="-0.79192">
        <ele>63.1</ele>
        <time>2020-06-17T07:04:35Z</time>
      </trkpt>
      <trkpt lat="49.34875" lon="-0.79186">
        <ele>63.3</ele>
        <time>2020-06-17T07:04:36Z</time>
      </trkpt>
      <trkpt lat="49.34871" lon="-0.79178">
        <ele>63.4</ele>
        <time>2020-06-17T07:04:37Z</time>
      </trkpt>
      <trkpt lat="49.34868" lon="-0.7917">
        <ele>63.6</ele>
        <time>2020-06-17T07:04:38Z</time>
      </trkpt>
      <trkpt lat="49.34866" lon="-0.79162">
        <ele>63.7</ele>
        <time>2020-06-17T07:04:39Z</time>
      </trkpt>
      <trkpt lat="49.34863" lon="-0.79154">
        <ele>63.9</ele>
        <time>2020-06-17T07:04:40Z</time>
      </trkpt>
      <trkpt lat="49.3486" lon="-0.79146">
        <ele>64.1</ele>
        <time>2020-06-17T07:04:41Z</time>
      </trkpt>
      <trkpt lat="49.34857" lon="-0.79139">
        <ele>64.2</ele>
        <time>2020-06-17T07:04:42Z</time>
      </trkpt>
      <trkpt lat="49.34854" lon="-0.79132">
        <ele>64.3</ele>
        <time>2020-06-17T07:04:43Z</time>
      </trkpt>
      <trkpt lat="49.34852" lon="-0.79124">
        <ele>64.4</ele>
        <time>2020-06-17T07:04:44Z</time>
      </trkpt>
      <trkpt lat="49.3485" lon="-0.79116">
        <ele>64.4</ele>
        <time>2020-06-17T07:04:45Z</time>
      </trkpt>
      <trkpt lat="49.34849" lon="-0.79109">
        <ele>64.5</ele>
        <time>2020-06-17T07:04:46Z</time>
      </trkpt>
      <trkpt lat="49.34849" lon="-0.79102">
        <ele>64.5</ele>
        <time>2020-06-17T07:04:47Z</time>
      </trkpt>
      <trkpt lat="49.34849" lon="-0.79094">
        <ele>64.6</ele>
        <time>2020-06-17T07:04:48Z</time>
      </trkpt>
      <trkpt lat="49.34848" lon="-0.79087">
        <ele>64.6</ele>
        <time>2020-06-17T07:04:49Z</time>
      </trkpt>
      <trkpt lat="49.34847" lon="-0.7908">
        <ele>64.6</ele>
        <time>2020-06-17T07:04:50Z</time>
      </trkpt>
      <trkpt lat="49.34846" lon="-0.79073">
        <ele>64.7</ele>
        <time>2020-06-17T07:04:51Z</time>
      </trkpt>
      <trkpt lat="49.34846" lon="-0.79065">
        <ele>64.7</ele>
        <time>2020-06-17T07:04:52Z</time>
      </trkpt>
      <trkpt lat="49.34845" lon="-0.79057">
        <ele>64.7</ele>
        <time>2020-06-17T07:04:53Z</time>
      </trkpt>
      <trkpt lat="49.34845" lon="-0.7905">
        <ele>64.7</ele>
        <time>2020-06-17T07:04:54Z</time>
      </trkpt>
      <trkpt lat="49.34845" lon="-0.79042">
        <ele>64.8</ele>
        <time>2020-06-17T07:04:55Z</time>
      </trkpt>
      <trkpt lat="49.34844" lon="-0.79034">
        <ele>64.8</ele>
        <time>2020-06-17T07:04:56Z</time>
      </trkpt>
      <trkpt lat="49.34844" lon="-0.79026">
        <ele>64.8</ele>
        <time>2020-06-17T07:04:57Z</time>
      </trkpt>
      <trkpt lat="49.34844" lon="-0.79018">
        <ele>64.8</ele>
        <time>2020-06-17T07:04:58Z</time>
      </trkpt>
      <trkpt lat="49.34844" lon="-0.7901">
        <ele>64.9</ele>
        <time>2020-06-17T07:04:59Z</time>
      </trkpt>
      <trkpt lat="49.34844" lon="-0.79002">
        <ele>64.9</ele>
        <time>2020-06-17T07:05:00Z</time>
      </trkpt>
      <trkpt lat="49.34845" lon="-0.78994">
        <ele>64.9</ele>
        <time>2020-06-17T07:05:01Z</time>
      </trkpt>
      <trkpt lat="49.34845" lon="-0.78986">
        <ele>65</ele>
        <time>2020-06-17T07:05:02Z</time>
      </trkpt>
      <trkpt lat="49.34845" lon="-0.78978">
        <ele>65</ele>
        <time>2020-06-17T07:05:03Z</time>
      </trkpt>
      <trkpt lat="49.34845" lon="-0.78971">
        <ele>65.1</ele>
        <time>2020-06-17T07:05:04Z</time>
      </trkpt>
      <trkpt lat="49.34845" lon="-0.78964">
        <ele>65.1</ele>
        <time>2020-06-17T07:05:05Z</time>
      </trkpt>
      <trkpt lat="49.34846" lon="-0.78956">
        <ele>65.2</ele>
        <time>2020-06-17T07:05:06Z</time>
      </trkpt>
      <trkpt lat="49.34846" lon="-0.78948">
        <ele>65.3</ele>
        <time>2020-06-17T07:05:07Z</time>
      </trkpt>
      <trkpt lat="49.34846" lon="-0.7894">
        <ele>65.3</ele>
        <time>2020-06-17T07:05:08Z</time>
      </trkpt>
      <trkpt lat="49.34847" lon="-0.78931">
        <ele>65.4</ele>
        <time>2020-06-17T07:05:09Z</time>
      </trkpt>
      <trkpt lat="49.34847" lon="-0.78923">
        <ele>65.5</ele>
        <time>2020-06-17T07:05:10Z</time>
      </trkpt>
      <trkpt lat="49.34847" lon="-0.78915">
        <ele>65.5</ele>
        <time>2020-06-17T07:05:11Z</time>
      </trkpt>
      <trkpt lat="49.34846" lon="-0.78907">
        <ele>65.5</ele>
        <time>2020-06-17T07:05:12Z</time>
      </trkpt>
      <trkpt lat="49.34847" lon="-0.78898">
        <ele>65.6</ele>
        <time>2020-06-17T07:05:13Z</time>
      </trkpt>
      <trkpt lat="49.34847" lon="-0.78889">
        <ele>65.6</ele>
        <time>2020-06-17T07:05:14Z</time>
      </trkpt>
      <trkpt lat="49.34849" lon="-0.7888">
        <ele>65.7</ele>
        <time>2020-06-17T07:05:15Z</time>
      </trkpt>
      <trkpt lat="49.34849" lon="-0.78873">
        <ele>65.7</ele>
        <time>2020-06-17T07:05:16Z</time>
      </trkpt>
      <trkpt lat="49.34849" lon="-0.78864">
        <ele>65.7</ele>
        <time>2020-06-17T07:05:17Z</time>
      </trkpt>
      <trkpt lat="49.3485" lon="-0.78855">
        <ele>65.8</ele>
        <time>2020-06-17T07:05:18Z</time>
      </trkpt>
      <trkpt lat="49.3485" lon="-0.78846">
        <ele>65.8</ele>
        <time>2020-06-17T07:05:19Z</time>
      </trkpt>
      <trkpt lat="49.3485" lon="-0.78837">
        <ele>65.8</ele>
        <time>2020-06-17T07:05:20Z</time>
      </trkpt>
      <trkpt lat="49.34849" lon="-0.78828">
        <ele>65.8</ele>
        <time>2020-06-17T07:05:21Z</time>
      </trkpt>
      <trkpt lat="49.34849" lon="-0.78819">
        <ele>65.8</ele>
        <time>2020-06-17T07:05:22Z</time>
      </trkpt>
      <trkpt lat="49.34849" lon="-0.78809">
        <ele>65.8</ele>
        <time>2020-06-17T07:05:23Z</time>
      </trkpt>
      <trkpt lat="49.34848" lon="-0.788">
        <ele>65.8</ele>
        <time>2020-06-17T07:05:24Z</time>
      </trkpt>
      <trkpt lat="49.34847" lon="-0.78791">
        <ele>65.9</ele>
        <time>2020-06-17T07:05:25Z</time>
      </trkpt>
      <trkpt lat="49.34846" lon="-0.78781">
        <ele>65.9</ele>
        <time>2020-06-17T07:05:26Z</time>
      </trkpt>
      <trkpt lat="49.34846" lon="-0.78772">
        <ele>65.9</ele>
        <time>2020-06-17T07:05:27Z</time>
      </trkpt>
      <trkpt lat="49.34845" lon="-0.78763">
        <ele>65.9</ele>
        <time>2020-06-17T07:05:28Z</time>
      </trkpt>
      <trkpt lat="49.34845" lon="-0.78755">
        <ele>66</ele>
        <time>2020-06-17T07:05:29Z</time>
      </trkpt>
      <trkpt lat="49.34845" lon="-0.78747">
        <ele>66</ele>
        <time>2020-06-17T07:05:30Z</time>
      </trkpt>
      <trkpt lat="49.34844" lon="-0.78738">
        <ele>66.1</ele>
        <time>2020-06-17T07:05:31Z</time>
      </trkpt>
      <trkpt lat="49.34844" lon="-0.78729">
        <ele>66.2</ele>
        <time>2020-06-17T07:05:32Z</time>
      </trkpt>
      <trkpt lat="49.34843" lon="-0.7872">
        <ele>66.3</ele>
        <time>2020-06-17T07:05:33Z</time>
      </trkpt>
      <trkpt lat="49.34842" lon="-0.78711">
        <ele>66.5</ele>
        <time>2020-06-17T07:05:34Z</time>
      </trkpt>
      <trkpt lat="49.34843" lon="-0.78703">
        <ele>66.7</ele>
        <time>2020-06-17T07:05:35Z</time>
      </trkpt>
      <trkpt lat="49.34843" lon="-0.78695">
        <ele>66.8</ele>
        <time>2020-06-17T07:05:36Z</time>
      </trkpt>
      <trkpt lat="49.34842" lon="-0.78687">
        <ele>66.9</ele>
        <time>2020-06-17T07:05:37Z</time>
      </trkpt>
      <trkpt lat="49.34841" lon="-0.78679">
        <ele>66.9</ele>
        <time>2020-06-17T07:05:38Z</time>
      </trkpt>
      <trkpt lat="49.34839" lon="-0.7867">
        <ele>66.9</ele>
        <time>2020-06-17T07:05:39Z</time>
      </trkpt>
      <trkpt lat="49.34838" lon="-0.78662">
        <ele>66.9</ele>
        <time>2020-06-17T07:05:40Z</time>
      </trkpt>
      <trkpt lat="49.34835" lon="-0.78654">
        <ele>67</ele>
        <time>2020-06-17T07:05:41Z</time>
      </trkpt>
      <trkpt lat="49.34832" lon="-0.78646">
        <ele>67.1</ele>
        <time>2020-06-17T07:05:42Z</time>
      </trkpt>
      <trkpt lat="49.34829" lon="-0.78638">
        <ele>67.1</ele>
        <time>2020-06-17T07:05:43Z</time>
      </trkpt>
      <trkpt lat="49.34825" lon="-0.7863">
        <ele>67.2</ele>
        <time>2020-06-17T07:05:44Z</time>
      </trkpt>
      <trkpt lat="49.34821" lon="-0.78622">
        <ele>67.2</ele>
        <time>2020-06-17T07:05:45Z</time>
      </trkpt>
      <trkpt lat="49.34816" lon="-0.78613">
        <ele>67.3</ele>
        <time>2020-06-17T07:05:46Z</time>
      </trkpt>
      <trkpt lat="49.34811" lon="-0.78605">
        <ele>67.3</ele>
        <time>2020-06-17T07:05:47Z</time>
      </trkpt>
      <trkpt lat="49.34807" lon="-0.78599">
        <ele>67.3</ele>
        <time>2020-06-17T07:05:48Z</time>
      </trkpt>
      <trkpt lat="49.34802" lon="-0.78593">
        <ele>67.4</ele>
        <time>2020-06-17T07:05:49Z</time>
      </trkpt>
      <trkpt lat="49.34797" lon="-0.78587">
        <ele>67.4</ele>
        <time>2020-06-17T07:05:50Z</time>
      </trkpt>
      <trkpt lat="49.34792" lon="-0.78581">
        <ele>67.4</ele>
        <time>2020-06-17T07:05:51Z</time>
      </trkpt>
      <trkpt lat="49.34788" lon="-0.78576">
        <ele>67.4</ele>
        <time>2020-06-17T07:05:52Z</time>
      </trkpt>
      <trkpt lat="49.34784" lon="-0.78571">
        <ele>67.4</ele>
        <time>2020-06-17T07:05:53Z</time>
      </trkpt>
      <trkpt lat="49.34779" lon="-0.78566">
        <ele>67.5</ele>
        <time>2020-06-17T07:05:54Z</time>
      </trkpt>
      <trkpt lat="49.34775" lon="-0.7856">
        <ele>67.5</ele>
        <time>2020-06-17T07:05:55Z</time>
      </trkpt>
      <trkpt lat="49.3477" lon="-0.78555">
        <ele>67.5</ele>
        <time>2020-06-17T07:05:56Z</time>
      </trkpt>
      <trkpt lat="49.34766" lon="-0.78549">
        <ele>67.5</ele>
        <time>2020-06-17T07:05:57Z</time>
      </trkpt>
      <trkpt lat="49.34761" lon="-0.78544">
        <ele>67.5</ele>
        <time>2020-06-17T07:05:58Z</time>
      </trkpt>
      <trkpt lat="49.34757" lon="-0.78538">
        <ele>67.6</ele>
        <time>2020-06-17T07:05:59Z</time>
      </trkpt>
      <trkpt lat="49.34752" lon="-0.78532">
        <ele>67.6</ele>
        <time>2020-06-17T07:06:00Z</time>
      </trkpt>
      <trkpt lat="49.34747" lon="-0.78527">
        <ele>67.6</ele>
        <time>2020-06-17T07:06:01Z</time>
      </trkpt>
      <trkpt lat="49.34743" lon="-0.7852">
        <ele>67.6</ele>
        <time>2020-06-17T07:06:02Z</time>
      </trkpt>
      <trkpt lat="49.34739" lon="-0.78513">
        <ele>67.6</ele>
        <time>2020-06-17T07:06:03Z</time>
      </trkpt>
      <trkpt lat="49.34735" lon="-0.78505">
        <ele>67.6</ele>
        <time>2020-06-17T07:06:04Z</time>
      </trkpt>
      <trkpt lat="49.34732" lon="-0.78498">
        <ele>67.7</ele>
        <time>2020-06-17T07:06:05Z</time>
      </trkpt>
      <trkpt lat="49.34729" lon="-0.78491">
        <ele>67.7</ele>
        <time>2020-06-17T07:06:06Z</time>
      </trkpt>
      <trkpt lat="49.34727" lon="-0.78484">
        <ele>67.7</ele>
        <time>2020-06-17T07:06:07Z</time>
      </trkpt>
      <trkpt lat="49.34724" lon="-0.78476">
        <ele>67.7</ele>
        <time>2020-06-17T07:06:08Z</time>
      </trkpt>
      <trkpt lat="49.34722" lon="-0.78467">
        <ele>67.8</ele>
        <time>2020-06-17T07:06:09Z</time>
      </trkpt>
      <trkpt lat="49.34719" lon="-0.78459">
        <ele>67.8</ele>
        <time>2020-06-17T07:06:10Z</time>
      </trkpt>
      <trkpt lat="49.34716" lon="-0.7845">
        <ele>67.8</ele>
        <time>2020-06-17T07:06:11Z</time>
      </trkpt>
      <trkpt lat="49.34714" lon="-0.78442">
        <ele>67.9</ele>
        <time>2020-06-17T07:06:12Z</time>
      </trkpt>
      <trkpt lat="49.34712" lon="-0.78433">
        <ele>67.9</ele>
        <time>2020-06-17T07:06:13Z</time>
      </trkpt>
      <trkpt lat="49.3471" lon="-0.78425">
        <ele>67.9</ele>
        <time>2020-06-17T07:06:14Z</time>
      </trkpt>
      <trkpt lat="49.34707" lon="-0.78417">
        <ele>67.9</ele>
        <time>2020-06-17T07:06:15Z</time>
      </trkpt>
      <trkpt lat="49.34705" lon="-0.78409">
        <ele>67.9</ele>
        <time>2020-06-17T07:06:16Z</time>
      </trkpt>
      <trkpt lat="49.34703" lon="-0.78404">
        <ele>67.9</ele>
        <time>2020-06-17T07:06:17Z</time>
      </trkpt>
      <trkpt lat="49.34701" lon="-0.78396">
        <ele>67.9</ele>
        <time>2020-06-17T07:06:18Z</time>
      </trkpt>
      <trkpt lat="49.34698" lon="-0.78389">
        <ele>67.9</ele>
        <time>2020-06-17T07:06:19Z</time>
      </trkpt>
      <trkpt lat="49.34696" lon="-0.78382">
        <ele>67.9</ele>
        <time>2020-06-17T07:06:20Z</time>
      </trkpt>
      <trkpt lat="49.34694" lon="-0.78374">
        <ele>67.9</ele>
        <time>2020-06-17T07:06:21Z</time>
      </trkpt>
      <trkpt lat="49.34691" lon="-0.78366">
        <ele>67.9</ele>
        <time>2020-06-17T07:06:22Z</time>
      </trkpt>
      <trkpt lat="49.34688" lon="-0.78359">
        <ele>67.9</ele>
        <time>2020-06-17T07:06:23Z</time>
      </trkpt>
      <trkpt lat="49.34685" lon="-0.78351">
        <ele>67.9</ele>
        <time>2020-06-17T07:06:24Z</time>
      </trkpt>
      <trkpt lat="49.34682" lon="-0.78344">
        <ele>67.9</ele>
        <time>2020-06-17T07:06:25Z</time>
      </trkpt>
      <trkpt lat="49.34679" lon="-0.78337">
        <ele>67.9</ele>
        <time>2020-06-17T07:06:26Z</time>
      </trkpt>
      <trkpt lat="49.34675" lon="-0.7833">
        <ele>67.9</ele>
        <time>2020-06-17T07:06:27Z</time>
      </trkpt>
      <trkpt lat="49.34671" lon="-0.78323">
        <ele>67.9</ele>
        <time>2020-06-17T07:06:28Z</time>
      </trkpt>
      <trkpt lat="49.34668" lon="-0.78315">
        <ele>67.9</ele>
        <time>2020-06-17T07:06:29Z</time>
      </trkpt>
      <trkpt lat="49.34665" lon="-0.78308">
        <ele>67.9</ele>
        <time>2020-06-17T07:06:30Z</time>
      </trkpt>
      <trkpt lat="49.34661" lon="-0.78299">
        <ele>67.9</ele>
        <time>2020-06-17T07:06:31Z</time>
      </trkpt>
      <trkpt lat="49.34656" lon="-0.78292">
        <ele>67.9</ele>
        <time>2020-06-17T07:06:32Z</time>
      </trkpt>
      <trkpt lat="49.34653" lon="-0.78286">
        <ele>68</ele>
        <time>2020-06-17T07:06:33Z</time>
      </trkpt>
      <trkpt lat="49.34649" lon="-0.78279">
        <ele>68</ele>
        <time>2020-06-17T07:06:34Z</time>
      </trkpt>
      <trkpt lat="49.34645" lon="-0.78273">
        <ele>68</ele>
        <time>2020-06-17T07:06:35Z</time>
      </trkpt>
      <trkpt lat="49.3464" lon="-0.78267">
        <ele>68</ele>
        <time>2020-06-17T07:06:36Z</time>
      </trkpt>
      <trkpt lat="49.34636" lon="-0.78259">
        <ele>68</ele>
        <time>2020-06-17T07:06:37Z</time>
      </trkpt>
      <trkpt lat="49.34632" lon="-0.78252">
        <ele>67.9</ele>
        <time>2020-06-17T07:06:38Z</time>
      </trkpt>
      <trkpt lat="49.34628" lon="-0.78246">
        <ele>67.9</ele>
        <time>2020-06-17T07:06:39Z</time>
      </trkpt>
      <trkpt lat="49.34624" lon="-0.7824">
        <ele>67.9</ele>
        <time>2020-06-17T07:06:40Z</time>
      </trkpt>
      <trkpt lat="49.3462" lon="-0.78234">
        <ele>67.9</ele>
        <time>2020-06-17T07:06:41Z</time>
      </trkpt>
      <trkpt lat="49.34616" lon="-0.78227">
        <ele>67.9</ele>
        <time>2020-06-17T07:06:42Z</time>
      </trkpt>
      <trkpt lat="49.34612" lon="-0.78221">
        <ele>68</ele>
        <time>2020-06-17T07:06:43Z</time>
      </trkpt>
      <trkpt lat="49.34608" lon="-0.78215">
        <ele>68</ele>
        <time>2020-06-17T07:06:44Z</time>
      </trkpt>
      <trkpt lat="49.34604" lon="-0.7821">
        <ele>68.1</ele>
        <time>2020-06-17T07:06:45Z</time>
      </trkpt>
      <trkpt lat="49.346" lon="-0.78204">
        <ele>68.2</ele>
        <time>2020-06-17T07:06:46Z</time>
      </trkpt>
      <trkpt lat="49.34596" lon="-0.78198">
        <ele>68.3</ele>
        <time>2020-06-17T07:06:47Z</time>
      </trkpt>
      <trkpt lat="49.34592" lon="-0.78192">
        <ele>68.5</ele>
        <time>2020-06-17T07:06:48Z</time>
      </trkpt>
      <trkpt lat="49.34588" lon="-0.78186">
        <ele>68.6</ele>
        <time>2020-06-17T07:06:49Z</time>
      </trkpt>
      <trkpt lat="49.34584" lon="-0.7818">
        <ele>68.7</ele>
        <time>2020-06-17T07:06:50Z</time>
      </trkpt>
      <trkpt lat="49.34581" lon="-0.78174">
        <ele>68.9</ele>
        <time>2020-06-17T07:06:51Z</time>
      </trkpt>
      <trkpt lat="49.34577" lon="-0.78167">
        <ele>69</ele>
        <time>2020-06-17T07:06:52Z</time>
      </trkpt>
      <trkpt lat="49.34574" lon="-0.78161">
        <ele>69.1</ele>
        <time>2020-06-17T07:06:53Z</time>
      </trkpt>
      <trkpt lat="49.34571" lon="-0.78155">
        <ele>69.1</ele>
        <time>2020-06-17T07:06:54Z</time>
      </trkpt>
      <trkpt lat="49.34568" lon="-0.78149">
        <ele>69.2</ele>
        <time>2020-06-17T07:06:55Z</time>
      </trkpt>
      <trkpt lat="49.34566" lon="-0.78142">
        <ele>69.2</ele>
        <time>2020-06-17T07:06:56Z</time>
      </trkpt>
      <trkpt lat="49.34563" lon="-0.78135">
        <ele>69.3</ele>
        <time>2020-06-17T07:06:57Z</time>
      </trkpt>
      <trkpt lat="49.3456" lon="-0.78127">
        <ele>69.3</ele>
        <time>2020-06-17T07:06:58Z</time>
      </trkpt>
      <trkpt lat="49.34558" lon="-0.78119">
        <ele>69.2</ele>
        <time>2020-06-17T07:06:59Z</time>
      </trkpt>
      <trkpt lat="49.34555" lon="-0.78112">
        <ele>69.2</ele>
        <time>2020-06-17T07:07:00Z</time>
      </trkpt>
      <trkpt lat="49.34553" lon="-0.78104">
        <ele>69.1</ele>
        <time>2020-06-17T07:07:01Z</time>
      </trkpt>
      <trkpt lat="49.3455" lon="-0.78097">
        <ele>69.1</ele>
        <time>2020-06-17T07:07:02Z</time>
      </trkpt>
      <trkpt lat="49.34548" lon="-0.7809">
        <ele>69</ele>
        <time>2020-06-17T07:07:03Z</time>
      </trkpt>
      <trkpt lat="49.34545" lon="-0.78083">
        <ele>69</ele>
        <time>2020-06-17T07:07:04Z</time>
      </trkpt>
      <trkpt lat="49.34543" lon="-0.78075">
        <ele>69</ele>
        <time>2020-06-17T07:07:05Z</time>
      </trkpt>
      <trkpt lat="49.34541" lon="-0.78066">
        <ele>69.1</ele>
        <time>2020-06-17T07:07:06Z</time>
      </trkpt>
      <trkpt lat="49.34539" lon="-0.78058">
        <ele>69.1</ele>
        <time>2020-06-17T07:07:07Z</time>
      </trkpt>
      <trkpt lat="49.34537" lon="-0.7805">
        <ele>69.2</ele>
        <time>2020-06-17T07:07:08Z</time>
      </trkpt>
      <trkpt lat="49.34536" lon="-0.78041">
        <ele>69.4</ele>
        <time>2020-06-17T07:07:09Z</time>
      </trkpt>
      <trkpt lat="49.34534" lon="-0.78032">
        <ele>69.5</ele>
        <time>2020-06-17T07:07:10Z</time>
      </trkpt>
      <trkpt lat="49.34532" lon="-0.78024">
        <ele>69.6</ele>
        <time>2020-06-17T07:07:11Z</time>
      </trkpt>
      <trkpt lat="49.3453" lon="-0.78016">
        <ele>69.7</ele>
        <time>2020-06-17T07:07:12Z</time>
      </trkpt>
      <trkpt lat="49.34528" lon="-0.78008">
        <ele>69.8</ele>
        <time>2020-06-17T07:07:13Z</time>
      </trkpt>
      <trkpt lat="49.34527" lon="-0.77999">
        <ele>69.9</ele>
        <time>2020-06-17T07:07:14Z</time>
      </trkpt>
      <trkpt lat="49.34525" lon="-0.7799">
        <ele>70</ele>
        <time>2020-06-17T07:07:15Z</time>
      </trkpt>
      <trkpt lat="49.34523" lon="-0.77981">
        <ele>70</ele>
        <time>2020-06-17T07:07:16Z</time>
      </trkpt>
      <trkpt lat="49.34522" lon="-0.77972">
        <ele>70</ele>
        <time>2020-06-17T07:07:17Z</time>
      </trkpt>
      <trkpt lat="49.3452" lon="-0.77963">
        <ele>70</ele>
        <time>2020-06-17T07:07:18Z</time>
      </trkpt>
      <trkpt lat="49.34519" lon="-0.77954">
        <ele>70</ele>
        <time>2020-06-17T07:07:19Z</time>
      </trkpt>
      <trkpt lat="49.34517" lon="-0.77946">
        <ele>70</ele>
        <time>2020-06-17T07:07:20Z</time>
      </trkpt>
      <trkpt lat="49.34515" lon="-0.77937">
        <ele>70</ele>
        <time>2020-06-17T07:07:21Z</time>
      </trkpt>
      <trkpt lat="49.34514" lon="-0.77929">
        <ele>70</ele>
        <time>2020-06-17T07:07:22Z</time>
      </trkpt>
      <trkpt lat="49.34513" lon="-0.7792">
        <ele>70</ele>
        <time>2020-06-17T07:07:23Z</time>
      </trkpt>
      <trkpt lat="49.34512" lon="-0.77911">
        <ele>70</ele>
        <time>2020-06-17T07:07:24Z</time>
      </trkpt>
      <trkpt lat="49.3451" lon="-0.77902">
        <ele>70</ele>
        <time>2020-06-17T07:07:25Z</time>
      </trkpt>
      <trkpt lat="49.34509" lon="-0.77893">
        <ele>70</ele>
        <time>2020-06-17T07:07:26Z</time>
      </trkpt>
      <trkpt lat="49.34508" lon="-0.77884">
        <ele>70</ele>
        <time>2020-06-17T07:07:27Z</time>
      </trkpt>
      <trkpt lat="49.34506" lon="-0.77874">
        <ele>69.9</ele>
        <time>2020-06-17T07:07:28Z</time>
      </trkpt>
      <trkpt lat="49.34504" lon="-0.77865">
        <ele>69.9</ele>
        <time>2020-06-17T07:07:29Z</time>
      </trkpt>
      <trkpt lat="49.34502" lon="-0.77856">
        <ele>69.9</ele>
        <time>2020-06-17T07:07:30Z</time>
      </trkpt>
      <trkpt lat="49.345" lon="-0.77846">
        <ele>69.9</ele>
        <time>2020-06-17T07:07:31Z</time>
      </trkpt>
      <trkpt lat="49.34499" lon="-0.77837">
        <ele>69.9</ele>
        <time>2020-06-17T07:07:32Z</time>
      </trkpt>
      <trkpt lat="49.34497" lon="-0.77828">
        <ele>69.9</ele>
        <time>2020-06-17T07:07:33Z</time>
      </trkpt>
      <trkpt lat="49.34495" lon="-0.77818">
        <ele>69.9</ele>
        <time>2020-06-17T07:07:34Z</time>
      </trkpt>
      <trkpt lat="49.34492" lon="-0.77808">
        <ele>69.8</ele>
        <time>2020-06-17T07:07:35Z</time>
      </trkpt>
      <trkpt lat="49.34489" lon="-0.77798">
        <ele>69.8</ele>
        <time>2020-06-17T07:07:36Z</time>
      </trkpt>
      <trkpt lat="49.34487" lon="-0.7779">
        <ele>69.7</ele>
        <time>2020-06-17T07:07:37Z</time>
      </trkpt>
      <trkpt lat="49.34483" lon="-0.7778">
        <ele>69.6</ele>
        <time>2020-06-17T07:07:38Z</time>
      </trkpt>
      <trkpt lat="49.34481" lon="-0.77771">
        <ele>69.6</ele>
        <time>2020-06-17T07:07:39Z</time>
      </trkpt>
      <trkpt lat="49.34477" lon="-0.77762">
        <ele>69.5</ele>
        <time>2020-06-17T07:07:40Z</time>
      </trkpt>
      <trkpt lat="49.34475" lon="-0.77754">
        <ele>69.4</ele>
        <time>2020-06-17T07:07:41Z</time>
      </trkpt>
      <trkpt lat="49.34471" lon="-0.77746">
        <ele>69.3</ele>
        <time>2020-06-17T07:07:42Z</time>
      </trkpt>
      <trkpt lat="49.34468" lon="-0.77737">
        <ele>69.3</ele>
        <time>2020-06-17T07:07:43Z</time>
      </trkpt>
      <trkpt lat="49.34466" lon="-0.77729">
        <ele>69.2</ele>
        <time>2020-06-17T07:07:44Z</time>
      </trkpt>
      <trkpt lat="49.34463" lon="-0.7772">
        <ele>69.2</ele>
        <time>2020-06-17T07:07:45Z</time>
      </trkpt>
      <trkpt lat="49.34459" lon="-0.7771">
        <ele>69.1</ele>
        <time>2020-06-17T07:07:46Z</time>
      </trkpt>
      <trkpt lat="49.34456" lon="-0.77702">
        <ele>69</ele>
        <time>2020-06-17T07:07:47Z</time>
      </trkpt>
      <trkpt lat="49.34453" lon="-0.77693">
        <ele>69</ele>
        <time>2020-06-17T07:07:48Z</time>
      </trkpt>
      <trkpt lat="49.3445" lon="-0.77684">
        <ele>68.9</ele>
        <time>2020-06-17T07:07:49Z</time>
      </trkpt>
      <trkpt lat="49.34448" lon="-0.77674">
        <ele>68.8</ele>
        <time>2020-06-17T07:07:50Z</time>
      </trkpt>
      <trkpt lat="49.34445" lon="-0.77662">
        <ele>68.7</ele>
        <time>2020-06-17T07:07:51Z</time>
      </trkpt>
      <trkpt lat="49.34443" lon="-0.77652">
        <ele>68.7</ele>
        <time>2020-06-17T07:07:52Z</time>
      </trkpt>
      <trkpt lat="49.34443" lon="-0.77641">
        <ele>68.6</ele>
        <time>2020-06-17T07:07:53Z</time>
      </trkpt>
      <trkpt lat="49.34442" lon="-0.77631">
        <ele>68.5</ele>
        <time>2020-06-17T07:07:54Z</time>
      </trkpt>
      <trkpt lat="49.34441" lon="-0.77621">
        <ele>68.4</ele>
        <time>2020-06-17T07:07:55Z</time>
      </trkpt>
      <trkpt lat="49.3444" lon="-0.77611">
        <ele>68.3</ele>
        <time>2020-06-17T07:07:56Z</time>
      </trkpt>
      <trkpt lat="49.34438" lon="-0.77601">
        <ele>68.2</ele>
        <time>2020-06-17T07:07:57Z</time>
      </trkpt>
      <trkpt lat="49.34437" lon="-0.7759">
        <ele>68.1</ele>
        <time>2020-06-17T07:07:58Z</time>
      </trkpt>
      <trkpt lat="49.34436" lon="-0.77581">
        <ele>68.1</ele>
        <time>2020-06-17T07:07:59Z</time>
      </trkpt>
      <trkpt lat="49.34436" lon="-0.7757">
        <ele>68</ele>
        <time>2020-06-17T07:08:00Z</time>
      </trkpt>
      <trkpt lat="49.34434" lon="-0.77558">
        <ele>68</ele>
        <time>2020-06-17T07:08:01Z</time>
      </trkpt>
      <trkpt lat="49.34433" lon="-0.77549">
        <ele>67.9</ele>
        <time>2020-06-17T07:08:02Z</time>
      </trkpt>
      <trkpt lat="49.34432" lon="-0.77539">
        <ele>67.9</ele>
        <time>2020-06-17T07:08:03Z</time>
      </trkpt>
      <trkpt lat="49.3443" lon="-0.77529">
        <ele>67.8</ele>
        <time>2020-06-17T07:08:04Z</time>
      </trkpt>
      <trkpt lat="49.3443" lon="-0.77519">
        <ele>67.7</ele>
        <time>2020-06-17T07:08:05Z</time>
      </trkpt>
      <trkpt lat="49.34429" lon="-0.7751">
        <ele>67.6</ele>
        <time>2020-06-17T07:08:06Z</time>
      </trkpt>
      <trkpt lat="49.34429" lon="-0.775">
        <ele>67.5</ele>
        <time>2020-06-17T07:08:07Z</time>
      </trkpt>
      <trkpt lat="49.34428" lon="-0.77488">
        <ele>67.4</ele>
        <time>2020-06-17T07:08:08Z</time>
      </trkpt>
      <trkpt lat="49.34428" lon="-0.77477">
        <ele>67.4</ele>
        <time>2020-06-17T07:08:09Z</time>
      </trkpt>
      <trkpt lat="49.34428" lon="-0.77465">
        <ele>67.3</ele>
        <time>2020-06-17T07:08:10Z</time>
      </trkpt>
      <trkpt lat="49.34428" lon="-0.77455">
        <ele>67.2</ele>
        <time>2020-06-17T07:08:11Z</time>
      </trkpt>
      <trkpt lat="49.34427" lon="-0.77445">
        <ele>67.1</ele>
        <time>2020-06-17T07:08:12Z</time>
      </trkpt>
      <trkpt lat="49.34427" lon="-0.77435">
        <ele>67.1</ele>
        <time>2020-06-17T07:08:13Z</time>
      </trkpt>
      <trkpt lat="49.34426" lon="-0.77425">
        <ele>66.9</ele>
        <time>2020-06-17T07:08:14Z</time>
      </trkpt>
      <trkpt lat="49.34425" lon="-0.77414">
        <ele>66.8</ele>
        <time>2020-06-17T07:08:15Z</time>
      </trkpt>
      <trkpt lat="49.34425" lon="-0.77405">
        <ele>66.7</ele>
        <time>2020-06-17T07:08:16Z</time>
      </trkpt>
      <trkpt lat="49.34425" lon="-0.77395">
        <ele>66.5</ele>
        <time>2020-06-17T07:08:17Z</time>
      </trkpt>
      <trkpt lat="49.34425" lon="-0.77384">
        <ele>66.4</ele>
        <time>2020-06-17T07:08:18Z</time>
      </trkpt>
      <trkpt lat="49.34425" lon="-0.77374">
        <ele>66.2</ele>
        <time>2020-06-17T07:08:19Z</time>
      </trkpt>
      <trkpt lat="49.34425" lon="-0.77363">
        <ele>66</ele>
        <time>2020-06-17T07:08:20Z</time>
      </trkpt>
      <trkpt lat="49.34424" lon="-0.77352">
        <ele>65.9</ele>
        <time>2020-06-17T07:08:21Z</time>
      </trkpt>
      <trkpt lat="49.34425" lon="-0.7734">
        <ele>65.7</ele>
        <time>2020-06-17T07:08:22Z</time>
      </trkpt>
      <trkpt lat="49.34425" lon="-0.77329">
        <ele>65.5</ele>
        <time>2020-06-17T07:08:23Z</time>
      </trkpt>
      <trkpt lat="49.34425" lon="-0.77318">
        <ele>65.3</ele>
        <time>2020-06-17T07:08:24Z</time>
      </trkpt>
      <trkpt lat="49.34425" lon="-0.77306">
        <ele>65</ele>
        <time>2020-06-17T07:08:25Z</time>
      </trkpt>
      <trkpt lat="49.34425" lon="-0.77296">
        <ele>64.7</ele>
        <time>2020-06-17T07:08:26Z</time>
      </trkpt>
      <trkpt lat="49.34425" lon="-0.77284">
        <ele>64.3</ele>
        <time>2020-06-17T07:08:27Z</time>
      </trkpt>
      <trkpt lat="49.34426" lon="-0.77272">
        <ele>63.8</ele>
        <time>2020-06-17T07:08:28Z</time>
      </trkpt>
      <trkpt lat="49.34426" lon="-0.77261">
        <ele>63.4</ele>
        <time>2020-06-17T07:08:29Z</time>
      </trkpt>
      <trkpt lat="49.34426" lon="-0.77249">
        <ele>63.1</ele>
        <time>2020-06-17T07:08:30Z</time>
      </trkpt>
      <trkpt lat="49.34426" lon="-0.77237">
        <ele>62.6</ele>
        <time>2020-06-17T07:08:31Z</time>
      </trkpt>
      <trkpt lat="49.34425" lon="-0.77225">
        <ele>62.2</ele>
        <time>2020-06-17T07:08:32Z</time>
      </trkpt>
      <trkpt lat="49.34425" lon="-0.77213">
        <ele>61.7</ele>
        <time>2020-06-17T07:08:33Z</time>
      </trkpt>
      <trkpt lat="49.34425" lon="-0.77201">
        <ele>61.2</ele>
        <time>2020-06-17T07:08:34Z</time>
      </trkpt>
      <trkpt lat="49.34424" lon="-0.77188">
        <ele>60.5</ele>
        <time>2020-06-17T07:08:35Z</time>
      </trkpt>
      <trkpt lat="49.34422" lon="-0.77177">
        <ele>59.9</ele>
        <time>2020-06-17T07:08:36Z</time>
      </trkpt>
      <trkpt lat="49.3442" lon="-0.77163">
        <ele>59.1</ele>
        <time>2020-06-17T07:08:37Z</time>
      </trkpt>
      <trkpt lat="49.34417" lon="-0.77151">
        <ele>58.4</ele>
        <time>2020-06-17T07:08:38Z</time>
      </trkpt>
      <trkpt lat="49.34414" lon="-0.77138">
        <ele>57.7</ele>
        <time>2020-06-17T07:08:39Z</time>
      </trkpt>
      <trkpt lat="49.3441" lon="-0.77125">
        <ele>56.9</ele>
        <time>2020-06-17T07:08:40Z</time>
      </trkpt>
      <trkpt lat="49.34406" lon="-0.77112">
        <ele>56.1</ele>
        <time>2020-06-17T07:08:41Z</time>
      </trkpt>
      <trkpt lat="49.34402" lon="-0.77097">
        <ele>55.2</ele>
        <time>2020-06-17T07:08:42Z</time>
      </trkpt>
      <trkpt lat="49.34398" lon="-0.77083">
        <ele>54.3</ele>
        <time>2020-06-17T07:08:43Z</time>
      </trkpt>
      <trkpt lat="49.34395" lon="-0.7707">
        <ele>53.6</ele>
        <time>2020-06-17T07:08:44Z</time>
      </trkpt>
      <trkpt lat="49.34392" lon="-0.77055">
        <ele>52.8</ele>
        <time>2020-06-17T07:08:45Z</time>
      </trkpt>
      <trkpt lat="49.34389" lon="-0.77042">
        <ele>52.1</ele>
        <time>2020-06-17T07:08:46Z</time>
      </trkpt>
      <trkpt lat="49.34386" lon="-0.7703">
        <ele>51.5</ele>
        <time>2020-06-17T07:08:47Z</time>
      </trkpt>
      <trkpt lat="49.34383" lon="-0.77017">
        <ele>50.8</ele>
        <time>2020-06-17T07:08:48Z</time>
      </trkpt>
      <trkpt lat="49.34381" lon="-0.77005">
        <ele>50.2</ele>
        <time>2020-06-17T07:08:49Z</time>
      </trkpt>
      <trkpt lat="49.34379" lon="-0.76992">
        <ele>49.5</ele>
        <time>2020-06-17T07:08:50Z</time>
      </trkpt>
      <trkpt lat="49.34378" lon="-0.7698">
        <ele>48.9</ele>
        <time>2020-06-17T07:08:51Z</time>
      </trkpt>
      <trkpt lat="49.34377" lon="-0.76968">
        <ele>48.2</ele>
        <time>2020-06-17T07:08:52Z</time>
      </trkpt>
      <trkpt lat="49.34375" lon="-0.76956">
        <ele>47.6</ele>
        <time>2020-06-17T07:08:53Z</time>
      </trkpt>
      <trkpt lat="49.34373" lon="-0.76942">
        <ele>46.8</ele>
        <time>2020-06-17T07:08:54Z</time>
      </trkpt>
      <trkpt lat="49.34372" lon="-0.76927">
        <ele>46</ele>
        <time>2020-06-17T07:08:55Z</time>
      </trkpt>
      <trkpt lat="49.34371" lon="-0.76914">
        <ele>45.6</ele>
        <time>2020-06-17T07:08:56Z</time>
      </trkpt>
      <trkpt lat="49.3437" lon="-0.76898">
        <ele>45</ele>
        <time>2020-06-17T07:08:57Z</time>
      </trkpt>
      <trkpt lat="49.3437" lon="-0.76884">
        <ele>44.9</ele>
        <time>2020-06-17T07:08:58Z</time>
      </trkpt>
      <trkpt lat="49.34369" lon="-0.76871">
        <ele>44.4</ele>
        <time>2020-06-17T07:08:59Z</time>
      </trkpt>
      <trkpt lat="49.34368" lon="-0.76858">
        <ele>44.7</ele>
        <time>2020-06-17T07:09:00Z</time>
      </trkpt>
      <trkpt lat="49.34368" lon="-0.76845">
        <ele>45.3</ele>
        <time>2020-06-17T07:09:01Z</time>
      </trkpt>
      <trkpt lat="49.34364" lon="-0.76831">
        <ele>45.3</ele>
        <time>2020-06-17T07:09:02Z</time>
      </trkpt>
      <trkpt lat="49.34363" lon="-0.76816">
        <ele>45.2</ele>
        <time>2020-06-17T07:09:03Z</time>
      </trkpt>
      <trkpt lat="49.34363" lon="-0.76799">
        <ele>45.9</ele>
        <time>2020-06-17T07:09:04Z</time>
      </trkpt>
      <trkpt lat="49.34365" lon="-0.76775">
        <ele>47.7</ele>
        <time>2020-06-17T07:09:05Z</time>
      </trkpt>
      <trkpt lat="49.34366" lon="-0.76767">
        <ele>47.8</ele>
        <time>2020-06-17T07:09:06Z</time>
      </trkpt>
      <trkpt lat="49.34367" lon="-0.76753">
        <ele>48.5</ele>
        <time>2020-06-17T07:09:07Z</time>
      </trkpt>
      <trkpt lat="49.34368" lon="-0.76729">
        <ele>48.4</ele>
        <time>2020-06-17T07:09:08Z</time>
      </trkpt>
      <trkpt lat="49.34368" lon="-0.7672">
        <ele>48.1</ele>
        <time>2020-06-17T07:09:09Z</time>
      </trkpt>
      <trkpt lat="49.34368" lon="-0.76711">
        <ele>47.7</ele>
        <time>2020-06-17T07:09:10Z</time>
      </trkpt>
      <trkpt lat="49.34368" lon="-0.767">
        <ele>47.2</ele>
        <time>2020-06-17T07:09:11Z</time>
      </trkpt>
      <trkpt lat="49.3437" lon="-0.76682">
        <ele>46.5</ele>
        <time>2020-06-17T07:09:12Z</time>
      </trkpt>
      <trkpt lat="49.34373" lon="-0.76665">
        <ele>45.8</ele>
        <time>2020-06-17T07:09:13Z</time>
      </trkpt>
      <trkpt lat="49.34379" lon="-0.76641">
        <ele>44.4</ele>
        <time>2020-06-17T07:09:14Z</time>
      </trkpt>
      <trkpt lat="49.3438" lon="-0.76633">
        <ele>44</ele>
        <time>2020-06-17T07:09:15Z</time>
      </trkpt>
      <trkpt lat="49.34384" lon="-0.76619">
        <ele>43</ele>
        <time>2020-06-17T07:09:16Z</time>
      </trkpt>
      <trkpt lat="49.34385" lon="-0.76604">
        <ele>41.3</ele>
        <time>2020-06-17T07:09:17Z</time>
      </trkpt>
      <trkpt lat="49.34385" lon="-0.76592">
        <ele>40</ele>
        <time>2020-06-17T07:09:18Z</time>
      </trkpt>
      <trkpt lat="49.34386" lon="-0.76583">
        <ele>39.2</ele>
        <time>2020-06-17T07:09:19Z</time>
      </trkpt>
      <trkpt lat="49.34383" lon="-0.76567">
        <ele>37.7</ele>
        <time>2020-06-17T07:09:20Z</time>
      </trkpt>
      <trkpt lat="49.34383" lon="-0.76549">
        <ele>35.8</ele>
        <time>2020-06-17T07:09:21Z</time>
      </trkpt>
      <trkpt lat="49.34382" lon="-0.76534">
        <ele>34.2</ele>
        <time>2020-06-17T07:09:22Z</time>
      </trkpt>
      <trkpt lat="49.34381" lon="-0.76519">
        <ele>33.2</ele>
        <time>2020-06-17T07:09:23Z</time>
      </trkpt>
      <trkpt lat="49.3438" lon="-0.76505">
        <ele>32.1</ele>
        <time>2020-06-17T07:09:24Z</time>
      </trkpt>
      <trkpt lat="49.3438" lon="-0.7649">
        <ele>31.2</ele>
        <time>2020-06-17T07:09:25Z</time>
      </trkpt>
      <trkpt lat="49.34381" lon="-0.76476">
        <ele>30.4</ele>
        <time>2020-06-17T07:09:26Z</time>
      </trkpt>
      <trkpt lat="49.34381" lon="-0.76461">
        <ele>29.6</ele>
        <time>2020-06-17T07:09:27Z</time>
      </trkpt>
      <trkpt lat="49.3438" lon="-0.76445">
        <ele>29.1</ele>
        <time>2020-06-17T07:09:28Z</time>
      </trkpt>
      <trkpt lat="49.3438" lon="-0.7643">
        <ele>28.8</ele>
        <time>2020-06-17T07:09:29Z</time>
      </trkpt>
      <trkpt lat="49.3438" lon="-0.76415">
        <ele>28.6</ele>
        <time>2020-06-17T07:09:30Z</time>
      </trkpt>
      <trkpt lat="49.3438" lon="-0.76399">
        <ele>28.4</ele>
        <time>2020-06-17T07:09:31Z</time>
      </trkpt>
      <trkpt lat="49.3438" lon="-0.76384">
        <ele>28.2</ele>
        <time>2020-06-17T07:09:32Z</time>
      </trkpt>
      <trkpt lat="49.34379" lon="-0.76369">
        <ele>28</ele>
        <time>2020-06-17T07:09:33Z</time>
      </trkpt>
      <trkpt lat="49.34378" lon="-0.76353">
        <ele>27.8</ele>
        <time>2020-06-17T07:09:34Z</time>
      </trkpt>
      <trkpt lat="49.34377" lon="-0.76338">
        <ele>27.6</ele>
        <time>2020-06-17T07:09:35Z</time>
      </trkpt>
      <trkpt lat="49.34377" lon="-0.76323">
        <ele>27.3</ele>
        <time>2020-06-17T07:09:36Z</time>
      </trkpt>
      <trkpt lat="49.34376" lon="-0.76307">
        <ele>27</ele>
        <time>2020-06-17T07:09:37Z</time>
      </trkpt>
      <trkpt lat="49.34375" lon="-0.76292">
        <ele>26.8</ele>
        <time>2020-06-17T07:09:38Z</time>
      </trkpt>
      <trkpt lat="49.34375" lon="-0.76277">
        <ele>26.5</ele>
        <time>2020-06-17T07:09:39Z</time>
      </trkpt>
      <trkpt lat="49.34375" lon="-0.76263">
        <ele>26.2</ele>
        <time>2020-06-17T07:09:40Z</time>
      </trkpt>
      <trkpt lat="49.34375" lon="-0.76249">
        <ele>26</ele>
        <time>2020-06-17T07:09:41Z</time>
      </trkpt>
      <trkpt lat="49.34376" lon="-0.76236">
        <ele>25.7</ele>
        <time>2020-06-17T07:09:42Z</time>
      </trkpt>
      <trkpt lat="49.34375" lon="-0.76222">
        <ele>25.5</ele>
        <time>2020-06-17T07:09:43Z</time>
      </trkpt>
      <trkpt lat="49.34376" lon="-0.76211">
        <ele>25.2</ele>
        <time>2020-06-17T07:09:44Z</time>
      </trkpt>
      <trkpt lat="49.34376" lon="-0.76198">
        <ele>25</ele>
        <time>2020-06-17T07:09:45Z</time>
      </trkpt>
      <trkpt lat="49.34376" lon="-0.76186">
        <ele>24.8</ele>
        <time>2020-06-17T07:09:46Z</time>
      </trkpt>
      <trkpt lat="49.34376" lon="-0.76174">
        <ele>24.7</ele>
        <time>2020-06-17T07:09:47Z</time>
      </trkpt>
      <trkpt lat="49.34377" lon="-0.76162">
        <ele>24.6</ele>
        <time>2020-06-17T07:09:48Z</time>
      </trkpt>
      <trkpt lat="49.34377" lon="-0.76151">
        <ele>24.5</ele>
        <time>2020-06-17T07:09:49Z</time>
      </trkpt>
      <trkpt lat="49.34378" lon="-0.76139">
        <ele>24.3</ele>
        <time>2020-06-17T07:09:50Z</time>
      </trkpt>
      <trkpt lat="49.3438" lon="-0.76127">
        <ele>24.3</ele>
        <time>2020-06-17T07:09:51Z</time>
      </trkpt>
      <trkpt lat="49.3438" lon="-0.76114">
        <ele>24.2</ele>
        <time>2020-06-17T07:09:52Z</time>
      </trkpt>
      <trkpt lat="49.3438" lon="-0.76102">
        <ele>24.1</ele>
        <time>2020-06-17T07:09:53Z</time>
      </trkpt>
      <trkpt lat="49.3438" lon="-0.7609">
        <ele>24.1</ele>
        <time>2020-06-17T07:09:54Z</time>
      </trkpt>
      <trkpt lat="49.3438" lon="-0.76079">
        <ele>24</ele>
        <time>2020-06-17T07:09:55Z</time>
      </trkpt>
      <trkpt lat="49.34381" lon="-0.76068">
        <ele>24</ele>
        <time>2020-06-17T07:09:56Z</time>
      </trkpt>
      <trkpt lat="49.34382" lon="-0.76057">
        <ele>24</ele>
        <time>2020-06-17T07:09:57Z</time>
      </trkpt>
      <trkpt lat="49.34383" lon="-0.76045">
        <ele>23.9</ele>
        <time>2020-06-17T07:09:58Z</time>
      </trkpt>
      <trkpt lat="49.34384" lon="-0.76034">
        <ele>23.9</ele>
        <time>2020-06-17T07:09:59Z</time>
      </trkpt>
      <trkpt lat="49.34385" lon="-0.76022">
        <ele>23.8</ele>
        <time>2020-06-17T07:10:00Z</time>
      </trkpt>
      <trkpt lat="49.34387" lon="-0.76011">
        <ele>23.7</ele>
        <time>2020-06-17T07:10:01Z</time>
      </trkpt>
      <trkpt lat="49.34388" lon="-0.76001">
        <ele>23.7</ele>
        <time>2020-06-17T07:10:02Z</time>
      </trkpt>
      <trkpt lat="49.3439" lon="-0.75991">
        <ele>23.7</ele>
        <time>2020-06-17T07:10:03Z</time>
      </trkpt>
      <trkpt lat="49.34391" lon="-0.7598">
        <ele>23.6</ele>
        <time>2020-06-17T07:10:04Z</time>
      </trkpt>
      <trkpt lat="49.34392" lon="-0.7597">
        <ele>23.5</ele>
        <time>2020-06-17T07:10:05Z</time>
      </trkpt>
      <trkpt lat="49.34392" lon="-0.75959">
        <ele>23.4</ele>
        <time>2020-06-17T07:10:06Z</time>
      </trkpt>
      <trkpt lat="49.34394" lon="-0.75948">
        <ele>23.4</ele>
        <time>2020-06-17T07:10:07Z</time>
      </trkpt>
      <trkpt lat="49.34395" lon="-0.75937">
        <ele>23.3</ele>
        <time>2020-06-17T07:10:08Z</time>
      </trkpt>
      <trkpt lat="49.34395" lon="-0.75928">
        <ele>23.2</ele>
        <time>2020-06-17T07:10:09Z</time>
      </trkpt>
      <trkpt lat="49.34396" lon="-0.75917">
        <ele>23.1</ele>
        <time>2020-06-17T07:10:10Z</time>
      </trkpt>
      <trkpt lat="49.34398" lon="-0.75908">
        <ele>23</ele>
        <time>2020-06-17T07:10:11Z</time>
      </trkpt>
      <trkpt lat="49.344" lon="-0.759">
        <ele>22.9</ele>
        <time>2020-06-17T07:10:12Z</time>
      </trkpt>
      <trkpt lat="49.34401" lon="-0.75892">
        <ele>22.8</ele>
        <time>2020-06-17T07:10:13Z</time>
      </trkpt>
      <trkpt lat="49.34402" lon="-0.75882">
        <ele>22.7</ele>
        <time>2020-06-17T07:10:14Z</time>
      </trkpt>
      <trkpt lat="49.34402" lon="-0.75873">
        <ele>22.5</ele>
        <time>2020-06-17T07:10:15Z</time>
      </trkpt>
      <trkpt lat="49.34403" lon="-0.75862">
        <ele>22.4</ele>
        <time>2020-06-17T07:10:16Z</time>
      </trkpt>
      <trkpt lat="49.34402" lon="-0.75853">
        <ele>22.3</ele>
        <time>2020-06-17T07:10:17Z</time>
      </trkpt>
      <trkpt lat="49.34402" lon="-0.75843">
        <ele>22.2</ele>
        <time>2020-06-17T07:10:18Z</time>
      </trkpt>
      <trkpt lat="49.34402" lon="-0.75831">
        <ele>22.1</ele>
        <time>2020-06-17T07:10:19Z</time>
      </trkpt>
      <trkpt lat="49.34402" lon="-0.75821">
        <ele>22</ele>
        <time>2020-06-17T07:10:20Z</time>
      </trkpt>
      <trkpt lat="49.344" lon="-0.7581">
        <ele>21.9</ele>
        <time>2020-06-17T07:10:21Z</time>
      </trkpt>
      <trkpt lat="49.34399" lon="-0.75799">
        <ele>21.8</ele>
        <time>2020-06-17T07:10:22Z</time>
      </trkpt>
      <trkpt lat="49.34397" lon="-0.75789">
        <ele>21.7</ele>
        <time>2020-06-17T07:10:23Z</time>
      </trkpt>
      <trkpt lat="49.34395" lon="-0.7578">
        <ele>21.6</ele>
        <time>2020-06-17T07:10:24Z</time>
      </trkpt>
      <trkpt lat="49.34392" lon="-0.75771">
        <ele>21.4</ele>
        <time>2020-06-17T07:10:25Z</time>
      </trkpt>
      <trkpt lat="49.3439" lon="-0.75761">
        <ele>21.3</ele>
        <time>2020-06-17T07:10:26Z</time>
      </trkpt>
      <trkpt lat="49.34387" lon="-0.75752">
        <ele>21.1</ele>
        <time>2020-06-17T07:10:27Z</time>
      </trkpt>
      <trkpt lat="49.34384" lon="-0.75743">
        <ele>21</ele>
        <time>2020-06-17T07:10:28Z</time>
      </trkpt>
      <trkpt lat="49.34382" lon="-0.75735">
        <ele>20.9</ele>
        <time>2020-06-17T07:10:29Z</time>
      </trkpt>
      <trkpt lat="49.3438" lon="-0.75726">
        <ele>20.7</ele>
        <time>2020-06-17T07:10:30Z</time>
      </trkpt>
      <trkpt lat="49.34378" lon="-0.75718">
        <ele>20.5</ele>
        <time>2020-06-17T07:10:31Z</time>
      </trkpt>
      <trkpt lat="49.34376" lon="-0.75708">
        <ele>20.4</ele>
        <time>2020-06-17T07:10:32Z</time>
      </trkpt>
      <trkpt lat="49.34374" lon="-0.757">
        <ele>20.3</ele>
        <time>2020-06-17T07:10:33Z</time>
      </trkpt>
      <trkpt lat="49.34373" lon="-0.75692">
        <ele>20.1</ele>
        <time>2020-06-17T07:10:34Z</time>
      </trkpt>
      <trkpt lat="49.34371" lon="-0.75682">
        <ele>20</ele>
        <time>2020-06-17T07:10:35Z</time>
      </trkpt>
      <trkpt lat="49.34369" lon="-0.75672">
        <ele>19.8</ele>
        <time>2020-06-17T07:10:36Z</time>
      </trkpt>
      <trkpt lat="49.34368" lon="-0.75662">
        <ele>19.6</ele>
        <time>2020-06-17T07:10:37Z</time>
      </trkpt>
      <trkpt lat="49.34367" lon="-0.75651">
        <ele>19.4</ele>
        <time>2020-06-17T07:10:38Z</time>
      </trkpt>
      <trkpt lat="49.34367" lon="-0.75641">
        <ele>19.2</ele>
        <time>2020-06-17T07:10:39Z</time>
      </trkpt>
      <trkpt lat="49.34366" lon="-0.75631">
        <ele>19.1</ele>
        <time>2020-06-17T07:10:40Z</time>
      </trkpt>
      <trkpt lat="49.34366" lon="-0.7562">
        <ele>19</ele>
        <time>2020-06-17T07:10:41Z</time>
      </trkpt>
      <trkpt lat="49.34366" lon="-0.7561">
        <ele>18.8</ele>
        <time>2020-06-17T07:10:42Z</time>
      </trkpt>
      <trkpt lat="49.34366" lon="-0.756">
        <ele>18.7</ele>
        <time>2020-06-17T07:10:43Z</time>
      </trkpt>
      <trkpt lat="49.34365" lon="-0.7559">
        <ele>18.6</ele>
        <time>2020-06-17T07:10:44Z</time>
      </trkpt>
      <trkpt lat="49.34364" lon="-0.7558">
        <ele>18.6</ele>
        <time>2020-06-17T07:10:45Z</time>
      </trkpt>
      <trkpt lat="49.34364" lon="-0.7557">
        <ele>18.5</ele>
        <time>2020-06-17T07:10:46Z</time>
      </trkpt>
      <trkpt lat="49.34363" lon="-0.7556">
        <ele>18.4</ele>
        <time>2020-06-17T07:10:47Z</time>
      </trkpt>
      <trkpt lat="49.34363" lon="-0.75551">
        <ele>18.3</ele>
        <time>2020-06-17T07:10:48Z</time>
      </trkpt>
      <trkpt lat="49.34362" lon="-0.75541">
        <ele>18.1</ele>
        <time>2020-06-17T07:10:49Z</time>
      </trkpt>
      <trkpt lat="49.34362" lon="-0.75533">
        <ele>17.8</ele>
        <time>2020-06-17T07:10:50Z</time>
      </trkpt>
      <trkpt lat="49.34362" lon="-0.75524">
        <ele>17.6</ele>
        <time>2020-06-17T07:10:51Z</time>
      </trkpt>
      <trkpt lat="49.34362" lon="-0.75515">
        <ele>17.3</ele>
        <time>2020-06-17T07:10:52Z</time>
      </trkpt>
      <trkpt lat="49.34361" lon="-0.75506">
        <ele>16.9</ele>
        <time>2020-06-17T07:10:53Z</time>
      </trkpt>
      <trkpt lat="49.3436" lon="-0.75498">
        <ele>16.7</ele>
        <time>2020-06-17T07:10:54Z</time>
      </trkpt>
      <trkpt lat="49.3436" lon="-0.75489">
        <ele>16.4</ele>
        <time>2020-06-17T07:10:55Z</time>
      </trkpt>
      <trkpt lat="49.3436" lon="-0.7548">
        <ele>16</ele>
        <time>2020-06-17T07:10:56Z</time>
      </trkpt>
      <trkpt lat="49.3436" lon="-0.7547">
        <ele>15.7</ele>
        <time>2020-06-17T07:10:57Z</time>
      </trkpt>
      <trkpt lat="49.3436" lon="-0.7546">
        <ele>15.3</ele>
        <time>2020-06-17T07:10:58Z</time>
      </trkpt>
      <trkpt lat="49.3436" lon="-0.75451">
        <ele>14.9</ele>
        <time>2020-06-17T07:10:59Z</time>
      </trkpt>
      <trkpt lat="49.34361" lon="-0.75441">
        <ele>14.5</ele>
        <time>2020-06-17T07:11:00Z</time>
      </trkpt>
      <trkpt lat="49.34362" lon="-0.7543">
        <ele>14.4</ele>
        <time>2020-06-17T07:11:01Z</time>
      </trkpt>
      <trkpt lat="49.34362" lon="-0.75421">
        <ele>14.2</ele>
        <time>2020-06-17T07:11:02Z</time>
      </trkpt>
      <trkpt lat="49.34362" lon="-0.7541">
        <ele>14</ele>
        <time>2020-06-17T07:11:03Z</time>
      </trkpt>
      <trkpt lat="49.34361" lon="-0.754">
        <ele>13.8</ele>
        <time>2020-06-17T07:11:04Z</time>
      </trkpt>
      <trkpt lat="49.34359" lon="-0.75388">
        <ele>13.5</ele>
        <time>2020-06-17T07:11:05Z</time>
      </trkpt>
      <trkpt lat="49.34358" lon="-0.75377">
        <ele>13.2</ele>
        <time>2020-06-17T07:11:06Z</time>
      </trkpt>
      <trkpt lat="49.34357" lon="-0.75367">
        <ele>13</ele>
        <time>2020-06-17T07:11:07Z</time>
      </trkpt>
      <trkpt lat="49.34357" lon="-0.75356">
        <ele>12.7</ele>
        <time>2020-06-17T07:11:08Z</time>
      </trkpt>
      <trkpt lat="49.34355" lon="-0.75345">
        <ele>12.4</ele>
        <time>2020-06-17T07:11:09Z</time>
      </trkpt>
      <trkpt lat="49.34353" lon="-0.75334">
        <ele>12.1</ele>
        <time>2020-06-17T07:11:10Z</time>
      </trkpt>
      <trkpt lat="49.34351" lon="-0.75323">
        <ele>11.8</ele>
        <time>2020-06-17T07:11:11Z</time>
      </trkpt>
      <trkpt lat="49.34349" lon="-0.75312">
        <ele>11.4</ele>
        <time>2020-06-17T07:11:12Z</time>
      </trkpt>
      <trkpt lat="49.34346" lon="-0.75302">
        <ele>11.3</ele>
        <time>2020-06-17T07:11:13Z</time>
      </trkpt>
      <trkpt lat="49.34344" lon="-0.75291">
        <ele>11.2</ele>
        <time>2020-06-17T07:11:14Z</time>
      </trkpt>
      <trkpt lat="49.34341" lon="-0.75282">
        <ele>11.2</ele>
        <time>2020-06-17T07:11:15Z</time>
      </trkpt>
      <trkpt lat="49.34338" lon="-0.75272">
        <ele>11.1</ele>
        <time>2020-06-17T07:11:16Z</time>
      </trkpt>
      <trkpt lat="49.34335" lon="-0.75263">
        <ele>11.3</ele>
        <time>2020-06-17T07:11:17Z</time>
      </trkpt>
      <trkpt lat="49.34333" lon="-0.75254">
        <ele>11.1</ele>
        <time>2020-06-17T07:11:18Z</time>
      </trkpt>
      <trkpt lat="49.34331" lon="-0.75244">
        <ele>10.6</ele>
        <time>2020-06-17T07:11:19Z</time>
      </trkpt>
      <trkpt lat="49.34329" lon="-0.75233">
        <ele>10.3</ele>
        <time>2020-06-17T07:11:20Z</time>
      </trkpt>
      <trkpt lat="49.34328" lon="-0.75221">
        <ele>9.9</ele>
        <time>2020-06-17T07:11:21Z</time>
      </trkpt>
      <trkpt lat="49.34326" lon="-0.75211">
        <ele>9.6</ele>
        <time>2020-06-17T07:11:22Z</time>
      </trkpt>
      <trkpt lat="49.34323" lon="-0.752">
        <ele>9.3</ele>
        <time>2020-06-17T07:11:23Z</time>
      </trkpt>
      <trkpt lat="49.34322" lon="-0.75189">
        <ele>9.1</ele>
        <time>2020-06-17T07:11:24Z</time>
      </trkpt>
      <trkpt lat="49.3432" lon="-0.75178">
        <ele>8.8</ele>
        <time>2020-06-17T07:11:25Z</time>
      </trkpt>
      <trkpt lat="49.34318" lon="-0.75167">
        <ele>8.5</ele>
        <time>2020-06-17T07:11:26Z</time>
      </trkpt>
      <trkpt lat="49.34316" lon="-0.75156">
        <ele>8.3</ele>
        <time>2020-06-17T07:11:27Z</time>
      </trkpt>
      <trkpt lat="49.34314" lon="-0.75145">
        <ele>8.1</ele>
        <time>2020-06-17T07:11:28Z</time>
      </trkpt>
      <trkpt lat="49.34314" lon="-0.75133">
        <ele>8</ele>
        <time>2020-06-17T07:11:29Z</time>
      </trkpt>
      <trkpt lat="49.34312" lon="-0.75123">
        <ele>7.9</ele>
        <time>2020-06-17T07:11:30Z</time>
      </trkpt>
      <trkpt lat="49.3431" lon="-0.75112">
        <ele>7.9</ele>
        <time>2020-06-17T07:11:31Z</time>
      </trkpt>
      <trkpt lat="49.34309" lon="-0.75102">
        <ele>7.9</ele>
        <time>2020-06-17T07:11:32Z</time>
      </trkpt>
      <trkpt lat="49.34307" lon="-0.75092">
        <ele>7.9</ele>
        <time>2020-06-17T07:11:33Z</time>
      </trkpt>
      <trkpt lat="49.34306" lon="-0.75081">
        <ele>7.8</ele>
        <time>2020-06-17T07:11:34Z</time>
      </trkpt>
      <trkpt lat="49.34305" lon="-0.75071">
        <ele>7.8</ele>
        <time>2020-06-17T07:11:35Z</time>
      </trkpt>
      <trkpt lat="49.34303" lon="-0.7506">
        <ele>7.8</ele>
        <time>2020-06-17T07:11:36Z</time>
      </trkpt>
      <trkpt lat="49.34302" lon="-0.7505">
        <ele>7.8</ele>
        <time>2020-06-17T07:11:37Z</time>
      </trkpt>
      <trkpt lat="49.34302" lon="-0.7504">
        <ele>7.9</ele>
        <time>2020-06-17T07:11:38Z</time>
      </trkpt>
      <trkpt lat="49.343" lon="-0.7503">
        <ele>7.9</ele>
        <time>2020-06-17T07:11:39Z</time>
      </trkpt>
      <trkpt lat="49.34299" lon="-0.75021">
        <ele>7.9</ele>
        <time>2020-06-17T07:11:40Z</time>
      </trkpt>
      <trkpt lat="49.34297" lon="-0.75012">
        <ele>7.9</ele>
        <time>2020-06-17T07:11:41Z</time>
      </trkpt>
      <trkpt lat="49.34296" lon="-0.75003">
        <ele>7.9</ele>
        <time>2020-06-17T07:11:42Z</time>
      </trkpt>
      <trkpt lat="49.34295" lon="-0.74994">
        <ele>8</ele>
        <time>2020-06-17T07:11:43Z</time>
      </trkpt>
      <trkpt lat="49.34293" lon="-0.74985">
        <ele>8</ele>
        <time>2020-06-17T07:11:44Z</time>
      </trkpt>
      <trkpt lat="49.34292" lon="-0.74976">
        <ele>8</ele>
        <time>2020-06-17T07:11:45Z</time>
      </trkpt>
      <trkpt lat="49.34291" lon="-0.74967">
        <ele>8.1</ele>
        <time>2020-06-17T07:11:46Z</time>
      </trkpt>
      <trkpt lat="49.3429" lon="-0.74958">
        <ele>8.1</ele>
        <time>2020-06-17T07:11:47Z</time>
      </trkpt>
      <trkpt lat="49.34289" lon="-0.7495">
        <ele>8.1</ele>
        <time>2020-06-17T07:11:48Z</time>
      </trkpt>
      <trkpt lat="49.34288" lon="-0.74941">
        <ele>8.2</ele>
        <time>2020-06-17T07:11:49Z</time>
      </trkpt>
      <trkpt lat="49.34287" lon="-0.74932">
        <ele>8.2</ele>
        <time>2020-06-17T07:11:50Z</time>
      </trkpt>
      <trkpt lat="49.34286" lon="-0.74924">
        <ele>8.2</ele>
        <time>2020-06-17T07:11:51Z</time>
      </trkpt>
      <trkpt lat="49.34284" lon="-0.74916">
        <ele>8.2</ele>
        <time>2020-06-17T07:11:52Z</time>
      </trkpt>
      <trkpt lat="49.34283" lon="-0.74907">
        <ele>8.3</ele>
        <time>2020-06-17T07:11:53Z</time>
      </trkpt>
      <trkpt lat="49.34281" lon="-0.74898">
        <ele>8.3</ele>
        <time>2020-06-17T07:11:54Z</time>
      </trkpt>
      <trkpt lat="49.3428" lon="-0.74889">
        <ele>8.4</ele>
        <time>2020-06-17T07:11:55Z</time>
      </trkpt>
      <trkpt lat="49.34279" lon="-0.74881">
        <ele>8.4</ele>
        <time>2020-06-17T07:11:56Z</time>
      </trkpt>
      <trkpt lat="49.34277" lon="-0.74873">
        <ele>8.4</ele>
        <time>2020-06-17T07:11:57Z</time>
      </trkpt>
      <trkpt lat="49.34276" lon="-0.74864">
        <ele>8.4</ele>
        <time>2020-06-17T07:11:58Z</time>
      </trkpt>
      <trkpt lat="49.34275" lon="-0.74855">
        <ele>8.4</ele>
        <time>2020-06-17T07:11:59Z</time>
      </trkpt>
      <trkpt lat="49.34274" lon="-0.74846">
        <ele>8.4</ele>
        <time>2020-06-17T07:12:00Z</time>
      </trkpt>
      <trkpt lat="49.34272" lon="-0.74837">
        <ele>8.5</ele>
        <time>2020-06-17T07:12:01Z</time>
      </trkpt>
      <trkpt lat="49.3427" lon="-0.74829">
        <ele>8.5</ele>
        <time>2020-06-17T07:12:02Z</time>
      </trkpt>
      <trkpt lat="49.34268" lon="-0.7482">
        <ele>8.5</ele>
        <time>2020-06-17T07:12:03Z</time>
      </trkpt>
      <trkpt lat="49.34267" lon="-0.7481">
        <ele>8.5</ele>
        <time>2020-06-17T07:12:04Z</time>
      </trkpt>
      <trkpt lat="49.34265" lon="-0.748">
        <ele>8.5</ele>
        <time>2020-06-17T07:12:05Z</time>
      </trkpt>
      <trkpt lat="49.34263" lon="-0.74791">
        <ele>8.5</ele>
        <time>2020-06-17T07:12:06Z</time>
      </trkpt>
      <trkpt lat="49.34261" lon="-0.74783">
        <ele>8.5</ele>
        <time>2020-06-17T07:12:07Z</time>
      </trkpt>
      <trkpt lat="49.3426" lon="-0.74775">
        <ele>8.5</ele>
        <time>2020-06-17T07:12:08Z</time>
      </trkpt>
      <trkpt lat="49.34257" lon="-0.74766">
        <ele>8.6</ele>
        <time>2020-06-17T07:12:09Z</time>
      </trkpt>
      <trkpt lat="49.34254" lon="-0.74758">
        <ele>8.7</ele>
        <time>2020-06-17T07:12:10Z</time>
      </trkpt>
      <trkpt lat="49.34253" lon="-0.74749">
        <ele>8.7</ele>
        <time>2020-06-17T07:12:11Z</time>
      </trkpt>
      <trkpt lat="49.34251" lon="-0.7474">
        <ele>8.8</ele>
        <time>2020-06-17T07:12:12Z</time>
      </trkpt>
      <trkpt lat="49.34249" lon="-0.74732">
        <ele>8.8</ele>
        <time>2020-06-17T07:12:13Z</time>
      </trkpt>
      <trkpt lat="49.34247" lon="-0.74725">
        <ele>8.8</ele>
        <time>2020-06-17T07:12:14Z</time>
      </trkpt>
      <trkpt lat="49.34245" lon="-0.74718">
        <ele>8.8</ele>
        <time>2020-06-17T07:12:15Z</time>
      </trkpt>
      <trkpt lat="49.34243" lon="-0.7471">
        <ele>8.8</ele>
        <time>2020-06-17T07:12:16Z</time>
      </trkpt>
      <trkpt lat="49.34242" lon="-0.74702">
        <ele>8.9</ele>
        <time>2020-06-17T07:12:17Z</time>
      </trkpt>
      <trkpt lat="49.3424" lon="-0.74695">
        <ele>8.9</ele>
        <time>2020-06-17T07:12:18Z</time>
      </trkpt>
      <trkpt lat="49.34238" lon="-0.74688">
        <ele>8.9</ele>
        <time>2020-06-17T07:12:19Z</time>
      </trkpt>
      <trkpt lat="49.34236" lon="-0.74679">
        <ele>9</ele>
        <time>2020-06-17T07:12:20Z</time>
      </trkpt>
      <trkpt lat="49.34233" lon="-0.74669">
        <ele>9.1</ele>
        <time>2020-06-17T07:12:21Z</time>
      </trkpt>
      <trkpt lat="49.34231" lon="-0.7466">
        <ele>9.1</ele>
        <time>2020-06-17T07:12:22Z</time>
      </trkpt>
      <trkpt lat="49.34229" lon="-0.74653">
        <ele>9</ele>
        <time>2020-06-17T07:12:23Z</time>
      </trkpt>
      <trkpt lat="49.34227" lon="-0.74645">
        <ele>9</ele>
        <time>2020-06-17T07:12:24Z</time>
      </trkpt>
      <trkpt lat="49.34226" lon="-0.74637">
        <ele>9</ele>
        <time>2020-06-17T07:12:25Z</time>
      </trkpt>
      <trkpt lat="49.34224" lon="-0.74628">
        <ele>9</ele>
        <time>2020-06-17T07:12:26Z</time>
      </trkpt>
      <trkpt lat="49.34221" lon="-0.74619">
        <ele>9</ele>
        <time>2020-06-17T07:12:27Z</time>
      </trkpt>
      <trkpt lat="49.34219" lon="-0.74609">
        <ele>9</ele>
        <time>2020-06-17T07:12:28Z</time>
      </trkpt>
      <trkpt lat="49.34216" lon="-0.746">
        <ele>9</ele>
        <time>2020-06-17T07:12:29Z</time>
      </trkpt>
      <trkpt lat="49.34214" lon="-0.74591">
        <ele>9</ele>
        <time>2020-06-17T07:12:30Z</time>
      </trkpt>
      <trkpt lat="49.34213" lon="-0.74583">
        <ele>9</ele>
        <time>2020-06-17T07:12:31Z</time>
      </trkpt>
      <trkpt lat="49.34211" lon="-0.74574">
        <ele>9</ele>
        <time>2020-06-17T07:12:32Z</time>
      </trkpt>
      <trkpt lat="49.3421" lon="-0.74566">
        <ele>9</ele>
        <time>2020-06-17T07:12:33Z</time>
      </trkpt>
      <trkpt lat="49.34208" lon="-0.74557">
        <ele>9</ele>
        <time>2020-06-17T07:12:34Z</time>
      </trkpt>
      <trkpt lat="49.34206" lon="-0.74548">
        <ele>9</ele>
        <time>2020-06-17T07:12:35Z</time>
      </trkpt>
      <trkpt lat="49.34204" lon="-0.7454">
        <ele>9</ele>
        <time>2020-06-17T07:12:36Z</time>
      </trkpt>
      <trkpt lat="49.34202" lon="-0.74532">
        <ele>9</ele>
        <time>2020-06-17T07:12:37Z</time>
      </trkpt>
      <trkpt lat="49.34201" lon="-0.74523">
        <ele>9</ele>
        <time>2020-06-17T07:12:38Z</time>
      </trkpt>
      <trkpt lat="49.34199" lon="-0.74516">
        <ele>9</ele>
        <time>2020-06-17T07:12:39Z</time>
      </trkpt>
      <trkpt lat="49.34197" lon="-0.74508">
        <ele>9</ele>
        <time>2020-06-17T07:12:40Z</time>
      </trkpt>
      <trkpt lat="49.34196" lon="-0.74499">
        <ele>9.1</ele>
        <time>2020-06-17T07:12:41Z</time>
      </trkpt>
      <trkpt lat="49.34194" lon="-0.74491">
        <ele>9.1</ele>
        <time>2020-06-17T07:12:42Z</time>
      </trkpt>
      <trkpt lat="49.34193" lon="-0.74483">
        <ele>9.2</ele>
        <time>2020-06-17T07:12:43Z</time>
      </trkpt>
      <trkpt lat="49.34191" lon="-0.74476">
        <ele>9.2</ele>
        <time>2020-06-17T07:12:44Z</time>
      </trkpt>
      <trkpt lat="49.34189" lon="-0.74468">
        <ele>9.2</ele>
        <time>2020-06-17T07:12:45Z</time>
      </trkpt>
      <trkpt lat="49.34187" lon="-0.74462">
        <ele>9.2</ele>
        <time>2020-06-17T07:12:46Z</time>
      </trkpt>
      <trkpt lat="49.34185" lon="-0.74454">
        <ele>9.3</ele>
        <time>2020-06-17T07:12:47Z</time>
      </trkpt>
      <trkpt lat="49.34184" lon="-0.74447">
        <ele>9.3</ele>
        <time>2020-06-17T07:12:48Z</time>
      </trkpt>
      <trkpt lat="49.34182" lon="-0.74439">
        <ele>9.3</ele>
        <time>2020-06-17T07:12:49Z</time>
      </trkpt>
      <trkpt lat="49.34179" lon="-0.74431">
        <ele>9.3</ele>
        <time>2020-06-17T07:12:50Z</time>
      </trkpt>
      <trkpt lat="49.34178" lon="-0.74424">
        <ele>9.2</ele>
        <time>2020-06-17T07:12:51Z</time>
      </trkpt>
      <trkpt lat="49.34176" lon="-0.74415">
        <ele>9.2</ele>
        <time>2020-06-17T07:12:52Z</time>
      </trkpt>
      <trkpt lat="49.34175" lon="-0.74408">
        <ele>9.2</ele>
        <time>2020-06-17T07:12:53Z</time>
      </trkpt>
      <trkpt lat="49.34173" lon="-0.74399">
        <ele>9.2</ele>
        <time>2020-06-17T07:12:54Z</time>
      </trkpt>
      <trkpt lat="49.34171" lon="-0.74391">
        <ele>9.2</ele>
        <time>2020-06-17T07:12:55Z</time>
      </trkpt>
      <trkpt lat="49.34169" lon="-0.74382">
        <ele>9.2</ele>
        <time>2020-06-17T07:12:56Z</time>
      </trkpt>
      <trkpt lat="49.34167" lon="-0.74373">
        <ele>9.2</ele>
        <time>2020-06-17T07:12:57Z</time>
      </trkpt>
      <trkpt lat="49.34165" lon="-0.74365">
        <ele>9.2</ele>
        <time>2020-06-17T07:12:58Z</time>
      </trkpt>
      <trkpt lat="49.34163" lon="-0.74356">
        <ele>9.3</ele>
        <time>2020-06-17T07:12:59Z</time>
      </trkpt>
      <trkpt lat="49.34162" lon="-0.74347">
        <ele>9.3</ele>
        <time>2020-06-17T07:13:00Z</time>
      </trkpt>
      <trkpt lat="49.3416" lon="-0.74339">
        <ele>9.4</ele>
        <time>2020-06-17T07:13:01Z</time>
      </trkpt>
      <trkpt lat="49.34157" lon="-0.7433">
        <ele>9.4</ele>
        <time>2020-06-17T07:13:02Z</time>
      </trkpt>
      <trkpt lat="49.34155" lon="-0.74322">
        <ele>9.5</ele>
        <time>2020-06-17T07:13:03Z</time>
      </trkpt>
      <trkpt lat="49.34152" lon="-0.74313">
        <ele>9.5</ele>
        <time>2020-06-17T07:13:04Z</time>
      </trkpt>
      <trkpt lat="49.3415" lon="-0.74305">
        <ele>9.6</ele>
        <time>2020-06-17T07:13:05Z</time>
      </trkpt>
      <trkpt lat="49.34148" lon="-0.74296">
        <ele>9.7</ele>
        <time>2020-06-17T07:13:06Z</time>
      </trkpt>
      <trkpt lat="49.34145" lon="-0.74288">
        <ele>9.7</ele>
        <time>2020-06-17T07:13:07Z</time>
      </trkpt>
      <trkpt lat="49.34143" lon="-0.74279">
        <ele>9.8</ele>
        <time>2020-06-17T07:13:08Z</time>
      </trkpt>
      <trkpt lat="49.3414" lon="-0.74272">
        <ele>9.9</ele>
        <time>2020-06-17T07:13:09Z</time>
      </trkpt>
      <trkpt lat="49.34138" lon="-0.74264">
        <ele>9.9</ele>
        <time>2020-06-17T07:13:10Z</time>
      </trkpt>
      <trkpt lat="49.34136" lon="-0.74256">
        <ele>10</ele>
        <time>2020-06-17T07:13:11Z</time>
      </trkpt>
      <trkpt lat="49.34134" lon="-0.74247">
        <ele>10.1</ele>
        <time>2020-06-17T07:13:12Z</time>
      </trkpt>
      <trkpt lat="49.34132" lon="-0.74239">
        <ele>10.2</ele>
        <time>2020-06-17T07:13:13Z</time>
      </trkpt>
      <trkpt lat="49.3413" lon="-0.74232">
        <ele>10.3</ele>
        <time>2020-06-17T07:13:14Z</time>
      </trkpt>
      <trkpt lat="49.34129" lon="-0.74224">
        <ele>10.4</ele>
        <time>2020-06-17T07:13:15Z</time>
      </trkpt>
      <trkpt lat="49.34127" lon="-0.74217">
        <ele>10.5</ele>
        <time>2020-06-17T07:13:16Z</time>
      </trkpt>
      <trkpt lat="49.34125" lon="-0.7421">
        <ele>10.6</ele>
        <time>2020-06-17T07:13:17Z</time>
      </trkpt>
      <trkpt lat="49.34122" lon="-0.74203">
        <ele>10.7</ele>
        <time>2020-06-17T07:13:18Z</time>
      </trkpt>
      <trkpt lat="49.3412" lon="-0.74195">
        <ele>10.7</ele>
        <time>2020-06-17T07:13:19Z</time>
      </trkpt>
      <trkpt lat="49.34117" lon="-0.74189">
        <ele>10.8</ele>
        <time>2020-06-17T07:13:20Z</time>
      </trkpt>
      <trkpt lat="49.34115" lon="-0.74182">
        <ele>10.9</ele>
        <time>2020-06-17T07:13:21Z</time>
      </trkpt>
      <trkpt lat="49.34111" lon="-0.74176">
        <ele>11</ele>
        <time>2020-06-17T07:13:22Z</time>
      </trkpt>
      <trkpt lat="49.34108" lon="-0.74171">
        <ele>11.1</ele>
        <time>2020-06-17T07:13:23Z</time>
      </trkpt>
      <trkpt lat="49.34104" lon="-0.74165">
        <ele>11.2</ele>
        <time>2020-06-17T07:13:24Z</time>
      </trkpt>
      <trkpt lat="49.341" lon="-0.7416">
        <ele>11.3</ele>
        <time>2020-06-17T07:13:25Z</time>
      </trkpt>
      <trkpt lat="49.34097" lon="-0.74154">
        <ele>11.4</ele>
        <time>2020-06-17T07:13:26Z</time>
      </trkpt>
      <trkpt lat="49.34093" lon="-0.74148">
        <ele>11.5</ele>
        <time>2020-06-17T07:13:27Z</time>
      </trkpt>
      <trkpt lat="49.34089" lon="-0.74142">
        <ele>11.6</ele>
        <time>2020-06-17T07:13:28Z</time>
      </trkpt>
      <trkpt lat="49.34086" lon="-0.74136">
        <ele>11.8</ele>
        <time>2020-06-17T07:13:29Z</time>
      </trkpt>
      <trkpt lat="49.34083" lon="-0.74131">
        <ele>11.9</ele>
        <time>2020-06-17T07:13:30Z</time>
      </trkpt>
      <trkpt lat="49.3408" lon="-0.74126">
        <ele>11.9</ele>
        <time>2020-06-17T07:13:31Z</time>
      </trkpt>
      <trkpt lat="49.34078" lon="-0.7412">
        <ele>12</ele>
        <time>2020-06-17T07:13:32Z</time>
      </trkpt>
      <trkpt lat="49.34075" lon="-0.74114">
        <ele>12.1</ele>
        <time>2020-06-17T07:13:33Z</time>
      </trkpt>
      <trkpt lat="49.34072" lon="-0.74109">
        <ele>12.2</ele>
        <time>2020-06-17T07:13:34Z</time>
      </trkpt>
      <trkpt lat="49.3407" lon="-0.74104">
        <ele>12.3</ele>
        <time>2020-06-17T07:13:35Z</time>
      </trkpt>
      <trkpt lat="49.34067" lon="-0.74099">
        <ele>12.4</ele>
        <time>2020-06-17T07:13:36Z</time>
      </trkpt>
      <trkpt lat="49.34064" lon="-0.74092">
        <ele>12.6</ele>
        <time>2020-06-17T07:13:37Z</time>
      </trkpt>
      <trkpt lat="49.34062" lon="-0.74087">
        <ele>12.7</ele>
        <time>2020-06-17T07:13:38Z</time>
      </trkpt>
      <trkpt lat="49.34059" lon="-0.7408">
        <ele>12.8</ele>
        <time>2020-06-17T07:13:39Z</time>
      </trkpt>
      <trkpt lat="49.34056" lon="-0.74074">
        <ele>12.9</ele>
        <time>2020-06-17T07:13:40Z</time>
      </trkpt>
      <trkpt lat="49.34054" lon="-0.74069">
        <ele>13</ele>
        <time>2020-06-17T07:13:41Z</time>
      </trkpt>
      <trkpt lat="49.34051" lon="-0.74064">
        <ele>13.1</ele>
        <time>2020-06-17T07:13:42Z</time>
      </trkpt>
      <trkpt lat="49.34049" lon="-0.74058">
        <ele>13.3</ele>
        <time>2020-06-17T07:13:43Z</time>
      </trkpt>
      <trkpt lat="49.34047" lon="-0.74053">
        <ele>13.4</ele>
        <time>2020-06-17T07:13:44Z</time>
      </trkpt>
      <trkpt lat="49.34045" lon="-0.74046">
        <ele>13.5</ele>
        <time>2020-06-17T07:13:45Z</time>
      </trkpt>
      <trkpt lat="49.34043" lon="-0.74041">
        <ele>13.6</ele>
        <time>2020-06-17T07:13:46Z</time>
      </trkpt>
      <trkpt lat="49.34041" lon="-0.74035">
        <ele>13.8</ele>
        <time>2020-06-17T07:13:47Z</time>
      </trkpt>
      <trkpt lat="49.34038" lon="-0.7403">
        <ele>13.9</ele>
        <time>2020-06-17T07:13:48Z</time>
      </trkpt>
      <trkpt lat="49.34036" lon="-0.74025">
        <ele>14</ele>
        <time>2020-06-17T07:13:49Z</time>
      </trkpt>
      <trkpt lat="49.34033" lon="-0.74019">
        <ele>14.2</ele>
        <time>2020-06-17T07:13:50Z</time>
      </trkpt>
      <trkpt lat="49.34031" lon="-0.74013">
        <ele>14.3</ele>
        <time>2020-06-17T07:13:51Z</time>
      </trkpt>
      <trkpt lat="49.34029" lon="-0.74006">
        <ele>14.5</ele>
        <time>2020-06-17T07:13:52Z</time>
      </trkpt>
      <trkpt lat="49.34027" lon="-0.74">
        <ele>14.7</ele>
        <time>2020-06-17T07:13:53Z</time>
      </trkpt>
      <trkpt lat="49.34024" lon="-0.73995">
        <ele>14.8</ele>
        <time>2020-06-17T07:13:54Z</time>
      </trkpt>
      <trkpt lat="49.34022" lon="-0.73988">
        <ele>15</ele>
        <time>2020-06-17T07:13:55Z</time>
      </trkpt>
      <trkpt lat="49.3402" lon="-0.73983">
        <ele>15.2</ele>
        <time>2020-06-17T07:13:56Z</time>
      </trkpt>
      <trkpt lat="49.34017" lon="-0.73978">
        <ele>15.4</ele>
        <time>2020-06-17T07:13:57Z</time>
      </trkpt>
      <trkpt lat="49.34014" lon="-0.73973">
        <ele>15.6</ele>
        <time>2020-06-17T07:13:58Z</time>
      </trkpt>
      <trkpt lat="49.34011" lon="-0.73967">
        <ele>15.7</ele>
        <time>2020-06-17T07:13:59Z</time>
      </trkpt>
      <trkpt lat="49.34008" lon="-0.73962">
        <ele>15.9</ele>
        <time>2020-06-17T07:14:00Z</time>
      </trkpt>
      <trkpt lat="49.34006" lon="-0.73956">
        <ele>16.1</ele>
        <time>2020-06-17T07:14:01Z</time>
      </trkpt>
      <trkpt lat="49.34003" lon="-0.73949">
        <ele>16.3</ele>
        <time>2020-06-17T07:14:02Z</time>
      </trkpt>
      <trkpt lat="49.34001" lon="-0.73943">
        <ele>16.5</ele>
        <time>2020-06-17T07:14:03Z</time>
      </trkpt>
      <trkpt lat="49.33998" lon="-0.73937">
        <ele>16.7</ele>
        <time>2020-06-17T07:14:04Z</time>
      </trkpt>
      <trkpt lat="49.33996" lon="-0.73931">
        <ele>16.9</ele>
        <time>2020-06-17T07:14:05Z</time>
      </trkpt>
      <trkpt lat="49.33994" lon="-0.73925">
        <ele>17.1</ele>
        <time>2020-06-17T07:14:06Z</time>
      </trkpt>
      <trkpt lat="49.33991" lon="-0.73919">
        <ele>17.3</ele>
        <time>2020-06-17T07:14:07Z</time>
      </trkpt>
      <trkpt lat="49.33989" lon="-0.73913">
        <ele>17.6</ele>
        <time>2020-06-17T07:14:08Z</time>
      </trkpt>
      <trkpt lat="49.33987" lon="-0.73907">
        <ele>17.8</ele>
        <time>2020-06-17T07:14:09Z</time>
      </trkpt>
      <trkpt lat="49.33985" lon="-0.739">
        <ele>18.1</ele>
        <time>2020-06-17T07:14:10Z</time>
      </trkpt>
      <trkpt lat="49.33983" lon="-0.73894">
        <ele>18.3</ele>
        <time>2020-06-17T07:14:11Z</time>
      </trkpt>
      <trkpt lat="49.33981" lon="-0.73889">
        <ele>18.5</ele>
        <time>2020-06-17T07:14:12Z</time>
      </trkpt>
      <trkpt lat="49.33978" lon="-0.73884">
        <ele>18.7</ele>
        <time>2020-06-17T07:14:13Z</time>
      </trkpt>
      <trkpt lat="49.33976" lon="-0.7388">
        <ele>18.9</ele>
        <time>2020-06-17T07:14:14Z</time>
      </trkpt>
      <trkpt lat="49.33973" lon="-0.73874">
        <ele>19.2</ele>
        <time>2020-06-17T07:14:15Z</time>
      </trkpt>
      <trkpt lat="49.33971" lon="-0.73868">
        <ele>19.4</ele>
        <time>2020-06-17T07:14:16Z</time>
      </trkpt>
      <trkpt lat="49.33968" lon="-0.73863">
        <ele>19.7</ele>
        <time>2020-06-17T07:14:17Z</time>
      </trkpt>
      <trkpt lat="49.33966" lon="-0.73858">
        <ele>19.9</ele>
        <time>2020-06-17T07:14:18Z</time>
      </trkpt>
      <trkpt lat="49.33964" lon="-0.73853">
        <ele>20.1</ele>
        <time>2020-06-17T07:14:19Z</time>
      </trkpt>
      <trkpt lat="49.33962" lon="-0.73847">
        <ele>20.3</ele>
        <time>2020-06-17T07:14:20Z</time>
      </trkpt>
      <trkpt lat="49.33961" lon="-0.73843">
        <ele>20.5</ele>
        <time>2020-06-17T07:14:21Z</time>
      </trkpt>
      <trkpt lat="49.33959" lon="-0.73838">
        <ele>20.7</ele>
        <time>2020-06-17T07:14:22Z</time>
      </trkpt>
      <trkpt lat="49.33957" lon="-0.73833">
        <ele>20.8</ele>
        <time>2020-06-17T07:14:23Z</time>
      </trkpt>
      <trkpt lat="49.33955" lon="-0.73827">
        <ele>21</ele>
        <time>2020-06-17T07:14:24Z</time>
      </trkpt>
      <trkpt lat="49.33953" lon="-0.73822">
        <ele>21.2</ele>
        <time>2020-06-17T07:14:25Z</time>
      </trkpt>
      <trkpt lat="49.33951" lon="-0.73816">
        <ele>21.4</ele>
        <time>2020-06-17T07:14:26Z</time>
      </trkpt>
      <trkpt lat="49.33949" lon="-0.73811">
        <ele>21.6</ele>
        <time>2020-06-17T07:14:27Z</time>
      </trkpt>
      <trkpt lat="49.33947" lon="-0.73805">
        <ele>21.8</ele>
        <time>2020-06-17T07:14:28Z</time>
      </trkpt>
      <trkpt lat="49.33945" lon="-0.73798">
        <ele>22</ele>
        <time>2020-06-17T07:14:29Z</time>
      </trkpt>
      <trkpt lat="49.33943" lon="-0.73793">
        <ele>22.2</ele>
        <time>2020-06-17T07:14:30Z</time>
      </trkpt>
      <trkpt lat="49.33942" lon="-0.73789">
        <ele>22.3</ele>
        <time>2020-06-17T07:14:31Z</time>
      </trkpt>
      <trkpt lat="49.3394" lon="-0.73785">
        <ele>22.4</ele>
        <time>2020-06-17T07:14:32Z</time>
      </trkpt>
      <trkpt lat="49.33937" lon="-0.7378">
        <ele>22.4</ele>
        <time>2020-06-17T07:14:33Z</time>
      </trkpt>
      <trkpt lat="49.33935" lon="-0.73775">
        <ele>22.5</ele>
        <time>2020-06-17T07:14:34Z</time>
      </trkpt>
      <trkpt lat="49.33933" lon="-0.7377">
        <ele>22.5</ele>
        <time>2020-06-17T07:14:35Z</time>
      </trkpt>
      <trkpt lat="49.33931" lon="-0.73766">
        <ele>22.5</ele>
        <time>2020-06-17T07:14:36Z</time>
      </trkpt>
      <trkpt lat="49.33929" lon="-0.7376">
        <ele>22.7</ele>
        <time>2020-06-17T07:14:37Z</time>
      </trkpt>
      <trkpt lat="49.33927" lon="-0.73754">
        <ele>22.8</ele>
        <time>2020-06-17T07:14:38Z</time>
      </trkpt>
      <trkpt lat="49.33925" lon="-0.73749">
        <ele>22.9</ele>
        <time>2020-06-17T07:14:39Z</time>
      </trkpt>
      <trkpt lat="49.33923" lon="-0.73744">
        <ele>23</ele>
        <time>2020-06-17T07:14:40Z</time>
      </trkpt>
      <trkpt lat="49.3392" lon="-0.73739">
        <ele>23.1</ele>
        <time>2020-06-17T07:14:41Z</time>
      </trkpt>
      <trkpt lat="49.33917" lon="-0.73734">
        <ele>23.2</ele>
        <time>2020-06-17T07:14:42Z</time>
      </trkpt>
      <trkpt lat="49.33914" lon="-0.73729">
        <ele>23.2</ele>
        <time>2020-06-17T07:14:43Z</time>
      </trkpt>
      <trkpt lat="49.3391" lon="-0.73724">
        <ele>23.3</ele>
        <time>2020-06-17T07:14:44Z</time>
      </trkpt>
      <trkpt lat="49.33906" lon="-0.7372">
        <ele>23.4</ele>
        <time>2020-06-17T07:14:45Z</time>
      </trkpt>
      <trkpt lat="49.33901" lon="-0.73715">
        <ele>23.4</ele>
        <time>2020-06-17T07:14:46Z</time>
      </trkpt>
      <trkpt lat="49.33897" lon="-0.73711">
        <ele>23.5</ele>
        <time>2020-06-17T07:14:47Z</time>
      </trkpt>
      <trkpt lat="49.33893" lon="-0.73707">
        <ele>23.5</ele>
        <time>2020-06-17T07:14:48Z</time>
      </trkpt>
      <trkpt lat="49.3389" lon="-0.73702">
        <ele>23.6</ele>
        <time>2020-06-17T07:14:49Z</time>
      </trkpt>
      <trkpt lat="49.33886" lon="-0.73698">
        <ele>23.6</ele>
        <time>2020-06-17T07:14:50Z</time>
      </trkpt>
      <trkpt lat="49.33882" lon="-0.73694">
        <ele>23.7</ele>
        <time>2020-06-17T07:14:51Z</time>
      </trkpt>
      <trkpt lat="49.33878" lon="-0.7369">
        <ele>23.7</ele>
        <time>2020-06-17T07:14:52Z</time>
      </trkpt>
      <trkpt lat="49.33874" lon="-0.73686">
        <ele>23.8</ele>
        <time>2020-06-17T07:14:53Z</time>
      </trkpt>
      <trkpt lat="49.3387" lon="-0.73683">
        <ele>23.8</ele>
        <time>2020-06-17T07:14:54Z</time>
      </trkpt>
      <trkpt lat="49.33865" lon="-0.73681">
        <ele>23.9</ele>
        <time>2020-06-17T07:14:55Z</time>
      </trkpt>
      <trkpt lat="49.33861" lon="-0.73678">
        <ele>23.9</ele>
        <time>2020-06-17T07:14:56Z</time>
      </trkpt>
      <trkpt lat="49.33857" lon="-0.73677">
        <ele>23.9</ele>
        <time>2020-06-17T07:14:57Z</time>
      </trkpt>
      <trkpt lat="49.33853" lon="-0.73676">
        <ele>24</ele>
        <time>2020-06-17T07:14:58Z</time>
      </trkpt>
      <trkpt lat="49.33849" lon="-0.73676">
        <ele>24</ele>
        <time>2020-06-17T07:14:59Z</time>
      </trkpt>
      <trkpt lat="49.33844" lon="-0.73674">
        <ele>24.1</ele>
        <time>2020-06-17T07:15:00Z</time>
      </trkpt>
      <trkpt lat="49.3384" lon="-0.73675">
        <ele>24.1</ele>
        <time>2020-06-17T07:15:01Z</time>
      </trkpt>
      <trkpt lat="49.33837" lon="-0.73675">
        <ele>24.1</ele>
        <time>2020-06-17T07:15:02Z</time>
      </trkpt>
      <trkpt lat="49.33833" lon="-0.73677">
        <ele>24.2</ele>
        <time>2020-06-17T07:15:03Z</time>
      </trkpt>
      <trkpt lat="49.33831" lon="-0.7368">
        <ele>24.2</ele>
        <time>2020-06-17T07:15:04Z</time>
      </trkpt>
      <trkpt lat="49.33827" lon="-0.73682">
        <ele>24.3</ele>
        <time>2020-06-17T07:15:05Z</time>
      </trkpt>
      <trkpt lat="49.33823" lon="-0.73684">
        <ele>24.4</ele>
        <time>2020-06-17T07:15:06Z</time>
      </trkpt>
      <trkpt lat="49.33818" lon="-0.73687">
        <ele>24.5</ele>
        <time>2020-06-17T07:15:07Z</time>
      </trkpt>
      <trkpt lat="49.33813" lon="-0.7369">
        <ele>24.6</ele>
        <time>2020-06-17T07:15:08Z</time>
      </trkpt>
      <trkpt lat="49.33807" lon="-0.73692">
        <ele>24.8</ele>
        <time>2020-06-17T07:15:09Z</time>
      </trkpt>
      <trkpt lat="49.33802" lon="-0.73695">
        <ele>24.9</ele>
        <time>2020-06-17T07:15:10Z</time>
      </trkpt>
      <trkpt lat="49.33798" lon="-0.73697">
        <ele>25</ele>
        <time>2020-06-17T07:15:11Z</time>
      </trkpt>
      <trkpt lat="49.33794" lon="-0.73699">
        <ele>25.2</ele>
        <time>2020-06-17T07:15:12Z</time>
      </trkpt>
      <trkpt lat="49.33789" lon="-0.737">
        <ele>25.3</ele>
        <time>2020-06-17T07:15:13Z</time>
      </trkpt>
      <trkpt lat="49.33784" lon="-0.737">
        <ele>25.4</ele>
        <time>2020-06-17T07:15:14Z</time>
      </trkpt>
      <trkpt lat="49.3378" lon="-0.737">
        <ele>25.6</ele>
        <time>2020-06-17T07:15:15Z</time>
      </trkpt>
      <trkpt lat="49.33776" lon="-0.737">
        <ele>25.7</ele>
        <time>2020-06-17T07:15:16Z</time>
      </trkpt>
      <trkpt lat="49.33771" lon="-0.73701">
        <ele>25.9</ele>
        <time>2020-06-17T07:15:17Z</time>
      </trkpt>
      <trkpt lat="49.33767" lon="-0.73703">
        <ele>26</ele>
        <time>2020-06-17T07:15:18Z</time>
      </trkpt>
      <trkpt lat="49.33762" lon="-0.73704">
        <ele>26.2</ele>
        <time>2020-06-17T07:15:19Z</time>
      </trkpt>
      <trkpt lat="49.33757" lon="-0.73706">
        <ele>26.4</ele>
        <time>2020-06-17T07:15:20Z</time>
      </trkpt>
      <trkpt lat="49.33753" lon="-0.73709">
        <ele>26.5</ele>
        <time>2020-06-17T07:15:21Z</time>
      </trkpt>
      <trkpt lat="49.33749" lon="-0.73712">
        <ele>26.7</ele>
        <time>2020-06-17T07:15:22Z</time>
      </trkpt>
      <trkpt lat="49.33745" lon="-0.73714">
        <ele>26.9</ele>
        <time>2020-06-17T07:15:23Z</time>
      </trkpt>
      <trkpt lat="49.3374" lon="-0.73716">
        <ele>27.2</ele>
        <time>2020-06-17T07:15:24Z</time>
      </trkpt>
      <trkpt lat="49.33736" lon="-0.73717">
        <ele>27.4</ele>
        <time>2020-06-17T07:15:25Z</time>
      </trkpt>
      <trkpt lat="49.33733" lon="-0.73718">
        <ele>27.6</ele>
        <time>2020-06-17T07:15:26Z</time>
      </trkpt>
      <trkpt lat="49.33729" lon="-0.7372">
        <ele>27.8</ele>
        <time>2020-06-17T07:15:27Z</time>
      </trkpt>
      <trkpt lat="49.33725" lon="-0.73721">
        <ele>28.1</ele>
        <time>2020-06-17T07:15:28Z</time>
      </trkpt>
      <trkpt lat="49.33722" lon="-0.73723">
        <ele>28.3</ele>
        <time>2020-06-17T07:15:29Z</time>
      </trkpt>
      <trkpt lat="49.33718" lon="-0.73726">
        <ele>28.5</ele>
        <time>2020-06-17T07:15:30Z</time>
      </trkpt>
      <trkpt lat="49.33715" lon="-0.73728">
        <ele>28.8</ele>
        <time>2020-06-17T07:15:31Z</time>
      </trkpt>
      <trkpt lat="49.33712" lon="-0.73728">
        <ele>29</ele>
        <time>2020-06-17T07:15:32Z</time>
      </trkpt>
      <trkpt lat="49.33708" lon="-0.73729">
        <ele>29.2</ele>
        <time>2020-06-17T07:15:33Z</time>
      </trkpt>
      <trkpt lat="49.33706" lon="-0.73729">
        <ele>29.3</ele>
        <time>2020-06-17T07:15:34Z</time>
      </trkpt>
      <trkpt lat="49.33703" lon="-0.7373">
        <ele>29.6</ele>
        <time>2020-06-17T07:15:35Z</time>
      </trkpt>
      <trkpt lat="49.33699" lon="-0.7373">
        <ele>29.8</ele>
        <time>2020-06-17T07:15:36Z</time>
      </trkpt>
      <trkpt lat="49.33695" lon="-0.73731">
        <ele>30.1</ele>
        <time>2020-06-17T07:15:37Z</time>
      </trkpt>
      <trkpt lat="49.33694" lon="-0.73731">
        <ele>30.2</ele>
        <time>2020-06-17T07:15:38Z</time>
      </trkpt>
      <trkpt lat="49.33691" lon="-0.73732">
        <ele>30.4</ele>
        <time>2020-06-17T07:15:39Z</time>
      </trkpt>
      <trkpt lat="49.33687" lon="-0.73733">
        <ele>30.7</ele>
        <time>2020-06-17T07:15:40Z</time>
      </trkpt>
      <trkpt lat="49.33684" lon="-0.73733">
        <ele>30.9</ele>
        <time>2020-06-17T07:15:41Z</time>
      </trkpt>
      <trkpt lat="49.33681" lon="-0.73735">
        <ele>31.1</ele>
        <time>2020-06-17T07:15:42Z</time>
      </trkpt>
      <trkpt lat="49.33679" lon="-0.73737">
        <ele>31.3</ele>
        <time>2020-06-17T07:15:43Z</time>
      </trkpt>
      <trkpt lat="49.33676" lon="-0.73739">
        <ele>31.6</ele>
        <time>2020-06-17T07:15:44Z</time>
      </trkpt>
      <trkpt lat="49.33673" lon="-0.7374">
        <ele>31.8</ele>
        <time>2020-06-17T07:15:45Z</time>
      </trkpt>
      <trkpt lat="49.33669" lon="-0.7374">
        <ele>32.1</ele>
        <time>2020-06-17T07:15:46Z</time>
      </trkpt>
      <trkpt lat="49.33666" lon="-0.73741">
        <ele>32.3</ele>
        <time>2020-06-17T07:15:47Z</time>
      </trkpt>
      <trkpt lat="49.33663" lon="-0.73741">
        <ele>32.6</ele>
        <time>2020-06-17T07:15:48Z</time>
      </trkpt>
      <trkpt lat="49.33659" lon="-0.73742">
        <ele>32.8</ele>
        <time>2020-06-17T07:15:49Z</time>
      </trkpt>
      <trkpt lat="49.33656" lon="-0.73743">
        <ele>33.1</ele>
        <time>2020-06-17T07:15:50Z</time>
      </trkpt>
      <trkpt lat="49.33653" lon="-0.73743">
        <ele>33.3</ele>
        <time>2020-06-17T07:15:51Z</time>
      </trkpt>
      <trkpt lat="49.3365" lon="-0.73743">
        <ele>33.5</ele>
        <time>2020-06-17T07:15:52Z</time>
      </trkpt>
      <trkpt lat="49.33648" lon="-0.7374">
        <ele>33.7</ele>
        <time>2020-06-17T07:15:53Z</time>
      </trkpt>
      <trkpt lat="49.33645" lon="-0.73737">
        <ele>34</ele>
        <time>2020-06-17T07:15:54Z</time>
      </trkpt>
      <trkpt lat="49.33644" lon="-0.73736">
        <ele>34.1</ele>
        <time>2020-06-17T07:15:55Z</time>
      </trkpt>
      <trkpt lat="49.33641" lon="-0.73731">
        <ele>34.6</ele>
        <time>2020-06-17T07:15:56Z</time>
      </trkpt>
      <trkpt lat="49.33641" lon="-0.73729">
        <ele>34.7</ele>
        <time>2020-06-17T07:15:57Z</time>
      </trkpt>
      <trkpt lat="49.3364" lon="-0.73724">
        <ele>35</ele>
        <time>2020-06-17T07:15:58Z</time>
      </trkpt>
      <trkpt lat="49.33639" lon="-0.73722">
        <ele>35.1</ele>
        <time>2020-06-17T07:15:59Z</time>
      </trkpt>
      <trkpt lat="49.33638" lon="-0.73717">
        <ele>35.3</ele>
        <time>2020-06-17T07:16:00Z</time>
      </trkpt>
      <trkpt lat="49.33637" lon="-0.73713">
        <ele>35.6</ele>
        <time>2020-06-17T07:16:01Z</time>
      </trkpt>
      <trkpt lat="49.33636" lon="-0.73709">
        <ele>35.8</ele>
        <time>2020-06-17T07:16:02Z</time>
      </trkpt>
      <trkpt lat="49.33635" lon="-0.73704">
        <ele>36.1</ele>
        <time>2020-06-17T07:16:03Z</time>
      </trkpt>
      <trkpt lat="49.33635" lon="-0.73702">
        <ele>36.2</ele>
        <time>2020-06-17T07:16:04Z</time>
      </trkpt>
      <trkpt lat="49.33635" lon="-0.73697">
        <ele>36.4</ele>
        <time>2020-06-17T07:16:05Z</time>
      </trkpt>
      <trkpt lat="49.33635" lon="-0.73693">
        <ele>36.6</ele>
        <time>2020-06-17T07:16:06Z</time>
      </trkpt>
      <trkpt lat="49.33636" lon="-0.73687">
        <ele>37</ele>
        <time>2020-06-17T07:16:07Z</time>
      </trkpt>
      <trkpt lat="49.33636" lon="-0.73685">
        <ele>37.1</ele>
        <time>2020-06-17T07:16:08Z</time>
      </trkpt>
      <trkpt lat="49.33637" lon="-0.73679">
        <ele>37.4</ele>
        <time>2020-06-17T07:16:09Z</time>
      </trkpt>
      <trkpt lat="49.33637" lon="-0.73677">
        <ele>37.5</ele>
        <time>2020-06-17T07:16:10Z</time>
      </trkpt>
      <trkpt lat="49.33638" lon="-0.73671">
        <ele>37.8</ele>
        <time>2020-06-17T07:16:11Z</time>
      </trkpt>
      <trkpt lat="49.33639" lon="-0.73669">
        <ele>37.9</ele>
        <time>2020-06-17T07:16:12Z</time>
      </trkpt>
      <trkpt lat="49.33639" lon="-0.73664">
        <ele>38.2</ele>
        <time>2020-06-17T07:16:13Z</time>
      </trkpt>
      <trkpt lat="49.3364" lon="-0.73662">
        <ele>38.3</ele>
        <time>2020-06-17T07:16:14Z</time>
      </trkpt>
      <trkpt lat="49.33642" lon="-0.73657">
        <ele>38.6</ele>
        <time>2020-06-17T07:16:15Z</time>
      </trkpt>
      <trkpt lat="49.33642" lon="-0.73656">
        <ele>38.7</ele>
        <time>2020-06-17T07:16:16Z</time>
      </trkpt>
      <trkpt lat="49.33644" lon="-0.73652">
        <ele>38.9</ele>
        <time>2020-06-17T07:16:17Z</time>
      </trkpt>
      <trkpt lat="49.33645" lon="-0.73651">
        <ele>39</ele>
        <time>2020-06-17T07:16:18Z</time>
      </trkpt>
      <trkpt lat="49.33647" lon="-0.73647">
        <ele>39.2</ele>
        <time>2020-06-17T07:16:19Z</time>
      </trkpt>
      <trkpt lat="49.33647" lon="-0.73646">
        <ele>39.3</ele>
        <time>2020-06-17T07:16:20Z</time>
      </trkpt>
      <trkpt lat="49.33649" lon="-0.73641">
        <ele>39.5</ele>
        <time>2020-06-17T07:16:21Z</time>
      </trkpt>
      <trkpt lat="49.3365" lon="-0.7364">
        <ele>39.6</ele>
        <time>2020-06-17T07:16:22Z</time>
      </trkpt>
      <trkpt lat="49.33652" lon="-0.73635">
        <ele>39.8</ele>
        <time>2020-06-17T07:16:23Z</time>
      </trkpt>
      <trkpt lat="49.33652" lon="-0.73634">
        <ele>39.9</ele>
        <time>2020-06-17T07:16:24Z</time>
      </trkpt>
      <trkpt lat="49.33654" lon="-0.7363">
        <ele>40.1</ele>
        <time>2020-06-17T07:16:25Z</time>
      </trkpt>
      <trkpt lat="49.33655" lon="-0.73629">
        <ele>40.2</ele>
        <time>2020-06-17T07:16:26Z</time>
      </trkpt>
      <trkpt lat="49.33657" lon="-0.73624">
        <ele>40.5</ele>
        <time>2020-06-17T07:16:27Z</time>
      </trkpt>
      <trkpt lat="49.33658" lon="-0.73623">
        <ele>40.5</ele>
        <time>2020-06-17T07:16:28Z</time>
      </trkpt>
      <trkpt lat="49.3366" lon="-0.7362">
        <ele>40.7</ele>
        <time>2020-06-17T07:16:29Z</time>
      </trkpt>
      <trkpt lat="49.33663" lon="-0.73618">
        <ele>40.9</ele>
        <time>2020-06-17T07:16:30Z</time>
      </trkpt>
      <trkpt lat="49.33665" lon="-0.73614">
        <ele>41.2</ele>
        <time>2020-06-17T07:16:31Z</time>
      </trkpt>
      <trkpt lat="49.33666" lon="-0.73612">
        <ele>41.2</ele>
        <time>2020-06-17T07:16:32Z</time>
      </trkpt>
      <trkpt lat="49.33669" lon="-0.73608">
        <ele>41.5</ele>
        <time>2020-06-17T07:16:33Z</time>
      </trkpt>
      <trkpt lat="49.3367" lon="-0.73607">
        <ele>41.6</ele>
        <time>2020-06-17T07:16:34Z</time>
      </trkpt>
      <trkpt lat="49.33672" lon="-0.73604">
        <ele>41.8</ele>
        <time>2020-06-17T07:16:35Z</time>
      </trkpt>
      <trkpt lat="49.33674" lon="-0.736">
        <ele>42</ele>
        <time>2020-06-17T07:16:36Z</time>
      </trkpt>
      <trkpt lat="49.33675" lon="-0.73599">
        <ele>42</ele>
        <time>2020-06-17T07:16:37Z</time>
      </trkpt>
      <trkpt lat="49.33677" lon="-0.73595">
        <ele>42.3</ele>
        <time>2020-06-17T07:16:38Z</time>
      </trkpt>
      <trkpt lat="49.33677" lon="-0.73594">
        <ele>42.3</ele>
        <time>2020-06-17T07:16:39Z</time>
      </trkpt>
      <trkpt lat="49.33679" lon="-0.7359">
        <ele>42.6</ele>
        <time>2020-06-17T07:16:40Z</time>
      </trkpt>
      <trkpt lat="49.3368" lon="-0.73589">
        <ele>42.6</ele>
        <time>2020-06-17T07:16:41Z</time>
      </trkpt>
      <trkpt lat="49.33682" lon="-0.73585">
        <ele>42.9</ele>
        <time>2020-06-17T07:16:42Z</time>
      </trkpt>
      <trkpt lat="49.33683" lon="-0.73584">
        <ele>42.9</ele>
        <time>2020-06-17T07:16:43Z</time>
      </trkpt>
      <trkpt lat="49.33685" lon="-0.7358">
        <ele>43.2</ele>
        <time>2020-06-17T07:16:44Z</time>
      </trkpt>
      <trkpt lat="49.33686" lon="-0.73578">
        <ele>43.3</ele>
        <time>2020-06-17T07:16:45Z</time>
      </trkpt>
      <trkpt lat="49.33687" lon="-0.73574">
        <ele>43.5</ele>
        <time>2020-06-17T07:16:46Z</time>
      </trkpt>
      <trkpt lat="49.33688" lon="-0.73572">
        <ele>43.6</ele>
        <time>2020-06-17T07:16:47Z</time>
      </trkpt>
      <trkpt lat="49.3369" lon="-0.73567">
        <ele>43.9</ele>
        <time>2020-06-17T07:16:48Z</time>
      </trkpt>
      <trkpt lat="49.3369" lon="-0.73565">
        <ele>44</ele>
        <time>2020-06-17T07:16:49Z</time>
      </trkpt>
      <trkpt lat="49.33692" lon="-0.73559">
        <ele>44.3</ele>
        <time>2020-06-17T07:16:50Z</time>
      </trkpt>
      <trkpt lat="49.33692" lon="-0.73557">
        <ele>44.4</ele>
        <time>2020-06-17T07:16:51Z</time>
      </trkpt>
      <trkpt lat="49.33693" lon="-0.73551">
        <ele>44.7</ele>
        <time>2020-06-17T07:16:52Z</time>
      </trkpt>
      <trkpt lat="49.33693" lon="-0.73549">
        <ele>44.8</ele>
        <time>2020-06-17T07:16:53Z</time>
      </trkpt>
      <trkpt lat="49.33694" lon="-0.73545">
        <ele>45</ele>
        <time>2020-06-17T07:16:54Z</time>
      </trkpt>
      <trkpt lat="49.33694" lon="-0.73544">
        <ele>45.1</ele>
        <time>2020-06-17T07:16:55Z</time>
      </trkpt>
      <trkpt lat="49.33695" lon="-0.73541">
        <ele>45.3</ele>
        <time>2020-06-17T07:16:56Z</time>
      </trkpt>
      <trkpt lat="49.33697" lon="-0.7354">
        <ele>45.4</ele>
        <time>2020-06-17T07:16:57Z</time>
      </trkpt>
      <trkpt lat="49.33699" lon="-0.73536">
        <ele>45.6</ele>
        <time>2020-06-17T07:16:58Z</time>
      </trkpt>
      <trkpt lat="49.33699" lon="-0.73535">
        <ele>45.6</ele>
        <time>2020-06-17T07:16:59Z</time>
      </trkpt>
      <trkpt lat="49.33702" lon="-0.73531">
        <ele>45.8</ele>
        <time>2020-06-17T07:17:00Z</time>
      </trkpt>
      <trkpt lat="49.33702" lon="-0.7353">
        <ele>45.9</ele>
        <time>2020-06-17T07:17:01Z</time>
      </trkpt>
      <trkpt lat="49.33703" lon="-0.73526">
        <ele>46.4</ele>
        <time>2020-06-17T07:17:02Z</time>
      </trkpt>
      <trkpt lat="49.33704" lon="-0.73522">
        <ele>46.8</ele>
        <time>2020-06-17T07:17:03Z</time>
      </trkpt>
      <trkpt lat="49.33705" lon="-0.73518">
        <ele>47.1</ele>
        <time>2020-06-17T07:17:04Z</time>
      </trkpt>
      <trkpt lat="49.33706" lon="-0.73514">
        <ele>47.5</ele>
        <time>2020-06-17T07:17:05Z</time>
      </trkpt>
      <trkpt lat="49.33708" lon="-0.7351">
        <ele>48</ele>
        <time>2020-06-17T07:17:06Z</time>
      </trkpt>
      <trkpt lat="49.33709" lon="-0.73505">
        <ele>48.5</ele>
        <time>2020-06-17T07:17:07Z</time>
      </trkpt>
      <trkpt lat="49.3371" lon="-0.735">
        <ele>48.9</ele>
        <time>2020-06-17T07:17:08Z</time>
      </trkpt>
      <trkpt lat="49.3371" lon="-0.73498">
        <ele>49.1</ele>
        <time>2020-06-17T07:17:09Z</time>
      </trkpt>
      <trkpt lat="49.3371" lon="-0.73494">
        <ele>49.5</ele>
        <time>2020-06-17T07:17:10Z</time>
      </trkpt>
      <trkpt lat="49.3371" lon="-0.73493">
        <ele>49.7</ele>
        <time>2020-06-17T07:17:11Z</time>
      </trkpt>
      <trkpt lat="49.3371" lon="-0.7349">
        <ele>49.9</ele>
        <time>2020-06-17T07:17:12Z</time>
      </trkpt>
      <trkpt lat="49.3371" lon="-0.73488">
        <ele>50.1</ele>
        <time>2020-06-17T07:17:13Z</time>
      </trkpt>
      <trkpt lat="49.3371" lon="-0.73485">
        <ele>50.6</ele>
        <time>2020-06-17T07:17:14Z</time>
      </trkpt>
      <trkpt lat="49.3371" lon="-0.73483">
        <ele>50.6</ele>
        <time>2020-06-17T07:17:15Z</time>
      </trkpt>
      <trkpt lat="49.3371" lon="-0.73479">
        <ele>50.7</ele>
        <time>2020-06-17T07:17:16Z</time>
      </trkpt>
      <trkpt lat="49.33711" lon="-0.73477">
        <ele>50.8</ele>
        <time>2020-06-17T07:17:17Z</time>
      </trkpt>
      <trkpt lat="49.33711" lon="-0.73475">
        <ele>50.8</ele>
        <time>2020-06-17T07:17:18Z</time>
      </trkpt>
      <trkpt lat="49.33711" lon="-0.73473">
        <ele>50.9</ele>
        <time>2020-06-17T07:17:19Z</time>
      </trkpt>
      <trkpt lat="49.3371" lon="-0.73469">
        <ele>51</ele>
        <time>2020-06-17T07:17:20Z</time>
      </trkpt>
      <trkpt lat="49.3371" lon="-0.73467">
        <ele>51.4</ele>
        <time>2020-06-17T07:17:21Z</time>
      </trkpt>
      <trkpt lat="49.33708" lon="-0.73463">
        <ele>51.8</ele>
        <time>2020-06-17T07:17:22Z</time>
      </trkpt>
      <trkpt lat="49.33708" lon="-0.73461">
        <ele>51.9</ele>
        <time>2020-06-17T07:17:23Z</time>
      </trkpt>
      <trkpt lat="49.33706" lon="-0.73457">
        <ele>52.2</ele>
        <time>2020-06-17T07:17:24Z</time>
      </trkpt>
      <trkpt lat="49.33705" lon="-0.73452">
        <ele>52.5</ele>
        <time>2020-06-17T07:17:25Z</time>
      </trkpt>
      <trkpt lat="49.33704" lon="-0.73448">
        <ele>52.8</ele>
        <time>2020-06-17T07:17:26Z</time>
      </trkpt>
      <trkpt lat="49.33703" lon="-0.73444">
        <ele>53.1</ele>
        <time>2020-06-17T07:17:27Z</time>
      </trkpt>
      <trkpt lat="49.33702" lon="-0.73439">
        <ele>53.5</ele>
        <time>2020-06-17T07:17:28Z</time>
      </trkpt>
      <trkpt lat="49.33701" lon="-0.73435">
        <ele>53.7</ele>
        <time>2020-06-17T07:17:29Z</time>
      </trkpt>
      <trkpt lat="49.33701" lon="-0.73431">
        <ele>54</ele>
        <time>2020-06-17T07:17:30Z</time>
      </trkpt>
      <trkpt lat="49.337" lon="-0.73425">
        <ele>54.4</ele>
        <time>2020-06-17T07:17:31Z</time>
      </trkpt>
      <trkpt lat="49.337" lon="-0.73424">
        <ele>54.5</ele>
        <time>2020-06-17T07:17:32Z</time>
      </trkpt>
      <trkpt lat="49.337" lon="-0.73419">
        <ele>54.7</ele>
        <time>2020-06-17T07:17:33Z</time>
      </trkpt>
      <trkpt lat="49.33699" lon="-0.73413">
        <ele>55.1</ele>
        <time>2020-06-17T07:17:34Z</time>
      </trkpt>
      <trkpt lat="49.33699" lon="-0.73411">
        <ele>55.2</ele>
        <time>2020-06-17T07:17:35Z</time>
      </trkpt>
      <trkpt lat="49.33698" lon="-0.73407">
        <ele>55.5</ele>
        <time>2020-06-17T07:17:36Z</time>
      </trkpt>
      <trkpt lat="49.33697" lon="-0.73401">
        <ele>55.9</ele>
        <time>2020-06-17T07:17:37Z</time>
      </trkpt>
      <trkpt lat="49.33697" lon="-0.73399">
        <ele>56</ele>
        <time>2020-06-17T07:17:38Z</time>
      </trkpt>
      <trkpt lat="49.33697" lon="-0.73393">
        <ele>56.3</ele>
        <time>2020-06-17T07:17:39Z</time>
      </trkpt>
      <trkpt lat="49.33697" lon="-0.73391">
        <ele>56.5</ele>
        <time>2020-06-17T07:17:40Z</time>
      </trkpt>
      <trkpt lat="49.33696" lon="-0.73386">
        <ele>56.7</ele>
        <time>2020-06-17T07:17:41Z</time>
      </trkpt>
      <trkpt lat="49.33695" lon="-0.73382">
        <ele>56.9</ele>
        <time>2020-06-17T07:17:42Z</time>
      </trkpt>
      <trkpt lat="49.33695" lon="-0.73376">
        <ele>57.3</ele>
        <time>2020-06-17T07:17:43Z</time>
      </trkpt>
      <trkpt lat="49.33694" lon="-0.73374">
        <ele>57.4</ele>
        <time>2020-06-17T07:17:44Z</time>
      </trkpt>
      <trkpt lat="49.33694" lon="-0.73369">
        <ele>57.6</ele>
        <time>2020-06-17T07:17:45Z</time>
      </trkpt>
      <trkpt lat="49.33694" lon="-0.73364">
        <ele>57.8</ele>
        <time>2020-06-17T07:17:46Z</time>
      </trkpt>
      <trkpt lat="49.33693" lon="-0.73358">
        <ele>58.2</ele>
        <time>2020-06-17T07:17:47Z</time>
      </trkpt>
      <trkpt lat="49.33694" lon="-0.73351">
        <ele>58.6</ele>
        <time>2020-06-17T07:17:48Z</time>
      </trkpt>
      <trkpt lat="49.33695" lon="-0.73345">
        <ele>58.9</ele>
        <time>2020-06-17T07:17:49Z</time>
      </trkpt>
      <trkpt lat="49.33696" lon="-0.73339">
        <ele>59.3</ele>
        <time>2020-06-17T07:17:50Z</time>
      </trkpt>
      <trkpt lat="49.33697" lon="-0.73333">
        <ele>59.6</ele>
        <time>2020-06-17T07:17:51Z</time>
      </trkpt>
      <trkpt lat="49.33696" lon="-0.73328">
        <ele>59.9</ele>
        <time>2020-06-17T07:17:52Z</time>
      </trkpt>
      <trkpt lat="49.33697" lon="-0.73322">
        <ele>60.2</ele>
        <time>2020-06-17T07:17:53Z</time>
      </trkpt>
      <trkpt lat="49.33697" lon="-0.73317">
        <ele>60.5</ele>
        <time>2020-06-17T07:17:54Z</time>
      </trkpt>
      <trkpt lat="49.33697" lon="-0.73311">
        <ele>60.9</ele>
        <time>2020-06-17T07:17:55Z</time>
      </trkpt>
      <trkpt lat="49.33697" lon="-0.73304">
        <ele>61.2</ele>
        <time>2020-06-17T07:17:56Z</time>
      </trkpt>
      <trkpt lat="49.33696" lon="-0.73299">
        <ele>61.4</ele>
        <time>2020-06-17T07:17:57Z</time>
      </trkpt>
      <trkpt lat="49.33696" lon="-0.73294">
        <ele>61.7</ele>
        <time>2020-06-17T07:17:58Z</time>
      </trkpt>
      <trkpt lat="49.33696" lon="-0.73289">
        <ele>62</ele>
        <time>2020-06-17T07:17:59Z</time>
      </trkpt>
      <trkpt lat="49.33696" lon="-0.73283">
        <ele>62.2</ele>
        <time>2020-06-17T07:18:00Z</time>
      </trkpt>
      <trkpt lat="49.33696" lon="-0.73276">
        <ele>62.5</ele>
        <time>2020-06-17T07:18:01Z</time>
      </trkpt>
      <trkpt lat="49.33697" lon="-0.73269">
        <ele>62.9</ele>
        <time>2020-06-17T07:18:02Z</time>
      </trkpt>
      <trkpt lat="49.33696" lon="-0.73261">
        <ele>63.1</ele>
        <time>2020-06-17T07:18:03Z</time>
      </trkpt>
      <trkpt lat="49.33696" lon="-0.73255">
        <ele>63.4</ele>
        <time>2020-06-17T07:18:04Z</time>
      </trkpt>
      <trkpt lat="49.33696" lon="-0.73249">
        <ele>63.6</ele>
        <time>2020-06-17T07:18:05Z</time>
      </trkpt>
      <trkpt lat="49.33695" lon="-0.73243">
        <ele>63.8</ele>
        <time>2020-06-17T07:18:06Z</time>
      </trkpt>
      <trkpt lat="49.33695" lon="-0.73236">
        <ele>63.9</ele>
        <time>2020-06-17T07:18:07Z</time>
      </trkpt>
      <trkpt lat="49.33695" lon="-0.73228">
        <ele>64</ele>
        <time>2020-06-17T07:18:08Z</time>
      </trkpt>
      <trkpt lat="49.33694" lon="-0.73219">
        <ele>64.1</ele>
        <time>2020-06-17T07:18:09Z</time>
      </trkpt>
      <trkpt lat="49.33694" lon="-0.73211">
        <ele>64.3</ele>
        <time>2020-06-17T07:18:10Z</time>
      </trkpt>
      <trkpt lat="49.33693" lon="-0.73204">
        <ele>64.3</ele>
        <time>2020-06-17T07:18:11Z</time>
      </trkpt>
      <trkpt lat="49.33692" lon="-0.73197">
        <ele>64.4</ele>
        <time>2020-06-17T07:18:12Z</time>
      </trkpt>
      <trkpt lat="49.33691" lon="-0.73191">
        <ele>64.5</ele>
        <time>2020-06-17T07:18:13Z</time>
      </trkpt>
      <trkpt lat="49.3369" lon="-0.73184">
        <ele>64.7</ele>
        <time>2020-06-17T07:18:14Z</time>
      </trkpt>
      <trkpt lat="49.3369" lon="-0.73177">
        <ele>64.8</ele>
        <time>2020-06-17T07:18:15Z</time>
      </trkpt>
      <trkpt lat="49.33689" lon="-0.7317">
        <ele>64.9</ele>
        <time>2020-06-17T07:18:16Z</time>
      </trkpt>
      <trkpt lat="49.33688" lon="-0.73163">
        <ele>65</ele>
        <time>2020-06-17T07:18:17Z</time>
      </trkpt>
      <trkpt lat="49.33687" lon="-0.73157">
        <ele>65.1</ele>
        <time>2020-06-17T07:18:18Z</time>
      </trkpt>
      <trkpt lat="49.33687" lon="-0.7315">
        <ele>65.1</ele>
        <time>2020-06-17T07:18:19Z</time>
      </trkpt>
      <trkpt lat="49.33686" lon="-0.73143">
        <ele>65.2</ele>
        <time>2020-06-17T07:18:20Z</time>
      </trkpt>
      <trkpt lat="49.33685" lon="-0.73137">
        <ele>65.2</ele>
        <time>2020-06-17T07:18:21Z</time>
      </trkpt>
      <trkpt lat="49.33684" lon="-0.73131">
        <ele>65.3</ele>
        <time>2020-06-17T07:18:22Z</time>
      </trkpt>
      <trkpt lat="49.33683" lon="-0.73124">
        <ele>65.3</ele>
        <time>2020-06-17T07:18:23Z</time>
      </trkpt>
      <trkpt lat="49.33682" lon="-0.73117">
        <ele>65.3</ele>
        <time>2020-06-17T07:18:24Z</time>
      </trkpt>
      <trkpt lat="49.33681" lon="-0.73111">
        <ele>65.4</ele>
        <time>2020-06-17T07:18:25Z</time>
      </trkpt>
      <trkpt lat="49.33681" lon="-0.73104">
        <ele>65.4</ele>
        <time>2020-06-17T07:18:26Z</time>
      </trkpt>
      <trkpt lat="49.3368" lon="-0.73097">
        <ele>65.5</ele>
        <time>2020-06-17T07:18:27Z</time>
      </trkpt>
      <trkpt lat="49.33679" lon="-0.73091">
        <ele>65.5</ele>
        <time>2020-06-17T07:18:28Z</time>
      </trkpt>
      <trkpt lat="49.33679" lon="-0.73086">
        <ele>65.6</ele>
        <time>2020-06-17T07:18:29Z</time>
      </trkpt>
      <trkpt lat="49.33678" lon="-0.73081">
        <ele>65.6</ele>
        <time>2020-06-17T07:18:30Z</time>
      </trkpt>
      <trkpt lat="49.33678" lon="-0.73076">
        <ele>65.7</ele>
        <time>2020-06-17T07:18:31Z</time>
      </trkpt>
      <trkpt lat="49.33677" lon="-0.7307">
        <ele>65.7</ele>
        <time>2020-06-17T07:18:32Z</time>
      </trkpt>
      <trkpt lat="49.33677" lon="-0.73065">
        <ele>65.7</ele>
        <time>2020-06-17T07:18:33Z</time>
      </trkpt>
      <trkpt lat="49.33676" lon="-0.73061">
        <ele>65.8</ele>
        <time>2020-06-17T07:18:34Z</time>
      </trkpt>
      <trkpt lat="49.33675" lon="-0.73056">
        <ele>65.8</ele>
        <time>2020-06-17T07:18:35Z</time>
      </trkpt>
      <trkpt lat="49.33675" lon="-0.7305">
        <ele>65.8</ele>
        <time>2020-06-17T07:18:36Z</time>
      </trkpt>
      <trkpt lat="49.33675" lon="-0.73045">
        <ele>65.9</ele>
        <time>2020-06-17T07:18:37Z</time>
      </trkpt>
      <trkpt lat="49.33675" lon="-0.73039">
        <ele>65.9</ele>
        <time>2020-06-17T07:18:38Z</time>
      </trkpt>
      <trkpt lat="49.33675" lon="-0.73033">
        <ele>66</ele>
        <time>2020-06-17T07:18:39Z</time>
      </trkpt>
      <trkpt lat="49.33675" lon="-0.73026">
        <ele>66</ele>
        <time>2020-06-17T07:18:40Z</time>
      </trkpt>
      <trkpt lat="49.33675" lon="-0.7302">
        <ele>66.1</ele>
        <time>2020-06-17T07:18:41Z</time>
      </trkpt>
      <trkpt lat="49.33675" lon="-0.73012">
        <ele>66.1</ele>
        <time>2020-06-17T07:18:42Z</time>
      </trkpt>
      <trkpt lat="49.33675" lon="-0.73004">
        <ele>66.2</ele>
        <time>2020-06-17T07:18:43Z</time>
      </trkpt>
      <trkpt lat="49.33676" lon="-0.72997">
        <ele>66.2</ele>
        <time>2020-06-17T07:18:44Z</time>
      </trkpt>
      <trkpt lat="49.33676" lon="-0.72989">
        <ele>66.2</ele>
        <time>2020-06-17T07:18:45Z</time>
      </trkpt>
      <trkpt lat="49.33677" lon="-0.72981">
        <ele>66.2</ele>
        <time>2020-06-17T07:18:46Z</time>
      </trkpt>
      <trkpt lat="49.33677" lon="-0.72973">
        <ele>66.2</ele>
        <time>2020-06-17T07:18:47Z</time>
      </trkpt>
      <trkpt lat="49.33677" lon="-0.72965">
        <ele>66.3</ele>
        <time>2020-06-17T07:18:48Z</time>
      </trkpt>
      <trkpt lat="49.33678" lon="-0.72957">
        <ele>66.3</ele>
        <time>2020-06-17T07:18:49Z</time>
      </trkpt>
      <trkpt lat="49.33678" lon="-0.72949">
        <ele>66.3</ele>
        <time>2020-06-17T07:18:50Z</time>
      </trkpt>
      <trkpt lat="49.33678" lon="-0.7294">
        <ele>66.3</ele>
        <time>2020-06-17T07:18:51Z</time>
      </trkpt>
      <trkpt lat="49.33678" lon="-0.72931">
        <ele>66.3</ele>
        <time>2020-06-17T07:18:52Z</time>
      </trkpt>
      <trkpt lat="49.33678" lon="-0.72923">
        <ele>66.3</ele>
        <time>2020-06-17T07:18:53Z</time>
      </trkpt>
      <trkpt lat="49.33678" lon="-0.72914">
        <ele>66.3</ele>
        <time>2020-06-17T07:18:54Z</time>
      </trkpt>
      <trkpt lat="49.33677" lon="-0.72906">
        <ele>66.3</ele>
        <time>2020-06-17T07:18:55Z</time>
      </trkpt>
      <trkpt lat="49.33676" lon="-0.72898">
        <ele>66.3</ele>
        <time>2020-06-17T07:18:56Z</time>
      </trkpt>
      <trkpt lat="49.33676" lon="-0.7289">
        <ele>66.3</ele>
        <time>2020-06-17T07:18:57Z</time>
      </trkpt>
      <trkpt lat="49.33676" lon="-0.72883">
        <ele>66.3</ele>
        <time>2020-06-17T07:18:58Z</time>
      </trkpt>
      <trkpt lat="49.33675" lon="-0.72875">
        <ele>66.3</ele>
        <time>2020-06-17T07:18:59Z</time>
      </trkpt>
      <trkpt lat="49.33675" lon="-0.72867">
        <ele>66.3</ele>
        <time>2020-06-17T07:19:00Z</time>
      </trkpt>
      <trkpt lat="49.33675" lon="-0.72859">
        <ele>66.3</ele>
        <time>2020-06-17T07:19:01Z</time>
      </trkpt>
      <trkpt lat="49.33675" lon="-0.72851">
        <ele>66.3</ele>
        <time>2020-06-17T07:19:02Z</time>
      </trkpt>
      <trkpt lat="49.33675" lon="-0.72843">
        <ele>66.4</ele>
        <time>2020-06-17T07:19:03Z</time>
      </trkpt>
      <trkpt lat="49.33676" lon="-0.72835">
        <ele>66.4</ele>
        <time>2020-06-17T07:19:04Z</time>
      </trkpt>
      <trkpt lat="49.33676" lon="-0.72828">
        <ele>66.4</ele>
        <time>2020-06-17T07:19:05Z</time>
      </trkpt>
      <trkpt lat="49.33676" lon="-0.72821">
        <ele>66.4</ele>
        <time>2020-06-17T07:19:06Z</time>
      </trkpt>
      <trkpt lat="49.33677" lon="-0.72814">
        <ele>66.5</ele>
        <time>2020-06-17T07:19:07Z</time>
      </trkpt>
      <trkpt lat="49.33677" lon="-0.72807">
        <ele>66.5</ele>
        <time>2020-06-17T07:19:08Z</time>
      </trkpt>
      <trkpt lat="49.33678" lon="-0.728">
        <ele>66.6</ele>
        <time>2020-06-17T07:19:09Z</time>
      </trkpt>
      <trkpt lat="49.33679" lon="-0.72793">
        <ele>66.5</ele>
        <time>2020-06-17T07:19:10Z</time>
      </trkpt>
      <trkpt lat="49.3368" lon="-0.72785">
        <ele>66.5</ele>
        <time>2020-06-17T07:19:11Z</time>
      </trkpt>
      <trkpt lat="49.33681" lon="-0.72778">
        <ele>66.5</ele>
        <time>2020-06-17T07:19:12Z</time>
      </trkpt>
      <trkpt lat="49.33682" lon="-0.72769">
        <ele>66.6</ele>
        <time>2020-06-17T07:19:13Z</time>
      </trkpt>
      <trkpt lat="49.33682" lon="-0.72762">
        <ele>66.6</ele>
        <time>2020-06-17T07:19:14Z</time>
      </trkpt>
      <trkpt lat="49.33683" lon="-0.72754">
        <ele>66.6</ele>
        <time>2020-06-17T07:19:15Z</time>
      </trkpt>
      <trkpt lat="49.33684" lon="-0.72746">
        <ele>66.6</ele>
        <time>2020-06-17T07:19:16Z</time>
      </trkpt>
      <trkpt lat="49.33685" lon="-0.72738">
        <ele>66.7</ele>
        <time>2020-06-17T07:19:17Z</time>
      </trkpt>
      <trkpt lat="49.33685" lon="-0.72729">
        <ele>66.7</ele>
        <time>2020-06-17T07:19:18Z</time>
      </trkpt>
      <trkpt lat="49.33686" lon="-0.72722">
        <ele>66.7</ele>
        <time>2020-06-17T07:19:19Z</time>
      </trkpt>
      <trkpt lat="49.33687" lon="-0.72714">
        <ele>66.7</ele>
        <time>2020-06-17T07:19:20Z</time>
      </trkpt>
      <trkpt lat="49.33687" lon="-0.72706">
        <ele>66.7</ele>
        <time>2020-06-17T07:19:21Z</time>
      </trkpt>
      <trkpt lat="49.33687" lon="-0.72699">
        <ele>66.7</ele>
        <time>2020-06-17T07:19:22Z</time>
      </trkpt>
      <trkpt lat="49.33688" lon="-0.72692">
        <ele>66.7</ele>
        <time>2020-06-17T07:19:23Z</time>
      </trkpt>
      <trkpt lat="49.33688" lon="-0.72685">
        <ele>66.7</ele>
        <time>2020-06-17T07:19:24Z</time>
      </trkpt>
      <trkpt lat="49.33688" lon="-0.72679">
        <ele>66.7</ele>
        <time>2020-06-17T07:19:25Z</time>
      </trkpt>
      <trkpt lat="49.33688" lon="-0.72672">
        <ele>66.7</ele>
        <time>2020-06-17T07:19:26Z</time>
      </trkpt>
      <trkpt lat="49.33688" lon="-0.72665">
        <ele>66.8</ele>
        <time>2020-06-17T07:19:27Z</time>
      </trkpt>
      <trkpt lat="49.33688" lon="-0.72657">
        <ele>66.8</ele>
        <time>2020-06-17T07:19:28Z</time>
      </trkpt>
      <trkpt lat="49.33688" lon="-0.7265">
        <ele>66.8</ele>
        <time>2020-06-17T07:19:29Z</time>
      </trkpt>
      <trkpt lat="49.33688" lon="-0.72642">
        <ele>66.8</ele>
        <time>2020-06-17T07:19:30Z</time>
      </trkpt>
      <trkpt lat="49.33689" lon="-0.72633">
        <ele>66.8</ele>
        <time>2020-06-17T07:19:31Z</time>
      </trkpt>
      <trkpt lat="49.3369" lon="-0.72625">
        <ele>66.8</ele>
        <time>2020-06-17T07:19:32Z</time>
      </trkpt>
      <trkpt lat="49.33692" lon="-0.72616">
        <ele>66.8</ele>
        <time>2020-06-17T07:19:33Z</time>
      </trkpt>
      <trkpt lat="49.33694" lon="-0.72609">
        <ele>66.8</ele>
        <time>2020-06-17T07:19:34Z</time>
      </trkpt>
      <trkpt lat="49.33696" lon="-0.72603">
        <ele>66.8</ele>
        <time>2020-06-17T07:19:35Z</time>
      </trkpt>
      <trkpt lat="49.33697" lon="-0.72596">
        <ele>66.8</ele>
        <time>2020-06-17T07:19:36Z</time>
      </trkpt>
      <trkpt lat="49.33699" lon="-0.72589">
        <ele>66.9</ele>
        <time>2020-06-17T07:19:37Z</time>
      </trkpt>
      <trkpt lat="49.33702" lon="-0.72582">
        <ele>66.9</ele>
        <time>2020-06-17T07:19:38Z</time>
      </trkpt>
      <trkpt lat="49.33705" lon="-0.72576">
        <ele>66.9</ele>
        <time>2020-06-17T07:19:39Z</time>
      </trkpt>
      <trkpt lat="49.33708" lon="-0.72569">
        <ele>66.9</ele>
        <time>2020-06-17T07:19:40Z</time>
      </trkpt>
      <trkpt lat="49.3371" lon="-0.72563">
        <ele>66.9</ele>
        <time>2020-06-17T07:19:41Z</time>
      </trkpt>
      <trkpt lat="49.33711" lon="-0.72558">
        <ele>66.9</ele>
        <time>2020-06-17T07:19:42Z</time>
      </trkpt>
      <trkpt lat="49.33713" lon="-0.72552">
        <ele>67</ele>
        <time>2020-06-17T07:19:43Z</time>
      </trkpt>
      <trkpt lat="49.33714" lon="-0.72546">
        <ele>67</ele>
        <time>2020-06-17T07:19:44Z</time>
      </trkpt>
      <trkpt lat="49.33716" lon="-0.72541">
        <ele>67</ele>
        <time>2020-06-17T07:19:45Z</time>
      </trkpt>
      <trkpt lat="49.33718" lon="-0.72536">
        <ele>67</ele>
        <time>2020-06-17T07:19:46Z</time>
      </trkpt>
      <trkpt lat="49.3372" lon="-0.72532">
        <ele>67</ele>
        <time>2020-06-17T07:19:47Z</time>
      </trkpt>
      <trkpt lat="49.33722" lon="-0.72527">
        <ele>67</ele>
        <time>2020-06-17T07:19:48Z</time>
      </trkpt>
      <trkpt lat="49.33724" lon="-0.72522">
        <ele>67</ele>
        <time>2020-06-17T07:19:49Z</time>
      </trkpt>
      <trkpt lat="49.33726" lon="-0.72515">
        <ele>67</ele>
        <time>2020-06-17T07:19:50Z</time>
      </trkpt>
      <trkpt lat="49.33729" lon="-0.72508">
        <ele>67</ele>
        <time>2020-06-17T07:19:51Z</time>
      </trkpt>
      <trkpt lat="49.33732" lon="-0.72501">
        <ele>67</ele>
        <time>2020-06-17T07:19:52Z</time>
      </trkpt>
      <trkpt lat="49.33734" lon="-0.72492">
        <ele>67</ele>
        <time>2020-06-17T07:19:53Z</time>
      </trkpt>
      <trkpt lat="49.33737" lon="-0.72484">
        <ele>67</ele>
        <time>2020-06-17T07:19:54Z</time>
      </trkpt>
      <trkpt lat="49.33739" lon="-0.72473">
        <ele>67</ele>
        <time>2020-06-17T07:19:55Z</time>
      </trkpt>
      <trkpt lat="49.3374" lon="-0.72463">
        <ele>67</ele>
        <time>2020-06-17T07:19:56Z</time>
      </trkpt>
      <trkpt lat="49.33742" lon="-0.72453">
        <ele>67</ele>
        <time>2020-06-17T07:19:57Z</time>
      </trkpt>
      <trkpt lat="49.33743" lon="-0.72443">
        <ele>67</ele>
        <time>2020-06-17T07:19:58Z</time>
      </trkpt>
      <trkpt lat="49.33745" lon="-0.72434">
        <ele>67</ele>
        <time>2020-06-17T07:19:59Z</time>
      </trkpt>
      <trkpt lat="49.33746" lon="-0.72423">
        <ele>67</ele>
        <time>2020-06-17T07:20:00Z</time>
      </trkpt>
      <trkpt lat="49.33748" lon="-0.72415">
        <ele>67</ele>
        <time>2020-06-17T07:20:01Z</time>
      </trkpt>
      <trkpt lat="49.33749" lon="-0.72406">
        <ele>67</ele>
        <time>2020-06-17T07:20:02Z</time>
      </trkpt>
      <trkpt lat="49.33751" lon="-0.72396">
        <ele>67</ele>
        <time>2020-06-17T07:20:03Z</time>
      </trkpt>
      <trkpt lat="49.33754" lon="-0.72386">
        <ele>67</ele>
        <time>2020-06-17T07:20:04Z</time>
      </trkpt>
      <trkpt lat="49.33755" lon="-0.72377">
        <ele>67.1</ele>
        <time>2020-06-17T07:20:05Z</time>
      </trkpt>
      <trkpt lat="49.33757" lon="-0.72368">
        <ele>67.1</ele>
        <time>2020-06-17T07:20:06Z</time>
      </trkpt>
      <trkpt lat="49.33758" lon="-0.7236">
        <ele>67.2</ele>
        <time>2020-06-17T07:20:07Z</time>
      </trkpt>
      <trkpt lat="49.3376" lon="-0.72352">
        <ele>67.2</ele>
        <time>2020-06-17T07:20:08Z</time>
      </trkpt>
      <trkpt lat="49.33762" lon="-0.72344">
        <ele>67.3</ele>
        <time>2020-06-17T07:20:09Z</time>
      </trkpt>
      <trkpt lat="49.33764" lon="-0.72337">
        <ele>67.3</ele>
        <time>2020-06-17T07:20:10Z</time>
      </trkpt>
      <trkpt lat="49.33766" lon="-0.7233">
        <ele>67.4</ele>
        <time>2020-06-17T07:20:11Z</time>
      </trkpt>
      <trkpt lat="49.33767" lon="-0.72322">
        <ele>67.4</ele>
        <time>2020-06-17T07:20:12Z</time>
      </trkpt>
      <trkpt lat="49.33769" lon="-0.72314">
        <ele>67.5</ele>
        <time>2020-06-17T07:20:13Z</time>
      </trkpt>
      <trkpt lat="49.3377" lon="-0.72307">
        <ele>67.5</ele>
        <time>2020-06-17T07:20:14Z</time>
      </trkpt>
      <trkpt lat="49.3377" lon="-0.723">
        <ele>67.5</ele>
        <time>2020-06-17T07:20:15Z</time>
      </trkpt>
      <trkpt lat="49.33771" lon="-0.72293">
        <ele>67.6</ele>
        <time>2020-06-17T07:20:16Z</time>
      </trkpt>
      <trkpt lat="49.33773" lon="-0.72287">
        <ele>67.6</ele>
        <time>2020-06-17T07:20:17Z</time>
      </trkpt>
      <trkpt lat="49.33774" lon="-0.72279">
        <ele>67.6</ele>
        <time>2020-06-17T07:20:18Z</time>
      </trkpt>
      <trkpt lat="49.33776" lon="-0.72272">
        <ele>67.6</ele>
        <time>2020-06-17T07:20:19Z</time>
      </trkpt>
      <trkpt lat="49.33777" lon="-0.72265">
        <ele>67.7</ele>
        <time>2020-06-17T07:20:20Z</time>
      </trkpt>
      <trkpt lat="49.33779" lon="-0.72257">
        <ele>67.8</ele>
        <time>2020-06-17T07:20:21Z</time>
      </trkpt>
      <trkpt lat="49.33781" lon="-0.72249">
        <ele>67.8</ele>
        <time>2020-06-17T07:20:22Z</time>
      </trkpt>
      <trkpt lat="49.33782" lon="-0.72241">
        <ele>67.8</ele>
        <time>2020-06-17T07:20:23Z</time>
      </trkpt>
      <trkpt lat="49.33783" lon="-0.72234">
        <ele>67.9</ele>
        <time>2020-06-17T07:20:24Z</time>
      </trkpt>
      <trkpt lat="49.33784" lon="-0.72225">
        <ele>67.9</ele>
        <time>2020-06-17T07:20:25Z</time>
      </trkpt>
      <trkpt lat="49.33785" lon="-0.72217">
        <ele>68</ele>
        <time>2020-06-17T07:20:26Z</time>
      </trkpt>
      <trkpt lat="49.33786" lon="-0.72208">
        <ele>68</ele>
        <time>2020-06-17T07:20:27Z</time>
      </trkpt>
      <trkpt lat="49.33787" lon="-0.72198">
        <ele>68.1</ele>
        <time>2020-06-17T07:20:28Z</time>
      </trkpt>
      <trkpt lat="49.3379" lon="-0.72191">
        <ele>68.1</ele>
        <time>2020-06-17T07:20:29Z</time>
      </trkpt>
      <trkpt lat="49.33791" lon="-0.72183">
        <ele>68.2</ele>
        <time>2020-06-17T07:20:30Z</time>
      </trkpt>
      <trkpt lat="49.33793" lon="-0.72174">
        <ele>68.3</ele>
        <time>2020-06-17T07:20:31Z</time>
      </trkpt>
      <trkpt lat="49.33795" lon="-0.72166">
        <ele>68.3</ele>
        <time>2020-06-17T07:20:32Z</time>
      </trkpt>
      <trkpt lat="49.33797" lon="-0.72158">
        <ele>68.4</ele>
        <time>2020-06-17T07:20:33Z</time>
      </trkpt>
      <trkpt lat="49.33799" lon="-0.7215">
        <ele>68.5</ele>
        <time>2020-06-17T07:20:34Z</time>
      </trkpt>
      <trkpt lat="49.338" lon="-0.72143">
        <ele>68.5</ele>
        <time>2020-06-17T07:20:35Z</time>
      </trkpt>
      <trkpt lat="49.33802" lon="-0.72136">
        <ele>68.6</ele>
        <time>2020-06-17T07:20:36Z</time>
      </trkpt>
      <trkpt lat="49.33805" lon="-0.7213">
        <ele>68.7</ele>
        <time>2020-06-17T07:20:37Z</time>
      </trkpt>
      <trkpt lat="49.33807" lon="-0.72124">
        <ele>68.8</ele>
        <time>2020-06-17T07:20:38Z</time>
      </trkpt>
      <trkpt lat="49.33808" lon="-0.72119">
        <ele>68.9</ele>
        <time>2020-06-17T07:20:39Z</time>
      </trkpt>
      <trkpt lat="49.3381" lon="-0.72113">
        <ele>69</ele>
        <time>2020-06-17T07:20:40Z</time>
      </trkpt>
      <trkpt lat="49.33812" lon="-0.72108">
        <ele>69.1</ele>
        <time>2020-06-17T07:20:41Z</time>
      </trkpt>
      <trkpt lat="49.33813" lon="-0.72102">
        <ele>69.2</ele>
        <time>2020-06-17T07:20:42Z</time>
      </trkpt>
      <trkpt lat="49.33815" lon="-0.72097">
        <ele>69.3</ele>
        <time>2020-06-17T07:20:43Z</time>
      </trkpt>
      <trkpt lat="49.33816" lon="-0.72093">
        <ele>69.4</ele>
        <time>2020-06-17T07:20:44Z</time>
      </trkpt>
      <trkpt lat="49.33817" lon="-0.72089">
        <ele>69.4</ele>
        <time>2020-06-17T07:20:45Z</time>
      </trkpt>
      <trkpt lat="49.33818" lon="-0.72085">
        <ele>69.5</ele>
        <time>2020-06-17T07:20:46Z</time>
      </trkpt>
      <trkpt lat="49.3382" lon="-0.72078">
        <ele>69.6</ele>
        <time>2020-06-17T07:20:47Z</time>
      </trkpt>
      <trkpt lat="49.33823" lon="-0.72073">
        <ele>69.7</ele>
        <time>2020-06-17T07:20:48Z</time>
      </trkpt>
      <trkpt lat="49.33824" lon="-0.72069">
        <ele>69.8</ele>
        <time>2020-06-17T07:20:49Z</time>
      </trkpt>
      <trkpt lat="49.33825" lon="-0.72068">
        <ele>69.9</ele>
        <time>2020-06-17T07:20:50Z</time>
      </trkpt>
      <trkpt lat="49.33827" lon="-0.72063">
        <ele>70</ele>
        <time>2020-06-17T07:20:51Z</time>
      </trkpt>
      <trkpt lat="49.33827" lon="-0.72061">
        <ele>70</ele>
        <time>2020-06-17T07:20:52Z</time>
      </trkpt>
      <trkpt lat="49.3383" lon="-0.7206">
        <ele>70.1</ele>
        <time>2020-06-17T07:20:53Z</time>
      </trkpt>
      <trkpt lat="49.33831" lon="-0.7206">
        <ele>70.1</ele>
        <time>2020-06-17T07:20:54Z</time>
      </trkpt>
      <trkpt lat="49.33835" lon="-0.7206">
        <ele>70.2</ele>
        <time>2020-06-17T07:20:55Z</time>
      </trkpt>
      <trkpt lat="49.33836" lon="-0.7206">
        <ele>70.2</ele>
        <time>2020-06-17T07:20:56Z</time>
      </trkpt>
      <trkpt lat="49.33839" lon="-0.72062">
        <ele>70.3</ele>
        <time>2020-06-17T07:20:57Z</time>
      </trkpt>
      <trkpt lat="49.3384" lon="-0.72063">
        <ele>70.4</ele>
        <time>2020-06-17T07:20:58Z</time>
      </trkpt>
      <trkpt lat="49.33844" lon="-0.72064">
        <ele>70.5</ele>
        <time>2020-06-17T07:20:59Z</time>
      </trkpt>
      <trkpt lat="49.33845" lon="-0.72063">
        <ele>70.5</ele>
        <time>2020-06-17T07:21:00Z</time>
      </trkpt>
      <trkpt lat="49.33848" lon="-0.72062">
        <ele>70.6</ele>
        <time>2020-06-17T07:21:01Z</time>
      </trkpt>
      <trkpt lat="49.3385" lon="-0.72061">
        <ele>70.7</ele>
        <time>2020-06-17T07:21:02Z</time>
      </trkpt>
      <trkpt lat="49.33853" lon="-0.72062">
        <ele>70.7</ele>
        <time>2020-06-17T07:21:03Z</time>
      </trkpt>
      <trkpt lat="49.33854" lon="-0.72061">
        <ele>70.8</ele>
        <time>2020-06-17T07:21:04Z</time>
      </trkpt>
      <trkpt lat="49.33857" lon="-0.72061">
        <ele>70.9</ele>
        <time>2020-06-17T07:21:05Z</time>
      </trkpt>
      <trkpt lat="49.33858" lon="-0.72061">
        <ele>70.9</ele>
        <time>2020-06-17T07:21:06Z</time>
      </trkpt>
      <trkpt lat="49.33862" lon="-0.7206">
        <ele>71</ele>
        <time>2020-06-17T07:21:07Z</time>
      </trkpt>
      <trkpt lat="49.33863" lon="-0.7206">
        <ele>71.1</ele>
        <time>2020-06-17T07:21:08Z</time>
      </trkpt>
      <trkpt lat="49.33867" lon="-0.72059">
        <ele>71.2</ele>
        <time>2020-06-17T07:21:09Z</time>
      </trkpt>
      <trkpt lat="49.33871" lon="-0.72057">
        <ele>71.3</ele>
        <time>2020-06-17T07:21:10Z</time>
      </trkpt>
      <trkpt lat="49.33874" lon="-0.72055">
        <ele>71.4</ele>
        <time>2020-06-17T07:21:11Z</time>
      </trkpt>
      <trkpt lat="49.33877" lon="-0.72053">
        <ele>71.5</ele>
        <time>2020-06-17T07:21:12Z</time>
      </trkpt>
      <trkpt lat="49.3388" lon="-0.7205">
        <ele>71.6</ele>
        <time>2020-06-17T07:21:13Z</time>
      </trkpt>
      <trkpt lat="49.33882" lon="-0.72046">
        <ele>71.7</ele>
        <time>2020-06-17T07:21:14Z</time>
      </trkpt>
      <trkpt lat="49.33884" lon="-0.72042">
        <ele>71.8</ele>
        <time>2020-06-17T07:21:15Z</time>
      </trkpt>
      <trkpt lat="49.33887" lon="-0.72037">
        <ele>71.9</ele>
        <time>2020-06-17T07:21:16Z</time>
      </trkpt>
      <trkpt lat="49.3389" lon="-0.72031">
        <ele>72.1</ele>
        <time>2020-06-17T07:21:17Z</time>
      </trkpt>
      <trkpt lat="49.33892" lon="-0.72024">
        <ele>72.2</ele>
        <time>2020-06-17T07:21:18Z</time>
      </trkpt>
      <trkpt lat="49.33895" lon="-0.72017">
        <ele>72.3</ele>
        <time>2020-06-17T07:21:19Z</time>
      </trkpt>
      <trkpt lat="49.33897" lon="-0.7201">
        <ele>72.4</ele>
        <time>2020-06-17T07:21:20Z</time>
      </trkpt>
      <trkpt lat="49.33899" lon="-0.72004">
        <ele>72.5</ele>
        <time>2020-06-17T07:21:21Z</time>
      </trkpt>
      <trkpt lat="49.33899" lon="-0.71997">
        <ele>72.5</ele>
        <time>2020-06-17T07:21:22Z</time>
      </trkpt>
      <trkpt lat="49.33898" lon="-0.7199">
        <ele>72.6</ele>
        <time>2020-06-17T07:21:23Z</time>
      </trkpt>
      <trkpt lat="49.33898" lon="-0.71984">
        <ele>72.7</ele>
        <time>2020-06-17T07:21:24Z</time>
      </trkpt>
      <trkpt lat="49.33899" lon="-0.71977">
        <ele>72.7</ele>
        <time>2020-06-17T07:21:25Z</time>
      </trkpt>
      <trkpt lat="49.339" lon="-0.71971">
        <ele>72.8</ele>
        <time>2020-06-17T07:21:26Z</time>
      </trkpt>
      <trkpt lat="49.33901" lon="-0.71965">
        <ele>72.8</ele>
        <time>2020-06-17T07:21:27Z</time>
      </trkpt>
      <trkpt lat="49.33902" lon="-0.71959">
        <ele>72.9</ele>
        <time>2020-06-17T07:21:28Z</time>
      </trkpt>
      <trkpt lat="49.33904" lon="-0.71951">
        <ele>73</ele>
        <time>2020-06-17T07:21:29Z</time>
      </trkpt>
      <trkpt lat="49.33904" lon="-0.71942">
        <ele>73.1</ele>
        <time>2020-06-17T07:21:30Z</time>
      </trkpt>
      <trkpt lat="49.33904" lon="-0.71933">
        <ele>73.1</ele>
        <time>2020-06-17T07:21:31Z</time>
      </trkpt>
      <trkpt lat="49.33905" lon="-0.71926">
        <ele>73.2</ele>
        <time>2020-06-17T07:21:32Z</time>
      </trkpt>
      <trkpt lat="49.33905" lon="-0.71919">
        <ele>73.3</ele>
        <time>2020-06-17T07:21:33Z</time>
      </trkpt>
      <trkpt lat="49.33906" lon="-0.71912">
        <ele>73.3</ele>
        <time>2020-06-17T07:21:34Z</time>
      </trkpt>
      <trkpt lat="49.33906" lon="-0.71905">
        <ele>73.4</ele>
        <time>2020-06-17T07:21:35Z</time>
      </trkpt>
      <trkpt lat="49.33907" lon="-0.71899">
        <ele>73.4</ele>
        <time>2020-06-17T07:21:36Z</time>
      </trkpt>
      <trkpt lat="49.33909" lon="-0.71891">
        <ele>73.5</ele>
        <time>2020-06-17T07:21:37Z</time>
      </trkpt>
      <trkpt lat="49.33909" lon="-0.71884">
        <ele>73.5</ele>
        <time>2020-06-17T07:21:38Z</time>
      </trkpt>
      <trkpt lat="49.3391" lon="-0.71878">
        <ele>73.6</ele>
        <time>2020-06-17T07:21:39Z</time>
      </trkpt>
      <trkpt lat="49.3391" lon="-0.71872">
        <ele>73.7</ele>
        <time>2020-06-17T07:21:40Z</time>
      </trkpt>
      <trkpt lat="49.33911" lon="-0.71865">
        <ele>73.7</ele>
        <time>2020-06-17T07:21:41Z</time>
      </trkpt>
      <trkpt lat="49.33911" lon="-0.71859">
        <ele>73.7</ele>
        <time>2020-06-17T07:21:42Z</time>
      </trkpt>
      <trkpt lat="49.33911" lon="-0.71852">
        <ele>73.7</ele>
        <time>2020-06-17T07:21:43Z</time>
      </trkpt>
      <trkpt lat="49.33911" lon="-0.71846">
        <ele>73.8</ele>
        <time>2020-06-17T07:21:44Z</time>
      </trkpt>
      <trkpt lat="49.33911" lon="-0.71839">
        <ele>73.8</ele>
        <time>2020-06-17T07:21:45Z</time>
      </trkpt>
      <trkpt lat="49.33912" lon="-0.71832">
        <ele>73.8</ele>
        <time>2020-06-17T07:21:46Z</time>
      </trkpt>
      <trkpt lat="49.33912" lon="-0.71825">
        <ele>73.8</ele>
        <time>2020-06-17T07:21:47Z</time>
      </trkpt>
      <trkpt lat="49.33913" lon="-0.71817">
        <ele>73.8</ele>
        <time>2020-06-17T07:21:48Z</time>
      </trkpt>
      <trkpt lat="49.33915" lon="-0.7181">
        <ele>73.8</ele>
        <time>2020-06-17T07:21:49Z</time>
      </trkpt>
      <trkpt lat="49.33916" lon="-0.71801">
        <ele>73.8</ele>
        <time>2020-06-17T07:21:50Z</time>
      </trkpt>
      <trkpt lat="49.33917" lon="-0.71792">
        <ele>73.9</ele>
        <time>2020-06-17T07:21:51Z</time>
      </trkpt>
      <trkpt lat="49.33918" lon="-0.71783">
        <ele>73.9</ele>
        <time>2020-06-17T07:21:52Z</time>
      </trkpt>
      <trkpt lat="49.33918" lon="-0.71776">
        <ele>73.8</ele>
        <time>2020-06-17T07:21:53Z</time>
      </trkpt>
      <trkpt lat="49.33918" lon="-0.7177">
        <ele>73.8</ele>
        <time>2020-06-17T07:21:54Z</time>
      </trkpt>
      <trkpt lat="49.33917" lon="-0.71763">
        <ele>73.8</ele>
        <time>2020-06-17T07:21:55Z</time>
      </trkpt>
      <trkpt lat="49.33917" lon="-0.71757">
        <ele>73.8</ele>
        <time>2020-06-17T07:21:56Z</time>
      </trkpt>
      <trkpt lat="49.33916" lon="-0.71751">
        <ele>73.8</ele>
        <time>2020-06-17T07:21:57Z</time>
      </trkpt>
      <trkpt lat="49.33916" lon="-0.71745">
        <ele>73.8</ele>
        <time>2020-06-17T07:21:58Z</time>
      </trkpt>
      <trkpt lat="49.33915" lon="-0.71739">
        <ele>73.8</ele>
        <time>2020-06-17T07:21:59Z</time>
      </trkpt>
      <trkpt lat="49.33914" lon="-0.71732">
        <ele>73.8</ele>
        <time>2020-06-17T07:22:00Z</time>
      </trkpt>
      <trkpt lat="49.33912" lon="-0.71725">
        <ele>73.8</ele>
        <time>2020-06-17T07:22:01Z</time>
      </trkpt>
      <trkpt lat="49.33911" lon="-0.71719">
        <ele>73.8</ele>
        <time>2020-06-17T07:22:02Z</time>
      </trkpt>
      <trkpt lat="49.3391" lon="-0.71714">
        <ele>73.8</ele>
        <time>2020-06-17T07:22:03Z</time>
      </trkpt>
      <trkpt lat="49.33909" lon="-0.71708">
        <ele>73.8</ele>
        <time>2020-06-17T07:22:04Z</time>
      </trkpt>
      <trkpt lat="49.33907" lon="-0.71702">
        <ele>73.8</ele>
        <time>2020-06-17T07:22:05Z</time>
      </trkpt>
      <trkpt lat="49.33905" lon="-0.71695">
        <ele>73.7</ele>
        <time>2020-06-17T07:22:06Z</time>
      </trkpt>
      <trkpt lat="49.33904" lon="-0.71689">
        <ele>73.7</ele>
        <time>2020-06-17T07:22:07Z</time>
      </trkpt>
      <trkpt lat="49.33901" lon="-0.71682">
        <ele>73.6</ele>
        <time>2020-06-17T07:22:08Z</time>
      </trkpt>
      <trkpt lat="49.33899" lon="-0.71676">
        <ele>73.6</ele>
        <time>2020-06-17T07:22:09Z</time>
      </trkpt>
      <trkpt lat="49.33897" lon="-0.71669">
        <ele>73.5</ele>
        <time>2020-06-17T07:22:10Z</time>
      </trkpt>
      <trkpt lat="49.33895" lon="-0.71663">
        <ele>73.5</ele>
        <time>2020-06-17T07:22:11Z</time>
      </trkpt>
      <trkpt lat="49.33893" lon="-0.71658">
        <ele>73.4</ele>
        <time>2020-06-17T07:22:12Z</time>
      </trkpt>
      <trkpt lat="49.33892" lon="-0.71654">
        <ele>73.4</ele>
        <time>2020-06-17T07:22:13Z</time>
      </trkpt>
      <trkpt lat="49.33891" lon="-0.71652">
        <ele>73.4</ele>
        <time>2020-06-17T07:22:14Z</time>
      </trkpt>
      <trkpt lat="49.33891" lon="-0.7165">
        <ele>73.4</ele>
        <time>2020-06-17T07:22:15Z</time>
      </trkpt>
      <trkpt lat="49.33889" lon="-0.71648">
        <ele>73.4</ele>
        <time>2020-06-17T07:22:16Z</time>
      </trkpt>
      <trkpt lat="49.33889" lon="-0.71648">
        <ele>73.4</ele>
        <time>2020-06-17T07:22:17Z</time>
      </trkpt>
      <trkpt lat="49.33889" lon="-0.71648">
        <ele>73.4</ele>
        <time>2020-06-17T07:22:18Z</time>
      </trkpt>
      <trkpt lat="49.33888" lon="-0.71648">
        <ele>73.4</ele>
        <time>2020-06-17T07:22:19Z</time>
      </trkpt>
      <trkpt lat="49.33888" lon="-0.71648">
        <ele>73.4</ele>
        <time>2020-06-17T07:22:20Z</time>
      </trkpt>
      <trkpt lat="49.33888" lon="-0.71648">
        <ele>73.3</ele>
        <time>2020-06-17T07:22:21Z</time>
      </trkpt>
      <trkpt lat="49.33888" lon="-0.71648">
        <ele>73.3</ele>
        <time>2020-06-17T07:22:22Z</time>
      </trkpt>
      <trkpt lat="49.33888" lon="-0.71648">
        <ele>73.3</ele>
        <time>2020-06-17T07:22:23Z</time>
      </trkpt>
      <trkpt lat="49.33888" lon="-0.71648">
        <ele>73.3</ele>
        <time>2020-06-17T07:22:24Z</time>
      </trkpt>
      <trkpt lat="49.33887" lon="-0.71648">
        <ele>73.3</ele>
        <time>2020-06-17T07:22:25Z</time>
      </trkpt>
      <trkpt lat="49.33888" lon="-0.71648">
        <ele>73.3</ele>
        <time>2020-06-17T07:22:26Z</time>
      </trkpt>
      <trkpt lat="49.33889" lon="-0.71631">
        <ele>73.2</ele>
        <time>2020-06-17T07:23:57Z</time>
      </trkpt>
      <trkpt lat="49.33888" lon="-0.71629">
        <ele>73.2</ele>
        <time>2020-06-17T07:23:58Z</time>
      </trkpt>
      <trkpt lat="49.33885" lon="-0.71626">
        <ele>73.2</ele>
        <time>2020-06-17T07:23:59Z</time>
      </trkpt>
      <trkpt lat="49.33884" lon="-0.71624">
        <ele>73.2</ele>
        <time>2020-06-17T07:24:00Z</time>
      </trkpt>
      <trkpt lat="49.33881" lon="-0.7162">
        <ele>73.1</ele>
        <time>2020-06-17T07:24:01Z</time>
      </trkpt>
      <trkpt lat="49.3388" lon="-0.71618">
        <ele>73.1</ele>
        <time>2020-06-17T07:24:02Z</time>
      </trkpt>
      <trkpt lat="49.33878" lon="-0.71612">
        <ele>73.1</ele>
        <time>2020-06-17T07:24:03Z</time>
      </trkpt>
      <trkpt lat="49.33876" lon="-0.71607">
        <ele>73.1</ele>
        <time>2020-06-17T07:24:04Z</time>
      </trkpt>
      <trkpt lat="49.33874" lon="-0.71602">
        <ele>73</ele>
        <time>2020-06-17T07:24:05Z</time>
      </trkpt>
      <trkpt lat="49.33872" lon="-0.71597">
        <ele>73</ele>
        <time>2020-06-17T07:24:06Z</time>
      </trkpt>
      <trkpt lat="49.3387" lon="-0.71593">
        <ele>73</ele>
        <time>2020-06-17T07:24:07Z</time>
      </trkpt>
      <trkpt lat="49.33868" lon="-0.71588">
        <ele>73</ele>
        <time>2020-06-17T07:24:08Z</time>
      </trkpt>
      <trkpt lat="49.33866" lon="-0.71583">
        <ele>72.9</ele>
        <time>2020-06-17T07:24:09Z</time>
      </trkpt>
      <trkpt lat="49.33864" lon="-0.71577">
        <ele>72.9</ele>
        <time>2020-06-17T07:24:10Z</time>
      </trkpt>
      <trkpt lat="49.33862" lon="-0.71573">
        <ele>72.9</ele>
        <time>2020-06-17T07:24:11Z</time>
      </trkpt>
      <trkpt lat="49.3386" lon="-0.71568">
        <ele>72.8</ele>
        <time>2020-06-17T07:24:12Z</time>
      </trkpt>
      <trkpt lat="49.33858" lon="-0.71564">
        <ele>72.8</ele>
        <time>2020-06-17T07:24:13Z</time>
      </trkpt>
      <trkpt lat="49.33856" lon="-0.71559">
        <ele>72.8</ele>
        <time>2020-06-17T07:24:14Z</time>
      </trkpt>
      <trkpt lat="49.33855" lon="-0.71555">
        <ele>72.7</ele>
        <time>2020-06-17T07:24:15Z</time>
      </trkpt>
      <trkpt lat="49.33853" lon="-0.7155">
        <ele>72.7</ele>
        <time>2020-06-17T07:24:16Z</time>
      </trkpt>
      <trkpt lat="49.33852" lon="-0.71549">
        <ele>72.7</ele>
        <time>2020-06-17T07:24:17Z</time>
      </trkpt>
      <trkpt lat="49.33851" lon="-0.71544">
        <ele>72.6</ele>
        <time>2020-06-17T07:24:18Z</time>
      </trkpt>
      <trkpt lat="49.3385" lon="-0.71542">
        <ele>72.6</ele>
        <time>2020-06-17T07:24:19Z</time>
      </trkpt>
      <trkpt lat="49.33849" lon="-0.71539">
        <ele>72.6</ele>
        <time>2020-06-17T07:24:20Z</time>
      </trkpt>
      <trkpt lat="49.33848" lon="-0.71534">
        <ele>72.6</ele>
        <time>2020-06-17T07:24:21Z</time>
      </trkpt>
      <trkpt lat="49.33848" lon="-0.71532">
        <ele>72.6</ele>
        <time>2020-06-17T07:24:22Z</time>
      </trkpt>
      <trkpt lat="49.33846" lon="-0.71526">
        <ele>72.5</ele>
        <time>2020-06-17T07:24:23Z</time>
      </trkpt>
      <trkpt lat="49.33846" lon="-0.71524">
        <ele>72.5</ele>
        <time>2020-06-17T07:24:24Z</time>
      </trkpt>
      <trkpt lat="49.33845" lon="-0.71519">
        <ele>72.4</ele>
        <time>2020-06-17T07:24:25Z</time>
      </trkpt>
      <trkpt lat="49.33844" lon="-0.71517">
        <ele>72.4</ele>
        <time>2020-06-17T07:24:26Z</time>
      </trkpt>
      <trkpt lat="49.33842" lon="-0.71512">
        <ele>72.4</ele>
        <time>2020-06-17T07:24:27Z</time>
      </trkpt>
      <trkpt lat="49.33841" lon="-0.7151">
        <ele>72.4</ele>
        <time>2020-06-17T07:24:28Z</time>
      </trkpt>
      <trkpt lat="49.33838" lon="-0.71506">
        <ele>72.3</ele>
        <time>2020-06-17T07:24:29Z</time>
      </trkpt>
      <trkpt lat="49.33836" lon="-0.71501">
        <ele>72.2</ele>
        <time>2020-06-17T07:24:30Z</time>
      </trkpt>
      <trkpt lat="49.33834" lon="-0.71498">
        <ele>72.2</ele>
        <time>2020-06-17T07:24:31Z</time>
      </trkpt>
      <trkpt lat="49.33832" lon="-0.71493">
        <ele>72.1</ele>
        <time>2020-06-17T07:24:32Z</time>
      </trkpt>
      <trkpt lat="49.33829" lon="-0.71488">
        <ele>72</ele>
        <time>2020-06-17T07:24:33Z</time>
      </trkpt>
      <trkpt lat="49.33826" lon="-0.71483">
        <ele>71.9</ele>
        <time>2020-06-17T07:24:34Z</time>
      </trkpt>
      <trkpt lat="49.33824" lon="-0.71478">
        <ele>71.9</ele>
        <time>2020-06-17T07:24:35Z</time>
      </trkpt>
      <trkpt lat="49.33822" lon="-0.71473">
        <ele>71.8</ele>
        <time>2020-06-17T07:24:36Z</time>
      </trkpt>
      <trkpt lat="49.3382" lon="-0.71467">
        <ele>71.7</ele>
        <time>2020-06-17T07:24:37Z</time>
      </trkpt>
      <trkpt lat="49.33819" lon="-0.71462">
        <ele>71.5</ele>
        <time>2020-06-17T07:24:38Z</time>
      </trkpt>
      <trkpt lat="49.33818" lon="-0.71457">
        <ele>71.4</ele>
        <time>2020-06-17T07:24:39Z</time>
      </trkpt>
      <trkpt lat="49.33817" lon="-0.71452">
        <ele>71.3</ele>
        <time>2020-06-17T07:24:40Z</time>
      </trkpt>
      <trkpt lat="49.33815" lon="-0.71446">
        <ele>71.2</ele>
        <time>2020-06-17T07:24:41Z</time>
      </trkpt>
      <trkpt lat="49.33812" lon="-0.7144">
        <ele>71</ele>
        <time>2020-06-17T07:24:42Z</time>
      </trkpt>
      <trkpt lat="49.3381" lon="-0.71433">
        <ele>70.8</ele>
        <time>2020-06-17T07:24:43Z</time>
      </trkpt>
      <trkpt lat="49.33805" lon="-0.71428">
        <ele>70.6</ele>
        <time>2020-06-17T07:24:44Z</time>
      </trkpt>
      <trkpt lat="49.33801" lon="-0.71422">
        <ele>70.4</ele>
        <time>2020-06-17T07:24:45Z</time>
      </trkpt>
      <trkpt lat="49.33797" lon="-0.71416">
        <ele>70.2</ele>
        <time>2020-06-17T07:24:46Z</time>
      </trkpt>
      <trkpt lat="49.33794" lon="-0.7141">
        <ele>69.9</ele>
        <time>2020-06-17T07:24:47Z</time>
      </trkpt>
      <trkpt lat="49.33791" lon="-0.71402">
        <ele>69.6</ele>
        <time>2020-06-17T07:24:48Z</time>
      </trkpt>
      <trkpt lat="49.33787" lon="-0.71395">
        <ele>69.3</ele>
        <time>2020-06-17T07:24:49Z</time>
      </trkpt>
      <trkpt lat="49.33785" lon="-0.71386">
        <ele>69</ele>
        <time>2020-06-17T07:24:50Z</time>
      </trkpt>
      <trkpt lat="49.33781" lon="-0.71379">
        <ele>68.7</ele>
        <time>2020-06-17T07:24:51Z</time>
      </trkpt>
      <trkpt lat="49.33778" lon="-0.71371">
        <ele>68.5</ele>
        <time>2020-06-17T07:24:52Z</time>
      </trkpt>
      <trkpt lat="49.33774" lon="-0.71364">
        <ele>68.2</ele>
        <time>2020-06-17T07:24:53Z</time>
      </trkpt>
      <trkpt lat="49.3377" lon="-0.71356">
        <ele>67.9</ele>
        <time>2020-06-17T07:24:54Z</time>
      </trkpt>
      <trkpt lat="49.33765" lon="-0.71349">
        <ele>67.6</ele>
        <time>2020-06-17T07:24:55Z</time>
      </trkpt>
      <trkpt lat="49.3376" lon="-0.71341">
        <ele>67.3</ele>
        <time>2020-06-17T07:24:56Z</time>
      </trkpt>
      <trkpt lat="49.33755" lon="-0.71332">
        <ele>67</ele>
        <time>2020-06-17T07:24:57Z</time>
      </trkpt>
      <trkpt lat="49.3375" lon="-0.71324">
        <ele>66.7</ele>
        <time>2020-06-17T07:24:58Z</time>
      </trkpt>
      <trkpt lat="49.33747" lon="-0.71314">
        <ele>66.4</ele>
        <time>2020-06-17T07:24:59Z</time>
      </trkpt>
      <trkpt lat="49.33743" lon="-0.71305">
        <ele>66.1</ele>
        <time>2020-06-17T07:25:00Z</time>
      </trkpt>
      <trkpt lat="49.3374" lon="-0.71296">
        <ele>65.9</ele>
        <time>2020-06-17T07:25:01Z</time>
      </trkpt>
      <trkpt lat="49.33737" lon="-0.71287">
        <ele>65.6</ele>
        <time>2020-06-17T07:25:02Z</time>
      </trkpt>
      <trkpt lat="49.33734" lon="-0.71278">
        <ele>65.4</ele>
        <time>2020-06-17T07:25:03Z</time>
      </trkpt>
      <trkpt lat="49.33732" lon="-0.71267">
        <ele>65</ele>
        <time>2020-06-17T07:25:04Z</time>
      </trkpt>
      <trkpt lat="49.33731" lon="-0.71256">
        <ele>64.6</ele>
        <time>2020-06-17T07:25:05Z</time>
      </trkpt>
      <trkpt lat="49.33729" lon="-0.71245">
        <ele>64.3</ele>
        <time>2020-06-17T07:25:06Z</time>
      </trkpt>
      <trkpt lat="49.33727" lon="-0.71235">
        <ele>64</ele>
        <time>2020-06-17T07:25:07Z</time>
      </trkpt>
      <trkpt lat="49.33726" lon="-0.71225">
        <ele>63.7</ele>
        <time>2020-06-17T07:25:08Z</time>
      </trkpt>
      <trkpt lat="49.33725" lon="-0.71215">
        <ele>63.5</ele>
        <time>2020-06-17T07:25:09Z</time>
      </trkpt>
      <trkpt lat="49.33723" lon="-0.71205">
        <ele>63.2</ele>
        <time>2020-06-17T07:25:10Z</time>
      </trkpt>
      <trkpt lat="49.33721" lon="-0.71195">
        <ele>62.9</ele>
        <time>2020-06-17T07:25:11Z</time>
      </trkpt>
      <trkpt lat="49.33718" lon="-0.71183">
        <ele>62.6</ele>
        <time>2020-06-17T07:25:12Z</time>
      </trkpt>
      <trkpt lat="49.33716" lon="-0.71173">
        <ele>62.3</ele>
        <time>2020-06-17T07:25:13Z</time>
      </trkpt>
      <trkpt lat="49.33714" lon="-0.71162">
        <ele>62.1</ele>
        <time>2020-06-17T07:25:14Z</time>
      </trkpt>
      <trkpt lat="49.33712" lon="-0.71151">
        <ele>61.8</ele>
        <time>2020-06-17T07:25:15Z</time>
      </trkpt>
      <trkpt lat="49.3371" lon="-0.71141">
        <ele>61.6</ele>
        <time>2020-06-17T07:25:16Z</time>
      </trkpt>
      <trkpt lat="49.33707" lon="-0.71131">
        <ele>61.4</ele>
        <time>2020-06-17T07:25:17Z</time>
      </trkpt>
      <trkpt lat="49.33704" lon="-0.71122">
        <ele>61.2</ele>
        <time>2020-06-17T07:25:18Z</time>
      </trkpt>
      <trkpt lat="49.337" lon="-0.71112">
        <ele>60.9</ele>
        <time>2020-06-17T07:25:19Z</time>
      </trkpt>
      <trkpt lat="49.33697" lon="-0.71101">
        <ele>60.7</ele>
        <time>2020-06-17T07:25:20Z</time>
      </trkpt>
      <trkpt lat="49.33693" lon="-0.71091">
        <ele>60.4</ele>
        <time>2020-06-17T07:25:21Z</time>
      </trkpt>
      <trkpt lat="49.33689" lon="-0.71081">
        <ele>60.3</ele>
        <time>2020-06-17T07:25:22Z</time>
      </trkpt>
      <trkpt lat="49.33686" lon="-0.7107">
        <ele>60.1</ele>
        <time>2020-06-17T07:25:23Z</time>
      </trkpt>
      <trkpt lat="49.33682" lon="-0.71061">
        <ele>59.9</ele>
        <time>2020-06-17T07:25:24Z</time>
      </trkpt>
      <trkpt lat="49.33679" lon="-0.71051">
        <ele>59.8</ele>
        <time>2020-06-17T07:25:25Z</time>
      </trkpt>
      <trkpt lat="49.33677" lon="-0.71042">
        <ele>59.6</ele>
        <time>2020-06-17T07:25:26Z</time>
      </trkpt>
      <trkpt lat="49.33674" lon="-0.71032">
        <ele>59.4</ele>
        <time>2020-06-17T07:25:27Z</time>
      </trkpt>
      <trkpt lat="49.33671" lon="-0.71022">
        <ele>59.1</ele>
        <time>2020-06-17T07:25:28Z</time>
      </trkpt>
      <trkpt lat="49.33668" lon="-0.71012">
        <ele>58.9</ele>
        <time>2020-06-17T07:25:29Z</time>
      </trkpt>
      <trkpt lat="49.33665" lon="-0.71005">
        <ele>58.7</ele>
        <time>2020-06-17T07:25:30Z</time>
      </trkpt>
      <trkpt lat="49.33661" lon="-0.70998">
        <ele>58.6</ele>
        <time>2020-06-17T07:25:31Z</time>
      </trkpt>
      <trkpt lat="49.33658" lon="-0.70993">
        <ele>58.4</ele>
        <time>2020-06-17T07:25:32Z</time>
      </trkpt>
      <trkpt lat="49.33655" lon="-0.70988">
        <ele>58.3</ele>
        <time>2020-06-17T07:25:33Z</time>
      </trkpt>
      <trkpt lat="49.33653" lon="-0.70984">
        <ele>58.2</ele>
        <time>2020-06-17T07:25:34Z</time>
      </trkpt>
      <trkpt lat="49.3365" lon="-0.70979">
        <ele>58.1</ele>
        <time>2020-06-17T07:25:35Z</time>
      </trkpt>
      <trkpt lat="49.33649" lon="-0.70977">
        <ele>58</ele>
        <time>2020-06-17T07:25:36Z</time>
      </trkpt>
      <trkpt lat="49.33647" lon="-0.70972">
        <ele>57.9</ele>
        <time>2020-06-17T07:25:37Z</time>
      </trkpt>
      <trkpt lat="49.33645" lon="-0.70966">
        <ele>57.7</ele>
        <time>2020-06-17T07:25:38Z</time>
      </trkpt>
      <trkpt lat="49.33643" lon="-0.70962">
        <ele>57.6</ele>
        <time>2020-06-17T07:25:39Z</time>
      </trkpt>
      <trkpt lat="49.3364" lon="-0.70955">
        <ele>57.4</ele>
        <time>2020-06-17T07:25:40Z</time>
      </trkpt>
      <trkpt lat="49.33638" lon="-0.70949">
        <ele>57.2</ele>
        <time>2020-06-17T07:25:41Z</time>
      </trkpt>
      <trkpt lat="49.33636" lon="-0.70941">
        <ele>56.9</ele>
        <time>2020-06-17T07:25:42Z</time>
      </trkpt>
      <trkpt lat="49.33633" lon="-0.70934">
        <ele>56.7</ele>
        <time>2020-06-17T07:25:43Z</time>
      </trkpt>
      <trkpt lat="49.33631" lon="-0.70927">
        <ele>56.5</ele>
        <time>2020-06-17T07:25:44Z</time>
      </trkpt>
      <trkpt lat="49.33629" lon="-0.70921">
        <ele>56.4</ele>
        <time>2020-06-17T07:25:45Z</time>
      </trkpt>
      <trkpt lat="49.33627" lon="-0.70915">
        <ele>56.2</ele>
        <time>2020-06-17T07:25:46Z</time>
      </trkpt>
      <trkpt lat="49.33626" lon="-0.70909">
        <ele>56.1</ele>
        <time>2020-06-17T07:25:47Z</time>
      </trkpt>
      <trkpt lat="49.33624" lon="-0.70905">
        <ele>55.9</ele>
        <time>2020-06-17T07:25:48Z</time>
      </trkpt>
      <trkpt lat="49.33623" lon="-0.70898">
        <ele>55.8</ele>
        <time>2020-06-17T07:25:49Z</time>
      </trkpt>
      <trkpt lat="49.33622" lon="-0.70893">
        <ele>55.6</ele>
        <time>2020-06-17T07:25:50Z</time>
      </trkpt>
      <trkpt lat="49.33621" lon="-0.70888">
        <ele>55.5</ele>
        <time>2020-06-17T07:25:51Z</time>
      </trkpt>
      <trkpt lat="49.3362" lon="-0.70882">
        <ele>55.3</ele>
        <time>2020-06-17T07:25:52Z</time>
      </trkpt>
      <trkpt lat="49.33618" lon="-0.70874">
        <ele>55.1</ele>
        <time>2020-06-17T07:25:53Z</time>
      </trkpt>
      <trkpt lat="49.33617" lon="-0.70867">
        <ele>54.9</ele>
        <time>2020-06-17T07:25:54Z</time>
      </trkpt>
      <trkpt lat="49.33616" lon="-0.7086">
        <ele>54.7</ele>
        <time>2020-06-17T07:25:55Z</time>
      </trkpt>
      <trkpt lat="49.33614" lon="-0.70853">
        <ele>54.5</ele>
        <time>2020-06-17T07:25:56Z</time>
      </trkpt>
      <trkpt lat="49.33612" lon="-0.70845">
        <ele>54.3</ele>
        <time>2020-06-17T07:25:57Z</time>
      </trkpt>
      <trkpt lat="49.3361" lon="-0.70838">
        <ele>54</ele>
        <time>2020-06-17T07:25:58Z</time>
      </trkpt>
      <trkpt lat="49.33607" lon="-0.70831">
        <ele>53.8</ele>
        <time>2020-06-17T07:25:59Z</time>
      </trkpt>
      <trkpt lat="49.33604" lon="-0.70822">
        <ele>53.5</ele>
        <time>2020-06-17T07:26:00Z</time>
      </trkpt>
      <trkpt lat="49.33599" lon="-0.70813">
        <ele>53.2</ele>
        <time>2020-06-17T07:26:01Z</time>
      </trkpt>
      <trkpt lat="49.33595" lon="-0.70804">
        <ele>53</ele>
        <time>2020-06-17T07:26:02Z</time>
      </trkpt>
      <trkpt lat="49.33592" lon="-0.70794">
        <ele>52.7</ele>
        <time>2020-06-17T07:26:03Z</time>
      </trkpt>
      <trkpt lat="49.33587" lon="-0.70784">
        <ele>52.5</ele>
        <time>2020-06-17T07:26:04Z</time>
      </trkpt>
      <trkpt lat="49.33583" lon="-0.70774">
        <ele>52.3</ele>
        <time>2020-06-17T07:26:05Z</time>
      </trkpt>
      <trkpt lat="49.33579" lon="-0.70766">
        <ele>52.2</ele>
        <time>2020-06-17T07:26:06Z</time>
      </trkpt>
      <trkpt lat="49.33575" lon="-0.70756">
        <ele>52.1</ele>
        <time>2020-06-17T07:26:07Z</time>
      </trkpt>
      <trkpt lat="49.33572" lon="-0.70746">
        <ele>52</ele>
        <time>2020-06-17T07:26:08Z</time>
      </trkpt>
      <trkpt lat="49.33567" lon="-0.70735">
        <ele>52</ele>
        <time>2020-06-17T07:26:09Z</time>
      </trkpt>
      <trkpt lat="49.33562" lon="-0.70724">
        <ele>52</ele>
        <time>2020-06-17T07:26:10Z</time>
      </trkpt>
      <trkpt lat="49.33557" lon="-0.70713">
        <ele>52</ele>
        <time>2020-06-17T07:26:11Z</time>
      </trkpt>
      <trkpt lat="49.33553" lon="-0.70703">
        <ele>52.1</ele>
        <time>2020-06-17T07:26:12Z</time>
      </trkpt>
      <trkpt lat="49.3355" lon="-0.70697">
        <ele>52.2</ele>
        <time>2020-06-17T07:26:13Z</time>
      </trkpt>
      <trkpt lat="49.33546" lon="-0.70691">
        <ele>52.3</ele>
        <time>2020-06-17T07:26:14Z</time>
      </trkpt>
      <trkpt lat="49.33543" lon="-0.70684">
        <ele>52.4</ele>
        <time>2020-06-17T07:26:15Z</time>
      </trkpt>
      <trkpt lat="49.3354" lon="-0.70676">
        <ele>52.6</ele>
        <time>2020-06-17T07:26:16Z</time>
      </trkpt>
      <trkpt lat="49.33538" lon="-0.7067">
        <ele>52.7</ele>
        <time>2020-06-17T07:26:17Z</time>
      </trkpt>
      <trkpt lat="49.33535" lon="-0.70662">
        <ele>52.9</ele>
        <time>2020-06-17T07:26:18Z</time>
      </trkpt>
      <trkpt lat="49.33533" lon="-0.70655">
        <ele>53.1</ele>
        <time>2020-06-17T07:26:19Z</time>
      </trkpt>
      <trkpt lat="49.33531" lon="-0.70648">
        <ele>53.3</ele>
        <time>2020-06-17T07:26:20Z</time>
      </trkpt>
      <trkpt lat="49.33529" lon="-0.70641">
        <ele>53.5</ele>
        <time>2020-06-17T07:26:21Z</time>
      </trkpt>
      <trkpt lat="49.33528" lon="-0.70632">
        <ele>53.8</ele>
        <time>2020-06-17T07:26:22Z</time>
      </trkpt>
      <trkpt lat="49.33527" lon="-0.70625">
        <ele>53.9</ele>
        <time>2020-06-17T07:26:23Z</time>
      </trkpt>
      <trkpt lat="49.33526" lon="-0.70615">
        <ele>54.1</ele>
        <time>2020-06-17T07:26:24Z</time>
      </trkpt>
      <trkpt lat="49.33526" lon="-0.70605">
        <ele>54.4</ele>
        <time>2020-06-17T07:26:25Z</time>
      </trkpt>
      <trkpt lat="49.33525" lon="-0.70596">
        <ele>54.6</ele>
        <time>2020-06-17T07:26:26Z</time>
      </trkpt>
      <trkpt lat="49.33524" lon="-0.70588">
        <ele>54.8</ele>
        <time>2020-06-17T07:26:27Z</time>
      </trkpt>
      <trkpt lat="49.33523" lon="-0.7058">
        <ele>54.9</ele>
        <time>2020-06-17T07:26:28Z</time>
      </trkpt>
      <trkpt lat="49.33523" lon="-0.70573">
        <ele>55</ele>
        <time>2020-06-17T07:26:29Z</time>
      </trkpt>
      <trkpt lat="49.33522" lon="-0.70566">
        <ele>55.2</ele>
        <time>2020-06-17T07:26:30Z</time>
      </trkpt>
      <trkpt lat="49.3352" lon="-0.70559">
        <ele>55.3</ele>
        <time>2020-06-17T07:26:31Z</time>
      </trkpt>
      <trkpt lat="49.33519" lon="-0.70552">
        <ele>55.4</ele>
        <time>2020-06-17T07:26:32Z</time>
      </trkpt>
      <trkpt lat="49.33518" lon="-0.70545">
        <ele>55.5</ele>
        <time>2020-06-17T07:26:33Z</time>
      </trkpt>
      <trkpt lat="49.33517" lon="-0.70539">
        <ele>55.6</ele>
        <time>2020-06-17T07:26:34Z</time>
      </trkpt>
      <trkpt lat="49.33516" lon="-0.70531">
        <ele>55.7</ele>
        <time>2020-06-17T07:26:35Z</time>
      </trkpt>
      <trkpt lat="49.33515" lon="-0.70522">
        <ele>55.8</ele>
        <time>2020-06-17T07:26:36Z</time>
      </trkpt>
      <trkpt lat="49.33513" lon="-0.70515">
        <ele>55.9</ele>
        <time>2020-06-17T07:26:37Z</time>
      </trkpt>
      <trkpt lat="49.33512" lon="-0.70507">
        <ele>55.9</ele>
        <time>2020-06-17T07:26:38Z</time>
      </trkpt>
      <trkpt lat="49.33511" lon="-0.705">
        <ele>56</ele>
        <time>2020-06-17T07:26:39Z</time>
      </trkpt>
      <trkpt lat="49.33511" lon="-0.70494">
        <ele>56</ele>
        <time>2020-06-17T07:26:40Z</time>
      </trkpt>
      <trkpt lat="49.3351" lon="-0.70488">
        <ele>56.1</ele>
        <time>2020-06-17T07:26:41Z</time>
      </trkpt>
      <trkpt lat="49.3351" lon="-0.70482">
        <ele>56.1</ele>
        <time>2020-06-17T07:26:42Z</time>
      </trkpt>
      <trkpt lat="49.3351" lon="-0.70475">
        <ele>56.2</ele>
        <time>2020-06-17T07:26:43Z</time>
      </trkpt>
      <trkpt lat="49.3351" lon="-0.70467">
        <ele>56.2</ele>
        <time>2020-06-17T07:26:44Z</time>
      </trkpt>
      <trkpt lat="49.3351" lon="-0.70458">
        <ele>56.3</ele>
        <time>2020-06-17T07:26:45Z</time>
      </trkpt>
      <trkpt lat="49.3351" lon="-0.70449">
        <ele>56.3</ele>
        <time>2020-06-17T07:26:46Z</time>
      </trkpt>
      <trkpt lat="49.33509" lon="-0.7044">
        <ele>56.3</ele>
        <time>2020-06-17T07:26:47Z</time>
      </trkpt>
      <trkpt lat="49.33507" lon="-0.70429">
        <ele>56.3</ele>
        <time>2020-06-17T07:26:48Z</time>
      </trkpt>
      <trkpt lat="49.33506" lon="-0.70417">
        <ele>56.3</ele>
        <time>2020-06-17T07:26:49Z</time>
      </trkpt>
      <trkpt lat="49.33505" lon="-0.70407">
        <ele>56.3</ele>
        <time>2020-06-17T07:26:50Z</time>
      </trkpt>
      <trkpt lat="49.33504" lon="-0.70399">
        <ele>56.3</ele>
        <time>2020-06-17T07:26:51Z</time>
      </trkpt>
      <trkpt lat="49.33503" lon="-0.7039">
        <ele>56.3</ele>
        <time>2020-06-17T07:26:52Z</time>
      </trkpt>
      <trkpt lat="49.33502" lon="-0.7038">
        <ele>56.3</ele>
        <time>2020-06-17T07:26:53Z</time>
      </trkpt>
      <trkpt lat="49.33501" lon="-0.70369">
        <ele>56.4</ele>
        <time>2020-06-17T07:26:54Z</time>
      </trkpt>
      <trkpt lat="49.33501" lon="-0.70361">
        <ele>56.4</ele>
        <time>2020-06-17T07:26:55Z</time>
      </trkpt>
      <trkpt lat="49.33501" lon="-0.70353">
        <ele>56.4</ele>
        <time>2020-06-17T07:26:56Z</time>
      </trkpt>
      <trkpt lat="49.33502" lon="-0.70344">
        <ele>56.4</ele>
        <time>2020-06-17T07:26:57Z</time>
      </trkpt>
      <trkpt lat="49.33502" lon="-0.70336">
        <ele>56.4</ele>
        <time>2020-06-17T07:26:58Z</time>
      </trkpt>
      <trkpt lat="49.33502" lon="-0.70327">
        <ele>56.4</ele>
        <time>2020-06-17T07:26:59Z</time>
      </trkpt>
      <trkpt lat="49.33503" lon="-0.70316">
        <ele>56.3</ele>
        <time>2020-06-17T07:27:00Z</time>
      </trkpt>
      <trkpt lat="49.33504" lon="-0.70305">
        <ele>56.3</ele>
        <time>2020-06-17T07:27:01Z</time>
      </trkpt>
      <trkpt lat="49.33504" lon="-0.70294">
        <ele>56.3</ele>
        <time>2020-06-17T07:27:02Z</time>
      </trkpt>
      <trkpt lat="49.33504" lon="-0.70283">
        <ele>56.3</ele>
        <time>2020-06-17T07:27:03Z</time>
      </trkpt>
      <trkpt lat="49.33504" lon="-0.70271">
        <ele>56.3</ele>
        <time>2020-06-17T07:27:04Z</time>
      </trkpt>
      <trkpt lat="49.33505" lon="-0.70261">
        <ele>56.3</ele>
        <time>2020-06-17T07:27:05Z</time>
      </trkpt>
      <trkpt lat="49.33506" lon="-0.70252">
        <ele>56.2</ele>
        <time>2020-06-17T07:27:06Z</time>
      </trkpt>
      <trkpt lat="49.33507" lon="-0.70243">
        <ele>56.2</ele>
        <time>2020-06-17T07:27:07Z</time>
      </trkpt>
      <trkpt lat="49.33508" lon="-0.70235">
        <ele>56.2</ele>
        <time>2020-06-17T07:27:08Z</time>
      </trkpt>
      <trkpt lat="49.33509" lon="-0.70229">
        <ele>56.2</ele>
        <time>2020-06-17T07:27:09Z</time>
      </trkpt>
      <trkpt lat="49.3351" lon="-0.70221">
        <ele>56.2</ele>
        <time>2020-06-17T07:27:10Z</time>
      </trkpt>
      <trkpt lat="49.33512" lon="-0.70213">
        <ele>56.2</ele>
        <time>2020-06-17T07:27:11Z</time>
      </trkpt>
      <trkpt lat="49.33514" lon="-0.70204">
        <ele>56.1</ele>
        <time>2020-06-17T07:27:12Z</time>
      </trkpt>
      <trkpt lat="49.33516" lon="-0.70195">
        <ele>56.1</ele>
        <time>2020-06-17T07:27:13Z</time>
      </trkpt>
      <trkpt lat="49.33517" lon="-0.70188">
        <ele>56.1</ele>
        <time>2020-06-17T07:27:14Z</time>
      </trkpt>
      <trkpt lat="49.33519" lon="-0.7018">
        <ele>56.1</ele>
        <time>2020-06-17T07:27:15Z</time>
      </trkpt>
      <trkpt lat="49.3352" lon="-0.70171">
        <ele>56.2</ele>
        <time>2020-06-17T07:27:16Z</time>
      </trkpt>
      <trkpt lat="49.33522" lon="-0.70162">
        <ele>56.2</ele>
        <time>2020-06-17T07:27:17Z</time>
      </trkpt>
      <trkpt lat="49.33525" lon="-0.70152">
        <ele>56.3</ele>
        <time>2020-06-17T07:27:18Z</time>
      </trkpt>
      <trkpt lat="49.33527" lon="-0.70142">
        <ele>56.4</ele>
        <time>2020-06-17T07:27:19Z</time>
      </trkpt>
      <trkpt lat="49.3353" lon="-0.70131">
        <ele>56.3</ele>
        <time>2020-06-17T07:27:20Z</time>
      </trkpt>
      <trkpt lat="49.33532" lon="-0.70121">
        <ele>56.2</ele>
        <time>2020-06-17T07:27:21Z</time>
      </trkpt>
      <trkpt lat="49.33534" lon="-0.7011">
        <ele>56.2</ele>
        <time>2020-06-17T07:27:22Z</time>
      </trkpt>
      <trkpt lat="49.33536" lon="-0.70099">
        <ele>56.1</ele>
        <time>2020-06-17T07:27:23Z</time>
      </trkpt>
      <trkpt lat="49.33538" lon="-0.70089">
        <ele>56.1</ele>
        <time>2020-06-17T07:27:24Z</time>
      </trkpt>
      <trkpt lat="49.33541" lon="-0.70079">
        <ele>56.1</ele>
        <time>2020-06-17T07:27:25Z</time>
      </trkpt>
      <trkpt lat="49.33543" lon="-0.70069">
        <ele>56</ele>
        <time>2020-06-17T07:27:26Z</time>
      </trkpt>
      <trkpt lat="49.33545" lon="-0.70061">
        <ele>56</ele>
        <time>2020-06-17T07:27:27Z</time>
      </trkpt>
      <trkpt lat="49.33547" lon="-0.70053">
        <ele>56</ele>
        <time>2020-06-17T07:27:28Z</time>
      </trkpt>
      <trkpt lat="49.33549" lon="-0.70045">
        <ele>56</ele>
        <time>2020-06-17T07:27:29Z</time>
      </trkpt>
      <trkpt lat="49.33551" lon="-0.70038">
        <ele>55.9</ele>
        <time>2020-06-17T07:27:30Z</time>
      </trkpt>
      <trkpt lat="49.33552" lon="-0.7003">
        <ele>55.9</ele>
        <time>2020-06-17T07:27:31Z</time>
      </trkpt>
      <trkpt lat="49.33553" lon="-0.70022">
        <ele>55.8</ele>
        <time>2020-06-17T07:27:32Z</time>
      </trkpt>
      <trkpt lat="49.33555" lon="-0.70013">
        <ele>55.8</ele>
        <time>2020-06-17T07:27:33Z</time>
      </trkpt>
      <trkpt lat="49.33556" lon="-0.70005">
        <ele>55.7</ele>
        <time>2020-06-17T07:27:34Z</time>
      </trkpt>
      <trkpt lat="49.33557" lon="-0.69995">
        <ele>55.7</ele>
        <time>2020-06-17T07:27:35Z</time>
      </trkpt>
      <trkpt lat="49.33559" lon="-0.69985">
        <ele>55.5</ele>
        <time>2020-06-17T07:27:36Z</time>
      </trkpt>
      <trkpt lat="49.33561" lon="-0.69974">
        <ele>55.4</ele>
        <time>2020-06-17T07:27:37Z</time>
      </trkpt>
      <trkpt lat="49.33563" lon="-0.69964">
        <ele>55.2</ele>
        <time>2020-06-17T07:27:38Z</time>
      </trkpt>
      <trkpt lat="49.33564" lon="-0.69955">
        <ele>55.1</ele>
        <time>2020-06-17T07:27:39Z</time>
      </trkpt>
      <trkpt lat="49.33566" lon="-0.69946">
        <ele>55</ele>
        <time>2020-06-17T07:27:40Z</time>
      </trkpt>
      <trkpt lat="49.33567" lon="-0.69937">
        <ele>54.9</ele>
        <time>2020-06-17T07:27:41Z</time>
      </trkpt>
      <trkpt lat="49.33568" lon="-0.69928">
        <ele>54.7</ele>
        <time>2020-06-17T07:27:42Z</time>
      </trkpt>
      <trkpt lat="49.33569" lon="-0.6992">
        <ele>54.6</ele>
        <time>2020-06-17T07:27:43Z</time>
      </trkpt>
      <trkpt lat="49.33571" lon="-0.69911">
        <ele>54.4</ele>
        <time>2020-06-17T07:27:44Z</time>
      </trkpt>
      <trkpt lat="49.33573" lon="-0.69902">
        <ele>54.3</ele>
        <time>2020-06-17T07:27:45Z</time>
      </trkpt>
      <trkpt lat="49.33575" lon="-0.69893">
        <ele>54.1</ele>
        <time>2020-06-17T07:27:46Z</time>
      </trkpt>
      <trkpt lat="49.33577" lon="-0.69884">
        <ele>53.9</ele>
        <time>2020-06-17T07:27:47Z</time>
      </trkpt>
      <trkpt lat="49.33579" lon="-0.69874">
        <ele>53.8</ele>
        <time>2020-06-17T07:27:48Z</time>
      </trkpt>
      <trkpt lat="49.33581" lon="-0.69864">
        <ele>53.6</ele>
        <time>2020-06-17T07:27:49Z</time>
      </trkpt>
      <trkpt lat="49.33583" lon="-0.69854">
        <ele>53.4</ele>
        <time>2020-06-17T07:27:50Z</time>
      </trkpt>
      <trkpt lat="49.33584" lon="-0.69843">
        <ele>53.2</ele>
        <time>2020-06-17T07:27:51Z</time>
      </trkpt>
      <trkpt lat="49.33586" lon="-0.69833">
        <ele>53</ele>
        <time>2020-06-17T07:27:52Z</time>
      </trkpt>
      <trkpt lat="49.33588" lon="-0.6982">
        <ele>52.7</ele>
        <time>2020-06-17T07:27:53Z</time>
      </trkpt>
      <trkpt lat="49.3359" lon="-0.69809">
        <ele>52.5</ele>
        <time>2020-06-17T07:27:54Z</time>
      </trkpt>
      <trkpt lat="49.33593" lon="-0.69798">
        <ele>52.3</ele>
        <time>2020-06-17T07:27:55Z</time>
      </trkpt>
      <trkpt lat="49.33595" lon="-0.69786">
        <ele>52.1</ele>
        <time>2020-06-17T07:27:56Z</time>
      </trkpt>
      <trkpt lat="49.33597" lon="-0.69775">
        <ele>51.9</ele>
        <time>2020-06-17T07:27:57Z</time>
      </trkpt>
      <trkpt lat="49.33599" lon="-0.69763">
        <ele>51.8</ele>
        <time>2020-06-17T07:27:58Z</time>
      </trkpt>
      <trkpt lat="49.33599" lon="-0.69753">
        <ele>51.6</ele>
        <time>2020-06-17T07:27:59Z</time>
      </trkpt>
      <trkpt lat="49.336" lon="-0.69743">
        <ele>51.6</ele>
        <time>2020-06-17T07:28:00Z</time>
      </trkpt>
      <trkpt lat="49.33601" lon="-0.69734">
        <ele>51.6</ele>
        <time>2020-06-17T07:28:01Z</time>
      </trkpt>
      <trkpt lat="49.336" lon="-0.69723">
        <ele>51.7</ele>
        <time>2020-06-17T07:28:02Z</time>
      </trkpt>
      <trkpt lat="49.33598" lon="-0.69712">
        <ele>51.7</ele>
        <time>2020-06-17T07:28:03Z</time>
      </trkpt>
      <trkpt lat="49.33598" lon="-0.69702">
        <ele>51.7</ele>
        <time>2020-06-17T07:28:04Z</time>
      </trkpt>
      <trkpt lat="49.33596" lon="-0.69693">
        <ele>51.7</ele>
        <time>2020-06-17T07:28:05Z</time>
      </trkpt>
      <trkpt lat="49.33594" lon="-0.69683">
        <ele>51.6</ele>
        <time>2020-06-17T07:28:06Z</time>
      </trkpt>
      <trkpt lat="49.33593" lon="-0.69674">
        <ele>51.6</ele>
        <time>2020-06-17T07:28:07Z</time>
      </trkpt>
      <trkpt lat="49.3359" lon="-0.69665">
        <ele>51.6</ele>
        <time>2020-06-17T07:28:08Z</time>
      </trkpt>
      <trkpt lat="49.33589" lon="-0.69658">
        <ele>51.6</ele>
        <time>2020-06-17T07:28:09Z</time>
      </trkpt>
      <trkpt lat="49.33587" lon="-0.69651">
        <ele>51.6</ele>
        <time>2020-06-17T07:28:10Z</time>
      </trkpt>
      <trkpt lat="49.33583" lon="-0.69645">
        <ele>51.8</ele>
        <time>2020-06-17T07:28:11Z</time>
      </trkpt>
      <trkpt lat="49.33579" lon="-0.69637">
        <ele>52</ele>
        <time>2020-06-17T07:28:12Z</time>
      </trkpt>
      <trkpt lat="49.33578" lon="-0.6963">
        <ele>52.1</ele>
        <time>2020-06-17T07:28:13Z</time>
      </trkpt>
      <trkpt lat="49.33576" lon="-0.69622">
        <ele>52.3</ele>
        <time>2020-06-17T07:28:14Z</time>
      </trkpt>
      <trkpt lat="49.33574" lon="-0.69615">
        <ele>52.5</ele>
        <time>2020-06-17T07:28:15Z</time>
      </trkpt>
      <trkpt lat="49.33572" lon="-0.69608">
        <ele>52.7</ele>
        <time>2020-06-17T07:28:16Z</time>
      </trkpt>
      <trkpt lat="49.33571" lon="-0.69602">
        <ele>52.9</ele>
        <time>2020-06-17T07:28:17Z</time>
      </trkpt>
      <trkpt lat="49.33569" lon="-0.69596">
        <ele>53</ele>
        <time>2020-06-17T07:28:18Z</time>
      </trkpt>
      <trkpt lat="49.33568" lon="-0.69589">
        <ele>53.2</ele>
        <time>2020-06-17T07:28:19Z</time>
      </trkpt>
      <trkpt lat="49.33567" lon="-0.69584">
        <ele>53.3</ele>
        <time>2020-06-17T07:28:20Z</time>
      </trkpt>
      <trkpt lat="49.33567" lon="-0.69579">
        <ele>53.4</ele>
        <time>2020-06-17T07:28:21Z</time>
      </trkpt>
      <trkpt lat="49.33566" lon="-0.69574">
        <ele>53.5</ele>
        <time>2020-06-17T07:28:22Z</time>
      </trkpt>
      <trkpt lat="49.33566" lon="-0.69569">
        <ele>53.7</ele>
        <time>2020-06-17T07:28:23Z</time>
      </trkpt>
      <trkpt lat="49.33566" lon="-0.69564">
        <ele>53.8</ele>
        <time>2020-06-17T07:28:24Z</time>
      </trkpt>
      <trkpt lat="49.33567" lon="-0.69559">
        <ele>53.9</ele>
        <time>2020-06-17T07:28:25Z</time>
      </trkpt>
      <trkpt lat="49.33567" lon="-0.69554">
        <ele>54</ele>
        <time>2020-06-17T07:28:26Z</time>
      </trkpt>
      <trkpt lat="49.33567" lon="-0.69549">
        <ele>54.1</ele>
        <time>2020-06-17T07:28:27Z</time>
      </trkpt>
      <trkpt lat="49.33566" lon="-0.69543">
        <ele>54.3</ele>
        <time>2020-06-17T07:28:28Z</time>
      </trkpt>
      <trkpt lat="49.33566" lon="-0.69536">
        <ele>54.4</ele>
        <time>2020-06-17T07:28:29Z</time>
      </trkpt>
      <trkpt lat="49.33565" lon="-0.69528">
        <ele>54.6</ele>
        <time>2020-06-17T07:28:30Z</time>
      </trkpt>
      <trkpt lat="49.33564" lon="-0.69521">
        <ele>54.8</ele>
        <time>2020-06-17T07:28:31Z</time>
      </trkpt>
      <trkpt lat="49.33562" lon="-0.69514">
        <ele>54.9</ele>
        <time>2020-06-17T07:28:32Z</time>
      </trkpt>
      <trkpt lat="49.33559" lon="-0.69509">
        <ele>55</ele>
        <time>2020-06-17T07:28:33Z</time>
      </trkpt>
      <trkpt lat="49.3356" lon="-0.69503">
        <ele>55.1</ele>
        <time>2020-06-17T07:28:34Z</time>
      </trkpt>
      <trkpt lat="49.3356" lon="-0.69497">
        <ele>55.2</ele>
        <time>2020-06-17T07:28:35Z</time>
      </trkpt>
      <trkpt lat="49.3356" lon="-0.69491">
        <ele>55.3</ele>
        <time>2020-06-17T07:28:36Z</time>
      </trkpt>
      <trkpt lat="49.3356" lon="-0.69485">
        <ele>55.4</ele>
        <time>2020-06-17T07:28:37Z</time>
      </trkpt>
      <trkpt lat="49.33559" lon="-0.69477">
        <ele>55.5</ele>
        <time>2020-06-17T07:28:38Z</time>
      </trkpt>
      <trkpt lat="49.33558" lon="-0.69471">
        <ele>55.6</ele>
        <time>2020-06-17T07:28:39Z</time>
      </trkpt>
      <trkpt lat="49.33557" lon="-0.69465">
        <ele>55.6</ele>
        <time>2020-06-17T07:28:40Z</time>
      </trkpt>
      <trkpt lat="49.33557" lon="-0.6946">
        <ele>55.7</ele>
        <time>2020-06-17T07:28:41Z</time>
      </trkpt>
      <trkpt lat="49.33557" lon="-0.69454">
        <ele>55.7</ele>
        <time>2020-06-17T07:28:42Z</time>
      </trkpt>
      <trkpt lat="49.33556" lon="-0.69447">
        <ele>55.8</ele>
        <time>2020-06-17T07:28:43Z</time>
      </trkpt>
      <trkpt lat="49.33554" lon="-0.69441">
        <ele>55.8</ele>
        <time>2020-06-17T07:28:44Z</time>
      </trkpt>
      <trkpt lat="49.33553" lon="-0.69433">
        <ele>55.9</ele>
        <time>2020-06-17T07:28:45Z</time>
      </trkpt>
      <trkpt lat="49.33552" lon="-0.69426">
        <ele>55.9</ele>
        <time>2020-06-17T07:28:46Z</time>
      </trkpt>
      <trkpt lat="49.33551" lon="-0.69419">
        <ele>56</ele>
        <time>2020-06-17T07:28:47Z</time>
      </trkpt>
      <trkpt lat="49.33551" lon="-0.69411">
        <ele>56</ele>
        <time>2020-06-17T07:28:48Z</time>
      </trkpt>
      <trkpt lat="49.33551" lon="-0.69405">
        <ele>56.1</ele>
        <time>2020-06-17T07:28:49Z</time>
      </trkpt>
      <trkpt lat="49.3355" lon="-0.69399">
        <ele>56.1</ele>
        <time>2020-06-17T07:28:50Z</time>
      </trkpt>
      <trkpt lat="49.3355" lon="-0.69393">
        <ele>56.1</ele>
        <time>2020-06-17T07:28:51Z</time>
      </trkpt>
      <trkpt lat="49.33549" lon="-0.69387">
        <ele>56.2</ele>
        <time>2020-06-17T07:28:52Z</time>
      </trkpt>
      <trkpt lat="49.33549" lon="-0.69381">
        <ele>56.2</ele>
        <time>2020-06-17T07:28:53Z</time>
      </trkpt>
      <trkpt lat="49.33549" lon="-0.69376">
        <ele>56.3</ele>
        <time>2020-06-17T07:28:54Z</time>
      </trkpt>
      <trkpt lat="49.33549" lon="-0.69371">
        <ele>56.3</ele>
        <time>2020-06-17T07:28:55Z</time>
      </trkpt>
      <trkpt lat="49.33549" lon="-0.69366">
        <ele>56.3</ele>
        <time>2020-06-17T07:28:56Z</time>
      </trkpt>
      <trkpt lat="49.33549" lon="-0.69362">
        <ele>56.3</ele>
        <time>2020-06-17T07:28:57Z</time>
      </trkpt>
      <trkpt lat="49.33549" lon="-0.69356">
        <ele>56.4</ele>
        <time>2020-06-17T07:28:58Z</time>
      </trkpt>
      <trkpt lat="49.33549" lon="-0.69351">
        <ele>56.4</ele>
        <time>2020-06-17T07:28:59Z</time>
      </trkpt>
      <trkpt lat="49.33547" lon="-0.69345">
        <ele>56.4</ele>
        <time>2020-06-17T07:29:00Z</time>
      </trkpt>
      <trkpt lat="49.33546" lon="-0.69338">
        <ele>56.5</ele>
        <time>2020-06-17T07:29:01Z</time>
      </trkpt>
      <trkpt lat="49.33545" lon="-0.69331">
        <ele>56.5</ele>
        <time>2020-06-17T07:29:02Z</time>
      </trkpt>
      <trkpt lat="49.33544" lon="-0.69324">
        <ele>56.5</ele>
        <time>2020-06-17T07:29:03Z</time>
      </trkpt>
      <trkpt lat="49.33542" lon="-0.69317">
        <ele>56.5</ele>
        <time>2020-06-17T07:29:04Z</time>
      </trkpt>
      <trkpt lat="49.3354" lon="-0.69311">
        <ele>56.5</ele>
        <time>2020-06-17T07:29:05Z</time>
      </trkpt>
      <trkpt lat="49.33538" lon="-0.69304">
        <ele>56.5</ele>
        <time>2020-06-17T07:29:06Z</time>
      </trkpt>
      <trkpt lat="49.33536" lon="-0.69297">
        <ele>56.6</ele>
        <time>2020-06-17T07:29:07Z</time>
      </trkpt>
      <trkpt lat="49.33535" lon="-0.69291">
        <ele>56.6</ele>
        <time>2020-06-17T07:29:08Z</time>
      </trkpt>
      <trkpt lat="49.33533" lon="-0.69284">
        <ele>56.6</ele>
        <time>2020-06-17T07:29:09Z</time>
      </trkpt>
      <trkpt lat="49.33532" lon="-0.69276">
        <ele>56.6</ele>
        <time>2020-06-17T07:29:10Z</time>
      </trkpt>
      <trkpt lat="49.33531" lon="-0.69268">
        <ele>56.7</ele>
        <time>2020-06-17T07:29:11Z</time>
      </trkpt>
      <trkpt lat="49.3353" lon="-0.6926">
        <ele>56.7</ele>
        <time>2020-06-17T07:29:12Z</time>
      </trkpt>
      <trkpt lat="49.33529" lon="-0.69251">
        <ele>56.8</ele>
        <time>2020-06-17T07:29:13Z</time>
      </trkpt>
      <trkpt lat="49.33527" lon="-0.69241">
        <ele>56.8</ele>
        <time>2020-06-17T07:29:14Z</time>
      </trkpt>
      <trkpt lat="49.33525" lon="-0.69231">
        <ele>56.8</ele>
        <time>2020-06-17T07:29:15Z</time>
      </trkpt>
      <trkpt lat="49.33522" lon="-0.6922">
        <ele>56.9</ele>
        <time>2020-06-17T07:29:16Z</time>
      </trkpt>
      <trkpt lat="49.33519" lon="-0.69209">
        <ele>56.9</ele>
        <time>2020-06-17T07:29:17Z</time>
      </trkpt>
      <trkpt lat="49.33517" lon="-0.69198">
        <ele>56.9</ele>
        <time>2020-06-17T07:29:18Z</time>
      </trkpt>
      <trkpt lat="49.33515" lon="-0.69187">
        <ele>56.9</ele>
        <time>2020-06-17T07:29:19Z</time>
      </trkpt>
      <trkpt lat="49.33514" lon="-0.69177">
        <ele>57</ele>
        <time>2020-06-17T07:29:20Z</time>
      </trkpt>
      <trkpt lat="49.33512" lon="-0.69167">
        <ele>57</ele>
        <time>2020-06-17T07:29:21Z</time>
      </trkpt>
      <trkpt lat="49.33511" lon="-0.69157">
        <ele>57</ele>
        <time>2020-06-17T07:29:22Z</time>
      </trkpt>
      <trkpt lat="49.3351" lon="-0.69148">
        <ele>57</ele>
        <time>2020-06-17T07:29:23Z</time>
      </trkpt>
      <trkpt lat="49.33507" lon="-0.69139">
        <ele>57</ele>
        <time>2020-06-17T07:29:24Z</time>
      </trkpt>
      <trkpt lat="49.33506" lon="-0.69131">
        <ele>57</ele>
        <time>2020-06-17T07:29:25Z</time>
      </trkpt>
      <trkpt lat="49.33504" lon="-0.69123">
        <ele>57</ele>
        <time>2020-06-17T07:29:26Z</time>
      </trkpt>
      <trkpt lat="49.33502" lon="-0.69115">
        <ele>57</ele>
        <time>2020-06-17T07:29:27Z</time>
      </trkpt>
      <trkpt lat="49.33499" lon="-0.69106">
        <ele>57</ele>
        <time>2020-06-17T07:29:28Z</time>
      </trkpt>
      <trkpt lat="49.33498" lon="-0.69098">
        <ele>57</ele>
        <time>2020-06-17T07:29:29Z</time>
      </trkpt>
      <trkpt lat="49.33497" lon="-0.6909">
        <ele>57</ele>
        <time>2020-06-17T07:29:30Z</time>
      </trkpt>
      <trkpt lat="49.33496" lon="-0.69082">
        <ele>57</ele>
        <time>2020-06-17T07:29:31Z</time>
      </trkpt>
      <trkpt lat="49.33493" lon="-0.69074">
        <ele>57</ele>
        <time>2020-06-17T07:29:32Z</time>
      </trkpt>
      <trkpt lat="49.33491" lon="-0.69065">
        <ele>57</ele>
        <time>2020-06-17T07:29:33Z</time>
      </trkpt>
      <trkpt lat="49.33489" lon="-0.69057">
        <ele>57</ele>
        <time>2020-06-17T07:29:34Z</time>
      </trkpt>
      <trkpt lat="49.33487" lon="-0.69049">
        <ele>57.1</ele>
        <time>2020-06-17T07:29:35Z</time>
      </trkpt>
      <trkpt lat="49.33485" lon="-0.69042">
        <ele>57.1</ele>
        <time>2020-06-17T07:29:36Z</time>
      </trkpt>
      <trkpt lat="49.33483" lon="-0.69034">
        <ele>57.1</ele>
        <time>2020-06-17T07:29:37Z</time>
      </trkpt>
      <trkpt lat="49.3348" lon="-0.69025">
        <ele>57.1</ele>
        <time>2020-06-17T07:29:38Z</time>
      </trkpt>
      <trkpt lat="49.33478" lon="-0.69017">
        <ele>57.1</ele>
        <time>2020-06-17T07:29:39Z</time>
      </trkpt>
      <trkpt lat="49.33476" lon="-0.69009">
        <ele>57.2</ele>
        <time>2020-06-17T07:29:40Z</time>
      </trkpt>
      <trkpt lat="49.33473" lon="-0.69">
        <ele>57.2</ele>
        <time>2020-06-17T07:29:41Z</time>
      </trkpt>
      <trkpt lat="49.33471" lon="-0.68992">
        <ele>57.2</ele>
        <time>2020-06-17T07:29:42Z</time>
      </trkpt>
      <trkpt lat="49.33468" lon="-0.68983">
        <ele>57.1</ele>
        <time>2020-06-17T07:29:43Z</time>
      </trkpt>
      <trkpt lat="49.33466" lon="-0.68974">
        <ele>57.1</ele>
        <time>2020-06-17T07:29:44Z</time>
      </trkpt>
      <trkpt lat="49.33463" lon="-0.68966">
        <ele>57.1</ele>
        <time>2020-06-17T07:29:45Z</time>
      </trkpt>
      <trkpt lat="49.3346" lon="-0.68958">
        <ele>57</ele>
        <time>2020-06-17T07:29:46Z</time>
      </trkpt>
      <trkpt lat="49.33457" lon="-0.68949">
        <ele>57</ele>
        <time>2020-06-17T07:29:47Z</time>
      </trkpt>
      <trkpt lat="49.33454" lon="-0.68941">
        <ele>57</ele>
        <time>2020-06-17T07:29:48Z</time>
      </trkpt>
      <trkpt lat="49.33451" lon="-0.68931">
        <ele>57</ele>
        <time>2020-06-17T07:29:49Z</time>
      </trkpt>
      <trkpt lat="49.33448" lon="-0.68923">
        <ele>57</ele>
        <time>2020-06-17T07:29:50Z</time>
      </trkpt>
      <trkpt lat="49.33445" lon="-0.68913">
        <ele>57</ele>
        <time>2020-06-17T07:29:51Z</time>
      </trkpt>
      <trkpt lat="49.33442" lon="-0.68904">
        <ele>57</ele>
        <time>2020-06-17T07:29:52Z</time>
      </trkpt>
      <trkpt lat="49.33439" lon="-0.68895">
        <ele>57</ele>
        <time>2020-06-17T07:29:53Z</time>
      </trkpt>
      <trkpt lat="49.33436" lon="-0.68887">
        <ele>57</ele>
        <time>2020-06-17T07:29:54Z</time>
      </trkpt>
      <trkpt lat="49.33433" lon="-0.68879">
        <ele>57</ele>
        <time>2020-06-17T07:29:55Z</time>
      </trkpt>
      <trkpt lat="49.3343" lon="-0.68871">
        <ele>57</ele>
        <time>2020-06-17T07:29:56Z</time>
      </trkpt>
      <trkpt lat="49.33426" lon="-0.68865">
        <ele>57</ele>
        <time>2020-06-17T07:29:57Z</time>
      </trkpt>
      <trkpt lat="49.33424" lon="-0.68858">
        <ele>57</ele>
        <time>2020-06-17T07:29:58Z</time>
      </trkpt>
      <trkpt lat="49.33421" lon="-0.68851">
        <ele>56.9</ele>
        <time>2020-06-17T07:29:59Z</time>
      </trkpt>
      <trkpt lat="49.33418" lon="-0.68844">
        <ele>56.9</ele>
        <time>2020-06-17T07:30:00Z</time>
      </trkpt>
      <trkpt lat="49.33416" lon="-0.68836">
        <ele>56.9</ele>
        <time>2020-06-17T07:30:01Z</time>
      </trkpt>
      <trkpt lat="49.33413" lon="-0.6883">
        <ele>56.9</ele>
        <time>2020-06-17T07:30:02Z</time>
      </trkpt>
      <trkpt lat="49.33411" lon="-0.68823">
        <ele>56.8</ele>
        <time>2020-06-17T07:30:03Z</time>
      </trkpt>
      <trkpt lat="49.33409" lon="-0.68815">
        <ele>56.8</ele>
        <time>2020-06-17T07:30:04Z</time>
      </trkpt>
      <trkpt lat="49.33406" lon="-0.68807">
        <ele>56.8</ele>
        <time>2020-06-17T07:30:05Z</time>
      </trkpt>
      <trkpt lat="49.33403" lon="-0.68799">
        <ele>56.7</ele>
        <time>2020-06-17T07:30:06Z</time>
      </trkpt>
      <trkpt lat="49.33401" lon="-0.68791">
        <ele>56.7</ele>
        <time>2020-06-17T07:30:07Z</time>
      </trkpt>
      <trkpt lat="49.334" lon="-0.68782">
        <ele>56.6</ele>
        <time>2020-06-17T07:30:08Z</time>
      </trkpt>
      <trkpt lat="49.33399" lon="-0.68775">
        <ele>56.6</ele>
        <time>2020-06-17T07:30:09Z</time>
      </trkpt>
      <trkpt lat="49.33398" lon="-0.68767">
        <ele>56.6</ele>
        <time>2020-06-17T07:30:10Z</time>
      </trkpt>
      <trkpt lat="49.33397" lon="-0.68758">
        <ele>56.6</ele>
        <time>2020-06-17T07:30:11Z</time>
      </trkpt>
      <trkpt lat="49.33396" lon="-0.6875">
        <ele>56.5</ele>
        <time>2020-06-17T07:30:12Z</time>
      </trkpt>
      <trkpt lat="49.33395" lon="-0.68743">
        <ele>56.5</ele>
        <time>2020-06-17T07:30:13Z</time>
      </trkpt>
      <trkpt lat="49.33395" lon="-0.68736">
        <ele>56.5</ele>
        <time>2020-06-17T07:30:14Z</time>
      </trkpt>
      <trkpt lat="49.33395" lon="-0.68728">
        <ele>56.5</ele>
        <time>2020-06-17T07:30:15Z</time>
      </trkpt>
      <trkpt lat="49.33394" lon="-0.68717">
        <ele>56.5</ele>
        <time>2020-06-17T07:30:16Z</time>
      </trkpt>
      <trkpt lat="49.33393" lon="-0.68708">
        <ele>56.5</ele>
        <time>2020-06-17T07:30:17Z</time>
      </trkpt>
      <trkpt lat="49.33392" lon="-0.68698">
        <ele>56.5</ele>
        <time>2020-06-17T07:30:18Z</time>
      </trkpt>
      <trkpt lat="49.33391" lon="-0.68688">
        <ele>56.5</ele>
        <time>2020-06-17T07:30:19Z</time>
      </trkpt>
      <trkpt lat="49.33391" lon="-0.68678">
        <ele>56.5</ele>
        <time>2020-06-17T07:30:20Z</time>
      </trkpt>
      <trkpt lat="49.3339" lon="-0.68667">
        <ele>56.5</ele>
        <time>2020-06-17T07:30:21Z</time>
      </trkpt>
      <trkpt lat="49.3339" lon="-0.68657">
        <ele>56.5</ele>
        <time>2020-06-17T07:30:22Z</time>
      </trkpt>
      <trkpt lat="49.33389" lon="-0.68646">
        <ele>56.5</ele>
        <time>2020-06-17T07:30:23Z</time>
      </trkpt>
      <trkpt lat="49.33389" lon="-0.68635">
        <ele>56.5</ele>
        <time>2020-06-17T07:30:24Z</time>
      </trkpt>
      <trkpt lat="49.33388" lon="-0.68625">
        <ele>56.5</ele>
        <time>2020-06-17T07:30:25Z</time>
      </trkpt>
      <trkpt lat="49.33387" lon="-0.68613">
        <ele>56.5</ele>
        <time>2020-06-17T07:30:26Z</time>
      </trkpt>
      <trkpt lat="49.33385" lon="-0.68602">
        <ele>56.4</ele>
        <time>2020-06-17T07:30:27Z</time>
      </trkpt>
      <trkpt lat="49.33384" lon="-0.68593">
        <ele>56.4</ele>
        <time>2020-06-17T07:30:28Z</time>
      </trkpt>
      <trkpt lat="49.33382" lon="-0.68584">
        <ele>56.5</ele>
        <time>2020-06-17T07:30:29Z</time>
      </trkpt>
      <trkpt lat="49.33381" lon="-0.68575">
        <ele>56.5</ele>
        <time>2020-06-17T07:30:30Z</time>
      </trkpt>
      <trkpt lat="49.33379" lon="-0.68565">
        <ele>56.5</ele>
        <time>2020-06-17T07:30:31Z</time>
      </trkpt>
      <trkpt lat="49.33377" lon="-0.68555">
        <ele>56.5</ele>
        <time>2020-06-17T07:30:32Z</time>
      </trkpt>
      <trkpt lat="49.33374" lon="-0.68545">
        <ele>56.4</ele>
        <time>2020-06-17T07:30:33Z</time>
      </trkpt>
      <trkpt lat="49.33372" lon="-0.68534">
        <ele>56.4</ele>
        <time>2020-06-17T07:30:34Z</time>
      </trkpt>
      <trkpt lat="49.33369" lon="-0.68524">
        <ele>56.4</ele>
        <time>2020-06-17T07:30:35Z</time>
      </trkpt>
      <trkpt lat="49.33366" lon="-0.68515">
        <ele>56.4</ele>
        <time>2020-06-17T07:30:36Z</time>
      </trkpt>
      <trkpt lat="49.33363" lon="-0.68506">
        <ele>56.5</ele>
        <time>2020-06-17T07:30:37Z</time>
      </trkpt>
      <trkpt lat="49.3336" lon="-0.68496">
        <ele>56.5</ele>
        <time>2020-06-17T07:30:38Z</time>
      </trkpt>
      <trkpt lat="49.33357" lon="-0.68489">
        <ele>56.6</ele>
        <time>2020-06-17T07:30:39Z</time>
      </trkpt>
      <trkpt lat="49.33355" lon="-0.68481">
        <ele>56.6</ele>
        <time>2020-06-17T07:30:40Z</time>
      </trkpt>
      <trkpt lat="49.33353" lon="-0.68472">
        <ele>56.7</ele>
        <time>2020-06-17T07:30:41Z</time>
      </trkpt>
      <trkpt lat="49.33352" lon="-0.68464">
        <ele>56.7</ele>
        <time>2020-06-17T07:30:42Z</time>
      </trkpt>
      <trkpt lat="49.3335" lon="-0.68455">
        <ele>56.8</ele>
        <time>2020-06-17T07:30:43Z</time>
      </trkpt>
      <trkpt lat="49.3335" lon="-0.68446">
        <ele>56.9</ele>
        <time>2020-06-17T07:30:44Z</time>
      </trkpt>
      <trkpt lat="49.33349" lon="-0.68438">
        <ele>56.9</ele>
        <time>2020-06-17T07:30:45Z</time>
      </trkpt>
      <trkpt lat="49.33347" lon="-0.68431">
        <ele>57</ele>
        <time>2020-06-17T07:30:46Z</time>
      </trkpt>
      <trkpt lat="49.33346" lon="-0.68423">
        <ele>57</ele>
        <time>2020-06-17T07:30:47Z</time>
      </trkpt>
      <trkpt lat="49.33345" lon="-0.68415">
        <ele>57.1</ele>
        <time>2020-06-17T07:30:48Z</time>
      </trkpt>
      <trkpt lat="49.33344" lon="-0.68406">
        <ele>57.2</ele>
        <time>2020-06-17T07:30:49Z</time>
      </trkpt>
      <trkpt lat="49.33343" lon="-0.68396">
        <ele>57.3</ele>
        <time>2020-06-17T07:30:50Z</time>
      </trkpt>
      <trkpt lat="49.33343" lon="-0.68387">
        <ele>57.3</ele>
        <time>2020-06-17T07:30:51Z</time>
      </trkpt>
      <trkpt lat="49.33343" lon="-0.68377">
        <ele>57.4</ele>
        <time>2020-06-17T07:30:52Z</time>
      </trkpt>
      <trkpt lat="49.33342" lon="-0.68368">
        <ele>57.6</ele>
        <time>2020-06-17T07:30:53Z</time>
      </trkpt>
      <trkpt lat="49.33341" lon="-0.68359">
        <ele>57.7</ele>
        <time>2020-06-17T07:30:54Z</time>
      </trkpt>
      <trkpt lat="49.33341" lon="-0.68352">
        <ele>57.8</ele>
        <time>2020-06-17T07:30:55Z</time>
      </trkpt>
      <trkpt lat="49.33341" lon="-0.68342">
        <ele>57.9</ele>
        <time>2020-06-17T07:30:56Z</time>
      </trkpt>
      <trkpt lat="49.3334" lon="-0.68332">
        <ele>58</ele>
        <time>2020-06-17T07:30:57Z</time>
      </trkpt>
      <trkpt lat="49.3334" lon="-0.68323">
        <ele>58.1</ele>
        <time>2020-06-17T07:30:58Z</time>
      </trkpt>
      <trkpt lat="49.3334" lon="-0.68314">
        <ele>58.2</ele>
        <time>2020-06-17T07:30:59Z</time>
      </trkpt>
      <trkpt lat="49.3334" lon="-0.68305">
        <ele>58.3</ele>
        <time>2020-06-17T07:31:00Z</time>
      </trkpt>
      <trkpt lat="49.3334" lon="-0.68297">
        <ele>58.4</ele>
        <time>2020-06-17T07:31:01Z</time>
      </trkpt>
      <trkpt lat="49.33339" lon="-0.68289">
        <ele>58.5</ele>
        <time>2020-06-17T07:31:02Z</time>
      </trkpt>
      <trkpt lat="49.33339" lon="-0.68279">
        <ele>58.6</ele>
        <time>2020-06-17T07:31:03Z</time>
      </trkpt>
      <trkpt lat="49.33339" lon="-0.6827">
        <ele>58.7</ele>
        <time>2020-06-17T07:31:04Z</time>
      </trkpt>
      <trkpt lat="49.33339" lon="-0.68261">
        <ele>58.8</ele>
        <time>2020-06-17T07:31:05Z</time>
      </trkpt>
      <trkpt lat="49.33339" lon="-0.68253">
        <ele>58.9</ele>
        <time>2020-06-17T07:31:06Z</time>
      </trkpt>
      <trkpt lat="49.33339" lon="-0.68244">
        <ele>58.9</ele>
        <time>2020-06-17T07:31:07Z</time>
      </trkpt>
      <trkpt lat="49.33339" lon="-0.68236">
        <ele>59</ele>
        <time>2020-06-17T07:31:08Z</time>
      </trkpt>
      <trkpt lat="49.33338" lon="-0.68228">
        <ele>59.1</ele>
        <time>2020-06-17T07:31:09Z</time>
      </trkpt>
      <trkpt lat="49.33338" lon="-0.6822">
        <ele>59.1</ele>
        <time>2020-06-17T07:31:10Z</time>
      </trkpt>
      <trkpt lat="49.33337" lon="-0.68212">
        <ele>59.2</ele>
        <time>2020-06-17T07:31:11Z</time>
      </trkpt>
      <trkpt lat="49.33336" lon="-0.68204">
        <ele>59.2</ele>
        <time>2020-06-17T07:31:12Z</time>
      </trkpt>
      <trkpt lat="49.33336" lon="-0.68195">
        <ele>59.3</ele>
        <time>2020-06-17T07:31:13Z</time>
      </trkpt>
      <trkpt lat="49.33336" lon="-0.68188">
        <ele>59.3</ele>
        <time>2020-06-17T07:31:14Z</time>
      </trkpt>
      <trkpt lat="49.33334" lon="-0.68178">
        <ele>59.4</ele>
        <time>2020-06-17T07:31:15Z</time>
      </trkpt>
      <trkpt lat="49.33332" lon="-0.68168">
        <ele>59.5</ele>
        <time>2020-06-17T07:31:16Z</time>
      </trkpt>
      <trkpt lat="49.33331" lon="-0.68159">
        <ele>59.5</ele>
        <time>2020-06-17T07:31:17Z</time>
      </trkpt>
      <trkpt lat="49.33329" lon="-0.68151">
        <ele>59.6</ele>
        <time>2020-06-17T07:31:18Z</time>
      </trkpt>
      <trkpt lat="49.33328" lon="-0.68143">
        <ele>59.6</ele>
        <time>2020-06-17T07:31:19Z</time>
      </trkpt>
      <trkpt lat="49.33326" lon="-0.68135">
        <ele>59.7</ele>
        <time>2020-06-17T07:31:20Z</time>
      </trkpt>
      <trkpt lat="49.33324" lon="-0.68125">
        <ele>59.8</ele>
        <time>2020-06-17T07:31:21Z</time>
      </trkpt>
      <trkpt lat="49.33323" lon="-0.68114">
        <ele>59.9</ele>
        <time>2020-06-17T07:31:22Z</time>
      </trkpt>
      <trkpt lat="49.33322" lon="-0.68103">
        <ele>60</ele>
        <time>2020-06-17T07:31:23Z</time>
      </trkpt>
      <trkpt lat="49.3332" lon="-0.68094">
        <ele>60.1</ele>
        <time>2020-06-17T07:31:24Z</time>
      </trkpt>
      <trkpt lat="49.33319" lon="-0.68087">
        <ele>60.1</ele>
        <time>2020-06-17T07:31:25Z</time>
      </trkpt>
      <trkpt lat="49.33317" lon="-0.68078">
        <ele>60.2</ele>
        <time>2020-06-17T07:31:26Z</time>
      </trkpt>
      <trkpt lat="49.33315" lon="-0.68071">
        <ele>60.1</ele>
        <time>2020-06-17T07:31:27Z</time>
      </trkpt>
      <trkpt lat="49.33314" lon="-0.68064">
        <ele>60.1</ele>
        <time>2020-06-17T07:31:28Z</time>
      </trkpt>
      <trkpt lat="49.33313" lon="-0.68056">
        <ele>60.1</ele>
        <time>2020-06-17T07:31:29Z</time>
      </trkpt>
      <trkpt lat="49.33311" lon="-0.68049">
        <ele>60.1</ele>
        <time>2020-06-17T07:31:30Z</time>
      </trkpt>
      <trkpt lat="49.33309" lon="-0.68041">
        <ele>60.1</ele>
        <time>2020-06-17T07:31:31Z</time>
      </trkpt>
      <trkpt lat="49.33307" lon="-0.68034">
        <ele>60.1</ele>
        <time>2020-06-17T07:31:32Z</time>
      </trkpt>
      <trkpt lat="49.33305" lon="-0.68027">
        <ele>60.1</ele>
        <time>2020-06-17T07:31:33Z</time>
      </trkpt>
      <trkpt lat="49.33303" lon="-0.6802">
        <ele>60.1</ele>
        <time>2020-06-17T07:31:34Z</time>
      </trkpt>
      <trkpt lat="49.33301" lon="-0.68012">
        <ele>60.2</ele>
        <time>2020-06-17T07:31:35Z</time>
      </trkpt>
      <trkpt lat="49.333" lon="-0.68007">
        <ele>60.2</ele>
        <time>2020-06-17T07:31:36Z</time>
      </trkpt>
      <trkpt lat="49.33298" lon="-0.68001">
        <ele>60.2</ele>
        <time>2020-06-17T07:31:37Z</time>
      </trkpt>
      <trkpt lat="49.33296" lon="-0.67994">
        <ele>60.3</ele>
        <time>2020-06-17T07:31:38Z</time>
      </trkpt>
      <trkpt lat="49.33293" lon="-0.67986">
        <ele>60.3</ele>
        <time>2020-06-17T07:31:39Z</time>
      </trkpt>
      <trkpt lat="49.33291" lon="-0.67978">
        <ele>60.3</ele>
        <time>2020-06-17T07:31:40Z</time>
      </trkpt>
      <trkpt lat="49.33289" lon="-0.6797">
        <ele>60.3</ele>
        <time>2020-06-17T07:31:41Z</time>
      </trkpt>
      <trkpt lat="49.33287" lon="-0.67962">
        <ele>60.3</ele>
        <time>2020-06-17T07:31:42Z</time>
      </trkpt>
      <trkpt lat="49.33284" lon="-0.67952">
        <ele>60.3</ele>
        <time>2020-06-17T07:31:43Z</time>
      </trkpt>
      <trkpt lat="49.33281" lon="-0.67942">
        <ele>60.3</ele>
        <time>2020-06-17T07:31:44Z</time>
      </trkpt>
      <trkpt lat="49.33278" lon="-0.67933">
        <ele>60.3</ele>
        <time>2020-06-17T07:31:45Z</time>
      </trkpt>
      <trkpt lat="49.33276" lon="-0.67924">
        <ele>60.3</ele>
        <time>2020-06-17T07:31:46Z</time>
      </trkpt>
      <trkpt lat="49.33273" lon="-0.67915">
        <ele>60.3</ele>
        <time>2020-06-17T07:31:47Z</time>
      </trkpt>
      <trkpt lat="49.33271" lon="-0.67905">
        <ele>60.3</ele>
        <time>2020-06-17T07:31:48Z</time>
      </trkpt>
      <trkpt lat="49.33269" lon="-0.67896">
        <ele>60.3</ele>
        <time>2020-06-17T07:31:49Z</time>
      </trkpt>
      <trkpt lat="49.33267" lon="-0.67888">
        <ele>60.3</ele>
        <time>2020-06-17T07:31:50Z</time>
      </trkpt>
      <trkpt lat="49.33265" lon="-0.6788">
        <ele>60.3</ele>
        <time>2020-06-17T07:31:51Z</time>
      </trkpt>
      <trkpt lat="49.33264" lon="-0.67872">
        <ele>60.3</ele>
        <time>2020-06-17T07:31:52Z</time>
      </trkpt>
      <trkpt lat="49.33263" lon="-0.67864">
        <ele>60.4</ele>
        <time>2020-06-17T07:31:53Z</time>
      </trkpt>
      <trkpt lat="49.33262" lon="-0.67855">
        <ele>60.4</ele>
        <time>2020-06-17T07:31:54Z</time>
      </trkpt>
      <trkpt lat="49.33261" lon="-0.67846">
        <ele>60.4</ele>
        <time>2020-06-17T07:31:55Z</time>
      </trkpt>
      <trkpt lat="49.3326" lon="-0.67838">
        <ele>60.4</ele>
        <time>2020-06-17T07:31:56Z</time>
      </trkpt>
      <trkpt lat="49.33259" lon="-0.67829">
        <ele>60.5</ele>
        <time>2020-06-17T07:31:57Z</time>
      </trkpt>
      <trkpt lat="49.33259" lon="-0.67821">
        <ele>60.5</ele>
        <time>2020-06-17T07:31:58Z</time>
      </trkpt>
      <trkpt lat="49.33259" lon="-0.67812">
        <ele>60.6</ele>
        <time>2020-06-17T07:31:59Z</time>
      </trkpt>
      <trkpt lat="49.33259" lon="-0.678">
        <ele>60.7</ele>
        <time>2020-06-17T07:32:00Z</time>
      </trkpt>
      <trkpt lat="49.33259" lon="-0.67788">
        <ele>60.8</ele>
        <time>2020-06-17T07:32:01Z</time>
      </trkpt>
      <trkpt lat="49.33259" lon="-0.67777">
        <ele>61</ele>
        <time>2020-06-17T07:32:02Z</time>
      </trkpt>
      <trkpt lat="49.33259" lon="-0.67768">
        <ele>61</ele>
        <time>2020-06-17T07:32:03Z</time>
      </trkpt>
      <trkpt lat="49.33259" lon="-0.67756">
        <ele>61.1</ele>
        <time>2020-06-17T07:32:04Z</time>
      </trkpt>
      <trkpt lat="49.33259" lon="-0.67744">
        <ele>61.2</ele>
        <time>2020-06-17T07:32:05Z</time>
      </trkpt>
      <trkpt lat="49.33258" lon="-0.67732">
        <ele>61.3</ele>
        <time>2020-06-17T07:32:06Z</time>
      </trkpt>
      <trkpt lat="49.33259" lon="-0.67721">
        <ele>61.3</ele>
        <time>2020-06-17T07:32:07Z</time>
      </trkpt>
      <trkpt lat="49.33259" lon="-0.67709">
        <ele>61.4</ele>
        <time>2020-06-17T07:32:08Z</time>
      </trkpt>
      <trkpt lat="49.33259" lon="-0.677">
        <ele>61.5</ele>
        <time>2020-06-17T07:32:09Z</time>
      </trkpt>
      <trkpt lat="49.33259" lon="-0.67691">
        <ele>61.6</ele>
        <time>2020-06-17T07:32:10Z</time>
      </trkpt>
      <trkpt lat="49.33258" lon="-0.67681">
        <ele>61.6</ele>
        <time>2020-06-17T07:32:11Z</time>
      </trkpt>
      <trkpt lat="49.33258" lon="-0.67672">
        <ele>61.7</ele>
        <time>2020-06-17T07:32:12Z</time>
      </trkpt>
      <trkpt lat="49.33256" lon="-0.67663">
        <ele>61.8</ele>
        <time>2020-06-17T07:32:13Z</time>
      </trkpt>
      <trkpt lat="49.33255" lon="-0.67652">
        <ele>61.9</ele>
        <time>2020-06-17T07:32:14Z</time>
      </trkpt>
      <trkpt lat="49.33253" lon="-0.67644">
        <ele>61.9</ele>
        <time>2020-06-17T07:32:15Z</time>
      </trkpt>
      <trkpt lat="49.33252" lon="-0.67635">
        <ele>61.9</ele>
        <time>2020-06-17T07:32:16Z</time>
      </trkpt>
      <trkpt lat="49.33251" lon="-0.67625">
        <ele>61.9</ele>
        <time>2020-06-17T07:32:17Z</time>
      </trkpt>
      <trkpt lat="49.3325" lon="-0.67615">
        <ele>61.9</ele>
        <time>2020-06-17T07:32:18Z</time>
      </trkpt>
      <trkpt lat="49.33249" lon="-0.67607">
        <ele>61.9</ele>
        <time>2020-06-17T07:32:19Z</time>
      </trkpt>
      <trkpt lat="49.33248" lon="-0.67598">
        <ele>61.9</ele>
        <time>2020-06-17T07:32:20Z</time>
      </trkpt>
      <trkpt lat="49.33247" lon="-0.67589">
        <ele>62</ele>
        <time>2020-06-17T07:32:21Z</time>
      </trkpt>
      <trkpt lat="49.33246" lon="-0.67579">
        <ele>62</ele>
        <time>2020-06-17T07:32:22Z</time>
      </trkpt>
      <trkpt lat="49.33244" lon="-0.67568">
        <ele>62</ele>
        <time>2020-06-17T07:32:23Z</time>
      </trkpt>
      <trkpt lat="49.33242" lon="-0.67558">
        <ele>62.1</ele>
        <time>2020-06-17T07:32:24Z</time>
      </trkpt>
      <trkpt lat="49.3324" lon="-0.67549">
        <ele>62.1</ele>
        <time>2020-06-17T07:32:25Z</time>
      </trkpt>
      <trkpt lat="49.33238" lon="-0.67539">
        <ele>62.1</ele>
        <time>2020-06-17T07:32:26Z</time>
      </trkpt>
      <trkpt lat="49.33235" lon="-0.67529">
        <ele>62</ele>
        <time>2020-06-17T07:32:27Z</time>
      </trkpt>
      <trkpt lat="49.33232" lon="-0.67519">
        <ele>62</ele>
        <time>2020-06-17T07:32:28Z</time>
      </trkpt>
      <trkpt lat="49.3323" lon="-0.6751">
        <ele>62</ele>
        <time>2020-06-17T07:32:29Z</time>
      </trkpt>
      <trkpt lat="49.33227" lon="-0.675">
        <ele>61.9</ele>
        <time>2020-06-17T07:32:30Z</time>
      </trkpt>
      <trkpt lat="49.33225" lon="-0.67491">
        <ele>61.9</ele>
        <time>2020-06-17T07:32:31Z</time>
      </trkpt>
      <trkpt lat="49.33223" lon="-0.67481">
        <ele>61.9</ele>
        <time>2020-06-17T07:32:32Z</time>
      </trkpt>
      <trkpt lat="49.33222" lon="-0.67473">
        <ele>61.9</ele>
        <time>2020-06-17T07:32:33Z</time>
      </trkpt>
      <trkpt lat="49.33219" lon="-0.67465">
        <ele>61.9</ele>
        <time>2020-06-17T07:32:34Z</time>
      </trkpt>
      <trkpt lat="49.33217" lon="-0.67455">
        <ele>61.9</ele>
        <time>2020-06-17T07:32:35Z</time>
      </trkpt>
      <trkpt lat="49.33214" lon="-0.67445">
        <ele>61.9</ele>
        <time>2020-06-17T07:32:36Z</time>
      </trkpt>
      <trkpt lat="49.33211" lon="-0.67437">
        <ele>61.9</ele>
        <time>2020-06-17T07:32:37Z</time>
      </trkpt>
      <trkpt lat="49.33208" lon="-0.67428">
        <ele>61.9</ele>
        <time>2020-06-17T07:32:38Z</time>
      </trkpt>
      <trkpt lat="49.33205" lon="-0.67421">
        <ele>61.9</ele>
        <time>2020-06-17T07:32:39Z</time>
      </trkpt>
      <trkpt lat="49.33202" lon="-0.67413">
        <ele>61.9</ele>
        <time>2020-06-17T07:32:40Z</time>
      </trkpt>
      <trkpt lat="49.332" lon="-0.67405">
        <ele>61.9</ele>
        <time>2020-06-17T07:32:41Z</time>
      </trkpt>
      <trkpt lat="49.33198" lon="-0.67398">
        <ele>61.9</ele>
        <time>2020-06-17T07:32:42Z</time>
      </trkpt>
      <trkpt lat="49.33195" lon="-0.67389">
        <ele>61.9</ele>
        <time>2020-06-17T07:32:43Z</time>
      </trkpt>
      <trkpt lat="49.33193" lon="-0.67381">
        <ele>61.9</ele>
        <time>2020-06-17T07:32:44Z</time>
      </trkpt>
      <trkpt lat="49.3319" lon="-0.67374">
        <ele>61.9</ele>
        <time>2020-06-17T07:32:45Z</time>
      </trkpt>
      <trkpt lat="49.33188" lon="-0.67366">
        <ele>61.9</ele>
        <time>2020-06-17T07:32:46Z</time>
      </trkpt>
      <trkpt lat="49.33186" lon="-0.67358">
        <ele>61.9</ele>
        <time>2020-06-17T07:32:47Z</time>
      </trkpt>
      <trkpt lat="49.33184" lon="-0.6735">
        <ele>61.9</ele>
        <time>2020-06-17T07:32:48Z</time>
      </trkpt>
      <trkpt lat="49.33183" lon="-0.6734">
        <ele>61.9</ele>
        <time>2020-06-17T07:32:49Z</time>
      </trkpt>
      <trkpt lat="49.33182" lon="-0.67331">
        <ele>61.9</ele>
        <time>2020-06-17T07:32:50Z</time>
      </trkpt>
      <trkpt lat="49.33181" lon="-0.67321">
        <ele>61.9</ele>
        <time>2020-06-17T07:32:51Z</time>
      </trkpt>
      <trkpt lat="49.33181" lon="-0.67312">
        <ele>61.9</ele>
        <time>2020-06-17T07:32:52Z</time>
      </trkpt>
      <trkpt lat="49.3318" lon="-0.67302">
        <ele>61.9</ele>
        <time>2020-06-17T07:32:53Z</time>
      </trkpt>
      <trkpt lat="49.3318" lon="-0.67292">
        <ele>61.9</ele>
        <time>2020-06-17T07:32:54Z</time>
      </trkpt>
      <trkpt lat="49.3318" lon="-0.67281">
        <ele>62</ele>
        <time>2020-06-17T07:32:55Z</time>
      </trkpt>
      <trkpt lat="49.3318" lon="-0.67271">
        <ele>62</ele>
        <time>2020-06-17T07:32:56Z</time>
      </trkpt>
      <trkpt lat="49.33181" lon="-0.6726">
        <ele>62</ele>
        <time>2020-06-17T07:32:57Z</time>
      </trkpt>
      <trkpt lat="49.33182" lon="-0.67249">
        <ele>62</ele>
        <time>2020-06-17T07:32:58Z</time>
      </trkpt>
      <trkpt lat="49.33183" lon="-0.67238">
        <ele>62.1</ele>
        <time>2020-06-17T07:32:59Z</time>
      </trkpt>
      <trkpt lat="49.33184" lon="-0.67227">
        <ele>62</ele>
        <time>2020-06-17T07:33:00Z</time>
      </trkpt>
      <trkpt lat="49.33186" lon="-0.67216">
        <ele>62</ele>
        <time>2020-06-17T07:33:01Z</time>
      </trkpt>
      <trkpt lat="49.33187" lon="-0.67206">
        <ele>62</ele>
        <time>2020-06-17T07:33:02Z</time>
      </trkpt>
      <trkpt lat="49.33189" lon="-0.67198">
        <ele>62</ele>
        <time>2020-06-17T07:33:03Z</time>
      </trkpt>
      <trkpt lat="49.33191" lon="-0.67187">
        <ele>62</ele>
        <time>2020-06-17T07:33:04Z</time>
      </trkpt>
      <trkpt lat="49.33192" lon="-0.67177">
        <ele>62</ele>
        <time>2020-06-17T07:33:05Z</time>
      </trkpt>
      <trkpt lat="49.33194" lon="-0.67169">
        <ele>62</ele>
        <time>2020-06-17T07:33:06Z</time>
      </trkpt>
      <trkpt lat="49.33196" lon="-0.67161">
        <ele>62</ele>
        <time>2020-06-17T07:33:07Z</time>
      </trkpt>
      <trkpt lat="49.33197" lon="-0.67152">
        <ele>62</ele>
        <time>2020-06-17T07:33:08Z</time>
      </trkpt>
      <trkpt lat="49.33199" lon="-0.67144">
        <ele>62</ele>
        <time>2020-06-17T07:33:09Z</time>
      </trkpt>
      <trkpt lat="49.33201" lon="-0.67135">
        <ele>62</ele>
        <time>2020-06-17T07:33:10Z</time>
      </trkpt>
      <trkpt lat="49.33203" lon="-0.67125">
        <ele>62</ele>
        <time>2020-06-17T07:33:11Z</time>
      </trkpt>
      <trkpt lat="49.33205" lon="-0.67117">
        <ele>62</ele>
        <time>2020-06-17T07:33:12Z</time>
      </trkpt>
      <trkpt lat="49.33207" lon="-0.67107">
        <ele>62</ele>
        <time>2020-06-17T07:33:13Z</time>
      </trkpt>
      <trkpt lat="49.33209" lon="-0.67097">
        <ele>62</ele>
        <time>2020-06-17T07:33:14Z</time>
      </trkpt>
      <trkpt lat="49.33212" lon="-0.67088">
        <ele>62.1</ele>
        <time>2020-06-17T07:33:15Z</time>
      </trkpt>
      <trkpt lat="49.33214" lon="-0.6708">
        <ele>62.1</ele>
        <time>2020-06-17T07:33:16Z</time>
      </trkpt>
      <trkpt lat="49.33216" lon="-0.67071">
        <ele>62.1</ele>
        <time>2020-06-17T07:33:17Z</time>
      </trkpt>
      <trkpt lat="49.33218" lon="-0.67062">
        <ele>62.1</ele>
        <time>2020-06-17T07:33:18Z</time>
      </trkpt>
      <trkpt lat="49.3322" lon="-0.67054">
        <ele>62.2</ele>
        <time>2020-06-17T07:33:19Z</time>
      </trkpt>
      <trkpt lat="49.33222" lon="-0.67046">
        <ele>62.2</ele>
        <time>2020-06-17T07:33:20Z</time>
      </trkpt>
      <trkpt lat="49.33224" lon="-0.67036">
        <ele>62.2</ele>
        <time>2020-06-17T07:33:21Z</time>
      </trkpt>
      <trkpt lat="49.33227" lon="-0.67027">
        <ele>62.2</ele>
        <time>2020-06-17T07:33:22Z</time>
      </trkpt>
      <trkpt lat="49.33229" lon="-0.67018">
        <ele>62.2</ele>
        <time>2020-06-17T07:33:23Z</time>
      </trkpt>
      <trkpt lat="49.33231" lon="-0.6701">
        <ele>62.2</ele>
        <time>2020-06-17T07:33:24Z</time>
      </trkpt>
      <trkpt lat="49.33233" lon="-0.67">
        <ele>62.2</ele>
        <time>2020-06-17T07:33:25Z</time>
      </trkpt>
      <trkpt lat="49.33235" lon="-0.66991">
        <ele>62.2</ele>
        <time>2020-06-17T07:33:26Z</time>
      </trkpt>
      <trkpt lat="49.33236" lon="-0.66982">
        <ele>62.2</ele>
        <time>2020-06-17T07:33:27Z</time>
      </trkpt>
      <trkpt lat="49.33239" lon="-0.66972">
        <ele>62.1</ele>
        <time>2020-06-17T07:33:28Z</time>
      </trkpt>
      <trkpt lat="49.33241" lon="-0.66963">
        <ele>62.1</ele>
        <time>2020-06-17T07:33:29Z</time>
      </trkpt>
      <trkpt lat="49.33243" lon="-0.66953">
        <ele>62.1</ele>
        <time>2020-06-17T07:33:30Z</time>
      </trkpt>
      <trkpt lat="49.33246" lon="-0.66943">
        <ele>62.1</ele>
        <time>2020-06-17T07:33:31Z</time>
      </trkpt>
      <trkpt lat="49.33248" lon="-0.66933">
        <ele>62</ele>
        <time>2020-06-17T07:33:32Z</time>
      </trkpt>
      <trkpt lat="49.3325" lon="-0.66923">
        <ele>62</ele>
        <time>2020-06-17T07:33:33Z</time>
      </trkpt>
      <trkpt lat="49.33252" lon="-0.66914">
        <ele>62</ele>
        <time>2020-06-17T07:33:34Z</time>
      </trkpt>
      <trkpt lat="49.33255" lon="-0.66904">
        <ele>62</ele>
        <time>2020-06-17T07:33:35Z</time>
      </trkpt>
      <trkpt lat="49.33258" lon="-0.66896">
        <ele>62</ele>
        <time>2020-06-17T07:33:36Z</time>
      </trkpt>
      <trkpt lat="49.33261" lon="-0.66886">
        <ele>62</ele>
        <time>2020-06-17T07:33:37Z</time>
      </trkpt>
      <trkpt lat="49.33265" lon="-0.66877">
        <ele>62</ele>
        <time>2020-06-17T07:33:38Z</time>
      </trkpt>
      <trkpt lat="49.33269" lon="-0.66868">
        <ele>62</ele>
        <time>2020-06-17T07:33:39Z</time>
      </trkpt>
      <trkpt lat="49.33274" lon="-0.6686">
        <ele>62</ele>
        <time>2020-06-17T07:33:40Z</time>
      </trkpt>
      <trkpt lat="49.33278" lon="-0.66851">
        <ele>61.9</ele>
        <time>2020-06-17T07:33:41Z</time>
      </trkpt>
      <trkpt lat="49.33284" lon="-0.66842">
        <ele>61.9</ele>
        <time>2020-06-17T07:33:42Z</time>
      </trkpt>
      <trkpt lat="49.33289" lon="-0.66832">
        <ele>61.9</ele>
        <time>2020-06-17T07:33:43Z</time>
      </trkpt>
      <trkpt lat="49.33294" lon="-0.66825">
        <ele>61.9</ele>
        <time>2020-06-17T07:33:44Z</time>
      </trkpt>
      <trkpt lat="49.33299" lon="-0.66818">
        <ele>61.9</ele>
        <time>2020-06-17T07:33:45Z</time>
      </trkpt>
      <trkpt lat="49.33304" lon="-0.6681">
        <ele>61.9</ele>
        <time>2020-06-17T07:33:46Z</time>
      </trkpt>
      <trkpt lat="49.33309" lon="-0.66803">
        <ele>61.9</ele>
        <time>2020-06-17T07:33:47Z</time>
      </trkpt>
      <trkpt lat="49.33315" lon="-0.66795">
        <ele>61.9</ele>
        <time>2020-06-17T07:33:48Z</time>
      </trkpt>
      <trkpt lat="49.3332" lon="-0.66788">
        <ele>61.9</ele>
        <time>2020-06-17T07:33:49Z</time>
      </trkpt>
      <trkpt lat="49.33326" lon="-0.6678">
        <ele>62</ele>
        <time>2020-06-17T07:33:50Z</time>
      </trkpt>
      <trkpt lat="49.33331" lon="-0.66772">
        <ele>61.9</ele>
        <time>2020-06-17T07:33:51Z</time>
      </trkpt>
      <trkpt lat="49.33336" lon="-0.66765">
        <ele>61.9</ele>
        <time>2020-06-17T07:33:52Z</time>
      </trkpt>
      <trkpt lat="49.3334" lon="-0.66758">
        <ele>61.9</ele>
        <time>2020-06-17T07:33:53Z</time>
      </trkpt>
      <trkpt lat="49.33345" lon="-0.66752">
        <ele>61.9</ele>
        <time>2020-06-17T07:33:54Z</time>
      </trkpt>
      <trkpt lat="49.3335" lon="-0.66744">
        <ele>61.9</ele>
        <time>2020-06-17T07:33:55Z</time>
      </trkpt>
      <trkpt lat="49.33356" lon="-0.66736">
        <ele>61.9</ele>
        <time>2020-06-17T07:33:56Z</time>
      </trkpt>
      <trkpt lat="49.33361" lon="-0.66728">
        <ele>61.9</ele>
        <time>2020-06-17T07:33:57Z</time>
      </trkpt>
      <trkpt lat="49.33366" lon="-0.6672">
        <ele>61.9</ele>
        <time>2020-06-17T07:33:58Z</time>
      </trkpt>
      <trkpt lat="49.33371" lon="-0.66712">
        <ele>61.9</ele>
        <time>2020-06-17T07:33:59Z</time>
      </trkpt>
      <trkpt lat="49.33375" lon="-0.66704">
        <ele>61.9</ele>
        <time>2020-06-17T07:34:00Z</time>
      </trkpt>
      <trkpt lat="49.3338" lon="-0.66696">
        <ele>61.9</ele>
        <time>2020-06-17T07:34:01Z</time>
      </trkpt>
      <trkpt lat="49.33385" lon="-0.66687">
        <ele>61.9</ele>
        <time>2020-06-17T07:34:02Z</time>
      </trkpt>
      <trkpt lat="49.3339" lon="-0.66678">
        <ele>61.9</ele>
        <time>2020-06-17T07:34:03Z</time>
      </trkpt>
      <trkpt lat="49.33394" lon="-0.66669">
        <ele>61.9</ele>
        <time>2020-06-17T07:34:04Z</time>
      </trkpt>
      <trkpt lat="49.33399" lon="-0.6666">
        <ele>61.9</ele>
        <time>2020-06-17T07:34:05Z</time>
      </trkpt>
      <trkpt lat="49.33403" lon="-0.66652">
        <ele>61.8</ele>
        <time>2020-06-17T07:34:06Z</time>
      </trkpt>
      <trkpt lat="49.33408" lon="-0.66644">
        <ele>61.8</ele>
        <time>2020-06-17T07:34:07Z</time>
      </trkpt>
      <trkpt lat="49.33411" lon="-0.66636">
        <ele>61.7</ele>
        <time>2020-06-17T07:34:08Z</time>
      </trkpt>
      <trkpt lat="49.33415" lon="-0.66626">
        <ele>61.7</ele>
        <time>2020-06-17T07:34:09Z</time>
      </trkpt>
      <trkpt lat="49.33419" lon="-0.66617">
        <ele>61.6</ele>
        <time>2020-06-17T07:34:10Z</time>
      </trkpt>
      <trkpt lat="49.33423" lon="-0.66607">
        <ele>61.6</ele>
        <time>2020-06-17T07:34:11Z</time>
      </trkpt>
      <trkpt lat="49.33426" lon="-0.66598">
        <ele>61.5</ele>
        <time>2020-06-17T07:34:12Z</time>
      </trkpt>
      <trkpt lat="49.33429" lon="-0.66589">
        <ele>61.5</ele>
        <time>2020-06-17T07:34:13Z</time>
      </trkpt>
      <trkpt lat="49.33432" lon="-0.66579">
        <ele>61.4</ele>
        <time>2020-06-17T07:34:14Z</time>
      </trkpt>
      <trkpt lat="49.33435" lon="-0.66569">
        <ele>61.4</ele>
        <time>2020-06-17T07:34:15Z</time>
      </trkpt>
      <trkpt lat="49.33439" lon="-0.66559">
        <ele>61.2</ele>
        <time>2020-06-17T07:34:16Z</time>
      </trkpt>
      <trkpt lat="49.33442" lon="-0.66548">
        <ele>61.1</ele>
        <time>2020-06-17T07:34:17Z</time>
      </trkpt>
      <trkpt lat="49.33445" lon="-0.66538">
        <ele>61</ele>
        <time>2020-06-17T07:34:18Z</time>
      </trkpt>
      <trkpt lat="49.33448" lon="-0.66528">
        <ele>60.8</ele>
        <time>2020-06-17T07:34:19Z</time>
      </trkpt>
      <trkpt lat="49.33451" lon="-0.66518">
        <ele>60.7</ele>
        <time>2020-06-17T07:34:20Z</time>
      </trkpt>
      <trkpt lat="49.33454" lon="-0.66508">
        <ele>60.5</ele>
        <time>2020-06-17T07:34:21Z</time>
      </trkpt>
      <trkpt lat="49.33456" lon="-0.66497">
        <ele>60.4</ele>
        <time>2020-06-17T07:34:22Z</time>
      </trkpt>
      <trkpt lat="49.33459" lon="-0.66486">
        <ele>60.3</ele>
        <time>2020-06-17T07:34:23Z</time>
      </trkpt>
      <trkpt lat="49.33462" lon="-0.66474">
        <ele>60.1</ele>
        <time>2020-06-17T07:34:24Z</time>
      </trkpt>
      <trkpt lat="49.33465" lon="-0.66464">
        <ele>60</ele>
        <time>2020-06-17T07:34:25Z</time>
      </trkpt>
      <trkpt lat="49.33468" lon="-0.66454">
        <ele>59.8</ele>
        <time>2020-06-17T07:34:26Z</time>
      </trkpt>
      <trkpt lat="49.33471" lon="-0.66444">
        <ele>59.6</ele>
        <time>2020-06-17T07:34:27Z</time>
      </trkpt>
      <trkpt lat="49.33473" lon="-0.66433">
        <ele>59.5</ele>
        <time>2020-06-17T07:34:28Z</time>
      </trkpt>
      <trkpt lat="49.33476" lon="-0.66422">
        <ele>59.3</ele>
        <time>2020-06-17T07:34:29Z</time>
      </trkpt>
      <trkpt lat="49.33479" lon="-0.6641">
        <ele>59.2</ele>
        <time>2020-06-17T07:34:30Z</time>
      </trkpt>
      <trkpt lat="49.33483" lon="-0.66397">
        <ele>59</ele>
        <time>2020-06-17T07:34:31Z</time>
      </trkpt>
      <trkpt lat="49.33487" lon="-0.66385">
        <ele>58.9</ele>
        <time>2020-06-17T07:34:32Z</time>
      </trkpt>
      <trkpt lat="49.33491" lon="-0.66373">
        <ele>58.7</ele>
        <time>2020-06-17T07:34:33Z</time>
      </trkpt>
      <trkpt lat="49.33494" lon="-0.66362">
        <ele>58.6</ele>
        <time>2020-06-17T07:34:34Z</time>
      </trkpt>
      <trkpt lat="49.33497" lon="-0.66351">
        <ele>58.5</ele>
        <time>2020-06-17T07:34:35Z</time>
      </trkpt>
      <trkpt lat="49.33499" lon="-0.66341">
        <ele>58.4</ele>
        <time>2020-06-17T07:34:36Z</time>
      </trkpt>
      <trkpt lat="49.33502" lon="-0.6633">
        <ele>58.2</ele>
        <time>2020-06-17T07:34:37Z</time>
      </trkpt>
      <trkpt lat="49.33504" lon="-0.6632">
        <ele>58</ele>
        <time>2020-06-17T07:34:38Z</time>
      </trkpt>
      <trkpt lat="49.33507" lon="-0.66308">
        <ele>57.8</ele>
        <time>2020-06-17T07:34:39Z</time>
      </trkpt>
      <trkpt lat="49.3351" lon="-0.66297">
        <ele>57.6</ele>
        <time>2020-06-17T07:34:40Z</time>
      </trkpt>
      <trkpt lat="49.33513" lon="-0.66286">
        <ele>57.5</ele>
        <time>2020-06-17T07:34:41Z</time>
      </trkpt>
      <trkpt lat="49.33516" lon="-0.66276">
        <ele>57.3</ele>
        <time>2020-06-17T07:34:42Z</time>
      </trkpt>
      <trkpt lat="49.33519" lon="-0.66264">
        <ele>57</ele>
        <time>2020-06-17T07:34:43Z</time>
      </trkpt>
      <trkpt lat="49.33523" lon="-0.66254">
        <ele>56.8</ele>
        <time>2020-06-17T07:34:44Z</time>
      </trkpt>
      <trkpt lat="49.33526" lon="-0.66244">
        <ele>56.6</ele>
        <time>2020-06-17T07:34:45Z</time>
      </trkpt>
      <trkpt lat="49.33529" lon="-0.66233">
        <ele>56.4</ele>
        <time>2020-06-17T07:34:46Z</time>
      </trkpt>
      <trkpt lat="49.33532" lon="-0.66221">
        <ele>56.2</ele>
        <time>2020-06-17T07:34:47Z</time>
      </trkpt>
      <trkpt lat="49.33534" lon="-0.66208">
        <ele>55.9</ele>
        <time>2020-06-17T07:34:48Z</time>
      </trkpt>
      <trkpt lat="49.33536" lon="-0.66196">
        <ele>55.7</ele>
        <time>2020-06-17T07:34:49Z</time>
      </trkpt>
      <trkpt lat="49.33539" lon="-0.66184">
        <ele>55.5</ele>
        <time>2020-06-17T07:34:50Z</time>
      </trkpt>
      <trkpt lat="49.33541" lon="-0.66171">
        <ele>55.2</ele>
        <time>2020-06-17T07:34:51Z</time>
      </trkpt>
      <trkpt lat="49.33543" lon="-0.66159">
        <ele>55</ele>
        <time>2020-06-17T07:34:52Z</time>
      </trkpt>
      <trkpt lat="49.33545" lon="-0.66146">
        <ele>54.8</ele>
        <time>2020-06-17T07:34:53Z</time>
      </trkpt>
      <trkpt lat="49.33547" lon="-0.66134">
        <ele>54.5</ele>
        <time>2020-06-17T07:34:54Z</time>
      </trkpt>
      <trkpt lat="49.33549" lon="-0.66122">
        <ele>54.3</ele>
        <time>2020-06-17T07:34:55Z</time>
      </trkpt>
      <trkpt lat="49.33552" lon="-0.66112">
        <ele>54.2</ele>
        <time>2020-06-17T07:34:56Z</time>
      </trkpt>
      <trkpt lat="49.33554" lon="-0.661">
        <ele>54</ele>
        <time>2020-06-17T07:34:57Z</time>
      </trkpt>
      <trkpt lat="49.33557" lon="-0.6609">
        <ele>53.9</ele>
        <time>2020-06-17T07:34:58Z</time>
      </trkpt>
      <trkpt lat="49.33559" lon="-0.6608">
        <ele>53.7</ele>
        <time>2020-06-17T07:34:59Z</time>
      </trkpt>
      <trkpt lat="49.33561" lon="-0.6607">
        <ele>53.6</ele>
        <time>2020-06-17T07:35:00Z</time>
      </trkpt>
      <trkpt lat="49.33565" lon="-0.66059">
        <ele>53.4</ele>
        <time>2020-06-17T07:35:01Z</time>
      </trkpt>
      <trkpt lat="49.3357" lon="-0.66048">
        <ele>53.3</ele>
        <time>2020-06-17T07:35:02Z</time>
      </trkpt>
      <trkpt lat="49.33575" lon="-0.66038">
        <ele>53.1</ele>
        <time>2020-06-17T07:35:03Z</time>
      </trkpt>
      <trkpt lat="49.33579" lon="-0.66028">
        <ele>52.8</ele>
        <time>2020-06-17T07:35:04Z</time>
      </trkpt>
      <trkpt lat="49.33583" lon="-0.66019">
        <ele>52.8</ele>
        <time>2020-06-17T07:35:05Z</time>
      </trkpt>
      <trkpt lat="49.33587" lon="-0.66009">
        <ele>52.8</ele>
        <time>2020-06-17T07:35:06Z</time>
      </trkpt>
      <trkpt lat="49.33591" lon="-0.66">
        <ele>52.7</ele>
        <time>2020-06-17T07:35:07Z</time>
      </trkpt>
      <trkpt lat="49.33595" lon="-0.65991">
        <ele>52.6</ele>
        <time>2020-06-17T07:35:08Z</time>
      </trkpt>
      <trkpt lat="49.33599" lon="-0.65981">
        <ele>52.5</ele>
        <time>2020-06-17T07:35:09Z</time>
      </trkpt>
      <trkpt lat="49.33603" lon="-0.65971">
        <ele>52.5</ele>
        <time>2020-06-17T07:35:10Z</time>
      </trkpt>
      <trkpt lat="49.33606" lon="-0.65961">
        <ele>52.4</ele>
        <time>2020-06-17T07:35:11Z</time>
      </trkpt>
      <trkpt lat="49.3361" lon="-0.6595">
        <ele>52.3</ele>
        <time>2020-06-17T07:35:12Z</time>
      </trkpt>
      <trkpt lat="49.33614" lon="-0.65938">
        <ele>52.2</ele>
        <time>2020-06-17T07:35:13Z</time>
      </trkpt>
      <trkpt lat="49.33618" lon="-0.65927">
        <ele>52</ele>
        <time>2020-06-17T07:35:14Z</time>
      </trkpt>
      <trkpt lat="49.33622" lon="-0.65916">
        <ele>51.9</ele>
        <time>2020-06-17T07:35:15Z</time>
      </trkpt>
      <trkpt lat="49.33626" lon="-0.65904">
        <ele>51.8</ele>
        <time>2020-06-17T07:35:16Z</time>
      </trkpt>
      <trkpt lat="49.3363" lon="-0.65892">
        <ele>51.6</ele>
        <time>2020-06-17T07:35:17Z</time>
      </trkpt>
      <trkpt lat="49.33634" lon="-0.65881">
        <ele>51.6</ele>
        <time>2020-06-17T07:35:18Z</time>
      </trkpt>
      <trkpt lat="49.33639" lon="-0.6587">
        <ele>51.6</ele>
        <time>2020-06-17T07:35:19Z</time>
      </trkpt>
      <trkpt lat="49.33644" lon="-0.6586">
        <ele>51.6</ele>
        <time>2020-06-17T07:35:20Z</time>
      </trkpt>
      <trkpt lat="49.33647" lon="-0.6585">
        <ele>51.6</ele>
        <time>2020-06-17T07:35:21Z</time>
      </trkpt>
      <trkpt lat="49.33652" lon="-0.6584">
        <ele>51.5</ele>
        <time>2020-06-17T07:35:22Z</time>
      </trkpt>
      <trkpt lat="49.33655" lon="-0.65828">
        <ele>51.5</ele>
        <time>2020-06-17T07:35:23Z</time>
      </trkpt>
      <trkpt lat="49.33657" lon="-0.65817">
        <ele>51.5</ele>
        <time>2020-06-17T07:35:24Z</time>
      </trkpt>
      <trkpt lat="49.3366" lon="-0.65807">
        <ele>51.5</ele>
        <time>2020-06-17T07:35:25Z</time>
      </trkpt>
      <trkpt lat="49.33662" lon="-0.65795">
        <ele>51.4</ele>
        <time>2020-06-17T07:35:26Z</time>
      </trkpt>
      <trkpt lat="49.33666" lon="-0.65784">
        <ele>51.4</ele>
        <time>2020-06-17T07:35:27Z</time>
      </trkpt>
      <trkpt lat="49.33671" lon="-0.65773">
        <ele>51.4</ele>
        <time>2020-06-17T07:35:28Z</time>
      </trkpt>
      <trkpt lat="49.33674" lon="-0.65763">
        <ele>51.3</ele>
        <time>2020-06-17T07:35:29Z</time>
      </trkpt>
      <trkpt lat="49.33679" lon="-0.65752">
        <ele>51.3</ele>
        <time>2020-06-17T07:35:30Z</time>
      </trkpt>
      <trkpt lat="49.33684" lon="-0.65741">
        <ele>51.4</ele>
        <time>2020-06-17T07:35:31Z</time>
      </trkpt>
      <trkpt lat="49.3369" lon="-0.65732">
        <ele>51.4</ele>
        <time>2020-06-17T07:35:32Z</time>
      </trkpt>
      <trkpt lat="49.33694" lon="-0.65722">
        <ele>51.4</ele>
        <time>2020-06-17T07:35:33Z</time>
      </trkpt>
      <trkpt lat="49.33699" lon="-0.65711">
        <ele>51.3</ele>
        <time>2020-06-17T07:35:34Z</time>
      </trkpt>
      <trkpt lat="49.33704" lon="-0.65701">
        <ele>51.3</ele>
        <time>2020-06-17T07:35:35Z</time>
      </trkpt>
      <trkpt lat="49.33708" lon="-0.65691">
        <ele>51.4</ele>
        <time>2020-06-17T07:35:36Z</time>
      </trkpt>
      <trkpt lat="49.33712" lon="-0.6568">
        <ele>51.4</ele>
        <time>2020-06-17T07:35:37Z</time>
      </trkpt>
      <trkpt lat="49.33716" lon="-0.6567">
        <ele>51.4</ele>
        <time>2020-06-17T07:35:38Z</time>
      </trkpt>
      <trkpt lat="49.33719" lon="-0.65661">
        <ele>51.3</ele>
        <time>2020-06-17T07:35:39Z</time>
      </trkpt>
      <trkpt lat="49.33722" lon="-0.65651">
        <ele>51.3</ele>
        <time>2020-06-17T07:35:40Z</time>
      </trkpt>
      <trkpt lat="49.33725" lon="-0.65639">
        <ele>51.3</ele>
        <time>2020-06-17T07:35:41Z</time>
      </trkpt>
      <trkpt lat="49.33727" lon="-0.65628">
        <ele>51.3</ele>
        <time>2020-06-17T07:35:42Z</time>
      </trkpt>
      <trkpt lat="49.33727" lon="-0.65618">
        <ele>51.3</ele>
        <time>2020-06-17T07:35:43Z</time>
      </trkpt>
      <trkpt lat="49.33727" lon="-0.65609">
        <ele>51.2</ele>
        <time>2020-06-17T07:35:44Z</time>
      </trkpt>
      <trkpt lat="49.33725" lon="-0.65602">
        <ele>51.2</ele>
        <time>2020-06-17T07:35:45Z</time>
      </trkpt>
      <trkpt lat="49.33722" lon="-0.65597">
        <ele>51.2</ele>
        <time>2020-06-17T07:35:46Z</time>
      </trkpt>
      <trkpt lat="49.33717" lon="-0.65592">
        <ele>51.2</ele>
        <time>2020-06-17T07:35:47Z</time>
      </trkpt>
      <trkpt lat="49.33713" lon="-0.65587">
        <ele>51.2</ele>
        <time>2020-06-17T07:35:48Z</time>
      </trkpt>
      <trkpt lat="49.33709" lon="-0.65583">
        <ele>51.3</ele>
        <time>2020-06-17T07:35:49Z</time>
      </trkpt>
      <trkpt lat="49.33707" lon="-0.65579">
        <ele>51.3</ele>
        <time>2020-06-17T07:35:50Z</time>
      </trkpt>
      <trkpt lat="49.33706" lon="-0.65574">
        <ele>51.3</ele>
        <time>2020-06-17T07:35:51Z</time>
      </trkpt>
      <trkpt lat="49.33705" lon="-0.65567">
        <ele>51.3</ele>
        <time>2020-06-17T07:35:52Z</time>
      </trkpt>
      <trkpt lat="49.33704" lon="-0.65562">
        <ele>51.3</ele>
        <time>2020-06-17T07:35:53Z</time>
      </trkpt>
      <trkpt lat="49.33703" lon="-0.65556">
        <ele>51.3</ele>
        <time>2020-06-17T07:35:54Z</time>
      </trkpt>
      <trkpt lat="49.33702" lon="-0.6555">
        <ele>51.3</ele>
        <time>2020-06-17T07:35:55Z</time>
      </trkpt>
      <trkpt lat="49.33701" lon="-0.65542">
        <ele>51.2</ele>
        <time>2020-06-17T07:35:56Z</time>
      </trkpt>
      <trkpt lat="49.33699" lon="-0.65534">
        <ele>51.2</ele>
        <time>2020-06-17T07:35:57Z</time>
      </trkpt>
      <trkpt lat="49.33698" lon="-0.65525">
        <ele>51.1</ele>
        <time>2020-06-17T07:35:58Z</time>
      </trkpt>
      <trkpt lat="49.33698" lon="-0.65514">
        <ele>51.1</ele>
        <time>2020-06-17T07:35:59Z</time>
      </trkpt>
      <trkpt lat="49.33698" lon="-0.65504">
        <ele>51</ele>
        <time>2020-06-17T07:36:00Z</time>
      </trkpt>
      <trkpt lat="49.33696" lon="-0.65496">
        <ele>51</ele>
        <time>2020-06-17T07:36:01Z</time>
      </trkpt>
      <trkpt lat="49.33694" lon="-0.65485">
        <ele>50.9</ele>
        <time>2020-06-17T07:36:02Z</time>
      </trkpt>
      <trkpt lat="49.33692" lon="-0.65476">
        <ele>50.7</ele>
        <time>2020-06-17T07:36:03Z</time>
      </trkpt>
      <trkpt lat="49.33688" lon="-0.65466">
        <ele>50.5</ele>
        <time>2020-06-17T07:36:04Z</time>
      </trkpt>
      <trkpt lat="49.33685" lon="-0.65455">
        <ele>50.3</ele>
        <time>2020-06-17T07:36:05Z</time>
      </trkpt>
      <trkpt lat="49.33683" lon="-0.65444">
        <ele>50.1</ele>
        <time>2020-06-17T07:36:06Z</time>
      </trkpt>
      <trkpt lat="49.33682" lon="-0.65435">
        <ele>49.9</ele>
        <time>2020-06-17T07:36:07Z</time>
      </trkpt>
      <trkpt lat="49.33681" lon="-0.65425">
        <ele>49.7</ele>
        <time>2020-06-17T07:36:08Z</time>
      </trkpt>
      <trkpt lat="49.33681" lon="-0.65411">
        <ele>49.5</ele>
        <time>2020-06-17T07:36:09Z</time>
      </trkpt>
      <trkpt lat="49.33681" lon="-0.65395">
        <ele>49.4</ele>
        <time>2020-06-17T07:36:10Z</time>
      </trkpt>
      <trkpt lat="49.33681" lon="-0.6538">
        <ele>49.3</ele>
        <time>2020-06-17T07:36:11Z</time>
      </trkpt>
      <trkpt lat="49.33683" lon="-0.65365">
        <ele>49.2</ele>
        <time>2020-06-17T07:36:12Z</time>
      </trkpt>
      <trkpt lat="49.33685" lon="-0.65352">
        <ele>49.1</ele>
        <time>2020-06-17T07:36:13Z</time>
      </trkpt>
      <trkpt lat="49.33686" lon="-0.65339">
        <ele>49.1</ele>
        <time>2020-06-17T07:36:14Z</time>
      </trkpt>
      <trkpt lat="49.33687" lon="-0.65328">
        <ele>49</ele>
        <time>2020-06-17T07:36:15Z</time>
      </trkpt>
      <trkpt lat="49.33689" lon="-0.65318">
        <ele>49</ele>
        <time>2020-06-17T07:36:16Z</time>
      </trkpt>
      <trkpt lat="49.33691" lon="-0.65307">
        <ele>48.8</ele>
        <time>2020-06-17T07:36:17Z</time>
      </trkpt>
      <trkpt lat="49.33692" lon="-0.65294">
        <ele>48.6</ele>
        <time>2020-06-17T07:36:18Z</time>
      </trkpt>
      <trkpt lat="49.33693" lon="-0.65282">
        <ele>48.4</ele>
        <time>2020-06-17T07:36:19Z</time>
      </trkpt>
      <trkpt lat="49.33694" lon="-0.65271">
        <ele>48.3</ele>
        <time>2020-06-17T07:36:20Z</time>
      </trkpt>
      <trkpt lat="49.33694" lon="-0.65259">
        <ele>48</ele>
        <time>2020-06-17T07:36:21Z</time>
      </trkpt>
      <trkpt lat="49.33695" lon="-0.65247">
        <ele>47.8</ele>
        <time>2020-06-17T07:36:22Z</time>
      </trkpt>
      <trkpt lat="49.33696" lon="-0.65235">
        <ele>47.5</ele>
        <time>2020-06-17T07:36:23Z</time>
      </trkpt>
      <trkpt lat="49.33695" lon="-0.65221">
        <ele>47.2</ele>
        <time>2020-06-17T07:36:24Z</time>
      </trkpt>
      <trkpt lat="49.33696" lon="-0.65209">
        <ele>47</ele>
        <time>2020-06-17T07:36:25Z</time>
      </trkpt>
      <trkpt lat="49.33697" lon="-0.65196">
        <ele>46.7</ele>
        <time>2020-06-17T07:36:26Z</time>
      </trkpt>
      <trkpt lat="49.33699" lon="-0.65183">
        <ele>46.4</ele>
        <time>2020-06-17T07:36:27Z</time>
      </trkpt>
      <trkpt lat="49.337" lon="-0.65169">
        <ele>46.1</ele>
        <time>2020-06-17T07:36:28Z</time>
      </trkpt>
      <trkpt lat="49.337" lon="-0.65155">
        <ele>45.8</ele>
        <time>2020-06-17T07:36:29Z</time>
      </trkpt>
      <trkpt lat="49.33701" lon="-0.6514">
        <ele>45.5</ele>
        <time>2020-06-17T07:36:30Z</time>
      </trkpt>
      <trkpt lat="49.337" lon="-0.65128">
        <ele>45.4</ele>
        <time>2020-06-17T07:36:31Z</time>
      </trkpt>
      <trkpt lat="49.337" lon="-0.65115">
        <ele>45.3</ele>
        <time>2020-06-17T07:36:32Z</time>
      </trkpt>
      <trkpt lat="49.337" lon="-0.65102">
        <ele>45.2</ele>
        <time>2020-06-17T07:36:33Z</time>
      </trkpt>
      <trkpt lat="49.337" lon="-0.6509">
        <ele>45.3</ele>
        <time>2020-06-17T07:36:34Z</time>
      </trkpt>
      <trkpt lat="49.33699" lon="-0.65078">
        <ele>45.3</ele>
        <time>2020-06-17T07:36:35Z</time>
      </trkpt>
      <trkpt lat="49.33698" lon="-0.65068">
        <ele>45.4</ele>
        <time>2020-06-17T07:36:36Z</time>
      </trkpt>
      <trkpt lat="49.33698" lon="-0.65057">
        <ele>45.5</ele>
        <time>2020-06-17T07:36:37Z</time>
      </trkpt>
      <trkpt lat="49.33697" lon="-0.65046">
        <ele>45.7</ele>
        <time>2020-06-17T07:36:38Z</time>
      </trkpt>
      <trkpt lat="49.33695" lon="-0.65036">
        <ele>46</ele>
        <time>2020-06-17T07:36:39Z</time>
      </trkpt>
      <trkpt lat="49.33693" lon="-0.65026">
        <ele>46.2</ele>
        <time>2020-06-17T07:36:40Z</time>
      </trkpt>
      <trkpt lat="49.33691" lon="-0.65016">
        <ele>46.5</ele>
        <time>2020-06-17T07:36:41Z</time>
      </trkpt>
      <trkpt lat="49.33689" lon="-0.65008">
        <ele>46.7</ele>
        <time>2020-06-17T07:36:42Z</time>
      </trkpt>
      <trkpt lat="49.33687" lon="-0.64999">
        <ele>47</ele>
        <time>2020-06-17T07:36:43Z</time>
      </trkpt>
      <trkpt lat="49.33684" lon="-0.64991">
        <ele>47.2</ele>
        <time>2020-06-17T07:36:44Z</time>
      </trkpt>
      <trkpt lat="49.33682" lon="-0.64983">
        <ele>47.4</ele>
        <time>2020-06-17T07:36:45Z</time>
      </trkpt>
      <trkpt lat="49.3368" lon="-0.64976">
        <ele>47.7</ele>
        <time>2020-06-17T07:36:46Z</time>
      </trkpt>
      <trkpt lat="49.33678" lon="-0.64968">
        <ele>47.9</ele>
        <time>2020-06-17T07:36:47Z</time>
      </trkpt>
      <trkpt lat="49.33676" lon="-0.6496">
        <ele>48.2</ele>
        <time>2020-06-17T07:36:48Z</time>
      </trkpt>
      <trkpt lat="49.33674" lon="-0.64952">
        <ele>48.5</ele>
        <time>2020-06-17T07:36:49Z</time>
      </trkpt>
      <trkpt lat="49.33672" lon="-0.64945">
        <ele>48.8</ele>
        <time>2020-06-17T07:36:50Z</time>
      </trkpt>
      <trkpt lat="49.33671" lon="-0.6494">
        <ele>49</ele>
        <time>2020-06-17T07:36:51Z</time>
      </trkpt>
      <trkpt lat="49.3367" lon="-0.64934">
        <ele>49.2</ele>
        <time>2020-06-17T07:36:52Z</time>
      </trkpt>
      <trkpt lat="49.33669" lon="-0.64929">
        <ele>49.4</ele>
        <time>2020-06-17T07:36:53Z</time>
      </trkpt>
      <trkpt lat="49.33669" lon="-0.64924">
        <ele>49.6</ele>
        <time>2020-06-17T07:36:54Z</time>
      </trkpt>
      <trkpt lat="49.33669" lon="-0.64918">
        <ele>49.8</ele>
        <time>2020-06-17T07:36:55Z</time>
      </trkpt>
      <trkpt lat="49.3367" lon="-0.64911">
        <ele>50</ele>
        <time>2020-06-17T07:36:56Z</time>
      </trkpt>
      <trkpt lat="49.33671" lon="-0.64904">
        <ele>50.3</ele>
        <time>2020-06-17T07:36:57Z</time>
      </trkpt>
      <trkpt lat="49.33672" lon="-0.64897">
        <ele>50.6</ele>
        <time>2020-06-17T07:36:58Z</time>
      </trkpt>
      <trkpt lat="49.33673" lon="-0.6489">
        <ele>50.8</ele>
        <time>2020-06-17T07:36:59Z</time>
      </trkpt>
      <trkpt lat="49.33674" lon="-0.64884">
        <ele>51.1</ele>
        <time>2020-06-17T07:37:00Z</time>
      </trkpt>
      <trkpt lat="49.33675" lon="-0.64879">
        <ele>51.3</ele>
        <time>2020-06-17T07:37:01Z</time>
      </trkpt>
      <trkpt lat="49.33676" lon="-0.64874">
        <ele>51.5</ele>
        <time>2020-06-17T07:37:02Z</time>
      </trkpt>
      <trkpt lat="49.33677" lon="-0.64866">
        <ele>51.8</ele>
        <time>2020-06-17T07:37:03Z</time>
      </trkpt>
      <trkpt lat="49.33678" lon="-0.6486">
        <ele>52</ele>
        <time>2020-06-17T07:37:04Z</time>
      </trkpt>
      <trkpt lat="49.33679" lon="-0.64854">
        <ele>52.2</ele>
        <time>2020-06-17T07:37:05Z</time>
      </trkpt>
      <trkpt lat="49.3368" lon="-0.64849">
        <ele>52.4</ele>
        <time>2020-06-17T07:37:06Z</time>
      </trkpt>
      <trkpt lat="49.3368" lon="-0.64843">
        <ele>52.6</ele>
        <time>2020-06-17T07:37:07Z</time>
      </trkpt>
      <trkpt lat="49.3368" lon="-0.64837">
        <ele>52.7</ele>
        <time>2020-06-17T07:37:08Z</time>
      </trkpt>
      <trkpt lat="49.33679" lon="-0.64833">
        <ele>52.8</ele>
        <time>2020-06-17T07:37:09Z</time>
      </trkpt>
      <trkpt lat="49.33678" lon="-0.64829">
        <ele>53</ele>
        <time>2020-06-17T07:37:10Z</time>
      </trkpt>
      <trkpt lat="49.33676" lon="-0.64825">
        <ele>53.1</ele>
        <time>2020-06-17T07:37:11Z</time>
      </trkpt>
      <trkpt lat="49.33675" lon="-0.64821">
        <ele>53.2</ele>
        <time>2020-06-17T07:37:12Z</time>
      </trkpt>
      <trkpt lat="49.33674" lon="-0.64817">
        <ele>53.3</ele>
        <time>2020-06-17T07:37:13Z</time>
      </trkpt>
      <trkpt lat="49.33672" lon="-0.64813">
        <ele>53.4</ele>
        <time>2020-06-17T07:37:14Z</time>
      </trkpt>
      <trkpt lat="49.33671" lon="-0.64808">
        <ele>53.5</ele>
        <time>2020-06-17T07:37:15Z</time>
      </trkpt>
      <trkpt lat="49.33669" lon="-0.64803">
        <ele>53.6</ele>
        <time>2020-06-17T07:37:16Z</time>
      </trkpt>
      <trkpt lat="49.33669" lon="-0.64797">
        <ele>53.7</ele>
        <time>2020-06-17T07:37:17Z</time>
      </trkpt>
      <trkpt lat="49.33668" lon="-0.64792">
        <ele>53.8</ele>
        <time>2020-06-17T07:37:18Z</time>
      </trkpt>
      <trkpt lat="49.33668" lon="-0.64787">
        <ele>53.9</ele>
        <time>2020-06-17T07:37:19Z</time>
      </trkpt>
      <trkpt lat="49.33667" lon="-0.64781">
        <ele>54</ele>
        <time>2020-06-17T07:37:20Z</time>
      </trkpt>
      <trkpt lat="49.33666" lon="-0.64776">
        <ele>54.1</ele>
        <time>2020-06-17T07:37:21Z</time>
      </trkpt>
      <trkpt lat="49.33665" lon="-0.64769">
        <ele>54.2</ele>
        <time>2020-06-17T07:37:22Z</time>
      </trkpt>
      <trkpt lat="49.33665" lon="-0.64762">
        <ele>54.3</ele>
        <time>2020-06-17T07:37:23Z</time>
      </trkpt>
      <trkpt lat="49.33664" lon="-0.64754">
        <ele>54.4</ele>
        <time>2020-06-17T07:37:24Z</time>
      </trkpt>
      <trkpt lat="49.33663" lon="-0.64747">
        <ele>54.5</ele>
        <time>2020-06-17T07:37:25Z</time>
      </trkpt>
      <trkpt lat="49.33662" lon="-0.64739">
        <ele>54.6</ele>
        <time>2020-06-17T07:37:26Z</time>
      </trkpt>
      <trkpt lat="49.33661" lon="-0.64732">
        <ele>54.7</ele>
        <time>2020-06-17T07:37:27Z</time>
      </trkpt>
      <trkpt lat="49.3366" lon="-0.64726">
        <ele>54.7</ele>
        <time>2020-06-17T07:37:28Z</time>
      </trkpt>
      <trkpt lat="49.33659" lon="-0.64718">
        <ele>54.8</ele>
        <time>2020-06-17T07:37:29Z</time>
      </trkpt>
      <trkpt lat="49.33659" lon="-0.64712">
        <ele>54.9</ele>
        <time>2020-06-17T07:37:30Z</time>
      </trkpt>
      <trkpt lat="49.33659" lon="-0.64705">
        <ele>54.9</ele>
        <time>2020-06-17T07:37:31Z</time>
      </trkpt>
      <trkpt lat="49.33658" lon="-0.64699">
        <ele>54.9</ele>
        <time>2020-06-17T07:37:32Z</time>
      </trkpt>
      <trkpt lat="49.33658" lon="-0.64693">
        <ele>54.9</ele>
        <time>2020-06-17T07:37:33Z</time>
      </trkpt>
      <trkpt lat="49.33658" lon="-0.64687">
        <ele>55</ele>
        <time>2020-06-17T07:37:34Z</time>
      </trkpt>
      <trkpt lat="49.33658" lon="-0.6468">
        <ele>55</ele>
        <time>2020-06-17T07:37:35Z</time>
      </trkpt>
      <trkpt lat="49.33658" lon="-0.64673">
        <ele>55</ele>
        <time>2020-06-17T07:37:36Z</time>
      </trkpt>
      <trkpt lat="49.33658" lon="-0.64668">
        <ele>55</ele>
        <time>2020-06-17T07:37:37Z</time>
      </trkpt>
      <trkpt lat="49.33658" lon="-0.64663">
        <ele>55.1</ele>
        <time>2020-06-17T07:37:38Z</time>
      </trkpt>
      <trkpt lat="49.33658" lon="-0.64657">
        <ele>55.1</ele>
        <time>2020-06-17T07:37:39Z</time>
      </trkpt>
      <trkpt lat="49.3366" lon="-0.64649">
        <ele>55.1</ele>
        <time>2020-06-17T07:37:40Z</time>
      </trkpt>
      <trkpt lat="49.33661" lon="-0.64642">
        <ele>55.2</ele>
        <time>2020-06-17T07:37:41Z</time>
      </trkpt>
      <trkpt lat="49.33661" lon="-0.64635">
        <ele>55.2</ele>
        <time>2020-06-17T07:37:42Z</time>
      </trkpt>
      <trkpt lat="49.33662" lon="-0.64626">
        <ele>55.2</ele>
        <time>2020-06-17T07:37:43Z</time>
      </trkpt>
      <trkpt lat="49.3366" lon="-0.64616">
        <ele>55.2</ele>
        <time>2020-06-17T07:37:44Z</time>
      </trkpt>
      <trkpt lat="49.33657" lon="-0.64608">
        <ele>55.3</ele>
        <time>2020-06-17T07:37:45Z</time>
      </trkpt>
      <trkpt lat="49.33656" lon="-0.64599">
        <ele>55.3</ele>
        <time>2020-06-17T07:37:46Z</time>
      </trkpt>
      <trkpt lat="49.33654" lon="-0.6459">
        <ele>55.3</ele>
        <time>2020-06-17T07:37:47Z</time>
      </trkpt>
      <trkpt lat="49.33653" lon="-0.64583">
        <ele>55.3</ele>
        <time>2020-06-17T07:37:48Z</time>
      </trkpt>
      <trkpt lat="49.33652" lon="-0.64577">
        <ele>55.3</ele>
        <time>2020-06-17T07:37:49Z</time>
      </trkpt>
      <trkpt lat="49.33651" lon="-0.6457">
        <ele>55.3</ele>
        <time>2020-06-17T07:37:50Z</time>
      </trkpt>
      <trkpt lat="49.3365" lon="-0.64562">
        <ele>55.4</ele>
        <time>2020-06-17T07:37:51Z</time>
      </trkpt>
      <trkpt lat="49.33649" lon="-0.64554">
        <ele>55.4</ele>
        <time>2020-06-17T07:37:52Z</time>
      </trkpt>
      <trkpt lat="49.33647" lon="-0.64546">
        <ele>55.5</ele>
        <time>2020-06-17T07:37:53Z</time>
      </trkpt>
      <trkpt lat="49.33646" lon="-0.64537">
        <ele>55.6</ele>
        <time>2020-06-17T07:37:54Z</time>
      </trkpt>
      <trkpt lat="49.33644" lon="-0.64529">
        <ele>55.7</ele>
        <time>2020-06-17T07:37:55Z</time>
      </trkpt>
      <trkpt lat="49.33641" lon="-0.64521">
        <ele>55.7</ele>
        <time>2020-06-17T07:37:56Z</time>
      </trkpt>
      <trkpt lat="49.33639" lon="-0.64513">
        <ele>55.8</ele>
        <time>2020-06-17T07:37:57Z</time>
      </trkpt>
      <trkpt lat="49.33635" lon="-0.64505">
        <ele>55.9</ele>
        <time>2020-06-17T07:37:58Z</time>
      </trkpt>
      <trkpt lat="49.33632" lon="-0.64498">
        <ele>55.9</ele>
        <time>2020-06-17T07:37:59Z</time>
      </trkpt>
      <trkpt lat="49.3363" lon="-0.64491">
        <ele>56</ele>
        <time>2020-06-17T07:38:00Z</time>
      </trkpt>
      <trkpt lat="49.33629" lon="-0.64484">
        <ele>56</ele>
        <time>2020-06-17T07:38:01Z</time>
      </trkpt>
      <trkpt lat="49.33627" lon="-0.64478">
        <ele>56.1</ele>
        <time>2020-06-17T07:38:02Z</time>
      </trkpt>
      <trkpt lat="49.33626" lon="-0.64471">
        <ele>56.1</ele>
        <time>2020-06-17T07:38:03Z</time>
      </trkpt>
      <trkpt lat="49.33626" lon="-0.64463">
        <ele>56.2</ele>
        <time>2020-06-17T07:38:04Z</time>
      </trkpt>
      <trkpt lat="49.33626" lon="-0.64454">
        <ele>56.3</ele>
        <time>2020-06-17T07:38:05Z</time>
      </trkpt>
      <trkpt lat="49.33627" lon="-0.64445">
        <ele>56.3</ele>
        <time>2020-06-17T07:38:06Z</time>
      </trkpt>
      <trkpt lat="49.33629" lon="-0.64438">
        <ele>56.3</ele>
        <time>2020-06-17T07:38:07Z</time>
      </trkpt>
      <trkpt lat="49.33632" lon="-0.64431">
        <ele>56.3</ele>
        <time>2020-06-17T07:38:08Z</time>
      </trkpt>
      <trkpt lat="49.33635" lon="-0.64424">
        <ele>56.3</ele>
        <time>2020-06-17T07:38:09Z</time>
      </trkpt>
      <trkpt lat="49.33637" lon="-0.64417">
        <ele>56.3</ele>
        <time>2020-06-17T07:38:10Z</time>
      </trkpt>
      <trkpt lat="49.33639" lon="-0.64412">
        <ele>56.3</ele>
        <time>2020-06-17T07:38:11Z</time>
      </trkpt>
      <trkpt lat="49.33643" lon="-0.64406">
        <ele>56.3</ele>
        <time>2020-06-17T07:38:12Z</time>
      </trkpt>
      <trkpt lat="49.33646" lon="-0.64402">
        <ele>56.3</ele>
        <time>2020-06-17T07:38:13Z</time>
      </trkpt>
      <trkpt lat="49.33649" lon="-0.64397">
        <ele>56.4</ele>
        <time>2020-06-17T07:38:14Z</time>
      </trkpt>
      <trkpt lat="49.33652" lon="-0.64391">
        <ele>56.4</ele>
        <time>2020-06-17T07:38:15Z</time>
      </trkpt>
      <trkpt lat="49.33655" lon="-0.64384">
        <ele>56.4</ele>
        <time>2020-06-17T07:38:16Z</time>
      </trkpt>
      <trkpt lat="49.33656" lon="-0.64377">
        <ele>56.3</ele>
        <time>2020-06-17T07:38:17Z</time>
      </trkpt>
      <trkpt lat="49.33658" lon="-0.6437">
        <ele>56.3</ele>
        <time>2020-06-17T07:38:18Z</time>
      </trkpt>
      <trkpt lat="49.33661" lon="-0.64362">
        <ele>56.3</ele>
        <time>2020-06-17T07:38:19Z</time>
      </trkpt>
      <trkpt lat="49.33662" lon="-0.64355">
        <ele>56.3</ele>
        <time>2020-06-17T07:38:20Z</time>
      </trkpt>
      <trkpt lat="49.33662" lon="-0.64347">
        <ele>56.3</ele>
        <time>2020-06-17T07:38:21Z</time>
      </trkpt>
      <trkpt lat="49.33662" lon="-0.64339">
        <ele>56.3</ele>
        <time>2020-06-17T07:38:22Z</time>
      </trkpt>
      <trkpt lat="49.33663" lon="-0.64331">
        <ele>56.3</ele>
        <time>2020-06-17T07:38:23Z</time>
      </trkpt>
      <trkpt lat="49.33664" lon="-0.64323">
        <ele>56.3</ele>
        <time>2020-06-17T07:38:24Z</time>
      </trkpt>
      <trkpt lat="49.33663" lon="-0.64315">
        <ele>56.3</ele>
        <time>2020-06-17T07:38:25Z</time>
      </trkpt>
      <trkpt lat="49.33662" lon="-0.64307">
        <ele>56.2</ele>
        <time>2020-06-17T07:38:26Z</time>
      </trkpt>
      <trkpt lat="49.33661" lon="-0.643">
        <ele>56.2</ele>
        <time>2020-06-17T07:38:27Z</time>
      </trkpt>
      <trkpt lat="49.33659" lon="-0.64293">
        <ele>56.2</ele>
        <time>2020-06-17T07:38:28Z</time>
      </trkpt>
      <trkpt lat="49.33657" lon="-0.64287">
        <ele>56.2</ele>
        <time>2020-06-17T07:38:29Z</time>
      </trkpt>
      <trkpt lat="49.33655" lon="-0.6428">
        <ele>56.2</ele>
        <time>2020-06-17T07:38:30Z</time>
      </trkpt>
      <trkpt lat="49.33653" lon="-0.64274">
        <ele>56.1</ele>
        <time>2020-06-17T07:38:31Z</time>
      </trkpt>
      <trkpt lat="49.3365" lon="-0.64266">
        <ele>56.1</ele>
        <time>2020-06-17T07:38:32Z</time>
      </trkpt>
      <trkpt lat="49.33647" lon="-0.64259">
        <ele>56.1</ele>
        <time>2020-06-17T07:38:33Z</time>
      </trkpt>
      <trkpt lat="49.33644" lon="-0.64251">
        <ele>56</ele>
        <time>2020-06-17T07:38:34Z</time>
      </trkpt>
      <trkpt lat="49.33641" lon="-0.64241">
        <ele>56</ele>
        <time>2020-06-17T07:38:35Z</time>
      </trkpt>
      <trkpt lat="49.33639" lon="-0.64232">
        <ele>56</ele>
        <time>2020-06-17T07:38:36Z</time>
      </trkpt>
      <trkpt lat="49.33637" lon="-0.64223">
        <ele>56</ele>
        <time>2020-06-17T07:38:37Z</time>
      </trkpt>
      <trkpt lat="49.33635" lon="-0.64213">
        <ele>56</ele>
        <time>2020-06-17T07:38:38Z</time>
      </trkpt>
      <trkpt lat="49.33633" lon="-0.64204">
        <ele>56</ele>
        <time>2020-06-17T07:38:39Z</time>
      </trkpt>
      <trkpt lat="49.33631" lon="-0.64195">
        <ele>56</ele>
        <time>2020-06-17T07:38:40Z</time>
      </trkpt>
      <trkpt lat="49.33629" lon="-0.64186">
        <ele>56</ele>
        <time>2020-06-17T07:38:41Z</time>
      </trkpt>
      <trkpt lat="49.33627" lon="-0.64178">
        <ele>56</ele>
        <time>2020-06-17T07:38:42Z</time>
      </trkpt>
      <trkpt lat="49.33624" lon="-0.64171">
        <ele>55.9</ele>
        <time>2020-06-17T07:38:43Z</time>
      </trkpt>
      <trkpt lat="49.33621" lon="-0.64165">
        <ele>55.9</ele>
        <time>2020-06-17T07:38:44Z</time>
      </trkpt>
      <trkpt lat="49.33617" lon="-0.64159">
        <ele>55.9</ele>
        <time>2020-06-17T07:38:45Z</time>
      </trkpt>
      <trkpt lat="49.33613" lon="-0.64154">
        <ele>55.9</ele>
        <time>2020-06-17T07:38:46Z</time>
      </trkpt>
      <trkpt lat="49.3361" lon="-0.64149">
        <ele>55.8</ele>
        <time>2020-06-17T07:38:47Z</time>
      </trkpt>
      <trkpt lat="49.33607" lon="-0.64144">
        <ele>55.8</ele>
        <time>2020-06-17T07:38:48Z</time>
      </trkpt>
      <trkpt lat="49.33603" lon="-0.64139">
        <ele>55.8</ele>
        <time>2020-06-17T07:38:49Z</time>
      </trkpt>
      <trkpt lat="49.33601" lon="-0.64134">
        <ele>55.8</ele>
        <time>2020-06-17T07:38:50Z</time>
      </trkpt>
      <trkpt lat="49.33598" lon="-0.64129">
        <ele>55.8</ele>
        <time>2020-06-17T07:38:51Z</time>
      </trkpt>
      <trkpt lat="49.33594" lon="-0.64124">
        <ele>55.7</ele>
        <time>2020-06-17T07:38:52Z</time>
      </trkpt>
      <trkpt lat="49.3359" lon="-0.64119">
        <ele>55.7</ele>
        <time>2020-06-17T07:38:53Z</time>
      </trkpt>
      <trkpt lat="49.33586" lon="-0.64113">
        <ele>55.7</ele>
        <time>2020-06-17T07:38:54Z</time>
      </trkpt>
      <trkpt lat="49.33582" lon="-0.64106">
        <ele>55.7</ele>
        <time>2020-06-17T07:38:55Z</time>
      </trkpt>
      <trkpt lat="49.33579" lon="-0.64099">
        <ele>55.6</ele>
        <time>2020-06-17T07:38:56Z</time>
      </trkpt>
      <trkpt lat="49.33575" lon="-0.64093">
        <ele>55.6</ele>
        <time>2020-06-17T07:38:57Z</time>
      </trkpt>
      <trkpt lat="49.33573" lon="-0.64087">
        <ele>55.6</ele>
        <time>2020-06-17T07:38:58Z</time>
      </trkpt>
      <trkpt lat="49.33569" lon="-0.6408">
        <ele>55.5</ele>
        <time>2020-06-17T07:38:59Z</time>
      </trkpt>
      <trkpt lat="49.33566" lon="-0.64074">
        <ele>55.5</ele>
        <time>2020-06-17T07:39:00Z</time>
      </trkpt>
      <trkpt lat="49.33563" lon="-0.64066">
        <ele>55.4</ele>
        <time>2020-06-17T07:39:01Z</time>
      </trkpt>
      <trkpt lat="49.33559" lon="-0.64057">
        <ele>55.4</ele>
        <time>2020-06-17T07:39:02Z</time>
      </trkpt>
      <trkpt lat="49.33556" lon="-0.6405">
        <ele>55.4</ele>
        <time>2020-06-17T07:39:03Z</time>
      </trkpt>
      <trkpt lat="49.33553" lon="-0.64043">
        <ele>55.3</ele>
        <time>2020-06-17T07:39:04Z</time>
      </trkpt>
      <trkpt lat="49.3355" lon="-0.64035">
        <ele>55.3</ele>
        <time>2020-06-17T07:39:05Z</time>
      </trkpt>
      <trkpt lat="49.33547" lon="-0.64028">
        <ele>55.3</ele>
        <time>2020-06-17T07:39:06Z</time>
      </trkpt>
      <trkpt lat="49.33544" lon="-0.64023">
        <ele>55.3</ele>
        <time>2020-06-17T07:39:07Z</time>
      </trkpt>
      <trkpt lat="49.33541" lon="-0.64018">
        <ele>55.3</ele>
        <time>2020-06-17T07:39:08Z</time>
      </trkpt>
      <trkpt lat="49.33538" lon="-0.64012">
        <ele>55.2</ele>
        <time>2020-06-17T07:39:09Z</time>
      </trkpt>
      <trkpt lat="49.33535" lon="-0.64006">
        <ele>55.2</ele>
        <time>2020-06-17T07:39:10Z</time>
      </trkpt>
      <trkpt lat="49.33533" lon="-0.64">
        <ele>55.2</ele>
        <time>2020-06-17T07:39:11Z</time>
      </trkpt>
      <trkpt lat="49.33531" lon="-0.63994">
        <ele>55.2</ele>
        <time>2020-06-17T07:39:12Z</time>
      </trkpt>
      <trkpt lat="49.33529" lon="-0.63989">
        <ele>55.1</ele>
        <time>2020-06-17T07:39:13Z</time>
      </trkpt>
      <trkpt lat="49.33527" lon="-0.63981">
        <ele>55.1</ele>
        <time>2020-06-17T07:39:14Z</time>
      </trkpt>
      <trkpt lat="49.33526" lon="-0.63975">
        <ele>55.1</ele>
        <time>2020-06-17T07:39:15Z</time>
      </trkpt>
      <trkpt lat="49.33523" lon="-0.63969">
        <ele>55.1</ele>
        <time>2020-06-17T07:39:16Z</time>
      </trkpt>
      <trkpt lat="49.3352" lon="-0.63963">
        <ele>55</ele>
        <time>2020-06-17T07:39:17Z</time>
      </trkpt>
      <trkpt lat="49.33518" lon="-0.63955">
        <ele>55</ele>
        <time>2020-06-17T07:39:18Z</time>
      </trkpt>
      <trkpt lat="49.33514" lon="-0.63947">
        <ele>54.9</ele>
        <time>2020-06-17T07:39:19Z</time>
      </trkpt>
      <trkpt lat="49.33511" lon="-0.6394">
        <ele>54.8</ele>
        <time>2020-06-17T07:39:20Z</time>
      </trkpt>
      <trkpt lat="49.33508" lon="-0.63932">
        <ele>54.7</ele>
        <time>2020-06-17T07:39:21Z</time>
      </trkpt>
      <trkpt lat="49.33505" lon="-0.63924">
        <ele>54.6</ele>
        <time>2020-06-17T07:39:22Z</time>
      </trkpt>
      <trkpt lat="49.33501" lon="-0.63916">
        <ele>54.6</ele>
        <time>2020-06-17T07:39:23Z</time>
      </trkpt>
      <trkpt lat="49.33498" lon="-0.63908">
        <ele>54.5</ele>
        <time>2020-06-17T07:39:24Z</time>
      </trkpt>
      <trkpt lat="49.33494" lon="-0.639">
        <ele>54.4</ele>
        <time>2020-06-17T07:39:25Z</time>
      </trkpt>
      <trkpt lat="49.33491" lon="-0.63891">
        <ele>54.3</ele>
        <time>2020-06-17T07:39:26Z</time>
      </trkpt>
      <trkpt lat="49.33489" lon="-0.63882">
        <ele>54.3</ele>
        <time>2020-06-17T07:39:27Z</time>
      </trkpt>
      <trkpt lat="49.33487" lon="-0.63873">
        <ele>54.3</ele>
        <time>2020-06-17T07:39:28Z</time>
      </trkpt>
      <trkpt lat="49.33484" lon="-0.63865">
        <ele>54.2</ele>
        <time>2020-06-17T07:39:29Z</time>
      </trkpt>
      <trkpt lat="49.33481" lon="-0.63856">
        <ele>54.2</ele>
        <time>2020-06-17T07:39:30Z</time>
      </trkpt>
      <trkpt lat="49.33478" lon="-0.63847">
        <ele>54.2</ele>
        <time>2020-06-17T07:39:31Z</time>
      </trkpt>
      <trkpt lat="49.33474" lon="-0.63838">
        <ele>54.2</ele>
        <time>2020-06-17T07:39:32Z</time>
      </trkpt>
      <trkpt lat="49.33471" lon="-0.63829">
        <ele>54.2</ele>
        <time>2020-06-17T07:39:33Z</time>
      </trkpt>
      <trkpt lat="49.33469" lon="-0.63819">
        <ele>54.3</ele>
        <time>2020-06-17T07:39:34Z</time>
      </trkpt>
      <trkpt lat="49.33466" lon="-0.6381">
        <ele>54.3</ele>
        <time>2020-06-17T07:39:35Z</time>
      </trkpt>
      <trkpt lat="49.33464" lon="-0.63802">
        <ele>54.4</ele>
        <time>2020-06-17T07:39:36Z</time>
      </trkpt>
      <trkpt lat="49.33462" lon="-0.63793">
        <ele>54.5</ele>
        <time>2020-06-17T07:39:37Z</time>
      </trkpt>
      <trkpt lat="49.3346" lon="-0.63786">
        <ele>54.6</ele>
        <time>2020-06-17T07:39:38Z</time>
      </trkpt>
      <trkpt lat="49.33457" lon="-0.63778">
        <ele>54.6</ele>
        <time>2020-06-17T07:39:39Z</time>
      </trkpt>
      <trkpt lat="49.33455" lon="-0.6377">
        <ele>54.7</ele>
        <time>2020-06-17T07:39:40Z</time>
      </trkpt>
      <trkpt lat="49.33453" lon="-0.63761">
        <ele>54.8</ele>
        <time>2020-06-17T07:39:41Z</time>
      </trkpt>
      <trkpt lat="49.33451" lon="-0.63753">
        <ele>54.9</ele>
        <time>2020-06-17T07:39:42Z</time>
      </trkpt>
      <trkpt lat="49.33449" lon="-0.63745">
        <ele>55</ele>
        <time>2020-06-17T07:39:43Z</time>
      </trkpt>
      <trkpt lat="49.33447" lon="-0.63737">
        <ele>55.1</ele>
        <time>2020-06-17T07:39:44Z</time>
      </trkpt>
      <trkpt lat="49.33445" lon="-0.6373">
        <ele>55.2</ele>
        <time>2020-06-17T07:39:45Z</time>
      </trkpt>
      <trkpt lat="49.33443" lon="-0.63724">
        <ele>55.3</ele>
        <time>2020-06-17T07:39:46Z</time>
      </trkpt>
      <trkpt lat="49.33441" lon="-0.63716">
        <ele>55.4</ele>
        <time>2020-06-17T07:39:47Z</time>
      </trkpt>
      <trkpt lat="49.33438" lon="-0.63709">
        <ele>55.5</ele>
        <time>2020-06-17T07:39:48Z</time>
      </trkpt>
      <trkpt lat="49.33436" lon="-0.63701">
        <ele>55.7</ele>
        <time>2020-06-17T07:39:49Z</time>
      </trkpt>
      <trkpt lat="49.33434" lon="-0.63694">
        <ele>55.8</ele>
        <time>2020-06-17T07:39:50Z</time>
      </trkpt>
      <trkpt lat="49.33432" lon="-0.63688">
        <ele>55.9</ele>
        <time>2020-06-17T07:39:51Z</time>
      </trkpt>
      <trkpt lat="49.3343" lon="-0.63682">
        <ele>56</ele>
        <time>2020-06-17T07:39:52Z</time>
      </trkpt>
      <trkpt lat="49.33428" lon="-0.63676">
        <ele>56.1</ele>
        <time>2020-06-17T07:39:53Z</time>
      </trkpt>
      <trkpt lat="49.33426" lon="-0.63668">
        <ele>56.2</ele>
        <time>2020-06-17T07:39:54Z</time>
      </trkpt>
      <trkpt lat="49.33424" lon="-0.63662">
        <ele>56.2</ele>
        <time>2020-06-17T07:39:55Z</time>
      </trkpt>
      <trkpt lat="49.33421" lon="-0.63656">
        <ele>56.3</ele>
        <time>2020-06-17T07:39:56Z</time>
      </trkpt>
      <trkpt lat="49.33418" lon="-0.6365">
        <ele>56.3</ele>
        <time>2020-06-17T07:39:57Z</time>
      </trkpt>
      <trkpt lat="49.33415" lon="-0.63643">
        <ele>56.3</ele>
        <time>2020-06-17T07:39:58Z</time>
      </trkpt>
      <trkpt lat="49.33413" lon="-0.63637">
        <ele>56.3</ele>
        <time>2020-06-17T07:39:59Z</time>
      </trkpt>
      <trkpt lat="49.33409" lon="-0.6363">
        <ele>56.4</ele>
        <time>2020-06-17T07:40:00Z</time>
      </trkpt>
      <trkpt lat="49.33406" lon="-0.63621">
        <ele>56.4</ele>
        <time>2020-06-17T07:40:01Z</time>
      </trkpt>
      <trkpt lat="49.33403" lon="-0.63612">
        <ele>56.5</ele>
        <time>2020-06-17T07:40:02Z</time>
      </trkpt>
      <trkpt lat="49.33402" lon="-0.63606">
        <ele>56.5</ele>
        <time>2020-06-17T07:40:03Z</time>
      </trkpt>
      <trkpt lat="49.33403" lon="-0.636">
        <ele>56.5</ele>
        <time>2020-06-17T07:40:04Z</time>
      </trkpt>
      <trkpt lat="49.33405" lon="-0.63595">
        <ele>56.5</ele>
        <time>2020-06-17T07:40:05Z</time>
      </trkpt>
      <trkpt lat="49.3341" lon="-0.63591">
        <ele>56.7</ele>
        <time>2020-06-17T07:40:06Z</time>
      </trkpt>
      <trkpt lat="49.33414" lon="-0.63588">
        <ele>56.7</ele>
        <time>2020-06-17T07:40:07Z</time>
      </trkpt>
      <trkpt lat="49.33418" lon="-0.63586">
        <ele>56.7</ele>
        <time>2020-06-17T07:40:08Z</time>
      </trkpt>
      <trkpt lat="49.33422" lon="-0.63585">
        <ele>56.6</ele>
        <time>2020-06-17T07:40:09Z</time>
      </trkpt>
      <trkpt lat="49.33426" lon="-0.63584">
        <ele>56.4</ele>
        <time>2020-06-17T07:40:10Z</time>
      </trkpt>
      <trkpt lat="49.33431" lon="-0.63581">
        <ele>56.3</ele>
        <time>2020-06-17T07:40:11Z</time>
      </trkpt>
      <trkpt lat="49.33436" lon="-0.63579">
        <ele>56.2</ele>
        <time>2020-06-17T07:40:12Z</time>
      </trkpt>
      <trkpt lat="49.33442" lon="-0.63576">
        <ele>56.1</ele>
        <time>2020-06-17T07:40:13Z</time>
      </trkpt>
      <trkpt lat="49.33447" lon="-0.63572">
        <ele>56</ele>
        <time>2020-06-17T07:40:14Z</time>
      </trkpt>
      <trkpt lat="49.33453" lon="-0.63568">
        <ele>55.9</ele>
        <time>2020-06-17T07:40:15Z</time>
      </trkpt>
      <trkpt lat="49.33458" lon="-0.63565">
        <ele>55.9</ele>
        <time>2020-06-17T07:40:16Z</time>
      </trkpt>
      <trkpt lat="49.33463" lon="-0.6356">
        <ele>55.8</ele>
        <time>2020-06-17T07:40:17Z</time>
      </trkpt>
      <trkpt lat="49.33468" lon="-0.63554">
        <ele>55.7</ele>
        <time>2020-06-17T07:40:18Z</time>
      </trkpt>
      <trkpt lat="49.33473" lon="-0.63548">
        <ele>55.6</ele>
        <time>2020-06-17T07:40:19Z</time>
      </trkpt>
      <trkpt lat="49.33478" lon="-0.63541">
        <ele>55.5</ele>
        <time>2020-06-17T07:40:20Z</time>
      </trkpt>
      <trkpt lat="49.33483" lon="-0.63536">
        <ele>55.4</ele>
        <time>2020-06-17T07:40:21Z</time>
      </trkpt>
      <trkpt lat="49.33488" lon="-0.63529">
        <ele>55.3</ele>
        <time>2020-06-17T07:40:22Z</time>
      </trkpt>
      <trkpt lat="49.33493" lon="-0.63523">
        <ele>55.2</ele>
        <time>2020-06-17T07:40:23Z</time>
      </trkpt>
      <trkpt lat="49.33498" lon="-0.63517">
        <ele>55</ele>
        <time>2020-06-17T07:40:24Z</time>
      </trkpt>
      <trkpt lat="49.33503" lon="-0.6351">
        <ele>54.9</ele>
        <time>2020-06-17T07:40:25Z</time>
      </trkpt>
      <trkpt lat="49.33507" lon="-0.63503">
        <ele>54.8</ele>
        <time>2020-06-17T07:40:26Z</time>
      </trkpt>
      <trkpt lat="49.33512" lon="-0.63495">
        <ele>54.6</ele>
        <time>2020-06-17T07:40:27Z</time>
      </trkpt>
      <trkpt lat="49.33518" lon="-0.63486">
        <ele>54.3</ele>
        <time>2020-06-17T07:40:28Z</time>
      </trkpt>
      <trkpt lat="49.33523" lon="-0.63479">
        <ele>54.1</ele>
        <time>2020-06-17T07:40:29Z</time>
      </trkpt>
      <trkpt lat="49.33528" lon="-0.63471">
        <ele>53.8</ele>
        <time>2020-06-17T07:40:30Z</time>
      </trkpt>
      <trkpt lat="49.33534" lon="-0.63464">
        <ele>53.5</ele>
        <time>2020-06-17T07:40:31Z</time>
      </trkpt>
      <trkpt lat="49.33538" lon="-0.63457">
        <ele>53.2</ele>
        <time>2020-06-17T07:40:32Z</time>
      </trkpt>
      <trkpt lat="49.33542" lon="-0.63449">
        <ele>53</ele>
        <time>2020-06-17T07:40:33Z</time>
      </trkpt>
      <trkpt lat="49.33547" lon="-0.63441">
        <ele>52.6</ele>
        <time>2020-06-17T07:40:34Z</time>
      </trkpt>
      <trkpt lat="49.33552" lon="-0.63433">
        <ele>52.2</ele>
        <time>2020-06-17T07:40:35Z</time>
      </trkpt>
      <trkpt lat="49.33557" lon="-0.63426">
        <ele>51.8</ele>
        <time>2020-06-17T07:40:36Z</time>
      </trkpt>
      <trkpt lat="49.33562" lon="-0.63419">
        <ele>51.4</ele>
        <time>2020-06-17T07:40:37Z</time>
      </trkpt>
      <trkpt lat="49.33566" lon="-0.63412">
        <ele>51</ele>
        <time>2020-06-17T07:40:38Z</time>
      </trkpt>
      <trkpt lat="49.33571" lon="-0.63404">
        <ele>50.5</ele>
        <time>2020-06-17T07:40:39Z</time>
      </trkpt>
      <trkpt lat="49.33577" lon="-0.63396">
        <ele>50</ele>
        <time>2020-06-17T07:40:40Z</time>
      </trkpt>
      <trkpt lat="49.33582" lon="-0.63388">
        <ele>49.4</ele>
        <time>2020-06-17T07:40:41Z</time>
      </trkpt>
      <trkpt lat="49.33588" lon="-0.63378">
        <ele>48.7</ele>
        <time>2020-06-17T07:40:42Z</time>
      </trkpt>
      <trkpt lat="49.33595" lon="-0.63367">
        <ele>47.9</ele>
        <time>2020-06-17T07:40:43Z</time>
      </trkpt>
      <trkpt lat="49.33602" lon="-0.63357">
        <ele>47.1</ele>
        <time>2020-06-17T07:40:44Z</time>
      </trkpt>
      <trkpt lat="49.33608" lon="-0.63348">
        <ele>46.3</ele>
        <time>2020-06-17T07:40:45Z</time>
      </trkpt>
      <trkpt lat="49.33615" lon="-0.63338">
        <ele>45.5</ele>
        <time>2020-06-17T07:40:46Z</time>
      </trkpt>
      <trkpt lat="49.33623" lon="-0.63327">
        <ele>44.6</ele>
        <time>2020-06-17T07:40:47Z</time>
      </trkpt>
      <trkpt lat="49.33631" lon="-0.63317">
        <ele>43.8</ele>
        <time>2020-06-17T07:40:48Z</time>
      </trkpt>
      <trkpt lat="49.3364" lon="-0.63307">
        <ele>42.9</ele>
        <time>2020-06-17T07:40:49Z</time>
      </trkpt>
      <trkpt lat="49.33648" lon="-0.63297">
        <ele>42</ele>
        <time>2020-06-17T07:40:50Z</time>
      </trkpt>
      <trkpt lat="49.33656" lon="-0.63285">
        <ele>41</ele>
        <time>2020-06-17T07:40:51Z</time>
      </trkpt>
      <trkpt lat="49.33664" lon="-0.63272">
        <ele>39.9</ele>
        <time>2020-06-17T07:40:52Z</time>
      </trkpt>
      <trkpt lat="49.33671" lon="-0.6326">
        <ele>38.9</ele>
        <time>2020-06-17T07:40:53Z</time>
      </trkpt>
      <trkpt lat="49.3368" lon="-0.63249">
        <ele>37.9</ele>
        <time>2020-06-17T07:40:54Z</time>
      </trkpt>
      <trkpt lat="49.33688" lon="-0.63238">
        <ele>36.9</ele>
        <time>2020-06-17T07:40:55Z</time>
      </trkpt>
      <trkpt lat="49.33698" lon="-0.63227">
        <ele>35.8</ele>
        <time>2020-06-17T07:40:56Z</time>
      </trkpt>
      <trkpt lat="49.33708" lon="-0.63217">
        <ele>34.8</ele>
        <time>2020-06-17T07:40:57Z</time>
      </trkpt>
      <trkpt lat="49.33717" lon="-0.63207">
        <ele>33.7</ele>
        <time>2020-06-17T07:40:58Z</time>
      </trkpt>
      <trkpt lat="49.33728" lon="-0.63197">
        <ele>32.7</ele>
        <time>2020-06-17T07:40:59Z</time>
      </trkpt>
      <trkpt lat="49.33737" lon="-0.63187">
        <ele>31.7</ele>
        <time>2020-06-17T07:41:00Z</time>
      </trkpt>
      <trkpt lat="49.33747" lon="-0.63177">
        <ele>30.7</ele>
        <time>2020-06-17T07:41:01Z</time>
      </trkpt>
      <trkpt lat="49.33756" lon="-0.63168">
        <ele>29.7</ele>
        <time>2020-06-17T07:41:02Z</time>
      </trkpt>
      <trkpt lat="49.33766" lon="-0.63158">
        <ele>28.8</ele>
        <time>2020-06-17T07:41:03Z</time>
      </trkpt>
      <trkpt lat="49.33775" lon="-0.63148">
        <ele>28</ele>
        <time>2020-06-17T07:41:04Z</time>
      </trkpt>
      <trkpt lat="49.33785" lon="-0.63138">
        <ele>27.2</ele>
        <time>2020-06-17T07:41:05Z</time>
      </trkpt>
      <trkpt lat="49.33794" lon="-0.63127">
        <ele>26.4</ele>
        <time>2020-06-17T07:41:06Z</time>
      </trkpt>
      <trkpt lat="49.33802" lon="-0.63117">
        <ele>25.8</ele>
        <time>2020-06-17T07:41:07Z</time>
      </trkpt>
      <trkpt lat="49.3381" lon="-0.63107">
        <ele>25.2</ele>
        <time>2020-06-17T07:41:08Z</time>
      </trkpt>
      <trkpt lat="49.33818" lon="-0.63097">
        <ele>24.7</ele>
        <time>2020-06-17T07:41:09Z</time>
      </trkpt>
      <trkpt lat="49.33824" lon="-0.63088">
        <ele>24.4</ele>
        <time>2020-06-17T07:41:10Z</time>
      </trkpt>
      <trkpt lat="49.33829" lon="-0.63078">
        <ele>24.2</ele>
        <time>2020-06-17T07:41:11Z</time>
      </trkpt>
      <trkpt lat="49.33833" lon="-0.63069">
        <ele>23.9</ele>
        <time>2020-06-17T07:41:12Z</time>
      </trkpt>
      <trkpt lat="49.33836" lon="-0.63059">
        <ele>23.7</ele>
        <time>2020-06-17T07:41:13Z</time>
      </trkpt>
      <trkpt lat="49.33839" lon="-0.63049">
        <ele>23.4</ele>
        <time>2020-06-17T07:41:14Z</time>
      </trkpt>
      <trkpt lat="49.33841" lon="-0.63039">
        <ele>23.3</ele>
        <time>2020-06-17T07:41:15Z</time>
      </trkpt>
      <trkpt lat="49.33842" lon="-0.63029">
        <ele>23.1</ele>
        <time>2020-06-17T07:41:16Z</time>
      </trkpt>
      <trkpt lat="49.33842" lon="-0.63019">
        <ele>23</ele>
        <time>2020-06-17T07:41:17Z</time>
      </trkpt>
      <trkpt lat="49.33842" lon="-0.6301">
        <ele>22.4</ele>
        <time>2020-06-17T07:41:18Z</time>
      </trkpt>
      <trkpt lat="49.3384" lon="-0.63004">
        <ele>22.1</ele>
        <time>2020-06-17T07:41:19Z</time>
      </trkpt>
      <trkpt lat="49.33839" lon="-0.62999">
        <ele>21.8</ele>
        <time>2020-06-17T07:41:20Z</time>
      </trkpt>
      <trkpt lat="49.3384" lon="-0.62993">
        <ele>21.6</ele>
        <time>2020-06-17T07:41:21Z</time>
      </trkpt>
      <trkpt lat="49.3384" lon="-0.62991">
        <ele>21.5</ele>
        <time>2020-06-17T07:41:22Z</time>
      </trkpt>
      <trkpt lat="49.3384" lon="-0.62988">
        <ele>21.3</ele>
        <time>2020-06-17T07:41:23Z</time>
      </trkpt>
      <trkpt lat="49.33841" lon="-0.62987">
        <ele>21.3</ele>
        <time>2020-06-17T07:41:24Z</time>
      </trkpt>
      <trkpt lat="49.33842" lon="-0.62988">
        <ele>21.3</ele>
        <time>2020-06-17T07:41:25Z</time>
      </trkpt>
      <trkpt lat="49.33842" lon="-0.62989">
        <ele>21.2</ele>
        <time>2020-06-17T07:41:26Z</time>
      </trkpt>
      <trkpt lat="49.33842" lon="-0.6299">
        <ele>21.1</ele>
        <time>2020-06-17T07:41:27Z</time>
      </trkpt>
      <trkpt lat="49.33842" lon="-0.6299">
        <ele>21.1</ele>
        <time>2020-06-17T07:41:28Z</time>
      </trkpt>
      <trkpt lat="49.33843" lon="-0.6299">
        <ele>21</ele>
        <time>2020-06-17T07:41:29Z</time>
      </trkpt>
      <trkpt lat="49.33843" lon="-0.62991">
        <ele>21</ele>
        <time>2020-06-17T07:41:30Z</time>
      </trkpt>
      <trkpt lat="49.33844" lon="-0.62992">
        <ele>20.9</ele>
        <time>2020-06-17T07:41:31Z</time>
      </trkpt>
      <trkpt lat="49.33844" lon="-0.62995">
        <ele>20.8</ele>
        <time>2020-06-17T07:41:32Z</time>
      </trkpt>
      <trkpt lat="49.33846" lon="-0.62999">
        <ele>20.6</ele>
        <time>2020-06-17T07:41:33Z</time>
      </trkpt>
      <trkpt lat="49.33846" lon="-0.63001">
        <ele>20.5</ele>
        <time>2020-06-17T07:41:34Z</time>
      </trkpt>
      <trkpt lat="49.33847" lon="-0.63001">
        <ele>20.4</ele>
        <time>2020-06-17T07:41:35Z</time>
      </trkpt>
      <trkpt lat="49.33848" lon="-0.63">
        <ele>20.4</ele>
        <time>2020-06-17T07:41:36Z</time>
      </trkpt>
      <trkpt lat="49.33849" lon="-0.62998">
        <ele>20.3</ele>
        <time>2020-06-17T07:41:37Z</time>
      </trkpt>
      <trkpt lat="49.33852" lon="-0.62996">
        <ele>20.1</ele>
        <time>2020-06-17T07:41:38Z</time>
      </trkpt>
      <trkpt lat="49.33853" lon="-0.62994">
        <ele>20</ele>
        <time>2020-06-17T07:41:39Z</time>
      </trkpt>
      <trkpt lat="49.33856" lon="-0.62991">
        <ele>19.8</ele>
        <time>2020-06-17T07:41:40Z</time>
      </trkpt>
      <trkpt lat="49.33857" lon="-0.6299">
        <ele>19.7</ele>
        <time>2020-06-17T07:41:41Z</time>
      </trkpt>
      <trkpt lat="49.3386" lon="-0.62987">
        <ele>19.5</ele>
        <time>2020-06-17T07:41:42Z</time>
      </trkpt>
      <trkpt lat="49.33863" lon="-0.62986">
        <ele>19.3</ele>
        <time>2020-06-17T07:41:43Z</time>
      </trkpt>
      <trkpt lat="49.33865" lon="-0.62984">
        <ele>19.1</ele>
        <time>2020-06-17T07:41:44Z</time>
      </trkpt>
      <trkpt lat="49.33869" lon="-0.62983">
        <ele>18.9</ele>
        <time>2020-06-17T07:41:45Z</time>
      </trkpt>
      <trkpt lat="49.3387" lon="-0.62982">
        <ele>18.9</ele>
        <time>2020-06-17T07:41:46Z</time>
      </trkpt>
      <trkpt lat="49.33873" lon="-0.62981">
        <ele>18.7</ele>
        <time>2020-06-17T07:41:47Z</time>
      </trkpt>
      <trkpt lat="49.33874" lon="-0.6298">
        <ele>18.6</ele>
        <time>2020-06-17T07:41:48Z</time>
      </trkpt>
      <trkpt lat="49.33876" lon="-0.62978">
        <ele>18.5</ele>
        <time>2020-06-17T07:41:49Z</time>
      </trkpt>
      <trkpt lat="49.33879" lon="-0.62974">
        <ele>18.3</ele>
        <time>2020-06-17T07:41:50Z</time>
      </trkpt>
      <trkpt lat="49.33882" lon="-0.62971">
        <ele>18.1</ele>
        <time>2020-06-17T07:41:51Z</time>
      </trkpt>
      <trkpt lat="49.33886" lon="-0.62967">
        <ele>17.9</ele>
        <time>2020-06-17T07:41:52Z</time>
      </trkpt>
      <trkpt lat="49.33889" lon="-0.62963">
        <ele>17.7</ele>
        <time>2020-06-17T07:41:53Z</time>
      </trkpt>
      <trkpt lat="49.33893" lon="-0.62958">
        <ele>17.4</ele>
        <time>2020-06-17T07:41:54Z</time>
      </trkpt>
      <trkpt lat="49.33898" lon="-0.62952">
        <ele>17.2</ele>
        <time>2020-06-17T07:41:55Z</time>
      </trkpt>
      <trkpt lat="49.33902" lon="-0.62946">
        <ele>17</ele>
        <time>2020-06-17T07:41:56Z</time>
      </trkpt>
      <trkpt lat="49.33906" lon="-0.6294">
        <ele>16.7</ele>
        <time>2020-06-17T07:41:57Z</time>
      </trkpt>
      <trkpt lat="49.3391" lon="-0.62935">
        <ele>16.5</ele>
        <time>2020-06-17T07:41:58Z</time>
      </trkpt>
      <trkpt lat="49.33915" lon="-0.6293">
        <ele>16.3</ele>
        <time>2020-06-17T07:41:59Z</time>
      </trkpt>
      <trkpt lat="49.3392" lon="-0.62924">
        <ele>16</ele>
        <time>2020-06-17T07:42:00Z</time>
      </trkpt>
      <trkpt lat="49.33924" lon="-0.62918">
        <ele>15.8</ele>
        <time>2020-06-17T07:42:01Z</time>
      </trkpt>
      <trkpt lat="49.33929" lon="-0.62911">
        <ele>15.5</ele>
        <time>2020-06-17T07:42:02Z</time>
      </trkpt>
      <trkpt lat="49.33934" lon="-0.62904">
        <ele>15.2</ele>
        <time>2020-06-17T07:42:03Z</time>
      </trkpt>
      <trkpt lat="49.33939" lon="-0.62898">
        <ele>14.9</ele>
        <time>2020-06-17T07:42:04Z</time>
      </trkpt>
      <trkpt lat="49.33944" lon="-0.62891">
        <ele>14.6</ele>
        <time>2020-06-17T07:42:05Z</time>
      </trkpt>
      <trkpt lat="49.33949" lon="-0.62883">
        <ele>14.3</ele>
        <time>2020-06-17T07:42:06Z</time>
      </trkpt>
      <trkpt lat="49.33955" lon="-0.62877">
        <ele>14</ele>
        <time>2020-06-17T07:42:07Z</time>
      </trkpt>
      <trkpt lat="49.33961" lon="-0.62871">
        <ele>13.7</ele>
        <time>2020-06-17T07:42:08Z</time>
      </trkpt>
      <trkpt lat="49.33967" lon="-0.62864">
        <ele>13.4</ele>
        <time>2020-06-17T07:42:09Z</time>
      </trkpt>
      <trkpt lat="49.33973" lon="-0.62857">
        <ele>13.2</ele>
        <time>2020-06-17T07:42:10Z</time>
      </trkpt>
      <trkpt lat="49.33979" lon="-0.6285">
        <ele>13</ele>
        <time>2020-06-17T07:42:11Z</time>
      </trkpt>
      <trkpt lat="49.33985" lon="-0.62842">
        <ele>12.7</ele>
        <time>2020-06-17T07:42:12Z</time>
      </trkpt>
      <trkpt lat="49.3399" lon="-0.62835">
        <ele>12.5</ele>
        <time>2020-06-17T07:42:13Z</time>
      </trkpt>
      <trkpt lat="49.33996" lon="-0.62828">
        <ele>12.3</ele>
        <time>2020-06-17T07:42:14Z</time>
      </trkpt>
      <trkpt lat="49.34002" lon="-0.62821">
        <ele>12.1</ele>
        <time>2020-06-17T07:42:15Z</time>
      </trkpt>
      <trkpt lat="49.34007" lon="-0.62814">
        <ele>11.9</ele>
        <time>2020-06-17T07:42:16Z</time>
      </trkpt>
      <trkpt lat="49.34012" lon="-0.62807">
        <ele>11.8</ele>
        <time>2020-06-17T07:42:17Z</time>
      </trkpt>
      <trkpt lat="49.34017" lon="-0.628">
        <ele>11.6</ele>
        <time>2020-06-17T07:42:18Z</time>
      </trkpt>
      <trkpt lat="49.34021" lon="-0.62793">
        <ele>11.4</ele>
        <time>2020-06-17T07:42:19Z</time>
      </trkpt>
      <trkpt lat="49.34025" lon="-0.62785">
        <ele>11.2</ele>
        <time>2020-06-17T07:42:20Z</time>
      </trkpt>
      <trkpt lat="49.34028" lon="-0.62778">
        <ele>11.1</ele>
        <time>2020-06-17T07:42:21Z</time>
      </trkpt>
      <trkpt lat="49.3403" lon="-0.62771">
        <ele>10.9</ele>
        <time>2020-06-17T07:42:22Z</time>
      </trkpt>
      <trkpt lat="49.3403" lon="-0.62764">
        <ele>10.8</ele>
        <time>2020-06-17T07:42:23Z</time>
      </trkpt>
      <trkpt lat="49.34029" lon="-0.62757">
        <ele>10.6</ele>
        <time>2020-06-17T07:42:24Z</time>
      </trkpt>
      <trkpt lat="49.34026" lon="-0.62752">
        <ele>10.5</ele>
        <time>2020-06-17T07:42:25Z</time>
      </trkpt>
      <trkpt lat="49.34024" lon="-0.62747">
        <ele>10.4</ele>
        <time>2020-06-17T07:42:26Z</time>
      </trkpt>
      <trkpt lat="49.34021" lon="-0.62739">
        <ele>10.1</ele>
        <time>2020-06-17T07:42:27Z</time>
      </trkpt>
      <trkpt lat="49.34015" lon="-0.6273">
        <ele>9.9</ele>
        <time>2020-06-17T07:42:28Z</time>
      </trkpt>
      <trkpt lat="49.3401" lon="-0.62721">
        <ele>9.6</ele>
        <time>2020-06-17T07:42:29Z</time>
      </trkpt>
      <trkpt lat="49.34004" lon="-0.62713">
        <ele>9.3</ele>
        <time>2020-06-17T07:42:30Z</time>
      </trkpt>
      <trkpt lat="49.33998" lon="-0.62704">
        <ele>9</ele>
        <time>2020-06-17T07:42:31Z</time>
      </trkpt>
      <trkpt lat="49.33994" lon="-0.62695">
        <ele>8.8</ele>
        <time>2020-06-17T07:42:32Z</time>
      </trkpt>
      <trkpt lat="49.33989" lon="-0.62686">
        <ele>8.6</ele>
        <time>2020-06-17T07:42:33Z</time>
      </trkpt>
      <trkpt lat="49.33983" lon="-0.62677">
        <ele>8.4</ele>
        <time>2020-06-17T07:42:34Z</time>
      </trkpt>
      <trkpt lat="49.33979" lon="-0.62668">
        <ele>8.1</ele>
        <time>2020-06-17T07:42:35Z</time>
      </trkpt>
      <trkpt lat="49.33975" lon="-0.62659">
        <ele>7.8</ele>
        <time>2020-06-17T07:42:36Z</time>
      </trkpt>
      <trkpt lat="49.33971" lon="-0.6265">
        <ele>7.7</ele>
        <time>2020-06-17T07:42:37Z</time>
      </trkpt>
      <trkpt lat="49.33967" lon="-0.62641">
        <ele>7.5</ele>
        <time>2020-06-17T07:42:38Z</time>
      </trkpt>
      <trkpt lat="49.33964" lon="-0.6263">
        <ele>7.4</ele>
        <time>2020-06-17T07:42:39Z</time>
      </trkpt>
      <trkpt lat="49.33962" lon="-0.6262">
        <ele>7.3</ele>
        <time>2020-06-17T07:42:40Z</time>
      </trkpt>
      <trkpt lat="49.33961" lon="-0.62609">
        <ele>7.2</ele>
        <time>2020-06-17T07:42:41Z</time>
      </trkpt>
      <trkpt lat="49.33959" lon="-0.62598">
        <ele>7.1</ele>
        <time>2020-06-17T07:42:42Z</time>
      </trkpt>
      <trkpt lat="49.33958" lon="-0.62587">
        <ele>7.1</ele>
        <time>2020-06-17T07:42:43Z</time>
      </trkpt>
      <trkpt lat="49.33958" lon="-0.62578">
        <ele>7</ele>
        <time>2020-06-17T07:42:44Z</time>
      </trkpt>
      <trkpt lat="49.33958" lon="-0.62568">
        <ele>7</ele>
        <time>2020-06-17T07:42:45Z</time>
      </trkpt>
      <trkpt lat="49.33957" lon="-0.62559">
        <ele>7</ele>
        <time>2020-06-17T07:42:46Z</time>
      </trkpt>
      <trkpt lat="49.33958" lon="-0.62549">
        <ele>6.9</ele>
        <time>2020-06-17T07:42:47Z</time>
      </trkpt>
      <trkpt lat="49.33957" lon="-0.6254">
        <ele>6.9</ele>
        <time>2020-06-17T07:42:48Z</time>
      </trkpt>
      <trkpt lat="49.33958" lon="-0.62531">
        <ele>6.9</ele>
        <time>2020-06-17T07:42:49Z</time>
      </trkpt>
      <trkpt lat="49.33958" lon="-0.62522">
        <ele>6.9</ele>
        <time>2020-06-17T07:42:50Z</time>
      </trkpt>
      <trkpt lat="49.33959" lon="-0.62514">
        <ele>6.9</ele>
        <time>2020-06-17T07:42:51Z</time>
      </trkpt>
      <trkpt lat="49.3396" lon="-0.62507">
        <ele>6.9</ele>
        <time>2020-06-17T07:42:52Z</time>
      </trkpt>
      <trkpt lat="49.33961" lon="-0.62499">
        <ele>6.9</ele>
        <time>2020-06-17T07:42:53Z</time>
      </trkpt>
      <trkpt lat="49.33963" lon="-0.62492">
        <ele>6.9</ele>
        <time>2020-06-17T07:42:54Z</time>
      </trkpt>
      <trkpt lat="49.33964" lon="-0.62484">
        <ele>6.9</ele>
        <time>2020-06-17T07:42:55Z</time>
      </trkpt>
      <trkpt lat="49.33965" lon="-0.62477">
        <ele>6.9</ele>
        <time>2020-06-17T07:42:56Z</time>
      </trkpt>
      <trkpt lat="49.33966" lon="-0.62469">
        <ele>6.9</ele>
        <time>2020-06-17T07:42:57Z</time>
      </trkpt>
      <trkpt lat="49.33967" lon="-0.62462">
        <ele>6.9</ele>
        <time>2020-06-17T07:42:58Z</time>
      </trkpt>
      <trkpt lat="49.33969" lon="-0.62455">
        <ele>7</ele>
        <time>2020-06-17T07:42:59Z</time>
      </trkpt>
      <trkpt lat="49.3397" lon="-0.62448">
        <ele>7</ele>
        <time>2020-06-17T07:43:00Z</time>
      </trkpt>
      <trkpt lat="49.33972" lon="-0.6244">
        <ele>7</ele>
        <time>2020-06-17T07:43:01Z</time>
      </trkpt>
      <trkpt lat="49.33974" lon="-0.62434">
        <ele>7</ele>
        <time>2020-06-17T07:43:02Z</time>
      </trkpt>
      <trkpt lat="49.33975" lon="-0.62427">
        <ele>7.1</ele>
        <time>2020-06-17T07:43:03Z</time>
      </trkpt>
      <trkpt lat="49.33976" lon="-0.6242">
        <ele>7.1</ele>
        <time>2020-06-17T07:43:04Z</time>
      </trkpt>
      <trkpt lat="49.33978" lon="-0.62414">
        <ele>7.1</ele>
        <time>2020-06-17T07:43:05Z</time>
      </trkpt>
      <trkpt lat="49.33981" lon="-0.62409">
        <ele>7.2</ele>
        <time>2020-06-17T07:43:06Z</time>
      </trkpt>
      <trkpt lat="49.33983" lon="-0.62403">
        <ele>7.2</ele>
        <time>2020-06-17T07:43:07Z</time>
      </trkpt>
      <trkpt lat="49.33985" lon="-0.62397">
        <ele>7.2</ele>
        <time>2020-06-17T07:43:08Z</time>
      </trkpt>
      <trkpt lat="49.33987" lon="-0.62391">
        <ele>7.3</ele>
        <time>2020-06-17T07:43:09Z</time>
      </trkpt>
      <trkpt lat="49.33988" lon="-0.62385">
        <ele>7.3</ele>
        <time>2020-06-17T07:43:10Z</time>
      </trkpt>
      <trkpt lat="49.3399" lon="-0.62378">
        <ele>7.4</ele>
        <time>2020-06-17T07:43:11Z</time>
      </trkpt>
      <trkpt lat="49.3399" lon="-0.62371">
        <ele>7.5</ele>
        <time>2020-06-17T07:43:12Z</time>
      </trkpt>
      <trkpt lat="49.3399" lon="-0.62367">
        <ele>7.5</ele>
        <time>2020-06-17T07:43:13Z</time>
      </trkpt>
      <trkpt lat="49.33989" lon="-0.62366">
        <ele>7.6</ele>
        <time>2020-06-17T07:43:14Z</time>
      </trkpt>
      <trkpt lat="49.33986" lon="-0.62366">
        <ele>7.5</ele>
        <time>2020-06-17T07:43:15Z</time>
      </trkpt>
      <trkpt lat="49.33985" lon="-0.62366">
        <ele>7.5</ele>
        <time>2020-06-17T07:43:16Z</time>
      </trkpt>
      <trkpt lat="49.3398" lon="-0.62369">
        <ele>7.5</ele>
        <time>2020-06-17T07:43:17Z</time>
      </trkpt>
      <trkpt lat="49.33976" lon="-0.6237">
        <ele>7.5</ele>
        <time>2020-06-17T07:43:18Z</time>
      </trkpt>
      <trkpt lat="49.33971" lon="-0.62371">
        <ele>7.5</ele>
        <time>2020-06-17T07:43:19Z</time>
      </trkpt>
      <trkpt lat="49.33966" lon="-0.62371">
        <ele>7.5</ele>
        <time>2020-06-17T07:43:20Z</time>
      </trkpt>
      <trkpt lat="49.33962" lon="-0.62371">
        <ele>7.5</ele>
        <time>2020-06-17T07:43:21Z</time>
      </trkpt>
      <trkpt lat="49.33958" lon="-0.62371">
        <ele>7.5</ele>
        <time>2020-06-17T07:43:22Z</time>
      </trkpt>
      <trkpt lat="49.33954" lon="-0.62371">
        <ele>7.6</ele>
        <time>2020-06-17T07:43:23Z</time>
      </trkpt>
      <trkpt lat="49.3395" lon="-0.62372">
        <ele>7.6</ele>
        <time>2020-06-17T07:43:24Z</time>
      </trkpt>
      <trkpt lat="49.33945" lon="-0.62372">
        <ele>7.7</ele>
        <time>2020-06-17T07:43:25Z</time>
      </trkpt>
      <trkpt lat="49.3394" lon="-0.62372">
        <ele>7.7</ele>
        <time>2020-06-17T07:43:26Z</time>
      </trkpt>
      <trkpt lat="49.33936" lon="-0.62371">
        <ele>7.8</ele>
        <time>2020-06-17T07:43:27Z</time>
      </trkpt>
      <trkpt lat="49.33931" lon="-0.62372">
        <ele>7.8</ele>
        <time>2020-06-17T07:43:28Z</time>
      </trkpt>
      <trkpt lat="49.33927" lon="-0.62374">
        <ele>7.9</ele>
        <time>2020-06-17T07:43:29Z</time>
      </trkpt>
      <trkpt lat="49.33922" lon="-0.62376">
        <ele>8</ele>
        <time>2020-06-17T07:43:30Z</time>
      </trkpt>
      <trkpt lat="49.33918" lon="-0.62379">
        <ele>8.1</ele>
        <time>2020-06-17T07:43:31Z</time>
      </trkpt>
      <trkpt lat="49.33914" lon="-0.6238">
        <ele>8.2</ele>
        <time>2020-06-17T07:43:32Z</time>
      </trkpt>
      <trkpt lat="49.3391" lon="-0.62382">
        <ele>8.4</ele>
        <time>2020-06-17T07:43:33Z</time>
      </trkpt>
      <trkpt lat="49.33906" lon="-0.62384">
        <ele>8.5</ele>
        <time>2020-06-17T07:43:34Z</time>
      </trkpt>
      <trkpt lat="49.33902" lon="-0.62386">
        <ele>8.7</ele>
        <time>2020-06-17T07:43:35Z</time>
      </trkpt>
      <trkpt lat="49.33898" lon="-0.62387">
        <ele>8.8</ele>
        <time>2020-06-17T07:43:36Z</time>
      </trkpt>
      <trkpt lat="49.33893" lon="-0.62387">
        <ele>9</ele>
        <time>2020-06-17T07:43:37Z</time>
      </trkpt>
      <trkpt lat="49.33889" lon="-0.62388">
        <ele>9.1</ele>
        <time>2020-06-17T07:43:38Z</time>
      </trkpt>
      <trkpt lat="49.33885" lon="-0.62388">
        <ele>9.2</ele>
        <time>2020-06-17T07:43:39Z</time>
      </trkpt>
      <trkpt lat="49.3388" lon="-0.6239">
        <ele>9.6</ele>
        <time>2020-06-17T07:43:40Z</time>
      </trkpt>
      <trkpt lat="49.33875" lon="-0.62391">
        <ele>10</ele>
        <time>2020-06-17T07:43:41Z</time>
      </trkpt>
      <trkpt lat="49.3387" lon="-0.62392">
        <ele>10.4</ele>
        <time>2020-06-17T07:43:42Z</time>
      </trkpt>
      <trkpt lat="49.33866" lon="-0.62394">
        <ele>10.8</ele>
        <time>2020-06-17T07:43:43Z</time>
      </trkpt>
      <trkpt lat="49.33861" lon="-0.62395">
        <ele>11.1</ele>
        <time>2020-06-17T07:43:44Z</time>
      </trkpt>
      <trkpt lat="49.33857" lon="-0.62396">
        <ele>11.5</ele>
        <time>2020-06-17T07:43:45Z</time>
      </trkpt>
      <trkpt lat="49.33852" lon="-0.62397">
        <ele>11.9</ele>
        <time>2020-06-17T07:43:46Z</time>
      </trkpt>
      <trkpt lat="49.33847" lon="-0.62397">
        <ele>12.2</ele>
        <time>2020-06-17T07:43:47Z</time>
      </trkpt>
      <trkpt lat="49.33843" lon="-0.62397">
        <ele>12.6</ele>
        <time>2020-06-17T07:43:48Z</time>
      </trkpt>
      <trkpt lat="49.33839" lon="-0.62396">
        <ele>12.7</ele>
        <time>2020-06-17T07:43:49Z</time>
      </trkpt>
      <trkpt lat="49.33835" lon="-0.62396">
        <ele>12.8</ele>
        <time>2020-06-17T07:43:50Z</time>
      </trkpt>
      <trkpt lat="49.33832" lon="-0.62396">
        <ele>12.8</ele>
        <time>2020-06-17T07:43:51Z</time>
      </trkpt>
      <trkpt lat="49.33828" lon="-0.62396">
        <ele>13.1</ele>
        <time>2020-06-17T07:43:52Z</time>
      </trkpt>
      <trkpt lat="49.33824" lon="-0.62397">
        <ele>13.3</ele>
        <time>2020-06-17T07:43:53Z</time>
      </trkpt>
      <trkpt lat="49.3382" lon="-0.62398">
        <ele>13.5</ele>
        <time>2020-06-17T07:43:54Z</time>
      </trkpt>
      <trkpt lat="49.33817" lon="-0.62398">
        <ele>13.6</ele>
        <time>2020-06-17T07:43:55Z</time>
      </trkpt>
      <trkpt lat="49.33813" lon="-0.62399">
        <ele>13.8</ele>
        <time>2020-06-17T07:43:56Z</time>
      </trkpt>
      <trkpt lat="49.33809" lon="-0.624">
        <ele>14.1</ele>
        <time>2020-06-17T07:43:57Z</time>
      </trkpt>
      <trkpt lat="49.33805" lon="-0.62401">
        <ele>14.3</ele>
        <time>2020-06-17T07:43:58Z</time>
      </trkpt>
      <trkpt lat="49.33802" lon="-0.62402">
        <ele>14.5</ele>
        <time>2020-06-17T07:43:59Z</time>
      </trkpt>
      <trkpt lat="49.33798" lon="-0.62403">
        <ele>14.7</ele>
        <time>2020-06-17T07:44:00Z</time>
      </trkpt>
      <trkpt lat="49.33795" lon="-0.62405">
        <ele>14.9</ele>
        <time>2020-06-17T07:44:01Z</time>
      </trkpt>
      <trkpt lat="49.33791" lon="-0.62406">
        <ele>15.1</ele>
        <time>2020-06-17T07:44:02Z</time>
      </trkpt>
      <trkpt lat="49.33788" lon="-0.62407">
        <ele>15.4</ele>
        <time>2020-06-17T07:44:03Z</time>
      </trkpt>
      <trkpt lat="49.33784" lon="-0.62409">
        <ele>15.6</ele>
        <time>2020-06-17T07:44:04Z</time>
      </trkpt>
      <trkpt lat="49.33781" lon="-0.62409">
        <ele>15.8</ele>
        <time>2020-06-17T07:44:05Z</time>
      </trkpt>
      <trkpt lat="49.33777" lon="-0.6241">
        <ele>16</ele>
        <time>2020-06-17T07:44:06Z</time>
      </trkpt>
      <trkpt lat="49.33774" lon="-0.6241">
        <ele>16.2</ele>
        <time>2020-06-17T07:44:07Z</time>
      </trkpt>
      <trkpt lat="49.33771" lon="-0.62409">
        <ele>16.4</ele>
        <time>2020-06-17T07:44:08Z</time>
      </trkpt>
      <trkpt lat="49.33767" lon="-0.62407">
        <ele>16.4</ele>
        <time>2020-06-17T07:44:09Z</time>
      </trkpt>
      <trkpt lat="49.33765" lon="-0.62404">
        <ele>16.5</ele>
        <time>2020-06-17T07:44:10Z</time>
      </trkpt>
      <trkpt lat="49.33764" lon="-0.624">
        <ele>16.5</ele>
        <time>2020-06-17T07:44:11Z</time>
      </trkpt>
      <trkpt lat="49.33763" lon="-0.62395">
        <ele>16.5</ele>
        <time>2020-06-17T07:44:12Z</time>
      </trkpt>
      <trkpt lat="49.33763" lon="-0.62391">
        <ele>16.5</ele>
        <time>2020-06-17T07:44:13Z</time>
      </trkpt>
      <trkpt lat="49.33762" lon="-0.62385">
        <ele>16.5</ele>
        <time>2020-06-17T07:44:14Z</time>
      </trkpt>
      <trkpt lat="49.33761" lon="-0.62382">
        <ele>16.5</ele>
        <time>2020-06-17T07:44:15Z</time>
      </trkpt>
      <trkpt lat="49.3376" lon="-0.62377">
        <ele>16.5</ele>
        <time>2020-06-17T07:44:16Z</time>
      </trkpt>
      <trkpt lat="49.33761" lon="-0.62371">
        <ele>16.5</ele>
        <time>2020-06-17T07:44:17Z</time>
      </trkpt>
      <trkpt lat="49.3376" lon="-0.62364">
        <ele>16.6</ele>
        <time>2020-06-17T07:44:18Z</time>
      </trkpt>
      <trkpt lat="49.33761" lon="-0.62358">
        <ele>16.6</ele>
        <time>2020-06-17T07:44:19Z</time>
      </trkpt>
      <trkpt lat="49.3376" lon="-0.62353">
        <ele>16.6</ele>
        <time>2020-06-17T07:44:20Z</time>
      </trkpt>
      <trkpt lat="49.3376" lon="-0.62348">
        <ele>16.7</ele>
        <time>2020-06-17T07:44:21Z</time>
      </trkpt>
      <trkpt lat="49.33759" lon="-0.62343">
        <ele>16.7</ele>
        <time>2020-06-17T07:44:22Z</time>
      </trkpt>
      <trkpt lat="49.3376" lon="-0.62338">
        <ele>16.7</ele>
        <time>2020-06-17T07:44:23Z</time>
      </trkpt>
      <trkpt lat="49.3376" lon="-0.62332">
        <ele>16.7</ele>
        <time>2020-06-17T07:44:24Z</time>
      </trkpt>
      <trkpt lat="49.3376" lon="-0.62328">
        <ele>16.8</ele>
        <time>2020-06-17T07:44:25Z</time>
      </trkpt>
      <trkpt lat="49.3376" lon="-0.62323">
        <ele>16.8</ele>
        <time>2020-06-17T07:44:26Z</time>
      </trkpt>
      <trkpt lat="49.3376" lon="-0.62317">
        <ele>16.8</ele>
        <time>2020-06-17T07:44:27Z</time>
      </trkpt>
      <trkpt lat="49.33759" lon="-0.62311">
        <ele>16.8</ele>
        <time>2020-06-17T07:44:28Z</time>
      </trkpt>
      <trkpt lat="49.33759" lon="-0.62306">
        <ele>16.9</ele>
        <time>2020-06-17T07:44:29Z</time>
      </trkpt>
      <trkpt lat="49.33758" lon="-0.62301">
        <ele>16.9</ele>
        <time>2020-06-17T07:44:30Z</time>
      </trkpt>
      <trkpt lat="49.33758" lon="-0.62297">
        <ele>16.9</ele>
        <time>2020-06-17T07:44:31Z</time>
      </trkpt>
      <trkpt lat="49.33758" lon="-0.62291">
        <ele>16.9</ele>
        <time>2020-06-17T07:44:32Z</time>
      </trkpt>
      <trkpt lat="49.33758" lon="-0.62288">
        <ele>16.9</ele>
        <time>2020-06-17T07:44:33Z</time>
      </trkpt>
      <trkpt lat="49.33759" lon="-0.62282">
        <ele>16.9</ele>
        <time>2020-06-17T07:44:34Z</time>
      </trkpt>
      <trkpt lat="49.33758" lon="-0.6228">
        <ele>16.9</ele>
        <time>2020-06-17T07:44:35Z</time>
      </trkpt>
      <trkpt lat="49.33756" lon="-0.62273">
        <ele>16.9</ele>
        <time>2020-06-17T07:44:36Z</time>
      </trkpt>
      <trkpt lat="49.33753" lon="-0.62269">
        <ele>16.9</ele>
        <time>2020-06-17T07:44:37Z</time>
      </trkpt>
      <trkpt lat="49.33752" lon="-0.62267">
        <ele>16.9</ele>
        <time>2020-06-17T07:44:38Z</time>
      </trkpt>
      <trkpt lat="49.3375" lon="-0.62264">
        <ele>16.9</ele>
        <time>2020-06-17T07:44:39Z</time>
      </trkpt>
      <trkpt lat="49.33749" lon="-0.62259">
        <ele>16.9</ele>
        <time>2020-06-17T07:44:40Z</time>
      </trkpt>
      <trkpt lat="49.33748" lon="-0.62252">
        <ele>16.9</ele>
        <time>2020-06-17T07:44:41Z</time>
      </trkpt>
      <trkpt lat="49.3375" lon="-0.62245">
        <ele>16.9</ele>
        <time>2020-06-17T07:44:42Z</time>
      </trkpt>
      <trkpt lat="49.33751" lon="-0.62238">
        <ele>16.8</ele>
        <time>2020-06-17T07:44:43Z</time>
      </trkpt>
      <trkpt lat="49.33751" lon="-0.62232">
        <ele>16.6</ele>
        <time>2020-06-17T07:44:44Z</time>
      </trkpt>
      <trkpt lat="49.33751" lon="-0.62224">
        <ele>16.4</ele>
        <time>2020-06-17T07:44:45Z</time>
      </trkpt>
      <trkpt lat="49.33751" lon="-0.62214">
        <ele>16.1</ele>
        <time>2020-06-17T07:44:46Z</time>
      </trkpt>
      <trkpt lat="49.33751" lon="-0.62204">
        <ele>15.8</ele>
        <time>2020-06-17T07:44:47Z</time>
      </trkpt>
      <trkpt lat="49.33752" lon="-0.62192">
        <ele>15.5</ele>
        <time>2020-06-17T07:44:48Z</time>
      </trkpt>
      <trkpt lat="49.33752" lon="-0.62182">
        <ele>15.3</ele>
        <time>2020-06-17T07:44:49Z</time>
      </trkpt>
      <trkpt lat="49.33752" lon="-0.62172">
        <ele>15.1</ele>
        <time>2020-06-17T07:44:50Z</time>
      </trkpt>
      <trkpt lat="49.33752" lon="-0.62163">
        <ele>15</ele>
        <time>2020-06-17T07:44:51Z</time>
      </trkpt>
      <trkpt lat="49.33753" lon="-0.62153">
        <ele>14.9</ele>
        <time>2020-06-17T07:44:52Z</time>
      </trkpt>
      <trkpt lat="49.33755" lon="-0.62144">
        <ele>14.8</ele>
        <time>2020-06-17T07:44:53Z</time>
      </trkpt>
      <trkpt lat="49.33755" lon="-0.62133">
        <ele>14.7</ele>
        <time>2020-06-17T07:44:54Z</time>
      </trkpt>
      <trkpt lat="49.33755" lon="-0.62124">
        <ele>14.7</ele>
        <time>2020-06-17T07:44:55Z</time>
      </trkpt>
      <trkpt lat="49.33755" lon="-0.62115">
        <ele>14.8</ele>
        <time>2020-06-17T07:44:56Z</time>
      </trkpt>
      <trkpt lat="49.33755" lon="-0.62107">
        <ele>14.9</ele>
        <time>2020-06-17T07:44:57Z</time>
      </trkpt>
      <trkpt lat="49.33754" lon="-0.621">
        <ele>15</ele>
        <time>2020-06-17T07:44:58Z</time>
      </trkpt>
      <trkpt lat="49.33754" lon="-0.62094">
        <ele>15.1</ele>
        <time>2020-06-17T07:44:59Z</time>
      </trkpt>
      <trkpt lat="49.33751" lon="-0.6209">
        <ele>15.2</ele>
        <time>2020-06-17T07:45:00Z</time>
      </trkpt>
      <trkpt lat="49.33748" lon="-0.62087">
        <ele>15.2</ele>
        <time>2020-06-17T07:45:01Z</time>
      </trkpt>
      <trkpt lat="49.33746" lon="-0.62084">
        <ele>15.3</ele>
        <time>2020-06-17T07:45:02Z</time>
      </trkpt>
      <trkpt lat="49.33745" lon="-0.62083">
        <ele>15.8</ele>
        <time>2020-06-17T07:45:03Z</time>
      </trkpt>
      <trkpt lat="49.33743" lon="-0.62083">
        <ele>15.9</ele>
        <time>2020-06-17T07:45:04Z</time>
      </trkpt>
      <trkpt lat="49.33742" lon="-0.62083">
        <ele>16</ele>
        <time>2020-06-17T07:45:05Z</time>
      </trkpt>
      <trkpt lat="49.33741" lon="-0.62084">
        <ele>16.1</ele>
        <time>2020-06-17T07:45:06Z</time>
      </trkpt>
      <trkpt lat="49.3374" lon="-0.62083">
        <ele>16.2</ele>
        <time>2020-06-17T07:45:07Z</time>
      </trkpt>
      <trkpt lat="49.33737" lon="-0.62084">
        <ele>16.4</ele>
        <time>2020-06-17T07:45:08Z</time>
      </trkpt>
      <trkpt lat="49.33736" lon="-0.62084">
        <ele>16.5</ele>
        <time>2020-06-17T07:45:09Z</time>
      </trkpt>
      <trkpt lat="49.33733" lon="-0.62086">
        <ele>16.7</ele>
        <time>2020-06-17T07:45:10Z</time>
      </trkpt>
      <trkpt lat="49.33732" lon="-0.62086">
        <ele>16.8</ele>
        <time>2020-06-17T07:45:11Z</time>
      </trkpt>
      <trkpt lat="49.33729" lon="-0.62087">
        <ele>17</ele>
        <time>2020-06-17T07:45:12Z</time>
      </trkpt>
      <trkpt lat="49.33728" lon="-0.62087">
        <ele>17.1</ele>
        <time>2020-06-17T07:45:13Z</time>
      </trkpt>
      <trkpt lat="49.33726" lon="-0.62088">
        <ele>17.3</ele>
        <time>2020-06-17T07:45:14Z</time>
      </trkpt>
      <trkpt lat="49.33725" lon="-0.62088">
        <ele>17.4</ele>
        <time>2020-06-17T07:45:15Z</time>
      </trkpt>
      <trkpt lat="49.33724" lon="-0.62089">
        <ele>17.5</ele>
        <time>2020-06-17T07:45:16Z</time>
      </trkpt>
      <trkpt lat="49.33721" lon="-0.62091">
        <ele>17.8</ele>
        <time>2020-06-17T07:45:17Z</time>
      </trkpt>
      <trkpt lat="49.3372" lon="-0.62091">
        <ele>17.9</ele>
        <time>2020-06-17T07:45:18Z</time>
      </trkpt>
      <trkpt lat="49.33717" lon="-0.62092">
        <ele>18.1</ele>
        <time>2020-06-17T07:45:19Z</time>
      </trkpt>
      <trkpt lat="49.33714" lon="-0.62094">
        <ele>18.4</ele>
        <time>2020-06-17T07:45:20Z</time>
      </trkpt>
      <trkpt lat="49.33711" lon="-0.62095">
        <ele>18.7</ele>
        <time>2020-06-17T07:45:21Z</time>
      </trkpt>
      <trkpt lat="49.33708" lon="-0.62097">
        <ele>19</ele>
        <time>2020-06-17T07:45:22Z</time>
      </trkpt>
      <trkpt lat="49.33705" lon="-0.62098">
        <ele>19.3</ele>
        <time>2020-06-17T07:45:23Z</time>
      </trkpt>
      <trkpt lat="49.33702" lon="-0.62099">
        <ele>19.5</ele>
        <time>2020-06-17T07:45:24Z</time>
      </trkpt>
      <trkpt lat="49.33701" lon="-0.62099">
        <ele>19.6</ele>
        <time>2020-06-17T07:45:25Z</time>
      </trkpt>
      <trkpt lat="49.33697" lon="-0.621">
        <ele>20</ele>
        <time>2020-06-17T07:45:26Z</time>
      </trkpt>
      <trkpt lat="49.33695" lon="-0.62101">
        <ele>20.1</ele>
        <time>2020-06-17T07:45:27Z</time>
      </trkpt>
      <trkpt lat="49.33692" lon="-0.62102">
        <ele>20.4</ele>
        <time>2020-06-17T07:45:28Z</time>
      </trkpt>
      <trkpt lat="49.33691" lon="-0.62102">
        <ele>20.5</ele>
        <time>2020-06-17T07:45:29Z</time>
      </trkpt>
      <trkpt lat="49.33687" lon="-0.62103">
        <ele>20.8</ele>
        <time>2020-06-17T07:45:30Z</time>
      </trkpt>
      <trkpt lat="49.33686" lon="-0.62103">
        <ele>20.9</ele>
        <time>2020-06-17T07:45:31Z</time>
      </trkpt>
      <trkpt lat="49.33683" lon="-0.62105">
        <ele>21.2</ele>
        <time>2020-06-17T07:45:32Z</time>
      </trkpt>
      <trkpt lat="49.33682" lon="-0.62106">
        <ele>21.4</ele>
        <time>2020-06-17T07:45:33Z</time>
      </trkpt>
      <trkpt lat="49.33678" lon="-0.62107">
        <ele>21.7</ele>
        <time>2020-06-17T07:45:34Z</time>
      </trkpt>
      <trkpt lat="49.33677" lon="-0.62107">
        <ele>21.8</ele>
        <time>2020-06-17T07:45:35Z</time>
      </trkpt>
      <trkpt lat="49.33674" lon="-0.62109">
        <ele>22.2</ele>
        <time>2020-06-17T07:45:36Z</time>
      </trkpt>
      <trkpt lat="49.33673" lon="-0.62109">
        <ele>22.3</ele>
        <time>2020-06-17T07:45:37Z</time>
      </trkpt>
      <trkpt lat="49.33669" lon="-0.6211">
        <ele>22.7</ele>
        <time>2020-06-17T07:45:38Z</time>
      </trkpt>
      <trkpt lat="49.33668" lon="-0.6211">
        <ele>22.8</ele>
        <time>2020-06-17T07:45:39Z</time>
      </trkpt>
      <trkpt lat="49.33664" lon="-0.62111">
        <ele>23.2</ele>
        <time>2020-06-17T07:45:40Z</time>
      </trkpt>
      <trkpt lat="49.33663" lon="-0.62112">
        <ele>23.3</ele>
        <time>2020-06-17T07:45:41Z</time>
      </trkpt>
      <trkpt lat="49.3366" lon="-0.62113">
        <ele>23.6</ele>
        <time>2020-06-17T07:45:42Z</time>
      </trkpt>
      <trkpt lat="49.33657" lon="-0.62114">
        <ele>23.9</ele>
        <time>2020-06-17T07:45:43Z</time>
      </trkpt>
      <trkpt lat="49.33656" lon="-0.62114">
        <ele>24</ele>
        <time>2020-06-17T07:45:44Z</time>
      </trkpt>
      <trkpt lat="49.33653" lon="-0.62115">
        <ele>24.3</ele>
        <time>2020-06-17T07:45:45Z</time>
      </trkpt>
      <trkpt lat="49.33652" lon="-0.62115">
        <ele>24.4</ele>
        <time>2020-06-17T07:45:46Z</time>
      </trkpt>
      <trkpt lat="49.33649" lon="-0.62115">
        <ele>24.7</ele>
        <time>2020-06-17T07:45:47Z</time>
      </trkpt>
      <trkpt lat="49.33648" lon="-0.62115">
        <ele>24.9</ele>
        <time>2020-06-17T07:45:48Z</time>
      </trkpt>
      <trkpt lat="49.33645" lon="-0.62115">
        <ele>25.2</ele>
        <time>2020-06-17T07:45:49Z</time>
      </trkpt>
      <trkpt lat="49.33644" lon="-0.62115">
        <ele>25.3</ele>
        <time>2020-06-17T07:45:50Z</time>
      </trkpt>
      <trkpt lat="49.33641" lon="-0.62114">
        <ele>25.6</ele>
        <time>2020-06-17T07:45:51Z</time>
      </trkpt>
      <trkpt lat="49.3364" lon="-0.62114">
        <ele>25.7</ele>
        <time>2020-06-17T07:45:52Z</time>
      </trkpt>
      <trkpt lat="49.33637" lon="-0.62112">
        <ele>26</ele>
        <time>2020-06-17T07:45:53Z</time>
      </trkpt>
      <trkpt lat="49.33636" lon="-0.62112">
        <ele>26.1</ele>
        <time>2020-06-17T07:45:54Z</time>
      </trkpt>
      <trkpt lat="49.33633" lon="-0.62109">
        <ele>26.5</ele>
        <time>2020-06-17T07:45:55Z</time>
      </trkpt>
      <trkpt lat="49.33632" lon="-0.62108">
        <ele>26.6</ele>
        <time>2020-06-17T07:45:56Z</time>
      </trkpt>
      <trkpt lat="49.33629" lon="-0.62105">
        <ele>27</ele>
        <time>2020-06-17T07:45:57Z</time>
      </trkpt>
      <trkpt lat="49.33628" lon="-0.62103">
        <ele>27.1</ele>
        <time>2020-06-17T07:45:58Z</time>
      </trkpt>
      <trkpt lat="49.33626" lon="-0.621">
        <ele>27.4</ele>
        <time>2020-06-17T07:45:59Z</time>
      </trkpt>
      <trkpt lat="49.33625" lon="-0.62099">
        <ele>27.5</ele>
        <time>2020-06-17T07:46:00Z</time>
      </trkpt>
      <trkpt lat="49.33623" lon="-0.62097">
        <ele>27.8</ele>
        <time>2020-06-17T07:46:01Z</time>
      </trkpt>
      <trkpt lat="49.3362" lon="-0.62093">
        <ele>28.2</ele>
        <time>2020-06-17T07:46:02Z</time>
      </trkpt>
      <trkpt lat="49.33619" lon="-0.62091">
        <ele>28.3</ele>
        <time>2020-06-17T07:46:03Z</time>
      </trkpt>
      <trkpt lat="49.33616" lon="-0.62088">
        <ele>28.6</ele>
        <time>2020-06-17T07:46:04Z</time>
      </trkpt>
      <trkpt lat="49.33613" lon="-0.62085">
        <ele>28.9</ele>
        <time>2020-06-17T07:46:05Z</time>
      </trkpt>
      <trkpt lat="49.3361" lon="-0.62083">
        <ele>29.2</ele>
        <time>2020-06-17T07:46:06Z</time>
      </trkpt>
      <trkpt lat="49.33607" lon="-0.62082">
        <ele>29.5</ele>
        <time>2020-06-17T07:46:07Z</time>
      </trkpt>
      <trkpt lat="49.33604" lon="-0.6208">
        <ele>29.8</ele>
        <time>2020-06-17T07:46:08Z</time>
      </trkpt>
      <trkpt lat="49.33601" lon="-0.62078">
        <ele>30.1</ele>
        <time>2020-06-17T07:46:09Z</time>
      </trkpt>
      <trkpt lat="49.336" lon="-0.62078">
        <ele>30.2</ele>
        <time>2020-06-17T07:46:10Z</time>
      </trkpt>
      <trkpt lat="49.33598" lon="-0.62075">
        <ele>30.4</ele>
        <time>2020-06-17T07:46:11Z</time>
      </trkpt>
      <trkpt lat="49.33597" lon="-0.62074">
        <ele>30.5</ele>
        <time>2020-06-17T07:46:12Z</time>
      </trkpt>
      <trkpt lat="49.33594" lon="-0.62071">
        <ele>30.8</ele>
        <time>2020-06-17T07:46:13Z</time>
      </trkpt>
      <trkpt lat="49.33594" lon="-0.6207">
        <ele>30.9</ele>
        <time>2020-06-17T07:46:14Z</time>
      </trkpt>
      <trkpt lat="49.33592" lon="-0.62067">
        <ele>31.1</ele>
        <time>2020-06-17T07:46:15Z</time>
      </trkpt>
      <trkpt lat="49.33591" lon="-0.62065">
        <ele>31.2</ele>
        <time>2020-06-17T07:46:16Z</time>
      </trkpt>
      <trkpt lat="49.33588" lon="-0.62061">
        <ele>31.6</ele>
        <time>2020-06-17T07:46:17Z</time>
      </trkpt>
      <trkpt lat="49.33587" lon="-0.6206">
        <ele>31.7</ele>
        <time>2020-06-17T07:46:18Z</time>
      </trkpt>
      <trkpt lat="49.33585" lon="-0.62056">
        <ele>32</ele>
        <time>2020-06-17T07:46:19Z</time>
      </trkpt>
      <trkpt lat="49.33584" lon="-0.62055">
        <ele>32.1</ele>
        <time>2020-06-17T07:46:20Z</time>
      </trkpt>
      <trkpt lat="49.33582" lon="-0.62052">
        <ele>32.4</ele>
        <time>2020-06-17T07:46:21Z</time>
      </trkpt>
      <trkpt lat="49.33579" lon="-0.62048">
        <ele>32.8</ele>
        <time>2020-06-17T07:46:22Z</time>
      </trkpt>
      <trkpt lat="49.33578" lon="-0.62047">
        <ele>32.9</ele>
        <time>2020-06-17T07:46:23Z</time>
      </trkpt>
      <trkpt lat="49.33575" lon="-0.62043">
        <ele>33.2</ele>
        <time>2020-06-17T07:46:24Z</time>
      </trkpt>
      <trkpt lat="49.33574" lon="-0.62042">
        <ele>33.3</ele>
        <time>2020-06-17T07:46:25Z</time>
      </trkpt>
      <trkpt lat="49.33572" lon="-0.62039">
        <ele>33.6</ele>
        <time>2020-06-17T07:46:26Z</time>
      </trkpt>
      <trkpt lat="49.33571" lon="-0.62038">
        <ele>33.7</ele>
        <time>2020-06-17T07:46:27Z</time>
      </trkpt>
      <trkpt lat="49.33568" lon="-0.62035">
        <ele>34.1</ele>
        <time>2020-06-17T07:46:28Z</time>
      </trkpt>
      <trkpt lat="49.33567" lon="-0.62034">
        <ele>34.2</ele>
        <time>2020-06-17T07:46:29Z</time>
      </trkpt>
      <trkpt lat="49.33564" lon="-0.6203">
        <ele>34.6</ele>
        <time>2020-06-17T07:46:30Z</time>
      </trkpt>
      <trkpt lat="49.33561" lon="-0.62024">
        <ele>35.1</ele>
        <time>2020-06-17T07:46:31Z</time>
      </trkpt>
      <trkpt lat="49.33559" lon="-0.62018">
        <ele>35.6</ele>
        <time>2020-06-17T07:46:32Z</time>
      </trkpt>
      <trkpt lat="49.33557" lon="-0.62015">
        <ele>35.7</ele>
        <time>2020-06-17T07:46:33Z</time>
      </trkpt>
      <trkpt lat="49.33556" lon="-0.62014">
        <ele>35.9</ele>
        <time>2020-06-17T07:46:34Z</time>
      </trkpt>
      <trkpt lat="49.33554" lon="-0.62011">
        <ele>36.2</ele>
        <time>2020-06-17T07:46:35Z</time>
      </trkpt>
      <trkpt lat="49.33553" lon="-0.6201">
        <ele>36.3</ele>
        <time>2020-06-17T07:46:36Z</time>
      </trkpt>
      <trkpt lat="49.33551" lon="-0.62007">
        <ele>36.5</ele>
        <time>2020-06-17T07:46:37Z</time>
      </trkpt>
      <trkpt lat="49.33551" lon="-0.62006">
        <ele>36.6</ele>
        <time>2020-06-17T07:46:38Z</time>
      </trkpt>
      <trkpt lat="49.33549" lon="-0.62002">
        <ele>36.8</ele>
        <time>2020-06-17T07:46:39Z</time>
      </trkpt>
      <trkpt lat="49.33549" lon="-0.62">
        <ele>36.9</ele>
        <time>2020-06-17T07:46:40Z</time>
      </trkpt>
      <trkpt lat="49.33548" lon="-0.61994">
        <ele>37.2</ele>
        <time>2020-06-17T07:46:41Z</time>
      </trkpt>
      <trkpt lat="49.33548" lon="-0.61993">
        <ele>37.2</ele>
        <time>2020-06-17T07:46:42Z</time>
      </trkpt>
      <trkpt lat="49.33547" lon="-0.61987">
        <ele>37.4</ele>
        <time>2020-06-17T07:46:43Z</time>
      </trkpt>
      <trkpt lat="49.33547" lon="-0.61985">
        <ele>37.5</ele>
        <time>2020-06-17T07:46:44Z</time>
      </trkpt>
      <trkpt lat="49.33548" lon="-0.6198">
        <ele>37.6</ele>
        <time>2020-06-17T07:46:45Z</time>
      </trkpt>
      <trkpt lat="49.33549" lon="-0.61976">
        <ele>37.7</ele>
        <time>2020-06-17T07:46:46Z</time>
      </trkpt>
      <trkpt lat="49.33549" lon="-0.61971">
        <ele>37.8</ele>
        <time>2020-06-17T07:46:47Z</time>
      </trkpt>
      <trkpt lat="49.33548" lon="-0.61969">
        <ele>37.8</ele>
        <time>2020-06-17T07:46:48Z</time>
      </trkpt>
      <trkpt lat="49.33548" lon="-0.61964">
        <ele>37.9</ele>
        <time>2020-06-17T07:46:49Z</time>
      </trkpt>
      <trkpt lat="49.33548" lon="-0.61962">
        <ele>38</ele>
        <time>2020-06-17T07:46:50Z</time>
      </trkpt>
      <trkpt lat="49.33549" lon="-0.61957">
        <ele>38.1</ele>
        <time>2020-06-17T07:46:51Z</time>
      </trkpt>
      <trkpt lat="49.3355" lon="-0.61952">
        <ele>38.4</ele>
        <time>2020-06-17T07:46:52Z</time>
      </trkpt>
      <trkpt lat="49.3355" lon="-0.61947">
        <ele>38.6</ele>
        <time>2020-06-17T07:46:53Z</time>
      </trkpt>
      <trkpt lat="49.33551" lon="-0.61942">
        <ele>38.9</ele>
        <time>2020-06-17T07:46:54Z</time>
      </trkpt>
      <trkpt lat="49.33552" lon="-0.61937">
        <ele>39.2</ele>
        <time>2020-06-17T07:46:55Z</time>
      </trkpt>
      <trkpt lat="49.33552" lon="-0.61935">
        <ele>39.2</ele>
        <time>2020-06-17T07:46:56Z</time>
      </trkpt>
      <trkpt lat="49.33553" lon="-0.6193">
        <ele>39.5</ele>
        <time>2020-06-17T07:46:57Z</time>
      </trkpt>
      <trkpt lat="49.33554" lon="-0.61928">
        <ele>39.7</ele>
        <time>2020-06-17T07:46:58Z</time>
      </trkpt>
      <trkpt lat="49.33556" lon="-0.61923">
        <ele>40</ele>
        <time>2020-06-17T07:46:59Z</time>
      </trkpt>
      <trkpt lat="49.33556" lon="-0.61921">
        <ele>40.1</ele>
        <time>2020-06-17T07:47:00Z</time>
      </trkpt>
      <trkpt lat="49.33558" lon="-0.61917">
        <ele>40.3</ele>
        <time>2020-06-17T07:47:01Z</time>
      </trkpt>
      <trkpt lat="49.33559" lon="-0.61912">
        <ele>40.6</ele>
        <time>2020-06-17T07:47:02Z</time>
      </trkpt>
      <trkpt lat="49.3356" lon="-0.61911">
        <ele>40.7</ele>
        <time>2020-06-17T07:47:03Z</time>
      </trkpt>
      <trkpt lat="49.3356" lon="-0.61905">
        <ele>41</ele>
        <time>2020-06-17T07:47:04Z</time>
      </trkpt>
      <trkpt lat="49.33561" lon="-0.61904">
        <ele>41.1</ele>
        <time>2020-06-17T07:47:05Z</time>
      </trkpt>
      <trkpt lat="49.33561" lon="-0.61899">
        <ele>41.4</ele>
        <time>2020-06-17T07:47:06Z</time>
      </trkpt>
      <trkpt lat="49.33562" lon="-0.61897">
        <ele>41.5</ele>
        <time>2020-06-17T07:47:07Z</time>
      </trkpt>
      <trkpt lat="49.33563" lon="-0.61891">
        <ele>41.8</ele>
        <time>2020-06-17T07:47:08Z</time>
      </trkpt>
      <trkpt lat="49.33563" lon="-0.61889">
        <ele>41.9</ele>
        <time>2020-06-17T07:47:09Z</time>
      </trkpt>
      <trkpt lat="49.33564" lon="-0.61885">
        <ele>42.2</ele>
        <time>2020-06-17T07:47:10Z</time>
      </trkpt>
      <trkpt lat="49.33565" lon="-0.61881">
        <ele>42.4</ele>
        <time>2020-06-17T07:47:11Z</time>
      </trkpt>
      <trkpt lat="49.33567" lon="-0.61876">
        <ele>42.7</ele>
        <time>2020-06-17T07:47:12Z</time>
      </trkpt>
      <trkpt lat="49.33567" lon="-0.61875">
        <ele>42.8</ele>
        <time>2020-06-17T07:47:13Z</time>
      </trkpt>
      <trkpt lat="49.33568" lon="-0.61873">
        <ele>43</ele>
        <time>2020-06-17T07:47:14Z</time>
      </trkpt>
      <trkpt lat="49.33569" lon="-0.61871">
        <ele>43.1</ele>
        <time>2020-06-17T07:47:15Z</time>
      </trkpt>
      <trkpt lat="49.3357" lon="-0.61869">
        <ele>43.3</ele>
        <time>2020-06-17T07:47:16Z</time>
      </trkpt>
      <trkpt lat="49.33571" lon="-0.61868">
        <ele>43.4</ele>
        <time>2020-06-17T07:47:17Z</time>
      </trkpt>
      <trkpt lat="49.33571" lon="-0.61866">
        <ele>43.5</ele>
        <time>2020-06-17T07:47:18Z</time>
      </trkpt>
      <trkpt lat="49.33572" lon="-0.61864">
        <ele>43.6</ele>
        <time>2020-06-17T07:47:19Z</time>
      </trkpt>
      <trkpt lat="49.33572" lon="-0.61863">
        <ele>43.7</ele>
        <time>2020-06-17T07:47:20Z</time>
      </trkpt>
      <trkpt lat="49.33573" lon="-0.61862">
        <ele>43.7</ele>
        <time>2020-06-17T07:47:21Z</time>
      </trkpt>
      <trkpt lat="49.33573" lon="-0.61861">
        <ele>43.8</ele>
        <time>2020-06-17T07:47:22Z</time>
      </trkpt>
      <trkpt lat="49.33573" lon="-0.6186">
        <ele>43.9</ele>
        <time>2020-06-17T07:47:23Z</time>
      </trkpt>
      <trkpt lat="49.33574" lon="-0.61858">
        <ele>44</ele>
        <time>2020-06-17T07:47:24Z</time>
      </trkpt>
      <trkpt lat="49.33575" lon="-0.61856">
        <ele>44.1</ele>
        <time>2020-06-17T07:47:25Z</time>
      </trkpt>
      <trkpt lat="49.33575" lon="-0.61855">
        <ele>44.2</ele>
        <time>2020-06-17T07:47:26Z</time>
      </trkpt>
      <trkpt lat="49.33576" lon="-0.61854">
        <ele>44.3</ele>
        <time>2020-06-17T07:47:27Z</time>
      </trkpt>
      <trkpt lat="49.33576" lon="-0.61853">
        <ele>44.3</ele>
        <time>2020-06-17T07:47:28Z</time>
      </trkpt>
      <trkpt lat="49.33577" lon="-0.61852">
        <ele>44.4</ele>
        <time>2020-06-17T07:47:29Z</time>
      </trkpt>
      <trkpt lat="49.33578" lon="-0.61851">
        <ele>44.5</ele>
        <time>2020-06-17T07:47:30Z</time>
      </trkpt>
      <trkpt lat="49.33579" lon="-0.61849">
        <ele>44.7</ele>
        <time>2020-06-17T07:47:31Z</time>
      </trkpt>
      <trkpt lat="49.3358" lon="-0.61848">
        <ele>44.7</ele>
        <time>2020-06-17T07:47:32Z</time>
      </trkpt>
      <trkpt lat="49.3358" lon="-0.61847">
        <ele>44.8</ele>
        <time>2020-06-17T07:47:33Z</time>
      </trkpt>
      <trkpt lat="49.33582" lon="-0.61843">
        <ele>45.1</ele>
        <time>2020-06-17T07:47:34Z</time>
      </trkpt>
      <trkpt lat="49.33582" lon="-0.61842">
        <ele>45.1</ele>
        <time>2020-06-17T07:47:35Z</time>
      </trkpt>
      <trkpt lat="49.33583" lon="-0.6184">
        <ele>45.2</ele>
        <time>2020-06-17T07:47:36Z</time>
      </trkpt>
      <trkpt lat="49.33584" lon="-0.61839">
        <ele>45.4</ele>
        <time>2020-06-17T07:47:37Z</time>
      </trkpt>
      <trkpt lat="49.33587" lon="-0.61837">
        <ele>45.6</ele>
        <time>2020-06-17T07:47:38Z</time>
      </trkpt>
      <trkpt lat="49.33587" lon="-0.61836">
        <ele>45.7</ele>
        <time>2020-06-17T07:47:39Z</time>
      </trkpt>
      <trkpt lat="49.33591" lon="-0.61835">
        <ele>46</ele>
        <time>2020-06-17T07:47:40Z</time>
      </trkpt>
      <trkpt lat="49.33592" lon="-0.61835">
        <ele>46.1</ele>
        <time>2020-06-17T07:47:41Z</time>
      </trkpt>
      <trkpt lat="49.33594" lon="-0.61835">
        <ele>46.2</ele>
        <time>2020-06-17T07:47:42Z</time>
      </trkpt>
      <trkpt lat="49.33595" lon="-0.61833">
        <ele>46.3</ele>
        <time>2020-06-17T07:47:43Z</time>
      </trkpt>
      <trkpt lat="49.33597" lon="-0.61832">
        <ele>46.5</ele>
        <time>2020-06-17T07:47:44Z</time>
      </trkpt>
      <trkpt lat="49.33598" lon="-0.61831">
        <ele>46.6</ele>
        <time>2020-06-17T07:47:45Z</time>
      </trkpt>
      <trkpt lat="49.336" lon="-0.61829">
        <ele>46.7</ele>
        <time>2020-06-17T07:47:46Z</time>
      </trkpt>
      <trkpt lat="49.33601" lon="-0.61828">
        <ele>46.8</ele>
        <time>2020-06-17T07:47:47Z</time>
      </trkpt>
      <trkpt lat="49.33602" lon="-0.61828">
        <ele>46.9</ele>
        <time>2020-06-17T07:47:48Z</time>
      </trkpt>
      <trkpt lat="49.33604" lon="-0.61827">
        <ele>47</ele>
        <time>2020-06-17T07:47:49Z</time>
      </trkpt>
      <trkpt lat="49.33606" lon="-0.61825">
        <ele>47.1</ele>
        <time>2020-06-17T07:47:50Z</time>
      </trkpt>
      <trkpt lat="49.33608" lon="-0.61825">
        <ele>47.2</ele>
        <time>2020-06-17T07:47:51Z</time>
      </trkpt>
      <trkpt lat="49.33611" lon="-0.61824">
        <ele>47.4</ele>
        <time>2020-06-17T07:47:52Z</time>
      </trkpt>
      <trkpt lat="49.33614" lon="-0.61822">
        <ele>47.6</ele>
        <time>2020-06-17T07:47:53Z</time>
      </trkpt>
      <trkpt lat="49.33617" lon="-0.61821">
        <ele>47.8</ele>
        <time>2020-06-17T07:47:54Z</time>
      </trkpt>
      <trkpt lat="49.33621" lon="-0.61821">
        <ele>47.9</ele>
        <time>2020-06-17T07:47:55Z</time>
      </trkpt>
      <trkpt lat="49.33624" lon="-0.6182">
        <ele>48.2</ele>
        <time>2020-06-17T07:47:56Z</time>
      </trkpt>
      <trkpt lat="49.33628" lon="-0.61819">
        <ele>48.4</ele>
        <time>2020-06-17T07:47:57Z</time>
      </trkpt>
      <trkpt lat="49.33631" lon="-0.61818">
        <ele>48.6</ele>
        <time>2020-06-17T07:47:58Z</time>
      </trkpt>
      <trkpt lat="49.33634" lon="-0.61816">
        <ele>48.8</ele>
        <time>2020-06-17T07:47:59Z</time>
      </trkpt>
      <trkpt lat="49.33637" lon="-0.61814">
        <ele>49</ele>
        <time>2020-06-17T07:48:00Z</time>
      </trkpt>
      <trkpt lat="49.33641" lon="-0.61813">
        <ele>49.2</ele>
        <time>2020-06-17T07:48:01Z</time>
      </trkpt>
      <trkpt lat="49.33644" lon="-0.61813">
        <ele>49.3</ele>
        <time>2020-06-17T07:48:02Z</time>
      </trkpt>
      <trkpt lat="49.33647" lon="-0.61811">
        <ele>49.5</ele>
        <time>2020-06-17T07:48:03Z</time>
      </trkpt>
      <trkpt lat="49.3365" lon="-0.61811">
        <ele>49.6</ele>
        <time>2020-06-17T07:48:04Z</time>
      </trkpt>
      <trkpt lat="49.33653" lon="-0.6181">
        <ele>49.8</ele>
        <time>2020-06-17T07:48:05Z</time>
      </trkpt>
      <trkpt lat="49.33654" lon="-0.61809">
        <ele>49.8</ele>
        <time>2020-06-17T07:48:06Z</time>
      </trkpt>
      <trkpt lat="49.33658" lon="-0.61808">
        <ele>50</ele>
        <time>2020-06-17T07:48:07Z</time>
      </trkpt>
      <trkpt lat="49.3366" lon="-0.61808">
        <ele>50.1</ele>
        <time>2020-06-17T07:48:08Z</time>
      </trkpt>
      <trkpt lat="49.33664" lon="-0.61807">
        <ele>50.3</ele>
        <time>2020-06-17T07:48:09Z</time>
      </trkpt>
      <trkpt lat="49.33667" lon="-0.61806">
        <ele>50.4</ele>
        <time>2020-06-17T07:48:10Z</time>
      </trkpt>
      <trkpt lat="49.33671" lon="-0.61804">
        <ele>50.6</ele>
        <time>2020-06-17T07:48:11Z</time>
      </trkpt>
      <trkpt lat="49.33676" lon="-0.618">
        <ele>50.7</ele>
        <time>2020-06-17T07:48:12Z</time>
      </trkpt>
      <trkpt lat="49.33681" lon="-0.61799">
        <ele>50.9</ele>
        <time>2020-06-17T07:48:13Z</time>
      </trkpt>
      <trkpt lat="49.33687" lon="-0.61798">
        <ele>51</ele>
        <time>2020-06-17T07:48:14Z</time>
      </trkpt>
      <trkpt lat="49.33691" lon="-0.61797">
        <ele>51.2</ele>
        <time>2020-06-17T07:48:15Z</time>
      </trkpt>
      <trkpt lat="49.33697" lon="-0.61796">
        <ele>51.3</ele>
        <time>2020-06-17T07:48:16Z</time>
      </trkpt>
      <trkpt lat="49.33702" lon="-0.61794">
        <ele>51.4</ele>
        <time>2020-06-17T07:48:17Z</time>
      </trkpt>
      <trkpt lat="49.33707" lon="-0.61792">
        <ele>51.6</ele>
        <time>2020-06-17T07:48:18Z</time>
      </trkpt>
      <trkpt lat="49.33714" lon="-0.61792">
        <ele>51.7</ele>
        <time>2020-06-17T07:48:19Z</time>
      </trkpt>
      <trkpt lat="49.33719" lon="-0.6179">
        <ele>51.8</ele>
        <time>2020-06-17T07:48:20Z</time>
      </trkpt>
      <trkpt lat="49.33725" lon="-0.61788">
        <ele>51.8</ele>
        <time>2020-06-17T07:48:21Z</time>
      </trkpt>
      <trkpt lat="49.33731" lon="-0.61784">
        <ele>51.9</ele>
        <time>2020-06-17T07:48:22Z</time>
      </trkpt>
      <trkpt lat="49.33737" lon="-0.61779">
        <ele>52</ele>
        <time>2020-06-17T07:48:23Z</time>
      </trkpt>
      <trkpt lat="49.33742" lon="-0.61776">
        <ele>52</ele>
        <time>2020-06-17T07:48:24Z</time>
      </trkpt>
      <trkpt lat="49.33748" lon="-0.61772">
        <ele>52</ele>
        <time>2020-06-17T07:48:25Z</time>
      </trkpt>
      <trkpt lat="49.33752" lon="-0.61768">
        <ele>52.1</ele>
        <time>2020-06-17T07:48:26Z</time>
      </trkpt>
      <trkpt lat="49.33756" lon="-0.61764">
        <ele>52.2</ele>
        <time>2020-06-17T07:48:27Z</time>
      </trkpt>
      <trkpt lat="49.33759" lon="-0.61759">
        <ele>52.4</ele>
        <time>2020-06-17T07:48:28Z</time>
      </trkpt>
      <trkpt lat="49.33763" lon="-0.61753">
        <ele>52.5</ele>
        <time>2020-06-17T07:48:29Z</time>
      </trkpt>
      <trkpt lat="49.33766" lon="-0.61747">
        <ele>52.7</ele>
        <time>2020-06-17T07:48:30Z</time>
      </trkpt>
      <trkpt lat="49.33769" lon="-0.61741">
        <ele>53.1</ele>
        <time>2020-06-17T07:48:31Z</time>
      </trkpt>
      <trkpt lat="49.33772" lon="-0.61735">
        <ele>53.3</ele>
        <time>2020-06-17T07:48:32Z</time>
      </trkpt>
      <trkpt lat="49.33775" lon="-0.61728">
        <ele>53.5</ele>
        <time>2020-06-17T07:48:33Z</time>
      </trkpt>
      <trkpt lat="49.33778" lon="-0.6172">
        <ele>53.7</ele>
        <time>2020-06-17T07:48:34Z</time>
      </trkpt>
      <trkpt lat="49.3378" lon="-0.61711">
        <ele>53.9</ele>
        <time>2020-06-17T07:48:35Z</time>
      </trkpt>
      <trkpt lat="49.3378" lon="-0.61703">
        <ele>54</ele>
        <time>2020-06-17T07:48:36Z</time>
      </trkpt>
      <trkpt lat="49.33782" lon="-0.61694">
        <ele>54</ele>
        <time>2020-06-17T07:48:37Z</time>
      </trkpt>
      <trkpt lat="49.33783" lon="-0.61686">
        <ele>54.1</ele>
        <time>2020-06-17T07:48:38Z</time>
      </trkpt>
      <trkpt lat="49.33784" lon="-0.61677">
        <ele>54.1</ele>
        <time>2020-06-17T07:48:39Z</time>
      </trkpt>
      <trkpt lat="49.33786" lon="-0.61669">
        <ele>54.1</ele>
        <time>2020-06-17T07:48:40Z</time>
      </trkpt>
      <trkpt lat="49.33788" lon="-0.6166">
        <ele>54.2</ele>
        <time>2020-06-17T07:48:41Z</time>
      </trkpt>
      <trkpt lat="49.33789" lon="-0.6165">
        <ele>54.3</ele>
        <time>2020-06-17T07:48:42Z</time>
      </trkpt>
      <trkpt lat="49.3379" lon="-0.6164">
        <ele>54.5</ele>
        <time>2020-06-17T07:48:43Z</time>
      </trkpt>
      <trkpt lat="49.33791" lon="-0.61631">
        <ele>54.5</ele>
        <time>2020-06-17T07:48:44Z</time>
      </trkpt>
      <trkpt lat="49.33793" lon="-0.61623">
        <ele>54.6</ele>
        <time>2020-06-17T07:48:45Z</time>
      </trkpt>
      <trkpt lat="49.33795" lon="-0.61614">
        <ele>54.8</ele>
        <time>2020-06-17T07:48:46Z</time>
      </trkpt>
      <trkpt lat="49.33797" lon="-0.61605">
        <ele>54.9</ele>
        <time>2020-06-17T07:48:47Z</time>
      </trkpt>
      <trkpt lat="49.33798" lon="-0.61596">
        <ele>55.1</ele>
        <time>2020-06-17T07:48:48Z</time>
      </trkpt>
      <trkpt lat="49.33798" lon="-0.61586">
        <ele>55.2</ele>
        <time>2020-06-17T07:48:49Z</time>
      </trkpt>
      <trkpt lat="49.33797" lon="-0.61577">
        <ele>55.3</ele>
        <time>2020-06-17T07:48:50Z</time>
      </trkpt>
      <trkpt lat="49.33797" lon="-0.61568">
        <ele>55.4</ele>
        <time>2020-06-17T07:48:51Z</time>
      </trkpt>
      <trkpt lat="49.33799" lon="-0.6156">
        <ele>55.4</ele>
        <time>2020-06-17T07:48:52Z</time>
      </trkpt>
      <trkpt lat="49.338" lon="-0.61552">
        <ele>55.4</ele>
        <time>2020-06-17T07:48:53Z</time>
      </trkpt>
      <trkpt lat="49.33801" lon="-0.61546">
        <ele>55.5</ele>
        <time>2020-06-17T07:48:54Z</time>
      </trkpt>
      <trkpt lat="49.33802" lon="-0.61542">
        <ele>55.4</ele>
        <time>2020-06-17T07:48:55Z</time>
      </trkpt>
      <trkpt lat="49.33805" lon="-0.61543">
        <ele>55.4</ele>
        <time>2020-06-17T07:48:56Z</time>
      </trkpt>
      <trkpt lat="49.33806" lon="-0.61544">
        <ele>55.4</ele>
        <time>2020-06-17T07:48:57Z</time>
      </trkpt>
      <trkpt lat="49.33807" lon="-0.61548">
        <ele>55.4</ele>
        <time>2020-06-17T07:48:58Z</time>
      </trkpt>
      <trkpt lat="49.33807" lon="-0.61551">
        <ele>55.5</ele>
        <time>2020-06-17T07:48:59Z</time>
      </trkpt>
      <trkpt lat="49.33807" lon="-0.61553">
        <ele>55.4</ele>
        <time>2020-06-17T07:49:00Z</time>
      </trkpt>
      <trkpt lat="49.33811" lon="-0.61554">
        <ele>55.4</ele>
        <time>2020-06-17T07:49:01Z</time>
      </trkpt>
      <trkpt lat="49.33813" lon="-0.61553">
        <ele>55.4</ele>
        <time>2020-06-17T07:49:02Z</time>
      </trkpt>
      <trkpt lat="49.33816" lon="-0.61555">
        <ele>55.5</ele>
        <time>2020-06-17T07:49:03Z</time>
      </trkpt>
      <trkpt lat="49.33818" lon="-0.61556">
        <ele>55.5</ele>
        <time>2020-06-17T07:49:04Z</time>
      </trkpt>
      <trkpt lat="49.3382" lon="-0.61558">
        <ele>55.6</ele>
        <time>2020-06-17T07:49:05Z</time>
      </trkpt>
      <trkpt lat="49.33822" lon="-0.61562">
        <ele>55.7</ele>
        <time>2020-06-17T07:49:06Z</time>
      </trkpt>
      <trkpt lat="49.33822" lon="-0.61565">
        <ele>55.7</ele>
        <time>2020-06-17T07:49:07Z</time>
      </trkpt>
      <trkpt lat="49.33821" lon="-0.61567">
        <ele>55.7</ele>
        <time>2020-06-17T07:49:08Z</time>
      </trkpt>
      <trkpt lat="49.33821" lon="-0.6157">
        <ele>55.7</ele>
        <time>2020-06-17T07:49:09Z</time>
      </trkpt>
      <trkpt lat="49.33821" lon="-0.61572">
        <ele>55.7</ele>
        <time>2020-06-17T07:49:10Z</time>
      </trkpt>
      <trkpt lat="49.33821" lon="-0.61573">
        <ele>55.8</ele>
        <time>2020-06-17T07:49:11Z</time>
      </trkpt>
      <trkpt lat="49.33824" lon="-0.61571">
        <ele>55.9</ele>
        <time>2020-06-17T07:49:12Z</time>
      </trkpt>
      <trkpt lat="49.33827" lon="-0.61568">
        <ele>56</ele>
        <time>2020-06-17T07:49:13Z</time>
      </trkpt>
      <trkpt lat="49.3383" lon="-0.61565">
        <ele>56.1</ele>
        <time>2020-06-17T07:49:14Z</time>
      </trkpt>
      <trkpt lat="49.33832" lon="-0.61562">
        <ele>56.2</ele>
        <time>2020-06-17T07:49:15Z</time>
      </trkpt>
      <trkpt lat="49.33834" lon="-0.61562">
        <ele>56.2</ele>
        <time>2020-06-17T07:49:16Z</time>
      </trkpt>
      <trkpt lat="49.33834" lon="-0.61563">
        <ele>56.2</ele>
        <time>2020-06-17T07:49:17Z</time>
      </trkpt>
      <trkpt lat="49.33835" lon="-0.61564">
        <ele>56.2</ele>
        <time>2020-06-17T07:49:18Z</time>
      </trkpt>
      <trkpt lat="49.33836" lon="-0.61564">
        <ele>56.3</ele>
        <time>2020-06-17T07:49:19Z</time>
      </trkpt>
      <trkpt lat="49.33838" lon="-0.61567">
        <ele>56.1</ele>
        <time>2020-06-17T07:49:20Z</time>
      </trkpt>
      <trkpt lat="49.33839" lon="-0.61568">
        <ele>56.2</ele>
        <time>2020-06-17T07:49:21Z</time>
      </trkpt>
      <trkpt lat="49.33841" lon="-0.6157">
        <ele>56</ele>
        <time>2020-06-17T07:49:22Z</time>
      </trkpt>
      <trkpt lat="49.33844" lon="-0.61573">
        <ele>55.7</ele>
        <time>2020-06-17T07:49:23Z</time>
      </trkpt>
      <trkpt lat="49.33844" lon="-0.61574">
        <ele>55.8</ele>
        <time>2020-06-17T07:49:24Z</time>
      </trkpt>
      <trkpt lat="49.33848" lon="-0.61577">
        <ele>55.4</ele>
        <time>2020-06-17T07:49:25Z</time>
      </trkpt>
      <trkpt lat="49.33849" lon="-0.61577">
        <ele>55.4</ele>
        <time>2020-06-17T07:49:26Z</time>
      </trkpt>
      <trkpt lat="49.33851" lon="-0.6158">
        <ele>55</ele>
        <time>2020-06-17T07:49:27Z</time>
      </trkpt>
      <trkpt lat="49.33854" lon="-0.61582">
        <ele>54.5</ele>
        <time>2020-06-17T07:49:28Z</time>
      </trkpt>
      <trkpt lat="49.33857" lon="-0.61584">
        <ele>54</ele>
        <time>2020-06-17T07:49:29Z</time>
      </trkpt>
      <trkpt lat="49.3386" lon="-0.61586">
        <ele>52.8</ele>
        <time>2020-06-17T07:49:30Z</time>
      </trkpt>
      <trkpt lat="49.33864" lon="-0.61589">
        <ele>52.2</ele>
        <time>2020-06-17T07:49:31Z</time>
      </trkpt>
      <trkpt lat="49.33866" lon="-0.61594">
        <ele>51.5</ele>
        <time>2020-06-17T07:49:32Z</time>
      </trkpt>
      <trkpt lat="49.33869" lon="-0.61598">
        <ele>50.9</ele>
        <time>2020-06-17T07:49:33Z</time>
      </trkpt>
      <trkpt lat="49.33871" lon="-0.61604">
        <ele>50.9</ele>
        <time>2020-06-17T07:49:34Z</time>
      </trkpt>
      <trkpt lat="49.33874" lon="-0.61608">
        <ele>50.3</ele>
        <time>2020-06-17T07:49:35Z</time>
      </trkpt>
      <trkpt lat="49.33875" lon="-0.61613">
        <ele>49.8</ele>
        <time>2020-06-17T07:49:36Z</time>
      </trkpt>
      <trkpt lat="49.33877" lon="-0.61618">
        <ele>49.3</ele>
        <time>2020-06-17T07:49:37Z</time>
      </trkpt>
      <trkpt lat="49.33878" lon="-0.6162">
        <ele>49.3</ele>
        <time>2020-06-17T07:49:38Z</time>
      </trkpt>
      <trkpt lat="49.33878" lon="-0.61625">
        <ele>49.4</ele>
        <time>2020-06-17T07:49:39Z</time>
      </trkpt>
      <trkpt lat="49.33879" lon="-0.61629">
        <ele>49.4</ele>
        <time>2020-06-17T07:49:40Z</time>
      </trkpt>
      <trkpt lat="49.33879" lon="-0.61631">
        <ele>49.4</ele>
        <time>2020-06-17T07:49:41Z</time>
      </trkpt>
      <trkpt lat="49.3388" lon="-0.61635">
        <ele>49</ele>
        <time>2020-06-17T07:49:42Z</time>
      </trkpt>
      <trkpt lat="49.33881" lon="-0.61636">
        <ele>49</ele>
        <time>2020-06-17T07:49:43Z</time>
      </trkpt>
      <trkpt lat="49.33882" lon="-0.61638">
        <ele>49</ele>
        <time>2020-06-17T07:49:44Z</time>
      </trkpt>
      <trkpt lat="49.33883" lon="-0.6164">
        <ele>48.7</ele>
        <time>2020-06-17T07:49:45Z</time>
      </trkpt>
      <trkpt lat="49.33885" lon="-0.61642">
        <ele>48.7</ele>
        <time>2020-06-17T07:49:46Z</time>
      </trkpt>
      <trkpt lat="49.33886" lon="-0.61644">
        <ele>48.4</ele>
        <time>2020-06-17T07:49:47Z</time>
      </trkpt>
      <trkpt lat="49.33888" lon="-0.61647">
        <ele>48.4</ele>
        <time>2020-06-17T07:49:48Z</time>
      </trkpt>
      <trkpt lat="49.33889" lon="-0.61649">
        <ele>48.1</ele>
        <time>2020-06-17T07:49:49Z</time>
      </trkpt>
      <trkpt lat="49.33892" lon="-0.61653">
        <ele>47.8</ele>
        <time>2020-06-17T07:49:50Z</time>
      </trkpt>
      <trkpt lat="49.33893" lon="-0.61654">
        <ele>47.8</ele>
        <time>2020-06-17T07:49:51Z</time>
      </trkpt>
      <trkpt lat="49.33896" lon="-0.61658">
        <ele>47.7</ele>
        <time>2020-06-17T07:49:52Z</time>
      </trkpt>
      <trkpt lat="49.33896" lon="-0.61659">
        <ele>47.7</ele>
        <time>2020-06-17T07:49:53Z</time>
      </trkpt>
      <trkpt lat="49.33898" lon="-0.61663">
        <ele>47.7</ele>
        <time>2020-06-17T07:49:54Z</time>
      </trkpt>
      <trkpt lat="49.33899" lon="-0.61664">
        <ele>47.7</ele>
        <time>2020-06-17T07:49:55Z</time>
      </trkpt>
      <trkpt lat="49.33901" lon="-0.61667">
        <ele>47.7</ele>
        <time>2020-06-17T07:49:56Z</time>
      </trkpt>
      <trkpt lat="49.33902" lon="-0.61667">
        <ele>47.7</ele>
        <time>2020-06-17T07:49:57Z</time>
      </trkpt>
      <trkpt lat="49.33903" lon="-0.61669">
        <ele>47.9</ele>
        <time>2020-06-17T07:49:58Z</time>
      </trkpt>
      <trkpt lat="49.33904" lon="-0.61669">
        <ele>47.9</ele>
        <time>2020-06-17T07:49:59Z</time>
      </trkpt>
      <trkpt lat="49.33905" lon="-0.61667">
        <ele>48</ele>
        <time>2020-06-17T07:50:00Z</time>
      </trkpt>
      <trkpt lat="49.33908" lon="-0.61665">
        <ele>48.5</ele>
        <time>2020-06-17T07:50:01Z</time>
      </trkpt>
      <trkpt lat="49.33911" lon="-0.61662">
        <ele>48.5</ele>
        <time>2020-06-17T07:50:02Z</time>
      </trkpt>
      <trkpt lat="49.33911" lon="-0.61662">
        <ele>48.8</ele>
        <time>2020-06-17T07:50:03Z</time>
      </trkpt>
      <trkpt lat="49.33912" lon="-0.61661">
        <ele>48.8</ele>
        <time>2020-06-17T07:50:04Z</time>
      </trkpt>
      <trkpt lat="49.33913" lon="-0.6166">
        <ele>49</ele>
        <time>2020-06-17T07:50:05Z</time>
      </trkpt>
      <trkpt lat="49.33915" lon="-0.61659">
        <ele>49.2</ele>
        <time>2020-06-17T07:50:06Z</time>
      </trkpt>
      <trkpt lat="49.33915" lon="-0.61659">
        <ele>49.3</ele>
        <time>2020-06-17T07:50:07Z</time>
      </trkpt>
      <trkpt lat="49.33915" lon="-0.61659">
        <ele>49.3</ele>
        <time>2020-06-17T07:50:08Z</time>
      </trkpt>
      <trkpt lat="49.33915" lon="-0.61659">
        <ele>49.3</ele>
        <time>2020-06-17T07:50:09Z</time>
      </trkpt>
      <trkpt lat="49.33915" lon="-0.61659">
        <ele>49.4</ele>
        <time>2020-06-17T07:50:10Z</time>
      </trkpt>
      <trkpt lat="49.33926" lon="-0.61678">
        <ele>48.9</ele>
        <time>2020-06-17T07:51:51Z</time>
      </trkpt>
      <trkpt lat="49.33926" lon="-0.61678">
        <ele>48.9</ele>
        <time>2020-06-17T07:51:52Z</time>
      </trkpt>
      <trkpt lat="49.33925" lon="-0.61679">
        <ele>48.9</ele>
        <time>2020-06-17T07:51:53Z</time>
      </trkpt>
      <trkpt lat="49.33924" lon="-0.6168">
        <ele>48.9</ele>
        <time>2020-06-17T07:51:54Z</time>
      </trkpt>
      <trkpt lat="49.33924" lon="-0.61681">
        <ele>48.9</ele>
        <time>2020-06-17T07:51:55Z</time>
      </trkpt>
      <trkpt lat="49.33923" lon="-0.61682">
        <ele>48.9</ele>
        <time>2020-06-17T07:51:56Z</time>
      </trkpt>
      <trkpt lat="49.33922" lon="-0.61682">
        <ele>48.9</ele>
        <time>2020-06-17T07:51:57Z</time>
      </trkpt>
      <trkpt lat="49.33922" lon="-0.61682">
        <ele>48.9</ele>
        <time>2020-06-17T07:51:58Z</time>
      </trkpt>
      <trkpt lat="49.33923" lon="-0.61682">
        <ele>48.9</ele>
        <time>2020-06-17T07:51:59Z</time>
      </trkpt>
      <trkpt lat="49.33923" lon="-0.61683">
        <ele>48.9</ele>
        <time>2020-06-17T07:52:00Z</time>
      </trkpt>
      <trkpt lat="49.33923" lon="-0.61681">
        <ele>49</ele>
        <time>2020-06-17T07:52:01Z</time>
      </trkpt>
      <trkpt lat="49.33923" lon="-0.61681">
        <ele>49</ele>
        <time>2020-06-17T07:52:02Z</time>
      </trkpt>
      <trkpt lat="49.33922" lon="-0.61681">
        <ele>49</ele>
        <time>2020-06-17T07:52:03Z</time>
      </trkpt>
      <trkpt lat="49.33922" lon="-0.6168">
        <ele>49</ele>
        <time>2020-06-17T07:52:04Z</time>
      </trkpt>
      <trkpt lat="49.33922" lon="-0.6168">
        <ele>49</ele>
        <time>2020-06-17T07:52:05Z</time>
      </trkpt>
      <trkpt lat="49.33922" lon="-0.6168">
        <ele>49</ele>
        <time>2020-06-17T07:52:06Z</time>
      </trkpt>
      <trkpt lat="49.33923" lon="-0.61679">
        <ele>49</ele>
        <time>2020-06-17T07:52:07Z</time>
      </trkpt>
      <trkpt lat="49.33923" lon="-0.61678">
        <ele>49</ele>
        <time>2020-06-17T07:52:08Z</time>
      </trkpt>
      <trkpt lat="49.33923" lon="-0.61677">
        <ele>49</ele>
        <time>2020-06-17T07:52:09Z</time>
      </trkpt>
      <trkpt lat="49.33923" lon="-0.61675">
        <ele>49</ele>
        <time>2020-06-17T07:52:10Z</time>
      </trkpt>
      <trkpt lat="49.33924" lon="-0.61675">
        <ele>49</ele>
        <time>2020-06-17T07:52:11Z</time>
      </trkpt>
      <trkpt lat="49.33924" lon="-0.61675">
        <ele>49</ele>
        <time>2020-06-17T07:52:12Z</time>
      </trkpt>
      <trkpt lat="49.33925" lon="-0.61675">
        <ele>49</ele>
        <time>2020-06-17T07:52:13Z</time>
      </trkpt>
      <trkpt lat="49.33925" lon="-0.61676">
        <ele>49</ele>
        <time>2020-06-17T07:52:14Z</time>
      </trkpt>
      <trkpt lat="49.33925" lon="-0.61676">
        <ele>49</ele>
        <time>2020-06-17T07:52:15Z</time>
      </trkpt>
      <trkpt lat="49.33925" lon="-0.61676">
        <ele>49</ele>
        <time>2020-06-17T07:52:16Z</time>
      </trkpt>
      <trkpt lat="49.33925" lon="-0.61675">
        <ele>49</ele>
        <time>2020-06-17T07:52:17Z</time>
      </trkpt>
      <trkpt lat="49.33926" lon="-0.61675">
        <ele>49</ele>
        <time>2020-06-17T07:52:18Z</time>
      </trkpt>
      <trkpt lat="49.33926" lon="-0.61674">
        <ele>49</ele>
        <time>2020-06-17T07:52:19Z</time>
      </trkpt>
      <trkpt lat="49.33926" lon="-0.61674">
        <ele>49</ele>
        <time>2020-06-17T07:52:20Z</time>
      </trkpt>
      <trkpt lat="49.33926" lon="-0.61674">
        <ele>49</ele>
        <time>2020-06-17T07:52:21Z</time>
      </trkpt>
      <trkpt lat="49.33926" lon="-0.61674">
        <ele>49</ele>
        <time>2020-06-17T07:52:22Z</time>
      </trkpt>
      <trkpt lat="49.33926" lon="-0.61674">
        <ele>49</ele>
        <time>2020-06-17T07:52:23Z</time>
      </trkpt>
      <trkpt lat="49.33926" lon="-0.61674">
        <ele>49</ele>
        <time>2020-06-17T07:52:24Z</time>
      </trkpt>
      <trkpt lat="49.33926" lon="-0.61674">
        <ele>49</ele>
        <time>2020-06-17T07:52:25Z</time>
      </trkpt>
      <trkpt lat="49.33926" lon="-0.61674">
        <ele>49</ele>
        <time>2020-06-17T07:52:26Z</time>
      </trkpt>
      <trkpt lat="49.33925" lon="-0.61675">
        <ele>49</ele>
        <time>2020-06-17T07:52:27Z</time>
      </trkpt>
      <trkpt lat="49.33924" lon="-0.61677">
        <ele>49</ele>
        <time>2020-06-17T07:52:28Z</time>
      </trkpt>
      <trkpt lat="49.33923" lon="-0.61678">
        <ele>49</ele>
        <time>2020-06-17T07:52:29Z</time>
      </trkpt>
      <trkpt lat="49.33923" lon="-0.6168">
        <ele>49</ele>
        <time>2020-06-17T07:52:30Z</time>
      </trkpt>
      <trkpt lat="49.33922" lon="-0.61682">
        <ele>49</ele>
        <time>2020-06-17T07:52:31Z</time>
      </trkpt>
      <trkpt lat="49.33922" lon="-0.61683">
        <ele>49</ele>
        <time>2020-06-17T07:52:32Z</time>
      </trkpt>
      <trkpt lat="49.33922" lon="-0.61685">
        <ele>49</ele>
        <time>2020-06-17T07:52:33Z</time>
      </trkpt>
      <trkpt lat="49.33922" lon="-0.61687">
        <ele>49</ele>
        <time>2020-06-17T07:52:34Z</time>
      </trkpt>
      <trkpt lat="49.33921" lon="-0.61689">
        <ele>49</ele>
        <time>2020-06-17T07:52:35Z</time>
      </trkpt>
      <trkpt lat="49.33921" lon="-0.6169">
        <ele>49</ele>
        <time>2020-06-17T07:52:36Z</time>
      </trkpt>
      <trkpt lat="49.33921" lon="-0.61691">
        <ele>49</ele>
        <time>2020-06-17T07:52:37Z</time>
      </trkpt>
      <trkpt lat="49.33922" lon="-0.61693">
        <ele>49</ele>
        <time>2020-06-17T07:52:38Z</time>
      </trkpt>
      <trkpt lat="49.33922" lon="-0.61692">
        <ele>49</ele>
        <time>2020-06-17T07:52:39Z</time>
      </trkpt>
      <trkpt lat="49.33922" lon="-0.61694">
        <ele>49</ele>
        <time>2020-06-17T07:52:40Z</time>
      </trkpt>
      <trkpt lat="49.33923" lon="-0.61695">
        <ele>49</ele>
        <time>2020-06-17T07:52:41Z</time>
      </trkpt>
      <trkpt lat="49.33923" lon="-0.61697">
        <ele>49</ele>
        <time>2020-06-17T07:52:42Z</time>
      </trkpt>
      <trkpt lat="49.33924" lon="-0.61699">
        <ele>49</ele>
        <time>2020-06-17T07:52:43Z</time>
      </trkpt>
      <trkpt lat="49.33924" lon="-0.617">
        <ele>49</ele>
        <time>2020-06-17T07:52:44Z</time>
      </trkpt>
      <trkpt lat="49.33924" lon="-0.61701">
        <ele>49</ele>
        <time>2020-06-17T07:52:45Z</time>
      </trkpt>
      <trkpt lat="49.33924" lon="-0.61703">
        <ele>49</ele>
        <time>2020-06-17T07:52:46Z</time>
      </trkpt>
      <trkpt lat="49.33924" lon="-0.61704">
        <ele>49</ele>
        <time>2020-06-17T07:52:47Z</time>
      </trkpt>
      <trkpt lat="49.33925" lon="-0.61705">
        <ele>49</ele>
        <time>2020-06-17T07:52:48Z</time>
      </trkpt>
      <trkpt lat="49.33926" lon="-0.61706">
        <ele>49</ele>
        <time>2020-06-17T07:52:49Z</time>
      </trkpt>
      <trkpt lat="49.33926" lon="-0.61708">
        <ele>49</ele>
        <time>2020-06-17T07:52:50Z</time>
      </trkpt>
      <trkpt lat="49.33926" lon="-0.61709">
        <ele>49</ele>
        <time>2020-06-17T07:52:51Z</time>
      </trkpt>
      <trkpt lat="49.33926" lon="-0.61711">
        <ele>49</ele>
        <time>2020-06-17T07:52:52Z</time>
      </trkpt>
      <trkpt lat="49.33927" lon="-0.61713">
        <ele>49</ele>
        <time>2020-06-17T07:52:53Z</time>
      </trkpt>
      <trkpt lat="49.33927" lon="-0.61715">
        <ele>49</ele>
        <time>2020-06-17T07:52:54Z</time>
      </trkpt>
      <trkpt lat="49.33927" lon="-0.61715">
        <ele>49</ele>
        <time>2020-06-17T07:52:55Z</time>
      </trkpt>
      <trkpt lat="49.33928" lon="-0.61715">
        <ele>49</ele>
        <time>2020-06-17T07:52:56Z</time>
      </trkpt>
      <trkpt lat="49.33929" lon="-0.61715">
        <ele>49</ele>
        <time>2020-06-17T07:52:57Z</time>
      </trkpt>
      <trkpt lat="49.3393" lon="-0.61714">
        <ele>49</ele>
        <time>2020-06-17T07:52:58Z</time>
      </trkpt>
      <trkpt lat="49.33931" lon="-0.61713">
        <ele>49</ele>
        <time>2020-06-17T07:52:59Z</time>
      </trkpt>
      <trkpt lat="49.33932" lon="-0.61712">
        <ele>49</ele>
        <time>2020-06-17T07:53:00Z</time>
      </trkpt>
      <trkpt lat="49.33933" lon="-0.61712">
        <ele>49</ele>
        <time>2020-06-17T07:53:01Z</time>
      </trkpt>
      <trkpt lat="49.33934" lon="-0.61711">
        <ele>49</ele>
        <time>2020-06-17T07:53:02Z</time>
      </trkpt>
      <trkpt lat="49.33935" lon="-0.6171">
        <ele>49</ele>
        <time>2020-06-17T07:53:03Z</time>
      </trkpt>
      <trkpt lat="49.33936" lon="-0.61709">
        <ele>49</ele>
        <time>2020-06-17T07:53:04Z</time>
      </trkpt>
      <trkpt lat="49.33937" lon="-0.61709">
        <ele>49</ele>
        <time>2020-06-17T07:53:05Z</time>
      </trkpt>
      <trkpt lat="49.33937" lon="-0.61708">
        <ele>49</ele>
        <time>2020-06-17T07:53:06Z</time>
      </trkpt>
      <trkpt lat="49.33938" lon="-0.61707">
        <ele>49</ele>
        <time>2020-06-17T07:53:34Z</time>
      </trkpt>
      <trkpt lat="49.33939" lon="-0.61707">
        <ele>49</ele>
        <time>2020-06-17T07:53:35Z</time>
      </trkpt>
      <trkpt lat="49.3394" lon="-0.61706">
        <ele>49</ele>
        <time>2020-06-17T07:53:36Z</time>
      </trkpt>
      <trkpt lat="49.33941" lon="-0.61705">
        <ele>49</ele>
        <time>2020-06-17T07:53:37Z</time>
      </trkpt>
      <trkpt lat="49.33941" lon="-0.61705">
        <ele>49</ele>
        <time>2020-06-17T07:53:38Z</time>
      </trkpt>
      <trkpt lat="49.33942" lon="-0.61704">
        <ele>49</ele>
        <time>2020-06-17T07:53:39Z</time>
      </trkpt>
      <trkpt lat="49.33942" lon="-0.61703">
        <ele>49</ele>
        <time>2020-06-17T07:53:40Z</time>
      </trkpt>
      <trkpt lat="49.33942" lon="-0.61702">
        <ele>49</ele>
        <time>2020-06-17T07:53:41Z</time>
      </trkpt>
      <trkpt lat="49.33942" lon="-0.61701">
        <ele>49</ele>
        <time>2020-06-17T07:53:42Z</time>
      </trkpt>
      <trkpt lat="49.33942" lon="-0.617">
        <ele>49</ele>
        <time>2020-06-17T07:53:43Z</time>
      </trkpt>
      <trkpt lat="49.33941" lon="-0.61699">
        <ele>49</ele>
        <time>2020-06-17T07:53:44Z</time>
      </trkpt>
      <trkpt lat="49.33941" lon="-0.61697">
        <ele>49</ele>
        <time>2020-06-17T07:53:45Z</time>
      </trkpt>
      <trkpt lat="49.33941" lon="-0.61695">
        <ele>49</ele>
        <time>2020-06-17T07:53:46Z</time>
      </trkpt>
      <trkpt lat="49.33941" lon="-0.61694">
        <ele>49</ele>
        <time>2020-06-17T07:53:47Z</time>
      </trkpt>
      <trkpt lat="49.33941" lon="-0.61693">
        <ele>49</ele>
        <time>2020-06-17T07:53:48Z</time>
      </trkpt>
      <trkpt lat="49.3394" lon="-0.61692">
        <ele>49</ele>
        <time>2020-06-17T07:53:49Z</time>
      </trkpt>
      <trkpt lat="49.3394" lon="-0.61691">
        <ele>49</ele>
        <time>2020-06-17T07:53:50Z</time>
      </trkpt>
      <trkpt lat="49.3394" lon="-0.61691">
        <ele>49</ele>
        <time>2020-06-17T07:53:51Z</time>
      </trkpt>
      <trkpt lat="49.3394" lon="-0.6169">
        <ele>49</ele>
        <time>2020-06-17T07:53:52Z</time>
      </trkpt>
      <trkpt lat="49.3394" lon="-0.61689">
        <ele>49</ele>
        <time>2020-06-17T07:53:53Z</time>
      </trkpt>
      <trkpt lat="49.33939" lon="-0.61689">
        <ele>49</ele>
        <time>2020-06-17T07:53:54Z</time>
      </trkpt>
      <trkpt lat="49.33939" lon="-0.61687">
        <ele>49</ele>
        <time>2020-06-17T07:53:55Z</time>
      </trkpt>
      <trkpt lat="49.33939" lon="-0.61686">
        <ele>49</ele>
        <time>2020-06-17T07:53:56Z</time>
      </trkpt>
      <trkpt lat="49.33938" lon="-0.61684">
        <ele>49</ele>
        <time>2020-06-17T07:53:57Z</time>
      </trkpt>
      <trkpt lat="49.33938" lon="-0.61683">
        <ele>49</ele>
        <time>2020-06-17T07:53:58Z</time>
      </trkpt>
      <trkpt lat="49.33938" lon="-0.61683">
        <ele>49</ele>
        <time>2020-06-17T07:53:59Z</time>
      </trkpt>
      <trkpt lat="49.33938" lon="-0.61681">
        <ele>49</ele>
        <time>2020-06-17T07:54:00Z</time>
      </trkpt>
      <trkpt lat="49.33938" lon="-0.61679">
        <ele>49</ele>
        <time>2020-06-17T07:54:01Z</time>
      </trkpt>
      <trkpt lat="49.33938" lon="-0.61679">
        <ele>49</ele>
        <time>2020-06-17T07:54:02Z</time>
      </trkpt>
      <trkpt lat="49.33938" lon="-0.61678">
        <ele>49</ele>
        <time>2020-06-17T07:54:03Z</time>
      </trkpt>
      <trkpt lat="49.33937" lon="-0.61677">
        <ele>49</ele>
        <time>2020-06-17T07:54:04Z</time>
      </trkpt>
      <trkpt lat="49.33937" lon="-0.61676">
        <ele>49</ele>
        <time>2020-06-17T07:54:05Z</time>
      </trkpt>
      <trkpt lat="49.33937" lon="-0.61674">
        <ele>49</ele>
        <time>2020-06-17T07:54:06Z</time>
      </trkpt>
      <trkpt lat="49.33937" lon="-0.61674">
        <ele>49</ele>
        <time>2020-06-17T07:54:07Z</time>
      </trkpt>
      <trkpt lat="49.33938" lon="-0.61672">
        <ele>49</ele>
        <time>2020-06-17T07:54:08Z</time>
      </trkpt>
      <trkpt lat="49.33937" lon="-0.61671">
        <ele>49</ele>
        <time>2020-06-17T07:54:09Z</time>
      </trkpt>
      <trkpt lat="49.33936" lon="-0.61671">
        <ele>49</ele>
        <time>2020-06-17T07:54:10Z</time>
      </trkpt>
      <trkpt lat="49.33936" lon="-0.61671">
        <ele>49</ele>
        <time>2020-06-17T07:54:11Z</time>
      </trkpt>
      <trkpt lat="49.33936" lon="-0.61671">
        <ele>49</ele>
        <time>2020-06-17T07:54:12Z</time>
      </trkpt>
      <trkpt lat="49.33936" lon="-0.6167">
        <ele>49</ele>
        <time>2020-06-17T07:54:13Z</time>
      </trkpt>
      <trkpt lat="49.33935" lon="-0.6167">
        <ele>49</ele>
        <time>2020-06-17T07:54:14Z</time>
      </trkpt>
      <trkpt lat="49.33935" lon="-0.61669">
        <ele>49</ele>
        <time>2020-06-17T07:54:15Z</time>
      </trkpt>
      <trkpt lat="49.33935" lon="-0.61669">
        <ele>49</ele>
        <time>2020-06-17T07:54:16Z</time>
      </trkpt>
      <trkpt lat="49.33935" lon="-0.61669">
        <ele>49</ele>
        <time>2020-06-17T07:54:17Z</time>
      </trkpt>
      <trkpt lat="49.33934" lon="-0.61669">
        <ele>49</ele>
        <time>2020-06-17T07:54:18Z</time>
      </trkpt>
      <trkpt lat="49.33934" lon="-0.61669">
        <ele>49</ele>
        <time>2020-06-17T07:54:19Z</time>
      </trkpt>
      <trkpt lat="49.33934" lon="-0.61669">
        <ele>49</ele>
        <time>2020-06-17T07:54:20Z</time>
      </trkpt>
      <trkpt lat="49.33933" lon="-0.61651">
        <ele>49.1</ele>
        <time>2020-06-17T07:55:22Z</time>
      </trkpt>
      <trkpt lat="49.33934" lon="-0.61648">
        <ele>49.1</ele>
        <time>2020-06-17T07:55:23Z</time>
      </trkpt>
      <trkpt lat="49.33934" lon="-0.61645">
        <ele>49.1</ele>
        <time>2020-06-17T07:55:24Z</time>
      </trkpt>
      <trkpt lat="49.33935" lon="-0.61644">
        <ele>49.1</ele>
        <time>2020-06-17T07:55:25Z</time>
      </trkpt>
      <trkpt lat="49.33936" lon="-0.61643">
        <ele>49.1</ele>
        <time>2020-06-17T07:55:26Z</time>
      </trkpt>
      <trkpt lat="49.33937" lon="-0.61639">
        <ele>49.1</ele>
        <time>2020-06-17T07:55:27Z</time>
      </trkpt>
      <trkpt lat="49.33937" lon="-0.61637">
        <ele>49.1</ele>
        <time>2020-06-17T07:55:28Z</time>
      </trkpt>
      <trkpt lat="49.33939" lon="-0.61631">
        <ele>49.1</ele>
        <time>2020-06-17T07:55:29Z</time>
      </trkpt>
      <trkpt lat="49.33939" lon="-0.61629">
        <ele>49.2</ele>
        <time>2020-06-17T07:55:30Z</time>
      </trkpt>
      <trkpt lat="49.33941" lon="-0.61624">
        <ele>49.2</ele>
        <time>2020-06-17T07:55:31Z</time>
      </trkpt>
      <trkpt lat="49.33941" lon="-0.61619">
        <ele>49.3</ele>
        <time>2020-06-17T07:55:32Z</time>
      </trkpt>
      <trkpt lat="49.33942" lon="-0.61614">
        <ele>49.3</ele>
        <time>2020-06-17T07:55:33Z</time>
      </trkpt>
      <trkpt lat="49.33942" lon="-0.6161">
        <ele>49.4</ele>
        <time>2020-06-17T07:55:34Z</time>
      </trkpt>
      <trkpt lat="49.33941" lon="-0.61604">
        <ele>49.4</ele>
        <time>2020-06-17T07:55:35Z</time>
      </trkpt>
      <trkpt lat="49.3394" lon="-0.61598">
        <ele>49.5</ele>
        <time>2020-06-17T07:55:36Z</time>
      </trkpt>
      <trkpt lat="49.33938" lon="-0.61594">
        <ele>49.5</ele>
        <time>2020-06-17T07:55:37Z</time>
      </trkpt>
      <trkpt lat="49.33936" lon="-0.6159">
        <ele>49.5</ele>
        <time>2020-06-17T07:55:38Z</time>
      </trkpt>
      <trkpt lat="49.33933" lon="-0.61586">
        <ele>49.6</ele>
        <time>2020-06-17T07:55:39Z</time>
      </trkpt>
      <trkpt lat="49.3393" lon="-0.61583">
        <ele>49.6</ele>
        <time>2020-06-17T07:55:40Z</time>
      </trkpt>
      <trkpt lat="49.33926" lon="-0.6158">
        <ele>49.7</ele>
        <time>2020-06-17T07:55:41Z</time>
      </trkpt>
      <trkpt lat="49.33923" lon="-0.61577">
        <ele>49.7</ele>
        <time>2020-06-17T07:55:42Z</time>
      </trkpt>
      <trkpt lat="49.3392" lon="-0.61574">
        <ele>49.8</ele>
        <time>2020-06-17T07:55:43Z</time>
      </trkpt>
      <trkpt lat="49.33917" lon="-0.6157">
        <ele>49.8</ele>
        <time>2020-06-17T07:55:44Z</time>
      </trkpt>
      <trkpt lat="49.33914" lon="-0.61567">
        <ele>49.9</ele>
        <time>2020-06-17T07:55:45Z</time>
      </trkpt>
      <trkpt lat="49.33912" lon="-0.61562">
        <ele>50</ele>
        <time>2020-06-17T07:55:46Z</time>
      </trkpt>
      <trkpt lat="49.3391" lon="-0.61557">
        <ele>50.1</ele>
        <time>2020-06-17T07:55:47Z</time>
      </trkpt>
      <trkpt lat="49.33909" lon="-0.61551">
        <ele>50.2</ele>
        <time>2020-06-17T07:55:48Z</time>
      </trkpt>
      <trkpt lat="49.33908" lon="-0.61545">
        <ele>50.3</ele>
        <time>2020-06-17T07:55:49Z</time>
      </trkpt>
      <trkpt lat="49.33907" lon="-0.6154">
        <ele>50.4</ele>
        <time>2020-06-17T07:55:50Z</time>
      </trkpt>
      <trkpt lat="49.33905" lon="-0.61535">
        <ele>50.4</ele>
        <time>2020-06-17T07:55:51Z</time>
      </trkpt>
      <trkpt lat="49.33906" lon="-0.61529">
        <ele>50.5</ele>
        <time>2020-06-17T07:55:52Z</time>
      </trkpt>
      <trkpt lat="49.33906" lon="-0.61525">
        <ele>50.6</ele>
        <time>2020-06-17T07:55:53Z</time>
      </trkpt>
      <trkpt lat="49.33905" lon="-0.61519">
        <ele>50.8</ele>
        <time>2020-06-17T07:55:54Z</time>
      </trkpt>
      <trkpt lat="49.33905" lon="-0.61517">
        <ele>50.8</ele>
        <time>2020-06-17T07:55:55Z</time>
      </trkpt>
      <trkpt lat="49.33905" lon="-0.61512">
        <ele>50.7</ele>
        <time>2020-06-17T07:55:56Z</time>
      </trkpt>
      <trkpt lat="49.33904" lon="-0.61507">
        <ele>50.7</ele>
        <time>2020-06-17T07:55:57Z</time>
      </trkpt>
      <trkpt lat="49.33903" lon="-0.61505">
        <ele>50.7</ele>
        <time>2020-06-17T07:55:58Z</time>
      </trkpt>
      <trkpt lat="49.33903" lon="-0.61503">
        <ele>50.7</ele>
        <time>2020-06-17T07:55:59Z</time>
      </trkpt>
      <trkpt lat="49.33903" lon="-0.615">
        <ele>50.7</ele>
        <time>2020-06-17T07:56:00Z</time>
      </trkpt>
      <trkpt lat="49.33902" lon="-0.61499">
        <ele>50.7</ele>
        <time>2020-06-17T07:56:01Z</time>
      </trkpt>
      <trkpt lat="49.33901" lon="-0.61497">
        <ele>50.7</ele>
        <time>2020-06-17T07:56:02Z</time>
      </trkpt>
      <trkpt lat="49.33901" lon="-0.61496">
        <ele>50.7</ele>
        <time>2020-06-17T07:56:03Z</time>
      </trkpt>
      <trkpt lat="49.33901" lon="-0.61495">
        <ele>50.7</ele>
        <time>2020-06-17T07:56:04Z</time>
      </trkpt>
      <trkpt lat="49.339" lon="-0.61494">
        <ele>50.7</ele>
        <time>2020-06-17T07:56:05Z</time>
      </trkpt>
      <trkpt lat="49.339" lon="-0.61493">
        <ele>50.7</ele>
        <time>2020-06-17T07:56:06Z</time>
      </trkpt>
      <trkpt lat="49.339" lon="-0.61494">
        <ele>50.7</ele>
        <time>2020-06-17T07:56:07Z</time>
      </trkpt>
      <trkpt lat="49.33901" lon="-0.61493">
        <ele>50.7</ele>
        <time>2020-06-17T07:56:08Z</time>
      </trkpt>
      <trkpt lat="49.33901" lon="-0.61493">
        <ele>50.7</ele>
        <time>2020-06-17T07:56:09Z</time>
      </trkpt>
      <trkpt lat="49.33902" lon="-0.61493">
        <ele>50.6</ele>
        <time>2020-06-17T07:56:10Z</time>
      </trkpt>
      <trkpt lat="49.33902" lon="-0.61493">
        <ele>50.6</ele>
        <time>2020-06-17T07:56:11Z</time>
      </trkpt>
      <trkpt lat="49.33902" lon="-0.61492">
        <ele>50.6</ele>
        <time>2020-06-17T07:56:12Z</time>
      </trkpt>
      <trkpt lat="49.33902" lon="-0.61491">
        <ele>50.6</ele>
        <time>2020-06-17T07:56:13Z</time>
      </trkpt>
      <trkpt lat="49.33902" lon="-0.61491">
        <ele>50.6</ele>
        <time>2020-06-17T07:56:14Z</time>
      </trkpt>
      <trkpt lat="49.33902" lon="-0.61491">
        <ele>50.6</ele>
        <time>2020-06-17T07:56:15Z</time>
      </trkpt>
      <trkpt lat="49.33902" lon="-0.61491">
        <ele>50.6</ele>
        <time>2020-06-17T07:56:16Z</time>
      </trkpt>
      <trkpt lat="49.33902" lon="-0.61491">
        <ele>50.6</ele>
        <time>2020-06-17T07:56:17Z</time>
      </trkpt>
      <trkpt lat="49.33902" lon="-0.61491">
        <ele>50.6</ele>
        <time>2020-06-17T07:56:18Z</time>
      </trkpt>
      <trkpt lat="49.33902" lon="-0.61491">
        <ele>50.6</ele>
        <time>2020-06-17T07:56:19Z</time>
      </trkpt>
      <trkpt lat="49.33902" lon="-0.61492">
        <ele>50.6</ele>
        <time>2020-06-17T07:56:20Z</time>
      </trkpt>
      <trkpt lat="49.33902" lon="-0.61492">
        <ele>50.6</ele>
        <time>2020-06-17T07:56:21Z</time>
      </trkpt>
      <trkpt lat="49.33899" lon="-0.61491">
        <ele>50.6</ele>
        <time>2020-06-17T08:00:11Z</time>
      </trkpt>
      <trkpt lat="49.33899" lon="-0.6149">
        <ele>50.6</ele>
        <time>2020-06-17T08:00:12Z</time>
      </trkpt>
      <trkpt lat="49.33898" lon="-0.6149">
        <ele>50.6</ele>
        <time>2020-06-17T08:00:13Z</time>
      </trkpt>
      <trkpt lat="49.33898" lon="-0.6149">
        <ele>50.6</ele>
        <time>2020-06-17T08:00:14Z</time>
      </trkpt>
      <trkpt lat="49.33898" lon="-0.6149">
        <ele>50.6</ele>
        <time>2020-06-17T08:00:15Z</time>
      </trkpt>
      <trkpt lat="49.33899" lon="-0.6149">
        <ele>50.6</ele>
        <time>2020-06-17T08:00:16Z</time>
      </trkpt>
      <trkpt lat="49.33899" lon="-0.61491">
        <ele>50.6</ele>
        <time>2020-06-17T08:00:17Z</time>
      </trkpt>
      <trkpt lat="49.339" lon="-0.61491">
        <ele>50.6</ele>
        <time>2020-06-17T08:00:18Z</time>
      </trkpt>
      <trkpt lat="49.339" lon="-0.61491">
        <ele>50.5</ele>
        <time>2020-06-17T08:00:19Z</time>
      </trkpt>
      <trkpt lat="49.339" lon="-0.6149">
        <ele>50.5</ele>
        <time>2020-06-17T08:00:20Z</time>
      </trkpt>
      <trkpt lat="49.339" lon="-0.6149">
        <ele>50.5</ele>
        <time>2020-06-17T08:00:21Z</time>
      </trkpt>
      <trkpt lat="49.33899" lon="-0.61489">
        <ele>50.5</ele>
        <time>2020-06-17T08:00:22Z</time>
      </trkpt>
      <trkpt lat="49.33899" lon="-0.61489">
        <ele>50.5</ele>
        <time>2020-06-17T08:00:23Z</time>
      </trkpt>
      <trkpt lat="49.33899" lon="-0.61489">
        <ele>50.5</ele>
        <time>2020-06-17T08:00:24Z</time>
      </trkpt>
      <trkpt lat="49.339" lon="-0.61488">
        <ele>50.5</ele>
        <time>2020-06-17T08:00:25Z</time>
      </trkpt>
      <trkpt lat="49.339" lon="-0.61487">
        <ele>50.5</ele>
        <time>2020-06-17T08:00:26Z</time>
      </trkpt>
      <trkpt lat="49.339" lon="-0.61486">
        <ele>50.5</ele>
        <time>2020-06-17T08:00:27Z</time>
      </trkpt>
      <trkpt lat="49.339" lon="-0.61486">
        <ele>50.5</ele>
        <time>2020-06-17T08:00:28Z</time>
      </trkpt>
      <trkpt lat="49.339" lon="-0.61486">
        <ele>50.5</ele>
        <time>2020-06-17T08:00:29Z</time>
      </trkpt>
      <trkpt lat="49.339" lon="-0.61488">
        <ele>50.5</ele>
        <time>2020-06-17T08:00:30Z</time>
      </trkpt>
      <trkpt lat="49.339" lon="-0.61488">
        <ele>50.5</ele>
        <time>2020-06-17T08:00:31Z</time>
      </trkpt>
      <trkpt lat="49.33901" lon="-0.61488">
        <ele>50.5</ele>
        <time>2020-06-17T08:00:32Z</time>
      </trkpt>
      <trkpt lat="49.33901" lon="-0.61489">
        <ele>50.4</ele>
        <time>2020-06-17T08:00:33Z</time>
      </trkpt>
      <trkpt lat="49.33902" lon="-0.61488">
        <ele>50.4</ele>
        <time>2020-06-17T08:00:34Z</time>
      </trkpt>
      <trkpt lat="49.33902" lon="-0.61489">
        <ele>50.4</ele>
        <time>2020-06-17T08:00:35Z</time>
      </trkpt>
      <trkpt lat="49.33902" lon="-0.61491">
        <ele>50.4</ele>
        <time>2020-06-17T08:00:36Z</time>
      </trkpt>
      <trkpt lat="49.33902" lon="-0.61491">
        <ele>50.4</ele>
        <time>2020-06-17T08:00:37Z</time>
      </trkpt>
      <trkpt lat="49.33902" lon="-0.61492">
        <ele>50.4</ele>
        <time>2020-06-17T08:00:38Z</time>
      </trkpt>
      <trkpt lat="49.33902" lon="-0.61492">
        <ele>50.4</ele>
        <time>2020-06-17T08:00:39Z</time>
      </trkpt>
      <trkpt lat="49.33902" lon="-0.61492">
        <ele>50.4</ele>
        <time>2020-06-17T08:00:40Z</time>
      </trkpt>
      <trkpt lat="49.33902" lon="-0.61492">
        <ele>50.4</ele>
        <time>2020-06-17T08:00:41Z</time>
      </trkpt>
      <trkpt lat="49.33902" lon="-0.61492">
        <ele>50.4</ele>
        <time>2020-06-17T08:00:42Z</time>
      </trkpt>
      <trkpt lat="49.33902" lon="-0.61492">
        <ele>50.4</ele>
        <time>2020-06-17T08:00:43Z</time>
      </trkpt>
      <trkpt lat="49.33902" lon="-0.61492">
        <ele>50.4</ele>
        <time>2020-06-17T08:00:44Z</time>
      </trkpt>
      <trkpt lat="49.33902" lon="-0.61492">
        <ele>50.4</ele>
        <time>2020-06-17T08:00:45Z</time>
      </trkpt>
      <trkpt lat="49.33902" lon="-0.61492">
        <ele>50.4</ele>
        <time>2020-06-17T08:00:46Z</time>
      </trkpt>
      <trkpt lat="49.33903" lon="-0.6149">
        <ele>50.4</ele>
        <time>2020-06-17T08:00:47Z</time>
      </trkpt>
      <trkpt lat="49.33902" lon="-0.6149">
        <ele>50.4</ele>
        <time>2020-06-17T08:00:48Z</time>
      </trkpt>
      <trkpt lat="49.33902" lon="-0.6149">
        <ele>50.4</ele>
        <time>2020-06-17T08:00:49Z</time>
      </trkpt>
      <trkpt lat="49.33905" lon="-0.6149">
        <ele>50.4</ele>
        <time>2020-06-17T08:00:59Z</time>
      </trkpt>
      <trkpt lat="49.33905" lon="-0.61489">
        <ele>50.4</ele>
        <time>2020-06-17T08:01:00Z</time>
      </trkpt>
      <trkpt lat="49.33905" lon="-0.61489">
        <ele>50.4</ele>
        <time>2020-06-17T08:01:01Z</time>
      </trkpt>
      <trkpt lat="49.33906" lon="-0.61489">
        <ele>50.3</ele>
        <time>2020-06-17T08:01:02Z</time>
      </trkpt>
      <trkpt lat="49.33906" lon="-0.61489">
        <ele>50.3</ele>
        <time>2020-06-17T08:01:03Z</time>
      </trkpt>
      <trkpt lat="49.33906" lon="-0.6149">
        <ele>50.3</ele>
        <time>2020-06-17T08:01:04Z</time>
      </trkpt>
      <trkpt lat="49.33905" lon="-0.6149">
        <ele>50.3</ele>
        <time>2020-06-17T08:01:05Z</time>
      </trkpt>
      <trkpt lat="49.33905" lon="-0.6149">
        <ele>50.3</ele>
        <time>2020-06-17T08:01:06Z</time>
      </trkpt>
      <trkpt lat="49.33906" lon="-0.61491">
        <ele>50.3</ele>
        <time>2020-06-17T08:01:07Z</time>
      </trkpt>
      <trkpt lat="49.33906" lon="-0.61491">
        <ele>50.3</ele>
        <time>2020-06-17T08:01:08Z</time>
      </trkpt>
      <trkpt lat="49.33906" lon="-0.61491">
        <ele>50.3</ele>
        <time>2020-06-17T08:01:09Z</time>
      </trkpt>
      <trkpt lat="49.33906" lon="-0.61492">
        <ele>50.3</ele>
        <time>2020-06-17T08:01:10Z</time>
      </trkpt>
      <trkpt lat="49.33906" lon="-0.61492">
        <ele>50.3</ele>
        <time>2020-06-17T08:01:11Z</time>
      </trkpt>
      <trkpt lat="49.33905" lon="-0.61493">
        <ele>50.3</ele>
        <time>2020-06-17T08:01:12Z</time>
      </trkpt>
      <trkpt lat="49.33904" lon="-0.61493">
        <ele>50.3</ele>
        <time>2020-06-17T08:01:13Z</time>
      </trkpt>
      <trkpt lat="49.339" lon="-0.61485">
        <ele>50.2</ele>
        <time>2020-06-17T08:04:49Z</time>
      </trkpt>
      <trkpt lat="49.33901" lon="-0.61486">
        <ele>50.2</ele>
        <time>2020-06-17T08:04:50Z</time>
      </trkpt>
      <trkpt lat="49.33901" lon="-0.61486">
        <ele>50.2</ele>
        <time>2020-06-17T08:04:51Z</time>
      </trkpt>
      <trkpt lat="49.33901" lon="-0.61486">
        <ele>50.2</ele>
        <time>2020-06-17T08:04:52Z</time>
      </trkpt>
      <trkpt lat="49.33902" lon="-0.61487">
        <ele>50.2</ele>
        <time>2020-06-17T08:04:53Z</time>
      </trkpt>
      <trkpt lat="49.33902" lon="-0.61487">
        <ele>50.2</ele>
        <time>2020-06-17T08:04:54Z</time>
      </trkpt>
      <trkpt lat="49.33902" lon="-0.61488">
        <ele>50.1</ele>
        <time>2020-06-17T08:04:55Z</time>
      </trkpt>
      <trkpt lat="49.33902" lon="-0.61487">
        <ele>50.1</ele>
        <time>2020-06-17T08:04:56Z</time>
      </trkpt>
      <trkpt lat="49.33902" lon="-0.61487">
        <ele>50.1</ele>
        <time>2020-06-17T08:04:57Z</time>
      </trkpt>
      <trkpt lat="49.33902" lon="-0.61486">
        <ele>50.1</ele>
        <time>2020-06-17T08:04:58Z</time>
      </trkpt>
      <trkpt lat="49.33902" lon="-0.61485">
        <ele>50.1</ele>
        <time>2020-06-17T08:04:59Z</time>
      </trkpt>
      <trkpt lat="49.33902" lon="-0.61485">
        <ele>50.1</ele>
        <time>2020-06-17T08:05:00Z</time>
      </trkpt>
      <trkpt lat="49.33902" lon="-0.61484">
        <ele>50.1</ele>
        <time>2020-06-17T08:05:01Z</time>
      </trkpt>
      <trkpt lat="49.33902" lon="-0.61483">
        <ele>50.1</ele>
        <time>2020-06-17T08:05:02Z</time>
      </trkpt>
      <trkpt lat="49.33902" lon="-0.61483">
        <ele>50.1</ele>
        <time>2020-06-17T08:05:03Z</time>
      </trkpt>
      <trkpt lat="49.33903" lon="-0.61482">
        <ele>50.1</ele>
        <time>2020-06-17T08:05:04Z</time>
      </trkpt>
      <trkpt lat="49.33903" lon="-0.61481">
        <ele>50.1</ele>
        <time>2020-06-17T08:05:05Z</time>
      </trkpt>
      <trkpt lat="49.33903" lon="-0.6148">
        <ele>50.1</ele>
        <time>2020-06-17T08:05:06Z</time>
      </trkpt>
      <trkpt lat="49.33903" lon="-0.6148">
        <ele>50.1</ele>
        <time>2020-06-17T08:05:07Z</time>
      </trkpt>
      <trkpt lat="49.33903" lon="-0.61479">
        <ele>50.1</ele>
        <time>2020-06-17T08:06:56Z</time>
      </trkpt>
      <trkpt lat="49.33903" lon="-0.61478">
        <ele>50.1</ele>
        <time>2020-06-17T08:06:57Z</time>
      </trkpt>
      <trkpt lat="49.33903" lon="-0.61472">
        <ele>50</ele>
        <time>2020-06-17T08:06:58Z</time>
      </trkpt>
      <trkpt lat="49.33903" lon="-0.61465">
        <ele>50</ele>
        <time>2020-06-17T08:06:59Z</time>
      </trkpt>
      <trkpt lat="49.33903" lon="-0.61456">
        <ele>49.9</ele>
        <time>2020-06-17T08:07:00Z</time>
      </trkpt>
      <trkpt lat="49.33903" lon="-0.61448">
        <ele>49.9</ele>
        <time>2020-06-17T08:07:01Z</time>
      </trkpt>
      <trkpt lat="49.33902" lon="-0.6144">
        <ele>49.8</ele>
        <time>2020-06-17T08:07:02Z</time>
      </trkpt>
      <trkpt lat="49.33901" lon="-0.61432">
        <ele>49.8</ele>
        <time>2020-06-17T08:07:03Z</time>
      </trkpt>
      <trkpt lat="49.33901" lon="-0.61423">
        <ele>49.7</ele>
        <time>2020-06-17T08:07:04Z</time>
      </trkpt>
      <trkpt lat="49.33901" lon="-0.61414">
        <ele>49.7</ele>
        <time>2020-06-17T08:07:05Z</time>
      </trkpt>
      <trkpt lat="49.339" lon="-0.61407">
        <ele>49.7</ele>
        <time>2020-06-17T08:07:06Z</time>
      </trkpt>
      <trkpt lat="49.33898" lon="-0.61401">
        <ele>49.6</ele>
        <time>2020-06-17T08:07:07Z</time>
      </trkpt>
      <trkpt lat="49.33897" lon="-0.61393">
        <ele>49.6</ele>
        <time>2020-06-17T08:07:08Z</time>
      </trkpt>
      <trkpt lat="49.33897" lon="-0.61387">
        <ele>49.5</ele>
        <time>2020-06-17T08:07:09Z</time>
      </trkpt>
      <trkpt lat="49.33896" lon="-0.6138">
        <ele>49.5</ele>
        <time>2020-06-17T08:07:10Z</time>
      </trkpt>
      <trkpt lat="49.33896" lon="-0.61371">
        <ele>49.4</ele>
        <time>2020-06-17T08:07:11Z</time>
      </trkpt>
      <trkpt lat="49.33895" lon="-0.61365">
        <ele>49.3</ele>
        <time>2020-06-17T08:07:12Z</time>
      </trkpt>
      <trkpt lat="49.33894" lon="-0.61358">
        <ele>49.3</ele>
        <time>2020-06-17T08:07:13Z</time>
      </trkpt>
      <trkpt lat="49.33893" lon="-0.61351">
        <ele>49.2</ele>
        <time>2020-06-17T08:07:14Z</time>
      </trkpt>
      <trkpt lat="49.33893" lon="-0.61344">
        <ele>49.1</ele>
        <time>2020-06-17T08:07:15Z</time>
      </trkpt>
      <trkpt lat="49.33892" lon="-0.61336">
        <ele>49</ele>
        <time>2020-06-17T08:07:16Z</time>
      </trkpt>
      <trkpt lat="49.3389" lon="-0.61329">
        <ele>49</ele>
        <time>2020-06-17T08:07:17Z</time>
      </trkpt>
      <trkpt lat="49.33889" lon="-0.61322">
        <ele>49</ele>
        <time>2020-06-17T08:07:18Z</time>
      </trkpt>
      <trkpt lat="49.33889" lon="-0.61315">
        <ele>48.9</ele>
        <time>2020-06-17T08:07:19Z</time>
      </trkpt>
      <trkpt lat="49.33888" lon="-0.61308">
        <ele>48.9</ele>
        <time>2020-06-17T08:07:20Z</time>
      </trkpt>
      <trkpt lat="49.33887" lon="-0.613">
        <ele>48.8</ele>
        <time>2020-06-17T08:07:21Z</time>
      </trkpt>
      <trkpt lat="49.33887" lon="-0.61292">
        <ele>48.7</ele>
        <time>2020-06-17T08:07:22Z</time>
      </trkpt>
      <trkpt lat="49.33885" lon="-0.61284">
        <ele>48.7</ele>
        <time>2020-06-17T08:07:23Z</time>
      </trkpt>
      <trkpt lat="49.33884" lon="-0.61277">
        <ele>48.6</ele>
        <time>2020-06-17T08:07:24Z</time>
      </trkpt>
      <trkpt lat="49.33884" lon="-0.61269">
        <ele>48.5</ele>
        <time>2020-06-17T08:07:25Z</time>
      </trkpt>
      <trkpt lat="49.33883" lon="-0.61264">
        <ele>48.5</ele>
        <time>2020-06-17T08:07:26Z</time>
      </trkpt>
      <trkpt lat="49.33882" lon="-0.61258">
        <ele>48.5</ele>
        <time>2020-06-17T08:07:27Z</time>
      </trkpt>
      <trkpt lat="49.33882" lon="-0.61251">
        <ele>48.4</ele>
        <time>2020-06-17T08:07:28Z</time>
      </trkpt>
      <trkpt lat="49.33881" lon="-0.61243">
        <ele>48.4</ele>
        <time>2020-06-17T08:07:29Z</time>
      </trkpt>
      <trkpt lat="49.33881" lon="-0.61236">
        <ele>48.3</ele>
        <time>2020-06-17T08:07:30Z</time>
      </trkpt>
      <trkpt lat="49.33881" lon="-0.61229">
        <ele>48.3</ele>
        <time>2020-06-17T08:07:31Z</time>
      </trkpt>
      <trkpt lat="49.33881" lon="-0.61222">
        <ele>48.3</ele>
        <time>2020-06-17T08:07:32Z</time>
      </trkpt>
      <trkpt lat="49.3388" lon="-0.61215">
        <ele>48.2</ele>
        <time>2020-06-17T08:07:33Z</time>
      </trkpt>
      <trkpt lat="49.3388" lon="-0.61208">
        <ele>48.2</ele>
        <time>2020-06-17T08:07:34Z</time>
      </trkpt>
      <trkpt lat="49.3388" lon="-0.61201">
        <ele>48.1</ele>
        <time>2020-06-17T08:07:35Z</time>
      </trkpt>
      <trkpt lat="49.3388" lon="-0.61194">
        <ele>48</ele>
        <time>2020-06-17T08:07:36Z</time>
      </trkpt>
      <trkpt lat="49.3388" lon="-0.61186">
        <ele>48</ele>
        <time>2020-06-17T08:07:37Z</time>
      </trkpt>
      <trkpt lat="49.33879" lon="-0.61178">
        <ele>47.9</ele>
        <time>2020-06-17T08:07:38Z</time>
      </trkpt>
      <trkpt lat="49.33878" lon="-0.61171">
        <ele>47.8</ele>
        <time>2020-06-17T08:07:39Z</time>
      </trkpt>
      <trkpt lat="49.33879" lon="-0.61164">
        <ele>47.8</ele>
        <time>2020-06-17T08:07:40Z</time>
      </trkpt>
      <trkpt lat="49.33879" lon="-0.61157">
        <ele>47.7</ele>
        <time>2020-06-17T08:07:41Z</time>
      </trkpt>
      <trkpt lat="49.33879" lon="-0.6115">
        <ele>47.6</ele>
        <time>2020-06-17T08:07:42Z</time>
      </trkpt>
      <trkpt lat="49.33879" lon="-0.61144">
        <ele>47.6</ele>
        <time>2020-06-17T08:07:43Z</time>
      </trkpt>
      <trkpt lat="49.33879" lon="-0.61137">
        <ele>47.5</ele>
        <time>2020-06-17T08:07:44Z</time>
      </trkpt>
      <trkpt lat="49.33878" lon="-0.6113">
        <ele>47.4</ele>
        <time>2020-06-17T08:07:45Z</time>
      </trkpt>
      <trkpt lat="49.33879" lon="-0.61122">
        <ele>47.4</ele>
        <time>2020-06-17T08:07:46Z</time>
      </trkpt>
      <trkpt lat="49.33879" lon="-0.61114">
        <ele>47.3</ele>
        <time>2020-06-17T08:07:47Z</time>
      </trkpt>
      <trkpt lat="49.3388" lon="-0.61107">
        <ele>47.2</ele>
        <time>2020-06-17T08:07:48Z</time>
      </trkpt>
      <trkpt lat="49.33879" lon="-0.61099">
        <ele>47.1</ele>
        <time>2020-06-17T08:07:49Z</time>
      </trkpt>
      <trkpt lat="49.33879" lon="-0.61092">
        <ele>47</ele>
        <time>2020-06-17T08:07:50Z</time>
      </trkpt>
      <trkpt lat="49.33879" lon="-0.61085">
        <ele>46.9</ele>
        <time>2020-06-17T08:07:51Z</time>
      </trkpt>
      <trkpt lat="49.33879" lon="-0.61078">
        <ele>46.8</ele>
        <time>2020-06-17T08:07:52Z</time>
      </trkpt>
      <trkpt lat="49.33879" lon="-0.61072">
        <ele>46.7</ele>
        <time>2020-06-17T08:07:53Z</time>
      </trkpt>
      <trkpt lat="49.33879" lon="-0.61065">
        <ele>46.6</ele>
        <time>2020-06-17T08:07:54Z</time>
      </trkpt>
      <trkpt lat="49.3388" lon="-0.61057">
        <ele>46.4</ele>
        <time>2020-06-17T08:07:55Z</time>
      </trkpt>
      <trkpt lat="49.33881" lon="-0.6105">
        <ele>46.3</ele>
        <time>2020-06-17T08:07:56Z</time>
      </trkpt>
      <trkpt lat="49.33882" lon="-0.61043">
        <ele>46.1</ele>
        <time>2020-06-17T08:07:57Z</time>
      </trkpt>
      <trkpt lat="49.33883" lon="-0.61037">
        <ele>45.9</ele>
        <time>2020-06-17T08:07:58Z</time>
      </trkpt>
      <trkpt lat="49.33883" lon="-0.6103">
        <ele>45.8</ele>
        <time>2020-06-17T08:07:59Z</time>
      </trkpt>
      <trkpt lat="49.33883" lon="-0.61023">
        <ele>45.6</ele>
        <time>2020-06-17T08:08:00Z</time>
      </trkpt>
      <trkpt lat="49.33883" lon="-0.61015">
        <ele>45.4</ele>
        <time>2020-06-17T08:08:01Z</time>
      </trkpt>
      <trkpt lat="49.33884" lon="-0.61009">
        <ele>45.2</ele>
        <time>2020-06-17T08:08:02Z</time>
      </trkpt>
      <trkpt lat="49.33884" lon="-0.61002">
        <ele>45.1</ele>
        <time>2020-06-17T08:08:03Z</time>
      </trkpt>
      <trkpt lat="49.33885" lon="-0.60997">
        <ele>44.9</ele>
        <time>2020-06-17T08:08:04Z</time>
      </trkpt>
      <trkpt lat="49.33886" lon="-0.60991">
        <ele>44.7</ele>
        <time>2020-06-17T08:08:05Z</time>
      </trkpt>
      <trkpt lat="49.33887" lon="-0.60984">
        <ele>44.5</ele>
        <time>2020-06-17T08:08:06Z</time>
      </trkpt>
      <trkpt lat="49.33888" lon="-0.60977">
        <ele>44.3</ele>
        <time>2020-06-17T08:08:07Z</time>
      </trkpt>
      <trkpt lat="49.3389" lon="-0.60971">
        <ele>44.1</ele>
        <time>2020-06-17T08:08:08Z</time>
      </trkpt>
      <trkpt lat="49.3389" lon="-0.60963">
        <ele>43.8</ele>
        <time>2020-06-17T08:08:09Z</time>
      </trkpt>
      <trkpt lat="49.33889" lon="-0.60955">
        <ele>43.5</ele>
        <time>2020-06-17T08:08:10Z</time>
      </trkpt>
      <trkpt lat="49.33889" lon="-0.60948">
        <ele>43.3</ele>
        <time>2020-06-17T08:08:11Z</time>
      </trkpt>
      <trkpt lat="49.33889" lon="-0.60941">
        <ele>43</ele>
        <time>2020-06-17T08:08:12Z</time>
      </trkpt>
      <trkpt lat="49.33888" lon="-0.60934">
        <ele>42.8</ele>
        <time>2020-06-17T08:08:13Z</time>
      </trkpt>
      <trkpt lat="49.33887" lon="-0.60928">
        <ele>42.5</ele>
        <time>2020-06-17T08:08:14Z</time>
      </trkpt>
      <trkpt lat="49.33888" lon="-0.6092">
        <ele>42.2</ele>
        <time>2020-06-17T08:08:15Z</time>
      </trkpt>
      <trkpt lat="49.33888" lon="-0.60913">
        <ele>41.9</ele>
        <time>2020-06-17T08:08:16Z</time>
      </trkpt>
      <trkpt lat="49.33889" lon="-0.60905">
        <ele>41.6</ele>
        <time>2020-06-17T08:08:17Z</time>
      </trkpt>
      <trkpt lat="49.3389" lon="-0.60898">
        <ele>41.3</ele>
        <time>2020-06-17T08:08:18Z</time>
      </trkpt>
      <trkpt lat="49.33891" lon="-0.6089">
        <ele>40.9</ele>
        <time>2020-06-17T08:08:19Z</time>
      </trkpt>
      <trkpt lat="49.33892" lon="-0.60884">
        <ele>40.6</ele>
        <time>2020-06-17T08:08:20Z</time>
      </trkpt>
      <trkpt lat="49.33893" lon="-0.60878">
        <ele>40.3</ele>
        <time>2020-06-17T08:08:21Z</time>
      </trkpt>
      <trkpt lat="49.33894" lon="-0.60871">
        <ele>40</ele>
        <time>2020-06-17T08:08:22Z</time>
      </trkpt>
      <trkpt lat="49.33895" lon="-0.60864">
        <ele>39.6</ele>
        <time>2020-06-17T08:08:23Z</time>
      </trkpt>
      <trkpt lat="49.33896" lon="-0.60857">
        <ele>39.2</ele>
        <time>2020-06-17T08:08:24Z</time>
      </trkpt>
      <trkpt lat="49.33896" lon="-0.60851">
        <ele>38.9</ele>
        <time>2020-06-17T08:08:25Z</time>
      </trkpt>
      <trkpt lat="49.33895" lon="-0.60844">
        <ele>38.5</ele>
        <time>2020-06-17T08:08:26Z</time>
      </trkpt>
      <trkpt lat="49.33894" lon="-0.60837">
        <ele>38.1</ele>
        <time>2020-06-17T08:08:27Z</time>
      </trkpt>
      <trkpt lat="49.33893" lon="-0.60828">
        <ele>37.6</ele>
        <time>2020-06-17T08:08:28Z</time>
      </trkpt>
      <trkpt lat="49.33892" lon="-0.6082">
        <ele>37.2</ele>
        <time>2020-06-17T08:08:29Z</time>
      </trkpt>
      <trkpt lat="49.33892" lon="-0.60811">
        <ele>36.7</ele>
        <time>2020-06-17T08:08:30Z</time>
      </trkpt>
      <trkpt lat="49.33893" lon="-0.608">
        <ele>36.1</ele>
        <time>2020-06-17T08:08:31Z</time>
      </trkpt>
      <trkpt lat="49.33893" lon="-0.60789">
        <ele>35.5</ele>
        <time>2020-06-17T08:08:32Z</time>
      </trkpt>
      <trkpt lat="49.33894" lon="-0.60777">
        <ele>34.9</ele>
        <time>2020-06-17T08:08:33Z</time>
      </trkpt>
      <trkpt lat="49.33893" lon="-0.60764">
        <ele>34.2</ele>
        <time>2020-06-17T08:08:34Z</time>
      </trkpt>
      <trkpt lat="49.33892" lon="-0.60752">
        <ele>33.5</ele>
        <time>2020-06-17T08:08:35Z</time>
      </trkpt>
      <trkpt lat="49.3389" lon="-0.60738">
        <ele>32.7</ele>
        <time>2020-06-17T08:08:36Z</time>
      </trkpt>
      <trkpt lat="49.33887" lon="-0.60723">
        <ele>31.9</ele>
        <time>2020-06-17T08:08:37Z</time>
      </trkpt>
      <trkpt lat="49.33885" lon="-0.60708">
        <ele>31.1</ele>
        <time>2020-06-17T08:08:38Z</time>
      </trkpt>
      <trkpt lat="49.33881" lon="-0.60693">
        <ele>30.2</ele>
        <time>2020-06-17T08:08:39Z</time>
      </trkpt>
      <trkpt lat="49.33877" lon="-0.60677">
        <ele>29.2</ele>
        <time>2020-06-17T08:08:40Z</time>
      </trkpt>
      <trkpt lat="49.33873" lon="-0.60661">
        <ele>28.2</ele>
        <time>2020-06-17T08:08:41Z</time>
      </trkpt>
      <trkpt lat="49.33868" lon="-0.60646">
        <ele>27.3</ele>
        <time>2020-06-17T08:08:42Z</time>
      </trkpt>
      <trkpt lat="49.33863" lon="-0.60631">
        <ele>26.4</ele>
        <time>2020-06-17T08:08:43Z</time>
      </trkpt>
      <trkpt lat="49.33858" lon="-0.60616">
        <ele>25.5</ele>
        <time>2020-06-17T08:08:44Z</time>
      </trkpt>
      <trkpt lat="49.33853" lon="-0.60601">
        <ele>24.6</ele>
        <time>2020-06-17T08:08:45Z</time>
      </trkpt>
      <trkpt lat="49.33849" lon="-0.60586">
        <ele>23.7</ele>
        <time>2020-06-17T08:08:46Z</time>
      </trkpt>
      <trkpt lat="49.33844" lon="-0.60572">
        <ele>22.8</ele>
        <time>2020-06-17T08:08:47Z</time>
      </trkpt>
      <trkpt lat="49.3384" lon="-0.60558">
        <ele>22</ele>
        <time>2020-06-17T08:08:48Z</time>
      </trkpt>
      <trkpt lat="49.33835" lon="-0.60544">
        <ele>21.2</ele>
        <time>2020-06-17T08:08:49Z</time>
      </trkpt>
      <trkpt lat="49.33832" lon="-0.60531">
        <ele>20.4</ele>
        <time>2020-06-17T08:08:50Z</time>
      </trkpt>
      <trkpt lat="49.33828" lon="-0.6052">
        <ele>19.7</ele>
        <time>2020-06-17T08:08:51Z</time>
      </trkpt>
      <trkpt lat="49.33826" lon="-0.60509">
        <ele>19.2</ele>
        <time>2020-06-17T08:08:52Z</time>
      </trkpt>
      <trkpt lat="49.33823" lon="-0.60502">
        <ele>18.8</ele>
        <time>2020-06-17T08:08:53Z</time>
      </trkpt>
      <trkpt lat="49.33821" lon="-0.60495">
        <ele>18.4</ele>
        <time>2020-06-17T08:08:54Z</time>
      </trkpt>
      <trkpt lat="49.3382" lon="-0.60489">
        <ele>18</ele>
        <time>2020-06-17T08:08:55Z</time>
      </trkpt>
      <trkpt lat="49.33819" lon="-0.60485">
        <ele>17.7</ele>
        <time>2020-06-17T08:08:56Z</time>
      </trkpt>
      <trkpt lat="49.33816" lon="-0.60479">
        <ele>17.4</ele>
        <time>2020-06-17T08:08:57Z</time>
      </trkpt>
      <trkpt lat="49.33814" lon="-0.60471">
        <ele>16.9</ele>
        <time>2020-06-17T08:08:58Z</time>
      </trkpt>
      <trkpt lat="49.33812" lon="-0.60462">
        <ele>16.4</ele>
        <time>2020-06-17T08:08:59Z</time>
      </trkpt>
      <trkpt lat="49.3381" lon="-0.60454">
        <ele>15.9</ele>
        <time>2020-06-17T08:09:00Z</time>
      </trkpt>
      <trkpt lat="49.33807" lon="-0.60446">
        <ele>15.4</ele>
        <time>2020-06-17T08:09:01Z</time>
      </trkpt>
      <trkpt lat="49.33804" lon="-0.60437">
        <ele>14.9</ele>
        <time>2020-06-17T08:09:02Z</time>
      </trkpt>
      <trkpt lat="49.33801" lon="-0.60426">
        <ele>14.2</ele>
        <time>2020-06-17T08:09:03Z</time>
      </trkpt>
      <trkpt lat="49.33799" lon="-0.60415">
        <ele>13.5</ele>
        <time>2020-06-17T08:09:04Z</time>
      </trkpt>
      <trkpt lat="49.33796" lon="-0.60403">
        <ele>12.8</ele>
        <time>2020-06-17T08:09:05Z</time>
      </trkpt>
      <trkpt lat="49.33795" lon="-0.6039">
        <ele>12.2</ele>
        <time>2020-06-17T08:09:06Z</time>
      </trkpt>
      <trkpt lat="49.33793" lon="-0.60378">
        <ele>11.5</ele>
        <time>2020-06-17T08:09:07Z</time>
      </trkpt>
      <trkpt lat="49.33791" lon="-0.60365">
        <ele>10.8</ele>
        <time>2020-06-17T08:09:08Z</time>
      </trkpt>
      <trkpt lat="49.33789" lon="-0.6035">
        <ele>10.1</ele>
        <time>2020-06-17T08:09:09Z</time>
      </trkpt>
      <trkpt lat="49.33788" lon="-0.60337">
        <ele>9.5</ele>
        <time>2020-06-17T08:09:10Z</time>
      </trkpt>
      <trkpt lat="49.33786" lon="-0.6032">
        <ele>8.8</ele>
        <time>2020-06-17T08:09:11Z</time>
      </trkpt>
      <trkpt lat="49.33784" lon="-0.60305">
        <ele>8.3</ele>
        <time>2020-06-17T08:09:12Z</time>
      </trkpt>
      <trkpt lat="49.33783" lon="-0.60289">
        <ele>7.7</ele>
        <time>2020-06-17T08:09:13Z</time>
      </trkpt>
      <trkpt lat="49.33781" lon="-0.60274">
        <ele>7.3</ele>
        <time>2020-06-17T08:09:14Z</time>
      </trkpt>
      <trkpt lat="49.3378" lon="-0.60258">
        <ele>6.8</ele>
        <time>2020-06-17T08:09:15Z</time>
      </trkpt>
      <trkpt lat="49.33779" lon="-0.60243">
        <ele>6.5</ele>
        <time>2020-06-17T08:09:16Z</time>
      </trkpt>
      <trkpt lat="49.33779" lon="-0.60228">
        <ele>6.1</ele>
        <time>2020-06-17T08:09:17Z</time>
      </trkpt>
      <trkpt lat="49.33779" lon="-0.60212">
        <ele>5.8</ele>
        <time>2020-06-17T08:09:18Z</time>
      </trkpt>
      <trkpt lat="49.33779" lon="-0.60197">
        <ele>5.5</ele>
        <time>2020-06-17T08:09:19Z</time>
      </trkpt>
      <trkpt lat="49.33779" lon="-0.60182">
        <ele>5.3</ele>
        <time>2020-06-17T08:09:20Z</time>
      </trkpt>
      <trkpt lat="49.3378" lon="-0.60167">
        <ele>5.1</ele>
        <time>2020-06-17T08:09:21Z</time>
      </trkpt>
      <trkpt lat="49.3378" lon="-0.60153">
        <ele>4.9</ele>
        <time>2020-06-17T08:09:22Z</time>
      </trkpt>
      <trkpt lat="49.3378" lon="-0.60139">
        <ele>4.8</ele>
        <time>2020-06-17T08:09:23Z</time>
      </trkpt>
      <trkpt lat="49.3378" lon="-0.60124">
        <ele>4.7</ele>
        <time>2020-06-17T08:09:24Z</time>
      </trkpt>
      <trkpt lat="49.33781" lon="-0.6011">
        <ele>4.6</ele>
        <time>2020-06-17T08:09:25Z</time>
      </trkpt>
      <trkpt lat="49.33782" lon="-0.60099">
        <ele>4.5</ele>
        <time>2020-06-17T08:09:26Z</time>
      </trkpt>
      <trkpt lat="49.33783" lon="-0.60087">
        <ele>4.4</ele>
        <time>2020-06-17T08:09:27Z</time>
      </trkpt>
      <trkpt lat="49.33784" lon="-0.60075">
        <ele>4.4</ele>
        <time>2020-06-17T08:09:28Z</time>
      </trkpt>
      <trkpt lat="49.33785" lon="-0.60064">
        <ele>4.3</ele>
        <time>2020-06-17T08:09:29Z</time>
      </trkpt>
      <trkpt lat="49.33787" lon="-0.60053">
        <ele>4.3</ele>
        <time>2020-06-17T08:09:30Z</time>
      </trkpt>
      <trkpt lat="49.33789" lon="-0.60042">
        <ele>4.2</ele>
        <time>2020-06-17T08:09:31Z</time>
      </trkpt>
      <trkpt lat="49.33791" lon="-0.6003">
        <ele>4.2</ele>
        <time>2020-06-17T08:09:32Z</time>
      </trkpt>
      <trkpt lat="49.33793" lon="-0.60018">
        <ele>4.1</ele>
        <time>2020-06-17T08:09:33Z</time>
      </trkpt>
      <trkpt lat="49.33795" lon="-0.60005">
        <ele>4.1</ele>
        <time>2020-06-17T08:09:34Z</time>
      </trkpt>
      <trkpt lat="49.33798" lon="-0.59993">
        <ele>4.1</ele>
        <time>2020-06-17T08:09:35Z</time>
      </trkpt>
      <trkpt lat="49.338" lon="-0.59981">
        <ele>4</ele>
        <time>2020-06-17T08:09:36Z</time>
      </trkpt>
      <trkpt lat="49.33803" lon="-0.59969">
        <ele>4.1</ele>
        <time>2020-06-17T08:09:37Z</time>
      </trkpt>
      <trkpt lat="49.33805" lon="-0.59958">
        <ele>4.1</ele>
        <time>2020-06-17T08:09:38Z</time>
      </trkpt>
      <trkpt lat="49.33807" lon="-0.59946">
        <ele>4.1</ele>
        <time>2020-06-17T08:09:39Z</time>
      </trkpt>
      <trkpt lat="49.3381" lon="-0.59934">
        <ele>4</ele>
        <time>2020-06-17T08:09:40Z</time>
      </trkpt>
      <trkpt lat="49.33813" lon="-0.59923">
        <ele>4</ele>
        <time>2020-06-17T08:09:41Z</time>
      </trkpt>
      <trkpt lat="49.33816" lon="-0.59913">
        <ele>3.9</ele>
        <time>2020-06-17T08:09:42Z</time>
      </trkpt>
      <trkpt lat="49.33819" lon="-0.59904">
        <ele>3.8</ele>
        <time>2020-06-17T08:09:43Z</time>
      </trkpt>
      <trkpt lat="49.33822" lon="-0.59894">
        <ele>3.8</ele>
        <time>2020-06-17T08:09:44Z</time>
      </trkpt>
      <trkpt lat="49.33825" lon="-0.59884">
        <ele>3.8</ele>
        <time>2020-06-17T08:09:45Z</time>
      </trkpt>
      <trkpt lat="49.33829" lon="-0.59874">
        <ele>3.8</ele>
        <time>2020-06-17T08:09:46Z</time>
      </trkpt>
      <trkpt lat="49.33832" lon="-0.59866">
        <ele>3.8</ele>
        <time>2020-06-17T08:09:47Z</time>
      </trkpt>
      <trkpt lat="49.33836" lon="-0.59856">
        <ele>3.8</ele>
        <time>2020-06-17T08:09:48Z</time>
      </trkpt>
      <trkpt lat="49.33839" lon="-0.59845">
        <ele>3.8</ele>
        <time>2020-06-17T08:09:49Z</time>
      </trkpt>
      <trkpt lat="49.33843" lon="-0.59835">
        <ele>3.9</ele>
        <time>2020-06-17T08:09:50Z</time>
      </trkpt>
      <trkpt lat="49.33846" lon="-0.59825">
        <ele>3.9</ele>
        <time>2020-06-17T08:09:51Z</time>
      </trkpt>
      <trkpt lat="49.3385" lon="-0.59815">
        <ele>3.9</ele>
        <time>2020-06-17T08:09:52Z</time>
      </trkpt>
      <trkpt lat="49.33854" lon="-0.59806">
        <ele>4</ele>
        <time>2020-06-17T08:09:53Z</time>
      </trkpt>
      <trkpt lat="49.33859" lon="-0.59797">
        <ele>4</ele>
        <time>2020-06-17T08:09:54Z</time>
      </trkpt>
      <trkpt lat="49.33862" lon="-0.59789">
        <ele>4.1</ele>
        <time>2020-06-17T08:09:55Z</time>
      </trkpt>
      <trkpt lat="49.33865" lon="-0.5978">
        <ele>4.1</ele>
        <time>2020-06-17T08:09:56Z</time>
      </trkpt>
      <trkpt lat="49.3387" lon="-0.59771">
        <ele>4.2</ele>
        <time>2020-06-17T08:09:57Z</time>
      </trkpt>
      <trkpt lat="49.33874" lon="-0.59762">
        <ele>4.2</ele>
        <time>2020-06-17T08:09:58Z</time>
      </trkpt>
      <trkpt lat="49.33878" lon="-0.59753">
        <ele>4.3</ele>
        <time>2020-06-17T08:09:59Z</time>
      </trkpt>
      <trkpt lat="49.33882" lon="-0.59744">
        <ele>4.3</ele>
        <time>2020-06-17T08:10:00Z</time>
      </trkpt>
      <trkpt lat="49.33886" lon="-0.59736">
        <ele>4.4</ele>
        <time>2020-06-17T08:10:01Z</time>
      </trkpt>
      <trkpt lat="49.3389" lon="-0.59727">
        <ele>4.4</ele>
        <time>2020-06-17T08:10:02Z</time>
      </trkpt>
      <trkpt lat="49.33895" lon="-0.59719">
        <ele>4.4</ele>
        <time>2020-06-17T08:10:03Z</time>
      </trkpt>
      <trkpt lat="49.339" lon="-0.59709">
        <ele>4.4</ele>
        <time>2020-06-17T08:10:04Z</time>
      </trkpt>
      <trkpt lat="49.33904" lon="-0.59701">
        <ele>4.4</ele>
        <time>2020-06-17T08:10:05Z</time>
      </trkpt>
      <trkpt lat="49.33908" lon="-0.59692">
        <ele>4.4</ele>
        <time>2020-06-17T08:10:06Z</time>
      </trkpt>
      <trkpt lat="49.33913" lon="-0.59684">
        <ele>4.4</ele>
        <time>2020-06-17T08:10:07Z</time>
      </trkpt>
      <trkpt lat="49.33917" lon="-0.59675">
        <ele>4.4</ele>
        <time>2020-06-17T08:10:08Z</time>
      </trkpt>
      <trkpt lat="49.33921" lon="-0.59666">
        <ele>4.4</ele>
        <time>2020-06-17T08:10:09Z</time>
      </trkpt>
      <trkpt lat="49.33925" lon="-0.59657">
        <ele>4.5</ele>
        <time>2020-06-17T08:10:10Z</time>
      </trkpt>
      <trkpt lat="49.33928" lon="-0.59648">
        <ele>4.4</ele>
        <time>2020-06-17T08:10:11Z</time>
      </trkpt>
      <trkpt lat="49.33932" lon="-0.59638">
        <ele>4.4</ele>
        <time>2020-06-17T08:10:12Z</time>
      </trkpt>
      <trkpt lat="49.33936" lon="-0.59628">
        <ele>4.4</ele>
        <time>2020-06-17T08:10:13Z</time>
      </trkpt>
      <trkpt lat="49.3394" lon="-0.59619">
        <ele>4.4</ele>
        <time>2020-06-17T08:10:14Z</time>
      </trkpt>
      <trkpt lat="49.33944" lon="-0.5961">
        <ele>4.4</ele>
        <time>2020-06-17T08:10:15Z</time>
      </trkpt>
      <trkpt lat="49.33947" lon="-0.59602">
        <ele>4.4</ele>
        <time>2020-06-17T08:10:16Z</time>
      </trkpt>
      <trkpt lat="49.33951" lon="-0.59595">
        <ele>4.3</ele>
        <time>2020-06-17T08:10:17Z</time>
      </trkpt>
      <trkpt lat="49.33954" lon="-0.59587">
        <ele>4.2</ele>
        <time>2020-06-17T08:10:18Z</time>
      </trkpt>
      <trkpt lat="49.33958" lon="-0.59579">
        <ele>4.1</ele>
        <time>2020-06-17T08:10:19Z</time>
      </trkpt>
      <trkpt lat="49.33962" lon="-0.59571">
        <ele>4.1</ele>
        <time>2020-06-17T08:10:20Z</time>
      </trkpt>
      <trkpt lat="49.33965" lon="-0.59563">
        <ele>4.1</ele>
        <time>2020-06-17T08:10:21Z</time>
      </trkpt>
      <trkpt lat="49.33968" lon="-0.59555">
        <ele>4.1</ele>
        <time>2020-06-17T08:10:22Z</time>
      </trkpt>
      <trkpt lat="49.33971" lon="-0.59547">
        <ele>4.1</ele>
        <time>2020-06-17T08:10:23Z</time>
      </trkpt>
      <trkpt lat="49.33973" lon="-0.59539">
        <ele>4.1</ele>
        <time>2020-06-17T08:10:24Z</time>
      </trkpt>
      <trkpt lat="49.33975" lon="-0.5953">
        <ele>4</ele>
        <time>2020-06-17T08:10:25Z</time>
      </trkpt>
      <trkpt lat="49.33977" lon="-0.59521">
        <ele>4</ele>
        <time>2020-06-17T08:10:26Z</time>
      </trkpt>
      <trkpt lat="49.33979" lon="-0.59513">
        <ele>4</ele>
        <time>2020-06-17T08:10:27Z</time>
      </trkpt>
      <trkpt lat="49.33981" lon="-0.59505">
        <ele>4</ele>
        <time>2020-06-17T08:10:28Z</time>
      </trkpt>
      <trkpt lat="49.33983" lon="-0.59497">
        <ele>4</ele>
        <time>2020-06-17T08:10:29Z</time>
      </trkpt>
      <trkpt lat="49.33984" lon="-0.59488">
        <ele>3.9</ele>
        <time>2020-06-17T08:10:30Z</time>
      </trkpt>
      <trkpt lat="49.33986" lon="-0.59479">
        <ele>3.9</ele>
        <time>2020-06-17T08:10:31Z</time>
      </trkpt>
      <trkpt lat="49.33987" lon="-0.59469">
        <ele>3.9</ele>
        <time>2020-06-17T08:10:32Z</time>
      </trkpt>
      <trkpt lat="49.33988" lon="-0.59461">
        <ele>3.9</ele>
        <time>2020-06-17T08:10:33Z</time>
      </trkpt>
      <trkpt lat="49.3399" lon="-0.59451">
        <ele>3.9</ele>
        <time>2020-06-17T08:10:34Z</time>
      </trkpt>
      <trkpt lat="49.33991" lon="-0.59441">
        <ele>3.9</ele>
        <time>2020-06-17T08:10:35Z</time>
      </trkpt>
      <trkpt lat="49.33993" lon="-0.59432">
        <ele>3.9</ele>
        <time>2020-06-17T08:10:36Z</time>
      </trkpt>
      <trkpt lat="49.33993" lon="-0.59422">
        <ele>3.9</ele>
        <time>2020-06-17T08:10:37Z</time>
      </trkpt>
      <trkpt lat="49.33993" lon="-0.59413">
        <ele>3.9</ele>
        <time>2020-06-17T08:10:38Z</time>
      </trkpt>
      <trkpt lat="49.33993" lon="-0.59404">
        <ele>3.9</ele>
        <time>2020-06-17T08:10:39Z</time>
      </trkpt>
      <trkpt lat="49.33991" lon="-0.59394">
        <ele>3.8</ele>
        <time>2020-06-17T08:10:40Z</time>
      </trkpt>
      <trkpt lat="49.3399" lon="-0.59384">
        <ele>3.8</ele>
        <time>2020-06-17T08:10:41Z</time>
      </trkpt>
      <trkpt lat="49.33988" lon="-0.59374">
        <ele>3.8</ele>
        <time>2020-06-17T08:10:42Z</time>
      </trkpt>
      <trkpt lat="49.33988" lon="-0.59364">
        <ele>3.8</ele>
        <time>2020-06-17T08:10:43Z</time>
      </trkpt>
      <trkpt lat="49.33988" lon="-0.59354">
        <ele>3.8</ele>
        <time>2020-06-17T08:10:44Z</time>
      </trkpt>
      <trkpt lat="49.33988" lon="-0.59343">
        <ele>3.8</ele>
        <time>2020-06-17T08:10:45Z</time>
      </trkpt>
      <trkpt lat="49.33988" lon="-0.59334">
        <ele>3.8</ele>
        <time>2020-06-17T08:10:46Z</time>
      </trkpt>
      <trkpt lat="49.33987" lon="-0.59325">
        <ele>3.8</ele>
        <time>2020-06-17T08:10:47Z</time>
      </trkpt>
      <trkpt lat="49.33987" lon="-0.59316">
        <ele>3.9</ele>
        <time>2020-06-17T08:10:48Z</time>
      </trkpt>
      <trkpt lat="49.33987" lon="-0.59308">
        <ele>3.9</ele>
        <time>2020-06-17T08:10:49Z</time>
      </trkpt>
      <trkpt lat="49.33987" lon="-0.593">
        <ele>3.9</ele>
        <time>2020-06-17T08:10:50Z</time>
      </trkpt>
      <trkpt lat="49.33986" lon="-0.59292">
        <ele>3.9</ele>
        <time>2020-06-17T08:10:51Z</time>
      </trkpt>
      <trkpt lat="49.33986" lon="-0.59283">
        <ele>3.9</ele>
        <time>2020-06-17T08:10:52Z</time>
      </trkpt>
      <trkpt lat="49.33986" lon="-0.59274">
        <ele>3.9</ele>
        <time>2020-06-17T08:10:53Z</time>
      </trkpt>
      <trkpt lat="49.33986" lon="-0.59265">
        <ele>3.9</ele>
        <time>2020-06-17T08:10:54Z</time>
      </trkpt>
      <trkpt lat="49.33987" lon="-0.59256">
        <ele>3.8</ele>
        <time>2020-06-17T08:10:55Z</time>
      </trkpt>
      <trkpt lat="49.33988" lon="-0.59246">
        <ele>3.8</ele>
        <time>2020-06-17T08:10:56Z</time>
      </trkpt>
      <trkpt lat="49.33988" lon="-0.59238">
        <ele>3.8</ele>
        <time>2020-06-17T08:10:57Z</time>
      </trkpt>
      <trkpt lat="49.33989" lon="-0.59229">
        <ele>3.8</ele>
        <time>2020-06-17T08:10:58Z</time>
      </trkpt>
      <trkpt lat="49.33989" lon="-0.59222">
        <ele>3.8</ele>
        <time>2020-06-17T08:10:59Z</time>
      </trkpt>
      <trkpt lat="49.3399" lon="-0.59214">
        <ele>3.8</ele>
        <time>2020-06-17T08:11:00Z</time>
      </trkpt>
      <trkpt lat="49.3399" lon="-0.59203">
        <ele>3.9</ele>
        <time>2020-06-17T08:11:01Z</time>
      </trkpt>
      <trkpt lat="49.33989" lon="-0.59194">
        <ele>3.9</ele>
        <time>2020-06-17T08:11:02Z</time>
      </trkpt>
      <trkpt lat="49.33989" lon="-0.59183">
        <ele>3.9</ele>
        <time>2020-06-17T08:11:03Z</time>
      </trkpt>
      <trkpt lat="49.33988" lon="-0.59173">
        <ele>3.9</ele>
        <time>2020-06-17T08:11:04Z</time>
      </trkpt>
      <trkpt lat="49.33988" lon="-0.59163">
        <ele>3.9</ele>
        <time>2020-06-17T08:11:05Z</time>
      </trkpt>
      <trkpt lat="49.33988" lon="-0.59152">
        <ele>3.9</ele>
        <time>2020-06-17T08:11:06Z</time>
      </trkpt>
      <trkpt lat="49.33989" lon="-0.59141">
        <ele>4</ele>
        <time>2020-06-17T08:11:07Z</time>
      </trkpt>
      <trkpt lat="49.3399" lon="-0.5913">
        <ele>4</ele>
        <time>2020-06-17T08:11:08Z</time>
      </trkpt>
      <trkpt lat="49.3399" lon="-0.59119">
        <ele>4</ele>
        <time>2020-06-17T08:11:09Z</time>
      </trkpt>
      <trkpt lat="49.3399" lon="-0.59107">
        <ele>4.1</ele>
        <time>2020-06-17T08:11:10Z</time>
      </trkpt>
      <trkpt lat="49.33991" lon="-0.59095">
        <ele>4.1</ele>
        <time>2020-06-17T08:11:11Z</time>
      </trkpt>
      <trkpt lat="49.3399" lon="-0.59081">
        <ele>4.1</ele>
        <time>2020-06-17T08:11:12Z</time>
      </trkpt>
      <trkpt lat="49.33989" lon="-0.59068">
        <ele>4.1</ele>
        <time>2020-06-17T08:11:13Z</time>
      </trkpt>
      <trkpt lat="49.33988" lon="-0.59055">
        <ele>4.1</ele>
        <time>2020-06-17T08:11:14Z</time>
      </trkpt>
      <trkpt lat="49.33987" lon="-0.59042">
        <ele>4.2</ele>
        <time>2020-06-17T08:11:15Z</time>
      </trkpt>
      <trkpt lat="49.33988" lon="-0.59031">
        <ele>4.2</ele>
        <time>2020-06-17T08:11:16Z</time>
      </trkpt>
      <trkpt lat="49.33988" lon="-0.59021">
        <ele>4.3</ele>
        <time>2020-06-17T08:11:17Z</time>
      </trkpt>
      <trkpt lat="49.33988" lon="-0.5901">
        <ele>4.4</ele>
        <time>2020-06-17T08:11:18Z</time>
      </trkpt>
      <trkpt lat="49.33989" lon="-0.59">
        <ele>4.4</ele>
        <time>2020-06-17T08:11:19Z</time>
      </trkpt>
      <trkpt lat="49.33989" lon="-0.58989">
        <ele>4.5</ele>
        <time>2020-06-17T08:11:20Z</time>
      </trkpt>
      <trkpt lat="49.33988" lon="-0.58978">
        <ele>4.6</ele>
        <time>2020-06-17T08:11:21Z</time>
      </trkpt>
      <trkpt lat="49.33988" lon="-0.58967">
        <ele>4.7</ele>
        <time>2020-06-17T08:11:22Z</time>
      </trkpt>
      <trkpt lat="49.33987" lon="-0.58957">
        <ele>4.8</ele>
        <time>2020-06-17T08:11:23Z</time>
      </trkpt>
      <trkpt lat="49.33987" lon="-0.58946">
        <ele>4.8</ele>
        <time>2020-06-17T08:11:24Z</time>
      </trkpt>
      <trkpt lat="49.33987" lon="-0.58936">
        <ele>4.9</ele>
        <time>2020-06-17T08:11:25Z</time>
      </trkpt>
      <trkpt lat="49.33986" lon="-0.58926">
        <ele>4.9</ele>
        <time>2020-06-17T08:11:26Z</time>
      </trkpt>
      <trkpt lat="49.33986" lon="-0.58917">
        <ele>4.9</ele>
        <time>2020-06-17T08:11:27Z</time>
      </trkpt>
      <trkpt lat="49.33985" lon="-0.58906">
        <ele>5</ele>
        <time>2020-06-17T08:11:28Z</time>
      </trkpt>
      <trkpt lat="49.33985" lon="-0.58895">
        <ele>5</ele>
        <time>2020-06-17T08:11:29Z</time>
      </trkpt>
      <trkpt lat="49.33986" lon="-0.58884">
        <ele>5</ele>
        <time>2020-06-17T08:11:30Z</time>
      </trkpt>
      <trkpt lat="49.33986" lon="-0.58873">
        <ele>5</ele>
        <time>2020-06-17T08:11:31Z</time>
      </trkpt>
      <trkpt lat="49.33986" lon="-0.58863">
        <ele>5</ele>
        <time>2020-06-17T08:11:32Z</time>
      </trkpt>
      <trkpt lat="49.33986" lon="-0.58851">
        <ele>5</ele>
        <time>2020-06-17T08:11:33Z</time>
      </trkpt>
      <trkpt lat="49.33986" lon="-0.58841">
        <ele>5</ele>
        <time>2020-06-17T08:11:34Z</time>
      </trkpt>
      <trkpt lat="49.33986" lon="-0.58832">
        <ele>4.9</ele>
        <time>2020-06-17T08:11:35Z</time>
      </trkpt>
      <trkpt lat="49.33986" lon="-0.58822">
        <ele>4.9</ele>
        <time>2020-06-17T08:11:36Z</time>
      </trkpt>
      <trkpt lat="49.33985" lon="-0.58813">
        <ele>4.9</ele>
        <time>2020-06-17T08:11:37Z</time>
      </trkpt>
      <trkpt lat="49.33985" lon="-0.58802">
        <ele>4.9</ele>
        <time>2020-06-17T08:11:38Z</time>
      </trkpt>
      <trkpt lat="49.33985" lon="-0.58792">
        <ele>4.8</ele>
        <time>2020-06-17T08:11:39Z</time>
      </trkpt>
      <trkpt lat="49.33983" lon="-0.58781">
        <ele>4.8</ele>
        <time>2020-06-17T08:11:40Z</time>
      </trkpt>
      <trkpt lat="49.33983" lon="-0.5877">
        <ele>4.8</ele>
        <time>2020-06-17T08:11:41Z</time>
      </trkpt>
      <trkpt lat="49.33982" lon="-0.5876">
        <ele>4.8</ele>
        <time>2020-06-17T08:11:42Z</time>
      </trkpt>
      <trkpt lat="49.33982" lon="-0.58749">
        <ele>4.8</ele>
        <time>2020-06-17T08:11:43Z</time>
      </trkpt>
      <trkpt lat="49.33983" lon="-0.58738">
        <ele>4.8</ele>
        <time>2020-06-17T08:11:44Z</time>
      </trkpt>
      <trkpt lat="49.33983" lon="-0.58729">
        <ele>4.7</ele>
        <time>2020-06-17T08:11:45Z</time>
      </trkpt>
      <trkpt lat="49.33983" lon="-0.5872">
        <ele>4.7</ele>
        <time>2020-06-17T08:11:46Z</time>
      </trkpt>
      <trkpt lat="49.33983" lon="-0.58711">
        <ele>4.7</ele>
        <time>2020-06-17T08:11:47Z</time>
      </trkpt>
      <trkpt lat="49.33983" lon="-0.58701">
        <ele>4.7</ele>
        <time>2020-06-17T08:11:48Z</time>
      </trkpt>
      <trkpt lat="49.33983" lon="-0.58692">
        <ele>4.7</ele>
        <time>2020-06-17T08:11:49Z</time>
      </trkpt>
      <trkpt lat="49.33983" lon="-0.58684">
        <ele>4.6</ele>
        <time>2020-06-17T08:11:50Z</time>
      </trkpt>
      <trkpt lat="49.33983" lon="-0.58678">
        <ele>4.6</ele>
        <time>2020-06-17T08:11:51Z</time>
      </trkpt>
      <trkpt lat="49.33983" lon="-0.58671">
        <ele>4.6</ele>
        <time>2020-06-17T08:11:52Z</time>
      </trkpt>
      <trkpt lat="49.33983" lon="-0.58663">
        <ele>4.6</ele>
        <time>2020-06-17T08:11:53Z</time>
      </trkpt>
      <trkpt lat="49.33983" lon="-0.58654">
        <ele>4.5</ele>
        <time>2020-06-17T08:11:54Z</time>
      </trkpt>
      <trkpt lat="49.33982" lon="-0.58645">
        <ele>4.4</ele>
        <time>2020-06-17T08:11:55Z</time>
      </trkpt>
      <trkpt lat="49.33981" lon="-0.58635">
        <ele>4.4</ele>
        <time>2020-06-17T08:11:56Z</time>
      </trkpt>
      <trkpt lat="49.3398" lon="-0.58625">
        <ele>4.3</ele>
        <time>2020-06-17T08:11:57Z</time>
      </trkpt>
      <trkpt lat="49.33977" lon="-0.58613">
        <ele>4.2</ele>
        <time>2020-06-17T08:11:58Z</time>
      </trkpt>
      <trkpt lat="49.33974" lon="-0.58601">
        <ele>4.1</ele>
        <time>2020-06-17T08:11:59Z</time>
      </trkpt>
      <trkpt lat="49.33973" lon="-0.5859">
        <ele>4</ele>
        <time>2020-06-17T08:12:00Z</time>
      </trkpt>
      <trkpt lat="49.33973" lon="-0.58577">
        <ele>3.9</ele>
        <time>2020-06-17T08:12:01Z</time>
      </trkpt>
      <trkpt lat="49.33973" lon="-0.58567">
        <ele>3.9</ele>
        <time>2020-06-17T08:12:02Z</time>
      </trkpt>
      <trkpt lat="49.33973" lon="-0.58558">
        <ele>3.8</ele>
        <time>2020-06-17T08:12:03Z</time>
      </trkpt>
      <trkpt lat="49.33973" lon="-0.58548">
        <ele>3.8</ele>
        <time>2020-06-17T08:12:04Z</time>
      </trkpt>
      <trkpt lat="49.33973" lon="-0.58538">
        <ele>3.7</ele>
        <time>2020-06-17T08:12:05Z</time>
      </trkpt>
      <trkpt lat="49.33972" lon="-0.58528">
        <ele>3.7</ele>
        <time>2020-06-17T08:12:06Z</time>
      </trkpt>
      <trkpt lat="49.33971" lon="-0.58519">
        <ele>3.6</ele>
        <time>2020-06-17T08:12:07Z</time>
      </trkpt>
      <trkpt lat="49.3397" lon="-0.58509">
        <ele>3.5</ele>
        <time>2020-06-17T08:12:08Z</time>
      </trkpt>
      <trkpt lat="49.3397" lon="-0.58497">
        <ele>3.5</ele>
        <time>2020-06-17T08:12:09Z</time>
      </trkpt>
      <trkpt lat="49.33968" lon="-0.58484">
        <ele>3.5</ele>
        <time>2020-06-17T08:12:10Z</time>
      </trkpt>
      <trkpt lat="49.33967" lon="-0.58473">
        <ele>3.4</ele>
        <time>2020-06-17T08:12:11Z</time>
      </trkpt>
      <trkpt lat="49.33965" lon="-0.58463">
        <ele>3.4</ele>
        <time>2020-06-17T08:12:12Z</time>
      </trkpt>
      <trkpt lat="49.33964" lon="-0.58453">
        <ele>3.3</ele>
        <time>2020-06-17T08:12:13Z</time>
      </trkpt>
      <trkpt lat="49.33963" lon="-0.58443">
        <ele>3.3</ele>
        <time>2020-06-17T08:12:14Z</time>
      </trkpt>
      <trkpt lat="49.33962" lon="-0.58432">
        <ele>3.2</ele>
        <time>2020-06-17T08:12:15Z</time>
      </trkpt>
      <trkpt lat="49.33961" lon="-0.58422">
        <ele>3.2</ele>
        <time>2020-06-17T08:12:16Z</time>
      </trkpt>
      <trkpt lat="49.3396" lon="-0.58413">
        <ele>3.2</ele>
        <time>2020-06-17T08:12:17Z</time>
      </trkpt>
      <trkpt lat="49.33959" lon="-0.58402">
        <ele>3.1</ele>
        <time>2020-06-17T08:12:18Z</time>
      </trkpt>
      <trkpt lat="49.33958" lon="-0.58391">
        <ele>3.1</ele>
        <time>2020-06-17T08:12:19Z</time>
      </trkpt>
      <trkpt lat="49.33957" lon="-0.58379">
        <ele>3.1</ele>
        <time>2020-06-17T08:12:20Z</time>
      </trkpt>
      <trkpt lat="49.33956" lon="-0.58367">
        <ele>3</ele>
        <time>2020-06-17T08:12:21Z</time>
      </trkpt>
      <trkpt lat="49.33955" lon="-0.58356">
        <ele>3</ele>
        <time>2020-06-17T08:12:22Z</time>
      </trkpt>
      <trkpt lat="49.33954" lon="-0.58345">
        <ele>2.9</ele>
        <time>2020-06-17T08:12:23Z</time>
      </trkpt>
      <trkpt lat="49.33953" lon="-0.58335">
        <ele>2.9</ele>
        <time>2020-06-17T08:12:24Z</time>
      </trkpt>
      <trkpt lat="49.33952" lon="-0.58324">
        <ele>2.8</ele>
        <time>2020-06-17T08:12:25Z</time>
      </trkpt>
      <trkpt lat="49.33951" lon="-0.58313">
        <ele>2.8</ele>
        <time>2020-06-17T08:12:26Z</time>
      </trkpt>
      <trkpt lat="49.3395" lon="-0.58301">
        <ele>2.9</ele>
        <time>2020-06-17T08:12:27Z</time>
      </trkpt>
      <trkpt lat="49.3395" lon="-0.5829">
        <ele>3</ele>
        <time>2020-06-17T08:12:28Z</time>
      </trkpt>
      <trkpt lat="49.33949" lon="-0.58279">
        <ele>3</ele>
        <time>2020-06-17T08:12:29Z</time>
      </trkpt>
      <trkpt lat="49.33947" lon="-0.58268">
        <ele>2.9</ele>
        <time>2020-06-17T08:12:30Z</time>
      </trkpt>
      <trkpt lat="49.33946" lon="-0.58258">
        <ele>2.8</ele>
        <time>2020-06-17T08:12:31Z</time>
      </trkpt>
      <trkpt lat="49.33945" lon="-0.58247">
        <ele>2.7</ele>
        <time>2020-06-17T08:12:32Z</time>
      </trkpt>
      <trkpt lat="49.33944" lon="-0.58236">
        <ele>2.7</ele>
        <time>2020-06-17T08:12:33Z</time>
      </trkpt>
      <trkpt lat="49.33944" lon="-0.58226">
        <ele>2.7</ele>
        <time>2020-06-17T08:12:34Z</time>
      </trkpt>
      <trkpt lat="49.33943" lon="-0.58217">
        <ele>2.7</ele>
        <time>2020-06-17T08:12:35Z</time>
      </trkpt>
      <trkpt lat="49.33942" lon="-0.58207">
        <ele>2.7</ele>
        <time>2020-06-17T08:12:36Z</time>
      </trkpt>
      <trkpt lat="49.33941" lon="-0.58196">
        <ele>2.7</ele>
        <time>2020-06-17T08:12:37Z</time>
      </trkpt>
      <trkpt lat="49.3394" lon="-0.58186">
        <ele>2.7</ele>
        <time>2020-06-17T08:12:38Z</time>
      </trkpt>
      <trkpt lat="49.33939" lon="-0.58176">
        <ele>2.7</ele>
        <time>2020-06-17T08:12:39Z</time>
      </trkpt>
      <trkpt lat="49.33938" lon="-0.58165">
        <ele>2.7</ele>
        <time>2020-06-17T08:12:40Z</time>
      </trkpt>
      <trkpt lat="49.33936" lon="-0.58154">
        <ele>2.8</ele>
        <time>2020-06-17T08:12:41Z</time>
      </trkpt>
      <trkpt lat="49.33935" lon="-0.58144">
        <ele>2.8</ele>
        <time>2020-06-17T08:12:42Z</time>
      </trkpt>
      <trkpt lat="49.33934" lon="-0.58134">
        <ele>2.8</ele>
        <time>2020-06-17T08:12:43Z</time>
      </trkpt>
      <trkpt lat="49.33932" lon="-0.58123">
        <ele>2.9</ele>
        <time>2020-06-17T08:12:44Z</time>
      </trkpt>
      <trkpt lat="49.33931" lon="-0.58113">
        <ele>2.9</ele>
        <time>2020-06-17T08:12:45Z</time>
      </trkpt>
      <trkpt lat="49.3393" lon="-0.58104">
        <ele>2.9</ele>
        <time>2020-06-17T08:12:46Z</time>
      </trkpt>
      <trkpt lat="49.33928" lon="-0.58095">
        <ele>2.9</ele>
        <time>2020-06-17T08:12:47Z</time>
      </trkpt>
      <trkpt lat="49.33927" lon="-0.58086">
        <ele>3</ele>
        <time>2020-06-17T08:12:48Z</time>
      </trkpt>
      <trkpt lat="49.33926" lon="-0.58078">
        <ele>3</ele>
        <time>2020-06-17T08:12:49Z</time>
      </trkpt>
      <trkpt lat="49.33925" lon="-0.58069">
        <ele>3.1</ele>
        <time>2020-06-17T08:12:50Z</time>
      </trkpt>
      <trkpt lat="49.33925" lon="-0.58061">
        <ele>3.1</ele>
        <time>2020-06-17T08:12:51Z</time>
      </trkpt>
      <trkpt lat="49.33924" lon="-0.58052">
        <ele>3.2</ele>
        <time>2020-06-17T08:12:52Z</time>
      </trkpt>
      <trkpt lat="49.33924" lon="-0.58042">
        <ele>3.3</ele>
        <time>2020-06-17T08:12:53Z</time>
      </trkpt>
      <trkpt lat="49.33923" lon="-0.58032">
        <ele>3.3</ele>
        <time>2020-06-17T08:12:54Z</time>
      </trkpt>
      <trkpt lat="49.33922" lon="-0.58023">
        <ele>3.4</ele>
        <time>2020-06-17T08:12:55Z</time>
      </trkpt>
      <trkpt lat="49.33922" lon="-0.58015">
        <ele>3.4</ele>
        <time>2020-06-17T08:12:56Z</time>
      </trkpt>
      <trkpt lat="49.33922" lon="-0.58005">
        <ele>3.4</ele>
        <time>2020-06-17T08:12:57Z</time>
      </trkpt>
      <trkpt lat="49.33921" lon="-0.57995">
        <ele>3.5</ele>
        <time>2020-06-17T08:12:58Z</time>
      </trkpt>
      <trkpt lat="49.33921" lon="-0.57986">
        <ele>3.6</ele>
        <time>2020-06-17T08:12:59Z</time>
      </trkpt>
      <trkpt lat="49.3392" lon="-0.57977">
        <ele>3.7</ele>
        <time>2020-06-17T08:13:00Z</time>
      </trkpt>
      <trkpt lat="49.3392" lon="-0.57969">
        <ele>3.7</ele>
        <time>2020-06-17T08:13:01Z</time>
      </trkpt>
      <trkpt lat="49.33919" lon="-0.5796">
        <ele>3.8</ele>
        <time>2020-06-17T08:13:02Z</time>
      </trkpt>
      <trkpt lat="49.33918" lon="-0.57951">
        <ele>3.8</ele>
        <time>2020-06-17T08:13:03Z</time>
      </trkpt>
      <trkpt lat="49.33916" lon="-0.57942">
        <ele>3.9</ele>
        <time>2020-06-17T08:13:04Z</time>
      </trkpt>
      <trkpt lat="49.33914" lon="-0.5793">
        <ele>3.9</ele>
        <time>2020-06-17T08:13:05Z</time>
      </trkpt>
      <trkpt lat="49.33912" lon="-0.57918">
        <ele>3.9</ele>
        <time>2020-06-17T08:13:06Z</time>
      </trkpt>
      <trkpt lat="49.3391" lon="-0.57909">
        <ele>3.9</ele>
        <time>2020-06-17T08:13:07Z</time>
      </trkpt>
      <trkpt lat="49.33909" lon="-0.57901">
        <ele>3.9</ele>
        <time>2020-06-17T08:13:08Z</time>
      </trkpt>
      <trkpt lat="49.33907" lon="-0.57891">
        <ele>3.9</ele>
        <time>2020-06-17T08:13:09Z</time>
      </trkpt>
      <trkpt lat="49.33906" lon="-0.57881">
        <ele>4</ele>
        <time>2020-06-17T08:13:10Z</time>
      </trkpt>
      <trkpt lat="49.33904" lon="-0.57868">
        <ele>4</ele>
        <time>2020-06-17T08:13:11Z</time>
      </trkpt>
      <trkpt lat="49.33902" lon="-0.57858">
        <ele>4</ele>
        <time>2020-06-17T08:13:12Z</time>
      </trkpt>
      <trkpt lat="49.33902" lon="-0.57848">
        <ele>4.1</ele>
        <time>2020-06-17T08:13:13Z</time>
      </trkpt>
      <trkpt lat="49.33902" lon="-0.57838">
        <ele>4.1</ele>
        <time>2020-06-17T08:13:14Z</time>
      </trkpt>
      <trkpt lat="49.33901" lon="-0.57828">
        <ele>4.1</ele>
        <time>2020-06-17T08:13:15Z</time>
      </trkpt>
      <trkpt lat="49.339" lon="-0.57817">
        <ele>4.1</ele>
        <time>2020-06-17T08:13:16Z</time>
      </trkpt>
      <trkpt lat="49.33899" lon="-0.57809">
        <ele>4.1</ele>
        <time>2020-06-17T08:13:17Z</time>
      </trkpt>
      <trkpt lat="49.33899" lon="-0.578">
        <ele>4.1</ele>
        <time>2020-06-17T08:13:18Z</time>
      </trkpt>
      <trkpt lat="49.33899" lon="-0.5779">
        <ele>4.2</ele>
        <time>2020-06-17T08:13:19Z</time>
      </trkpt>
      <trkpt lat="49.33897" lon="-0.5778">
        <ele>4.2</ele>
        <time>2020-06-17T08:13:20Z</time>
      </trkpt>
      <trkpt lat="49.33897" lon="-0.5777">
        <ele>4.2</ele>
        <time>2020-06-17T08:13:21Z</time>
      </trkpt>
      <trkpt lat="49.33896" lon="-0.5776">
        <ele>4.3</ele>
        <time>2020-06-17T08:13:22Z</time>
      </trkpt>
      <trkpt lat="49.33895" lon="-0.5775">
        <ele>4.3</ele>
        <time>2020-06-17T08:13:23Z</time>
      </trkpt>
      <trkpt lat="49.33895" lon="-0.57741">
        <ele>4.4</ele>
        <time>2020-06-17T08:13:24Z</time>
      </trkpt>
      <trkpt lat="49.33894" lon="-0.57731">
        <ele>4.4</ele>
        <time>2020-06-17T08:13:25Z</time>
      </trkpt>
      <trkpt lat="49.33894" lon="-0.57723">
        <ele>4.4</ele>
        <time>2020-06-17T08:13:26Z</time>
      </trkpt>
      <trkpt lat="49.33894" lon="-0.57713">
        <ele>4.5</ele>
        <time>2020-06-17T08:13:27Z</time>
      </trkpt>
      <trkpt lat="49.33893" lon="-0.57702">
        <ele>4.6</ele>
        <time>2020-06-17T08:13:28Z</time>
      </trkpt>
      <trkpt lat="49.33894" lon="-0.57691">
        <ele>4.6</ele>
        <time>2020-06-17T08:13:29Z</time>
      </trkpt>
      <trkpt lat="49.33894" lon="-0.57681">
        <ele>4.7</ele>
        <time>2020-06-17T08:13:30Z</time>
      </trkpt>
      <trkpt lat="49.33894" lon="-0.57672">
        <ele>4.7</ele>
        <time>2020-06-17T08:13:31Z</time>
      </trkpt>
      <trkpt lat="49.33893" lon="-0.57662">
        <ele>4.7</ele>
        <time>2020-06-17T08:13:32Z</time>
      </trkpt>
      <trkpt lat="49.33892" lon="-0.57652">
        <ele>4.8</ele>
        <time>2020-06-17T08:13:33Z</time>
      </trkpt>
      <trkpt lat="49.33891" lon="-0.57642">
        <ele>4.8</ele>
        <time>2020-06-17T08:13:34Z</time>
      </trkpt>
      <trkpt lat="49.33891" lon="-0.57632">
        <ele>4.9</ele>
        <time>2020-06-17T08:13:35Z</time>
      </trkpt>
      <trkpt lat="49.33891" lon="-0.57622">
        <ele>4.9</ele>
        <time>2020-06-17T08:13:36Z</time>
      </trkpt>
      <trkpt lat="49.33891" lon="-0.57611">
        <ele>4.9</ele>
        <time>2020-06-17T08:13:37Z</time>
      </trkpt>
      <trkpt lat="49.3389" lon="-0.57602">
        <ele>4.9</ele>
        <time>2020-06-17T08:13:38Z</time>
      </trkpt>
      <trkpt lat="49.33889" lon="-0.57595">
        <ele>5</ele>
        <time>2020-06-17T08:13:39Z</time>
      </trkpt>
      <trkpt lat="49.33888" lon="-0.57586">
        <ele>5</ele>
        <time>2020-06-17T08:13:40Z</time>
      </trkpt>
      <trkpt lat="49.33886" lon="-0.57576">
        <ele>5</ele>
        <time>2020-06-17T08:13:41Z</time>
      </trkpt>
      <trkpt lat="49.33885" lon="-0.57565">
        <ele>5.1</ele>
        <time>2020-06-17T08:13:42Z</time>
      </trkpt>
      <trkpt lat="49.33884" lon="-0.57556">
        <ele>5.1</ele>
        <time>2020-06-17T08:13:43Z</time>
      </trkpt>
      <trkpt lat="49.33883" lon="-0.57545">
        <ele>5.1</ele>
        <time>2020-06-17T08:13:44Z</time>
      </trkpt>
      <trkpt lat="49.33882" lon="-0.57535">
        <ele>5.2</ele>
        <time>2020-06-17T08:13:45Z</time>
      </trkpt>
      <trkpt lat="49.33881" lon="-0.57525">
        <ele>5.2</ele>
        <time>2020-06-17T08:13:46Z</time>
      </trkpt>
      <trkpt lat="49.33879" lon="-0.57516">
        <ele>5.3</ele>
        <time>2020-06-17T08:13:47Z</time>
      </trkpt>
      <trkpt lat="49.33876" lon="-0.57506">
        <ele>5.3</ele>
        <time>2020-06-17T08:13:48Z</time>
      </trkpt>
      <trkpt lat="49.33875" lon="-0.57496">
        <ele>5.3</ele>
        <time>2020-06-17T08:13:49Z</time>
      </trkpt>
      <trkpt lat="49.33874" lon="-0.57487">
        <ele>5.3</ele>
        <time>2020-06-17T08:13:50Z</time>
      </trkpt>
      <trkpt lat="49.33873" lon="-0.57476">
        <ele>5.3</ele>
        <time>2020-06-17T08:13:51Z</time>
      </trkpt>
      <trkpt lat="49.33873" lon="-0.57466">
        <ele>5.2</ele>
        <time>2020-06-17T08:13:52Z</time>
      </trkpt>
      <trkpt lat="49.33872" lon="-0.57457">
        <ele>5.2</ele>
        <time>2020-06-17T08:13:53Z</time>
      </trkpt>
      <trkpt lat="49.33873" lon="-0.57445">
        <ele>5.2</ele>
        <time>2020-06-17T08:13:54Z</time>
      </trkpt>
      <trkpt lat="49.33874" lon="-0.57435">
        <ele>5.2</ele>
        <time>2020-06-17T08:13:55Z</time>
      </trkpt>
      <trkpt lat="49.33874" lon="-0.57426">
        <ele>5.2</ele>
        <time>2020-06-17T08:13:56Z</time>
      </trkpt>
      <trkpt lat="49.33875" lon="-0.57415">
        <ele>5.2</ele>
        <time>2020-06-17T08:13:57Z</time>
      </trkpt>
      <trkpt lat="49.33874" lon="-0.57404">
        <ele>5.2</ele>
        <time>2020-06-17T08:13:58Z</time>
      </trkpt>
      <trkpt lat="49.33873" lon="-0.57393">
        <ele>5.1</ele>
        <time>2020-06-17T08:13:59Z</time>
      </trkpt>
      <trkpt lat="49.33872" lon="-0.57383">
        <ele>5.1</ele>
        <time>2020-06-17T08:14:00Z</time>
      </trkpt>
      <trkpt lat="49.3387" lon="-0.57371">
        <ele>5</ele>
        <time>2020-06-17T08:14:01Z</time>
      </trkpt>
      <trkpt lat="49.33868" lon="-0.57359">
        <ele>5</ele>
        <time>2020-06-17T08:14:02Z</time>
      </trkpt>
      <trkpt lat="49.33866" lon="-0.57348">
        <ele>5</ele>
        <time>2020-06-17T08:14:03Z</time>
      </trkpt>
      <trkpt lat="49.33865" lon="-0.57338">
        <ele>4.9</ele>
        <time>2020-06-17T08:14:04Z</time>
      </trkpt>
      <trkpt lat="49.33863" lon="-0.5733">
        <ele>4.9</ele>
        <time>2020-06-17T08:14:05Z</time>
      </trkpt>
      <trkpt lat="49.3386" lon="-0.57316">
        <ele>4.8</ele>
        <time>2020-06-17T08:14:06Z</time>
      </trkpt>
      <trkpt lat="49.33858" lon="-0.57303">
        <ele>4.7</ele>
        <time>2020-06-17T08:14:07Z</time>
      </trkpt>
      <trkpt lat="49.33857" lon="-0.5729">
        <ele>4.7</ele>
        <time>2020-06-17T08:14:08Z</time>
      </trkpt>
      <trkpt lat="49.33855" lon="-0.57278">
        <ele>4.6</ele>
        <time>2020-06-17T08:14:09Z</time>
      </trkpt>
      <trkpt lat="49.33854" lon="-0.57268">
        <ele>4.6</ele>
        <time>2020-06-17T08:14:10Z</time>
      </trkpt>
      <trkpt lat="49.33852" lon="-0.57259">
        <ele>4.6</ele>
        <time>2020-06-17T08:14:11Z</time>
      </trkpt>
      <trkpt lat="49.3385" lon="-0.57246">
        <ele>4.6</ele>
        <time>2020-06-17T08:14:12Z</time>
      </trkpt>
      <trkpt lat="49.33849" lon="-0.57234">
        <ele>4.6</ele>
        <time>2020-06-17T08:14:13Z</time>
      </trkpt>
      <trkpt lat="49.33848" lon="-0.57223">
        <ele>4.5</ele>
        <time>2020-06-17T08:14:14Z</time>
      </trkpt>
      <trkpt lat="49.33847" lon="-0.57212">
        <ele>4.5</ele>
        <time>2020-06-17T08:14:15Z</time>
      </trkpt>
      <trkpt lat="49.33845" lon="-0.57201">
        <ele>4.5</ele>
        <time>2020-06-17T08:14:16Z</time>
      </trkpt>
      <trkpt lat="49.33844" lon="-0.57189">
        <ele>4.4</ele>
        <time>2020-06-17T08:14:17Z</time>
      </trkpt>
      <trkpt lat="49.33842" lon="-0.57176">
        <ele>4.4</ele>
        <time>2020-06-17T08:14:18Z</time>
      </trkpt>
      <trkpt lat="49.33841" lon="-0.57163">
        <ele>4.3</ele>
        <time>2020-06-17T08:14:19Z</time>
      </trkpt>
      <trkpt lat="49.33839" lon="-0.57149">
        <ele>4.2</ele>
        <time>2020-06-17T08:14:20Z</time>
      </trkpt>
      <trkpt lat="49.33837" lon="-0.57135">
        <ele>4.1</ele>
        <time>2020-06-17T08:14:21Z</time>
      </trkpt>
      <trkpt lat="49.33835" lon="-0.57122">
        <ele>4</ele>
        <time>2020-06-17T08:14:22Z</time>
      </trkpt>
      <trkpt lat="49.33833" lon="-0.57108">
        <ele>3.9</ele>
        <time>2020-06-17T08:14:23Z</time>
      </trkpt>
      <trkpt lat="49.3383" lon="-0.57096">
        <ele>3.8</ele>
        <time>2020-06-17T08:14:24Z</time>
      </trkpt>
      <trkpt lat="49.33828" lon="-0.57084">
        <ele>3.7</ele>
        <time>2020-06-17T08:14:25Z</time>
      </trkpt>
      <trkpt lat="49.33827" lon="-0.57072">
        <ele>3.7</ele>
        <time>2020-06-17T08:14:26Z</time>
      </trkpt>
      <trkpt lat="49.33825" lon="-0.5706">
        <ele>3.7</ele>
        <time>2020-06-17T08:14:27Z</time>
      </trkpt>
      <trkpt lat="49.33823" lon="-0.57048">
        <ele>3.7</ele>
        <time>2020-06-17T08:14:28Z</time>
      </trkpt>
      <trkpt lat="49.33823" lon="-0.57036">
        <ele>3.7</ele>
        <time>2020-06-17T08:14:29Z</time>
      </trkpt>
      <trkpt lat="49.33822" lon="-0.57023">
        <ele>3.8</ele>
        <time>2020-06-17T08:14:30Z</time>
      </trkpt>
      <trkpt lat="49.33822" lon="-0.57012">
        <ele>3.8</ele>
        <time>2020-06-17T08:14:31Z</time>
      </trkpt>
      <trkpt lat="49.33821" lon="-0.57003">
        <ele>3.9</ele>
        <time>2020-06-17T08:14:32Z</time>
      </trkpt>
      <trkpt lat="49.33821" lon="-0.56993">
        <ele>3.9</ele>
        <time>2020-06-17T08:14:33Z</time>
      </trkpt>
      <trkpt lat="49.3382" lon="-0.56983">
        <ele>3.9</ele>
        <time>2020-06-17T08:14:34Z</time>
      </trkpt>
      <trkpt lat="49.33819" lon="-0.56973">
        <ele>3.9</ele>
        <time>2020-06-17T08:14:35Z</time>
      </trkpt>
      <trkpt lat="49.33819" lon="-0.56963">
        <ele>3.8</ele>
        <time>2020-06-17T08:14:36Z</time>
      </trkpt>
      <trkpt lat="49.33817" lon="-0.56951">
        <ele>3.7</ele>
        <time>2020-06-17T08:14:37Z</time>
      </trkpt>
      <trkpt lat="49.33816" lon="-0.5694">
        <ele>3.7</ele>
        <time>2020-06-17T08:14:38Z</time>
      </trkpt>
      <trkpt lat="49.33815" lon="-0.56927">
        <ele>3.7</ele>
        <time>2020-06-17T08:14:39Z</time>
      </trkpt>
      <trkpt lat="49.33813" lon="-0.56914">
        <ele>3.7</ele>
        <time>2020-06-17T08:14:40Z</time>
      </trkpt>
      <trkpt lat="49.33811" lon="-0.56901">
        <ele>3.8</ele>
        <time>2020-06-17T08:14:41Z</time>
      </trkpt>
      <trkpt lat="49.33809" lon="-0.56891">
        <ele>3.8</ele>
        <time>2020-06-17T08:14:42Z</time>
      </trkpt>
      <trkpt lat="49.33809" lon="-0.56881">
        <ele>3.8</ele>
        <time>2020-06-17T08:14:43Z</time>
      </trkpt>
      <trkpt lat="49.33808" lon="-0.56871">
        <ele>3.8</ele>
        <time>2020-06-17T08:14:44Z</time>
      </trkpt>
      <trkpt lat="49.33808" lon="-0.56861">
        <ele>3.8</ele>
        <time>2020-06-17T08:14:45Z</time>
      </trkpt>
      <trkpt lat="49.33807" lon="-0.5685">
        <ele>3.8</ele>
        <time>2020-06-17T08:14:46Z</time>
      </trkpt>
      <trkpt lat="49.33805" lon="-0.5684">
        <ele>3.8</ele>
        <time>2020-06-17T08:14:47Z</time>
      </trkpt>
      <trkpt lat="49.33804" lon="-0.56831">
        <ele>3.8</ele>
        <time>2020-06-17T08:14:48Z</time>
      </trkpt>
      <trkpt lat="49.33804" lon="-0.5682">
        <ele>3.8</ele>
        <time>2020-06-17T08:14:49Z</time>
      </trkpt>
      <trkpt lat="49.33803" lon="-0.5681">
        <ele>3.8</ele>
        <time>2020-06-17T08:14:50Z</time>
      </trkpt>
      <trkpt lat="49.33801" lon="-0.56799">
        <ele>3.8</ele>
        <time>2020-06-17T08:14:51Z</time>
      </trkpt>
      <trkpt lat="49.338" lon="-0.56791">
        <ele>3.8</ele>
        <time>2020-06-17T08:14:52Z</time>
      </trkpt>
      <trkpt lat="49.338" lon="-0.56783">
        <ele>3.8</ele>
        <time>2020-06-17T08:14:53Z</time>
      </trkpt>
      <trkpt lat="49.338" lon="-0.56775">
        <ele>3.8</ele>
        <time>2020-06-17T08:14:54Z</time>
      </trkpt>
      <trkpt lat="49.338" lon="-0.56767">
        <ele>3.8</ele>
        <time>2020-06-17T08:14:55Z</time>
      </trkpt>
      <trkpt lat="49.33801" lon="-0.56758">
        <ele>3.8</ele>
        <time>2020-06-17T08:14:56Z</time>
      </trkpt>
      <trkpt lat="49.33801" lon="-0.56747">
        <ele>3.8</ele>
        <time>2020-06-17T08:14:57Z</time>
      </trkpt>
      <trkpt lat="49.33801" lon="-0.56735">
        <ele>3.9</ele>
        <time>2020-06-17T08:14:58Z</time>
      </trkpt>
      <trkpt lat="49.338" lon="-0.56725">
        <ele>3.9</ele>
        <time>2020-06-17T08:14:59Z</time>
      </trkpt>
      <trkpt lat="49.33799" lon="-0.56715">
        <ele>3.9</ele>
        <time>2020-06-17T08:15:00Z</time>
      </trkpt>
      <trkpt lat="49.33798" lon="-0.56706">
        <ele>3.9</ele>
        <time>2020-06-17T08:15:01Z</time>
      </trkpt>
      <trkpt lat="49.33798" lon="-0.56697">
        <ele>3.9</ele>
        <time>2020-06-17T08:15:02Z</time>
      </trkpt>
      <trkpt lat="49.33798" lon="-0.56686">
        <ele>3.9</ele>
        <time>2020-06-17T08:15:03Z</time>
      </trkpt>
      <trkpt lat="49.33798" lon="-0.56677">
        <ele>3.9</ele>
        <time>2020-06-17T08:15:04Z</time>
      </trkpt>
      <trkpt lat="49.33798" lon="-0.56669">
        <ele>3.9</ele>
        <time>2020-06-17T08:15:05Z</time>
      </trkpt>
      <trkpt lat="49.33799" lon="-0.5666">
        <ele>4</ele>
        <time>2020-06-17T08:15:06Z</time>
      </trkpt>
      <trkpt lat="49.33798" lon="-0.56649">
        <ele>4</ele>
        <time>2020-06-17T08:15:07Z</time>
      </trkpt>
      <trkpt lat="49.33796" lon="-0.56637">
        <ele>4.1</ele>
        <time>2020-06-17T08:15:08Z</time>
      </trkpt>
      <trkpt lat="49.33795" lon="-0.56625">
        <ele>4.1</ele>
        <time>2020-06-17T08:15:09Z</time>
      </trkpt>
      <trkpt lat="49.33794" lon="-0.56614">
        <ele>4.2</ele>
        <time>2020-06-17T08:15:10Z</time>
      </trkpt>
      <trkpt lat="49.33793" lon="-0.56602">
        <ele>4.3</ele>
        <time>2020-06-17T08:15:11Z</time>
      </trkpt>
      <trkpt lat="49.33791" lon="-0.5659">
        <ele>4.5</ele>
        <time>2020-06-17T08:15:12Z</time>
      </trkpt>
      <trkpt lat="49.3379" lon="-0.56579">
        <ele>4.5</ele>
        <time>2020-06-17T08:15:13Z</time>
      </trkpt>
      <trkpt lat="49.33789" lon="-0.56567">
        <ele>4.6</ele>
        <time>2020-06-17T08:15:14Z</time>
      </trkpt>
      <trkpt lat="49.33789" lon="-0.56557">
        <ele>4.6</ele>
        <time>2020-06-17T08:15:15Z</time>
      </trkpt>
      <trkpt lat="49.3379" lon="-0.56546">
        <ele>4.6</ele>
        <time>2020-06-17T08:15:16Z</time>
      </trkpt>
      <trkpt lat="49.33789" lon="-0.56535">
        <ele>4.6</ele>
        <time>2020-06-17T08:15:17Z</time>
      </trkpt>
      <trkpt lat="49.33788" lon="-0.56523">
        <ele>4.6</ele>
        <time>2020-06-17T08:15:18Z</time>
      </trkpt>
      <trkpt lat="49.33788" lon="-0.56512">
        <ele>4.6</ele>
        <time>2020-06-17T08:15:19Z</time>
      </trkpt>
      <trkpt lat="49.33788" lon="-0.56501">
        <ele>4.6</ele>
        <time>2020-06-17T08:15:20Z</time>
      </trkpt>
      <trkpt lat="49.33788" lon="-0.56489">
        <ele>4.6</ele>
        <time>2020-06-17T08:15:21Z</time>
      </trkpt>
      <trkpt lat="49.33789" lon="-0.56477">
        <ele>4.5</ele>
        <time>2020-06-17T08:15:22Z</time>
      </trkpt>
      <trkpt lat="49.33789" lon="-0.56466">
        <ele>4.5</ele>
        <time>2020-06-17T08:15:23Z</time>
      </trkpt>
      <trkpt lat="49.33789" lon="-0.56456">
        <ele>4.5</ele>
        <time>2020-06-17T08:15:24Z</time>
      </trkpt>
      <trkpt lat="49.33788" lon="-0.56447">
        <ele>4.5</ele>
        <time>2020-06-17T08:15:25Z</time>
      </trkpt>
      <trkpt lat="49.33788" lon="-0.56437">
        <ele>4.5</ele>
        <time>2020-06-17T08:15:26Z</time>
      </trkpt>
      <trkpt lat="49.33787" lon="-0.56426">
        <ele>4.5</ele>
        <time>2020-06-17T08:15:27Z</time>
      </trkpt>
      <trkpt lat="49.33787" lon="-0.56416">
        <ele>4.5</ele>
        <time>2020-06-17T08:15:28Z</time>
      </trkpt>
      <trkpt lat="49.33787" lon="-0.56405">
        <ele>4.6</ele>
        <time>2020-06-17T08:15:29Z</time>
      </trkpt>
      <trkpt lat="49.33788" lon="-0.56395">
        <ele>4.6</ele>
        <time>2020-06-17T08:15:30Z</time>
      </trkpt>
      <trkpt lat="49.33789" lon="-0.56385">
        <ele>4.7</ele>
        <time>2020-06-17T08:15:31Z</time>
      </trkpt>
      <trkpt lat="49.33788" lon="-0.56375">
        <ele>4.7</ele>
        <time>2020-06-17T08:15:32Z</time>
      </trkpt>
      <trkpt lat="49.33788" lon="-0.56364">
        <ele>4.7</ele>
        <time>2020-06-17T08:15:33Z</time>
      </trkpt>
      <trkpt lat="49.33788" lon="-0.56355">
        <ele>4.7</ele>
        <time>2020-06-17T08:15:34Z</time>
      </trkpt>
      <trkpt lat="49.33788" lon="-0.56344">
        <ele>4.7</ele>
        <time>2020-06-17T08:15:35Z</time>
      </trkpt>
      <trkpt lat="49.33789" lon="-0.56334">
        <ele>4.7</ele>
        <time>2020-06-17T08:15:36Z</time>
      </trkpt>
      <trkpt lat="49.3379" lon="-0.56323">
        <ele>4.8</ele>
        <time>2020-06-17T08:15:37Z</time>
      </trkpt>
      <trkpt lat="49.3379" lon="-0.56313">
        <ele>4.8</ele>
        <time>2020-06-17T08:15:38Z</time>
      </trkpt>
      <trkpt lat="49.3379" lon="-0.56303">
        <ele>4.8</ele>
        <time>2020-06-17T08:15:39Z</time>
      </trkpt>
      <trkpt lat="49.33789" lon="-0.56292">
        <ele>4.8</ele>
        <time>2020-06-17T08:15:40Z</time>
      </trkpt>
      <trkpt lat="49.3379" lon="-0.56279">
        <ele>4.8</ele>
        <time>2020-06-17T08:15:41Z</time>
      </trkpt>
      <trkpt lat="49.3379" lon="-0.56267">
        <ele>4.8</ele>
        <time>2020-06-17T08:15:42Z</time>
      </trkpt>
      <trkpt lat="49.33791" lon="-0.56258">
        <ele>4.8</ele>
        <time>2020-06-17T08:15:43Z</time>
      </trkpt>
      <trkpt lat="49.33791" lon="-0.56248">
        <ele>4.8</ele>
        <time>2020-06-17T08:15:44Z</time>
      </trkpt>
      <trkpt lat="49.33792" lon="-0.56238">
        <ele>4.8</ele>
        <time>2020-06-17T08:15:45Z</time>
      </trkpt>
      <trkpt lat="49.33792" lon="-0.56229">
        <ele>4.9</ele>
        <time>2020-06-17T08:15:46Z</time>
      </trkpt>
      <trkpt lat="49.33792" lon="-0.5622">
        <ele>4.9</ele>
        <time>2020-06-17T08:15:47Z</time>
      </trkpt>
      <trkpt lat="49.33793" lon="-0.56212">
        <ele>4.9</ele>
        <time>2020-06-17T08:15:48Z</time>
      </trkpt>
      <trkpt lat="49.33794" lon="-0.56204">
        <ele>4.9</ele>
        <time>2020-06-17T08:15:49Z</time>
      </trkpt>
      <trkpt lat="49.33794" lon="-0.56195">
        <ele>4.9</ele>
        <time>2020-06-17T08:15:50Z</time>
      </trkpt>
      <trkpt lat="49.33794" lon="-0.56184">
        <ele>4.9</ele>
        <time>2020-06-17T08:15:51Z</time>
      </trkpt>
      <trkpt lat="49.33794" lon="-0.56173">
        <ele>4.9</ele>
        <time>2020-06-17T08:15:52Z</time>
      </trkpt>
      <trkpt lat="49.33794" lon="-0.56165">
        <ele>5</ele>
        <time>2020-06-17T08:15:53Z</time>
      </trkpt>
      <trkpt lat="49.33796" lon="-0.56155">
        <ele>5</ele>
        <time>2020-06-17T08:15:54Z</time>
      </trkpt>
      <trkpt lat="49.33796" lon="-0.56145">
        <ele>5.1</ele>
        <time>2020-06-17T08:15:55Z</time>
      </trkpt>
      <trkpt lat="49.33796" lon="-0.56134">
        <ele>5.3</ele>
        <time>2020-06-17T08:15:56Z</time>
      </trkpt>
      <trkpt lat="49.33797" lon="-0.56123">
        <ele>5.5</ele>
        <time>2020-06-17T08:15:57Z</time>
      </trkpt>
      <trkpt lat="49.33797" lon="-0.56112">
        <ele>5.8</ele>
        <time>2020-06-17T08:15:58Z</time>
      </trkpt>
      <trkpt lat="49.33797" lon="-0.561">
        <ele>5.9</ele>
        <time>2020-06-17T08:15:59Z</time>
      </trkpt>
      <trkpt lat="49.33798" lon="-0.56089">
        <ele>5.9</ele>
        <time>2020-06-17T08:16:00Z</time>
      </trkpt>
      <trkpt lat="49.33798" lon="-0.56077">
        <ele>5.9</ele>
        <time>2020-06-17T08:16:01Z</time>
      </trkpt>
      <trkpt lat="49.33799" lon="-0.56066">
        <ele>6</ele>
        <time>2020-06-17T08:16:02Z</time>
      </trkpt>
      <trkpt lat="49.33799" lon="-0.56055">
        <ele>6.1</ele>
        <time>2020-06-17T08:16:03Z</time>
      </trkpt>
      <trkpt lat="49.338" lon="-0.56044">
        <ele>6.2</ele>
        <time>2020-06-17T08:16:04Z</time>
      </trkpt>
      <trkpt lat="49.338" lon="-0.56032">
        <ele>6.3</ele>
        <time>2020-06-17T08:16:05Z</time>
      </trkpt>
      <trkpt lat="49.338" lon="-0.56022">
        <ele>6.3</ele>
        <time>2020-06-17T08:16:06Z</time>
      </trkpt>
      <trkpt lat="49.338" lon="-0.56012">
        <ele>6.4</ele>
        <time>2020-06-17T08:16:07Z</time>
      </trkpt>
      <trkpt lat="49.338" lon="-0.56001">
        <ele>6.5</ele>
        <time>2020-06-17T08:16:08Z</time>
      </trkpt>
      <trkpt lat="49.338" lon="-0.5599">
        <ele>6.6</ele>
        <time>2020-06-17T08:16:09Z</time>
      </trkpt>
      <trkpt lat="49.338" lon="-0.5598">
        <ele>6.6</ele>
        <time>2020-06-17T08:16:10Z</time>
      </trkpt>
      <trkpt lat="49.338" lon="-0.55971">
        <ele>6.7</ele>
        <time>2020-06-17T08:16:11Z</time>
      </trkpt>
      <trkpt lat="49.33801" lon="-0.55962">
        <ele>6.8</ele>
        <time>2020-06-17T08:16:12Z</time>
      </trkpt>
      <trkpt lat="49.33802" lon="-0.55952">
        <ele>6.9</ele>
        <time>2020-06-17T08:16:13Z</time>
      </trkpt>
      <trkpt lat="49.33803" lon="-0.55943">
        <ele>7</ele>
        <time>2020-06-17T08:16:14Z</time>
      </trkpt>
      <trkpt lat="49.33804" lon="-0.55934">
        <ele>7.1</ele>
        <time>2020-06-17T08:16:15Z</time>
      </trkpt>
      <trkpt lat="49.33805" lon="-0.55925">
        <ele>7.2</ele>
        <time>2020-06-17T08:16:16Z</time>
      </trkpt>
      <trkpt lat="49.33806" lon="-0.55917">
        <ele>7.2</ele>
        <time>2020-06-17T08:16:17Z</time>
      </trkpt>
      <trkpt lat="49.33807" lon="-0.55908">
        <ele>7.3</ele>
        <time>2020-06-17T08:16:18Z</time>
      </trkpt>
      <trkpt lat="49.33807" lon="-0.55899">
        <ele>7.4</ele>
        <time>2020-06-17T08:16:19Z</time>
      </trkpt>
      <trkpt lat="49.33807" lon="-0.55891">
        <ele>7.5</ele>
        <time>2020-06-17T08:16:20Z</time>
      </trkpt>
      <trkpt lat="49.33807" lon="-0.55882">
        <ele>7.5</ele>
        <time>2020-06-17T08:16:21Z</time>
      </trkpt>
      <trkpt lat="49.33807" lon="-0.55874">
        <ele>7.6</ele>
        <time>2020-06-17T08:16:22Z</time>
      </trkpt>
      <trkpt lat="49.33807" lon="-0.55864">
        <ele>7.6</ele>
        <time>2020-06-17T08:16:23Z</time>
      </trkpt>
      <trkpt lat="49.33808" lon="-0.55855">
        <ele>7.7</ele>
        <time>2020-06-17T08:16:24Z</time>
      </trkpt>
      <trkpt lat="49.33809" lon="-0.55844">
        <ele>7.8</ele>
        <time>2020-06-17T08:16:25Z</time>
      </trkpt>
      <trkpt lat="49.3381" lon="-0.55833">
        <ele>7.8</ele>
        <time>2020-06-17T08:16:26Z</time>
      </trkpt>
      <trkpt lat="49.33812" lon="-0.55823">
        <ele>7.9</ele>
        <time>2020-06-17T08:16:27Z</time>
      </trkpt>
      <trkpt lat="49.33812" lon="-0.55813">
        <ele>8</ele>
        <time>2020-06-17T08:16:28Z</time>
      </trkpt>
      <trkpt lat="49.33813" lon="-0.55802">
        <ele>8.1</ele>
        <time>2020-06-17T08:16:29Z</time>
      </trkpt>
      <trkpt lat="49.33813" lon="-0.55792">
        <ele>8.2</ele>
        <time>2020-06-17T08:16:30Z</time>
      </trkpt>
      <trkpt lat="49.33815" lon="-0.55782">
        <ele>8.2</ele>
        <time>2020-06-17T08:16:31Z</time>
      </trkpt>
      <trkpt lat="49.33816" lon="-0.55772">
        <ele>8.3</ele>
        <time>2020-06-17T08:16:32Z</time>
      </trkpt>
      <trkpt lat="49.33817" lon="-0.55762">
        <ele>8.4</ele>
        <time>2020-06-17T08:16:33Z</time>
      </trkpt>
      <trkpt lat="49.33817" lon="-0.55751">
        <ele>8.5</ele>
        <time>2020-06-17T08:16:34Z</time>
      </trkpt>
      <trkpt lat="49.33818" lon="-0.55741">
        <ele>8.6</ele>
        <time>2020-06-17T08:16:35Z</time>
      </trkpt>
      <trkpt lat="49.33819" lon="-0.55731">
        <ele>8.7</ele>
        <time>2020-06-17T08:16:36Z</time>
      </trkpt>
      <trkpt lat="49.33819" lon="-0.55721">
        <ele>8.8</ele>
        <time>2020-06-17T08:16:37Z</time>
      </trkpt>
      <trkpt lat="49.3382" lon="-0.55712">
        <ele>8.9</ele>
        <time>2020-06-17T08:16:38Z</time>
      </trkpt>
      <trkpt lat="49.33822" lon="-0.55702">
        <ele>9</ele>
        <time>2020-06-17T08:16:39Z</time>
      </trkpt>
      <trkpt lat="49.33823" lon="-0.55693">
        <ele>9.1</ele>
        <time>2020-06-17T08:16:40Z</time>
      </trkpt>
      <trkpt lat="49.33824" lon="-0.55683">
        <ele>9.2</ele>
        <time>2020-06-17T08:16:41Z</time>
      </trkpt>
      <trkpt lat="49.33826" lon="-0.55674">
        <ele>9.3</ele>
        <time>2020-06-17T08:16:42Z</time>
      </trkpt>
      <trkpt lat="49.33827" lon="-0.55665">
        <ele>9.4</ele>
        <time>2020-06-17T08:16:43Z</time>
      </trkpt>
      <trkpt lat="49.33828" lon="-0.55655">
        <ele>9.4</ele>
        <time>2020-06-17T08:16:44Z</time>
      </trkpt>
      <trkpt lat="49.33827" lon="-0.55645">
        <ele>9.5</ele>
        <time>2020-06-17T08:16:45Z</time>
      </trkpt>
      <trkpt lat="49.33827" lon="-0.55635">
        <ele>9.5</ele>
        <time>2020-06-17T08:16:46Z</time>
      </trkpt>
      <trkpt lat="49.33827" lon="-0.55625">
        <ele>9.6</ele>
        <time>2020-06-17T08:16:47Z</time>
      </trkpt>
      <trkpt lat="49.33828" lon="-0.55613">
        <ele>9.7</ele>
        <time>2020-06-17T08:16:48Z</time>
      </trkpt>
      <trkpt lat="49.33828" lon="-0.55603">
        <ele>9.7</ele>
        <time>2020-06-17T08:16:49Z</time>
      </trkpt>
      <trkpt lat="49.33829" lon="-0.55593">
        <ele>9.8</ele>
        <time>2020-06-17T08:16:50Z</time>
      </trkpt>
      <trkpt lat="49.3383" lon="-0.55584">
        <ele>9.8</ele>
        <time>2020-06-17T08:16:51Z</time>
      </trkpt>
      <trkpt lat="49.33831" lon="-0.55575">
        <ele>9.9</ele>
        <time>2020-06-17T08:16:52Z</time>
      </trkpt>
      <trkpt lat="49.33831" lon="-0.55566">
        <ele>9.9</ele>
        <time>2020-06-17T08:16:53Z</time>
      </trkpt>
      <trkpt lat="49.33833" lon="-0.55555">
        <ele>10</ele>
        <time>2020-06-17T08:16:54Z</time>
      </trkpt>
      <trkpt lat="49.33834" lon="-0.55545">
        <ele>10.1</ele>
        <time>2020-06-17T08:16:55Z</time>
      </trkpt>
      <trkpt lat="49.33835" lon="-0.55535">
        <ele>10.2</ele>
        <time>2020-06-17T08:16:56Z</time>
      </trkpt>
      <trkpt lat="49.33836" lon="-0.55527">
        <ele>10.2</ele>
        <time>2020-06-17T08:16:57Z</time>
      </trkpt>
      <trkpt lat="49.33836" lon="-0.55519">
        <ele>10.3</ele>
        <time>2020-06-17T08:16:58Z</time>
      </trkpt>
      <trkpt lat="49.33836" lon="-0.55512">
        <ele>10.3</ele>
        <time>2020-06-17T08:16:59Z</time>
      </trkpt>
      <trkpt lat="49.33836" lon="-0.55503">
        <ele>10.3</ele>
        <time>2020-06-17T08:17:00Z</time>
      </trkpt>
      <trkpt lat="49.33837" lon="-0.55495">
        <ele>10.4</ele>
        <time>2020-06-17T08:17:01Z</time>
      </trkpt>
      <trkpt lat="49.33838" lon="-0.55483">
        <ele>10.4</ele>
        <time>2020-06-17T08:17:02Z</time>
      </trkpt>
      <trkpt lat="49.33839" lon="-0.55474">
        <ele>10.4</ele>
        <time>2020-06-17T08:17:03Z</time>
      </trkpt>
      <trkpt lat="49.33841" lon="-0.55465">
        <ele>10.4</ele>
        <time>2020-06-17T08:17:04Z</time>
      </trkpt>
      <trkpt lat="49.33841" lon="-0.55457">
        <ele>10.4</ele>
        <time>2020-06-17T08:17:05Z</time>
      </trkpt>
      <trkpt lat="49.33842" lon="-0.55448">
        <ele>10.5</ele>
        <time>2020-06-17T08:17:06Z</time>
      </trkpt>
      <trkpt lat="49.33843" lon="-0.55438">
        <ele>10.5</ele>
        <time>2020-06-17T08:17:07Z</time>
      </trkpt>
      <trkpt lat="49.33844" lon="-0.55428">
        <ele>10.6</ele>
        <time>2020-06-17T08:17:08Z</time>
      </trkpt>
      <trkpt lat="49.33846" lon="-0.55418">
        <ele>10.6</ele>
        <time>2020-06-17T08:17:09Z</time>
      </trkpt>
      <trkpt lat="49.33847" lon="-0.5541">
        <ele>10.6</ele>
        <time>2020-06-17T08:17:10Z</time>
      </trkpt>
      <trkpt lat="49.33849" lon="-0.55402">
        <ele>10.7</ele>
        <time>2020-06-17T08:17:11Z</time>
      </trkpt>
      <trkpt lat="49.3385" lon="-0.55394">
        <ele>10.7</ele>
        <time>2020-06-17T08:17:12Z</time>
      </trkpt>
      <trkpt lat="49.33851" lon="-0.55385">
        <ele>10.7</ele>
        <time>2020-06-17T08:17:13Z</time>
      </trkpt>
      <trkpt lat="49.33851" lon="-0.55377">
        <ele>10.8</ele>
        <time>2020-06-17T08:17:14Z</time>
      </trkpt>
      <trkpt lat="49.33852" lon="-0.55368">
        <ele>10.8</ele>
        <time>2020-06-17T08:17:15Z</time>
      </trkpt>
      <trkpt lat="49.33852" lon="-0.55359">
        <ele>10.8</ele>
        <time>2020-06-17T08:17:16Z</time>
      </trkpt>
      <trkpt lat="49.33853" lon="-0.55351">
        <ele>10.9</ele>
        <time>2020-06-17T08:17:17Z</time>
      </trkpt>
      <trkpt lat="49.33854" lon="-0.55342">
        <ele>10.9</ele>
        <time>2020-06-17T08:17:18Z</time>
      </trkpt>
      <trkpt lat="49.33854" lon="-0.55333">
        <ele>11</ele>
        <time>2020-06-17T08:17:19Z</time>
      </trkpt>
      <trkpt lat="49.33856" lon="-0.55325">
        <ele>11</ele>
        <time>2020-06-17T08:17:20Z</time>
      </trkpt>
      <trkpt lat="49.33857" lon="-0.55314">
        <ele>11.1</ele>
        <time>2020-06-17T08:17:21Z</time>
      </trkpt>
      <trkpt lat="49.33858" lon="-0.55304">
        <ele>11.2</ele>
        <time>2020-06-17T08:17:22Z</time>
      </trkpt>
      <trkpt lat="49.33859" lon="-0.55294">
        <ele>11.3</ele>
        <time>2020-06-17T08:17:23Z</time>
      </trkpt>
      <trkpt lat="49.3386" lon="-0.55284">
        <ele>11.4</ele>
        <time>2020-06-17T08:17:24Z</time>
      </trkpt>
      <trkpt lat="49.33862" lon="-0.55276">
        <ele>11.4</ele>
        <time>2020-06-17T08:17:25Z</time>
      </trkpt>
      <trkpt lat="49.33863" lon="-0.55267">
        <ele>11.5</ele>
        <time>2020-06-17T08:17:26Z</time>
      </trkpt>
      <trkpt lat="49.33865" lon="-0.55261">
        <ele>11.5</ele>
        <time>2020-06-17T08:17:27Z</time>
      </trkpt>
      <trkpt lat="49.33866" lon="-0.55251">
        <ele>11.5</ele>
        <time>2020-06-17T08:17:28Z</time>
      </trkpt>
      <trkpt lat="49.33867" lon="-0.55242">
        <ele>11.5</ele>
        <time>2020-06-17T08:17:29Z</time>
      </trkpt>
      <trkpt lat="49.33867" lon="-0.55232">
        <ele>11.5</ele>
        <time>2020-06-17T08:17:30Z</time>
      </trkpt>
      <trkpt lat="49.33868" lon="-0.55223">
        <ele>11.6</ele>
        <time>2020-06-17T08:17:31Z</time>
      </trkpt>
      <trkpt lat="49.33869" lon="-0.55213">
        <ele>11.6</ele>
        <time>2020-06-17T08:17:32Z</time>
      </trkpt>
      <trkpt lat="49.3387" lon="-0.55201">
        <ele>11.7</ele>
        <time>2020-06-17T08:17:33Z</time>
      </trkpt>
      <trkpt lat="49.33871" lon="-0.55188">
        <ele>11.8</ele>
        <time>2020-06-17T08:17:34Z</time>
      </trkpt>
      <trkpt lat="49.33872" lon="-0.55176">
        <ele>11.9</ele>
        <time>2020-06-17T08:17:35Z</time>
      </trkpt>
      <trkpt lat="49.33874" lon="-0.55164">
        <ele>12</ele>
        <time>2020-06-17T08:17:36Z</time>
      </trkpt>
      <trkpt lat="49.33876" lon="-0.55155">
        <ele>12.1</ele>
        <time>2020-06-17T08:17:37Z</time>
      </trkpt>
      <trkpt lat="49.33878" lon="-0.55145">
        <ele>12.2</ele>
        <time>2020-06-17T08:17:38Z</time>
      </trkpt>
      <trkpt lat="49.33878" lon="-0.55134">
        <ele>12.2</ele>
        <time>2020-06-17T08:17:39Z</time>
      </trkpt>
      <trkpt lat="49.33879" lon="-0.55123">
        <ele>12.3</ele>
        <time>2020-06-17T08:17:40Z</time>
      </trkpt>
      <trkpt lat="49.33879" lon="-0.55111">
        <ele>12.4</ele>
        <time>2020-06-17T08:17:41Z</time>
      </trkpt>
      <trkpt lat="49.3388" lon="-0.55101">
        <ele>12.4</ele>
        <time>2020-06-17T08:17:42Z</time>
      </trkpt>
      <trkpt lat="49.3388" lon="-0.5509">
        <ele>12.5</ele>
        <time>2020-06-17T08:17:43Z</time>
      </trkpt>
      <trkpt lat="49.33879" lon="-0.55079">
        <ele>12.6</ele>
        <time>2020-06-17T08:17:44Z</time>
      </trkpt>
      <trkpt lat="49.3388" lon="-0.55067">
        <ele>12.6</ele>
        <time>2020-06-17T08:17:45Z</time>
      </trkpt>
      <trkpt lat="49.33881" lon="-0.55058">
        <ele>12.6</ele>
        <time>2020-06-17T08:17:46Z</time>
      </trkpt>
      <trkpt lat="49.33882" lon="-0.55048">
        <ele>12.7</ele>
        <time>2020-06-17T08:17:47Z</time>
      </trkpt>
      <trkpt lat="49.33884" lon="-0.55039">
        <ele>12.7</ele>
        <time>2020-06-17T08:17:48Z</time>
      </trkpt>
      <trkpt lat="49.33885" lon="-0.55031">
        <ele>12.7</ele>
        <time>2020-06-17T08:17:49Z</time>
      </trkpt>
      <trkpt lat="49.33887" lon="-0.55024">
        <ele>12.8</ele>
        <time>2020-06-17T08:17:50Z</time>
      </trkpt>
      <trkpt lat="49.33888" lon="-0.55014">
        <ele>12.8</ele>
        <time>2020-06-17T08:17:51Z</time>
      </trkpt>
      <trkpt lat="49.33889" lon="-0.55006">
        <ele>12.8</ele>
        <time>2020-06-17T08:17:52Z</time>
      </trkpt>
      <trkpt lat="49.33891" lon="-0.54996">
        <ele>12.9</ele>
        <time>2020-06-17T08:17:53Z</time>
      </trkpt>
      <trkpt lat="49.33892" lon="-0.54987">
        <ele>12.9</ele>
        <time>2020-06-17T08:17:54Z</time>
      </trkpt>
      <trkpt lat="49.33893" lon="-0.54978">
        <ele>13</ele>
        <time>2020-06-17T08:17:55Z</time>
      </trkpt>
      <trkpt lat="49.33895" lon="-0.54969">
        <ele>13.1</ele>
        <time>2020-06-17T08:17:56Z</time>
      </trkpt>
      <trkpt lat="49.33898" lon="-0.5496">
        <ele>13.2</ele>
        <time>2020-06-17T08:17:57Z</time>
      </trkpt>
      <trkpt lat="49.339" lon="-0.54951">
        <ele>13.3</ele>
        <time>2020-06-17T08:17:58Z</time>
      </trkpt>
      <trkpt lat="49.33901" lon="-0.54941">
        <ele>13.4</ele>
        <time>2020-06-17T08:17:59Z</time>
      </trkpt>
      <trkpt lat="49.33902" lon="-0.54932">
        <ele>13.5</ele>
        <time>2020-06-17T08:18:00Z</time>
      </trkpt>
      <trkpt lat="49.33903" lon="-0.54924">
        <ele>13.5</ele>
        <time>2020-06-17T08:18:01Z</time>
      </trkpt>
      <trkpt lat="49.33904" lon="-0.54915">
        <ele>13.6</ele>
        <time>2020-06-17T08:18:02Z</time>
      </trkpt>
      <trkpt lat="49.33906" lon="-0.54907">
        <ele>13.6</ele>
        <time>2020-06-17T08:18:03Z</time>
      </trkpt>
      <trkpt lat="49.33909" lon="-0.54898">
        <ele>13.7</ele>
        <time>2020-06-17T08:18:04Z</time>
      </trkpt>
      <trkpt lat="49.33909" lon="-0.5489">
        <ele>13.7</ele>
        <time>2020-06-17T08:18:05Z</time>
      </trkpt>
      <trkpt lat="49.33911" lon="-0.5488">
        <ele>13.8</ele>
        <time>2020-06-17T08:18:06Z</time>
      </trkpt>
      <trkpt lat="49.33911" lon="-0.54871">
        <ele>13.8</ele>
        <time>2020-06-17T08:18:07Z</time>
      </trkpt>
      <trkpt lat="49.3391" lon="-0.54862">
        <ele>13.9</ele>
        <time>2020-06-17T08:18:08Z</time>
      </trkpt>
      <trkpt lat="49.3391" lon="-0.54854">
        <ele>13.9</ele>
        <time>2020-06-17T08:18:09Z</time>
      </trkpt>
      <trkpt lat="49.33912" lon="-0.54843">
        <ele>14</ele>
        <time>2020-06-17T08:18:10Z</time>
      </trkpt>
      <trkpt lat="49.33913" lon="-0.54833">
        <ele>14.1</ele>
        <time>2020-06-17T08:18:11Z</time>
      </trkpt>
      <trkpt lat="49.33916" lon="-0.54825">
        <ele>14.2</ele>
        <time>2020-06-17T08:18:12Z</time>
      </trkpt>
      <trkpt lat="49.33918" lon="-0.54816">
        <ele>14.3</ele>
        <time>2020-06-17T08:18:13Z</time>
      </trkpt>
      <trkpt lat="49.33921" lon="-0.54806">
        <ele>14.3</ele>
        <time>2020-06-17T08:18:14Z</time>
      </trkpt>
      <trkpt lat="49.33923" lon="-0.54797">
        <ele>14.3</ele>
        <time>2020-06-17T08:18:15Z</time>
      </trkpt>
      <trkpt lat="49.33924" lon="-0.54786">
        <ele>14.4</ele>
        <time>2020-06-17T08:18:16Z</time>
      </trkpt>
      <trkpt lat="49.33925" lon="-0.54777">
        <ele>14.4</ele>
        <time>2020-06-17T08:18:17Z</time>
      </trkpt>
      <trkpt lat="49.33925" lon="-0.54768">
        <ele>14.4</ele>
        <time>2020-06-17T08:18:18Z</time>
      </trkpt>
      <trkpt lat="49.33926" lon="-0.54758">
        <ele>14.5</ele>
        <time>2020-06-17T08:18:19Z</time>
      </trkpt>
      <trkpt lat="49.33927" lon="-0.54748">
        <ele>14.5</ele>
        <time>2020-06-17T08:18:20Z</time>
      </trkpt>
      <trkpt lat="49.33927" lon="-0.54738">
        <ele>14.5</ele>
        <time>2020-06-17T08:18:21Z</time>
      </trkpt>
      <trkpt lat="49.33928" lon="-0.54727">
        <ele>14.5</ele>
        <time>2020-06-17T08:18:22Z</time>
      </trkpt>
      <trkpt lat="49.33929" lon="-0.54717">
        <ele>14.6</ele>
        <time>2020-06-17T08:18:23Z</time>
      </trkpt>
      <trkpt lat="49.3393" lon="-0.54707">
        <ele>14.6</ele>
        <time>2020-06-17T08:18:24Z</time>
      </trkpt>
      <trkpt lat="49.33931" lon="-0.54697">
        <ele>14.6</ele>
        <time>2020-06-17T08:18:25Z</time>
      </trkpt>
      <trkpt lat="49.33932" lon="-0.54687">
        <ele>14.6</ele>
        <time>2020-06-17T08:18:26Z</time>
      </trkpt>
      <trkpt lat="49.33933" lon="-0.54677">
        <ele>14.7</ele>
        <time>2020-06-17T08:18:27Z</time>
      </trkpt>
      <trkpt lat="49.33935" lon="-0.54667">
        <ele>14.7</ele>
        <time>2020-06-17T08:18:28Z</time>
      </trkpt>
      <trkpt lat="49.33936" lon="-0.54655">
        <ele>14.8</ele>
        <time>2020-06-17T08:18:29Z</time>
      </trkpt>
      <trkpt lat="49.33936" lon="-0.54647">
        <ele>14.8</ele>
        <time>2020-06-17T08:18:30Z</time>
      </trkpt>
      <trkpt lat="49.33936" lon="-0.54639">
        <ele>14.8</ele>
        <time>2020-06-17T08:18:31Z</time>
      </trkpt>
      <trkpt lat="49.33936" lon="-0.54631">
        <ele>14.8</ele>
        <time>2020-06-17T08:18:32Z</time>
      </trkpt>
      <trkpt lat="49.33937" lon="-0.54623">
        <ele>14.9</ele>
        <time>2020-06-17T08:18:33Z</time>
      </trkpt>
      <trkpt lat="49.33938" lon="-0.54613">
        <ele>14.9</ele>
        <time>2020-06-17T08:18:34Z</time>
      </trkpt>
      <trkpt lat="49.33939" lon="-0.54604">
        <ele>14.9</ele>
        <time>2020-06-17T08:18:35Z</time>
      </trkpt>
      <trkpt lat="49.33941" lon="-0.54596">
        <ele>15</ele>
        <time>2020-06-17T08:18:36Z</time>
      </trkpt>
      <trkpt lat="49.33942" lon="-0.54588">
        <ele>15.1</ele>
        <time>2020-06-17T08:18:37Z</time>
      </trkpt>
      <trkpt lat="49.33943" lon="-0.54579">
        <ele>15.1</ele>
        <time>2020-06-17T08:18:38Z</time>
      </trkpt>
      <trkpt lat="49.33945" lon="-0.5457">
        <ele>15.2</ele>
        <time>2020-06-17T08:18:39Z</time>
      </trkpt>
      <trkpt lat="49.33946" lon="-0.5456">
        <ele>15.2</ele>
        <time>2020-06-17T08:18:40Z</time>
      </trkpt>
      <trkpt lat="49.33948" lon="-0.5455">
        <ele>15.2</ele>
        <time>2020-06-17T08:18:41Z</time>
      </trkpt>
      <trkpt lat="49.33949" lon="-0.5454">
        <ele>15.2</ele>
        <time>2020-06-17T08:18:42Z</time>
      </trkpt>
      <trkpt lat="49.33949" lon="-0.54533">
        <ele>15.3</ele>
        <time>2020-06-17T08:18:43Z</time>
      </trkpt>
      <trkpt lat="49.3395" lon="-0.54524">
        <ele>15.3</ele>
        <time>2020-06-17T08:18:44Z</time>
      </trkpt>
      <trkpt lat="49.3395" lon="-0.54515">
        <ele>15.3</ele>
        <time>2020-06-17T08:18:45Z</time>
      </trkpt>
      <trkpt lat="49.3395" lon="-0.54507">
        <ele>15.4</ele>
        <time>2020-06-17T08:18:46Z</time>
      </trkpt>
      <trkpt lat="49.3395" lon="-0.54499">
        <ele>15.4</ele>
        <time>2020-06-17T08:18:47Z</time>
      </trkpt>
      <trkpt lat="49.3395" lon="-0.54492">
        <ele>15.4</ele>
        <time>2020-06-17T08:18:48Z</time>
      </trkpt>
      <trkpt lat="49.33951" lon="-0.54483">
        <ele>15.5</ele>
        <time>2020-06-17T08:18:49Z</time>
      </trkpt>
      <trkpt lat="49.33952" lon="-0.54473">
        <ele>15.5</ele>
        <time>2020-06-17T08:18:50Z</time>
      </trkpt>
      <trkpt lat="49.33952" lon="-0.54462">
        <ele>15.5</ele>
        <time>2020-06-17T08:18:51Z</time>
      </trkpt>
      <trkpt lat="49.33954" lon="-0.5445">
        <ele>15.6</ele>
        <time>2020-06-17T08:18:52Z</time>
      </trkpt>
      <trkpt lat="49.33954" lon="-0.5444">
        <ele>15.6</ele>
        <time>2020-06-17T08:18:53Z</time>
      </trkpt>
      <trkpt lat="49.33955" lon="-0.54429">
        <ele>15.6</ele>
        <time>2020-06-17T08:18:54Z</time>
      </trkpt>
      <trkpt lat="49.33954" lon="-0.54419">
        <ele>15.7</ele>
        <time>2020-06-17T08:18:55Z</time>
      </trkpt>
      <trkpt lat="49.33954" lon="-0.54409">
        <ele>15.7</ele>
        <time>2020-06-17T08:18:56Z</time>
      </trkpt>
      <trkpt lat="49.33956" lon="-0.54399">
        <ele>15.8</ele>
        <time>2020-06-17T08:18:57Z</time>
      </trkpt>
      <trkpt lat="49.33958" lon="-0.54389">
        <ele>15.8</ele>
        <time>2020-06-17T08:18:58Z</time>
      </trkpt>
      <trkpt lat="49.3396" lon="-0.54378">
        <ele>15.8</ele>
        <time>2020-06-17T08:18:59Z</time>
      </trkpt>
      <trkpt lat="49.33962" lon="-0.54368">
        <ele>15.9</ele>
        <time>2020-06-17T08:19:00Z</time>
      </trkpt>
      <trkpt lat="49.33963" lon="-0.54357">
        <ele>15.9</ele>
        <time>2020-06-17T08:19:01Z</time>
      </trkpt>
      <trkpt lat="49.33965" lon="-0.54346">
        <ele>15.9</ele>
        <time>2020-06-17T08:19:02Z</time>
      </trkpt>
      <trkpt lat="49.33967" lon="-0.54335">
        <ele>15.9</ele>
        <time>2020-06-17T08:19:03Z</time>
      </trkpt>
      <trkpt lat="49.33968" lon="-0.54323">
        <ele>15.9</ele>
        <time>2020-06-17T08:19:04Z</time>
      </trkpt>
      <trkpt lat="49.33971" lon="-0.54311">
        <ele>16</ele>
        <time>2020-06-17T08:19:05Z</time>
      </trkpt>
      <trkpt lat="49.33973" lon="-0.54299">
        <ele>16</ele>
        <time>2020-06-17T08:19:06Z</time>
      </trkpt>
      <trkpt lat="49.33974" lon="-0.54286">
        <ele>16.1</ele>
        <time>2020-06-17T08:19:07Z</time>
      </trkpt>
      <trkpt lat="49.33976" lon="-0.54273">
        <ele>16.1</ele>
        <time>2020-06-17T08:19:08Z</time>
      </trkpt>
      <trkpt lat="49.33978" lon="-0.5426">
        <ele>16.2</ele>
        <time>2020-06-17T08:19:09Z</time>
      </trkpt>
      <trkpt lat="49.3398" lon="-0.54247">
        <ele>16.3</ele>
        <time>2020-06-17T08:19:10Z</time>
      </trkpt>
      <trkpt lat="49.33982" lon="-0.54235">
        <ele>16.4</ele>
        <time>2020-06-17T08:19:11Z</time>
      </trkpt>
      <trkpt lat="49.33985" lon="-0.54222">
        <ele>16.5</ele>
        <time>2020-06-17T08:19:12Z</time>
      </trkpt>
      <trkpt lat="49.33987" lon="-0.5421">
        <ele>16.6</ele>
        <time>2020-06-17T08:19:13Z</time>
      </trkpt>
      <trkpt lat="49.33988" lon="-0.54198">
        <ele>16.7</ele>
        <time>2020-06-17T08:19:14Z</time>
      </trkpt>
      <trkpt lat="49.33989" lon="-0.54186">
        <ele>16.9</ele>
        <time>2020-06-17T08:19:15Z</time>
      </trkpt>
      <trkpt lat="49.33991" lon="-0.54174">
        <ele>17</ele>
        <time>2020-06-17T08:19:16Z</time>
      </trkpt>
      <trkpt lat="49.33993" lon="-0.54161">
        <ele>16.8</ele>
        <time>2020-06-17T08:19:17Z</time>
      </trkpt>
      <trkpt lat="49.33993" lon="-0.54148">
        <ele>16.8</ele>
        <time>2020-06-17T08:19:18Z</time>
      </trkpt>
      <trkpt lat="49.33996" lon="-0.54134">
        <ele>16.8</ele>
        <time>2020-06-17T08:19:19Z</time>
      </trkpt>
      <trkpt lat="49.33997" lon="-0.54121">
        <ele>16.8</ele>
        <time>2020-06-17T08:19:20Z</time>
      </trkpt>
      <trkpt lat="49.33999" lon="-0.5411">
        <ele>16.8</ele>
        <time>2020-06-17T08:19:21Z</time>
      </trkpt>
      <trkpt lat="49.34" lon="-0.54099">
        <ele>16.8</ele>
        <time>2020-06-17T08:19:22Z</time>
      </trkpt>
      <trkpt lat="49.34001" lon="-0.54088">
        <ele>16.9</ele>
        <time>2020-06-17T08:19:23Z</time>
      </trkpt>
      <trkpt lat="49.34002" lon="-0.54078">
        <ele>17</ele>
        <time>2020-06-17T08:19:24Z</time>
      </trkpt>
      <trkpt lat="49.34003" lon="-0.54067">
        <ele>17</ele>
        <time>2020-06-17T08:19:25Z</time>
      </trkpt>
      <trkpt lat="49.34005" lon="-0.54055">
        <ele>17.1</ele>
        <time>2020-06-17T08:19:26Z</time>
      </trkpt>
      <trkpt lat="49.34005" lon="-0.54045">
        <ele>17.2</ele>
        <time>2020-06-17T08:19:27Z</time>
      </trkpt>
      <trkpt lat="49.34007" lon="-0.54034">
        <ele>17.2</ele>
        <time>2020-06-17T08:19:28Z</time>
      </trkpt>
      <trkpt lat="49.34007" lon="-0.54024">
        <ele>17.3</ele>
        <time>2020-06-17T08:19:29Z</time>
      </trkpt>
      <trkpt lat="49.34007" lon="-0.54014">
        <ele>17.4</ele>
        <time>2020-06-17T08:19:30Z</time>
      </trkpt>
      <trkpt lat="49.34008" lon="-0.54004">
        <ele>17.4</ele>
        <time>2020-06-17T08:19:31Z</time>
      </trkpt>
      <trkpt lat="49.34009" lon="-0.53995">
        <ele>17.5</ele>
        <time>2020-06-17T08:19:32Z</time>
      </trkpt>
      <trkpt lat="49.34011" lon="-0.53986">
        <ele>17.5</ele>
        <time>2020-06-17T08:19:33Z</time>
      </trkpt>
      <trkpt lat="49.34012" lon="-0.53977">
        <ele>17.6</ele>
        <time>2020-06-17T08:19:34Z</time>
      </trkpt>
      <trkpt lat="49.34014" lon="-0.53968">
        <ele>17.6</ele>
        <time>2020-06-17T08:19:35Z</time>
      </trkpt>
      <trkpt lat="49.34016" lon="-0.53958">
        <ele>17.7</ele>
        <time>2020-06-17T08:19:36Z</time>
      </trkpt>
      <trkpt lat="49.34018" lon="-0.53949">
        <ele>17.7</ele>
        <time>2020-06-17T08:19:37Z</time>
      </trkpt>
      <trkpt lat="49.3402" lon="-0.5394">
        <ele>17.8</ele>
        <time>2020-06-17T08:19:38Z</time>
      </trkpt>
      <trkpt lat="49.34021" lon="-0.53929">
        <ele>17.8</ele>
        <time>2020-06-17T08:19:39Z</time>
      </trkpt>
      <trkpt lat="49.34022" lon="-0.53918">
        <ele>17.9</ele>
        <time>2020-06-17T08:19:40Z</time>
      </trkpt>
      <trkpt lat="49.34022" lon="-0.53906">
        <ele>18</ele>
        <time>2020-06-17T08:19:41Z</time>
      </trkpt>
      <trkpt lat="49.34023" lon="-0.53895">
        <ele>18.1</ele>
        <time>2020-06-17T08:19:42Z</time>
      </trkpt>
      <trkpt lat="49.34025" lon="-0.53883">
        <ele>18.2</ele>
        <time>2020-06-17T08:19:43Z</time>
      </trkpt>
      <trkpt lat="49.34025" lon="-0.53871">
        <ele>18.3</ele>
        <time>2020-06-17T08:19:44Z</time>
      </trkpt>
      <trkpt lat="49.34027" lon="-0.53859">
        <ele>18.4</ele>
        <time>2020-06-17T08:19:45Z</time>
      </trkpt>
      <trkpt lat="49.34028" lon="-0.53846">
        <ele>18.5</ele>
        <time>2020-06-17T08:19:46Z</time>
      </trkpt>
      <trkpt lat="49.34029" lon="-0.53837">
        <ele>18.5</ele>
        <time>2020-06-17T08:19:47Z</time>
      </trkpt>
      <trkpt lat="49.3403" lon="-0.53827">
        <ele>18.5</ele>
        <time>2020-06-17T08:19:48Z</time>
      </trkpt>
      <trkpt lat="49.3403" lon="-0.53816">
        <ele>18.5</ele>
        <time>2020-06-17T08:19:49Z</time>
      </trkpt>
      <trkpt lat="49.3403" lon="-0.53807">
        <ele>18.6</ele>
        <time>2020-06-17T08:19:50Z</time>
      </trkpt>
      <trkpt lat="49.34031" lon="-0.53798">
        <ele>18.6</ele>
        <time>2020-06-17T08:19:51Z</time>
      </trkpt>
      <trkpt lat="49.34031" lon="-0.53788">
        <ele>18.6</ele>
        <time>2020-06-17T08:19:52Z</time>
      </trkpt>
      <trkpt lat="49.34033" lon="-0.53777">
        <ele>18.7</ele>
        <time>2020-06-17T08:19:53Z</time>
      </trkpt>
      <trkpt lat="49.34035" lon="-0.53767">
        <ele>18.8</ele>
        <time>2020-06-17T08:19:54Z</time>
      </trkpt>
      <trkpt lat="49.34036" lon="-0.53757">
        <ele>18.9</ele>
        <time>2020-06-17T08:19:55Z</time>
      </trkpt>
      <trkpt lat="49.34036" lon="-0.53747">
        <ele>18.9</ele>
        <time>2020-06-17T08:19:56Z</time>
      </trkpt>
      <trkpt lat="49.34036" lon="-0.53736">
        <ele>19</ele>
        <time>2020-06-17T08:19:57Z</time>
      </trkpt>
      <trkpt lat="49.34037" lon="-0.53726">
        <ele>19</ele>
        <time>2020-06-17T08:19:58Z</time>
      </trkpt>
      <trkpt lat="49.34038" lon="-0.53716">
        <ele>19.1</ele>
        <time>2020-06-17T08:19:59Z</time>
      </trkpt>
      <trkpt lat="49.34038" lon="-0.53706">
        <ele>19.1</ele>
        <time>2020-06-17T08:20:00Z</time>
      </trkpt>
      <trkpt lat="49.34038" lon="-0.53695">
        <ele>19.2</ele>
        <time>2020-06-17T08:20:01Z</time>
      </trkpt>
      <trkpt lat="49.34039" lon="-0.53685">
        <ele>19.3</ele>
        <time>2020-06-17T08:20:02Z</time>
      </trkpt>
      <trkpt lat="49.3404" lon="-0.53673">
        <ele>19.3</ele>
        <time>2020-06-17T08:20:03Z</time>
      </trkpt>
      <trkpt lat="49.34041" lon="-0.53662">
        <ele>19.4</ele>
        <time>2020-06-17T08:20:04Z</time>
      </trkpt>
      <trkpt lat="49.34042" lon="-0.53652">
        <ele>19.4</ele>
        <time>2020-06-17T08:20:05Z</time>
      </trkpt>
      <trkpt lat="49.34043" lon="-0.53641">
        <ele>19.4</ele>
        <time>2020-06-17T08:20:06Z</time>
      </trkpt>
      <trkpt lat="49.34044" lon="-0.5363">
        <ele>19.4</ele>
        <time>2020-06-17T08:20:07Z</time>
      </trkpt>
      <trkpt lat="49.34046" lon="-0.5362">
        <ele>19.4</ele>
        <time>2020-06-17T08:20:08Z</time>
      </trkpt>
      <trkpt lat="49.34047" lon="-0.5361">
        <ele>19.4</ele>
        <time>2020-06-17T08:20:09Z</time>
      </trkpt>
      <trkpt lat="49.34048" lon="-0.53599">
        <ele>19.5</ele>
        <time>2020-06-17T08:20:10Z</time>
      </trkpt>
      <trkpt lat="49.34048" lon="-0.53588">
        <ele>19.5</ele>
        <time>2020-06-17T08:20:11Z</time>
      </trkpt>
      <trkpt lat="49.34049" lon="-0.53577">
        <ele>19.6</ele>
        <time>2020-06-17T08:20:12Z</time>
      </trkpt>
      <trkpt lat="49.34051" lon="-0.53566">
        <ele>19.6</ele>
        <time>2020-06-17T08:20:13Z</time>
      </trkpt>
      <trkpt lat="49.34052" lon="-0.53554">
        <ele>19.7</ele>
        <time>2020-06-17T08:20:14Z</time>
      </trkpt>
      <trkpt lat="49.34053" lon="-0.53543">
        <ele>19.7</ele>
        <time>2020-06-17T08:20:15Z</time>
      </trkpt>
      <trkpt lat="49.34055" lon="-0.53533">
        <ele>19.8</ele>
        <time>2020-06-17T08:20:16Z</time>
      </trkpt>
      <trkpt lat="49.34056" lon="-0.53523">
        <ele>19.8</ele>
        <time>2020-06-17T08:20:17Z</time>
      </trkpt>
      <trkpt lat="49.34057" lon="-0.53512">
        <ele>19.8</ele>
        <time>2020-06-17T08:20:18Z</time>
      </trkpt>
      <trkpt lat="49.34057" lon="-0.53502">
        <ele>19.8</ele>
        <time>2020-06-17T08:20:19Z</time>
      </trkpt>
      <trkpt lat="49.34057" lon="-0.53491">
        <ele>19.8</ele>
        <time>2020-06-17T08:20:20Z</time>
      </trkpt>
      <trkpt lat="49.34058" lon="-0.5348">
        <ele>19.9</ele>
        <time>2020-06-17T08:20:21Z</time>
      </trkpt>
      <trkpt lat="49.3406" lon="-0.5347">
        <ele>19.9</ele>
        <time>2020-06-17T08:20:22Z</time>
      </trkpt>
      <trkpt lat="49.34061" lon="-0.53458">
        <ele>20</ele>
        <time>2020-06-17T08:20:23Z</time>
      </trkpt>
      <trkpt lat="49.34062" lon="-0.53448">
        <ele>20.1</ele>
        <time>2020-06-17T08:20:24Z</time>
      </trkpt>
      <trkpt lat="49.34063" lon="-0.53438">
        <ele>20.1</ele>
        <time>2020-06-17T08:20:25Z</time>
      </trkpt>
      <trkpt lat="49.34064" lon="-0.53427">
        <ele>20.1</ele>
        <time>2020-06-17T08:20:26Z</time>
      </trkpt>
      <trkpt lat="49.34065" lon="-0.53416">
        <ele>20.1</ele>
        <time>2020-06-17T08:20:27Z</time>
      </trkpt>
      <trkpt lat="49.34066" lon="-0.53405">
        <ele>20.2</ele>
        <time>2020-06-17T08:20:28Z</time>
      </trkpt>
      <trkpt lat="49.34067" lon="-0.53395">
        <ele>20.2</ele>
        <time>2020-06-17T08:20:29Z</time>
      </trkpt>
      <trkpt lat="49.34068" lon="-0.53384">
        <ele>20.2</ele>
        <time>2020-06-17T08:20:30Z</time>
      </trkpt>
      <trkpt lat="49.34069" lon="-0.53374">
        <ele>20.2</ele>
        <time>2020-06-17T08:20:31Z</time>
      </trkpt>
      <trkpt lat="49.34071" lon="-0.53362">
        <ele>20.2</ele>
        <time>2020-06-17T08:20:32Z</time>
      </trkpt>
      <trkpt lat="49.34072" lon="-0.53352">
        <ele>20.2</ele>
        <time>2020-06-17T08:20:33Z</time>
      </trkpt>
      <trkpt lat="49.34073" lon="-0.5334">
        <ele>20.2</ele>
        <time>2020-06-17T08:20:34Z</time>
      </trkpt>
      <trkpt lat="49.34074" lon="-0.53329">
        <ele>20.2</ele>
        <time>2020-06-17T08:20:35Z</time>
      </trkpt>
      <trkpt lat="49.34077" lon="-0.53318">
        <ele>20.1</ele>
        <time>2020-06-17T08:20:36Z</time>
      </trkpt>
      <trkpt lat="49.34078" lon="-0.53307">
        <ele>20.1</ele>
        <time>2020-06-17T08:20:37Z</time>
      </trkpt>
      <trkpt lat="49.3408" lon="-0.53298">
        <ele>20.1</ele>
        <time>2020-06-17T08:20:38Z</time>
      </trkpt>
      <trkpt lat="49.34082" lon="-0.53288">
        <ele>20</ele>
        <time>2020-06-17T08:20:39Z</time>
      </trkpt>
      <trkpt lat="49.34084" lon="-0.53278">
        <ele>20</ele>
        <time>2020-06-17T08:20:40Z</time>
      </trkpt>
      <trkpt lat="49.34086" lon="-0.53267">
        <ele>19.9</ele>
        <time>2020-06-17T08:20:41Z</time>
      </trkpt>
      <trkpt lat="49.34087" lon="-0.53257">
        <ele>19.9</ele>
        <time>2020-06-17T08:20:42Z</time>
      </trkpt>
      <trkpt lat="49.34088" lon="-0.53246">
        <ele>19.8</ele>
        <time>2020-06-17T08:20:43Z</time>
      </trkpt>
      <trkpt lat="49.34089" lon="-0.53235">
        <ele>19.7</ele>
        <time>2020-06-17T08:20:44Z</time>
      </trkpt>
      <trkpt lat="49.3409" lon="-0.53223">
        <ele>19.6</ele>
        <time>2020-06-17T08:20:45Z</time>
      </trkpt>
      <trkpt lat="49.34092" lon="-0.53212">
        <ele>19.5</ele>
        <time>2020-06-17T08:20:46Z</time>
      </trkpt>
      <trkpt lat="49.34092" lon="-0.53201">
        <ele>19.4</ele>
        <time>2020-06-17T08:20:47Z</time>
      </trkpt>
      <trkpt lat="49.34094" lon="-0.53189">
        <ele>19.3</ele>
        <time>2020-06-17T08:20:48Z</time>
      </trkpt>
      <trkpt lat="49.34095" lon="-0.53177">
        <ele>19.2</ele>
        <time>2020-06-17T08:20:49Z</time>
      </trkpt>
      <trkpt lat="49.34097" lon="-0.53166">
        <ele>19.1</ele>
        <time>2020-06-17T08:20:50Z</time>
      </trkpt>
      <trkpt lat="49.341" lon="-0.53153">
        <ele>19.1</ele>
        <time>2020-06-17T08:20:51Z</time>
      </trkpt>
      <trkpt lat="49.34101" lon="-0.53142">
        <ele>19.1</ele>
        <time>2020-06-17T08:20:52Z</time>
      </trkpt>
      <trkpt lat="49.34103" lon="-0.53129">
        <ele>19</ele>
        <time>2020-06-17T08:20:53Z</time>
      </trkpt>
      <trkpt lat="49.34105" lon="-0.53117">
        <ele>19</ele>
        <time>2020-06-17T08:20:54Z</time>
      </trkpt>
      <trkpt lat="49.34107" lon="-0.53105">
        <ele>18.9</ele>
        <time>2020-06-17T08:20:55Z</time>
      </trkpt>
      <trkpt lat="49.34109" lon="-0.53092">
        <ele>18.9</ele>
        <time>2020-06-17T08:20:56Z</time>
      </trkpt>
      <trkpt lat="49.3411" lon="-0.53079">
        <ele>18.8</ele>
        <time>2020-06-17T08:20:57Z</time>
      </trkpt>
      <trkpt lat="49.34112" lon="-0.53067">
        <ele>18.7</ele>
        <time>2020-06-17T08:20:58Z</time>
      </trkpt>
      <trkpt lat="49.34114" lon="-0.53055">
        <ele>18.6</ele>
        <time>2020-06-17T08:20:59Z</time>
      </trkpt>
      <trkpt lat="49.34116" lon="-0.53042">
        <ele>18.5</ele>
        <time>2020-06-17T08:21:00Z</time>
      </trkpt>
      <trkpt lat="49.34118" lon="-0.5303">
        <ele>18.5</ele>
        <time>2020-06-17T08:21:01Z</time>
      </trkpt>
      <trkpt lat="49.3412" lon="-0.53018">
        <ele>18.4</ele>
        <time>2020-06-17T08:21:02Z</time>
      </trkpt>
      <trkpt lat="49.34122" lon="-0.53004">
        <ele>18.3</ele>
        <time>2020-06-17T08:21:03Z</time>
      </trkpt>
      <trkpt lat="49.34125" lon="-0.52993">
        <ele>18.2</ele>
        <time>2020-06-17T08:21:04Z</time>
      </trkpt>
      <trkpt lat="49.34128" lon="-0.52981">
        <ele>18</ele>
        <time>2020-06-17T08:21:05Z</time>
      </trkpt>
      <trkpt lat="49.34131" lon="-0.52969">
        <ele>17.9</ele>
        <time>2020-06-17T08:21:06Z</time>
      </trkpt>
      <trkpt lat="49.34133" lon="-0.52956">
        <ele>17.7</ele>
        <time>2020-06-17T08:21:07Z</time>
      </trkpt>
      <trkpt lat="49.34135" lon="-0.52945">
        <ele>17.6</ele>
        <time>2020-06-17T08:21:08Z</time>
      </trkpt>
      <trkpt lat="49.34138" lon="-0.52933">
        <ele>17.5</ele>
        <time>2020-06-17T08:21:09Z</time>
      </trkpt>
      <trkpt lat="49.3414" lon="-0.52922">
        <ele>17.4</ele>
        <time>2020-06-17T08:21:10Z</time>
      </trkpt>
      <trkpt lat="49.34142" lon="-0.52911">
        <ele>17.3</ele>
        <time>2020-06-17T08:21:11Z</time>
      </trkpt>
      <trkpt lat="49.34145" lon="-0.529">
        <ele>17.2</ele>
        <time>2020-06-17T08:21:12Z</time>
      </trkpt>
      <trkpt lat="49.34147" lon="-0.52888">
        <ele>17.2</ele>
        <time>2020-06-17T08:21:13Z</time>
      </trkpt>
      <trkpt lat="49.34149" lon="-0.52877">
        <ele>17.1</ele>
        <time>2020-06-17T08:21:14Z</time>
      </trkpt>
      <trkpt lat="49.34151" lon="-0.52865">
        <ele>17.1</ele>
        <time>2020-06-17T08:21:15Z</time>
      </trkpt>
      <trkpt lat="49.34154" lon="-0.52852">
        <ele>17</ele>
        <time>2020-06-17T08:21:16Z</time>
      </trkpt>
      <trkpt lat="49.34156" lon="-0.52841">
        <ele>16.9</ele>
        <time>2020-06-17T08:21:17Z</time>
      </trkpt>
      <trkpt lat="49.34159" lon="-0.52828">
        <ele>16.8</ele>
        <time>2020-06-17T08:21:18Z</time>
      </trkpt>
      <trkpt lat="49.34162" lon="-0.52817">
        <ele>16.7</ele>
        <time>2020-06-17T08:21:19Z</time>
      </trkpt>
      <trkpt lat="49.34164" lon="-0.52805">
        <ele>16.6</ele>
        <time>2020-06-17T08:21:20Z</time>
      </trkpt>
      <trkpt lat="49.34166" lon="-0.52793">
        <ele>16.5</ele>
        <time>2020-06-17T08:21:21Z</time>
      </trkpt>
      <trkpt lat="49.34168" lon="-0.52782">
        <ele>16.4</ele>
        <time>2020-06-17T08:21:22Z</time>
      </trkpt>
      <trkpt lat="49.3417" lon="-0.5277">
        <ele>16.3</ele>
        <time>2020-06-17T08:21:23Z</time>
      </trkpt>
      <trkpt lat="49.34173" lon="-0.52758">
        <ele>16.2</ele>
        <time>2020-06-17T08:21:24Z</time>
      </trkpt>
      <trkpt lat="49.34176" lon="-0.52745">
        <ele>16</ele>
        <time>2020-06-17T08:21:25Z</time>
      </trkpt>
      <trkpt lat="49.34178" lon="-0.52734">
        <ele>15.8</ele>
        <time>2020-06-17T08:21:26Z</time>
      </trkpt>
      <trkpt lat="49.34179" lon="-0.52722">
        <ele>15.5</ele>
        <time>2020-06-17T08:21:27Z</time>
      </trkpt>
      <trkpt lat="49.34182" lon="-0.52711">
        <ele>15.2</ele>
        <time>2020-06-17T08:21:28Z</time>
      </trkpt>
      <trkpt lat="49.34184" lon="-0.52699">
        <ele>15</ele>
        <time>2020-06-17T08:21:29Z</time>
      </trkpt>
      <trkpt lat="49.34186" lon="-0.52686">
        <ele>14.7</ele>
        <time>2020-06-17T08:21:30Z</time>
      </trkpt>
      <trkpt lat="49.34189" lon="-0.52674">
        <ele>14.4</ele>
        <time>2020-06-17T08:21:31Z</time>
      </trkpt>
      <trkpt lat="49.34191" lon="-0.52661">
        <ele>14.2</ele>
        <time>2020-06-17T08:21:32Z</time>
      </trkpt>
      <trkpt lat="49.34193" lon="-0.52648">
        <ele>14</ele>
        <time>2020-06-17T08:21:33Z</time>
      </trkpt>
      <trkpt lat="49.34195" lon="-0.52635">
        <ele>13.8</ele>
        <time>2020-06-17T08:21:34Z</time>
      </trkpt>
      <trkpt lat="49.34197" lon="-0.52623">
        <ele>13.6</ele>
        <time>2020-06-17T08:21:35Z</time>
      </trkpt>
      <trkpt lat="49.34199" lon="-0.52609">
        <ele>13.3</ele>
        <time>2020-06-17T08:21:36Z</time>
      </trkpt>
      <trkpt lat="49.342" lon="-0.52596">
        <ele>13</ele>
        <time>2020-06-17T08:21:37Z</time>
      </trkpt>
      <trkpt lat="49.34201" lon="-0.52584">
        <ele>12.8</ele>
        <time>2020-06-17T08:21:38Z</time>
      </trkpt>
      <trkpt lat="49.34203" lon="-0.52571">
        <ele>12.6</ele>
        <time>2020-06-17T08:21:39Z</time>
      </trkpt>
      <trkpt lat="49.34204" lon="-0.52558">
        <ele>12.3</ele>
        <time>2020-06-17T08:21:40Z</time>
      </trkpt>
      <trkpt lat="49.34205" lon="-0.52546">
        <ele>12.1</ele>
        <time>2020-06-17T08:21:41Z</time>
      </trkpt>
      <trkpt lat="49.34206" lon="-0.52532">
        <ele>11.8</ele>
        <time>2020-06-17T08:21:42Z</time>
      </trkpt>
      <trkpt lat="49.34208" lon="-0.5252">
        <ele>11.6</ele>
        <time>2020-06-17T08:21:43Z</time>
      </trkpt>
      <trkpt lat="49.3421" lon="-0.52506">
        <ele>11.3</ele>
        <time>2020-06-17T08:21:44Z</time>
      </trkpt>
      <trkpt lat="49.34212" lon="-0.52492">
        <ele>11.1</ele>
        <time>2020-06-17T08:21:45Z</time>
      </trkpt>
      <trkpt lat="49.34215" lon="-0.52479">
        <ele>10.8</ele>
        <time>2020-06-17T08:21:46Z</time>
      </trkpt>
      <trkpt lat="49.34216" lon="-0.52464">
        <ele>10.6</ele>
        <time>2020-06-17T08:21:47Z</time>
      </trkpt>
      <trkpt lat="49.34218" lon="-0.52449">
        <ele>10.3</ele>
        <time>2020-06-17T08:21:48Z</time>
      </trkpt>
      <trkpt lat="49.3422" lon="-0.52435">
        <ele>10</ele>
        <time>2020-06-17T08:21:49Z</time>
      </trkpt>
      <trkpt lat="49.34222" lon="-0.52421">
        <ele>9.8</ele>
        <time>2020-06-17T08:21:50Z</time>
      </trkpt>
      <trkpt lat="49.34223" lon="-0.52408">
        <ele>9.5</ele>
        <time>2020-06-17T08:21:51Z</time>
      </trkpt>
      <trkpt lat="49.34224" lon="-0.52395">
        <ele>9.2</ele>
        <time>2020-06-17T08:21:52Z</time>
      </trkpt>
      <trkpt lat="49.34226" lon="-0.52381">
        <ele>8.9</ele>
        <time>2020-06-17T08:21:53Z</time>
      </trkpt>
      <trkpt lat="49.34229" lon="-0.52368">
        <ele>8.6</ele>
        <time>2020-06-17T08:21:54Z</time>
      </trkpt>
      <trkpt lat="49.34231" lon="-0.52355">
        <ele>8.3</ele>
        <time>2020-06-17T08:21:55Z</time>
      </trkpt>
      <trkpt lat="49.34233" lon="-0.52341">
        <ele>8</ele>
        <time>2020-06-17T08:21:56Z</time>
      </trkpt>
      <trkpt lat="49.34234" lon="-0.52328">
        <ele>7.8</ele>
        <time>2020-06-17T08:21:57Z</time>
      </trkpt>
      <trkpt lat="49.34236" lon="-0.52314">
        <ele>7.6</ele>
        <time>2020-06-17T08:21:58Z</time>
      </trkpt>
      <trkpt lat="49.34238" lon="-0.523">
        <ele>7.3</ele>
        <time>2020-06-17T08:21:59Z</time>
      </trkpt>
      <trkpt lat="49.34239" lon="-0.52286">
        <ele>7.1</ele>
        <time>2020-06-17T08:22:00Z</time>
      </trkpt>
      <trkpt lat="49.34241" lon="-0.52273">
        <ele>6.9</ele>
        <time>2020-06-17T08:22:01Z</time>
      </trkpt>
      <trkpt lat="49.34244" lon="-0.5226">
        <ele>6.7</ele>
        <time>2020-06-17T08:22:02Z</time>
      </trkpt>
      <trkpt lat="49.34245" lon="-0.52246">
        <ele>6.5</ele>
        <time>2020-06-17T08:22:03Z</time>
      </trkpt>
      <trkpt lat="49.34248" lon="-0.52232">
        <ele>6.4</ele>
        <time>2020-06-17T08:22:04Z</time>
      </trkpt>
      <trkpt lat="49.34251" lon="-0.52217">
        <ele>6.2</ele>
        <time>2020-06-17T08:22:05Z</time>
      </trkpt>
      <trkpt lat="49.34257" lon="-0.522">
        <ele>6</ele>
        <time>2020-06-17T08:22:06Z</time>
      </trkpt>
      <trkpt lat="49.34259" lon="-0.52186">
        <ele>5.8</ele>
        <time>2020-06-17T08:22:07Z</time>
      </trkpt>
      <trkpt lat="49.34262" lon="-0.52171">
        <ele>5.7</ele>
        <time>2020-06-17T08:22:08Z</time>
      </trkpt>
      <trkpt lat="49.34265" lon="-0.52158">
        <ele>5.7</ele>
        <time>2020-06-17T08:22:09Z</time>
      </trkpt>
      <trkpt lat="49.34268" lon="-0.52144">
        <ele>5.7</ele>
        <time>2020-06-17T08:22:10Z</time>
      </trkpt>
      <trkpt lat="49.34271" lon="-0.52129">
        <ele>5.7</ele>
        <time>2020-06-17T08:22:11Z</time>
      </trkpt>
      <trkpt lat="49.34274" lon="-0.52114">
        <ele>5.6</ele>
        <time>2020-06-17T08:22:12Z</time>
      </trkpt>
      <trkpt lat="49.34275" lon="-0.521">
        <ele>5.5</ele>
        <time>2020-06-17T08:22:13Z</time>
      </trkpt>
      <trkpt lat="49.34277" lon="-0.52086">
        <ele>5.5</ele>
        <time>2020-06-17T08:22:14Z</time>
      </trkpt>
      <trkpt lat="49.34279" lon="-0.52072">
        <ele>5.4</ele>
        <time>2020-06-17T08:22:15Z</time>
      </trkpt>
      <trkpt lat="49.34281" lon="-0.52058">
        <ele>5.4</ele>
        <time>2020-06-17T08:22:16Z</time>
      </trkpt>
      <trkpt lat="49.34283" lon="-0.52043">
        <ele>5.3</ele>
        <time>2020-06-17T08:22:17Z</time>
      </trkpt>
      <trkpt lat="49.34285" lon="-0.52029">
        <ele>5.2</ele>
        <time>2020-06-17T08:22:18Z</time>
      </trkpt>
      <trkpt lat="49.34287" lon="-0.52014">
        <ele>5.2</ele>
        <time>2020-06-17T08:22:19Z</time>
      </trkpt>
      <trkpt lat="49.34289" lon="-0.52001">
        <ele>5.2</ele>
        <time>2020-06-17T08:22:20Z</time>
      </trkpt>
      <trkpt lat="49.34292" lon="-0.51988">
        <ele>5.2</ele>
        <time>2020-06-17T08:22:21Z</time>
      </trkpt>
      <trkpt lat="49.34294" lon="-0.51977">
        <ele>5.2</ele>
        <time>2020-06-17T08:22:22Z</time>
      </trkpt>
      <trkpt lat="49.34297" lon="-0.51964">
        <ele>5.1</ele>
        <time>2020-06-17T08:22:23Z</time>
      </trkpt>
      <trkpt lat="49.34301" lon="-0.5195">
        <ele>5</ele>
        <time>2020-06-17T08:22:24Z</time>
      </trkpt>
      <trkpt lat="49.34305" lon="-0.51938">
        <ele>5</ele>
        <time>2020-06-17T08:22:25Z</time>
      </trkpt>
      <trkpt lat="49.34308" lon="-0.51925">
        <ele>4.9</ele>
        <time>2020-06-17T08:22:26Z</time>
      </trkpt>
      <trkpt lat="49.3431" lon="-0.51913">
        <ele>4.8</ele>
        <time>2020-06-17T08:22:27Z</time>
      </trkpt>
      <trkpt lat="49.34312" lon="-0.51901">
        <ele>4.8</ele>
        <time>2020-06-17T08:22:28Z</time>
      </trkpt>
      <trkpt lat="49.34314" lon="-0.51887">
        <ele>4.7</ele>
        <time>2020-06-17T08:22:29Z</time>
      </trkpt>
      <trkpt lat="49.34316" lon="-0.51875">
        <ele>4.7</ele>
        <time>2020-06-17T08:22:30Z</time>
      </trkpt>
      <trkpt lat="49.34318" lon="-0.51862">
        <ele>4.6</ele>
        <time>2020-06-17T08:22:31Z</time>
      </trkpt>
      <trkpt lat="49.3432" lon="-0.51851">
        <ele>4.6</ele>
        <time>2020-06-17T08:22:32Z</time>
      </trkpt>
      <trkpt lat="49.34322" lon="-0.51838">
        <ele>4.5</ele>
        <time>2020-06-17T08:22:33Z</time>
      </trkpt>
      <trkpt lat="49.34324" lon="-0.51823">
        <ele>4.4</ele>
        <time>2020-06-17T08:22:34Z</time>
      </trkpt>
      <trkpt lat="49.34327" lon="-0.51809">
        <ele>4.4</ele>
        <time>2020-06-17T08:22:35Z</time>
      </trkpt>
      <trkpt lat="49.34331" lon="-0.51796">
        <ele>4.3</ele>
        <time>2020-06-17T08:22:36Z</time>
      </trkpt>
      <trkpt lat="49.34333" lon="-0.51784">
        <ele>4.2</ele>
        <time>2020-06-17T08:22:37Z</time>
      </trkpt>
      <trkpt lat="49.34336" lon="-0.51772">
        <ele>4.2</ele>
        <time>2020-06-17T08:22:38Z</time>
      </trkpt>
      <trkpt lat="49.34339" lon="-0.51759">
        <ele>4.1</ele>
        <time>2020-06-17T08:22:39Z</time>
      </trkpt>
      <trkpt lat="49.34341" lon="-0.51745">
        <ele>4.1</ele>
        <time>2020-06-17T08:22:40Z</time>
      </trkpt>
      <trkpt lat="49.34342" lon="-0.51733">
        <ele>4.1</ele>
        <time>2020-06-17T08:22:41Z</time>
      </trkpt>
      <trkpt lat="49.34342" lon="-0.5172">
        <ele>4.2</ele>
        <time>2020-06-17T08:22:42Z</time>
      </trkpt>
      <trkpt lat="49.34343" lon="-0.51706">
        <ele>4.2</ele>
        <time>2020-06-17T08:22:43Z</time>
      </trkpt>
      <trkpt lat="49.34343" lon="-0.51693">
        <ele>4.3</ele>
        <time>2020-06-17T08:22:44Z</time>
      </trkpt>
      <trkpt lat="49.34344" lon="-0.5168">
        <ele>4.3</ele>
        <time>2020-06-17T08:22:45Z</time>
      </trkpt>
      <trkpt lat="49.34345" lon="-0.51667">
        <ele>4.3</ele>
        <time>2020-06-17T08:22:46Z</time>
      </trkpt>
      <trkpt lat="49.34345" lon="-0.51654">
        <ele>4.4</ele>
        <time>2020-06-17T08:22:47Z</time>
      </trkpt>
      <trkpt lat="49.34346" lon="-0.51642">
        <ele>4.4</ele>
        <time>2020-06-17T08:22:48Z</time>
      </trkpt>
      <trkpt lat="49.34345" lon="-0.51628">
        <ele>4.4</ele>
        <time>2020-06-17T08:22:49Z</time>
      </trkpt>
      <trkpt lat="49.34344" lon="-0.51616">
        <ele>4.4</ele>
        <time>2020-06-17T08:22:50Z</time>
      </trkpt>
      <trkpt lat="49.34344" lon="-0.51604">
        <ele>4.4</ele>
        <time>2020-06-17T08:22:51Z</time>
      </trkpt>
      <trkpt lat="49.34342" lon="-0.51592">
        <ele>4.4</ele>
        <time>2020-06-17T08:22:52Z</time>
      </trkpt>
      <trkpt lat="49.3434" lon="-0.5158">
        <ele>4.4</ele>
        <time>2020-06-17T08:22:53Z</time>
      </trkpt>
      <trkpt lat="49.34338" lon="-0.51567">
        <ele>4.4</ele>
        <time>2020-06-17T08:22:54Z</time>
      </trkpt>
      <trkpt lat="49.34336" lon="-0.51553">
        <ele>4.3</ele>
        <time>2020-06-17T08:22:55Z</time>
      </trkpt>
      <trkpt lat="49.34333" lon="-0.5154">
        <ele>4.2</ele>
        <time>2020-06-17T08:22:56Z</time>
      </trkpt>
      <trkpt lat="49.34331" lon="-0.51527">
        <ele>4.1</ele>
        <time>2020-06-17T08:22:57Z</time>
      </trkpt>
      <trkpt lat="49.34329" lon="-0.51515">
        <ele>4</ele>
        <time>2020-06-17T08:22:58Z</time>
      </trkpt>
      <trkpt lat="49.34327" lon="-0.51502">
        <ele>3.9</ele>
        <time>2020-06-17T08:22:59Z</time>
      </trkpt>
      <trkpt lat="49.34326" lon="-0.5149">
        <ele>3.8</ele>
        <time>2020-06-17T08:23:00Z</time>
      </trkpt>
      <trkpt lat="49.34324" lon="-0.51475">
        <ele>3.8</ele>
        <time>2020-06-17T08:23:01Z</time>
      </trkpt>
      <trkpt lat="49.34323" lon="-0.51462">
        <ele>3.7</ele>
        <time>2020-06-17T08:23:02Z</time>
      </trkpt>
      <trkpt lat="49.34322" lon="-0.51449">
        <ele>3.7</ele>
        <time>2020-06-17T08:23:03Z</time>
      </trkpt>
      <trkpt lat="49.34321" lon="-0.51435">
        <ele>3.7</ele>
        <time>2020-06-17T08:23:04Z</time>
      </trkpt>
      <trkpt lat="49.3432" lon="-0.51423">
        <ele>3.6</ele>
        <time>2020-06-17T08:23:05Z</time>
      </trkpt>
      <trkpt lat="49.34318" lon="-0.51409">
        <ele>3.6</ele>
        <time>2020-06-17T08:23:06Z</time>
      </trkpt>
      <trkpt lat="49.34318" lon="-0.51397">
        <ele>3.5</ele>
        <time>2020-06-17T08:23:07Z</time>
      </trkpt>
      <trkpt lat="49.34317" lon="-0.51384">
        <ele>3.5</ele>
        <time>2020-06-17T08:23:08Z</time>
      </trkpt>
      <trkpt lat="49.34316" lon="-0.51372">
        <ele>3.5</ele>
        <time>2020-06-17T08:23:09Z</time>
      </trkpt>
      <trkpt lat="49.34315" lon="-0.5136">
        <ele>3.5</ele>
        <time>2020-06-17T08:23:10Z</time>
      </trkpt>
      <trkpt lat="49.34314" lon="-0.51348">
        <ele>3.5</ele>
        <time>2020-06-17T08:23:11Z</time>
      </trkpt>
      <trkpt lat="49.34313" lon="-0.51335">
        <ele>3.5</ele>
        <time>2020-06-17T08:23:12Z</time>
      </trkpt>
      <trkpt lat="49.34311" lon="-0.51323">
        <ele>3.5</ele>
        <time>2020-06-17T08:23:13Z</time>
      </trkpt>
      <trkpt lat="49.3431" lon="-0.5131">
        <ele>3.5</ele>
        <time>2020-06-17T08:23:14Z</time>
      </trkpt>
      <trkpt lat="49.34308" lon="-0.51299">
        <ele>3.5</ele>
        <time>2020-06-17T08:23:15Z</time>
      </trkpt>
      <trkpt lat="49.34307" lon="-0.51286">
        <ele>3.4</ele>
        <time>2020-06-17T08:23:16Z</time>
      </trkpt>
      <trkpt lat="49.34306" lon="-0.51274">
        <ele>3.4</ele>
        <time>2020-06-17T08:23:17Z</time>
      </trkpt>
      <trkpt lat="49.34304" lon="-0.51261">
        <ele>3.4</ele>
        <time>2020-06-17T08:23:18Z</time>
      </trkpt>
      <trkpt lat="49.34303" lon="-0.51248">
        <ele>3.4</ele>
        <time>2020-06-17T08:23:19Z</time>
      </trkpt>
      <trkpt lat="49.34302" lon="-0.51236">
        <ele>3.4</ele>
        <time>2020-06-17T08:23:20Z</time>
      </trkpt>
      <trkpt lat="49.343" lon="-0.51225">
        <ele>3.4</ele>
        <time>2020-06-17T08:23:21Z</time>
      </trkpt>
      <trkpt lat="49.34299" lon="-0.51213">
        <ele>3.4</ele>
        <time>2020-06-17T08:23:22Z</time>
      </trkpt>
      <trkpt lat="49.34297" lon="-0.512">
        <ele>3.4</ele>
        <time>2020-06-17T08:23:23Z</time>
      </trkpt>
      <trkpt lat="49.34295" lon="-0.51188">
        <ele>3.4</ele>
        <time>2020-06-17T08:23:24Z</time>
      </trkpt>
      <trkpt lat="49.34294" lon="-0.51176">
        <ele>3.3</ele>
        <time>2020-06-17T08:23:25Z</time>
      </trkpt>
      <trkpt lat="49.34293" lon="-0.51164">
        <ele>3.3</ele>
        <time>2020-06-17T08:23:26Z</time>
      </trkpt>
      <trkpt lat="49.34291" lon="-0.51153">
        <ele>3.3</ele>
        <time>2020-06-17T08:23:27Z</time>
      </trkpt>
      <trkpt lat="49.34289" lon="-0.5114">
        <ele>3.3</ele>
        <time>2020-06-17T08:23:28Z</time>
      </trkpt>
      <trkpt lat="49.34288" lon="-0.51127">
        <ele>3.3</ele>
        <time>2020-06-17T08:23:29Z</time>
      </trkpt>
      <trkpt lat="49.34287" lon="-0.51114">
        <ele>3.3</ele>
        <time>2020-06-17T08:23:30Z</time>
      </trkpt>
      <trkpt lat="49.34285" lon="-0.51101">
        <ele>3.3</ele>
        <time>2020-06-17T08:23:31Z</time>
      </trkpt>
      <trkpt lat="49.34283" lon="-0.51084">
        <ele>3.3</ele>
        <time>2020-06-17T08:23:32Z</time>
      </trkpt>
      <trkpt lat="49.34281" lon="-0.51067">
        <ele>3.3</ele>
        <time>2020-06-17T08:23:33Z</time>
      </trkpt>
      <trkpt lat="49.3428" lon="-0.51049">
        <ele>3.3</ele>
        <time>2020-06-17T08:23:34Z</time>
      </trkpt>
      <trkpt lat="49.34278" lon="-0.51034">
        <ele>3.3</ele>
        <time>2020-06-17T08:23:35Z</time>
      </trkpt>
      <trkpt lat="49.34277" lon="-0.5102">
        <ele>3.3</ele>
        <time>2020-06-17T08:23:36Z</time>
      </trkpt>
      <trkpt lat="49.34275" lon="-0.51005">
        <ele>3.4</ele>
        <time>2020-06-17T08:23:37Z</time>
      </trkpt>
      <trkpt lat="49.34274" lon="-0.50991">
        <ele>3.4</ele>
        <time>2020-06-17T08:23:38Z</time>
      </trkpt>
      <trkpt lat="49.34273" lon="-0.50977">
        <ele>3.4</ele>
        <time>2020-06-17T08:23:39Z</time>
      </trkpt>
      <trkpt lat="49.34273" lon="-0.5096">
        <ele>3.5</ele>
        <time>2020-06-17T08:23:40Z</time>
      </trkpt>
      <trkpt lat="49.34271" lon="-0.5095">
        <ele>3.5</ele>
        <time>2020-06-17T08:23:41Z</time>
      </trkpt>
      <trkpt lat="49.3427" lon="-0.50937">
        <ele>3.5</ele>
        <time>2020-06-17T08:23:42Z</time>
      </trkpt>
      <trkpt lat="49.3427" lon="-0.50922">
        <ele>3.6</ele>
        <time>2020-06-17T08:23:43Z</time>
      </trkpt>
      <trkpt lat="49.3427" lon="-0.50906">
        <ele>3.6</ele>
        <time>2020-06-17T08:23:44Z</time>
      </trkpt>
      <trkpt lat="49.34269" lon="-0.5089">
        <ele>3.6</ele>
        <time>2020-06-17T08:23:45Z</time>
      </trkpt>
      <trkpt lat="49.34268" lon="-0.50875">
        <ele>3.5</ele>
        <time>2020-06-17T08:23:46Z</time>
      </trkpt>
      <trkpt lat="49.34267" lon="-0.50861">
        <ele>3.5</ele>
        <time>2020-06-17T08:23:47Z</time>
      </trkpt>
      <trkpt lat="49.34266" lon="-0.50849">
        <ele>3.4</ele>
        <time>2020-06-17T08:23:48Z</time>
      </trkpt>
      <trkpt lat="49.34266" lon="-0.50838">
        <ele>3.4</ele>
        <time>2020-06-17T08:23:49Z</time>
      </trkpt>
      <trkpt lat="49.34265" lon="-0.50827">
        <ele>3.4</ele>
        <time>2020-06-17T08:23:50Z</time>
      </trkpt>
      <trkpt lat="49.34266" lon="-0.50817">
        <ele>3.4</ele>
        <time>2020-06-17T08:23:51Z</time>
      </trkpt>
      <trkpt lat="49.34265" lon="-0.50809">
        <ele>3.4</ele>
        <time>2020-06-17T08:23:52Z</time>
      </trkpt>
      <trkpt lat="49.34264" lon="-0.50798">
        <ele>3.4</ele>
        <time>2020-06-17T08:23:53Z</time>
      </trkpt>
      <trkpt lat="49.34263" lon="-0.50787">
        <ele>3.4</ele>
        <time>2020-06-17T08:23:54Z</time>
      </trkpt>
      <trkpt lat="49.34261" lon="-0.50778">
        <ele>3.4</ele>
        <time>2020-06-17T08:23:55Z</time>
      </trkpt>
      <trkpt lat="49.34261" lon="-0.50769">
        <ele>3.4</ele>
        <time>2020-06-17T08:23:56Z</time>
      </trkpt>
      <trkpt lat="49.34261" lon="-0.50762">
        <ele>3.5</ele>
        <time>2020-06-17T08:23:57Z</time>
      </trkpt>
      <trkpt lat="49.3426" lon="-0.50753">
        <ele>3.5</ele>
        <time>2020-06-17T08:23:58Z</time>
      </trkpt>
      <trkpt lat="49.3426" lon="-0.50745">
        <ele>3.5</ele>
        <time>2020-06-17T08:23:59Z</time>
      </trkpt>
      <trkpt lat="49.34259" lon="-0.50738">
        <ele>3.5</ele>
        <time>2020-06-17T08:24:00Z</time>
      </trkpt>
      <trkpt lat="49.34259" lon="-0.50729">
        <ele>3.5</ele>
        <time>2020-06-17T08:24:01Z</time>
      </trkpt>
      <trkpt lat="49.34259" lon="-0.50721">
        <ele>3.5</ele>
        <time>2020-06-17T08:24:02Z</time>
      </trkpt>
      <trkpt lat="49.34259" lon="-0.50714">
        <ele>3.5</ele>
        <time>2020-06-17T08:24:03Z</time>
      </trkpt>
      <trkpt lat="49.34258" lon="-0.50707">
        <ele>3.4</ele>
        <time>2020-06-17T08:24:04Z</time>
      </trkpt>
      <trkpt lat="49.34258" lon="-0.50699">
        <ele>3.3</ele>
        <time>2020-06-17T08:24:05Z</time>
      </trkpt>
      <trkpt lat="49.34257" lon="-0.50692">
        <ele>3.3</ele>
        <time>2020-06-17T08:24:06Z</time>
      </trkpt>
      <trkpt lat="49.34256" lon="-0.50685">
        <ele>3.2</ele>
        <time>2020-06-17T08:24:07Z</time>
      </trkpt>
      <trkpt lat="49.34255" lon="-0.50677">
        <ele>3.2</ele>
        <time>2020-06-17T08:24:08Z</time>
      </trkpt>
      <trkpt lat="49.34254" lon="-0.5067">
        <ele>3.1</ele>
        <time>2020-06-17T08:24:09Z</time>
      </trkpt>
      <trkpt lat="49.34253" lon="-0.50664">
        <ele>3.1</ele>
        <time>2020-06-17T08:24:10Z</time>
      </trkpt>
      <trkpt lat="49.34252" lon="-0.50657">
        <ele>3.1</ele>
        <time>2020-06-17T08:24:11Z</time>
      </trkpt>
      <trkpt lat="49.34252" lon="-0.5065">
        <ele>3</ele>
        <time>2020-06-17T08:24:12Z</time>
      </trkpt>
      <trkpt lat="49.34252" lon="-0.50644">
        <ele>3</ele>
        <time>2020-06-17T08:24:13Z</time>
      </trkpt>
      <trkpt lat="49.34252" lon="-0.50639">
        <ele>3</ele>
        <time>2020-06-17T08:24:14Z</time>
      </trkpt>
      <trkpt lat="49.3425" lon="-0.50633">
        <ele>2.9</ele>
        <time>2020-06-17T08:24:15Z</time>
      </trkpt>
      <trkpt lat="49.3425" lon="-0.50628">
        <ele>2.9</ele>
        <time>2020-06-17T08:24:16Z</time>
      </trkpt>
      <trkpt lat="49.34248" lon="-0.50623">
        <ele>2.9</ele>
        <time>2020-06-17T08:24:17Z</time>
      </trkpt>
      <trkpt lat="49.34245" lon="-0.50621">
        <ele>2.8</ele>
        <time>2020-06-17T08:24:18Z</time>
      </trkpt>
      <trkpt lat="49.34244" lon="-0.50619">
        <ele>2.8</ele>
        <time>2020-06-17T08:24:19Z</time>
      </trkpt>
      <trkpt lat="49.34244" lon="-0.50617">
        <ele>2.8</ele>
        <time>2020-06-17T08:24:20Z</time>
      </trkpt>
      <trkpt lat="49.34245" lon="-0.50616">
        <ele>2.8</ele>
        <time>2020-06-17T08:24:21Z</time>
      </trkpt>
      <trkpt lat="49.34245" lon="-0.50614">
        <ele>2.8</ele>
        <time>2020-06-17T08:24:22Z</time>
      </trkpt>
      <trkpt lat="49.34245" lon="-0.50614">
        <ele>2.8</ele>
        <time>2020-06-17T08:24:23Z</time>
      </trkpt>
      <trkpt lat="49.34244" lon="-0.50612">
        <ele>2.8</ele>
        <time>2020-06-17T08:24:24Z</time>
      </trkpt>
      <trkpt lat="49.34244" lon="-0.50611">
        <ele>2.8</ele>
        <time>2020-06-17T08:24:25Z</time>
      </trkpt>
      <trkpt lat="49.34244" lon="-0.50611">
        <ele>2.8</ele>
        <time>2020-06-17T08:24:26Z</time>
      </trkpt>
      <trkpt lat="49.34244" lon="-0.50611">
        <ele>2.8</ele>
        <time>2020-06-17T08:24:27Z</time>
      </trkpt>
      <trkpt lat="49.34244" lon="-0.50611">
        <ele>2.8</ele>
        <time>2020-06-17T08:24:28Z</time>
      </trkpt>
      <trkpt lat="49.34244" lon="-0.5061">
        <ele>2.8</ele>
        <time>2020-06-17T08:24:29Z</time>
      </trkpt>
      <trkpt lat="49.34244" lon="-0.5061">
        <ele>2.8</ele>
        <time>2020-06-17T08:24:30Z</time>
      </trkpt>
      <trkpt lat="49.34244" lon="-0.50606">
        <ele>2.8</ele>
        <time>2020-06-17T08:24:31Z</time>
      </trkpt>
      <trkpt lat="49.34244" lon="-0.50607">
        <ele>2.8</ele>
        <time>2020-06-17T08:24:32Z</time>
      </trkpt>
      <trkpt lat="49.34245" lon="-0.50607">
        <ele>2.8</ele>
        <time>2020-06-17T08:24:33Z</time>
      </trkpt>
      <trkpt lat="49.34245" lon="-0.50607">
        <ele>2.8</ele>
        <time>2020-06-17T08:24:34Z</time>
      </trkpt>
      <trkpt lat="49.34245" lon="-0.50607">
        <ele>2.8</ele>
        <time>2020-06-17T08:24:35Z</time>
      </trkpt>
      <trkpt lat="49.34246" lon="-0.50607">
        <ele>2.8</ele>
        <time>2020-06-17T08:24:36Z</time>
      </trkpt>
      <trkpt lat="49.34246" lon="-0.50607">
        <ele>2.8</ele>
        <time>2020-06-17T08:24:37Z</time>
      </trkpt>
      <trkpt lat="49.34245" lon="-0.50607">
        <ele>2.8</ele>
        <time>2020-06-17T08:24:38Z</time>
      </trkpt>
      <trkpt lat="49.34246" lon="-0.50607">
        <ele>2.8</ele>
        <time>2020-06-17T08:24:39Z</time>
      </trkpt>
      <trkpt lat="49.34239" lon="-0.50604">
        <ele>2.7</ele>
        <time>2020-06-17T08:25:55Z</time>
      </trkpt>
      <trkpt lat="49.34239" lon="-0.50602">
        <ele>2.7</ele>
        <time>2020-06-17T08:25:56Z</time>
      </trkpt>
      <trkpt lat="49.34239" lon="-0.506">
        <ele>2.7</ele>
        <time>2020-06-17T08:25:57Z</time>
      </trkpt>
      <trkpt lat="49.34239" lon="-0.50598">
        <ele>2.7</ele>
        <time>2020-06-17T08:25:58Z</time>
      </trkpt>
      <trkpt lat="49.34239" lon="-0.50596">
        <ele>2.7</ele>
        <time>2020-06-17T08:25:59Z</time>
      </trkpt>
      <trkpt lat="49.34239" lon="-0.50594">
        <ele>2.7</ele>
        <time>2020-06-17T08:26:00Z</time>
      </trkpt>
      <trkpt lat="49.34241" lon="-0.50591">
        <ele>2.7</ele>
        <time>2020-06-17T08:26:01Z</time>
      </trkpt>
      <trkpt lat="49.34242" lon="-0.50589">
        <ele>2.7</ele>
        <time>2020-06-17T08:26:02Z</time>
      </trkpt>
      <trkpt lat="49.34242" lon="-0.50584">
        <ele>2.8</ele>
        <time>2020-06-17T08:26:03Z</time>
      </trkpt>
      <trkpt lat="49.34242" lon="-0.50581">
        <ele>2.8</ele>
        <time>2020-06-17T08:26:04Z</time>
      </trkpt>
      <trkpt lat="49.34242" lon="-0.50577">
        <ele>2.8</ele>
        <time>2020-06-17T08:26:05Z</time>
      </trkpt>
      <trkpt lat="49.34241" lon="-0.50572">
        <ele>2.8</ele>
        <time>2020-06-17T08:26:06Z</time>
      </trkpt>
      <trkpt lat="49.3424" lon="-0.50567">
        <ele>2.8</ele>
        <time>2020-06-17T08:26:07Z</time>
      </trkpt>
      <trkpt lat="49.3424" lon="-0.50562">
        <ele>2.8</ele>
        <time>2020-06-17T08:26:08Z</time>
      </trkpt>
      <trkpt lat="49.34239" lon="-0.50557">
        <ele>2.8</ele>
        <time>2020-06-17T08:26:09Z</time>
      </trkpt>
      <trkpt lat="49.3424" lon="-0.50551">
        <ele>2.7</ele>
        <time>2020-06-17T08:26:10Z</time>
      </trkpt>
      <trkpt lat="49.34239" lon="-0.50545">
        <ele>2.7</ele>
        <time>2020-06-17T08:26:11Z</time>
      </trkpt>
      <trkpt lat="49.34238" lon="-0.50538">
        <ele>2.7</ele>
        <time>2020-06-17T08:26:12Z</time>
      </trkpt>
      <trkpt lat="49.34236" lon="-0.50532">
        <ele>2.7</ele>
        <time>2020-06-17T08:26:13Z</time>
      </trkpt>
      <trkpt lat="49.34236" lon="-0.50525">
        <ele>2.6</ele>
        <time>2020-06-17T08:26:14Z</time>
      </trkpt>
      <trkpt lat="49.34235" lon="-0.50518">
        <ele>2.6</ele>
        <time>2020-06-17T08:26:15Z</time>
      </trkpt>
      <trkpt lat="49.34235" lon="-0.50511">
        <ele>2.6</ele>
        <time>2020-06-17T08:26:16Z</time>
      </trkpt>
      <trkpt lat="49.34235" lon="-0.50504">
        <ele>2.6</ele>
        <time>2020-06-17T08:26:17Z</time>
      </trkpt>
      <trkpt lat="49.34234" lon="-0.50497">
        <ele>2.6</ele>
        <time>2020-06-17T08:26:18Z</time>
      </trkpt>
      <trkpt lat="49.34235" lon="-0.50489">
        <ele>2.6</ele>
        <time>2020-06-17T08:26:19Z</time>
      </trkpt>
      <trkpt lat="49.34235" lon="-0.5048">
        <ele>2.5</ele>
        <time>2020-06-17T08:26:20Z</time>
      </trkpt>
      <trkpt lat="49.34235" lon="-0.50472">
        <ele>2.5</ele>
        <time>2020-06-17T08:26:21Z</time>
      </trkpt>
      <trkpt lat="49.34235" lon="-0.50463">
        <ele>2.5</ele>
        <time>2020-06-17T08:26:22Z</time>
      </trkpt>
      <trkpt lat="49.34234" lon="-0.50454">
        <ele>2.4</ele>
        <time>2020-06-17T08:26:23Z</time>
      </trkpt>
      <trkpt lat="49.34233" lon="-0.50445">
        <ele>2.4</ele>
        <time>2020-06-17T08:26:24Z</time>
      </trkpt>
      <trkpt lat="49.34233" lon="-0.50435">
        <ele>2.4</ele>
        <time>2020-06-17T08:26:25Z</time>
      </trkpt>
      <trkpt lat="49.34233" lon="-0.50426">
        <ele>2.3</ele>
        <time>2020-06-17T08:26:26Z</time>
      </trkpt>
      <trkpt lat="49.34232" lon="-0.50417">
        <ele>2.3</ele>
        <time>2020-06-17T08:26:27Z</time>
      </trkpt>
      <trkpt lat="49.34232" lon="-0.50407">
        <ele>2.3</ele>
        <time>2020-06-17T08:26:28Z</time>
      </trkpt>
      <trkpt lat="49.34232" lon="-0.50398">
        <ele>2.3</ele>
        <time>2020-06-17T08:26:29Z</time>
      </trkpt>
      <trkpt lat="49.34232" lon="-0.50388">
        <ele>2.3</ele>
        <time>2020-06-17T08:26:30Z</time>
      </trkpt>
      <trkpt lat="49.34231" lon="-0.50378">
        <ele>2.3</ele>
        <time>2020-06-17T08:26:31Z</time>
      </trkpt>
      <trkpt lat="49.3423" lon="-0.50368">
        <ele>2.4</ele>
        <time>2020-06-17T08:26:32Z</time>
      </trkpt>
      <trkpt lat="49.34227" lon="-0.50357">
        <ele>2.4</ele>
        <time>2020-06-17T08:26:33Z</time>
      </trkpt>
      <trkpt lat="49.34226" lon="-0.50346">
        <ele>2.4</ele>
        <time>2020-06-17T08:26:34Z</time>
      </trkpt>
      <trkpt lat="49.34225" lon="-0.50335">
        <ele>2.4</ele>
        <time>2020-06-17T08:26:35Z</time>
      </trkpt>
      <trkpt lat="49.34224" lon="-0.50324">
        <ele>2.4</ele>
        <time>2020-06-17T08:26:36Z</time>
      </trkpt>
      <trkpt lat="49.34223" lon="-0.50313">
        <ele>2.3</ele>
        <time>2020-06-17T08:26:37Z</time>
      </trkpt>
      <trkpt lat="49.34223" lon="-0.50302">
        <ele>2.3</ele>
        <time>2020-06-17T08:26:38Z</time>
      </trkpt>
      <trkpt lat="49.34223" lon="-0.5029">
        <ele>2.3</ele>
        <time>2020-06-17T08:26:39Z</time>
      </trkpt>
      <trkpt lat="49.34223" lon="-0.50278">
        <ele>2.3</ele>
        <time>2020-06-17T08:26:40Z</time>
      </trkpt>
      <trkpt lat="49.34221" lon="-0.50266">
        <ele>2.3</ele>
        <time>2020-06-17T08:26:41Z</time>
      </trkpt>
      <trkpt lat="49.34219" lon="-0.50253">
        <ele>2.3</ele>
        <time>2020-06-17T08:26:42Z</time>
      </trkpt>
      <trkpt lat="49.34217" lon="-0.50239">
        <ele>2.3</ele>
        <time>2020-06-17T08:26:43Z</time>
      </trkpt>
      <trkpt lat="49.34215" lon="-0.50226">
        <ele>2.2</ele>
        <time>2020-06-17T08:26:44Z</time>
      </trkpt>
      <trkpt lat="49.34214" lon="-0.50214">
        <ele>2.2</ele>
        <time>2020-06-17T08:26:45Z</time>
      </trkpt>
      <trkpt lat="49.34213" lon="-0.50202">
        <ele>2.2</ele>
        <time>2020-06-17T08:26:46Z</time>
      </trkpt>
      <trkpt lat="49.34212" lon="-0.5019">
        <ele>2.2</ele>
        <time>2020-06-17T08:26:47Z</time>
      </trkpt>
      <trkpt lat="49.34211" lon="-0.50179">
        <ele>2.1</ele>
        <time>2020-06-17T08:26:48Z</time>
      </trkpt>
      <trkpt lat="49.34209" lon="-0.50168">
        <ele>2.1</ele>
        <time>2020-06-17T08:26:49Z</time>
      </trkpt>
      <trkpt lat="49.34208" lon="-0.50157">
        <ele>2.1</ele>
        <time>2020-06-17T08:26:50Z</time>
      </trkpt>
      <trkpt lat="49.34208" lon="-0.50147">
        <ele>2</ele>
        <time>2020-06-17T08:26:51Z</time>
      </trkpt>
      <trkpt lat="49.34207" lon="-0.50138">
        <ele>2</ele>
        <time>2020-06-17T08:26:52Z</time>
      </trkpt>
      <trkpt lat="49.34205" lon="-0.50127">
        <ele>2</ele>
        <time>2020-06-17T08:26:53Z</time>
      </trkpt>
      <trkpt lat="49.34203" lon="-0.50117">
        <ele>2</ele>
        <time>2020-06-17T08:26:54Z</time>
      </trkpt>
      <trkpt lat="49.34201" lon="-0.50107">
        <ele>2</ele>
        <time>2020-06-17T08:26:55Z</time>
      </trkpt>
      <trkpt lat="49.342" lon="-0.50096">
        <ele>2</ele>
        <time>2020-06-17T08:26:56Z</time>
      </trkpt>
      <trkpt lat="49.342" lon="-0.50085">
        <ele>2</ele>
        <time>2020-06-17T08:26:57Z</time>
      </trkpt>
      <trkpt lat="49.34199" lon="-0.50075">
        <ele>1.9</ele>
        <time>2020-06-17T08:26:58Z</time>
      </trkpt>
      <trkpt lat="49.34197" lon="-0.50065">
        <ele>1.9</ele>
        <time>2020-06-17T08:26:59Z</time>
      </trkpt>
      <trkpt lat="49.34196" lon="-0.50055">
        <ele>1.9</ele>
        <time>2020-06-17T08:27:00Z</time>
      </trkpt>
      <trkpt lat="49.34195" lon="-0.50046">
        <ele>1.9</ele>
        <time>2020-06-17T08:27:01Z</time>
      </trkpt>
      <trkpt lat="49.34193" lon="-0.50037">
        <ele>1.9</ele>
        <time>2020-06-17T08:27:02Z</time>
      </trkpt>
      <trkpt lat="49.34192" lon="-0.50027">
        <ele>1.9</ele>
        <time>2020-06-17T08:27:03Z</time>
      </trkpt>
      <trkpt lat="49.3419" lon="-0.50018">
        <ele>1.9</ele>
        <time>2020-06-17T08:27:04Z</time>
      </trkpt>
      <trkpt lat="49.34189" lon="-0.50009">
        <ele>1.9</ele>
        <time>2020-06-17T08:27:05Z</time>
      </trkpt>
      <trkpt lat="49.34187" lon="-0.50001">
        <ele>1.9</ele>
        <time>2020-06-17T08:27:06Z</time>
      </trkpt>
      <trkpt lat="49.34186" lon="-0.49991">
        <ele>1.9</ele>
        <time>2020-06-17T08:27:07Z</time>
      </trkpt>
      <trkpt lat="49.34184" lon="-0.49982">
        <ele>1.9</ele>
        <time>2020-06-17T08:27:08Z</time>
      </trkpt>
      <trkpt lat="49.34182" lon="-0.49971">
        <ele>1.9</ele>
        <time>2020-06-17T08:27:09Z</time>
      </trkpt>
      <trkpt lat="49.34181" lon="-0.49961">
        <ele>1.9</ele>
        <time>2020-06-17T08:27:10Z</time>
      </trkpt>
      <trkpt lat="49.34179" lon="-0.49953">
        <ele>1.9</ele>
        <time>2020-06-17T08:27:11Z</time>
      </trkpt>
      <trkpt lat="49.34177" lon="-0.49942">
        <ele>1.9</ele>
        <time>2020-06-17T08:27:12Z</time>
      </trkpt>
      <trkpt lat="49.34175" lon="-0.49931">
        <ele>1.9</ele>
        <time>2020-06-17T08:27:13Z</time>
      </trkpt>
      <trkpt lat="49.34174" lon="-0.49921">
        <ele>1.8</ele>
        <time>2020-06-17T08:27:14Z</time>
      </trkpt>
      <trkpt lat="49.34173" lon="-0.49912">
        <ele>1.8</ele>
        <time>2020-06-17T08:27:15Z</time>
      </trkpt>
      <trkpt lat="49.34172" lon="-0.49902">
        <ele>1.8</ele>
        <time>2020-06-17T08:27:16Z</time>
      </trkpt>
      <trkpt lat="49.3417" lon="-0.49892">
        <ele>1.8</ele>
        <time>2020-06-17T08:27:17Z</time>
      </trkpt>
      <trkpt lat="49.34169" lon="-0.49882">
        <ele>1.8</ele>
        <time>2020-06-17T08:27:18Z</time>
      </trkpt>
      <trkpt lat="49.34167" lon="-0.49871">
        <ele>1.8</ele>
        <time>2020-06-17T08:27:19Z</time>
      </trkpt>
      <trkpt lat="49.34167" lon="-0.49861">
        <ele>1.8</ele>
        <time>2020-06-17T08:27:20Z</time>
      </trkpt>
      <trkpt lat="49.34166" lon="-0.49851">
        <ele>1.8</ele>
        <time>2020-06-17T08:27:21Z</time>
      </trkpt>
      <trkpt lat="49.34164" lon="-0.49841">
        <ele>1.8</ele>
        <time>2020-06-17T08:27:22Z</time>
      </trkpt>
      <trkpt lat="49.34163" lon="-0.49831">
        <ele>1.8</ele>
        <time>2020-06-17T08:27:23Z</time>
      </trkpt>
      <trkpt lat="49.34161" lon="-0.49821">
        <ele>1.8</ele>
        <time>2020-06-17T08:27:24Z</time>
      </trkpt>
      <trkpt lat="49.34159" lon="-0.49811">
        <ele>1.7</ele>
        <time>2020-06-17T08:27:25Z</time>
      </trkpt>
      <trkpt lat="49.34158" lon="-0.49802">
        <ele>1.7</ele>
        <time>2020-06-17T08:27:26Z</time>
      </trkpt>
      <trkpt lat="49.34157" lon="-0.49793">
        <ele>1.7</ele>
        <time>2020-06-17T08:27:27Z</time>
      </trkpt>
      <trkpt lat="49.34155" lon="-0.49783">
        <ele>1.7</ele>
        <time>2020-06-17T08:27:28Z</time>
      </trkpt>
      <trkpt lat="49.34153" lon="-0.49773">
        <ele>1.7</ele>
        <time>2020-06-17T08:27:29Z</time>
      </trkpt>
      <trkpt lat="49.34151" lon="-0.49764">
        <ele>1.7</ele>
        <time>2020-06-17T08:27:30Z</time>
      </trkpt>
      <trkpt lat="49.34149" lon="-0.49755">
        <ele>1.8</ele>
        <time>2020-06-17T08:27:31Z</time>
      </trkpt>
      <trkpt lat="49.34148" lon="-0.49744">
        <ele>1.8</ele>
        <time>2020-06-17T08:27:32Z</time>
      </trkpt>
      <trkpt lat="49.34146" lon="-0.49734">
        <ele>1.8</ele>
        <time>2020-06-17T08:27:33Z</time>
      </trkpt>
      <trkpt lat="49.34145" lon="-0.49724">
        <ele>1.8</ele>
        <time>2020-06-17T08:27:34Z</time>
      </trkpt>
      <trkpt lat="49.34144" lon="-0.49714">
        <ele>1.8</ele>
        <time>2020-06-17T08:27:35Z</time>
      </trkpt>
      <trkpt lat="49.34143" lon="-0.49703">
        <ele>1.8</ele>
        <time>2020-06-17T08:27:36Z</time>
      </trkpt>
      <trkpt lat="49.34141" lon="-0.49693">
        <ele>1.8</ele>
        <time>2020-06-17T08:27:37Z</time>
      </trkpt>
      <trkpt lat="49.34139" lon="-0.49681">
        <ele>1.7</ele>
        <time>2020-06-17T08:27:38Z</time>
      </trkpt>
      <trkpt lat="49.34136" lon="-0.49671">
        <ele>1.7</ele>
        <time>2020-06-17T08:27:39Z</time>
      </trkpt>
      <trkpt lat="49.34133" lon="-0.49661">
        <ele>1.7</ele>
        <time>2020-06-17T08:27:40Z</time>
      </trkpt>
      <trkpt lat="49.34131" lon="-0.49651">
        <ele>1.7</ele>
        <time>2020-06-17T08:27:41Z</time>
      </trkpt>
      <trkpt lat="49.3413" lon="-0.4964">
        <ele>1.7</ele>
        <time>2020-06-17T08:27:42Z</time>
      </trkpt>
      <trkpt lat="49.34128" lon="-0.49629">
        <ele>1.7</ele>
        <time>2020-06-17T08:27:43Z</time>
      </trkpt>
      <trkpt lat="49.34126" lon="-0.49617">
        <ele>1.7</ele>
        <time>2020-06-17T08:27:44Z</time>
      </trkpt>
      <trkpt lat="49.34125" lon="-0.49607">
        <ele>1.7</ele>
        <time>2020-06-17T08:27:45Z</time>
      </trkpt>
      <trkpt lat="49.34125" lon="-0.49598">
        <ele>1.7</ele>
        <time>2020-06-17T08:27:46Z</time>
      </trkpt>
      <trkpt lat="49.34124" lon="-0.49588">
        <ele>1.7</ele>
        <time>2020-06-17T08:27:47Z</time>
      </trkpt>
      <trkpt lat="49.34123" lon="-0.49578">
        <ele>1.7</ele>
        <time>2020-06-17T08:27:48Z</time>
      </trkpt>
      <trkpt lat="49.34122" lon="-0.4957">
        <ele>1.7</ele>
        <time>2020-06-17T08:27:49Z</time>
      </trkpt>
      <trkpt lat="49.3412" lon="-0.49558">
        <ele>1.7</ele>
        <time>2020-06-17T08:27:50Z</time>
      </trkpt>
      <trkpt lat="49.34118" lon="-0.49547">
        <ele>1.8</ele>
        <time>2020-06-17T08:27:51Z</time>
      </trkpt>
      <trkpt lat="49.34117" lon="-0.49538">
        <ele>1.9</ele>
        <time>2020-06-17T08:27:52Z</time>
      </trkpt>
      <trkpt lat="49.34116" lon="-0.49529">
        <ele>1.9</ele>
        <time>2020-06-17T08:27:53Z</time>
      </trkpt>
      <trkpt lat="49.34114" lon="-0.4952">
        <ele>2</ele>
        <time>2020-06-17T08:27:54Z</time>
      </trkpt>
      <trkpt lat="49.34113" lon="-0.4951">
        <ele>2.1</ele>
        <time>2020-06-17T08:27:55Z</time>
      </trkpt>
      <trkpt lat="49.34112" lon="-0.49499">
        <ele>2.2</ele>
        <time>2020-06-17T08:27:56Z</time>
      </trkpt>
      <trkpt lat="49.3411" lon="-0.49489">
        <ele>2.2</ele>
        <time>2020-06-17T08:27:57Z</time>
      </trkpt>
      <trkpt lat="49.34109" lon="-0.49479">
        <ele>2.2</ele>
        <time>2020-06-17T08:27:58Z</time>
      </trkpt>
      <trkpt lat="49.34107" lon="-0.49469">
        <ele>2.2</ele>
        <time>2020-06-17T08:27:59Z</time>
      </trkpt>
      <trkpt lat="49.34105" lon="-0.49459">
        <ele>2.2</ele>
        <time>2020-06-17T08:28:00Z</time>
      </trkpt>
      <trkpt lat="49.34103" lon="-0.49449">
        <ele>2.3</ele>
        <time>2020-06-17T08:28:01Z</time>
      </trkpt>
      <trkpt lat="49.34101" lon="-0.49438">
        <ele>2.3</ele>
        <time>2020-06-17T08:28:02Z</time>
      </trkpt>
      <trkpt lat="49.34099" lon="-0.49428">
        <ele>2.3</ele>
        <time>2020-06-17T08:28:03Z</time>
      </trkpt>
      <trkpt lat="49.34098" lon="-0.49418">
        <ele>2.3</ele>
        <time>2020-06-17T08:28:04Z</time>
      </trkpt>
      <trkpt lat="49.34096" lon="-0.49407">
        <ele>2.3</ele>
        <time>2020-06-17T08:28:05Z</time>
      </trkpt>
      <trkpt lat="49.34094" lon="-0.49396">
        <ele>2.3</ele>
        <time>2020-06-17T08:28:06Z</time>
      </trkpt>
      <trkpt lat="49.34092" lon="-0.49385">
        <ele>2.3</ele>
        <time>2020-06-17T08:28:07Z</time>
      </trkpt>
      <trkpt lat="49.3409" lon="-0.49375">
        <ele>2.3</ele>
        <time>2020-06-17T08:28:08Z</time>
      </trkpt>
      <trkpt lat="49.34087" lon="-0.49365">
        <ele>2.3</ele>
        <time>2020-06-17T08:28:09Z</time>
      </trkpt>
      <trkpt lat="49.34085" lon="-0.49356">
        <ele>2.3</ele>
        <time>2020-06-17T08:28:10Z</time>
      </trkpt>
      <trkpt lat="49.34083" lon="-0.49347">
        <ele>2.3</ele>
        <time>2020-06-17T08:28:11Z</time>
      </trkpt>
      <trkpt lat="49.34081" lon="-0.49337">
        <ele>2.3</ele>
        <time>2020-06-17T08:28:12Z</time>
      </trkpt>
      <trkpt lat="49.34079" lon="-0.49326">
        <ele>2.3</ele>
        <time>2020-06-17T08:28:13Z</time>
      </trkpt>
      <trkpt lat="49.34076" lon="-0.49315">
        <ele>2.3</ele>
        <time>2020-06-17T08:28:14Z</time>
      </trkpt>
      <trkpt lat="49.34075" lon="-0.49305">
        <ele>2.2</ele>
        <time>2020-06-17T08:28:15Z</time>
      </trkpt>
      <trkpt lat="49.34072" lon="-0.49295">
        <ele>2.2</ele>
        <time>2020-06-17T08:28:16Z</time>
      </trkpt>
      <trkpt lat="49.3407" lon="-0.49284">
        <ele>2.2</ele>
        <time>2020-06-17T08:28:17Z</time>
      </trkpt>
      <trkpt lat="49.34068" lon="-0.49273">
        <ele>2.2</ele>
        <time>2020-06-17T08:28:18Z</time>
      </trkpt>
      <trkpt lat="49.34066" lon="-0.49262">
        <ele>2.2</ele>
        <time>2020-06-17T08:28:19Z</time>
      </trkpt>
      <trkpt lat="49.34064" lon="-0.49251">
        <ele>2.3</ele>
        <time>2020-06-17T08:28:20Z</time>
      </trkpt>
      <trkpt lat="49.34061" lon="-0.4924">
        <ele>2.3</ele>
        <time>2020-06-17T08:28:21Z</time>
      </trkpt>
      <trkpt lat="49.34058" lon="-0.49228">
        <ele>2.3</ele>
        <time>2020-06-17T08:28:22Z</time>
      </trkpt>
      <trkpt lat="49.34056" lon="-0.49218">
        <ele>2.3</ele>
        <time>2020-06-17T08:28:23Z</time>
      </trkpt>
      <trkpt lat="49.34053" lon="-0.49207">
        <ele>2.3</ele>
        <time>2020-06-17T08:28:24Z</time>
      </trkpt>
      <trkpt lat="49.34052" lon="-0.49196">
        <ele>2.3</ele>
        <time>2020-06-17T08:28:25Z</time>
      </trkpt>
      <trkpt lat="49.3405" lon="-0.49184">
        <ele>2.3</ele>
        <time>2020-06-17T08:28:26Z</time>
      </trkpt>
      <trkpt lat="49.34048" lon="-0.49172">
        <ele>2.3</ele>
        <time>2020-06-17T08:28:27Z</time>
      </trkpt>
      <trkpt lat="49.34046" lon="-0.4916">
        <ele>2.3</ele>
        <time>2020-06-17T08:28:28Z</time>
      </trkpt>
      <trkpt lat="49.34044" lon="-0.49149">
        <ele>2.3</ele>
        <time>2020-06-17T08:28:29Z</time>
      </trkpt>
      <trkpt lat="49.34042" lon="-0.49138">
        <ele>2.3</ele>
        <time>2020-06-17T08:28:30Z</time>
      </trkpt>
      <trkpt lat="49.3404" lon="-0.49126">
        <ele>2.3</ele>
        <time>2020-06-17T08:28:31Z</time>
      </trkpt>
      <trkpt lat="49.34038" lon="-0.49114">
        <ele>2.4</ele>
        <time>2020-06-17T08:28:32Z</time>
      </trkpt>
      <trkpt lat="49.34036" lon="-0.49102">
        <ele>2.4</ele>
        <time>2020-06-17T08:28:33Z</time>
      </trkpt>
      <trkpt lat="49.34033" lon="-0.49091">
        <ele>2.4</ele>
        <time>2020-06-17T08:28:34Z</time>
      </trkpt>
      <trkpt lat="49.3403" lon="-0.4908">
        <ele>2.3</ele>
        <time>2020-06-17T08:28:35Z</time>
      </trkpt>
      <trkpt lat="49.34028" lon="-0.49068">
        <ele>2.3</ele>
        <time>2020-06-17T08:28:36Z</time>
      </trkpt>
      <trkpt lat="49.34025" lon="-0.49057">
        <ele>2.3</ele>
        <time>2020-06-17T08:28:37Z</time>
      </trkpt>
      <trkpt lat="49.34022" lon="-0.49047">
        <ele>2.2</ele>
        <time>2020-06-17T08:28:38Z</time>
      </trkpt>
      <trkpt lat="49.3402" lon="-0.49036">
        <ele>2.2</ele>
        <time>2020-06-17T08:28:39Z</time>
      </trkpt>
      <trkpt lat="49.34018" lon="-0.49026">
        <ele>2.2</ele>
        <time>2020-06-17T08:28:40Z</time>
      </trkpt>
      <trkpt lat="49.34015" lon="-0.49016">
        <ele>2.2</ele>
        <time>2020-06-17T08:28:41Z</time>
      </trkpt>
      <trkpt lat="49.34013" lon="-0.49005">
        <ele>2.1</ele>
        <time>2020-06-17T08:28:42Z</time>
      </trkpt>
      <trkpt lat="49.3401" lon="-0.48995">
        <ele>2.1</ele>
        <time>2020-06-17T08:28:43Z</time>
      </trkpt>
      <trkpt lat="49.34008" lon="-0.48984">
        <ele>2.1</ele>
        <time>2020-06-17T08:28:44Z</time>
      </trkpt>
      <trkpt lat="49.34005" lon="-0.48973">
        <ele>2.1</ele>
        <time>2020-06-17T08:28:45Z</time>
      </trkpt>
      <trkpt lat="49.34003" lon="-0.48962">
        <ele>2.1</ele>
        <time>2020-06-17T08:28:46Z</time>
      </trkpt>
      <trkpt lat="49.34002" lon="-0.48951">
        <ele>2.1</ele>
        <time>2020-06-17T08:28:47Z</time>
      </trkpt>
      <trkpt lat="49.34001" lon="-0.4894">
        <ele>2.1</ele>
        <time>2020-06-17T08:28:48Z</time>
      </trkpt>
      <trkpt lat="49.33999" lon="-0.48929">
        <ele>2.1</ele>
        <time>2020-06-17T08:28:49Z</time>
      </trkpt>
      <trkpt lat="49.33996" lon="-0.48918">
        <ele>2.1</ele>
        <time>2020-06-17T08:28:50Z</time>
      </trkpt>
      <trkpt lat="49.33994" lon="-0.48907">
        <ele>2.1</ele>
        <time>2020-06-17T08:28:51Z</time>
      </trkpt>
      <trkpt lat="49.33992" lon="-0.48896">
        <ele>2.1</ele>
        <time>2020-06-17T08:28:52Z</time>
      </trkpt>
      <trkpt lat="49.3399" lon="-0.48885">
        <ele>2.1</ele>
        <time>2020-06-17T08:28:53Z</time>
      </trkpt>
      <trkpt lat="49.33987" lon="-0.48873">
        <ele>2.1</ele>
        <time>2020-06-17T08:28:54Z</time>
      </trkpt>
      <trkpt lat="49.33985" lon="-0.48862">
        <ele>2.1</ele>
        <time>2020-06-17T08:28:55Z</time>
      </trkpt>
      <trkpt lat="49.33982" lon="-0.48851">
        <ele>2.1</ele>
        <time>2020-06-17T08:28:56Z</time>
      </trkpt>
      <trkpt lat="49.3398" lon="-0.48841">
        <ele>2.1</ele>
        <time>2020-06-17T08:28:57Z</time>
      </trkpt>
      <trkpt lat="49.33979" lon="-0.48831">
        <ele>2.1</ele>
        <time>2020-06-17T08:28:58Z</time>
      </trkpt>
      <trkpt lat="49.33977" lon="-0.4882">
        <ele>2.2</ele>
        <time>2020-06-17T08:28:59Z</time>
      </trkpt>
      <trkpt lat="49.33975" lon="-0.48808">
        <ele>2.2</ele>
        <time>2020-06-17T08:29:00Z</time>
      </trkpt>
      <trkpt lat="49.33973" lon="-0.48797">
        <ele>2.2</ele>
        <time>2020-06-17T08:29:01Z</time>
      </trkpt>
      <trkpt lat="49.3397" lon="-0.48786">
        <ele>2.2</ele>
        <time>2020-06-17T08:29:02Z</time>
      </trkpt>
      <trkpt lat="49.33969" lon="-0.48776">
        <ele>2.2</ele>
        <time>2020-06-17T08:29:03Z</time>
      </trkpt>
      <trkpt lat="49.33967" lon="-0.48766">
        <ele>2.2</ele>
        <time>2020-06-17T08:29:04Z</time>
      </trkpt>
      <trkpt lat="49.33965" lon="-0.48757">
        <ele>2.3</ele>
        <time>2020-06-17T08:29:05Z</time>
      </trkpt>
      <trkpt lat="49.33964" lon="-0.48748">
        <ele>2.3</ele>
        <time>2020-06-17T08:29:06Z</time>
      </trkpt>
      <trkpt lat="49.33962" lon="-0.48738">
        <ele>2.3</ele>
        <time>2020-06-17T08:29:07Z</time>
      </trkpt>
      <trkpt lat="49.3396" lon="-0.48728">
        <ele>2.3</ele>
        <time>2020-06-17T08:29:08Z</time>
      </trkpt>
      <trkpt lat="49.33958" lon="-0.48718">
        <ele>2.3</ele>
        <time>2020-06-17T08:29:09Z</time>
      </trkpt>
      <trkpt lat="49.33955" lon="-0.48708">
        <ele>2.3</ele>
        <time>2020-06-17T08:29:10Z</time>
      </trkpt>
      <trkpt lat="49.33953" lon="-0.48698">
        <ele>2.3</ele>
        <time>2020-06-17T08:29:11Z</time>
      </trkpt>
      <trkpt lat="49.33951" lon="-0.48688">
        <ele>2.3</ele>
        <time>2020-06-17T08:29:12Z</time>
      </trkpt>
      <trkpt lat="49.33948" lon="-0.48679">
        <ele>2.3</ele>
        <time>2020-06-17T08:29:13Z</time>
      </trkpt>
      <trkpt lat="49.33946" lon="-0.48669">
        <ele>2.3</ele>
        <time>2020-06-17T08:29:14Z</time>
      </trkpt>
      <trkpt lat="49.33944" lon="-0.48659">
        <ele>2.3</ele>
        <time>2020-06-17T08:29:15Z</time>
      </trkpt>
      <trkpt lat="49.33942" lon="-0.48648">
        <ele>2.3</ele>
        <time>2020-06-17T08:29:16Z</time>
      </trkpt>
      <trkpt lat="49.33939" lon="-0.48637">
        <ele>2.4</ele>
        <time>2020-06-17T08:29:17Z</time>
      </trkpt>
      <trkpt lat="49.33936" lon="-0.48626">
        <ele>2.4</ele>
        <time>2020-06-17T08:29:18Z</time>
      </trkpt>
      <trkpt lat="49.33934" lon="-0.48616">
        <ele>2.4</ele>
        <time>2020-06-17T08:29:19Z</time>
      </trkpt>
      <trkpt lat="49.33932" lon="-0.48606">
        <ele>2.3</ele>
        <time>2020-06-17T08:29:20Z</time>
      </trkpt>
      <trkpt lat="49.33929" lon="-0.48595">
        <ele>2.2</ele>
        <time>2020-06-17T08:29:21Z</time>
      </trkpt>
      <trkpt lat="49.33926" lon="-0.48584">
        <ele>2.2</ele>
        <time>2020-06-17T08:29:22Z</time>
      </trkpt>
      <trkpt lat="49.33923" lon="-0.48574">
        <ele>2.2</ele>
        <time>2020-06-17T08:29:23Z</time>
      </trkpt>
      <trkpt lat="49.3392" lon="-0.48563">
        <ele>2.1</ele>
        <time>2020-06-17T08:29:24Z</time>
      </trkpt>
      <trkpt lat="49.33917" lon="-0.48552">
        <ele>2.1</ele>
        <time>2020-06-17T08:29:25Z</time>
      </trkpt>
      <trkpt lat="49.33914" lon="-0.48541">
        <ele>2.1</ele>
        <time>2020-06-17T08:29:26Z</time>
      </trkpt>
      <trkpt lat="49.33911" lon="-0.4853">
        <ele>2</ele>
        <time>2020-06-17T08:29:27Z</time>
      </trkpt>
      <trkpt lat="49.33907" lon="-0.48518">
        <ele>2</ele>
        <time>2020-06-17T08:29:28Z</time>
      </trkpt>
      <trkpt lat="49.33904" lon="-0.48507">
        <ele>2</ele>
        <time>2020-06-17T08:29:29Z</time>
      </trkpt>
      <trkpt lat="49.33902" lon="-0.48498">
        <ele>2</ele>
        <time>2020-06-17T08:29:30Z</time>
      </trkpt>
      <trkpt lat="49.33899" lon="-0.48489">
        <ele>2</ele>
        <time>2020-06-17T08:29:31Z</time>
      </trkpt>
      <trkpt lat="49.33897" lon="-0.48478">
        <ele>2</ele>
        <time>2020-06-17T08:29:32Z</time>
      </trkpt>
      <trkpt lat="49.33894" lon="-0.48468">
        <ele>2</ele>
        <time>2020-06-17T08:29:33Z</time>
      </trkpt>
      <trkpt lat="49.33891" lon="-0.48457">
        <ele>2</ele>
        <time>2020-06-17T08:29:34Z</time>
      </trkpt>
      <trkpt lat="49.33887" lon="-0.48446">
        <ele>1.9</ele>
        <time>2020-06-17T08:29:35Z</time>
      </trkpt>
      <trkpt lat="49.33883" lon="-0.48434">
        <ele>1.9</ele>
        <time>2020-06-17T08:29:36Z</time>
      </trkpt>
      <trkpt lat="49.3388" lon="-0.48423">
        <ele>1.8</ele>
        <time>2020-06-17T08:29:37Z</time>
      </trkpt>
      <trkpt lat="49.33877" lon="-0.48412">
        <ele>1.8</ele>
        <time>2020-06-17T08:29:38Z</time>
      </trkpt>
      <trkpt lat="49.33874" lon="-0.48401">
        <ele>1.7</ele>
        <time>2020-06-17T08:29:39Z</time>
      </trkpt>
      <trkpt lat="49.33871" lon="-0.4839">
        <ele>1.7</ele>
        <time>2020-06-17T08:29:40Z</time>
      </trkpt>
      <trkpt lat="49.33868" lon="-0.48378">
        <ele>1.7</ele>
        <time>2020-06-17T08:29:41Z</time>
      </trkpt>
      <trkpt lat="49.33865" lon="-0.48367">
        <ele>1.8</ele>
        <time>2020-06-17T08:29:42Z</time>
      </trkpt>
      <trkpt lat="49.33862" lon="-0.48355">
        <ele>1.8</ele>
        <time>2020-06-17T08:29:43Z</time>
      </trkpt>
      <trkpt lat="49.33858" lon="-0.48344">
        <ele>1.8</ele>
        <time>2020-06-17T08:29:44Z</time>
      </trkpt>
      <trkpt lat="49.33854" lon="-0.48333">
        <ele>1.8</ele>
        <time>2020-06-17T08:29:45Z</time>
      </trkpt>
      <trkpt lat="49.3385" lon="-0.48321">
        <ele>1.8</ele>
        <time>2020-06-17T08:29:46Z</time>
      </trkpt>
      <trkpt lat="49.33846" lon="-0.48309">
        <ele>1.8</ele>
        <time>2020-06-17T08:29:47Z</time>
      </trkpt>
      <trkpt lat="49.33842" lon="-0.48298">
        <ele>1.8</ele>
        <time>2020-06-17T08:29:48Z</time>
      </trkpt>
      <trkpt lat="49.33838" lon="-0.48288">
        <ele>1.7</ele>
        <time>2020-06-17T08:29:49Z</time>
      </trkpt>
      <trkpt lat="49.33835" lon="-0.48277">
        <ele>1.7</ele>
        <time>2020-06-17T08:29:50Z</time>
      </trkpt>
      <trkpt lat="49.33832" lon="-0.48266">
        <ele>1.8</ele>
        <time>2020-06-17T08:29:51Z</time>
      </trkpt>
      <trkpt lat="49.33829" lon="-0.48255">
        <ele>1.8</ele>
        <time>2020-06-17T08:29:52Z</time>
      </trkpt>
      <trkpt lat="49.33827" lon="-0.48246">
        <ele>1.8</ele>
        <time>2020-06-17T08:29:53Z</time>
      </trkpt>
      <trkpt lat="49.33824" lon="-0.48237">
        <ele>1.8</ele>
        <time>2020-06-17T08:29:54Z</time>
      </trkpt>
      <trkpt lat="49.33821" lon="-0.48228">
        <ele>1.8</ele>
        <time>2020-06-17T08:29:55Z</time>
      </trkpt>
      <trkpt lat="49.33819" lon="-0.48219">
        <ele>1.8</ele>
        <time>2020-06-17T08:29:56Z</time>
      </trkpt>
      <trkpt lat="49.33817" lon="-0.48209">
        <ele>1.8</ele>
        <time>2020-06-17T08:29:57Z</time>
      </trkpt>
      <trkpt lat="49.33814" lon="-0.48198">
        <ele>1.8</ele>
        <time>2020-06-17T08:29:58Z</time>
      </trkpt>
      <trkpt lat="49.33811" lon="-0.48187">
        <ele>1.8</ele>
        <time>2020-06-17T08:29:59Z</time>
      </trkpt>
      <trkpt lat="49.33809" lon="-0.48175">
        <ele>1.7</ele>
        <time>2020-06-17T08:30:00Z</time>
      </trkpt>
      <trkpt lat="49.33806" lon="-0.48164">
        <ele>1.7</ele>
        <time>2020-06-17T08:30:01Z</time>
      </trkpt>
      <trkpt lat="49.33804" lon="-0.48154">
        <ele>1.7</ele>
        <time>2020-06-17T08:30:02Z</time>
      </trkpt>
      <trkpt lat="49.33801" lon="-0.48143">
        <ele>1.7</ele>
        <time>2020-06-17T08:30:03Z</time>
      </trkpt>
      <trkpt lat="49.33798" lon="-0.48133">
        <ele>1.7</ele>
        <time>2020-06-17T08:30:04Z</time>
      </trkpt>
      <trkpt lat="49.33796" lon="-0.48123">
        <ele>1.8</ele>
        <time>2020-06-17T08:30:05Z</time>
      </trkpt>
      <trkpt lat="49.33793" lon="-0.48114">
        <ele>1.8</ele>
        <time>2020-06-17T08:30:06Z</time>
      </trkpt>
      <trkpt lat="49.3379" lon="-0.48104">
        <ele>1.9</ele>
        <time>2020-06-17T08:30:07Z</time>
      </trkpt>
      <trkpt lat="49.33787" lon="-0.48093">
        <ele>2.1</ele>
        <time>2020-06-17T08:30:08Z</time>
      </trkpt>
      <trkpt lat="49.33784" lon="-0.48083">
        <ele>2.1</ele>
        <time>2020-06-17T08:30:09Z</time>
      </trkpt>
      <trkpt lat="49.33781" lon="-0.48073">
        <ele>2.1</ele>
        <time>2020-06-17T08:30:10Z</time>
      </trkpt>
      <trkpt lat="49.33779" lon="-0.48063">
        <ele>2</ele>
        <time>2020-06-17T08:30:11Z</time>
      </trkpt>
      <trkpt lat="49.33776" lon="-0.48053">
        <ele>2</ele>
        <time>2020-06-17T08:30:12Z</time>
      </trkpt>
      <trkpt lat="49.33774" lon="-0.48043">
        <ele>2</ele>
        <time>2020-06-17T08:30:13Z</time>
      </trkpt>
      <trkpt lat="49.33771" lon="-0.48034">
        <ele>2</ele>
        <time>2020-06-17T08:30:14Z</time>
      </trkpt>
      <trkpt lat="49.33769" lon="-0.48024">
        <ele>1.9</ele>
        <time>2020-06-17T08:30:15Z</time>
      </trkpt>
      <trkpt lat="49.33766" lon="-0.48014">
        <ele>1.9</ele>
        <time>2020-06-17T08:30:16Z</time>
      </trkpt>
      <trkpt lat="49.33763" lon="-0.48003">
        <ele>1.9</ele>
        <time>2020-06-17T08:30:17Z</time>
      </trkpt>
      <trkpt lat="49.33761" lon="-0.47993">
        <ele>1.9</ele>
        <time>2020-06-17T08:30:18Z</time>
      </trkpt>
      <trkpt lat="49.33758" lon="-0.47982">
        <ele>1.9</ele>
        <time>2020-06-17T08:30:19Z</time>
      </trkpt>
      <trkpt lat="49.33756" lon="-0.47973">
        <ele>1.9</ele>
        <time>2020-06-17T08:30:20Z</time>
      </trkpt>
      <trkpt lat="49.33754" lon="-0.47963">
        <ele>1.9</ele>
        <time>2020-06-17T08:30:21Z</time>
      </trkpt>
      <trkpt lat="49.3375" lon="-0.47953">
        <ele>1.9</ele>
        <time>2020-06-17T08:30:22Z</time>
      </trkpt>
      <trkpt lat="49.33747" lon="-0.47943">
        <ele>1.9</ele>
        <time>2020-06-17T08:30:23Z</time>
      </trkpt>
      <trkpt lat="49.33744" lon="-0.47933">
        <ele>1.9</ele>
        <time>2020-06-17T08:30:24Z</time>
      </trkpt>
      <trkpt lat="49.3374" lon="-0.47924">
        <ele>1.9</ele>
        <time>2020-06-17T08:30:25Z</time>
      </trkpt>
      <trkpt lat="49.33736" lon="-0.47914">
        <ele>1.9</ele>
        <time>2020-06-17T08:30:26Z</time>
      </trkpt>
      <trkpt lat="49.33733" lon="-0.47903">
        <ele>1.9</ele>
        <time>2020-06-17T08:30:27Z</time>
      </trkpt>
      <trkpt lat="49.3373" lon="-0.47893">
        <ele>1.8</ele>
        <time>2020-06-17T08:30:28Z</time>
      </trkpt>
      <trkpt lat="49.33727" lon="-0.47883">
        <ele>1.8</ele>
        <time>2020-06-17T08:30:29Z</time>
      </trkpt>
      <trkpt lat="49.33724" lon="-0.47871">
        <ele>1.9</ele>
        <time>2020-06-17T08:30:30Z</time>
      </trkpt>
      <trkpt lat="49.33722" lon="-0.4786">
        <ele>1.9</ele>
        <time>2020-06-17T08:30:31Z</time>
      </trkpt>
      <trkpt lat="49.33719" lon="-0.47849">
        <ele>2</ele>
        <time>2020-06-17T08:30:32Z</time>
      </trkpt>
      <trkpt lat="49.33716" lon="-0.4784">
        <ele>2</ele>
        <time>2020-06-17T08:30:33Z</time>
      </trkpt>
      <trkpt lat="49.33714" lon="-0.47831">
        <ele>2.1</ele>
        <time>2020-06-17T08:30:34Z</time>
      </trkpt>
      <trkpt lat="49.33711" lon="-0.4782">
        <ele>2.2</ele>
        <time>2020-06-17T08:30:35Z</time>
      </trkpt>
      <trkpt lat="49.33709" lon="-0.47811">
        <ele>2.3</ele>
        <time>2020-06-17T08:30:36Z</time>
      </trkpt>
      <trkpt lat="49.33707" lon="-0.47801">
        <ele>2.3</ele>
        <time>2020-06-17T08:30:37Z</time>
      </trkpt>
      <trkpt lat="49.33704" lon="-0.47792">
        <ele>2.3</ele>
        <time>2020-06-17T08:30:38Z</time>
      </trkpt>
      <trkpt lat="49.33701" lon="-0.47782">
        <ele>2.4</ele>
        <time>2020-06-17T08:30:39Z</time>
      </trkpt>
      <trkpt lat="49.33699" lon="-0.47773">
        <ele>2.4</ele>
        <time>2020-06-17T08:30:40Z</time>
      </trkpt>
      <trkpt lat="49.33696" lon="-0.47764">
        <ele>2.4</ele>
        <time>2020-06-17T08:30:41Z</time>
      </trkpt>
      <trkpt lat="49.33693" lon="-0.47754">
        <ele>2.4</ele>
        <time>2020-06-17T08:30:42Z</time>
      </trkpt>
      <trkpt lat="49.3369" lon="-0.47744">
        <ele>2.4</ele>
        <time>2020-06-17T08:30:43Z</time>
      </trkpt>
      <trkpt lat="49.33687" lon="-0.47734">
        <ele>2.4</ele>
        <time>2020-06-17T08:30:44Z</time>
      </trkpt>
      <trkpt lat="49.33685" lon="-0.47724">
        <ele>2.4</ele>
        <time>2020-06-17T08:30:45Z</time>
      </trkpt>
      <trkpt lat="49.33683" lon="-0.47714">
        <ele>2.4</ele>
        <time>2020-06-17T08:30:46Z</time>
      </trkpt>
      <trkpt lat="49.33681" lon="-0.47703">
        <ele>2.3</ele>
        <time>2020-06-17T08:30:47Z</time>
      </trkpt>
      <trkpt lat="49.33678" lon="-0.47694">
        <ele>2.3</ele>
        <time>2020-06-17T08:30:48Z</time>
      </trkpt>
      <trkpt lat="49.33675" lon="-0.47684">
        <ele>2.2</ele>
        <time>2020-06-17T08:30:49Z</time>
      </trkpt>
      <trkpt lat="49.33672" lon="-0.47674">
        <ele>2.2</ele>
        <time>2020-06-17T08:30:50Z</time>
      </trkpt>
      <trkpt lat="49.33669" lon="-0.47663">
        <ele>2.2</ele>
        <time>2020-06-17T08:30:51Z</time>
      </trkpt>
      <trkpt lat="49.33666" lon="-0.47653">
        <ele>2.3</ele>
        <time>2020-06-17T08:30:52Z</time>
      </trkpt>
      <trkpt lat="49.33662" lon="-0.47642">
        <ele>2.3</ele>
        <time>2020-06-17T08:30:53Z</time>
      </trkpt>
      <trkpt lat="49.33659" lon="-0.47632">
        <ele>2.4</ele>
        <time>2020-06-17T08:30:54Z</time>
      </trkpt>
      <trkpt lat="49.33656" lon="-0.47621">
        <ele>2.4</ele>
        <time>2020-06-17T08:30:55Z</time>
      </trkpt>
      <trkpt lat="49.33652" lon="-0.4761">
        <ele>2.4</ele>
        <time>2020-06-17T08:30:56Z</time>
      </trkpt>
      <trkpt lat="49.33648" lon="-0.47599">
        <ele>2.4</ele>
        <time>2020-06-17T08:30:57Z</time>
      </trkpt>
      <trkpt lat="49.33645" lon="-0.4759">
        <ele>2.4</ele>
        <time>2020-06-17T08:30:58Z</time>
      </trkpt>
      <trkpt lat="49.33641" lon="-0.47581">
        <ele>2.4</ele>
        <time>2020-06-17T08:30:59Z</time>
      </trkpt>
      <trkpt lat="49.33638" lon="-0.47571">
        <ele>2.4</ele>
        <time>2020-06-17T08:31:00Z</time>
      </trkpt>
      <trkpt lat="49.33635" lon="-0.47561">
        <ele>2.4</ele>
        <time>2020-06-17T08:31:01Z</time>
      </trkpt>
      <trkpt lat="49.33632" lon="-0.47551">
        <ele>2.4</ele>
        <time>2020-06-17T08:31:02Z</time>
      </trkpt>
      <trkpt lat="49.3363" lon="-0.47542">
        <ele>2.4</ele>
        <time>2020-06-17T08:31:03Z</time>
      </trkpt>
      <trkpt lat="49.33627" lon="-0.47533">
        <ele>2.4</ele>
        <time>2020-06-17T08:31:04Z</time>
      </trkpt>
      <trkpt lat="49.33625" lon="-0.47524">
        <ele>2.4</ele>
        <time>2020-06-17T08:31:05Z</time>
      </trkpt>
      <trkpt lat="49.33622" lon="-0.47516">
        <ele>2.4</ele>
        <time>2020-06-17T08:31:06Z</time>
      </trkpt>
      <trkpt lat="49.33619" lon="-0.47506">
        <ele>2.3</ele>
        <time>2020-06-17T08:31:07Z</time>
      </trkpt>
      <trkpt lat="49.33616" lon="-0.47496">
        <ele>2.3</ele>
        <time>2020-06-17T08:31:08Z</time>
      </trkpt>
      <trkpt lat="49.33613" lon="-0.47485">
        <ele>2.3</ele>
        <time>2020-06-17T08:31:09Z</time>
      </trkpt>
      <trkpt lat="49.3361" lon="-0.47474">
        <ele>2.2</ele>
        <time>2020-06-17T08:31:10Z</time>
      </trkpt>
      <trkpt lat="49.33607" lon="-0.47463">
        <ele>2.2</ele>
        <time>2020-06-17T08:31:11Z</time>
      </trkpt>
      <trkpt lat="49.33603" lon="-0.47451">
        <ele>2.2</ele>
        <time>2020-06-17T08:31:12Z</time>
      </trkpt>
      <trkpt lat="49.33599" lon="-0.47439">
        <ele>2.2</ele>
        <time>2020-06-17T08:31:13Z</time>
      </trkpt>
      <trkpt lat="49.33596" lon="-0.47428">
        <ele>2.2</ele>
        <time>2020-06-17T08:31:14Z</time>
      </trkpt>
      <trkpt lat="49.33593" lon="-0.47419">
        <ele>2.2</ele>
        <time>2020-06-17T08:31:15Z</time>
      </trkpt>
      <trkpt lat="49.33589" lon="-0.47408">
        <ele>2.2</ele>
        <time>2020-06-17T08:31:16Z</time>
      </trkpt>
      <trkpt lat="49.33586" lon="-0.47397">
        <ele>2.2</ele>
        <time>2020-06-17T08:31:17Z</time>
      </trkpt>
      <trkpt lat="49.33583" lon="-0.47387">
        <ele>2.2</ele>
        <time>2020-06-17T08:31:18Z</time>
      </trkpt>
      <trkpt lat="49.33581" lon="-0.47377">
        <ele>2.1</ele>
        <time>2020-06-17T08:31:19Z</time>
      </trkpt>
      <trkpt lat="49.33578" lon="-0.47366">
        <ele>2.1</ele>
        <time>2020-06-17T08:31:20Z</time>
      </trkpt>
      <trkpt lat="49.33576" lon="-0.47355">
        <ele>2.1</ele>
        <time>2020-06-17T08:31:21Z</time>
      </trkpt>
      <trkpt lat="49.33573" lon="-0.47345">
        <ele>2.1</ele>
        <time>2020-06-17T08:31:22Z</time>
      </trkpt>
      <trkpt lat="49.3357" lon="-0.47334">
        <ele>2.1</ele>
        <time>2020-06-17T08:31:23Z</time>
      </trkpt>
      <trkpt lat="49.33567" lon="-0.47324">
        <ele>2.1</ele>
        <time>2020-06-17T08:31:24Z</time>
      </trkpt>
      <trkpt lat="49.33564" lon="-0.47313">
        <ele>2.1</ele>
        <time>2020-06-17T08:31:25Z</time>
      </trkpt>
      <trkpt lat="49.33561" lon="-0.47303">
        <ele>2.1</ele>
        <time>2020-06-17T08:31:26Z</time>
      </trkpt>
      <trkpt lat="49.33559" lon="-0.47293">
        <ele>2.1</ele>
        <time>2020-06-17T08:31:27Z</time>
      </trkpt>
      <trkpt lat="49.33556" lon="-0.47283">
        <ele>2.1</ele>
        <time>2020-06-17T08:31:28Z</time>
      </trkpt>
      <trkpt lat="49.33553" lon="-0.47273">
        <ele>2</ele>
        <time>2020-06-17T08:31:29Z</time>
      </trkpt>
      <trkpt lat="49.33551" lon="-0.47261">
        <ele>2</ele>
        <time>2020-06-17T08:31:30Z</time>
      </trkpt>
      <trkpt lat="49.33549" lon="-0.47252">
        <ele>2</ele>
        <time>2020-06-17T08:31:31Z</time>
      </trkpt>
      <trkpt lat="49.33546" lon="-0.47242">
        <ele>2</ele>
        <time>2020-06-17T08:31:32Z</time>
      </trkpt>
      <trkpt lat="49.33543" lon="-0.47233">
        <ele>2</ele>
        <time>2020-06-17T08:31:33Z</time>
      </trkpt>
      <trkpt lat="49.3354" lon="-0.47223">
        <ele>2.1</ele>
        <time>2020-06-17T08:31:34Z</time>
      </trkpt>
      <trkpt lat="49.33537" lon="-0.47213">
        <ele>2.1</ele>
        <time>2020-06-17T08:31:35Z</time>
      </trkpt>
      <trkpt lat="49.33534" lon="-0.47203">
        <ele>2.1</ele>
        <time>2020-06-17T08:31:36Z</time>
      </trkpt>
      <trkpt lat="49.33531" lon="-0.47195">
        <ele>2.1</ele>
        <time>2020-06-17T08:31:37Z</time>
      </trkpt>
      <trkpt lat="49.33528" lon="-0.47185">
        <ele>2.2</ele>
        <time>2020-06-17T08:31:38Z</time>
      </trkpt>
      <trkpt lat="49.33525" lon="-0.47175">
        <ele>2.2</ele>
        <time>2020-06-17T08:31:39Z</time>
      </trkpt>
      <trkpt lat="49.33522" lon="-0.47165">
        <ele>2.2</ele>
        <time>2020-06-17T08:31:40Z</time>
      </trkpt>
      <trkpt lat="49.33519" lon="-0.47156">
        <ele>2.2</ele>
        <time>2020-06-17T08:31:41Z</time>
      </trkpt>
      <trkpt lat="49.33516" lon="-0.47147">
        <ele>2.2</ele>
        <time>2020-06-17T08:31:42Z</time>
      </trkpt>
      <trkpt lat="49.33513" lon="-0.47138">
        <ele>2.2</ele>
        <time>2020-06-17T08:31:43Z</time>
      </trkpt>
      <trkpt lat="49.3351" lon="-0.47127">
        <ele>2.3</ele>
        <time>2020-06-17T08:31:44Z</time>
      </trkpt>
      <trkpt lat="49.33506" lon="-0.47117">
        <ele>2.4</ele>
        <time>2020-06-17T08:31:45Z</time>
      </trkpt>
      <trkpt lat="49.33502" lon="-0.47109">
        <ele>2.4</ele>
        <time>2020-06-17T08:31:46Z</time>
      </trkpt>
      <trkpt lat="49.33499" lon="-0.471">
        <ele>2.5</ele>
        <time>2020-06-17T08:31:47Z</time>
      </trkpt>
      <trkpt lat="49.33495" lon="-0.47092">
        <ele>2.7</ele>
        <time>2020-06-17T08:31:48Z</time>
      </trkpt>
      <trkpt lat="49.33492" lon="-0.47083">
        <ele>2.8</ele>
        <time>2020-06-17T08:31:49Z</time>
      </trkpt>
      <trkpt lat="49.33491" lon="-0.47074">
        <ele>2.9</ele>
        <time>2020-06-17T08:31:50Z</time>
      </trkpt>
      <trkpt lat="49.3349" lon="-0.47065">
        <ele>2.9</ele>
        <time>2020-06-17T08:31:51Z</time>
      </trkpt>
      <trkpt lat="49.33489" lon="-0.47056">
        <ele>3</ele>
        <time>2020-06-17T08:31:52Z</time>
      </trkpt>
      <trkpt lat="49.33488" lon="-0.47045">
        <ele>3</ele>
        <time>2020-06-17T08:31:53Z</time>
      </trkpt>
      <trkpt lat="49.33487" lon="-0.47035">
        <ele>3</ele>
        <time>2020-06-17T08:31:54Z</time>
      </trkpt>
      <trkpt lat="49.33486" lon="-0.47025">
        <ele>3</ele>
        <time>2020-06-17T08:31:55Z</time>
      </trkpt>
      <trkpt lat="49.33485" lon="-0.47016">
        <ele>3</ele>
        <time>2020-06-17T08:31:56Z</time>
      </trkpt>
      <trkpt lat="49.33484" lon="-0.47008">
        <ele>3</ele>
        <time>2020-06-17T08:31:57Z</time>
      </trkpt>
      <trkpt lat="49.33482" lon="-0.46999">
        <ele>3</ele>
        <time>2020-06-17T08:31:58Z</time>
      </trkpt>
      <trkpt lat="49.33481" lon="-0.4699">
        <ele>3</ele>
        <time>2020-06-17T08:31:59Z</time>
      </trkpt>
      <trkpt lat="49.3348" lon="-0.46981">
        <ele>3</ele>
        <time>2020-06-17T08:32:00Z</time>
      </trkpt>
      <trkpt lat="49.33479" lon="-0.46972">
        <ele>3.1</ele>
        <time>2020-06-17T08:32:01Z</time>
      </trkpt>
      <trkpt lat="49.33479" lon="-0.46963">
        <ele>3.1</ele>
        <time>2020-06-17T08:32:02Z</time>
      </trkpt>
      <trkpt lat="49.33478" lon="-0.46954">
        <ele>3.1</ele>
        <time>2020-06-17T08:32:03Z</time>
      </trkpt>
      <trkpt lat="49.33478" lon="-0.46945">
        <ele>3.1</ele>
        <time>2020-06-17T08:32:04Z</time>
      </trkpt>
      <trkpt lat="49.33478" lon="-0.46935">
        <ele>3.2</ele>
        <time>2020-06-17T08:32:05Z</time>
      </trkpt>
      <trkpt lat="49.33478" lon="-0.46925">
        <ele>3.3</ele>
        <time>2020-06-17T08:32:06Z</time>
      </trkpt>
      <trkpt lat="49.33478" lon="-0.46915">
        <ele>3.4</ele>
        <time>2020-06-17T08:32:07Z</time>
      </trkpt>
      <trkpt lat="49.33478" lon="-0.46905">
        <ele>3.4</ele>
        <time>2020-06-17T08:32:08Z</time>
      </trkpt>
      <trkpt lat="49.33477" lon="-0.46896">
        <ele>3.5</ele>
        <time>2020-06-17T08:32:09Z</time>
      </trkpt>
      <trkpt lat="49.33477" lon="-0.46887">
        <ele>3.5</ele>
        <time>2020-06-17T08:32:10Z</time>
      </trkpt>
      <trkpt lat="49.33477" lon="-0.46877">
        <ele>3.6</ele>
        <time>2020-06-17T08:32:11Z</time>
      </trkpt>
      <trkpt lat="49.33477" lon="-0.46868">
        <ele>3.7</ele>
        <time>2020-06-17T08:32:12Z</time>
      </trkpt>
      <trkpt lat="49.33477" lon="-0.46859">
        <ele>3.7</ele>
        <time>2020-06-17T08:32:13Z</time>
      </trkpt>
      <trkpt lat="49.33476" lon="-0.46851">
        <ele>3.8</ele>
        <time>2020-06-17T08:32:14Z</time>
      </trkpt>
      <trkpt lat="49.33475" lon="-0.4684">
        <ele>3.8</ele>
        <time>2020-06-17T08:32:15Z</time>
      </trkpt>
      <trkpt lat="49.33475" lon="-0.4683">
        <ele>3.9</ele>
        <time>2020-06-17T08:32:16Z</time>
      </trkpt>
      <trkpt lat="49.33474" lon="-0.4682">
        <ele>3.9</ele>
        <time>2020-06-17T08:32:17Z</time>
      </trkpt>
      <trkpt lat="49.33474" lon="-0.4681">
        <ele>3.9</ele>
        <time>2020-06-17T08:32:18Z</time>
      </trkpt>
      <trkpt lat="49.33474" lon="-0.46801">
        <ele>3.8</ele>
        <time>2020-06-17T08:32:19Z</time>
      </trkpt>
      <trkpt lat="49.33474" lon="-0.46794">
        <ele>3.8</ele>
        <time>2020-06-17T08:32:20Z</time>
      </trkpt>
      <trkpt lat="49.33474" lon="-0.46786">
        <ele>3.8</ele>
        <time>2020-06-17T08:32:21Z</time>
      </trkpt>
      <trkpt lat="49.33474" lon="-0.46778">
        <ele>3.8</ele>
        <time>2020-06-17T08:32:22Z</time>
      </trkpt>
      <trkpt lat="49.33475" lon="-0.4677">
        <ele>3.7</ele>
        <time>2020-06-17T08:32:23Z</time>
      </trkpt>
      <trkpt lat="49.33475" lon="-0.46762">
        <ele>3.7</ele>
        <time>2020-06-17T08:32:24Z</time>
      </trkpt>
      <trkpt lat="49.33476" lon="-0.46754">
        <ele>3.6</ele>
        <time>2020-06-17T08:32:25Z</time>
      </trkpt>
      <trkpt lat="49.33476" lon="-0.46747">
        <ele>3.5</ele>
        <time>2020-06-17T08:32:26Z</time>
      </trkpt>
      <trkpt lat="49.33476" lon="-0.4674">
        <ele>3.5</ele>
        <time>2020-06-17T08:32:27Z</time>
      </trkpt>
      <trkpt lat="49.33476" lon="-0.46732">
        <ele>3.4</ele>
        <time>2020-06-17T08:32:28Z</time>
      </trkpt>
      <trkpt lat="49.33476" lon="-0.46725">
        <ele>3.3</ele>
        <time>2020-06-17T08:32:29Z</time>
      </trkpt>
      <trkpt lat="49.33476" lon="-0.46718">
        <ele>3.3</ele>
        <time>2020-06-17T08:32:30Z</time>
      </trkpt>
      <trkpt lat="49.33476" lon="-0.46709">
        <ele>3.2</ele>
        <time>2020-06-17T08:32:31Z</time>
      </trkpt>
      <trkpt lat="49.33475" lon="-0.46701">
        <ele>3.1</ele>
        <time>2020-06-17T08:32:32Z</time>
      </trkpt>
      <trkpt lat="49.33475" lon="-0.46692">
        <ele>3.1</ele>
        <time>2020-06-17T08:32:33Z</time>
      </trkpt>
      <trkpt lat="49.33475" lon="-0.46685">
        <ele>3</ele>
        <time>2020-06-17T08:32:34Z</time>
      </trkpt>
      <trkpt lat="49.33474" lon="-0.46677">
        <ele>3</ele>
        <time>2020-06-17T08:32:35Z</time>
      </trkpt>
      <trkpt lat="49.33474" lon="-0.46669">
        <ele>3</ele>
        <time>2020-06-17T08:32:36Z</time>
      </trkpt>
      <trkpt lat="49.33473" lon="-0.46661">
        <ele>3</ele>
        <time>2020-06-17T08:32:37Z</time>
      </trkpt>
      <trkpt lat="49.33474" lon="-0.46653">
        <ele>3</ele>
        <time>2020-06-17T08:32:38Z</time>
      </trkpt>
      <trkpt lat="49.33474" lon="-0.46645">
        <ele>3</ele>
        <time>2020-06-17T08:32:39Z</time>
      </trkpt>
      <trkpt lat="49.33475" lon="-0.46639">
        <ele>3</ele>
        <time>2020-06-17T08:32:40Z</time>
      </trkpt>
      <trkpt lat="49.33475" lon="-0.46632">
        <ele>3</ele>
        <time>2020-06-17T08:32:41Z</time>
      </trkpt>
      <trkpt lat="49.33475" lon="-0.46624">
        <ele>2.9</ele>
        <time>2020-06-17T08:32:42Z</time>
      </trkpt>
      <trkpt lat="49.33475" lon="-0.46615">
        <ele>2.9</ele>
        <time>2020-06-17T08:32:43Z</time>
      </trkpt>
      <trkpt lat="49.33475" lon="-0.46605">
        <ele>2.8</ele>
        <time>2020-06-17T08:32:44Z</time>
      </trkpt>
      <trkpt lat="49.33475" lon="-0.46594">
        <ele>2.8</ele>
        <time>2020-06-17T08:32:45Z</time>
      </trkpt>
      <trkpt lat="49.33475" lon="-0.46585">
        <ele>2.8</ele>
        <time>2020-06-17T08:32:46Z</time>
      </trkpt>
      <trkpt lat="49.33475" lon="-0.46577">
        <ele>2.7</ele>
        <time>2020-06-17T08:32:47Z</time>
      </trkpt>
      <trkpt lat="49.33475" lon="-0.4657">
        <ele>2.7</ele>
        <time>2020-06-17T08:32:48Z</time>
      </trkpt>
      <trkpt lat="49.33476" lon="-0.46563">
        <ele>2.7</ele>
        <time>2020-06-17T08:32:49Z</time>
      </trkpt>
      <trkpt lat="49.33476" lon="-0.46556">
        <ele>2.7</ele>
        <time>2020-06-17T08:32:50Z</time>
      </trkpt>
      <trkpt lat="49.33477" lon="-0.46548">
        <ele>2.7</ele>
        <time>2020-06-17T08:32:51Z</time>
      </trkpt>
      <trkpt lat="49.33477" lon="-0.46541">
        <ele>2.8</ele>
        <time>2020-06-17T08:32:52Z</time>
      </trkpt>
      <trkpt lat="49.33476" lon="-0.46535">
        <ele>2.8</ele>
        <time>2020-06-17T08:32:53Z</time>
      </trkpt>
      <trkpt lat="49.33476" lon="-0.46529">
        <ele>2.8</ele>
        <time>2020-06-17T08:32:54Z</time>
      </trkpt>
      <trkpt lat="49.33475" lon="-0.46524">
        <ele>2.8</ele>
        <time>2020-06-17T08:32:55Z</time>
      </trkpt>
      <trkpt lat="49.33477" lon="-0.46518">
        <ele>2.9</ele>
        <time>2020-06-17T08:32:56Z</time>
      </trkpt>
      <trkpt lat="49.33477" lon="-0.46511">
        <ele>2.9</ele>
        <time>2020-06-17T08:32:57Z</time>
      </trkpt>
      <trkpt lat="49.33478" lon="-0.46504">
        <ele>2.9</ele>
        <time>2020-06-17T08:32:58Z</time>
      </trkpt>
      <trkpt lat="49.33479" lon="-0.46496">
        <ele>2.9</ele>
        <time>2020-06-17T08:32:59Z</time>
      </trkpt>
      <trkpt lat="49.33479" lon="-0.46487">
        <ele>3</ele>
        <time>2020-06-17T08:33:00Z</time>
      </trkpt>
      <trkpt lat="49.33477" lon="-0.46476">
        <ele>3</ele>
        <time>2020-06-17T08:33:01Z</time>
      </trkpt>
      <trkpt lat="49.33476" lon="-0.46466">
        <ele>3.1</ele>
        <time>2020-06-17T08:33:02Z</time>
      </trkpt>
      <trkpt lat="49.33474" lon="-0.46457">
        <ele>3.1</ele>
        <time>2020-06-17T08:33:03Z</time>
      </trkpt>
      <trkpt lat="49.33474" lon="-0.46447">
        <ele>3.2</ele>
        <time>2020-06-17T08:33:04Z</time>
      </trkpt>
      <trkpt lat="49.33473" lon="-0.46439">
        <ele>3.1</ele>
        <time>2020-06-17T08:33:05Z</time>
      </trkpt>
      <trkpt lat="49.33473" lon="-0.46432">
        <ele>3.1</ele>
        <time>2020-06-17T08:33:06Z</time>
      </trkpt>
      <trkpt lat="49.33473" lon="-0.46425">
        <ele>3.1</ele>
        <time>2020-06-17T08:33:07Z</time>
      </trkpt>
      <trkpt lat="49.33473" lon="-0.46418">
        <ele>3.1</ele>
        <time>2020-06-17T08:33:08Z</time>
      </trkpt>
      <trkpt lat="49.33473" lon="-0.4641">
        <ele>3.1</ele>
        <time>2020-06-17T08:33:09Z</time>
      </trkpt>
      <trkpt lat="49.33473" lon="-0.46401">
        <ele>3.2</ele>
        <time>2020-06-17T08:33:10Z</time>
      </trkpt>
      <trkpt lat="49.33473" lon="-0.46394">
        <ele>3.2</ele>
        <time>2020-06-17T08:33:11Z</time>
      </trkpt>
      <trkpt lat="49.33473" lon="-0.46387">
        <ele>3.2</ele>
        <time>2020-06-17T08:33:12Z</time>
      </trkpt>
      <trkpt lat="49.33474" lon="-0.46379">
        <ele>3.3</ele>
        <time>2020-06-17T08:33:13Z</time>
      </trkpt>
      <trkpt lat="49.33475" lon="-0.46372">
        <ele>3.3</ele>
        <time>2020-06-17T08:33:14Z</time>
      </trkpt>
      <trkpt lat="49.33476" lon="-0.46365">
        <ele>3.3</ele>
        <time>2020-06-17T08:33:15Z</time>
      </trkpt>
      <trkpt lat="49.33476" lon="-0.46358">
        <ele>3.4</ele>
        <time>2020-06-17T08:33:16Z</time>
      </trkpt>
      <trkpt lat="49.33477" lon="-0.4635">
        <ele>3.5</ele>
        <time>2020-06-17T08:33:17Z</time>
      </trkpt>
      <trkpt lat="49.33476" lon="-0.46342">
        <ele>3.5</ele>
        <time>2020-06-17T08:33:18Z</time>
      </trkpt>
      <trkpt lat="49.33477" lon="-0.46333">
        <ele>3.6</ele>
        <time>2020-06-17T08:33:19Z</time>
      </trkpt>
      <trkpt lat="49.33477" lon="-0.46325">
        <ele>3.6</ele>
        <time>2020-06-17T08:33:20Z</time>
      </trkpt>
      <trkpt lat="49.33476" lon="-0.46316">
        <ele>3.6</ele>
        <time>2020-06-17T08:33:21Z</time>
      </trkpt>
      <trkpt lat="49.33476" lon="-0.46308">
        <ele>3.7</ele>
        <time>2020-06-17T08:33:22Z</time>
      </trkpt>
      <trkpt lat="49.33476" lon="-0.463">
        <ele>3.7</ele>
        <time>2020-06-17T08:33:23Z</time>
      </trkpt>
      <trkpt lat="49.33474" lon="-0.46294">
        <ele>3.7</ele>
        <time>2020-06-17T08:33:24Z</time>
      </trkpt>
      <trkpt lat="49.33471" lon="-0.46288">
        <ele>3.8</ele>
        <time>2020-06-17T08:33:25Z</time>
      </trkpt>
      <trkpt lat="49.33466" lon="-0.46283">
        <ele>3.8</ele>
        <time>2020-06-17T08:33:26Z</time>
      </trkpt>
      <trkpt lat="49.33461" lon="-0.46278">
        <ele>3.8</ele>
        <time>2020-06-17T08:33:27Z</time>
      </trkpt>
      <trkpt lat="49.33456" lon="-0.46273">
        <ele>3.8</ele>
        <time>2020-06-17T08:33:28Z</time>
      </trkpt>
      <trkpt lat="49.33451" lon="-0.46268">
        <ele>3.8</ele>
        <time>2020-06-17T08:33:29Z</time>
      </trkpt>
      <trkpt lat="49.33445" lon="-0.46263">
        <ele>3.8</ele>
        <time>2020-06-17T08:33:30Z</time>
      </trkpt>
      <trkpt lat="49.33439" lon="-0.4626">
        <ele>3.8</ele>
        <time>2020-06-17T08:33:31Z</time>
      </trkpt>
      <trkpt lat="49.33434" lon="-0.46257">
        <ele>3.8</ele>
        <time>2020-06-17T08:33:32Z</time>
      </trkpt>
      <trkpt lat="49.33428" lon="-0.46253">
        <ele>3.8</ele>
        <time>2020-06-17T08:33:33Z</time>
      </trkpt>
      <trkpt lat="49.33422" lon="-0.4625">
        <ele>3.8</ele>
        <time>2020-06-17T08:33:34Z</time>
      </trkpt>
      <trkpt lat="49.33417" lon="-0.46247">
        <ele>3.8</ele>
        <time>2020-06-17T08:33:35Z</time>
      </trkpt>
      <trkpt lat="49.33412" lon="-0.46244">
        <ele>3.8</ele>
        <time>2020-06-17T08:33:36Z</time>
      </trkpt>
      <trkpt lat="49.33408" lon="-0.46241">
        <ele>3.7</ele>
        <time>2020-06-17T08:33:37Z</time>
      </trkpt>
      <trkpt lat="49.33403" lon="-0.46239">
        <ele>3.7</ele>
        <time>2020-06-17T08:33:38Z</time>
      </trkpt>
      <trkpt lat="49.33399" lon="-0.46236">
        <ele>3.7</ele>
        <time>2020-06-17T08:33:39Z</time>
      </trkpt>
      <trkpt lat="49.33395" lon="-0.46234">
        <ele>3.7</ele>
        <time>2020-06-17T08:33:40Z</time>
      </trkpt>
      <trkpt lat="49.3339" lon="-0.46233">
        <ele>3.7</ele>
        <time>2020-06-17T08:33:41Z</time>
      </trkpt>
      <trkpt lat="49.33386" lon="-0.46234">
        <ele>3.7</ele>
        <time>2020-06-17T08:33:42Z</time>
      </trkpt>
      <trkpt lat="49.33383" lon="-0.46238">
        <ele>3.6</ele>
        <time>2020-06-17T08:33:43Z</time>
      </trkpt>
      <trkpt lat="49.33379" lon="-0.46242">
        <ele>3.5</ele>
        <time>2020-06-17T08:33:44Z</time>
      </trkpt>
      <trkpt lat="49.33377" lon="-0.46247">
        <ele>3.5</ele>
        <time>2020-06-17T08:33:45Z</time>
      </trkpt>
      <trkpt lat="49.33374" lon="-0.4625">
        <ele>3.4</ele>
        <time>2020-06-17T08:33:46Z</time>
      </trkpt>
      <trkpt lat="49.33371" lon="-0.46254">
        <ele>3.4</ele>
        <time>2020-06-17T08:33:47Z</time>
      </trkpt>
      <trkpt lat="49.33369" lon="-0.46259">
        <ele>3.3</ele>
        <time>2020-06-17T08:33:48Z</time>
      </trkpt>
      <trkpt lat="49.33366" lon="-0.46264">
        <ele>3.3</ele>
        <time>2020-06-17T08:33:49Z</time>
      </trkpt>
      <trkpt lat="49.33363" lon="-0.46268">
        <ele>3.3</ele>
        <time>2020-06-17T08:33:50Z</time>
      </trkpt>
      <trkpt lat="49.3336" lon="-0.46271">
        <ele>3.2</ele>
        <time>2020-06-17T08:33:51Z</time>
      </trkpt>
      <trkpt lat="49.33356" lon="-0.46275">
        <ele>3.2</ele>
        <time>2020-06-17T08:33:52Z</time>
      </trkpt>
      <trkpt lat="49.33353" lon="-0.46279">
        <ele>3.1</ele>
        <time>2020-06-17T08:33:53Z</time>
      </trkpt>
      <trkpt lat="49.33349" lon="-0.46283">
        <ele>3.1</ele>
        <time>2020-06-17T08:33:54Z</time>
      </trkpt>
      <trkpt lat="49.33345" lon="-0.46287">
        <ele>3.1</ele>
        <time>2020-06-17T08:33:55Z</time>
      </trkpt>
      <trkpt lat="49.33342" lon="-0.46292">
        <ele>3.1</ele>
        <time>2020-06-17T08:33:56Z</time>
      </trkpt>
      <trkpt lat="49.33338" lon="-0.46298">
        <ele>3</ele>
        <time>2020-06-17T08:33:57Z</time>
      </trkpt>
      <trkpt lat="49.33334" lon="-0.46304">
        <ele>3</ele>
        <time>2020-06-17T08:33:58Z</time>
      </trkpt>
      <trkpt lat="49.3333" lon="-0.4631">
        <ele>3</ele>
        <time>2020-06-17T08:33:59Z</time>
      </trkpt>
      <trkpt lat="49.33326" lon="-0.46317">
        <ele>3</ele>
        <time>2020-06-17T08:34:00Z</time>
      </trkpt>
      <trkpt lat="49.33322" lon="-0.46324">
        <ele>3</ele>
        <time>2020-06-17T08:34:01Z</time>
      </trkpt>
      <trkpt lat="49.33318" lon="-0.46331">
        <ele>2.9</ele>
        <time>2020-06-17T08:34:02Z</time>
      </trkpt>
      <trkpt lat="49.33314" lon="-0.46337">
        <ele>2.9</ele>
        <time>2020-06-17T08:34:03Z</time>
      </trkpt>
      <trkpt lat="49.3331" lon="-0.46342">
        <ele>2.9</ele>
        <time>2020-06-17T08:34:04Z</time>
      </trkpt>
      <trkpt lat="49.33306" lon="-0.4635">
        <ele>2.9</ele>
        <time>2020-06-17T08:34:05Z</time>
      </trkpt>
      <trkpt lat="49.33301" lon="-0.46357">
        <ele>2.9</ele>
        <time>2020-06-17T08:34:06Z</time>
      </trkpt>
      <trkpt lat="49.33297" lon="-0.46365">
        <ele>2.9</ele>
        <time>2020-06-17T08:34:07Z</time>
      </trkpt>
      <trkpt lat="49.33292" lon="-0.46372">
        <ele>2.9</ele>
        <time>2020-06-17T08:34:08Z</time>
      </trkpt>
      <trkpt lat="49.33287" lon="-0.46379">
        <ele>3</ele>
        <time>2020-06-17T08:34:09Z</time>
      </trkpt>
      <trkpt lat="49.33284" lon="-0.46385">
        <ele>3</ele>
        <time>2020-06-17T08:34:10Z</time>
      </trkpt>
      <trkpt lat="49.33279" lon="-0.46391">
        <ele>3</ele>
        <time>2020-06-17T08:34:11Z</time>
      </trkpt>
      <trkpt lat="49.33275" lon="-0.46398">
        <ele>3</ele>
        <time>2020-06-17T08:34:12Z</time>
      </trkpt>
      <trkpt lat="49.33271" lon="-0.46405">
        <ele>3</ele>
        <time>2020-06-17T08:34:13Z</time>
      </trkpt>
      <trkpt lat="49.33266" lon="-0.46412">
        <ele>3</ele>
        <time>2020-06-17T08:34:14Z</time>
      </trkpt>
      <trkpt lat="49.33261" lon="-0.46418">
        <ele>3.1</ele>
        <time>2020-06-17T08:34:15Z</time>
      </trkpt>
      <trkpt lat="49.33256" lon="-0.46424">
        <ele>3.1</ele>
        <time>2020-06-17T08:34:16Z</time>
      </trkpt>
      <trkpt lat="49.33251" lon="-0.46431">
        <ele>3.1</ele>
        <time>2020-06-17T08:34:17Z</time>
      </trkpt>
      <trkpt lat="49.33247" lon="-0.46438">
        <ele>3.2</ele>
        <time>2020-06-17T08:34:18Z</time>
      </trkpt>
      <trkpt lat="49.33242" lon="-0.46445">
        <ele>3.2</ele>
        <time>2020-06-17T08:34:19Z</time>
      </trkpt>
      <trkpt lat="49.33238" lon="-0.46452">
        <ele>3.2</ele>
        <time>2020-06-17T08:34:20Z</time>
      </trkpt>
      <trkpt lat="49.33233" lon="-0.46459">
        <ele>3.1</ele>
        <time>2020-06-17T08:34:21Z</time>
      </trkpt>
      <trkpt lat="49.33229" lon="-0.46465">
        <ele>3.1</ele>
        <time>2020-06-17T08:34:22Z</time>
      </trkpt>
      <trkpt lat="49.33225" lon="-0.4647">
        <ele>3</ele>
        <time>2020-06-17T08:34:23Z</time>
      </trkpt>
      <trkpt lat="49.33221" lon="-0.46475">
        <ele>3</ele>
        <time>2020-06-17T08:34:24Z</time>
      </trkpt>
      <trkpt lat="49.33216" lon="-0.46479">
        <ele>2.9</ele>
        <time>2020-06-17T08:34:25Z</time>
      </trkpt>
      <trkpt lat="49.33212" lon="-0.46483">
        <ele>2.9</ele>
        <time>2020-06-17T08:34:26Z</time>
      </trkpt>
      <trkpt lat="49.33207" lon="-0.46486">
        <ele>2.9</ele>
        <time>2020-06-17T08:34:27Z</time>
      </trkpt>
      <trkpt lat="49.33202" lon="-0.46487">
        <ele>2.8</ele>
        <time>2020-06-17T08:34:28Z</time>
      </trkpt>
      <trkpt lat="49.33197" lon="-0.46487">
        <ele>2.8</ele>
        <time>2020-06-17T08:34:29Z</time>
      </trkpt>
      <trkpt lat="49.33192" lon="-0.46487">
        <ele>2.8</ele>
        <time>2020-06-17T08:34:30Z</time>
      </trkpt>
      <trkpt lat="49.33188" lon="-0.46486">
        <ele>2.8</ele>
        <time>2020-06-17T08:34:31Z</time>
      </trkpt>
      <trkpt lat="49.33184" lon="-0.46484">
        <ele>2.8</ele>
        <time>2020-06-17T08:34:32Z</time>
      </trkpt>
      <trkpt lat="49.3318" lon="-0.46481">
        <ele>2.8</ele>
        <time>2020-06-17T08:34:33Z</time>
      </trkpt>
      <trkpt lat="49.33176" lon="-0.46477">
        <ele>2.8</ele>
        <time>2020-06-17T08:34:34Z</time>
      </trkpt>
      <trkpt lat="49.33173" lon="-0.46472">
        <ele>2.8</ele>
        <time>2020-06-17T08:34:35Z</time>
      </trkpt>
      <trkpt lat="49.33169" lon="-0.46468">
        <ele>2.8</ele>
        <time>2020-06-17T08:34:36Z</time>
      </trkpt>
      <trkpt lat="49.33165" lon="-0.46464">
        <ele>2.8</ele>
        <time>2020-06-17T08:34:37Z</time>
      </trkpt>
      <trkpt lat="49.33162" lon="-0.46459">
        <ele>2.8</ele>
        <time>2020-06-17T08:34:38Z</time>
      </trkpt>
      <trkpt lat="49.33159" lon="-0.46453">
        <ele>2.8</ele>
        <time>2020-06-17T08:34:39Z</time>
      </trkpt>
      <trkpt lat="49.33157" lon="-0.46446">
        <ele>2.8</ele>
        <time>2020-06-17T08:34:40Z</time>
      </trkpt>
      <trkpt lat="49.33154" lon="-0.46437">
        <ele>2.8</ele>
        <time>2020-06-17T08:34:41Z</time>
      </trkpt>
      <trkpt lat="49.33152" lon="-0.46429">
        <ele>2.8</ele>
        <time>2020-06-17T08:34:42Z</time>
      </trkpt>
      <trkpt lat="49.3315" lon="-0.4642">
        <ele>2.8</ele>
        <time>2020-06-17T08:34:43Z</time>
      </trkpt>
      <trkpt lat="49.33151" lon="-0.46411">
        <ele>2.8</ele>
        <time>2020-06-17T08:34:44Z</time>
      </trkpt>
      <trkpt lat="49.33152" lon="-0.46403">
        <ele>2.8</ele>
        <time>2020-06-17T08:34:45Z</time>
      </trkpt>
      <trkpt lat="49.33154" lon="-0.46396">
        <ele>2.8</ele>
        <time>2020-06-17T08:34:46Z</time>
      </trkpt>
      <trkpt lat="49.33156" lon="-0.4639">
        <ele>2.9</ele>
        <time>2020-06-17T08:34:47Z</time>
      </trkpt>
      <trkpt lat="49.33159" lon="-0.46386">
        <ele>2.9</ele>
        <time>2020-06-17T08:34:48Z</time>
      </trkpt>
      <trkpt lat="49.33162" lon="-0.46382">
        <ele>2.9</ele>
        <time>2020-06-17T08:34:49Z</time>
      </trkpt>
      <trkpt lat="49.33165" lon="-0.46378">
        <ele>3</ele>
        <time>2020-06-17T08:34:50Z</time>
      </trkpt>
      <trkpt lat="49.33168" lon="-0.46374">
        <ele>3</ele>
        <time>2020-06-17T08:34:51Z</time>
      </trkpt>
      <trkpt lat="49.33172" lon="-0.4637">
        <ele>3</ele>
        <time>2020-06-17T08:34:52Z</time>
      </trkpt>
      <trkpt lat="49.33175" lon="-0.46365">
        <ele>3.1</ele>
        <time>2020-06-17T08:34:53Z</time>
      </trkpt>
      <trkpt lat="49.33178" lon="-0.46361">
        <ele>3.1</ele>
        <time>2020-06-17T08:34:54Z</time>
      </trkpt>
      <trkpt lat="49.3318" lon="-0.46356">
        <ele>3.1</ele>
        <time>2020-06-17T08:34:55Z</time>
      </trkpt>
      <trkpt lat="49.33182" lon="-0.46351">
        <ele>3.1</ele>
        <time>2020-06-17T08:34:56Z</time>
      </trkpt>
      <trkpt lat="49.33183" lon="-0.46348">
        <ele>3.2</ele>
        <time>2020-06-17T08:34:57Z</time>
      </trkpt>
      <trkpt lat="49.33185" lon="-0.46344">
        <ele>3.2</ele>
        <time>2020-06-17T08:34:58Z</time>
      </trkpt>
      <trkpt lat="49.33186" lon="-0.46338">
        <ele>3.3</ele>
        <time>2020-06-17T08:34:59Z</time>
      </trkpt>
      <trkpt lat="49.33186" lon="-0.46331">
        <ele>3.3</ele>
        <time>2020-06-17T08:35:00Z</time>
      </trkpt>
      <trkpt lat="49.33185" lon="-0.46326">
        <ele>3.3</ele>
        <time>2020-06-17T08:35:01Z</time>
      </trkpt>
      <trkpt lat="49.33184" lon="-0.46321">
        <ele>3.3</ele>
        <time>2020-06-17T08:35:02Z</time>
      </trkpt>
      <trkpt lat="49.33182" lon="-0.46315">
        <ele>3.3</ele>
        <time>2020-06-17T08:35:03Z</time>
      </trkpt>
      <trkpt lat="49.33179" lon="-0.46309">
        <ele>3.3</ele>
        <time>2020-06-17T08:35:04Z</time>
      </trkpt>
      <trkpt lat="49.33177" lon="-0.46304">
        <ele>3.3</ele>
        <time>2020-06-17T08:35:05Z</time>
      </trkpt>
      <trkpt lat="49.33174" lon="-0.46299">
        <ele>3.3</ele>
        <time>2020-06-17T08:35:06Z</time>
      </trkpt>
      <trkpt lat="49.33172" lon="-0.46294">
        <ele>3.3</ele>
        <time>2020-06-17T08:35:07Z</time>
      </trkpt>
      <trkpt lat="49.33168" lon="-0.46289">
        <ele>3.4</ele>
        <time>2020-06-17T08:35:08Z</time>
      </trkpt>
      <trkpt lat="49.33165" lon="-0.46283">
        <ele>3.4</ele>
        <time>2020-06-17T08:35:09Z</time>
      </trkpt>
      <trkpt lat="49.33161" lon="-0.46278">
        <ele>3.4</ele>
        <time>2020-06-17T08:35:10Z</time>
      </trkpt>
      <trkpt lat="49.33158" lon="-0.46273">
        <ele>3.4</ele>
        <time>2020-06-17T08:35:11Z</time>
      </trkpt>
      <trkpt lat="49.33155" lon="-0.46267">
        <ele>3.4</ele>
        <time>2020-06-17T08:35:12Z</time>
      </trkpt>
      <trkpt lat="49.33152" lon="-0.4626">
        <ele>3.4</ele>
        <time>2020-06-17T08:35:13Z</time>
      </trkpt>
      <trkpt lat="49.33149" lon="-0.46255">
        <ele>3.4</ele>
        <time>2020-06-17T08:35:14Z</time>
      </trkpt>
      <trkpt lat="49.33145" lon="-0.46248">
        <ele>3.5</ele>
        <time>2020-06-17T08:35:15Z</time>
      </trkpt>
      <trkpt lat="49.33142" lon="-0.46243">
        <ele>3.5</ele>
        <time>2020-06-17T08:35:16Z</time>
      </trkpt>
      <trkpt lat="49.33138" lon="-0.46236">
        <ele>3.5</ele>
        <time>2020-06-17T08:35:17Z</time>
      </trkpt>
      <trkpt lat="49.33135" lon="-0.46228">
        <ele>3.4</ele>
        <time>2020-06-17T08:35:18Z</time>
      </trkpt>
      <trkpt lat="49.33131" lon="-0.46222">
        <ele>3.4</ele>
        <time>2020-06-17T08:35:19Z</time>
      </trkpt>
      <trkpt lat="49.33125" lon="-0.46214">
        <ele>3.3</ele>
        <time>2020-06-17T08:35:20Z</time>
      </trkpt>
      <trkpt lat="49.33121" lon="-0.46205">
        <ele>3.2</ele>
        <time>2020-06-17T08:35:21Z</time>
      </trkpt>
      <trkpt lat="49.33117" lon="-0.46197">
        <ele>3.1</ele>
        <time>2020-06-17T08:35:22Z</time>
      </trkpt>
      <trkpt lat="49.33113" lon="-0.46189">
        <ele>3.1</ele>
        <time>2020-06-17T08:35:23Z</time>
      </trkpt>
      <trkpt lat="49.3311" lon="-0.46181">
        <ele>3</ele>
        <time>2020-06-17T08:35:24Z</time>
      </trkpt>
      <trkpt lat="49.33106" lon="-0.46173">
        <ele>3</ele>
        <time>2020-06-17T08:35:25Z</time>
      </trkpt>
      <trkpt lat="49.33102" lon="-0.46165">
        <ele>3</ele>
        <time>2020-06-17T08:35:26Z</time>
      </trkpt>
      <trkpt lat="49.33098" lon="-0.46158">
        <ele>2.9</ele>
        <time>2020-06-17T08:35:27Z</time>
      </trkpt>
      <trkpt lat="49.33093" lon="-0.46151">
        <ele>2.9</ele>
        <time>2020-06-17T08:35:28Z</time>
      </trkpt>
      <trkpt lat="49.33088" lon="-0.46144">
        <ele>3</ele>
        <time>2020-06-17T08:35:29Z</time>
      </trkpt>
      <trkpt lat="49.33083" lon="-0.46138">
        <ele>3</ele>
        <time>2020-06-17T08:35:30Z</time>
      </trkpt>
      <trkpt lat="49.33079" lon="-0.4613">
        <ele>3</ele>
        <time>2020-06-17T08:35:31Z</time>
      </trkpt>
      <trkpt lat="49.33075" lon="-0.46123">
        <ele>3.1</ele>
        <time>2020-06-17T08:35:32Z</time>
      </trkpt>
      <trkpt lat="49.33071" lon="-0.46115">
        <ele>3.1</ele>
        <time>2020-06-17T08:35:33Z</time>
      </trkpt>
      <trkpt lat="49.33067" lon="-0.46108">
        <ele>3.2</ele>
        <time>2020-06-17T08:35:34Z</time>
      </trkpt>
      <trkpt lat="49.33063" lon="-0.46099">
        <ele>3.3</ele>
        <time>2020-06-17T08:35:35Z</time>
      </trkpt>
      <trkpt lat="49.33059" lon="-0.46091">
        <ele>3.4</ele>
        <time>2020-06-17T08:35:36Z</time>
      </trkpt>
      <trkpt lat="49.33056" lon="-0.46083">
        <ele>3.5</ele>
        <time>2020-06-17T08:35:37Z</time>
      </trkpt>
      <trkpt lat="49.33053" lon="-0.46074">
        <ele>3.6</ele>
        <time>2020-06-17T08:35:38Z</time>
      </trkpt>
      <trkpt lat="49.33051" lon="-0.46066">
        <ele>3.7</ele>
        <time>2020-06-17T08:35:39Z</time>
      </trkpt>
      <trkpt lat="49.33049" lon="-0.46058">
        <ele>3.9</ele>
        <time>2020-06-17T08:35:40Z</time>
      </trkpt>
      <trkpt lat="49.33047" lon="-0.46049">
        <ele>4</ele>
        <time>2020-06-17T08:35:41Z</time>
      </trkpt>
      <trkpt lat="49.33046" lon="-0.4604">
        <ele>4.1</ele>
        <time>2020-06-17T08:35:42Z</time>
      </trkpt>
      <trkpt lat="49.33045" lon="-0.46032">
        <ele>4.3</ele>
        <time>2020-06-17T08:35:43Z</time>
      </trkpt>
      <trkpt lat="49.33044" lon="-0.46024">
        <ele>4.5</ele>
        <time>2020-06-17T08:35:44Z</time>
      </trkpt>
      <trkpt lat="49.33043" lon="-0.46015">
        <ele>4.7</ele>
        <time>2020-06-17T08:35:45Z</time>
      </trkpt>
      <trkpt lat="49.33041" lon="-0.46006">
        <ele>4.9</ele>
        <time>2020-06-17T08:35:46Z</time>
      </trkpt>
      <trkpt lat="49.3304" lon="-0.45997">
        <ele>5</ele>
        <time>2020-06-17T08:35:47Z</time>
      </trkpt>
      <trkpt lat="49.33039" lon="-0.45989">
        <ele>5.2</ele>
        <time>2020-06-17T08:35:48Z</time>
      </trkpt>
      <trkpt lat="49.33039" lon="-0.45982">
        <ele>5.3</ele>
        <time>2020-06-17T08:35:49Z</time>
      </trkpt>
      <trkpt lat="49.33039" lon="-0.45975">
        <ele>5.5</ele>
        <time>2020-06-17T08:35:50Z</time>
      </trkpt>
      <trkpt lat="49.33039" lon="-0.45968">
        <ele>5.7</ele>
        <time>2020-06-17T08:35:51Z</time>
      </trkpt>
      <trkpt lat="49.33037" lon="-0.4596">
        <ele>5.8</ele>
        <time>2020-06-17T08:35:52Z</time>
      </trkpt>
      <trkpt lat="49.33035" lon="-0.45953">
        <ele>6</ele>
        <time>2020-06-17T08:35:53Z</time>
      </trkpt>
      <trkpt lat="49.33034" lon="-0.45946">
        <ele>6.2</ele>
        <time>2020-06-17T08:35:54Z</time>
      </trkpt>
      <trkpt lat="49.33033" lon="-0.45939">
        <ele>6.4</ele>
        <time>2020-06-17T08:35:55Z</time>
      </trkpt>
      <trkpt lat="49.33032" lon="-0.45933">
        <ele>6.5</ele>
        <time>2020-06-17T08:35:56Z</time>
      </trkpt>
      <trkpt lat="49.33031" lon="-0.45926">
        <ele>6.7</ele>
        <time>2020-06-17T08:35:57Z</time>
      </trkpt>
      <trkpt lat="49.3303" lon="-0.45919">
        <ele>6.8</ele>
        <time>2020-06-17T08:35:58Z</time>
      </trkpt>
      <trkpt lat="49.33029" lon="-0.45912">
        <ele>7</ele>
        <time>2020-06-17T08:35:59Z</time>
      </trkpt>
      <trkpt lat="49.33028" lon="-0.45906">
        <ele>7.1</ele>
        <time>2020-06-17T08:36:00Z</time>
      </trkpt>
      <trkpt lat="49.33026" lon="-0.459">
        <ele>7.2</ele>
        <time>2020-06-17T08:36:01Z</time>
      </trkpt>
      <trkpt lat="49.33025" lon="-0.45895">
        <ele>7.5</ele>
        <time>2020-06-17T08:36:02Z</time>
      </trkpt>
      <trkpt lat="49.33023" lon="-0.45888">
        <ele>7.6</ele>
        <time>2020-06-17T08:36:03Z</time>
      </trkpt>
      <trkpt lat="49.33021" lon="-0.45882">
        <ele>7.7</ele>
        <time>2020-06-17T08:36:04Z</time>
      </trkpt>
      <trkpt lat="49.33019" lon="-0.45878">
        <ele>7.8</ele>
        <time>2020-06-17T08:36:05Z</time>
      </trkpt>
      <trkpt lat="49.33017" lon="-0.45872">
        <ele>7.9</ele>
        <time>2020-06-17T08:36:06Z</time>
      </trkpt>
      <trkpt lat="49.33015" lon="-0.45867">
        <ele>8</ele>
        <time>2020-06-17T08:36:07Z</time>
      </trkpt>
      <trkpt lat="49.33012" lon="-0.45861">
        <ele>8.1</ele>
        <time>2020-06-17T08:36:08Z</time>
      </trkpt>
      <trkpt lat="49.3301" lon="-0.45856">
        <ele>8.2</ele>
        <time>2020-06-17T08:36:09Z</time>
      </trkpt>
      <trkpt lat="49.33007" lon="-0.4585">
        <ele>8.3</ele>
        <time>2020-06-17T08:36:10Z</time>
      </trkpt>
      <trkpt lat="49.33004" lon="-0.45846">
        <ele>8.4</ele>
        <time>2020-06-17T08:36:11Z</time>
      </trkpt>
      <trkpt lat="49.33001" lon="-0.4584">
        <ele>8.5</ele>
        <time>2020-06-17T08:36:12Z</time>
      </trkpt>
      <trkpt lat="49.32997" lon="-0.45835">
        <ele>8.6</ele>
        <time>2020-06-17T08:36:13Z</time>
      </trkpt>
      <trkpt lat="49.32994" lon="-0.45831">
        <ele>8.8</ele>
        <time>2020-06-17T08:36:14Z</time>
      </trkpt>
      <trkpt lat="49.32991" lon="-0.45826">
        <ele>8.9</ele>
        <time>2020-06-17T08:36:15Z</time>
      </trkpt>
      <trkpt lat="49.32988" lon="-0.45822">
        <ele>9.1</ele>
        <time>2020-06-17T08:36:16Z</time>
      </trkpt>
      <trkpt lat="49.32986" lon="-0.45817">
        <ele>9.2</ele>
        <time>2020-06-17T08:36:17Z</time>
      </trkpt>
      <trkpt lat="49.32983" lon="-0.45814">
        <ele>9.4</ele>
        <time>2020-06-17T08:36:18Z</time>
      </trkpt>
      <trkpt lat="49.3298" lon="-0.45811">
        <ele>9.5</ele>
        <time>2020-06-17T08:36:19Z</time>
      </trkpt>
      <trkpt lat="49.32977" lon="-0.45808">
        <ele>9.6</ele>
        <time>2020-06-17T08:36:20Z</time>
      </trkpt>
      <trkpt lat="49.32973" lon="-0.45803">
        <ele>9.8</ele>
        <time>2020-06-17T08:36:21Z</time>
      </trkpt>
      <trkpt lat="49.32971" lon="-0.45799">
        <ele>10</ele>
        <time>2020-06-17T08:36:22Z</time>
      </trkpt>
      <trkpt lat="49.32968" lon="-0.45793">
        <ele>10.2</ele>
        <time>2020-06-17T08:36:23Z</time>
      </trkpt>
      <trkpt lat="49.32966" lon="-0.45791">
        <ele>10.3</ele>
        <time>2020-06-17T08:36:24Z</time>
      </trkpt>
      <trkpt lat="49.32963" lon="-0.45787">
        <ele>10.4</ele>
        <time>2020-06-17T08:36:25Z</time>
      </trkpt>
      <trkpt lat="49.32963" lon="-0.45785">
        <ele>10.5</ele>
        <time>2020-06-17T08:36:26Z</time>
      </trkpt>
      <trkpt lat="49.32962" lon="-0.4578">
        <ele>10.6</ele>
        <time>2020-06-17T08:36:27Z</time>
      </trkpt>
      <trkpt lat="49.32961" lon="-0.45774">
        <ele>10.8</ele>
        <time>2020-06-17T08:36:28Z</time>
      </trkpt>
      <trkpt lat="49.32961" lon="-0.45772">
        <ele>10.7</ele>
        <time>2020-06-17T08:36:29Z</time>
      </trkpt>
      <trkpt lat="49.32959" lon="-0.45767">
        <ele>10.6</ele>
        <time>2020-06-17T08:36:30Z</time>
      </trkpt>
      <trkpt lat="49.32959" lon="-0.45765">
        <ele>10.6</ele>
        <time>2020-06-17T08:36:31Z</time>
      </trkpt>
      <trkpt lat="49.32958" lon="-0.4576">
        <ele>10.5</ele>
        <time>2020-06-17T08:36:32Z</time>
      </trkpt>
      <trkpt lat="49.32956" lon="-0.45756">
        <ele>10.4</ele>
        <time>2020-06-17T08:36:33Z</time>
      </trkpt>
      <trkpt lat="49.32954" lon="-0.45751">
        <ele>10.3</ele>
        <time>2020-06-17T08:36:34Z</time>
      </trkpt>
      <trkpt lat="49.32952" lon="-0.45746">
        <ele>10.1</ele>
        <time>2020-06-17T08:36:35Z</time>
      </trkpt>
      <trkpt lat="49.32951" lon="-0.45742">
        <ele>10</ele>
        <time>2020-06-17T08:36:36Z</time>
      </trkpt>
      <trkpt lat="49.32949" lon="-0.45738">
        <ele>9.9</ele>
        <time>2020-06-17T08:36:37Z</time>
      </trkpt>
      <trkpt lat="49.32948" lon="-0.45733">
        <ele>9.8</ele>
        <time>2020-06-17T08:36:38Z</time>
      </trkpt>
      <trkpt lat="49.32947" lon="-0.45728">
        <ele>9.7</ele>
        <time>2020-06-17T08:36:39Z</time>
      </trkpt>
      <trkpt lat="49.32947" lon="-0.45727">
        <ele>9.6</ele>
        <time>2020-06-17T08:36:40Z</time>
      </trkpt>
      <trkpt lat="49.32946" lon="-0.45724">
        <ele>9.6</ele>
        <time>2020-06-17T08:36:41Z</time>
      </trkpt>
      <trkpt lat="49.32946" lon="-0.45722">
        <ele>9.5</ele>
        <time>2020-06-17T08:36:42Z</time>
      </trkpt>
      <trkpt lat="49.32948" lon="-0.45717">
        <ele>9.4</ele>
        <time>2020-06-17T08:36:43Z</time>
      </trkpt>
      <trkpt lat="49.32949" lon="-0.45716">
        <ele>9.4</ele>
        <time>2020-06-17T08:36:44Z</time>
      </trkpt>
      <trkpt lat="49.3295" lon="-0.45714">
        <ele>9.3</ele>
        <time>2020-06-17T08:36:45Z</time>
      </trkpt>
      <trkpt lat="49.32951" lon="-0.45715">
        <ele>9.2</ele>
        <time>2020-06-17T08:36:46Z</time>
      </trkpt>
      <trkpt lat="49.32952" lon="-0.45713">
        <ele>9.2</ele>
        <time>2020-06-17T08:36:47Z</time>
      </trkpt>
      <trkpt lat="49.32953" lon="-0.45709">
        <ele>9.1</ele>
        <time>2020-06-17T08:36:48Z</time>
      </trkpt>
      <trkpt lat="49.32956" lon="-0.45705">
        <ele>8.6</ele>
        <time>2020-06-17T08:36:49Z</time>
      </trkpt>
      <trkpt lat="49.32956" lon="-0.45703">
        <ele>8.5</ele>
        <time>2020-06-17T08:36:50Z</time>
      </trkpt>
      <trkpt lat="49.32959" lon="-0.45701">
        <ele>8.4</ele>
        <time>2020-06-17T08:36:51Z</time>
      </trkpt>
      <trkpt lat="49.32961" lon="-0.45699">
        <ele>8.3</ele>
        <time>2020-06-17T08:36:52Z</time>
      </trkpt>
      <trkpt lat="49.32964" lon="-0.45696">
        <ele>8.2</ele>
        <time>2020-06-17T08:36:53Z</time>
      </trkpt>
      <trkpt lat="49.32969" lon="-0.45691">
        <ele>8</ele>
        <time>2020-06-17T08:36:54Z</time>
      </trkpt>
      <trkpt lat="49.32972" lon="-0.45687">
        <ele>7.8</ele>
        <time>2020-06-17T08:36:55Z</time>
      </trkpt>
      <trkpt lat="49.32975" lon="-0.45682">
        <ele>7.7</ele>
        <time>2020-06-17T08:36:56Z</time>
      </trkpt>
      <trkpt lat="49.32977" lon="-0.45676">
        <ele>7.5</ele>
        <time>2020-06-17T08:36:57Z</time>
      </trkpt>
      <trkpt lat="49.32979" lon="-0.45669">
        <ele>7.1</ele>
        <time>2020-06-17T08:36:58Z</time>
      </trkpt>
      <trkpt lat="49.32982" lon="-0.45662">
        <ele>7</ele>
        <time>2020-06-17T08:36:59Z</time>
      </trkpt>
      <trkpt lat="49.32985" lon="-0.45656">
        <ele>6.8</ele>
        <time>2020-06-17T08:37:00Z</time>
      </trkpt>
      <trkpt lat="49.32987" lon="-0.45649">
        <ele>6.6</ele>
        <time>2020-06-17T08:37:01Z</time>
      </trkpt>
      <trkpt lat="49.3299" lon="-0.45644">
        <ele>6.4</ele>
        <time>2020-06-17T08:37:02Z</time>
      </trkpt>
      <trkpt lat="49.32992" lon="-0.45637">
        <ele>6.2</ele>
        <time>2020-06-17T08:37:03Z</time>
      </trkpt>
      <trkpt lat="49.32995" lon="-0.45632">
        <ele>6.1</ele>
        <time>2020-06-17T08:37:04Z</time>
      </trkpt>
      <trkpt lat="49.32997" lon="-0.45626">
        <ele>5.9</ele>
        <time>2020-06-17T08:37:05Z</time>
      </trkpt>
      <trkpt lat="49.32998" lon="-0.45621">
        <ele>5.8</ele>
        <time>2020-06-17T08:37:06Z</time>
      </trkpt>
      <trkpt lat="49.32999" lon="-0.45615">
        <ele>5.7</ele>
        <time>2020-06-17T08:37:07Z</time>
      </trkpt>
      <trkpt lat="49.33" lon="-0.45609">
        <ele>5.6</ele>
        <time>2020-06-17T08:37:08Z</time>
      </trkpt>
      <trkpt lat="49.33" lon="-0.45603">
        <ele>5.5</ele>
        <time>2020-06-17T08:37:09Z</time>
      </trkpt>
      <trkpt lat="49.33" lon="-0.45597">
        <ele>5.4</ele>
        <time>2020-06-17T08:37:10Z</time>
      </trkpt>
      <trkpt lat="49.32998" lon="-0.45592">
        <ele>5.3</ele>
        <time>2020-06-17T08:37:11Z</time>
      </trkpt>
      <trkpt lat="49.32997" lon="-0.45588">
        <ele>5.3</ele>
        <time>2020-06-17T08:37:12Z</time>
      </trkpt>
      <trkpt lat="49.32996" lon="-0.45582">
        <ele>5.2</ele>
        <time>2020-06-17T08:37:13Z</time>
      </trkpt>
      <trkpt lat="49.32995" lon="-0.45577">
        <ele>5.1</ele>
        <time>2020-06-17T08:37:14Z</time>
      </trkpt>
      <trkpt lat="49.32993" lon="-0.45572">
        <ele>5.1</ele>
        <time>2020-06-17T08:37:15Z</time>
      </trkpt>
      <trkpt lat="49.32991" lon="-0.45567">
        <ele>5</ele>
        <time>2020-06-17T08:37:16Z</time>
      </trkpt>
      <trkpt lat="49.3299" lon="-0.45561">
        <ele>5</ele>
        <time>2020-06-17T08:37:17Z</time>
      </trkpt>
      <trkpt lat="49.32989" lon="-0.45557">
        <ele>4.9</ele>
        <time>2020-06-17T08:37:18Z</time>
      </trkpt>
      <trkpt lat="49.32988" lon="-0.45551">
        <ele>4.9</ele>
        <time>2020-06-17T08:37:19Z</time>
      </trkpt>
      <trkpt lat="49.32987" lon="-0.45545">
        <ele>4.8</ele>
        <time>2020-06-17T08:37:20Z</time>
      </trkpt>
      <trkpt lat="49.32987" lon="-0.45538">
        <ele>4.8</ele>
        <time>2020-06-17T08:37:21Z</time>
      </trkpt>
      <trkpt lat="49.32987" lon="-0.45532">
        <ele>4.7</ele>
        <time>2020-06-17T08:37:22Z</time>
      </trkpt>
      <trkpt lat="49.32986" lon="-0.45527">
        <ele>4.7</ele>
        <time>2020-06-17T08:37:23Z</time>
      </trkpt>
      <trkpt lat="49.32986" lon="-0.45521">
        <ele>4.5</ele>
        <time>2020-06-17T08:37:24Z</time>
      </trkpt>
      <trkpt lat="49.32987" lon="-0.45514">
        <ele>4.5</ele>
        <time>2020-06-17T08:37:25Z</time>
      </trkpt>
      <trkpt lat="49.32988" lon="-0.45506">
        <ele>4.5</ele>
        <time>2020-06-17T08:37:26Z</time>
      </trkpt>
      <trkpt lat="49.32988" lon="-0.45499">
        <ele>4.6</ele>
        <time>2020-06-17T08:37:27Z</time>
      </trkpt>
      <trkpt lat="49.3299" lon="-0.4549">
        <ele>4.7</ele>
        <time>2020-06-17T08:37:28Z</time>
      </trkpt>
      <trkpt lat="49.32991" lon="-0.4548">
        <ele>4.8</ele>
        <time>2020-06-17T08:37:29Z</time>
      </trkpt>
      <trkpt lat="49.32992" lon="-0.45472">
        <ele>4.9</ele>
        <time>2020-06-17T08:37:30Z</time>
      </trkpt>
      <trkpt lat="49.32993" lon="-0.45464">
        <ele>5</ele>
        <time>2020-06-17T08:37:31Z</time>
      </trkpt>
      <trkpt lat="49.32993" lon="-0.45456">
        <ele>5.1</ele>
        <time>2020-06-17T08:37:32Z</time>
      </trkpt>
      <trkpt lat="49.32994" lon="-0.45447">
        <ele>5.1</ele>
        <time>2020-06-17T08:37:33Z</time>
      </trkpt>
      <trkpt lat="49.32995" lon="-0.45439">
        <ele>5.2</ele>
        <time>2020-06-17T08:37:34Z</time>
      </trkpt>
      <trkpt lat="49.32995" lon="-0.45431">
        <ele>5.2</ele>
        <time>2020-06-17T08:37:35Z</time>
      </trkpt>
      <trkpt lat="49.32996" lon="-0.45423">
        <ele>5.3</ele>
        <time>2020-06-17T08:37:36Z</time>
      </trkpt>
      <trkpt lat="49.32996" lon="-0.45416">
        <ele>5.3</ele>
        <time>2020-06-17T08:37:37Z</time>
      </trkpt>
      <trkpt lat="49.32996" lon="-0.45409">
        <ele>5.3</ele>
        <time>2020-06-17T08:37:38Z</time>
      </trkpt>
      <trkpt lat="49.32995" lon="-0.454">
        <ele>5.3</ele>
        <time>2020-06-17T08:37:39Z</time>
      </trkpt>
      <trkpt lat="49.32995" lon="-0.45393">
        <ele>5.4</ele>
        <time>2020-06-17T08:37:40Z</time>
      </trkpt>
      <trkpt lat="49.32995" lon="-0.45386">
        <ele>5.4</ele>
        <time>2020-06-17T08:37:41Z</time>
      </trkpt>
      <trkpt lat="49.32995" lon="-0.45377">
        <ele>5.4</ele>
        <time>2020-06-17T08:37:42Z</time>
      </trkpt>
      <trkpt lat="49.32994" lon="-0.45369">
        <ele>5.5</ele>
        <time>2020-06-17T08:37:43Z</time>
      </trkpt>
      <trkpt lat="49.32994" lon="-0.45361">
        <ele>5.6</ele>
        <time>2020-06-17T08:37:44Z</time>
      </trkpt>
      <trkpt lat="49.32993" lon="-0.45354">
        <ele>5.7</ele>
        <time>2020-06-17T08:37:45Z</time>
      </trkpt>
      <trkpt lat="49.32993" lon="-0.45348">
        <ele>5.8</ele>
        <time>2020-06-17T08:37:46Z</time>
      </trkpt>
      <trkpt lat="49.32992" lon="-0.45342">
        <ele>5.9</ele>
        <time>2020-06-17T08:37:47Z</time>
      </trkpt>
      <trkpt lat="49.32992" lon="-0.45335">
        <ele>5.9</ele>
        <time>2020-06-17T08:37:48Z</time>
      </trkpt>
      <trkpt lat="49.32991" lon="-0.4533">
        <ele>6</ele>
        <time>2020-06-17T08:37:49Z</time>
      </trkpt>
      <trkpt lat="49.32991" lon="-0.45322">
        <ele>6.1</ele>
        <time>2020-06-17T08:37:50Z</time>
      </trkpt>
      <trkpt lat="49.32992" lon="-0.45313">
        <ele>6.2</ele>
        <time>2020-06-17T08:37:51Z</time>
      </trkpt>
      <trkpt lat="49.32993" lon="-0.45304">
        <ele>6.3</ele>
        <time>2020-06-17T08:37:52Z</time>
      </trkpt>
      <trkpt lat="49.32994" lon="-0.45293">
        <ele>6.4</ele>
        <time>2020-06-17T08:37:53Z</time>
      </trkpt>
      <trkpt lat="49.32994" lon="-0.45283">
        <ele>6.6</ele>
        <time>2020-06-17T08:37:54Z</time>
      </trkpt>
      <trkpt lat="49.32994" lon="-0.45271">
        <ele>6.7</ele>
        <time>2020-06-17T08:37:55Z</time>
      </trkpt>
      <trkpt lat="49.32995" lon="-0.45262">
        <ele>6.8</ele>
        <time>2020-06-17T08:37:56Z</time>
      </trkpt>
      <trkpt lat="49.32996" lon="-0.45252">
        <ele>7</ele>
        <time>2020-06-17T08:37:57Z</time>
      </trkpt>
      <trkpt lat="49.32995" lon="-0.45241">
        <ele>7.1</ele>
        <time>2020-06-17T08:37:58Z</time>
      </trkpt>
      <trkpt lat="49.32994" lon="-0.4523">
        <ele>7.1</ele>
        <time>2020-06-17T08:37:59Z</time>
      </trkpt>
      <trkpt lat="49.32993" lon="-0.4522">
        <ele>7.1</ele>
        <time>2020-06-17T08:38:00Z</time>
      </trkpt>
      <trkpt lat="49.32992" lon="-0.4521">
        <ele>7.2</ele>
        <time>2020-06-17T08:38:01Z</time>
      </trkpt>
      <trkpt lat="49.32992" lon="-0.452">
        <ele>7.2</ele>
        <time>2020-06-17T08:38:02Z</time>
      </trkpt>
      <trkpt lat="49.32993" lon="-0.45189">
        <ele>7.2</ele>
        <time>2020-06-17T08:38:03Z</time>
      </trkpt>
      <trkpt lat="49.32995" lon="-0.4518">
        <ele>7.2</ele>
        <time>2020-06-17T08:38:04Z</time>
      </trkpt>
      <trkpt lat="49.32997" lon="-0.45168">
        <ele>7.2</ele>
        <time>2020-06-17T08:38:05Z</time>
      </trkpt>
      <trkpt lat="49.32999" lon="-0.45159">
        <ele>7.2</ele>
        <time>2020-06-17T08:38:06Z</time>
      </trkpt>
      <trkpt lat="49.33002" lon="-0.4515">
        <ele>7.2</ele>
        <time>2020-06-17T08:38:07Z</time>
      </trkpt>
      <trkpt lat="49.33004" lon="-0.45142">
        <ele>7.2</ele>
        <time>2020-06-17T08:38:08Z</time>
      </trkpt>
      <trkpt lat="49.33006" lon="-0.45136">
        <ele>7.2</ele>
        <time>2020-06-17T08:38:09Z</time>
      </trkpt>
      <trkpt lat="49.33008" lon="-0.45128">
        <ele>7.2</ele>
        <time>2020-06-17T08:38:10Z</time>
      </trkpt>
      <trkpt lat="49.3301" lon="-0.4512">
        <ele>7.1</ele>
        <time>2020-06-17T08:38:11Z</time>
      </trkpt>
      <trkpt lat="49.33012" lon="-0.45112">
        <ele>7.1</ele>
        <time>2020-06-17T08:38:12Z</time>
      </trkpt>
      <trkpt lat="49.33014" lon="-0.45104">
        <ele>7</ele>
        <time>2020-06-17T08:38:13Z</time>
      </trkpt>
      <trkpt lat="49.33017" lon="-0.45095">
        <ele>7</ele>
        <time>2020-06-17T08:38:14Z</time>
      </trkpt>
      <trkpt lat="49.33019" lon="-0.45086">
        <ele>7</ele>
        <time>2020-06-17T08:38:15Z</time>
      </trkpt>
      <trkpt lat="49.33021" lon="-0.45078">
        <ele>7</ele>
        <time>2020-06-17T08:38:16Z</time>
      </trkpt>
      <trkpt lat="49.33023" lon="-0.45068">
        <ele>7</ele>
        <time>2020-06-17T08:38:17Z</time>
      </trkpt>
      <trkpt lat="49.33025" lon="-0.4506">
        <ele>7</ele>
        <time>2020-06-17T08:38:18Z</time>
      </trkpt>
      <trkpt lat="49.33028" lon="-0.45052">
        <ele>7</ele>
        <time>2020-06-17T08:38:19Z</time>
      </trkpt>
      <trkpt lat="49.3303" lon="-0.45045">
        <ele>7</ele>
        <time>2020-06-17T08:38:20Z</time>
      </trkpt>
      <trkpt lat="49.33032" lon="-0.45037">
        <ele>7</ele>
        <time>2020-06-17T08:38:21Z</time>
      </trkpt>
      <trkpt lat="49.33034" lon="-0.45029">
        <ele>7</ele>
        <time>2020-06-17T08:38:22Z</time>
      </trkpt>
      <trkpt lat="49.33037" lon="-0.4502">
        <ele>7</ele>
        <time>2020-06-17T08:38:23Z</time>
      </trkpt>
      <trkpt lat="49.33039" lon="-0.4501">
        <ele>6.9</ele>
        <time>2020-06-17T08:38:24Z</time>
      </trkpt>
      <trkpt lat="49.3304" lon="-0.44997">
        <ele>6.9</ele>
        <time>2020-06-17T08:38:25Z</time>
      </trkpt>
      <trkpt lat="49.33041" lon="-0.44984">
        <ele>7</ele>
        <time>2020-06-17T08:38:26Z</time>
      </trkpt>
      <trkpt lat="49.33041" lon="-0.44966">
        <ele>7.1</ele>
        <time>2020-06-17T08:38:27Z</time>
      </trkpt>
      <trkpt lat="49.3304" lon="-0.4495">
        <ele>7.2</ele>
        <time>2020-06-17T08:38:28Z</time>
      </trkpt>
      <trkpt lat="49.33041" lon="-0.44934">
        <ele>7.2</ele>
        <time>2020-06-17T08:38:29Z</time>
      </trkpt>
      <trkpt lat="49.33041" lon="-0.44918">
        <ele>7.3</ele>
        <time>2020-06-17T08:38:30Z</time>
      </trkpt>
      <trkpt lat="49.3304" lon="-0.44904">
        <ele>7.3</ele>
        <time>2020-06-17T08:38:31Z</time>
      </trkpt>
      <trkpt lat="49.3304" lon="-0.44894">
        <ele>7.4</ele>
        <time>2020-06-17T08:38:32Z</time>
      </trkpt>
      <trkpt lat="49.33039" lon="-0.44881">
        <ele>7.5</ele>
        <time>2020-06-17T08:38:33Z</time>
      </trkpt>
      <trkpt lat="49.33038" lon="-0.44872">
        <ele>7.5</ele>
        <time>2020-06-17T08:38:34Z</time>
      </trkpt>
      <trkpt lat="49.33037" lon="-0.44859">
        <ele>7.6</ele>
        <time>2020-06-17T08:38:35Z</time>
      </trkpt>
      <trkpt lat="49.33037" lon="-0.44848">
        <ele>7.7</ele>
        <time>2020-06-17T08:38:36Z</time>
      </trkpt>
      <trkpt lat="49.33037" lon="-0.44838">
        <ele>7.7</ele>
        <time>2020-06-17T08:38:37Z</time>
      </trkpt>
      <trkpt lat="49.33036" lon="-0.44828">
        <ele>7.8</ele>
        <time>2020-06-17T08:38:38Z</time>
      </trkpt>
      <trkpt lat="49.33036" lon="-0.44818">
        <ele>7.9</ele>
        <time>2020-06-17T08:38:39Z</time>
      </trkpt>
      <trkpt lat="49.33036" lon="-0.44809">
        <ele>8</ele>
        <time>2020-06-17T08:38:40Z</time>
      </trkpt>
      <trkpt lat="49.33035" lon="-0.44799">
        <ele>8.2</ele>
        <time>2020-06-17T08:38:41Z</time>
      </trkpt>
      <trkpt lat="49.33035" lon="-0.44789">
        <ele>8.3</ele>
        <time>2020-06-17T08:38:42Z</time>
      </trkpt>
      <trkpt lat="49.33035" lon="-0.44779">
        <ele>8.4</ele>
        <time>2020-06-17T08:38:43Z</time>
      </trkpt>
      <trkpt lat="49.33034" lon="-0.44771">
        <ele>8.4</ele>
        <time>2020-06-17T08:38:44Z</time>
      </trkpt>
      <trkpt lat="49.33032" lon="-0.44763">
        <ele>8.5</ele>
        <time>2020-06-17T08:38:45Z</time>
      </trkpt>
      <trkpt lat="49.33031" lon="-0.44755">
        <ele>8.5</ele>
        <time>2020-06-17T08:38:46Z</time>
      </trkpt>
      <trkpt lat="49.33029" lon="-0.44749">
        <ele>8.5</ele>
        <time>2020-06-17T08:38:47Z</time>
      </trkpt>
      <trkpt lat="49.33028" lon="-0.44743">
        <ele>8.6</ele>
        <time>2020-06-17T08:38:48Z</time>
      </trkpt>
      <trkpt lat="49.33027" lon="-0.44737">
        <ele>8.5</ele>
        <time>2020-06-17T08:38:49Z</time>
      </trkpt>
      <trkpt lat="49.33026" lon="-0.4473">
        <ele>8.5</ele>
        <time>2020-06-17T08:38:50Z</time>
      </trkpt>
      <trkpt lat="49.33026" lon="-0.44723">
        <ele>8.4</ele>
        <time>2020-06-17T08:38:51Z</time>
      </trkpt>
      <trkpt lat="49.33027" lon="-0.44716">
        <ele>8.4</ele>
        <time>2020-06-17T08:38:52Z</time>
      </trkpt>
      <trkpt lat="49.33027" lon="-0.44708">
        <ele>8.4</ele>
        <time>2020-06-17T08:38:53Z</time>
      </trkpt>
      <trkpt lat="49.33026" lon="-0.447">
        <ele>8.4</ele>
        <time>2020-06-17T08:38:54Z</time>
      </trkpt>
      <trkpt lat="49.33026" lon="-0.44692">
        <ele>8.4</ele>
        <time>2020-06-17T08:38:55Z</time>
      </trkpt>
      <trkpt lat="49.33025" lon="-0.44686">
        <ele>8.3</ele>
        <time>2020-06-17T08:38:56Z</time>
      </trkpt>
      <trkpt lat="49.33024" lon="-0.4468">
        <ele>8.3</ele>
        <time>2020-06-17T08:38:57Z</time>
      </trkpt>
      <trkpt lat="49.33024" lon="-0.44675">
        <ele>8.2</ele>
        <time>2020-06-17T08:38:58Z</time>
      </trkpt>
      <trkpt lat="49.33024" lon="-0.44667">
        <ele>8.2</ele>
        <time>2020-06-17T08:38:59Z</time>
      </trkpt>
      <trkpt lat="49.33024" lon="-0.4466">
        <ele>8.1</ele>
        <time>2020-06-17T08:39:00Z</time>
      </trkpt>
      <trkpt lat="49.33024" lon="-0.44652">
        <ele>8.1</ele>
        <time>2020-06-17T08:39:01Z</time>
      </trkpt>
      <trkpt lat="49.33024" lon="-0.44644">
        <ele>8.1</ele>
        <time>2020-06-17T08:39:02Z</time>
      </trkpt>
      <trkpt lat="49.33023" lon="-0.44636">
        <ele>8.2</ele>
        <time>2020-06-17T08:39:03Z</time>
      </trkpt>
      <trkpt lat="49.33022" lon="-0.44629">
        <ele>8.2</ele>
        <time>2020-06-17T08:39:04Z</time>
      </trkpt>
      <trkpt lat="49.33022" lon="-0.44621">
        <ele>8.2</ele>
        <time>2020-06-17T08:39:05Z</time>
      </trkpt>
      <trkpt lat="49.33021" lon="-0.44614">
        <ele>8.1</ele>
        <time>2020-06-17T08:39:06Z</time>
      </trkpt>
      <trkpt lat="49.3302" lon="-0.44607">
        <ele>8.1</ele>
        <time>2020-06-17T08:39:07Z</time>
      </trkpt>
      <trkpt lat="49.3302" lon="-0.44601">
        <ele>8.1</ele>
        <time>2020-06-17T08:39:08Z</time>
      </trkpt>
      <trkpt lat="49.33019" lon="-0.44595">
        <ele>8.1</ele>
        <time>2020-06-17T08:39:09Z</time>
      </trkpt>
      <trkpt lat="49.33018" lon="-0.44589">
        <ele>8.1</ele>
        <time>2020-06-17T08:39:10Z</time>
      </trkpt>
      <trkpt lat="49.33017" lon="-0.44583">
        <ele>8.1</ele>
        <time>2020-06-17T08:39:11Z</time>
      </trkpt>
      <trkpt lat="49.33018" lon="-0.44577">
        <ele>8.1</ele>
        <time>2020-06-17T08:39:12Z</time>
      </trkpt>
      <trkpt lat="49.33018" lon="-0.44571">
        <ele>8.1</ele>
        <time>2020-06-17T08:39:13Z</time>
      </trkpt>
      <trkpt lat="49.33018" lon="-0.44566">
        <ele>8.1</ele>
        <time>2020-06-17T08:39:14Z</time>
      </trkpt>
      <trkpt lat="49.33017" lon="-0.44561">
        <ele>8.1</ele>
        <time>2020-06-17T08:39:15Z</time>
      </trkpt>
      <trkpt lat="49.33016" lon="-0.44556">
        <ele>8.1</ele>
        <time>2020-06-17T08:39:16Z</time>
      </trkpt>
      <trkpt lat="49.33016" lon="-0.4455">
        <ele>8.1</ele>
        <time>2020-06-17T08:39:17Z</time>
      </trkpt>
      <trkpt lat="49.33015" lon="-0.44544">
        <ele>8.1</ele>
        <time>2020-06-17T08:39:18Z</time>
      </trkpt>
      <trkpt lat="49.33015" lon="-0.44537">
        <ele>8.1</ele>
        <time>2020-06-17T08:39:19Z</time>
      </trkpt>
      <trkpt lat="49.33015" lon="-0.4453">
        <ele>8.1</ele>
        <time>2020-06-17T08:39:20Z</time>
      </trkpt>
      <trkpt lat="49.33015" lon="-0.44524">
        <ele>8.1</ele>
        <time>2020-06-17T08:39:21Z</time>
      </trkpt>
      <trkpt lat="49.33015" lon="-0.44517">
        <ele>8.1</ele>
        <time>2020-06-17T08:39:22Z</time>
      </trkpt>
      <trkpt lat="49.33015" lon="-0.4451">
        <ele>8.1</ele>
        <time>2020-06-17T08:39:23Z</time>
      </trkpt>
      <trkpt lat="49.33014" lon="-0.44502">
        <ele>8.1</ele>
        <time>2020-06-17T08:39:24Z</time>
      </trkpt>
      <trkpt lat="49.33013" lon="-0.44494">
        <ele>8.1</ele>
        <time>2020-06-17T08:39:25Z</time>
      </trkpt>
      <trkpt lat="49.33013" lon="-0.44486">
        <ele>8.1</ele>
        <time>2020-06-17T08:39:26Z</time>
      </trkpt>
      <trkpt lat="49.33013" lon="-0.44478">
        <ele>8.1</ele>
        <time>2020-06-17T08:39:27Z</time>
      </trkpt>
      <trkpt lat="49.33013" lon="-0.4447">
        <ele>8.1</ele>
        <time>2020-06-17T08:39:28Z</time>
      </trkpt>
      <trkpt lat="49.33012" lon="-0.44462">
        <ele>8.1</ele>
        <time>2020-06-17T08:39:29Z</time>
      </trkpt>
      <trkpt lat="49.33013" lon="-0.44454">
        <ele>8.1</ele>
        <time>2020-06-17T08:39:30Z</time>
      </trkpt>
      <trkpt lat="49.33013" lon="-0.44446">
        <ele>8.2</ele>
        <time>2020-06-17T08:39:31Z</time>
      </trkpt>
      <trkpt lat="49.33013" lon="-0.44439">
        <ele>8.2</ele>
        <time>2020-06-17T08:39:32Z</time>
      </trkpt>
      <trkpt lat="49.33013" lon="-0.44431">
        <ele>8.2</ele>
        <time>2020-06-17T08:39:33Z</time>
      </trkpt>
      <trkpt lat="49.33012" lon="-0.44423">
        <ele>8.2</ele>
        <time>2020-06-17T08:39:34Z</time>
      </trkpt>
      <trkpt lat="49.33013" lon="-0.44416">
        <ele>8.2</ele>
        <time>2020-06-17T08:39:35Z</time>
      </trkpt>
      <trkpt lat="49.33013" lon="-0.44409">
        <ele>8.3</ele>
        <time>2020-06-17T08:39:36Z</time>
      </trkpt>
      <trkpt lat="49.33013" lon="-0.44402">
        <ele>8.3</ele>
        <time>2020-06-17T08:39:37Z</time>
      </trkpt>
      <trkpt lat="49.33013" lon="-0.44395">
        <ele>8.3</ele>
        <time>2020-06-17T08:39:38Z</time>
      </trkpt>
      <trkpt lat="49.33013" lon="-0.44389">
        <ele>8.3</ele>
        <time>2020-06-17T08:39:39Z</time>
      </trkpt>
      <trkpt lat="49.33012" lon="-0.44383">
        <ele>8.4</ele>
        <time>2020-06-17T08:39:40Z</time>
      </trkpt>
      <trkpt lat="49.3301" lon="-0.44377">
        <ele>8.4</ele>
        <time>2020-06-17T08:39:41Z</time>
      </trkpt>
      <trkpt lat="49.33009" lon="-0.44371">
        <ele>8.4</ele>
        <time>2020-06-17T08:39:42Z</time>
      </trkpt>
      <trkpt lat="49.33009" lon="-0.44366">
        <ele>8.5</ele>
        <time>2020-06-17T08:39:43Z</time>
      </trkpt>
      <trkpt lat="49.33008" lon="-0.44361">
        <ele>8.5</ele>
        <time>2020-06-17T08:39:44Z</time>
      </trkpt>
      <trkpt lat="49.33008" lon="-0.44356">
        <ele>8.5</ele>
        <time>2020-06-17T08:39:45Z</time>
      </trkpt>
      <trkpt lat="49.33008" lon="-0.44351">
        <ele>8.5</ele>
        <time>2020-06-17T08:39:46Z</time>
      </trkpt>
      <trkpt lat="49.33006" lon="-0.44345">
        <ele>8.5</ele>
        <time>2020-06-17T08:39:47Z</time>
      </trkpt>
      <trkpt lat="49.33005" lon="-0.44338">
        <ele>8.5</ele>
        <time>2020-06-17T08:39:48Z</time>
      </trkpt>
      <trkpt lat="49.33004" lon="-0.4433">
        <ele>8.5</ele>
        <time>2020-06-17T08:39:49Z</time>
      </trkpt>
      <trkpt lat="49.33002" lon="-0.44322">
        <ele>8.5</ele>
        <time>2020-06-17T08:39:50Z</time>
      </trkpt>
      <trkpt lat="49.33001" lon="-0.44314">
        <ele>8.6</ele>
        <time>2020-06-17T08:39:51Z</time>
      </trkpt>
      <trkpt lat="49.33" lon="-0.44305">
        <ele>8.6</ele>
        <time>2020-06-17T08:39:52Z</time>
      </trkpt>
      <trkpt lat="49.33" lon="-0.44298">
        <ele>8.6</ele>
        <time>2020-06-17T08:39:53Z</time>
      </trkpt>
      <trkpt lat="49.32999" lon="-0.4429">
        <ele>8.6</ele>
        <time>2020-06-17T08:39:54Z</time>
      </trkpt>
      <trkpt lat="49.32998" lon="-0.44282">
        <ele>8.6</ele>
        <time>2020-06-17T08:39:55Z</time>
      </trkpt>
      <trkpt lat="49.32997" lon="-0.44274">
        <ele>8.6</ele>
        <time>2020-06-17T08:39:56Z</time>
      </trkpt>
      <trkpt lat="49.32996" lon="-0.44265">
        <ele>8.6</ele>
        <time>2020-06-17T08:39:57Z</time>
      </trkpt>
      <trkpt lat="49.32995" lon="-0.44257">
        <ele>8.6</ele>
        <time>2020-06-17T08:39:58Z</time>
      </trkpt>
      <trkpt lat="49.32993" lon="-0.44247">
        <ele>8.6</ele>
        <time>2020-06-17T08:39:59Z</time>
      </trkpt>
      <trkpt lat="49.32992" lon="-0.44239">
        <ele>8.6</ele>
        <time>2020-06-17T08:40:00Z</time>
      </trkpt>
      <trkpt lat="49.32991" lon="-0.44231">
        <ele>8.7</ele>
        <time>2020-06-17T08:40:01Z</time>
      </trkpt>
      <trkpt lat="49.3299" lon="-0.44222">
        <ele>8.7</ele>
        <time>2020-06-17T08:40:02Z</time>
      </trkpt>
      <trkpt lat="49.3299" lon="-0.44215">
        <ele>8.7</ele>
        <time>2020-06-17T08:40:03Z</time>
      </trkpt>
      <trkpt lat="49.32989" lon="-0.44206">
        <ele>8.7</ele>
        <time>2020-06-17T08:40:04Z</time>
      </trkpt>
      <trkpt lat="49.32989" lon="-0.44198">
        <ele>8.7</ele>
        <time>2020-06-17T08:40:05Z</time>
      </trkpt>
      <trkpt lat="49.32989" lon="-0.44191">
        <ele>8.8</ele>
        <time>2020-06-17T08:40:06Z</time>
      </trkpt>
      <trkpt lat="49.32989" lon="-0.44182">
        <ele>8.8</ele>
        <time>2020-06-17T08:40:07Z</time>
      </trkpt>
      <trkpt lat="49.32989" lon="-0.44173">
        <ele>8.8</ele>
        <time>2020-06-17T08:40:08Z</time>
      </trkpt>
      <trkpt lat="49.32989" lon="-0.44165">
        <ele>8.8</ele>
        <time>2020-06-17T08:40:09Z</time>
      </trkpt>
      <trkpt lat="49.3299" lon="-0.44155">
        <ele>8.8</ele>
        <time>2020-06-17T08:40:10Z</time>
      </trkpt>
      <trkpt lat="49.3299" lon="-0.44146">
        <ele>8.9</ele>
        <time>2020-06-17T08:40:11Z</time>
      </trkpt>
      <trkpt lat="49.3299" lon="-0.44137">
        <ele>8.9</ele>
        <time>2020-06-17T08:40:12Z</time>
      </trkpt>
      <trkpt lat="49.3299" lon="-0.44127">
        <ele>8.9</ele>
        <time>2020-06-17T08:40:13Z</time>
      </trkpt>
      <trkpt lat="49.32991" lon="-0.44118">
        <ele>8.9</ele>
        <time>2020-06-17T08:40:14Z</time>
      </trkpt>
      <trkpt lat="49.3299" lon="-0.44109">
        <ele>8.9</ele>
        <time>2020-06-17T08:40:15Z</time>
      </trkpt>
      <trkpt lat="49.3299" lon="-0.44099">
        <ele>8.9</ele>
        <time>2020-06-17T08:40:16Z</time>
      </trkpt>
      <trkpt lat="49.32989" lon="-0.44088">
        <ele>9</ele>
        <time>2020-06-17T08:40:17Z</time>
      </trkpt>
      <trkpt lat="49.32988" lon="-0.44076">
        <ele>9</ele>
        <time>2020-06-17T08:40:18Z</time>
      </trkpt>
      <trkpt lat="49.32986" lon="-0.44065">
        <ele>9.1</ele>
        <time>2020-06-17T08:40:19Z</time>
      </trkpt>
      <trkpt lat="49.32984" lon="-0.44055">
        <ele>9.1</ele>
        <time>2020-06-17T08:40:20Z</time>
      </trkpt>
      <trkpt lat="49.32983" lon="-0.44046">
        <ele>9.1</ele>
        <time>2020-06-17T08:40:21Z</time>
      </trkpt>
      <trkpt lat="49.32982" lon="-0.44037">
        <ele>9.2</ele>
        <time>2020-06-17T08:40:22Z</time>
      </trkpt>
      <trkpt lat="49.32982" lon="-0.44028">
        <ele>9.2</ele>
        <time>2020-06-17T08:40:23Z</time>
      </trkpt>
      <trkpt lat="49.32981" lon="-0.4402">
        <ele>9.2</ele>
        <time>2020-06-17T08:40:24Z</time>
      </trkpt>
      <trkpt lat="49.32981" lon="-0.44012">
        <ele>9.2</ele>
        <time>2020-06-17T08:40:25Z</time>
      </trkpt>
      <trkpt lat="49.3298" lon="-0.44004">
        <ele>9.2</ele>
        <time>2020-06-17T08:40:26Z</time>
      </trkpt>
      <trkpt lat="49.3298" lon="-0.43995">
        <ele>9.3</ele>
        <time>2020-06-17T08:40:27Z</time>
      </trkpt>
      <trkpt lat="49.32979" lon="-0.43985">
        <ele>9.3</ele>
        <time>2020-06-17T08:40:28Z</time>
      </trkpt>
      <trkpt lat="49.32979" lon="-0.43975">
        <ele>9.3</ele>
        <time>2020-06-17T08:40:29Z</time>
      </trkpt>
      <trkpt lat="49.32978" lon="-0.43966">
        <ele>9.3</ele>
        <time>2020-06-17T08:40:30Z</time>
      </trkpt>
      <trkpt lat="49.32977" lon="-0.43956">
        <ele>9.3</ele>
        <time>2020-06-17T08:40:31Z</time>
      </trkpt>
      <trkpt lat="49.32977" lon="-0.43947">
        <ele>9.3</ele>
        <time>2020-06-17T08:40:32Z</time>
      </trkpt>
      <trkpt lat="49.32977" lon="-0.43938">
        <ele>9.3</ele>
        <time>2020-06-17T08:40:33Z</time>
      </trkpt>
      <trkpt lat="49.32977" lon="-0.43928">
        <ele>9.3</ele>
        <time>2020-06-17T08:40:34Z</time>
      </trkpt>
      <trkpt lat="49.32977" lon="-0.43918">
        <ele>9.2</ele>
        <time>2020-06-17T08:40:35Z</time>
      </trkpt>
      <trkpt lat="49.32976" lon="-0.43909">
        <ele>9.2</ele>
        <time>2020-06-17T08:40:36Z</time>
      </trkpt>
      <trkpt lat="49.32976" lon="-0.43899">
        <ele>9.2</ele>
        <time>2020-06-17T08:40:37Z</time>
      </trkpt>
      <trkpt lat="49.32976" lon="-0.43889">
        <ele>9.1</ele>
        <time>2020-06-17T08:40:38Z</time>
      </trkpt>
      <trkpt lat="49.32975" lon="-0.43876">
        <ele>9.1</ele>
        <time>2020-06-17T08:40:39Z</time>
      </trkpt>
      <trkpt lat="49.32975" lon="-0.43864">
        <ele>9.1</ele>
        <time>2020-06-17T08:40:40Z</time>
      </trkpt>
      <trkpt lat="49.32974" lon="-0.43851">
        <ele>9.1</ele>
        <time>2020-06-17T08:40:41Z</time>
      </trkpt>
      <trkpt lat="49.32974" lon="-0.4384">
        <ele>9.1</ele>
        <time>2020-06-17T08:40:42Z</time>
      </trkpt>
      <trkpt lat="49.32973" lon="-0.43828">
        <ele>9.1</ele>
        <time>2020-06-17T08:40:43Z</time>
      </trkpt>
      <trkpt lat="49.32972" lon="-0.43814">
        <ele>9.1</ele>
        <time>2020-06-17T08:40:44Z</time>
      </trkpt>
      <trkpt lat="49.32972" lon="-0.43803">
        <ele>9.1</ele>
        <time>2020-06-17T08:40:45Z</time>
      </trkpt>
      <trkpt lat="49.32972" lon="-0.43791">
        <ele>9</ele>
        <time>2020-06-17T08:40:46Z</time>
      </trkpt>
      <trkpt lat="49.32971" lon="-0.4378">
        <ele>9</ele>
        <time>2020-06-17T08:40:47Z</time>
      </trkpt>
      <trkpt lat="49.3297" lon="-0.43768">
        <ele>9</ele>
        <time>2020-06-17T08:40:48Z</time>
      </trkpt>
      <trkpt lat="49.32969" lon="-0.43755">
        <ele>9</ele>
        <time>2020-06-17T08:40:49Z</time>
      </trkpt>
      <trkpt lat="49.32969" lon="-0.43744">
        <ele>8.9</ele>
        <time>2020-06-17T08:40:50Z</time>
      </trkpt>
      <trkpt lat="49.32968" lon="-0.43732">
        <ele>8.9</ele>
        <time>2020-06-17T08:40:51Z</time>
      </trkpt>
      <trkpt lat="49.32967" lon="-0.4372">
        <ele>9</ele>
        <time>2020-06-17T08:40:52Z</time>
      </trkpt>
      <trkpt lat="49.32966" lon="-0.43707">
        <ele>8.9</ele>
        <time>2020-06-17T08:40:53Z</time>
      </trkpt>
      <trkpt lat="49.32966" lon="-0.43695">
        <ele>8.9</ele>
        <time>2020-06-17T08:40:54Z</time>
      </trkpt>
      <trkpt lat="49.32966" lon="-0.43683">
        <ele>8.9</ele>
        <time>2020-06-17T08:40:55Z</time>
      </trkpt>
      <trkpt lat="49.32965" lon="-0.43671">
        <ele>8.8</ele>
        <time>2020-06-17T08:40:56Z</time>
      </trkpt>
      <trkpt lat="49.32965" lon="-0.4366">
        <ele>8.8</ele>
        <time>2020-06-17T08:40:57Z</time>
      </trkpt>
      <trkpt lat="49.32964" lon="-0.4365">
        <ele>8.8</ele>
        <time>2020-06-17T08:40:58Z</time>
      </trkpt>
      <trkpt lat="49.32963" lon="-0.43638">
        <ele>8.9</ele>
        <time>2020-06-17T08:40:59Z</time>
      </trkpt>
      <trkpt lat="49.32962" lon="-0.43626">
        <ele>8.9</ele>
        <time>2020-06-17T08:41:00Z</time>
      </trkpt>
      <trkpt lat="49.32961" lon="-0.43615">
        <ele>8.9</ele>
        <time>2020-06-17T08:41:01Z</time>
      </trkpt>
      <trkpt lat="49.3296" lon="-0.43603">
        <ele>8.9</ele>
        <time>2020-06-17T08:41:02Z</time>
      </trkpt>
      <trkpt lat="49.32959" lon="-0.43591">
        <ele>8.9</ele>
        <time>2020-06-17T08:41:03Z</time>
      </trkpt>
      <trkpt lat="49.32957" lon="-0.43579">
        <ele>8.9</ele>
        <time>2020-06-17T08:41:04Z</time>
      </trkpt>
      <trkpt lat="49.32956" lon="-0.43567">
        <ele>8.9</ele>
        <time>2020-06-17T08:41:05Z</time>
      </trkpt>
      <trkpt lat="49.32954" lon="-0.43554">
        <ele>8.9</ele>
        <time>2020-06-17T08:41:06Z</time>
      </trkpt>
      <trkpt lat="49.32954" lon="-0.43542">
        <ele>8.8</ele>
        <time>2020-06-17T08:41:07Z</time>
      </trkpt>
      <trkpt lat="49.32953" lon="-0.43533">
        <ele>8.8</ele>
        <time>2020-06-17T08:41:08Z</time>
      </trkpt>
      <trkpt lat="49.32953" lon="-0.43522">
        <ele>8.7</ele>
        <time>2020-06-17T08:41:09Z</time>
      </trkpt>
      <trkpt lat="49.32953" lon="-0.43511">
        <ele>8.7</ele>
        <time>2020-06-17T08:41:10Z</time>
      </trkpt>
      <trkpt lat="49.32953" lon="-0.435">
        <ele>8.7</ele>
        <time>2020-06-17T08:41:11Z</time>
      </trkpt>
      <trkpt lat="49.32953" lon="-0.43488">
        <ele>8.6</ele>
        <time>2020-06-17T08:41:12Z</time>
      </trkpt>
      <trkpt lat="49.32953" lon="-0.43477">
        <ele>8.6</ele>
        <time>2020-06-17T08:41:13Z</time>
      </trkpt>
      <trkpt lat="49.32954" lon="-0.43468">
        <ele>8.7</ele>
        <time>2020-06-17T08:41:14Z</time>
      </trkpt>
      <trkpt lat="49.32954" lon="-0.43459">
        <ele>8.7</ele>
        <time>2020-06-17T08:41:15Z</time>
      </trkpt>
      <trkpt lat="49.32954" lon="-0.4345">
        <ele>8.7</ele>
        <time>2020-06-17T08:41:16Z</time>
      </trkpt>
      <trkpt lat="49.32955" lon="-0.4344">
        <ele>8.7</ele>
        <time>2020-06-17T08:41:17Z</time>
      </trkpt>
      <trkpt lat="49.32955" lon="-0.43429">
        <ele>8.6</ele>
        <time>2020-06-17T08:41:18Z</time>
      </trkpt>
      <trkpt lat="49.32955" lon="-0.43418">
        <ele>8.6</ele>
        <time>2020-06-17T08:41:19Z</time>
      </trkpt>
      <trkpt lat="49.32954" lon="-0.43408">
        <ele>8.6</ele>
        <time>2020-06-17T08:41:20Z</time>
      </trkpt>
      <trkpt lat="49.32953" lon="-0.43399">
        <ele>8.6</ele>
        <time>2020-06-17T08:41:21Z</time>
      </trkpt>
      <trkpt lat="49.32951" lon="-0.43391">
        <ele>8.6</ele>
        <time>2020-06-17T08:41:22Z</time>
      </trkpt>
      <trkpt lat="49.3295" lon="-0.43384">
        <ele>8.7</ele>
        <time>2020-06-17T08:41:23Z</time>
      </trkpt>
      <trkpt lat="49.32949" lon="-0.43378">
        <ele>8.7</ele>
        <time>2020-06-17T08:41:24Z</time>
      </trkpt>
      <trkpt lat="49.32948" lon="-0.43375">
        <ele>8.7</ele>
        <time>2020-06-17T08:41:25Z</time>
      </trkpt>
      <trkpt lat="49.32948" lon="-0.43371">
        <ele>8.7</ele>
        <time>2020-06-17T08:41:26Z</time>
      </trkpt>
      <trkpt lat="49.32948" lon="-0.43366">
        <ele>8.7</ele>
        <time>2020-06-17T08:41:27Z</time>
      </trkpt>
      <trkpt lat="49.32949" lon="-0.43362">
        <ele>8.7</ele>
        <time>2020-06-17T08:41:28Z</time>
      </trkpt>
      <trkpt lat="49.32949" lon="-0.43359">
        <ele>8.7</ele>
        <time>2020-06-17T08:41:29Z</time>
      </trkpt>
      <trkpt lat="49.3295" lon="-0.43357">
        <ele>8.7</ele>
        <time>2020-06-17T08:41:30Z</time>
      </trkpt>
      <trkpt lat="49.32953" lon="-0.43355">
        <ele>8.7</ele>
        <time>2020-06-17T08:41:31Z</time>
      </trkpt>
      <trkpt lat="49.32954" lon="-0.43355">
        <ele>8.7</ele>
        <time>2020-06-17T08:41:32Z</time>
      </trkpt>
      <trkpt lat="49.32957" lon="-0.43354">
        <ele>8.6</ele>
        <time>2020-06-17T08:41:33Z</time>
      </trkpt>
      <trkpt lat="49.32958" lon="-0.43353">
        <ele>8.6</ele>
        <time>2020-06-17T08:41:34Z</time>
      </trkpt>
      <trkpt lat="49.3296" lon="-0.43348">
        <ele>8.5</ele>
        <time>2020-06-17T08:41:35Z</time>
      </trkpt>
      <trkpt lat="49.32961" lon="-0.43346">
        <ele>8.5</ele>
        <time>2020-06-17T08:41:36Z</time>
      </trkpt>
      <trkpt lat="49.32962" lon="-0.43341">
        <ele>8.5</ele>
        <time>2020-06-17T08:41:37Z</time>
      </trkpt>
      <trkpt lat="49.32963" lon="-0.4334">
        <ele>8.4</ele>
        <time>2020-06-17T08:41:38Z</time>
      </trkpt>
      <trkpt lat="49.32965" lon="-0.43336">
        <ele>8.4</ele>
        <time>2020-06-17T08:41:39Z</time>
      </trkpt>
      <trkpt lat="49.32967" lon="-0.43333">
        <ele>8.3</ele>
        <time>2020-06-17T08:41:40Z</time>
      </trkpt>
      <trkpt lat="49.32969" lon="-0.4333">
        <ele>8.3</ele>
        <time>2020-06-17T08:41:41Z</time>
      </trkpt>
      <trkpt lat="49.3297" lon="-0.43325">
        <ele>8.2</ele>
        <time>2020-06-17T08:41:42Z</time>
      </trkpt>
      <trkpt lat="49.32971" lon="-0.43324">
        <ele>8.2</ele>
        <time>2020-06-17T08:41:43Z</time>
      </trkpt>
      <trkpt lat="49.32973" lon="-0.4332">
        <ele>8.1</ele>
        <time>2020-06-17T08:41:44Z</time>
      </trkpt>
      <trkpt lat="49.32975" lon="-0.43316">
        <ele>8.1</ele>
        <time>2020-06-17T08:41:45Z</time>
      </trkpt>
      <trkpt lat="49.32977" lon="-0.43312">
        <ele>8</ele>
        <time>2020-06-17T08:41:46Z</time>
      </trkpt>
      <trkpt lat="49.3298" lon="-0.43307">
        <ele>7.9</ele>
        <time>2020-06-17T08:41:47Z</time>
      </trkpt>
      <trkpt lat="49.32982" lon="-0.43302">
        <ele>7.9</ele>
        <time>2020-06-17T08:41:48Z</time>
      </trkpt>
      <trkpt lat="49.32985" lon="-0.43297">
        <ele>7.8</ele>
        <time>2020-06-17T08:41:49Z</time>
      </trkpt>
      <trkpt lat="49.32989" lon="-0.43291">
        <ele>7.7</ele>
        <time>2020-06-17T08:41:50Z</time>
      </trkpt>
      <trkpt lat="49.32992" lon="-0.43286">
        <ele>7.6</ele>
        <time>2020-06-17T08:41:51Z</time>
      </trkpt>
      <trkpt lat="49.32997" lon="-0.43281">
        <ele>7.5</ele>
        <time>2020-06-17T08:41:52Z</time>
      </trkpt>
      <trkpt lat="49.33" lon="-0.43275">
        <ele>7.5</ele>
        <time>2020-06-17T08:41:53Z</time>
      </trkpt>
      <trkpt lat="49.33004" lon="-0.43271">
        <ele>7.4</ele>
        <time>2020-06-17T08:41:54Z</time>
      </trkpt>
      <trkpt lat="49.33007" lon="-0.43266">
        <ele>7.3</ele>
        <time>2020-06-17T08:41:55Z</time>
      </trkpt>
      <trkpt lat="49.33011" lon="-0.43261">
        <ele>7.2</ele>
        <time>2020-06-17T08:41:56Z</time>
      </trkpt>
      <trkpt lat="49.33015" lon="-0.43257">
        <ele>7.1</ele>
        <time>2020-06-17T08:41:57Z</time>
      </trkpt>
      <trkpt lat="49.33019" lon="-0.43253">
        <ele>7</ele>
        <time>2020-06-17T08:41:58Z</time>
      </trkpt>
      <trkpt lat="49.33023" lon="-0.43248">
        <ele>6.9</ele>
        <time>2020-06-17T08:41:59Z</time>
      </trkpt>
      <trkpt lat="49.33028" lon="-0.43242">
        <ele>6.7</ele>
        <time>2020-06-17T08:42:00Z</time>
      </trkpt>
      <trkpt lat="49.33033" lon="-0.43237">
        <ele>6.6</ele>
        <time>2020-06-17T08:42:01Z</time>
      </trkpt>
      <trkpt lat="49.33036" lon="-0.43231">
        <ele>6.5</ele>
        <time>2020-06-17T08:42:02Z</time>
      </trkpt>
      <trkpt lat="49.33041" lon="-0.43227">
        <ele>6.4</ele>
        <time>2020-06-17T08:42:03Z</time>
      </trkpt>
      <trkpt lat="49.33044" lon="-0.4322">
        <ele>6.2</ele>
        <time>2020-06-17T08:42:04Z</time>
      </trkpt>
      <trkpt lat="49.33049" lon="-0.43213">
        <ele>6.1</ele>
        <time>2020-06-17T08:42:05Z</time>
      </trkpt>
      <trkpt lat="49.33054" lon="-0.43208">
        <ele>5.9</ele>
        <time>2020-06-17T08:42:06Z</time>
      </trkpt>
      <trkpt lat="49.3306" lon="-0.43203">
        <ele>5.8</ele>
        <time>2020-06-17T08:42:07Z</time>
      </trkpt>
      <trkpt lat="49.33065" lon="-0.43198">
        <ele>5.7</ele>
        <time>2020-06-17T08:42:08Z</time>
      </trkpt>
      <trkpt lat="49.33071" lon="-0.43194">
        <ele>5.6</ele>
        <time>2020-06-17T08:42:09Z</time>
      </trkpt>
      <trkpt lat="49.33077" lon="-0.43189">
        <ele>5.5</ele>
        <time>2020-06-17T08:42:10Z</time>
      </trkpt>
      <trkpt lat="49.33084" lon="-0.43185">
        <ele>5.3</ele>
        <time>2020-06-17T08:42:11Z</time>
      </trkpt>
      <trkpt lat="49.33091" lon="-0.43182">
        <ele>5.2</ele>
        <time>2020-06-17T08:42:12Z</time>
      </trkpt>
      <trkpt lat="49.33098" lon="-0.43179">
        <ele>5.1</ele>
        <time>2020-06-17T08:42:13Z</time>
      </trkpt>
      <trkpt lat="49.33104" lon="-0.43175">
        <ele>4.9</ele>
        <time>2020-06-17T08:42:14Z</time>
      </trkpt>
      <trkpt lat="49.33112" lon="-0.4317">
        <ele>4.8</ele>
        <time>2020-06-17T08:42:15Z</time>
      </trkpt>
      <trkpt lat="49.33121" lon="-0.43166">
        <ele>4.6</ele>
        <time>2020-06-17T08:42:16Z</time>
      </trkpt>
      <trkpt lat="49.33129" lon="-0.43161">
        <ele>4.5</ele>
        <time>2020-06-17T08:42:17Z</time>
      </trkpt>
      <trkpt lat="49.33136" lon="-0.43155">
        <ele>4.3</ele>
        <time>2020-06-17T08:42:18Z</time>
      </trkpt>
      <trkpt lat="49.33143" lon="-0.43149">
        <ele>4.2</ele>
        <time>2020-06-17T08:42:19Z</time>
      </trkpt>
      <trkpt lat="49.33149" lon="-0.43144">
        <ele>4.2</ele>
        <time>2020-06-17T08:42:20Z</time>
      </trkpt>
      <trkpt lat="49.33156" lon="-0.43137">
        <ele>4</ele>
        <time>2020-06-17T08:42:21Z</time>
      </trkpt>
      <trkpt lat="49.33162" lon="-0.43131">
        <ele>3.9</ele>
        <time>2020-06-17T08:42:22Z</time>
      </trkpt>
      <trkpt lat="49.33167" lon="-0.43124">
        <ele>3.9</ele>
        <time>2020-06-17T08:42:23Z</time>
      </trkpt>
      <trkpt lat="49.33171" lon="-0.43116">
        <ele>3.8</ele>
        <time>2020-06-17T08:42:24Z</time>
      </trkpt>
      <trkpt lat="49.33176" lon="-0.43109">
        <ele>3.7</ele>
        <time>2020-06-17T08:42:25Z</time>
      </trkpt>
      <trkpt lat="49.33181" lon="-0.43102">
        <ele>3.7</ele>
        <time>2020-06-17T08:42:26Z</time>
      </trkpt>
      <trkpt lat="49.33185" lon="-0.43093">
        <ele>3.6</ele>
        <time>2020-06-17T08:42:27Z</time>
      </trkpt>
      <trkpt lat="49.33189" lon="-0.43086">
        <ele>3.6</ele>
        <time>2020-06-17T08:42:28Z</time>
      </trkpt>
      <trkpt lat="49.33193" lon="-0.43078">
        <ele>3.5</ele>
        <time>2020-06-17T08:42:29Z</time>
      </trkpt>
      <trkpt lat="49.33196" lon="-0.43069">
        <ele>3.4</ele>
        <time>2020-06-17T08:42:30Z</time>
      </trkpt>
      <trkpt lat="49.332" lon="-0.43061">
        <ele>3.4</ele>
        <time>2020-06-17T08:42:31Z</time>
      </trkpt>
      <trkpt lat="49.33203" lon="-0.43053">
        <ele>3.3</ele>
        <time>2020-06-17T08:42:32Z</time>
      </trkpt>
      <trkpt lat="49.33207" lon="-0.43044">
        <ele>3.3</ele>
        <time>2020-06-17T08:42:33Z</time>
      </trkpt>
      <trkpt lat="49.33211" lon="-0.43036">
        <ele>3.3</ele>
        <time>2020-06-17T08:42:34Z</time>
      </trkpt>
      <trkpt lat="49.33214" lon="-0.43028">
        <ele>3.2</ele>
        <time>2020-06-17T08:42:35Z</time>
      </trkpt>
      <trkpt lat="49.33217" lon="-0.43019">
        <ele>3.2</ele>
        <time>2020-06-17T08:42:36Z</time>
      </trkpt>
      <trkpt lat="49.33221" lon="-0.4301">
        <ele>3.1</ele>
        <time>2020-06-17T08:42:37Z</time>
      </trkpt>
      <trkpt lat="49.33224" lon="-0.43001">
        <ele>3.1</ele>
        <time>2020-06-17T08:42:38Z</time>
      </trkpt>
      <trkpt lat="49.33228" lon="-0.42991">
        <ele>3</ele>
        <time>2020-06-17T08:42:39Z</time>
      </trkpt>
      <trkpt lat="49.3323" lon="-0.42982">
        <ele>3</ele>
        <time>2020-06-17T08:42:40Z</time>
      </trkpt>
      <trkpt lat="49.33234" lon="-0.42971">
        <ele>2.9</ele>
        <time>2020-06-17T08:42:41Z</time>
      </trkpt>
      <trkpt lat="49.33239" lon="-0.4296">
        <ele>2.9</ele>
        <time>2020-06-17T08:42:42Z</time>
      </trkpt>
      <trkpt lat="49.33242" lon="-0.4295">
        <ele>2.9</ele>
        <time>2020-06-17T08:42:43Z</time>
      </trkpt>
      <trkpt lat="49.33245" lon="-0.4294">
        <ele>2.9</ele>
        <time>2020-06-17T08:42:44Z</time>
      </trkpt>
      <trkpt lat="49.33247" lon="-0.4293">
        <ele>2.9</ele>
        <time>2020-06-17T08:42:45Z</time>
      </trkpt>
      <trkpt lat="49.3325" lon="-0.4292">
        <ele>2.9</ele>
        <time>2020-06-17T08:42:46Z</time>
      </trkpt>
      <trkpt lat="49.33253" lon="-0.42909">
        <ele>2.8</ele>
        <time>2020-06-17T08:42:47Z</time>
      </trkpt>
      <trkpt lat="49.33254" lon="-0.42896">
        <ele>2.8</ele>
        <time>2020-06-17T08:42:48Z</time>
      </trkpt>
      <trkpt lat="49.33255" lon="-0.42884">
        <ele>2.9</ele>
        <time>2020-06-17T08:42:49Z</time>
      </trkpt>
      <trkpt lat="49.33259" lon="-0.42873">
        <ele>2.9</ele>
        <time>2020-06-17T08:42:50Z</time>
      </trkpt>
      <trkpt lat="49.33261" lon="-0.42863">
        <ele>2.9</ele>
        <time>2020-06-17T08:42:51Z</time>
      </trkpt>
      <trkpt lat="49.33264" lon="-0.42851">
        <ele>2.8</ele>
        <time>2020-06-17T08:42:52Z</time>
      </trkpt>
      <trkpt lat="49.33267" lon="-0.42842">
        <ele>2.8</ele>
        <time>2020-06-17T08:42:53Z</time>
      </trkpt>
      <trkpt lat="49.3327" lon="-0.42832">
        <ele>2.8</ele>
        <time>2020-06-17T08:42:54Z</time>
      </trkpt>
      <trkpt lat="49.33274" lon="-0.42823">
        <ele>2.8</ele>
        <time>2020-06-17T08:42:55Z</time>
      </trkpt>
      <trkpt lat="49.3328" lon="-0.42814">
        <ele>2.8</ele>
        <time>2020-06-17T08:42:56Z</time>
      </trkpt>
      <trkpt lat="49.33284" lon="-0.42807">
        <ele>2.8</ele>
        <time>2020-06-17T08:42:57Z</time>
      </trkpt>
      <trkpt lat="49.33289" lon="-0.42799">
        <ele>2.7</ele>
        <time>2020-06-17T08:42:58Z</time>
      </trkpt>
      <trkpt lat="49.33294" lon="-0.42793">
        <ele>2.7</ele>
        <time>2020-06-17T08:42:59Z</time>
      </trkpt>
      <trkpt lat="49.33299" lon="-0.42785">
        <ele>2.6</ele>
        <time>2020-06-17T08:43:00Z</time>
      </trkpt>
      <trkpt lat="49.33304" lon="-0.42778">
        <ele>2.6</ele>
        <time>2020-06-17T08:43:01Z</time>
      </trkpt>
      <trkpt lat="49.33309" lon="-0.42771">
        <ele>2.6</ele>
        <time>2020-06-17T08:43:02Z</time>
      </trkpt>
      <trkpt lat="49.33315" lon="-0.42765">
        <ele>2.6</ele>
        <time>2020-06-17T08:43:03Z</time>
      </trkpt>
      <trkpt lat="49.3332" lon="-0.42759">
        <ele>2.6</ele>
        <time>2020-06-17T08:43:04Z</time>
      </trkpt>
      <trkpt lat="49.33326" lon="-0.42752">
        <ele>2.6</ele>
        <time>2020-06-17T08:43:05Z</time>
      </trkpt>
      <trkpt lat="49.33331" lon="-0.42746">
        <ele>2.6</ele>
        <time>2020-06-17T08:43:06Z</time>
      </trkpt>
      <trkpt lat="49.33336" lon="-0.4274">
        <ele>2.6</ele>
        <time>2020-06-17T08:43:07Z</time>
      </trkpt>
      <trkpt lat="49.33342" lon="-0.42735">
        <ele>2.6</ele>
        <time>2020-06-17T08:43:08Z</time>
      </trkpt>
      <trkpt lat="49.33349" lon="-0.4273">
        <ele>2.6</ele>
        <time>2020-06-17T08:43:09Z</time>
      </trkpt>
      <trkpt lat="49.33354" lon="-0.42726">
        <ele>2.6</ele>
        <time>2020-06-17T08:43:10Z</time>
      </trkpt>
      <trkpt lat="49.33359" lon="-0.42721">
        <ele>2.6</ele>
        <time>2020-06-17T08:43:11Z</time>
      </trkpt>
      <trkpt lat="49.33364" lon="-0.42717">
        <ele>2.6</ele>
        <time>2020-06-17T08:43:12Z</time>
      </trkpt>
      <trkpt lat="49.33369" lon="-0.42713">
        <ele>2.6</ele>
        <time>2020-06-17T08:43:13Z</time>
      </trkpt>
      <trkpt lat="49.33374" lon="-0.42707">
        <ele>2.6</ele>
        <time>2020-06-17T08:43:14Z</time>
      </trkpt>
      <trkpt lat="49.33381" lon="-0.42703">
        <ele>2.6</ele>
        <time>2020-06-17T08:43:15Z</time>
      </trkpt>
      <trkpt lat="49.33387" lon="-0.42698">
        <ele>2.6</ele>
        <time>2020-06-17T08:43:16Z</time>
      </trkpt>
      <trkpt lat="49.33393" lon="-0.42692">
        <ele>2.6</ele>
        <time>2020-06-17T08:43:17Z</time>
      </trkpt>
      <trkpt lat="49.33399" lon="-0.42687">
        <ele>2.7</ele>
        <time>2020-06-17T08:43:18Z</time>
      </trkpt>
      <trkpt lat="49.33405" lon="-0.42682">
        <ele>2.7</ele>
        <time>2020-06-17T08:43:19Z</time>
      </trkpt>
      <trkpt lat="49.33411" lon="-0.42678">
        <ele>2.7</ele>
        <time>2020-06-17T08:43:20Z</time>
      </trkpt>
      <trkpt lat="49.33417" lon="-0.42672">
        <ele>2.7</ele>
        <time>2020-06-17T08:43:21Z</time>
      </trkpt>
      <trkpt lat="49.33423" lon="-0.42667">
        <ele>2.8</ele>
        <time>2020-06-17T08:43:22Z</time>
      </trkpt>
      <trkpt lat="49.33429" lon="-0.42662">
        <ele>2.8</ele>
        <time>2020-06-17T08:43:23Z</time>
      </trkpt>
      <trkpt lat="49.33434" lon="-0.42658">
        <ele>2.8</ele>
        <time>2020-06-17T08:43:24Z</time>
      </trkpt>
      <trkpt lat="49.33439" lon="-0.42655">
        <ele>2.8</ele>
        <time>2020-06-17T08:43:25Z</time>
      </trkpt>
      <trkpt lat="49.33445" lon="-0.42649">
        <ele>2.9</ele>
        <time>2020-06-17T08:43:26Z</time>
      </trkpt>
      <trkpt lat="49.33451" lon="-0.42644">
        <ele>2.9</ele>
        <time>2020-06-17T08:43:27Z</time>
      </trkpt>
      <trkpt lat="49.33456" lon="-0.42639">
        <ele>2.9</ele>
        <time>2020-06-17T08:43:28Z</time>
      </trkpt>
      <trkpt lat="49.3346" lon="-0.42632">
        <ele>3</ele>
        <time>2020-06-17T08:43:29Z</time>
      </trkpt>
      <trkpt lat="49.33465" lon="-0.42626">
        <ele>3</ele>
        <time>2020-06-17T08:43:30Z</time>
      </trkpt>
      <trkpt lat="49.33467" lon="-0.4262">
        <ele>3.1</ele>
        <time>2020-06-17T08:43:31Z</time>
      </trkpt>
      <trkpt lat="49.33471" lon="-0.42613">
        <ele>3.1</ele>
        <time>2020-06-17T08:43:32Z</time>
      </trkpt>
      <trkpt lat="49.33474" lon="-0.42606">
        <ele>3.1</ele>
        <time>2020-06-17T08:43:33Z</time>
      </trkpt>
      <trkpt lat="49.33479" lon="-0.42597">
        <ele>3.1</ele>
        <time>2020-06-17T08:43:34Z</time>
      </trkpt>
      <trkpt lat="49.33482" lon="-0.42588">
        <ele>3.1</ele>
        <time>2020-06-17T08:43:35Z</time>
      </trkpt>
      <trkpt lat="49.33485" lon="-0.42579">
        <ele>3.2</ele>
        <time>2020-06-17T08:43:36Z</time>
      </trkpt>
      <trkpt lat="49.33488" lon="-0.42571">
        <ele>3.2</ele>
        <time>2020-06-17T08:43:37Z</time>
      </trkpt>
      <trkpt lat="49.33491" lon="-0.42563">
        <ele>3.3</ele>
        <time>2020-06-17T08:43:38Z</time>
      </trkpt>
      <trkpt lat="49.33493" lon="-0.42556">
        <ele>3.4</ele>
        <time>2020-06-17T08:43:39Z</time>
      </trkpt>
      <trkpt lat="49.33495" lon="-0.42548">
        <ele>3.4</ele>
        <time>2020-06-17T08:43:40Z</time>
      </trkpt>
      <trkpt lat="49.33497" lon="-0.4254">
        <ele>3.5</ele>
        <time>2020-06-17T08:43:41Z</time>
      </trkpt>
      <trkpt lat="49.33498" lon="-0.42531">
        <ele>3.6</ele>
        <time>2020-06-17T08:43:42Z</time>
      </trkpt>
      <trkpt lat="49.33499" lon="-0.42522">
        <ele>3.6</ele>
        <time>2020-06-17T08:43:43Z</time>
      </trkpt>
      <trkpt lat="49.33499" lon="-0.42514">
        <ele>3.7</ele>
        <time>2020-06-17T08:43:44Z</time>
      </trkpt>
      <trkpt lat="49.33499" lon="-0.42504">
        <ele>3.8</ele>
        <time>2020-06-17T08:43:45Z</time>
      </trkpt>
      <trkpt lat="49.33498" lon="-0.42495">
        <ele>3.9</ele>
        <time>2020-06-17T08:43:46Z</time>
      </trkpt>
      <trkpt lat="49.33498" lon="-0.42484">
        <ele>3.9</ele>
        <time>2020-06-17T08:43:47Z</time>
      </trkpt>
      <trkpt lat="49.33497" lon="-0.42476">
        <ele>4</ele>
        <time>2020-06-17T08:43:48Z</time>
      </trkpt>
      <trkpt lat="49.33496" lon="-0.42468">
        <ele>4</ele>
        <time>2020-06-17T08:43:49Z</time>
      </trkpt>
      <trkpt lat="49.33495" lon="-0.42458">
        <ele>4.1</ele>
        <time>2020-06-17T08:43:50Z</time>
      </trkpt>
      <trkpt lat="49.33495" lon="-0.4245">
        <ele>4.1</ele>
        <time>2020-06-17T08:43:51Z</time>
      </trkpt>
      <trkpt lat="49.33495" lon="-0.42441">
        <ele>4.2</ele>
        <time>2020-06-17T08:43:52Z</time>
      </trkpt>
      <trkpt lat="49.33494" lon="-0.42432">
        <ele>4.1</ele>
        <time>2020-06-17T08:43:53Z</time>
      </trkpt>
      <trkpt lat="49.33494" lon="-0.42424">
        <ele>4.1</ele>
        <time>2020-06-17T08:43:54Z</time>
      </trkpt>
      <trkpt lat="49.33492" lon="-0.42417">
        <ele>4.1</ele>
        <time>2020-06-17T08:43:55Z</time>
      </trkpt>
      <trkpt lat="49.33491" lon="-0.42408">
        <ele>4.1</ele>
        <time>2020-06-17T08:43:56Z</time>
      </trkpt>
      <trkpt lat="49.3349" lon="-0.42399">
        <ele>4</ele>
        <time>2020-06-17T08:43:57Z</time>
      </trkpt>
      <trkpt lat="49.33489" lon="-0.42389">
        <ele>3.9</ele>
        <time>2020-06-17T08:43:58Z</time>
      </trkpt>
      <trkpt lat="49.33488" lon="-0.42378">
        <ele>3.9</ele>
        <time>2020-06-17T08:43:59Z</time>
      </trkpt>
      <trkpt lat="49.33487" lon="-0.42368">
        <ele>3.8</ele>
        <time>2020-06-17T08:44:00Z</time>
      </trkpt>
      <trkpt lat="49.33487" lon="-0.42357">
        <ele>3.7</ele>
        <time>2020-06-17T08:44:01Z</time>
      </trkpt>
      <trkpt lat="49.33486" lon="-0.42347">
        <ele>3.7</ele>
        <time>2020-06-17T08:44:02Z</time>
      </trkpt>
      <trkpt lat="49.33485" lon="-0.42338">
        <ele>3.6</ele>
        <time>2020-06-17T08:44:03Z</time>
      </trkpt>
      <trkpt lat="49.33484" lon="-0.42327">
        <ele>3.6</ele>
        <time>2020-06-17T08:44:04Z</time>
      </trkpt>
      <trkpt lat="49.33484" lon="-0.42316">
        <ele>3.6</ele>
        <time>2020-06-17T08:44:05Z</time>
      </trkpt>
      <trkpt lat="49.33483" lon="-0.42306">
        <ele>3.5</ele>
        <time>2020-06-17T08:44:06Z</time>
      </trkpt>
      <trkpt lat="49.33482" lon="-0.42295">
        <ele>3.5</ele>
        <time>2020-06-17T08:44:07Z</time>
      </trkpt>
      <trkpt lat="49.33482" lon="-0.42285">
        <ele>3.5</ele>
        <time>2020-06-17T08:44:08Z</time>
      </trkpt>
      <trkpt lat="49.33481" lon="-0.42275">
        <ele>3.5</ele>
        <time>2020-06-17T08:44:09Z</time>
      </trkpt>
      <trkpt lat="49.33481" lon="-0.42266">
        <ele>3.4</ele>
        <time>2020-06-17T08:44:10Z</time>
      </trkpt>
      <trkpt lat="49.33481" lon="-0.42257">
        <ele>3.3</ele>
        <time>2020-06-17T08:44:11Z</time>
      </trkpt>
      <trkpt lat="49.3348" lon="-0.42249">
        <ele>3.3</ele>
        <time>2020-06-17T08:44:12Z</time>
      </trkpt>
      <trkpt lat="49.3348" lon="-0.42239">
        <ele>3.2</ele>
        <time>2020-06-17T08:44:13Z</time>
      </trkpt>
      <trkpt lat="49.3348" lon="-0.4223">
        <ele>3.1</ele>
        <time>2020-06-17T08:44:14Z</time>
      </trkpt>
      <trkpt lat="49.33479" lon="-0.42218">
        <ele>3</ele>
        <time>2020-06-17T08:44:15Z</time>
      </trkpt>
      <trkpt lat="49.33479" lon="-0.42208">
        <ele>3</ele>
        <time>2020-06-17T08:44:16Z</time>
      </trkpt>
      <trkpt lat="49.33478" lon="-0.422">
        <ele>2.9</ele>
        <time>2020-06-17T08:44:17Z</time>
      </trkpt>
      <trkpt lat="49.33478" lon="-0.42191">
        <ele>2.9</ele>
        <time>2020-06-17T08:44:18Z</time>
      </trkpt>
      <trkpt lat="49.33477" lon="-0.42181">
        <ele>2.9</ele>
        <time>2020-06-17T08:44:19Z</time>
      </trkpt>
      <trkpt lat="49.33477" lon="-0.4217">
        <ele>2.8</ele>
        <time>2020-06-17T08:44:20Z</time>
      </trkpt>
      <trkpt lat="49.33476" lon="-0.42161">
        <ele>2.8</ele>
        <time>2020-06-17T08:44:21Z</time>
      </trkpt>
      <trkpt lat="49.33476" lon="-0.42151">
        <ele>2.8</ele>
        <time>2020-06-17T08:44:22Z</time>
      </trkpt>
      <trkpt lat="49.33476" lon="-0.42139">
        <ele>2.9</ele>
        <time>2020-06-17T08:44:23Z</time>
      </trkpt>
      <trkpt lat="49.33475" lon="-0.42128">
        <ele>2.9</ele>
        <time>2020-06-17T08:44:24Z</time>
      </trkpt>
      <trkpt lat="49.33475" lon="-0.42116">
        <ele>2.9</ele>
        <time>2020-06-17T08:44:25Z</time>
      </trkpt>
      <trkpt lat="49.33475" lon="-0.42106">
        <ele>2.9</ele>
        <time>2020-06-17T08:44:26Z</time>
      </trkpt>
      <trkpt lat="49.33475" lon="-0.42094">
        <ele>2.8</ele>
        <time>2020-06-17T08:44:27Z</time>
      </trkpt>
      <trkpt lat="49.33475" lon="-0.42083">
        <ele>2.8</ele>
        <time>2020-06-17T08:44:28Z</time>
      </trkpt>
      <trkpt lat="49.33475" lon="-0.42073">
        <ele>2.7</ele>
        <time>2020-06-17T08:44:29Z</time>
      </trkpt>
      <trkpt lat="49.33475" lon="-0.42062">
        <ele>2.7</ele>
        <time>2020-06-17T08:44:30Z</time>
      </trkpt>
      <trkpt lat="49.33474" lon="-0.42051">
        <ele>2.7</ele>
        <time>2020-06-17T08:44:31Z</time>
      </trkpt>
      <trkpt lat="49.33473" lon="-0.42041">
        <ele>2.6</ele>
        <time>2020-06-17T08:44:32Z</time>
      </trkpt>
      <trkpt lat="49.33473" lon="-0.4203">
        <ele>2.6</ele>
        <time>2020-06-17T08:44:33Z</time>
      </trkpt>
      <trkpt lat="49.33472" lon="-0.4202">
        <ele>2.5</ele>
        <time>2020-06-17T08:44:34Z</time>
      </trkpt>
      <trkpt lat="49.33471" lon="-0.4201">
        <ele>2.5</ele>
        <time>2020-06-17T08:44:35Z</time>
      </trkpt>
      <trkpt lat="49.3347" lon="-0.42">
        <ele>2.5</ele>
        <time>2020-06-17T08:44:36Z</time>
      </trkpt>
      <trkpt lat="49.33469" lon="-0.41991">
        <ele>2.5</ele>
        <time>2020-06-17T08:44:37Z</time>
      </trkpt>
      <trkpt lat="49.33468" lon="-0.4198">
        <ele>2.5</ele>
        <time>2020-06-17T08:44:38Z</time>
      </trkpt>
      <trkpt lat="49.33468" lon="-0.4197">
        <ele>2.5</ele>
        <time>2020-06-17T08:44:39Z</time>
      </trkpt>
      <trkpt lat="49.33468" lon="-0.4196">
        <ele>2.5</ele>
        <time>2020-06-17T08:44:40Z</time>
      </trkpt>
      <trkpt lat="49.33468" lon="-0.41949">
        <ele>2.5</ele>
        <time>2020-06-17T08:44:41Z</time>
      </trkpt>
      <trkpt lat="49.33467" lon="-0.4194">
        <ele>2.6</ele>
        <time>2020-06-17T08:44:42Z</time>
      </trkpt>
      <trkpt lat="49.33468" lon="-0.41931">
        <ele>2.6</ele>
        <time>2020-06-17T08:44:43Z</time>
      </trkpt>
      <trkpt lat="49.33468" lon="-0.41923">
        <ele>2.7</ele>
        <time>2020-06-17T08:44:44Z</time>
      </trkpt>
      <trkpt lat="49.33467" lon="-0.41915">
        <ele>2.7</ele>
        <time>2020-06-17T08:44:45Z</time>
      </trkpt>
      <trkpt lat="49.33467" lon="-0.41907">
        <ele>2.8</ele>
        <time>2020-06-17T08:44:46Z</time>
      </trkpt>
      <trkpt lat="49.33467" lon="-0.41898">
        <ele>2.8</ele>
        <time>2020-06-17T08:44:47Z</time>
      </trkpt>
      <trkpt lat="49.33467" lon="-0.41888">
        <ele>2.9</ele>
        <time>2020-06-17T08:44:48Z</time>
      </trkpt>
      <trkpt lat="49.33468" lon="-0.41881">
        <ele>2.9</ele>
        <time>2020-06-17T08:44:49Z</time>
      </trkpt>
      <trkpt lat="49.33468" lon="-0.41872">
        <ele>2.9</ele>
        <time>2020-06-17T08:44:50Z</time>
      </trkpt>
      <trkpt lat="49.33468" lon="-0.41861">
        <ele>3</ele>
        <time>2020-06-17T08:44:51Z</time>
      </trkpt>
      <trkpt lat="49.33468" lon="-0.4185">
        <ele>3</ele>
        <time>2020-06-17T08:44:52Z</time>
      </trkpt>
      <trkpt lat="49.33469" lon="-0.41842">
        <ele>3.1</ele>
        <time>2020-06-17T08:44:53Z</time>
      </trkpt>
      <trkpt lat="49.3347" lon="-0.41832">
        <ele>3.1</ele>
        <time>2020-06-17T08:44:54Z</time>
      </trkpt>
      <trkpt lat="49.3347" lon="-0.41823">
        <ele>3.1</ele>
        <time>2020-06-17T08:44:55Z</time>
      </trkpt>
      <trkpt lat="49.3347" lon="-0.41814">
        <ele>3.2</ele>
        <time>2020-06-17T08:44:56Z</time>
      </trkpt>
      <trkpt lat="49.3347" lon="-0.41805">
        <ele>3.2</ele>
        <time>2020-06-17T08:44:57Z</time>
      </trkpt>
      <trkpt lat="49.3347" lon="-0.41797">
        <ele>3.2</ele>
        <time>2020-06-17T08:44:58Z</time>
      </trkpt>
      <trkpt lat="49.33469" lon="-0.4179">
        <ele>3.3</ele>
        <time>2020-06-17T08:44:59Z</time>
      </trkpt>
      <trkpt lat="49.33468" lon="-0.41783">
        <ele>3.3</ele>
        <time>2020-06-17T08:45:00Z</time>
      </trkpt>
      <trkpt lat="49.33468" lon="-0.41777">
        <ele>3.3</ele>
        <time>2020-06-17T08:45:01Z</time>
      </trkpt>
      <trkpt lat="49.33468" lon="-0.4177">
        <ele>3.4</ele>
        <time>2020-06-17T08:45:02Z</time>
      </trkpt>
      <trkpt lat="49.33468" lon="-0.41762">
        <ele>3.4</ele>
        <time>2020-06-17T08:45:03Z</time>
      </trkpt>
      <trkpt lat="49.33469" lon="-0.41756">
        <ele>3.4</ele>
        <time>2020-06-17T08:45:04Z</time>
      </trkpt>
      <trkpt lat="49.33471" lon="-0.41751">
        <ele>3.4</ele>
        <time>2020-06-17T08:45:05Z</time>
      </trkpt>
      <trkpt lat="49.33474" lon="-0.41749">
        <ele>3.4</ele>
        <time>2020-06-17T08:45:06Z</time>
      </trkpt>
      <trkpt lat="49.33477" lon="-0.41749">
        <ele>3.4</ele>
        <time>2020-06-17T08:45:07Z</time>
      </trkpt>
      <trkpt lat="49.33481" lon="-0.41747">
        <ele>3.4</ele>
        <time>2020-06-17T08:45:08Z</time>
      </trkpt>
      <trkpt lat="49.33485" lon="-0.41747">
        <ele>3.3</ele>
        <time>2020-06-17T08:45:09Z</time>
      </trkpt>
      <trkpt lat="49.3349" lon="-0.41745">
        <ele>3.3</ele>
        <time>2020-06-17T08:45:10Z</time>
      </trkpt>
      <trkpt lat="49.33495" lon="-0.41745">
        <ele>3.3</ele>
        <time>2020-06-17T08:45:11Z</time>
      </trkpt>
      <trkpt lat="49.33501" lon="-0.41745">
        <ele>3.3</ele>
        <time>2020-06-17T08:45:12Z</time>
      </trkpt>
      <trkpt lat="49.33507" lon="-0.41744">
        <ele>3.2</ele>
        <time>2020-06-17T08:45:13Z</time>
      </trkpt>
      <trkpt lat="49.33512" lon="-0.41744">
        <ele>3.2</ele>
        <time>2020-06-17T08:45:14Z</time>
      </trkpt>
      <trkpt lat="49.33517" lon="-0.41742">
        <ele>3.1</ele>
        <time>2020-06-17T08:45:15Z</time>
      </trkpt>
      <trkpt lat="49.33524" lon="-0.41742">
        <ele>3.1</ele>
        <time>2020-06-17T08:45:16Z</time>
      </trkpt>
      <trkpt lat="49.3353" lon="-0.41741">
        <ele>3.1</ele>
        <time>2020-06-17T08:45:17Z</time>
      </trkpt>
      <trkpt lat="49.33536" lon="-0.4174">
        <ele>3.1</ele>
        <time>2020-06-17T08:45:18Z</time>
      </trkpt>
      <trkpt lat="49.33542" lon="-0.41739">
        <ele>3.2</ele>
        <time>2020-06-17T08:45:19Z</time>
      </trkpt>
      <trkpt lat="49.33548" lon="-0.41738">
        <ele>3.2</ele>
        <time>2020-06-17T08:45:20Z</time>
      </trkpt>
      <trkpt lat="49.33552" lon="-0.41737">
        <ele>3.2</ele>
        <time>2020-06-17T08:45:21Z</time>
      </trkpt>
      <trkpt lat="49.33555" lon="-0.41736">
        <ele>3.2</ele>
        <time>2020-06-17T08:45:22Z</time>
      </trkpt>
      <trkpt lat="49.33558" lon="-0.41736">
        <ele>3.2</ele>
        <time>2020-06-17T08:45:23Z</time>
      </trkpt>
      <trkpt lat="49.33563" lon="-0.41735">
        <ele>3.2</ele>
        <time>2020-06-17T08:45:24Z</time>
      </trkpt>
      <trkpt lat="49.33567" lon="-0.41734">
        <ele>3.1</ele>
        <time>2020-06-17T08:45:25Z</time>
      </trkpt>
      <trkpt lat="49.3357" lon="-0.41733">
        <ele>3.1</ele>
        <time>2020-06-17T08:45:26Z</time>
      </trkpt>
      <trkpt lat="49.33573" lon="-0.41731">
        <ele>3.1</ele>
        <time>2020-06-17T08:45:27Z</time>
      </trkpt>
      <trkpt lat="49.33576" lon="-0.41729">
        <ele>3.1</ele>
        <time>2020-06-17T08:45:28Z</time>
      </trkpt>
      <trkpt lat="49.33578" lon="-0.41727">
        <ele>3.1</ele>
        <time>2020-06-17T08:45:29Z</time>
      </trkpt>
      <trkpt lat="49.33579" lon="-0.41725">
        <ele>3.1</ele>
        <time>2020-06-17T08:45:30Z</time>
      </trkpt>
      <trkpt lat="49.3358" lon="-0.41724">
        <ele>3.1</ele>
        <time>2020-06-17T08:45:31Z</time>
      </trkpt>
      <trkpt lat="49.33581" lon="-0.41722">
        <ele>3.1</ele>
        <time>2020-06-17T08:45:32Z</time>
      </trkpt>
      <trkpt lat="49.33582" lon="-0.41719">
        <ele>3.1</ele>
        <time>2020-06-17T08:45:33Z</time>
      </trkpt>
      <trkpt lat="49.33582" lon="-0.41717">
        <ele>3.1</ele>
        <time>2020-06-17T08:45:34Z</time>
      </trkpt>
      <trkpt lat="49.33581" lon="-0.41714">
        <ele>3.1</ele>
        <time>2020-06-17T08:45:35Z</time>
      </trkpt>
      <trkpt lat="49.33581" lon="-0.41712">
        <ele>3.1</ele>
        <time>2020-06-17T08:45:36Z</time>
      </trkpt>
      <trkpt lat="49.33581" lon="-0.4171">
        <ele>3.1</ele>
        <time>2020-06-17T08:45:37Z</time>
      </trkpt>
      <trkpt lat="49.33581" lon="-0.41708">
        <ele>3.1</ele>
        <time>2020-06-17T08:45:38Z</time>
      </trkpt>
      <trkpt lat="49.3358" lon="-0.41705">
        <ele>3.1</ele>
        <time>2020-06-17T08:45:39Z</time>
      </trkpt>
      <trkpt lat="49.3358" lon="-0.41703">
        <ele>3.1</ele>
        <time>2020-06-17T08:45:40Z</time>
      </trkpt>
      <trkpt lat="49.33579" lon="-0.41701">
        <ele>3.1</ele>
        <time>2020-06-17T08:45:41Z</time>
      </trkpt>
      <trkpt lat="49.3358" lon="-0.41699">
        <ele>3.1</ele>
        <time>2020-06-17T08:45:42Z</time>
      </trkpt>
      <trkpt lat="49.33579" lon="-0.41697">
        <ele>3.1</ele>
        <time>2020-06-17T08:45:43Z</time>
      </trkpt>
      <trkpt lat="49.33579" lon="-0.41695">
        <ele>3.1</ele>
        <time>2020-06-17T08:45:44Z</time>
      </trkpt>
      <trkpt lat="49.3358" lon="-0.41692">
        <ele>3.1</ele>
        <time>2020-06-17T08:45:45Z</time>
      </trkpt>
      <trkpt lat="49.33579" lon="-0.41688">
        <ele>3.1</ele>
        <time>2020-06-17T08:45:46Z</time>
      </trkpt>
      <trkpt lat="49.33579" lon="-0.41686">
        <ele>3.1</ele>
        <time>2020-06-17T08:45:47Z</time>
      </trkpt>
      <trkpt lat="49.33578" lon="-0.41681">
        <ele>3</ele>
        <time>2020-06-17T08:45:48Z</time>
      </trkpt>
      <trkpt lat="49.33577" lon="-0.41676">
        <ele>3</ele>
        <time>2020-06-17T08:45:49Z</time>
      </trkpt>
      <trkpt lat="49.33576" lon="-0.41671">
        <ele>3</ele>
        <time>2020-06-17T08:45:50Z</time>
      </trkpt>
      <trkpt lat="49.33575" lon="-0.41666">
        <ele>3</ele>
        <time>2020-06-17T08:45:51Z</time>
      </trkpt>
      <trkpt lat="49.33575" lon="-0.4166">
        <ele>3</ele>
        <time>2020-06-17T08:45:52Z</time>
      </trkpt>
      <trkpt lat="49.33574" lon="-0.41654">
        <ele>3</ele>
        <time>2020-06-17T08:45:53Z</time>
      </trkpt>
      <trkpt lat="49.33573" lon="-0.41648">
        <ele>3</ele>
        <time>2020-06-17T08:45:54Z</time>
      </trkpt>
      <trkpt lat="49.33573" lon="-0.41642">
        <ele>3</ele>
        <time>2020-06-17T08:45:55Z</time>
      </trkpt>
      <trkpt lat="49.33572" lon="-0.41637">
        <ele>3</ele>
        <time>2020-06-17T08:45:56Z</time>
      </trkpt>
      <trkpt lat="49.3357" lon="-0.41631">
        <ele>3</ele>
        <time>2020-06-17T08:45:57Z</time>
      </trkpt>
      <trkpt lat="49.33569" lon="-0.41626">
        <ele>3</ele>
        <time>2020-06-17T08:45:58Z</time>
      </trkpt>
      <trkpt lat="49.33569" lon="-0.41621">
        <ele>3</ele>
        <time>2020-06-17T08:45:59Z</time>
      </trkpt>
      <trkpt lat="49.33569" lon="-0.41616">
        <ele>3</ele>
        <time>2020-06-17T08:46:00Z</time>
      </trkpt>
      <trkpt lat="49.3357" lon="-0.41611">
        <ele>3</ele>
        <time>2020-06-17T08:46:01Z</time>
      </trkpt>
      <trkpt lat="49.33569" lon="-0.41606">
        <ele>3</ele>
        <time>2020-06-17T08:46:02Z</time>
      </trkpt>
      <trkpt lat="49.33569" lon="-0.41601">
        <ele>3</ele>
        <time>2020-06-17T08:46:03Z</time>
      </trkpt>
      <trkpt lat="49.33569" lon="-0.41595">
        <ele>3</ele>
        <time>2020-06-17T08:46:04Z</time>
      </trkpt>
      <trkpt lat="49.33569" lon="-0.4159">
        <ele>3</ele>
        <time>2020-06-17T08:46:05Z</time>
      </trkpt>
      <trkpt lat="49.3357" lon="-0.41585">
        <ele>3</ele>
        <time>2020-06-17T08:46:06Z</time>
      </trkpt>
      <trkpt lat="49.3357" lon="-0.4158">
        <ele>3</ele>
        <time>2020-06-17T08:46:07Z</time>
      </trkpt>
      <trkpt lat="49.3357" lon="-0.41574">
        <ele>3</ele>
        <time>2020-06-17T08:46:08Z</time>
      </trkpt>
      <trkpt lat="49.3357" lon="-0.41567">
        <ele>3</ele>
        <time>2020-06-17T08:46:09Z</time>
      </trkpt>
      <trkpt lat="49.33569" lon="-0.41559">
        <ele>3</ele>
        <time>2020-06-17T08:46:10Z</time>
      </trkpt>
      <trkpt lat="49.33569" lon="-0.41552">
        <ele>3</ele>
        <time>2020-06-17T08:46:11Z</time>
      </trkpt>
      <trkpt lat="49.33569" lon="-0.41546">
        <ele>3</ele>
        <time>2020-06-17T08:46:12Z</time>
      </trkpt>
      <trkpt lat="49.33568" lon="-0.4154">
        <ele>3</ele>
        <time>2020-06-17T08:46:13Z</time>
      </trkpt>
      <trkpt lat="49.33567" lon="-0.41534">
        <ele>3</ele>
        <time>2020-06-17T08:46:14Z</time>
      </trkpt>
      <trkpt lat="49.33568" lon="-0.41528">
        <ele>3.1</ele>
        <time>2020-06-17T08:46:15Z</time>
      </trkpt>
      <trkpt lat="49.33568" lon="-0.41522">
        <ele>3.1</ele>
        <time>2020-06-17T08:46:16Z</time>
      </trkpt>
      <trkpt lat="49.33569" lon="-0.41516">
        <ele>3.1</ele>
        <time>2020-06-17T08:46:17Z</time>
      </trkpt>
      <trkpt lat="49.33568" lon="-0.41509">
        <ele>3.1</ele>
        <time>2020-06-17T08:46:18Z</time>
      </trkpt>
      <trkpt lat="49.33567" lon="-0.41503">
        <ele>3.1</ele>
        <time>2020-06-17T08:46:19Z</time>
      </trkpt>
      <trkpt lat="49.33567" lon="-0.41497">
        <ele>3</ele>
        <time>2020-06-17T08:46:20Z</time>
      </trkpt>
      <trkpt lat="49.33566" lon="-0.41491">
        <ele>3</ele>
        <time>2020-06-17T08:46:21Z</time>
      </trkpt>
      <trkpt lat="49.33564" lon="-0.41485">
        <ele>3</ele>
        <time>2020-06-17T08:46:22Z</time>
      </trkpt>
      <trkpt lat="49.33564" lon="-0.4148">
        <ele>3</ele>
        <time>2020-06-17T08:46:23Z</time>
      </trkpt>
      <trkpt lat="49.33563" lon="-0.41474">
        <ele>3</ele>
        <time>2020-06-17T08:46:24Z</time>
      </trkpt>
      <trkpt lat="49.33562" lon="-0.41469">
        <ele>3</ele>
        <time>2020-06-17T08:46:25Z</time>
      </trkpt>
      <trkpt lat="49.3356" lon="-0.41463">
        <ele>3</ele>
        <time>2020-06-17T08:46:26Z</time>
      </trkpt>
      <trkpt lat="49.33559" lon="-0.41459">
        <ele>3</ele>
        <time>2020-06-17T08:46:27Z</time>
      </trkpt>
      <trkpt lat="49.33559" lon="-0.41453">
        <ele>3</ele>
        <time>2020-06-17T08:46:28Z</time>
      </trkpt>
      <trkpt lat="49.33559" lon="-0.41451">
        <ele>3</ele>
        <time>2020-06-17T08:46:29Z</time>
      </trkpt>
      <trkpt lat="49.3356" lon="-0.41447">
        <ele>3</ele>
        <time>2020-06-17T08:46:30Z</time>
      </trkpt>
      <trkpt lat="49.3356" lon="-0.41441">
        <ele>3</ele>
        <time>2020-06-17T08:46:31Z</time>
      </trkpt>
      <trkpt lat="49.3356" lon="-0.41435">
        <ele>3</ele>
        <time>2020-06-17T08:46:32Z</time>
      </trkpt>
      <trkpt lat="49.3356" lon="-0.41428">
        <ele>3.1</ele>
        <time>2020-06-17T08:46:33Z</time>
      </trkpt>
      <trkpt lat="49.33561" lon="-0.41422">
        <ele>3.1</ele>
        <time>2020-06-17T08:46:34Z</time>
      </trkpt>
      <trkpt lat="49.33561" lon="-0.41415">
        <ele>3.1</ele>
        <time>2020-06-17T08:46:35Z</time>
      </trkpt>
      <trkpt lat="49.33561" lon="-0.41408">
        <ele>3.1</ele>
        <time>2020-06-17T08:46:36Z</time>
      </trkpt>
      <trkpt lat="49.33561" lon="-0.41401">
        <ele>3.1</ele>
        <time>2020-06-17T08:46:37Z</time>
      </trkpt>
      <trkpt lat="49.33561" lon="-0.41394">
        <ele>3.1</ele>
        <time>2020-06-17T08:46:38Z</time>
      </trkpt>
      <trkpt lat="49.3356" lon="-0.41388">
        <ele>3.1</ele>
        <time>2020-06-17T08:46:39Z</time>
      </trkpt>
      <trkpt lat="49.3356" lon="-0.41382">
        <ele>3.1</ele>
        <time>2020-06-17T08:46:40Z</time>
      </trkpt>
      <trkpt lat="49.3356" lon="-0.41376">
        <ele>3.1</ele>
        <time>2020-06-17T08:46:41Z</time>
      </trkpt>
      <trkpt lat="49.3356" lon="-0.4137">
        <ele>3.1</ele>
        <time>2020-06-17T08:46:42Z</time>
      </trkpt>
      <trkpt lat="49.3356" lon="-0.41365">
        <ele>3.1</ele>
        <time>2020-06-17T08:46:43Z</time>
      </trkpt>
      <trkpt lat="49.3356" lon="-0.41359">
        <ele>3.1</ele>
        <time>2020-06-17T08:46:44Z</time>
      </trkpt>
      <trkpt lat="49.3356" lon="-0.41353">
        <ele>3.1</ele>
        <time>2020-06-17T08:46:45Z</time>
      </trkpt>
      <trkpt lat="49.33559" lon="-0.41346">
        <ele>3.1</ele>
        <time>2020-06-17T08:46:46Z</time>
      </trkpt>
      <trkpt lat="49.33559" lon="-0.41338">
        <ele>3.1</ele>
        <time>2020-06-17T08:46:47Z</time>
      </trkpt>
      <trkpt lat="49.33559" lon="-0.41328">
        <ele>3.1</ele>
        <time>2020-06-17T08:46:48Z</time>
      </trkpt>
      <trkpt lat="49.33558" lon="-0.41321">
        <ele>3.1</ele>
        <time>2020-06-17T08:46:49Z</time>
      </trkpt>
      <trkpt lat="49.33558" lon="-0.41315">
        <ele>3.1</ele>
        <time>2020-06-17T08:46:50Z</time>
      </trkpt>
      <trkpt lat="49.33557" lon="-0.41308">
        <ele>3.1</ele>
        <time>2020-06-17T08:46:51Z</time>
      </trkpt>
      <trkpt lat="49.33557" lon="-0.41301">
        <ele>3.1</ele>
        <time>2020-06-17T08:46:52Z</time>
      </trkpt>
      <trkpt lat="49.33557" lon="-0.41293">
        <ele>3.1</ele>
        <time>2020-06-17T08:46:53Z</time>
      </trkpt>
      <trkpt lat="49.33555" lon="-0.41285">
        <ele>3.1</ele>
        <time>2020-06-17T08:46:54Z</time>
      </trkpt>
      <trkpt lat="49.33554" lon="-0.41278">
        <ele>3.1</ele>
        <time>2020-06-17T08:46:55Z</time>
      </trkpt>
      <trkpt lat="49.33554" lon="-0.4127">
        <ele>3.1</ele>
        <time>2020-06-17T08:46:56Z</time>
      </trkpt>
      <trkpt lat="49.33552" lon="-0.41263">
        <ele>3.1</ele>
        <time>2020-06-17T08:46:57Z</time>
      </trkpt>
      <trkpt lat="49.3355" lon="-0.41255">
        <ele>3.1</ele>
        <time>2020-06-17T08:46:58Z</time>
      </trkpt>
      <trkpt lat="49.33549" lon="-0.41248">
        <ele>3.1</ele>
        <time>2020-06-17T08:46:59Z</time>
      </trkpt>
      <trkpt lat="49.33548" lon="-0.4124">
        <ele>3.1</ele>
        <time>2020-06-17T08:47:00Z</time>
      </trkpt>
      <trkpt lat="49.33547" lon="-0.41233">
        <ele>3.1</ele>
        <time>2020-06-17T08:47:01Z</time>
      </trkpt>
      <trkpt lat="49.33547" lon="-0.41225">
        <ele>3.1</ele>
        <time>2020-06-17T08:47:02Z</time>
      </trkpt>
      <trkpt lat="49.33547" lon="-0.41217">
        <ele>3.1</ele>
        <time>2020-06-17T08:47:03Z</time>
      </trkpt>
      <trkpt lat="49.33547" lon="-0.4121">
        <ele>3.1</ele>
        <time>2020-06-17T08:47:04Z</time>
      </trkpt>
      <trkpt lat="49.33546" lon="-0.41203">
        <ele>3.1</ele>
        <time>2020-06-17T08:47:05Z</time>
      </trkpt>
      <trkpt lat="49.33546" lon="-0.41197">
        <ele>3.1</ele>
        <time>2020-06-17T08:47:06Z</time>
      </trkpt>
      <trkpt lat="49.33545" lon="-0.4119">
        <ele>3.1</ele>
        <time>2020-06-17T08:47:07Z</time>
      </trkpt>
      <trkpt lat="49.33544" lon="-0.41183">
        <ele>3.1</ele>
        <time>2020-06-17T08:47:08Z</time>
      </trkpt>
      <trkpt lat="49.33543" lon="-0.41177">
        <ele>3.1</ele>
        <time>2020-06-17T08:47:09Z</time>
      </trkpt>
      <trkpt lat="49.33543" lon="-0.41171">
        <ele>3.1</ele>
        <time>2020-06-17T08:47:10Z</time>
      </trkpt>
      <trkpt lat="49.33543" lon="-0.41165">
        <ele>3.1</ele>
        <time>2020-06-17T08:47:11Z</time>
      </trkpt>
      <trkpt lat="49.33544" lon="-0.41158">
        <ele>3.1</ele>
        <time>2020-06-17T08:47:12Z</time>
      </trkpt>
      <trkpt lat="49.33544" lon="-0.41151">
        <ele>3.1</ele>
        <time>2020-06-17T08:47:13Z</time>
      </trkpt>
      <trkpt lat="49.33544" lon="-0.41145">
        <ele>3.1</ele>
        <time>2020-06-17T08:47:14Z</time>
      </trkpt>
      <trkpt lat="49.33544" lon="-0.41137">
        <ele>3.1</ele>
        <time>2020-06-17T08:47:15Z</time>
      </trkpt>
      <trkpt lat="49.33543" lon="-0.4113">
        <ele>3.2</ele>
        <time>2020-06-17T08:47:16Z</time>
      </trkpt>
      <trkpt lat="49.33542" lon="-0.41123">
        <ele>3.2</ele>
        <time>2020-06-17T08:47:17Z</time>
      </trkpt>
      <trkpt lat="49.33541" lon="-0.41117">
        <ele>3.2</ele>
        <time>2020-06-17T08:47:18Z</time>
      </trkpt>
      <trkpt lat="49.3354" lon="-0.41111">
        <ele>3.2</ele>
        <time>2020-06-17T08:47:19Z</time>
      </trkpt>
      <trkpt lat="49.33538" lon="-0.41105">
        <ele>3.3</ele>
        <time>2020-06-17T08:47:20Z</time>
      </trkpt>
      <trkpt lat="49.33537" lon="-0.41098">
        <ele>3.3</ele>
        <time>2020-06-17T08:47:21Z</time>
      </trkpt>
      <trkpt lat="49.33536" lon="-0.41092">
        <ele>3.3</ele>
        <time>2020-06-17T08:47:22Z</time>
      </trkpt>
      <trkpt lat="49.33535" lon="-0.41086">
        <ele>3.3</ele>
        <time>2020-06-17T08:47:23Z</time>
      </trkpt>
      <trkpt lat="49.33534" lon="-0.41081">
        <ele>3.3</ele>
        <time>2020-06-17T08:47:24Z</time>
      </trkpt>
      <trkpt lat="49.33533" lon="-0.41076">
        <ele>3.3</ele>
        <time>2020-06-17T08:47:25Z</time>
      </trkpt>
      <trkpt lat="49.33532" lon="-0.41071">
        <ele>3.3</ele>
        <time>2020-06-17T08:47:26Z</time>
      </trkpt>
      <trkpt lat="49.33531" lon="-0.41067">
        <ele>3.3</ele>
        <time>2020-06-17T08:47:27Z</time>
      </trkpt>
      <trkpt lat="49.3353" lon="-0.41062">
        <ele>3.2</ele>
        <time>2020-06-17T08:47:28Z</time>
      </trkpt>
      <trkpt lat="49.33529" lon="-0.4106">
        <ele>3.2</ele>
        <time>2020-06-17T08:47:29Z</time>
      </trkpt>
      <trkpt lat="49.33528" lon="-0.41057">
        <ele>3.2</ele>
        <time>2020-06-17T08:47:30Z</time>
      </trkpt>
      <trkpt lat="49.33527" lon="-0.41056">
        <ele>3.2</ele>
        <time>2020-06-17T08:47:31Z</time>
      </trkpt>
      <trkpt lat="49.33525" lon="-0.41054">
        <ele>3.2</ele>
        <time>2020-06-17T08:47:32Z</time>
      </trkpt>
      <trkpt lat="49.33524" lon="-0.41053">
        <ele>3.2</ele>
        <time>2020-06-17T08:47:33Z</time>
      </trkpt>
      <trkpt lat="49.33524" lon="-0.41052">
        <ele>3.2</ele>
        <time>2020-06-17T08:47:34Z</time>
      </trkpt>
      <trkpt lat="49.33523" lon="-0.41049">
        <ele>3.2</ele>
        <time>2020-06-17T08:47:35Z</time>
      </trkpt>
      <trkpt lat="49.33522" lon="-0.41044">
        <ele>3.2</ele>
        <time>2020-06-17T08:47:36Z</time>
      </trkpt>
      <trkpt lat="49.33523" lon="-0.41038">
        <ele>3.3</ele>
        <time>2020-06-17T08:47:37Z</time>
      </trkpt>
      <trkpt lat="49.33523" lon="-0.41036">
        <ele>3.3</ele>
        <time>2020-06-17T08:47:38Z</time>
      </trkpt>
      <trkpt lat="49.33524" lon="-0.41031">
        <ele>3.3</ele>
        <time>2020-06-17T08:47:39Z</time>
      </trkpt>
      <trkpt lat="49.33524" lon="-0.4103">
        <ele>3.3</ele>
        <time>2020-06-17T08:47:40Z</time>
      </trkpt>
      <trkpt lat="49.33526" lon="-0.41025">
        <ele>3.3</ele>
        <time>2020-06-17T08:47:41Z</time>
      </trkpt>
      <trkpt lat="49.33527" lon="-0.41023">
        <ele>3.3</ele>
        <time>2020-06-17T08:47:42Z</time>
      </trkpt>
      <trkpt lat="49.33527" lon="-0.41019">
        <ele>3.3</ele>
        <time>2020-06-17T08:47:43Z</time>
      </trkpt>
      <trkpt lat="49.33527" lon="-0.41014">
        <ele>3.3</ele>
        <time>2020-06-17T08:47:44Z</time>
      </trkpt>
      <trkpt lat="49.33527" lon="-0.41009">
        <ele>3.3</ele>
        <time>2020-06-17T08:47:45Z</time>
      </trkpt>
      <trkpt lat="49.33526" lon="-0.41004">
        <ele>3.3</ele>
        <time>2020-06-17T08:47:46Z</time>
      </trkpt>
      <trkpt lat="49.33525" lon="-0.40999">
        <ele>3.3</ele>
        <time>2020-06-17T08:47:47Z</time>
      </trkpt>
      <trkpt lat="49.33523" lon="-0.40994">
        <ele>3.3</ele>
        <time>2020-06-17T08:47:48Z</time>
      </trkpt>
      <trkpt lat="49.33522" lon="-0.40988">
        <ele>3.3</ele>
        <time>2020-06-17T08:47:49Z</time>
      </trkpt>
      <trkpt lat="49.33521" lon="-0.40982">
        <ele>3.3</ele>
        <time>2020-06-17T08:47:50Z</time>
      </trkpt>
      <trkpt lat="49.33521" lon="-0.40976">
        <ele>3.3</ele>
        <time>2020-06-17T08:47:51Z</time>
      </trkpt>
      <trkpt lat="49.33521" lon="-0.4097">
        <ele>3.3</ele>
        <time>2020-06-17T08:47:52Z</time>
      </trkpt>
      <trkpt lat="49.33521" lon="-0.40963">
        <ele>3.3</ele>
        <time>2020-06-17T08:47:53Z</time>
      </trkpt>
      <trkpt lat="49.33521" lon="-0.40957">
        <ele>3.3</ele>
        <time>2020-06-17T08:47:54Z</time>
      </trkpt>
      <trkpt lat="49.3352" lon="-0.40951">
        <ele>3.2</ele>
        <time>2020-06-17T08:47:55Z</time>
      </trkpt>
      <trkpt lat="49.3352" lon="-0.40946">
        <ele>3.2</ele>
        <time>2020-06-17T08:47:56Z</time>
      </trkpt>
      <trkpt lat="49.3352" lon="-0.40939">
        <ele>3.2</ele>
        <time>2020-06-17T08:47:57Z</time>
      </trkpt>
      <trkpt lat="49.33518" lon="-0.40934">
        <ele>3.2</ele>
        <time>2020-06-17T08:47:58Z</time>
      </trkpt>
      <trkpt lat="49.33516" lon="-0.40929">
        <ele>3.2</ele>
        <time>2020-06-17T08:47:59Z</time>
      </trkpt>
      <trkpt lat="49.33515" lon="-0.40923">
        <ele>3.2</ele>
        <time>2020-06-17T08:48:00Z</time>
      </trkpt>
      <trkpt lat="49.33513" lon="-0.40917">
        <ele>3.2</ele>
        <time>2020-06-17T08:48:01Z</time>
      </trkpt>
      <trkpt lat="49.33512" lon="-0.40911">
        <ele>3.2</ele>
        <time>2020-06-17T08:48:02Z</time>
      </trkpt>
      <trkpt lat="49.3351" lon="-0.40905">
        <ele>3.2</ele>
        <time>2020-06-17T08:48:03Z</time>
      </trkpt>
      <trkpt lat="49.33508" lon="-0.40898">
        <ele>3.2</ele>
        <time>2020-06-17T08:48:04Z</time>
      </trkpt>
      <trkpt lat="49.33506" lon="-0.40893">
        <ele>3.2</ele>
        <time>2020-06-17T08:48:05Z</time>
      </trkpt>
      <trkpt lat="49.33504" lon="-0.40887">
        <ele>3.2</ele>
        <time>2020-06-17T08:48:06Z</time>
      </trkpt>
      <trkpt lat="49.33503" lon="-0.40881">
        <ele>3.2</ele>
        <time>2020-06-17T08:48:07Z</time>
      </trkpt>
      <trkpt lat="49.33502" lon="-0.40875">
        <ele>3.2</ele>
        <time>2020-06-17T08:48:08Z</time>
      </trkpt>
      <trkpt lat="49.33501" lon="-0.40869">
        <ele>3.2</ele>
        <time>2020-06-17T08:48:09Z</time>
      </trkpt>
      <trkpt lat="49.335" lon="-0.40863">
        <ele>3.2</ele>
        <time>2020-06-17T08:48:10Z</time>
      </trkpt>
      <trkpt lat="49.33499" lon="-0.40856">
        <ele>3.2</ele>
        <time>2020-06-17T08:48:11Z</time>
      </trkpt>
      <trkpt lat="49.33497" lon="-0.40849">
        <ele>3.2</ele>
        <time>2020-06-17T08:48:12Z</time>
      </trkpt>
      <trkpt lat="49.33496" lon="-0.40843">
        <ele>3.2</ele>
        <time>2020-06-17T08:48:13Z</time>
      </trkpt>
      <trkpt lat="49.33495" lon="-0.40838">
        <ele>3.2</ele>
        <time>2020-06-17T08:48:14Z</time>
      </trkpt>
      <trkpt lat="49.33494" lon="-0.40833">
        <ele>3.2</ele>
        <time>2020-06-17T08:48:15Z</time>
      </trkpt>
      <trkpt lat="49.33492" lon="-0.40826">
        <ele>3.2</ele>
        <time>2020-06-17T08:48:16Z</time>
      </trkpt>
      <trkpt lat="49.33491" lon="-0.40819">
        <ele>3.2</ele>
        <time>2020-06-17T08:48:17Z</time>
      </trkpt>
      <trkpt lat="49.3349" lon="-0.40814">
        <ele>3.2</ele>
        <time>2020-06-17T08:48:18Z</time>
      </trkpt>
      <trkpt lat="49.33489" lon="-0.40809">
        <ele>3.2</ele>
        <time>2020-06-17T08:48:19Z</time>
      </trkpt>
      <trkpt lat="49.33488" lon="-0.40803">
        <ele>3.2</ele>
        <time>2020-06-17T08:48:20Z</time>
      </trkpt>
      <trkpt lat="49.33487" lon="-0.40797">
        <ele>3.2</ele>
        <time>2020-06-17T08:48:21Z</time>
      </trkpt>
      <trkpt lat="49.33486" lon="-0.40792">
        <ele>3.2</ele>
        <time>2020-06-17T08:48:22Z</time>
      </trkpt>
      <trkpt lat="49.33484" lon="-0.40787">
        <ele>3.2</ele>
        <time>2020-06-17T08:48:23Z</time>
      </trkpt>
      <trkpt lat="49.33483" lon="-0.4078">
        <ele>3.2</ele>
        <time>2020-06-17T08:48:24Z</time>
      </trkpt>
      <trkpt lat="49.3348" lon="-0.40773">
        <ele>3.2</ele>
        <time>2020-06-17T08:48:25Z</time>
      </trkpt>
      <trkpt lat="49.33479" lon="-0.40766">
        <ele>3.2</ele>
        <time>2020-06-17T08:48:26Z</time>
      </trkpt>
      <trkpt lat="49.33478" lon="-0.4076">
        <ele>3.2</ele>
        <time>2020-06-17T08:48:27Z</time>
      </trkpt>
      <trkpt lat="49.33477" lon="-0.40755">
        <ele>3.2</ele>
        <time>2020-06-17T08:48:28Z</time>
      </trkpt>
      <trkpt lat="49.33476" lon="-0.40751">
        <ele>3.2</ele>
        <time>2020-06-17T08:48:29Z</time>
      </trkpt>
      <trkpt lat="49.33474" lon="-0.40745">
        <ele>3.2</ele>
        <time>2020-06-17T08:48:30Z</time>
      </trkpt>
      <trkpt lat="49.33473" lon="-0.40739">
        <ele>3.2</ele>
        <time>2020-06-17T08:48:31Z</time>
      </trkpt>
      <trkpt lat="49.3347" lon="-0.40734">
        <ele>3.2</ele>
        <time>2020-06-17T08:48:32Z</time>
      </trkpt>
      <trkpt lat="49.33469" lon="-0.40728">
        <ele>3.2</ele>
        <time>2020-06-17T08:48:33Z</time>
      </trkpt>
      <trkpt lat="49.33469" lon="-0.40722">
        <ele>3.2</ele>
        <time>2020-06-17T08:48:34Z</time>
      </trkpt>
      <trkpt lat="49.33468" lon="-0.40717">
        <ele>3.2</ele>
        <time>2020-06-17T08:48:35Z</time>
      </trkpt>
      <trkpt lat="49.33468" lon="-0.40711">
        <ele>3.2</ele>
        <time>2020-06-17T08:48:36Z</time>
      </trkpt>
      <trkpt lat="49.33467" lon="-0.40706">
        <ele>3.2</ele>
        <time>2020-06-17T08:48:37Z</time>
      </trkpt>
      <trkpt lat="49.33467" lon="-0.40701">
        <ele>3.2</ele>
        <time>2020-06-17T08:48:38Z</time>
      </trkpt>
      <trkpt lat="49.33466" lon="-0.40696">
        <ele>3.2</ele>
        <time>2020-06-17T08:48:39Z</time>
      </trkpt>
      <trkpt lat="49.33465" lon="-0.40691">
        <ele>3.2</ele>
        <time>2020-06-17T08:48:40Z</time>
      </trkpt>
      <trkpt lat="49.33463" lon="-0.40684">
        <ele>3.2</ele>
        <time>2020-06-17T08:48:41Z</time>
      </trkpt>
      <trkpt lat="49.33462" lon="-0.40679">
        <ele>3.2</ele>
        <time>2020-06-17T08:48:42Z</time>
      </trkpt>
      <trkpt lat="49.33461" lon="-0.40673">
        <ele>3.3</ele>
        <time>2020-06-17T08:48:43Z</time>
      </trkpt>
      <trkpt lat="49.33461" lon="-0.40668">
        <ele>3.3</ele>
        <time>2020-06-17T08:48:44Z</time>
      </trkpt>
      <trkpt lat="49.3346" lon="-0.40662">
        <ele>3.3</ele>
        <time>2020-06-17T08:48:45Z</time>
      </trkpt>
      <trkpt lat="49.3346" lon="-0.40657">
        <ele>3.3</ele>
        <time>2020-06-17T08:48:46Z</time>
      </trkpt>
      <trkpt lat="49.3346" lon="-0.40652">
        <ele>3.3</ele>
        <time>2020-06-17T08:48:47Z</time>
      </trkpt>
      <trkpt lat="49.3346" lon="-0.40647">
        <ele>3.3</ele>
        <time>2020-06-17T08:48:48Z</time>
      </trkpt>
      <trkpt lat="49.3346" lon="-0.40641">
        <ele>3.3</ele>
        <time>2020-06-17T08:48:49Z</time>
      </trkpt>
      <trkpt lat="49.3346" lon="-0.40636">
        <ele>3.3</ele>
        <time>2020-06-17T08:48:50Z</time>
      </trkpt>
      <trkpt lat="49.33459" lon="-0.4063">
        <ele>3.3</ele>
        <time>2020-06-17T08:48:51Z</time>
      </trkpt>
      <trkpt lat="49.33458" lon="-0.40624">
        <ele>3.3</ele>
        <time>2020-06-17T08:48:52Z</time>
      </trkpt>
      <trkpt lat="49.33458" lon="-0.40618">
        <ele>3.3</ele>
        <time>2020-06-17T08:48:53Z</time>
      </trkpt>
      <trkpt lat="49.33457" lon="-0.40612">
        <ele>3.3</ele>
        <time>2020-06-17T08:48:54Z</time>
      </trkpt>
      <trkpt lat="49.33456" lon="-0.40607">
        <ele>3.3</ele>
        <time>2020-06-17T08:48:55Z</time>
      </trkpt>
      <trkpt lat="49.33456" lon="-0.40602">
        <ele>3.4</ele>
        <time>2020-06-17T08:48:56Z</time>
      </trkpt>
      <trkpt lat="49.33455" lon="-0.40597">
        <ele>3.4</ele>
        <time>2020-06-17T08:48:57Z</time>
      </trkpt>
      <trkpt lat="49.33455" lon="-0.40592">
        <ele>3.4</ele>
        <time>2020-06-17T08:48:58Z</time>
      </trkpt>
      <trkpt lat="49.33454" lon="-0.40587">
        <ele>3.4</ele>
        <time>2020-06-17T08:48:59Z</time>
      </trkpt>
      <trkpt lat="49.33453" lon="-0.4058">
        <ele>3.4</ele>
        <time>2020-06-17T08:49:00Z</time>
      </trkpt>
      <trkpt lat="49.33452" lon="-0.40574">
        <ele>3.4</ele>
        <time>2020-06-17T08:49:01Z</time>
      </trkpt>
      <trkpt lat="49.33451" lon="-0.40569">
        <ele>3.4</ele>
        <time>2020-06-17T08:49:02Z</time>
      </trkpt>
      <trkpt lat="49.33451" lon="-0.40564">
        <ele>3.4</ele>
        <time>2020-06-17T08:49:03Z</time>
      </trkpt>
      <trkpt lat="49.3345" lon="-0.40558">
        <ele>3.4</ele>
        <time>2020-06-17T08:49:04Z</time>
      </trkpt>
      <trkpt lat="49.33449" lon="-0.40553">
        <ele>3.4</ele>
        <time>2020-06-17T08:49:05Z</time>
      </trkpt>
      <trkpt lat="49.33448" lon="-0.40547">
        <ele>3.4</ele>
        <time>2020-06-17T08:49:06Z</time>
      </trkpt>
      <trkpt lat="49.33447" lon="-0.4054">
        <ele>3.4</ele>
        <time>2020-06-17T08:49:07Z</time>
      </trkpt>
      <trkpt lat="49.33446" lon="-0.40533">
        <ele>3.5</ele>
        <time>2020-06-17T08:49:08Z</time>
      </trkpt>
      <trkpt lat="49.33445" lon="-0.40526">
        <ele>3.5</ele>
        <time>2020-06-17T08:49:09Z</time>
      </trkpt>
      <trkpt lat="49.33443" lon="-0.40521">
        <ele>3.5</ele>
        <time>2020-06-17T08:49:10Z</time>
      </trkpt>
      <trkpt lat="49.33442" lon="-0.40515">
        <ele>3.5</ele>
        <time>2020-06-17T08:49:11Z</time>
      </trkpt>
      <trkpt lat="49.3344" lon="-0.40508">
        <ele>3.5</ele>
        <time>2020-06-17T08:49:12Z</time>
      </trkpt>
      <trkpt lat="49.33439" lon="-0.405">
        <ele>3.5</ele>
        <time>2020-06-17T08:49:13Z</time>
      </trkpt>
      <trkpt lat="49.33438" lon="-0.40494">
        <ele>3.5</ele>
        <time>2020-06-17T08:49:14Z</time>
      </trkpt>
      <trkpt lat="49.33437" lon="-0.40487">
        <ele>3.5</ele>
        <time>2020-06-17T08:49:15Z</time>
      </trkpt>
      <trkpt lat="49.33436" lon="-0.4048">
        <ele>3.5</ele>
        <time>2020-06-17T08:49:16Z</time>
      </trkpt>
      <trkpt lat="49.33435" lon="-0.40474">
        <ele>3.4</ele>
        <time>2020-06-17T08:49:17Z</time>
      </trkpt>
      <trkpt lat="49.33434" lon="-0.40468">
        <ele>3.4</ele>
        <time>2020-06-17T08:49:18Z</time>
      </trkpt>
      <trkpt lat="49.33433" lon="-0.40463">
        <ele>3.4</ele>
        <time>2020-06-17T08:49:19Z</time>
      </trkpt>
      <trkpt lat="49.33431" lon="-0.40458">
        <ele>3.4</ele>
        <time>2020-06-17T08:49:20Z</time>
      </trkpt>
      <trkpt lat="49.3343" lon="-0.40451">
        <ele>3.4</ele>
        <time>2020-06-17T08:49:21Z</time>
      </trkpt>
      <trkpt lat="49.33428" lon="-0.40445">
        <ele>3.4</ele>
        <time>2020-06-17T08:49:22Z</time>
      </trkpt>
      <trkpt lat="49.33427" lon="-0.40439">
        <ele>3.4</ele>
        <time>2020-06-17T08:49:23Z</time>
      </trkpt>
      <trkpt lat="49.33426" lon="-0.40434">
        <ele>3.4</ele>
        <time>2020-06-17T08:49:24Z</time>
      </trkpt>
      <trkpt lat="49.33424" lon="-0.40428">
        <ele>3.4</ele>
        <time>2020-06-17T08:49:25Z</time>
      </trkpt>
      <trkpt lat="49.33423" lon="-0.40421">
        <ele>3.5</ele>
        <time>2020-06-17T08:49:26Z</time>
      </trkpt>
      <trkpt lat="49.33421" lon="-0.40415">
        <ele>3.5</ele>
        <time>2020-06-17T08:49:27Z</time>
      </trkpt>
      <trkpt lat="49.3342" lon="-0.40408">
        <ele>3.5</ele>
        <time>2020-06-17T08:49:28Z</time>
      </trkpt>
      <trkpt lat="49.33419" lon="-0.404">
        <ele>3.5</ele>
        <time>2020-06-17T08:49:29Z</time>
      </trkpt>
      <trkpt lat="49.33418" lon="-0.40394">
        <ele>3.5</ele>
        <time>2020-06-17T08:49:30Z</time>
      </trkpt>
      <trkpt lat="49.33418" lon="-0.40389">
        <ele>3.5</ele>
        <time>2020-06-17T08:49:31Z</time>
      </trkpt>
      <trkpt lat="49.33418" lon="-0.40384">
        <ele>3.5</ele>
        <time>2020-06-17T08:49:32Z</time>
      </trkpt>
      <trkpt lat="49.33418" lon="-0.40379">
        <ele>3.6</ele>
        <time>2020-06-17T08:49:33Z</time>
      </trkpt>
      <trkpt lat="49.33417" lon="-0.40372">
        <ele>3.6</ele>
        <time>2020-06-17T08:49:34Z</time>
      </trkpt>
      <trkpt lat="49.33416" lon="-0.40365">
        <ele>3.6</ele>
        <time>2020-06-17T08:49:35Z</time>
      </trkpt>
      <trkpt lat="49.33416" lon="-0.40358">
        <ele>3.7</ele>
        <time>2020-06-17T08:49:36Z</time>
      </trkpt>
      <trkpt lat="49.33414" lon="-0.40351">
        <ele>3.7</ele>
        <time>2020-06-17T08:49:37Z</time>
      </trkpt>
      <trkpt lat="49.33413" lon="-0.40345">
        <ele>3.7</ele>
        <time>2020-06-17T08:49:38Z</time>
      </trkpt>
      <trkpt lat="49.33412" lon="-0.40338">
        <ele>3.8</ele>
        <time>2020-06-17T08:49:39Z</time>
      </trkpt>
      <trkpt lat="49.33411" lon="-0.4033">
        <ele>3.8</ele>
        <time>2020-06-17T08:49:40Z</time>
      </trkpt>
      <trkpt lat="49.33411" lon="-0.40323">
        <ele>3.9</ele>
        <time>2020-06-17T08:49:41Z</time>
      </trkpt>
      <trkpt lat="49.3341" lon="-0.40315">
        <ele>4</ele>
        <time>2020-06-17T08:49:42Z</time>
      </trkpt>
      <trkpt lat="49.3341" lon="-0.40309">
        <ele>4</ele>
        <time>2020-06-17T08:49:43Z</time>
      </trkpt>
      <trkpt lat="49.33408" lon="-0.40305">
        <ele>4</ele>
        <time>2020-06-17T08:49:44Z</time>
      </trkpt>
      <trkpt lat="49.33405" lon="-0.40301">
        <ele>4.1</ele>
        <time>2020-06-17T08:49:45Z</time>
      </trkpt>
      <trkpt lat="49.33402" lon="-0.40299">
        <ele>4.2</ele>
        <time>2020-06-17T08:49:46Z</time>
      </trkpt>
      <trkpt lat="49.33399" lon="-0.40297">
        <ele>4.2</ele>
        <time>2020-06-17T08:49:47Z</time>
      </trkpt>
      <trkpt lat="49.33396" lon="-0.40294">
        <ele>4.3</ele>
        <time>2020-06-17T08:49:48Z</time>
      </trkpt>
      <trkpt lat="49.33393" lon="-0.40291">
        <ele>4.3</ele>
        <time>2020-06-17T08:49:49Z</time>
      </trkpt>
      <trkpt lat="49.33392" lon="-0.4029">
        <ele>4.3</ele>
        <time>2020-06-17T08:49:50Z</time>
      </trkpt>
      <trkpt lat="49.33389" lon="-0.40287">
        <ele>4.4</ele>
        <time>2020-06-17T08:49:51Z</time>
      </trkpt>
      <trkpt lat="49.33388" lon="-0.40287">
        <ele>4.4</ele>
        <time>2020-06-17T08:49:52Z</time>
      </trkpt>
      <trkpt lat="49.33387" lon="-0.40283">
        <ele>4.4</ele>
        <time>2020-06-17T08:49:53Z</time>
      </trkpt>
      <trkpt lat="49.33386" lon="-0.40282">
        <ele>4.4</ele>
        <time>2020-06-17T08:49:54Z</time>
      </trkpt>
      <trkpt lat="49.33384" lon="-0.40277">
        <ele>4.5</ele>
        <time>2020-06-17T08:49:55Z</time>
      </trkpt>
      <trkpt lat="49.33383" lon="-0.40275">
        <ele>4.5</ele>
        <time>2020-06-17T08:49:56Z</time>
      </trkpt>
      <trkpt lat="49.33381" lon="-0.4027">
        <ele>4.5</ele>
        <time>2020-06-17T08:49:57Z</time>
      </trkpt>
      <trkpt lat="49.3338" lon="-0.40265">
        <ele>4.5</ele>
        <time>2020-06-17T08:49:58Z</time>
      </trkpt>
      <trkpt lat="49.33379" lon="-0.4026">
        <ele>4.5</ele>
        <time>2020-06-17T08:49:59Z</time>
      </trkpt>
      <trkpt lat="49.33377" lon="-0.40254">
        <ele>4.5</ele>
        <time>2020-06-17T08:50:00Z</time>
      </trkpt>
      <trkpt lat="49.33376" lon="-0.40249">
        <ele>4.5</ele>
        <time>2020-06-17T08:50:01Z</time>
      </trkpt>
      <trkpt lat="49.33374" lon="-0.40244">
        <ele>4.5</ele>
        <time>2020-06-17T08:50:02Z</time>
      </trkpt>
      <trkpt lat="49.33373" lon="-0.40239">
        <ele>4.6</ele>
        <time>2020-06-17T08:50:03Z</time>
      </trkpt>
      <trkpt lat="49.33372" lon="-0.40234">
        <ele>4.6</ele>
        <time>2020-06-17T08:50:04Z</time>
      </trkpt>
      <trkpt lat="49.33371" lon="-0.40229">
        <ele>4.6</ele>
        <time>2020-06-17T08:50:05Z</time>
      </trkpt>
      <trkpt lat="49.3337" lon="-0.40225">
        <ele>4.7</ele>
        <time>2020-06-17T08:50:06Z</time>
      </trkpt>
      <trkpt lat="49.33369" lon="-0.40219">
        <ele>4.7</ele>
        <time>2020-06-17T08:50:07Z</time>
      </trkpt>
      <trkpt lat="49.33368" lon="-0.40214">
        <ele>4.7</ele>
        <time>2020-06-17T08:50:08Z</time>
      </trkpt>
      <trkpt lat="49.33367" lon="-0.40208">
        <ele>4.7</ele>
        <time>2020-06-17T08:50:09Z</time>
      </trkpt>
      <trkpt lat="49.33368" lon="-0.402">
        <ele>4.8</ele>
        <time>2020-06-17T08:50:10Z</time>
      </trkpt>
      <trkpt lat="49.33367" lon="-0.40192">
        <ele>4.8</ele>
        <time>2020-06-17T08:50:11Z</time>
      </trkpt>
      <trkpt lat="49.33366" lon="-0.40184">
        <ele>4.8</ele>
        <time>2020-06-17T08:50:12Z</time>
      </trkpt>
      <trkpt lat="49.33365" lon="-0.40178">
        <ele>4.8</ele>
        <time>2020-06-17T08:50:13Z</time>
      </trkpt>
      <trkpt lat="49.33364" lon="-0.40172">
        <ele>4.8</ele>
        <time>2020-06-17T08:50:14Z</time>
      </trkpt>
      <trkpt lat="49.33363" lon="-0.40167">
        <ele>4.8</ele>
        <time>2020-06-17T08:50:15Z</time>
      </trkpt>
      <trkpt lat="49.33363" lon="-0.40161">
        <ele>4.9</ele>
        <time>2020-06-17T08:50:16Z</time>
      </trkpt>
      <trkpt lat="49.33362" lon="-0.40155">
        <ele>4.9</ele>
        <time>2020-06-17T08:50:17Z</time>
      </trkpt>
      <trkpt lat="49.33361" lon="-0.40148">
        <ele>4.9</ele>
        <time>2020-06-17T08:50:18Z</time>
      </trkpt>
      <trkpt lat="49.33359" lon="-0.40142">
        <ele>4.9</ele>
        <time>2020-06-17T08:50:19Z</time>
      </trkpt>
      <trkpt lat="49.33358" lon="-0.40135">
        <ele>4.9</ele>
        <time>2020-06-17T08:50:20Z</time>
      </trkpt>
      <trkpt lat="49.33357" lon="-0.40129">
        <ele>4.9</ele>
        <time>2020-06-17T08:50:21Z</time>
      </trkpt>
      <trkpt lat="49.33355" lon="-0.40125">
        <ele>5</ele>
        <time>2020-06-17T08:50:22Z</time>
      </trkpt>
      <trkpt lat="49.33352" lon="-0.40121">
        <ele>5</ele>
        <time>2020-06-17T08:50:23Z</time>
      </trkpt>
      <trkpt lat="49.3335" lon="-0.40117">
        <ele>5</ele>
        <time>2020-06-17T08:50:24Z</time>
      </trkpt>
      <trkpt lat="49.33347" lon="-0.40114">
        <ele>5</ele>
        <time>2020-06-17T08:50:25Z</time>
      </trkpt>
      <trkpt lat="49.33344" lon="-0.40111">
        <ele>5</ele>
        <time>2020-06-17T08:50:26Z</time>
      </trkpt>
      <trkpt lat="49.33343" lon="-0.40106">
        <ele>5</ele>
        <time>2020-06-17T08:50:27Z</time>
      </trkpt>
      <trkpt lat="49.33342" lon="-0.40104">
        <ele>5</ele>
        <time>2020-06-17T08:50:28Z</time>
      </trkpt>
      <trkpt lat="49.33341" lon="-0.401">
        <ele>5</ele>
        <time>2020-06-17T08:50:29Z</time>
      </trkpt>
      <trkpt lat="49.3334" lon="-0.40099">
        <ele>5</ele>
        <time>2020-06-17T08:50:30Z</time>
      </trkpt>
      <trkpt lat="49.33339" lon="-0.40095">
        <ele>5</ele>
        <time>2020-06-17T08:50:31Z</time>
      </trkpt>
      <trkpt lat="49.33338" lon="-0.40094">
        <ele>5.1</ele>
        <time>2020-06-17T08:50:32Z</time>
      </trkpt>
      <trkpt lat="49.33338" lon="-0.40092">
        <ele>5.1</ele>
        <time>2020-06-17T08:50:33Z</time>
      </trkpt>
      <trkpt lat="49.33338" lon="-0.40091">
        <ele>5.1</ele>
        <time>2020-06-17T08:50:34Z</time>
      </trkpt>
      <trkpt lat="49.33338" lon="-0.40091">
        <ele>5.1</ele>
        <time>2020-06-17T08:50:35Z</time>
      </trkpt>
      <trkpt lat="49.33338" lon="-0.4009">
        <ele>5.1</ele>
        <time>2020-06-17T08:50:36Z</time>
      </trkpt>
      <trkpt lat="49.33338" lon="-0.4009">
        <ele>5.1</ele>
        <time>2020-06-17T08:50:37Z</time>
      </trkpt>
      <trkpt lat="49.33338" lon="-0.4009">
        <ele>5.1</ele>
        <time>2020-06-17T08:50:38Z</time>
      </trkpt>
      <trkpt lat="49.33338" lon="-0.4009">
        <ele>5.1</ele>
        <time>2020-06-17T08:50:39Z</time>
      </trkpt>
      <trkpt lat="49.33338" lon="-0.4009">
        <ele>5.1</ele>
        <time>2020-06-17T08:50:40Z</time>
      </trkpt>
      <trkpt lat="49.33337" lon="-0.40089">
        <ele>5.1</ele>
        <time>2020-06-17T08:50:41Z</time>
      </trkpt>
      <trkpt lat="49.33337" lon="-0.40089">
        <ele>5.1</ele>
        <time>2020-06-17T08:50:42Z</time>
      </trkpt>
      <trkpt lat="49.33336" lon="-0.40089">
        <ele>5.1</ele>
        <time>2020-06-17T08:50:43Z</time>
      </trkpt>
      <trkpt lat="49.33337" lon="-0.40089">
        <ele>5.1</ele>
        <time>2020-06-17T08:50:44Z</time>
      </trkpt>
      <trkpt lat="49.33337" lon="-0.40088">
        <ele>5.1</ele>
        <time>2020-06-17T08:50:45Z</time>
      </trkpt>
      <trkpt lat="49.33337" lon="-0.40088">
        <ele>5.1</ele>
        <time>2020-06-17T08:50:46Z</time>
      </trkpt>
      <trkpt lat="49.33336" lon="-0.40088">
        <ele>5.1</ele>
        <time>2020-06-17T08:50:47Z</time>
      </trkpt>
      <trkpt lat="49.33335" lon="-0.40088">
        <ele>5.1</ele>
        <time>2020-06-17T08:50:48Z</time>
      </trkpt>
      <trkpt lat="49.33331" lon="-0.40087">
        <ele>5.4</ele>
        <time>2020-06-17T08:50:49Z</time>
      </trkpt>
      <trkpt lat="49.3333" lon="-0.40086">
        <ele>5.5</ele>
        <time>2020-06-17T08:50:50Z</time>
      </trkpt>
      <trkpt lat="49.33329" lon="-0.40085">
        <ele>5.5</ele>
        <time>2020-06-17T08:50:51Z</time>
      </trkpt>
      <trkpt lat="49.33328" lon="-0.40086">
        <ele>5.6</ele>
        <time>2020-06-17T08:50:52Z</time>
      </trkpt>
      <trkpt lat="49.33326" lon="-0.40086">
        <ele>5.6</ele>
        <time>2020-06-17T08:50:53Z</time>
      </trkpt>
      <trkpt lat="49.33324" lon="-0.40086">
        <ele>5.7</ele>
        <time>2020-06-17T08:50:54Z</time>
      </trkpt>
      <trkpt lat="49.33323" lon="-0.40086">
        <ele>5.7</ele>
        <time>2020-06-17T08:50:55Z</time>
      </trkpt>
      <trkpt lat="49.33322" lon="-0.40086">
        <ele>5.7</ele>
        <time>2020-06-17T08:50:56Z</time>
      </trkpt>
      <trkpt lat="49.33322" lon="-0.40087">
        <ele>5.7</ele>
        <time>2020-06-17T08:50:57Z</time>
      </trkpt>
      <trkpt lat="49.33322" lon="-0.40087">
        <ele>5.7</ele>
        <time>2020-06-17T08:50:58Z</time>
      </trkpt>
      <trkpt lat="49.33321" lon="-0.40087">
        <ele>5.8</ele>
        <time>2020-06-17T08:50:59Z</time>
      </trkpt>
      <trkpt lat="49.3332" lon="-0.40087">
        <ele>6.1</ele>
        <time>2020-06-17T08:51:00Z</time>
      </trkpt>
      <trkpt lat="49.3332" lon="-0.40086">
        <ele>6.2</ele>
        <time>2020-06-17T08:51:01Z</time>
      </trkpt>
      <trkpt lat="49.33319" lon="-0.40085">
        <ele>6.3</ele>
        <time>2020-06-17T08:51:02Z</time>
      </trkpt>
      <trkpt lat="49.33318" lon="-0.40085">
        <ele>6.4</ele>
        <time>2020-06-17T08:51:03Z</time>
      </trkpt>
      <trkpt lat="49.33317" lon="-0.40084">
        <ele>6.5</ele>
        <time>2020-06-17T08:51:04Z</time>
      </trkpt>
      <trkpt lat="49.33316" lon="-0.40084">
        <ele>6.7</ele>
        <time>2020-06-17T08:51:05Z</time>
      </trkpt>
      <trkpt lat="49.33314" lon="-0.40084">
        <ele>6.9</ele>
        <time>2020-06-17T08:51:06Z</time>
      </trkpt>
      <trkpt lat="49.33314" lon="-0.40083">
        <ele>7</ele>
        <time>2020-06-17T08:51:07Z</time>
      </trkpt>
      <trkpt lat="49.33313" lon="-0.40083">
        <ele>7.1</ele>
        <time>2020-06-17T08:51:08Z</time>
      </trkpt>
      <trkpt lat="49.33312" lon="-0.40083">
        <ele>7.2</ele>
        <time>2020-06-17T08:51:09Z</time>
      </trkpt>
      <trkpt lat="49.33311" lon="-0.40082">
        <ele>7.3</ele>
        <time>2020-06-17T08:51:10Z</time>
      </trkpt>
      <trkpt lat="49.33309" lon="-0.40082">
        <ele>7.5</ele>
        <time>2020-06-17T08:51:11Z</time>
      </trkpt>
      <trkpt lat="49.33308" lon="-0.40082">
        <ele>7.7</ele>
        <time>2020-06-17T08:51:12Z</time>
      </trkpt>
      <trkpt lat="49.33307" lon="-0.40082">
        <ele>7.9</ele>
        <time>2020-06-17T08:51:13Z</time>
      </trkpt>
      <trkpt lat="49.33306" lon="-0.40082">
        <ele>7.9</ele>
        <time>2020-06-17T08:51:14Z</time>
      </trkpt>
      <trkpt lat="49.33306" lon="-0.40083">
        <ele>8</ele>
        <time>2020-06-17T08:51:15Z</time>
      </trkpt>
      <trkpt lat="49.33305" lon="-0.40083">
        <ele>8.2</ele>
        <time>2020-06-17T08:51:16Z</time>
      </trkpt>
      <trkpt lat="49.33305" lon="-0.40083">
        <ele>8.2</ele>
        <time>2020-06-17T08:51:17Z</time>
      </trkpt>
      <trkpt lat="49.33305" lon="-0.40085">
        <ele>8.2</ele>
        <time>2020-06-17T08:51:18Z</time>
      </trkpt>
      <trkpt lat="49.33304" lon="-0.40085">
        <ele>8.2</ele>
        <time>2020-06-17T08:51:19Z</time>
      </trkpt>
      <trkpt lat="49.33304" lon="-0.40085">
        <ele>8.2</ele>
        <time>2020-06-17T08:51:20Z</time>
      </trkpt>
      <trkpt lat="49.33304" lon="-0.40086">
        <ele>8.2</ele>
        <time>2020-06-17T08:51:21Z</time>
      </trkpt>
      <trkpt lat="49.33304" lon="-0.40088">
        <ele>8.2</ele>
        <time>2020-06-17T08:51:22Z</time>
      </trkpt>
      <trkpt lat="49.33305" lon="-0.4009">
        <ele>8.2</ele>
        <time>2020-06-17T08:51:23Z</time>
      </trkpt>
      <trkpt lat="49.33305" lon="-0.40091">
        <ele>8.2</ele>
        <time>2020-06-17T08:51:24Z</time>
      </trkpt>
      <trkpt lat="49.33307" lon="-0.40094">
        <ele>8</ele>
        <time>2020-06-17T08:51:25Z</time>
      </trkpt>
      <trkpt lat="49.33308" lon="-0.40098">
        <ele>8.2</ele>
        <time>2020-06-17T08:51:26Z</time>
      </trkpt>
      <trkpt lat="49.33308" lon="-0.40099">
        <ele>8.2</ele>
        <time>2020-06-17T08:51:27Z</time>
      </trkpt>
      <trkpt lat="49.33308" lon="-0.40101">
        <ele>8.2</ele>
        <time>2020-06-17T08:51:28Z</time>
      </trkpt>
      <trkpt lat="49.33308" lon="-0.40101">
        <ele>8.2</ele>
        <time>2020-06-17T08:51:29Z</time>
      </trkpt>
      <trkpt lat="49.33307" lon="-0.40101">
        <ele>8.2</ele>
        <time>2020-06-17T08:51:30Z</time>
      </trkpt>
      <trkpt lat="49.33307" lon="-0.401">
        <ele>8.2</ele>
        <time>2020-06-17T08:51:31Z</time>
      </trkpt>
      <trkpt lat="49.33307" lon="-0.401">
        <ele>8.2</ele>
        <time>2020-06-17T08:51:32Z</time>
      </trkpt>
      <trkpt lat="49.33306" lon="-0.40099">
        <ele>8.2</ele>
        <time>2020-06-17T08:51:33Z</time>
      </trkpt>
      <trkpt lat="49.33306" lon="-0.40099">
        <ele>8.2</ele>
        <time>2020-06-17T08:51:34Z</time>
      </trkpt>
      <trkpt lat="49.33306" lon="-0.40099">
        <ele>8.2</ele>
        <time>2020-06-17T08:51:35Z</time>
      </trkpt>
      <trkpt lat="49.33306" lon="-0.40098">
        <ele>8.2</ele>
        <time>2020-06-17T08:51:36Z</time>
      </trkpt>
      <trkpt lat="49.33305" lon="-0.40098">
        <ele>8.2</ele>
        <time>2020-06-17T08:51:37Z</time>
      </trkpt>
      <trkpt lat="49.33305" lon="-0.40098">
        <ele>8.2</ele>
        <time>2020-06-17T08:51:38Z</time>
      </trkpt>
      <trkpt lat="49.33305" lon="-0.40097">
        <ele>8.2</ele>
        <time>2020-06-17T08:51:39Z</time>
      </trkpt>
      <trkpt lat="49.33304" lon="-0.40097">
        <ele>8.2</ele>
        <time>2020-06-17T08:51:40Z</time>
      </trkpt>
      <trkpt lat="49.33303" lon="-0.40096">
        <ele>8.2</ele>
        <time>2020-06-17T08:51:41Z</time>
      </trkpt>
      <trkpt lat="49.33302" lon="-0.40094">
        <ele>8.2</ele>
        <time>2020-06-17T08:51:42Z</time>
      </trkpt>
      <trkpt lat="49.33301" lon="-0.40092">
        <ele>8.2</ele>
        <time>2020-06-17T08:51:43Z</time>
      </trkpt>
      <trkpt lat="49.33301" lon="-0.4009">
        <ele>8.2</ele>
        <time>2020-06-17T08:51:44Z</time>
      </trkpt>
      <trkpt lat="49.333" lon="-0.40088">
        <ele>8.2</ele>
        <time>2020-06-17T08:51:45Z</time>
      </trkpt>
      <trkpt lat="49.333" lon="-0.40086">
        <ele>8.2</ele>
        <time>2020-06-17T08:51:51Z</time>
      </trkpt>
      <trkpt lat="49.33299" lon="-0.40084">
        <ele>8.2</ele>
        <time>2020-06-17T08:51:52Z</time>
      </trkpt>
      <trkpt lat="49.33299" lon="-0.4008">
        <ele>8.2</ele>
        <time>2020-06-17T08:51:53Z</time>
      </trkpt>
      <trkpt lat="49.33299" lon="-0.40076">
        <ele>8.2</ele>
        <time>2020-06-17T08:51:54Z</time>
      </trkpt>
      <trkpt lat="49.33299" lon="-0.40071">
        <ele>8.2</ele>
        <time>2020-06-17T08:51:55Z</time>
      </trkpt>
      <trkpt lat="49.33299" lon="-0.40067">
        <ele>8.2</ele>
        <time>2020-06-17T08:51:56Z</time>
      </trkpt>
      <trkpt lat="49.33299" lon="-0.40061">
        <ele>8.2</ele>
        <time>2020-06-17T08:51:57Z</time>
      </trkpt>
      <trkpt lat="49.33299" lon="-0.40055">
        <ele>8.3</ele>
        <time>2020-06-17T08:51:58Z</time>
      </trkpt>
      <trkpt lat="49.33298" lon="-0.4005">
        <ele>8.3</ele>
        <time>2020-06-17T08:51:59Z</time>
      </trkpt>
      <trkpt lat="49.33298" lon="-0.40043">
        <ele>8.3</ele>
        <time>2020-06-17T08:52:00Z</time>
      </trkpt>
      <trkpt lat="49.33297" lon="-0.40037">
        <ele>8.3</ele>
        <time>2020-06-17T08:52:01Z</time>
      </trkpt>
      <trkpt lat="49.33297" lon="-0.4003">
        <ele>8.3</ele>
        <time>2020-06-17T08:52:02Z</time>
      </trkpt>
      <trkpt lat="49.33297" lon="-0.40023">
        <ele>8.3</ele>
        <time>2020-06-17T08:52:03Z</time>
      </trkpt>
      <trkpt lat="49.33296" lon="-0.40016">
        <ele>8.3</ele>
        <time>2020-06-17T08:52:04Z</time>
      </trkpt>
      <trkpt lat="49.33296" lon="-0.40009">
        <ele>8.4</ele>
        <time>2020-06-17T08:52:05Z</time>
      </trkpt>
      <trkpt lat="49.33296" lon="-0.40002">
        <ele>8.4</ele>
        <time>2020-06-17T08:52:06Z</time>
      </trkpt>
      <trkpt lat="49.33296" lon="-0.39995">
        <ele>8.4</ele>
        <time>2020-06-17T08:52:07Z</time>
      </trkpt>
      <trkpt lat="49.33296" lon="-0.39988">
        <ele>8.4</ele>
        <time>2020-06-17T08:52:08Z</time>
      </trkpt>
      <trkpt lat="49.33295" lon="-0.39981">
        <ele>8.4</ele>
        <time>2020-06-17T08:52:09Z</time>
      </trkpt>
      <trkpt lat="49.33295" lon="-0.39973">
        <ele>8.4</ele>
        <time>2020-06-17T08:52:10Z</time>
      </trkpt>
      <trkpt lat="49.33294" lon="-0.39967">
        <ele>8.4</ele>
        <time>2020-06-17T08:52:11Z</time>
      </trkpt>
      <trkpt lat="49.33295" lon="-0.3996">
        <ele>8.4</ele>
        <time>2020-06-17T08:52:12Z</time>
      </trkpt>
      <trkpt lat="49.33293" lon="-0.39953">
        <ele>8.4</ele>
        <time>2020-06-17T08:52:13Z</time>
      </trkpt>
      <trkpt lat="49.33292" lon="-0.39945">
        <ele>8.4</ele>
        <time>2020-06-17T08:52:14Z</time>
      </trkpt>
      <trkpt lat="49.33292" lon="-0.39938">
        <ele>8.4</ele>
        <time>2020-06-17T08:52:15Z</time>
      </trkpt>
      <trkpt lat="49.33291" lon="-0.39932">
        <ele>8.3</ele>
        <time>2020-06-17T08:52:16Z</time>
      </trkpt>
      <trkpt lat="49.3329" lon="-0.39925">
        <ele>8.3</ele>
        <time>2020-06-17T08:52:17Z</time>
      </trkpt>
      <trkpt lat="49.3329" lon="-0.39917">
        <ele>8.3</ele>
        <time>2020-06-17T08:52:18Z</time>
      </trkpt>
      <trkpt lat="49.33289" lon="-0.39908">
        <ele>8.3</ele>
        <time>2020-06-17T08:52:19Z</time>
      </trkpt>
      <trkpt lat="49.33288" lon="-0.399">
        <ele>8.3</ele>
        <time>2020-06-17T08:52:20Z</time>
      </trkpt>
      <trkpt lat="49.33289" lon="-0.39891">
        <ele>8.3</ele>
        <time>2020-06-17T08:52:21Z</time>
      </trkpt>
      <trkpt lat="49.33286" lon="-0.39883">
        <ele>8.3</ele>
        <time>2020-06-17T08:52:22Z</time>
      </trkpt>
      <trkpt lat="49.33286" lon="-0.39875">
        <ele>8.2</ele>
        <time>2020-06-17T08:52:23Z</time>
      </trkpt>
      <trkpt lat="49.33286" lon="-0.39868">
        <ele>8.2</ele>
        <time>2020-06-17T08:52:24Z</time>
      </trkpt>
      <trkpt lat="49.33286" lon="-0.39859">
        <ele>8.2</ele>
        <time>2020-06-17T08:52:25Z</time>
      </trkpt>
      <trkpt lat="49.33285" lon="-0.39852">
        <ele>8.2</ele>
        <time>2020-06-17T08:52:26Z</time>
      </trkpt>
      <trkpt lat="49.33284" lon="-0.39843">
        <ele>8.2</ele>
        <time>2020-06-17T08:52:27Z</time>
      </trkpt>
      <trkpt lat="49.33283" lon="-0.39835">
        <ele>8.2</ele>
        <time>2020-06-17T08:52:28Z</time>
      </trkpt>
      <trkpt lat="49.33282" lon="-0.39827">
        <ele>8.2</ele>
        <time>2020-06-17T08:52:29Z</time>
      </trkpt>
      <trkpt lat="49.33282" lon="-0.39819">
        <ele>8.2</ele>
        <time>2020-06-17T08:52:30Z</time>
      </trkpt>
      <trkpt lat="49.33281" lon="-0.39811">
        <ele>8.2</ele>
        <time>2020-06-17T08:52:31Z</time>
      </trkpt>
      <trkpt lat="49.33281" lon="-0.39803">
        <ele>8.1</ele>
        <time>2020-06-17T08:52:32Z</time>
      </trkpt>
      <trkpt lat="49.33279" lon="-0.39794">
        <ele>8.1</ele>
        <time>2020-06-17T08:52:33Z</time>
      </trkpt>
      <trkpt lat="49.33279" lon="-0.39784">
        <ele>8.1</ele>
        <time>2020-06-17T08:52:34Z</time>
      </trkpt>
      <trkpt lat="49.33278" lon="-0.39775">
        <ele>8.1</ele>
        <time>2020-06-17T08:52:35Z</time>
      </trkpt>
      <trkpt lat="49.33277" lon="-0.39766">
        <ele>8.1</ele>
        <time>2020-06-17T08:52:36Z</time>
      </trkpt>
      <trkpt lat="49.33276" lon="-0.39758">
        <ele>8.1</ele>
        <time>2020-06-17T08:52:37Z</time>
      </trkpt>
      <trkpt lat="49.33275" lon="-0.3975">
        <ele>8</ele>
        <time>2020-06-17T08:52:38Z</time>
      </trkpt>
      <trkpt lat="49.33273" lon="-0.39743">
        <ele>8</ele>
        <time>2020-06-17T08:52:39Z</time>
      </trkpt>
      <trkpt lat="49.33273" lon="-0.39735">
        <ele>8</ele>
        <time>2020-06-17T08:52:40Z</time>
      </trkpt>
      <trkpt lat="49.33273" lon="-0.39727">
        <ele>8</ele>
        <time>2020-06-17T08:52:41Z</time>
      </trkpt>
      <trkpt lat="49.33272" lon="-0.3972">
        <ele>8</ele>
        <time>2020-06-17T08:52:42Z</time>
      </trkpt>
      <trkpt lat="49.33271" lon="-0.39713">
        <ele>8</ele>
        <time>2020-06-17T08:52:43Z</time>
      </trkpt>
      <trkpt lat="49.3327" lon="-0.39706">
        <ele>8</ele>
        <time>2020-06-17T08:52:44Z</time>
      </trkpt>
      <trkpt lat="49.33269" lon="-0.39698">
        <ele>8</ele>
        <time>2020-06-17T08:52:45Z</time>
      </trkpt>
      <trkpt lat="49.33268" lon="-0.39691">
        <ele>8</ele>
        <time>2020-06-17T08:52:46Z</time>
      </trkpt>
      <trkpt lat="49.33267" lon="-0.39684">
        <ele>8</ele>
        <time>2020-06-17T08:52:47Z</time>
      </trkpt>
      <trkpt lat="49.33266" lon="-0.39677">
        <ele>7.9</ele>
        <time>2020-06-17T08:52:48Z</time>
      </trkpt>
      <trkpt lat="49.33266" lon="-0.3967">
        <ele>7.9</ele>
        <time>2020-06-17T08:52:49Z</time>
      </trkpt>
      <trkpt lat="49.33265" lon="-0.39663">
        <ele>7.9</ele>
        <time>2020-06-17T08:52:50Z</time>
      </trkpt>
      <trkpt lat="49.33264" lon="-0.39655">
        <ele>7.9</ele>
        <time>2020-06-17T08:52:51Z</time>
      </trkpt>
      <trkpt lat="49.33263" lon="-0.39648">
        <ele>7.9</ele>
        <time>2020-06-17T08:52:52Z</time>
      </trkpt>
      <trkpt lat="49.33262" lon="-0.39641">
        <ele>7.9</ele>
        <time>2020-06-17T08:52:53Z</time>
      </trkpt>
      <trkpt lat="49.33261" lon="-0.39633">
        <ele>7.9</ele>
        <time>2020-06-17T08:52:54Z</time>
      </trkpt>
      <trkpt lat="49.3326" lon="-0.39626">
        <ele>7.9</ele>
        <time>2020-06-17T08:52:55Z</time>
      </trkpt>
      <trkpt lat="49.33259" lon="-0.39619">
        <ele>7.8</ele>
        <time>2020-06-17T08:52:56Z</time>
      </trkpt>
      <trkpt lat="49.33259" lon="-0.3961">
        <ele>7.8</ele>
        <time>2020-06-17T08:52:57Z</time>
      </trkpt>
      <trkpt lat="49.33258" lon="-0.39602">
        <ele>7.8</ele>
        <time>2020-06-17T08:52:58Z</time>
      </trkpt>
      <trkpt lat="49.33257" lon="-0.39594">
        <ele>7.8</ele>
        <time>2020-06-17T08:52:59Z</time>
      </trkpt>
      <trkpt lat="49.33256" lon="-0.39586">
        <ele>7.8</ele>
        <time>2020-06-17T08:53:00Z</time>
      </trkpt>
      <trkpt lat="49.33255" lon="-0.39578">
        <ele>7.8</ele>
        <time>2020-06-17T08:53:01Z</time>
      </trkpt>
      <trkpt lat="49.33254" lon="-0.39571">
        <ele>7.8</ele>
        <time>2020-06-17T08:53:02Z</time>
      </trkpt>
      <trkpt lat="49.33252" lon="-0.39563">
        <ele>7.8</ele>
        <time>2020-06-17T08:53:03Z</time>
      </trkpt>
      <trkpt lat="49.33251" lon="-0.39555">
        <ele>7.8</ele>
        <time>2020-06-17T08:53:04Z</time>
      </trkpt>
      <trkpt lat="49.3325" lon="-0.39546">
        <ele>7.7</ele>
        <time>2020-06-17T08:53:05Z</time>
      </trkpt>
      <trkpt lat="49.33249" lon="-0.39537">
        <ele>7.7</ele>
        <time>2020-06-17T08:53:06Z</time>
      </trkpt>
      <trkpt lat="49.33248" lon="-0.39527">
        <ele>7.7</ele>
        <time>2020-06-17T08:53:07Z</time>
      </trkpt>
      <trkpt lat="49.33247" lon="-0.39518">
        <ele>7.7</ele>
        <time>2020-06-17T08:53:08Z</time>
      </trkpt>
      <trkpt lat="49.33246" lon="-0.3951">
        <ele>7.7</ele>
        <time>2020-06-17T08:53:09Z</time>
      </trkpt>
      <trkpt lat="49.33245" lon="-0.39502">
        <ele>7.6</ele>
        <time>2020-06-17T08:53:10Z</time>
      </trkpt>
      <trkpt lat="49.33244" lon="-0.39494">
        <ele>7.6</ele>
        <time>2020-06-17T08:53:11Z</time>
      </trkpt>
      <trkpt lat="49.33244" lon="-0.39487">
        <ele>7.6</ele>
        <time>2020-06-17T08:53:12Z</time>
      </trkpt>
      <trkpt lat="49.33243" lon="-0.3948">
        <ele>7.5</ele>
        <time>2020-06-17T08:53:13Z</time>
      </trkpt>
      <trkpt lat="49.33242" lon="-0.39472">
        <ele>7.5</ele>
        <time>2020-06-17T08:53:14Z</time>
      </trkpt>
      <trkpt lat="49.33241" lon="-0.39465">
        <ele>7.5</ele>
        <time>2020-06-17T08:53:15Z</time>
      </trkpt>
      <trkpt lat="49.33241" lon="-0.39458">
        <ele>7.4</ele>
        <time>2020-06-17T08:53:16Z</time>
      </trkpt>
      <trkpt lat="49.33239" lon="-0.39452">
        <ele>7.4</ele>
        <time>2020-06-17T08:53:17Z</time>
      </trkpt>
      <trkpt lat="49.33238" lon="-0.39445">
        <ele>7.3</ele>
        <time>2020-06-17T08:53:18Z</time>
      </trkpt>
      <trkpt lat="49.33236" lon="-0.3944">
        <ele>7.3</ele>
        <time>2020-06-17T08:53:19Z</time>
      </trkpt>
      <trkpt lat="49.33235" lon="-0.39435">
        <ele>7.2</ele>
        <time>2020-06-17T08:53:20Z</time>
      </trkpt>
      <trkpt lat="49.33233" lon="-0.39431">
        <ele>7.2</ele>
        <time>2020-06-17T08:53:21Z</time>
      </trkpt>
      <trkpt lat="49.33231" lon="-0.39425">
        <ele>7</ele>
        <time>2020-06-17T08:53:22Z</time>
      </trkpt>
      <trkpt lat="49.3323" lon="-0.39424">
        <ele>7</ele>
        <time>2020-06-17T08:53:23Z</time>
      </trkpt>
      <trkpt lat="49.33228" lon="-0.3942">
        <ele>6.9</ele>
        <time>2020-06-17T08:53:24Z</time>
      </trkpt>
      <trkpt lat="49.33227" lon="-0.39415">
        <ele>6.6</ele>
        <time>2020-06-17T08:53:25Z</time>
      </trkpt>
      <trkpt lat="49.33225" lon="-0.39411">
        <ele>6.5</ele>
        <time>2020-06-17T08:53:26Z</time>
      </trkpt>
      <trkpt lat="49.33224" lon="-0.39407">
        <ele>6.5</ele>
        <time>2020-06-17T08:53:27Z</time>
      </trkpt>
      <trkpt lat="49.33222" lon="-0.39403">
        <ele>6.4</ele>
        <time>2020-06-17T08:53:28Z</time>
      </trkpt>
      <trkpt lat="49.3322" lon="-0.39399">
        <ele>6.4</ele>
        <time>2020-06-17T08:53:29Z</time>
      </trkpt>
      <trkpt lat="49.33218" lon="-0.39395">
        <ele>6.4</ele>
        <time>2020-06-17T08:53:30Z</time>
      </trkpt>
      <trkpt lat="49.33218" lon="-0.39391">
        <ele>6.3</ele>
        <time>2020-06-17T08:53:31Z</time>
      </trkpt>
      <trkpt lat="49.33216" lon="-0.39386">
        <ele>6.3</ele>
        <time>2020-06-17T08:53:32Z</time>
      </trkpt>
      <trkpt lat="49.33214" lon="-0.39383">
        <ele>6.2</ele>
        <time>2020-06-17T08:53:33Z</time>
      </trkpt>
      <trkpt lat="49.33212" lon="-0.39379">
        <ele>6.2</ele>
        <time>2020-06-17T08:53:34Z</time>
      </trkpt>
      <trkpt lat="49.3321" lon="-0.39375">
        <ele>6.1</ele>
        <time>2020-06-17T08:53:35Z</time>
      </trkpt>
      <trkpt lat="49.33208" lon="-0.39371">
        <ele>6.1</ele>
        <time>2020-06-17T08:53:36Z</time>
      </trkpt>
      <trkpt lat="49.33206" lon="-0.39366">
        <ele>6</ele>
        <time>2020-06-17T08:53:37Z</time>
      </trkpt>
      <trkpt lat="49.33203" lon="-0.39361">
        <ele>6</ele>
        <time>2020-06-17T08:53:38Z</time>
      </trkpt>
      <trkpt lat="49.33201" lon="-0.39355">
        <ele>6</ele>
        <time>2020-06-17T08:53:39Z</time>
      </trkpt>
      <trkpt lat="49.332" lon="-0.39351">
        <ele>5.9</ele>
        <time>2020-06-17T08:53:40Z</time>
      </trkpt>
      <trkpt lat="49.33198" lon="-0.39347">
        <ele>5.9</ele>
        <time>2020-06-17T08:53:41Z</time>
      </trkpt>
      <trkpt lat="49.33198" lon="-0.39341">
        <ele>5</ele>
        <time>2020-06-17T08:53:42Z</time>
      </trkpt>
      <trkpt lat="49.33198" lon="-0.39339">
        <ele>5</ele>
        <time>2020-06-17T08:53:43Z</time>
      </trkpt>
      <trkpt lat="49.33199" lon="-0.39333">
        <ele>5</ele>
        <time>2020-06-17T08:53:44Z</time>
      </trkpt>
      <trkpt lat="49.33199" lon="-0.39331">
        <ele>5</ele>
        <time>2020-06-17T08:53:45Z</time>
      </trkpt>
      <trkpt lat="49.332" lon="-0.39325">
        <ele>5</ele>
        <time>2020-06-17T08:53:46Z</time>
      </trkpt>
      <trkpt lat="49.332" lon="-0.39323">
        <ele>5</ele>
        <time>2020-06-17T08:53:47Z</time>
      </trkpt>
      <trkpt lat="49.332" lon="-0.39317">
        <ele>5</ele>
        <time>2020-06-17T08:53:48Z</time>
      </trkpt>
      <trkpt lat="49.332" lon="-0.39314">
        <ele>4.9</ele>
        <time>2020-06-17T08:53:49Z</time>
      </trkpt>
      <trkpt lat="49.33199" lon="-0.39308">
        <ele>4.9</ele>
        <time>2020-06-17T08:53:50Z</time>
      </trkpt>
      <trkpt lat="49.33199" lon="-0.39305">
        <ele>4.9</ele>
        <time>2020-06-17T08:53:51Z</time>
      </trkpt>
      <trkpt lat="49.33197" lon="-0.39301">
        <ele>4.9</ele>
        <time>2020-06-17T08:53:52Z</time>
      </trkpt>
      <trkpt lat="49.33196" lon="-0.39296">
        <ele>4.9</ele>
        <time>2020-06-17T08:53:53Z</time>
      </trkpt>
      <trkpt lat="49.33195" lon="-0.39291">
        <ele>4.9</ele>
        <time>2020-06-17T08:53:54Z</time>
      </trkpt>
      <trkpt lat="49.33193" lon="-0.39285">
        <ele>4.8</ele>
        <time>2020-06-17T08:53:55Z</time>
      </trkpt>
      <trkpt lat="49.33191" lon="-0.39279">
        <ele>4.8</ele>
        <time>2020-06-17T08:53:56Z</time>
      </trkpt>
      <trkpt lat="49.33189" lon="-0.39273">
        <ele>4.7</ele>
        <time>2020-06-17T08:53:57Z</time>
      </trkpt>
      <trkpt lat="49.33188" lon="-0.39268">
        <ele>4.7</ele>
        <time>2020-06-17T08:53:58Z</time>
      </trkpt>
      <trkpt lat="49.33187" lon="-0.39263">
        <ele>4.7</ele>
        <time>2020-06-17T08:53:59Z</time>
      </trkpt>
      <trkpt lat="49.33186" lon="-0.39257">
        <ele>4.6</ele>
        <time>2020-06-17T08:54:00Z</time>
      </trkpt>
      <trkpt lat="49.33184" lon="-0.39252">
        <ele>4.6</ele>
        <time>2020-06-17T08:54:01Z</time>
      </trkpt>
      <trkpt lat="49.33183" lon="-0.39247">
        <ele>4.6</ele>
        <time>2020-06-17T08:54:02Z</time>
      </trkpt>
      <trkpt lat="49.33181" lon="-0.39243">
        <ele>4.5</ele>
        <time>2020-06-17T08:54:03Z</time>
      </trkpt>
      <trkpt lat="49.33179" lon="-0.39239">
        <ele>4.5</ele>
        <time>2020-06-17T08:54:04Z</time>
      </trkpt>
      <trkpt lat="49.33177" lon="-0.39235">
        <ele>4.5</ele>
        <time>2020-06-17T08:54:05Z</time>
      </trkpt>
      <trkpt lat="49.33176" lon="-0.3923">
        <ele>4.5</ele>
        <time>2020-06-17T08:54:06Z</time>
      </trkpt>
      <trkpt lat="49.33174" lon="-0.39225">
        <ele>4.5</ele>
        <time>2020-06-17T08:54:07Z</time>
      </trkpt>
      <trkpt lat="49.33172" lon="-0.39219">
        <ele>4.5</ele>
        <time>2020-06-17T08:54:08Z</time>
      </trkpt>
      <trkpt lat="49.3317" lon="-0.39214">
        <ele>4.6</ele>
        <time>2020-06-17T08:54:09Z</time>
      </trkpt>
      <trkpt lat="49.33167" lon="-0.39209">
        <ele>4.6</ele>
        <time>2020-06-17T08:54:10Z</time>
      </trkpt>
      <trkpt lat="49.33165" lon="-0.39206">
        <ele>4.6</ele>
        <time>2020-06-17T08:54:11Z</time>
      </trkpt>
      <trkpt lat="49.33164" lon="-0.392">
        <ele>4.6</ele>
        <time>2020-06-17T08:54:12Z</time>
      </trkpt>
      <trkpt lat="49.33163" lon="-0.39198">
        <ele>4.6</ele>
        <time>2020-06-17T08:54:13Z</time>
      </trkpt>
      <trkpt lat="49.33162" lon="-0.39193">
        <ele>4.6</ele>
        <time>2020-06-17T08:54:14Z</time>
      </trkpt>
      <trkpt lat="49.33162" lon="-0.39192">
        <ele>4.6</ele>
        <time>2020-06-17T08:54:15Z</time>
      </trkpt>
      <trkpt lat="49.33162" lon="-0.39189">
        <ele>4.6</ele>
        <time>2020-06-17T08:54:16Z</time>
      </trkpt>
      <trkpt lat="49.33162" lon="-0.39188">
        <ele>4.6</ele>
        <time>2020-06-17T08:54:17Z</time>
      </trkpt>
      <trkpt lat="49.33162" lon="-0.39187">
        <ele>4.6</ele>
        <time>2020-06-17T08:54:18Z</time>
      </trkpt>
      <trkpt lat="49.33161" lon="-0.39185">
        <ele>4.6</ele>
        <time>2020-06-17T08:54:19Z</time>
      </trkpt>
      <trkpt lat="49.33161" lon="-0.39182">
        <ele>4.6</ele>
        <time>2020-06-17T08:54:20Z</time>
      </trkpt>
      <trkpt lat="49.33161" lon="-0.39179">
        <ele>4.6</ele>
        <time>2020-06-17T08:54:21Z</time>
      </trkpt>
      <trkpt lat="49.33161" lon="-0.39176">
        <ele>4.6</ele>
        <time>2020-06-17T08:54:22Z</time>
      </trkpt>
      <trkpt lat="49.33159" lon="-0.39172">
        <ele>4.7</ele>
        <time>2020-06-17T08:54:23Z</time>
      </trkpt>
      <trkpt lat="49.33158" lon="-0.39171">
        <ele>4.7</ele>
        <time>2020-06-17T08:54:24Z</time>
      </trkpt>
      <trkpt lat="49.33156" lon="-0.39166">
        <ele>4.7</ele>
        <time>2020-06-17T08:54:25Z</time>
      </trkpt>
      <trkpt lat="49.33156" lon="-0.39164">
        <ele>4.7</ele>
        <time>2020-06-17T08:54:26Z</time>
      </trkpt>
      <trkpt lat="49.33155" lon="-0.39162">
        <ele>4.7</ele>
        <time>2020-06-17T08:54:27Z</time>
      </trkpt>
      <trkpt lat="49.33154" lon="-0.39161">
        <ele>4.7</ele>
        <time>2020-06-17T08:54:28Z</time>
      </trkpt>
      <trkpt lat="49.33153" lon="-0.3916">
        <ele>4.7</ele>
        <time>2020-06-17T08:54:29Z</time>
      </trkpt>
      <trkpt lat="49.33151" lon="-0.39156">
        <ele>4.7</ele>
        <time>2020-06-17T08:54:30Z</time>
      </trkpt>
      <trkpt lat="49.3315" lon="-0.39155">
        <ele>4.7</ele>
        <time>2020-06-17T08:54:31Z</time>
      </trkpt>
      <trkpt lat="49.3315" lon="-0.39153">
        <ele>4.7</ele>
        <time>2020-06-17T08:54:32Z</time>
      </trkpt>
      <trkpt lat="49.3315" lon="-0.39152">
        <ele>4.7</ele>
        <time>2020-06-17T08:54:33Z</time>
      </trkpt>
      <trkpt lat="49.3315" lon="-0.39151">
        <ele>4.7</ele>
        <time>2020-06-17T08:54:34Z</time>
      </trkpt>
      <trkpt lat="49.33149" lon="-0.39149">
        <ele>4.7</ele>
        <time>2020-06-17T08:54:35Z</time>
      </trkpt>
      <trkpt lat="49.33148" lon="-0.39149">
        <ele>4.7</ele>
        <time>2020-06-17T08:54:36Z</time>
      </trkpt>
      <trkpt lat="49.33147" lon="-0.39148">
        <ele>4.7</ele>
        <time>2020-06-17T08:54:37Z</time>
      </trkpt>
      <trkpt lat="49.33147" lon="-0.39147">
        <ele>4.7</ele>
        <time>2020-06-17T08:54:38Z</time>
      </trkpt>
      <trkpt lat="49.33147" lon="-0.39143">
        <ele>4.6</ele>
        <time>2020-06-17T08:54:39Z</time>
      </trkpt>
      <trkpt lat="49.33143" lon="-0.3913">
        <ele>4.6</ele>
        <time>2020-06-17T08:54:57Z</time>
      </trkpt>
      <trkpt lat="49.33143" lon="-0.3913">
        <ele>4.6</ele>
        <time>2020-06-17T08:54:58Z</time>
      </trkpt>
      <trkpt lat="49.33143" lon="-0.3913">
        <ele>4.6</ele>
        <time>2020-06-17T08:54:59Z</time>
      </trkpt>
      <trkpt lat="49.33143" lon="-0.3913">
        <ele>4.6</ele>
        <time>2020-06-17T08:55:00Z</time>
      </trkpt>
      <trkpt lat="49.33143" lon="-0.3913">
        <ele>4.6</ele>
        <time>2020-06-17T08:55:01Z</time>
      </trkpt>
      <trkpt lat="49.33143" lon="-0.3913">
        <ele>4.6</ele>
        <time>2020-06-17T08:55:02Z</time>
      </trkpt>
      <trkpt lat="49.33143" lon="-0.39129">
        <ele>4.6</ele>
        <time>2020-06-17T08:55:03Z</time>
      </trkpt>
      <trkpt lat="49.33143" lon="-0.39129">
        <ele>4.6</ele>
        <time>2020-06-17T08:55:04Z</time>
      </trkpt>
      <trkpt lat="49.33143" lon="-0.39128">
        <ele>4.6</ele>
        <time>2020-06-17T08:55:05Z</time>
      </trkpt>
      <trkpt lat="49.33143" lon="-0.39128">
        <ele>4.6</ele>
        <time>2020-06-17T08:55:06Z</time>
      </trkpt>
      <trkpt lat="49.33143" lon="-0.39128">
        <ele>4.6</ele>
        <time>2020-06-17T08:55:07Z</time>
      </trkpt>
      <trkpt lat="49.33142" lon="-0.39129">
        <ele>4.6</ele>
        <time>2020-06-17T08:55:08Z</time>
      </trkpt>
      <trkpt lat="49.33142" lon="-0.3913">
        <ele>4.6</ele>
        <time>2020-06-17T08:55:09Z</time>
      </trkpt>
      <trkpt lat="49.33144" lon="-0.39152">
        <ele>4.7</ele>
        <time>2020-06-17T08:55:28Z</time>
      </trkpt>
      <trkpt lat="49.33145" lon="-0.39153">
        <ele>4.7</ele>
        <time>2020-06-17T08:55:29Z</time>
      </trkpt>
      <trkpt lat="49.33146" lon="-0.39154">
        <ele>4.7</ele>
        <time>2020-06-17T08:55:30Z</time>
      </trkpt>
      <trkpt lat="49.33146" lon="-0.39155">
        <ele>4.7</ele>
        <time>2020-06-17T08:55:31Z</time>
      </trkpt>
      <trkpt lat="49.33146" lon="-0.39155">
        <ele>4.7</ele>
        <time>2020-06-17T08:55:32Z</time>
      </trkpt>
      <trkpt lat="49.33146" lon="-0.39156">
        <ele>4.7</ele>
        <time>2020-06-17T08:55:33Z</time>
      </trkpt>
      <trkpt lat="49.33146" lon="-0.39156">
        <ele>4.7</ele>
        <time>2020-06-17T08:55:34Z</time>
      </trkpt>
      <trkpt lat="49.33146" lon="-0.39157">
        <ele>4.7</ele>
        <time>2020-06-17T08:55:35Z</time>
      </trkpt>
      <trkpt lat="49.33147" lon="-0.39158">
        <ele>4.7</ele>
        <time>2020-06-17T08:55:36Z</time>
      </trkpt>
      <trkpt lat="49.33148" lon="-0.39159">
        <ele>4.7</ele>
        <time>2020-06-17T08:55:37Z</time>
      </trkpt>
      <trkpt lat="49.33148" lon="-0.3916">
        <ele>4.7</ele>
        <time>2020-06-17T08:55:38Z</time>
      </trkpt>
      <trkpt lat="49.33149" lon="-0.39162">
        <ele>4.7</ele>
        <time>2020-06-17T08:55:39Z</time>
      </trkpt>
      <trkpt lat="49.33149" lon="-0.39164">
        <ele>4.7</ele>
        <time>2020-06-17T08:55:40Z</time>
      </trkpt>
      <trkpt lat="49.3315" lon="-0.39164">
        <ele>4.7</ele>
        <time>2020-06-17T08:55:41Z</time>
      </trkpt>
      <trkpt lat="49.3315" lon="-0.39164">
        <ele>4.7</ele>
        <time>2020-06-17T08:55:42Z</time>
      </trkpt>
      <trkpt lat="49.33151" lon="-0.39165">
        <ele>4.7</ele>
        <time>2020-06-17T08:55:43Z</time>
      </trkpt>
      <trkpt lat="49.33151" lon="-0.39166">
        <ele>4.7</ele>
        <time>2020-06-17T08:55:44Z</time>
      </trkpt>
      <trkpt lat="49.33152" lon="-0.39166">
        <ele>4.7</ele>
        <time>2020-06-17T08:55:45Z</time>
      </trkpt>
      <trkpt lat="49.33145" lon="-0.3916">
        <ele>4.7</ele>
        <time>2020-06-17T08:57:14Z</time>
      </trkpt>
      <trkpt lat="49.33145" lon="-0.39157">
        <ele>4.7</ele>
        <time>2020-06-17T08:57:15Z</time>
      </trkpt>
      <trkpt lat="49.33146" lon="-0.39156">
        <ele>4.7</ele>
        <time>2020-06-17T08:57:16Z</time>
      </trkpt>
      <trkpt lat="49.33147" lon="-0.39157">
        <ele>4.7</ele>
        <time>2020-06-17T08:57:17Z</time>
      </trkpt>
      <trkpt lat="49.33148" lon="-0.39157">
        <ele>4.7</ele>
        <time>2020-06-17T08:57:18Z</time>
      </trkpt>
      <trkpt lat="49.33149" lon="-0.39158">
        <ele>4.7</ele>
        <time>2020-06-17T08:57:19Z</time>
      </trkpt>
      <trkpt lat="49.33149" lon="-0.39159">
        <ele>4.7</ele>
        <time>2020-06-17T08:57:20Z</time>
      </trkpt>
      <trkpt lat="49.33149" lon="-0.39158">
        <ele>4.7</ele>
        <time>2020-06-17T08:57:21Z</time>
      </trkpt>
      <trkpt lat="49.33149" lon="-0.39158">
        <ele>4.7</ele>
        <time>2020-06-17T08:57:22Z</time>
      </trkpt>
      <trkpt lat="49.3315" lon="-0.39158">
        <ele>4.7</ele>
        <time>2020-06-17T08:57:23Z</time>
      </trkpt>
      <trkpt lat="49.3315" lon="-0.39158">
        <ele>4.7</ele>
        <time>2020-06-17T08:57:24Z</time>
      </trkpt>
      <trkpt lat="49.33149" lon="-0.39158">
        <ele>4.7</ele>
        <time>2020-06-17T08:57:25Z</time>
      </trkpt>
      <trkpt lat="49.33149" lon="-0.39157">
        <ele>4.7</ele>
        <time>2020-06-17T08:57:26Z</time>
      </trkpt>
      <trkpt lat="49.33149" lon="-0.39155">
        <ele>4.7</ele>
        <time>2020-06-17T08:57:27Z</time>
      </trkpt>
      <trkpt lat="49.33149" lon="-0.39153">
        <ele>4.7</ele>
        <time>2020-06-17T08:57:28Z</time>
      </trkpt>
      <trkpt lat="49.33149" lon="-0.39152">
        <ele>4.7</ele>
        <time>2020-06-17T08:57:29Z</time>
      </trkpt>
      <trkpt lat="49.3315" lon="-0.3915">
        <ele>4.7</ele>
        <time>2020-06-17T08:57:30Z</time>
      </trkpt>
      <trkpt lat="49.33149" lon="-0.39148">
        <ele>4.7</ele>
        <time>2020-06-17T08:57:34Z</time>
      </trkpt>
      <trkpt lat="49.33149" lon="-0.39148">
        <ele>4.7</ele>
        <time>2020-06-17T08:57:35Z</time>
      </trkpt>
      <trkpt lat="49.33148" lon="-0.39148">
        <ele>4.7</ele>
        <time>2020-06-17T08:57:36Z</time>
      </trkpt>
      <trkpt lat="49.33148" lon="-0.39147">
        <ele>4.7</ele>
        <time>2020-06-17T08:57:37Z</time>
      </trkpt>
      <trkpt lat="49.33148" lon="-0.39144">
        <ele>4.7</ele>
        <time>2020-06-17T08:57:38Z</time>
      </trkpt>
      <trkpt lat="49.33148" lon="-0.39142">
        <ele>4.7</ele>
        <time>2020-06-17T08:57:39Z</time>
      </trkpt>
      <trkpt lat="49.33148" lon="-0.3914">
        <ele>4.7</ele>
        <time>2020-06-17T08:57:40Z</time>
      </trkpt>
      <trkpt lat="49.33148" lon="-0.39139">
        <ele>4.7</ele>
        <time>2020-06-17T08:57:41Z</time>
      </trkpt>
      <trkpt lat="49.33148" lon="-0.39138">
        <ele>4.7</ele>
        <time>2020-06-17T08:57:42Z</time>
      </trkpt>
      <trkpt lat="49.33149" lon="-0.39137">
        <ele>4.7</ele>
        <time>2020-06-17T08:57:43Z</time>
      </trkpt>
      <trkpt lat="49.33149" lon="-0.39136">
        <ele>4.7</ele>
        <time>2020-06-17T08:57:44Z</time>
      </trkpt>
      <trkpt lat="49.33149" lon="-0.39136">
        <ele>4.7</ele>
        <time>2020-06-17T08:57:45Z</time>
      </trkpt>
      <trkpt lat="49.3315" lon="-0.39135">
        <ele>4.7</ele>
        <time>2020-06-17T08:57:46Z</time>
      </trkpt>
      <trkpt lat="49.3315" lon="-0.39136">
        <ele>4.7</ele>
        <time>2020-06-17T08:57:47Z</time>
      </trkpt>
      <trkpt lat="49.33149" lon="-0.39136">
        <ele>4.7</ele>
        <time>2020-06-17T08:57:48Z</time>
      </trkpt>
      <trkpt lat="49.33147" lon="-0.39136">
        <ele>4.7</ele>
        <time>2020-06-17T08:59:07Z</time>
      </trkpt>
      <trkpt lat="49.33147" lon="-0.39136">
        <ele>4.7</ele>
        <time>2020-06-17T08:59:08Z</time>
      </trkpt>
      <trkpt lat="49.33147" lon="-0.39136">
        <ele>4.7</ele>
        <time>2020-06-17T08:59:09Z</time>
      </trkpt>
      <trkpt lat="49.33147" lon="-0.39136">
        <ele>4.7</ele>
        <time>2020-06-17T08:59:10Z</time>
      </trkpt>
      <trkpt lat="49.33147" lon="-0.39137">
        <ele>4.7</ele>
        <time>2020-06-17T08:59:11Z</time>
      </trkpt>
      <trkpt lat="49.33147" lon="-0.39137">
        <ele>4.7</ele>
        <time>2020-06-17T08:59:12Z</time>
      </trkpt>
      <trkpt lat="49.33147" lon="-0.39137">
        <ele>4.7</ele>
        <time>2020-06-17T08:59:13Z</time>
      </trkpt>
      <trkpt lat="49.33147" lon="-0.39137">
        <ele>4.7</ele>
        <time>2020-06-17T08:59:14Z</time>
      </trkpt>
      <trkpt lat="49.33146" lon="-0.39137">
        <ele>4.7</ele>
        <time>2020-06-17T08:59:15Z</time>
      </trkpt>
      <trkpt lat="49.33146" lon="-0.39137">
        <ele>4.7</ele>
        <time>2020-06-17T08:59:16Z</time>
      </trkpt>
      <trkpt lat="49.33146" lon="-0.39137">
        <ele>4.7</ele>
        <time>2020-06-17T08:59:17Z</time>
      </trkpt>
      <trkpt lat="49.33146" lon="-0.39137">
        <ele>4.7</ele>
        <time>2020-06-17T08:59:18Z</time>
      </trkpt>
      <trkpt lat="49.33146" lon="-0.39137">
        <ele>4.7</ele>
        <time>2020-06-17T08:59:19Z</time>
      </trkpt>
      <trkpt lat="49.33137" lon="-0.39135">
        <ele>4.7</ele>
        <time>2020-06-17T09:00:28Z</time>
      </trkpt>
      <trkpt lat="49.33137" lon="-0.39134">
        <ele>4.7</ele>
        <time>2020-06-17T09:00:29Z</time>
      </trkpt>
      <trkpt lat="49.33137" lon="-0.39134">
        <ele>4.7</ele>
        <time>2020-06-17T09:00:30Z</time>
      </trkpt>
      <trkpt lat="49.33136" lon="-0.39134">
        <ele>4.7</ele>
        <time>2020-06-17T09:00:31Z</time>
      </trkpt>
      <trkpt lat="49.33136" lon="-0.39134">
        <ele>4.7</ele>
        <time>2020-06-17T09:00:32Z</time>
      </trkpt>
      <trkpt lat="49.33135" lon="-0.39134">
        <ele>4.7</ele>
        <time>2020-06-17T09:00:33Z</time>
      </trkpt>
      <trkpt lat="49.33135" lon="-0.39134">
        <ele>4.7</ele>
        <time>2020-06-17T09:00:34Z</time>
      </trkpt>
      <trkpt lat="49.33135" lon="-0.39134">
        <ele>4.7</ele>
        <time>2020-06-17T09:00:35Z</time>
      </trkpt>
      <trkpt lat="49.33135" lon="-0.39133">
        <ele>4.7</ele>
        <time>2020-06-17T09:00:36Z</time>
      </trkpt>
      <trkpt lat="49.33136" lon="-0.39133">
        <ele>4.7</ele>
        <time>2020-06-17T09:00:37Z</time>
      </trkpt>
      <trkpt lat="49.33136" lon="-0.39132">
        <ele>4.7</ele>
        <time>2020-06-17T09:00:38Z</time>
      </trkpt>
      <trkpt lat="49.33137" lon="-0.39133">
        <ele>4.7</ele>
        <time>2020-06-17T09:00:39Z</time>
      </trkpt>
      <trkpt lat="49.33138" lon="-0.39133">
        <ele>4.7</ele>
        <time>2020-06-17T09:00:40Z</time>
      </trkpt>
      <trkpt lat="49.33138" lon="-0.39133">
        <ele>4.7</ele>
        <time>2020-06-17T09:00:41Z</time>
      </trkpt>
      <trkpt lat="49.33138" lon="-0.39134">
        <ele>4.7</ele>
        <time>2020-06-17T09:00:42Z</time>
      </trkpt>
      <trkpt lat="49.33139" lon="-0.39134">
        <ele>4.7</ele>
        <time>2020-06-17T09:00:43Z</time>
      </trkpt>
      <trkpt lat="49.33139" lon="-0.39133">
        <ele>4.7</ele>
        <time>2020-06-17T09:00:44Z</time>
      </trkpt>
      <trkpt lat="49.33139" lon="-0.39134">
        <ele>4.7</ele>
        <time>2020-06-17T09:00:45Z</time>
      </trkpt>
      <trkpt lat="49.33139" lon="-0.39134">
        <ele>4.7</ele>
        <time>2020-06-17T09:00:46Z</time>
      </trkpt>
      <trkpt lat="49.33139" lon="-0.39133">
        <ele>4.7</ele>
        <time>2020-06-17T09:00:47Z</time>
      </trkpt>
      <trkpt lat="49.3314" lon="-0.39133">
        <ele>4.7</ele>
        <time>2020-06-17T09:00:48Z</time>
      </trkpt>
      <trkpt lat="49.3314" lon="-0.39133">
        <ele>4.7</ele>
        <time>2020-06-17T09:00:49Z</time>
      </trkpt>
      <trkpt lat="49.3314" lon="-0.39133">
        <ele>4.7</ele>
        <time>2020-06-17T09:00:50Z</time>
      </trkpt>
      <trkpt lat="49.3314" lon="-0.39133">
        <ele>4.7</ele>
        <time>2020-06-17T09:00:51Z</time>
      </trkpt>
      <trkpt lat="49.3314" lon="-0.39133">
        <ele>4.7</ele>
        <time>2020-06-17T09:00:52Z</time>
      </trkpt>
      <trkpt lat="49.3314" lon="-0.39134">
        <ele>4.7</ele>
        <time>2020-06-17T09:00:53Z</time>
      </trkpt>
      <trkpt lat="49.3314" lon="-0.39134">
        <ele>4.7</ele>
        <time>2020-06-17T09:00:54Z</time>
      </trkpt>
      <trkpt lat="49.3314" lon="-0.39135">
        <ele>4.7</ele>
        <time>2020-06-17T09:00:55Z</time>
      </trkpt>
      <trkpt lat="49.33145" lon="-0.39133">
        <ele>4.7</ele>
        <time>2020-06-17T09:01:15Z</time>
      </trkpt>
      <trkpt lat="49.33145" lon="-0.39133">
        <ele>4.7</ele>
        <time>2020-06-17T09:01:16Z</time>
      </trkpt>
      <trkpt lat="49.33146" lon="-0.39133">
        <ele>4.7</ele>
        <time>2020-06-17T09:01:17Z</time>
      </trkpt>
      <trkpt lat="49.33146" lon="-0.39132">
        <ele>4.7</ele>
        <time>2020-06-17T09:01:18Z</time>
      </trkpt>
      <trkpt lat="49.33146" lon="-0.39132">
        <ele>4.7</ele>
        <time>2020-06-17T09:01:19Z</time>
      </trkpt>
      <trkpt lat="49.33146" lon="-0.39132">
        <ele>4.7</ele>
        <time>2020-06-17T09:01:20Z</time>
      </trkpt>
      <trkpt lat="49.33146" lon="-0.39133">
        <ele>4.7</ele>
        <time>2020-06-17T09:01:21Z</time>
      </trkpt>
      <trkpt lat="49.33146" lon="-0.39133">
        <ele>4.7</ele>
        <time>2020-06-17T09:01:22Z</time>
      </trkpt>
      <trkpt lat="49.33147" lon="-0.39133">
        <ele>4.7</ele>
        <time>2020-06-17T09:01:23Z</time>
      </trkpt>
      <trkpt lat="49.33147" lon="-0.39132">
        <ele>4.7</ele>
        <time>2020-06-17T09:01:24Z</time>
      </trkpt>
      <trkpt lat="49.33147" lon="-0.39132">
        <ele>4.7</ele>
        <time>2020-06-17T09:01:25Z</time>
      </trkpt>
      <trkpt lat="49.33146" lon="-0.39132">
        <ele>4.7</ele>
        <time>2020-06-17T09:01:26Z</time>
      </trkpt>
      <trkpt lat="49.33146" lon="-0.39133">
        <ele>4.7</ele>
        <time>2020-06-17T09:01:27Z</time>
      </trkpt>
      <trkpt lat="49.33146" lon="-0.39133">
        <ele>4.7</ele>
        <time>2020-06-17T09:01:28Z</time>
      </trkpt>
      <trkpt lat="49.33147" lon="-0.39133">
        <ele>4.7</ele>
        <time>2020-06-17T09:01:29Z</time>
      </trkpt>
      <trkpt lat="49.33147" lon="-0.39134">
        <ele>4.7</ele>
        <time>2020-06-17T09:01:30Z</time>
      </trkpt>
      <trkpt lat="49.33146" lon="-0.39134">
        <ele>4.7</ele>
        <time>2020-06-17T09:01:31Z</time>
      </trkpt>
      <trkpt lat="49.33146" lon="-0.39134">
        <ele>4.7</ele>
        <time>2020-06-17T09:01:32Z</time>
      </trkpt>
      <trkpt lat="49.33146" lon="-0.39134">
        <ele>4.7</ele>
        <time>2020-06-17T09:01:33Z</time>
      </trkpt>
      <trkpt lat="49.33145" lon="-0.39134">
        <ele>4.7</ele>
        <time>2020-06-17T09:01:34Z</time>
      </trkpt>
      <trkpt lat="49.33145" lon="-0.39134">
        <ele>4.7</ele>
        <time>2020-06-17T09:01:35Z</time>
      </trkpt>
      <trkpt lat="49.33145" lon="-0.39134">
        <ele>4.7</ele>
        <time>2020-06-17T09:01:36Z</time>
      </trkpt>
      <trkpt lat="49.33146" lon="-0.39134">
        <ele>4.7</ele>
        <time>2020-06-17T09:01:37Z</time>
      </trkpt>
      <trkpt lat="49.33146" lon="-0.39134">
        <ele>4.7</ele>
        <time>2020-06-17T09:01:38Z</time>
      </trkpt>
      <trkpt lat="49.33146" lon="-0.39134">
        <ele>4.7</ele>
        <time>2020-06-17T09:01:39Z</time>
      </trkpt>
      <trkpt lat="49.33146" lon="-0.39134">
        <ele>4.7</ele>
        <time>2020-06-17T09:01:40Z</time>
      </trkpt>
      <trkpt lat="49.33146" lon="-0.39134">
        <ele>4.7</ele>
        <time>2020-06-17T09:01:41Z</time>
      </trkpt>
      <trkpt lat="49.33146" lon="-0.39134">
        <ele>4.7</ele>
        <time>2020-06-17T09:01:42Z</time>
      </trkpt>
      <trkpt lat="49.33146" lon="-0.39134">
        <ele>4.7</ele>
        <time>2020-06-17T09:01:43Z</time>
      </trkpt>
      <trkpt lat="49.33146" lon="-0.39134">
        <ele>4.7</ele>
        <time>2020-06-17T09:01:44Z</time>
      </trkpt>
      <trkpt lat="49.33152" lon="-0.39136">
        <ele>4.7</ele>
        <time>2020-06-17T09:02:23Z</time>
      </trkpt>
      <trkpt lat="49.33152" lon="-0.39136">
        <ele>4.7</ele>
        <time>2020-06-17T09:02:24Z</time>
      </trkpt>
      <trkpt lat="49.33152" lon="-0.39136">
        <ele>4.7</ele>
        <time>2020-06-17T09:02:25Z</time>
      </trkpt>
      <trkpt lat="49.33152" lon="-0.39136">
        <ele>4.7</ele>
        <time>2020-06-17T09:02:26Z</time>
      </trkpt>
      <trkpt lat="49.33153" lon="-0.39136">
        <ele>4.7</ele>
        <time>2020-06-17T09:02:27Z</time>
      </trkpt>
      <trkpt lat="49.33153" lon="-0.39136">
        <ele>4.7</ele>
        <time>2020-06-17T09:02:28Z</time>
      </trkpt>
      <trkpt lat="49.33153" lon="-0.39136">
        <ele>4.7</ele>
        <time>2020-06-17T09:02:29Z</time>
      </trkpt>
      <trkpt lat="49.33154" lon="-0.39136">
        <ele>4.7</ele>
        <time>2020-06-17T09:02:30Z</time>
      </trkpt>
      <trkpt lat="49.33154" lon="-0.39136">
        <ele>4.7</ele>
        <time>2020-06-17T09:02:31Z</time>
      </trkpt>
      <trkpt lat="49.33154" lon="-0.39136">
        <ele>4.7</ele>
        <time>2020-06-17T09:02:32Z</time>
      </trkpt>
      <trkpt lat="49.33155" lon="-0.39135">
        <ele>4.7</ele>
        <time>2020-06-17T09:02:33Z</time>
      </trkpt>
      <trkpt lat="49.33154" lon="-0.39135">
        <ele>4.7</ele>
        <time>2020-06-17T09:02:34Z</time>
      </trkpt>
      <trkpt lat="49.33155" lon="-0.39136">
        <ele>4.7</ele>
        <time>2020-06-17T09:02:35Z</time>
      </trkpt>
      <trkpt lat="49.33154" lon="-0.39136">
        <ele>4.7</ele>
        <time>2020-06-17T09:02:36Z</time>
      </trkpt>
      <trkpt lat="49.33154" lon="-0.39135">
        <ele>4.7</ele>
        <time>2020-06-17T09:02:37Z</time>
      </trkpt>
      <trkpt lat="49.33155" lon="-0.39135">
        <ele>4.7</ele>
        <time>2020-06-17T09:02:38Z</time>
      </trkpt>
      <trkpt lat="49.33154" lon="-0.39134">
        <ele>4.7</ele>
        <time>2020-06-17T09:02:39Z</time>
      </trkpt>
      <trkpt lat="49.33154" lon="-0.39135">
        <ele>4.7</ele>
        <time>2020-06-17T09:02:40Z</time>
      </trkpt>
      <trkpt lat="49.33154" lon="-0.39135">
        <ele>4.7</ele>
        <time>2020-06-17T09:02:41Z</time>
      </trkpt>
      <trkpt lat="49.33153" lon="-0.39135">
        <ele>4.7</ele>
        <time>2020-06-17T09:02:42Z</time>
      </trkpt>
      <trkpt lat="49.33153" lon="-0.39135">
        <ele>4.7</ele>
        <time>2020-06-17T09:02:43Z</time>
      </trkpt>
      <trkpt lat="49.33154" lon="-0.39136">
        <ele>4.7</ele>
        <time>2020-06-17T09:02:44Z</time>
      </trkpt>
      <trkpt lat="49.33154" lon="-0.39136">
        <ele>4.7</ele>
        <time>2020-06-17T09:02:45Z</time>
      </trkpt>
      <trkpt lat="49.33155" lon="-0.39135">
        <ele>4.7</ele>
        <time>2020-06-17T09:02:46Z</time>
      </trkpt>
      <trkpt lat="49.33155" lon="-0.39135">
        <ele>4.7</ele>
        <time>2020-06-17T09:02:47Z</time>
      </trkpt>
      <trkpt lat="49.33155" lon="-0.39134">
        <ele>4.7</ele>
        <time>2020-06-17T09:02:48Z</time>
      </trkpt>
      <trkpt lat="49.33156" lon="-0.39134">
        <ele>4.7</ele>
        <time>2020-06-17T09:02:49Z</time>
      </trkpt>
      <trkpt lat="49.33155" lon="-0.39134">
        <ele>4.7</ele>
        <time>2020-06-17T09:02:50Z</time>
      </trkpt>
      <trkpt lat="49.33155" lon="-0.39133">
        <ele>4.7</ele>
        <time>2020-06-17T09:02:51Z</time>
      </trkpt>
      <trkpt lat="49.33155" lon="-0.39133">
        <ele>4.7</ele>
        <time>2020-06-17T09:02:52Z</time>
      </trkpt>
      <trkpt lat="49.33156" lon="-0.39133">
        <ele>4.7</ele>
        <time>2020-06-17T09:02:53Z</time>
      </trkpt>
      <trkpt lat="49.3315" lon="-0.39138">
        <ele>4.7</ele>
        <time>2020-06-17T09:03:47Z</time>
      </trkpt>
      <trkpt lat="49.3315" lon="-0.39138">
        <ele>4.7</ele>
        <time>2020-06-17T09:03:48Z</time>
      </trkpt>
      <trkpt lat="49.3315" lon="-0.39137">
        <ele>4.7</ele>
        <time>2020-06-17T09:03:49Z</time>
      </trkpt>
      <trkpt lat="49.33149" lon="-0.39136">
        <ele>4.7</ele>
        <time>2020-06-17T09:03:50Z</time>
      </trkpt>
      <trkpt lat="49.33148" lon="-0.39135">
        <ele>4.7</ele>
        <time>2020-06-17T09:03:51Z</time>
      </trkpt>
      <trkpt lat="49.33147" lon="-0.39135">
        <ele>4.7</ele>
        <time>2020-06-17T09:03:52Z</time>
      </trkpt>
      <trkpt lat="49.33146" lon="-0.39134">
        <ele>4.7</ele>
        <time>2020-06-17T09:03:53Z</time>
      </trkpt>
      <trkpt lat="49.33145" lon="-0.39133">
        <ele>4.7</ele>
        <time>2020-06-17T09:03:54Z</time>
      </trkpt>
      <trkpt lat="49.33144" lon="-0.39134">
        <ele>4.7</ele>
        <time>2020-06-17T09:03:55Z</time>
      </trkpt>
      <trkpt lat="49.33144" lon="-0.39135">
        <ele>4.7</ele>
        <time>2020-06-17T09:03:56Z</time>
      </trkpt>
      <trkpt lat="49.33144" lon="-0.39135">
        <ele>4.7</ele>
        <time>2020-06-17T09:03:57Z</time>
      </trkpt>
      <trkpt lat="49.33143" lon="-0.39136">
        <ele>4.7</ele>
        <time>2020-06-17T09:03:58Z</time>
      </trkpt>
      <trkpt lat="49.33143" lon="-0.39136">
        <ele>4.7</ele>
        <time>2020-06-17T09:03:59Z</time>
      </trkpt>
      <trkpt lat="49.33143" lon="-0.39136">
        <ele>4.7</ele>
        <time>2020-06-17T09:04:00Z</time>
      </trkpt>
      <trkpt lat="49.33143" lon="-0.39136">
        <ele>4.7</ele>
        <time>2020-06-17T09:04:01Z</time>
      </trkpt>
      <trkpt lat="49.33143" lon="-0.39136">
        <ele>4.7</ele>
        <time>2020-06-17T09:04:02Z</time>
      </trkpt>
      <trkpt lat="49.33143" lon="-0.39136">
        <ele>4.7</ele>
        <time>2020-06-17T09:04:03Z</time>
      </trkpt>
      <trkpt lat="49.33143" lon="-0.39136">
        <ele>4.7</ele>
        <time>2020-06-17T09:04:04Z</time>
      </trkpt>
      <trkpt lat="49.33143" lon="-0.39136">
        <ele>4.7</ele>
        <time>2020-06-17T09:04:05Z</time>
      </trkpt>
      <trkpt lat="49.33143" lon="-0.39135">
        <ele>4.7</ele>
        <time>2020-06-17T09:04:06Z</time>
      </trkpt>
      <trkpt lat="49.33151" lon="-0.39139">
        <ele>4.7</ele>
        <time>2020-06-17T09:04:31Z</time>
      </trkpt>
      <trkpt lat="49.33152" lon="-0.39139">
        <ele>4.7</ele>
        <time>2020-06-17T09:04:32Z</time>
      </trkpt>
      <trkpt lat="49.33152" lon="-0.3914">
        <ele>4.7</ele>
        <time>2020-06-17T09:04:33Z</time>
      </trkpt>
      <trkpt lat="49.33153" lon="-0.39141">
        <ele>4.7</ele>
        <time>2020-06-17T09:04:34Z</time>
      </trkpt>
      <trkpt lat="49.33152" lon="-0.39141">
        <ele>4.7</ele>
        <time>2020-06-17T09:04:35Z</time>
      </trkpt>
      <trkpt lat="49.33152" lon="-0.39141">
        <ele>4.7</ele>
        <time>2020-06-17T09:04:36Z</time>
      </trkpt>
      <trkpt lat="49.33152" lon="-0.39142">
        <ele>4.7</ele>
        <time>2020-06-17T09:04:37Z</time>
      </trkpt>
      <trkpt lat="49.33151" lon="-0.39142">
        <ele>4.7</ele>
        <time>2020-06-17T09:04:38Z</time>
      </trkpt>
      <trkpt lat="49.33151" lon="-0.39142">
        <ele>4.7</ele>
        <time>2020-06-17T09:04:39Z</time>
      </trkpt>
      <trkpt lat="49.33151" lon="-0.39142">
        <ele>4.7</ele>
        <time>2020-06-17T09:04:40Z</time>
      </trkpt>
      <trkpt lat="49.33151" lon="-0.39143">
        <ele>4.7</ele>
        <time>2020-06-17T09:04:41Z</time>
      </trkpt>
      <trkpt lat="49.33151" lon="-0.39143">
        <ele>4.7</ele>
        <time>2020-06-17T09:04:42Z</time>
      </trkpt>
      <trkpt lat="49.33151" lon="-0.39143">
        <ele>4.7</ele>
        <time>2020-06-17T09:04:43Z</time>
      </trkpt>
      <trkpt lat="49.33151" lon="-0.39144">
        <ele>4.7</ele>
        <time>2020-06-17T09:04:44Z</time>
      </trkpt>
      <trkpt lat="49.3315" lon="-0.39144">
        <ele>4.7</ele>
        <time>2020-06-17T09:04:45Z</time>
      </trkpt>
      <trkpt lat="49.3315" lon="-0.39144">
        <ele>4.7</ele>
        <time>2020-06-17T09:04:46Z</time>
      </trkpt>
      <trkpt lat="49.3315" lon="-0.39143">
        <ele>4.7</ele>
        <time>2020-06-17T09:04:47Z</time>
      </trkpt>
      <trkpt lat="49.3315" lon="-0.39143">
        <ele>4.7</ele>
        <time>2020-06-17T09:04:48Z</time>
      </trkpt>
      <trkpt lat="49.3315" lon="-0.39143">
        <ele>4.7</ele>
        <time>2020-06-17T09:04:49Z</time>
      </trkpt>
      <trkpt lat="49.3315" lon="-0.39143">
        <ele>4.7</ele>
        <time>2020-06-17T09:04:50Z</time>
      </trkpt>
      <trkpt lat="49.33149" lon="-0.39143">
        <ele>4.7</ele>
        <time>2020-06-17T09:04:51Z</time>
      </trkpt>
      <trkpt lat="49.33148" lon="-0.39142">
        <ele>4.7</ele>
        <time>2020-06-17T09:04:52Z</time>
      </trkpt>
      <trkpt lat="49.33148" lon="-0.39141">
        <ele>4.7</ele>
        <time>2020-06-17T09:04:53Z</time>
      </trkpt>
      <trkpt lat="49.33147" lon="-0.3914">
        <ele>4.7</ele>
        <time>2020-06-17T09:04:54Z</time>
      </trkpt>
      <trkpt lat="49.33147" lon="-0.39139">
        <ele>4.7</ele>
        <time>2020-06-17T09:04:55Z</time>
      </trkpt>
      <trkpt lat="49.33147" lon="-0.39139">
        <ele>4.7</ele>
        <time>2020-06-17T09:04:56Z</time>
      </trkpt>
      <trkpt lat="49.33147" lon="-0.39139">
        <ele>4.7</ele>
        <time>2020-06-17T09:04:57Z</time>
      </trkpt>
      <trkpt lat="49.33143" lon="-0.39139">
        <ele>4.7</ele>
        <time>2020-06-17T09:06:31Z</time>
      </trkpt>
      <trkpt lat="49.33144" lon="-0.39141">
        <ele>4.7</ele>
        <time>2020-06-17T09:06:32Z</time>
      </trkpt>
      <trkpt lat="49.33144" lon="-0.39142">
        <ele>4.7</ele>
        <time>2020-06-17T09:06:33Z</time>
      </trkpt>
      <trkpt lat="49.33144" lon="-0.39143">
        <ele>4.7</ele>
        <time>2020-06-17T09:06:34Z</time>
      </trkpt>
      <trkpt lat="49.33145" lon="-0.39144">
        <ele>4.7</ele>
        <time>2020-06-17T09:06:35Z</time>
      </trkpt>
      <trkpt lat="49.33145" lon="-0.39146">
        <ele>4.7</ele>
        <time>2020-06-17T09:06:36Z</time>
      </trkpt>
      <trkpt lat="49.33146" lon="-0.39148">
        <ele>4.7</ele>
        <time>2020-06-17T09:06:37Z</time>
      </trkpt>
      <trkpt lat="49.33147" lon="-0.3915">
        <ele>4.7</ele>
        <time>2020-06-17T09:06:38Z</time>
      </trkpt>
      <trkpt lat="49.33147" lon="-0.39152">
        <ele>4.7</ele>
        <time>2020-06-17T09:06:39Z</time>
      </trkpt>
      <trkpt lat="49.33148" lon="-0.39154">
        <ele>4.7</ele>
        <time>2020-06-17T09:06:40Z</time>
      </trkpt>
      <trkpt lat="49.33148" lon="-0.39155">
        <ele>4.7</ele>
        <time>2020-06-17T09:06:41Z</time>
      </trkpt>
      <trkpt lat="49.33149" lon="-0.39157">
        <ele>4.7</ele>
        <time>2020-06-17T09:06:42Z</time>
      </trkpt>
      <trkpt lat="49.3315" lon="-0.39158">
        <ele>4.7</ele>
        <time>2020-06-17T09:06:43Z</time>
      </trkpt>
      <trkpt lat="49.3315" lon="-0.39159">
        <ele>4.7</ele>
        <time>2020-06-17T09:06:44Z</time>
      </trkpt>
      <trkpt lat="49.33151" lon="-0.3916">
        <ele>4.7</ele>
        <time>2020-06-17T09:06:45Z</time>
      </trkpt>
      <trkpt lat="49.33151" lon="-0.39162">
        <ele>4.7</ele>
        <time>2020-06-17T09:06:46Z</time>
      </trkpt>
      <trkpt lat="49.33151" lon="-0.39164">
        <ele>4.7</ele>
        <time>2020-06-17T09:06:47Z</time>
      </trkpt>
      <trkpt lat="49.33151" lon="-0.39166">
        <ele>4.7</ele>
        <time>2020-06-17T09:06:48Z</time>
      </trkpt>
      <trkpt lat="49.33151" lon="-0.39167">
        <ele>4.7</ele>
        <time>2020-06-17T09:06:49Z</time>
      </trkpt>
      <trkpt lat="49.33151" lon="-0.39168">
        <ele>4.7</ele>
        <time>2020-06-17T09:06:50Z</time>
      </trkpt>
      <trkpt lat="49.33151" lon="-0.39168">
        <ele>4.7</ele>
        <time>2020-06-17T09:06:51Z</time>
      </trkpt>
      <trkpt lat="49.33151" lon="-0.39168">
        <ele>4.7</ele>
        <time>2020-06-17T09:06:52Z</time>
      </trkpt>
      <trkpt lat="49.3315" lon="-0.39169">
        <ele>4.7</ele>
        <time>2020-06-17T09:06:53Z</time>
      </trkpt>
      <trkpt lat="49.33149" lon="-0.3917">
        <ele>4.7</ele>
        <time>2020-06-17T09:06:54Z</time>
      </trkpt>
      <trkpt lat="49.33146" lon="-0.39176">
        <ele>5.2</ele>
        <time>2020-06-17T09:07:06Z</time>
      </trkpt>
      <trkpt lat="49.33145" lon="-0.39178">
        <ele>5.2</ele>
        <time>2020-06-17T09:07:07Z</time>
      </trkpt>
      <trkpt lat="49.33144" lon="-0.39178">
        <ele>5.2</ele>
        <time>2020-06-17T09:07:08Z</time>
      </trkpt>
      <trkpt lat="49.33144" lon="-0.39178">
        <ele>5.2</ele>
        <time>2020-06-17T09:07:09Z</time>
      </trkpt>
      <trkpt lat="49.33143" lon="-0.39178">
        <ele>5.2</ele>
        <time>2020-06-17T09:07:10Z</time>
      </trkpt>
      <trkpt lat="49.33143" lon="-0.39178">
        <ele>5.2</ele>
        <time>2020-06-17T09:07:11Z</time>
      </trkpt>
      <trkpt lat="49.33143" lon="-0.39178">
        <ele>5.2</ele>
        <time>2020-06-17T09:07:12Z</time>
      </trkpt>
      <trkpt lat="49.33143" lon="-0.39177">
        <ele>5.2</ele>
        <time>2020-06-17T09:07:13Z</time>
      </trkpt>
      <trkpt lat="49.33143" lon="-0.39177">
        <ele>5.2</ele>
        <time>2020-06-17T09:07:14Z</time>
      </trkpt>
      <trkpt lat="49.33143" lon="-0.39177">
        <ele>5.2</ele>
        <time>2020-06-17T09:07:15Z</time>
      </trkpt>
      <trkpt lat="49.33143" lon="-0.39176">
        <ele>5.2</ele>
        <time>2020-06-17T09:07:16Z</time>
      </trkpt>
      <trkpt lat="49.33144" lon="-0.39176">
        <ele>5.2</ele>
        <time>2020-06-17T09:07:17Z</time>
      </trkpt>
      <trkpt lat="49.33144" lon="-0.39177">
        <ele>5.2</ele>
        <time>2020-06-17T09:07:18Z</time>
      </trkpt>
      <trkpt lat="49.33145" lon="-0.39178">
        <ele>5.2</ele>
        <time>2020-06-17T09:07:19Z</time>
      </trkpt>
      <trkpt lat="49.33145" lon="-0.39178">
        <ele>5.2</ele>
        <time>2020-06-17T09:07:20Z</time>
      </trkpt>
      <trkpt lat="49.33145" lon="-0.39178">
        <ele>5.2</ele>
        <time>2020-06-17T09:07:21Z</time>
      </trkpt>
      <trkpt lat="49.33145" lon="-0.39179">
        <ele>5.3</ele>
        <time>2020-06-17T09:07:22Z</time>
      </trkpt>
      <trkpt lat="49.33146" lon="-0.39179">
        <ele>5.3</ele>
        <time>2020-06-17T09:07:23Z</time>
      </trkpt>
      <trkpt lat="49.33146" lon="-0.39179">
        <ele>5.3</ele>
        <time>2020-06-17T09:07:24Z</time>
      </trkpt>
      <trkpt lat="49.33146" lon="-0.39179">
        <ele>5.3</ele>
        <time>2020-06-17T09:07:25Z</time>
      </trkpt>
      <trkpt lat="49.33147" lon="-0.39179">
        <ele>5.3</ele>
        <time>2020-06-17T09:07:26Z</time>
      </trkpt>
      <trkpt lat="49.33147" lon="-0.39179">
        <ele>5.3</ele>
        <time>2020-06-17T09:07:27Z</time>
      </trkpt>
      <trkpt lat="49.33148" lon="-0.3918">
        <ele>5.3</ele>
        <time>2020-06-17T09:07:28Z</time>
      </trkpt>
      <trkpt lat="49.33148" lon="-0.3918">
        <ele>5.3</ele>
        <time>2020-06-17T09:07:29Z</time>
      </trkpt>
      <trkpt lat="49.33149" lon="-0.3918">
        <ele>5.3</ele>
        <time>2020-06-17T09:07:30Z</time>
      </trkpt>
      <trkpt lat="49.33149" lon="-0.3918">
        <ele>5.3</ele>
        <time>2020-06-17T09:07:31Z</time>
      </trkpt>
      <trkpt lat="49.33149" lon="-0.3918">
        <ele>5.3</ele>
        <time>2020-06-17T09:07:32Z</time>
      </trkpt>
      <trkpt lat="49.33149" lon="-0.3918">
        <ele>5.3</ele>
        <time>2020-06-17T09:07:33Z</time>
      </trkpt>
      <trkpt lat="49.33149" lon="-0.3918">
        <ele>5.3</ele>
        <time>2020-06-17T09:07:34Z</time>
      </trkpt>
      <trkpt lat="49.33149" lon="-0.3918">
        <ele>5.3</ele>
        <time>2020-06-17T09:07:35Z</time>
      </trkpt>
      <trkpt lat="49.33149" lon="-0.3918">
        <ele>5.3</ele>
        <time>2020-06-17T09:07:36Z</time>
      </trkpt>
      <trkpt lat="49.33149" lon="-0.3918">
        <ele>5.3</ele>
        <time>2020-06-17T09:07:37Z</time>
      </trkpt>
      <trkpt lat="49.33149" lon="-0.3918">
        <ele>5.3</ele>
        <time>2020-06-17T09:07:38Z</time>
      </trkpt>
      <trkpt lat="49.33161" lon="-0.39162">
        <ele>5.3</ele>
        <time>2020-06-17T09:11:11Z</time>
      </trkpt>
      <trkpt lat="49.33162" lon="-0.39163">
        <ele>5.3</ele>
        <time>2020-06-17T09:11:12Z</time>
      </trkpt>
      <trkpt lat="49.33163" lon="-0.39164">
        <ele>5.3</ele>
        <time>2020-06-17T09:11:13Z</time>
      </trkpt>
      <trkpt lat="49.33163" lon="-0.39164">
        <ele>5.3</ele>
        <time>2020-06-17T09:11:14Z</time>
      </trkpt>
      <trkpt lat="49.33163" lon="-0.39164">
        <ele>5.3</ele>
        <time>2020-06-17T09:11:15Z</time>
      </trkpt>
      <trkpt lat="49.33163" lon="-0.39164">
        <ele>5.3</ele>
        <time>2020-06-17T09:11:16Z</time>
      </trkpt>
      <trkpt lat="49.33163" lon="-0.39164">
        <ele>5.3</ele>
        <time>2020-06-17T09:11:17Z</time>
      </trkpt>
      <trkpt lat="49.33164" lon="-0.39163">
        <ele>5.3</ele>
        <time>2020-06-17T09:11:18Z</time>
      </trkpt>
      <trkpt lat="49.33164" lon="-0.39163">
        <ele>5.3</ele>
        <time>2020-06-17T09:11:19Z</time>
      </trkpt>
      <trkpt lat="49.33164" lon="-0.39163">
        <ele>5.3</ele>
        <time>2020-06-17T09:11:20Z</time>
      </trkpt>
      <trkpt lat="49.33164" lon="-0.39163">
        <ele>5.3</ele>
        <time>2020-06-17T09:11:21Z</time>
      </trkpt>
      <trkpt lat="49.33164" lon="-0.39163">
        <ele>5.3</ele>
        <time>2020-06-17T09:11:22Z</time>
      </trkpt>
      <trkpt lat="49.33164" lon="-0.39162">
        <ele>5.3</ele>
        <time>2020-06-17T09:11:23Z</time>
      </trkpt>
      <trkpt lat="49.33164" lon="-0.39162">
        <ele>5.3</ele>
        <time>2020-06-17T09:11:24Z</time>
      </trkpt>
      <trkpt lat="49.33164" lon="-0.39162">
        <ele>5.3</ele>
        <time>2020-06-17T09:11:25Z</time>
      </trkpt>
      <trkpt lat="49.33164" lon="-0.39162">
        <ele>5.3</ele>
        <time>2020-06-17T09:11:26Z</time>
      </trkpt>
      <trkpt lat="49.33165" lon="-0.39161">
        <ele>5.3</ele>
        <time>2020-06-17T09:11:27Z</time>
      </trkpt>
      <trkpt lat="49.33164" lon="-0.3916">
        <ele>5.3</ele>
        <time>2020-06-17T09:11:28Z</time>
      </trkpt>
      <trkpt lat="49.33164" lon="-0.3916">
        <ele>5.3</ele>
        <time>2020-06-17T09:11:29Z</time>
      </trkpt>
      <trkpt lat="49.33164" lon="-0.3916">
        <ele>5.3</ele>
        <time>2020-06-17T09:11:30Z</time>
      </trkpt>
      <trkpt lat="49.33164" lon="-0.3916">
        <ele>5.3</ele>
        <time>2020-06-17T09:11:31Z</time>
      </trkpt>
      <trkpt lat="49.33164" lon="-0.39161">
        <ele>5.3</ele>
        <time>2020-06-17T09:11:32Z</time>
      </trkpt>
      <trkpt lat="49.33164" lon="-0.39162">
        <ele>5.3</ele>
        <time>2020-06-17T09:11:33Z</time>
      </trkpt>
      <trkpt lat="49.33165" lon="-0.39163">
        <ele>5.3</ele>
        <time>2020-06-17T09:11:34Z</time>
      </trkpt>
      <trkpt lat="49.33165" lon="-0.39164">
        <ele>5.3</ele>
        <time>2020-06-17T09:11:35Z</time>
      </trkpt>
      <trkpt lat="49.33165" lon="-0.39166">
        <ele>5.3</ele>
        <time>2020-06-17T09:11:36Z</time>
      </trkpt>
      <trkpt lat="49.33164" lon="-0.39166">
        <ele>5.3</ele>
        <time>2020-06-17T09:11:37Z</time>
      </trkpt>
      <trkpt lat="49.33164" lon="-0.39166">
        <ele>5.3</ele>
        <time>2020-06-17T09:11:38Z</time>
      </trkpt>
      <trkpt lat="49.33164" lon="-0.39167">
        <ele>5.3</ele>
        <time>2020-06-17T09:11:39Z</time>
      </trkpt>
      <trkpt lat="49.33164" lon="-0.39167">
        <ele>5.3</ele>
        <time>2020-06-17T09:11:40Z</time>
      </trkpt>
      <trkpt lat="49.33164" lon="-0.39167">
        <ele>5.3</ele>
        <time>2020-06-17T09:11:41Z</time>
      </trkpt>
      <trkpt lat="49.33163" lon="-0.39167">
        <ele>5.3</ele>
        <time>2020-06-17T09:11:42Z</time>
      </trkpt>
      <trkpt lat="49.33162" lon="-0.39167">
        <ele>5.3</ele>
        <time>2020-06-17T09:11:43Z</time>
      </trkpt>
      <trkpt lat="49.33162" lon="-0.39167">
        <ele>5.3</ele>
        <time>2020-06-17T09:11:44Z</time>
      </trkpt>
      <trkpt lat="49.33162" lon="-0.39168">
        <ele>5.3</ele>
        <time>2020-06-17T09:11:45Z</time>
      </trkpt>
      <trkpt lat="49.33161" lon="-0.39169">
        <ele>5.3</ele>
        <time>2020-06-17T09:11:46Z</time>
      </trkpt>
      <trkpt lat="49.33161" lon="-0.39168">
        <ele>5.3</ele>
        <time>2020-06-17T09:11:47Z</time>
      </trkpt>
      <trkpt lat="49.33153" lon="-0.39159">
        <ele>5.3</ele>
        <time>2020-06-17T09:11:57Z</time>
      </trkpt>
      <trkpt lat="49.33152" lon="-0.39157">
        <ele>5.3</ele>
        <time>2020-06-17T09:11:58Z</time>
      </trkpt>
      <trkpt lat="49.33151" lon="-0.39155">
        <ele>5.3</ele>
        <time>2020-06-17T09:11:59Z</time>
      </trkpt>
      <trkpt lat="49.3315" lon="-0.39153">
        <ele>5.3</ele>
        <time>2020-06-17T09:12:00Z</time>
      </trkpt>
      <trkpt lat="49.33149" lon="-0.39151">
        <ele>5.3</ele>
        <time>2020-06-17T09:12:01Z</time>
      </trkpt>
      <trkpt lat="49.33148" lon="-0.3915">
        <ele>5.3</ele>
        <time>2020-06-17T09:12:02Z</time>
      </trkpt>
      <trkpt lat="49.33147" lon="-0.39149">
        <ele>5.3</ele>
        <time>2020-06-17T09:12:03Z</time>
      </trkpt>
      <trkpt lat="49.33146" lon="-0.39147">
        <ele>5.3</ele>
        <time>2020-06-17T09:12:04Z</time>
      </trkpt>
      <trkpt lat="49.33145" lon="-0.39144">
        <ele>5.3</ele>
        <time>2020-06-17T09:12:05Z</time>
      </trkpt>
      <trkpt lat="49.33144" lon="-0.39143">
        <ele>5.3</ele>
        <time>2020-06-17T09:12:06Z</time>
      </trkpt>
      <trkpt lat="49.33144" lon="-0.39142">
        <ele>5.3</ele>
        <time>2020-06-17T09:12:07Z</time>
      </trkpt>
      <trkpt lat="49.33143" lon="-0.3914">
        <ele>5.3</ele>
        <time>2020-06-17T09:12:08Z</time>
      </trkpt>
      <trkpt lat="49.33142" lon="-0.39138">
        <ele>5.3</ele>
        <time>2020-06-17T09:12:09Z</time>
      </trkpt>
      <trkpt lat="49.33141" lon="-0.39137">
        <ele>5.3</ele>
        <time>2020-06-17T09:12:10Z</time>
      </trkpt>
      <trkpt lat="49.33141" lon="-0.39136">
        <ele>5.3</ele>
        <time>2020-06-17T09:12:11Z</time>
      </trkpt>
      <trkpt lat="49.3314" lon="-0.39134">
        <ele>5.3</ele>
        <time>2020-06-17T09:12:12Z</time>
      </trkpt>
      <trkpt lat="49.33139" lon="-0.39133">
        <ele>5.3</ele>
        <time>2020-06-17T09:12:13Z</time>
      </trkpt>
      <trkpt lat="49.33139" lon="-0.39132">
        <ele>5.3</ele>
        <time>2020-06-17T09:12:14Z</time>
      </trkpt>
      <trkpt lat="49.33139" lon="-0.39132">
        <ele>5.3</ele>
        <time>2020-06-17T09:12:15Z</time>
      </trkpt>
      <trkpt lat="49.33139" lon="-0.39131">
        <ele>5.3</ele>
        <time>2020-06-17T09:12:16Z</time>
      </trkpt>
      <trkpt lat="49.33139" lon="-0.39132">
        <ele>5.3</ele>
        <time>2020-06-17T09:12:17Z</time>
      </trkpt>
      <trkpt lat="49.3314" lon="-0.39132">
        <ele>5.3</ele>
        <time>2020-06-17T09:12:18Z</time>
      </trkpt>
      <trkpt lat="49.3314" lon="-0.39133">
        <ele>5.3</ele>
        <time>2020-06-17T09:12:19Z</time>
      </trkpt>
      <trkpt lat="49.33142" lon="-0.39134">
        <ele>5.3</ele>
        <time>2020-06-17T09:12:20Z</time>
      </trkpt>
      <trkpt lat="49.33142" lon="-0.39135">
        <ele>5.3</ele>
        <time>2020-06-17T09:12:21Z</time>
      </trkpt>
      <trkpt lat="49.33143" lon="-0.39136">
        <ele>5.3</ele>
        <time>2020-06-17T09:12:22Z</time>
      </trkpt>
      <trkpt lat="49.33143" lon="-0.39136">
        <ele>5.3</ele>
        <time>2020-06-17T09:12:23Z</time>
      </trkpt>
      <trkpt lat="49.33143" lon="-0.39137">
        <ele>5.3</ele>
        <time>2020-06-17T09:12:24Z</time>
      </trkpt>
      <trkpt lat="49.33143" lon="-0.39137">
        <ele>5.3</ele>
        <time>2020-06-17T09:12:25Z</time>
      </trkpt>
      <trkpt lat="49.33144" lon="-0.39137">
        <ele>5.3</ele>
        <time>2020-06-17T09:12:26Z</time>
      </trkpt>
      <trkpt lat="49.33143" lon="-0.39137">
        <ele>5.3</ele>
        <time>2020-06-17T09:12:27Z</time>
      </trkpt>
      <trkpt lat="49.33143" lon="-0.39137">
        <ele>5.3</ele>
        <time>2020-06-17T09:12:28Z</time>
      </trkpt>
      <trkpt lat="49.33143" lon="-0.39137">
        <ele>5.3</ele>
        <time>2020-06-17T09:12:29Z</time>
      </trkpt>
      <trkpt lat="49.33143" lon="-0.39137">
        <ele>5.3</ele>
        <time>2020-06-17T09:12:30Z</time>
      </trkpt>
      <trkpt lat="49.33143" lon="-0.39137">
        <ele>5.3</ele>
        <time>2020-06-17T09:12:31Z</time>
      </trkpt>
      <trkpt lat="49.33144" lon="-0.39137">
        <ele>5.3</ele>
        <time>2020-06-17T09:12:32Z</time>
      </trkpt>
      <trkpt lat="49.33145" lon="-0.39136">
        <ele>5.3</ele>
        <time>2020-06-17T09:12:33Z</time>
      </trkpt>
      <trkpt lat="49.33145" lon="-0.39136">
        <ele>5.3</ele>
        <time>2020-06-17T09:12:34Z</time>
      </trkpt>
      <trkpt lat="49.33145" lon="-0.39136">
        <ele>5.3</ele>
        <time>2020-06-17T09:12:35Z</time>
      </trkpt>
      <trkpt lat="49.33145" lon="-0.39136">
        <ele>5.3</ele>
        <time>2020-06-17T09:12:36Z</time>
      </trkpt>
      <trkpt lat="49.33145" lon="-0.39136">
        <ele>5.3</ele>
        <time>2020-06-17T09:12:37Z</time>
      </trkpt>
      <trkpt lat="49.33145" lon="-0.39136">
        <ele>5.3</ele>
        <time>2020-06-17T09:12:38Z</time>
      </trkpt>
      <trkpt lat="49.33145" lon="-0.39136">
        <ele>5.3</ele>
        <time>2020-06-17T09:12:39Z</time>
      </trkpt>
      <trkpt lat="49.33145" lon="-0.39137">
        <ele>5.3</ele>
        <time>2020-06-17T09:12:40Z</time>
      </trkpt>
      <trkpt lat="49.33145" lon="-0.39137">
        <ele>5.3</ele>
        <time>2020-06-17T09:12:41Z</time>
      </trkpt>
      <trkpt lat="49.33145" lon="-0.39137">
        <ele>5.3</ele>
        <time>2020-06-17T09:12:42Z</time>
      </trkpt>
      <trkpt lat="49.33145" lon="-0.39137">
        <ele>5.3</ele>
        <time>2020-06-17T09:12:43Z</time>
      </trkpt>
      <trkpt lat="49.33144" lon="-0.39137">
        <ele>5.3</ele>
        <time>2020-06-17T09:12:44Z</time>
      </trkpt>
      <trkpt lat="49.33144" lon="-0.39136">
        <ele>5.3</ele>
        <time>2020-06-17T09:12:45Z</time>
      </trkpt>
      <trkpt lat="49.33144" lon="-0.39136">
        <ele>5.3</ele>
        <time>2020-06-17T09:12:46Z</time>
      </trkpt>
      <trkpt lat="49.33143" lon="-0.39137">
        <ele>5.3</ele>
        <time>2020-06-17T09:12:47Z</time>
      </trkpt>
      <trkpt lat="49.33144" lon="-0.39137">
        <ele>5.3</ele>
        <time>2020-06-17T09:12:48Z</time>
      </trkpt>
      <trkpt lat="49.33143" lon="-0.39137">
        <ele>5.3</ele>
        <time>2020-06-17T09:12:49Z</time>
      </trkpt>
      <trkpt lat="49.33143" lon="-0.39138">
        <ele>5.3</ele>
        <time>2020-06-17T09:12:50Z</time>
      </trkpt>
      <trkpt lat="49.33143" lon="-0.39138">
        <ele>5.3</ele>
        <time>2020-06-17T09:12:51Z</time>
      </trkpt>
      <trkpt lat="49.33143" lon="-0.39137">
        <ele>5.3</ele>
        <time>2020-06-17T09:12:52Z</time>
      </trkpt>
      <trkpt lat="49.33143" lon="-0.39137">
        <ele>5.3</ele>
        <time>2020-06-17T09:12:53Z</time>
      </trkpt>
      <trkpt lat="49.33143" lon="-0.39138">
        <ele>5.3</ele>
        <time>2020-06-17T09:12:54Z</time>
      </trkpt>
      <trkpt lat="49.33142" lon="-0.39138">
        <ele>5.3</ele>
        <time>2020-06-17T09:12:55Z</time>
      </trkpt>
      <trkpt lat="49.33142" lon="-0.39138">
        <ele>5.3</ele>
        <time>2020-06-17T09:12:56Z</time>
      </trkpt>
      <trkpt lat="49.33141" lon="-0.39137">
        <ele>5.3</ele>
        <time>2020-06-17T09:12:57Z</time>
      </trkpt>
      <trkpt lat="49.33141" lon="-0.39137">
        <ele>5.3</ele>
        <time>2020-06-17T09:12:58Z</time>
      </trkpt>
      <trkpt lat="49.3314" lon="-0.39136">
        <ele>5.3</ele>
        <time>2020-06-17T09:12:59Z</time>
      </trkpt>
      <trkpt lat="49.3314" lon="-0.39136">
        <ele>5.3</ele>
        <time>2020-06-17T09:13:00Z</time>
      </trkpt>
      <trkpt lat="49.3314" lon="-0.39135">
        <ele>5.3</ele>
        <time>2020-06-17T09:13:01Z</time>
      </trkpt>
      <trkpt lat="49.33139" lon="-0.39134">
        <ele>5.3</ele>
        <time>2020-06-17T09:13:02Z</time>
      </trkpt>
      <trkpt lat="49.33138" lon="-0.39135">
        <ele>5.3</ele>
        <time>2020-06-17T09:13:03Z</time>
      </trkpt>
      <trkpt lat="49.33137" lon="-0.39135">
        <ele>5.3</ele>
        <time>2020-06-17T09:13:04Z</time>
      </trkpt>
      <trkpt lat="49.33137" lon="-0.39135">
        <ele>5.3</ele>
        <time>2020-06-17T09:13:05Z</time>
      </trkpt>
      <trkpt lat="49.33138" lon="-0.39135">
        <ele>5.3</ele>
        <time>2020-06-17T09:13:06Z</time>
      </trkpt>
      <trkpt lat="49.33138" lon="-0.39135">
        <ele>5.3</ele>
        <time>2020-06-17T09:13:07Z</time>
      </trkpt>
      <trkpt lat="49.33138" lon="-0.39134">
        <ele>5.3</ele>
        <time>2020-06-17T09:13:08Z</time>
      </trkpt>
      <trkpt lat="49.33138" lon="-0.39133">
        <ele>5.3</ele>
        <time>2020-06-17T09:13:09Z</time>
      </trkpt>
      <trkpt lat="49.33138" lon="-0.39133">
        <ele>5.3</ele>
        <time>2020-06-17T09:13:10Z</time>
      </trkpt>
      <trkpt lat="49.33137" lon="-0.39132">
        <ele>5.3</ele>
        <time>2020-06-17T09:13:11Z</time>
      </trkpt>
      <trkpt lat="49.33136" lon="-0.39132">
        <ele>5.3</ele>
        <time>2020-06-17T09:13:12Z</time>
      </trkpt>
      <trkpt lat="49.33135" lon="-0.39133">
        <ele>5.3</ele>
        <time>2020-06-17T09:13:13Z</time>
      </trkpt>
      <trkpt lat="49.33135" lon="-0.39133">
        <ele>5.5</ele>
        <time>2020-06-17T09:13:14Z</time>
      </trkpt>
      <trkpt lat="49.33134" lon="-0.39134">
        <ele>5.5</ele>
        <time>2020-06-17T09:13:15Z</time>
      </trkpt>
      <trkpt lat="49.33134" lon="-0.39135">
        <ele>5.5</ele>
        <time>2020-06-17T09:13:16Z</time>
      </trkpt>
      <trkpt lat="49.33134" lon="-0.39135">
        <ele>5.5</ele>
        <time>2020-06-17T09:13:17Z</time>
      </trkpt>
      <trkpt lat="49.33134" lon="-0.39136">
        <ele>5.5</ele>
        <time>2020-06-17T09:13:18Z</time>
      </trkpt>
      <trkpt lat="49.33133" lon="-0.39136">
        <ele>5.5</ele>
        <time>2020-06-17T09:13:19Z</time>
      </trkpt>
      <trkpt lat="49.33134" lon="-0.39137">
        <ele>5.5</ele>
        <time>2020-06-17T09:13:20Z</time>
      </trkpt>
      <trkpt lat="49.33134" lon="-0.39137">
        <ele>5.5</ele>
        <time>2020-06-17T09:13:21Z</time>
      </trkpt>
      <trkpt lat="49.33134" lon="-0.39137">
        <ele>5.5</ele>
        <time>2020-06-17T09:13:22Z</time>
      </trkpt>
      <trkpt lat="49.33134" lon="-0.39137">
        <ele>5.5</ele>
        <time>2020-06-17T09:13:23Z</time>
      </trkpt>
      <trkpt lat="49.33134" lon="-0.39136">
        <ele>5.5</ele>
        <time>2020-06-17T09:13:24Z</time>
      </trkpt>
      <trkpt lat="49.33135" lon="-0.39136">
        <ele>5.5</ele>
        <time>2020-06-17T09:13:25Z</time>
      </trkpt>
      <trkpt lat="49.33135" lon="-0.39135">
        <ele>5.5</ele>
        <time>2020-06-17T09:13:26Z</time>
      </trkpt>
      <trkpt lat="49.33135" lon="-0.39135">
        <ele>5.5</ele>
        <time>2020-06-17T09:13:27Z</time>
      </trkpt>
      <trkpt lat="49.33135" lon="-0.39135">
        <ele>5.5</ele>
        <time>2020-06-17T09:13:28Z</time>
      </trkpt>
      <trkpt lat="49.33136" lon="-0.39135">
        <ele>5.3</ele>
        <time>2020-06-17T09:13:29Z</time>
      </trkpt>
      <trkpt lat="49.33137" lon="-0.39135">
        <ele>5.3</ele>
        <time>2020-06-17T09:13:30Z</time>
      </trkpt>
      <trkpt lat="49.33137" lon="-0.39135">
        <ele>5.3</ele>
        <time>2020-06-17T09:13:31Z</time>
      </trkpt>
      <trkpt lat="49.33131" lon="-0.39137">
        <ele>5.7</ele>
        <time>2020-06-17T09:15:58Z</time>
      </trkpt>
      <trkpt lat="49.33131" lon="-0.39137">
        <ele>5.7</ele>
        <time>2020-06-17T09:15:59Z</time>
      </trkpt>
      <trkpt lat="49.33131" lon="-0.39137">
        <ele>5.7</ele>
        <time>2020-06-17T09:16:00Z</time>
      </trkpt>
      <trkpt lat="49.33132" lon="-0.39136">
        <ele>5.7</ele>
        <time>2020-06-17T09:16:01Z</time>
      </trkpt>
      <trkpt lat="49.33132" lon="-0.39135">
        <ele>5.7</ele>
        <time>2020-06-17T09:16:02Z</time>
      </trkpt>
      <trkpt lat="49.33132" lon="-0.39136">
        <ele>5.7</ele>
        <time>2020-06-17T09:16:03Z</time>
      </trkpt>
      <trkpt lat="49.33132" lon="-0.39135">
        <ele>5.7</ele>
        <time>2020-06-17T09:16:04Z</time>
      </trkpt>
      <trkpt lat="49.33133" lon="-0.39135">
        <ele>5.8</ele>
        <time>2020-06-17T09:16:05Z</time>
      </trkpt>
      <trkpt lat="49.33133" lon="-0.39135">
        <ele>5.8</ele>
        <time>2020-06-17T09:16:06Z</time>
      </trkpt>
      <trkpt lat="49.33133" lon="-0.39135">
        <ele>5.8</ele>
        <time>2020-06-17T09:16:07Z</time>
      </trkpt>
      <trkpt lat="49.33133" lon="-0.39134">
        <ele>5.8</ele>
        <time>2020-06-17T09:16:08Z</time>
      </trkpt>
      <trkpt lat="49.33133" lon="-0.39134">
        <ele>5.8</ele>
        <time>2020-06-17T09:16:09Z</time>
      </trkpt>
      <trkpt lat="49.33132" lon="-0.39133">
        <ele>5.8</ele>
        <time>2020-06-17T09:16:10Z</time>
      </trkpt>
      <trkpt lat="49.33132" lon="-0.39133">
        <ele>5.8</ele>
        <time>2020-06-17T09:16:11Z</time>
      </trkpt>
      <trkpt lat="49.33132" lon="-0.39133">
        <ele>5.8</ele>
        <time>2020-06-17T09:16:12Z</time>
      </trkpt>
      <trkpt lat="49.33132" lon="-0.39133">
        <ele>5.8</ele>
        <time>2020-06-17T09:16:13Z</time>
      </trkpt>
      <trkpt lat="49.3313" lon="-0.39132">
        <ele>5.9</ele>
        <time>2020-06-17T09:16:19Z</time>
      </trkpt>
      <trkpt lat="49.33131" lon="-0.39132">
        <ele>5.9</ele>
        <time>2020-06-17T09:16:20Z</time>
      </trkpt>
      <trkpt lat="49.33131" lon="-0.39133">
        <ele>5.9</ele>
        <time>2020-06-17T09:16:21Z</time>
      </trkpt>
      <trkpt lat="49.33131" lon="-0.39133">
        <ele>5.9</ele>
        <time>2020-06-17T09:16:22Z</time>
      </trkpt>
      <trkpt lat="49.33131" lon="-0.39133">
        <ele>5.9</ele>
        <time>2020-06-17T09:16:23Z</time>
      </trkpt>
      <trkpt lat="49.3313" lon="-0.39132">
        <ele>5.9</ele>
        <time>2020-06-17T09:16:24Z</time>
      </trkpt>
      <trkpt lat="49.33131" lon="-0.39132">
        <ele>5.9</ele>
        <time>2020-06-17T09:16:25Z</time>
      </trkpt>
      <trkpt lat="49.3313" lon="-0.39132">
        <ele>5.9</ele>
        <time>2020-06-17T09:16:26Z</time>
      </trkpt>
      <trkpt lat="49.3313" lon="-0.39132">
        <ele>5.9</ele>
        <time>2020-06-17T09:16:27Z</time>
      </trkpt>
      <trkpt lat="49.3313" lon="-0.39132">
        <ele>5.9</ele>
        <time>2020-06-17T09:16:28Z</time>
      </trkpt>
      <trkpt lat="49.3313" lon="-0.39132">
        <ele>6</ele>
        <time>2020-06-17T09:16:29Z</time>
      </trkpt>
      <trkpt lat="49.3313" lon="-0.39132">
        <ele>6</ele>
        <time>2020-06-17T09:16:30Z</time>
      </trkpt>
      <trkpt lat="49.3313" lon="-0.39132">
        <ele>6</ele>
        <time>2020-06-17T09:16:31Z</time>
      </trkpt>
      <trkpt lat="49.3313" lon="-0.39132">
        <ele>6</ele>
        <time>2020-06-17T09:16:32Z</time>
      </trkpt>
      <trkpt lat="49.33129" lon="-0.39132">
        <ele>6</ele>
        <time>2020-06-17T09:16:33Z</time>
      </trkpt>
      <trkpt lat="49.33129" lon="-0.39131">
        <ele>6</ele>
        <time>2020-06-17T09:16:34Z</time>
      </trkpt>
      <trkpt lat="49.33129" lon="-0.39132">
        <ele>6</ele>
        <time>2020-06-17T09:16:35Z</time>
      </trkpt>
      <trkpt lat="49.33129" lon="-0.39132">
        <ele>6</ele>
        <time>2020-06-17T09:16:36Z</time>
      </trkpt>
      <trkpt lat="49.33129" lon="-0.39132">
        <ele>6</ele>
        <time>2020-06-17T09:16:37Z</time>
      </trkpt>
      <trkpt lat="49.33129" lon="-0.39133">
        <ele>6</ele>
        <time>2020-06-17T09:16:38Z</time>
      </trkpt>
      <trkpt lat="49.33129" lon="-0.39133">
        <ele>6</ele>
        <time>2020-06-17T09:16:39Z</time>
      </trkpt>
      <trkpt lat="49.33129" lon="-0.39133">
        <ele>6</ele>
        <time>2020-06-17T09:16:40Z</time>
      </trkpt>
      <trkpt lat="49.33129" lon="-0.39133">
        <ele>6</ele>
        <time>2020-06-17T09:16:41Z</time>
      </trkpt>
      <trkpt lat="49.33129" lon="-0.39133">
        <ele>6</ele>
        <time>2020-06-17T09:16:42Z</time>
      </trkpt>
      <trkpt lat="49.33129" lon="-0.39133">
        <ele>6</ele>
        <time>2020-06-17T09:16:43Z</time>
      </trkpt>
      <trkpt lat="49.33129" lon="-0.39134">
        <ele>6</ele>
        <time>2020-06-17T09:16:44Z</time>
      </trkpt>
      <trkpt lat="49.33129" lon="-0.39134">
        <ele>6.1</ele>
        <time>2020-06-17T09:16:45Z</time>
      </trkpt>
      <trkpt lat="49.33129" lon="-0.39135">
        <ele>6.1</ele>
        <time>2020-06-17T09:16:46Z</time>
      </trkpt>
      <trkpt lat="49.33129" lon="-0.39136">
        <ele>6.1</ele>
        <time>2020-06-17T09:16:47Z</time>
      </trkpt>
      <trkpt lat="49.33129" lon="-0.39135">
        <ele>6.1</ele>
        <time>2020-06-17T09:16:48Z</time>
      </trkpt>
      <trkpt lat="49.33129" lon="-0.39135">
        <ele>6.1</ele>
        <time>2020-06-17T09:16:49Z</time>
      </trkpt>
      <trkpt lat="49.3313" lon="-0.39135">
        <ele>6.1</ele>
        <time>2020-06-17T09:16:50Z</time>
      </trkpt>
      <trkpt lat="49.3313" lon="-0.39136">
        <ele>6.1</ele>
        <time>2020-06-17T09:16:51Z</time>
      </trkpt>
      <trkpt lat="49.33129" lon="-0.39136">
        <ele>6.1</ele>
        <time>2020-06-17T09:16:52Z</time>
      </trkpt>
      <trkpt lat="49.33129" lon="-0.39136">
        <ele>6.2</ele>
        <time>2020-06-17T09:16:53Z</time>
      </trkpt>
      <trkpt lat="49.33129" lon="-0.39135">
        <ele>6.2</ele>
        <time>2020-06-17T09:16:54Z</time>
      </trkpt>
      <trkpt lat="49.33128" lon="-0.39135">
        <ele>6.2</ele>
        <time>2020-06-17T09:16:55Z</time>
      </trkpt>
      <trkpt lat="49.33129" lon="-0.39135">
        <ele>6.2</ele>
        <time>2020-06-17T09:16:56Z</time>
      </trkpt>
      <trkpt lat="49.33128" lon="-0.39134">
        <ele>6.2</ele>
        <time>2020-06-17T09:16:57Z</time>
      </trkpt>
      <trkpt lat="49.33128" lon="-0.39134">
        <ele>6.2</ele>
        <time>2020-06-17T09:16:58Z</time>
      </trkpt>
      <trkpt lat="49.33128" lon="-0.39135">
        <ele>6.2</ele>
        <time>2020-06-17T09:16:59Z</time>
      </trkpt>
      <trkpt lat="49.33128" lon="-0.39134">
        <ele>6.2</ele>
        <time>2020-06-17T09:17:00Z</time>
      </trkpt>
      <trkpt lat="49.33128" lon="-0.39135">
        <ele>6.2</ele>
        <time>2020-06-17T09:17:01Z</time>
      </trkpt>
      <trkpt lat="49.33128" lon="-0.39134">
        <ele>6.2</ele>
        <time>2020-06-17T09:17:02Z</time>
      </trkpt>
      <trkpt lat="49.33128" lon="-0.39135">
        <ele>6.3</ele>
        <time>2020-06-17T09:17:03Z</time>
      </trkpt>
      <trkpt lat="49.33128" lon="-0.39135">
        <ele>6.3</ele>
        <time>2020-06-17T09:17:04Z</time>
      </trkpt>
      <trkpt lat="49.33128" lon="-0.39135">
        <ele>6.3</ele>
        <time>2020-06-17T09:17:05Z</time>
      </trkpt>
      <trkpt lat="49.33128" lon="-0.39135">
        <ele>6.3</ele>
        <time>2020-06-17T09:17:06Z</time>
      </trkpt>
      <trkpt lat="49.33128" lon="-0.39135">
        <ele>6.3</ele>
        <time>2020-06-17T09:17:07Z</time>
      </trkpt>
      <trkpt lat="49.33128" lon="-0.39135">
        <ele>6.3</ele>
        <time>2020-06-17T09:17:08Z</time>
      </trkpt>
      <trkpt lat="49.33129" lon="-0.39141">
        <ele>6.4</ele>
        <time>2020-06-17T09:17:22Z</time>
      </trkpt>
      <trkpt lat="49.33131" lon="-0.39143">
        <ele>6.4</ele>
        <time>2020-06-17T09:17:23Z</time>
      </trkpt>
      <trkpt lat="49.33133" lon="-0.39145">
        <ele>6.5</ele>
        <time>2020-06-17T09:17:24Z</time>
      </trkpt>
      <trkpt lat="49.33136" lon="-0.39147">
        <ele>6.6</ele>
        <time>2020-06-17T09:17:25Z</time>
      </trkpt>
      <trkpt lat="49.33137" lon="-0.3915">
        <ele>6.6</ele>
        <time>2020-06-17T09:17:26Z</time>
      </trkpt>
      <trkpt lat="49.33137" lon="-0.39152">
        <ele>6.6</ele>
        <time>2020-06-17T09:17:27Z</time>
      </trkpt>
      <trkpt lat="49.33137" lon="-0.39154">
        <ele>6.7</ele>
        <time>2020-06-17T09:17:28Z</time>
      </trkpt>
      <trkpt lat="49.33137" lon="-0.39155">
        <ele>6.7</ele>
        <time>2020-06-17T09:17:29Z</time>
      </trkpt>
      <trkpt lat="49.33136" lon="-0.39156">
        <ele>6.7</ele>
        <time>2020-06-17T09:17:30Z</time>
      </trkpt>
      <trkpt lat="49.33136" lon="-0.39158">
        <ele>6.7</ele>
        <time>2020-06-17T09:17:31Z</time>
      </trkpt>
      <trkpt lat="49.33135" lon="-0.39158">
        <ele>6.7</ele>
        <time>2020-06-17T09:17:32Z</time>
      </trkpt>
      <trkpt lat="49.33135" lon="-0.39158">
        <ele>6.7</ele>
        <time>2020-06-17T09:17:33Z</time>
      </trkpt>
      <trkpt lat="49.33135" lon="-0.39158">
        <ele>6.7</ele>
        <time>2020-06-17T09:17:34Z</time>
      </trkpt>
      <trkpt lat="49.33135" lon="-0.39158">
        <ele>6.8</ele>
        <time>2020-06-17T09:17:35Z</time>
      </trkpt>
      <trkpt lat="49.33136" lon="-0.39159">
        <ele>6.8</ele>
        <time>2020-06-17T09:17:36Z</time>
      </trkpt>
      <trkpt lat="49.33136" lon="-0.3916">
        <ele>6.8</ele>
        <time>2020-06-17T09:17:37Z</time>
      </trkpt>
      <trkpt lat="49.33136" lon="-0.39161">
        <ele>6.8</ele>
        <time>2020-06-17T09:17:38Z</time>
      </trkpt>
      <trkpt lat="49.33134" lon="-0.39161">
        <ele>6.8</ele>
        <time>2020-06-17T09:17:39Z</time>
      </trkpt>
      <trkpt lat="49.33133" lon="-0.39162">
        <ele>6.9</ele>
        <time>2020-06-17T09:17:40Z</time>
      </trkpt>
      <trkpt lat="49.33132" lon="-0.39163">
        <ele>6.9</ele>
        <time>2020-06-17T09:17:41Z</time>
      </trkpt>
      <trkpt lat="49.33131" lon="-0.39165">
        <ele>6.9</ele>
        <time>2020-06-17T09:17:42Z</time>
      </trkpt>
      <trkpt lat="49.33129" lon="-0.39167">
        <ele>7</ele>
        <time>2020-06-17T09:17:43Z</time>
      </trkpt>
      <trkpt lat="49.33129" lon="-0.39169">
        <ele>7</ele>
        <time>2020-06-17T09:17:44Z</time>
      </trkpt>
      <trkpt lat="49.33127" lon="-0.39171">
        <ele>7.1</ele>
        <time>2020-06-17T09:17:45Z</time>
      </trkpt>
      <trkpt lat="49.33127" lon="-0.39172">
        <ele>7.1</ele>
        <time>2020-06-17T09:17:46Z</time>
      </trkpt>
      <trkpt lat="49.33126" lon="-0.39173">
        <ele>7.1</ele>
        <time>2020-06-17T09:17:47Z</time>
      </trkpt>
      <trkpt lat="49.33125" lon="-0.39175">
        <ele>7.1</ele>
        <time>2020-06-17T09:17:48Z</time>
      </trkpt>
      <trkpt lat="49.33125" lon="-0.39176">
        <ele>7.1</ele>
        <time>2020-06-17T09:17:49Z</time>
      </trkpt>
      <trkpt lat="49.33124" lon="-0.39176">
        <ele>7.1</ele>
        <time>2020-06-17T09:17:50Z</time>
      </trkpt>
      <trkpt lat="49.33123" lon="-0.39177">
        <ele>7.1</ele>
        <time>2020-06-17T09:17:51Z</time>
      </trkpt>
      <trkpt lat="49.33122" lon="-0.39178">
        <ele>7.2</ele>
        <time>2020-06-17T09:17:52Z</time>
      </trkpt>
      <trkpt lat="49.33122" lon="-0.3918">
        <ele>7.2</ele>
        <time>2020-06-17T09:17:53Z</time>
      </trkpt>
      <trkpt lat="49.3312" lon="-0.3918">
        <ele>7.2</ele>
        <time>2020-06-17T09:17:54Z</time>
      </trkpt>
      <trkpt lat="49.3312" lon="-0.39181">
        <ele>7.2</ele>
        <time>2020-06-17T09:17:55Z</time>
      </trkpt>
      <trkpt lat="49.33119" lon="-0.39182">
        <ele>7.3</ele>
        <time>2020-06-17T09:17:56Z</time>
      </trkpt>
      <trkpt lat="49.33118" lon="-0.39182">
        <ele>7.3</ele>
        <time>2020-06-17T09:17:57Z</time>
      </trkpt>
      <trkpt lat="49.33118" lon="-0.39183">
        <ele>7.3</ele>
        <time>2020-06-17T09:17:58Z</time>
      </trkpt>
      <trkpt lat="49.33117" lon="-0.39183">
        <ele>7.3</ele>
        <time>2020-06-17T09:17:59Z</time>
      </trkpt>
      <trkpt lat="49.33117" lon="-0.39182">
        <ele>7.3</ele>
        <time>2020-06-17T09:18:00Z</time>
      </trkpt>
      <trkpt lat="49.33117" lon="-0.39182">
        <ele>7.3</ele>
        <time>2020-06-17T09:18:01Z</time>
      </trkpt>
      <trkpt lat="49.33117" lon="-0.39181">
        <ele>7.3</ele>
        <time>2020-06-17T09:18:02Z</time>
      </trkpt>
      <trkpt lat="49.33117" lon="-0.39181">
        <ele>7.3</ele>
        <time>2020-06-17T09:18:03Z</time>
      </trkpt>
      <trkpt lat="49.33116" lon="-0.3918">
        <ele>7.3</ele>
        <time>2020-06-17T09:18:04Z</time>
      </trkpt>
      <trkpt lat="49.33116" lon="-0.3918">
        <ele>7.3</ele>
        <time>2020-06-17T09:18:05Z</time>
      </trkpt>
      <trkpt lat="49.33112" lon="-0.39179">
        <ele>7.5</ele>
        <time>2020-06-17T09:18:06Z</time>
      </trkpt>
      <trkpt lat="49.3311" lon="-0.39178">
        <ele>7.5</ele>
        <time>2020-06-17T09:18:07Z</time>
      </trkpt>
      <trkpt lat="49.33108" lon="-0.39177">
        <ele>7.5</ele>
        <time>2020-06-17T09:18:08Z</time>
      </trkpt>
      <trkpt lat="49.33106" lon="-0.39177">
        <ele>7.5</ele>
        <time>2020-06-17T09:18:09Z</time>
      </trkpt>
      <trkpt lat="49.33104" lon="-0.39176">
        <ele>7.4</ele>
        <time>2020-06-17T09:18:20Z</time>
      </trkpt>
      <trkpt lat="49.33102" lon="-0.39175">
        <ele>7.4</ele>
        <time>2020-06-17T09:18:21Z</time>
      </trkpt>
      <trkpt lat="49.33099" lon="-0.39177">
        <ele>7.4</ele>
        <time>2020-06-17T09:18:22Z</time>
      </trkpt>
      <trkpt lat="49.33096" lon="-0.39175">
        <ele>7.4</ele>
        <time>2020-06-17T09:18:23Z</time>
      </trkpt>
      <trkpt lat="49.33094" lon="-0.39174">
        <ele>7.4</ele>
        <time>2020-06-17T09:18:24Z</time>
      </trkpt>
      <trkpt lat="49.3309" lon="-0.39175">
        <ele>7.4</ele>
        <time>2020-06-17T09:18:25Z</time>
      </trkpt>
      <trkpt lat="49.33088" lon="-0.39175">
        <ele>7.4</ele>
        <time>2020-06-17T09:18:26Z</time>
      </trkpt>
      <trkpt lat="49.33084" lon="-0.39175">
        <ele>7.4</ele>
        <time>2020-06-17T09:18:27Z</time>
      </trkpt>
      <trkpt lat="49.33083" lon="-0.39175">
        <ele>7.4</ele>
        <time>2020-06-17T09:18:28Z</time>
      </trkpt>
      <trkpt lat="49.3308" lon="-0.39176">
        <ele>7.4</ele>
        <time>2020-06-17T09:18:29Z</time>
      </trkpt>
      <trkpt lat="49.33077" lon="-0.39177">
        <ele>7.4</ele>
        <time>2020-06-17T09:18:30Z</time>
      </trkpt>
      <trkpt lat="49.33074" lon="-0.3918">
        <ele>7.4</ele>
        <time>2020-06-17T09:18:31Z</time>
      </trkpt>
      <trkpt lat="49.33071" lon="-0.39182">
        <ele>7.4</ele>
        <time>2020-06-17T09:18:32Z</time>
      </trkpt>
      <trkpt lat="49.33068" lon="-0.39186">
        <ele>7.4</ele>
        <time>2020-06-17T09:18:33Z</time>
      </trkpt>
      <trkpt lat="49.33065" lon="-0.39187">
        <ele>7.4</ele>
        <time>2020-06-17T09:18:34Z</time>
      </trkpt>
      <trkpt lat="49.33062" lon="-0.39189">
        <ele>7.4</ele>
        <time>2020-06-17T09:18:35Z</time>
      </trkpt>
      <trkpt lat="49.3306" lon="-0.3919">
        <ele>7.4</ele>
        <time>2020-06-17T09:18:36Z</time>
      </trkpt>
      <trkpt lat="49.33059" lon="-0.39191">
        <ele>7.4</ele>
        <time>2020-06-17T09:18:37Z</time>
      </trkpt>
      <trkpt lat="49.33056" lon="-0.39192">
        <ele>7.4</ele>
        <time>2020-06-17T09:18:38Z</time>
      </trkpt>
      <trkpt lat="49.33055" lon="-0.39193">
        <ele>7.4</ele>
        <time>2020-06-17T09:18:39Z</time>
      </trkpt>
      <trkpt lat="49.33054" lon="-0.39193">
        <ele>7.4</ele>
        <time>2020-06-17T09:18:40Z</time>
      </trkpt>
      <trkpt lat="49.3305" lon="-0.39194">
        <ele>7.3</ele>
        <time>2020-06-17T09:18:41Z</time>
      </trkpt>
      <trkpt lat="49.33048" lon="-0.39194">
        <ele>7.3</ele>
        <time>2020-06-17T09:18:42Z</time>
      </trkpt>
      <trkpt lat="49.33044" lon="-0.39194">
        <ele>7.3</ele>
        <time>2020-06-17T09:18:43Z</time>
      </trkpt>
      <trkpt lat="49.33041" lon="-0.39195">
        <ele>7.3</ele>
        <time>2020-06-17T09:18:44Z</time>
      </trkpt>
      <trkpt lat="49.33037" lon="-0.39196">
        <ele>7.2</ele>
        <time>2020-06-17T09:18:45Z</time>
      </trkpt>
      <trkpt lat="49.33034" lon="-0.39198">
        <ele>7.2</ele>
        <time>2020-06-17T09:18:46Z</time>
      </trkpt>
      <trkpt lat="49.33031" lon="-0.392">
        <ele>7.2</ele>
        <time>2020-06-17T09:18:47Z</time>
      </trkpt>
      <trkpt lat="49.33028" lon="-0.39203">
        <ele>7.2</ele>
        <time>2020-06-17T09:18:48Z</time>
      </trkpt>
      <trkpt lat="49.33025" lon="-0.39207">
        <ele>7.1</ele>
        <time>2020-06-17T09:18:49Z</time>
      </trkpt>
      <trkpt lat="49.33022" lon="-0.39211">
        <ele>7</ele>
        <time>2020-06-17T09:18:50Z</time>
      </trkpt>
      <trkpt lat="49.33019" lon="-0.39217">
        <ele>7</ele>
        <time>2020-06-17T09:18:51Z</time>
      </trkpt>
      <trkpt lat="49.33016" lon="-0.3922">
        <ele>7.1</ele>
        <time>2020-06-17T09:18:52Z</time>
      </trkpt>
      <trkpt lat="49.33013" lon="-0.39225">
        <ele>7.1</ele>
        <time>2020-06-17T09:18:53Z</time>
      </trkpt>
      <trkpt lat="49.33007" lon="-0.39232">
        <ele>7.1</ele>
        <time>2020-06-17T09:18:54Z</time>
      </trkpt>
      <trkpt lat="49.33005" lon="-0.39234">
        <ele>7.1</ele>
        <time>2020-06-17T09:18:55Z</time>
      </trkpt>
      <trkpt lat="49.33003" lon="-0.39236">
        <ele>7.1</ele>
        <time>2020-06-17T09:18:56Z</time>
      </trkpt>
      <trkpt lat="49.32999" lon="-0.39241">
        <ele>7.1</ele>
        <time>2020-06-17T09:18:57Z</time>
      </trkpt>
      <trkpt lat="49.32995" lon="-0.39244">
        <ele>7.1</ele>
        <time>2020-06-17T09:18:58Z</time>
      </trkpt>
      <trkpt lat="49.32991" lon="-0.39247">
        <ele>7.1</ele>
        <time>2020-06-17T09:18:59Z</time>
      </trkpt>
      <trkpt lat="49.32988" lon="-0.39248">
        <ele>7.1</ele>
        <time>2020-06-17T09:19:00Z</time>
      </trkpt>
      <trkpt lat="49.32984" lon="-0.3925">
        <ele>7.2</ele>
        <time>2020-06-17T09:19:01Z</time>
      </trkpt>
      <trkpt lat="49.32983" lon="-0.3925">
        <ele>7.2</ele>
        <time>2020-06-17T09:19:02Z</time>
      </trkpt>
      <trkpt lat="49.32979" lon="-0.39249">
        <ele>7.2</ele>
        <time>2020-06-17T09:19:03Z</time>
      </trkpt>
      <trkpt lat="49.32975" lon="-0.39249">
        <ele>7.2</ele>
        <time>2020-06-17T09:19:04Z</time>
      </trkpt>
      <trkpt lat="49.32974" lon="-0.39248">
        <ele>7.2</ele>
        <time>2020-06-17T09:19:05Z</time>
      </trkpt>
      <trkpt lat="49.32973" lon="-0.39248">
        <ele>7.2</ele>
        <time>2020-06-17T09:19:06Z</time>
      </trkpt>
      <trkpt lat="49.32972" lon="-0.39249">
        <ele>7.2</ele>
        <time>2020-06-17T09:19:07Z</time>
      </trkpt>
      <trkpt lat="49.3297" lon="-0.3925">
        <ele>7.2</ele>
        <time>2020-06-17T09:19:08Z</time>
      </trkpt>
      <trkpt lat="49.3297" lon="-0.3925">
        <ele>7.2</ele>
        <time>2020-06-17T09:19:09Z</time>
      </trkpt>
      <trkpt lat="49.32969" lon="-0.39251">
        <ele>7.2</ele>
        <time>2020-06-17T09:19:10Z</time>
      </trkpt>
      <trkpt lat="49.32968" lon="-0.39251">
        <ele>7.2</ele>
        <time>2020-06-17T09:19:11Z</time>
      </trkpt>
      <trkpt lat="49.32968" lon="-0.39251">
        <ele>7.2</ele>
        <time>2020-06-17T09:19:12Z</time>
      </trkpt>
      <trkpt lat="49.32965" lon="-0.39251">
        <ele>7.2</ele>
        <time>2020-06-17T09:19:13Z</time>
      </trkpt>
      <trkpt lat="49.32964" lon="-0.39251">
        <ele>7.2</ele>
        <time>2020-06-17T09:19:14Z</time>
      </trkpt>
      <trkpt lat="49.32963" lon="-0.39251">
        <ele>7.2</ele>
        <time>2020-06-17T09:19:15Z</time>
      </trkpt>
      <trkpt lat="49.32961" lon="-0.3925">
        <ele>7.2</ele>
        <time>2020-06-17T09:19:16Z</time>
      </trkpt>
      <trkpt lat="49.3296" lon="-0.39251">
        <ele>7.2</ele>
        <time>2020-06-17T09:19:17Z</time>
      </trkpt>
      <trkpt lat="49.3296" lon="-0.39251">
        <ele>7.2</ele>
        <time>2020-06-17T09:19:18Z</time>
      </trkpt>
      <trkpt lat="49.32959" lon="-0.39251">
        <ele>7.2</ele>
        <time>2020-06-17T09:19:19Z</time>
      </trkpt>
      <trkpt lat="49.3296" lon="-0.39251">
        <ele>7.2</ele>
        <time>2020-06-17T09:19:20Z</time>
      </trkpt>
      <trkpt lat="49.3296" lon="-0.39251">
        <ele>7.2</ele>
        <time>2020-06-17T09:19:21Z</time>
      </trkpt>
      <trkpt lat="49.3296" lon="-0.39251">
        <ele>7.2</ele>
        <time>2020-06-17T09:19:22Z</time>
      </trkpt>
      <trkpt lat="49.3296" lon="-0.39251">
        <ele>7.2</ele>
        <time>2020-06-17T09:19:23Z</time>
      </trkpt>
      <trkpt lat="49.32959" lon="-0.3925">
        <ele>7.2</ele>
        <time>2020-06-17T09:19:24Z</time>
      </trkpt>
      <trkpt lat="49.32959" lon="-0.3925">
        <ele>7.2</ele>
        <time>2020-06-17T09:19:25Z</time>
      </trkpt>
      <trkpt lat="49.32959" lon="-0.39251">
        <ele>7.2</ele>
        <time>2020-06-17T09:19:26Z</time>
      </trkpt>
      <trkpt lat="49.32959" lon="-0.39251">
        <ele>7.2</ele>
        <time>2020-06-17T09:19:27Z</time>
      </trkpt>
      <trkpt lat="49.32958" lon="-0.39251">
        <ele>7.2</ele>
        <time>2020-06-17T09:19:28Z</time>
      </trkpt>
      <trkpt lat="49.32957" lon="-0.39249">
        <ele>7.2</ele>
        <time>2020-06-17T09:19:29Z</time>
      </trkpt>
      <trkpt lat="49.32956" lon="-0.39247">
        <ele>7.2</ele>
        <time>2020-06-17T09:19:30Z</time>
      </trkpt>
      <trkpt lat="49.32956" lon="-0.39245">
        <ele>7.2</ele>
        <time>2020-06-17T09:19:31Z</time>
      </trkpt>
      <trkpt lat="49.32955" lon="-0.39243">
        <ele>7.2</ele>
        <time>2020-06-17T09:19:32Z</time>
      </trkpt>
      <trkpt lat="49.32955" lon="-0.39241">
        <ele>7.2</ele>
        <time>2020-06-17T09:19:33Z</time>
      </trkpt>
      <trkpt lat="49.32954" lon="-0.3924">
        <ele>7.2</ele>
        <time>2020-06-17T09:19:34Z</time>
      </trkpt>
      <trkpt lat="49.32954" lon="-0.39237">
        <ele>7.2</ele>
        <time>2020-06-17T09:19:35Z</time>
      </trkpt>
      <trkpt lat="49.32953" lon="-0.39236">
        <ele>7.3</ele>
        <time>2020-06-17T09:19:36Z</time>
      </trkpt>
      <trkpt lat="49.32952" lon="-0.39236">
        <ele>7.3</ele>
        <time>2020-06-17T09:19:37Z</time>
      </trkpt>
      <trkpt lat="49.32952" lon="-0.39236">
        <ele>7.3</ele>
        <time>2020-06-17T09:19:38Z</time>
      </trkpt>
      <trkpt lat="49.32952" lon="-0.39236">
        <ele>7.3</ele>
        <time>2020-06-17T09:19:39Z</time>
      </trkpt>
      <trkpt lat="49.32952" lon="-0.39236">
        <ele>7.3</ele>
        <time>2020-06-17T09:19:40Z</time>
      </trkpt>
      <trkpt lat="49.32951" lon="-0.39236">
        <ele>7.3</ele>
        <time>2020-06-17T09:19:41Z</time>
      </trkpt>
      <trkpt lat="49.3295" lon="-0.39237">
        <ele>7.3</ele>
        <time>2020-06-17T09:19:42Z</time>
      </trkpt>
      <trkpt lat="49.3295" lon="-0.39239">
        <ele>7.3</ele>
        <time>2020-06-17T09:19:43Z</time>
      </trkpt>
      <trkpt lat="49.3295" lon="-0.39241">
        <ele>7.3</ele>
        <time>2020-06-17T09:19:44Z</time>
      </trkpt>
      <trkpt lat="49.3295" lon="-0.39242">
        <ele>7.3</ele>
        <time>2020-06-17T09:19:45Z</time>
      </trkpt>
      <trkpt lat="49.32951" lon="-0.39244">
        <ele>7.3</ele>
        <time>2020-06-17T09:19:46Z</time>
      </trkpt>
      <trkpt lat="49.32951" lon="-0.39244">
        <ele>7.3</ele>
        <time>2020-06-17T09:19:47Z</time>
      </trkpt>
      <trkpt lat="49.32952" lon="-0.39245">
        <ele>7.3</ele>
        <time>2020-06-17T09:19:48Z</time>
      </trkpt>
      <trkpt lat="49.32952" lon="-0.39245">
        <ele>7.3</ele>
        <time>2020-06-17T09:19:49Z</time>
      </trkpt>
      <trkpt lat="49.32952" lon="-0.39245">
        <ele>7.3</ele>
        <time>2020-06-17T09:19:50Z</time>
      </trkpt>
      <trkpt lat="49.32952" lon="-0.39244">
        <ele>7.3</ele>
        <time>2020-06-17T09:19:51Z</time>
      </trkpt>
      <trkpt lat="49.32961" lon="-0.39242">
        <ele>7.3</ele>
        <time>2020-06-17T09:20:00Z</time>
      </trkpt>
      <trkpt lat="49.32962" lon="-0.39241">
        <ele>7.3</ele>
        <time>2020-06-17T09:20:01Z</time>
      </trkpt>
      <trkpt lat="49.32964" lon="-0.3924">
        <ele>7.3</ele>
        <time>2020-06-17T09:20:02Z</time>
      </trkpt>
      <trkpt lat="49.32965" lon="-0.39239">
        <ele>7.3</ele>
        <time>2020-06-17T09:20:03Z</time>
      </trkpt>
      <trkpt lat="49.32965" lon="-0.39238">
        <ele>7.3</ele>
        <time>2020-06-17T09:20:04Z</time>
      </trkpt>
      <trkpt lat="49.32965" lon="-0.39238">
        <ele>7.3</ele>
        <time>2020-06-17T09:20:05Z</time>
      </trkpt>
      <trkpt lat="49.32965" lon="-0.39238">
        <ele>7.3</ele>
        <time>2020-06-17T09:20:06Z</time>
      </trkpt>
      <trkpt lat="49.32965" lon="-0.39238">
        <ele>7.3</ele>
        <time>2020-06-17T09:20:07Z</time>
      </trkpt>
      <trkpt lat="49.32965" lon="-0.39238">
        <ele>7.3</ele>
        <time>2020-06-17T09:20:08Z</time>
      </trkpt>
      <trkpt lat="49.32965" lon="-0.39238">
        <ele>7.3</ele>
        <time>2020-06-17T09:20:09Z</time>
      </trkpt>
      <trkpt lat="49.32965" lon="-0.39239">
        <ele>7.3</ele>
        <time>2020-06-17T09:20:10Z</time>
      </trkpt>
      <trkpt lat="49.32966" lon="-0.39239">
        <ele>7.3</ele>
        <time>2020-06-17T09:20:11Z</time>
      </trkpt>
      <trkpt lat="49.32966" lon="-0.39238">
        <ele>7.3</ele>
        <time>2020-06-17T09:20:12Z</time>
      </trkpt>
      <trkpt lat="49.32966" lon="-0.39239">
        <ele>7.3</ele>
        <time>2020-06-17T09:20:13Z</time>
      </trkpt>
      <trkpt lat="49.32966" lon="-0.3924">
        <ele>7.3</ele>
        <time>2020-06-17T09:20:14Z</time>
      </trkpt>
      <trkpt lat="49.32966" lon="-0.39242">
        <ele>7.3</ele>
        <time>2020-06-17T09:20:15Z</time>
      </trkpt>
      <trkpt lat="49.32965" lon="-0.39242">
        <ele>7.3</ele>
        <time>2020-06-17T09:20:16Z</time>
      </trkpt>
      <trkpt lat="49.32965" lon="-0.39243">
        <ele>7.3</ele>
        <time>2020-06-17T09:20:17Z</time>
      </trkpt>
      <trkpt lat="49.32969" lon="-0.39245">
        <ele>7.3</ele>
        <time>2020-06-17T09:20:34Z</time>
      </trkpt>
      <trkpt lat="49.3297" lon="-0.39247">
        <ele>7.3</ele>
        <time>2020-06-17T09:20:35Z</time>
      </trkpt>
      <trkpt lat="49.3297" lon="-0.39247">
        <ele>7.3</ele>
        <time>2020-06-17T09:20:36Z</time>
      </trkpt>
      <trkpt lat="49.32971" lon="-0.39248">
        <ele>7.3</ele>
        <time>2020-06-17T09:20:37Z</time>
      </trkpt>
      <trkpt lat="49.32972" lon="-0.3925">
        <ele>7.3</ele>
        <time>2020-06-17T09:20:38Z</time>
      </trkpt>
      <trkpt lat="49.32973" lon="-0.39251">
        <ele>7.3</ele>
        <time>2020-06-17T09:20:39Z</time>
      </trkpt>
      <trkpt lat="49.32973" lon="-0.39251">
        <ele>7.3</ele>
        <time>2020-06-17T09:20:40Z</time>
      </trkpt>
      <trkpt lat="49.32974" lon="-0.39252">
        <ele>7.3</ele>
        <time>2020-06-17T09:20:41Z</time>
      </trkpt>
      <trkpt lat="49.32974" lon="-0.39253">
        <ele>7.3</ele>
        <time>2020-06-17T09:20:42Z</time>
      </trkpt>
      <trkpt lat="49.32974" lon="-0.39253">
        <ele>7.3</ele>
        <time>2020-06-17T09:20:43Z</time>
      </trkpt>
      <trkpt lat="49.32975" lon="-0.39253">
        <ele>7.3</ele>
        <time>2020-06-17T09:20:44Z</time>
      </trkpt>
      <trkpt lat="49.32975" lon="-0.39254">
        <ele>7.3</ele>
        <time>2020-06-17T09:20:45Z</time>
      </trkpt>
      <trkpt lat="49.32974" lon="-0.39252">
        <ele>7.3</ele>
        <time>2020-06-17T09:20:46Z</time>
      </trkpt>
      <trkpt lat="49.32974" lon="-0.39252">
        <ele>7.3</ele>
        <time>2020-06-17T09:20:47Z</time>
      </trkpt>
      <trkpt lat="49.32975" lon="-0.39253">
        <ele>7.3</ele>
        <time>2020-06-17T09:20:48Z</time>
      </trkpt>
      <trkpt lat="49.32975" lon="-0.39253">
        <ele>7.3</ele>
        <time>2020-06-17T09:20:49Z</time>
      </trkpt>
      <trkpt lat="49.32975" lon="-0.39253">
        <ele>7.3</ele>
        <time>2020-06-17T09:20:50Z</time>
      </trkpt>
      <trkpt lat="49.32975" lon="-0.39253">
        <ele>7.3</ele>
        <time>2020-06-17T09:20:51Z</time>
      </trkpt>
      <trkpt lat="49.32975" lon="-0.39251">
        <ele>7.3</ele>
        <time>2020-06-17T09:20:52Z</time>
      </trkpt>
      <trkpt lat="49.32975" lon="-0.3925">
        <ele>7.3</ele>
        <time>2020-06-17T09:20:53Z</time>
      </trkpt>
      <trkpt lat="49.32975" lon="-0.39251">
        <ele>7.3</ele>
        <time>2020-06-17T09:20:54Z</time>
      </trkpt>
      <trkpt lat="49.32976" lon="-0.39251">
        <ele>7.3</ele>
        <time>2020-06-17T09:20:55Z</time>
      </trkpt>
      <trkpt lat="49.32976" lon="-0.39252">
        <ele>7.3</ele>
        <time>2020-06-17T09:20:56Z</time>
      </trkpt>
      <trkpt lat="49.32976" lon="-0.39251">
        <ele>7.3</ele>
        <time>2020-06-17T09:20:57Z</time>
      </trkpt>
      <trkpt lat="49.32976" lon="-0.3925">
        <ele>7.3</ele>
        <time>2020-06-17T09:20:58Z</time>
      </trkpt>
      <trkpt lat="49.32977" lon="-0.3925">
        <ele>7.3</ele>
        <time>2020-06-17T09:20:59Z</time>
      </trkpt>
      <trkpt lat="49.32977" lon="-0.3925">
        <ele>7.3</ele>
        <time>2020-06-17T09:21:00Z</time>
      </trkpt>
      <trkpt lat="49.32977" lon="-0.3925">
        <ele>7.3</ele>
        <time>2020-06-17T09:21:01Z</time>
      </trkpt>
      <trkpt lat="49.32977" lon="-0.39249">
        <ele>7.3</ele>
        <time>2020-06-17T09:21:02Z</time>
      </trkpt>
      <trkpt lat="49.32978" lon="-0.39249">
        <ele>7.3</ele>
        <time>2020-06-17T09:21:03Z</time>
      </trkpt>
      <trkpt lat="49.32979" lon="-0.39249">
        <ele>7.3</ele>
        <time>2020-06-17T09:21:04Z</time>
      </trkpt>
      <trkpt lat="49.3298" lon="-0.3925">
        <ele>7.3</ele>
        <time>2020-06-17T09:21:05Z</time>
      </trkpt>
      <trkpt lat="49.32981" lon="-0.39251">
        <ele>7.3</ele>
        <time>2020-06-17T09:21:06Z</time>
      </trkpt>
      <trkpt lat="49.32982" lon="-0.39251">
        <ele>7.3</ele>
        <time>2020-06-17T09:21:07Z</time>
      </trkpt>
      <trkpt lat="49.32984" lon="-0.3925">
        <ele>7.3</ele>
        <time>2020-06-17T09:21:08Z</time>
      </trkpt>
      <trkpt lat="49.32984" lon="-0.3925">
        <ele>7.3</ele>
        <time>2020-06-17T09:21:09Z</time>
      </trkpt>
      <trkpt lat="49.32984" lon="-0.39249">
        <ele>7.3</ele>
        <time>2020-06-17T09:21:10Z</time>
      </trkpt>
      <trkpt lat="49.32983" lon="-0.39249">
        <ele>7.3</ele>
        <time>2020-06-17T09:21:11Z</time>
      </trkpt>
      <trkpt lat="49.32983" lon="-0.39248">
        <ele>7.3</ele>
        <time>2020-06-17T09:21:12Z</time>
      </trkpt>
      <trkpt lat="49.32982" lon="-0.39248">
        <ele>7.3</ele>
        <time>2020-06-17T09:21:13Z</time>
      </trkpt>
      <trkpt lat="49.32982" lon="-0.39247">
        <ele>7.3</ele>
        <time>2020-06-17T09:21:14Z</time>
      </trkpt>
      <trkpt lat="49.32981" lon="-0.39246">
        <ele>7.3</ele>
        <time>2020-06-17T09:21:15Z</time>
      </trkpt>
      <trkpt lat="49.32981" lon="-0.39246">
        <ele>7.3</ele>
        <time>2020-06-17T09:21:16Z</time>
      </trkpt>
      <trkpt lat="49.32978" lon="-0.39244">
        <ele>7.3</ele>
        <time>2020-06-17T09:21:17Z</time>
      </trkpt>
      <trkpt lat="49.32978" lon="-0.39244">
        <ele>7.3</ele>
        <time>2020-06-17T09:21:18Z</time>
      </trkpt>
      <trkpt lat="49.32977" lon="-0.39244">
        <ele>7.3</ele>
        <time>2020-06-17T09:21:19Z</time>
      </trkpt>
      <trkpt lat="49.32977" lon="-0.39243">
        <ele>7.3</ele>
        <time>2020-06-17T09:21:20Z</time>
      </trkpt>
      <trkpt lat="49.32976" lon="-0.39244">
        <ele>7.3</ele>
        <time>2020-06-17T09:21:21Z</time>
      </trkpt>
      <trkpt lat="49.32974" lon="-0.39242">
        <ele>7.3</ele>
        <time>2020-06-17T09:21:22Z</time>
      </trkpt>
      <trkpt lat="49.32973" lon="-0.39242">
        <ele>7.4</ele>
        <time>2020-06-17T09:21:23Z</time>
      </trkpt>
      <trkpt lat="49.32972" lon="-0.39243">
        <ele>7.4</ele>
        <time>2020-06-17T09:21:24Z</time>
      </trkpt>
      <trkpt lat="49.32971" lon="-0.39242">
        <ele>7.4</ele>
        <time>2020-06-17T09:21:25Z</time>
      </trkpt>
      <trkpt lat="49.32971" lon="-0.39242">
        <ele>7.4</ele>
        <time>2020-06-17T09:21:26Z</time>
      </trkpt>
      <trkpt lat="49.3297" lon="-0.39241">
        <ele>7.4</ele>
        <time>2020-06-17T09:21:27Z</time>
      </trkpt>
      <trkpt lat="49.3297" lon="-0.39241">
        <ele>7.4</ele>
        <time>2020-06-17T09:21:28Z</time>
      </trkpt>
      <trkpt lat="49.3297" lon="-0.39241">
        <ele>7.4</ele>
        <time>2020-06-17T09:21:29Z</time>
      </trkpt>
      <trkpt lat="49.3297" lon="-0.39242">
        <ele>7.4</ele>
        <time>2020-06-17T09:21:30Z</time>
      </trkpt>
      <trkpt lat="49.3297" lon="-0.39242">
        <ele>7.4</ele>
        <time>2020-06-17T09:21:31Z</time>
      </trkpt>
      <trkpt lat="49.3297" lon="-0.39242">
        <ele>7.4</ele>
        <time>2020-06-17T09:21:32Z</time>
      </trkpt>
      <trkpt lat="49.3297" lon="-0.39242">
        <ele>7.4</ele>
        <time>2020-06-17T09:21:33Z</time>
      </trkpt>
      <trkpt lat="49.3297" lon="-0.39242">
        <ele>7.4</ele>
        <time>2020-06-17T09:21:34Z</time>
      </trkpt>
      <trkpt lat="49.3297" lon="-0.39242">
        <ele>7.4</ele>
        <time>2020-06-17T09:21:35Z</time>
      </trkpt>
      <trkpt lat="49.32969" lon="-0.39242">
        <ele>7.4</ele>
        <time>2020-06-17T09:21:36Z</time>
      </trkpt>
      <trkpt lat="49.32968" lon="-0.39242">
        <ele>7.4</ele>
        <time>2020-06-17T09:21:37Z</time>
      </trkpt>
      <trkpt lat="49.32968" lon="-0.39242">
        <ele>7.4</ele>
        <time>2020-06-17T09:21:38Z</time>
      </trkpt>
      <trkpt lat="49.32968" lon="-0.39243">
        <ele>7.4</ele>
        <time>2020-06-17T09:21:39Z</time>
      </trkpt>
      <trkpt lat="49.32968" lon="-0.39244">
        <ele>7.4</ele>
        <time>2020-06-17T09:21:40Z</time>
      </trkpt>
      <trkpt lat="49.32969" lon="-0.39245">
        <ele>7.4</ele>
        <time>2020-06-17T09:21:41Z</time>
      </trkpt>
      <trkpt lat="49.3297" lon="-0.39245">
        <ele>7.4</ele>
        <time>2020-06-17T09:21:42Z</time>
      </trkpt>
      <trkpt lat="49.3297" lon="-0.39245">
        <ele>7.4</ele>
        <time>2020-06-17T09:21:43Z</time>
      </trkpt>
      <trkpt lat="49.3297" lon="-0.39246">
        <ele>7.4</ele>
        <time>2020-06-17T09:21:44Z</time>
      </trkpt>
      <trkpt lat="49.3297" lon="-0.39247">
        <ele>7.4</ele>
        <time>2020-06-17T09:21:45Z</time>
      </trkpt>
      <trkpt lat="49.3297" lon="-0.39247">
        <ele>7.4</ele>
        <time>2020-06-17T09:21:46Z</time>
      </trkpt>
      <trkpt lat="49.32971" lon="-0.39247">
        <ele>7.4</ele>
        <time>2020-06-17T09:21:47Z</time>
      </trkpt>
      <trkpt lat="49.32972" lon="-0.39246">
        <ele>7.4</ele>
        <time>2020-06-17T09:21:48Z</time>
      </trkpt>
      <trkpt lat="49.32972" lon="-0.39246">
        <ele>7.4</ele>
        <time>2020-06-17T09:21:49Z</time>
      </trkpt>
      <trkpt lat="49.32972" lon="-0.39246">
        <ele>7.4</ele>
        <time>2020-06-17T09:21:50Z</time>
      </trkpt>
      <trkpt lat="49.32972" lon="-0.39246">
        <ele>7.4</ele>
        <time>2020-06-17T09:21:51Z</time>
      </trkpt>
      <trkpt lat="49.32972" lon="-0.39245">
        <ele>7.4</ele>
        <time>2020-06-17T09:21:52Z</time>
      </trkpt>
      <trkpt lat="49.32972" lon="-0.39244">
        <ele>7.4</ele>
        <time>2020-06-17T09:21:53Z</time>
      </trkpt>
      <trkpt lat="49.32973" lon="-0.39244">
        <ele>7.4</ele>
        <time>2020-06-17T09:21:54Z</time>
      </trkpt>
      <trkpt lat="49.32973" lon="-0.39244">
        <ele>7.4</ele>
        <time>2020-06-17T09:21:55Z</time>
      </trkpt>
      <trkpt lat="49.32973" lon="-0.39244">
        <ele>7.4</ele>
        <time>2020-06-17T09:21:56Z</time>
      </trkpt>
      <trkpt lat="49.32973" lon="-0.39244">
        <ele>7.4</ele>
        <time>2020-06-17T09:21:57Z</time>
      </trkpt>
      <trkpt lat="49.32973" lon="-0.39244">
        <ele>7.4</ele>
        <time>2020-06-17T09:21:58Z</time>
      </trkpt>
      <trkpt lat="49.32973" lon="-0.39246">
        <ele>7.4</ele>
        <time>2020-06-17T09:21:59Z</time>
      </trkpt>
      <trkpt lat="49.32973" lon="-0.39246">
        <ele>7.4</ele>
        <time>2020-06-17T09:22:00Z</time>
      </trkpt>
      <trkpt lat="49.32973" lon="-0.39245">
        <ele>7.4</ele>
        <time>2020-06-17T09:22:01Z</time>
      </trkpt>
      <trkpt lat="49.32972" lon="-0.39245">
        <ele>7.4</ele>
        <time>2020-06-17T09:22:02Z</time>
      </trkpt>
      <trkpt lat="49.32972" lon="-0.39244">
        <ele>7.4</ele>
        <time>2020-06-17T09:22:03Z</time>
      </trkpt>
      <trkpt lat="49.32972" lon="-0.39244">
        <ele>7.4</ele>
        <time>2020-06-17T09:22:04Z</time>
      </trkpt>
      <trkpt lat="49.32972" lon="-0.39245">
        <ele>7.4</ele>
        <time>2020-06-17T09:22:05Z</time>
      </trkpt>
      <trkpt lat="49.32972" lon="-0.39245">
        <ele>7.4</ele>
        <time>2020-06-17T09:22:06Z</time>
      </trkpt>
      <trkpt lat="49.32973" lon="-0.39246">
        <ele>7.4</ele>
        <time>2020-06-17T09:22:07Z</time>
      </trkpt>
      <trkpt lat="49.32973" lon="-0.39247">
        <ele>7.4</ele>
        <time>2020-06-17T09:22:08Z</time>
      </trkpt>
      <trkpt lat="49.32973" lon="-0.39247">
        <ele>7.4</ele>
        <time>2020-06-17T09:22:09Z</time>
      </trkpt>
      <trkpt lat="49.32974" lon="-0.39248">
        <ele>7.4</ele>
        <time>2020-06-17T09:22:10Z</time>
      </trkpt>
      <trkpt lat="49.32974" lon="-0.39249">
        <ele>7.4</ele>
        <time>2020-06-17T09:22:11Z</time>
      </trkpt>
      <trkpt lat="49.32974" lon="-0.39249">
        <ele>7.4</ele>
        <time>2020-06-17T09:22:12Z</time>
      </trkpt>
      <trkpt lat="49.32973" lon="-0.3925">
        <ele>7.4</ele>
        <time>2020-06-17T09:22:13Z</time>
      </trkpt>
      <trkpt lat="49.32974" lon="-0.3925">
        <ele>7.4</ele>
        <time>2020-06-17T09:22:14Z</time>
      </trkpt>
      <trkpt lat="49.32973" lon="-0.39249">
        <ele>7.4</ele>
        <time>2020-06-17T09:22:15Z</time>
      </trkpt>
      <trkpt lat="49.32973" lon="-0.39249">
        <ele>7.4</ele>
        <time>2020-06-17T09:22:16Z</time>
      </trkpt>
      <trkpt lat="49.32973" lon="-0.39248">
        <ele>7.4</ele>
        <time>2020-06-17T09:22:17Z</time>
      </trkpt>
      <trkpt lat="49.32973" lon="-0.39248">
        <ele>7.4</ele>
        <time>2020-06-17T09:22:18Z</time>
      </trkpt>
      <trkpt lat="49.32973" lon="-0.39249">
        <ele>7.4</ele>
        <time>2020-06-17T09:22:19Z</time>
      </trkpt>
      <trkpt lat="49.32974" lon="-0.39249">
        <ele>7.4</ele>
        <time>2020-06-17T09:22:20Z</time>
      </trkpt>
      <trkpt lat="49.32974" lon="-0.39249">
        <ele>7.4</ele>
        <time>2020-06-17T09:22:21Z</time>
      </trkpt>
      <trkpt lat="49.32974" lon="-0.39249">
        <ele>7.4</ele>
        <time>2020-06-17T09:22:22Z</time>
      </trkpt>
      <trkpt lat="49.32973" lon="-0.39246">
        <ele>7.4</ele>
        <time>2020-06-17T09:22:23Z</time>
      </trkpt>
      <trkpt lat="49.32973" lon="-0.39246">
        <ele>7.4</ele>
        <time>2020-06-17T09:22:24Z</time>
      </trkpt>
      <trkpt lat="49.32973" lon="-0.39245">
        <ele>7.4</ele>
        <time>2020-06-17T09:22:25Z</time>
      </trkpt>
      <trkpt lat="49.32973" lon="-0.39245">
        <ele>7.4</ele>
        <time>2020-06-17T09:22:26Z</time>
      </trkpt>
      <trkpt lat="49.32973" lon="-0.39245">
        <ele>7.4</ele>
        <time>2020-06-17T09:22:27Z</time>
      </trkpt>
      <trkpt lat="49.32973" lon="-0.39245">
        <ele>7.4</ele>
        <time>2020-06-17T09:22:28Z</time>
      </trkpt>
      <trkpt lat="49.32973" lon="-0.39245">
        <ele>7.4</ele>
        <time>2020-06-17T09:22:29Z</time>
      </trkpt>
      <trkpt lat="49.32973" lon="-0.39244">
        <ele>7.4</ele>
        <time>2020-06-17T09:22:30Z</time>
      </trkpt>
      <trkpt lat="49.32973" lon="-0.39244">
        <ele>7.4</ele>
        <time>2020-06-17T09:22:31Z</time>
      </trkpt>
      <trkpt lat="49.32969" lon="-0.39246">
        <ele>7.4</ele>
        <time>2020-06-17T09:22:42Z</time>
      </trkpt>
      <trkpt lat="49.32968" lon="-0.39247">
        <ele>7.4</ele>
        <time>2020-06-17T09:22:43Z</time>
      </trkpt>
      <trkpt lat="49.32967" lon="-0.39247">
        <ele>7.4</ele>
        <time>2020-06-17T09:22:44Z</time>
      </trkpt>
      <trkpt lat="49.32966" lon="-0.39245">
        <ele>7.4</ele>
        <time>2020-06-17T09:22:45Z</time>
      </trkpt>
      <trkpt lat="49.32966" lon="-0.39245">
        <ele>7.4</ele>
        <time>2020-06-17T09:22:46Z</time>
      </trkpt>
      <trkpt lat="49.32965" lon="-0.39245">
        <ele>7.5</ele>
        <time>2020-06-17T09:22:47Z</time>
      </trkpt>
      <trkpt lat="49.32964" lon="-0.39245">
        <ele>7.5</ele>
        <time>2020-06-17T09:22:48Z</time>
      </trkpt>
      <trkpt lat="49.32964" lon="-0.39245">
        <ele>7.5</ele>
        <time>2020-06-17T09:22:49Z</time>
      </trkpt>
      <trkpt lat="49.32964" lon="-0.39244">
        <ele>7.5</ele>
        <time>2020-06-17T09:22:50Z</time>
      </trkpt>
      <trkpt lat="49.32964" lon="-0.39243">
        <ele>7.5</ele>
        <time>2020-06-17T09:22:51Z</time>
      </trkpt>
      <trkpt lat="49.32964" lon="-0.39242">
        <ele>7.5</ele>
        <time>2020-06-17T09:22:52Z</time>
      </trkpt>
      <trkpt lat="49.32964" lon="-0.39242">
        <ele>7.5</ele>
        <time>2020-06-17T09:22:53Z</time>
      </trkpt>
      <trkpt lat="49.32964" lon="-0.39243">
        <ele>7.5</ele>
        <time>2020-06-17T09:22:54Z</time>
      </trkpt>
      <trkpt lat="49.32964" lon="-0.39243">
        <ele>7.5</ele>
        <time>2020-06-17T09:22:55Z</time>
      </trkpt>
      <trkpt lat="49.32968" lon="-0.39249">
        <ele>7.5</ele>
        <time>2020-06-17T09:23:07Z</time>
      </trkpt>
      <trkpt lat="49.32969" lon="-0.3925">
        <ele>7.5</ele>
        <time>2020-06-17T09:23:08Z</time>
      </trkpt>
      <trkpt lat="49.32968" lon="-0.39249">
        <ele>7.5</ele>
        <time>2020-06-17T09:23:09Z</time>
      </trkpt>
      <trkpt lat="49.32968" lon="-0.39248">
        <ele>7.5</ele>
        <time>2020-06-17T09:23:10Z</time>
      </trkpt>
      <trkpt lat="49.32967" lon="-0.39248">
        <ele>7.5</ele>
        <time>2020-06-17T09:23:11Z</time>
      </trkpt>
      <trkpt lat="49.32967" lon="-0.39247">
        <ele>7.5</ele>
        <time>2020-06-17T09:23:12Z</time>
      </trkpt>
      <trkpt lat="49.32967" lon="-0.39246">
        <ele>7.5</ele>
        <time>2020-06-17T09:23:13Z</time>
      </trkpt>
      <trkpt lat="49.32966" lon="-0.39246">
        <ele>7.5</ele>
        <time>2020-06-17T09:23:14Z</time>
      </trkpt>
      <trkpt lat="49.32966" lon="-0.39246">
        <ele>7.5</ele>
        <time>2020-06-17T09:23:15Z</time>
      </trkpt>
      <trkpt lat="49.32965" lon="-0.39245">
        <ele>7.5</ele>
        <time>2020-06-17T09:23:16Z</time>
      </trkpt>
      <trkpt lat="49.32965" lon="-0.39246">
        <ele>7.5</ele>
        <time>2020-06-17T09:23:17Z</time>
      </trkpt>
      <trkpt lat="49.32965" lon="-0.39246">
        <ele>7.5</ele>
        <time>2020-06-17T09:23:18Z</time>
      </trkpt>
      <trkpt lat="49.32965" lon="-0.39246">
        <ele>7.5</ele>
        <time>2020-06-17T09:23:19Z</time>
      </trkpt>
      <trkpt lat="49.32965" lon="-0.39245">
        <ele>7.5</ele>
        <time>2020-06-17T09:23:20Z</time>
      </trkpt>
      <trkpt lat="49.32964" lon="-0.39245">
        <ele>7.5</ele>
        <time>2020-06-17T09:23:21Z</time>
      </trkpt>
      <trkpt lat="49.32964" lon="-0.39245">
        <ele>7.5</ele>
        <time>2020-06-17T09:23:22Z</time>
      </trkpt>
      <trkpt lat="49.32963" lon="-0.39242">
        <ele>7.5</ele>
        <time>2020-06-17T09:23:23Z</time>
      </trkpt>
      <trkpt lat="49.32962" lon="-0.39239">
        <ele>7.5</ele>
        <time>2020-06-17T09:23:24Z</time>
      </trkpt>
      <trkpt lat="49.32962" lon="-0.39238">
        <ele>7.5</ele>
        <time>2020-06-17T09:23:25Z</time>
      </trkpt>
      <trkpt lat="49.32961" lon="-0.39238">
        <ele>7.5</ele>
        <time>2020-06-17T09:23:26Z</time>
      </trkpt>
      <trkpt lat="49.32961" lon="-0.39237">
        <ele>7.5</ele>
        <time>2020-06-17T09:23:27Z</time>
      </trkpt>
      <trkpt lat="49.32961" lon="-0.39237">
        <ele>7.5</ele>
        <time>2020-06-17T09:23:28Z</time>
      </trkpt>
      <trkpt lat="49.32961" lon="-0.39238">
        <ele>7.5</ele>
        <time>2020-06-17T09:23:29Z</time>
      </trkpt>
      <trkpt lat="49.32961" lon="-0.39238">
        <ele>7.5</ele>
        <time>2020-06-17T09:23:30Z</time>
      </trkpt>
      <trkpt lat="49.32961" lon="-0.39238">
        <ele>7.5</ele>
        <time>2020-06-17T09:23:31Z</time>
      </trkpt>
      <trkpt lat="49.32961" lon="-0.39238">
        <ele>7.5</ele>
        <time>2020-06-17T09:23:32Z</time>
      </trkpt>
      <trkpt lat="49.32962" lon="-0.39238">
        <ele>7.5</ele>
        <time>2020-06-17T09:23:33Z</time>
      </trkpt>
      <trkpt lat="49.32962" lon="-0.39238">
        <ele>7.5</ele>
        <time>2020-06-17T09:23:34Z</time>
      </trkpt>
      <trkpt lat="49.32962" lon="-0.39238">
        <ele>7.5</ele>
        <time>2020-06-17T09:23:35Z</time>
      </trkpt>
      <trkpt lat="49.32962" lon="-0.39239">
        <ele>7.6</ele>
        <time>2020-06-17T09:23:36Z</time>
      </trkpt>
      <trkpt lat="49.32962" lon="-0.3924">
        <ele>7.6</ele>
        <time>2020-06-17T09:23:37Z</time>
      </trkpt>
      <trkpt lat="49.32962" lon="-0.39242">
        <ele>7.6</ele>
        <time>2020-06-17T09:23:38Z</time>
      </trkpt>
      <trkpt lat="49.32962" lon="-0.39243">
        <ele>7.6</ele>
        <time>2020-06-17T09:23:39Z</time>
      </trkpt>
      <trkpt lat="49.32962" lon="-0.39244">
        <ele>7.6</ele>
        <time>2020-06-17T09:23:40Z</time>
      </trkpt>
      <trkpt lat="49.32962" lon="-0.39244">
        <ele>7.6</ele>
        <time>2020-06-17T09:23:41Z</time>
      </trkpt>
      <trkpt lat="49.32961" lon="-0.39246">
        <ele>7.6</ele>
        <time>2020-06-17T09:23:42Z</time>
      </trkpt>
      <trkpt lat="49.3296" lon="-0.39246">
        <ele>7.6</ele>
        <time>2020-06-17T09:23:43Z</time>
      </trkpt>
      <trkpt lat="49.3296" lon="-0.39246">
        <ele>7.6</ele>
        <time>2020-06-17T09:23:44Z</time>
      </trkpt>
      <trkpt lat="49.32959" lon="-0.39246">
        <ele>7.6</ele>
        <time>2020-06-17T09:23:45Z</time>
      </trkpt>
      <trkpt lat="49.32958" lon="-0.39246">
        <ele>7.6</ele>
        <time>2020-06-17T09:23:46Z</time>
      </trkpt>
      <trkpt lat="49.32958" lon="-0.39246">
        <ele>7.6</ele>
        <time>2020-06-17T09:23:47Z</time>
      </trkpt>
      <trkpt lat="49.32956" lon="-0.39245">
        <ele>7.6</ele>
        <time>2020-06-17T09:23:48Z</time>
      </trkpt>
      <trkpt lat="49.32955" lon="-0.39244">
        <ele>7.6</ele>
        <time>2020-06-17T09:23:49Z</time>
      </trkpt>
      <trkpt lat="49.32955" lon="-0.39244">
        <ele>7.6</ele>
        <time>2020-06-17T09:23:50Z</time>
      </trkpt>
      <trkpt lat="49.32954" lon="-0.39244">
        <ele>7.6</ele>
        <time>2020-06-17T09:23:51Z</time>
      </trkpt>
      <trkpt lat="49.32954" lon="-0.39244">
        <ele>7.6</ele>
        <time>2020-06-17T09:23:52Z</time>
      </trkpt>
      <trkpt lat="49.32955" lon="-0.39243">
        <ele>7.6</ele>
        <time>2020-06-17T09:23:53Z</time>
      </trkpt>
      <trkpt lat="49.32955" lon="-0.39243">
        <ele>7.6</ele>
        <time>2020-06-17T09:23:54Z</time>
      </trkpt>
      <trkpt lat="49.32954" lon="-0.39243">
        <ele>7.6</ele>
        <time>2020-06-17T09:23:55Z</time>
      </trkpt>
      <trkpt lat="49.32954" lon="-0.39242">
        <ele>7.6</ele>
        <time>2020-06-17T09:23:56Z</time>
      </trkpt>
      <trkpt lat="49.32954" lon="-0.39243">
        <ele>7.6</ele>
        <time>2020-06-17T09:23:57Z</time>
      </trkpt>
      <trkpt lat="49.32954" lon="-0.39243">
        <ele>7.6</ele>
        <time>2020-06-17T09:23:58Z</time>
      </trkpt>
      <trkpt lat="49.32954" lon="-0.39243">
        <ele>7.7</ele>
        <time>2020-06-17T09:23:59Z</time>
      </trkpt>
      <trkpt lat="49.32954" lon="-0.39243">
        <ele>7.7</ele>
        <time>2020-06-17T09:24:00Z</time>
      </trkpt>
      <trkpt lat="49.32954" lon="-0.39243">
        <ele>7.7</ele>
        <time>2020-06-17T09:24:01Z</time>
      </trkpt>
      <trkpt lat="49.32954" lon="-0.39243">
        <ele>7.7</ele>
        <time>2020-06-17T09:24:02Z</time>
      </trkpt>
      <trkpt lat="49.32967" lon="-0.39241">
        <ele>7.7</ele>
        <time>2020-06-17T09:24:41Z</time>
      </trkpt>
      <trkpt lat="49.32967" lon="-0.3924">
        <ele>7.7</ele>
        <time>2020-06-17T09:24:42Z</time>
      </trkpt>
      <trkpt lat="49.32968" lon="-0.39241">
        <ele>7.7</ele>
        <time>2020-06-17T09:24:43Z</time>
      </trkpt>
      <trkpt lat="49.32969" lon="-0.39241">
        <ele>7.7</ele>
        <time>2020-06-17T09:24:44Z</time>
      </trkpt>
      <trkpt lat="49.32969" lon="-0.39241">
        <ele>7.7</ele>
        <time>2020-06-17T09:24:45Z</time>
      </trkpt>
      <trkpt lat="49.32968" lon="-0.39241">
        <ele>7.7</ele>
        <time>2020-06-17T09:24:46Z</time>
      </trkpt>
      <trkpt lat="49.32969" lon="-0.39242">
        <ele>7.7</ele>
        <time>2020-06-17T09:24:47Z</time>
      </trkpt>
      <trkpt lat="49.32969" lon="-0.39242">
        <ele>7.7</ele>
        <time>2020-06-17T09:24:48Z</time>
      </trkpt>
      <trkpt lat="49.32969" lon="-0.39242">
        <ele>7.7</ele>
        <time>2020-06-17T09:24:49Z</time>
      </trkpt>
      <trkpt lat="49.32969" lon="-0.39243">
        <ele>7.7</ele>
        <time>2020-06-17T09:24:50Z</time>
      </trkpt>
      <trkpt lat="49.32969" lon="-0.39242">
        <ele>7.7</ele>
        <time>2020-06-17T09:24:51Z</time>
      </trkpt>
      <trkpt lat="49.32969" lon="-0.39243">
        <ele>7.7</ele>
        <time>2020-06-17T09:24:52Z</time>
      </trkpt>
      <trkpt lat="49.32969" lon="-0.39242">
        <ele>7.7</ele>
        <time>2020-06-17T09:24:53Z</time>
      </trkpt>
      <trkpt lat="49.32969" lon="-0.39243">
        <ele>7.7</ele>
        <time>2020-06-17T09:24:54Z</time>
      </trkpt>
      <trkpt lat="49.32969" lon="-0.39243">
        <ele>7.7</ele>
        <time>2020-06-17T09:24:55Z</time>
      </trkpt>
      <trkpt lat="49.32969" lon="-0.39243">
        <ele>7.7</ele>
        <time>2020-06-17T09:24:56Z</time>
      </trkpt>
      <trkpt lat="49.32969" lon="-0.39243">
        <ele>7.7</ele>
        <time>2020-06-17T09:24:57Z</time>
      </trkpt>
      <trkpt lat="49.32969" lon="-0.39243">
        <ele>7.7</ele>
        <time>2020-06-17T09:24:58Z</time>
      </trkpt>
      <trkpt lat="49.32969" lon="-0.39243">
        <ele>7.7</ele>
        <time>2020-06-17T09:24:59Z</time>
      </trkpt>
      <trkpt lat="49.32969" lon="-0.39242">
        <ele>7.7</ele>
        <time>2020-06-17T09:25:00Z</time>
      </trkpt>
      <trkpt lat="49.32969" lon="-0.39242">
        <ele>7.7</ele>
        <time>2020-06-17T09:25:01Z</time>
      </trkpt>
      <trkpt lat="49.32969" lon="-0.39242">
        <ele>7.7</ele>
        <time>2020-06-17T09:25:02Z</time>
      </trkpt>
      <trkpt lat="49.32969" lon="-0.39241">
        <ele>7.7</ele>
        <time>2020-06-17T09:25:03Z</time>
      </trkpt>
      <trkpt lat="49.32968" lon="-0.39241">
        <ele>7.7</ele>
        <time>2020-06-17T09:25:04Z</time>
      </trkpt>
      <trkpt lat="49.32968" lon="-0.39241">
        <ele>7.7</ele>
        <time>2020-06-17T09:25:05Z</time>
      </trkpt>
      <trkpt lat="49.32968" lon="-0.39241">
        <ele>7.7</ele>
        <time>2020-06-17T09:25:06Z</time>
      </trkpt>
      <trkpt lat="49.32968" lon="-0.39242">
        <ele>7.7</ele>
        <time>2020-06-17T09:25:07Z</time>
      </trkpt>
      <trkpt lat="49.32967" lon="-0.39242">
        <ele>7.7</ele>
        <time>2020-06-17T09:25:08Z</time>
      </trkpt>
      <trkpt lat="49.32967" lon="-0.39242">
        <ele>7.7</ele>
        <time>2020-06-17T09:25:09Z</time>
      </trkpt>
      <trkpt lat="49.32968" lon="-0.39242">
        <ele>7.7</ele>
        <time>2020-06-17T09:25:10Z</time>
      </trkpt>
      <trkpt lat="49.32968" lon="-0.39244">
        <ele>7.7</ele>
        <time>2020-06-17T09:25:11Z</time>
      </trkpt>
      <trkpt lat="49.32968" lon="-0.39244">
        <ele>7.7</ele>
        <time>2020-06-17T09:25:12Z</time>
      </trkpt>
      <trkpt lat="49.32968" lon="-0.39244">
        <ele>7.7</ele>
        <time>2020-06-17T09:25:13Z</time>
      </trkpt>
      <trkpt lat="49.32968" lon="-0.39244">
        <ele>7.7</ele>
        <time>2020-06-17T09:25:14Z</time>
      </trkpt>
      <trkpt lat="49.32967" lon="-0.39243">
        <ele>7.7</ele>
        <time>2020-06-17T09:25:15Z</time>
      </trkpt>
      <trkpt lat="49.32967" lon="-0.39243">
        <ele>7.7</ele>
        <time>2020-06-17T09:25:16Z</time>
      </trkpt>
      <trkpt lat="49.32967" lon="-0.39243">
        <ele>7.7</ele>
        <time>2020-06-17T09:25:17Z</time>
      </trkpt>
      <trkpt lat="49.32966" lon="-0.39243">
        <ele>7.7</ele>
        <time>2020-06-17T09:25:18Z</time>
      </trkpt>
      <trkpt lat="49.32966" lon="-0.39242">
        <ele>7.8</ele>
        <time>2020-06-17T09:25:19Z</time>
      </trkpt>
      <trkpt lat="49.32964" lon="-0.39241">
        <ele>7.8</ele>
        <time>2020-06-17T09:25:20Z</time>
      </trkpt>
      <trkpt lat="49.32964" lon="-0.3924">
        <ele>7.8</ele>
        <time>2020-06-17T09:25:21Z</time>
      </trkpt>
      <trkpt lat="49.32963" lon="-0.39239">
        <ele>7.8</ele>
        <time>2020-06-17T09:25:22Z</time>
      </trkpt>
      <trkpt lat="49.32962" lon="-0.39238">
        <ele>7.8</ele>
        <time>2020-06-17T09:25:23Z</time>
      </trkpt>
      <trkpt lat="49.32962" lon="-0.39237">
        <ele>7.8</ele>
        <time>2020-06-17T09:25:24Z</time>
      </trkpt>
      <trkpt lat="49.32961" lon="-0.39237">
        <ele>7.8</ele>
        <time>2020-06-17T09:25:25Z</time>
      </trkpt>
      <trkpt lat="49.3296" lon="-0.39236">
        <ele>7.8</ele>
        <time>2020-06-17T09:25:26Z</time>
      </trkpt>
      <trkpt lat="49.3296" lon="-0.39235">
        <ele>7.8</ele>
        <time>2020-06-17T09:25:27Z</time>
      </trkpt>
      <trkpt lat="49.32959" lon="-0.39234">
        <ele>7.8</ele>
        <time>2020-06-17T09:25:28Z</time>
      </trkpt>
      <trkpt lat="49.32958" lon="-0.39234">
        <ele>7.8</ele>
        <time>2020-06-17T09:25:29Z</time>
      </trkpt>
      <trkpt lat="49.32958" lon="-0.39233">
        <ele>7.8</ele>
        <time>2020-06-17T09:26:34Z</time>
      </trkpt>
      <trkpt lat="49.32957" lon="-0.39232">
        <ele>7.8</ele>
        <time>2020-06-17T09:26:35Z</time>
      </trkpt>
      <trkpt lat="49.32957" lon="-0.39231">
        <ele>7.8</ele>
        <time>2020-06-17T09:26:36Z</time>
      </trkpt>
      <trkpt lat="49.32956" lon="-0.3923">
        <ele>7.8</ele>
        <time>2020-06-17T09:26:37Z</time>
      </trkpt>
      <trkpt lat="49.32955" lon="-0.39228">
        <ele>7.9</ele>
        <time>2020-06-17T09:26:38Z</time>
      </trkpt>
      <trkpt lat="49.32955" lon="-0.39225">
        <ele>7.9</ele>
        <time>2020-06-17T09:26:39Z</time>
      </trkpt>
      <trkpt lat="49.32956" lon="-0.3922">
        <ele>8</ele>
        <time>2020-06-17T09:26:40Z</time>
      </trkpt>
      <trkpt lat="49.32956" lon="-0.39218">
        <ele>8</ele>
        <time>2020-06-17T09:26:41Z</time>
      </trkpt>
      <trkpt lat="49.32955" lon="-0.39213">
        <ele>8</ele>
        <time>2020-06-17T09:26:42Z</time>
      </trkpt>
      <trkpt lat="49.32955" lon="-0.39211">
        <ele>8.1</ele>
        <time>2020-06-17T09:26:43Z</time>
      </trkpt>
      <trkpt lat="49.32953" lon="-0.39206">
        <ele>8.1</ele>
        <time>2020-06-17T09:26:44Z</time>
      </trkpt>
      <trkpt lat="49.32953" lon="-0.39205">
        <ele>8.1</ele>
        <time>2020-06-17T09:26:45Z</time>
      </trkpt>
      <trkpt lat="49.32951" lon="-0.392">
        <ele>8.2</ele>
        <time>2020-06-17T09:26:46Z</time>
      </trkpt>
      <trkpt lat="49.3295" lon="-0.39199">
        <ele>8.2</ele>
        <time>2020-06-17T09:26:47Z</time>
      </trkpt>
      <trkpt lat="49.3295" lon="-0.39197">
        <ele>8.2</ele>
        <time>2020-06-17T09:26:48Z</time>
      </trkpt>
      <trkpt lat="49.32948" lon="-0.39194">
        <ele>8.3</ele>
        <time>2020-06-17T09:26:49Z</time>
      </trkpt>
      <trkpt lat="49.32947" lon="-0.39189">
        <ele>8.3</ele>
        <time>2020-06-17T09:26:50Z</time>
      </trkpt>
      <trkpt lat="49.32946" lon="-0.39187">
        <ele>8.4</ele>
        <time>2020-06-17T09:26:51Z</time>
      </trkpt>
      <trkpt lat="49.32944" lon="-0.39184">
        <ele>8.4</ele>
        <time>2020-06-17T09:26:52Z</time>
      </trkpt>
      <trkpt lat="49.32941" lon="-0.3918">
        <ele>8.5</ele>
        <time>2020-06-17T09:26:53Z</time>
      </trkpt>
      <trkpt lat="49.3294" lon="-0.39179">
        <ele>8.5</ele>
        <time>2020-06-17T09:26:54Z</time>
      </trkpt>
      <trkpt lat="49.32938" lon="-0.39176">
        <ele>8.5</ele>
        <time>2020-06-17T09:26:55Z</time>
      </trkpt>
      <trkpt lat="49.32936" lon="-0.39172">
        <ele>8.7</ele>
        <time>2020-06-17T09:26:56Z</time>
      </trkpt>
      <trkpt lat="49.32935" lon="-0.39171">
        <ele>8.7</ele>
        <time>2020-06-17T09:26:57Z</time>
      </trkpt>
      <trkpt lat="49.32933" lon="-0.39167">
        <ele>8.8</ele>
        <time>2020-06-17T09:26:58Z</time>
      </trkpt>
      <trkpt lat="49.32931" lon="-0.39162">
        <ele>8.9</ele>
        <time>2020-06-17T09:26:59Z</time>
      </trkpt>
      <trkpt lat="49.32929" lon="-0.39156">
        <ele>9.1</ele>
        <time>2020-06-17T09:27:00Z</time>
      </trkpt>
      <trkpt lat="49.32927" lon="-0.39151">
        <ele>9.1</ele>
        <time>2020-06-17T09:27:01Z</time>
      </trkpt>
      <trkpt lat="49.32925" lon="-0.39147">
        <ele>9</ele>
        <time>2020-06-17T09:27:02Z</time>
      </trkpt>
      <trkpt lat="49.32922" lon="-0.39143">
        <ele>9</ele>
        <time>2020-06-17T09:27:03Z</time>
      </trkpt>
      <trkpt lat="49.3292" lon="-0.39139">
        <ele>8.9</ele>
        <time>2020-06-17T09:27:04Z</time>
      </trkpt>
      <trkpt lat="49.32918" lon="-0.39134">
        <ele>8.9</ele>
        <time>2020-06-17T09:27:05Z</time>
      </trkpt>
      <trkpt lat="49.32917" lon="-0.39129">
        <ele>8.8</ele>
        <time>2020-06-17T09:27:06Z</time>
      </trkpt>
      <trkpt lat="49.32916" lon="-0.39124">
        <ele>8.8</ele>
        <time>2020-06-17T09:27:07Z</time>
      </trkpt>
      <trkpt lat="49.32914" lon="-0.39118">
        <ele>8.8</ele>
        <time>2020-06-17T09:27:08Z</time>
      </trkpt>
      <trkpt lat="49.32912" lon="-0.39112">
        <ele>8.7</ele>
        <time>2020-06-17T09:27:09Z</time>
      </trkpt>
      <trkpt lat="49.3291" lon="-0.39107">
        <ele>8.7</ele>
        <time>2020-06-17T09:27:10Z</time>
      </trkpt>
      <trkpt lat="49.32908" lon="-0.39101">
        <ele>8.7</ele>
        <time>2020-06-17T09:27:11Z</time>
      </trkpt>
      <trkpt lat="49.32906" lon="-0.39096">
        <ele>8.6</ele>
        <time>2020-06-17T09:27:12Z</time>
      </trkpt>
      <trkpt lat="49.32904" lon="-0.39089">
        <ele>8.6</ele>
        <time>2020-06-17T09:27:13Z</time>
      </trkpt>
      <trkpt lat="49.32903" lon="-0.39083">
        <ele>8.6</ele>
        <time>2020-06-17T09:27:14Z</time>
      </trkpt>
      <trkpt lat="49.32902" lon="-0.39076">
        <ele>8.6</ele>
        <time>2020-06-17T09:27:15Z</time>
      </trkpt>
      <trkpt lat="49.329" lon="-0.3907">
        <ele>8.6</ele>
        <time>2020-06-17T09:27:16Z</time>
      </trkpt>
      <trkpt lat="49.32897" lon="-0.39062">
        <ele>8.6</ele>
        <time>2020-06-17T09:27:17Z</time>
      </trkpt>
      <trkpt lat="49.32895" lon="-0.39057">
        <ele>8.6</ele>
        <time>2020-06-17T09:27:18Z</time>
      </trkpt>
      <trkpt lat="49.32892" lon="-0.3905">
        <ele>8.6</ele>
        <time>2020-06-17T09:27:19Z</time>
      </trkpt>
      <trkpt lat="49.32889" lon="-0.39043">
        <ele>8.6</ele>
        <time>2020-06-17T09:27:20Z</time>
      </trkpt>
      <trkpt lat="49.32887" lon="-0.39037">
        <ele>8.6</ele>
        <time>2020-06-17T09:27:21Z</time>
      </trkpt>
      <trkpt lat="49.32885" lon="-0.39032">
        <ele>8.6</ele>
        <time>2020-06-17T09:27:22Z</time>
      </trkpt>
      <trkpt lat="49.32883" lon="-0.39027">
        <ele>8.6</ele>
        <time>2020-06-17T09:27:23Z</time>
      </trkpt>
      <trkpt lat="49.32881" lon="-0.39022">
        <ele>8.6</ele>
        <time>2020-06-17T09:27:24Z</time>
      </trkpt>
      <trkpt lat="49.3288" lon="-0.39017">
        <ele>8.6</ele>
        <time>2020-06-17T09:27:25Z</time>
      </trkpt>
      <trkpt lat="49.32878" lon="-0.3901">
        <ele>8.7</ele>
        <time>2020-06-17T09:27:26Z</time>
      </trkpt>
      <trkpt lat="49.32876" lon="-0.39004">
        <ele>8.7</ele>
        <time>2020-06-17T09:27:27Z</time>
      </trkpt>
      <trkpt lat="49.32874" lon="-0.38997">
        <ele>8.7</ele>
        <time>2020-06-17T09:27:28Z</time>
      </trkpt>
      <trkpt lat="49.32873" lon="-0.3899">
        <ele>8.7</ele>
        <time>2020-06-17T09:27:29Z</time>
      </trkpt>
      <trkpt lat="49.32871" lon="-0.38984">
        <ele>8.7</ele>
        <time>2020-06-17T09:27:30Z</time>
      </trkpt>
      <trkpt lat="49.32868" lon="-0.38978">
        <ele>8.8</ele>
        <time>2020-06-17T09:27:31Z</time>
      </trkpt>
      <trkpt lat="49.32866" lon="-0.38973">
        <ele>8.8</ele>
        <time>2020-06-17T09:27:32Z</time>
      </trkpt>
      <trkpt lat="49.32864" lon="-0.38969">
        <ele>8.8</ele>
        <time>2020-06-17T09:27:33Z</time>
      </trkpt>
      <trkpt lat="49.32863" lon="-0.38964">
        <ele>8.8</ele>
        <time>2020-06-17T09:27:34Z</time>
      </trkpt>
      <trkpt lat="49.32861" lon="-0.3896">
        <ele>8.8</ele>
        <time>2020-06-17T09:27:35Z</time>
      </trkpt>
      <trkpt lat="49.32858" lon="-0.38955">
        <ele>8.8</ele>
        <time>2020-06-17T09:27:36Z</time>
      </trkpt>
      <trkpt lat="49.32855" lon="-0.3895">
        <ele>8.9</ele>
        <time>2020-06-17T09:27:37Z</time>
      </trkpt>
      <trkpt lat="49.32852" lon="-0.38944">
        <ele>8.9</ele>
        <time>2020-06-17T09:27:38Z</time>
      </trkpt>
      <trkpt lat="49.3285" lon="-0.38938">
        <ele>8.9</ele>
        <time>2020-06-17T09:27:39Z</time>
      </trkpt>
      <trkpt lat="49.32847" lon="-0.38933">
        <ele>8.9</ele>
        <time>2020-06-17T09:27:40Z</time>
      </trkpt>
      <trkpt lat="49.32844" lon="-0.38927">
        <ele>8.9</ele>
        <time>2020-06-17T09:27:41Z</time>
      </trkpt>
      <trkpt lat="49.32841" lon="-0.38922">
        <ele>8.9</ele>
        <time>2020-06-17T09:27:42Z</time>
      </trkpt>
      <trkpt lat="49.32838" lon="-0.38916">
        <ele>8.9</ele>
        <time>2020-06-17T09:27:43Z</time>
      </trkpt>
      <trkpt lat="49.32834" lon="-0.38908">
        <ele>8.9</ele>
        <time>2020-06-17T09:27:44Z</time>
      </trkpt>
      <trkpt lat="49.32831" lon="-0.38901">
        <ele>8.9</ele>
        <time>2020-06-17T09:27:45Z</time>
      </trkpt>
      <trkpt lat="49.32828" lon="-0.38895">
        <ele>8.9</ele>
        <time>2020-06-17T09:27:46Z</time>
      </trkpt>
      <trkpt lat="49.32825" lon="-0.3889">
        <ele>8.9</ele>
        <time>2020-06-17T09:27:47Z</time>
      </trkpt>
      <trkpt lat="49.32821" lon="-0.38885">
        <ele>8.9</ele>
        <time>2020-06-17T09:27:48Z</time>
      </trkpt>
      <trkpt lat="49.32818" lon="-0.38881">
        <ele>8.9</ele>
        <time>2020-06-17T09:27:49Z</time>
      </trkpt>
      <trkpt lat="49.32815" lon="-0.38876">
        <ele>8.9</ele>
        <time>2020-06-17T09:27:50Z</time>
      </trkpt>
      <trkpt lat="49.32811" lon="-0.3887">
        <ele>8.9</ele>
        <time>2020-06-17T09:27:51Z</time>
      </trkpt>
      <trkpt lat="49.32806" lon="-0.38865">
        <ele>8.9</ele>
        <time>2020-06-17T09:27:52Z</time>
      </trkpt>
      <trkpt lat="49.32802" lon="-0.3886">
        <ele>8.8</ele>
        <time>2020-06-17T09:27:53Z</time>
      </trkpt>
      <trkpt lat="49.32799" lon="-0.38856">
        <ele>8.8</ele>
        <time>2020-06-17T09:27:54Z</time>
      </trkpt>
      <trkpt lat="49.32796" lon="-0.38852">
        <ele>8.7</ele>
        <time>2020-06-17T09:27:55Z</time>
      </trkpt>
      <trkpt lat="49.32793" lon="-0.38846">
        <ele>8.7</ele>
        <time>2020-06-17T09:27:56Z</time>
      </trkpt>
      <trkpt lat="49.32791" lon="-0.3884">
        <ele>8.7</ele>
        <time>2020-06-17T09:27:57Z</time>
      </trkpt>
      <trkpt lat="49.32788" lon="-0.38833">
        <ele>8.6</ele>
        <time>2020-06-17T09:27:58Z</time>
      </trkpt>
      <trkpt lat="49.32784" lon="-0.38827">
        <ele>8.6</ele>
        <time>2020-06-17T09:27:59Z</time>
      </trkpt>
      <trkpt lat="49.32779" lon="-0.38821">
        <ele>8.6</ele>
        <time>2020-06-17T09:28:00Z</time>
      </trkpt>
      <trkpt lat="49.32774" lon="-0.38814">
        <ele>8.6</ele>
        <time>2020-06-17T09:28:01Z</time>
      </trkpt>
      <trkpt lat="49.3277" lon="-0.38808">
        <ele>8.6</ele>
        <time>2020-06-17T09:28:02Z</time>
      </trkpt>
      <trkpt lat="49.32765" lon="-0.38802">
        <ele>8.6</ele>
        <time>2020-06-17T09:28:03Z</time>
      </trkpt>
      <trkpt lat="49.32761" lon="-0.38797">
        <ele>8.5</ele>
        <time>2020-06-17T09:28:04Z</time>
      </trkpt>
      <trkpt lat="49.32757" lon="-0.38791">
        <ele>8.5</ele>
        <time>2020-06-17T09:28:05Z</time>
      </trkpt>
      <trkpt lat="49.32753" lon="-0.38786">
        <ele>8.5</ele>
        <time>2020-06-17T09:28:06Z</time>
      </trkpt>
      <trkpt lat="49.32749" lon="-0.38778">
        <ele>8.5</ele>
        <time>2020-06-17T09:28:07Z</time>
      </trkpt>
      <trkpt lat="49.32745" lon="-0.38772">
        <ele>8.5</ele>
        <time>2020-06-17T09:28:08Z</time>
      </trkpt>
      <trkpt lat="49.32742" lon="-0.38765">
        <ele>8.5</ele>
        <time>2020-06-17T09:28:09Z</time>
      </trkpt>
      <trkpt lat="49.32739" lon="-0.38757">
        <ele>8.5</ele>
        <time>2020-06-17T09:28:10Z</time>
      </trkpt>
      <trkpt lat="49.32736" lon="-0.38751">
        <ele>8.5</ele>
        <time>2020-06-17T09:28:11Z</time>
      </trkpt>
      <trkpt lat="49.32733" lon="-0.38744">
        <ele>8.5</ele>
        <time>2020-06-17T09:28:12Z</time>
      </trkpt>
      <trkpt lat="49.3273" lon="-0.38739">
        <ele>8.6</ele>
        <time>2020-06-17T09:28:13Z</time>
      </trkpt>
      <trkpt lat="49.32726" lon="-0.38734">
        <ele>8.6</ele>
        <time>2020-06-17T09:28:14Z</time>
      </trkpt>
      <trkpt lat="49.32722" lon="-0.38729">
        <ele>8.6</ele>
        <time>2020-06-17T09:28:15Z</time>
      </trkpt>
      <trkpt lat="49.32719" lon="-0.38725">
        <ele>8.7</ele>
        <time>2020-06-17T09:28:16Z</time>
      </trkpt>
      <trkpt lat="49.32714" lon="-0.38722">
        <ele>8.6</ele>
        <time>2020-06-17T09:28:17Z</time>
      </trkpt>
      <trkpt lat="49.3271" lon="-0.38718">
        <ele>8.4</ele>
        <time>2020-06-17T09:28:18Z</time>
      </trkpt>
      <trkpt lat="49.32707" lon="-0.38713">
        <ele>8.4</ele>
        <time>2020-06-17T09:28:19Z</time>
      </trkpt>
      <trkpt lat="49.32705" lon="-0.38708">
        <ele>8.3</ele>
        <time>2020-06-17T09:28:20Z</time>
      </trkpt>
      <trkpt lat="49.32703" lon="-0.38702">
        <ele>8.3</ele>
        <time>2020-06-17T09:28:21Z</time>
      </trkpt>
      <trkpt lat="49.32702" lon="-0.38696">
        <ele>8.2</ele>
        <time>2020-06-17T09:28:22Z</time>
      </trkpt>
      <trkpt lat="49.32701" lon="-0.3869">
        <ele>8.2</ele>
        <time>2020-06-17T09:28:23Z</time>
      </trkpt>
      <trkpt lat="49.32699" lon="-0.38683">
        <ele>8</ele>
        <time>2020-06-17T09:28:24Z</time>
      </trkpt>
      <trkpt lat="49.32697" lon="-0.38676">
        <ele>7.9</ele>
        <time>2020-06-17T09:28:25Z</time>
      </trkpt>
      <trkpt lat="49.32695" lon="-0.38669">
        <ele>7.8</ele>
        <time>2020-06-17T09:28:26Z</time>
      </trkpt>
      <trkpt lat="49.32693" lon="-0.38663">
        <ele>7.7</ele>
        <time>2020-06-17T09:28:27Z</time>
      </trkpt>
      <trkpt lat="49.32691" lon="-0.38657">
        <ele>7.6</ele>
        <time>2020-06-17T09:28:28Z</time>
      </trkpt>
      <trkpt lat="49.32688" lon="-0.38651">
        <ele>7.5</ele>
        <time>2020-06-17T09:28:29Z</time>
      </trkpt>
      <trkpt lat="49.32685" lon="-0.38644">
        <ele>7.5</ele>
        <time>2020-06-17T09:28:30Z</time>
      </trkpt>
      <trkpt lat="49.32683" lon="-0.38639">
        <ele>7.4</ele>
        <time>2020-06-17T09:28:31Z</time>
      </trkpt>
      <trkpt lat="49.3268" lon="-0.38633">
        <ele>7.4</ele>
        <time>2020-06-17T09:28:32Z</time>
      </trkpt>
      <trkpt lat="49.32678" lon="-0.38628">
        <ele>7.4</ele>
        <time>2020-06-17T09:28:33Z</time>
      </trkpt>
      <trkpt lat="49.32675" lon="-0.38621">
        <ele>7.3</ele>
        <time>2020-06-17T09:28:34Z</time>
      </trkpt>
      <trkpt lat="49.32673" lon="-0.38614">
        <ele>7.2</ele>
        <time>2020-06-17T09:28:35Z</time>
      </trkpt>
      <trkpt lat="49.3267" lon="-0.38607">
        <ele>7.2</ele>
        <time>2020-06-17T09:28:36Z</time>
      </trkpt>
      <trkpt lat="49.32668" lon="-0.386">
        <ele>7.1</ele>
        <time>2020-06-17T09:28:37Z</time>
      </trkpt>
      <trkpt lat="49.32666" lon="-0.38593">
        <ele>7</ele>
        <time>2020-06-17T09:28:38Z</time>
      </trkpt>
      <trkpt lat="49.32664" lon="-0.38586">
        <ele>7</ele>
        <time>2020-06-17T09:28:39Z</time>
      </trkpt>
      <trkpt lat="49.32661" lon="-0.38579">
        <ele>6.9</ele>
        <time>2020-06-17T09:28:40Z</time>
      </trkpt>
      <trkpt lat="49.32659" lon="-0.38573">
        <ele>6.8</ele>
        <time>2020-06-17T09:28:41Z</time>
      </trkpt>
      <trkpt lat="49.32656" lon="-0.38566">
        <ele>6.8</ele>
        <time>2020-06-17T09:28:42Z</time>
      </trkpt>
      <trkpt lat="49.32654" lon="-0.3856">
        <ele>6.7</ele>
        <time>2020-06-17T09:28:43Z</time>
      </trkpt>
      <trkpt lat="49.3265" lon="-0.38555">
        <ele>6.7</ele>
        <time>2020-06-17T09:28:44Z</time>
      </trkpt>
      <trkpt lat="49.32647" lon="-0.3855">
        <ele>6.7</ele>
        <time>2020-06-17T09:28:45Z</time>
      </trkpt>
      <trkpt lat="49.32643" lon="-0.38545">
        <ele>6.6</ele>
        <time>2020-06-17T09:28:46Z</time>
      </trkpt>
      <trkpt lat="49.3264" lon="-0.38539">
        <ele>6.6</ele>
        <time>2020-06-17T09:28:47Z</time>
      </trkpt>
      <trkpt lat="49.32636" lon="-0.38532">
        <ele>6.6</ele>
        <time>2020-06-17T09:28:48Z</time>
      </trkpt>
      <trkpt lat="49.32632" lon="-0.38525">
        <ele>6.6</ele>
        <time>2020-06-17T09:28:49Z</time>
      </trkpt>
      <trkpt lat="49.32629" lon="-0.38519">
        <ele>6.6</ele>
        <time>2020-06-17T09:28:50Z</time>
      </trkpt>
      <trkpt lat="49.32625" lon="-0.38512">
        <ele>6.6</ele>
        <time>2020-06-17T09:28:51Z</time>
      </trkpt>
      <trkpt lat="49.32622" lon="-0.38504">
        <ele>6.6</ele>
        <time>2020-06-17T09:28:52Z</time>
      </trkpt>
      <trkpt lat="49.32619" lon="-0.38497">
        <ele>6.7</ele>
        <time>2020-06-17T09:28:53Z</time>
      </trkpt>
      <trkpt lat="49.32617" lon="-0.3849">
        <ele>6.7</ele>
        <time>2020-06-17T09:28:54Z</time>
      </trkpt>
      <trkpt lat="49.32614" lon="-0.38484">
        <ele>6.8</ele>
        <time>2020-06-17T09:28:55Z</time>
      </trkpt>
      <trkpt lat="49.3261" lon="-0.38478">
        <ele>6.5</ele>
        <time>2020-06-17T09:28:56Z</time>
      </trkpt>
      <trkpt lat="49.32607" lon="-0.3847">
        <ele>6.4</ele>
        <time>2020-06-17T09:28:57Z</time>
      </trkpt>
      <trkpt lat="49.32603" lon="-0.38464">
        <ele>6.5</ele>
        <time>2020-06-17T09:28:58Z</time>
      </trkpt>
      <trkpt lat="49.326" lon="-0.38457">
        <ele>6.6</ele>
        <time>2020-06-17T09:28:59Z</time>
      </trkpt>
      <trkpt lat="49.32596" lon="-0.3845">
        <ele>6.7</ele>
        <time>2020-06-17T09:29:00Z</time>
      </trkpt>
      <trkpt lat="49.32594" lon="-0.38443">
        <ele>6.7</ele>
        <time>2020-06-17T09:29:01Z</time>
      </trkpt>
      <trkpt lat="49.32589" lon="-0.38436">
        <ele>6.8</ele>
        <time>2020-06-17T09:29:02Z</time>
      </trkpt>
      <trkpt lat="49.32587" lon="-0.3843">
        <ele>6.9</ele>
        <time>2020-06-17T09:29:03Z</time>
      </trkpt>
      <trkpt lat="49.32584" lon="-0.38425">
        <ele>7</ele>
        <time>2020-06-17T09:29:04Z</time>
      </trkpt>
      <trkpt lat="49.32581" lon="-0.38419">
        <ele>7.1</ele>
        <time>2020-06-17T09:29:05Z</time>
      </trkpt>
      <trkpt lat="49.32578" lon="-0.38414">
        <ele>7.2</ele>
        <time>2020-06-17T09:29:06Z</time>
      </trkpt>
      <trkpt lat="49.32575" lon="-0.38409">
        <ele>7.1</ele>
        <time>2020-06-17T09:29:07Z</time>
      </trkpt>
      <trkpt lat="49.32572" lon="-0.38403">
        <ele>7</ele>
        <time>2020-06-17T09:29:08Z</time>
      </trkpt>
      <trkpt lat="49.32569" lon="-0.38398">
        <ele>7</ele>
        <time>2020-06-17T09:29:09Z</time>
      </trkpt>
      <trkpt lat="49.32566" lon="-0.38392">
        <ele>7</ele>
        <time>2020-06-17T09:29:10Z</time>
      </trkpt>
      <trkpt lat="49.32563" lon="-0.38386">
        <ele>6.9</ele>
        <time>2020-06-17T09:29:11Z</time>
      </trkpt>
      <trkpt lat="49.3256" lon="-0.38379">
        <ele>7</ele>
        <time>2020-06-17T09:29:12Z</time>
      </trkpt>
      <trkpt lat="49.32558" lon="-0.38373">
        <ele>7</ele>
        <time>2020-06-17T09:29:13Z</time>
      </trkpt>
      <trkpt lat="49.32556" lon="-0.38366">
        <ele>7.1</ele>
        <time>2020-06-17T09:29:14Z</time>
      </trkpt>
      <trkpt lat="49.32552" lon="-0.3836">
        <ele>7.2</ele>
        <time>2020-06-17T09:29:15Z</time>
      </trkpt>
      <trkpt lat="49.32549" lon="-0.38352">
        <ele>7.3</ele>
        <time>2020-06-17T09:29:16Z</time>
      </trkpt>
      <trkpt lat="49.32545" lon="-0.38345">
        <ele>7.4</ele>
        <time>2020-06-17T09:29:17Z</time>
      </trkpt>
      <trkpt lat="49.32542" lon="-0.38338">
        <ele>7.5</ele>
        <time>2020-06-17T09:29:18Z</time>
      </trkpt>
      <trkpt lat="49.32538" lon="-0.38331">
        <ele>7.6</ele>
        <time>2020-06-17T09:29:19Z</time>
      </trkpt>
      <trkpt lat="49.32535" lon="-0.38325">
        <ele>7.8</ele>
        <time>2020-06-17T09:29:20Z</time>
      </trkpt>
      <trkpt lat="49.32533" lon="-0.38317">
        <ele>7.9</ele>
        <time>2020-06-17T09:29:21Z</time>
      </trkpt>
      <trkpt lat="49.32529" lon="-0.38309">
        <ele>8</ele>
        <time>2020-06-17T09:29:22Z</time>
      </trkpt>
      <trkpt lat="49.32526" lon="-0.38302">
        <ele>8.1</ele>
        <time>2020-06-17T09:29:23Z</time>
      </trkpt>
      <trkpt lat="49.32523" lon="-0.38294">
        <ele>8.3</ele>
        <time>2020-06-17T09:29:24Z</time>
      </trkpt>
      <trkpt lat="49.3252" lon="-0.38286">
        <ele>8.4</ele>
        <time>2020-06-17T09:29:25Z</time>
      </trkpt>
      <trkpt lat="49.32516" lon="-0.38277">
        <ele>8.5</ele>
        <time>2020-06-17T09:29:26Z</time>
      </trkpt>
      <trkpt lat="49.32512" lon="-0.3827">
        <ele>8.6</ele>
        <time>2020-06-17T09:29:27Z</time>
      </trkpt>
      <trkpt lat="49.32509" lon="-0.38259">
        <ele>8.7</ele>
        <time>2020-06-17T09:29:28Z</time>
      </trkpt>
      <trkpt lat="49.32504" lon="-0.38249">
        <ele>8.8</ele>
        <time>2020-06-17T09:29:29Z</time>
      </trkpt>
      <trkpt lat="49.32501" lon="-0.38242">
        <ele>8.9</ele>
        <time>2020-06-17T09:29:30Z</time>
      </trkpt>
      <trkpt lat="49.32496" lon="-0.38235">
        <ele>8.9</ele>
        <time>2020-06-17T09:29:31Z</time>
      </trkpt>
      <trkpt lat="49.32492" lon="-0.38227">
        <ele>8.9</ele>
        <time>2020-06-17T09:29:32Z</time>
      </trkpt>
      <trkpt lat="49.32488" lon="-0.3822">
        <ele>9</ele>
        <time>2020-06-17T09:29:33Z</time>
      </trkpt>
      <trkpt lat="49.32484" lon="-0.38213">
        <ele>9.1</ele>
        <time>2020-06-17T09:29:34Z</time>
      </trkpt>
      <trkpt lat="49.3248" lon="-0.38205">
        <ele>9.1</ele>
        <time>2020-06-17T09:29:35Z</time>
      </trkpt>
      <trkpt lat="49.32476" lon="-0.38196">
        <ele>9.2</ele>
        <time>2020-06-17T09:29:36Z</time>
      </trkpt>
      <trkpt lat="49.32471" lon="-0.38188">
        <ele>9.3</ele>
        <time>2020-06-17T09:29:37Z</time>
      </trkpt>
      <trkpt lat="49.32467" lon="-0.3818">
        <ele>9.3</ele>
        <time>2020-06-17T09:29:38Z</time>
      </trkpt>
      <trkpt lat="49.32462" lon="-0.38172">
        <ele>9.4</ele>
        <time>2020-06-17T09:29:39Z</time>
      </trkpt>
      <trkpt lat="49.32458" lon="-0.38165">
        <ele>9.4</ele>
        <time>2020-06-17T09:29:40Z</time>
      </trkpt>
      <trkpt lat="49.32455" lon="-0.38158">
        <ele>9.5</ele>
        <time>2020-06-17T09:29:41Z</time>
      </trkpt>
      <trkpt lat="49.32451" lon="-0.38151">
        <ele>9.5</ele>
        <time>2020-06-17T09:29:42Z</time>
      </trkpt>
      <trkpt lat="49.32447" lon="-0.38144">
        <ele>9.5</ele>
        <time>2020-06-17T09:29:43Z</time>
      </trkpt>
      <trkpt lat="49.32443" lon="-0.38135">
        <ele>9.5</ele>
        <time>2020-06-17T09:29:44Z</time>
      </trkpt>
      <trkpt lat="49.32439" lon="-0.38127">
        <ele>9.6</ele>
        <time>2020-06-17T09:29:45Z</time>
      </trkpt>
      <trkpt lat="49.32436" lon="-0.3812">
        <ele>9.6</ele>
        <time>2020-06-17T09:29:46Z</time>
      </trkpt>
      <trkpt lat="49.32432" lon="-0.38113">
        <ele>9.6</ele>
        <time>2020-06-17T09:29:47Z</time>
      </trkpt>
      <trkpt lat="49.32429" lon="-0.38106">
        <ele>9.6</ele>
        <time>2020-06-17T09:29:48Z</time>
      </trkpt>
      <trkpt lat="49.32426" lon="-0.38099">
        <ele>9.6</ele>
        <time>2020-06-17T09:29:49Z</time>
      </trkpt>
      <trkpt lat="49.32423" lon="-0.38091">
        <ele>9.6</ele>
        <time>2020-06-17T09:29:50Z</time>
      </trkpt>
      <trkpt lat="49.32419" lon="-0.38084">
        <ele>9.6</ele>
        <time>2020-06-17T09:29:51Z</time>
      </trkpt>
      <trkpt lat="49.32415" lon="-0.38077">
        <ele>9.6</ele>
        <time>2020-06-17T09:29:52Z</time>
      </trkpt>
      <trkpt lat="49.32412" lon="-0.3807">
        <ele>9.7</ele>
        <time>2020-06-17T09:29:53Z</time>
      </trkpt>
      <trkpt lat="49.32408" lon="-0.38062">
        <ele>9.7</ele>
        <time>2020-06-17T09:29:54Z</time>
      </trkpt>
      <trkpt lat="49.32405" lon="-0.38055">
        <ele>9.7</ele>
        <time>2020-06-17T09:29:55Z</time>
      </trkpt>
      <trkpt lat="49.32401" lon="-0.38047">
        <ele>9.7</ele>
        <time>2020-06-17T09:29:56Z</time>
      </trkpt>
      <trkpt lat="49.32397" lon="-0.38039">
        <ele>9.7</ele>
        <time>2020-06-17T09:29:57Z</time>
      </trkpt>
      <trkpt lat="49.32393" lon="-0.3803">
        <ele>9.7</ele>
        <time>2020-06-17T09:29:58Z</time>
      </trkpt>
      <trkpt lat="49.3239" lon="-0.38022">
        <ele>9.7</ele>
        <time>2020-06-17T09:29:59Z</time>
      </trkpt>
      <trkpt lat="49.32386" lon="-0.38014">
        <ele>9.7</ele>
        <time>2020-06-17T09:30:00Z</time>
      </trkpt>
      <trkpt lat="49.32382" lon="-0.38004">
        <ele>9.7</ele>
        <time>2020-06-17T09:30:01Z</time>
      </trkpt>
      <trkpt lat="49.32377" lon="-0.37994">
        <ele>9.7</ele>
        <time>2020-06-17T09:30:02Z</time>
      </trkpt>
      <trkpt lat="49.32373" lon="-0.37986">
        <ele>9.8</ele>
        <time>2020-06-17T09:30:03Z</time>
      </trkpt>
      <trkpt lat="49.32369" lon="-0.37978">
        <ele>9.8</ele>
        <time>2020-06-17T09:30:04Z</time>
      </trkpt>
      <trkpt lat="49.32364" lon="-0.37971">
        <ele>9.8</ele>
        <time>2020-06-17T09:30:05Z</time>
      </trkpt>
      <trkpt lat="49.32361" lon="-0.37965">
        <ele>9.8</ele>
        <time>2020-06-17T09:30:06Z</time>
      </trkpt>
      <trkpt lat="49.32357" lon="-0.37958">
        <ele>9.8</ele>
        <time>2020-06-17T09:30:07Z</time>
      </trkpt>
      <trkpt lat="49.32353" lon="-0.37951">
        <ele>9.8</ele>
        <time>2020-06-17T09:30:08Z</time>
      </trkpt>
      <trkpt lat="49.32349" lon="-0.37944">
        <ele>9.8</ele>
        <time>2020-06-17T09:30:09Z</time>
      </trkpt>
      <trkpt lat="49.32345" lon="-0.37938">
        <ele>9.9</ele>
        <time>2020-06-17T09:30:10Z</time>
      </trkpt>
      <trkpt lat="49.32341" lon="-0.37932">
        <ele>9.9</ele>
        <time>2020-06-17T09:30:11Z</time>
      </trkpt>
      <trkpt lat="49.32337" lon="-0.37925">
        <ele>9.9</ele>
        <time>2020-06-17T09:30:12Z</time>
      </trkpt>
      <trkpt lat="49.32334" lon="-0.37919">
        <ele>9.9</ele>
        <time>2020-06-17T09:30:13Z</time>
      </trkpt>
      <trkpt lat="49.32331" lon="-0.37912">
        <ele>9.9</ele>
        <time>2020-06-17T09:30:14Z</time>
      </trkpt>
      <trkpt lat="49.32328" lon="-0.37906">
        <ele>9.9</ele>
        <time>2020-06-17T09:30:15Z</time>
      </trkpt>
      <trkpt lat="49.32326" lon="-0.379">
        <ele>10</ele>
        <time>2020-06-17T09:30:16Z</time>
      </trkpt>
      <trkpt lat="49.32323" lon="-0.37894">
        <ele>10</ele>
        <time>2020-06-17T09:30:17Z</time>
      </trkpt>
      <trkpt lat="49.32321" lon="-0.37889">
        <ele>10</ele>
        <time>2020-06-17T09:30:18Z</time>
      </trkpt>
      <trkpt lat="49.32318" lon="-0.37882">
        <ele>10</ele>
        <time>2020-06-17T09:30:19Z</time>
      </trkpt>
      <trkpt lat="49.32316" lon="-0.37875">
        <ele>10</ele>
        <time>2020-06-17T09:30:20Z</time>
      </trkpt>
      <trkpt lat="49.32314" lon="-0.37867">
        <ele>10</ele>
        <time>2020-06-17T09:30:21Z</time>
      </trkpt>
      <trkpt lat="49.32311" lon="-0.37859">
        <ele>10</ele>
        <time>2020-06-17T09:30:22Z</time>
      </trkpt>
      <trkpt lat="49.32308" lon="-0.37851">
        <ele>10</ele>
        <time>2020-06-17T09:30:23Z</time>
      </trkpt>
      <trkpt lat="49.32304" lon="-0.37843">
        <ele>10</ele>
        <time>2020-06-17T09:30:24Z</time>
      </trkpt>
      <trkpt lat="49.32301" lon="-0.37836">
        <ele>10.1</ele>
        <time>2020-06-17T09:30:25Z</time>
      </trkpt>
      <trkpt lat="49.32298" lon="-0.37831">
        <ele>10.1</ele>
        <time>2020-06-17T09:30:26Z</time>
      </trkpt>
      <trkpt lat="49.32295" lon="-0.37826">
        <ele>10.1</ele>
        <time>2020-06-17T09:30:27Z</time>
      </trkpt>
      <trkpt lat="49.32292" lon="-0.37821">
        <ele>10.1</ele>
        <time>2020-06-17T09:30:28Z</time>
      </trkpt>
      <trkpt lat="49.32288" lon="-0.37816">
        <ele>10.1</ele>
        <time>2020-06-17T09:30:29Z</time>
      </trkpt>
      <trkpt lat="49.32285" lon="-0.37809">
        <ele>10.1</ele>
        <time>2020-06-17T09:30:30Z</time>
      </trkpt>
      <trkpt lat="49.32283" lon="-0.37802">
        <ele>10.1</ele>
        <time>2020-06-17T09:30:31Z</time>
      </trkpt>
      <trkpt lat="49.32279" lon="-0.37796">
        <ele>10.1</ele>
        <time>2020-06-17T09:30:32Z</time>
      </trkpt>
      <trkpt lat="49.32275" lon="-0.3779">
        <ele>10.1</ele>
        <time>2020-06-17T09:30:33Z</time>
      </trkpt>
      <trkpt lat="49.32271" lon="-0.37782">
        <ele>10</ele>
        <time>2020-06-17T09:30:34Z</time>
      </trkpt>
      <trkpt lat="49.32267" lon="-0.37774">
        <ele>10</ele>
        <time>2020-06-17T09:30:35Z</time>
      </trkpt>
      <trkpt lat="49.32264" lon="-0.37766">
        <ele>9.9</ele>
        <time>2020-06-17T09:30:36Z</time>
      </trkpt>
      <trkpt lat="49.3226" lon="-0.37759">
        <ele>9.9</ele>
        <time>2020-06-17T09:30:37Z</time>
      </trkpt>
      <trkpt lat="49.32257" lon="-0.37753">
        <ele>9.9</ele>
        <time>2020-06-17T09:30:38Z</time>
      </trkpt>
      <trkpt lat="49.32254" lon="-0.37747">
        <ele>9.8</ele>
        <time>2020-06-17T09:30:39Z</time>
      </trkpt>
      <trkpt lat="49.32251" lon="-0.37739">
        <ele>9.8</ele>
        <time>2020-06-17T09:30:40Z</time>
      </trkpt>
      <trkpt lat="49.32248" lon="-0.37732">
        <ele>9.7</ele>
        <time>2020-06-17T09:30:41Z</time>
      </trkpt>
      <trkpt lat="49.32246" lon="-0.37726">
        <ele>9.7</ele>
        <time>2020-06-17T09:30:42Z</time>
      </trkpt>
      <trkpt lat="49.32244" lon="-0.37721">
        <ele>9.6</ele>
        <time>2020-06-17T09:30:43Z</time>
      </trkpt>
      <trkpt lat="49.32241" lon="-0.37716">
        <ele>9.6</ele>
        <time>2020-06-17T09:30:44Z</time>
      </trkpt>
      <trkpt lat="49.32241" lon="-0.37715">
        <ele>9.5</ele>
        <time>2020-06-17T09:30:45Z</time>
      </trkpt>
      <trkpt lat="49.32241" lon="-0.37715">
        <ele>9.5</ele>
        <time>2020-06-17T09:30:46Z</time>
      </trkpt>
      <trkpt lat="49.32241" lon="-0.37715">
        <ele>9.5</ele>
        <time>2020-06-17T09:30:47Z</time>
      </trkpt>
      <trkpt lat="49.32241" lon="-0.37717">
        <ele>9.5</ele>
        <time>2020-06-17T09:30:48Z</time>
      </trkpt>
      <trkpt lat="49.32242" lon="-0.37717">
        <ele>9.5</ele>
        <time>2020-06-17T09:30:49Z</time>
      </trkpt>
      <trkpt lat="49.32242" lon="-0.37718">
        <ele>9.5</ele>
        <time>2020-06-17T09:30:50Z</time>
      </trkpt>
      <trkpt lat="49.32242" lon="-0.37718">
        <ele>9.5</ele>
        <time>2020-06-17T09:30:51Z</time>
      </trkpt>
      <trkpt lat="49.32242" lon="-0.37717">
        <ele>9.5</ele>
        <time>2020-06-17T09:30:52Z</time>
      </trkpt>
      <trkpt lat="49.32242" lon="-0.37716">
        <ele>9.5</ele>
        <time>2020-06-17T09:30:53Z</time>
      </trkpt>
      <trkpt lat="49.32241" lon="-0.37714">
        <ele>9.4</ele>
        <time>2020-06-17T09:30:54Z</time>
      </trkpt>
      <trkpt lat="49.3224" lon="-0.37714">
        <ele>9.4</ele>
        <time>2020-06-17T09:30:55Z</time>
      </trkpt>
      <trkpt lat="49.32239" lon="-0.37713">
        <ele>9.4</ele>
        <time>2020-06-17T09:30:56Z</time>
      </trkpt>
      <trkpt lat="49.32238" lon="-0.37713">
        <ele>9.4</ele>
        <time>2020-06-17T09:30:57Z</time>
      </trkpt>
      <trkpt lat="49.32237" lon="-0.37709">
        <ele>9.3</ele>
        <time>2020-06-17T09:30:58Z</time>
      </trkpt>
      <trkpt lat="49.32235" lon="-0.37706">
        <ele>9.3</ele>
        <time>2020-06-17T09:30:59Z</time>
      </trkpt>
      <trkpt lat="49.32234" lon="-0.37703">
        <ele>9.2</ele>
        <time>2020-06-17T09:31:38Z</time>
      </trkpt>
      <trkpt lat="49.32232" lon="-0.37699">
        <ele>9.2</ele>
        <time>2020-06-17T09:31:39Z</time>
      </trkpt>
      <trkpt lat="49.3223" lon="-0.37697">
        <ele>9.1</ele>
        <time>2020-06-17T09:31:40Z</time>
      </trkpt>
      <trkpt lat="49.32227" lon="-0.37692">
        <ele>9</ele>
        <time>2020-06-17T09:31:41Z</time>
      </trkpt>
      <trkpt lat="49.32224" lon="-0.37687">
        <ele>8.9</ele>
        <time>2020-06-17T09:31:42Z</time>
      </trkpt>
      <trkpt lat="49.32222" lon="-0.37681">
        <ele>8.8</ele>
        <time>2020-06-17T09:31:43Z</time>
      </trkpt>
      <trkpt lat="49.32219" lon="-0.37676">
        <ele>8.8</ele>
        <time>2020-06-17T09:31:44Z</time>
      </trkpt>
      <trkpt lat="49.32216" lon="-0.3767">
        <ele>8.7</ele>
        <time>2020-06-17T09:31:45Z</time>
      </trkpt>
      <trkpt lat="49.32213" lon="-0.37664">
        <ele>8.6</ele>
        <time>2020-06-17T09:31:46Z</time>
      </trkpt>
      <trkpt lat="49.3221" lon="-0.37659">
        <ele>8.5</ele>
        <time>2020-06-17T09:31:47Z</time>
      </trkpt>
      <trkpt lat="49.32207" lon="-0.37653">
        <ele>8.4</ele>
        <time>2020-06-17T09:31:48Z</time>
      </trkpt>
      <trkpt lat="49.32203" lon="-0.37649">
        <ele>8.4</ele>
        <time>2020-06-17T09:31:49Z</time>
      </trkpt>
      <trkpt lat="49.322" lon="-0.37644">
        <ele>8.3</ele>
        <time>2020-06-17T09:31:50Z</time>
      </trkpt>
      <trkpt lat="49.32196" lon="-0.37641">
        <ele>8.2</ele>
        <time>2020-06-17T09:31:51Z</time>
      </trkpt>
      <trkpt lat="49.32193" lon="-0.37638">
        <ele>8</ele>
        <time>2020-06-17T09:31:52Z</time>
      </trkpt>
      <trkpt lat="49.32189" lon="-0.37634">
        <ele>7.8</ele>
        <time>2020-06-17T09:31:53Z</time>
      </trkpt>
      <trkpt lat="49.32184" lon="-0.3763">
        <ele>7.6</ele>
        <time>2020-06-17T09:31:54Z</time>
      </trkpt>
      <trkpt lat="49.3218" lon="-0.37626">
        <ele>7.4</ele>
        <time>2020-06-17T09:31:55Z</time>
      </trkpt>
      <trkpt lat="49.32175" lon="-0.37621">
        <ele>7.1</ele>
        <time>2020-06-17T09:31:56Z</time>
      </trkpt>
      <trkpt lat="49.32171" lon="-0.37616">
        <ele>6.9</ele>
        <time>2020-06-17T09:31:57Z</time>
      </trkpt>
      <trkpt lat="49.32168" lon="-0.37612">
        <ele>6.8</ele>
        <time>2020-06-17T09:31:58Z</time>
      </trkpt>
      <trkpt lat="49.32164" lon="-0.37608">
        <ele>6.7</ele>
        <time>2020-06-17T09:31:59Z</time>
      </trkpt>
      <trkpt lat="49.32161" lon="-0.37605">
        <ele>6.6</ele>
        <time>2020-06-17T09:32:00Z</time>
      </trkpt>
      <trkpt lat="49.32157" lon="-0.37601">
        <ele>6.5</ele>
        <time>2020-06-17T09:32:01Z</time>
      </trkpt>
      <trkpt lat="49.32153" lon="-0.37598">
        <ele>6.4</ele>
        <time>2020-06-17T09:32:02Z</time>
      </trkpt>
      <trkpt lat="49.32148" lon="-0.37595">
        <ele>6.3</ele>
        <time>2020-06-17T09:32:03Z</time>
      </trkpt>
      <trkpt lat="49.32145" lon="-0.37591">
        <ele>6.2</ele>
        <time>2020-06-17T09:32:04Z</time>
      </trkpt>
      <trkpt lat="49.32141" lon="-0.37586">
        <ele>6.1</ele>
        <time>2020-06-17T09:32:05Z</time>
      </trkpt>
      <trkpt lat="49.32138" lon="-0.37579">
        <ele>6</ele>
        <time>2020-06-17T09:32:06Z</time>
      </trkpt>
      <trkpt lat="49.32136" lon="-0.37573">
        <ele>6</ele>
        <time>2020-06-17T09:32:07Z</time>
      </trkpt>
      <trkpt lat="49.32133" lon="-0.37567">
        <ele>6</ele>
        <time>2020-06-17T09:32:08Z</time>
      </trkpt>
      <trkpt lat="49.3213" lon="-0.37562">
        <ele>5.9</ele>
        <time>2020-06-17T09:32:09Z</time>
      </trkpt>
      <trkpt lat="49.32125" lon="-0.37557">
        <ele>5.9</ele>
        <time>2020-06-17T09:32:10Z</time>
      </trkpt>
      <trkpt lat="49.32121" lon="-0.37552">
        <ele>5.9</ele>
        <time>2020-06-17T09:32:11Z</time>
      </trkpt>
      <trkpt lat="49.32118" lon="-0.37551">
        <ele>5.8</ele>
        <time>2020-06-17T09:32:12Z</time>
      </trkpt>
      <trkpt lat="49.32115" lon="-0.37548">
        <ele>5.8</ele>
        <time>2020-06-17T09:32:13Z</time>
      </trkpt>
      <trkpt lat="49.32112" lon="-0.37545">
        <ele>5.8</ele>
        <time>2020-06-17T09:32:14Z</time>
      </trkpt>
      <trkpt lat="49.32108" lon="-0.37541">
        <ele>5.7</ele>
        <time>2020-06-17T09:32:15Z</time>
      </trkpt>
      <trkpt lat="49.32105" lon="-0.37538">
        <ele>5.7</ele>
        <time>2020-06-17T09:32:16Z</time>
      </trkpt>
      <trkpt lat="49.32102" lon="-0.37534">
        <ele>5.7</ele>
        <time>2020-06-17T09:32:17Z</time>
      </trkpt>
      <trkpt lat="49.321" lon="-0.3753">
        <ele>5.7</ele>
        <time>2020-06-17T09:32:18Z</time>
      </trkpt>
      <trkpt lat="49.32097" lon="-0.37524">
        <ele>5.7</ele>
        <time>2020-06-17T09:32:19Z</time>
      </trkpt>
      <trkpt lat="49.32095" lon="-0.37521">
        <ele>5.7</ele>
        <time>2020-06-17T09:32:20Z</time>
      </trkpt>
      <trkpt lat="49.32092" lon="-0.37517">
        <ele>5.7</ele>
        <time>2020-06-17T09:32:21Z</time>
      </trkpt>
      <trkpt lat="49.32089" lon="-0.37514">
        <ele>5.8</ele>
        <time>2020-06-17T09:32:22Z</time>
      </trkpt>
      <trkpt lat="49.32085" lon="-0.37509">
        <ele>5.8</ele>
        <time>2020-06-17T09:32:23Z</time>
      </trkpt>
      <trkpt lat="49.32081" lon="-0.37504">
        <ele>5.8</ele>
        <time>2020-06-17T09:32:24Z</time>
      </trkpt>
      <trkpt lat="49.32077" lon="-0.37498">
        <ele>5.8</ele>
        <time>2020-06-17T09:32:25Z</time>
      </trkpt>
      <trkpt lat="49.32074" lon="-0.37492">
        <ele>5.8</ele>
        <time>2020-06-17T09:32:26Z</time>
      </trkpt>
      <trkpt lat="49.32071" lon="-0.37486">
        <ele>5.9</ele>
        <time>2020-06-17T09:32:27Z</time>
      </trkpt>
      <trkpt lat="49.32068" lon="-0.37479">
        <ele>5.9</ele>
        <time>2020-06-17T09:32:28Z</time>
      </trkpt>
      <trkpt lat="49.32065" lon="-0.37472">
        <ele>5.9</ele>
        <time>2020-06-17T09:32:29Z</time>
      </trkpt>
      <trkpt lat="49.32062" lon="-0.37465">
        <ele>5.9</ele>
        <time>2020-06-17T09:32:30Z</time>
      </trkpt>
      <trkpt lat="49.32058" lon="-0.37458">
        <ele>6</ele>
        <time>2020-06-17T09:32:31Z</time>
      </trkpt>
      <trkpt lat="49.32054" lon="-0.37452">
        <ele>6</ele>
        <time>2020-06-17T09:32:32Z</time>
      </trkpt>
      <trkpt lat="49.32049" lon="-0.37446">
        <ele>6.1</ele>
        <time>2020-06-17T09:32:33Z</time>
      </trkpt>
      <trkpt lat="49.32044" lon="-0.37439">
        <ele>6.1</ele>
        <time>2020-06-17T09:32:34Z</time>
      </trkpt>
      <trkpt lat="49.32038" lon="-0.37434">
        <ele>6.1</ele>
        <time>2020-06-17T09:32:35Z</time>
      </trkpt>
      <trkpt lat="49.32032" lon="-0.37428">
        <ele>6.2</ele>
        <time>2020-06-17T09:32:36Z</time>
      </trkpt>
      <trkpt lat="49.32025" lon="-0.37422">
        <ele>6.3</ele>
        <time>2020-06-17T09:32:37Z</time>
      </trkpt>
      <trkpt lat="49.32019" lon="-0.37416">
        <ele>6.3</ele>
        <time>2020-06-17T09:32:38Z</time>
      </trkpt>
      <trkpt lat="49.32013" lon="-0.3741">
        <ele>6.4</ele>
        <time>2020-06-17T09:32:39Z</time>
      </trkpt>
      <trkpt lat="49.32009" lon="-0.37404">
        <ele>6.4</ele>
        <time>2020-06-17T09:32:40Z</time>
      </trkpt>
      <trkpt lat="49.32005" lon="-0.37398">
        <ele>6.5</ele>
        <time>2020-06-17T09:32:41Z</time>
      </trkpt>
      <trkpt lat="49.32001" lon="-0.37392">
        <ele>6.6</ele>
        <time>2020-06-17T09:32:42Z</time>
      </trkpt>
      <trkpt lat="49.31996" lon="-0.37386">
        <ele>6.6</ele>
        <time>2020-06-17T09:32:43Z</time>
      </trkpt>
      <trkpt lat="49.31991" lon="-0.3738">
        <ele>6.7</ele>
        <time>2020-06-17T09:32:44Z</time>
      </trkpt>
      <trkpt lat="49.31986" lon="-0.37375">
        <ele>6.8</ele>
        <time>2020-06-17T09:32:45Z</time>
      </trkpt>
      <trkpt lat="49.31981" lon="-0.3737">
        <ele>6.9</ele>
        <time>2020-06-17T09:32:46Z</time>
      </trkpt>
      <trkpt lat="49.31975" lon="-0.37366">
        <ele>7</ele>
        <time>2020-06-17T09:32:47Z</time>
      </trkpt>
      <trkpt lat="49.31969" lon="-0.37361">
        <ele>7.1</ele>
        <time>2020-06-17T09:32:48Z</time>
      </trkpt>
      <trkpt lat="49.31963" lon="-0.37357">
        <ele>7.2</ele>
        <time>2020-06-17T09:32:49Z</time>
      </trkpt>
      <trkpt lat="49.31955" lon="-0.37354">
        <ele>7.4</ele>
        <time>2020-06-17T09:32:50Z</time>
      </trkpt>
      <trkpt lat="49.31949" lon="-0.37351">
        <ele>7.5</ele>
        <time>2020-06-17T09:32:51Z</time>
      </trkpt>
      <trkpt lat="49.31943" lon="-0.3735">
        <ele>7.7</ele>
        <time>2020-06-17T09:32:52Z</time>
      </trkpt>
      <trkpt lat="49.31936" lon="-0.37349">
        <ele>7.9</ele>
        <time>2020-06-17T09:32:53Z</time>
      </trkpt>
      <trkpt lat="49.3193" lon="-0.37348">
        <ele>8.1</ele>
        <time>2020-06-17T09:32:54Z</time>
      </trkpt>
      <trkpt lat="49.31925" lon="-0.37348">
        <ele>8.3</ele>
        <time>2020-06-17T09:32:55Z</time>
      </trkpt>
      <trkpt lat="49.3192" lon="-0.37348">
        <ele>8.3</ele>
        <time>2020-06-17T09:32:56Z</time>
      </trkpt>
      <trkpt lat="49.31914" lon="-0.37348">
        <ele>8.4</ele>
        <time>2020-06-17T09:32:57Z</time>
      </trkpt>
      <trkpt lat="49.3191" lon="-0.37348">
        <ele>8.4</ele>
        <time>2020-06-17T09:32:58Z</time>
      </trkpt>
      <trkpt lat="49.31905" lon="-0.37349">
        <ele>8.5</ele>
        <time>2020-06-17T09:32:59Z</time>
      </trkpt>
      <trkpt lat="49.31898" lon="-0.3735">
        <ele>8.5</ele>
        <time>2020-06-17T09:33:00Z</time>
      </trkpt>
      <trkpt lat="49.31892" lon="-0.37352">
        <ele>8.6</ele>
        <time>2020-06-17T09:33:01Z</time>
      </trkpt>
      <trkpt lat="49.31886" lon="-0.37354">
        <ele>8.7</ele>
        <time>2020-06-17T09:33:02Z</time>
      </trkpt>
      <trkpt lat="49.3188" lon="-0.37356">
        <ele>8.8</ele>
        <time>2020-06-17T09:33:03Z</time>
      </trkpt>
      <trkpt lat="49.31874" lon="-0.37358">
        <ele>8.8</ele>
        <time>2020-06-17T09:33:04Z</time>
      </trkpt>
      <trkpt lat="49.31868" lon="-0.3736">
        <ele>8.9</ele>
        <time>2020-06-17T09:33:05Z</time>
      </trkpt>
      <trkpt lat="49.31859" lon="-0.3736">
        <ele>8.9</ele>
        <time>2020-06-17T09:33:06Z</time>
      </trkpt>
      <trkpt lat="49.31851" lon="-0.3736">
        <ele>9</ele>
        <time>2020-06-17T09:33:07Z</time>
      </trkpt>
      <trkpt lat="49.31844" lon="-0.37359">
        <ele>9.1</ele>
        <time>2020-06-17T09:33:08Z</time>
      </trkpt>
      <trkpt lat="49.31838" lon="-0.37359">
        <ele>9.2</ele>
        <time>2020-06-17T09:33:09Z</time>
      </trkpt>
      <trkpt lat="49.31831" lon="-0.37361">
        <ele>9.3</ele>
        <time>2020-06-17T09:33:10Z</time>
      </trkpt>
      <trkpt lat="49.31825" lon="-0.37363">
        <ele>9.3</ele>
        <time>2020-06-17T09:33:11Z</time>
      </trkpt>
      <trkpt lat="49.3182" lon="-0.37365">
        <ele>9.4</ele>
        <time>2020-06-17T09:33:12Z</time>
      </trkpt>
      <trkpt lat="49.31815" lon="-0.37366">
        <ele>9.4</ele>
        <time>2020-06-17T09:33:13Z</time>
      </trkpt>
      <trkpt lat="49.31809" lon="-0.37367">
        <ele>9.5</ele>
        <time>2020-06-17T09:33:14Z</time>
      </trkpt>
      <trkpt lat="49.31803" lon="-0.37369">
        <ele>9.5</ele>
        <time>2020-06-17T09:33:15Z</time>
      </trkpt>
      <trkpt lat="49.31796" lon="-0.37369">
        <ele>9.6</ele>
        <time>2020-06-17T09:33:16Z</time>
      </trkpt>
      <trkpt lat="49.31788" lon="-0.37368">
        <ele>9.6</ele>
        <time>2020-06-17T09:33:17Z</time>
      </trkpt>
      <trkpt lat="49.31783" lon="-0.37367">
        <ele>9.7</ele>
        <time>2020-06-17T09:33:18Z</time>
      </trkpt>
      <trkpt lat="49.31777" lon="-0.37367">
        <ele>9.8</ele>
        <time>2020-06-17T09:33:19Z</time>
      </trkpt>
      <trkpt lat="49.31772" lon="-0.37366">
        <ele>9.8</ele>
        <time>2020-06-17T09:33:20Z</time>
      </trkpt>
      <trkpt lat="49.31768" lon="-0.37364">
        <ele>9.8</ele>
        <time>2020-06-17T09:33:21Z</time>
      </trkpt>
      <trkpt lat="49.31763" lon="-0.37363">
        <ele>9.8</ele>
        <time>2020-06-17T09:33:22Z</time>
      </trkpt>
      <trkpt lat="49.31759" lon="-0.3736">
        <ele>9.9</ele>
        <time>2020-06-17T09:33:23Z</time>
      </trkpt>
      <trkpt lat="49.31754" lon="-0.37359">
        <ele>9.9</ele>
        <time>2020-06-17T09:33:24Z</time>
      </trkpt>
      <trkpt lat="49.31749" lon="-0.37358">
        <ele>9.9</ele>
        <time>2020-06-17T09:33:25Z</time>
      </trkpt>
      <trkpt lat="49.31745" lon="-0.37356">
        <ele>10</ele>
        <time>2020-06-17T09:33:26Z</time>
      </trkpt>
      <trkpt lat="49.3174" lon="-0.37354">
        <ele>10</ele>
        <time>2020-06-17T09:33:27Z</time>
      </trkpt>
      <trkpt lat="49.31735" lon="-0.37353">
        <ele>10</ele>
        <time>2020-06-17T09:33:28Z</time>
      </trkpt>
      <trkpt lat="49.31729" lon="-0.37352">
        <ele>10.1</ele>
        <time>2020-06-17T09:33:29Z</time>
      </trkpt>
      <trkpt lat="49.31724" lon="-0.37351">
        <ele>10.1</ele>
        <time>2020-06-17T09:33:30Z</time>
      </trkpt>
      <trkpt lat="49.31719" lon="-0.37349">
        <ele>10.1</ele>
        <time>2020-06-17T09:33:31Z</time>
      </trkpt>
      <trkpt lat="49.31714" lon="-0.37348">
        <ele>10.2</ele>
        <time>2020-06-17T09:33:32Z</time>
      </trkpt>
      <trkpt lat="49.31709" lon="-0.37347">
        <ele>10.2</ele>
        <time>2020-06-17T09:33:33Z</time>
      </trkpt>
      <trkpt lat="49.31703" lon="-0.37346">
        <ele>10.3</ele>
        <time>2020-06-17T09:33:34Z</time>
      </trkpt>
      <trkpt lat="49.31698" lon="-0.37345">
        <ele>10.3</ele>
        <time>2020-06-17T09:33:35Z</time>
      </trkpt>
      <trkpt lat="49.31694" lon="-0.37343">
        <ele>10.3</ele>
        <time>2020-06-17T09:33:36Z</time>
      </trkpt>
      <trkpt lat="49.31689" lon="-0.37342">
        <ele>10.4</ele>
        <time>2020-06-17T09:33:37Z</time>
      </trkpt>
      <trkpt lat="49.31685" lon="-0.37342">
        <ele>10.4</ele>
        <time>2020-06-17T09:33:38Z</time>
      </trkpt>
      <trkpt lat="49.3168" lon="-0.37341">
        <ele>10.5</ele>
        <time>2020-06-17T09:33:39Z</time>
      </trkpt>
      <trkpt lat="49.31676" lon="-0.37341">
        <ele>10.5</ele>
        <time>2020-06-17T09:33:40Z</time>
      </trkpt>
      <trkpt lat="49.31673" lon="-0.3734">
        <ele>10.5</ele>
        <time>2020-06-17T09:33:41Z</time>
      </trkpt>
      <trkpt lat="49.31668" lon="-0.37339">
        <ele>10.6</ele>
        <time>2020-06-17T09:33:42Z</time>
      </trkpt>
      <trkpt lat="49.31665" lon="-0.37339">
        <ele>10.6</ele>
        <time>2020-06-17T09:33:43Z</time>
      </trkpt>
      <trkpt lat="49.31661" lon="-0.37339">
        <ele>10.7</ele>
        <time>2020-06-17T09:33:44Z</time>
      </trkpt>
      <trkpt lat="49.31657" lon="-0.37337">
        <ele>10.7</ele>
        <time>2020-06-17T09:33:45Z</time>
      </trkpt>
      <trkpt lat="49.31653" lon="-0.37335">
        <ele>10.8</ele>
        <time>2020-06-17T09:33:46Z</time>
      </trkpt>
      <trkpt lat="49.31649" lon="-0.37334">
        <ele>10.9</ele>
        <time>2020-06-17T09:33:47Z</time>
      </trkpt>
      <trkpt lat="49.31645" lon="-0.37332">
        <ele>10.9</ele>
        <time>2020-06-17T09:33:48Z</time>
      </trkpt>
      <trkpt lat="49.31641" lon="-0.37331">
        <ele>10.9</ele>
        <time>2020-06-17T09:33:49Z</time>
      </trkpt>
      <trkpt lat="49.31638" lon="-0.3733">
        <ele>11</ele>
        <time>2020-06-17T09:33:50Z</time>
      </trkpt>
      <trkpt lat="49.31635" lon="-0.37328">
        <ele>11</ele>
        <time>2020-06-17T09:33:51Z</time>
      </trkpt>
      <trkpt lat="49.31633" lon="-0.37327">
        <ele>11</ele>
        <time>2020-06-17T09:33:52Z</time>
      </trkpt>
      <trkpt lat="49.31632" lon="-0.37326">
        <ele>11</ele>
        <time>2020-06-17T09:33:53Z</time>
      </trkpt>
      <trkpt lat="49.3163" lon="-0.37326">
        <ele>11</ele>
        <time>2020-06-17T09:33:54Z</time>
      </trkpt>
      <trkpt lat="49.31629" lon="-0.37326">
        <ele>11.1</ele>
        <time>2020-06-17T09:33:55Z</time>
      </trkpt>
      <trkpt lat="49.31628" lon="-0.37325">
        <ele>11.1</ele>
        <time>2020-06-17T09:33:56Z</time>
      </trkpt>
      <trkpt lat="49.31628" lon="-0.37325">
        <ele>11.1</ele>
        <time>2020-06-17T09:33:57Z</time>
      </trkpt>
      <trkpt lat="49.31628" lon="-0.37325">
        <ele>11.1</ele>
        <time>2020-06-17T09:33:58Z</time>
      </trkpt>
      <trkpt lat="49.31628" lon="-0.37326">
        <ele>11.1</ele>
        <time>2020-06-17T09:33:59Z</time>
      </trkpt>
      <trkpt lat="49.31628" lon="-0.37326">
        <ele>11.1</ele>
        <time>2020-06-17T09:34:00Z</time>
      </trkpt>
      <trkpt lat="49.31628" lon="-0.37326">
        <ele>11.1</ele>
        <time>2020-06-17T09:34:01Z</time>
      </trkpt>
      <trkpt lat="49.31628" lon="-0.37326">
        <ele>11.1</ele>
        <time>2020-06-17T09:34:02Z</time>
      </trkpt>
      <trkpt lat="49.31628" lon="-0.37326">
        <ele>11.1</ele>
        <time>2020-06-17T09:34:03Z</time>
      </trkpt>
      <trkpt lat="49.31627" lon="-0.37326">
        <ele>11.1</ele>
        <time>2020-06-17T09:34:04Z</time>
      </trkpt>
      <trkpt lat="49.31627" lon="-0.37326">
        <ele>11.1</ele>
        <time>2020-06-17T09:34:05Z</time>
      </trkpt>
      <trkpt lat="49.31627" lon="-0.37326">
        <ele>11.1</ele>
        <time>2020-06-17T09:34:06Z</time>
      </trkpt>
      <trkpt lat="49.31627" lon="-0.37326">
        <ele>11.1</ele>
        <time>2020-06-17T09:34:07Z</time>
      </trkpt>
      <trkpt lat="49.31627" lon="-0.37326">
        <ele>11.1</ele>
        <time>2020-06-17T09:34:08Z</time>
      </trkpt>
      <trkpt lat="49.31627" lon="-0.37327">
        <ele>11.1</ele>
        <time>2020-06-17T09:34:09Z</time>
      </trkpt>
      <trkpt lat="49.31626" lon="-0.37327">
        <ele>11.1</ele>
        <time>2020-06-17T09:34:10Z</time>
      </trkpt>
      <trkpt lat="49.31626" lon="-0.37328">
        <ele>11.1</ele>
        <time>2020-06-17T09:34:11Z</time>
      </trkpt>
      <trkpt lat="49.31626" lon="-0.37327">
        <ele>11.1</ele>
        <time>2020-06-17T09:34:12Z</time>
      </trkpt>
      <trkpt lat="49.31625" lon="-0.37327">
        <ele>11.1</ele>
        <time>2020-06-17T09:34:13Z</time>
      </trkpt>
      <trkpt lat="49.31625" lon="-0.37328">
        <ele>11.1</ele>
        <time>2020-06-17T09:34:14Z</time>
      </trkpt>
      <trkpt lat="49.31625" lon="-0.37328">
        <ele>11.1</ele>
        <time>2020-06-17T09:34:15Z</time>
      </trkpt>
      <trkpt lat="49.31624" lon="-0.37329">
        <ele>11.1</ele>
        <time>2020-06-17T09:34:16Z</time>
      </trkpt>
      <trkpt lat="49.31623" lon="-0.3733">
        <ele>11.1</ele>
        <time>2020-06-17T09:34:17Z</time>
      </trkpt>
      <trkpt lat="49.31623" lon="-0.37329">
        <ele>11.1</ele>
        <time>2020-06-17T09:34:18Z</time>
      </trkpt>
      <trkpt lat="49.31622" lon="-0.3733">
        <ele>11.1</ele>
        <time>2020-06-17T09:34:19Z</time>
      </trkpt>
      <trkpt lat="49.31622" lon="-0.37331">
        <ele>11.2</ele>
        <time>2020-06-17T09:34:20Z</time>
      </trkpt>
      <trkpt lat="49.3162" lon="-0.3733">
        <ele>11.2</ele>
        <time>2020-06-17T09:34:21Z</time>
      </trkpt>
      <trkpt lat="49.31619" lon="-0.3733">
        <ele>11.2</ele>
        <time>2020-06-17T09:34:22Z</time>
      </trkpt>
      <trkpt lat="49.31619" lon="-0.37331">
        <ele>11.2</ele>
        <time>2020-06-17T09:34:23Z</time>
      </trkpt>
      <trkpt lat="49.31618" lon="-0.37331">
        <ele>11.2</ele>
        <time>2020-06-17T09:34:24Z</time>
      </trkpt>
      <trkpt lat="49.31615" lon="-0.3733">
        <ele>11.2</ele>
        <time>2020-06-17T09:34:25Z</time>
      </trkpt>
      <trkpt lat="49.31614" lon="-0.3733">
        <ele>11.2</ele>
        <time>2020-06-17T09:34:26Z</time>
      </trkpt>
      <trkpt lat="49.3161" lon="-0.3733">
        <ele>11.3</ele>
        <time>2020-06-17T09:34:27Z</time>
      </trkpt>
      <trkpt lat="49.31609" lon="-0.3733">
        <ele>11.3</ele>
        <time>2020-06-17T09:34:28Z</time>
      </trkpt>
      <trkpt lat="49.31606" lon="-0.37329">
        <ele>11.3</ele>
        <time>2020-06-17T09:34:29Z</time>
      </trkpt>
      <trkpt lat="49.31601" lon="-0.37329">
        <ele>11.4</ele>
        <time>2020-06-17T09:34:30Z</time>
      </trkpt>
      <trkpt lat="49.31598" lon="-0.37329">
        <ele>11.4</ele>
        <time>2020-06-17T09:34:31Z</time>
      </trkpt>
      <trkpt lat="49.31594" lon="-0.3733">
        <ele>11.4</ele>
        <time>2020-06-17T09:34:32Z</time>
      </trkpt>
      <trkpt lat="49.31589" lon="-0.37329">
        <ele>11.5</ele>
        <time>2020-06-17T09:34:33Z</time>
      </trkpt>
      <trkpt lat="49.31585" lon="-0.3733">
        <ele>11.5</ele>
        <time>2020-06-17T09:34:34Z</time>
      </trkpt>
      <trkpt lat="49.31581" lon="-0.3733">
        <ele>11.6</ele>
        <time>2020-06-17T09:34:35Z</time>
      </trkpt>
      <trkpt lat="49.31577" lon="-0.3733">
        <ele>11.6</ele>
        <time>2020-06-17T09:34:36Z</time>
      </trkpt>
      <trkpt lat="49.31572" lon="-0.37329">
        <ele>11.7</ele>
        <time>2020-06-17T09:34:37Z</time>
      </trkpt>
      <trkpt lat="49.31568" lon="-0.37327">
        <ele>11.7</ele>
        <time>2020-06-17T09:34:38Z</time>
      </trkpt>
      <trkpt lat="49.31564" lon="-0.37326">
        <ele>11.8</ele>
        <time>2020-06-17T09:34:39Z</time>
      </trkpt>
      <trkpt lat="49.31559" lon="-0.37325">
        <ele>11.8</ele>
        <time>2020-06-17T09:34:40Z</time>
      </trkpt>
      <trkpt lat="49.31555" lon="-0.37324">
        <ele>11.9</ele>
        <time>2020-06-17T09:34:41Z</time>
      </trkpt>
      <trkpt lat="49.3155" lon="-0.37323">
        <ele>12</ele>
        <time>2020-06-17T09:34:42Z</time>
      </trkpt>
      <trkpt lat="49.31546" lon="-0.37321">
        <ele>12</ele>
        <time>2020-06-17T09:34:43Z</time>
      </trkpt>
      <trkpt lat="49.31542" lon="-0.3732">
        <ele>12.1</ele>
        <time>2020-06-17T09:34:44Z</time>
      </trkpt>
      <trkpt lat="49.31538" lon="-0.37318">
        <ele>12.2</ele>
        <time>2020-06-17T09:34:45Z</time>
      </trkpt>
      <trkpt lat="49.31533" lon="-0.37317">
        <ele>12.3</ele>
        <time>2020-06-17T09:34:46Z</time>
      </trkpt>
      <trkpt lat="49.31528" lon="-0.37315">
        <ele>12.4</ele>
        <time>2020-06-17T09:34:47Z</time>
      </trkpt>
      <trkpt lat="49.31523" lon="-0.37313">
        <ele>12.4</ele>
        <time>2020-06-17T09:34:48Z</time>
      </trkpt>
      <trkpt lat="49.31518" lon="-0.37312">
        <ele>12.5</ele>
        <time>2020-06-17T09:34:49Z</time>
      </trkpt>
      <trkpt lat="49.31513" lon="-0.3731">
        <ele>12.6</ele>
        <time>2020-06-17T09:34:50Z</time>
      </trkpt>
      <trkpt lat="49.31508" lon="-0.37309">
        <ele>12.7</ele>
        <time>2020-06-17T09:34:51Z</time>
      </trkpt>
      <trkpt lat="49.31503" lon="-0.37307">
        <ele>12.7</ele>
        <time>2020-06-17T09:34:52Z</time>
      </trkpt>
      <trkpt lat="49.31498" lon="-0.37306">
        <ele>12.8</ele>
        <time>2020-06-17T09:34:53Z</time>
      </trkpt>
      <trkpt lat="49.31494" lon="-0.37305">
        <ele>12.8</ele>
        <time>2020-06-17T09:34:54Z</time>
      </trkpt>
      <trkpt lat="49.31488" lon="-0.37304">
        <ele>12.9</ele>
        <time>2020-06-17T09:34:55Z</time>
      </trkpt>
      <trkpt lat="49.31483" lon="-0.37302">
        <ele>12.9</ele>
        <time>2020-06-17T09:34:56Z</time>
      </trkpt>
      <trkpt lat="49.31478" lon="-0.37301">
        <ele>13</ele>
        <time>2020-06-17T09:34:57Z</time>
      </trkpt>
      <trkpt lat="49.31474" lon="-0.37299">
        <ele>13.1</ele>
        <time>2020-06-17T09:34:58Z</time>
      </trkpt>
      <trkpt lat="49.31469" lon="-0.37298">
        <ele>13.2</ele>
        <time>2020-06-17T09:34:59Z</time>
      </trkpt>
      <trkpt lat="49.31464" lon="-0.37297">
        <ele>13.2</ele>
        <time>2020-06-17T09:35:00Z</time>
      </trkpt>
      <trkpt lat="49.31459" lon="-0.37295">
        <ele>13.3</ele>
        <time>2020-06-17T09:35:01Z</time>
      </trkpt>
      <trkpt lat="49.31454" lon="-0.37293">
        <ele>13.4</ele>
        <time>2020-06-17T09:35:02Z</time>
      </trkpt>
      <trkpt lat="49.31448" lon="-0.37292">
        <ele>13.5</ele>
        <time>2020-06-17T09:35:03Z</time>
      </trkpt>
      <trkpt lat="49.31443" lon="-0.3729">
        <ele>13.6</ele>
        <time>2020-06-17T09:35:04Z</time>
      </trkpt>
      <trkpt lat="49.31437" lon="-0.37289">
        <ele>13.7</ele>
        <time>2020-06-17T09:35:05Z</time>
      </trkpt>
      <trkpt lat="49.31432" lon="-0.37287">
        <ele>13.8</ele>
        <time>2020-06-17T09:35:06Z</time>
      </trkpt>
      <trkpt lat="49.31427" lon="-0.37285">
        <ele>13.9</ele>
        <time>2020-06-17T09:35:07Z</time>
      </trkpt>
      <trkpt lat="49.31422" lon="-0.37283">
        <ele>14</ele>
        <time>2020-06-17T09:35:08Z</time>
      </trkpt>
      <trkpt lat="49.31417" lon="-0.37282">
        <ele>14</ele>
        <time>2020-06-17T09:35:09Z</time>
      </trkpt>
      <trkpt lat="49.31412" lon="-0.3728">
        <ele>14.1</ele>
        <time>2020-06-17T09:35:10Z</time>
      </trkpt>
      <trkpt lat="49.31407" lon="-0.37278">
        <ele>14.1</ele>
        <time>2020-06-17T09:35:11Z</time>
      </trkpt>
      <trkpt lat="49.31402" lon="-0.37276">
        <ele>14.1</ele>
        <time>2020-06-17T09:35:12Z</time>
      </trkpt>
      <trkpt lat="49.31396" lon="-0.37274">
        <ele>14.2</ele>
        <time>2020-06-17T09:35:13Z</time>
      </trkpt>
      <trkpt lat="49.31391" lon="-0.37273">
        <ele>14.2</ele>
        <time>2020-06-17T09:35:14Z</time>
      </trkpt>
      <trkpt lat="49.31386" lon="-0.37272">
        <ele>14.3</ele>
        <time>2020-06-17T09:35:15Z</time>
      </trkpt>
      <trkpt lat="49.3138" lon="-0.37271">
        <ele>14.4</ele>
        <time>2020-06-17T09:35:16Z</time>
      </trkpt>
      <trkpt lat="49.31374" lon="-0.37269">
        <ele>14.5</ele>
        <time>2020-06-17T09:35:17Z</time>
      </trkpt>
      <trkpt lat="49.31368" lon="-0.37268">
        <ele>14.5</ele>
        <time>2020-06-17T09:35:18Z</time>
      </trkpt>
      <trkpt lat="49.31362" lon="-0.37267">
        <ele>14.6</ele>
        <time>2020-06-17T09:35:19Z</time>
      </trkpt>
      <trkpt lat="49.31356" lon="-0.37266">
        <ele>14.7</ele>
        <time>2020-06-17T09:35:20Z</time>
      </trkpt>
      <trkpt lat="49.3135" lon="-0.37264">
        <ele>14.8</ele>
        <time>2020-06-17T09:35:21Z</time>
      </trkpt>
      <trkpt lat="49.31344" lon="-0.37263">
        <ele>14.8</ele>
        <time>2020-06-17T09:35:22Z</time>
      </trkpt>
      <trkpt lat="49.31339" lon="-0.37261">
        <ele>14.9</ele>
        <time>2020-06-17T09:35:23Z</time>
      </trkpt>
      <trkpt lat="49.31333" lon="-0.37259">
        <ele>15</ele>
        <time>2020-06-17T09:35:24Z</time>
      </trkpt>
      <trkpt lat="49.31327" lon="-0.37258">
        <ele>15</ele>
        <time>2020-06-17T09:35:25Z</time>
      </trkpt>
      <trkpt lat="49.31322" lon="-0.37256">
        <ele>15.1</ele>
        <time>2020-06-17T09:35:26Z</time>
      </trkpt>
      <trkpt lat="49.31316" lon="-0.37254">
        <ele>15.2</ele>
        <time>2020-06-17T09:35:27Z</time>
      </trkpt>
      <trkpt lat="49.31311" lon="-0.37253">
        <ele>15.2</ele>
        <time>2020-06-17T09:35:28Z</time>
      </trkpt>
      <trkpt lat="49.31305" lon="-0.37251">
        <ele>15.3</ele>
        <time>2020-06-17T09:35:29Z</time>
      </trkpt>
      <trkpt lat="49.313" lon="-0.3725">
        <ele>15.4</ele>
        <time>2020-06-17T09:35:30Z</time>
      </trkpt>
      <trkpt lat="49.31295" lon="-0.37248">
        <ele>15.5</ele>
        <time>2020-06-17T09:35:31Z</time>
      </trkpt>
      <trkpt lat="49.3129" lon="-0.37247">
        <ele>15.6</ele>
        <time>2020-06-17T09:35:32Z</time>
      </trkpt>
      <trkpt lat="49.31285" lon="-0.37246">
        <ele>15.7</ele>
        <time>2020-06-17T09:35:33Z</time>
      </trkpt>
      <trkpt lat="49.3128" lon="-0.37244">
        <ele>15.8</ele>
        <time>2020-06-17T09:35:34Z</time>
      </trkpt>
      <trkpt lat="49.31275" lon="-0.37242">
        <ele>15.9</ele>
        <time>2020-06-17T09:35:35Z</time>
      </trkpt>
      <trkpt lat="49.3127" lon="-0.3724">
        <ele>16</ele>
        <time>2020-06-17T09:35:36Z</time>
      </trkpt>
      <trkpt lat="49.31265" lon="-0.37238">
        <ele>16.2</ele>
        <time>2020-06-17T09:35:37Z</time>
      </trkpt>
      <trkpt lat="49.3126" lon="-0.37237">
        <ele>16.3</ele>
        <time>2020-06-17T09:35:38Z</time>
      </trkpt>
      <trkpt lat="49.31254" lon="-0.37235">
        <ele>16.4</ele>
        <time>2020-06-17T09:35:39Z</time>
      </trkpt>
      <trkpt lat="49.31249" lon="-0.37234">
        <ele>16.5</ele>
        <time>2020-06-17T09:35:40Z</time>
      </trkpt>
      <trkpt lat="49.31243" lon="-0.37233">
        <ele>16.6</ele>
        <time>2020-06-17T09:35:41Z</time>
      </trkpt>
      <trkpt lat="49.31238" lon="-0.37232">
        <ele>16.7</ele>
        <time>2020-06-17T09:35:42Z</time>
      </trkpt>
      <trkpt lat="49.31232" lon="-0.37233">
        <ele>16.9</ele>
        <time>2020-06-17T09:35:43Z</time>
      </trkpt>
      <trkpt lat="49.31227" lon="-0.37234">
        <ele>17</ele>
        <time>2020-06-17T09:35:44Z</time>
      </trkpt>
      <trkpt lat="49.31222" lon="-0.37234">
        <ele>17.1</ele>
        <time>2020-06-17T09:35:45Z</time>
      </trkpt>
      <trkpt lat="49.31217" lon="-0.37235">
        <ele>17.3</ele>
        <time>2020-06-17T09:35:46Z</time>
      </trkpt>
      <trkpt lat="49.31212" lon="-0.37236">
        <ele>17.5</ele>
        <time>2020-06-17T09:35:47Z</time>
      </trkpt>
      <trkpt lat="49.31207" lon="-0.37237">
        <ele>17.6</ele>
        <time>2020-06-17T09:35:48Z</time>
      </trkpt>
      <trkpt lat="49.31202" lon="-0.37238">
        <ele>17.8</ele>
        <time>2020-06-17T09:35:49Z</time>
      </trkpt>
      <trkpt lat="49.31197" lon="-0.3724">
        <ele>17.9</ele>
        <time>2020-06-17T09:35:50Z</time>
      </trkpt>
      <trkpt lat="49.31192" lon="-0.37241">
        <ele>18.1</ele>
        <time>2020-06-17T09:35:51Z</time>
      </trkpt>
      <trkpt lat="49.31187" lon="-0.37243">
        <ele>18.3</ele>
        <time>2020-06-17T09:35:52Z</time>
      </trkpt>
      <trkpt lat="49.31182" lon="-0.37244">
        <ele>18.4</ele>
        <time>2020-06-17T09:35:53Z</time>
      </trkpt>
      <trkpt lat="49.31178" lon="-0.37246">
        <ele>18.6</ele>
        <time>2020-06-17T09:35:54Z</time>
      </trkpt>
      <trkpt lat="49.31173" lon="-0.37247">
        <ele>18.7</ele>
        <time>2020-06-17T09:35:55Z</time>
      </trkpt>
      <trkpt lat="49.31169" lon="-0.37248">
        <ele>18.8</ele>
        <time>2020-06-17T09:35:56Z</time>
      </trkpt>
      <trkpt lat="49.31164" lon="-0.3725">
        <ele>18.9</ele>
        <time>2020-06-17T09:35:57Z</time>
      </trkpt>
      <trkpt lat="49.3116" lon="-0.37252">
        <ele>19.1</ele>
        <time>2020-06-17T09:35:58Z</time>
      </trkpt>
      <trkpt lat="49.31155" lon="-0.37254">
        <ele>19.2</ele>
        <time>2020-06-17T09:35:59Z</time>
      </trkpt>
      <trkpt lat="49.31151" lon="-0.37256">
        <ele>19.3</ele>
        <time>2020-06-17T09:36:00Z</time>
      </trkpt>
      <trkpt lat="49.31146" lon="-0.37258">
        <ele>19.5</ele>
        <time>2020-06-17T09:36:01Z</time>
      </trkpt>
      <trkpt lat="49.31142" lon="-0.3726">
        <ele>19.6</ele>
        <time>2020-06-17T09:36:02Z</time>
      </trkpt>
      <trkpt lat="49.31137" lon="-0.37262">
        <ele>19.8</ele>
        <time>2020-06-17T09:36:03Z</time>
      </trkpt>
      <trkpt lat="49.31132" lon="-0.37264">
        <ele>19.9</ele>
        <time>2020-06-17T09:36:04Z</time>
      </trkpt>
      <trkpt lat="49.31127" lon="-0.37266">
        <ele>20.1</ele>
        <time>2020-06-17T09:36:05Z</time>
      </trkpt>
      <trkpt lat="49.31122" lon="-0.37268">
        <ele>20.2</ele>
        <time>2020-06-17T09:36:06Z</time>
      </trkpt>
      <trkpt lat="49.31117" lon="-0.3727">
        <ele>20.4</ele>
        <time>2020-06-17T09:36:07Z</time>
      </trkpt>
      <trkpt lat="49.31111" lon="-0.37272">
        <ele>20.5</ele>
        <time>2020-06-17T09:36:08Z</time>
      </trkpt>
      <trkpt lat="49.31106" lon="-0.37274">
        <ele>20.6</ele>
        <time>2020-06-17T09:36:09Z</time>
      </trkpt>
      <trkpt lat="49.31101" lon="-0.37276">
        <ele>20.8</ele>
        <time>2020-06-17T09:36:10Z</time>
      </trkpt>
      <trkpt lat="49.31096" lon="-0.37278">
        <ele>20.9</ele>
        <time>2020-06-17T09:36:11Z</time>
      </trkpt>
      <trkpt lat="49.31091" lon="-0.3728">
        <ele>21</ele>
        <time>2020-06-17T09:36:12Z</time>
      </trkpt>
      <trkpt lat="49.31086" lon="-0.37281">
        <ele>21.2</ele>
        <time>2020-06-17T09:36:13Z</time>
      </trkpt>
      <trkpt lat="49.31081" lon="-0.37284">
        <ele>21.3</ele>
        <time>2020-06-17T09:36:14Z</time>
      </trkpt>
      <trkpt lat="49.31075" lon="-0.37285">
        <ele>21.5</ele>
        <time>2020-06-17T09:36:15Z</time>
      </trkpt>
      <trkpt lat="49.3107" lon="-0.37287">
        <ele>21.6</ele>
        <time>2020-06-17T09:36:16Z</time>
      </trkpt>
      <trkpt lat="49.31065" lon="-0.37288">
        <ele>21.7</ele>
        <time>2020-06-17T09:36:17Z</time>
      </trkpt>
      <trkpt lat="49.31059" lon="-0.37289">
        <ele>21.8</ele>
        <time>2020-06-17T09:36:18Z</time>
      </trkpt>
      <trkpt lat="49.31054" lon="-0.3729">
        <ele>21.9</ele>
        <time>2020-06-17T09:36:19Z</time>
      </trkpt>
      <trkpt lat="49.31049" lon="-0.37291">
        <ele>22</ele>
        <time>2020-06-17T09:36:20Z</time>
      </trkpt>
      <trkpt lat="49.31044" lon="-0.37292">
        <ele>22.1</ele>
        <time>2020-06-17T09:36:21Z</time>
      </trkpt>
      <trkpt lat="49.31039" lon="-0.37294">
        <ele>22.2</ele>
        <time>2020-06-17T09:36:22Z</time>
      </trkpt>
      <trkpt lat="49.31035" lon="-0.37296">
        <ele>22.3</ele>
        <time>2020-06-17T09:36:23Z</time>
      </trkpt>
      <trkpt lat="49.31031" lon="-0.37298">
        <ele>22.4</ele>
        <time>2020-06-17T09:36:24Z</time>
      </trkpt>
      <trkpt lat="49.31026" lon="-0.37301">
        <ele>22.5</ele>
        <time>2020-06-17T09:36:25Z</time>
      </trkpt>
      <trkpt lat="49.31021" lon="-0.37303">
        <ele>22.6</ele>
        <time>2020-06-17T09:36:26Z</time>
      </trkpt>
      <trkpt lat="49.31016" lon="-0.37305">
        <ele>22.6</ele>
        <time>2020-06-17T09:36:27Z</time>
      </trkpt>
      <trkpt lat="49.31011" lon="-0.37306">
        <ele>22.7</ele>
        <time>2020-06-17T09:36:28Z</time>
      </trkpt>
      <trkpt lat="49.31007" lon="-0.37308">
        <ele>22.7</ele>
        <time>2020-06-17T09:36:29Z</time>
      </trkpt>
      <trkpt lat="49.31002" lon="-0.3731">
        <ele>22.8</ele>
        <time>2020-06-17T09:36:30Z</time>
      </trkpt>
      <trkpt lat="49.30997" lon="-0.37312">
        <ele>22.9</ele>
        <time>2020-06-17T09:36:31Z</time>
      </trkpt>
      <trkpt lat="49.30992" lon="-0.37314">
        <ele>22.9</ele>
        <time>2020-06-17T09:36:32Z</time>
      </trkpt>
      <trkpt lat="49.30987" lon="-0.37315">
        <ele>23</ele>
        <time>2020-06-17T09:36:33Z</time>
      </trkpt>
      <trkpt lat="49.30982" lon="-0.37317">
        <ele>23</ele>
        <time>2020-06-17T09:36:34Z</time>
      </trkpt>
      <trkpt lat="49.30977" lon="-0.37318">
        <ele>23.1</ele>
        <time>2020-06-17T09:36:35Z</time>
      </trkpt>
      <trkpt lat="49.30971" lon="-0.3732">
        <ele>23.1</ele>
        <time>2020-06-17T09:36:36Z</time>
      </trkpt>
      <trkpt lat="49.30965" lon="-0.37322">
        <ele>23.2</ele>
        <time>2020-06-17T09:36:37Z</time>
      </trkpt>
      <trkpt lat="49.30959" lon="-0.37323">
        <ele>23.3</ele>
        <time>2020-06-17T09:36:38Z</time>
      </trkpt>
      <trkpt lat="49.30954" lon="-0.37324">
        <ele>23.3</ele>
        <time>2020-06-17T09:36:39Z</time>
      </trkpt>
      <trkpt lat="49.30948" lon="-0.37326">
        <ele>23.4</ele>
        <time>2020-06-17T09:36:40Z</time>
      </trkpt>
      <trkpt lat="49.30943" lon="-0.37328">
        <ele>23.4</ele>
        <time>2020-06-17T09:36:41Z</time>
      </trkpt>
      <trkpt lat="49.30938" lon="-0.37331">
        <ele>23.5</ele>
        <time>2020-06-17T09:36:42Z</time>
      </trkpt>
      <trkpt lat="49.30932" lon="-0.37333">
        <ele>23.5</ele>
        <time>2020-06-17T09:36:43Z</time>
      </trkpt>
      <trkpt lat="49.30928" lon="-0.37336">
        <ele>23.5</ele>
        <time>2020-06-17T09:36:44Z</time>
      </trkpt>
      <trkpt lat="49.30922" lon="-0.37338">
        <ele>23.6</ele>
        <time>2020-06-17T09:36:45Z</time>
      </trkpt>
      <trkpt lat="49.30917" lon="-0.37341">
        <ele>23.6</ele>
        <time>2020-06-17T09:36:46Z</time>
      </trkpt>
      <trkpt lat="49.30911" lon="-0.37343">
        <ele>23.7</ele>
        <time>2020-06-17T09:36:47Z</time>
      </trkpt>
      <trkpt lat="49.30905" lon="-0.37345">
        <ele>23.7</ele>
        <time>2020-06-17T09:36:48Z</time>
      </trkpt>
      <trkpt lat="49.30899" lon="-0.37347">
        <ele>23.7</ele>
        <time>2020-06-17T09:36:49Z</time>
      </trkpt>
      <trkpt lat="49.30893" lon="-0.37348">
        <ele>23.6</ele>
        <time>2020-06-17T09:36:50Z</time>
      </trkpt>
      <trkpt lat="49.30887" lon="-0.37349">
        <ele>23.6</ele>
        <time>2020-06-17T09:36:51Z</time>
      </trkpt>
      <trkpt lat="49.30882" lon="-0.37352">
        <ele>23.6</ele>
        <time>2020-06-17T09:36:52Z</time>
      </trkpt>
      <trkpt lat="49.30876" lon="-0.37354">
        <ele>23.6</ele>
        <time>2020-06-17T09:36:53Z</time>
      </trkpt>
      <trkpt lat="49.3087" lon="-0.37356">
        <ele>23.6</ele>
        <time>2020-06-17T09:36:54Z</time>
      </trkpt>
      <trkpt lat="49.30865" lon="-0.37358">
        <ele>23.6</ele>
        <time>2020-06-17T09:36:55Z</time>
      </trkpt>
      <trkpt lat="49.30859" lon="-0.37359">
        <ele>23.6</ele>
        <time>2020-06-17T09:36:56Z</time>
      </trkpt>
      <trkpt lat="49.30855" lon="-0.37361">
        <ele>23.6</ele>
        <time>2020-06-17T09:36:57Z</time>
      </trkpt>
      <trkpt lat="49.3085" lon="-0.37363">
        <ele>23.6</ele>
        <time>2020-06-17T09:36:58Z</time>
      </trkpt>
      <trkpt lat="49.30844" lon="-0.37365">
        <ele>23.6</ele>
        <time>2020-06-17T09:36:59Z</time>
      </trkpt>
      <trkpt lat="49.30838" lon="-0.37367">
        <ele>23.6</ele>
        <time>2020-06-17T09:37:00Z</time>
      </trkpt>
      <trkpt lat="49.30833" lon="-0.37369">
        <ele>23.6</ele>
        <time>2020-06-17T09:37:01Z</time>
      </trkpt>
      <trkpt lat="49.30828" lon="-0.3737">
        <ele>23.6</ele>
        <time>2020-06-17T09:37:02Z</time>
      </trkpt>
      <trkpt lat="49.30822" lon="-0.37371">
        <ele>23.6</ele>
        <time>2020-06-17T09:37:03Z</time>
      </trkpt>
      <trkpt lat="49.30817" lon="-0.37373">
        <ele>23.6</ele>
        <time>2020-06-17T09:37:04Z</time>
      </trkpt>
      <trkpt lat="49.30812" lon="-0.37375">
        <ele>23.6</ele>
        <time>2020-06-17T09:37:05Z</time>
      </trkpt>
      <trkpt lat="49.30807" lon="-0.37376">
        <ele>23.6</ele>
        <time>2020-06-17T09:37:06Z</time>
      </trkpt>
      <trkpt lat="49.30801" lon="-0.37378">
        <ele>23.6</ele>
        <time>2020-06-17T09:37:07Z</time>
      </trkpt>
      <trkpt lat="49.30796" lon="-0.3738">
        <ele>23.6</ele>
        <time>2020-06-17T09:37:08Z</time>
      </trkpt>
      <trkpt lat="49.30791" lon="-0.37382">
        <ele>23.6</ele>
        <time>2020-06-17T09:37:09Z</time>
      </trkpt>
      <trkpt lat="49.30785" lon="-0.37384">
        <ele>23.6</ele>
        <time>2020-06-17T09:37:10Z</time>
      </trkpt>
      <trkpt lat="49.30781" lon="-0.37387">
        <ele>23.6</ele>
        <time>2020-06-17T09:37:11Z</time>
      </trkpt>
      <trkpt lat="49.30776" lon="-0.37389">
        <ele>23.6</ele>
        <time>2020-06-17T09:37:12Z</time>
      </trkpt>
      <trkpt lat="49.3077" lon="-0.37391">
        <ele>23.7</ele>
        <time>2020-06-17T09:37:13Z</time>
      </trkpt>
      <trkpt lat="49.30765" lon="-0.37392">
        <ele>23.7</ele>
        <time>2020-06-17T09:37:14Z</time>
      </trkpt>
      <trkpt lat="49.30759" lon="-0.37393">
        <ele>23.7</ele>
        <time>2020-06-17T09:37:15Z</time>
      </trkpt>
      <trkpt lat="49.30754" lon="-0.37394">
        <ele>23.7</ele>
        <time>2020-06-17T09:37:16Z</time>
      </trkpt>
      <trkpt lat="49.30748" lon="-0.37396">
        <ele>23.7</ele>
        <time>2020-06-17T09:37:17Z</time>
      </trkpt>
      <trkpt lat="49.30743" lon="-0.37397">
        <ele>23.7</ele>
        <time>2020-06-17T09:37:18Z</time>
      </trkpt>
      <trkpt lat="49.30738" lon="-0.37398">
        <ele>23.7</ele>
        <time>2020-06-17T09:37:19Z</time>
      </trkpt>
      <trkpt lat="49.30733" lon="-0.37399">
        <ele>23.7</ele>
        <time>2020-06-17T09:37:20Z</time>
      </trkpt>
      <trkpt lat="49.30729" lon="-0.37401">
        <ele>23.7</ele>
        <time>2020-06-17T09:37:21Z</time>
      </trkpt>
      <trkpt lat="49.30724" lon="-0.37403">
        <ele>23.7</ele>
        <time>2020-06-17T09:37:22Z</time>
      </trkpt>
      <trkpt lat="49.3072" lon="-0.37405">
        <ele>23.7</ele>
        <time>2020-06-17T09:37:23Z</time>
      </trkpt>
      <trkpt lat="49.30716" lon="-0.37407">
        <ele>23.7</ele>
        <time>2020-06-17T09:37:24Z</time>
      </trkpt>
      <trkpt lat="49.30712" lon="-0.37409">
        <ele>23.8</ele>
        <time>2020-06-17T09:37:25Z</time>
      </trkpt>
      <trkpt lat="49.30707" lon="-0.37411">
        <ele>23.8</ele>
        <time>2020-06-17T09:37:26Z</time>
      </trkpt>
      <trkpt lat="49.30702" lon="-0.37413">
        <ele>23.8</ele>
        <time>2020-06-17T09:37:27Z</time>
      </trkpt>
      <trkpt lat="49.30697" lon="-0.37414">
        <ele>23.8</ele>
        <time>2020-06-17T09:37:28Z</time>
      </trkpt>
      <trkpt lat="49.30692" lon="-0.37415">
        <ele>23.8</ele>
        <time>2020-06-17T09:37:29Z</time>
      </trkpt>
      <trkpt lat="49.30687" lon="-0.37416">
        <ele>23.8</ele>
        <time>2020-06-17T09:37:30Z</time>
      </trkpt>
      <trkpt lat="49.30682" lon="-0.37416">
        <ele>23.8</ele>
        <time>2020-06-17T09:37:31Z</time>
      </trkpt>
      <trkpt lat="49.30676" lon="-0.37417">
        <ele>23.8</ele>
        <time>2020-06-17T09:37:32Z</time>
      </trkpt>
      <trkpt lat="49.30671" lon="-0.37418">
        <ele>23.7</ele>
        <time>2020-06-17T09:37:33Z</time>
      </trkpt>
      <trkpt lat="49.30666" lon="-0.37419">
        <ele>23.7</ele>
        <time>2020-06-17T09:37:34Z</time>
      </trkpt>
      <trkpt lat="49.30662" lon="-0.3742">
        <ele>23.7</ele>
        <time>2020-06-17T09:37:35Z</time>
      </trkpt>
      <trkpt lat="49.30657" lon="-0.37421">
        <ele>23.7</ele>
        <time>2020-06-17T09:37:36Z</time>
      </trkpt>
      <trkpt lat="49.30653" lon="-0.37422">
        <ele>23.8</ele>
        <time>2020-06-17T09:37:37Z</time>
      </trkpt>
      <trkpt lat="49.30648" lon="-0.37422">
        <ele>23.8</ele>
        <time>2020-06-17T09:37:38Z</time>
      </trkpt>
      <trkpt lat="49.30643" lon="-0.37424">
        <ele>23.8</ele>
        <time>2020-06-17T09:37:39Z</time>
      </trkpt>
      <trkpt lat="49.30638" lon="-0.37426">
        <ele>23.8</ele>
        <time>2020-06-17T09:37:40Z</time>
      </trkpt>
      <trkpt lat="49.30634" lon="-0.37429">
        <ele>23.8</ele>
        <time>2020-06-17T09:37:41Z</time>
      </trkpt>
      <trkpt lat="49.30628" lon="-0.37431">
        <ele>23.9</ele>
        <time>2020-06-17T09:37:42Z</time>
      </trkpt>
      <trkpt lat="49.30623" lon="-0.37433">
        <ele>23.9</ele>
        <time>2020-06-17T09:37:43Z</time>
      </trkpt>
      <trkpt lat="49.30618" lon="-0.37436">
        <ele>23.9</ele>
        <time>2020-06-17T09:37:44Z</time>
      </trkpt>
      <trkpt lat="49.30612" lon="-0.37438">
        <ele>23.9</ele>
        <time>2020-06-17T09:37:45Z</time>
      </trkpt>
      <trkpt lat="49.30607" lon="-0.37439">
        <ele>23.9</ele>
        <time>2020-06-17T09:37:46Z</time>
      </trkpt>
      <trkpt lat="49.30602" lon="-0.37441">
        <ele>23.9</ele>
        <time>2020-06-17T09:37:47Z</time>
      </trkpt>
      <trkpt lat="49.30597" lon="-0.37443">
        <ele>23.9</ele>
        <time>2020-06-17T09:37:48Z</time>
      </trkpt>
      <trkpt lat="49.30592" lon="-0.37446">
        <ele>24</ele>
        <time>2020-06-17T09:37:49Z</time>
      </trkpt>
      <trkpt lat="49.30586" lon="-0.37447">
        <ele>23.9</ele>
        <time>2020-06-17T09:37:50Z</time>
      </trkpt>
      <trkpt lat="49.3058" lon="-0.37449">
        <ele>23.9</ele>
        <time>2020-06-17T09:37:51Z</time>
      </trkpt>
      <trkpt lat="49.30574" lon="-0.37451">
        <ele>23.9</ele>
        <time>2020-06-17T09:37:52Z</time>
      </trkpt>
      <trkpt lat="49.30569" lon="-0.37452">
        <ele>23.9</ele>
        <time>2020-06-17T09:37:53Z</time>
      </trkpt>
      <trkpt lat="49.30564" lon="-0.37454">
        <ele>23.9</ele>
        <time>2020-06-17T09:37:54Z</time>
      </trkpt>
      <trkpt lat="49.30558" lon="-0.37455">
        <ele>23.9</ele>
        <time>2020-06-17T09:37:55Z</time>
      </trkpt>
      <trkpt lat="49.30552" lon="-0.37457">
        <ele>23.9</ele>
        <time>2020-06-17T09:37:56Z</time>
      </trkpt>
      <trkpt lat="49.30547" lon="-0.37458">
        <ele>23.9</ele>
        <time>2020-06-17T09:37:57Z</time>
      </trkpt>
      <trkpt lat="49.30541" lon="-0.3746">
        <ele>24</ele>
        <time>2020-06-17T09:37:58Z</time>
      </trkpt>
      <trkpt lat="49.30536" lon="-0.37462">
        <ele>24</ele>
        <time>2020-06-17T09:37:59Z</time>
      </trkpt>
      <trkpt lat="49.3053" lon="-0.37464">
        <ele>24</ele>
        <time>2020-06-17T09:38:00Z</time>
      </trkpt>
      <trkpt lat="49.30524" lon="-0.37465">
        <ele>24.1</ele>
        <time>2020-06-17T09:38:01Z</time>
      </trkpt>
      <trkpt lat="49.30518" lon="-0.37467">
        <ele>24.1</ele>
        <time>2020-06-17T09:38:02Z</time>
      </trkpt>
      <trkpt lat="49.30512" lon="-0.37469">
        <ele>24.2</ele>
        <time>2020-06-17T09:38:03Z</time>
      </trkpt>
      <trkpt lat="49.30507" lon="-0.37471">
        <ele>24.2</ele>
        <time>2020-06-17T09:38:04Z</time>
      </trkpt>
      <trkpt lat="49.30502" lon="-0.37473">
        <ele>24.2</ele>
        <time>2020-06-17T09:38:05Z</time>
      </trkpt>
      <trkpt lat="49.30496" lon="-0.37476">
        <ele>24.3</ele>
        <time>2020-06-17T09:38:06Z</time>
      </trkpt>
      <trkpt lat="49.30491" lon="-0.37478">
        <ele>24.3</ele>
        <time>2020-06-17T09:38:07Z</time>
      </trkpt>
      <trkpt lat="49.30485" lon="-0.3748">
        <ele>24.3</ele>
        <time>2020-06-17T09:38:08Z</time>
      </trkpt>
      <trkpt lat="49.30478" lon="-0.37482">
        <ele>24.3</ele>
        <time>2020-06-17T09:38:09Z</time>
      </trkpt>
      <trkpt lat="49.30472" lon="-0.37485">
        <ele>24.4</ele>
        <time>2020-06-17T09:38:10Z</time>
      </trkpt>
      <trkpt lat="49.30465" lon="-0.37486">
        <ele>24.4</ele>
        <time>2020-06-17T09:38:11Z</time>
      </trkpt>
      <trkpt lat="49.3046" lon="-0.37488">
        <ele>24.5</ele>
        <time>2020-06-17T09:38:12Z</time>
      </trkpt>
      <trkpt lat="49.30455" lon="-0.3749">
        <ele>24.5</ele>
        <time>2020-06-17T09:38:13Z</time>
      </trkpt>
      <trkpt lat="49.3045" lon="-0.37492">
        <ele>24.5</ele>
        <time>2020-06-17T09:38:14Z</time>
      </trkpt>
      <trkpt lat="49.30445" lon="-0.37494">
        <ele>24.6</ele>
        <time>2020-06-17T09:38:15Z</time>
      </trkpt>
      <trkpt lat="49.3044" lon="-0.37496">
        <ele>24.6</ele>
        <time>2020-06-17T09:38:16Z</time>
      </trkpt>
      <trkpt lat="49.30436" lon="-0.37497">
        <ele>24.6</ele>
        <time>2020-06-17T09:38:17Z</time>
      </trkpt>
      <trkpt lat="49.30432" lon="-0.37499">
        <ele>24.6</ele>
        <time>2020-06-17T09:38:18Z</time>
      </trkpt>
      <trkpt lat="49.30426" lon="-0.375">
        <ele>24.7</ele>
        <time>2020-06-17T09:38:19Z</time>
      </trkpt>
      <trkpt lat="49.30422" lon="-0.37502">
        <ele>24.7</ele>
        <time>2020-06-17T09:38:20Z</time>
      </trkpt>
      <trkpt lat="49.30416" lon="-0.37503">
        <ele>24.7</ele>
        <time>2020-06-17T09:38:21Z</time>
      </trkpt>
      <trkpt lat="49.3041" lon="-0.37505">
        <ele>24.7</ele>
        <time>2020-06-17T09:38:22Z</time>
      </trkpt>
      <trkpt lat="49.30405" lon="-0.37506">
        <ele>24.7</ele>
        <time>2020-06-17T09:38:23Z</time>
      </trkpt>
      <trkpt lat="49.30399" lon="-0.37507">
        <ele>24.7</ele>
        <time>2020-06-17T09:38:24Z</time>
      </trkpt>
      <trkpt lat="49.30393" lon="-0.37509">
        <ele>24.7</ele>
        <time>2020-06-17T09:38:25Z</time>
      </trkpt>
      <trkpt lat="49.30387" lon="-0.3751">
        <ele>24.7</ele>
        <time>2020-06-17T09:38:26Z</time>
      </trkpt>
      <trkpt lat="49.30382" lon="-0.37512">
        <ele>24.7</ele>
        <time>2020-06-17T09:38:27Z</time>
      </trkpt>
      <trkpt lat="49.30377" lon="-0.37514">
        <ele>24.8</ele>
        <time>2020-06-17T09:38:28Z</time>
      </trkpt>
      <trkpt lat="49.30372" lon="-0.37515">
        <ele>24.9</ele>
        <time>2020-06-17T09:38:29Z</time>
      </trkpt>
      <trkpt lat="49.30367" lon="-0.37517">
        <ele>25</ele>
        <time>2020-06-17T09:38:30Z</time>
      </trkpt>
      <trkpt lat="49.30361" lon="-0.37519">
        <ele>25</ele>
        <time>2020-06-17T09:38:31Z</time>
      </trkpt>
      <trkpt lat="49.30355" lon="-0.3752">
        <ele>25.1</ele>
        <time>2020-06-17T09:38:32Z</time>
      </trkpt>
      <trkpt lat="49.3035" lon="-0.37521">
        <ele>25.1</ele>
        <time>2020-06-17T09:38:33Z</time>
      </trkpt>
      <trkpt lat="49.30344" lon="-0.37523">
        <ele>25.1</ele>
        <time>2020-06-17T09:38:34Z</time>
      </trkpt>
      <trkpt lat="49.30339" lon="-0.37524">
        <ele>25.1</ele>
        <time>2020-06-17T09:38:35Z</time>
      </trkpt>
      <trkpt lat="49.30334" lon="-0.37527">
        <ele>25.1</ele>
        <time>2020-06-17T09:38:36Z</time>
      </trkpt>
      <trkpt lat="49.30329" lon="-0.37529">
        <ele>25.1</ele>
        <time>2020-06-17T09:38:37Z</time>
      </trkpt>
      <trkpt lat="49.30324" lon="-0.37531">
        <ele>25.1</ele>
        <time>2020-06-17T09:38:38Z</time>
      </trkpt>
      <trkpt lat="49.3032" lon="-0.37533">
        <ele>25.2</ele>
        <time>2020-06-17T09:38:39Z</time>
      </trkpt>
      <trkpt lat="49.30315" lon="-0.37534">
        <ele>25.2</ele>
        <time>2020-06-17T09:38:40Z</time>
      </trkpt>
      <trkpt lat="49.30311" lon="-0.37536">
        <ele>25.2</ele>
        <time>2020-06-17T09:38:41Z</time>
      </trkpt>
      <trkpt lat="49.30307" lon="-0.37538">
        <ele>25.3</ele>
        <time>2020-06-17T09:38:42Z</time>
      </trkpt>
      <trkpt lat="49.30302" lon="-0.37538">
        <ele>25.3</ele>
        <time>2020-06-17T09:38:43Z</time>
      </trkpt>
      <trkpt lat="49.30298" lon="-0.3754">
        <ele>25.4</ele>
        <time>2020-06-17T09:38:44Z</time>
      </trkpt>
      <trkpt lat="49.30293" lon="-0.37542">
        <ele>25.5</ele>
        <time>2020-06-17T09:38:45Z</time>
      </trkpt>
      <trkpt lat="49.30289" lon="-0.37544">
        <ele>25.5</ele>
        <time>2020-06-17T09:38:46Z</time>
      </trkpt>
      <trkpt lat="49.30284" lon="-0.37547">
        <ele>25.5</ele>
        <time>2020-06-17T09:38:47Z</time>
      </trkpt>
      <trkpt lat="49.30278" lon="-0.3755">
        <ele>25.5</ele>
        <time>2020-06-17T09:38:48Z</time>
      </trkpt>
      <trkpt lat="49.30273" lon="-0.37554">
        <ele>25.6</ele>
        <time>2020-06-17T09:38:49Z</time>
      </trkpt>
      <trkpt lat="49.30268" lon="-0.37556">
        <ele>25.6</ele>
        <time>2020-06-17T09:38:50Z</time>
      </trkpt>
      <trkpt lat="49.30263" lon="-0.37559">
        <ele>25.7</ele>
        <time>2020-06-17T09:38:51Z</time>
      </trkpt>
      <trkpt lat="49.3026" lon="-0.37563">
        <ele>25.7</ele>
        <time>2020-06-17T09:38:52Z</time>
      </trkpt>
      <trkpt lat="49.30256" lon="-0.37566">
        <ele>25.7</ele>
        <time>2020-06-17T09:38:53Z</time>
      </trkpt>
      <trkpt lat="49.30253" lon="-0.37568">
        <ele>25.8</ele>
        <time>2020-06-17T09:38:54Z</time>
      </trkpt>
      <trkpt lat="49.30249" lon="-0.3757">
        <ele>25.8</ele>
        <time>2020-06-17T09:38:55Z</time>
      </trkpt>
      <trkpt lat="49.30246" lon="-0.37572">
        <ele>25.9</ele>
        <time>2020-06-17T09:38:56Z</time>
      </trkpt>
      <trkpt lat="49.30245" lon="-0.37573">
        <ele>25.9</ele>
        <time>2020-06-17T09:38:57Z</time>
      </trkpt>
      <trkpt lat="49.30244" lon="-0.37573">
        <ele>25.9</ele>
        <time>2020-06-17T09:38:58Z</time>
      </trkpt>
      <trkpt lat="49.30243" lon="-0.37574">
        <ele>25.9</ele>
        <time>2020-06-17T09:38:59Z</time>
      </trkpt>
      <trkpt lat="49.30242" lon="-0.37574">
        <ele>25.9</ele>
        <time>2020-06-17T09:39:00Z</time>
      </trkpt>
      <trkpt lat="49.30241" lon="-0.37575">
        <ele>25.9</ele>
        <time>2020-06-17T09:39:01Z</time>
      </trkpt>
      <trkpt lat="49.30239" lon="-0.37574">
        <ele>25.9</ele>
        <time>2020-06-17T09:39:02Z</time>
      </trkpt>
      <trkpt lat="49.30236" lon="-0.37573">
        <ele>26</ele>
        <time>2020-06-17T09:39:03Z</time>
      </trkpt>
      <trkpt lat="49.30235" lon="-0.37573">
        <ele>26</ele>
        <time>2020-06-17T09:39:04Z</time>
      </trkpt>
      <trkpt lat="49.30231" lon="-0.37571">
        <ele>26</ele>
        <time>2020-06-17T09:39:05Z</time>
      </trkpt>
      <trkpt lat="49.3023" lon="-0.37571">
        <ele>26.1</ele>
        <time>2020-06-17T09:39:06Z</time>
      </trkpt>
      <trkpt lat="49.30226" lon="-0.3757">
        <ele>26.1</ele>
        <time>2020-06-17T09:39:07Z</time>
      </trkpt>
      <trkpt lat="49.30222" lon="-0.37571">
        <ele>26.1</ele>
        <time>2020-06-17T09:39:08Z</time>
      </trkpt>
      <trkpt lat="49.30219" lon="-0.37572">
        <ele>26.1</ele>
        <time>2020-06-17T09:39:09Z</time>
      </trkpt>
      <trkpt lat="49.30214" lon="-0.37574">
        <ele>26.2</ele>
        <time>2020-06-17T09:39:10Z</time>
      </trkpt>
      <trkpt lat="49.3021" lon="-0.37577">
        <ele>26.2</ele>
        <time>2020-06-17T09:39:11Z</time>
      </trkpt>
      <trkpt lat="49.30204" lon="-0.37579">
        <ele>26.3</ele>
        <time>2020-06-17T09:39:12Z</time>
      </trkpt>
      <trkpt lat="49.302" lon="-0.37581">
        <ele>26.3</ele>
        <time>2020-06-17T09:39:13Z</time>
      </trkpt>
      <trkpt lat="49.30196" lon="-0.37582">
        <ele>26.3</ele>
        <time>2020-06-17T09:39:14Z</time>
      </trkpt>
      <trkpt lat="49.30191" lon="-0.37585">
        <ele>26.4</ele>
        <time>2020-06-17T09:39:15Z</time>
      </trkpt>
      <trkpt lat="49.30186" lon="-0.37586">
        <ele>26.5</ele>
        <time>2020-06-17T09:39:16Z</time>
      </trkpt>
      <trkpt lat="49.30181" lon="-0.37587">
        <ele>26.5</ele>
        <time>2020-06-17T09:39:17Z</time>
      </trkpt>
      <trkpt lat="49.30177" lon="-0.37588">
        <ele>26.6</ele>
        <time>2020-06-17T09:39:18Z</time>
      </trkpt>
      <trkpt lat="49.30172" lon="-0.3759">
        <ele>26.7</ele>
        <time>2020-06-17T09:39:19Z</time>
      </trkpt>
      <trkpt lat="49.30168" lon="-0.37592">
        <ele>26.8</ele>
        <time>2020-06-17T09:39:20Z</time>
      </trkpt>
      <trkpt lat="49.30165" lon="-0.37595">
        <ele>26.9</ele>
        <time>2020-06-17T09:39:21Z</time>
      </trkpt>
      <trkpt lat="49.30163" lon="-0.37598">
        <ele>27</ele>
        <time>2020-06-17T09:39:22Z</time>
      </trkpt>
      <trkpt lat="49.3016" lon="-0.37601">
        <ele>27</ele>
        <time>2020-06-17T09:39:23Z</time>
      </trkpt>
      <trkpt lat="49.30159" lon="-0.37602">
        <ele>27.1</ele>
        <time>2020-06-17T09:39:24Z</time>
      </trkpt>
      <trkpt lat="49.30156" lon="-0.37604">
        <ele>27.1</ele>
        <time>2020-06-17T09:39:25Z</time>
      </trkpt>
      <trkpt lat="49.30155" lon="-0.37604">
        <ele>27.1</ele>
        <time>2020-06-17T09:39:26Z</time>
      </trkpt>
      <trkpt lat="49.30152" lon="-0.37603">
        <ele>27.2</ele>
        <time>2020-06-17T09:39:27Z</time>
      </trkpt>
      <trkpt lat="49.30149" lon="-0.376">
        <ele>27.2</ele>
        <time>2020-06-17T09:39:28Z</time>
      </trkpt>
      <trkpt lat="49.30148" lon="-0.37598">
        <ele>27.2</ele>
        <time>2020-06-17T09:39:29Z</time>
      </trkpt>
      <trkpt lat="49.30145" lon="-0.37594">
        <ele>27.2</ele>
        <time>2020-06-17T09:39:30Z</time>
      </trkpt>
      <trkpt lat="49.30144" lon="-0.37589">
        <ele>27.2</ele>
        <time>2020-06-17T09:39:31Z</time>
      </trkpt>
      <trkpt lat="49.30142" lon="-0.37583">
        <ele>27</ele>
        <time>2020-06-17T09:39:32Z</time>
      </trkpt>
      <trkpt lat="49.30142" lon="-0.37581">
        <ele>27</ele>
        <time>2020-06-17T09:39:33Z</time>
      </trkpt>
      <trkpt lat="49.30141" lon="-0.37576">
        <ele>26.9</ele>
        <time>2020-06-17T09:39:34Z</time>
      </trkpt>
      <trkpt lat="49.3014" lon="-0.37574">
        <ele>26.9</ele>
        <time>2020-06-17T09:39:35Z</time>
      </trkpt>
      <trkpt lat="49.30139" lon="-0.3757">
        <ele>26.9</ele>
        <time>2020-06-17T09:39:36Z</time>
      </trkpt>
      <trkpt lat="49.30138" lon="-0.37566">
        <ele>26.9</ele>
        <time>2020-06-17T09:39:37Z</time>
      </trkpt>
      <trkpt lat="49.30136" lon="-0.37562">
        <ele>26.9</ele>
        <time>2020-06-17T09:39:38Z</time>
      </trkpt>
      <trkpt lat="49.30135" lon="-0.37561">
        <ele>26.9</ele>
        <time>2020-06-17T09:39:39Z</time>
      </trkpt>
      <trkpt lat="49.30133" lon="-0.37557">
        <ele>26.9</ele>
        <time>2020-06-17T09:39:40Z</time>
      </trkpt>
      <trkpt lat="49.30132" lon="-0.37555">
        <ele>26.9</ele>
        <time>2020-06-17T09:39:41Z</time>
      </trkpt>
      <trkpt lat="49.3013" lon="-0.37552">
        <ele>26.9</ele>
        <time>2020-06-17T09:39:42Z</time>
      </trkpt>
      <trkpt lat="49.30128" lon="-0.37549">
        <ele>26.9</ele>
        <time>2020-06-17T09:39:43Z</time>
      </trkpt>
      <trkpt lat="49.30125" lon="-0.37545">
        <ele>26.8</ele>
        <time>2020-06-17T09:39:44Z</time>
      </trkpt>
      <trkpt lat="49.30122" lon="-0.37541">
        <ele>26.8</ele>
        <time>2020-06-17T09:39:45Z</time>
      </trkpt>
      <trkpt lat="49.3012" lon="-0.37537">
        <ele>26.8</ele>
        <time>2020-06-17T09:39:46Z</time>
      </trkpt>
      <trkpt lat="49.30117" lon="-0.37533">
        <ele>26.8</ele>
        <time>2020-06-17T09:39:47Z</time>
      </trkpt>
      <trkpt lat="49.30114" lon="-0.37529">
        <ele>26.8</ele>
        <time>2020-06-17T09:39:48Z</time>
      </trkpt>
      <trkpt lat="49.30112" lon="-0.37525">
        <ele>26.7</ele>
        <time>2020-06-17T09:39:49Z</time>
      </trkpt>
      <trkpt lat="49.30109" lon="-0.37522">
        <ele>26.7</ele>
        <time>2020-06-17T09:39:50Z</time>
      </trkpt>
      <trkpt lat="49.30107" lon="-0.37518">
        <ele>26.7</ele>
        <time>2020-06-17T09:39:51Z</time>
      </trkpt>
      <trkpt lat="49.30104" lon="-0.37515">
        <ele>26.7</ele>
        <time>2020-06-17T09:39:52Z</time>
      </trkpt>
      <trkpt lat="49.30101" lon="-0.37512">
        <ele>26.7</ele>
        <time>2020-06-17T09:39:53Z</time>
      </trkpt>
      <trkpt lat="49.30099" lon="-0.37509">
        <ele>26.6</ele>
        <time>2020-06-17T09:39:54Z</time>
      </trkpt>
      <trkpt lat="49.30096" lon="-0.37506">
        <ele>26.6</ele>
        <time>2020-06-17T09:39:55Z</time>
      </trkpt>
      <trkpt lat="49.30093" lon="-0.37502">
        <ele>26.6</ele>
        <time>2020-06-17T09:39:56Z</time>
      </trkpt>
      <trkpt lat="49.3009" lon="-0.375">
        <ele>26.6</ele>
        <time>2020-06-17T09:39:57Z</time>
      </trkpt>
      <trkpt lat="49.30088" lon="-0.37497">
        <ele>26.5</ele>
        <time>2020-06-17T09:39:58Z</time>
      </trkpt>
      <trkpt lat="49.30085" lon="-0.37493">
        <ele>26.5</ele>
        <time>2020-06-17T09:39:59Z</time>
      </trkpt>
      <trkpt lat="49.30084" lon="-0.37489">
        <ele>26.5</ele>
        <time>2020-06-17T09:40:00Z</time>
      </trkpt>
      <trkpt lat="49.30082" lon="-0.37485">
        <ele>26.5</ele>
        <time>2020-06-17T09:40:01Z</time>
      </trkpt>
      <trkpt lat="49.30079" lon="-0.3748">
        <ele>26.4</ele>
        <time>2020-06-17T09:40:02Z</time>
      </trkpt>
      <trkpt lat="49.30076" lon="-0.37476">
        <ele>26.4</ele>
        <time>2020-06-17T09:40:03Z</time>
      </trkpt>
      <trkpt lat="49.30073" lon="-0.37471">
        <ele>26.3</ele>
        <time>2020-06-17T09:40:04Z</time>
      </trkpt>
      <trkpt lat="49.3007" lon="-0.37466">
        <ele>26.3</ele>
        <time>2020-06-17T09:40:05Z</time>
      </trkpt>
      <trkpt lat="49.30067" lon="-0.37461">
        <ele>26.2</ele>
        <time>2020-06-17T09:40:06Z</time>
      </trkpt>
      <trkpt lat="49.30063" lon="-0.37454">
        <ele>26.1</ele>
        <time>2020-06-17T09:40:07Z</time>
      </trkpt>
      <trkpt lat="49.30059" lon="-0.37448">
        <ele>26</ele>
        <time>2020-06-17T09:40:08Z</time>
      </trkpt>
      <trkpt lat="49.30055" lon="-0.37444">
        <ele>26</ele>
        <time>2020-06-17T09:40:09Z</time>
      </trkpt>
      <trkpt lat="49.30051" lon="-0.37439">
        <ele>25.9</ele>
        <time>2020-06-17T09:40:10Z</time>
      </trkpt>
      <trkpt lat="49.30048" lon="-0.37436">
        <ele>25.8</ele>
        <time>2020-06-17T09:40:11Z</time>
      </trkpt>
      <trkpt lat="49.30045" lon="-0.37433">
        <ele>25.8</ele>
        <time>2020-06-17T09:40:12Z</time>
      </trkpt>
      <trkpt lat="49.30042" lon="-0.3743">
        <ele>25.8</ele>
        <time>2020-06-17T09:40:13Z</time>
      </trkpt>
      <trkpt lat="49.3004" lon="-0.37427">
        <ele>25.7</ele>
        <time>2020-06-17T09:40:14Z</time>
      </trkpt>
      <trkpt lat="49.30037" lon="-0.37424">
        <ele>25.7</ele>
        <time>2020-06-17T09:40:15Z</time>
      </trkpt>
      <trkpt lat="49.30036" lon="-0.3742">
        <ele>26.1</ele>
        <time>2020-06-17T09:40:16Z</time>
      </trkpt>
      <trkpt lat="49.30035" lon="-0.37416">
        <ele>26.1</ele>
        <time>2020-06-17T09:40:17Z</time>
      </trkpt>
      <trkpt lat="49.30036" lon="-0.37411">
        <ele>26.2</ele>
        <time>2020-06-17T09:40:18Z</time>
      </trkpt>
      <trkpt lat="49.30036" lon="-0.37405">
        <ele>26.2</ele>
        <time>2020-06-17T09:40:19Z</time>
      </trkpt>
      <trkpt lat="49.30035" lon="-0.374">
        <ele>26.2</ele>
        <time>2020-06-17T09:40:20Z</time>
      </trkpt>
      <trkpt lat="49.30032" lon="-0.37394">
        <ele>25.4</ele>
        <time>2020-06-17T09:40:21Z</time>
      </trkpt>
      <trkpt lat="49.3003" lon="-0.3739">
        <ele>25.4</ele>
        <time>2020-06-17T09:40:22Z</time>
      </trkpt>
      <trkpt lat="49.30026" lon="-0.37385">
        <ele>25.3</ele>
        <time>2020-06-17T09:40:23Z</time>
      </trkpt>
      <trkpt lat="49.30022" lon="-0.37381">
        <ele>25.2</ele>
        <time>2020-06-17T09:40:24Z</time>
      </trkpt>
      <trkpt lat="49.30018" lon="-0.37377">
        <ele>25.2</ele>
        <time>2020-06-17T09:40:25Z</time>
      </trkpt>
      <trkpt lat="49.30013" lon="-0.37372">
        <ele>25.1</ele>
        <time>2020-06-17T09:40:26Z</time>
      </trkpt>
      <trkpt lat="49.30008" lon="-0.37368">
        <ele>25</ele>
        <time>2020-06-17T09:40:27Z</time>
      </trkpt>
      <trkpt lat="49.30004" lon="-0.37364">
        <ele>24.9</ele>
        <time>2020-06-17T09:40:28Z</time>
      </trkpt>
      <trkpt lat="49.30001" lon="-0.3736">
        <ele>24.8</ele>
        <time>2020-06-17T09:40:29Z</time>
      </trkpt>
      <trkpt lat="49.29998" lon="-0.37354">
        <ele>24.7</ele>
        <time>2020-06-17T09:40:30Z</time>
      </trkpt>
      <trkpt lat="49.29995" lon="-0.3735">
        <ele>24.7</ele>
        <time>2020-06-17T09:40:31Z</time>
      </trkpt>
      <trkpt lat="49.2999" lon="-0.37343">
        <ele>24.5</ele>
        <time>2020-06-17T09:40:32Z</time>
      </trkpt>
      <trkpt lat="49.29986" lon="-0.37337">
        <ele>24.4</ele>
        <time>2020-06-17T09:40:33Z</time>
      </trkpt>
      <trkpt lat="49.29982" lon="-0.37331">
        <ele>24.3</ele>
        <time>2020-06-17T09:40:34Z</time>
      </trkpt>
      <trkpt lat="49.29978" lon="-0.37326">
        <ele>24.2</ele>
        <time>2020-06-17T09:40:35Z</time>
      </trkpt>
      <trkpt lat="49.29973" lon="-0.37322">
        <ele>24.1</ele>
        <time>2020-06-17T09:40:36Z</time>
      </trkpt>
      <trkpt lat="49.29968" lon="-0.37318">
        <ele>24</ele>
        <time>2020-06-17T09:40:37Z</time>
      </trkpt>
      <trkpt lat="49.29964" lon="-0.37313">
        <ele>24</ele>
        <time>2020-06-17T09:40:38Z</time>
      </trkpt>
      <trkpt lat="49.2996" lon="-0.37309">
        <ele>23.9</ele>
        <time>2020-06-17T09:40:39Z</time>
      </trkpt>
      <trkpt lat="49.29956" lon="-0.37306">
        <ele>23.9</ele>
        <time>2020-06-17T09:40:40Z</time>
      </trkpt>
      <trkpt lat="49.29953" lon="-0.37303">
        <ele>23.8</ele>
        <time>2020-06-17T09:40:41Z</time>
      </trkpt>
      <trkpt lat="49.29949" lon="-0.37299">
        <ele>23.8</ele>
        <time>2020-06-17T09:40:42Z</time>
      </trkpt>
      <trkpt lat="49.29943" lon="-0.37295">
        <ele>23.8</ele>
        <time>2020-06-17T09:40:43Z</time>
      </trkpt>
      <trkpt lat="49.29941" lon="-0.37294">
        <ele>23.6</ele>
        <time>2020-06-17T09:40:44Z</time>
      </trkpt>
      <trkpt lat="49.29936" lon="-0.37288">
        <ele>23.4</ele>
        <time>2020-06-17T09:40:45Z</time>
      </trkpt>
      <trkpt lat="49.29933" lon="-0.37285">
        <ele>23.4</ele>
        <time>2020-06-17T09:40:46Z</time>
      </trkpt>
      <trkpt lat="49.29931" lon="-0.37282">
        <ele>23.3</ele>
        <time>2020-06-17T09:40:47Z</time>
      </trkpt>
      <trkpt lat="49.29928" lon="-0.37279">
        <ele>23.2</ele>
        <time>2020-06-17T09:40:48Z</time>
      </trkpt>
      <trkpt lat="49.29926" lon="-0.37276">
        <ele>23.1</ele>
        <time>2020-06-17T09:40:49Z</time>
      </trkpt>
      <trkpt lat="49.29923" lon="-0.37273">
        <ele>23.1</ele>
        <time>2020-06-17T09:40:50Z</time>
      </trkpt>
      <trkpt lat="49.2992" lon="-0.3727">
        <ele>23</ele>
        <time>2020-06-17T09:40:51Z</time>
      </trkpt>
      <trkpt lat="49.29918" lon="-0.37267">
        <ele>22.9</ele>
        <time>2020-06-17T09:40:52Z</time>
      </trkpt>
      <trkpt lat="49.29915" lon="-0.37264">
        <ele>22.9</ele>
        <time>2020-06-17T09:40:53Z</time>
      </trkpt>
      <trkpt lat="49.29913" lon="-0.37261">
        <ele>22.8</ele>
        <time>2020-06-17T09:40:54Z</time>
      </trkpt>
      <trkpt lat="49.2991" lon="-0.37256">
        <ele>22.7</ele>
        <time>2020-06-17T09:40:55Z</time>
      </trkpt>
      <trkpt lat="49.2991" lon="-0.37255">
        <ele>22.7</ele>
        <time>2020-06-17T09:40:56Z</time>
      </trkpt>
      <trkpt lat="49.29911" lon="-0.37257">
        <ele>22.7</ele>
        <time>2020-06-17T09:40:57Z</time>
      </trkpt>
      <trkpt lat="49.29911" lon="-0.37258">
        <ele>22.6</ele>
        <time>2020-06-17T09:40:58Z</time>
      </trkpt>
      <trkpt lat="49.2991" lon="-0.37256">
        <ele>22.6</ele>
        <time>2020-06-17T09:40:59Z</time>
      </trkpt>
      <trkpt lat="49.29909" lon="-0.37255">
        <ele>22.6</ele>
        <time>2020-06-17T09:41:00Z</time>
      </trkpt>
      <trkpt lat="49.29909" lon="-0.37253">
        <ele>22.5</ele>
        <time>2020-06-17T09:41:01Z</time>
      </trkpt>
      <trkpt lat="49.29907" lon="-0.37249">
        <ele>22.5</ele>
        <time>2020-06-17T09:41:02Z</time>
      </trkpt>
      <trkpt lat="49.29907" lon="-0.37248">
        <ele>22.4</ele>
        <time>2020-06-17T09:41:03Z</time>
      </trkpt>
      <trkpt lat="49.29906" lon="-0.37244">
        <ele>22.4</ele>
        <time>2020-06-17T09:41:04Z</time>
      </trkpt>
      <trkpt lat="49.29906" lon="-0.37242">
        <ele>22.3</ele>
        <time>2020-06-17T09:41:05Z</time>
      </trkpt>
      <trkpt lat="49.29905" lon="-0.3724">
        <ele>22.3</ele>
        <time>2020-06-17T09:41:06Z</time>
      </trkpt>
      <trkpt lat="49.29901" lon="-0.37236">
        <ele>22.2</ele>
        <time>2020-06-17T09:41:07Z</time>
      </trkpt>
      <trkpt lat="49.29899" lon="-0.37235">
        <ele>22.1</ele>
        <time>2020-06-17T09:41:08Z</time>
      </trkpt>
      <trkpt lat="49.29895" lon="-0.37232">
        <ele>22</ele>
        <time>2020-06-17T09:41:09Z</time>
      </trkpt>
      <trkpt lat="49.29892" lon="-0.37229">
        <ele>21.9</ele>
        <time>2020-06-17T09:41:10Z</time>
      </trkpt>
      <trkpt lat="49.29889" lon="-0.37227">
        <ele>21.9</ele>
        <time>2020-06-17T09:41:11Z</time>
      </trkpt>
      <trkpt lat="49.29886" lon="-0.37224">
        <ele>21.8</ele>
        <time>2020-06-17T09:41:12Z</time>
      </trkpt>
      <trkpt lat="49.29883" lon="-0.37222">
        <ele>21.7</ele>
        <time>2020-06-17T09:41:13Z</time>
      </trkpt>
      <trkpt lat="49.29879" lon="-0.37221">
        <ele>21.7</ele>
        <time>2020-06-17T09:41:14Z</time>
      </trkpt>
      <trkpt lat="49.29878" lon="-0.37221">
        <ele>21.7</ele>
        <time>2020-06-17T09:41:15Z</time>
      </trkpt>
      <trkpt lat="49.29877" lon="-0.37221">
        <ele>21.6</ele>
        <time>2020-06-17T09:41:16Z</time>
      </trkpt>
      <trkpt lat="49.29876" lon="-0.37221">
        <ele>21.6</ele>
        <time>2020-06-17T09:41:17Z</time>
      </trkpt>
      <trkpt lat="49.29876" lon="-0.37221">
        <ele>21.6</ele>
        <time>2020-06-17T09:41:18Z</time>
      </trkpt>
      <trkpt lat="49.29875" lon="-0.3722">
        <ele>21.3</ele>
        <time>2020-06-17T09:41:19Z</time>
      </trkpt>
      <trkpt lat="49.29873" lon="-0.3722">
        <ele>21.3</ele>
        <time>2020-06-17T09:41:20Z</time>
      </trkpt>
      <trkpt lat="49.2987" lon="-0.37218">
        <ele>21.1</ele>
        <time>2020-06-17T09:41:21Z</time>
      </trkpt>
      <trkpt lat="49.29869" lon="-0.37217">
        <ele>21.1</ele>
        <time>2020-06-17T09:41:22Z</time>
      </trkpt>
      <trkpt lat="49.29866" lon="-0.37216">
        <ele>21</ele>
        <time>2020-06-17T09:41:23Z</time>
      </trkpt>
      <trkpt lat="49.29863" lon="-0.37214">
        <ele>20.8</ele>
        <time>2020-06-17T09:41:24Z</time>
      </trkpt>
      <trkpt lat="49.29859" lon="-0.37209">
        <ele>20.6</ele>
        <time>2020-06-17T09:41:25Z</time>
      </trkpt>
      <trkpt lat="49.29856" lon="-0.37202">
        <ele>20.4</ele>
        <time>2020-06-17T09:41:26Z</time>
      </trkpt>
      <trkpt lat="49.29852" lon="-0.37195">
        <ele>20.2</ele>
        <time>2020-06-17T09:41:27Z</time>
      </trkpt>
      <trkpt lat="49.29848" lon="-0.37188">
        <ele>19.8</ele>
        <time>2020-06-17T09:41:28Z</time>
      </trkpt>
      <trkpt lat="49.29845" lon="-0.37181">
        <ele>19.7</ele>
        <time>2020-06-17T09:41:29Z</time>
      </trkpt>
      <trkpt lat="49.2984" lon="-0.37174">
        <ele>19.5</ele>
        <time>2020-06-17T09:41:30Z</time>
      </trkpt>
      <trkpt lat="49.29837" lon="-0.37168">
        <ele>19.4</ele>
        <time>2020-06-17T09:41:31Z</time>
      </trkpt>
      <trkpt lat="49.29834" lon="-0.37161">
        <ele>19.3</ele>
        <time>2020-06-17T09:41:32Z</time>
      </trkpt>
      <trkpt lat="49.29831" lon="-0.37155">
        <ele>19.3</ele>
        <time>2020-06-17T09:41:33Z</time>
      </trkpt>
      <trkpt lat="49.29829" lon="-0.37148">
        <ele>19.2</ele>
        <time>2020-06-17T09:41:34Z</time>
      </trkpt>
      <trkpt lat="49.29826" lon="-0.37142">
        <ele>19.1</ele>
        <time>2020-06-17T09:41:35Z</time>
      </trkpt>
      <trkpt lat="49.29823" lon="-0.37138">
        <ele>19</ele>
        <time>2020-06-17T09:41:36Z</time>
      </trkpt>
      <trkpt lat="49.29821" lon="-0.37136">
        <ele>19</ele>
        <time>2020-06-17T09:41:37Z</time>
      </trkpt>
      <trkpt lat="49.2982" lon="-0.37134">
        <ele>19</ele>
        <time>2020-06-17T09:41:38Z</time>
      </trkpt>
      <trkpt lat="49.29819" lon="-0.37133">
        <ele>18.9</ele>
        <time>2020-06-17T09:41:39Z</time>
      </trkpt>
      <trkpt lat="49.29818" lon="-0.37131">
        <ele>18.9</ele>
        <time>2020-06-17T09:41:40Z</time>
      </trkpt>
      <trkpt lat="49.29817" lon="-0.37131">
        <ele>18.9</ele>
        <time>2020-06-17T09:41:41Z</time>
      </trkpt>
      <trkpt lat="49.29817" lon="-0.37131">
        <ele>18.9</ele>
        <time>2020-06-17T09:41:42Z</time>
      </trkpt>
      <trkpt lat="49.29816" lon="-0.3713">
        <ele>18.9</ele>
        <time>2020-06-17T09:41:43Z</time>
      </trkpt>
      <trkpt lat="49.29816" lon="-0.3713">
        <ele>18.9</ele>
        <time>2020-06-17T09:41:44Z</time>
      </trkpt>
      <trkpt lat="49.29815" lon="-0.37129">
        <ele>18.9</ele>
        <time>2020-06-17T09:41:45Z</time>
      </trkpt>
      <trkpt lat="49.29814" lon="-0.37128">
        <ele>18.9</ele>
        <time>2020-06-17T09:41:46Z</time>
      </trkpt>
      <trkpt lat="49.29813" lon="-0.37126">
        <ele>18.9</ele>
        <time>2020-06-17T09:41:47Z</time>
      </trkpt>
      <trkpt lat="49.29813" lon="-0.37126">
        <ele>18.9</ele>
        <time>2020-06-17T09:41:48Z</time>
      </trkpt>
      <trkpt lat="49.29812" lon="-0.37124">
        <ele>18.9</ele>
        <time>2020-06-17T09:41:49Z</time>
      </trkpt>
      <trkpt lat="49.29811" lon="-0.37123">
        <ele>18.9</ele>
        <time>2020-06-17T09:41:50Z</time>
      </trkpt>
      <trkpt lat="49.2981" lon="-0.37122">
        <ele>18.9</ele>
        <time>2020-06-17T09:41:51Z</time>
      </trkpt>
      <trkpt lat="49.29809" lon="-0.37121">
        <ele>18.9</ele>
        <time>2020-06-17T09:41:52Z</time>
      </trkpt>
      <trkpt lat="49.29808" lon="-0.37121">
        <ele>18.9</ele>
        <time>2020-06-17T09:41:53Z</time>
      </trkpt>
      <trkpt lat="49.29807" lon="-0.37121">
        <ele>18.9</ele>
        <time>2020-06-17T09:41:54Z</time>
      </trkpt>
      <trkpt lat="49.29807" lon="-0.3712">
        <ele>18.9</ele>
        <time>2020-06-17T09:41:55Z</time>
      </trkpt>
      <trkpt lat="49.29806" lon="-0.3712">
        <ele>18.9</ele>
        <time>2020-06-17T09:41:56Z</time>
      </trkpt>
      <trkpt lat="49.29806" lon="-0.37119">
        <ele>18.9</ele>
        <time>2020-06-17T09:41:57Z</time>
      </trkpt>
      <trkpt lat="49.29802" lon="-0.37113">
        <ele>18.9</ele>
        <time>2020-06-17T09:42:10Z</time>
      </trkpt>
      <trkpt lat="49.29802" lon="-0.37111">
        <ele>18.9</ele>
        <time>2020-06-17T09:42:11Z</time>
      </trkpt>
      <trkpt lat="49.29801" lon="-0.37106">
        <ele>18.9</ele>
        <time>2020-06-17T09:42:12Z</time>
      </trkpt>
      <trkpt lat="49.298" lon="-0.37105">
        <ele>18.9</ele>
        <time>2020-06-17T09:42:13Z</time>
      </trkpt>
      <trkpt lat="49.29798" lon="-0.37099">
        <ele>18.9</ele>
        <time>2020-06-17T09:42:14Z</time>
      </trkpt>
      <trkpt lat="49.29797" lon="-0.37097">
        <ele>18.9</ele>
        <time>2020-06-17T09:42:15Z</time>
      </trkpt>
      <trkpt lat="49.29794" lon="-0.37094">
        <ele>18.9</ele>
        <time>2020-06-17T09:42:16Z</time>
      </trkpt>
      <trkpt lat="49.29791" lon="-0.3709">
        <ele>18.9</ele>
        <time>2020-06-17T09:42:17Z</time>
      </trkpt>
      <trkpt lat="49.29787" lon="-0.37086">
        <ele>18.9</ele>
        <time>2020-06-17T09:42:18Z</time>
      </trkpt>
      <trkpt lat="49.29783" lon="-0.37083">
        <ele>18.9</ele>
        <time>2020-06-17T09:42:19Z</time>
      </trkpt>
      <trkpt lat="49.29779" lon="-0.37079">
        <ele>18.9</ele>
        <time>2020-06-17T09:42:20Z</time>
      </trkpt>
      <trkpt lat="49.29776" lon="-0.37074">
        <ele>18.9</ele>
        <time>2020-06-17T09:42:21Z</time>
      </trkpt>
      <trkpt lat="49.29774" lon="-0.37069">
        <ele>18.9</ele>
        <time>2020-06-17T09:42:22Z</time>
      </trkpt>
      <trkpt lat="49.29771" lon="-0.37065">
        <ele>18.9</ele>
        <time>2020-06-17T09:42:23Z</time>
      </trkpt>
      <trkpt lat="49.29767" lon="-0.3706">
        <ele>19</ele>
        <time>2020-06-17T09:42:24Z</time>
      </trkpt>
      <trkpt lat="49.29764" lon="-0.37056">
        <ele>19</ele>
        <time>2020-06-17T09:42:25Z</time>
      </trkpt>
      <trkpt lat="49.29761" lon="-0.37051">
        <ele>19</ele>
        <time>2020-06-17T09:42:26Z</time>
      </trkpt>
      <trkpt lat="49.29758" lon="-0.37047">
        <ele>19</ele>
        <time>2020-06-17T09:42:27Z</time>
      </trkpt>
      <trkpt lat="49.29755" lon="-0.37042">
        <ele>19.1</ele>
        <time>2020-06-17T09:42:28Z</time>
      </trkpt>
      <trkpt lat="49.29753" lon="-0.37036">
        <ele>19.2</ele>
        <time>2020-06-17T09:42:29Z</time>
      </trkpt>
      <trkpt lat="49.29751" lon="-0.37031">
        <ele>19.2</ele>
        <time>2020-06-17T09:42:30Z</time>
      </trkpt>
      <trkpt lat="49.29748" lon="-0.37026">
        <ele>19.3</ele>
        <time>2020-06-17T09:42:31Z</time>
      </trkpt>
      <trkpt lat="49.29746" lon="-0.3702">
        <ele>19.4</ele>
        <time>2020-06-17T09:42:32Z</time>
      </trkpt>
      <trkpt lat="49.29743" lon="-0.37015">
        <ele>19.5</ele>
        <time>2020-06-17T09:42:33Z</time>
      </trkpt>
      <trkpt lat="49.2974" lon="-0.3701">
        <ele>19.6</ele>
        <time>2020-06-17T09:42:34Z</time>
      </trkpt>
      <trkpt lat="49.29737" lon="-0.37005">
        <ele>19.7</ele>
        <time>2020-06-17T09:42:35Z</time>
      </trkpt>
      <trkpt lat="49.29734" lon="-0.36999">
        <ele>19.9</ele>
        <time>2020-06-17T09:42:36Z</time>
      </trkpt>
      <trkpt lat="49.2973" lon="-0.36994">
        <ele>20</ele>
        <time>2020-06-17T09:42:37Z</time>
      </trkpt>
      <trkpt lat="49.29726" lon="-0.3699">
        <ele>20.1</ele>
        <time>2020-06-17T09:42:38Z</time>
      </trkpt>
      <trkpt lat="49.29722" lon="-0.36987">
        <ele>20.2</ele>
        <time>2020-06-17T09:42:39Z</time>
      </trkpt>
      <trkpt lat="49.29716" lon="-0.36984">
        <ele>20.4</ele>
        <time>2020-06-17T09:42:40Z</time>
      </trkpt>
      <trkpt lat="49.29713" lon="-0.36978">
        <ele>20.5</ele>
        <time>2020-06-17T09:42:41Z</time>
      </trkpt>
      <trkpt lat="49.29709" lon="-0.36973">
        <ele>20.7</ele>
        <time>2020-06-17T09:42:42Z</time>
      </trkpt>
      <trkpt lat="49.29706" lon="-0.36969">
        <ele>20.9</ele>
        <time>2020-06-17T09:42:43Z</time>
      </trkpt>
      <trkpt lat="49.29702" lon="-0.36966">
        <ele>21</ele>
        <time>2020-06-17T09:42:44Z</time>
      </trkpt>
      <trkpt lat="49.29698" lon="-0.36963">
        <ele>21.2</ele>
        <time>2020-06-17T09:42:45Z</time>
      </trkpt>
      <trkpt lat="49.29694" lon="-0.36959">
        <ele>21.3</ele>
        <time>2020-06-17T09:42:46Z</time>
      </trkpt>
      <trkpt lat="49.29691" lon="-0.36956">
        <ele>21.5</ele>
        <time>2020-06-17T09:42:47Z</time>
      </trkpt>
      <trkpt lat="49.29687" lon="-0.36952">
        <ele>21.6</ele>
        <time>2020-06-17T09:42:48Z</time>
      </trkpt>
      <trkpt lat="49.29684" lon="-0.36949">
        <ele>21.8</ele>
        <time>2020-06-17T09:42:49Z</time>
      </trkpt>
      <trkpt lat="49.2968" lon="-0.36945">
        <ele>21.9</ele>
        <time>2020-06-17T09:42:50Z</time>
      </trkpt>
      <trkpt lat="49.29677" lon="-0.3694">
        <ele>22.1</ele>
        <time>2020-06-17T09:42:51Z</time>
      </trkpt>
      <trkpt lat="49.29673" lon="-0.36936">
        <ele>22.2</ele>
        <time>2020-06-17T09:42:52Z</time>
      </trkpt>
      <trkpt lat="49.29669" lon="-0.36932">
        <ele>22.4</ele>
        <time>2020-06-17T09:42:53Z</time>
      </trkpt>
      <trkpt lat="49.29665" lon="-0.36929">
        <ele>22.6</ele>
        <time>2020-06-17T09:42:54Z</time>
      </trkpt>
      <trkpt lat="49.29661" lon="-0.36926">
        <ele>22.7</ele>
        <time>2020-06-17T09:42:55Z</time>
      </trkpt>
      <trkpt lat="49.29656" lon="-0.36921">
        <ele>22.9</ele>
        <time>2020-06-17T09:42:56Z</time>
      </trkpt>
      <trkpt lat="49.29653" lon="-0.36917">
        <ele>23.1</ele>
        <time>2020-06-17T09:42:57Z</time>
      </trkpt>
      <trkpt lat="49.29649" lon="-0.36913">
        <ele>23.2</ele>
        <time>2020-06-17T09:42:58Z</time>
      </trkpt>
      <trkpt lat="49.29645" lon="-0.36909">
        <ele>23.4</ele>
        <time>2020-06-17T09:42:59Z</time>
      </trkpt>
      <trkpt lat="49.29642" lon="-0.36907">
        <ele>23.5</ele>
        <time>2020-06-17T09:43:00Z</time>
      </trkpt>
      <trkpt lat="49.29638" lon="-0.36903">
        <ele>23.6</ele>
        <time>2020-06-17T09:43:01Z</time>
      </trkpt>
      <trkpt lat="49.29635" lon="-0.369">
        <ele>23.7</ele>
        <time>2020-06-17T09:43:02Z</time>
      </trkpt>
      <trkpt lat="49.29633" lon="-0.36895">
        <ele>23.8</ele>
        <time>2020-06-17T09:43:03Z</time>
      </trkpt>
      <trkpt lat="49.2963" lon="-0.36891">
        <ele>23.9</ele>
        <time>2020-06-17T09:43:04Z</time>
      </trkpt>
      <trkpt lat="49.29627" lon="-0.36886">
        <ele>24.1</ele>
        <time>2020-06-17T09:43:05Z</time>
      </trkpt>
      <trkpt lat="49.29624" lon="-0.36881">
        <ele>24.2</ele>
        <time>2020-06-17T09:43:06Z</time>
      </trkpt>
      <trkpt lat="49.29621" lon="-0.36876">
        <ele>24.3</ele>
        <time>2020-06-17T09:43:07Z</time>
      </trkpt>
      <trkpt lat="49.29618" lon="-0.3687">
        <ele>24.4</ele>
        <time>2020-06-17T09:43:08Z</time>
      </trkpt>
      <trkpt lat="49.29615" lon="-0.36865">
        <ele>24.5</ele>
        <time>2020-06-17T09:43:09Z</time>
      </trkpt>
      <trkpt lat="49.29612" lon="-0.3686">
        <ele>24.7</ele>
        <time>2020-06-17T09:43:10Z</time>
      </trkpt>
      <trkpt lat="49.29609" lon="-0.36854">
        <ele>24.8</ele>
        <time>2020-06-17T09:43:11Z</time>
      </trkpt>
      <trkpt lat="49.29605" lon="-0.36848">
        <ele>24.9</ele>
        <time>2020-06-17T09:43:12Z</time>
      </trkpt>
      <trkpt lat="49.29601" lon="-0.36842">
        <ele>25.1</ele>
        <time>2020-06-17T09:43:13Z</time>
      </trkpt>
      <trkpt lat="49.29598" lon="-0.36836">
        <ele>25.2</ele>
        <time>2020-06-17T09:43:14Z</time>
      </trkpt>
      <trkpt lat="49.29594" lon="-0.36829">
        <ele>25.3</ele>
        <time>2020-06-17T09:43:15Z</time>
      </trkpt>
      <trkpt lat="49.2959" lon="-0.36821">
        <ele>25.5</ele>
        <time>2020-06-17T09:43:16Z</time>
      </trkpt>
      <trkpt lat="49.29587" lon="-0.36815">
        <ele>25.6</ele>
        <time>2020-06-17T09:43:17Z</time>
      </trkpt>
      <trkpt lat="49.29584" lon="-0.36808">
        <ele>25.7</ele>
        <time>2020-06-17T09:43:18Z</time>
      </trkpt>
      <trkpt lat="49.2958" lon="-0.36801">
        <ele>25.8</ele>
        <time>2020-06-17T09:43:19Z</time>
      </trkpt>
      <trkpt lat="49.29576" lon="-0.36795">
        <ele>25.9</ele>
        <time>2020-06-17T09:43:20Z</time>
      </trkpt>
      <trkpt lat="49.29573" lon="-0.36789">
        <ele>26</ele>
        <time>2020-06-17T09:43:21Z</time>
      </trkpt>
      <trkpt lat="49.29569" lon="-0.36782">
        <ele>26.1</ele>
        <time>2020-06-17T09:43:22Z</time>
      </trkpt>
      <trkpt lat="49.29565" lon="-0.36775">
        <ele>26.2</ele>
        <time>2020-06-17T09:43:23Z</time>
      </trkpt>
      <trkpt lat="49.29561" lon="-0.36768">
        <ele>26.3</ele>
        <time>2020-06-17T09:43:24Z</time>
      </trkpt>
      <trkpt lat="49.29557" lon="-0.36762">
        <ele>26.4</ele>
        <time>2020-06-17T09:43:25Z</time>
      </trkpt>
      <trkpt lat="49.29554" lon="-0.36755">
        <ele>26.5</ele>
        <time>2020-06-17T09:43:26Z</time>
      </trkpt>
      <trkpt lat="49.2955" lon="-0.36748">
        <ele>26.6</ele>
        <time>2020-06-17T09:43:27Z</time>
      </trkpt>
      <trkpt lat="49.29548" lon="-0.36741">
        <ele>26.7</ele>
        <time>2020-06-17T09:43:28Z</time>
      </trkpt>
      <trkpt lat="49.29544" lon="-0.36735">
        <ele>26.7</ele>
        <time>2020-06-17T09:43:29Z</time>
      </trkpt>
      <trkpt lat="49.2954" lon="-0.36728">
        <ele>26.8</ele>
        <time>2020-06-17T09:43:30Z</time>
      </trkpt>
      <trkpt lat="49.29536" lon="-0.36721">
        <ele>26.9</ele>
        <time>2020-06-17T09:43:31Z</time>
      </trkpt>
      <trkpt lat="49.29531" lon="-0.36714">
        <ele>27</ele>
        <time>2020-06-17T09:43:32Z</time>
      </trkpt>
      <trkpt lat="49.29528" lon="-0.36706">
        <ele>27.1</ele>
        <time>2020-06-17T09:43:33Z</time>
      </trkpt>
      <trkpt lat="49.29524" lon="-0.36698">
        <ele>27.2</ele>
        <time>2020-06-17T09:43:34Z</time>
      </trkpt>
      <trkpt lat="49.29521" lon="-0.36692">
        <ele>27.3</ele>
        <time>2020-06-17T09:43:35Z</time>
      </trkpt>
      <trkpt lat="49.29518" lon="-0.36685">
        <ele>27.4</ele>
        <time>2020-06-17T09:43:36Z</time>
      </trkpt>
      <trkpt lat="49.29515" lon="-0.36678">
        <ele>27.5</ele>
        <time>2020-06-17T09:43:37Z</time>
      </trkpt>
      <trkpt lat="49.29511" lon="-0.36671">
        <ele>27.5</ele>
        <time>2020-06-17T09:43:38Z</time>
      </trkpt>
      <trkpt lat="49.29508" lon="-0.36664">
        <ele>27.6</ele>
        <time>2020-06-17T09:43:39Z</time>
      </trkpt>
      <trkpt lat="49.29505" lon="-0.36659">
        <ele>27.7</ele>
        <time>2020-06-17T09:43:40Z</time>
      </trkpt>
      <trkpt lat="49.29502" lon="-0.36652">
        <ele>27.8</ele>
        <time>2020-06-17T09:43:41Z</time>
      </trkpt>
      <trkpt lat="49.29499" lon="-0.36646">
        <ele>27.8</ele>
        <time>2020-06-17T09:43:42Z</time>
      </trkpt>
      <trkpt lat="49.29495" lon="-0.3664">
        <ele>27.9</ele>
        <time>2020-06-17T09:43:43Z</time>
      </trkpt>
      <trkpt lat="49.29492" lon="-0.36634">
        <ele>28</ele>
        <time>2020-06-17T09:43:44Z</time>
      </trkpt>
      <trkpt lat="49.2949" lon="-0.36627">
        <ele>28</ele>
        <time>2020-06-17T09:43:45Z</time>
      </trkpt>
      <trkpt lat="49.29487" lon="-0.36621">
        <ele>28.1</ele>
        <time>2020-06-17T09:43:46Z</time>
      </trkpt>
      <trkpt lat="49.29484" lon="-0.36613">
        <ele>28.2</ele>
        <time>2020-06-17T09:43:47Z</time>
      </trkpt>
      <trkpt lat="49.29482" lon="-0.36605">
        <ele>28.3</ele>
        <time>2020-06-17T09:43:48Z</time>
      </trkpt>
      <trkpt lat="49.29479" lon="-0.36598">
        <ele>28.4</ele>
        <time>2020-06-17T09:43:49Z</time>
      </trkpt>
      <trkpt lat="49.29476" lon="-0.36592">
        <ele>28.5</ele>
        <time>2020-06-17T09:43:50Z</time>
      </trkpt>
      <trkpt lat="49.29474" lon="-0.36585">
        <ele>28.6</ele>
        <time>2020-06-17T09:43:51Z</time>
      </trkpt>
      <trkpt lat="49.29471" lon="-0.36579">
        <ele>28.6</ele>
        <time>2020-06-17T09:43:52Z</time>
      </trkpt>
      <trkpt lat="49.29467" lon="-0.36573">
        <ele>28.7</ele>
        <time>2020-06-17T09:43:53Z</time>
      </trkpt>
      <trkpt lat="49.29464" lon="-0.36567">
        <ele>28.8</ele>
        <time>2020-06-17T09:43:54Z</time>
      </trkpt>
      <trkpt lat="49.29461" lon="-0.36561">
        <ele>28.9</ele>
        <time>2020-06-17T09:43:55Z</time>
      </trkpt>
      <trkpt lat="49.29458" lon="-0.36556">
        <ele>28.9</ele>
        <time>2020-06-17T09:43:56Z</time>
      </trkpt>
      <trkpt lat="49.29455" lon="-0.3655">
        <ele>29</ele>
        <time>2020-06-17T09:43:57Z</time>
      </trkpt>
      <trkpt lat="49.29452" lon="-0.36544">
        <ele>29.1</ele>
        <time>2020-06-17T09:43:58Z</time>
      </trkpt>
      <trkpt lat="49.29449" lon="-0.36537">
        <ele>29.2</ele>
        <time>2020-06-17T09:43:59Z</time>
      </trkpt>
      <trkpt lat="49.29446" lon="-0.36529">
        <ele>29.2</ele>
        <time>2020-06-17T09:44:00Z</time>
      </trkpt>
      <trkpt lat="49.29442" lon="-0.36521">
        <ele>29.3</ele>
        <time>2020-06-17T09:44:01Z</time>
      </trkpt>
      <trkpt lat="49.29439" lon="-0.36514">
        <ele>29.3</ele>
        <time>2020-06-17T09:44:02Z</time>
      </trkpt>
      <trkpt lat="49.29436" lon="-0.36507">
        <ele>29.4</ele>
        <time>2020-06-17T09:44:03Z</time>
      </trkpt>
      <trkpt lat="49.29432" lon="-0.36499">
        <ele>29.4</ele>
        <time>2020-06-17T09:44:04Z</time>
      </trkpt>
      <trkpt lat="49.29429" lon="-0.36491">
        <ele>29.6</ele>
        <time>2020-06-17T09:44:05Z</time>
      </trkpt>
      <trkpt lat="49.29425" lon="-0.36483">
        <ele>29.7</ele>
        <time>2020-06-17T09:44:06Z</time>
      </trkpt>
      <trkpt lat="49.29422" lon="-0.36476">
        <ele>29.8</ele>
        <time>2020-06-17T09:44:07Z</time>
      </trkpt>
      <trkpt lat="49.29418" lon="-0.36469">
        <ele>29.9</ele>
        <time>2020-06-17T09:44:08Z</time>
      </trkpt>
      <trkpt lat="49.29414" lon="-0.36462">
        <ele>29.9</ele>
        <time>2020-06-17T09:44:09Z</time>
      </trkpt>
      <trkpt lat="49.29409" lon="-0.36454">
        <ele>30</ele>
        <time>2020-06-17T09:44:10Z</time>
      </trkpt>
      <trkpt lat="49.29405" lon="-0.36447">
        <ele>30.1</ele>
        <time>2020-06-17T09:44:11Z</time>
      </trkpt>
      <trkpt lat="49.29401" lon="-0.3644">
        <ele>30.1</ele>
        <time>2020-06-17T09:44:12Z</time>
      </trkpt>
      <trkpt lat="49.29397" lon="-0.36433">
        <ele>30.2</ele>
        <time>2020-06-17T09:44:13Z</time>
      </trkpt>
      <trkpt lat="49.29394" lon="-0.36427">
        <ele>30.3</ele>
        <time>2020-06-17T09:44:14Z</time>
      </trkpt>
      <trkpt lat="49.2939" lon="-0.36419">
        <ele>30.4</ele>
        <time>2020-06-17T09:44:15Z</time>
      </trkpt>
      <trkpt lat="49.29386" lon="-0.36411">
        <ele>30.4</ele>
        <time>2020-06-17T09:44:16Z</time>
      </trkpt>
      <trkpt lat="49.29382" lon="-0.36404">
        <ele>30.5</ele>
        <time>2020-06-17T09:44:17Z</time>
      </trkpt>
      <trkpt lat="49.29379" lon="-0.36397">
        <ele>30.6</ele>
        <time>2020-06-17T09:44:18Z</time>
      </trkpt>
      <trkpt lat="49.29375" lon="-0.36389">
        <ele>30.6</ele>
        <time>2020-06-17T09:44:19Z</time>
      </trkpt>
      <trkpt lat="49.29371" lon="-0.36381">
        <ele>30.7</ele>
        <time>2020-06-17T09:44:20Z</time>
      </trkpt>
      <trkpt lat="49.29368" lon="-0.36374">
        <ele>30.7</ele>
        <time>2020-06-17T09:44:21Z</time>
      </trkpt>
      <trkpt lat="49.29365" lon="-0.36366">
        <ele>30.8</ele>
        <time>2020-06-17T09:44:22Z</time>
      </trkpt>
      <trkpt lat="49.29362" lon="-0.3636">
        <ele>30.8</ele>
        <time>2020-06-17T09:44:23Z</time>
      </trkpt>
      <trkpt lat="49.29359" lon="-0.36354">
        <ele>30.9</ele>
        <time>2020-06-17T09:44:24Z</time>
      </trkpt>
      <trkpt lat="49.29356" lon="-0.36347">
        <ele>30.9</ele>
        <time>2020-06-17T09:44:25Z</time>
      </trkpt>
      <trkpt lat="49.29352" lon="-0.3634">
        <ele>31</ele>
        <time>2020-06-17T09:44:26Z</time>
      </trkpt>
      <trkpt lat="49.29349" lon="-0.36332">
        <ele>31</ele>
        <time>2020-06-17T09:44:27Z</time>
      </trkpt>
      <trkpt lat="49.29345" lon="-0.36324">
        <ele>31</ele>
        <time>2020-06-17T09:44:28Z</time>
      </trkpt>
      <trkpt lat="49.29341" lon="-0.36317">
        <ele>31.1</ele>
        <time>2020-06-17T09:44:29Z</time>
      </trkpt>
      <trkpt lat="49.29338" lon="-0.36309">
        <ele>31</ele>
        <time>2020-06-17T09:44:30Z</time>
      </trkpt>
      <trkpt lat="49.29334" lon="-0.36301">
        <ele>31</ele>
        <time>2020-06-17T09:44:31Z</time>
      </trkpt>
      <trkpt lat="49.2933" lon="-0.36295">
        <ele>31</ele>
        <time>2020-06-17T09:44:32Z</time>
      </trkpt>
      <trkpt lat="49.29327" lon="-0.36288">
        <ele>31</ele>
        <time>2020-06-17T09:44:33Z</time>
      </trkpt>
      <trkpt lat="49.29322" lon="-0.3628">
        <ele>30.9</ele>
        <time>2020-06-17T09:44:34Z</time>
      </trkpt>
      <trkpt lat="49.29318" lon="-0.36272">
        <ele>30.9</ele>
        <time>2020-06-17T09:44:35Z</time>
      </trkpt>
      <trkpt lat="49.29315" lon="-0.36266">
        <ele>30.9</ele>
        <time>2020-06-17T09:44:36Z</time>
      </trkpt>
      <trkpt lat="49.29311" lon="-0.36257">
        <ele>30.8</ele>
        <time>2020-06-17T09:44:37Z</time>
      </trkpt>
      <trkpt lat="49.29307" lon="-0.36249">
        <ele>30.8</ele>
        <time>2020-06-17T09:44:38Z</time>
      </trkpt>
      <trkpt lat="49.29303" lon="-0.36241">
        <ele>30.7</ele>
        <time>2020-06-17T09:44:39Z</time>
      </trkpt>
      <trkpt lat="49.29299" lon="-0.36232">
        <ele>30.6</ele>
        <time>2020-06-17T09:44:40Z</time>
      </trkpt>
      <trkpt lat="49.29295" lon="-0.36223">
        <ele>30.6</ele>
        <time>2020-06-17T09:44:41Z</time>
      </trkpt>
      <trkpt lat="49.29292" lon="-0.36214">
        <ele>30.5</ele>
        <time>2020-06-17T09:44:42Z</time>
      </trkpt>
      <trkpt lat="49.29289" lon="-0.36204">
        <ele>30.4</ele>
        <time>2020-06-17T09:44:43Z</time>
      </trkpt>
      <trkpt lat="49.29286" lon="-0.36194">
        <ele>30.3</ele>
        <time>2020-06-17T09:44:44Z</time>
      </trkpt>
      <trkpt lat="49.29283" lon="-0.36184">
        <ele>30.2</ele>
        <time>2020-06-17T09:44:45Z</time>
      </trkpt>
      <trkpt lat="49.2928" lon="-0.36174">
        <ele>30.1</ele>
        <time>2020-06-17T09:44:46Z</time>
      </trkpt>
      <trkpt lat="49.29276" lon="-0.36163">
        <ele>30.1</ele>
        <time>2020-06-17T09:44:47Z</time>
      </trkpt>
      <trkpt lat="49.29274" lon="-0.36153">
        <ele>30</ele>
        <time>2020-06-17T09:44:48Z</time>
      </trkpt>
      <trkpt lat="49.29271" lon="-0.36142">
        <ele>30</ele>
        <time>2020-06-17T09:44:49Z</time>
      </trkpt>
      <trkpt lat="49.29269" lon="-0.36134">
        <ele>29.9</ele>
        <time>2020-06-17T09:44:50Z</time>
      </trkpt>
      <trkpt lat="49.29265" lon="-0.36125">
        <ele>29.9</ele>
        <time>2020-06-17T09:44:51Z</time>
      </trkpt>
      <trkpt lat="49.29262" lon="-0.36116">
        <ele>29.8</ele>
        <time>2020-06-17T09:44:52Z</time>
      </trkpt>
      <trkpt lat="49.29259" lon="-0.36107">
        <ele>29.7</ele>
        <time>2020-06-17T09:44:53Z</time>
      </trkpt>
      <trkpt lat="49.29256" lon="-0.36099">
        <ele>29.6</ele>
        <time>2020-06-17T09:44:54Z</time>
      </trkpt>
      <trkpt lat="49.29254" lon="-0.36089">
        <ele>29.5</ele>
        <time>2020-06-17T09:44:55Z</time>
      </trkpt>
      <trkpt lat="49.29251" lon="-0.3608">
        <ele>29.4</ele>
        <time>2020-06-17T09:44:56Z</time>
      </trkpt>
      <trkpt lat="49.29249" lon="-0.36072">
        <ele>29.3</ele>
        <time>2020-06-17T09:44:57Z</time>
      </trkpt>
      <trkpt lat="49.29245" lon="-0.36064">
        <ele>29.3</ele>
        <time>2020-06-17T09:44:58Z</time>
      </trkpt>
      <trkpt lat="49.29242" lon="-0.36056">
        <ele>29.2</ele>
        <time>2020-06-17T09:44:59Z</time>
      </trkpt>
      <trkpt lat="49.29239" lon="-0.36047">
        <ele>29.2</ele>
        <time>2020-06-17T09:45:00Z</time>
      </trkpt>
      <trkpt lat="49.29237" lon="-0.36039">
        <ele>29.2</ele>
        <time>2020-06-17T09:45:01Z</time>
      </trkpt>
      <trkpt lat="49.29234" lon="-0.3603">
        <ele>29.1</ele>
        <time>2020-06-17T09:45:02Z</time>
      </trkpt>
      <trkpt lat="49.29231" lon="-0.36019">
        <ele>29</ele>
        <time>2020-06-17T09:45:03Z</time>
      </trkpt>
      <trkpt lat="49.29228" lon="-0.36007">
        <ele>28.9</ele>
        <time>2020-06-17T09:45:04Z</time>
      </trkpt>
      <trkpt lat="49.29225" lon="-0.35996">
        <ele>28.8</ele>
        <time>2020-06-17T09:45:05Z</time>
      </trkpt>
      <trkpt lat="49.29222" lon="-0.35985">
        <ele>28.6</ele>
        <time>2020-06-17T09:45:06Z</time>
      </trkpt>
      <trkpt lat="49.2922" lon="-0.35974">
        <ele>28.5</ele>
        <time>2020-06-17T09:45:07Z</time>
      </trkpt>
      <trkpt lat="49.29216" lon="-0.35961">
        <ele>28.4</ele>
        <time>2020-06-17T09:45:08Z</time>
      </trkpt>
      <trkpt lat="49.29213" lon="-0.35948">
        <ele>28.3</ele>
        <time>2020-06-17T09:45:09Z</time>
      </trkpt>
      <trkpt lat="49.2921" lon="-0.35935">
        <ele>28.3</ele>
        <time>2020-06-17T09:45:10Z</time>
      </trkpt>
      <trkpt lat="49.29208" lon="-0.35925">
        <ele>28.2</ele>
        <time>2020-06-17T09:45:11Z</time>
      </trkpt>
      <trkpt lat="49.29205" lon="-0.35913">
        <ele>28.1</ele>
        <time>2020-06-17T09:45:12Z</time>
      </trkpt>
      <trkpt lat="49.29202" lon="-0.35901">
        <ele>27.9</ele>
        <time>2020-06-17T09:45:13Z</time>
      </trkpt>
      <trkpt lat="49.29199" lon="-0.35891">
        <ele>27.8</ele>
        <time>2020-06-17T09:45:14Z</time>
      </trkpt>
      <trkpt lat="49.29195" lon="-0.35881">
        <ele>27.7</ele>
        <time>2020-06-17T09:45:15Z</time>
      </trkpt>
      <trkpt lat="49.29192" lon="-0.35871">
        <ele>27.5</ele>
        <time>2020-06-17T09:45:16Z</time>
      </trkpt>
      <trkpt lat="49.29188" lon="-0.3586">
        <ele>27.4</ele>
        <time>2020-06-17T09:45:17Z</time>
      </trkpt>
      <trkpt lat="49.29186" lon="-0.35849">
        <ele>27.2</ele>
        <time>2020-06-17T09:45:18Z</time>
      </trkpt>
      <trkpt lat="49.29183" lon="-0.35837">
        <ele>27</ele>
        <time>2020-06-17T09:45:19Z</time>
      </trkpt>
      <trkpt lat="49.29181" lon="-0.35827">
        <ele>26.9</ele>
        <time>2020-06-17T09:45:20Z</time>
      </trkpt>
      <trkpt lat="49.29178" lon="-0.35816">
        <ele>26.6</ele>
        <time>2020-06-17T09:45:21Z</time>
      </trkpt>
      <trkpt lat="49.29174" lon="-0.35804">
        <ele>26.4</ele>
        <time>2020-06-17T09:45:22Z</time>
      </trkpt>
      <trkpt lat="49.29171" lon="-0.35792">
        <ele>26.2</ele>
        <time>2020-06-17T09:45:23Z</time>
      </trkpt>
      <trkpt lat="49.29168" lon="-0.35781">
        <ele>26.1</ele>
        <time>2020-06-17T09:45:24Z</time>
      </trkpt>
      <trkpt lat="49.29166" lon="-0.35771">
        <ele>25.9</ele>
        <time>2020-06-17T09:45:25Z</time>
      </trkpt>
      <trkpt lat="49.29163" lon="-0.35762">
        <ele>25.8</ele>
        <time>2020-06-17T09:45:26Z</time>
      </trkpt>
      <trkpt lat="49.2916" lon="-0.35752">
        <ele>25.6</ele>
        <time>2020-06-17T09:45:27Z</time>
      </trkpt>
      <trkpt lat="49.29157" lon="-0.35742">
        <ele>25.4</ele>
        <time>2020-06-17T09:45:28Z</time>
      </trkpt>
      <trkpt lat="49.29155" lon="-0.35733">
        <ele>25.3</ele>
        <time>2020-06-17T09:45:29Z</time>
      </trkpt>
      <trkpt lat="49.29152" lon="-0.35724">
        <ele>25.1</ele>
        <time>2020-06-17T09:45:30Z</time>
      </trkpt>
      <trkpt lat="49.29149" lon="-0.35713">
        <ele>25</ele>
        <time>2020-06-17T09:45:31Z</time>
      </trkpt>
      <trkpt lat="49.29146" lon="-0.35702">
        <ele>24.8</ele>
        <time>2020-06-17T09:45:32Z</time>
      </trkpt>
      <trkpt lat="49.29144" lon="-0.3569">
        <ele>24.6</ele>
        <time>2020-06-17T09:45:33Z</time>
      </trkpt>
      <trkpt lat="49.29141" lon="-0.35678">
        <ele>24.4</ele>
        <time>2020-06-17T09:45:34Z</time>
      </trkpt>
      <trkpt lat="49.29138" lon="-0.35668">
        <ele>24.2</ele>
        <time>2020-06-17T09:45:35Z</time>
      </trkpt>
      <trkpt lat="49.29136" lon="-0.35657">
        <ele>24</ele>
        <time>2020-06-17T09:45:36Z</time>
      </trkpt>
      <trkpt lat="49.29133" lon="-0.35646">
        <ele>23.9</ele>
        <time>2020-06-17T09:45:37Z</time>
      </trkpt>
      <trkpt lat="49.29131" lon="-0.35635">
        <ele>23.8</ele>
        <time>2020-06-17T09:45:38Z</time>
      </trkpt>
      <trkpt lat="49.29129" lon="-0.35625">
        <ele>23.7</ele>
        <time>2020-06-17T09:45:39Z</time>
      </trkpt>
      <trkpt lat="49.29127" lon="-0.35615">
        <ele>23.7</ele>
        <time>2020-06-17T09:45:40Z</time>
      </trkpt>
      <trkpt lat="49.29124" lon="-0.35604">
        <ele>23.7</ele>
        <time>2020-06-17T09:45:41Z</time>
      </trkpt>
      <trkpt lat="49.29121" lon="-0.35593">
        <ele>23.7</ele>
        <time>2020-06-17T09:45:42Z</time>
      </trkpt>
      <trkpt lat="49.29118" lon="-0.35581">
        <ele>23.7</ele>
        <time>2020-06-17T09:45:43Z</time>
      </trkpt>
      <trkpt lat="49.29115" lon="-0.35569">
        <ele>23.9</ele>
        <time>2020-06-17T09:45:44Z</time>
      </trkpt>
      <trkpt lat="49.29112" lon="-0.35561">
        <ele>23.7</ele>
        <time>2020-06-17T09:45:45Z</time>
      </trkpt>
      <trkpt lat="49.29109" lon="-0.35551">
        <ele>23.6</ele>
        <time>2020-06-17T09:45:46Z</time>
      </trkpt>
      <trkpt lat="49.29106" lon="-0.35542">
        <ele>23.4</ele>
        <time>2020-06-17T09:45:47Z</time>
      </trkpt>
      <trkpt lat="49.29103" lon="-0.35534">
        <ele>23.2</ele>
        <time>2020-06-17T09:45:48Z</time>
      </trkpt>
      <trkpt lat="49.29101" lon="-0.35526">
        <ele>23</ele>
        <time>2020-06-17T09:45:49Z</time>
      </trkpt>
      <trkpt lat="49.291" lon="-0.35522">
        <ele>22.9</ele>
        <time>2020-06-17T09:45:50Z</time>
      </trkpt>
      <trkpt lat="49.29098" lon="-0.35517">
        <ele>22.9</ele>
        <time>2020-06-17T09:45:51Z</time>
      </trkpt>
      <trkpt lat="49.29096" lon="-0.3551">
        <ele>22.7</ele>
        <time>2020-06-17T09:45:52Z</time>
      </trkpt>
      <trkpt lat="49.29094" lon="-0.35503">
        <ele>22.6</ele>
        <time>2020-06-17T09:45:53Z</time>
      </trkpt>
      <trkpt lat="49.29092" lon="-0.35495">
        <ele>22.5</ele>
        <time>2020-06-17T09:45:54Z</time>
      </trkpt>
      <trkpt lat="49.2909" lon="-0.35485">
        <ele>22.3</ele>
        <time>2020-06-17T09:45:55Z</time>
      </trkpt>
      <trkpt lat="49.29088" lon="-0.35475">
        <ele>22.2</ele>
        <time>2020-06-17T09:45:56Z</time>
      </trkpt>
      <trkpt lat="49.29086" lon="-0.35465">
        <ele>22.1</ele>
        <time>2020-06-17T09:45:57Z</time>
      </trkpt>
      <trkpt lat="49.29084" lon="-0.35457">
        <ele>22.1</ele>
        <time>2020-06-17T09:45:58Z</time>
      </trkpt>
      <trkpt lat="49.29082" lon="-0.35448">
        <ele>22.1</ele>
        <time>2020-06-17T09:45:59Z</time>
      </trkpt>
      <trkpt lat="49.2908" lon="-0.35441">
        <ele>22</ele>
        <time>2020-06-17T09:46:00Z</time>
      </trkpt>
      <trkpt lat="49.29077" lon="-0.35431">
        <ele>22</ele>
        <time>2020-06-17T09:46:01Z</time>
      </trkpt>
      <trkpt lat="49.29073" lon="-0.35422">
        <ele>22</ele>
        <time>2020-06-17T09:46:02Z</time>
      </trkpt>
      <trkpt lat="49.29069" lon="-0.35413">
        <ele>22</ele>
        <time>2020-06-17T09:46:03Z</time>
      </trkpt>
      <trkpt lat="49.29065" lon="-0.35405">
        <ele>22</ele>
        <time>2020-06-17T09:46:04Z</time>
      </trkpt>
      <trkpt lat="49.29062" lon="-0.35395">
        <ele>22.1</ele>
        <time>2020-06-17T09:46:05Z</time>
      </trkpt>
      <trkpt lat="49.29059" lon="-0.35386">
        <ele>22.1</ele>
        <time>2020-06-17T09:46:06Z</time>
      </trkpt>
      <trkpt lat="49.29055" lon="-0.35377">
        <ele>22.2</ele>
        <time>2020-06-17T09:46:07Z</time>
      </trkpt>
      <trkpt lat="49.29051" lon="-0.35368">
        <ele>22.3</ele>
        <time>2020-06-17T09:46:08Z</time>
      </trkpt>
      <trkpt lat="49.29048" lon="-0.3536">
        <ele>22.4</ele>
        <time>2020-06-17T09:46:09Z</time>
      </trkpt>
      <trkpt lat="49.29045" lon="-0.35352">
        <ele>22.4</ele>
        <time>2020-06-17T09:46:10Z</time>
      </trkpt>
      <trkpt lat="49.29042" lon="-0.35342">
        <ele>22.5</ele>
        <time>2020-06-17T09:46:11Z</time>
      </trkpt>
      <trkpt lat="49.29039" lon="-0.35334">
        <ele>22.6</ele>
        <time>2020-06-17T09:46:12Z</time>
      </trkpt>
      <trkpt lat="49.29035" lon="-0.35323">
        <ele>22.5</ele>
        <time>2020-06-17T09:46:13Z</time>
      </trkpt>
      <trkpt lat="49.29033" lon="-0.35313">
        <ele>22.5</ele>
        <time>2020-06-17T09:46:14Z</time>
      </trkpt>
      <trkpt lat="49.29031" lon="-0.35304">
        <ele>22.5</ele>
        <time>2020-06-17T09:46:15Z</time>
      </trkpt>
      <trkpt lat="49.29029" lon="-0.35296">
        <ele>22.6</ele>
        <time>2020-06-17T09:46:16Z</time>
      </trkpt>
      <trkpt lat="49.29025" lon="-0.35281">
        <ele>22.6</ele>
        <time>2020-06-17T09:46:17Z</time>
      </trkpt>
      <trkpt lat="49.29023" lon="-0.35275">
        <ele>22.6</ele>
        <time>2020-06-17T09:46:18Z</time>
      </trkpt>
      <trkpt lat="49.29022" lon="-0.35269">
        <ele>22.6</ele>
        <time>2020-06-17T09:46:19Z</time>
      </trkpt>
      <trkpt lat="49.2902" lon="-0.35262">
        <ele>22.6</ele>
        <time>2020-06-17T09:46:20Z</time>
      </trkpt>
      <trkpt lat="49.29017" lon="-0.35254">
        <ele>22.6</ele>
        <time>2020-06-17T09:46:21Z</time>
      </trkpt>
      <trkpt lat="49.29014" lon="-0.35245">
        <ele>22.6</ele>
        <time>2020-06-17T09:46:22Z</time>
      </trkpt>
      <trkpt lat="49.2901" lon="-0.35236">
        <ele>22.6</ele>
        <time>2020-06-17T09:46:23Z</time>
      </trkpt>
      <trkpt lat="49.29009" lon="-0.35227">
        <ele>22.7</ele>
        <time>2020-06-17T09:46:24Z</time>
      </trkpt>
      <trkpt lat="49.29007" lon="-0.35219">
        <ele>22.8</ele>
        <time>2020-06-17T09:46:25Z</time>
      </trkpt>
      <trkpt lat="49.29006" lon="-0.35211">
        <ele>22.8</ele>
        <time>2020-06-17T09:46:26Z</time>
      </trkpt>
      <trkpt lat="49.29005" lon="-0.35206">
        <ele>22.9</ele>
        <time>2020-06-17T09:46:27Z</time>
      </trkpt>
      <trkpt lat="49.29003" lon="-0.35198">
        <ele>23</ele>
        <time>2020-06-17T09:46:28Z</time>
      </trkpt>
      <trkpt lat="49.29001" lon="-0.35189">
        <ele>23.1</ele>
        <time>2020-06-17T09:46:29Z</time>
      </trkpt>
      <trkpt lat="49.28999" lon="-0.35179">
        <ele>23.2</ele>
        <time>2020-06-17T09:46:30Z</time>
      </trkpt>
      <trkpt lat="49.28996" lon="-0.35168">
        <ele>23.4</ele>
        <time>2020-06-17T09:46:31Z</time>
      </trkpt>
      <trkpt lat="49.28994" lon="-0.35156">
        <ele>23.7</ele>
        <time>2020-06-17T09:46:32Z</time>
      </trkpt>
      <trkpt lat="49.28991" lon="-0.35147">
        <ele>24</ele>
        <time>2020-06-17T09:46:33Z</time>
      </trkpt>
      <trkpt lat="49.28988" lon="-0.3514">
        <ele>24.2</ele>
        <time>2020-06-17T09:46:34Z</time>
      </trkpt>
      <trkpt lat="49.28985" lon="-0.35134">
        <ele>24.4</ele>
        <time>2020-06-17T09:46:35Z</time>
      </trkpt>
      <trkpt lat="49.28982" lon="-0.35127">
        <ele>24.5</ele>
        <time>2020-06-17T09:46:36Z</time>
      </trkpt>
      <trkpt lat="49.2898" lon="-0.35121">
        <ele>24.7</ele>
        <time>2020-06-17T09:46:37Z</time>
      </trkpt>
      <trkpt lat="49.28979" lon="-0.35116">
        <ele>24.8</ele>
        <time>2020-06-17T09:46:38Z</time>
      </trkpt>
      <trkpt lat="49.28977" lon="-0.35111">
        <ele>25</ele>
        <time>2020-06-17T09:46:39Z</time>
      </trkpt>
      <trkpt lat="49.28976" lon="-0.35105">
        <ele>25.1</ele>
        <time>2020-06-17T09:46:40Z</time>
      </trkpt>
      <trkpt lat="49.28975" lon="-0.351">
        <ele>25.2</ele>
        <time>2020-06-17T09:46:41Z</time>
      </trkpt>
      <trkpt lat="49.28973" lon="-0.35093">
        <ele>25.3</ele>
        <time>2020-06-17T09:46:42Z</time>
      </trkpt>
      <trkpt lat="49.28971" lon="-0.35086">
        <ele>25.4</ele>
        <time>2020-06-17T09:46:43Z</time>
      </trkpt>
      <trkpt lat="49.2897" lon="-0.35079">
        <ele>25.6</ele>
        <time>2020-06-17T09:46:44Z</time>
      </trkpt>
      <trkpt lat="49.28968" lon="-0.35072">
        <ele>25.6</ele>
        <time>2020-06-17T09:46:45Z</time>
      </trkpt>
      <trkpt lat="49.28967" lon="-0.35067">
        <ele>25.7</ele>
        <time>2020-06-17T09:46:46Z</time>
      </trkpt>
      <trkpt lat="49.28965" lon="-0.35061">
        <ele>25.8</ele>
        <time>2020-06-17T09:46:47Z</time>
      </trkpt>
      <trkpt lat="49.28963" lon="-0.35055">
        <ele>25.9</ele>
        <time>2020-06-17T09:46:48Z</time>
      </trkpt>
      <trkpt lat="49.2896" lon="-0.35048">
        <ele>26</ele>
        <time>2020-06-17T09:46:49Z</time>
      </trkpt>
      <trkpt lat="49.28959" lon="-0.35042">
        <ele>26.1</ele>
        <time>2020-06-17T09:46:50Z</time>
      </trkpt>
      <trkpt lat="49.28958" lon="-0.35036">
        <ele>26.2</ele>
        <time>2020-06-17T09:46:51Z</time>
      </trkpt>
      <trkpt lat="49.28958" lon="-0.35031">
        <ele>26.2</ele>
        <time>2020-06-17T09:46:52Z</time>
      </trkpt>
      <trkpt lat="49.28957" lon="-0.35026">
        <ele>26.2</ele>
        <time>2020-06-17T09:46:53Z</time>
      </trkpt>
      <trkpt lat="49.28957" lon="-0.3502">
        <ele>26.3</ele>
        <time>2020-06-17T09:46:54Z</time>
      </trkpt>
      <trkpt lat="49.28957" lon="-0.35014">
        <ele>26.4</ele>
        <time>2020-06-17T09:46:55Z</time>
      </trkpt>
      <trkpt lat="49.28956" lon="-0.35008">
        <ele>26.3</ele>
        <time>2020-06-17T09:46:56Z</time>
      </trkpt>
      <trkpt lat="49.28956" lon="-0.35002">
        <ele>26.3</ele>
        <time>2020-06-17T09:46:57Z</time>
      </trkpt>
      <trkpt lat="49.28954" lon="-0.34995">
        <ele>26.3</ele>
        <time>2020-06-17T09:46:58Z</time>
      </trkpt>
      <trkpt lat="49.28952" lon="-0.34989">
        <ele>26.3</ele>
        <time>2020-06-17T09:46:59Z</time>
      </trkpt>
      <trkpt lat="49.28951" lon="-0.34983">
        <ele>26.3</ele>
        <time>2020-06-17T09:47:00Z</time>
      </trkpt>
      <trkpt lat="49.28949" lon="-0.34977">
        <ele>26.3</ele>
        <time>2020-06-17T09:47:01Z</time>
      </trkpt>
      <trkpt lat="49.28948" lon="-0.34971">
        <ele>26.3</ele>
        <time>2020-06-17T09:47:02Z</time>
      </trkpt>
      <trkpt lat="49.28947" lon="-0.34964">
        <ele>26.3</ele>
        <time>2020-06-17T09:47:03Z</time>
      </trkpt>
      <trkpt lat="49.28946" lon="-0.34958">
        <ele>26.3</ele>
        <time>2020-06-17T09:47:04Z</time>
      </trkpt>
      <trkpt lat="49.28946" lon="-0.34951">
        <ele>26.3</ele>
        <time>2020-06-17T09:47:05Z</time>
      </trkpt>
      <trkpt lat="49.28944" lon="-0.34944">
        <ele>26.3</ele>
        <time>2020-06-17T09:47:06Z</time>
      </trkpt>
      <trkpt lat="49.28943" lon="-0.34937">
        <ele>26.2</ele>
        <time>2020-06-17T09:47:07Z</time>
      </trkpt>
      <trkpt lat="49.28941" lon="-0.3493">
        <ele>26.2</ele>
        <time>2020-06-17T09:47:08Z</time>
      </trkpt>
      <trkpt lat="49.28939" lon="-0.34922">
        <ele>26.1</ele>
        <time>2020-06-17T09:47:09Z</time>
      </trkpt>
      <trkpt lat="49.28938" lon="-0.34915">
        <ele>26.1</ele>
        <time>2020-06-17T09:47:10Z</time>
      </trkpt>
      <trkpt lat="49.28936" lon="-0.34909">
        <ele>26</ele>
        <time>2020-06-17T09:47:11Z</time>
      </trkpt>
      <trkpt lat="49.28933" lon="-0.34901">
        <ele>25.9</ele>
        <time>2020-06-17T09:47:12Z</time>
      </trkpt>
      <trkpt lat="49.28931" lon="-0.34893">
        <ele>25.9</ele>
        <time>2020-06-17T09:47:13Z</time>
      </trkpt>
      <trkpt lat="49.28929" lon="-0.34885">
        <ele>25.8</ele>
        <time>2020-06-17T09:47:14Z</time>
      </trkpt>
      <trkpt lat="49.28927" lon="-0.34876">
        <ele>25.8</ele>
        <time>2020-06-17T09:47:15Z</time>
      </trkpt>
      <trkpt lat="49.28925" lon="-0.34867">
        <ele>25.7</ele>
        <time>2020-06-17T09:47:16Z</time>
      </trkpt>
      <trkpt lat="49.28922" lon="-0.34857">
        <ele>25.6</ele>
        <time>2020-06-17T09:47:17Z</time>
      </trkpt>
      <trkpt lat="49.2892" lon="-0.34849">
        <ele>25.5</ele>
        <time>2020-06-17T09:47:18Z</time>
      </trkpt>
      <trkpt lat="49.28917" lon="-0.34839">
        <ele>25.4</ele>
        <time>2020-06-17T09:47:19Z</time>
      </trkpt>
      <trkpt lat="49.28914" lon="-0.3483">
        <ele>25.3</ele>
        <time>2020-06-17T09:47:20Z</time>
      </trkpt>
      <trkpt lat="49.28911" lon="-0.3482">
        <ele>25.2</ele>
        <time>2020-06-17T09:47:21Z</time>
      </trkpt>
      <trkpt lat="49.28909" lon="-0.34811">
        <ele>25.1</ele>
        <time>2020-06-17T09:47:22Z</time>
      </trkpt>
      <trkpt lat="49.28906" lon="-0.34801">
        <ele>25</ele>
        <time>2020-06-17T09:47:23Z</time>
      </trkpt>
      <trkpt lat="49.28904" lon="-0.34792">
        <ele>24.9</ele>
        <time>2020-06-17T09:47:24Z</time>
      </trkpt>
      <trkpt lat="49.28901" lon="-0.34782">
        <ele>24.7</ele>
        <time>2020-06-17T09:47:25Z</time>
      </trkpt>
      <trkpt lat="49.28898" lon="-0.34772">
        <ele>24.6</ele>
        <time>2020-06-17T09:47:26Z</time>
      </trkpt>
      <trkpt lat="49.28895" lon="-0.34763">
        <ele>24.5</ele>
        <time>2020-06-17T09:47:27Z</time>
      </trkpt>
      <trkpt lat="49.28892" lon="-0.34754">
        <ele>24.4</ele>
        <time>2020-06-17T09:47:28Z</time>
      </trkpt>
      <trkpt lat="49.28889" lon="-0.34744">
        <ele>24.2</ele>
        <time>2020-06-17T09:47:29Z</time>
      </trkpt>
      <trkpt lat="49.28886" lon="-0.34735">
        <ele>24.1</ele>
        <time>2020-06-17T09:47:30Z</time>
      </trkpt>
      <trkpt lat="49.28883" lon="-0.34723">
        <ele>24</ele>
        <time>2020-06-17T09:47:31Z</time>
      </trkpt>
      <trkpt lat="49.2888" lon="-0.34712">
        <ele>23.8</ele>
        <time>2020-06-17T09:47:32Z</time>
      </trkpt>
      <trkpt lat="49.28877" lon="-0.34701">
        <ele>23.6</ele>
        <time>2020-06-17T09:47:33Z</time>
      </trkpt>
      <trkpt lat="49.28873" lon="-0.34691">
        <ele>23.5</ele>
        <time>2020-06-17T09:47:34Z</time>
      </trkpt>
      <trkpt lat="49.28871" lon="-0.34681">
        <ele>23.3</ele>
        <time>2020-06-17T09:47:35Z</time>
      </trkpt>
      <trkpt lat="49.28869" lon="-0.34672">
        <ele>23.2</ele>
        <time>2020-06-17T09:47:36Z</time>
      </trkpt>
      <trkpt lat="49.28868" lon="-0.34662">
        <ele>23.1</ele>
        <time>2020-06-17T09:47:37Z</time>
      </trkpt>
      <trkpt lat="49.28866" lon="-0.34652">
        <ele>23</ele>
        <time>2020-06-17T09:47:38Z</time>
      </trkpt>
      <trkpt lat="49.28865" lon="-0.34641">
        <ele>22.9</ele>
        <time>2020-06-17T09:47:39Z</time>
      </trkpt>
      <trkpt lat="49.28863" lon="-0.3463">
        <ele>22.7</ele>
        <time>2020-06-17T09:47:40Z</time>
      </trkpt>
      <trkpt lat="49.28861" lon="-0.34621">
        <ele>22.7</ele>
        <time>2020-06-17T09:47:41Z</time>
      </trkpt>
      <trkpt lat="49.28859" lon="-0.34612">
        <ele>22.7</ele>
        <time>2020-06-17T09:47:42Z</time>
      </trkpt>
      <trkpt lat="49.28856" lon="-0.34603">
        <ele>22.7</ele>
        <time>2020-06-17T09:47:43Z</time>
      </trkpt>
      <trkpt lat="49.28853" lon="-0.34596">
        <ele>22.6</ele>
        <time>2020-06-17T09:47:44Z</time>
      </trkpt>
      <trkpt lat="49.2885" lon="-0.34589">
        <ele>22.6</ele>
        <time>2020-06-17T09:47:45Z</time>
      </trkpt>
      <trkpt lat="49.28846" lon="-0.34581">
        <ele>22.5</ele>
        <time>2020-06-17T09:47:46Z</time>
      </trkpt>
      <trkpt lat="49.28843" lon="-0.34574">
        <ele>22.4</ele>
        <time>2020-06-17T09:47:47Z</time>
      </trkpt>
      <trkpt lat="49.28838" lon="-0.34564">
        <ele>22.3</ele>
        <time>2020-06-17T09:47:48Z</time>
      </trkpt>
      <trkpt lat="49.28835" lon="-0.34555">
        <ele>22.2</ele>
        <time>2020-06-17T09:47:49Z</time>
      </trkpt>
      <trkpt lat="49.28831" lon="-0.34547">
        <ele>22.2</ele>
        <time>2020-06-17T09:47:50Z</time>
      </trkpt>
      <trkpt lat="49.28827" lon="-0.34537">
        <ele>22.1</ele>
        <time>2020-06-17T09:47:51Z</time>
      </trkpt>
      <trkpt lat="49.28824" lon="-0.34528">
        <ele>22.1</ele>
        <time>2020-06-17T09:47:52Z</time>
      </trkpt>
      <trkpt lat="49.28821" lon="-0.34518">
        <ele>22</ele>
        <time>2020-06-17T09:47:53Z</time>
      </trkpt>
      <trkpt lat="49.28819" lon="-0.34509">
        <ele>22</ele>
        <time>2020-06-17T09:47:54Z</time>
      </trkpt>
      <trkpt lat="49.28816" lon="-0.34499">
        <ele>22</ele>
        <time>2020-06-17T09:47:55Z</time>
      </trkpt>
      <trkpt lat="49.28814" lon="-0.34489">
        <ele>21.9</ele>
        <time>2020-06-17T09:47:56Z</time>
      </trkpt>
      <trkpt lat="49.28812" lon="-0.34479">
        <ele>21.9</ele>
        <time>2020-06-17T09:47:57Z</time>
      </trkpt>
      <trkpt lat="49.28809" lon="-0.34468">
        <ele>21.9</ele>
        <time>2020-06-17T09:47:58Z</time>
      </trkpt>
      <trkpt lat="49.28807" lon="-0.3446">
        <ele>21.8</ele>
        <time>2020-06-17T09:47:59Z</time>
      </trkpt>
      <trkpt lat="49.28804" lon="-0.3445">
        <ele>21.8</ele>
        <time>2020-06-17T09:48:00Z</time>
      </trkpt>
      <trkpt lat="49.28801" lon="-0.3444">
        <ele>21.8</ele>
        <time>2020-06-17T09:48:01Z</time>
      </trkpt>
      <trkpt lat="49.28797" lon="-0.3443">
        <ele>21.8</ele>
        <time>2020-06-17T09:48:02Z</time>
      </trkpt>
      <trkpt lat="49.28795" lon="-0.34421">
        <ele>21.7</ele>
        <time>2020-06-17T09:48:03Z</time>
      </trkpt>
      <trkpt lat="49.28792" lon="-0.34411">
        <ele>21.7</ele>
        <time>2020-06-17T09:48:04Z</time>
      </trkpt>
      <trkpt lat="49.28789" lon="-0.34401">
        <ele>21.7</ele>
        <time>2020-06-17T09:48:05Z</time>
      </trkpt>
      <trkpt lat="49.28787" lon="-0.34393">
        <ele>21.6</ele>
        <time>2020-06-17T09:48:06Z</time>
      </trkpt>
      <trkpt lat="49.28784" lon="-0.34385">
        <ele>21.6</ele>
        <time>2020-06-17T09:48:07Z</time>
      </trkpt>
      <trkpt lat="49.28782" lon="-0.34378">
        <ele>21.6</ele>
        <time>2020-06-17T09:48:08Z</time>
      </trkpt>
      <trkpt lat="49.2878" lon="-0.3437">
        <ele>21.5</ele>
        <time>2020-06-17T09:48:09Z</time>
      </trkpt>
      <trkpt lat="49.28778" lon="-0.34362">
        <ele>21.5</ele>
        <time>2020-06-17T09:48:10Z</time>
      </trkpt>
      <trkpt lat="49.28777" lon="-0.34354">
        <ele>21.5</ele>
        <time>2020-06-17T09:48:11Z</time>
      </trkpt>
      <trkpt lat="49.28775" lon="-0.34347">
        <ele>21.5</ele>
        <time>2020-06-17T09:48:12Z</time>
      </trkpt>
      <trkpt lat="49.28772" lon="-0.3434">
        <ele>21.5</ele>
        <time>2020-06-17T09:48:13Z</time>
      </trkpt>
      <trkpt lat="49.2877" lon="-0.34331">
        <ele>21.5</ele>
        <time>2020-06-17T09:48:14Z</time>
      </trkpt>
      <trkpt lat="49.28767" lon="-0.34323">
        <ele>21.5</ele>
        <time>2020-06-17T09:48:15Z</time>
      </trkpt>
      <trkpt lat="49.28765" lon="-0.34314">
        <ele>21.6</ele>
        <time>2020-06-17T09:48:16Z</time>
      </trkpt>
      <trkpt lat="49.28763" lon="-0.34303">
        <ele>21.6</ele>
        <time>2020-06-17T09:48:17Z</time>
      </trkpt>
      <trkpt lat="49.2876" lon="-0.34292">
        <ele>21.5</ele>
        <time>2020-06-17T09:48:18Z</time>
      </trkpt>
      <trkpt lat="49.28758" lon="-0.34281">
        <ele>21.5</ele>
        <time>2020-06-17T09:48:19Z</time>
      </trkpt>
      <trkpt lat="49.28756" lon="-0.34271">
        <ele>21.5</ele>
        <time>2020-06-17T09:48:20Z</time>
      </trkpt>
      <trkpt lat="49.28754" lon="-0.34259">
        <ele>21.5</ele>
        <time>2020-06-17T09:48:21Z</time>
      </trkpt>
      <trkpt lat="49.28751" lon="-0.34249">
        <ele>21.5</ele>
        <time>2020-06-17T09:48:22Z</time>
      </trkpt>
      <trkpt lat="49.28749" lon="-0.34239">
        <ele>21.5</ele>
        <time>2020-06-17T09:48:23Z</time>
      </trkpt>
      <trkpt lat="49.28747" lon="-0.3423">
        <ele>21.5</ele>
        <time>2020-06-17T09:48:24Z</time>
      </trkpt>
      <trkpt lat="49.28745" lon="-0.3422">
        <ele>21.5</ele>
        <time>2020-06-17T09:48:25Z</time>
      </trkpt>
      <trkpt lat="49.28743" lon="-0.34211">
        <ele>21.6</ele>
        <time>2020-06-17T09:48:26Z</time>
      </trkpt>
      <trkpt lat="49.28741" lon="-0.34202">
        <ele>21.6</ele>
        <time>2020-06-17T09:48:27Z</time>
      </trkpt>
      <trkpt lat="49.28739" lon="-0.3419">
        <ele>21.6</ele>
        <time>2020-06-17T09:48:28Z</time>
      </trkpt>
      <trkpt lat="49.28737" lon="-0.34179">
        <ele>21.7</ele>
        <time>2020-06-17T09:48:29Z</time>
      </trkpt>
      <trkpt lat="49.28735" lon="-0.34168">
        <ele>21.7</ele>
        <time>2020-06-17T09:48:30Z</time>
      </trkpt>
      <trkpt lat="49.28732" lon="-0.34156">
        <ele>21.6</ele>
        <time>2020-06-17T09:48:31Z</time>
      </trkpt>
      <trkpt lat="49.2873" lon="-0.34145">
        <ele>21.5</ele>
        <time>2020-06-17T09:48:32Z</time>
      </trkpt>
      <trkpt lat="49.28727" lon="-0.34133">
        <ele>21.5</ele>
        <time>2020-06-17T09:48:33Z</time>
      </trkpt>
      <trkpt lat="49.28724" lon="-0.34122">
        <ele>21.5</ele>
        <time>2020-06-17T09:48:34Z</time>
      </trkpt>
      <trkpt lat="49.28721" lon="-0.34111">
        <ele>21.5</ele>
        <time>2020-06-17T09:48:35Z</time>
      </trkpt>
      <trkpt lat="49.28718" lon="-0.34101">
        <ele>21.5</ele>
        <time>2020-06-17T09:48:36Z</time>
      </trkpt>
      <trkpt lat="49.28715" lon="-0.34092">
        <ele>21.5</ele>
        <time>2020-06-17T09:48:37Z</time>
      </trkpt>
      <trkpt lat="49.28711" lon="-0.34083">
        <ele>21.5</ele>
        <time>2020-06-17T09:48:38Z</time>
      </trkpt>
      <trkpt lat="49.28709" lon="-0.34074">
        <ele>21.5</ele>
        <time>2020-06-17T09:48:39Z</time>
      </trkpt>
      <trkpt lat="49.28706" lon="-0.34063">
        <ele>21.5</ele>
        <time>2020-06-17T09:48:40Z</time>
      </trkpt>
      <trkpt lat="49.28704" lon="-0.34052">
        <ele>21.5</ele>
        <time>2020-06-17T09:48:41Z</time>
      </trkpt>
      <trkpt lat="49.28701" lon="-0.34041">
        <ele>21.4</ele>
        <time>2020-06-17T09:48:42Z</time>
      </trkpt>
      <trkpt lat="49.28699" lon="-0.34033">
        <ele>21.4</ele>
        <time>2020-06-17T09:48:43Z</time>
      </trkpt>
      <trkpt lat="49.28697" lon="-0.34022">
        <ele>21.4</ele>
        <time>2020-06-17T09:48:44Z</time>
      </trkpt>
      <trkpt lat="49.28694" lon="-0.34013">
        <ele>21.4</ele>
        <time>2020-06-17T09:48:45Z</time>
      </trkpt>
      <trkpt lat="49.2869" lon="-0.34002">
        <ele>21.3</ele>
        <time>2020-06-17T09:48:46Z</time>
      </trkpt>
      <trkpt lat="49.28687" lon="-0.3399">
        <ele>21.3</ele>
        <time>2020-06-17T09:48:47Z</time>
      </trkpt>
      <trkpt lat="49.28683" lon="-0.33978">
        <ele>21.2</ele>
        <time>2020-06-17T09:48:48Z</time>
      </trkpt>
      <trkpt lat="49.2868" lon="-0.33967">
        <ele>21.1</ele>
        <time>2020-06-17T09:48:49Z</time>
      </trkpt>
      <trkpt lat="49.28677" lon="-0.33957">
        <ele>21</ele>
        <time>2020-06-17T09:48:50Z</time>
      </trkpt>
      <trkpt lat="49.28675" lon="-0.33945">
        <ele>20.9</ele>
        <time>2020-06-17T09:48:51Z</time>
      </trkpt>
      <trkpt lat="49.28672" lon="-0.33936">
        <ele>20.8</ele>
        <time>2020-06-17T09:48:52Z</time>
      </trkpt>
      <trkpt lat="49.28669" lon="-0.33926">
        <ele>20.8</ele>
        <time>2020-06-17T09:48:53Z</time>
      </trkpt>
      <trkpt lat="49.28667" lon="-0.33915">
        <ele>20.7</ele>
        <time>2020-06-17T09:48:54Z</time>
      </trkpt>
      <trkpt lat="49.28665" lon="-0.33905">
        <ele>20.7</ele>
        <time>2020-06-17T09:48:55Z</time>
      </trkpt>
      <trkpt lat="49.28662" lon="-0.33896">
        <ele>20.6</ele>
        <time>2020-06-17T09:48:56Z</time>
      </trkpt>
      <trkpt lat="49.28659" lon="-0.33887">
        <ele>20.6</ele>
        <time>2020-06-17T09:48:57Z</time>
      </trkpt>
      <trkpt lat="49.28657" lon="-0.33877">
        <ele>20.5</ele>
        <time>2020-06-17T09:48:58Z</time>
      </trkpt>
      <trkpt lat="49.28655" lon="-0.33866">
        <ele>20.5</ele>
        <time>2020-06-17T09:48:59Z</time>
      </trkpt>
      <trkpt lat="49.28652" lon="-0.33856">
        <ele>20.5</ele>
        <time>2020-06-17T09:49:00Z</time>
      </trkpt>
      <trkpt lat="49.2865" lon="-0.33846">
        <ele>20.4</ele>
        <time>2020-06-17T09:49:01Z</time>
      </trkpt>
      <trkpt lat="49.28647" lon="-0.33835">
        <ele>20.3</ele>
        <time>2020-06-17T09:49:02Z</time>
      </trkpt>
      <trkpt lat="49.28644" lon="-0.33824">
        <ele>20.2</ele>
        <time>2020-06-17T09:49:03Z</time>
      </trkpt>
      <trkpt lat="49.28642" lon="-0.33814">
        <ele>20.1</ele>
        <time>2020-06-17T09:49:04Z</time>
      </trkpt>
      <trkpt lat="49.28639" lon="-0.33803">
        <ele>20.1</ele>
        <time>2020-06-17T09:49:05Z</time>
      </trkpt>
      <trkpt lat="49.28636" lon="-0.33792">
        <ele>20</ele>
        <time>2020-06-17T09:49:06Z</time>
      </trkpt>
      <trkpt lat="49.28633" lon="-0.33781">
        <ele>20</ele>
        <time>2020-06-17T09:49:07Z</time>
      </trkpt>
      <trkpt lat="49.2863" lon="-0.33772">
        <ele>19.9</ele>
        <time>2020-06-17T09:49:08Z</time>
      </trkpt>
      <trkpt lat="49.28627" lon="-0.33763">
        <ele>19.9</ele>
        <time>2020-06-17T09:49:09Z</time>
      </trkpt>
      <trkpt lat="49.28624" lon="-0.33754">
        <ele>20</ele>
        <time>2020-06-17T09:49:10Z</time>
      </trkpt>
      <trkpt lat="49.28621" lon="-0.33743">
        <ele>20</ele>
        <time>2020-06-17T09:49:11Z</time>
      </trkpt>
      <trkpt lat="49.28618" lon="-0.33733">
        <ele>20</ele>
        <time>2020-06-17T09:49:12Z</time>
      </trkpt>
      <trkpt lat="49.28615" lon="-0.33723">
        <ele>20.1</ele>
        <time>2020-06-17T09:49:13Z</time>
      </trkpt>
      <trkpt lat="49.28612" lon="-0.33713">
        <ele>20.1</ele>
        <time>2020-06-17T09:49:14Z</time>
      </trkpt>
      <trkpt lat="49.28609" lon="-0.33703">
        <ele>20.2</ele>
        <time>2020-06-17T09:49:15Z</time>
      </trkpt>
      <trkpt lat="49.28606" lon="-0.33694">
        <ele>20.3</ele>
        <time>2020-06-17T09:49:16Z</time>
      </trkpt>
      <trkpt lat="49.28604" lon="-0.33684">
        <ele>20.4</ele>
        <time>2020-06-17T09:49:17Z</time>
      </trkpt>
      <trkpt lat="49.28602" lon="-0.33673">
        <ele>20.6</ele>
        <time>2020-06-17T09:49:18Z</time>
      </trkpt>
      <trkpt lat="49.286" lon="-0.33664">
        <ele>20.7</ele>
        <time>2020-06-17T09:49:19Z</time>
      </trkpt>
      <trkpt lat="49.28597" lon="-0.33653">
        <ele>20.9</ele>
        <time>2020-06-17T09:49:20Z</time>
      </trkpt>
      <trkpt lat="49.28594" lon="-0.33645">
        <ele>21</ele>
        <time>2020-06-17T09:49:21Z</time>
      </trkpt>
      <trkpt lat="49.28592" lon="-0.33637">
        <ele>21.1</ele>
        <time>2020-06-17T09:49:22Z</time>
      </trkpt>
      <trkpt lat="49.2859" lon="-0.33629">
        <ele>21.2</ele>
        <time>2020-06-17T09:49:23Z</time>
      </trkpt>
      <trkpt lat="49.28587" lon="-0.3362">
        <ele>21.4</ele>
        <time>2020-06-17T09:49:24Z</time>
      </trkpt>
      <trkpt lat="49.28584" lon="-0.3361">
        <ele>21.6</ele>
        <time>2020-06-17T09:49:25Z</time>
      </trkpt>
      <trkpt lat="49.28582" lon="-0.33601">
        <ele>21.7</ele>
        <time>2020-06-17T09:49:26Z</time>
      </trkpt>
      <trkpt lat="49.28579" lon="-0.33593">
        <ele>21.8</ele>
        <time>2020-06-17T09:49:27Z</time>
      </trkpt>
      <trkpt lat="49.28577" lon="-0.33585">
        <ele>21.9</ele>
        <time>2020-06-17T09:49:28Z</time>
      </trkpt>
      <trkpt lat="49.28574" lon="-0.33576">
        <ele>22</ele>
        <time>2020-06-17T09:49:29Z</time>
      </trkpt>
      <trkpt lat="49.28573" lon="-0.33569">
        <ele>22.1</ele>
        <time>2020-06-17T09:49:30Z</time>
      </trkpt>
      <trkpt lat="49.28571" lon="-0.33562">
        <ele>22.2</ele>
        <time>2020-06-17T09:49:31Z</time>
      </trkpt>
      <trkpt lat="49.28568" lon="-0.33554">
        <ele>22.3</ele>
        <time>2020-06-17T09:49:32Z</time>
      </trkpt>
      <trkpt lat="49.28565" lon="-0.33545">
        <ele>22.4</ele>
        <time>2020-06-17T09:49:33Z</time>
      </trkpt>
      <trkpt lat="49.28563" lon="-0.33536">
        <ele>22.5</ele>
        <time>2020-06-17T09:49:34Z</time>
      </trkpt>
      <trkpt lat="49.28561" lon="-0.33528">
        <ele>22.6</ele>
        <time>2020-06-17T09:49:35Z</time>
      </trkpt>
      <trkpt lat="49.28559" lon="-0.33519">
        <ele>22.6</ele>
        <time>2020-06-17T09:49:36Z</time>
      </trkpt>
      <trkpt lat="49.28556" lon="-0.33511">
        <ele>22.7</ele>
        <time>2020-06-17T09:49:37Z</time>
      </trkpt>
      <trkpt lat="49.28554" lon="-0.33503">
        <ele>22.8</ele>
        <time>2020-06-17T09:49:38Z</time>
      </trkpt>
      <trkpt lat="49.28552" lon="-0.33495">
        <ele>22.8</ele>
        <time>2020-06-17T09:49:39Z</time>
      </trkpt>
      <trkpt lat="49.2855" lon="-0.33487">
        <ele>22.9</ele>
        <time>2020-06-17T09:49:40Z</time>
      </trkpt>
      <trkpt lat="49.28548" lon="-0.3348">
        <ele>23</ele>
        <time>2020-06-17T09:49:41Z</time>
      </trkpt>
      <trkpt lat="49.28546" lon="-0.33472">
        <ele>23</ele>
        <time>2020-06-17T09:49:42Z</time>
      </trkpt>
      <trkpt lat="49.28544" lon="-0.33465">
        <ele>23.1</ele>
        <time>2020-06-17T09:49:43Z</time>
      </trkpt>
      <trkpt lat="49.28542" lon="-0.33456">
        <ele>23.2</ele>
        <time>2020-06-17T09:49:44Z</time>
      </trkpt>
      <trkpt lat="49.2854" lon="-0.33446">
        <ele>23.3</ele>
        <time>2020-06-17T09:49:45Z</time>
      </trkpt>
      <trkpt lat="49.28537" lon="-0.33436">
        <ele>23.4</ele>
        <time>2020-06-17T09:49:46Z</time>
      </trkpt>
      <trkpt lat="49.28535" lon="-0.33426">
        <ele>23.5</ele>
        <time>2020-06-17T09:49:47Z</time>
      </trkpt>
      <trkpt lat="49.28533" lon="-0.33417">
        <ele>23.5</ele>
        <time>2020-06-17T09:49:48Z</time>
      </trkpt>
      <trkpt lat="49.28531" lon="-0.33408">
        <ele>23.6</ele>
        <time>2020-06-17T09:49:49Z</time>
      </trkpt>
      <trkpt lat="49.28529" lon="-0.334">
        <ele>23.6</ele>
        <time>2020-06-17T09:49:50Z</time>
      </trkpt>
      <trkpt lat="49.28527" lon="-0.33392">
        <ele>23.6</ele>
        <time>2020-06-17T09:49:51Z</time>
      </trkpt>
      <trkpt lat="49.28525" lon="-0.33383">
        <ele>23.6</ele>
        <time>2020-06-17T09:49:52Z</time>
      </trkpt>
      <trkpt lat="49.28523" lon="-0.33374">
        <ele>23.6</ele>
        <time>2020-06-17T09:49:53Z</time>
      </trkpt>
      <trkpt lat="49.28521" lon="-0.33365">
        <ele>23.6</ele>
        <time>2020-06-17T09:49:54Z</time>
      </trkpt>
      <trkpt lat="49.28518" lon="-0.33355">
        <ele>23.6</ele>
        <time>2020-06-17T09:49:55Z</time>
      </trkpt>
      <trkpt lat="49.28516" lon="-0.33348">
        <ele>23.5</ele>
        <time>2020-06-17T09:49:56Z</time>
      </trkpt>
      <trkpt lat="49.28513" lon="-0.33339">
        <ele>23.5</ele>
        <time>2020-06-17T09:49:57Z</time>
      </trkpt>
      <trkpt lat="49.28509" lon="-0.33329">
        <ele>23.5</ele>
        <time>2020-06-17T09:49:58Z</time>
      </trkpt>
      <trkpt lat="49.28506" lon="-0.3332">
        <ele>23.5</ele>
        <time>2020-06-17T09:49:59Z</time>
      </trkpt>
      <trkpt lat="49.28503" lon="-0.3331">
        <ele>23.5</ele>
        <time>2020-06-17T09:50:00Z</time>
      </trkpt>
      <trkpt lat="49.28501" lon="-0.33301">
        <ele>23.4</ele>
        <time>2020-06-17T09:50:01Z</time>
      </trkpt>
      <trkpt lat="49.28498" lon="-0.33293">
        <ele>23.4</ele>
        <time>2020-06-17T09:50:02Z</time>
      </trkpt>
      <trkpt lat="49.28495" lon="-0.33283">
        <ele>23.3</ele>
        <time>2020-06-17T09:50:03Z</time>
      </trkpt>
      <trkpt lat="49.28492" lon="-0.33276">
        <ele>23.3</ele>
        <time>2020-06-17T09:50:04Z</time>
      </trkpt>
      <trkpt lat="49.28489" lon="-0.33267">
        <ele>23.3</ele>
        <time>2020-06-17T09:50:05Z</time>
      </trkpt>
      <trkpt lat="49.28486" lon="-0.33257">
        <ele>23.2</ele>
        <time>2020-06-17T09:50:06Z</time>
      </trkpt>
      <trkpt lat="49.28483" lon="-0.33247">
        <ele>23.2</ele>
        <time>2020-06-17T09:50:07Z</time>
      </trkpt>
      <trkpt lat="49.2848" lon="-0.33237">
        <ele>23.2</ele>
        <time>2020-06-17T09:50:08Z</time>
      </trkpt>
      <trkpt lat="49.28477" lon="-0.33227">
        <ele>23.2</ele>
        <time>2020-06-17T09:50:09Z</time>
      </trkpt>
      <trkpt lat="49.28474" lon="-0.33217">
        <ele>23.2</ele>
        <time>2020-06-17T09:50:10Z</time>
      </trkpt>
      <trkpt lat="49.28471" lon="-0.33209">
        <ele>23.2</ele>
        <time>2020-06-17T09:50:11Z</time>
      </trkpt>
      <trkpt lat="49.28468" lon="-0.332">
        <ele>23.2</ele>
        <time>2020-06-17T09:50:12Z</time>
      </trkpt>
      <trkpt lat="49.28465" lon="-0.33191">
        <ele>23.1</ele>
        <time>2020-06-17T09:50:13Z</time>
      </trkpt>
      <trkpt lat="49.28462" lon="-0.33182">
        <ele>23.1</ele>
        <time>2020-06-17T09:50:14Z</time>
      </trkpt>
      <trkpt lat="49.28458" lon="-0.33171">
        <ele>23.1</ele>
        <time>2020-06-17T09:50:15Z</time>
      </trkpt>
      <trkpt lat="49.28454" lon="-0.33162">
        <ele>23</ele>
        <time>2020-06-17T09:50:16Z</time>
      </trkpt>
      <trkpt lat="49.28451" lon="-0.33153">
        <ele>23</ele>
        <time>2020-06-17T09:50:17Z</time>
      </trkpt>
      <trkpt lat="49.28448" lon="-0.33143">
        <ele>22.9</ele>
        <time>2020-06-17T09:50:18Z</time>
      </trkpt>
      <trkpt lat="49.28444" lon="-0.33134">
        <ele>22.8</ele>
        <time>2020-06-17T09:50:19Z</time>
      </trkpt>
      <trkpt lat="49.28442" lon="-0.33124">
        <ele>22.6</ele>
        <time>2020-06-17T09:50:20Z</time>
      </trkpt>
      <trkpt lat="49.28438" lon="-0.33114">
        <ele>22.5</ele>
        <time>2020-06-17T09:50:21Z</time>
      </trkpt>
      <trkpt lat="49.28435" lon="-0.33104">
        <ele>22.4</ele>
        <time>2020-06-17T09:50:22Z</time>
      </trkpt>
      <trkpt lat="49.28432" lon="-0.33095">
        <ele>22.2</ele>
        <time>2020-06-17T09:50:23Z</time>
      </trkpt>
      <trkpt lat="49.28428" lon="-0.33087">
        <ele>22.1</ele>
        <time>2020-06-17T09:50:24Z</time>
      </trkpt>
      <trkpt lat="49.28425" lon="-0.33078">
        <ele>22</ele>
        <time>2020-06-17T09:50:25Z</time>
      </trkpt>
      <trkpt lat="49.28422" lon="-0.3307">
        <ele>22</ele>
        <time>2020-06-17T09:50:26Z</time>
      </trkpt>
      <trkpt lat="49.28419" lon="-0.33062">
        <ele>21.9</ele>
        <time>2020-06-17T09:50:27Z</time>
      </trkpt>
      <trkpt lat="49.28416" lon="-0.33052">
        <ele>21.8</ele>
        <time>2020-06-17T09:50:28Z</time>
      </trkpt>
      <trkpt lat="49.28414" lon="-0.33042">
        <ele>21.7</ele>
        <time>2020-06-17T09:50:29Z</time>
      </trkpt>
      <trkpt lat="49.28411" lon="-0.33032">
        <ele>21.6</ele>
        <time>2020-06-17T09:50:30Z</time>
      </trkpt>
      <trkpt lat="49.28408" lon="-0.33022">
        <ele>21.6</ele>
        <time>2020-06-17T09:50:31Z</time>
      </trkpt>
      <trkpt lat="49.28406" lon="-0.33011">
        <ele>21.6</ele>
        <time>2020-06-17T09:50:32Z</time>
      </trkpt>
      <trkpt lat="49.28404" lon="-0.33">
        <ele>21.6</ele>
        <time>2020-06-17T09:50:33Z</time>
      </trkpt>
      <trkpt lat="49.28402" lon="-0.3299">
        <ele>21.6</ele>
        <time>2020-06-17T09:50:34Z</time>
      </trkpt>
      <trkpt lat="49.28399" lon="-0.32979">
        <ele>21.3</ele>
        <time>2020-06-17T09:50:35Z</time>
      </trkpt>
      <trkpt lat="49.28396" lon="-0.32968">
        <ele>21.1</ele>
        <time>2020-06-17T09:50:36Z</time>
      </trkpt>
      <trkpt lat="49.28393" lon="-0.32956">
        <ele>20.9</ele>
        <time>2020-06-17T09:50:37Z</time>
      </trkpt>
      <trkpt lat="49.2839" lon="-0.32944">
        <ele>20.7</ele>
        <time>2020-06-17T09:50:38Z</time>
      </trkpt>
      <trkpt lat="49.28387" lon="-0.32933">
        <ele>20.5</ele>
        <time>2020-06-17T09:50:39Z</time>
      </trkpt>
      <trkpt lat="49.28385" lon="-0.32923">
        <ele>20.4</ele>
        <time>2020-06-17T09:50:40Z</time>
      </trkpt>
      <trkpt lat="49.28382" lon="-0.32911">
        <ele>20.2</ele>
        <time>2020-06-17T09:50:41Z</time>
      </trkpt>
      <trkpt lat="49.2838" lon="-0.329">
        <ele>20</ele>
        <time>2020-06-17T09:50:42Z</time>
      </trkpt>
      <trkpt lat="49.28378" lon="-0.32889">
        <ele>19.8</ele>
        <time>2020-06-17T09:50:43Z</time>
      </trkpt>
      <trkpt lat="49.28376" lon="-0.32879">
        <ele>19.6</ele>
        <time>2020-06-17T09:50:44Z</time>
      </trkpt>
      <trkpt lat="49.28374" lon="-0.32868">
        <ele>19.4</ele>
        <time>2020-06-17T09:50:45Z</time>
      </trkpt>
      <trkpt lat="49.28372" lon="-0.32858">
        <ele>19.2</ele>
        <time>2020-06-17T09:50:46Z</time>
      </trkpt>
      <trkpt lat="49.28369" lon="-0.32848">
        <ele>19</ele>
        <time>2020-06-17T09:50:47Z</time>
      </trkpt>
      <trkpt lat="49.28367" lon="-0.32837">
        <ele>18.8</ele>
        <time>2020-06-17T09:50:48Z</time>
      </trkpt>
      <trkpt lat="49.28364" lon="-0.32826">
        <ele>18.6</ele>
        <time>2020-06-17T09:50:49Z</time>
      </trkpt>
      <trkpt lat="49.28361" lon="-0.32815">
        <ele>18.4</ele>
        <time>2020-06-17T09:50:50Z</time>
      </trkpt>
      <trkpt lat="49.28358" lon="-0.32804">
        <ele>18.2</ele>
        <time>2020-06-17T09:50:51Z</time>
      </trkpt>
      <trkpt lat="49.28355" lon="-0.32791">
        <ele>18</ele>
        <time>2020-06-17T09:50:52Z</time>
      </trkpt>
      <trkpt lat="49.28353" lon="-0.32781">
        <ele>17.8</ele>
        <time>2020-06-17T09:50:53Z</time>
      </trkpt>
      <trkpt lat="49.28351" lon="-0.32769">
        <ele>17.7</ele>
        <time>2020-06-17T09:50:54Z</time>
      </trkpt>
      <trkpt lat="49.28348" lon="-0.32757">
        <ele>17.5</ele>
        <time>2020-06-17T09:50:55Z</time>
      </trkpt>
      <trkpt lat="49.28345" lon="-0.32746">
        <ele>17.4</ele>
        <time>2020-06-17T09:50:56Z</time>
      </trkpt>
      <trkpt lat="49.28343" lon="-0.32735">
        <ele>17.3</ele>
        <time>2020-06-17T09:50:57Z</time>
      </trkpt>
      <trkpt lat="49.2834" lon="-0.32723">
        <ele>17.1</ele>
        <time>2020-06-17T09:50:58Z</time>
      </trkpt>
      <trkpt lat="49.28337" lon="-0.32711">
        <ele>17</ele>
        <time>2020-06-17T09:50:59Z</time>
      </trkpt>
      <trkpt lat="49.28334" lon="-0.327">
        <ele>16.8</ele>
        <time>2020-06-17T09:51:00Z</time>
      </trkpt>
      <trkpt lat="49.28331" lon="-0.32689">
        <ele>16.7</ele>
        <time>2020-06-17T09:51:01Z</time>
      </trkpt>
      <trkpt lat="49.28327" lon="-0.32677">
        <ele>16.6</ele>
        <time>2020-06-17T09:51:02Z</time>
      </trkpt>
      <trkpt lat="49.28324" lon="-0.32665">
        <ele>16.5</ele>
        <time>2020-06-17T09:51:03Z</time>
      </trkpt>
      <trkpt lat="49.28321" lon="-0.32653">
        <ele>16.4</ele>
        <time>2020-06-17T09:51:04Z</time>
      </trkpt>
      <trkpt lat="49.28316" lon="-0.3264">
        <ele>16.3</ele>
        <time>2020-06-17T09:51:05Z</time>
      </trkpt>
      <trkpt lat="49.28312" lon="-0.32626">
        <ele>16.4</ele>
        <time>2020-06-17T09:51:06Z</time>
      </trkpt>
      <trkpt lat="49.28307" lon="-0.32615">
        <ele>16.4</ele>
        <time>2020-06-17T09:51:07Z</time>
      </trkpt>
      <trkpt lat="49.28303" lon="-0.32604">
        <ele>16.4</ele>
        <time>2020-06-17T09:51:08Z</time>
      </trkpt>
      <trkpt lat="49.28299" lon="-0.32594">
        <ele>16.4</ele>
        <time>2020-06-17T09:51:09Z</time>
      </trkpt>
      <trkpt lat="49.28296" lon="-0.32584">
        <ele>16.5</ele>
        <time>2020-06-17T09:51:10Z</time>
      </trkpt>
      <trkpt lat="49.28293" lon="-0.32574">
        <ele>16.4</ele>
        <time>2020-06-17T09:51:11Z</time>
      </trkpt>
      <trkpt lat="49.2829" lon="-0.32565">
        <ele>16.5</ele>
        <time>2020-06-17T09:51:12Z</time>
      </trkpt>
      <trkpt lat="49.28286" lon="-0.32552">
        <ele>16.5</ele>
        <time>2020-06-17T09:51:13Z</time>
      </trkpt>
      <trkpt lat="49.28283" lon="-0.32541">
        <ele>16.4</ele>
        <time>2020-06-17T09:51:14Z</time>
      </trkpt>
      <trkpt lat="49.28279" lon="-0.3253">
        <ele>16.4</ele>
        <time>2020-06-17T09:51:15Z</time>
      </trkpt>
      <trkpt lat="49.28276" lon="-0.32519">
        <ele>16.4</ele>
        <time>2020-06-17T09:51:16Z</time>
      </trkpt>
      <trkpt lat="49.28272" lon="-0.3251">
        <ele>16.4</ele>
        <time>2020-06-17T09:51:17Z</time>
      </trkpt>
      <trkpt lat="49.28269" lon="-0.32501">
        <ele>16.5</ele>
        <time>2020-06-17T09:51:18Z</time>
      </trkpt>
      <trkpt lat="49.28268" lon="-0.32491">
        <ele>16.6</ele>
        <time>2020-06-17T09:51:19Z</time>
      </trkpt>
      <trkpt lat="49.28266" lon="-0.32481">
        <ele>16.7</ele>
        <time>2020-06-17T09:51:20Z</time>
      </trkpt>
      <trkpt lat="49.28264" lon="-0.32471">
        <ele>16.7</ele>
        <time>2020-06-17T09:51:21Z</time>
      </trkpt>
      <trkpt lat="49.28261" lon="-0.32462">
        <ele>16.8</ele>
        <time>2020-06-17T09:51:22Z</time>
      </trkpt>
      <trkpt lat="49.28259" lon="-0.32453">
        <ele>16.9</ele>
        <time>2020-06-17T09:51:23Z</time>
      </trkpt>
      <trkpt lat="49.28257" lon="-0.32444">
        <ele>17</ele>
        <time>2020-06-17T09:51:24Z</time>
      </trkpt>
      <trkpt lat="49.28256" lon="-0.32435">
        <ele>17</ele>
        <time>2020-06-17T09:51:25Z</time>
      </trkpt>
      <trkpt lat="49.28253" lon="-0.32426">
        <ele>17.1</ele>
        <time>2020-06-17T09:51:26Z</time>
      </trkpt>
      <trkpt lat="49.28251" lon="-0.32415">
        <ele>17.2</ele>
        <time>2020-06-17T09:51:27Z</time>
      </trkpt>
      <trkpt lat="49.28249" lon="-0.32406">
        <ele>17.3</ele>
        <time>2020-06-17T09:51:28Z</time>
      </trkpt>
      <trkpt lat="49.28247" lon="-0.32398">
        <ele>17.4</ele>
        <time>2020-06-17T09:51:29Z</time>
      </trkpt>
      <trkpt lat="49.28245" lon="-0.3239">
        <ele>17.4</ele>
        <time>2020-06-17T09:51:30Z</time>
      </trkpt>
      <trkpt lat="49.28243" lon="-0.32382">
        <ele>17.5</ele>
        <time>2020-06-17T09:51:31Z</time>
      </trkpt>
      <trkpt lat="49.28241" lon="-0.32373">
        <ele>17.5</ele>
        <time>2020-06-17T09:51:32Z</time>
      </trkpt>
      <trkpt lat="49.28238" lon="-0.32364">
        <ele>17.5</ele>
        <time>2020-06-17T09:51:33Z</time>
      </trkpt>
      <trkpt lat="49.28235" lon="-0.32354">
        <ele>17.5</ele>
        <time>2020-06-17T09:51:34Z</time>
      </trkpt>
      <trkpt lat="49.28232" lon="-0.32342">
        <ele>17.6</ele>
        <time>2020-06-17T09:51:35Z</time>
      </trkpt>
      <trkpt lat="49.2823" lon="-0.32333">
        <ele>17.6</ele>
        <time>2020-06-17T09:51:36Z</time>
      </trkpt>
      <trkpt lat="49.28228" lon="-0.32324">
        <ele>17.6</ele>
        <time>2020-06-17T09:51:37Z</time>
      </trkpt>
      <trkpt lat="49.28226" lon="-0.32316">
        <ele>17.5</ele>
        <time>2020-06-17T09:51:38Z</time>
      </trkpt>
      <trkpt lat="49.28225" lon="-0.32307">
        <ele>17.5</ele>
        <time>2020-06-17T09:51:39Z</time>
      </trkpt>
      <trkpt lat="49.28223" lon="-0.32298">
        <ele>17.5</ele>
        <time>2020-06-17T09:51:40Z</time>
      </trkpt>
      <trkpt lat="49.28222" lon="-0.32289">
        <ele>17.5</ele>
        <time>2020-06-17T09:51:41Z</time>
      </trkpt>
      <trkpt lat="49.2822" lon="-0.3228">
        <ele>17.4</ele>
        <time>2020-06-17T09:51:42Z</time>
      </trkpt>
      <trkpt lat="49.28219" lon="-0.3227">
        <ele>17.4</ele>
        <time>2020-06-17T09:51:43Z</time>
      </trkpt>
      <trkpt lat="49.28217" lon="-0.32261">
        <ele>17.3</ele>
        <time>2020-06-17T09:51:44Z</time>
      </trkpt>
      <trkpt lat="49.28215" lon="-0.3225">
        <ele>17.1</ele>
        <time>2020-06-17T09:51:45Z</time>
      </trkpt>
      <trkpt lat="49.28213" lon="-0.32241">
        <ele>17</ele>
        <time>2020-06-17T09:51:46Z</time>
      </trkpt>
      <trkpt lat="49.28211" lon="-0.3223">
        <ele>17</ele>
        <time>2020-06-17T09:51:47Z</time>
      </trkpt>
      <trkpt lat="49.28208" lon="-0.3222">
        <ele>16.9</ele>
        <time>2020-06-17T09:51:48Z</time>
      </trkpt>
      <trkpt lat="49.28206" lon="-0.32209">
        <ele>16.8</ele>
        <time>2020-06-17T09:51:49Z</time>
      </trkpt>
      <trkpt lat="49.28204" lon="-0.32199">
        <ele>16.7</ele>
        <time>2020-06-17T09:51:50Z</time>
      </trkpt>
      <trkpt lat="49.28202" lon="-0.32189">
        <ele>16.6</ele>
        <time>2020-06-17T09:51:51Z</time>
      </trkpt>
      <trkpt lat="49.282" lon="-0.32178">
        <ele>16.4</ele>
        <time>2020-06-17T09:51:52Z</time>
      </trkpt>
      <trkpt lat="49.28197" lon="-0.32168">
        <ele>16.3</ele>
        <time>2020-06-17T09:51:53Z</time>
      </trkpt>
      <trkpt lat="49.28195" lon="-0.32158">
        <ele>16.1</ele>
        <time>2020-06-17T09:51:54Z</time>
      </trkpt>
      <trkpt lat="49.28193" lon="-0.32148">
        <ele>16</ele>
        <time>2020-06-17T09:51:55Z</time>
      </trkpt>
      <trkpt lat="49.2819" lon="-0.32137">
        <ele>15.8</ele>
        <time>2020-06-17T09:51:56Z</time>
      </trkpt>
      <trkpt lat="49.28187" lon="-0.32128">
        <ele>15.7</ele>
        <time>2020-06-17T09:51:57Z</time>
      </trkpt>
      <trkpt lat="49.28185" lon="-0.3212">
        <ele>15.6</ele>
        <time>2020-06-17T09:51:58Z</time>
      </trkpt>
      <trkpt lat="49.28182" lon="-0.32112">
        <ele>15.5</ele>
        <time>2020-06-17T09:51:59Z</time>
      </trkpt>
      <trkpt lat="49.2818" lon="-0.32104">
        <ele>15.5</ele>
        <time>2020-06-17T09:52:00Z</time>
      </trkpt>
      <trkpt lat="49.28178" lon="-0.32095">
        <ele>15.4</ele>
        <time>2020-06-17T09:52:01Z</time>
      </trkpt>
      <trkpt lat="49.28175" lon="-0.32086">
        <ele>15.3</ele>
        <time>2020-06-17T09:52:02Z</time>
      </trkpt>
      <trkpt lat="49.28172" lon="-0.32078">
        <ele>15.2</ele>
        <time>2020-06-17T09:52:03Z</time>
      </trkpt>
      <trkpt lat="49.28169" lon="-0.32069">
        <ele>15.1</ele>
        <time>2020-06-17T09:52:04Z</time>
      </trkpt>
      <trkpt lat="49.28166" lon="-0.32058">
        <ele>15</ele>
        <time>2020-06-17T09:52:05Z</time>
      </trkpt>
      <trkpt lat="49.28163" lon="-0.32047">
        <ele>14.9</ele>
        <time>2020-06-17T09:52:06Z</time>
      </trkpt>
      <trkpt lat="49.2816" lon="-0.32038">
        <ele>14.8</ele>
        <time>2020-06-17T09:52:07Z</time>
      </trkpt>
      <trkpt lat="49.28157" lon="-0.32028">
        <ele>14.8</ele>
        <time>2020-06-17T09:52:08Z</time>
      </trkpt>
      <trkpt lat="49.28154" lon="-0.32017">
        <ele>14.8</ele>
        <time>2020-06-17T09:52:09Z</time>
      </trkpt>
      <trkpt lat="49.28152" lon="-0.32006">
        <ele>14.8</ele>
        <time>2020-06-17T09:52:10Z</time>
      </trkpt>
      <trkpt lat="49.28149" lon="-0.31996">
        <ele>14.6</ele>
        <time>2020-06-17T09:52:11Z</time>
      </trkpt>
      <trkpt lat="49.28146" lon="-0.31987">
        <ele>14.5</ele>
        <time>2020-06-17T09:52:12Z</time>
      </trkpt>
      <trkpt lat="49.28143" lon="-0.31978">
        <ele>14.4</ele>
        <time>2020-06-17T09:52:13Z</time>
      </trkpt>
      <trkpt lat="49.2814" lon="-0.31969">
        <ele>14.3</ele>
        <time>2020-06-17T09:52:14Z</time>
      </trkpt>
      <trkpt lat="49.28137" lon="-0.3196">
        <ele>14.3</ele>
        <time>2020-06-17T09:52:15Z</time>
      </trkpt>
      <trkpt lat="49.28133" lon="-0.31948">
        <ele>14.2</ele>
        <time>2020-06-17T09:52:16Z</time>
      </trkpt>
      <trkpt lat="49.2813" lon="-0.31935">
        <ele>14.2</ele>
        <time>2020-06-17T09:52:17Z</time>
      </trkpt>
      <trkpt lat="49.28128" lon="-0.31925">
        <ele>14.1</ele>
        <time>2020-06-17T09:52:18Z</time>
      </trkpt>
      <trkpt lat="49.28125" lon="-0.31915">
        <ele>14.1</ele>
        <time>2020-06-17T09:52:19Z</time>
      </trkpt>
      <trkpt lat="49.28123" lon="-0.31904">
        <ele>14.1</ele>
        <time>2020-06-17T09:52:20Z</time>
      </trkpt>
      <trkpt lat="49.2812" lon="-0.31895">
        <ele>14.1</ele>
        <time>2020-06-17T09:52:21Z</time>
      </trkpt>
      <trkpt lat="49.28117" lon="-0.31885">
        <ele>14.1</ele>
        <time>2020-06-17T09:52:22Z</time>
      </trkpt>
      <trkpt lat="49.28114" lon="-0.31875">
        <ele>14.1</ele>
        <time>2020-06-17T09:52:23Z</time>
      </trkpt>
      <trkpt lat="49.28111" lon="-0.31866">
        <ele>14.1</ele>
        <time>2020-06-17T09:52:24Z</time>
      </trkpt>
      <trkpt lat="49.28108" lon="-0.31856">
        <ele>14.1</ele>
        <time>2020-06-17T09:52:25Z</time>
      </trkpt>
      <trkpt lat="49.28105" lon="-0.31846">
        <ele>14.1</ele>
        <time>2020-06-17T09:52:26Z</time>
      </trkpt>
      <trkpt lat="49.28102" lon="-0.31837">
        <ele>14.2</ele>
        <time>2020-06-17T09:52:27Z</time>
      </trkpt>
      <trkpt lat="49.281" lon="-0.31829">
        <ele>14.2</ele>
        <time>2020-06-17T09:52:28Z</time>
      </trkpt>
      <trkpt lat="49.28097" lon="-0.31821">
        <ele>14.2</ele>
        <time>2020-06-17T09:52:29Z</time>
      </trkpt>
      <trkpt lat="49.28095" lon="-0.31813">
        <ele>14.2</ele>
        <time>2020-06-17T09:52:30Z</time>
      </trkpt>
      <trkpt lat="49.28093" lon="-0.31808">
        <ele>14.2</ele>
        <time>2020-06-17T09:52:31Z</time>
      </trkpt>
      <trkpt lat="49.2809" lon="-0.31801">
        <ele>14.3</ele>
        <time>2020-06-17T09:52:32Z</time>
      </trkpt>
      <trkpt lat="49.28088" lon="-0.31795">
        <ele>14.3</ele>
        <time>2020-06-17T09:52:33Z</time>
      </trkpt>
      <trkpt lat="49.28087" lon="-0.3179">
        <ele>14.3</ele>
        <time>2020-06-17T09:52:34Z</time>
      </trkpt>
      <trkpt lat="49.28084" lon="-0.31783">
        <ele>14.3</ele>
        <time>2020-06-17T09:52:35Z</time>
      </trkpt>
      <trkpt lat="49.28082" lon="-0.31777">
        <ele>14.3</ele>
        <time>2020-06-17T09:52:36Z</time>
      </trkpt>
      <trkpt lat="49.28081" lon="-0.31771">
        <ele>14.3</ele>
        <time>2020-06-17T09:52:37Z</time>
      </trkpt>
      <trkpt lat="49.28081" lon="-0.31767">
        <ele>14.3</ele>
        <time>2020-06-17T09:52:38Z</time>
      </trkpt>
      <trkpt lat="49.28081" lon="-0.31762">
        <ele>14.2</ele>
        <time>2020-06-17T09:52:39Z</time>
      </trkpt>
      <trkpt lat="49.28081" lon="-0.31757">
        <ele>14.2</ele>
        <time>2020-06-17T09:52:40Z</time>
      </trkpt>
      <trkpt lat="49.28083" lon="-0.31752">
        <ele>14.2</ele>
        <time>2020-06-17T09:52:41Z</time>
      </trkpt>
      <trkpt lat="49.28085" lon="-0.31748">
        <ele>14.1</ele>
        <time>2020-06-17T09:52:42Z</time>
      </trkpt>
      <trkpt lat="49.28087" lon="-0.31744">
        <ele>14.1</ele>
        <time>2020-06-17T09:52:43Z</time>
      </trkpt>
      <trkpt lat="49.2809" lon="-0.31739">
        <ele>14.1</ele>
        <time>2020-06-17T09:52:44Z</time>
      </trkpt>
      <trkpt lat="49.28091" lon="-0.31733">
        <ele>14</ele>
        <time>2020-06-17T09:52:45Z</time>
      </trkpt>
      <trkpt lat="49.28091" lon="-0.31731">
        <ele>14</ele>
        <time>2020-06-17T09:52:46Z</time>
      </trkpt>
      <trkpt lat="49.2809" lon="-0.31727">
        <ele>14</ele>
        <time>2020-06-17T09:52:47Z</time>
      </trkpt>
      <trkpt lat="49.28087" lon="-0.31724">
        <ele>13.9</ele>
        <time>2020-06-17T09:52:48Z</time>
      </trkpt>
      <trkpt lat="49.28083" lon="-0.31721">
        <ele>13.9</ele>
        <time>2020-06-17T09:52:49Z</time>
      </trkpt>
      <trkpt lat="49.28081" lon="-0.31719">
        <ele>13.9</ele>
        <time>2020-06-17T09:52:50Z</time>
      </trkpt>
      <trkpt lat="49.28078" lon="-0.31713">
        <ele>13.9</ele>
        <time>2020-06-17T09:52:51Z</time>
      </trkpt>
      <trkpt lat="49.28076" lon="-0.31705">
        <ele>13.9</ele>
        <time>2020-06-17T09:52:52Z</time>
      </trkpt>
      <trkpt lat="49.28073" lon="-0.317">
        <ele>13.9</ele>
        <time>2020-06-17T09:52:53Z</time>
      </trkpt>
      <trkpt lat="49.2807" lon="-0.31694">
        <ele>13.9</ele>
        <time>2020-06-17T09:52:54Z</time>
      </trkpt>
      <trkpt lat="49.28068" lon="-0.31688">
        <ele>13.9</ele>
        <time>2020-06-17T09:52:55Z</time>
      </trkpt>
      <trkpt lat="49.28065" lon="-0.31681">
        <ele>13.9</ele>
        <time>2020-06-17T09:52:56Z</time>
      </trkpt>
      <trkpt lat="49.28062" lon="-0.31673">
        <ele>13.9</ele>
        <time>2020-06-17T09:52:57Z</time>
      </trkpt>
      <trkpt lat="49.28059" lon="-0.31667">
        <ele>13.9</ele>
        <time>2020-06-17T09:52:58Z</time>
      </trkpt>
      <trkpt lat="49.28057" lon="-0.3166">
        <ele>13.9</ele>
        <time>2020-06-17T09:52:59Z</time>
      </trkpt>
      <trkpt lat="49.28055" lon="-0.31652">
        <ele>13.9</ele>
        <time>2020-06-17T09:53:00Z</time>
      </trkpt>
      <trkpt lat="49.28054" lon="-0.31645">
        <ele>13.9</ele>
        <time>2020-06-17T09:53:01Z</time>
      </trkpt>
      <trkpt lat="49.28052" lon="-0.31638">
        <ele>14</ele>
        <time>2020-06-17T09:53:02Z</time>
      </trkpt>
      <trkpt lat="49.2805" lon="-0.31632">
        <ele>14</ele>
        <time>2020-06-17T09:53:03Z</time>
      </trkpt>
      <trkpt lat="49.28049" lon="-0.31626">
        <ele>14.1</ele>
        <time>2020-06-17T09:53:04Z</time>
      </trkpt>
      <trkpt lat="49.28047" lon="-0.31618">
        <ele>14.1</ele>
        <time>2020-06-17T09:53:05Z</time>
      </trkpt>
      <trkpt lat="49.28046" lon="-0.3161">
        <ele>14.2</ele>
        <time>2020-06-17T09:53:06Z</time>
      </trkpt>
      <trkpt lat="49.28044" lon="-0.31603">
        <ele>14.2</ele>
        <time>2020-06-17T09:53:07Z</time>
      </trkpt>
      <trkpt lat="49.28043" lon="-0.31596">
        <ele>14.3</ele>
        <time>2020-06-17T09:53:08Z</time>
      </trkpt>
      <trkpt lat="49.28041" lon="-0.31589">
        <ele>14.3</ele>
        <time>2020-06-17T09:53:09Z</time>
      </trkpt>
      <trkpt lat="49.28039" lon="-0.31581">
        <ele>14.4</ele>
        <time>2020-06-17T09:53:10Z</time>
      </trkpt>
      <trkpt lat="49.28036" lon="-0.31573">
        <ele>14.4</ele>
        <time>2020-06-17T09:53:11Z</time>
      </trkpt>
      <trkpt lat="49.28034" lon="-0.31564">
        <ele>14.5</ele>
        <time>2020-06-17T09:53:12Z</time>
      </trkpt>
      <trkpt lat="49.28032" lon="-0.31556">
        <ele>14.5</ele>
        <time>2020-06-17T09:53:13Z</time>
      </trkpt>
      <trkpt lat="49.2803" lon="-0.31548">
        <ele>14.5</ele>
        <time>2020-06-17T09:53:14Z</time>
      </trkpt>
      <trkpt lat="49.28029" lon="-0.3154">
        <ele>14.5</ele>
        <time>2020-06-17T09:53:15Z</time>
      </trkpt>
      <trkpt lat="49.28027" lon="-0.31532">
        <ele>14.5</ele>
        <time>2020-06-17T09:53:16Z</time>
      </trkpt>
      <trkpt lat="49.28025" lon="-0.31524">
        <ele>14.5</ele>
        <time>2020-06-17T09:53:17Z</time>
      </trkpt>
      <trkpt lat="49.28024" lon="-0.31516">
        <ele>14.5</ele>
        <time>2020-06-17T09:53:18Z</time>
      </trkpt>
      <trkpt lat="49.28022" lon="-0.31508">
        <ele>14.6</ele>
        <time>2020-06-17T09:53:19Z</time>
      </trkpt>
      <trkpt lat="49.2802" lon="-0.315">
        <ele>14.6</ele>
        <time>2020-06-17T09:53:20Z</time>
      </trkpt>
      <trkpt lat="49.28019" lon="-0.31492">
        <ele>14.7</ele>
        <time>2020-06-17T09:53:21Z</time>
      </trkpt>
      <trkpt lat="49.28017" lon="-0.31484">
        <ele>14.8</ele>
        <time>2020-06-17T09:53:22Z</time>
      </trkpt>
      <trkpt lat="49.28016" lon="-0.31476">
        <ele>14.8</ele>
        <time>2020-06-17T09:53:23Z</time>
      </trkpt>
      <trkpt lat="49.28014" lon="-0.31468">
        <ele>14.9</ele>
        <time>2020-06-17T09:53:24Z</time>
      </trkpt>
      <trkpt lat="49.28012" lon="-0.31461">
        <ele>14.9</ele>
        <time>2020-06-17T09:53:25Z</time>
      </trkpt>
      <trkpt lat="49.28011" lon="-0.31455">
        <ele>15</ele>
        <time>2020-06-17T09:53:26Z</time>
      </trkpt>
      <trkpt lat="49.28009" lon="-0.31448">
        <ele>15.1</ele>
        <time>2020-06-17T09:53:27Z</time>
      </trkpt>
      <trkpt lat="49.28007" lon="-0.31441">
        <ele>15.2</ele>
        <time>2020-06-17T09:53:28Z</time>
      </trkpt>
      <trkpt lat="49.28005" lon="-0.31434">
        <ele>15.3</ele>
        <time>2020-06-17T09:53:29Z</time>
      </trkpt>
      <trkpt lat="49.28003" lon="-0.31427">
        <ele>15.4</ele>
        <time>2020-06-17T09:53:30Z</time>
      </trkpt>
      <trkpt lat="49.28001" lon="-0.3142">
        <ele>15.4</ele>
        <time>2020-06-17T09:53:31Z</time>
      </trkpt>
      <trkpt lat="49.27999" lon="-0.31412">
        <ele>15.4</ele>
        <time>2020-06-17T09:53:32Z</time>
      </trkpt>
      <trkpt lat="49.27998" lon="-0.31405">
        <ele>15.4</ele>
        <time>2020-06-17T09:53:33Z</time>
      </trkpt>
      <trkpt lat="49.27996" lon="-0.31397">
        <ele>15.3</ele>
        <time>2020-06-17T09:53:34Z</time>
      </trkpt>
      <trkpt lat="49.27994" lon="-0.31389">
        <ele>15.3</ele>
        <time>2020-06-17T09:53:35Z</time>
      </trkpt>
      <trkpt lat="49.27992" lon="-0.31382">
        <ele>15.3</ele>
        <time>2020-06-17T09:53:36Z</time>
      </trkpt>
      <trkpt lat="49.27989" lon="-0.31375">
        <ele>15.3</ele>
        <time>2020-06-17T09:53:37Z</time>
      </trkpt>
      <trkpt lat="49.27986" lon="-0.31369">
        <ele>15.4</ele>
        <time>2020-06-17T09:53:38Z</time>
      </trkpt>
      <trkpt lat="49.27983" lon="-0.31362">
        <ele>15.4</ele>
        <time>2020-06-17T09:53:39Z</time>
      </trkpt>
      <trkpt lat="49.27981" lon="-0.31356">
        <ele>15.4</ele>
        <time>2020-06-17T09:53:40Z</time>
      </trkpt>
      <trkpt lat="49.2798" lon="-0.31351">
        <ele>15.4</ele>
        <time>2020-06-17T09:53:41Z</time>
      </trkpt>
      <trkpt lat="49.27977" lon="-0.31344">
        <ele>15.5</ele>
        <time>2020-06-17T09:53:42Z</time>
      </trkpt>
      <trkpt lat="49.27975" lon="-0.31336">
        <ele>15.5</ele>
        <time>2020-06-17T09:53:43Z</time>
      </trkpt>
      <trkpt lat="49.27973" lon="-0.31328">
        <ele>15.6</ele>
        <time>2020-06-17T09:53:44Z</time>
      </trkpt>
      <trkpt lat="49.2797" lon="-0.31318">
        <ele>15.7</ele>
        <time>2020-06-17T09:53:45Z</time>
      </trkpt>
      <trkpt lat="49.27968" lon="-0.31309">
        <ele>15.7</ele>
        <time>2020-06-17T09:53:46Z</time>
      </trkpt>
      <trkpt lat="49.27966" lon="-0.313">
        <ele>15.7</ele>
        <time>2020-06-17T09:53:47Z</time>
      </trkpt>
      <trkpt lat="49.27964" lon="-0.31291">
        <ele>15.8</ele>
        <time>2020-06-17T09:53:48Z</time>
      </trkpt>
      <trkpt lat="49.27962" lon="-0.31281">
        <ele>15.8</ele>
        <time>2020-06-17T09:53:49Z</time>
      </trkpt>
      <trkpt lat="49.27959" lon="-0.31271">
        <ele>15.8</ele>
        <time>2020-06-17T09:53:50Z</time>
      </trkpt>
      <trkpt lat="49.27957" lon="-0.3126">
        <ele>15.9</ele>
        <time>2020-06-17T09:53:51Z</time>
      </trkpt>
      <trkpt lat="49.27954" lon="-0.3125">
        <ele>15.9</ele>
        <time>2020-06-17T09:53:52Z</time>
      </trkpt>
      <trkpt lat="49.27951" lon="-0.31241">
        <ele>16</ele>
        <time>2020-06-17T09:53:53Z</time>
      </trkpt>
      <trkpt lat="49.27948" lon="-0.31232">
        <ele>16</ele>
        <time>2020-06-17T09:53:54Z</time>
      </trkpt>
      <trkpt lat="49.27946" lon="-0.31223">
        <ele>15.9</ele>
        <time>2020-06-17T09:53:55Z</time>
      </trkpt>
      <trkpt lat="49.27944" lon="-0.31215">
        <ele>15.9</ele>
        <time>2020-06-17T09:53:56Z</time>
      </trkpt>
      <trkpt lat="49.27942" lon="-0.31206">
        <ele>15.9</ele>
        <time>2020-06-17T09:53:57Z</time>
      </trkpt>
      <trkpt lat="49.2794" lon="-0.31197">
        <ele>15.8</ele>
        <time>2020-06-17T09:53:58Z</time>
      </trkpt>
      <trkpt lat="49.27937" lon="-0.31188">
        <ele>15.8</ele>
        <time>2020-06-17T09:53:59Z</time>
      </trkpt>
      <trkpt lat="49.27934" lon="-0.31181">
        <ele>15.8</ele>
        <time>2020-06-17T09:54:00Z</time>
      </trkpt>
      <trkpt lat="49.27932" lon="-0.31173">
        <ele>15.7</ele>
        <time>2020-06-17T09:54:01Z</time>
      </trkpt>
      <trkpt lat="49.27929" lon="-0.31164">
        <ele>15.7</ele>
        <time>2020-06-17T09:54:02Z</time>
      </trkpt>
      <trkpt lat="49.27927" lon="-0.31155">
        <ele>15.7</ele>
        <time>2020-06-17T09:54:03Z</time>
      </trkpt>
      <trkpt lat="49.27925" lon="-0.31147">
        <ele>15.6</ele>
        <time>2020-06-17T09:54:04Z</time>
      </trkpt>
      <trkpt lat="49.27922" lon="-0.31138">
        <ele>15.6</ele>
        <time>2020-06-17T09:54:05Z</time>
      </trkpt>
      <trkpt lat="49.2792" lon="-0.3113">
        <ele>15.6</ele>
        <time>2020-06-17T09:54:06Z</time>
      </trkpt>
      <trkpt lat="49.27918" lon="-0.31122">
        <ele>15.6</ele>
        <time>2020-06-17T09:54:07Z</time>
      </trkpt>
      <trkpt lat="49.27916" lon="-0.31114">
        <ele>15.5</ele>
        <time>2020-06-17T09:54:08Z</time>
      </trkpt>
      <trkpt lat="49.27913" lon="-0.31105">
        <ele>15.5</ele>
        <time>2020-06-17T09:54:09Z</time>
      </trkpt>
      <trkpt lat="49.27911" lon="-0.31097">
        <ele>15.5</ele>
        <time>2020-06-17T09:54:10Z</time>
      </trkpt>
      <trkpt lat="49.27909" lon="-0.31089">
        <ele>15.4</ele>
        <time>2020-06-17T09:54:11Z</time>
      </trkpt>
      <trkpt lat="49.27906" lon="-0.3108">
        <ele>15.3</ele>
        <time>2020-06-17T09:54:12Z</time>
      </trkpt>
      <trkpt lat="49.27903" lon="-0.31071">
        <ele>15.3</ele>
        <time>2020-06-17T09:54:13Z</time>
      </trkpt>
      <trkpt lat="49.279" lon="-0.31061">
        <ele>15.2</ele>
        <time>2020-06-17T09:54:14Z</time>
      </trkpt>
      <trkpt lat="49.27897" lon="-0.31053">
        <ele>15.1</ele>
        <time>2020-06-17T09:54:15Z</time>
      </trkpt>
      <trkpt lat="49.27894" lon="-0.31043">
        <ele>15</ele>
        <time>2020-06-17T09:54:16Z</time>
      </trkpt>
      <trkpt lat="49.2789" lon="-0.31033">
        <ele>14.9</ele>
        <time>2020-06-17T09:54:17Z</time>
      </trkpt>
      <trkpt lat="49.27887" lon="-0.31025">
        <ele>14.9</ele>
        <time>2020-06-17T09:54:18Z</time>
      </trkpt>
      <trkpt lat="49.27884" lon="-0.31015">
        <ele>14.9</ele>
        <time>2020-06-17T09:54:19Z</time>
      </trkpt>
      <trkpt lat="49.27882" lon="-0.31006">
        <ele>14.9</ele>
        <time>2020-06-17T09:54:20Z</time>
      </trkpt>
      <trkpt lat="49.2788" lon="-0.30996">
        <ele>15</ele>
        <time>2020-06-17T09:54:21Z</time>
      </trkpt>
      <trkpt lat="49.27878" lon="-0.30986">
        <ele>14.9</ele>
        <time>2020-06-17T09:54:22Z</time>
      </trkpt>
      <trkpt lat="49.27875" lon="-0.30975">
        <ele>14.9</ele>
        <time>2020-06-17T09:54:23Z</time>
      </trkpt>
      <trkpt lat="49.27873" lon="-0.30966">
        <ele>14.8</ele>
        <time>2020-06-17T09:54:24Z</time>
      </trkpt>
      <trkpt lat="49.2787" lon="-0.30956">
        <ele>14.7</ele>
        <time>2020-06-17T09:54:25Z</time>
      </trkpt>
      <trkpt lat="49.27868" lon="-0.30947">
        <ele>14.7</ele>
        <time>2020-06-17T09:54:26Z</time>
      </trkpt>
      <trkpt lat="49.27865" lon="-0.30938">
        <ele>14.6</ele>
        <time>2020-06-17T09:54:27Z</time>
      </trkpt>
      <trkpt lat="49.27863" lon="-0.30928">
        <ele>14.6</ele>
        <time>2020-06-17T09:54:28Z</time>
      </trkpt>
      <trkpt lat="49.27861" lon="-0.30919">
        <ele>14.5</ele>
        <time>2020-06-17T09:54:29Z</time>
      </trkpt>
      <trkpt lat="49.27858" lon="-0.30911">
        <ele>14.5</ele>
        <time>2020-06-17T09:54:30Z</time>
      </trkpt>
      <trkpt lat="49.27856" lon="-0.30904">
        <ele>14.5</ele>
        <time>2020-06-17T09:54:31Z</time>
      </trkpt>
      <trkpt lat="49.27853" lon="-0.30896">
        <ele>14.5</ele>
        <time>2020-06-17T09:54:32Z</time>
      </trkpt>
      <trkpt lat="49.27851" lon="-0.30888">
        <ele>14.5</ele>
        <time>2020-06-17T09:54:33Z</time>
      </trkpt>
      <trkpt lat="49.27849" lon="-0.30879">
        <ele>14.4</ele>
        <time>2020-06-17T09:54:34Z</time>
      </trkpt>
      <trkpt lat="49.27847" lon="-0.30871">
        <ele>14.4</ele>
        <time>2020-06-17T09:54:35Z</time>
      </trkpt>
      <trkpt lat="49.27844" lon="-0.30862">
        <ele>14.5</ele>
        <time>2020-06-17T09:54:36Z</time>
      </trkpt>
      <trkpt lat="49.27842" lon="-0.30854">
        <ele>14.5</ele>
        <time>2020-06-17T09:54:37Z</time>
      </trkpt>
      <trkpt lat="49.27839" lon="-0.30847">
        <ele>14.5</ele>
        <time>2020-06-17T09:54:38Z</time>
      </trkpt>
      <trkpt lat="49.27838" lon="-0.30839">
        <ele>14.6</ele>
        <time>2020-06-17T09:54:39Z</time>
      </trkpt>
      <trkpt lat="49.27835" lon="-0.30833">
        <ele>14.7</ele>
        <time>2020-06-17T09:54:40Z</time>
      </trkpt>
      <trkpt lat="49.27833" lon="-0.30824">
        <ele>14.8</ele>
        <time>2020-06-17T09:54:41Z</time>
      </trkpt>
      <trkpt lat="49.2783" lon="-0.30816">
        <ele>14.8</ele>
        <time>2020-06-17T09:54:42Z</time>
      </trkpt>
      <trkpt lat="49.27829" lon="-0.30809">
        <ele>14.8</ele>
        <time>2020-06-17T09:54:43Z</time>
      </trkpt>
      <trkpt lat="49.27827" lon="-0.30803">
        <ele>14.8</ele>
        <time>2020-06-17T09:54:44Z</time>
      </trkpt>
      <trkpt lat="49.27825" lon="-0.30795">
        <ele>14.9</ele>
        <time>2020-06-17T09:54:45Z</time>
      </trkpt>
      <trkpt lat="49.27824" lon="-0.30789">
        <ele>14.9</ele>
        <time>2020-06-17T09:54:46Z</time>
      </trkpt>
      <trkpt lat="49.27822" lon="-0.30782">
        <ele>14.9</ele>
        <time>2020-06-17T09:54:47Z</time>
      </trkpt>
      <trkpt lat="49.2782" lon="-0.30775">
        <ele>15</ele>
        <time>2020-06-17T09:54:48Z</time>
      </trkpt>
      <trkpt lat="49.27818" lon="-0.30767">
        <ele>15</ele>
        <time>2020-06-17T09:54:49Z</time>
      </trkpt>
      <trkpt lat="49.27816" lon="-0.30759">
        <ele>15</ele>
        <time>2020-06-17T09:54:50Z</time>
      </trkpt>
      <trkpt lat="49.27814" lon="-0.30752">
        <ele>15</ele>
        <time>2020-06-17T09:54:51Z</time>
      </trkpt>
      <trkpt lat="49.27812" lon="-0.30744">
        <ele>15</ele>
        <time>2020-06-17T09:54:52Z</time>
      </trkpt>
      <trkpt lat="49.27809" lon="-0.30735">
        <ele>15</ele>
        <time>2020-06-17T09:54:53Z</time>
      </trkpt>
      <trkpt lat="49.27807" lon="-0.30726">
        <ele>15</ele>
        <time>2020-06-17T09:54:54Z</time>
      </trkpt>
      <trkpt lat="49.27805" lon="-0.30718">
        <ele>14.9</ele>
        <time>2020-06-17T09:54:55Z</time>
      </trkpt>
      <trkpt lat="49.27804" lon="-0.3071">
        <ele>14.9</ele>
        <time>2020-06-17T09:54:56Z</time>
      </trkpt>
      <trkpt lat="49.27802" lon="-0.30702">
        <ele>14.9</ele>
        <time>2020-06-17T09:54:57Z</time>
      </trkpt>
      <trkpt lat="49.278" lon="-0.30693">
        <ele>14.9</ele>
        <time>2020-06-17T09:54:58Z</time>
      </trkpt>
      <trkpt lat="49.27799" lon="-0.30685">
        <ele>14.8</ele>
        <time>2020-06-17T09:54:59Z</time>
      </trkpt>
      <trkpt lat="49.27798" lon="-0.30677">
        <ele>14.8</ele>
        <time>2020-06-17T09:55:00Z</time>
      </trkpt>
      <trkpt lat="49.27796" lon="-0.3067">
        <ele>14.8</ele>
        <time>2020-06-17T09:55:01Z</time>
      </trkpt>
      <trkpt lat="49.27794" lon="-0.30662">
        <ele>14.8</ele>
        <time>2020-06-17T09:55:02Z</time>
      </trkpt>
      <trkpt lat="49.27793" lon="-0.30655">
        <ele>14.8</ele>
        <time>2020-06-17T09:55:03Z</time>
      </trkpt>
      <trkpt lat="49.27792" lon="-0.30648">
        <ele>14.8</ele>
        <time>2020-06-17T09:55:04Z</time>
      </trkpt>
      <trkpt lat="49.27791" lon="-0.30642">
        <ele>14.8</ele>
        <time>2020-06-17T09:55:05Z</time>
      </trkpt>
      <trkpt lat="49.27789" lon="-0.30635">
        <ele>14.8</ele>
        <time>2020-06-17T09:55:06Z</time>
      </trkpt>
      <trkpt lat="49.27788" lon="-0.30629">
        <ele>14.7</ele>
        <time>2020-06-17T09:55:07Z</time>
      </trkpt>
      <trkpt lat="49.27786" lon="-0.30622">
        <ele>14.7</ele>
        <time>2020-06-17T09:55:08Z</time>
      </trkpt>
      <trkpt lat="49.27785" lon="-0.30616">
        <ele>14.6</ele>
        <time>2020-06-17T09:55:09Z</time>
      </trkpt>
      <trkpt lat="49.27784" lon="-0.30609">
        <ele>14.6</ele>
        <time>2020-06-17T09:55:10Z</time>
      </trkpt>
      <trkpt lat="49.27783" lon="-0.30601">
        <ele>14.5</ele>
        <time>2020-06-17T09:55:11Z</time>
      </trkpt>
      <trkpt lat="49.27782" lon="-0.30593">
        <ele>14.5</ele>
        <time>2020-06-17T09:55:12Z</time>
      </trkpt>
      <trkpt lat="49.27781" lon="-0.30586">
        <ele>14.4</ele>
        <time>2020-06-17T09:55:13Z</time>
      </trkpt>
      <trkpt lat="49.27779" lon="-0.30578">
        <ele>14.3</ele>
        <time>2020-06-17T09:55:14Z</time>
      </trkpt>
      <trkpt lat="49.27778" lon="-0.30571">
        <ele>14.3</ele>
        <time>2020-06-17T09:55:15Z</time>
      </trkpt>
      <trkpt lat="49.27776" lon="-0.30563">
        <ele>14.2</ele>
        <time>2020-06-17T09:55:16Z</time>
      </trkpt>
      <trkpt lat="49.27774" lon="-0.30557">
        <ele>14.2</ele>
        <time>2020-06-17T09:55:17Z</time>
      </trkpt>
      <trkpt lat="49.27772" lon="-0.30551">
        <ele>14.2</ele>
        <time>2020-06-17T09:55:18Z</time>
      </trkpt>
      <trkpt lat="49.2777" lon="-0.30546">
        <ele>14.1</ele>
        <time>2020-06-17T09:55:19Z</time>
      </trkpt>
      <trkpt lat="49.27769" lon="-0.3054">
        <ele>14.1</ele>
        <time>2020-06-17T09:55:20Z</time>
      </trkpt>
      <trkpt lat="49.27767" lon="-0.30534">
        <ele>14.2</ele>
        <time>2020-06-17T09:55:21Z</time>
      </trkpt>
      <trkpt lat="49.27765" lon="-0.30528">
        <ele>14.2</ele>
        <time>2020-06-17T09:55:22Z</time>
      </trkpt>
      <trkpt lat="49.27764" lon="-0.30522">
        <ele>14.2</ele>
        <time>2020-06-17T09:55:23Z</time>
      </trkpt>
      <trkpt lat="49.27762" lon="-0.30516">
        <ele>14.2</ele>
        <time>2020-06-17T09:55:24Z</time>
      </trkpt>
      <trkpt lat="49.27761" lon="-0.3051">
        <ele>14.2</ele>
        <time>2020-06-17T09:55:25Z</time>
      </trkpt>
      <trkpt lat="49.27759" lon="-0.30504">
        <ele>14.2</ele>
        <time>2020-06-17T09:55:26Z</time>
      </trkpt>
      <trkpt lat="49.27758" lon="-0.30498">
        <ele>14.2</ele>
        <time>2020-06-17T09:55:27Z</time>
      </trkpt>
      <trkpt lat="49.27756" lon="-0.30493">
        <ele>14.1</ele>
        <time>2020-06-17T09:55:28Z</time>
      </trkpt>
      <trkpt lat="49.27755" lon="-0.30488">
        <ele>14.1</ele>
        <time>2020-06-17T09:55:29Z</time>
      </trkpt>
      <trkpt lat="49.27754" lon="-0.30484">
        <ele>14.1</ele>
        <time>2020-06-17T09:55:30Z</time>
      </trkpt>
      <trkpt lat="49.27752" lon="-0.30479">
        <ele>14.1</ele>
        <time>2020-06-17T09:55:31Z</time>
      </trkpt>
      <trkpt lat="49.27751" lon="-0.30475">
        <ele>14.1</ele>
        <time>2020-06-17T09:55:32Z</time>
      </trkpt>
      <trkpt lat="49.2775" lon="-0.30474">
        <ele>14.1</ele>
        <time>2020-06-17T09:55:33Z</time>
      </trkpt>
      <trkpt lat="49.2775" lon="-0.30474">
        <ele>14.1</ele>
        <time>2020-06-17T09:55:34Z</time>
      </trkpt>
      <trkpt lat="49.2775" lon="-0.30473">
        <ele>14.1</ele>
        <time>2020-06-17T09:55:35Z</time>
      </trkpt>
      <trkpt lat="49.2775" lon="-0.30474">
        <ele>14.1</ele>
        <time>2020-06-17T09:55:36Z</time>
      </trkpt>
      <trkpt lat="49.2775" lon="-0.30475">
        <ele>14.1</ele>
        <time>2020-06-17T09:55:37Z</time>
      </trkpt>
      <trkpt lat="49.2775" lon="-0.30476">
        <ele>14.1</ele>
        <time>2020-06-17T09:55:38Z</time>
      </trkpt>
      <trkpt lat="49.2775" lon="-0.30477">
        <ele>14.1</ele>
        <time>2020-06-17T09:55:39Z</time>
      </trkpt>
      <trkpt lat="49.2775" lon="-0.30477">
        <ele>14.1</ele>
        <time>2020-06-17T09:55:40Z</time>
      </trkpt>
      <trkpt lat="49.2775" lon="-0.30477">
        <ele>14.1</ele>
        <time>2020-06-17T09:55:41Z</time>
      </trkpt>
      <trkpt lat="49.2775" lon="-0.30477">
        <ele>14.1</ele>
        <time>2020-06-17T09:55:42Z</time>
      </trkpt>
      <trkpt lat="49.2775" lon="-0.30478">
        <ele>14.1</ele>
        <time>2020-06-17T09:55:43Z</time>
      </trkpt>
      <trkpt lat="49.2775" lon="-0.30478">
        <ele>14.1</ele>
        <time>2020-06-17T09:55:44Z</time>
      </trkpt>
      <trkpt lat="49.2775" lon="-0.30478">
        <ele>14.1</ele>
        <time>2020-06-17T09:55:45Z</time>
      </trkpt>
      <trkpt lat="49.2775" lon="-0.30476">
        <ele>14.1</ele>
        <time>2020-06-17T09:55:46Z</time>
      </trkpt>
      <trkpt lat="49.27751" lon="-0.30474">
        <ele>14.1</ele>
        <time>2020-06-17T09:55:47Z</time>
      </trkpt>
      <trkpt lat="49.27751" lon="-0.30472">
        <ele>14</ele>
        <time>2020-06-17T09:55:48Z</time>
      </trkpt>
      <trkpt lat="49.27751" lon="-0.30471">
        <ele>14</ele>
        <time>2020-06-17T09:55:49Z</time>
      </trkpt>
      <trkpt lat="49.27751" lon="-0.30469">
        <ele>14</ele>
        <time>2020-06-17T09:57:42Z</time>
      </trkpt>
      <trkpt lat="49.27751" lon="-0.30467">
        <ele>14</ele>
        <time>2020-06-17T09:57:43Z</time>
      </trkpt>
      <trkpt lat="49.27751" lon="-0.30465">
        <ele>14</ele>
        <time>2020-06-17T09:57:44Z</time>
      </trkpt>
      <trkpt lat="49.27751" lon="-0.30463">
        <ele>14</ele>
        <time>2020-06-17T09:57:45Z</time>
      </trkpt>
      <trkpt lat="49.27751" lon="-0.30461">
        <ele>14</ele>
        <time>2020-06-17T09:57:46Z</time>
      </trkpt>
      <trkpt lat="49.2775" lon="-0.30458">
        <ele>14</ele>
        <time>2020-06-17T09:57:47Z</time>
      </trkpt>
      <trkpt lat="49.27749" lon="-0.30454">
        <ele>14</ele>
        <time>2020-06-17T09:57:48Z</time>
      </trkpt>
      <trkpt lat="49.27748" lon="-0.3045">
        <ele>14</ele>
        <time>2020-06-17T09:57:49Z</time>
      </trkpt>
      <trkpt lat="49.27746" lon="-0.30444">
        <ele>13.9</ele>
        <time>2020-06-17T09:57:50Z</time>
      </trkpt>
      <trkpt lat="49.27745" lon="-0.30439">
        <ele>13.9</ele>
        <time>2020-06-17T09:57:51Z</time>
      </trkpt>
      <trkpt lat="49.27744" lon="-0.30433">
        <ele>13.9</ele>
        <time>2020-06-17T09:57:52Z</time>
      </trkpt>
      <trkpt lat="49.27743" lon="-0.30427">
        <ele>13.9</ele>
        <time>2020-06-17T09:57:53Z</time>
      </trkpt>
      <trkpt lat="49.27742" lon="-0.30421">
        <ele>13.8</ele>
        <time>2020-06-17T09:57:54Z</time>
      </trkpt>
      <trkpt lat="49.27741" lon="-0.30415">
        <ele>13.8</ele>
        <time>2020-06-17T09:57:55Z</time>
      </trkpt>
      <trkpt lat="49.27741" lon="-0.30408">
        <ele>13.8</ele>
        <time>2020-06-17T09:57:56Z</time>
      </trkpt>
      <trkpt lat="49.2774" lon="-0.30402">
        <ele>13.8</ele>
        <time>2020-06-17T09:57:57Z</time>
      </trkpt>
      <trkpt lat="49.27738" lon="-0.30395">
        <ele>13.7</ele>
        <time>2020-06-17T09:57:58Z</time>
      </trkpt>
      <trkpt lat="49.27735" lon="-0.30389">
        <ele>13.7</ele>
        <time>2020-06-17T09:57:59Z</time>
      </trkpt>
      <trkpt lat="49.27731" lon="-0.30383">
        <ele>13.7</ele>
        <time>2020-06-17T09:58:00Z</time>
      </trkpt>
      <trkpt lat="49.27726" lon="-0.30378">
        <ele>13.7</ele>
        <time>2020-06-17T09:58:01Z</time>
      </trkpt>
      <trkpt lat="49.27722" lon="-0.30374">
        <ele>13.7</ele>
        <time>2020-06-17T09:58:02Z</time>
      </trkpt>
      <trkpt lat="49.27718" lon="-0.30369">
        <ele>13.7</ele>
        <time>2020-06-17T09:58:03Z</time>
      </trkpt>
      <trkpt lat="49.27713" lon="-0.30364">
        <ele>13.7</ele>
        <time>2020-06-17T09:58:04Z</time>
      </trkpt>
      <trkpt lat="49.27709" lon="-0.3036">
        <ele>13.8</ele>
        <time>2020-06-17T09:58:05Z</time>
      </trkpt>
      <trkpt lat="49.27704" lon="-0.30356">
        <ele>13.8</ele>
        <time>2020-06-17T09:58:06Z</time>
      </trkpt>
      <trkpt lat="49.27699" lon="-0.30352">
        <ele>13.8</ele>
        <time>2020-06-17T09:58:07Z</time>
      </trkpt>
      <trkpt lat="49.27695" lon="-0.30348">
        <ele>13.9</ele>
        <time>2020-06-17T09:58:08Z</time>
      </trkpt>
      <trkpt lat="49.27689" lon="-0.30343">
        <ele>13.9</ele>
        <time>2020-06-17T09:58:09Z</time>
      </trkpt>
      <trkpt lat="49.27684" lon="-0.30338">
        <ele>14</ele>
        <time>2020-06-17T09:58:10Z</time>
      </trkpt>
      <trkpt lat="49.27679" lon="-0.30334">
        <ele>14</ele>
        <time>2020-06-17T09:58:11Z</time>
      </trkpt>
      <trkpt lat="49.27674" lon="-0.3033">
        <ele>14</ele>
        <time>2020-06-17T09:58:12Z</time>
      </trkpt>
      <trkpt lat="49.27668" lon="-0.30326">
        <ele>14.1</ele>
        <time>2020-06-17T09:58:13Z</time>
      </trkpt>
      <trkpt lat="49.27662" lon="-0.30321">
        <ele>14.1</ele>
        <time>2020-06-17T09:58:14Z</time>
      </trkpt>
      <trkpt lat="49.27657" lon="-0.30317">
        <ele>14.2</ele>
        <time>2020-06-17T09:58:15Z</time>
      </trkpt>
      <trkpt lat="49.27651" lon="-0.30313">
        <ele>14.2</ele>
        <time>2020-06-17T09:58:16Z</time>
      </trkpt>
      <trkpt lat="49.27646" lon="-0.30309">
        <ele>14.3</ele>
        <time>2020-06-17T09:58:17Z</time>
      </trkpt>
      <trkpt lat="49.2764" lon="-0.30305">
        <ele>14.4</ele>
        <time>2020-06-17T09:58:18Z</time>
      </trkpt>
      <trkpt lat="49.27635" lon="-0.30301">
        <ele>14.5</ele>
        <time>2020-06-17T09:58:19Z</time>
      </trkpt>
      <trkpt lat="49.27631" lon="-0.30298">
        <ele>14.5</ele>
        <time>2020-06-17T09:58:20Z</time>
      </trkpt>
      <trkpt lat="49.27626" lon="-0.30295">
        <ele>14.6</ele>
        <time>2020-06-17T09:58:21Z</time>
      </trkpt>
      <trkpt lat="49.27622" lon="-0.30291">
        <ele>14.6</ele>
        <time>2020-06-17T09:58:22Z</time>
      </trkpt>
      <trkpt lat="49.27618" lon="-0.30288">
        <ele>14.6</ele>
        <time>2020-06-17T09:58:23Z</time>
      </trkpt>
      <trkpt lat="49.27613" lon="-0.30285">
        <ele>14.7</ele>
        <time>2020-06-17T09:58:24Z</time>
      </trkpt>
      <trkpt lat="49.27608" lon="-0.30282">
        <ele>14.7</ele>
        <time>2020-06-17T09:58:25Z</time>
      </trkpt>
      <trkpt lat="49.27604" lon="-0.30279">
        <ele>14.7</ele>
        <time>2020-06-17T09:58:26Z</time>
      </trkpt>
      <trkpt lat="49.27599" lon="-0.30276">
        <ele>14.7</ele>
        <time>2020-06-17T09:58:27Z</time>
      </trkpt>
      <trkpt lat="49.27594" lon="-0.30271">
        <ele>14.7</ele>
        <time>2020-06-17T09:58:28Z</time>
      </trkpt>
      <trkpt lat="49.27589" lon="-0.30267">
        <ele>14.8</ele>
        <time>2020-06-17T09:58:29Z</time>
      </trkpt>
      <trkpt lat="49.27584" lon="-0.30263">
        <ele>14.8</ele>
        <time>2020-06-17T09:58:30Z</time>
      </trkpt>
      <trkpt lat="49.27579" lon="-0.3026">
        <ele>14.9</ele>
        <time>2020-06-17T09:58:31Z</time>
      </trkpt>
      <trkpt lat="49.27574" lon="-0.30256">
        <ele>15</ele>
        <time>2020-06-17T09:58:32Z</time>
      </trkpt>
      <trkpt lat="49.27569" lon="-0.30252">
        <ele>15</ele>
        <time>2020-06-17T09:58:33Z</time>
      </trkpt>
      <trkpt lat="49.27564" lon="-0.30249">
        <ele>15.1</ele>
        <time>2020-06-17T09:58:34Z</time>
      </trkpt>
      <trkpt lat="49.27559" lon="-0.30245">
        <ele>15.1</ele>
        <time>2020-06-17T09:58:35Z</time>
      </trkpt>
      <trkpt lat="49.27554" lon="-0.30241">
        <ele>15.1</ele>
        <time>2020-06-17T09:58:36Z</time>
      </trkpt>
      <trkpt lat="49.27549" lon="-0.30238">
        <ele>15.1</ele>
        <time>2020-06-17T09:58:37Z</time>
      </trkpt>
      <trkpt lat="49.27544" lon="-0.30234">
        <ele>15.1</ele>
        <time>2020-06-17T09:58:38Z</time>
      </trkpt>
      <trkpt lat="49.27539" lon="-0.3023">
        <ele>15.2</ele>
        <time>2020-06-17T09:58:39Z</time>
      </trkpt>
      <trkpt lat="49.27535" lon="-0.30226">
        <ele>15.2</ele>
        <time>2020-06-17T09:58:40Z</time>
      </trkpt>
      <trkpt lat="49.2753" lon="-0.30223">
        <ele>15.2</ele>
        <time>2020-06-17T09:58:41Z</time>
      </trkpt>
      <trkpt lat="49.27526" lon="-0.3022">
        <ele>15.2</ele>
        <time>2020-06-17T09:58:42Z</time>
      </trkpt>
      <trkpt lat="49.27521" lon="-0.30216">
        <ele>15.3</ele>
        <time>2020-06-17T09:58:43Z</time>
      </trkpt>
      <trkpt lat="49.27517" lon="-0.30213">
        <ele>15.3</ele>
        <time>2020-06-17T09:58:44Z</time>
      </trkpt>
      <trkpt lat="49.27512" lon="-0.30211">
        <ele>15.3</ele>
        <time>2020-06-17T09:58:45Z</time>
      </trkpt>
      <trkpt lat="49.27507" lon="-0.30207">
        <ele>15.3</ele>
        <time>2020-06-17T09:58:46Z</time>
      </trkpt>
      <trkpt lat="49.27503" lon="-0.30205">
        <ele>15.3</ele>
        <time>2020-06-17T09:58:47Z</time>
      </trkpt>
      <trkpt lat="49.27498" lon="-0.30202">
        <ele>15.4</ele>
        <time>2020-06-17T09:58:48Z</time>
      </trkpt>
      <trkpt lat="49.27493" lon="-0.30201">
        <ele>15.4</ele>
        <time>2020-06-17T09:58:49Z</time>
      </trkpt>
      <trkpt lat="49.27488" lon="-0.30199">
        <ele>15.4</ele>
        <time>2020-06-17T09:58:50Z</time>
      </trkpt>
      <trkpt lat="49.27483" lon="-0.30196">
        <ele>15.5</ele>
        <time>2020-06-17T09:58:51Z</time>
      </trkpt>
      <trkpt lat="49.27478" lon="-0.30194">
        <ele>15.5</ele>
        <time>2020-06-17T09:58:52Z</time>
      </trkpt>
      <trkpt lat="49.27472" lon="-0.30192">
        <ele>15.5</ele>
        <time>2020-06-17T09:58:53Z</time>
      </trkpt>
      <trkpt lat="49.27467" lon="-0.3019">
        <ele>15.6</ele>
        <time>2020-06-17T09:58:54Z</time>
      </trkpt>
      <trkpt lat="49.27462" lon="-0.30188">
        <ele>15.6</ele>
        <time>2020-06-17T09:58:55Z</time>
      </trkpt>
      <trkpt lat="49.27456" lon="-0.30187">
        <ele>15.7</ele>
        <time>2020-06-17T09:58:56Z</time>
      </trkpt>
      <trkpt lat="49.27451" lon="-0.30186">
        <ele>15.7</ele>
        <time>2020-06-17T09:58:57Z</time>
      </trkpt>
      <trkpt lat="49.27445" lon="-0.30185">
        <ele>15.8</ele>
        <time>2020-06-17T09:58:58Z</time>
      </trkpt>
      <trkpt lat="49.2744" lon="-0.30184">
        <ele>15.8</ele>
        <time>2020-06-17T09:58:59Z</time>
      </trkpt>
      <trkpt lat="49.27435" lon="-0.30183">
        <ele>15.9</ele>
        <time>2020-06-17T09:59:00Z</time>
      </trkpt>
      <trkpt lat="49.2743" lon="-0.30183">
        <ele>16</ele>
        <time>2020-06-17T09:59:01Z</time>
      </trkpt>
      <trkpt lat="49.27425" lon="-0.30183">
        <ele>16.1</ele>
        <time>2020-06-17T09:59:02Z</time>
      </trkpt>
      <trkpt lat="49.2742" lon="-0.30183">
        <ele>16.2</ele>
        <time>2020-06-17T09:59:03Z</time>
      </trkpt>
      <trkpt lat="49.27414" lon="-0.30182">
        <ele>16.3</ele>
        <time>2020-06-17T09:59:04Z</time>
      </trkpt>
      <trkpt lat="49.27409" lon="-0.30179">
        <ele>16.4</ele>
        <time>2020-06-17T09:59:05Z</time>
      </trkpt>
      <trkpt lat="49.27404" lon="-0.30177">
        <ele>16.4</ele>
        <time>2020-06-17T09:59:06Z</time>
      </trkpt>
      <trkpt lat="49.274" lon="-0.30174">
        <ele>16.4</ele>
        <time>2020-06-17T09:59:07Z</time>
      </trkpt>
      <trkpt lat="49.27395" lon="-0.30172">
        <ele>16.4</ele>
        <time>2020-06-17T09:59:08Z</time>
      </trkpt>
      <trkpt lat="49.27389" lon="-0.30171">
        <ele>16.4</ele>
        <time>2020-06-17T09:59:09Z</time>
      </trkpt>
      <trkpt lat="49.27385" lon="-0.30171">
        <ele>16.5</ele>
        <time>2020-06-17T09:59:10Z</time>
      </trkpt>
      <trkpt lat="49.2738" lon="-0.3017">
        <ele>16.5</ele>
        <time>2020-06-17T09:59:11Z</time>
      </trkpt>
      <trkpt lat="49.27375" lon="-0.30169">
        <ele>16.5</ele>
        <time>2020-06-17T09:59:12Z</time>
      </trkpt>
      <trkpt lat="49.2737" lon="-0.30167">
        <ele>16.4</ele>
        <time>2020-06-17T09:59:13Z</time>
      </trkpt>
      <trkpt lat="49.27364" lon="-0.30166">
        <ele>16.4</ele>
        <time>2020-06-17T09:59:14Z</time>
      </trkpt>
      <trkpt lat="49.2736" lon="-0.30164">
        <ele>16.3</ele>
        <time>2020-06-17T09:59:15Z</time>
      </trkpt>
      <trkpt lat="49.27355" lon="-0.30163">
        <ele>16.3</ele>
        <time>2020-06-17T09:59:16Z</time>
      </trkpt>
      <trkpt lat="49.2735" lon="-0.30162">
        <ele>16.2</ele>
        <time>2020-06-17T09:59:17Z</time>
      </trkpt>
      <trkpt lat="49.27345" lon="-0.30159">
        <ele>16.2</ele>
        <time>2020-06-17T09:59:18Z</time>
      </trkpt>
      <trkpt lat="49.2734" lon="-0.30157">
        <ele>16.1</ele>
        <time>2020-06-17T09:59:19Z</time>
      </trkpt>
      <trkpt lat="49.27335" lon="-0.30155">
        <ele>16.1</ele>
        <time>2020-06-17T09:59:20Z</time>
      </trkpt>
      <trkpt lat="49.2733" lon="-0.30153">
        <ele>16</ele>
        <time>2020-06-17T09:59:21Z</time>
      </trkpt>
      <trkpt lat="49.27325" lon="-0.30151">
        <ele>15.9</ele>
        <time>2020-06-17T09:59:22Z</time>
      </trkpt>
      <trkpt lat="49.2732" lon="-0.30147">
        <ele>15.9</ele>
        <time>2020-06-17T09:59:23Z</time>
      </trkpt>
      <trkpt lat="49.27316" lon="-0.30144">
        <ele>15.8</ele>
        <time>2020-06-17T09:59:24Z</time>
      </trkpt>
      <trkpt lat="49.27313" lon="-0.30141">
        <ele>15.7</ele>
        <time>2020-06-17T09:59:25Z</time>
      </trkpt>
      <trkpt lat="49.2731" lon="-0.30137">
        <ele>15.6</ele>
        <time>2020-06-17T09:59:26Z</time>
      </trkpt>
      <trkpt lat="49.27307" lon="-0.30133">
        <ele>15.6</ele>
        <time>2020-06-17T09:59:27Z</time>
      </trkpt>
      <trkpt lat="49.27304" lon="-0.30128">
        <ele>15.5</ele>
        <time>2020-06-17T09:59:28Z</time>
      </trkpt>
      <trkpt lat="49.27301" lon="-0.30125">
        <ele>15.5</ele>
        <time>2020-06-17T09:59:29Z</time>
      </trkpt>
      <trkpt lat="49.27299" lon="-0.30122">
        <ele>15.4</ele>
        <time>2020-06-17T09:59:30Z</time>
      </trkpt>
      <trkpt lat="49.27297" lon="-0.30119">
        <ele>15.4</ele>
        <time>2020-06-17T09:59:31Z</time>
      </trkpt>
      <trkpt lat="49.27295" lon="-0.30115">
        <ele>15.3</ele>
        <time>2020-06-17T09:59:32Z</time>
      </trkpt>
      <trkpt lat="49.27293" lon="-0.30109">
        <ele>15.2</ele>
        <time>2020-06-17T09:59:33Z</time>
      </trkpt>
      <trkpt lat="49.27292" lon="-0.30104">
        <ele>15.1</ele>
        <time>2020-06-17T09:59:34Z</time>
      </trkpt>
      <trkpt lat="49.2729" lon="-0.30099">
        <ele>15.1</ele>
        <time>2020-06-17T09:59:35Z</time>
      </trkpt>
      <trkpt lat="49.27288" lon="-0.30094">
        <ele>15.1</ele>
        <time>2020-06-17T09:59:36Z</time>
      </trkpt>
      <trkpt lat="49.27286" lon="-0.30088">
        <ele>15.1</ele>
        <time>2020-06-17T09:59:37Z</time>
      </trkpt>
      <trkpt lat="49.27284" lon="-0.30082">
        <ele>15.1</ele>
        <time>2020-06-17T09:59:38Z</time>
      </trkpt>
      <trkpt lat="49.27283" lon="-0.30077">
        <ele>15.1</ele>
        <time>2020-06-17T09:59:39Z</time>
      </trkpt>
      <trkpt lat="49.2728" lon="-0.30071">
        <ele>15.2</ele>
        <time>2020-06-17T09:59:40Z</time>
      </trkpt>
      <trkpt lat="49.27278" lon="-0.30066">
        <ele>15.2</ele>
        <time>2020-06-17T09:59:41Z</time>
      </trkpt>
      <trkpt lat="49.27276" lon="-0.3006">
        <ele>15.3</ele>
        <time>2020-06-17T09:59:42Z</time>
      </trkpt>
      <trkpt lat="49.27273" lon="-0.30053">
        <ele>15.4</ele>
        <time>2020-06-17T09:59:43Z</time>
      </trkpt>
      <trkpt lat="49.27271" lon="-0.30046">
        <ele>15.5</ele>
        <time>2020-06-17T09:59:44Z</time>
      </trkpt>
      <trkpt lat="49.27268" lon="-0.30038">
        <ele>15.7</ele>
        <time>2020-06-17T09:59:45Z</time>
      </trkpt>
      <trkpt lat="49.27266" lon="-0.30031">
        <ele>15.8</ele>
        <time>2020-06-17T09:59:46Z</time>
      </trkpt>
      <trkpt lat="49.27263" lon="-0.30024">
        <ele>15.9</ele>
        <time>2020-06-17T09:59:47Z</time>
      </trkpt>
      <trkpt lat="49.27261" lon="-0.30016">
        <ele>16.1</ele>
        <time>2020-06-17T09:59:48Z</time>
      </trkpt>
      <trkpt lat="49.27257" lon="-0.30009">
        <ele>16.3</ele>
        <time>2020-06-17T09:59:49Z</time>
      </trkpt>
      <trkpt lat="49.27254" lon="-0.30001">
        <ele>16.4</ele>
        <time>2020-06-17T09:59:50Z</time>
      </trkpt>
      <trkpt lat="49.27251" lon="-0.29994">
        <ele>16.7</ele>
        <time>2020-06-17T09:59:51Z</time>
      </trkpt>
      <trkpt lat="49.27249" lon="-0.29987">
        <ele>16.9</ele>
        <time>2020-06-17T09:59:52Z</time>
      </trkpt>
      <trkpt lat="49.27246" lon="-0.29979">
        <ele>17.1</ele>
        <time>2020-06-17T09:59:53Z</time>
      </trkpt>
      <trkpt lat="49.27243" lon="-0.29972">
        <ele>17.3</ele>
        <time>2020-06-17T09:59:54Z</time>
      </trkpt>
      <trkpt lat="49.2724" lon="-0.29965">
        <ele>17.4</ele>
        <time>2020-06-17T09:59:55Z</time>
      </trkpt>
      <trkpt lat="49.27236" lon="-0.29959">
        <ele>17.5</ele>
        <time>2020-06-17T09:59:56Z</time>
      </trkpt>
      <trkpt lat="49.27233" lon="-0.29954">
        <ele>17.6</ele>
        <time>2020-06-17T09:59:57Z</time>
      </trkpt>
      <trkpt lat="49.27229" lon="-0.29949">
        <ele>17.7</ele>
        <time>2020-06-17T09:59:58Z</time>
      </trkpt>
      <trkpt lat="49.27224" lon="-0.29945">
        <ele>17.8</ele>
        <time>2020-06-17T09:59:59Z</time>
      </trkpt>
      <trkpt lat="49.27219" lon="-0.2994">
        <ele>17.9</ele>
        <time>2020-06-17T10:00:00Z</time>
      </trkpt>
      <trkpt lat="49.27215" lon="-0.29937">
        <ele>18</ele>
        <time>2020-06-17T10:00:01Z</time>
      </trkpt>
      <trkpt lat="49.27211" lon="-0.29934">
        <ele>18.1</ele>
        <time>2020-06-17T10:00:02Z</time>
      </trkpt>
      <trkpt lat="49.27208" lon="-0.29931">
        <ele>18.2</ele>
        <time>2020-06-17T10:00:03Z</time>
      </trkpt>
      <trkpt lat="49.27204" lon="-0.29928">
        <ele>18.3</ele>
        <time>2020-06-17T10:00:04Z</time>
      </trkpt>
      <trkpt lat="49.27201" lon="-0.29925">
        <ele>18.3</ele>
        <time>2020-06-17T10:00:05Z</time>
      </trkpt>
      <trkpt lat="49.27197" lon="-0.29922">
        <ele>18.4</ele>
        <time>2020-06-17T10:00:06Z</time>
      </trkpt>
      <trkpt lat="49.27193" lon="-0.29918">
        <ele>18.5</ele>
        <time>2020-06-17T10:00:07Z</time>
      </trkpt>
      <trkpt lat="49.27188" lon="-0.29914">
        <ele>18.6</ele>
        <time>2020-06-17T10:00:08Z</time>
      </trkpt>
      <trkpt lat="49.27182" lon="-0.2991">
        <ele>18.6</ele>
        <time>2020-06-17T10:00:09Z</time>
      </trkpt>
      <trkpt lat="49.27177" lon="-0.29906">
        <ele>18.7</ele>
        <time>2020-06-17T10:00:10Z</time>
      </trkpt>
      <trkpt lat="49.27172" lon="-0.29903">
        <ele>18.7</ele>
        <time>2020-06-17T10:00:11Z</time>
      </trkpt>
      <trkpt lat="49.27166" lon="-0.299">
        <ele>18.8</ele>
        <time>2020-06-17T10:00:12Z</time>
      </trkpt>
      <trkpt lat="49.27161" lon="-0.29899">
        <ele>18.8</ele>
        <time>2020-06-17T10:00:13Z</time>
      </trkpt>
      <trkpt lat="49.27156" lon="-0.29899">
        <ele>18.8</ele>
        <time>2020-06-17T10:00:14Z</time>
      </trkpt>
      <trkpt lat="49.27151" lon="-0.29896">
        <ele>18.9</ele>
        <time>2020-06-17T10:00:15Z</time>
      </trkpt>
      <trkpt lat="49.27146" lon="-0.29893">
        <ele>19</ele>
        <time>2020-06-17T10:00:16Z</time>
      </trkpt>
      <trkpt lat="49.2714" lon="-0.29889">
        <ele>19</ele>
        <time>2020-06-17T10:00:17Z</time>
      </trkpt>
      <trkpt lat="49.27134" lon="-0.29887">
        <ele>19.1</ele>
        <time>2020-06-17T10:00:18Z</time>
      </trkpt>
      <trkpt lat="49.27129" lon="-0.29885">
        <ele>19.2</ele>
        <time>2020-06-17T10:00:19Z</time>
      </trkpt>
      <trkpt lat="49.27123" lon="-0.29881">
        <ele>19.3</ele>
        <time>2020-06-17T10:00:20Z</time>
      </trkpt>
      <trkpt lat="49.27117" lon="-0.29876">
        <ele>19.4</ele>
        <time>2020-06-17T10:00:21Z</time>
      </trkpt>
      <trkpt lat="49.27112" lon="-0.29873">
        <ele>19.5</ele>
        <time>2020-06-17T10:00:22Z</time>
      </trkpt>
      <trkpt lat="49.27107" lon="-0.29869">
        <ele>19.6</ele>
        <time>2020-06-17T10:00:23Z</time>
      </trkpt>
      <trkpt lat="49.27102" lon="-0.29865">
        <ele>19.7</ele>
        <time>2020-06-17T10:00:24Z</time>
      </trkpt>
      <trkpt lat="49.27097" lon="-0.29862">
        <ele>19.8</ele>
        <time>2020-06-17T10:00:25Z</time>
      </trkpt>
      <trkpt lat="49.27093" lon="-0.2986">
        <ele>19.9</ele>
        <time>2020-06-17T10:00:26Z</time>
      </trkpt>
      <trkpt lat="49.27087" lon="-0.29858">
        <ele>19.9</ele>
        <time>2020-06-17T10:00:27Z</time>
      </trkpt>
      <trkpt lat="49.27082" lon="-0.29855">
        <ele>19.9</ele>
        <time>2020-06-17T10:00:28Z</time>
      </trkpt>
      <trkpt lat="49.27077" lon="-0.29851">
        <ele>20</ele>
        <time>2020-06-17T10:00:29Z</time>
      </trkpt>
      <trkpt lat="49.27072" lon="-0.29848">
        <ele>20</ele>
        <time>2020-06-17T10:00:30Z</time>
      </trkpt>
      <trkpt lat="49.27066" lon="-0.29844">
        <ele>20.1</ele>
        <time>2020-06-17T10:00:31Z</time>
      </trkpt>
      <trkpt lat="49.27061" lon="-0.29842">
        <ele>20.1</ele>
        <time>2020-06-17T10:00:32Z</time>
      </trkpt>
      <trkpt lat="49.27056" lon="-0.29838">
        <ele>20.2</ele>
        <time>2020-06-17T10:00:33Z</time>
      </trkpt>
      <trkpt lat="49.27051" lon="-0.29836">
        <ele>20.2</ele>
        <time>2020-06-17T10:00:34Z</time>
      </trkpt>
      <trkpt lat="49.27045" lon="-0.29833">
        <ele>20.3</ele>
        <time>2020-06-17T10:00:35Z</time>
      </trkpt>
      <trkpt lat="49.2704" lon="-0.29831">
        <ele>20.4</ele>
        <time>2020-06-17T10:00:36Z</time>
      </trkpt>
      <trkpt lat="49.27035" lon="-0.29829">
        <ele>20.4</ele>
        <time>2020-06-17T10:00:37Z</time>
      </trkpt>
      <trkpt lat="49.2703" lon="-0.29826">
        <ele>20.5</ele>
        <time>2020-06-17T10:00:38Z</time>
      </trkpt>
      <trkpt lat="49.27025" lon="-0.29823">
        <ele>20.6</ele>
        <time>2020-06-17T10:00:39Z</time>
      </trkpt>
      <trkpt lat="49.27019" lon="-0.29821">
        <ele>20.6</ele>
        <time>2020-06-17T10:00:40Z</time>
      </trkpt>
      <trkpt lat="49.27014" lon="-0.29817">
        <ele>20.7</ele>
        <time>2020-06-17T10:00:41Z</time>
      </trkpt>
      <trkpt lat="49.27009" lon="-0.29814">
        <ele>20.7</ele>
        <time>2020-06-17T10:00:42Z</time>
      </trkpt>
      <trkpt lat="49.27004" lon="-0.29813">
        <ele>20.8</ele>
        <time>2020-06-17T10:00:43Z</time>
      </trkpt>
      <trkpt lat="49.26999" lon="-0.2981">
        <ele>20.8</ele>
        <time>2020-06-17T10:00:44Z</time>
      </trkpt>
      <trkpt lat="49.26994" lon="-0.29807">
        <ele>20.9</ele>
        <time>2020-06-17T10:00:45Z</time>
      </trkpt>
      <trkpt lat="49.26989" lon="-0.29804">
        <ele>20.9</ele>
        <time>2020-06-17T10:00:46Z</time>
      </trkpt>
      <trkpt lat="49.26984" lon="-0.29801">
        <ele>21</ele>
        <time>2020-06-17T10:00:47Z</time>
      </trkpt>
      <trkpt lat="49.26979" lon="-0.29797">
        <ele>21.1</ele>
        <time>2020-06-17T10:00:48Z</time>
      </trkpt>
      <trkpt lat="49.26974" lon="-0.29794">
        <ele>21.1</ele>
        <time>2020-06-17T10:00:49Z</time>
      </trkpt>
      <trkpt lat="49.26969" lon="-0.29792">
        <ele>21.2</ele>
        <time>2020-06-17T10:00:50Z</time>
      </trkpt>
      <trkpt lat="49.26964" lon="-0.2979">
        <ele>21.2</ele>
        <time>2020-06-17T10:00:51Z</time>
      </trkpt>
      <trkpt lat="49.26959" lon="-0.29787">
        <ele>21.2</ele>
        <time>2020-06-17T10:00:52Z</time>
      </trkpt>
      <trkpt lat="49.26954" lon="-0.29783">
        <ele>21.3</ele>
        <time>2020-06-17T10:00:53Z</time>
      </trkpt>
      <trkpt lat="49.2695" lon="-0.29779">
        <ele>21.3</ele>
        <time>2020-06-17T10:00:54Z</time>
      </trkpt>
      <trkpt lat="49.26945" lon="-0.29775">
        <ele>21.4</ele>
        <time>2020-06-17T10:00:55Z</time>
      </trkpt>
      <trkpt lat="49.26939" lon="-0.2977">
        <ele>21.4</ele>
        <time>2020-06-17T10:00:56Z</time>
      </trkpt>
      <trkpt lat="49.26933" lon="-0.29767">
        <ele>21.5</ele>
        <time>2020-06-17T10:00:57Z</time>
      </trkpt>
      <trkpt lat="49.26928" lon="-0.29764">
        <ele>21.5</ele>
        <time>2020-06-17T10:00:58Z</time>
      </trkpt>
      <trkpt lat="49.26923" lon="-0.29762">
        <ele>21.6</ele>
        <time>2020-06-17T10:00:59Z</time>
      </trkpt>
      <trkpt lat="49.26918" lon="-0.29758">
        <ele>21.6</ele>
        <time>2020-06-17T10:01:00Z</time>
      </trkpt>
      <trkpt lat="49.26913" lon="-0.29754">
        <ele>21.7</ele>
        <time>2020-06-17T10:01:01Z</time>
      </trkpt>
      <trkpt lat="49.26908" lon="-0.29751">
        <ele>21.8</ele>
        <time>2020-06-17T10:01:02Z</time>
      </trkpt>
      <trkpt lat="49.26904" lon="-0.29748">
        <ele>21.8</ele>
        <time>2020-06-17T10:01:03Z</time>
      </trkpt>
      <trkpt lat="49.26899" lon="-0.29745">
        <ele>21.9</ele>
        <time>2020-06-17T10:01:04Z</time>
      </trkpt>
      <trkpt lat="49.26895" lon="-0.29741">
        <ele>22</ele>
        <time>2020-06-17T10:01:05Z</time>
      </trkpt>
      <trkpt lat="49.2689" lon="-0.29738">
        <ele>22</ele>
        <time>2020-06-17T10:01:06Z</time>
      </trkpt>
      <trkpt lat="49.26885" lon="-0.29734">
        <ele>22.1</ele>
        <time>2020-06-17T10:01:07Z</time>
      </trkpt>
      <trkpt lat="49.26881" lon="-0.29732">
        <ele>22.2</ele>
        <time>2020-06-17T10:01:08Z</time>
      </trkpt>
      <trkpt lat="49.26876" lon="-0.29728">
        <ele>22.2</ele>
        <time>2020-06-17T10:01:09Z</time>
      </trkpt>
      <trkpt lat="49.26871" lon="-0.29725">
        <ele>22.3</ele>
        <time>2020-06-17T10:01:10Z</time>
      </trkpt>
      <trkpt lat="49.26865" lon="-0.29722">
        <ele>22.4</ele>
        <time>2020-06-17T10:01:11Z</time>
      </trkpt>
      <trkpt lat="49.2686" lon="-0.29719">
        <ele>22.5</ele>
        <time>2020-06-17T10:01:12Z</time>
      </trkpt>
      <trkpt lat="49.26856" lon="-0.29716">
        <ele>22.6</ele>
        <time>2020-06-17T10:01:13Z</time>
      </trkpt>
      <trkpt lat="49.26852" lon="-0.29714">
        <ele>22.7</ele>
        <time>2020-06-17T10:01:14Z</time>
      </trkpt>
      <trkpt lat="49.26847" lon="-0.29711">
        <ele>22.8</ele>
        <time>2020-06-17T10:01:15Z</time>
      </trkpt>
      <trkpt lat="49.26841" lon="-0.29709">
        <ele>22.9</ele>
        <time>2020-06-17T10:01:16Z</time>
      </trkpt>
      <trkpt lat="49.26836" lon="-0.29705">
        <ele>23.1</ele>
        <time>2020-06-17T10:01:17Z</time>
      </trkpt>
      <trkpt lat="49.2683" lon="-0.29701">
        <ele>23.2</ele>
        <time>2020-06-17T10:01:18Z</time>
      </trkpt>
      <trkpt lat="49.26825" lon="-0.29697">
        <ele>23.4</ele>
        <time>2020-06-17T10:01:19Z</time>
      </trkpt>
      <trkpt lat="49.2682" lon="-0.29694">
        <ele>23.5</ele>
        <time>2020-06-17T10:01:20Z</time>
      </trkpt>
      <trkpt lat="49.26814" lon="-0.29689">
        <ele>23.7</ele>
        <time>2020-06-17T10:01:21Z</time>
      </trkpt>
      <trkpt lat="49.26809" lon="-0.29684">
        <ele>23.9</ele>
        <time>2020-06-17T10:01:22Z</time>
      </trkpt>
      <trkpt lat="49.26804" lon="-0.29681">
        <ele>24</ele>
        <time>2020-06-17T10:01:23Z</time>
      </trkpt>
      <trkpt lat="49.26799" lon="-0.29677">
        <ele>24.1</ele>
        <time>2020-06-17T10:01:24Z</time>
      </trkpt>
      <trkpt lat="49.26794" lon="-0.29672">
        <ele>24.3</ele>
        <time>2020-06-17T10:01:25Z</time>
      </trkpt>
      <trkpt lat="49.2679" lon="-0.29669">
        <ele>24.4</ele>
        <time>2020-06-17T10:01:26Z</time>
      </trkpt>
      <trkpt lat="49.26785" lon="-0.29666">
        <ele>24.6</ele>
        <time>2020-06-17T10:01:27Z</time>
      </trkpt>
      <trkpt lat="49.2678" lon="-0.29662">
        <ele>24.7</ele>
        <time>2020-06-17T10:01:28Z</time>
      </trkpt>
      <trkpt lat="49.26775" lon="-0.29659">
        <ele>24.9</ele>
        <time>2020-06-17T10:01:29Z</time>
      </trkpt>
      <trkpt lat="49.2677" lon="-0.29656">
        <ele>25.1</ele>
        <time>2020-06-17T10:01:30Z</time>
      </trkpt>
      <trkpt lat="49.26765" lon="-0.29653">
        <ele>25.2</ele>
        <time>2020-06-17T10:01:31Z</time>
      </trkpt>
      <trkpt lat="49.26761" lon="-0.2965">
        <ele>25.3</ele>
        <time>2020-06-17T10:01:32Z</time>
      </trkpt>
      <trkpt lat="49.26756" lon="-0.29648">
        <ele>25.5</ele>
        <time>2020-06-17T10:01:33Z</time>
      </trkpt>
      <trkpt lat="49.26751" lon="-0.29645">
        <ele>25.6</ele>
        <time>2020-06-17T10:01:34Z</time>
      </trkpt>
      <trkpt lat="49.26746" lon="-0.29643">
        <ele>25.7</ele>
        <time>2020-06-17T10:01:35Z</time>
      </trkpt>
      <trkpt lat="49.2674" lon="-0.29641">
        <ele>25.8</ele>
        <time>2020-06-17T10:01:36Z</time>
      </trkpt>
      <trkpt lat="49.26735" lon="-0.29638">
        <ele>25.9</ele>
        <time>2020-06-17T10:01:37Z</time>
      </trkpt>
      <trkpt lat="49.26731" lon="-0.29635">
        <ele>25.9</ele>
        <time>2020-06-17T10:01:38Z</time>
      </trkpt>
      <trkpt lat="49.26725" lon="-0.29632">
        <ele>26</ele>
        <time>2020-06-17T10:01:39Z</time>
      </trkpt>
      <trkpt lat="49.2672" lon="-0.2963">
        <ele>26.1</ele>
        <time>2020-06-17T10:01:40Z</time>
      </trkpt>
      <trkpt lat="49.26715" lon="-0.29628">
        <ele>26.2</ele>
        <time>2020-06-17T10:01:41Z</time>
      </trkpt>
      <trkpt lat="49.26709" lon="-0.29623">
        <ele>26.3</ele>
        <time>2020-06-17T10:01:42Z</time>
      </trkpt>
      <trkpt lat="49.26704" lon="-0.2962">
        <ele>26.4</ele>
        <time>2020-06-17T10:01:43Z</time>
      </trkpt>
      <trkpt lat="49.26699" lon="-0.29618">
        <ele>26.5</ele>
        <time>2020-06-17T10:01:44Z</time>
      </trkpt>
      <trkpt lat="49.26694" lon="-0.29615">
        <ele>26.6</ele>
        <time>2020-06-17T10:01:45Z</time>
      </trkpt>
      <trkpt lat="49.26689" lon="-0.29612">
        <ele>26.6</ele>
        <time>2020-06-17T10:01:46Z</time>
      </trkpt>
      <trkpt lat="49.26684" lon="-0.29608">
        <ele>26.7</ele>
        <time>2020-06-17T10:01:47Z</time>
      </trkpt>
      <trkpt lat="49.26679" lon="-0.29606">
        <ele>26.8</ele>
        <time>2020-06-17T10:01:48Z</time>
      </trkpt>
      <trkpt lat="49.26674" lon="-0.29603">
        <ele>26.9</ele>
        <time>2020-06-17T10:01:49Z</time>
      </trkpt>
      <trkpt lat="49.26669" lon="-0.29602">
        <ele>27.1</ele>
        <time>2020-06-17T10:01:50Z</time>
      </trkpt>
      <trkpt lat="49.26664" lon="-0.29599">
        <ele>27.2</ele>
        <time>2020-06-17T10:01:51Z</time>
      </trkpt>
      <trkpt lat="49.26659" lon="-0.29597">
        <ele>27.1</ele>
        <time>2020-06-17T10:01:52Z</time>
      </trkpt>
      <trkpt lat="49.26655" lon="-0.29595">
        <ele>27.1</ele>
        <time>2020-06-17T10:01:53Z</time>
      </trkpt>
      <trkpt lat="49.26651" lon="-0.29593">
        <ele>27.2</ele>
        <time>2020-06-17T10:01:54Z</time>
      </trkpt>
      <trkpt lat="49.26646" lon="-0.2959">
        <ele>27.2</ele>
        <time>2020-06-17T10:01:55Z</time>
      </trkpt>
      <trkpt lat="49.26641" lon="-0.29586">
        <ele>27.3</ele>
        <time>2020-06-17T10:01:56Z</time>
      </trkpt>
      <trkpt lat="49.26636" lon="-0.29583">
        <ele>27.3</ele>
        <time>2020-06-17T10:01:57Z</time>
      </trkpt>
      <trkpt lat="49.26631" lon="-0.2958">
        <ele>27.4</ele>
        <time>2020-06-17T10:01:58Z</time>
      </trkpt>
      <trkpt lat="49.26626" lon="-0.29577">
        <ele>27.5</ele>
        <time>2020-06-17T10:01:59Z</time>
      </trkpt>
      <trkpt lat="49.2662" lon="-0.29574">
        <ele>27.5</ele>
        <time>2020-06-17T10:02:00Z</time>
      </trkpt>
      <trkpt lat="49.26615" lon="-0.29572">
        <ele>27.6</ele>
        <time>2020-06-17T10:02:01Z</time>
      </trkpt>
      <trkpt lat="49.2661" lon="-0.29568">
        <ele>27.7</ele>
        <time>2020-06-17T10:02:02Z</time>
      </trkpt>
      <trkpt lat="49.26605" lon="-0.29565">
        <ele>27.8</ele>
        <time>2020-06-17T10:02:03Z</time>
      </trkpt>
      <trkpt lat="49.266" lon="-0.29562">
        <ele>27.9</ele>
        <time>2020-06-17T10:02:04Z</time>
      </trkpt>
      <trkpt lat="49.26594" lon="-0.29559">
        <ele>27.9</ele>
        <time>2020-06-17T10:02:05Z</time>
      </trkpt>
      <trkpt lat="49.26589" lon="-0.29556">
        <ele>28</ele>
        <time>2020-06-17T10:02:06Z</time>
      </trkpt>
      <trkpt lat="49.26585" lon="-0.29553">
        <ele>28.1</ele>
        <time>2020-06-17T10:02:07Z</time>
      </trkpt>
      <trkpt lat="49.2658" lon="-0.29551">
        <ele>28.1</ele>
        <time>2020-06-17T10:02:08Z</time>
      </trkpt>
      <trkpt lat="49.26575" lon="-0.29548">
        <ele>28.2</ele>
        <time>2020-06-17T10:02:09Z</time>
      </trkpt>
      <trkpt lat="49.26569" lon="-0.29545">
        <ele>28.3</ele>
        <time>2020-06-17T10:02:10Z</time>
      </trkpt>
      <trkpt lat="49.26564" lon="-0.29542">
        <ele>28.4</ele>
        <time>2020-06-17T10:02:11Z</time>
      </trkpt>
      <trkpt lat="49.26559" lon="-0.29538">
        <ele>28.5</ele>
        <time>2020-06-17T10:02:12Z</time>
      </trkpt>
      <trkpt lat="49.26554" lon="-0.29536">
        <ele>28.6</ele>
        <time>2020-06-17T10:02:13Z</time>
      </trkpt>
      <trkpt lat="49.26549" lon="-0.29533">
        <ele>28.7</ele>
        <time>2020-06-17T10:02:14Z</time>
      </trkpt>
      <trkpt lat="49.26544" lon="-0.2953">
        <ele>28.8</ele>
        <time>2020-06-17T10:02:15Z</time>
      </trkpt>
      <trkpt lat="49.26539" lon="-0.29528">
        <ele>28.9</ele>
        <time>2020-06-17T10:02:16Z</time>
      </trkpt>
      <trkpt lat="49.26534" lon="-0.29525">
        <ele>29</ele>
        <time>2020-06-17T10:02:17Z</time>
      </trkpt>
      <trkpt lat="49.26529" lon="-0.29522">
        <ele>29.1</ele>
        <time>2020-06-17T10:02:18Z</time>
      </trkpt>
      <trkpt lat="49.26524" lon="-0.29519">
        <ele>29.2</ele>
        <time>2020-06-17T10:02:19Z</time>
      </trkpt>
      <trkpt lat="49.26518" lon="-0.29515">
        <ele>29.2</ele>
        <time>2020-06-17T10:02:20Z</time>
      </trkpt>
      <trkpt lat="49.26513" lon="-0.29512">
        <ele>29.3</ele>
        <time>2020-06-17T10:02:21Z</time>
      </trkpt>
      <trkpt lat="49.26508" lon="-0.29509">
        <ele>29.4</ele>
        <time>2020-06-17T10:02:22Z</time>
      </trkpt>
      <trkpt lat="49.26503" lon="-0.29505">
        <ele>29.5</ele>
        <time>2020-06-17T10:02:23Z</time>
      </trkpt>
      <trkpt lat="49.26498" lon="-0.29501">
        <ele>29.6</ele>
        <time>2020-06-17T10:02:24Z</time>
      </trkpt>
      <trkpt lat="49.26492" lon="-0.29498">
        <ele>29.8</ele>
        <time>2020-06-17T10:02:25Z</time>
      </trkpt>
      <trkpt lat="49.26487" lon="-0.29495">
        <ele>30</ele>
        <time>2020-06-17T10:02:26Z</time>
      </trkpt>
      <trkpt lat="49.26482" lon="-0.29493">
        <ele>30.2</ele>
        <time>2020-06-17T10:02:27Z</time>
      </trkpt>
      <trkpt lat="49.26477" lon="-0.2949">
        <ele>30.4</ele>
        <time>2020-06-17T10:02:28Z</time>
      </trkpt>
      <trkpt lat="49.26473" lon="-0.29487">
        <ele>30.5</ele>
        <time>2020-06-17T10:02:29Z</time>
      </trkpt>
      <trkpt lat="49.26468" lon="-0.29483">
        <ele>30.8</ele>
        <time>2020-06-17T10:02:30Z</time>
      </trkpt>
      <trkpt lat="49.26464" lon="-0.2948">
        <ele>31</ele>
        <time>2020-06-17T10:02:31Z</time>
      </trkpt>
      <trkpt lat="49.2646" lon="-0.29477">
        <ele>31.2</ele>
        <time>2020-06-17T10:02:32Z</time>
      </trkpt>
      <trkpt lat="49.26456" lon="-0.29474">
        <ele>31.3</ele>
        <time>2020-06-17T10:02:33Z</time>
      </trkpt>
      <trkpt lat="49.26453" lon="-0.29471">
        <ele>31.4</ele>
        <time>2020-06-17T10:02:34Z</time>
      </trkpt>
      <trkpt lat="49.26449" lon="-0.29468">
        <ele>31.6</ele>
        <time>2020-06-17T10:02:35Z</time>
      </trkpt>
      <trkpt lat="49.26446" lon="-0.29465">
        <ele>31.7</ele>
        <time>2020-06-17T10:02:36Z</time>
      </trkpt>
      <trkpt lat="49.26442" lon="-0.29461">
        <ele>31.8</ele>
        <time>2020-06-17T10:02:37Z</time>
      </trkpt>
      <trkpt lat="49.26439" lon="-0.29457">
        <ele>32</ele>
        <time>2020-06-17T10:02:38Z</time>
      </trkpt>
      <trkpt lat="49.26436" lon="-0.29453">
        <ele>32.1</ele>
        <time>2020-06-17T10:02:39Z</time>
      </trkpt>
      <trkpt lat="49.26433" lon="-0.2945">
        <ele>32.2</ele>
        <time>2020-06-17T10:02:40Z</time>
      </trkpt>
      <trkpt lat="49.26429" lon="-0.29447">
        <ele>32.3</ele>
        <time>2020-06-17T10:02:41Z</time>
      </trkpt>
      <trkpt lat="49.26426" lon="-0.29444">
        <ele>32.5</ele>
        <time>2020-06-17T10:02:42Z</time>
      </trkpt>
      <trkpt lat="49.26423" lon="-0.29441">
        <ele>32.6</ele>
        <time>2020-06-17T10:02:43Z</time>
      </trkpt>
      <trkpt lat="49.26419" lon="-0.29437">
        <ele>32.7</ele>
        <time>2020-06-17T10:02:44Z</time>
      </trkpt>
      <trkpt lat="49.26415" lon="-0.29433">
        <ele>32.8</ele>
        <time>2020-06-17T10:02:45Z</time>
      </trkpt>
      <trkpt lat="49.2641" lon="-0.2943">
        <ele>33</ele>
        <time>2020-06-17T10:02:46Z</time>
      </trkpt>
      <trkpt lat="49.26406" lon="-0.29427">
        <ele>33.2</ele>
        <time>2020-06-17T10:02:47Z</time>
      </trkpt>
      <trkpt lat="49.26402" lon="-0.29423">
        <ele>33.3</ele>
        <time>2020-06-17T10:02:48Z</time>
      </trkpt>
      <trkpt lat="49.26398" lon="-0.29419">
        <ele>33.5</ele>
        <time>2020-06-17T10:02:49Z</time>
      </trkpt>
      <trkpt lat="49.26394" lon="-0.29416">
        <ele>33.7</ele>
        <time>2020-06-17T10:02:50Z</time>
      </trkpt>
      <trkpt lat="49.2639" lon="-0.29412">
        <ele>33.8</ele>
        <time>2020-06-17T10:02:51Z</time>
      </trkpt>
      <trkpt lat="49.26386" lon="-0.29408">
        <ele>33.9</ele>
        <time>2020-06-17T10:02:52Z</time>
      </trkpt>
      <trkpt lat="49.26382" lon="-0.29405">
        <ele>34</ele>
        <time>2020-06-17T10:02:53Z</time>
      </trkpt>
      <trkpt lat="49.26378" lon="-0.29401">
        <ele>34.2</ele>
        <time>2020-06-17T10:02:54Z</time>
      </trkpt>
      <trkpt lat="49.26374" lon="-0.29397">
        <ele>34.3</ele>
        <time>2020-06-17T10:02:55Z</time>
      </trkpt>
      <trkpt lat="49.26369" lon="-0.29394">
        <ele>34.5</ele>
        <time>2020-06-17T10:02:56Z</time>
      </trkpt>
      <trkpt lat="49.26365" lon="-0.2939">
        <ele>34.6</ele>
        <time>2020-06-17T10:02:57Z</time>
      </trkpt>
      <trkpt lat="49.2636" lon="-0.29387">
        <ele>34.8</ele>
        <time>2020-06-17T10:02:58Z</time>
      </trkpt>
      <trkpt lat="49.26355" lon="-0.29383">
        <ele>34.9</ele>
        <time>2020-06-17T10:02:59Z</time>
      </trkpt>
      <trkpt lat="49.26351" lon="-0.2938">
        <ele>35.1</ele>
        <time>2020-06-17T10:03:00Z</time>
      </trkpt>
      <trkpt lat="49.26346" lon="-0.29377">
        <ele>35.2</ele>
        <time>2020-06-17T10:03:01Z</time>
      </trkpt>
      <trkpt lat="49.26343" lon="-0.29375">
        <ele>35.3</ele>
        <time>2020-06-17T10:03:02Z</time>
      </trkpt>
      <trkpt lat="49.26338" lon="-0.29371">
        <ele>35.5</ele>
        <time>2020-06-17T10:03:03Z</time>
      </trkpt>
      <trkpt lat="49.26333" lon="-0.29367">
        <ele>35.6</ele>
        <time>2020-06-17T10:03:04Z</time>
      </trkpt>
      <trkpt lat="49.26329" lon="-0.29364">
        <ele>35.7</ele>
        <time>2020-06-17T10:03:05Z</time>
      </trkpt>
      <trkpt lat="49.26325" lon="-0.29362">
        <ele>35.8</ele>
        <time>2020-06-17T10:03:06Z</time>
      </trkpt>
      <trkpt lat="49.2632" lon="-0.2936">
        <ele>35.9</ele>
        <time>2020-06-17T10:03:07Z</time>
      </trkpt>
      <trkpt lat="49.26316" lon="-0.29356">
        <ele>36</ele>
        <time>2020-06-17T10:03:08Z</time>
      </trkpt>
      <trkpt lat="49.26313" lon="-0.29354">
        <ele>36.1</ele>
        <time>2020-06-17T10:03:09Z</time>
      </trkpt>
      <trkpt lat="49.2631" lon="-0.29352">
        <ele>36.1</ele>
        <time>2020-06-17T10:03:10Z</time>
      </trkpt>
      <trkpt lat="49.26306" lon="-0.29348">
        <ele>36.2</ele>
        <time>2020-06-17T10:03:11Z</time>
      </trkpt>
      <trkpt lat="49.26302" lon="-0.29345">
        <ele>36.3</ele>
        <time>2020-06-17T10:03:12Z</time>
      </trkpt>
      <trkpt lat="49.26298" lon="-0.29341">
        <ele>36.3</ele>
        <time>2020-06-17T10:03:13Z</time>
      </trkpt>
      <trkpt lat="49.26294" lon="-0.29337">
        <ele>36.4</ele>
        <time>2020-06-17T10:03:14Z</time>
      </trkpt>
      <trkpt lat="49.2629" lon="-0.29333">
        <ele>36.4</ele>
        <time>2020-06-17T10:03:15Z</time>
      </trkpt>
      <trkpt lat="49.26287" lon="-0.2933">
        <ele>36.4</ele>
        <time>2020-06-17T10:03:16Z</time>
      </trkpt>
      <trkpt lat="49.26284" lon="-0.29327">
        <ele>36.4</ele>
        <time>2020-06-17T10:03:17Z</time>
      </trkpt>
      <trkpt lat="49.26281" lon="-0.29323">
        <ele>36.5</ele>
        <time>2020-06-17T10:03:18Z</time>
      </trkpt>
      <trkpt lat="49.26278" lon="-0.29319">
        <ele>36.5</ele>
        <time>2020-06-17T10:03:19Z</time>
      </trkpt>
      <trkpt lat="49.26274" lon="-0.29313">
        <ele>36.6</ele>
        <time>2020-06-17T10:03:20Z</time>
      </trkpt>
      <trkpt lat="49.26271" lon="-0.29309">
        <ele>36.6</ele>
        <time>2020-06-17T10:03:21Z</time>
      </trkpt>
      <trkpt lat="49.26267" lon="-0.29305">
        <ele>36.7</ele>
        <time>2020-06-17T10:03:22Z</time>
      </trkpt>
      <trkpt lat="49.26263" lon="-0.29299">
        <ele>36.7</ele>
        <time>2020-06-17T10:03:23Z</time>
      </trkpt>
      <trkpt lat="49.26259" lon="-0.29294">
        <ele>36.8</ele>
        <time>2020-06-17T10:03:24Z</time>
      </trkpt>
      <trkpt lat="49.26256" lon="-0.29289">
        <ele>36.8</ele>
        <time>2020-06-17T10:03:25Z</time>
      </trkpt>
      <trkpt lat="49.26253" lon="-0.29285">
        <ele>36.8</ele>
        <time>2020-06-17T10:03:26Z</time>
      </trkpt>
      <trkpt lat="49.2625" lon="-0.29279">
        <ele>36.9</ele>
        <time>2020-06-17T10:03:27Z</time>
      </trkpt>
      <trkpt lat="49.26248" lon="-0.29272">
        <ele>36.9</ele>
        <time>2020-06-17T10:03:28Z</time>
      </trkpt>
      <trkpt lat="49.26246" lon="-0.29265">
        <ele>36.9</ele>
        <time>2020-06-17T10:03:29Z</time>
      </trkpt>
      <trkpt lat="49.26245" lon="-0.29258">
        <ele>37</ele>
        <time>2020-06-17T10:03:30Z</time>
      </trkpt>
      <trkpt lat="49.26244" lon="-0.29249">
        <ele>37</ele>
        <time>2020-06-17T10:03:31Z</time>
      </trkpt>
      <trkpt lat="49.26243" lon="-0.29242">
        <ele>37</ele>
        <time>2020-06-17T10:03:32Z</time>
      </trkpt>
      <trkpt lat="49.26243" lon="-0.29235">
        <ele>37.1</ele>
        <time>2020-06-17T10:03:33Z</time>
      </trkpt>
      <trkpt lat="49.26243" lon="-0.29229">
        <ele>37</ele>
        <time>2020-06-17T10:03:34Z</time>
      </trkpt>
      <trkpt lat="49.26243" lon="-0.2922">
        <ele>36.9</ele>
        <time>2020-06-17T10:03:35Z</time>
      </trkpt>
      <trkpt lat="49.26242" lon="-0.29211">
        <ele>36.9</ele>
        <time>2020-06-17T10:03:36Z</time>
      </trkpt>
      <trkpt lat="49.26242" lon="-0.29201">
        <ele>36.8</ele>
        <time>2020-06-17T10:03:37Z</time>
      </trkpt>
      <trkpt lat="49.26242" lon="-0.29193">
        <ele>36.7</ele>
        <time>2020-06-17T10:03:38Z</time>
      </trkpt>
      <trkpt lat="49.26242" lon="-0.29185">
        <ele>36.7</ele>
        <time>2020-06-17T10:03:39Z</time>
      </trkpt>
      <trkpt lat="49.26243" lon="-0.29178">
        <ele>36.6</ele>
        <time>2020-06-17T10:03:40Z</time>
      </trkpt>
      <trkpt lat="49.26243" lon="-0.2917">
        <ele>36.5</ele>
        <time>2020-06-17T10:03:41Z</time>
      </trkpt>
      <trkpt lat="49.26244" lon="-0.29161">
        <ele>36.4</ele>
        <time>2020-06-17T10:03:42Z</time>
      </trkpt>
      <trkpt lat="49.26245" lon="-0.29154">
        <ele>36.3</ele>
        <time>2020-06-17T10:03:43Z</time>
      </trkpt>
      <trkpt lat="49.26245" lon="-0.29146">
        <ele>36.2</ele>
        <time>2020-06-17T10:03:44Z</time>
      </trkpt>
      <trkpt lat="49.26247" lon="-0.29139">
        <ele>36.1</ele>
        <time>2020-06-17T10:03:45Z</time>
      </trkpt>
      <trkpt lat="49.26248" lon="-0.29133">
        <ele>36.1</ele>
        <time>2020-06-17T10:03:46Z</time>
      </trkpt>
      <trkpt lat="49.26248" lon="-0.29126">
        <ele>36</ele>
        <time>2020-06-17T10:03:47Z</time>
      </trkpt>
      <trkpt lat="49.26249" lon="-0.29119">
        <ele>35.9</ele>
        <time>2020-06-17T10:03:48Z</time>
      </trkpt>
      <trkpt lat="49.26249" lon="-0.29112">
        <ele>35.8</ele>
        <time>2020-06-17T10:03:49Z</time>
      </trkpt>
      <trkpt lat="49.26249" lon="-0.29103">
        <ele>35.7</ele>
        <time>2020-06-17T10:03:50Z</time>
      </trkpt>
      <trkpt lat="49.26248" lon="-0.29096">
        <ele>35.6</ele>
        <time>2020-06-17T10:03:51Z</time>
      </trkpt>
      <trkpt lat="49.26247" lon="-0.29088">
        <ele>35.5</ele>
        <time>2020-06-17T10:03:52Z</time>
      </trkpt>
      <trkpt lat="49.26244" lon="-0.29079">
        <ele>35.4</ele>
        <time>2020-06-17T10:03:53Z</time>
      </trkpt>
      <trkpt lat="49.26242" lon="-0.29072">
        <ele>35.3</ele>
        <time>2020-06-17T10:03:54Z</time>
      </trkpt>
      <trkpt lat="49.26239" lon="-0.29064">
        <ele>35.2</ele>
        <time>2020-06-17T10:03:55Z</time>
      </trkpt>
      <trkpt lat="49.26236" lon="-0.29055">
        <ele>35.1</ele>
        <time>2020-06-17T10:03:56Z</time>
      </trkpt>
      <trkpt lat="49.26233" lon="-0.29047">
        <ele>35.1</ele>
        <time>2020-06-17T10:03:57Z</time>
      </trkpt>
      <trkpt lat="49.2623" lon="-0.29039">
        <ele>35</ele>
        <time>2020-06-17T10:03:58Z</time>
      </trkpt>
      <trkpt lat="49.26229" lon="-0.2903">
        <ele>35.1</ele>
        <time>2020-06-17T10:03:59Z</time>
      </trkpt>
      <trkpt lat="49.26225" lon="-0.29021">
        <ele>35.2</ele>
        <time>2020-06-17T10:04:00Z</time>
      </trkpt>
      <trkpt lat="49.26222" lon="-0.29012">
        <ele>35.3</ele>
        <time>2020-06-17T10:04:01Z</time>
      </trkpt>
      <trkpt lat="49.26219" lon="-0.29004">
        <ele>35.3</ele>
        <time>2020-06-17T10:04:02Z</time>
      </trkpt>
      <trkpt lat="49.26216" lon="-0.28996">
        <ele>35.3</ele>
        <time>2020-06-17T10:04:03Z</time>
      </trkpt>
      <trkpt lat="49.26214" lon="-0.28987">
        <ele>35.3</ele>
        <time>2020-06-17T10:04:04Z</time>
      </trkpt>
      <trkpt lat="49.26211" lon="-0.28979">
        <ele>35.3</ele>
        <time>2020-06-17T10:04:05Z</time>
      </trkpt>
      <trkpt lat="49.26209" lon="-0.2897">
        <ele>35.4</ele>
        <time>2020-06-17T10:04:06Z</time>
      </trkpt>
      <trkpt lat="49.26207" lon="-0.28962">
        <ele>35.4</ele>
        <time>2020-06-17T10:04:07Z</time>
      </trkpt>
      <trkpt lat="49.26205" lon="-0.28953">
        <ele>35.5</ele>
        <time>2020-06-17T10:04:08Z</time>
      </trkpt>
      <trkpt lat="49.26203" lon="-0.28945">
        <ele>35.5</ele>
        <time>2020-06-17T10:04:09Z</time>
      </trkpt>
      <trkpt lat="49.26201" lon="-0.28936">
        <ele>35.6</ele>
        <time>2020-06-17T10:04:10Z</time>
      </trkpt>
      <trkpt lat="49.26198" lon="-0.28928">
        <ele>35.6</ele>
        <time>2020-06-17T10:04:11Z</time>
      </trkpt>
      <trkpt lat="49.26196" lon="-0.28921">
        <ele>35.6</ele>
        <time>2020-06-17T10:04:12Z</time>
      </trkpt>
      <trkpt lat="49.26193" lon="-0.28913">
        <ele>35.7</ele>
        <time>2020-06-17T10:04:13Z</time>
      </trkpt>
      <trkpt lat="49.2619" lon="-0.28906">
        <ele>35.7</ele>
        <time>2020-06-17T10:04:14Z</time>
      </trkpt>
      <trkpt lat="49.26187" lon="-0.28899">
        <ele>35.7</ele>
        <time>2020-06-17T10:04:15Z</time>
      </trkpt>
      <trkpt lat="49.26184" lon="-0.28892">
        <ele>35.8</ele>
        <time>2020-06-17T10:04:16Z</time>
      </trkpt>
      <trkpt lat="49.26181" lon="-0.28886">
        <ele>35.8</ele>
        <time>2020-06-17T10:04:17Z</time>
      </trkpt>
      <trkpt lat="49.26178" lon="-0.2888">
        <ele>35.8</ele>
        <time>2020-06-17T10:04:18Z</time>
      </trkpt>
      <trkpt lat="49.26173" lon="-0.28872">
        <ele>35.9</ele>
        <time>2020-06-17T10:04:19Z</time>
      </trkpt>
      <trkpt lat="49.26171" lon="-0.28868">
        <ele>35.9</ele>
        <time>2020-06-17T10:04:20Z</time>
      </trkpt>
      <trkpt lat="49.26168" lon="-0.28863">
        <ele>35.9</ele>
        <time>2020-06-17T10:04:21Z</time>
      </trkpt>
      <trkpt lat="49.26164" lon="-0.28858">
        <ele>35.9</ele>
        <time>2020-06-17T10:04:22Z</time>
      </trkpt>
      <trkpt lat="49.26162" lon="-0.28852">
        <ele>35.9</ele>
        <time>2020-06-17T10:04:23Z</time>
      </trkpt>
      <trkpt lat="49.26159" lon="-0.28848">
        <ele>35.9</ele>
        <time>2020-06-17T10:04:24Z</time>
      </trkpt>
      <trkpt lat="49.26157" lon="-0.28842">
        <ele>35.9</ele>
        <time>2020-06-17T10:04:25Z</time>
      </trkpt>
      <trkpt lat="49.26153" lon="-0.28835">
        <ele>35.9</ele>
        <time>2020-06-17T10:04:26Z</time>
      </trkpt>
      <trkpt lat="49.26151" lon="-0.28831">
        <ele>35.9</ele>
        <time>2020-06-17T10:04:27Z</time>
      </trkpt>
      <trkpt lat="49.26148" lon="-0.28826">
        <ele>35.9</ele>
        <time>2020-06-17T10:04:28Z</time>
      </trkpt>
      <trkpt lat="49.26145" lon="-0.28821">
        <ele>35.9</ele>
        <time>2020-06-17T10:04:29Z</time>
      </trkpt>
      <trkpt lat="49.26143" lon="-0.28815">
        <ele>35.9</ele>
        <time>2020-06-17T10:04:30Z</time>
      </trkpt>
      <trkpt lat="49.2614" lon="-0.28809">
        <ele>35.9</ele>
        <time>2020-06-17T10:04:31Z</time>
      </trkpt>
      <trkpt lat="49.26137" lon="-0.28803">
        <ele>35.9</ele>
        <time>2020-06-17T10:04:32Z</time>
      </trkpt>
      <trkpt lat="49.26134" lon="-0.28797">
        <ele>35.9</ele>
        <time>2020-06-17T10:04:33Z</time>
      </trkpt>
      <trkpt lat="49.2613" lon="-0.2879">
        <ele>35.9</ele>
        <time>2020-06-17T10:04:34Z</time>
      </trkpt>
      <trkpt lat="49.26127" lon="-0.28784">
        <ele>35.9</ele>
        <time>2020-06-17T10:04:35Z</time>
      </trkpt>
      <trkpt lat="49.26124" lon="-0.28778">
        <ele>35.9</ele>
        <time>2020-06-17T10:04:36Z</time>
      </trkpt>
      <trkpt lat="49.26121" lon="-0.28773">
        <ele>35.9</ele>
        <time>2020-06-17T10:04:37Z</time>
      </trkpt>
      <trkpt lat="49.26116" lon="-0.28768">
        <ele>35.9</ele>
        <time>2020-06-17T10:04:38Z</time>
      </trkpt>
      <trkpt lat="49.26112" lon="-0.28763">
        <ele>35.9</ele>
        <time>2020-06-17T10:04:39Z</time>
      </trkpt>
      <trkpt lat="49.26109" lon="-0.28756">
        <ele>35.9</ele>
        <time>2020-06-17T10:04:40Z</time>
      </trkpt>
      <trkpt lat="49.26105" lon="-0.2875">
        <ele>36</ele>
        <time>2020-06-17T10:04:41Z</time>
      </trkpt>
      <trkpt lat="49.26101" lon="-0.28743">
        <ele>36.1</ele>
        <time>2020-06-17T10:04:42Z</time>
      </trkpt>
      <trkpt lat="49.26097" lon="-0.28738">
        <ele>36.2</ele>
        <time>2020-06-17T10:04:43Z</time>
      </trkpt>
      <trkpt lat="49.26093" lon="-0.28733">
        <ele>36.3</ele>
        <time>2020-06-17T10:04:44Z</time>
      </trkpt>
      <trkpt lat="49.26089" lon="-0.28729">
        <ele>36.5</ele>
        <time>2020-06-17T10:04:45Z</time>
      </trkpt>
      <trkpt lat="49.26086" lon="-0.28724">
        <ele>36.5</ele>
        <time>2020-06-17T10:04:46Z</time>
      </trkpt>
      <trkpt lat="49.26083" lon="-0.28718">
        <ele>36.6</ele>
        <time>2020-06-17T10:04:47Z</time>
      </trkpt>
      <trkpt lat="49.26079" lon="-0.28711">
        <ele>36.6</ele>
        <time>2020-06-17T10:04:48Z</time>
      </trkpt>
      <trkpt lat="49.26075" lon="-0.28704">
        <ele>36.7</ele>
        <time>2020-06-17T10:04:49Z</time>
      </trkpt>
      <trkpt lat="49.26071" lon="-0.28696">
        <ele>36.8</ele>
        <time>2020-06-17T10:04:50Z</time>
      </trkpt>
      <trkpt lat="49.26067" lon="-0.28691">
        <ele>36.8</ele>
        <time>2020-06-17T10:04:51Z</time>
      </trkpt>
      <trkpt lat="49.26064" lon="-0.28686">
        <ele>36.9</ele>
        <time>2020-06-17T10:04:52Z</time>
      </trkpt>
      <trkpt lat="49.2606" lon="-0.28681">
        <ele>36.9</ele>
        <time>2020-06-17T10:04:53Z</time>
      </trkpt>
      <trkpt lat="49.26056" lon="-0.28676">
        <ele>36.9</ele>
        <time>2020-06-17T10:04:54Z</time>
      </trkpt>
      <trkpt lat="49.26052" lon="-0.28672">
        <ele>37</ele>
        <time>2020-06-17T10:04:55Z</time>
      </trkpt>
      <trkpt lat="49.26047" lon="-0.28668">
        <ele>37</ele>
        <time>2020-06-17T10:04:56Z</time>
      </trkpt>
      <trkpt lat="49.26043" lon="-0.28663">
        <ele>37.1</ele>
        <time>2020-06-17T10:04:57Z</time>
      </trkpt>
      <trkpt lat="49.26038" lon="-0.28657">
        <ele>37.1</ele>
        <time>2020-06-17T10:04:58Z</time>
      </trkpt>
      <trkpt lat="49.26034" lon="-0.28651">
        <ele>37.1</ele>
        <time>2020-06-17T10:04:59Z</time>
      </trkpt>
      <trkpt lat="49.26029" lon="-0.28646">
        <ele>37.2</ele>
        <time>2020-06-17T10:05:00Z</time>
      </trkpt>
      <trkpt lat="49.26024" lon="-0.2864">
        <ele>37.2</ele>
        <time>2020-06-17T10:05:01Z</time>
      </trkpt>
      <trkpt lat="49.26019" lon="-0.28635">
        <ele>37.1</ele>
        <time>2020-06-17T10:05:02Z</time>
      </trkpt>
      <trkpt lat="49.26015" lon="-0.28631">
        <ele>37.1</ele>
        <time>2020-06-17T10:05:03Z</time>
      </trkpt>
      <trkpt lat="49.26011" lon="-0.28626">
        <ele>37.1</ele>
        <time>2020-06-17T10:05:04Z</time>
      </trkpt>
      <trkpt lat="49.26007" lon="-0.28621">
        <ele>37.1</ele>
        <time>2020-06-17T10:05:05Z</time>
      </trkpt>
      <trkpt lat="49.26002" lon="-0.28615">
        <ele>37.1</ele>
        <time>2020-06-17T10:05:06Z</time>
      </trkpt>
      <trkpt lat="49.25998" lon="-0.28608">
        <ele>37</ele>
        <time>2020-06-17T10:05:07Z</time>
      </trkpt>
      <trkpt lat="49.25994" lon="-0.28602">
        <ele>37</ele>
        <time>2020-06-17T10:05:08Z</time>
      </trkpt>
      <trkpt lat="49.2599" lon="-0.28595">
        <ele>37</ele>
        <time>2020-06-17T10:05:09Z</time>
      </trkpt>
      <trkpt lat="49.25986" lon="-0.28588">
        <ele>37</ele>
        <time>2020-06-17T10:05:10Z</time>
      </trkpt>
      <trkpt lat="49.25982" lon="-0.28582">
        <ele>37</ele>
        <time>2020-06-17T10:05:11Z</time>
      </trkpt>
      <trkpt lat="49.25979" lon="-0.28575">
        <ele>37</ele>
        <time>2020-06-17T10:05:12Z</time>
      </trkpt>
      <trkpt lat="49.25976" lon="-0.28568">
        <ele>37</ele>
        <time>2020-06-17T10:05:13Z</time>
      </trkpt>
      <trkpt lat="49.25973" lon="-0.28561">
        <ele>37</ele>
        <time>2020-06-17T10:05:14Z</time>
      </trkpt>
      <trkpt lat="49.25971" lon="-0.28554">
        <ele>37</ele>
        <time>2020-06-17T10:05:15Z</time>
      </trkpt>
      <trkpt lat="49.25968" lon="-0.28549">
        <ele>37</ele>
        <time>2020-06-17T10:05:16Z</time>
      </trkpt>
      <trkpt lat="49.25965" lon="-0.28543">
        <ele>37</ele>
        <time>2020-06-17T10:05:17Z</time>
      </trkpt>
      <trkpt lat="49.25961" lon="-0.28537">
        <ele>37</ele>
        <time>2020-06-17T10:05:18Z</time>
      </trkpt>
      <trkpt lat="49.25957" lon="-0.2853">
        <ele>37</ele>
        <time>2020-06-17T10:05:19Z</time>
      </trkpt>
      <trkpt lat="49.25953" lon="-0.28523">
        <ele>37</ele>
        <time>2020-06-17T10:05:20Z</time>
      </trkpt>
      <trkpt lat="49.25949" lon="-0.28515">
        <ele>37</ele>
        <time>2020-06-17T10:05:21Z</time>
      </trkpt>
      <trkpt lat="49.25946" lon="-0.28507">
        <ele>37</ele>
        <time>2020-06-17T10:05:22Z</time>
      </trkpt>
      <trkpt lat="49.25941" lon="-0.285">
        <ele>37.1</ele>
        <time>2020-06-17T10:05:23Z</time>
      </trkpt>
      <trkpt lat="49.25935" lon="-0.28494">
        <ele>37.1</ele>
        <time>2020-06-17T10:05:24Z</time>
      </trkpt>
      <trkpt lat="49.2593" lon="-0.28489">
        <ele>37.2</ele>
        <time>2020-06-17T10:05:25Z</time>
      </trkpt>
      <trkpt lat="49.25923" lon="-0.28482">
        <ele>37.2</ele>
        <time>2020-06-17T10:05:26Z</time>
      </trkpt>
      <trkpt lat="49.25917" lon="-0.28477">
        <ele>37.2</ele>
        <time>2020-06-17T10:05:27Z</time>
      </trkpt>
      <trkpt lat="49.25911" lon="-0.28472">
        <ele>37.2</ele>
        <time>2020-06-17T10:05:28Z</time>
      </trkpt>
      <trkpt lat="49.25905" lon="-0.28467">
        <ele>37.2</ele>
        <time>2020-06-17T10:05:29Z</time>
      </trkpt>
      <trkpt lat="49.25899" lon="-0.28464">
        <ele>37.3</ele>
        <time>2020-06-17T10:05:30Z</time>
      </trkpt>
      <trkpt lat="49.25891" lon="-0.2846">
        <ele>37.3</ele>
        <time>2020-06-17T10:05:31Z</time>
      </trkpt>
      <trkpt lat="49.25885" lon="-0.28456">
        <ele>37.3</ele>
        <time>2020-06-17T10:05:32Z</time>
      </trkpt>
      <trkpt lat="49.25879" lon="-0.28451">
        <ele>37.3</ele>
        <time>2020-06-17T10:05:33Z</time>
      </trkpt>
      <trkpt lat="49.25873" lon="-0.28447">
        <ele>37.3</ele>
        <time>2020-06-17T10:05:34Z</time>
      </trkpt>
      <trkpt lat="49.25868" lon="-0.28443">
        <ele>37.3</ele>
        <time>2020-06-17T10:05:35Z</time>
      </trkpt>
      <trkpt lat="49.25862" lon="-0.28439">
        <ele>37.3</ele>
        <time>2020-06-17T10:05:36Z</time>
      </trkpt>
      <trkpt lat="49.25857" lon="-0.28435">
        <ele>37.3</ele>
        <time>2020-06-17T10:05:37Z</time>
      </trkpt>
      <trkpt lat="49.25852" lon="-0.28433">
        <ele>37.3</ele>
        <time>2020-06-17T10:05:38Z</time>
      </trkpt>
      <trkpt lat="49.25847" lon="-0.28432">
        <ele>37.3</ele>
        <time>2020-06-17T10:05:39Z</time>
      </trkpt>
      <trkpt lat="49.25842" lon="-0.28429">
        <ele>37.3</ele>
        <time>2020-06-17T10:05:40Z</time>
      </trkpt>
      <trkpt lat="49.25837" lon="-0.28421">
        <ele>37.3</ele>
        <time>2020-06-17T10:05:41Z</time>
      </trkpt>
      <trkpt lat="49.25831" lon="-0.28417">
        <ele>37.3</ele>
        <time>2020-06-17T10:05:42Z</time>
      </trkpt>
      <trkpt lat="49.25826" lon="-0.28413">
        <ele>37.3</ele>
        <time>2020-06-17T10:05:43Z</time>
      </trkpt>
      <trkpt lat="49.2582" lon="-0.28409">
        <ele>37.3</ele>
        <time>2020-06-17T10:05:44Z</time>
      </trkpt>
      <trkpt lat="49.25814" lon="-0.28406">
        <ele>37.3</ele>
        <time>2020-06-17T10:05:45Z</time>
      </trkpt>
      <trkpt lat="49.25807" lon="-0.28402">
        <ele>37.3</ele>
        <time>2020-06-17T10:05:46Z</time>
      </trkpt>
      <trkpt lat="49.258" lon="-0.28397">
        <ele>37.2</ele>
        <time>2020-06-17T10:05:47Z</time>
      </trkpt>
      <trkpt lat="49.25793" lon="-0.28393">
        <ele>37.2</ele>
        <time>2020-06-17T10:05:48Z</time>
      </trkpt>
      <trkpt lat="49.25786" lon="-0.28388">
        <ele>37.2</ele>
        <time>2020-06-17T10:05:49Z</time>
      </trkpt>
      <trkpt lat="49.2578" lon="-0.28384">
        <ele>37.2</ele>
        <time>2020-06-17T10:05:50Z</time>
      </trkpt>
      <trkpt lat="49.25773" lon="-0.2838">
        <ele>37.2</ele>
        <time>2020-06-17T10:05:51Z</time>
      </trkpt>
      <trkpt lat="49.25767" lon="-0.28376">
        <ele>37.2</ele>
        <time>2020-06-17T10:05:52Z</time>
      </trkpt>
      <trkpt lat="49.25761" lon="-0.28372">
        <ele>37.2</ele>
        <time>2020-06-17T10:05:53Z</time>
      </trkpt>
      <trkpt lat="49.25756" lon="-0.2837">
        <ele>37.2</ele>
        <time>2020-06-17T10:05:54Z</time>
      </trkpt>
      <trkpt lat="49.2575" lon="-0.28368">
        <ele>37.2</ele>
        <time>2020-06-17T10:05:55Z</time>
      </trkpt>
      <trkpt lat="49.25743" lon="-0.28364">
        <ele>37.2</ele>
        <time>2020-06-17T10:05:56Z</time>
      </trkpt>
      <trkpt lat="49.25738" lon="-0.28362">
        <ele>37.2</ele>
        <time>2020-06-17T10:05:57Z</time>
      </trkpt>
      <trkpt lat="49.25731" lon="-0.28359">
        <ele>37.2</ele>
        <time>2020-06-17T10:05:58Z</time>
      </trkpt>
      <trkpt lat="49.25726" lon="-0.28357">
        <ele>37.2</ele>
        <time>2020-06-17T10:05:59Z</time>
      </trkpt>
      <trkpt lat="49.25722" lon="-0.28355">
        <ele>37.2</ele>
        <time>2020-06-17T10:06:00Z</time>
      </trkpt>
      <trkpt lat="49.25718" lon="-0.28353">
        <ele>37.2</ele>
        <time>2020-06-17T10:06:01Z</time>
      </trkpt>
      <trkpt lat="49.25714" lon="-0.28352">
        <ele>37.2</ele>
        <time>2020-06-17T10:06:02Z</time>
      </trkpt>
      <trkpt lat="49.25709" lon="-0.28349">
        <ele>37.2</ele>
        <time>2020-06-17T10:06:03Z</time>
      </trkpt>
      <trkpt lat="49.25703" lon="-0.28348">
        <ele>37.2</ele>
        <time>2020-06-17T10:06:04Z</time>
      </trkpt>
      <trkpt lat="49.25699" lon="-0.28347">
        <ele>37.2</ele>
        <time>2020-06-17T10:06:05Z</time>
      </trkpt>
      <trkpt lat="49.25694" lon="-0.28345">
        <ele>37.1</ele>
        <time>2020-06-17T10:06:06Z</time>
      </trkpt>
      <trkpt lat="49.25689" lon="-0.28343">
        <ele>37.1</ele>
        <time>2020-06-17T10:06:07Z</time>
      </trkpt>
      <trkpt lat="49.25683" lon="-0.2834">
        <ele>37.1</ele>
        <time>2020-06-17T10:06:08Z</time>
      </trkpt>
      <trkpt lat="49.25677" lon="-0.28337">
        <ele>37.1</ele>
        <time>2020-06-17T10:06:09Z</time>
      </trkpt>
      <trkpt lat="49.25672" lon="-0.28334">
        <ele>37</ele>
        <time>2020-06-17T10:06:10Z</time>
      </trkpt>
      <trkpt lat="49.25667" lon="-0.28331">
        <ele>37</ele>
        <time>2020-06-17T10:06:11Z</time>
      </trkpt>
      <trkpt lat="49.25662" lon="-0.28329">
        <ele>37</ele>
        <time>2020-06-17T10:06:12Z</time>
      </trkpt>
      <trkpt lat="49.25657" lon="-0.28326">
        <ele>36.9</ele>
        <time>2020-06-17T10:06:13Z</time>
      </trkpt>
      <trkpt lat="49.25651" lon="-0.28323">
        <ele>36.9</ele>
        <time>2020-06-17T10:06:14Z</time>
      </trkpt>
      <trkpt lat="49.25645" lon="-0.28319">
        <ele>36.9</ele>
        <time>2020-06-17T10:06:15Z</time>
      </trkpt>
      <trkpt lat="49.25639" lon="-0.28315">
        <ele>36.9</ele>
        <time>2020-06-17T10:06:16Z</time>
      </trkpt>
      <trkpt lat="49.25634" lon="-0.28312">
        <ele>36.8</ele>
        <time>2020-06-17T10:06:17Z</time>
      </trkpt>
      <trkpt lat="49.25628" lon="-0.28309">
        <ele>36.8</ele>
        <time>2020-06-17T10:06:18Z</time>
      </trkpt>
      <trkpt lat="49.25622" lon="-0.28307">
        <ele>36.8</ele>
        <time>2020-06-17T10:06:19Z</time>
      </trkpt>
      <trkpt lat="49.25617" lon="-0.28304">
        <ele>36.7</ele>
        <time>2020-06-17T10:06:20Z</time>
      </trkpt>
      <trkpt lat="49.25611" lon="-0.28302">
        <ele>36.7</ele>
        <time>2020-06-17T10:06:21Z</time>
      </trkpt>
      <trkpt lat="49.25605" lon="-0.283">
        <ele>36.7</ele>
        <time>2020-06-17T10:06:22Z</time>
      </trkpt>
      <trkpt lat="49.256" lon="-0.28297">
        <ele>36.6</ele>
        <time>2020-06-17T10:06:23Z</time>
      </trkpt>
      <trkpt lat="49.25594" lon="-0.28294">
        <ele>36.6</ele>
        <time>2020-06-17T10:06:24Z</time>
      </trkpt>
      <trkpt lat="49.25589" lon="-0.28291">
        <ele>36.6</ele>
        <time>2020-06-17T10:06:25Z</time>
      </trkpt>
      <trkpt lat="49.25584" lon="-0.28289">
        <ele>36.5</ele>
        <time>2020-06-17T10:06:26Z</time>
      </trkpt>
      <trkpt lat="49.25578" lon="-0.28286">
        <ele>36.5</ele>
        <time>2020-06-17T10:06:27Z</time>
      </trkpt>
      <trkpt lat="49.25573" lon="-0.28282">
        <ele>36.5</ele>
        <time>2020-06-17T10:06:28Z</time>
      </trkpt>
      <trkpt lat="49.25567" lon="-0.28278">
        <ele>36.5</ele>
        <time>2020-06-17T10:06:29Z</time>
      </trkpt>
      <trkpt lat="49.25561" lon="-0.28275">
        <ele>36.4</ele>
        <time>2020-06-17T10:06:30Z</time>
      </trkpt>
      <trkpt lat="49.25554" lon="-0.2827">
        <ele>36.4</ele>
        <time>2020-06-17T10:06:31Z</time>
      </trkpt>
      <trkpt lat="49.25548" lon="-0.28267">
        <ele>36.4</ele>
        <time>2020-06-17T10:06:32Z</time>
      </trkpt>
      <trkpt lat="49.25542" lon="-0.28263">
        <ele>36.4</ele>
        <time>2020-06-17T10:06:33Z</time>
      </trkpt>
      <trkpt lat="49.25536" lon="-0.2826">
        <ele>36.3</ele>
        <time>2020-06-17T10:06:34Z</time>
      </trkpt>
      <trkpt lat="49.2553" lon="-0.28257">
        <ele>36.2</ele>
        <time>2020-06-17T10:06:35Z</time>
      </trkpt>
      <trkpt lat="49.25524" lon="-0.28255">
        <ele>36.1</ele>
        <time>2020-06-17T10:06:36Z</time>
      </trkpt>
      <trkpt lat="49.25517" lon="-0.28253">
        <ele>36</ele>
        <time>2020-06-17T10:06:37Z</time>
      </trkpt>
      <trkpt lat="49.25511" lon="-0.2825">
        <ele>36</ele>
        <time>2020-06-17T10:06:38Z</time>
      </trkpt>
      <trkpt lat="49.25505" lon="-0.28246">
        <ele>35.9</ele>
        <time>2020-06-17T10:06:39Z</time>
      </trkpt>
      <trkpt lat="49.25498" lon="-0.28243">
        <ele>35.9</ele>
        <time>2020-06-17T10:06:40Z</time>
      </trkpt>
      <trkpt lat="49.25492" lon="-0.2824">
        <ele>35.9</ele>
        <time>2020-06-17T10:06:41Z</time>
      </trkpt>
      <trkpt lat="49.25485" lon="-0.28237">
        <ele>35.8</ele>
        <time>2020-06-17T10:06:42Z</time>
      </trkpt>
      <trkpt lat="49.25479" lon="-0.28234">
        <ele>35.8</ele>
        <time>2020-06-17T10:06:43Z</time>
      </trkpt>
      <trkpt lat="49.25472" lon="-0.28231">
        <ele>35.8</ele>
        <time>2020-06-17T10:06:44Z</time>
      </trkpt>
      <trkpt lat="49.25466" lon="-0.28228">
        <ele>35.9</ele>
        <time>2020-06-17T10:06:45Z</time>
      </trkpt>
      <trkpt lat="49.25459" lon="-0.28225">
        <ele>35.9</ele>
        <time>2020-06-17T10:06:46Z</time>
      </trkpt>
      <trkpt lat="49.25453" lon="-0.28222">
        <ele>35.9</ele>
        <time>2020-06-17T10:06:47Z</time>
      </trkpt>
      <trkpt lat="49.25446" lon="-0.28217">
        <ele>35.9</ele>
        <time>2020-06-17T10:06:48Z</time>
      </trkpt>
      <trkpt lat="49.2544" lon="-0.28213">
        <ele>35.8</ele>
        <time>2020-06-17T10:06:49Z</time>
      </trkpt>
      <trkpt lat="49.25433" lon="-0.28209">
        <ele>35.8</ele>
        <time>2020-06-17T10:06:50Z</time>
      </trkpt>
      <trkpt lat="49.25428" lon="-0.28205">
        <ele>35.7</ele>
        <time>2020-06-17T10:06:51Z</time>
      </trkpt>
      <trkpt lat="49.25422" lon="-0.28202">
        <ele>35.6</ele>
        <time>2020-06-17T10:06:52Z</time>
      </trkpt>
      <trkpt lat="49.25416" lon="-0.28199">
        <ele>35.5</ele>
        <time>2020-06-17T10:06:53Z</time>
      </trkpt>
      <trkpt lat="49.2541" lon="-0.28196">
        <ele>35.4</ele>
        <time>2020-06-17T10:06:54Z</time>
      </trkpt>
      <trkpt lat="49.25404" lon="-0.28192">
        <ele>35.4</ele>
        <time>2020-06-17T10:06:55Z</time>
      </trkpt>
      <trkpt lat="49.25399" lon="-0.28187">
        <ele>35.4</ele>
        <time>2020-06-17T10:06:56Z</time>
      </trkpt>
      <trkpt lat="49.25392" lon="-0.28183">
        <ele>35.3</ele>
        <time>2020-06-17T10:06:57Z</time>
      </trkpt>
      <trkpt lat="49.25385" lon="-0.28179">
        <ele>35.3</ele>
        <time>2020-06-17T10:06:58Z</time>
      </trkpt>
      <trkpt lat="49.25379" lon="-0.28174">
        <ele>35.2</ele>
        <time>2020-06-17T10:06:59Z</time>
      </trkpt>
      <trkpt lat="49.25373" lon="-0.28171">
        <ele>35.2</ele>
        <time>2020-06-17T10:07:00Z</time>
      </trkpt>
      <trkpt lat="49.25367" lon="-0.28167">
        <ele>35.1</ele>
        <time>2020-06-17T10:07:01Z</time>
      </trkpt>
      <trkpt lat="49.25362" lon="-0.28163">
        <ele>35.1</ele>
        <time>2020-06-17T10:07:02Z</time>
      </trkpt>
      <trkpt lat="49.25355" lon="-0.28159">
        <ele>35</ele>
        <time>2020-06-17T10:07:03Z</time>
      </trkpt>
      <trkpt lat="49.25349" lon="-0.28155">
        <ele>34.9</ele>
        <time>2020-06-17T10:07:04Z</time>
      </trkpt>
      <trkpt lat="49.25343" lon="-0.28151">
        <ele>34.8</ele>
        <time>2020-06-17T10:07:05Z</time>
      </trkpt>
      <trkpt lat="49.25337" lon="-0.28147">
        <ele>34.7</ele>
        <time>2020-06-17T10:07:06Z</time>
      </trkpt>
      <trkpt lat="49.25331" lon="-0.28143">
        <ele>34.6</ele>
        <time>2020-06-17T10:07:07Z</time>
      </trkpt>
      <trkpt lat="49.25325" lon="-0.28138">
        <ele>34.5</ele>
        <time>2020-06-17T10:07:08Z</time>
      </trkpt>
      <trkpt lat="49.25319" lon="-0.28134">
        <ele>34.4</ele>
        <time>2020-06-17T10:07:09Z</time>
      </trkpt>
      <trkpt lat="49.25313" lon="-0.28131">
        <ele>34.3</ele>
        <time>2020-06-17T10:07:10Z</time>
      </trkpt>
      <trkpt lat="49.25307" lon="-0.28127">
        <ele>34.3</ele>
        <time>2020-06-17T10:07:11Z</time>
      </trkpt>
      <trkpt lat="49.25301" lon="-0.28124">
        <ele>34.2</ele>
        <time>2020-06-17T10:07:12Z</time>
      </trkpt>
      <trkpt lat="49.25295" lon="-0.28119">
        <ele>34.1</ele>
        <time>2020-06-17T10:07:13Z</time>
      </trkpt>
      <trkpt lat="49.25289" lon="-0.28114">
        <ele>34.1</ele>
        <time>2020-06-17T10:07:14Z</time>
      </trkpt>
      <trkpt lat="49.25283" lon="-0.28109">
        <ele>34</ele>
        <time>2020-06-17T10:07:15Z</time>
      </trkpt>
      <trkpt lat="49.25277" lon="-0.28104">
        <ele>33.9</ele>
        <time>2020-06-17T10:07:16Z</time>
      </trkpt>
      <trkpt lat="49.25271" lon="-0.28099">
        <ele>33.8</ele>
        <time>2020-06-17T10:07:17Z</time>
      </trkpt>
      <trkpt lat="49.25265" lon="-0.28096">
        <ele>33.7</ele>
        <time>2020-06-17T10:07:18Z</time>
      </trkpt>
      <trkpt lat="49.2526" lon="-0.28092">
        <ele>33.6</ele>
        <time>2020-06-17T10:07:19Z</time>
      </trkpt>
      <trkpt lat="49.25255" lon="-0.28088">
        <ele>33.6</ele>
        <time>2020-06-17T10:07:20Z</time>
      </trkpt>
      <trkpt lat="49.2525" lon="-0.28084">
        <ele>33.5</ele>
        <time>2020-06-17T10:07:21Z</time>
      </trkpt>
      <trkpt lat="49.25244" lon="-0.28079">
        <ele>33.4</ele>
        <time>2020-06-17T10:07:22Z</time>
      </trkpt>
      <trkpt lat="49.25238" lon="-0.28075">
        <ele>33.3</ele>
        <time>2020-06-17T10:07:23Z</time>
      </trkpt>
      <trkpt lat="49.25232" lon="-0.2807">
        <ele>33.2</ele>
        <time>2020-06-17T10:07:24Z</time>
      </trkpt>
      <trkpt lat="49.25227" lon="-0.28067">
        <ele>33.1</ele>
        <time>2020-06-17T10:07:25Z</time>
      </trkpt>
      <trkpt lat="49.25222" lon="-0.28062">
        <ele>33.1</ele>
        <time>2020-06-17T10:07:26Z</time>
      </trkpt>
      <trkpt lat="49.25217" lon="-0.28058">
        <ele>33</ele>
        <time>2020-06-17T10:07:27Z</time>
      </trkpt>
      <trkpt lat="49.25211" lon="-0.28054">
        <ele>32.9</ele>
        <time>2020-06-17T10:07:28Z</time>
      </trkpt>
      <trkpt lat="49.25205" lon="-0.28049">
        <ele>32.8</ele>
        <time>2020-06-17T10:07:29Z</time>
      </trkpt>
      <trkpt lat="49.252" lon="-0.28044">
        <ele>32.8</ele>
        <time>2020-06-17T10:07:30Z</time>
      </trkpt>
      <trkpt lat="49.25195" lon="-0.2804">
        <ele>32.7</ele>
        <time>2020-06-17T10:07:31Z</time>
      </trkpt>
      <trkpt lat="49.25189" lon="-0.28036">
        <ele>32.6</ele>
        <time>2020-06-17T10:07:32Z</time>
      </trkpt>
      <trkpt lat="49.25183" lon="-0.28032">
        <ele>32.6</ele>
        <time>2020-06-17T10:07:33Z</time>
      </trkpt>
      <trkpt lat="49.25177" lon="-0.28028">
        <ele>32.5</ele>
        <time>2020-06-17T10:07:34Z</time>
      </trkpt>
      <trkpt lat="49.25171" lon="-0.28026">
        <ele>32.4</ele>
        <time>2020-06-17T10:07:35Z</time>
      </trkpt>
      <trkpt lat="49.25165" lon="-0.28022">
        <ele>32.3</ele>
        <time>2020-06-17T10:07:36Z</time>
      </trkpt>
      <trkpt lat="49.25159" lon="-0.28019">
        <ele>32.3</ele>
        <time>2020-06-17T10:07:37Z</time>
      </trkpt>
      <trkpt lat="49.25154" lon="-0.28016">
        <ele>32.2</ele>
        <time>2020-06-17T10:07:38Z</time>
      </trkpt>
      <trkpt lat="49.25148" lon="-0.28012">
        <ele>32</ele>
        <time>2020-06-17T10:07:39Z</time>
      </trkpt>
      <trkpt lat="49.25142" lon="-0.28009">
        <ele>31.9</ele>
        <time>2020-06-17T10:07:40Z</time>
      </trkpt>
      <trkpt lat="49.25136" lon="-0.28005">
        <ele>31.8</ele>
        <time>2020-06-17T10:07:41Z</time>
      </trkpt>
      <trkpt lat="49.25129" lon="-0.28002">
        <ele>31.6</ele>
        <time>2020-06-17T10:07:42Z</time>
      </trkpt>
      <trkpt lat="49.25123" lon="-0.27999">
        <ele>31.5</ele>
        <time>2020-06-17T10:07:43Z</time>
      </trkpt>
      <trkpt lat="49.25118" lon="-0.27996">
        <ele>31.4</ele>
        <time>2020-06-17T10:07:44Z</time>
      </trkpt>
      <trkpt lat="49.25112" lon="-0.27994">
        <ele>31.3</ele>
        <time>2020-06-17T10:07:45Z</time>
      </trkpt>
      <trkpt lat="49.25107" lon="-0.27991">
        <ele>31.2</ele>
        <time>2020-06-17T10:07:46Z</time>
      </trkpt>
      <trkpt lat="49.25101" lon="-0.27987">
        <ele>31.1</ele>
        <time>2020-06-17T10:07:47Z</time>
      </trkpt>
      <trkpt lat="49.25095" lon="-0.27982">
        <ele>31</ele>
        <time>2020-06-17T10:07:48Z</time>
      </trkpt>
      <trkpt lat="49.2509" lon="-0.27978">
        <ele>30.9</ele>
        <time>2020-06-17T10:07:49Z</time>
      </trkpt>
      <trkpt lat="49.25084" lon="-0.27973">
        <ele>30.7</ele>
        <time>2020-06-17T10:07:50Z</time>
      </trkpt>
      <trkpt lat="49.25079" lon="-0.27968">
        <ele>30.5</ele>
        <time>2020-06-17T10:07:51Z</time>
      </trkpt>
      <trkpt lat="49.25073" lon="-0.27964">
        <ele>30.3</ele>
        <time>2020-06-17T10:07:52Z</time>
      </trkpt>
      <trkpt lat="49.25068" lon="-0.27959">
        <ele>30.1</ele>
        <time>2020-06-17T10:07:53Z</time>
      </trkpt>
      <trkpt lat="49.25063" lon="-0.27953">
        <ele>29.9</ele>
        <time>2020-06-17T10:07:54Z</time>
      </trkpt>
      <trkpt lat="49.25057" lon="-0.27947">
        <ele>29.6</ele>
        <time>2020-06-17T10:07:55Z</time>
      </trkpt>
      <trkpt lat="49.25052" lon="-0.27941">
        <ele>29.2</ele>
        <time>2020-06-17T10:07:56Z</time>
      </trkpt>
      <trkpt lat="49.25045" lon="-0.27934">
        <ele>28.9</ele>
        <time>2020-06-17T10:07:57Z</time>
      </trkpt>
      <trkpt lat="49.25039" lon="-0.27928">
        <ele>28.4</ele>
        <time>2020-06-17T10:07:58Z</time>
      </trkpt>
      <trkpt lat="49.25031" lon="-0.27921">
        <ele>27.9</ele>
        <time>2020-06-17T10:07:59Z</time>
      </trkpt>
      <trkpt lat="49.25024" lon="-0.27912">
        <ele>27.4</ele>
        <time>2020-06-17T10:08:00Z</time>
      </trkpt>
      <trkpt lat="49.25017" lon="-0.27904">
        <ele>26.9</ele>
        <time>2020-06-17T10:08:01Z</time>
      </trkpt>
      <trkpt lat="49.25011" lon="-0.27897">
        <ele>26.4</ele>
        <time>2020-06-17T10:08:02Z</time>
      </trkpt>
      <trkpt lat="49.25005" lon="-0.2789">
        <ele>25.9</ele>
        <time>2020-06-17T10:08:03Z</time>
      </trkpt>
      <trkpt lat="49.25" lon="-0.27883">
        <ele>25.4</ele>
        <time>2020-06-17T10:08:04Z</time>
      </trkpt>
      <trkpt lat="49.24995" lon="-0.27876">
        <ele>24.9</ele>
        <time>2020-06-17T10:08:05Z</time>
      </trkpt>
      <trkpt lat="49.24991" lon="-0.27869">
        <ele>24.5</ele>
        <time>2020-06-17T10:08:06Z</time>
      </trkpt>
      <trkpt lat="49.24985" lon="-0.27861">
        <ele>23.9</ele>
        <time>2020-06-17T10:08:07Z</time>
      </trkpt>
      <trkpt lat="49.24979" lon="-0.27852">
        <ele>23.3</ele>
        <time>2020-06-17T10:08:08Z</time>
      </trkpt>
      <trkpt lat="49.24973" lon="-0.27842">
        <ele>22.6</ele>
        <time>2020-06-17T10:08:09Z</time>
      </trkpt>
      <trkpt lat="49.24967" lon="-0.27831">
        <ele>22</ele>
        <time>2020-06-17T10:08:10Z</time>
      </trkpt>
      <trkpt lat="49.24961" lon="-0.27821">
        <ele>21.3</ele>
        <time>2020-06-17T10:08:11Z</time>
      </trkpt>
      <trkpt lat="49.24954" lon="-0.2781">
        <ele>20.6</ele>
        <time>2020-06-17T10:08:12Z</time>
      </trkpt>
      <trkpt lat="49.24947" lon="-0.27797">
        <ele>19.9</ele>
        <time>2020-06-17T10:08:13Z</time>
      </trkpt>
      <trkpt lat="49.24941" lon="-0.27785">
        <ele>19.4</ele>
        <time>2020-06-17T10:08:14Z</time>
      </trkpt>
      <trkpt lat="49.24934" lon="-0.27772">
        <ele>18.8</ele>
        <time>2020-06-17T10:08:15Z</time>
      </trkpt>
      <trkpt lat="49.24928" lon="-0.27762">
        <ele>18.3</ele>
        <time>2020-06-17T10:08:16Z</time>
      </trkpt>
      <trkpt lat="49.24922" lon="-0.27751">
        <ele>17.8</ele>
        <time>2020-06-17T10:08:17Z</time>
      </trkpt>
      <trkpt lat="49.24916" lon="-0.27741">
        <ele>17.3</ele>
        <time>2020-06-17T10:08:18Z</time>
      </trkpt>
      <trkpt lat="49.2491" lon="-0.27733">
        <ele>16.9</ele>
        <time>2020-06-17T10:08:19Z</time>
      </trkpt>
      <trkpt lat="49.24903" lon="-0.27726">
        <ele>16.5</ele>
        <time>2020-06-17T10:08:20Z</time>
      </trkpt>
      <trkpt lat="49.24896" lon="-0.27717">
        <ele>16</ele>
        <time>2020-06-17T10:08:21Z</time>
      </trkpt>
      <trkpt lat="49.2489" lon="-0.27711">
        <ele>15.7</ele>
        <time>2020-06-17T10:08:22Z</time>
      </trkpt>
      <trkpt lat="49.24882" lon="-0.27703">
        <ele>15.3</ele>
        <time>2020-06-17T10:08:23Z</time>
      </trkpt>
      <trkpt lat="49.24875" lon="-0.27696">
        <ele>15</ele>
        <time>2020-06-17T10:08:24Z</time>
      </trkpt>
      <trkpt lat="49.24868" lon="-0.2769">
        <ele>14.7</ele>
        <time>2020-06-17T10:08:25Z</time>
      </trkpt>
      <trkpt lat="49.24862" lon="-0.27685">
        <ele>14.5</ele>
        <time>2020-06-17T10:08:26Z</time>
      </trkpt>
      <trkpt lat="49.24856" lon="-0.27679">
        <ele>14.2</ele>
        <time>2020-06-17T10:08:27Z</time>
      </trkpt>
      <trkpt lat="49.24849" lon="-0.27674">
        <ele>14</ele>
        <time>2020-06-17T10:08:28Z</time>
      </trkpt>
      <trkpt lat="49.24843" lon="-0.27669">
        <ele>13.7</ele>
        <time>2020-06-17T10:08:29Z</time>
      </trkpt>
      <trkpt lat="49.24837" lon="-0.27662">
        <ele>13.5</ele>
        <time>2020-06-17T10:08:30Z</time>
      </trkpt>
      <trkpt lat="49.24831" lon="-0.27657">
        <ele>13.4</ele>
        <time>2020-06-17T10:08:31Z</time>
      </trkpt>
      <trkpt lat="49.24824" lon="-0.27652">
        <ele>13.3</ele>
        <time>2020-06-17T10:08:32Z</time>
      </trkpt>
      <trkpt lat="49.24819" lon="-0.27649">
        <ele>13.3</ele>
        <time>2020-06-17T10:08:33Z</time>
      </trkpt>
      <trkpt lat="49.24814" lon="-0.27644">
        <ele>13.2</ele>
        <time>2020-06-17T10:08:34Z</time>
      </trkpt>
      <trkpt lat="49.24809" lon="-0.27639">
        <ele>13.2</ele>
        <time>2020-06-17T10:08:35Z</time>
      </trkpt>
      <trkpt lat="49.24805" lon="-0.27634">
        <ele>13.2</ele>
        <time>2020-06-17T10:08:36Z</time>
      </trkpt>
      <trkpt lat="49.24801" lon="-0.27627">
        <ele>13.2</ele>
        <time>2020-06-17T10:08:37Z</time>
      </trkpt>
      <trkpt lat="49.24797" lon="-0.27623">
        <ele>13.2</ele>
        <time>2020-06-17T10:08:38Z</time>
      </trkpt>
      <trkpt lat="49.2479" lon="-0.27622">
        <ele>13.4</ele>
        <time>2020-06-17T10:08:39Z</time>
      </trkpt>
      <trkpt lat="49.24784" lon="-0.27623">
        <ele>13.3</ele>
        <time>2020-06-17T10:08:40Z</time>
      </trkpt>
      <trkpt lat="49.24779" lon="-0.27625">
        <ele>13</ele>
        <time>2020-06-17T10:08:41Z</time>
      </trkpt>
      <trkpt lat="49.24772" lon="-0.27629">
        <ele>12.9</ele>
        <time>2020-06-17T10:08:42Z</time>
      </trkpt>
      <trkpt lat="49.24767" lon="-0.27629">
        <ele>12.8</ele>
        <time>2020-06-17T10:08:43Z</time>
      </trkpt>
      <trkpt lat="49.2476" lon="-0.27631">
        <ele>12.7</ele>
        <time>2020-06-17T10:08:44Z</time>
      </trkpt>
      <trkpt lat="49.24753" lon="-0.27633">
        <ele>12.6</ele>
        <time>2020-06-17T10:08:45Z</time>
      </trkpt>
      <trkpt lat="49.24744" lon="-0.27633">
        <ele>12.5</ele>
        <time>2020-06-17T10:08:46Z</time>
      </trkpt>
      <trkpt lat="49.24736" lon="-0.27633">
        <ele>12.3</ele>
        <time>2020-06-17T10:08:47Z</time>
      </trkpt>
      <trkpt lat="49.2473" lon="-0.27632">
        <ele>12.2</ele>
        <time>2020-06-17T10:08:48Z</time>
      </trkpt>
      <trkpt lat="49.24724" lon="-0.27631">
        <ele>12.2</ele>
        <time>2020-06-17T10:08:49Z</time>
      </trkpt>
      <trkpt lat="49.24718" lon="-0.27631">
        <ele>12.1</ele>
        <time>2020-06-17T10:08:50Z</time>
      </trkpt>
      <trkpt lat="49.24712" lon="-0.27637">
        <ele>12</ele>
        <time>2020-06-17T10:08:51Z</time>
      </trkpt>
      <trkpt lat="49.24705" lon="-0.27643">
        <ele>12</ele>
        <time>2020-06-17T10:08:52Z</time>
      </trkpt>
      <trkpt lat="49.24698" lon="-0.27648">
        <ele>12</ele>
        <time>2020-06-17T10:08:53Z</time>
      </trkpt>
      <trkpt lat="49.24689" lon="-0.27652">
        <ele>12</ele>
        <time>2020-06-17T10:08:54Z</time>
      </trkpt>
      <trkpt lat="49.24682" lon="-0.27654">
        <ele>12</ele>
        <time>2020-06-17T10:08:55Z</time>
      </trkpt>
      <trkpt lat="49.24675" lon="-0.27654">
        <ele>11.9</ele>
        <time>2020-06-17T10:08:56Z</time>
      </trkpt>
      <trkpt lat="49.24668" lon="-0.27656">
        <ele>11.9</ele>
        <time>2020-06-17T10:08:57Z</time>
      </trkpt>
      <trkpt lat="49.24661" lon="-0.27655">
        <ele>11.8</ele>
        <time>2020-06-17T10:08:58Z</time>
      </trkpt>
      <trkpt lat="49.24654" lon="-0.27653">
        <ele>11.8</ele>
        <time>2020-06-17T10:08:59Z</time>
      </trkpt>
      <trkpt lat="49.24648" lon="-0.27652">
        <ele>11.8</ele>
        <time>2020-06-17T10:09:00Z</time>
      </trkpt>
      <trkpt lat="49.24641" lon="-0.27653">
        <ele>11.7</ele>
        <time>2020-06-17T10:09:01Z</time>
      </trkpt>
      <trkpt lat="49.24635" lon="-0.27653">
        <ele>11.5</ele>
        <time>2020-06-17T10:09:02Z</time>
      </trkpt>
      <trkpt lat="49.24628" lon="-0.27655">
        <ele>11.4</ele>
        <time>2020-06-17T10:09:03Z</time>
      </trkpt>
      <trkpt lat="49.24623" lon="-0.27657">
        <ele>11.2</ele>
        <time>2020-06-17T10:09:04Z</time>
      </trkpt>
      <trkpt lat="49.24617" lon="-0.2766">
        <ele>11.1</ele>
        <time>2020-06-17T10:09:05Z</time>
      </trkpt>
      <trkpt lat="49.24611" lon="-0.27662">
        <ele>10.9</ele>
        <time>2020-06-17T10:09:06Z</time>
      </trkpt>
      <trkpt lat="49.24605" lon="-0.27664">
        <ele>10.7</ele>
        <time>2020-06-17T10:09:07Z</time>
      </trkpt>
      <trkpt lat="49.24599" lon="-0.27667">
        <ele>10.4</ele>
        <time>2020-06-17T10:09:08Z</time>
      </trkpt>
      <trkpt lat="49.24592" lon="-0.27671">
        <ele>10.1</ele>
        <time>2020-06-17T10:09:09Z</time>
      </trkpt>
      <trkpt lat="49.24586" lon="-0.27677">
        <ele>9.8</ele>
        <time>2020-06-17T10:09:10Z</time>
      </trkpt>
      <trkpt lat="49.24579" lon="-0.27685">
        <ele>9.4</ele>
        <time>2020-06-17T10:09:11Z</time>
      </trkpt>
      <trkpt lat="49.24572" lon="-0.27691">
        <ele>8.9</ele>
        <time>2020-06-17T10:09:12Z</time>
      </trkpt>
      <trkpt lat="49.24564" lon="-0.27697">
        <ele>8.3</ele>
        <time>2020-06-17T10:09:13Z</time>
      </trkpt>
      <trkpt lat="49.24558" lon="-0.27704">
        <ele>7.8</ele>
        <time>2020-06-17T10:09:14Z</time>
      </trkpt>
      <trkpt lat="49.24552" lon="-0.2771">
        <ele>7.4</ele>
        <time>2020-06-17T10:09:15Z</time>
      </trkpt>
      <trkpt lat="49.24545" lon="-0.27715">
        <ele>6.9</ele>
        <time>2020-06-17T10:09:16Z</time>
      </trkpt>
      <trkpt lat="49.24537" lon="-0.27721">
        <ele>6.5</ele>
        <time>2020-06-17T10:09:17Z</time>
      </trkpt>
      <trkpt lat="49.2453" lon="-0.27725">
        <ele>6.2</ele>
        <time>2020-06-17T10:09:18Z</time>
      </trkpt>
      <trkpt lat="49.24522" lon="-0.27729">
        <ele>6.1</ele>
        <time>2020-06-17T10:09:19Z</time>
      </trkpt>
      <trkpt lat="49.24515" lon="-0.27732">
        <ele>6</ele>
        <time>2020-06-17T10:09:20Z</time>
      </trkpt>
      <trkpt lat="49.24508" lon="-0.27734">
        <ele>6</ele>
        <time>2020-06-17T10:09:21Z</time>
      </trkpt>
      <trkpt lat="49.24501" lon="-0.27737">
        <ele>5.7</ele>
        <time>2020-06-17T10:09:22Z</time>
      </trkpt>
      <trkpt lat="49.24493" lon="-0.2774">
        <ele>5.6</ele>
        <time>2020-06-17T10:09:23Z</time>
      </trkpt>
      <trkpt lat="49.24485" lon="-0.27743">
        <ele>5.4</ele>
        <time>2020-06-17T10:09:24Z</time>
      </trkpt>
      <trkpt lat="49.24478" lon="-0.27744">
        <ele>5.4</ele>
        <time>2020-06-17T10:09:25Z</time>
      </trkpt>
      <trkpt lat="49.2447" lon="-0.27746">
        <ele>5.4</ele>
        <time>2020-06-17T10:09:26Z</time>
      </trkpt>
      <trkpt lat="49.24462" lon="-0.27748">
        <ele>5.4</ele>
        <time>2020-06-17T10:09:27Z</time>
      </trkpt>
      <trkpt lat="49.24455" lon="-0.2775">
        <ele>5.4</ele>
        <time>2020-06-17T10:09:28Z</time>
      </trkpt>
      <trkpt lat="49.24448" lon="-0.27752">
        <ele>5.5</ele>
        <time>2020-06-17T10:09:29Z</time>
      </trkpt>
      <trkpt lat="49.24442" lon="-0.27753">
        <ele>5.6</ele>
        <time>2020-06-17T10:09:30Z</time>
      </trkpt>
      <trkpt lat="49.24436" lon="-0.27756">
        <ele>5.6</ele>
        <time>2020-06-17T10:09:31Z</time>
      </trkpt>
      <trkpt lat="49.2443" lon="-0.27757">
        <ele>5.7</ele>
        <time>2020-06-17T10:09:32Z</time>
      </trkpt>
      <trkpt lat="49.24425" lon="-0.27759">
        <ele>5.9</ele>
        <time>2020-06-17T10:09:33Z</time>
      </trkpt>
      <trkpt lat="49.2442" lon="-0.27763">
        <ele>6.2</ele>
        <time>2020-06-17T10:09:34Z</time>
      </trkpt>
      <trkpt lat="49.24415" lon="-0.27768">
        <ele>6.4</ele>
        <time>2020-06-17T10:09:35Z</time>
      </trkpt>
      <trkpt lat="49.2441" lon="-0.27772">
        <ele>6.7</ele>
        <time>2020-06-17T10:09:36Z</time>
      </trkpt>
      <trkpt lat="49.24405" lon="-0.27776">
        <ele>7</ele>
        <time>2020-06-17T10:09:37Z</time>
      </trkpt>
      <trkpt lat="49.24401" lon="-0.27781">
        <ele>7.3</ele>
        <time>2020-06-17T10:09:38Z</time>
      </trkpt>
      <trkpt lat="49.24397" lon="-0.27783">
        <ele>7.5</ele>
        <time>2020-06-17T10:09:39Z</time>
      </trkpt>
      <trkpt lat="49.24394" lon="-0.27787">
        <ele>7.8</ele>
        <time>2020-06-17T10:09:40Z</time>
      </trkpt>
      <trkpt lat="49.24392" lon="-0.2779">
        <ele>8</ele>
        <time>2020-06-17T10:09:41Z</time>
      </trkpt>
      <trkpt lat="49.2439" lon="-0.27794">
        <ele>8.2</ele>
        <time>2020-06-17T10:09:42Z</time>
      </trkpt>
      <trkpt lat="49.24388" lon="-0.27797">
        <ele>8.4</ele>
        <time>2020-06-17T10:09:43Z</time>
      </trkpt>
      <trkpt lat="49.24386" lon="-0.27801">
        <ele>8.5</ele>
        <time>2020-06-17T10:09:44Z</time>
      </trkpt>
      <trkpt lat="49.24384" lon="-0.27804">
        <ele>8.7</ele>
        <time>2020-06-17T10:09:45Z</time>
      </trkpt>
      <trkpt lat="49.24383" lon="-0.27805">
        <ele>8.8</ele>
        <time>2020-06-17T10:09:46Z</time>
      </trkpt>
      <trkpt lat="49.24382" lon="-0.2781">
        <ele>9.1</ele>
        <time>2020-06-17T10:09:47Z</time>
      </trkpt>
      <trkpt lat="49.24381" lon="-0.27812">
        <ele>9.1</ele>
        <time>2020-06-17T10:09:48Z</time>
      </trkpt>
      <trkpt lat="49.2438" lon="-0.27817">
        <ele>9.3</ele>
        <time>2020-06-17T10:09:49Z</time>
      </trkpt>
      <trkpt lat="49.24379" lon="-0.27819">
        <ele>9.3</ele>
        <time>2020-06-17T10:09:50Z</time>
      </trkpt>
      <trkpt lat="49.24377" lon="-0.27824">
        <ele>9.6</ele>
        <time>2020-06-17T10:09:51Z</time>
      </trkpt>
      <trkpt lat="49.24374" lon="-0.2783">
        <ele>9.6</ele>
        <time>2020-06-17T10:09:52Z</time>
      </trkpt>
      <trkpt lat="49.24371" lon="-0.27834">
        <ele>9.6</ele>
        <time>2020-06-17T10:09:53Z</time>
      </trkpt>
      <trkpt lat="49.24368" lon="-0.27836">
        <ele>9.6</ele>
        <time>2020-06-17T10:09:54Z</time>
      </trkpt>
      <trkpt lat="49.24365" lon="-0.27839">
        <ele>9.6</ele>
        <time>2020-06-17T10:09:55Z</time>
      </trkpt>
      <trkpt lat="49.24361" lon="-0.2784">
        <ele>9.6</ele>
        <time>2020-06-17T10:09:56Z</time>
      </trkpt>
      <trkpt lat="49.24357" lon="-0.27839">
        <ele>9.6</ele>
        <time>2020-06-17T10:09:57Z</time>
      </trkpt>
      <trkpt lat="49.24355" lon="-0.27836">
        <ele>9.6</ele>
        <time>2020-06-17T10:09:58Z</time>
      </trkpt>
      <trkpt lat="49.24353" lon="-0.27832">
        <ele>9.7</ele>
        <time>2020-06-17T10:09:59Z</time>
      </trkpt>
      <trkpt lat="49.24353" lon="-0.27826">
        <ele>9.7</ele>
        <time>2020-06-17T10:10:00Z</time>
      </trkpt>
      <trkpt lat="49.24356" lon="-0.27821">
        <ele>9.7</ele>
        <time>2020-06-17T10:10:01Z</time>
      </trkpt>
      <trkpt lat="49.2436" lon="-0.27816">
        <ele>9.7</ele>
        <time>2020-06-17T10:10:02Z</time>
      </trkpt>
      <trkpt lat="49.24364" lon="-0.27813">
        <ele>9.7</ele>
        <time>2020-06-17T10:10:03Z</time>
      </trkpt>
      <trkpt lat="49.24367" lon="-0.27811">
        <ele>9.7</ele>
        <time>2020-06-17T10:10:04Z</time>
      </trkpt>
      <trkpt lat="49.24371" lon="-0.27812">
        <ele>9.7</ele>
        <time>2020-06-17T10:10:05Z</time>
      </trkpt>
      <trkpt lat="49.24375" lon="-0.27815">
        <ele>9.8</ele>
        <time>2020-06-17T10:10:06Z</time>
      </trkpt>
      <trkpt lat="49.24379" lon="-0.27819">
        <ele>9.8</ele>
        <time>2020-06-17T10:10:07Z</time>
      </trkpt>
      <trkpt lat="49.24382" lon="-0.27823">
        <ele>9.8</ele>
        <time>2020-06-17T10:10:08Z</time>
      </trkpt>
      <trkpt lat="49.24384" lon="-0.27829">
        <ele>9.8</ele>
        <time>2020-06-17T10:10:09Z</time>
      </trkpt>
      <trkpt lat="49.24384" lon="-0.27835">
        <ele>9.8</ele>
        <time>2020-06-17T10:10:10Z</time>
      </trkpt>
      <trkpt lat="49.24383" lon="-0.27843">
        <ele>9.8</ele>
        <time>2020-06-17T10:10:11Z</time>
      </trkpt>
      <trkpt lat="49.24381" lon="-0.27851">
        <ele>9.9</ele>
        <time>2020-06-17T10:10:12Z</time>
      </trkpt>
      <trkpt lat="49.2438" lon="-0.27858">
        <ele>10</ele>
        <time>2020-06-17T10:10:13Z</time>
      </trkpt>
      <trkpt lat="49.24379" lon="-0.27865">
        <ele>10.1</ele>
        <time>2020-06-17T10:10:14Z</time>
      </trkpt>
      <trkpt lat="49.24377" lon="-0.27872">
        <ele>10.2</ele>
        <time>2020-06-17T10:10:15Z</time>
      </trkpt>
      <trkpt lat="49.24376" lon="-0.27878">
        <ele>10.3</ele>
        <time>2020-06-17T10:10:16Z</time>
      </trkpt>
      <trkpt lat="49.24376" lon="-0.27885">
        <ele>10.5</ele>
        <time>2020-06-17T10:10:17Z</time>
      </trkpt>
      <trkpt lat="49.24376" lon="-0.27892">
        <ele>10.6</ele>
        <time>2020-06-17T10:10:18Z</time>
      </trkpt>
      <trkpt lat="49.24375" lon="-0.279">
        <ele>10.7</ele>
        <time>2020-06-17T10:10:19Z</time>
      </trkpt>
      <trkpt lat="49.24376" lon="-0.27907">
        <ele>10.8</ele>
        <time>2020-06-17T10:10:20Z</time>
      </trkpt>
      <trkpt lat="49.24376" lon="-0.27914">
        <ele>10.8</ele>
        <time>2020-06-17T10:10:21Z</time>
      </trkpt>
      <trkpt lat="49.24377" lon="-0.27924">
        <ele>10.9</ele>
        <time>2020-06-17T10:10:22Z</time>
      </trkpt>
      <trkpt lat="49.24377" lon="-0.27931">
        <ele>10.9</ele>
        <time>2020-06-17T10:10:23Z</time>
      </trkpt>
      <trkpt lat="49.24377" lon="-0.27936">
        <ele>10.9</ele>
        <time>2020-06-17T10:10:24Z</time>
      </trkpt>
      <trkpt lat="49.24377" lon="-0.27938">
        <ele>11</ele>
        <time>2020-06-17T10:10:25Z</time>
      </trkpt>
      <trkpt lat="49.24377" lon="-0.2794">
        <ele>11</ele>
        <time>2020-06-17T10:10:26Z</time>
      </trkpt>
      <trkpt lat="49.24377" lon="-0.27941">
        <ele>11</ele>
        <time>2020-06-17T10:10:27Z</time>
      </trkpt>
      <trkpt lat="49.24377" lon="-0.27942">
        <ele>11</ele>
        <time>2020-06-17T10:10:28Z</time>
      </trkpt>
      <trkpt lat="49.24377" lon="-0.27942">
        <ele>11</ele>
        <time>2020-06-17T10:10:29Z</time>
      </trkpt>
      <trkpt lat="49.24377" lon="-0.27942">
        <ele>11</ele>
        <time>2020-06-17T10:10:30Z</time>
      </trkpt>
      <trkpt lat="49.24377" lon="-0.27941">
        <ele>11</ele>
        <time>2020-06-17T10:10:31Z</time>
      </trkpt>
      <trkpt lat="49.24377" lon="-0.27941">
        <ele>11</ele>
        <time>2020-06-17T10:10:32Z</time>
      </trkpt>
      <trkpt lat="49.24378" lon="-0.2794">
        <ele>11</ele>
        <time>2020-06-17T10:10:33Z</time>
      </trkpt>
      <trkpt lat="49.24379" lon="-0.27939">
        <ele>11</ele>
        <time>2020-06-17T10:10:34Z</time>
      </trkpt>
      <trkpt lat="49.24379" lon="-0.27937">
        <ele>11</ele>
        <time>2020-06-17T10:10:35Z</time>
      </trkpt>
      <trkpt lat="49.2438" lon="-0.27934">
        <ele>11</ele>
        <time>2020-06-17T10:10:36Z</time>
      </trkpt>
      <trkpt lat="49.2438" lon="-0.27932">
        <ele>11</ele>
        <time>2020-06-17T10:10:37Z</time>
      </trkpt>
      <trkpt lat="49.2438" lon="-0.27929">
        <ele>11</ele>
        <time>2020-06-17T10:10:38Z</time>
      </trkpt>
      <trkpt lat="49.24379" lon="-0.27924">
        <ele>11</ele>
        <time>2020-06-17T10:10:39Z</time>
      </trkpt>
      <trkpt lat="49.24379" lon="-0.27922">
        <ele>11</ele>
        <time>2020-06-17T10:10:40Z</time>
      </trkpt>
      <trkpt lat="49.24379" lon="-0.27918">
        <ele>10.9</ele>
        <time>2020-06-17T10:10:41Z</time>
      </trkpt>
      <trkpt lat="49.24379" lon="-0.27913">
        <ele>10.9</ele>
        <time>2020-06-17T10:10:42Z</time>
      </trkpt>
      <trkpt lat="49.24378" lon="-0.27909">
        <ele>10.9</ele>
        <time>2020-06-17T10:10:43Z</time>
      </trkpt>
      <trkpt lat="49.24375" lon="-0.27903">
        <ele>10.8</ele>
        <time>2020-06-17T10:10:44Z</time>
      </trkpt>
      <trkpt lat="49.24374" lon="-0.27901">
        <ele>10.8</ele>
        <time>2020-06-17T10:10:45Z</time>
      </trkpt>
      <trkpt lat="49.24372" lon="-0.27897">
        <ele>10.7</ele>
        <time>2020-06-17T10:10:46Z</time>
      </trkpt>
      <trkpt lat="49.2437" lon="-0.27892">
        <ele>10.7</ele>
        <time>2020-06-17T10:10:47Z</time>
      </trkpt>
      <trkpt lat="49.24367" lon="-0.27887">
        <ele>10.5</ele>
        <time>2020-06-17T10:10:48Z</time>
      </trkpt>
      <trkpt lat="49.24366" lon="-0.27881">
        <ele>10.4</ele>
        <time>2020-06-17T10:10:49Z</time>
      </trkpt>
      <trkpt lat="49.24364" lon="-0.27874">
        <ele>10.3</ele>
        <time>2020-06-17T10:10:50Z</time>
      </trkpt>
      <trkpt lat="49.24364" lon="-0.27869">
        <ele>10.2</ele>
        <time>2020-06-17T10:10:51Z</time>
      </trkpt>
      <trkpt lat="49.24363" lon="-0.27865">
        <ele>10.2</ele>
        <time>2020-06-17T10:10:52Z</time>
      </trkpt>
      <trkpt lat="49.24364" lon="-0.2786">
        <ele>10.1</ele>
        <time>2020-06-17T10:10:53Z</time>
      </trkpt>
      <trkpt lat="49.24366" lon="-0.27855">
        <ele>10</ele>
        <time>2020-06-17T10:10:54Z</time>
      </trkpt>
      <trkpt lat="49.24367" lon="-0.27848">
        <ele>10</ele>
        <time>2020-06-17T10:10:55Z</time>
      </trkpt>
      <trkpt lat="49.24366" lon="-0.2784">
        <ele>9.9</ele>
        <time>2020-06-17T10:10:56Z</time>
      </trkpt>
      <trkpt lat="49.24366" lon="-0.27832">
        <ele>9.7</ele>
        <time>2020-06-17T10:10:57Z</time>
      </trkpt>
      <trkpt lat="49.24364" lon="-0.27824">
        <ele>9.6</ele>
        <time>2020-06-17T10:10:58Z</time>
      </trkpt>
      <trkpt lat="49.24362" lon="-0.27816">
        <ele>9.8</ele>
        <time>2020-06-17T10:10:59Z</time>
      </trkpt>
      <trkpt lat="49.24361" lon="-0.27809">
        <ele>10</ele>
        <time>2020-06-17T10:11:00Z</time>
      </trkpt>
      <trkpt lat="49.24358" lon="-0.27803">
        <ele>10.1</ele>
        <time>2020-06-17T10:11:01Z</time>
      </trkpt>
      <trkpt lat="49.24356" lon="-0.27797">
        <ele>10.1</ele>
        <time>2020-06-17T10:11:02Z</time>
      </trkpt>
      <trkpt lat="49.24354" lon="-0.27791">
        <ele>10.1</ele>
        <time>2020-06-17T10:11:03Z</time>
      </trkpt>
      <trkpt lat="49.24352" lon="-0.27785">
        <ele>10.1</ele>
        <time>2020-06-17T10:11:04Z</time>
      </trkpt>
      <trkpt lat="49.2435" lon="-0.27779">
        <ele>10.1</ele>
        <time>2020-06-17T10:11:05Z</time>
      </trkpt>
      <trkpt lat="49.24347" lon="-0.27773">
        <ele>10.1</ele>
        <time>2020-06-17T10:11:06Z</time>
      </trkpt>
      <trkpt lat="49.24345" lon="-0.27768">
        <ele>10.1</ele>
        <time>2020-06-17T10:11:07Z</time>
      </trkpt>
      <trkpt lat="49.24342" lon="-0.27761">
        <ele>10.1</ele>
        <time>2020-06-17T10:11:08Z</time>
      </trkpt>
      <trkpt lat="49.24339" lon="-0.27755">
        <ele>10</ele>
        <time>2020-06-17T10:11:09Z</time>
      </trkpt>
      <trkpt lat="49.24336" lon="-0.27749">
        <ele>9.9</ele>
        <time>2020-06-17T10:11:10Z</time>
      </trkpt>
      <trkpt lat="49.24332" lon="-0.27741">
        <ele>9.8</ele>
        <time>2020-06-17T10:11:11Z</time>
      </trkpt>
      <trkpt lat="49.24329" lon="-0.27731">
        <ele>9.6</ele>
        <time>2020-06-17T10:11:12Z</time>
      </trkpt>
      <trkpt lat="49.24326" lon="-0.27723">
        <ele>9.5</ele>
        <time>2020-06-17T10:11:13Z</time>
      </trkpt>
      <trkpt lat="49.24323" lon="-0.27714">
        <ele>9.4</ele>
        <time>2020-06-17T10:11:14Z</time>
      </trkpt>
      <trkpt lat="49.2432" lon="-0.27707">
        <ele>9.3</ele>
        <time>2020-06-17T10:11:15Z</time>
      </trkpt>
      <trkpt lat="49.24318" lon="-0.27698">
        <ele>9.2</ele>
        <time>2020-06-17T10:11:16Z</time>
      </trkpt>
      <trkpt lat="49.24315" lon="-0.2769">
        <ele>9</ele>
        <time>2020-06-17T10:11:17Z</time>
      </trkpt>
      <trkpt lat="49.24313" lon="-0.2768">
        <ele>8.9</ele>
        <time>2020-06-17T10:11:18Z</time>
      </trkpt>
      <trkpt lat="49.24311" lon="-0.27672">
        <ele>8.8</ele>
        <time>2020-06-17T10:11:19Z</time>
      </trkpt>
      <trkpt lat="49.24309" lon="-0.27666">
        <ele>8.7</ele>
        <time>2020-06-17T10:11:20Z</time>
      </trkpt>
      <trkpt lat="49.24306" lon="-0.27658">
        <ele>8.6</ele>
        <time>2020-06-17T10:11:21Z</time>
      </trkpt>
      <trkpt lat="49.24303" lon="-0.27651">
        <ele>8.5</ele>
        <time>2020-06-17T10:11:22Z</time>
      </trkpt>
      <trkpt lat="49.243" lon="-0.27644">
        <ele>8.4</ele>
        <time>2020-06-17T10:11:23Z</time>
      </trkpt>
      <trkpt lat="49.24297" lon="-0.27637">
        <ele>8.3</ele>
        <time>2020-06-17T10:11:24Z</time>
      </trkpt>
      <trkpt lat="49.24295" lon="-0.2763">
        <ele>8.2</ele>
        <time>2020-06-17T10:11:25Z</time>
      </trkpt>
      <trkpt lat="49.24294" lon="-0.27623">
        <ele>8.1</ele>
        <time>2020-06-17T10:11:26Z</time>
      </trkpt>
      <trkpt lat="49.24292" lon="-0.27615">
        <ele>8</ele>
        <time>2020-06-17T10:11:27Z</time>
      </trkpt>
      <trkpt lat="49.2429" lon="-0.27605">
        <ele>8.1</ele>
        <time>2020-06-17T10:11:28Z</time>
      </trkpt>
      <trkpt lat="49.24288" lon="-0.27597">
        <ele>8.1</ele>
        <time>2020-06-17T10:11:29Z</time>
      </trkpt>
      <trkpt lat="49.24286" lon="-0.27589">
        <ele>8</ele>
        <time>2020-06-17T10:11:30Z</time>
      </trkpt>
      <trkpt lat="49.24282" lon="-0.27579">
        <ele>7.9</ele>
        <time>2020-06-17T10:11:31Z</time>
      </trkpt>
      <trkpt lat="49.2428" lon="-0.2757">
        <ele>7.8</ele>
        <time>2020-06-17T10:11:32Z</time>
      </trkpt>
      <trkpt lat="49.24277" lon="-0.27561">
        <ele>7.7</ele>
        <time>2020-06-17T10:11:33Z</time>
      </trkpt>
      <trkpt lat="49.24274" lon="-0.27553">
        <ele>7.6</ele>
        <time>2020-06-17T10:11:34Z</time>
      </trkpt>
      <trkpt lat="49.24271" lon="-0.27545">
        <ele>7.5</ele>
        <time>2020-06-17T10:11:35Z</time>
      </trkpt>
      <trkpt lat="49.24268" lon="-0.27536">
        <ele>7.3</ele>
        <time>2020-06-17T10:11:36Z</time>
      </trkpt>
      <trkpt lat="49.24265" lon="-0.27528">
        <ele>7.2</ele>
        <time>2020-06-17T10:11:37Z</time>
      </trkpt>
      <trkpt lat="49.24263" lon="-0.27519">
        <ele>7.1</ele>
        <time>2020-06-17T10:11:38Z</time>
      </trkpt>
      <trkpt lat="49.2426" lon="-0.27511">
        <ele>7</ele>
        <time>2020-06-17T10:11:39Z</time>
      </trkpt>
      <trkpt lat="49.24258" lon="-0.27504">
        <ele>6.9</ele>
        <time>2020-06-17T10:11:40Z</time>
      </trkpt>
      <trkpt lat="49.24257" lon="-0.27498">
        <ele>6.8</ele>
        <time>2020-06-17T10:11:41Z</time>
      </trkpt>
      <trkpt lat="49.24255" lon="-0.27492">
        <ele>6.7</ele>
        <time>2020-06-17T10:11:42Z</time>
      </trkpt>
      <trkpt lat="49.24254" lon="-0.27485">
        <ele>6.7</ele>
        <time>2020-06-17T10:11:43Z</time>
      </trkpt>
      <trkpt lat="49.24253" lon="-0.27479">
        <ele>6.8</ele>
        <time>2020-06-17T10:11:44Z</time>
      </trkpt>
      <trkpt lat="49.24253" lon="-0.27474">
        <ele>6.8</ele>
        <time>2020-06-17T10:11:45Z</time>
      </trkpt>
      <trkpt lat="49.24253" lon="-0.2747">
        <ele>6.8</ele>
        <time>2020-06-17T10:11:46Z</time>
      </trkpt>
      <trkpt lat="49.24252" lon="-0.27464">
        <ele>6.8</ele>
        <time>2020-06-17T10:11:47Z</time>
      </trkpt>
      <trkpt lat="49.24251" lon="-0.27462">
        <ele>6.8</ele>
        <time>2020-06-17T10:11:48Z</time>
      </trkpt>
      <trkpt lat="49.2425" lon="-0.27457">
        <ele>6.8</ele>
        <time>2020-06-17T10:11:49Z</time>
      </trkpt>
      <trkpt lat="49.24249" lon="-0.27456">
        <ele>6.8</ele>
        <time>2020-06-17T10:11:50Z</time>
      </trkpt>
      <trkpt lat="49.24247" lon="-0.27451">
        <ele>6.8</ele>
        <time>2020-06-17T10:11:51Z</time>
      </trkpt>
      <trkpt lat="49.24246" lon="-0.27449">
        <ele>6.8</ele>
        <time>2020-06-17T10:11:52Z</time>
      </trkpt>
      <trkpt lat="49.24245" lon="-0.27445">
        <ele>6.8</ele>
        <time>2020-06-17T10:11:53Z</time>
      </trkpt>
      <trkpt lat="49.24243" lon="-0.2744">
        <ele>6.8</ele>
        <time>2020-06-17T10:11:54Z</time>
      </trkpt>
      <trkpt lat="49.24242" lon="-0.27436">
        <ele>6.8</ele>
        <time>2020-06-17T10:11:55Z</time>
      </trkpt>
      <trkpt lat="49.2424" lon="-0.27432">
        <ele>6.8</ele>
        <time>2020-06-17T10:11:56Z</time>
      </trkpt>
      <trkpt lat="49.2424" lon="-0.27427">
        <ele>6.8</ele>
        <time>2020-06-17T10:11:57Z</time>
      </trkpt>
      <trkpt lat="49.24239" lon="-0.27422">
        <ele>6.8</ele>
        <time>2020-06-17T10:11:58Z</time>
      </trkpt>
      <trkpt lat="49.24237" lon="-0.27418">
        <ele>6.8</ele>
        <time>2020-06-17T10:11:59Z</time>
      </trkpt>
      <trkpt lat="49.24236" lon="-0.27417">
        <ele>6.8</ele>
        <time>2020-06-17T10:12:00Z</time>
      </trkpt>
      <trkpt lat="49.24236" lon="-0.27415">
        <ele>6.8</ele>
        <time>2020-06-17T10:12:01Z</time>
      </trkpt>
      <trkpt lat="49.24236" lon="-0.27412">
        <ele>6.7</ele>
        <time>2020-06-17T10:12:02Z</time>
      </trkpt>
      <trkpt lat="49.24235" lon="-0.27407">
        <ele>6.7</ele>
        <time>2020-06-17T10:12:03Z</time>
      </trkpt>
      <trkpt lat="49.24234" lon="-0.27405">
        <ele>6.7</ele>
        <time>2020-06-17T10:12:04Z</time>
      </trkpt>
      <trkpt lat="49.24233" lon="-0.274">
        <ele>6.7</ele>
        <time>2020-06-17T10:12:05Z</time>
      </trkpt>
      <trkpt lat="49.24233" lon="-0.27395">
        <ele>6.7</ele>
        <time>2020-06-17T10:12:06Z</time>
      </trkpt>
      <trkpt lat="49.24232" lon="-0.27391">
        <ele>6.7</ele>
        <time>2020-06-17T10:12:07Z</time>
      </trkpt>
      <trkpt lat="49.24231" lon="-0.27386">
        <ele>6.7</ele>
        <time>2020-06-17T10:12:08Z</time>
      </trkpt>
      <trkpt lat="49.2423" lon="-0.27382">
        <ele>6.7</ele>
        <time>2020-06-17T10:12:09Z</time>
      </trkpt>
      <trkpt lat="49.24228" lon="-0.27377">
        <ele>6.7</ele>
        <time>2020-06-17T10:12:10Z</time>
      </trkpt>
      <trkpt lat="49.24227" lon="-0.27375">
        <ele>6.7</ele>
        <time>2020-06-17T10:12:11Z</time>
      </trkpt>
      <trkpt lat="49.24225" lon="-0.27372">
        <ele>6.7</ele>
        <time>2020-06-17T10:12:12Z</time>
      </trkpt>
      <trkpt lat="49.24222" lon="-0.27368">
        <ele>6.5</ele>
        <time>2020-06-17T10:12:13Z</time>
      </trkpt>
      <trkpt lat="49.24221" lon="-0.27365">
        <ele>6.4</ele>
        <time>2020-06-17T10:12:14Z</time>
      </trkpt>
      <trkpt lat="49.24219" lon="-0.27362">
        <ele>6.3</ele>
        <time>2020-06-17T10:12:15Z</time>
      </trkpt>
      <trkpt lat="49.24219" lon="-0.27361">
        <ele>6.2</ele>
        <time>2020-06-17T10:12:16Z</time>
      </trkpt>
      <trkpt lat="49.24218" lon="-0.2736">
        <ele>6.2</ele>
        <time>2020-06-17T10:12:17Z</time>
      </trkpt>
      <trkpt lat="49.24217" lon="-0.27359">
        <ele>6.2</ele>
        <time>2020-06-17T10:12:18Z</time>
      </trkpt>
      <trkpt lat="49.24217" lon="-0.27357">
        <ele>6.2</ele>
        <time>2020-06-17T10:12:19Z</time>
      </trkpt>
      <trkpt lat="49.24217" lon="-0.27356">
        <ele>6.2</ele>
        <time>2020-06-17T10:12:20Z</time>
      </trkpt>
      <trkpt lat="49.24217" lon="-0.27356">
        <ele>6.2</ele>
        <time>2020-06-17T10:12:21Z</time>
      </trkpt>
      <trkpt lat="49.24218" lon="-0.27354">
        <ele>6.1</ele>
        <time>2020-06-17T10:12:22Z</time>
      </trkpt>
      <trkpt lat="49.24218" lon="-0.27353">
        <ele>6.1</ele>
        <time>2020-06-17T10:12:23Z</time>
      </trkpt>
      <trkpt lat="49.24219" lon="-0.27351">
        <ele>6.1</ele>
        <time>2020-06-17T10:12:24Z</time>
      </trkpt>
      <trkpt lat="49.2422" lon="-0.27351">
        <ele>6.1</ele>
        <time>2020-06-17T10:12:25Z</time>
      </trkpt>
      <trkpt lat="49.2422" lon="-0.27351">
        <ele>6.1</ele>
        <time>2020-06-17T10:12:26Z</time>
      </trkpt>
      <trkpt lat="49.2422" lon="-0.27351">
        <ele>6.1</ele>
        <time>2020-06-17T10:12:27Z</time>
      </trkpt>
      <trkpt lat="49.2422" lon="-0.27351">
        <ele>6.1</ele>
        <time>2020-06-17T10:12:28Z</time>
      </trkpt>
      <trkpt lat="49.2422" lon="-0.27352">
        <ele>6.1</ele>
        <time>2020-06-17T10:12:29Z</time>
      </trkpt>
      <trkpt lat="49.24221" lon="-0.27352">
        <ele>6.1</ele>
        <time>2020-06-17T10:12:30Z</time>
      </trkpt>
      <trkpt lat="49.2422" lon="-0.27352">
        <ele>6.1</ele>
        <time>2020-06-17T10:12:31Z</time>
      </trkpt>
      <trkpt lat="49.2422" lon="-0.27352">
        <ele>6.1</ele>
        <time>2020-06-17T10:12:32Z</time>
      </trkpt>
      <trkpt lat="49.24219" lon="-0.27352">
        <ele>6.1</ele>
        <time>2020-06-17T10:12:33Z</time>
      </trkpt>
      <trkpt lat="49.24219" lon="-0.27354">
        <ele>6.1</ele>
        <time>2020-06-17T10:12:34Z</time>
      </trkpt>
      <trkpt lat="49.24219" lon="-0.27355">
        <ele>6</ele>
        <time>2020-06-17T10:12:35Z</time>
      </trkpt>
      <trkpt lat="49.2422" lon="-0.27355">
        <ele>6</ele>
        <time>2020-06-17T10:12:36Z</time>
      </trkpt>
      <trkpt lat="49.24221" lon="-0.27355">
        <ele>6</ele>
        <time>2020-06-17T10:12:37Z</time>
      </trkpt>
      <trkpt lat="49.24222" lon="-0.27354">
        <ele>6</ele>
        <time>2020-06-17T10:12:38Z</time>
      </trkpt>
      <trkpt lat="49.24222" lon="-0.27354">
        <ele>6</ele>
        <time>2020-06-17T10:12:39Z</time>
      </trkpt>
      <trkpt lat="49.24222" lon="-0.27355">
        <ele>6</ele>
        <time>2020-06-17T10:12:40Z</time>
      </trkpt>
      <trkpt lat="49.24222" lon="-0.27355">
        <ele>6</ele>
        <time>2020-06-17T10:12:41Z</time>
      </trkpt>
      <trkpt lat="49.24222" lon="-0.27354">
        <ele>6</ele>
        <time>2020-06-17T10:12:42Z</time>
      </trkpt>
      <trkpt lat="49.24221" lon="-0.27355">
        <ele>6</ele>
        <time>2020-06-17T10:12:43Z</time>
      </trkpt>
      <trkpt lat="49.24221" lon="-0.27354">
        <ele>6</ele>
        <time>2020-06-17T10:12:44Z</time>
      </trkpt>
      <trkpt lat="49.2422" lon="-0.27354">
        <ele>5.9</ele>
        <time>2020-06-17T10:12:45Z</time>
      </trkpt>
      <trkpt lat="49.24219" lon="-0.27354">
        <ele>5.9</ele>
        <time>2020-06-17T10:12:46Z</time>
      </trkpt>
      <trkpt lat="49.24219" lon="-0.27352">
        <ele>5.9</ele>
        <time>2020-06-17T10:12:47Z</time>
      </trkpt>
      <trkpt lat="49.24218" lon="-0.2735">
        <ele>5.9</ele>
        <time>2020-06-17T10:12:48Z</time>
      </trkpt>
      <trkpt lat="49.24217" lon="-0.27349">
        <ele>5.9</ele>
        <time>2020-06-17T10:12:49Z</time>
      </trkpt>
      <trkpt lat="49.24216" lon="-0.27349">
        <ele>5.9</ele>
        <time>2020-06-17T10:12:50Z</time>
      </trkpt>
      <trkpt lat="49.24215" lon="-0.27348">
        <ele>5.8</ele>
        <time>2020-06-17T10:12:51Z</time>
      </trkpt>
      <trkpt lat="49.24214" lon="-0.27347">
        <ele>5.8</ele>
        <time>2020-06-17T10:12:52Z</time>
      </trkpt>
      <trkpt lat="49.24212" lon="-0.27344">
        <ele>5.8</ele>
        <time>2020-06-17T10:12:53Z</time>
      </trkpt>
      <trkpt lat="49.24209" lon="-0.27339">
        <ele>5.7</ele>
        <time>2020-06-17T10:12:54Z</time>
      </trkpt>
      <trkpt lat="49.24207" lon="-0.27334">
        <ele>5.6</ele>
        <time>2020-06-17T10:12:55Z</time>
      </trkpt>
      <trkpt lat="49.24204" lon="-0.27328">
        <ele>5.5</ele>
        <time>2020-06-17T10:12:56Z</time>
      </trkpt>
      <trkpt lat="49.24202" lon="-0.27322">
        <ele>5.4</ele>
        <time>2020-06-17T10:12:57Z</time>
      </trkpt>
      <trkpt lat="49.242" lon="-0.27316">
        <ele>5.4</ele>
        <time>2020-06-17T10:12:58Z</time>
      </trkpt>
      <trkpt lat="49.24197" lon="-0.27311">
        <ele>5.3</ele>
        <time>2020-06-17T10:12:59Z</time>
      </trkpt>
      <trkpt lat="49.24194" lon="-0.27304">
        <ele>5.2</ele>
        <time>2020-06-17T10:13:00Z</time>
      </trkpt>
      <trkpt lat="49.24191" lon="-0.27296">
        <ele>5.1</ele>
        <time>2020-06-17T10:13:01Z</time>
      </trkpt>
      <trkpt lat="49.2419" lon="-0.27289">
        <ele>5</ele>
        <time>2020-06-17T10:13:02Z</time>
      </trkpt>
      <trkpt lat="49.24188" lon="-0.27283">
        <ele>5</ele>
        <time>2020-06-17T10:13:03Z</time>
      </trkpt>
      <trkpt lat="49.24186" lon="-0.27276">
        <ele>4.9</ele>
        <time>2020-06-17T10:13:04Z</time>
      </trkpt>
      <trkpt lat="49.24184" lon="-0.27269">
        <ele>4.9</ele>
        <time>2020-06-17T10:13:05Z</time>
      </trkpt>
      <trkpt lat="49.24182" lon="-0.27261">
        <ele>4.8</ele>
        <time>2020-06-17T10:13:06Z</time>
      </trkpt>
      <trkpt lat="49.2418" lon="-0.27252">
        <ele>4.8</ele>
        <time>2020-06-17T10:13:07Z</time>
      </trkpt>
      <trkpt lat="49.24177" lon="-0.27245">
        <ele>4.7</ele>
        <time>2020-06-17T10:13:08Z</time>
      </trkpt>
      <trkpt lat="49.24174" lon="-0.27237">
        <ele>4.7</ele>
        <time>2020-06-17T10:13:09Z</time>
      </trkpt>
      <trkpt lat="49.24171" lon="-0.27229">
        <ele>4.6</ele>
        <time>2020-06-17T10:13:10Z</time>
      </trkpt>
      <trkpt lat="49.24167" lon="-0.2722">
        <ele>4.6</ele>
        <time>2020-06-17T10:13:11Z</time>
      </trkpt>
      <trkpt lat="49.24164" lon="-0.2721">
        <ele>4.5</ele>
        <time>2020-06-17T10:13:12Z</time>
      </trkpt>
      <trkpt lat="49.24161" lon="-0.272">
        <ele>4.5</ele>
        <time>2020-06-17T10:13:13Z</time>
      </trkpt>
      <trkpt lat="49.24158" lon="-0.27189">
        <ele>4.4</ele>
        <time>2020-06-17T10:13:14Z</time>
      </trkpt>
      <trkpt lat="49.24155" lon="-0.27178">
        <ele>4.4</ele>
        <time>2020-06-17T10:13:15Z</time>
      </trkpt>
      <trkpt lat="49.24153" lon="-0.27168">
        <ele>4.4</ele>
        <time>2020-06-17T10:13:16Z</time>
      </trkpt>
      <trkpt lat="49.24151" lon="-0.2716">
        <ele>4.4</ele>
        <time>2020-06-17T10:13:17Z</time>
      </trkpt>
      <trkpt lat="49.24148" lon="-0.2715">
        <ele>4.3</ele>
        <time>2020-06-17T10:13:18Z</time>
      </trkpt>
      <trkpt lat="49.24145" lon="-0.27141">
        <ele>4.2</ele>
        <time>2020-06-17T10:13:19Z</time>
      </trkpt>
      <trkpt lat="49.24143" lon="-0.27132">
        <ele>4.2</ele>
        <time>2020-06-17T10:13:20Z</time>
      </trkpt>
      <trkpt lat="49.24142" lon="-0.27125">
        <ele>4.2</ele>
        <time>2020-06-17T10:13:21Z</time>
      </trkpt>
      <trkpt lat="49.24139" lon="-0.27116">
        <ele>4.2</ele>
        <time>2020-06-17T10:13:22Z</time>
      </trkpt>
      <trkpt lat="49.24137" lon="-0.27107">
        <ele>4.1</ele>
        <time>2020-06-17T10:13:23Z</time>
      </trkpt>
      <trkpt lat="49.24135" lon="-0.27099">
        <ele>4.2</ele>
        <time>2020-06-17T10:13:24Z</time>
      </trkpt>
      <trkpt lat="49.24133" lon="-0.27089">
        <ele>4.2</ele>
        <time>2020-06-17T10:13:25Z</time>
      </trkpt>
      <trkpt lat="49.2413" lon="-0.27078">
        <ele>4.2</ele>
        <time>2020-06-17T10:13:26Z</time>
      </trkpt>
      <trkpt lat="49.24126" lon="-0.27068">
        <ele>4.3</ele>
        <time>2020-06-17T10:13:27Z</time>
      </trkpt>
      <trkpt lat="49.24124" lon="-0.27058">
        <ele>4.4</ele>
        <time>2020-06-17T10:13:28Z</time>
      </trkpt>
      <trkpt lat="49.24121" lon="-0.2705">
        <ele>4.5</ele>
        <time>2020-06-17T10:13:29Z</time>
      </trkpt>
      <trkpt lat="49.24119" lon="-0.27041">
        <ele>4.5</ele>
        <time>2020-06-17T10:13:30Z</time>
      </trkpt>
      <trkpt lat="49.24118" lon="-0.27034">
        <ele>4.6</ele>
        <time>2020-06-17T10:13:31Z</time>
      </trkpt>
      <trkpt lat="49.24116" lon="-0.27026">
        <ele>4.6</ele>
        <time>2020-06-17T10:13:32Z</time>
      </trkpt>
      <trkpt lat="49.24114" lon="-0.27017">
        <ele>4.6</ele>
        <time>2020-06-17T10:13:33Z</time>
      </trkpt>
      <trkpt lat="49.24113" lon="-0.27009">
        <ele>4.7</ele>
        <time>2020-06-17T10:13:34Z</time>
      </trkpt>
      <trkpt lat="49.2411" lon="-0.26999">
        <ele>4.7</ele>
        <time>2020-06-17T10:13:35Z</time>
      </trkpt>
      <trkpt lat="49.24108" lon="-0.2699">
        <ele>4.8</ele>
        <time>2020-06-17T10:13:36Z</time>
      </trkpt>
      <trkpt lat="49.24106" lon="-0.26981">
        <ele>4.8</ele>
        <time>2020-06-17T10:13:37Z</time>
      </trkpt>
      <trkpt lat="49.24104" lon="-0.26974">
        <ele>4.8</ele>
        <time>2020-06-17T10:13:38Z</time>
      </trkpt>
      <trkpt lat="49.24101" lon="-0.26968">
        <ele>4.9</ele>
        <time>2020-06-17T10:13:39Z</time>
      </trkpt>
      <trkpt lat="49.24098" lon="-0.26961">
        <ele>4.9</ele>
        <time>2020-06-17T10:13:40Z</time>
      </trkpt>
      <trkpt lat="49.24096" lon="-0.26957">
        <ele>4.9</ele>
        <time>2020-06-17T10:13:41Z</time>
      </trkpt>
      <trkpt lat="49.24093" lon="-0.26955">
        <ele>4.9</ele>
        <time>2020-06-17T10:13:42Z</time>
      </trkpt>
      <trkpt lat="49.2409" lon="-0.26954">
        <ele>5</ele>
        <time>2020-06-17T10:13:43Z</time>
      </trkpt>
      <trkpt lat="49.24088" lon="-0.26954">
        <ele>5</ele>
        <time>2020-06-17T10:13:44Z</time>
      </trkpt>
      <trkpt lat="49.24087" lon="-0.26954">
        <ele>5</ele>
        <time>2020-06-17T10:13:45Z</time>
      </trkpt>
      <trkpt lat="49.24086" lon="-0.26955">
        <ele>5</ele>
        <time>2020-06-17T10:13:46Z</time>
      </trkpt>
      <trkpt lat="49.24086" lon="-0.26955">
        <ele>5</ele>
        <time>2020-06-17T10:13:47Z</time>
      </trkpt>
      <trkpt lat="49.24084" lon="-0.26952">
        <ele>5.1</ele>
        <time>2020-06-17T10:13:48Z</time>
      </trkpt>
      <trkpt lat="49.24082" lon="-0.26947">
        <ele>5.1</ele>
        <time>2020-06-17T10:13:49Z</time>
      </trkpt>
      <trkpt lat="49.2408" lon="-0.26943">
        <ele>5.1</ele>
        <time>2020-06-17T10:13:50Z</time>
      </trkpt>
      <trkpt lat="49.24079" lon="-0.26938">
        <ele>5.1</ele>
        <time>2020-06-17T10:13:51Z</time>
      </trkpt>
      <trkpt lat="49.24078" lon="-0.26933">
        <ele>5.1</ele>
        <time>2020-06-17T10:13:52Z</time>
      </trkpt>
      <trkpt lat="49.24079" lon="-0.26928">
        <ele>5.2</ele>
        <time>2020-06-17T10:13:53Z</time>
      </trkpt>
      <trkpt lat="49.24081" lon="-0.26921">
        <ele>5.2</ele>
        <time>2020-06-17T10:13:54Z</time>
      </trkpt>
      <trkpt lat="49.24082" lon="-0.26916">
        <ele>5.3</ele>
        <time>2020-06-17T10:13:55Z</time>
      </trkpt>
      <trkpt lat="49.24083" lon="-0.26911">
        <ele>5.3</ele>
        <time>2020-06-17T10:13:56Z</time>
      </trkpt>
      <trkpt lat="49.24082" lon="-0.26904">
        <ele>5.5</ele>
        <time>2020-06-17T10:13:57Z</time>
      </trkpt>
      <trkpt lat="49.24081" lon="-0.26898">
        <ele>5.5</ele>
        <time>2020-06-17T10:13:58Z</time>
      </trkpt>
      <trkpt lat="49.2408" lon="-0.26892">
        <ele>5.5</ele>
        <time>2020-06-17T10:13:59Z</time>
      </trkpt>
      <trkpt lat="49.24078" lon="-0.26886">
        <ele>5.5</ele>
        <time>2020-06-17T10:14:00Z</time>
      </trkpt>
      <trkpt lat="49.24076" lon="-0.2688">
        <ele>5.6</ele>
        <time>2020-06-17T10:14:01Z</time>
      </trkpt>
      <trkpt lat="49.24074" lon="-0.26873">
        <ele>5.6</ele>
        <time>2020-06-17T10:14:02Z</time>
      </trkpt>
      <trkpt lat="49.24072" lon="-0.26867">
        <ele>5.6</ele>
        <time>2020-06-17T10:14:03Z</time>
      </trkpt>
      <trkpt lat="49.2407" lon="-0.2686">
        <ele>5.7</ele>
        <time>2020-06-17T10:14:04Z</time>
      </trkpt>
      <trkpt lat="49.24069" lon="-0.26854">
        <ele>5.7</ele>
        <time>2020-06-17T10:14:05Z</time>
      </trkpt>
      <trkpt lat="49.24068" lon="-0.26846">
        <ele>5.7</ele>
        <time>2020-06-17T10:14:06Z</time>
      </trkpt>
      <trkpt lat="49.24066" lon="-0.26838">
        <ele>5.8</ele>
        <time>2020-06-17T10:14:07Z</time>
      </trkpt>
      <trkpt lat="49.24065" lon="-0.2683">
        <ele>5.9</ele>
        <time>2020-06-17T10:14:08Z</time>
      </trkpt>
      <trkpt lat="49.24063" lon="-0.26823">
        <ele>6</ele>
        <time>2020-06-17T10:14:09Z</time>
      </trkpt>
      <trkpt lat="49.2406" lon="-0.26816">
        <ele>6.1</ele>
        <time>2020-06-17T10:14:10Z</time>
      </trkpt>
      <trkpt lat="49.24058" lon="-0.26808">
        <ele>6.1</ele>
        <time>2020-06-17T10:14:11Z</time>
      </trkpt>
      <trkpt lat="49.24056" lon="-0.268">
        <ele>6.2</ele>
        <time>2020-06-17T10:14:12Z</time>
      </trkpt>
      <trkpt lat="49.24055" lon="-0.26793">
        <ele>6.3</ele>
        <time>2020-06-17T10:14:13Z</time>
      </trkpt>
      <trkpt lat="49.24053" lon="-0.26785">
        <ele>6.3</ele>
        <time>2020-06-17T10:14:14Z</time>
      </trkpt>
      <trkpt lat="49.24051" lon="-0.26778">
        <ele>6.3</ele>
        <time>2020-06-17T10:14:15Z</time>
      </trkpt>
      <trkpt lat="49.2405" lon="-0.2677">
        <ele>6.4</ele>
        <time>2020-06-17T10:14:16Z</time>
      </trkpt>
      <trkpt lat="49.2405" lon="-0.26764">
        <ele>6.4</ele>
        <time>2020-06-17T10:14:17Z</time>
      </trkpt>
      <trkpt lat="49.24049" lon="-0.2676">
        <ele>6.4</ele>
        <time>2020-06-17T10:14:18Z</time>
      </trkpt>
      <trkpt lat="49.24049" lon="-0.26756">
        <ele>6.5</ele>
        <time>2020-06-17T10:14:19Z</time>
      </trkpt>
      <trkpt lat="49.24047" lon="-0.26749">
        <ele>6.5</ele>
        <time>2020-06-17T10:14:20Z</time>
      </trkpt>
      <trkpt lat="49.24045" lon="-0.26744">
        <ele>6.6</ele>
        <time>2020-06-17T10:14:21Z</time>
      </trkpt>
      <trkpt lat="49.24043" lon="-0.26737">
        <ele>6.6</ele>
        <time>2020-06-17T10:14:22Z</time>
      </trkpt>
      <trkpt lat="49.24042" lon="-0.2673">
        <ele>6.7</ele>
        <time>2020-06-17T10:14:23Z</time>
      </trkpt>
      <trkpt lat="49.2404" lon="-0.26722">
        <ele>6.7</ele>
        <time>2020-06-17T10:14:24Z</time>
      </trkpt>
      <trkpt lat="49.24039" lon="-0.26716">
        <ele>6.7</ele>
        <time>2020-06-17T10:14:25Z</time>
      </trkpt>
      <trkpt lat="49.24037" lon="-0.2671">
        <ele>6.8</ele>
        <time>2020-06-17T10:14:26Z</time>
      </trkpt>
      <trkpt lat="49.24035" lon="-0.26702">
        <ele>6.8</ele>
        <time>2020-06-17T10:14:27Z</time>
      </trkpt>
      <trkpt lat="49.24034" lon="-0.26695">
        <ele>6.8</ele>
        <time>2020-06-17T10:14:28Z</time>
      </trkpt>
      <trkpt lat="49.24031" lon="-0.26689">
        <ele>6.8</ele>
        <time>2020-06-17T10:14:29Z</time>
      </trkpt>
      <trkpt lat="49.2403" lon="-0.26682">
        <ele>6.8</ele>
        <time>2020-06-17T10:14:30Z</time>
      </trkpt>
      <trkpt lat="49.24028" lon="-0.26674">
        <ele>6.8</ele>
        <time>2020-06-17T10:14:31Z</time>
      </trkpt>
      <trkpt lat="49.24027" lon="-0.26666">
        <ele>6.8</ele>
        <time>2020-06-17T10:14:32Z</time>
      </trkpt>
      <trkpt lat="49.24025" lon="-0.26657">
        <ele>6.8</ele>
        <time>2020-06-17T10:14:33Z</time>
      </trkpt>
      <trkpt lat="49.24024" lon="-0.26649">
        <ele>6.8</ele>
        <time>2020-06-17T10:14:34Z</time>
      </trkpt>
      <trkpt lat="49.24021" lon="-0.26641">
        <ele>6.8</ele>
        <time>2020-06-17T10:14:35Z</time>
      </trkpt>
      <trkpt lat="49.2402" lon="-0.26631">
        <ele>6.8</ele>
        <time>2020-06-17T10:14:36Z</time>
      </trkpt>
      <trkpt lat="49.24017" lon="-0.26623">
        <ele>6.9</ele>
        <time>2020-06-17T10:14:37Z</time>
      </trkpt>
      <trkpt lat="49.24015" lon="-0.26614">
        <ele>6.9</ele>
        <time>2020-06-17T10:14:38Z</time>
      </trkpt>
      <trkpt lat="49.24012" lon="-0.26605">
        <ele>6.8</ele>
        <time>2020-06-17T10:14:39Z</time>
      </trkpt>
      <trkpt lat="49.2401" lon="-0.26596">
        <ele>6.8</ele>
        <time>2020-06-17T10:14:40Z</time>
      </trkpt>
      <trkpt lat="49.24008" lon="-0.26587">
        <ele>6.7</ele>
        <time>2020-06-17T10:14:41Z</time>
      </trkpt>
      <trkpt lat="49.24005" lon="-0.26579">
        <ele>6.7</ele>
        <time>2020-06-17T10:14:42Z</time>
      </trkpt>
      <trkpt lat="49.24003" lon="-0.2657">
        <ele>6.7</ele>
        <time>2020-06-17T10:14:43Z</time>
      </trkpt>
      <trkpt lat="49.24001" lon="-0.26561">
        <ele>6.7</ele>
        <time>2020-06-17T10:14:44Z</time>
      </trkpt>
      <trkpt lat="49.23999" lon="-0.26554">
        <ele>6.7</ele>
        <time>2020-06-17T10:14:45Z</time>
      </trkpt>
      <trkpt lat="49.23997" lon="-0.26545">
        <ele>6.7</ele>
        <time>2020-06-17T10:14:46Z</time>
      </trkpt>
      <trkpt lat="49.23995" lon="-0.26537">
        <ele>6.7</ele>
        <time>2020-06-17T10:14:47Z</time>
      </trkpt>
      <trkpt lat="49.23993" lon="-0.26529">
        <ele>6.7</ele>
        <time>2020-06-17T10:14:48Z</time>
      </trkpt>
      <trkpt lat="49.2399" lon="-0.26521">
        <ele>6.7</ele>
        <time>2020-06-17T10:14:49Z</time>
      </trkpt>
      <trkpt lat="49.23988" lon="-0.26513">
        <ele>6.7</ele>
        <time>2020-06-17T10:14:50Z</time>
      </trkpt>
      <trkpt lat="49.23986" lon="-0.26505">
        <ele>6.7</ele>
        <time>2020-06-17T10:14:51Z</time>
      </trkpt>
      <trkpt lat="49.23984" lon="-0.26496">
        <ele>6.7</ele>
        <time>2020-06-17T10:14:52Z</time>
      </trkpt>
      <trkpt lat="49.23981" lon="-0.26487">
        <ele>6.8</ele>
        <time>2020-06-17T10:14:53Z</time>
      </trkpt>
      <trkpt lat="49.23979" lon="-0.26478">
        <ele>6.8</ele>
        <time>2020-06-17T10:14:54Z</time>
      </trkpt>
      <trkpt lat="49.23976" lon="-0.26471">
        <ele>6.8</ele>
        <time>2020-06-17T10:14:55Z</time>
      </trkpt>
      <trkpt lat="49.23974" lon="-0.26464">
        <ele>6.8</ele>
        <time>2020-06-17T10:14:56Z</time>
      </trkpt>
      <trkpt lat="49.23972" lon="-0.26457">
        <ele>6.8</ele>
        <time>2020-06-17T10:14:57Z</time>
      </trkpt>
      <trkpt lat="49.2397" lon="-0.26451">
        <ele>6.8</ele>
        <time>2020-06-17T10:14:58Z</time>
      </trkpt>
      <trkpt lat="49.23968" lon="-0.26445">
        <ele>6.7</ele>
        <time>2020-06-17T10:14:59Z</time>
      </trkpt>
      <trkpt lat="49.23965" lon="-0.26438">
        <ele>6.6</ele>
        <time>2020-06-17T10:15:00Z</time>
      </trkpt>
      <trkpt lat="49.23961" lon="-0.26432">
        <ele>6.5</ele>
        <time>2020-06-17T10:15:01Z</time>
      </trkpt>
      <trkpt lat="49.23958" lon="-0.26427">
        <ele>6.6</ele>
        <time>2020-06-17T10:15:02Z</time>
      </trkpt>
      <trkpt lat="49.23954" lon="-0.26423">
        <ele>6.6</ele>
        <time>2020-06-17T10:15:03Z</time>
      </trkpt>
      <trkpt lat="49.2395" lon="-0.2642">
        <ele>6.6</ele>
        <time>2020-06-17T10:15:04Z</time>
      </trkpt>
      <trkpt lat="49.23945" lon="-0.2642">
        <ele>6.6</ele>
        <time>2020-06-17T10:15:05Z</time>
      </trkpt>
      <trkpt lat="49.23939" lon="-0.26421">
        <ele>6.7</ele>
        <time>2020-06-17T10:15:06Z</time>
      </trkpt>
      <trkpt lat="49.23933" lon="-0.2642">
        <ele>6.7</ele>
        <time>2020-06-17T10:15:07Z</time>
      </trkpt>
      <trkpt lat="49.23928" lon="-0.26417">
        <ele>6.7</ele>
        <time>2020-06-17T10:15:08Z</time>
      </trkpt>
      <trkpt lat="49.23923" lon="-0.26412">
        <ele>6.7</ele>
        <time>2020-06-17T10:15:09Z</time>
      </trkpt>
      <trkpt lat="49.23919" lon="-0.26406">
        <ele>6.7</ele>
        <time>2020-06-17T10:15:10Z</time>
      </trkpt>
      <trkpt lat="49.23917" lon="-0.26398">
        <ele>6.7</ele>
        <time>2020-06-17T10:15:11Z</time>
      </trkpt>
      <trkpt lat="49.23915" lon="-0.26392">
        <ele>6.7</ele>
        <time>2020-06-17T10:15:12Z</time>
      </trkpt>
      <trkpt lat="49.23914" lon="-0.26383">
        <ele>6.7</ele>
        <time>2020-06-17T10:15:13Z</time>
      </trkpt>
      <trkpt lat="49.23914" lon="-0.26375">
        <ele>6.7</ele>
        <time>2020-06-17T10:15:14Z</time>
      </trkpt>
      <trkpt lat="49.23915" lon="-0.26368">
        <ele>6.6</ele>
        <time>2020-06-17T10:15:15Z</time>
      </trkpt>
      <trkpt lat="49.23917" lon="-0.26361">
        <ele>6.6</ele>
        <time>2020-06-17T10:15:16Z</time>
      </trkpt>
      <trkpt lat="49.23919" lon="-0.26354">
        <ele>6.5</ele>
        <time>2020-06-17T10:15:17Z</time>
      </trkpt>
      <trkpt lat="49.23923" lon="-0.26348">
        <ele>6.5</ele>
        <time>2020-06-17T10:15:18Z</time>
      </trkpt>
      <trkpt lat="49.23927" lon="-0.26343">
        <ele>6.4</ele>
        <time>2020-06-17T10:15:19Z</time>
      </trkpt>
      <trkpt lat="49.2393" lon="-0.26337">
        <ele>6.6</ele>
        <time>2020-06-17T10:15:20Z</time>
      </trkpt>
      <trkpt lat="49.23934" lon="-0.26332">
        <ele>6.6</ele>
        <time>2020-06-17T10:15:21Z</time>
      </trkpt>
      <trkpt lat="49.23937" lon="-0.26326">
        <ele>6.6</ele>
        <time>2020-06-17T10:15:22Z</time>
      </trkpt>
      <trkpt lat="49.23939" lon="-0.2632">
        <ele>6.6</ele>
        <time>2020-06-17T10:15:23Z</time>
      </trkpt>
      <trkpt lat="49.23941" lon="-0.26315">
        <ele>6.6</ele>
        <time>2020-06-17T10:15:24Z</time>
      </trkpt>
      <trkpt lat="49.23943" lon="-0.26309">
        <ele>6.6</ele>
        <time>2020-06-17T10:15:25Z</time>
      </trkpt>
      <trkpt lat="49.23945" lon="-0.26304">
        <ele>6.6</ele>
        <time>2020-06-17T10:15:26Z</time>
      </trkpt>
      <trkpt lat="49.23945" lon="-0.26297">
        <ele>6.6</ele>
        <time>2020-06-17T10:15:27Z</time>
      </trkpt>
      <trkpt lat="49.23944" lon="-0.2629">
        <ele>6.7</ele>
        <time>2020-06-17T10:15:28Z</time>
      </trkpt>
      <trkpt lat="49.23942" lon="-0.26282">
        <ele>6.8</ele>
        <time>2020-06-17T10:15:29Z</time>
      </trkpt>
      <trkpt lat="49.23941" lon="-0.26272">
        <ele>6.9</ele>
        <time>2020-06-17T10:15:30Z</time>
      </trkpt>
      <trkpt lat="49.2394" lon="-0.26263">
        <ele>7</ele>
        <time>2020-06-17T10:15:31Z</time>
      </trkpt>
      <trkpt lat="49.23939" lon="-0.26254">
        <ele>7.1</ele>
        <time>2020-06-17T10:15:32Z</time>
      </trkpt>
      <trkpt lat="49.23939" lon="-0.26246">
        <ele>7.2</ele>
        <time>2020-06-17T10:15:33Z</time>
      </trkpt>
      <trkpt lat="49.23937" lon="-0.26238">
        <ele>7.3</ele>
        <time>2020-06-17T10:15:34Z</time>
      </trkpt>
      <trkpt lat="49.23936" lon="-0.26228">
        <ele>7.4</ele>
        <time>2020-06-17T10:15:35Z</time>
      </trkpt>
      <trkpt lat="49.23935" lon="-0.2622">
        <ele>7.6</ele>
        <time>2020-06-17T10:15:36Z</time>
      </trkpt>
      <trkpt lat="49.23935" lon="-0.26212">
        <ele>7.8</ele>
        <time>2020-06-17T10:15:37Z</time>
      </trkpt>
      <trkpt lat="49.23933" lon="-0.26203">
        <ele>8</ele>
        <time>2020-06-17T10:15:38Z</time>
      </trkpt>
      <trkpt lat="49.23931" lon="-0.26196">
        <ele>8.2</ele>
        <time>2020-06-17T10:15:39Z</time>
      </trkpt>
      <trkpt lat="49.23929" lon="-0.26188">
        <ele>8.5</ele>
        <time>2020-06-17T10:15:40Z</time>
      </trkpt>
      <trkpt lat="49.23927" lon="-0.26179">
        <ele>8.8</ele>
        <time>2020-06-17T10:15:41Z</time>
      </trkpt>
      <trkpt lat="49.23926" lon="-0.2617">
        <ele>9.1</ele>
        <time>2020-06-17T10:15:42Z</time>
      </trkpt>
      <trkpt lat="49.23925" lon="-0.2616">
        <ele>9.5</ele>
        <time>2020-06-17T10:15:43Z</time>
      </trkpt>
      <trkpt lat="49.23925" lon="-0.26151">
        <ele>9.9</ele>
        <time>2020-06-17T10:15:44Z</time>
      </trkpt>
      <trkpt lat="49.23924" lon="-0.26144">
        <ele>10.2</ele>
        <time>2020-06-17T10:15:45Z</time>
      </trkpt>
      <trkpt lat="49.23923" lon="-0.26137">
        <ele>10.6</ele>
        <time>2020-06-17T10:15:46Z</time>
      </trkpt>
      <trkpt lat="49.23922" lon="-0.26128">
        <ele>11</ele>
        <time>2020-06-17T10:15:47Z</time>
      </trkpt>
      <trkpt lat="49.23921" lon="-0.26121">
        <ele>11.4</ele>
        <time>2020-06-17T10:15:48Z</time>
      </trkpt>
      <trkpt lat="49.2392" lon="-0.26113">
        <ele>11.8</ele>
        <time>2020-06-17T10:15:49Z</time>
      </trkpt>
      <trkpt lat="49.23919" lon="-0.26105">
        <ele>12.2</ele>
        <time>2020-06-17T10:15:50Z</time>
      </trkpt>
      <trkpt lat="49.23918" lon="-0.26098">
        <ele>12.6</ele>
        <time>2020-06-17T10:15:51Z</time>
      </trkpt>
      <trkpt lat="49.23917" lon="-0.2609">
        <ele>13</ele>
        <time>2020-06-17T10:15:52Z</time>
      </trkpt>
      <trkpt lat="49.23916" lon="-0.26084">
        <ele>13.4</ele>
        <time>2020-06-17T10:15:53Z</time>
      </trkpt>
      <trkpt lat="49.23915" lon="-0.26077">
        <ele>13.8</ele>
        <time>2020-06-17T10:15:54Z</time>
      </trkpt>
      <trkpt lat="49.23914" lon="-0.26069">
        <ele>14.2</ele>
        <time>2020-06-17T10:15:55Z</time>
      </trkpt>
      <trkpt lat="49.23914" lon="-0.26062">
        <ele>14.6</ele>
        <time>2020-06-17T10:15:56Z</time>
      </trkpt>
      <trkpt lat="49.23913" lon="-0.26056">
        <ele>15</ele>
        <time>2020-06-17T10:15:57Z</time>
      </trkpt>
      <trkpt lat="49.23912" lon="-0.2605">
        <ele>15.3</ele>
        <time>2020-06-17T10:15:58Z</time>
      </trkpt>
      <trkpt lat="49.23911" lon="-0.26044">
        <ele>15.6</ele>
        <time>2020-06-17T10:15:59Z</time>
      </trkpt>
      <trkpt lat="49.2391" lon="-0.26039">
        <ele>15.9</ele>
        <time>2020-06-17T10:16:00Z</time>
      </trkpt>
      <trkpt lat="49.2391" lon="-0.26031">
        <ele>16.3</ele>
        <time>2020-06-17T10:16:01Z</time>
      </trkpt>
      <trkpt lat="49.2391" lon="-0.26024">
        <ele>16.6</ele>
        <time>2020-06-17T10:16:02Z</time>
      </trkpt>
      <trkpt lat="49.23911" lon="-0.26017">
        <ele>16.9</ele>
        <time>2020-06-17T10:16:03Z</time>
      </trkpt>
      <trkpt lat="49.23911" lon="-0.26012">
        <ele>17.1</ele>
        <time>2020-06-17T10:16:04Z</time>
      </trkpt>
      <trkpt lat="49.23911" lon="-0.26005">
        <ele>17.4</ele>
        <time>2020-06-17T10:16:05Z</time>
      </trkpt>
      <trkpt lat="49.23911" lon="-0.25999">
        <ele>17.7</ele>
        <time>2020-06-17T10:16:06Z</time>
      </trkpt>
      <trkpt lat="49.23911" lon="-0.25993">
        <ele>17.9</ele>
        <time>2020-06-17T10:16:07Z</time>
      </trkpt>
      <trkpt lat="49.23912" lon="-0.25987">
        <ele>18.2</ele>
        <time>2020-06-17T10:16:08Z</time>
      </trkpt>
      <trkpt lat="49.23912" lon="-0.25981">
        <ele>18.5</ele>
        <time>2020-06-17T10:16:09Z</time>
      </trkpt>
      <trkpt lat="49.23912" lon="-0.25975">
        <ele>18.7</ele>
        <time>2020-06-17T10:16:10Z</time>
      </trkpt>
      <trkpt lat="49.23912" lon="-0.2597">
        <ele>18.9</ele>
        <time>2020-06-17T10:16:11Z</time>
      </trkpt>
      <trkpt lat="49.23912" lon="-0.25964">
        <ele>19.2</ele>
        <time>2020-06-17T10:16:12Z</time>
      </trkpt>
      <trkpt lat="49.23913" lon="-0.25959">
        <ele>19.4</ele>
        <time>2020-06-17T10:16:13Z</time>
      </trkpt>
      <trkpt lat="49.23913" lon="-0.25954">
        <ele>19.6</ele>
        <time>2020-06-17T10:16:14Z</time>
      </trkpt>
      <trkpt lat="49.23913" lon="-0.2595">
        <ele>19.8</ele>
        <time>2020-06-17T10:16:15Z</time>
      </trkpt>
      <trkpt lat="49.23913" lon="-0.25945">
        <ele>20</ele>
        <time>2020-06-17T10:16:16Z</time>
      </trkpt>
      <trkpt lat="49.23913" lon="-0.2594">
        <ele>20.2</ele>
        <time>2020-06-17T10:16:17Z</time>
      </trkpt>
      <trkpt lat="49.23913" lon="-0.25935">
        <ele>20.3</ele>
        <time>2020-06-17T10:16:18Z</time>
      </trkpt>
      <trkpt lat="49.23914" lon="-0.2593">
        <ele>20.5</ele>
        <time>2020-06-17T10:16:19Z</time>
      </trkpt>
      <trkpt lat="49.23915" lon="-0.25924">
        <ele>20.7</ele>
        <time>2020-06-17T10:16:20Z</time>
      </trkpt>
      <trkpt lat="49.23916" lon="-0.25922">
        <ele>20.8</ele>
        <time>2020-06-17T10:16:21Z</time>
      </trkpt>
      <trkpt lat="49.23917" lon="-0.25918">
        <ele>21</ele>
        <time>2020-06-17T10:16:22Z</time>
      </trkpt>
      <trkpt lat="49.23918" lon="-0.25916">
        <ele>21</ele>
        <time>2020-06-17T10:16:23Z</time>
      </trkpt>
      <trkpt lat="49.23918" lon="-0.25911">
        <ele>21.2</ele>
        <time>2020-06-17T10:16:24Z</time>
      </trkpt>
      <trkpt lat="49.23918" lon="-0.25909">
        <ele>21.3</ele>
        <time>2020-06-17T10:16:25Z</time>
      </trkpt>
      <trkpt lat="49.23919" lon="-0.25904">
        <ele>21.5</ele>
        <time>2020-06-17T10:16:26Z</time>
      </trkpt>
      <trkpt lat="49.23919" lon="-0.259">
        <ele>21.7</ele>
        <time>2020-06-17T10:16:27Z</time>
      </trkpt>
      <trkpt lat="49.23919" lon="-0.25895">
        <ele>21.9</ele>
        <time>2020-06-17T10:16:28Z</time>
      </trkpt>
      <trkpt lat="49.23919" lon="-0.2589">
        <ele>22.1</ele>
        <time>2020-06-17T10:16:29Z</time>
      </trkpt>
      <trkpt lat="49.23919" lon="-0.25884">
        <ele>22.3</ele>
        <time>2020-06-17T10:16:30Z</time>
      </trkpt>
      <trkpt lat="49.23918" lon="-0.25879">
        <ele>22.4</ele>
        <time>2020-06-17T10:16:31Z</time>
      </trkpt>
      <trkpt lat="49.23918" lon="-0.25873">
        <ele>22.6</ele>
        <time>2020-06-17T10:16:32Z</time>
      </trkpt>
      <trkpt lat="49.23918" lon="-0.25867">
        <ele>22.8</ele>
        <time>2020-06-17T10:16:33Z</time>
      </trkpt>
      <trkpt lat="49.23918" lon="-0.25862">
        <ele>23</ele>
        <time>2020-06-17T10:16:34Z</time>
      </trkpt>
      <trkpt lat="49.23918" lon="-0.25857">
        <ele>23.1</ele>
        <time>2020-06-17T10:16:35Z</time>
      </trkpt>
      <trkpt lat="49.23918" lon="-0.25852">
        <ele>23.3</ele>
        <time>2020-06-17T10:16:36Z</time>
      </trkpt>
      <trkpt lat="49.23918" lon="-0.25846">
        <ele>23.5</ele>
        <time>2020-06-17T10:16:37Z</time>
      </trkpt>
      <trkpt lat="49.23919" lon="-0.2584">
        <ele>23.7</ele>
        <time>2020-06-17T10:16:38Z</time>
      </trkpt>
      <trkpt lat="49.2392" lon="-0.25834">
        <ele>23.8</ele>
        <time>2020-06-17T10:16:39Z</time>
      </trkpt>
      <trkpt lat="49.2392" lon="-0.2583">
        <ele>23.9</ele>
        <time>2020-06-17T10:16:40Z</time>
      </trkpt>
      <trkpt lat="49.23921" lon="-0.25823">
        <ele>24.1</ele>
        <time>2020-06-17T10:16:41Z</time>
      </trkpt>
      <trkpt lat="49.23922" lon="-0.25816">
        <ele>24.3</ele>
        <time>2020-06-17T10:16:42Z</time>
      </trkpt>
      <trkpt lat="49.23923" lon="-0.25809">
        <ele>24.4</ele>
        <time>2020-06-17T10:16:43Z</time>
      </trkpt>
      <trkpt lat="49.23924" lon="-0.25803">
        <ele>24.5</ele>
        <time>2020-06-17T10:16:44Z</time>
      </trkpt>
      <trkpt lat="49.23925" lon="-0.25797">
        <ele>24.7</ele>
        <time>2020-06-17T10:16:45Z</time>
      </trkpt>
      <trkpt lat="49.23926" lon="-0.2579">
        <ele>24.8</ele>
        <time>2020-06-17T10:16:46Z</time>
      </trkpt>
      <trkpt lat="49.23927" lon="-0.25784">
        <ele>24.9</ele>
        <time>2020-06-17T10:16:47Z</time>
      </trkpt>
      <trkpt lat="49.23928" lon="-0.25778">
        <ele>25.1</ele>
        <time>2020-06-17T10:16:48Z</time>
      </trkpt>
      <trkpt lat="49.23929" lon="-0.25771">
        <ele>25.2</ele>
        <time>2020-06-17T10:16:49Z</time>
      </trkpt>
      <trkpt lat="49.23931" lon="-0.25763">
        <ele>25.3</ele>
        <time>2020-06-17T10:16:50Z</time>
      </trkpt>
      <trkpt lat="49.23934" lon="-0.25756">
        <ele>25.5</ele>
        <time>2020-06-17T10:16:51Z</time>
      </trkpt>
      <trkpt lat="49.23937" lon="-0.25749">
        <ele>25.6</ele>
        <time>2020-06-17T10:16:52Z</time>
      </trkpt>
      <trkpt lat="49.23939" lon="-0.25742">
        <ele>25.7</ele>
        <time>2020-06-17T10:16:53Z</time>
      </trkpt>
      <trkpt lat="49.23941" lon="-0.25736">
        <ele>25.8</ele>
        <time>2020-06-17T10:16:54Z</time>
      </trkpt>
      <trkpt lat="49.23943" lon="-0.25728">
        <ele>25.9</ele>
        <time>2020-06-17T10:16:55Z</time>
      </trkpt>
      <trkpt lat="49.23945" lon="-0.25721">
        <ele>26</ele>
        <time>2020-06-17T10:16:56Z</time>
      </trkpt>
      <trkpt lat="49.23948" lon="-0.25714">
        <ele>26.1</ele>
        <time>2020-06-17T10:16:57Z</time>
      </trkpt>
      <trkpt lat="49.23952" lon="-0.25706">
        <ele>26.2</ele>
        <time>2020-06-17T10:16:58Z</time>
      </trkpt>
      <trkpt lat="49.23955" lon="-0.25699">
        <ele>26.3</ele>
        <time>2020-06-17T10:16:59Z</time>
      </trkpt>
      <trkpt lat="49.23958" lon="-0.25692">
        <ele>26.3</ele>
        <time>2020-06-17T10:17:00Z</time>
      </trkpt>
      <trkpt lat="49.23961" lon="-0.25686">
        <ele>26.4</ele>
        <time>2020-06-17T10:17:01Z</time>
      </trkpt>
      <trkpt lat="49.23964" lon="-0.25679">
        <ele>26.4</ele>
        <time>2020-06-17T10:17:02Z</time>
      </trkpt>
      <trkpt lat="49.23968" lon="-0.25671">
        <ele>26.5</ele>
        <time>2020-06-17T10:17:03Z</time>
      </trkpt>
      <trkpt lat="49.23972" lon="-0.25665">
        <ele>26.6</ele>
        <time>2020-06-17T10:17:04Z</time>
      </trkpt>
      <trkpt lat="49.23975" lon="-0.25658">
        <ele>26.6</ele>
        <time>2020-06-17T10:17:05Z</time>
      </trkpt>
      <trkpt lat="49.23981" lon="-0.25646">
        <ele>26.7</ele>
        <time>2020-06-17T10:17:06Z</time>
      </trkpt>
      <trkpt lat="49.23986" lon="-0.25635">
        <ele>26.7</ele>
        <time>2020-06-17T10:17:07Z</time>
      </trkpt>
      <trkpt lat="49.23989" lon="-0.25625">
        <ele>26.7</ele>
        <time>2020-06-17T10:17:08Z</time>
      </trkpt>
      <trkpt lat="49.23992" lon="-0.25616">
        <ele>26.7</ele>
        <time>2020-06-17T10:17:09Z</time>
      </trkpt>
      <trkpt lat="49.23993" lon="-0.25603">
        <ele>26.7</ele>
        <time>2020-06-17T10:17:10Z</time>
      </trkpt>
      <trkpt lat="49.23996" lon="-0.25594">
        <ele>26.7</ele>
        <time>2020-06-17T10:17:11Z</time>
      </trkpt>
      <trkpt lat="49.24" lon="-0.25585">
        <ele>26.6</ele>
        <time>2020-06-17T10:17:12Z</time>
      </trkpt>
      <trkpt lat="49.24003" lon="-0.25576">
        <ele>26.6</ele>
        <time>2020-06-17T10:17:13Z</time>
      </trkpt>
      <trkpt lat="49.24006" lon="-0.25567">
        <ele>26.5</ele>
        <time>2020-06-17T10:17:14Z</time>
      </trkpt>
      <trkpt lat="49.24009" lon="-0.25559">
        <ele>26.5</ele>
        <time>2020-06-17T10:17:15Z</time>
      </trkpt>
      <trkpt lat="49.24013" lon="-0.25552">
        <ele>26.5</ele>
        <time>2020-06-17T10:17:16Z</time>
      </trkpt>
      <trkpt lat="49.24016" lon="-0.25546">
        <ele>26.5</ele>
        <time>2020-06-17T10:17:17Z</time>
      </trkpt>
      <trkpt lat="49.2402" lon="-0.25538">
        <ele>26.5</ele>
        <time>2020-06-17T10:17:18Z</time>
      </trkpt>
      <trkpt lat="49.24023" lon="-0.25532">
        <ele>26.4</ele>
        <time>2020-06-17T10:17:19Z</time>
      </trkpt>
      <trkpt lat="49.24027" lon="-0.25524">
        <ele>26.4</ele>
        <time>2020-06-17T10:17:20Z</time>
      </trkpt>
      <trkpt lat="49.24031" lon="-0.25516">
        <ele>26.3</ele>
        <time>2020-06-17T10:17:21Z</time>
      </trkpt>
      <trkpt lat="49.24035" lon="-0.2551">
        <ele>26.3</ele>
        <time>2020-06-17T10:17:22Z</time>
      </trkpt>
      <trkpt lat="49.24039" lon="-0.25504">
        <ele>26.3</ele>
        <time>2020-06-17T10:17:23Z</time>
      </trkpt>
      <trkpt lat="49.24043" lon="-0.25498">
        <ele>26.2</ele>
        <time>2020-06-17T10:17:24Z</time>
      </trkpt>
      <trkpt lat="49.24048" lon="-0.25492">
        <ele>26.2</ele>
        <time>2020-06-17T10:17:25Z</time>
      </trkpt>
      <trkpt lat="49.24052" lon="-0.25486">
        <ele>26.1</ele>
        <time>2020-06-17T10:17:26Z</time>
      </trkpt>
      <trkpt lat="49.24056" lon="-0.25481">
        <ele>26</ele>
        <time>2020-06-17T10:17:27Z</time>
      </trkpt>
      <trkpt lat="49.2406" lon="-0.25476">
        <ele>26</ele>
        <time>2020-06-17T10:17:28Z</time>
      </trkpt>
      <trkpt lat="49.24064" lon="-0.25471">
        <ele>25.9</ele>
        <time>2020-06-17T10:17:29Z</time>
      </trkpt>
      <trkpt lat="49.24068" lon="-0.25467">
        <ele>25.8</ele>
        <time>2020-06-17T10:17:30Z</time>
      </trkpt>
      <trkpt lat="49.24072" lon="-0.25462">
        <ele>25.8</ele>
        <time>2020-06-17T10:17:31Z</time>
      </trkpt>
      <trkpt lat="49.24077" lon="-0.25457">
        <ele>25.7</ele>
        <time>2020-06-17T10:17:32Z</time>
      </trkpt>
      <trkpt lat="49.24081" lon="-0.25452">
        <ele>25.7</ele>
        <time>2020-06-17T10:17:33Z</time>
      </trkpt>
      <trkpt lat="49.24086" lon="-0.25447">
        <ele>25.6</ele>
        <time>2020-06-17T10:17:34Z</time>
      </trkpt>
      <trkpt lat="49.24092" lon="-0.25442">
        <ele>25.6</ele>
        <time>2020-06-17T10:17:35Z</time>
      </trkpt>
      <trkpt lat="49.24097" lon="-0.25437">
        <ele>25.5</ele>
        <time>2020-06-17T10:17:36Z</time>
      </trkpt>
      <trkpt lat="49.24102" lon="-0.25432">
        <ele>25.5</ele>
        <time>2020-06-17T10:17:37Z</time>
      </trkpt>
      <trkpt lat="49.24107" lon="-0.25426">
        <ele>25.4</ele>
        <time>2020-06-17T10:17:38Z</time>
      </trkpt>
      <trkpt lat="49.24113" lon="-0.25421">
        <ele>25.4</ele>
        <time>2020-06-17T10:17:39Z</time>
      </trkpt>
      <trkpt lat="49.24119" lon="-0.25416">
        <ele>25.3</ele>
        <time>2020-06-17T10:17:40Z</time>
      </trkpt>
      <trkpt lat="49.24125" lon="-0.25411">
        <ele>25.3</ele>
        <time>2020-06-17T10:17:41Z</time>
      </trkpt>
      <trkpt lat="49.24131" lon="-0.25406">
        <ele>25.2</ele>
        <time>2020-06-17T10:17:42Z</time>
      </trkpt>
      <trkpt lat="49.24138" lon="-0.25401">
        <ele>25.1</ele>
        <time>2020-06-17T10:17:43Z</time>
      </trkpt>
      <trkpt lat="49.24144" lon="-0.25396">
        <ele>25</ele>
        <time>2020-06-17T10:17:44Z</time>
      </trkpt>
      <trkpt lat="49.24151" lon="-0.25391">
        <ele>24.9</ele>
        <time>2020-06-17T10:17:45Z</time>
      </trkpt>
      <trkpt lat="49.24158" lon="-0.25386">
        <ele>24.9</ele>
        <time>2020-06-17T10:17:46Z</time>
      </trkpt>
      <trkpt lat="49.24165" lon="-0.25381">
        <ele>24.8</ele>
        <time>2020-06-17T10:17:47Z</time>
      </trkpt>
      <trkpt lat="49.24172" lon="-0.25376">
        <ele>24.7</ele>
        <time>2020-06-17T10:17:48Z</time>
      </trkpt>
      <trkpt lat="49.24179" lon="-0.25371">
        <ele>24.7</ele>
        <time>2020-06-17T10:17:49Z</time>
      </trkpt>
      <trkpt lat="49.24187" lon="-0.25366">
        <ele>24.6</ele>
        <time>2020-06-17T10:17:50Z</time>
      </trkpt>
      <trkpt lat="49.24195" lon="-0.25361">
        <ele>24.6</ele>
        <time>2020-06-17T10:17:51Z</time>
      </trkpt>
      <trkpt lat="49.24202" lon="-0.25356">
        <ele>24.6</ele>
        <time>2020-06-17T10:17:52Z</time>
      </trkpt>
      <trkpt lat="49.24209" lon="-0.25351">
        <ele>24.5</ele>
        <time>2020-06-17T10:17:53Z</time>
      </trkpt>
      <trkpt lat="49.24217" lon="-0.25346">
        <ele>24.5</ele>
        <time>2020-06-17T10:17:54Z</time>
      </trkpt>
      <trkpt lat="49.24225" lon="-0.25341">
        <ele>24.5</ele>
        <time>2020-06-17T10:17:55Z</time>
      </trkpt>
      <trkpt lat="49.24232" lon="-0.25336">
        <ele>24.6</ele>
        <time>2020-06-17T10:17:56Z</time>
      </trkpt>
      <trkpt lat="49.24239" lon="-0.25331">
        <ele>24.6</ele>
        <time>2020-06-17T10:17:57Z</time>
      </trkpt>
      <trkpt lat="49.24247" lon="-0.25326">
        <ele>24.6</ele>
        <time>2020-06-17T10:17:58Z</time>
      </trkpt>
      <trkpt lat="49.24254" lon="-0.25321">
        <ele>24.7</ele>
        <time>2020-06-17T10:17:59Z</time>
      </trkpt>
      <trkpt lat="49.24262" lon="-0.25315">
        <ele>24.7</ele>
        <time>2020-06-17T10:18:00Z</time>
      </trkpt>
      <trkpt lat="49.24269" lon="-0.2531">
        <ele>24.8</ele>
        <time>2020-06-17T10:18:01Z</time>
      </trkpt>
      <trkpt lat="49.24277" lon="-0.25305">
        <ele>24.8</ele>
        <time>2020-06-17T10:18:02Z</time>
      </trkpt>
      <trkpt lat="49.24284" lon="-0.253">
        <ele>24.8</ele>
        <time>2020-06-17T10:18:03Z</time>
      </trkpt>
      <trkpt lat="49.24291" lon="-0.25294">
        <ele>24.9</ele>
        <time>2020-06-17T10:18:04Z</time>
      </trkpt>
      <trkpt lat="49.24299" lon="-0.2529">
        <ele>25</ele>
        <time>2020-06-17T10:18:05Z</time>
      </trkpt>
      <trkpt lat="49.24306" lon="-0.25285">
        <ele>25.2</ele>
        <time>2020-06-17T10:18:06Z</time>
      </trkpt>
      <trkpt lat="49.24313" lon="-0.2528">
        <ele>25.2</ele>
        <time>2020-06-17T10:18:07Z</time>
      </trkpt>
      <trkpt lat="49.2432" lon="-0.25275">
        <ele>25.2</ele>
        <time>2020-06-17T10:18:08Z</time>
      </trkpt>
      <trkpt lat="49.24327" lon="-0.25269">
        <ele>25.3</ele>
        <time>2020-06-17T10:18:09Z</time>
      </trkpt>
      <trkpt lat="49.24334" lon="-0.25264">
        <ele>25.4</ele>
        <time>2020-06-17T10:18:10Z</time>
      </trkpt>
      <trkpt lat="49.24341" lon="-0.25259">
        <ele>25.5</ele>
        <time>2020-06-17T10:18:11Z</time>
      </trkpt>
      <trkpt lat="49.24348" lon="-0.25254">
        <ele>25.6</ele>
        <time>2020-06-17T10:18:12Z</time>
      </trkpt>
      <trkpt lat="49.24355" lon="-0.25249">
        <ele>25.8</ele>
        <time>2020-06-17T10:18:13Z</time>
      </trkpt>
      <trkpt lat="49.24362" lon="-0.25243">
        <ele>25.9</ele>
        <time>2020-06-17T10:18:14Z</time>
      </trkpt>
      <trkpt lat="49.2437" lon="-0.25238">
        <ele>26</ele>
        <time>2020-06-17T10:18:15Z</time>
      </trkpt>
      <trkpt lat="49.24377" lon="-0.25233">
        <ele>26.1</ele>
        <time>2020-06-17T10:18:16Z</time>
      </trkpt>
      <trkpt lat="49.24384" lon="-0.2523">
        <ele>26.2</ele>
        <time>2020-06-17T10:18:17Z</time>
      </trkpt>
      <trkpt lat="49.24391" lon="-0.25225">
        <ele>26.2</ele>
        <time>2020-06-17T10:18:18Z</time>
      </trkpt>
      <trkpt lat="49.24398" lon="-0.2522">
        <ele>26.3</ele>
        <time>2020-06-17T10:18:19Z</time>
      </trkpt>
      <trkpt lat="49.24405" lon="-0.25214">
        <ele>26.4</ele>
        <time>2020-06-17T10:18:20Z</time>
      </trkpt>
      <trkpt lat="49.24412" lon="-0.2521">
        <ele>26.4</ele>
        <time>2020-06-17T10:18:21Z</time>
      </trkpt>
      <trkpt lat="49.24419" lon="-0.25206">
        <ele>26.5</ele>
        <time>2020-06-17T10:18:22Z</time>
      </trkpt>
      <trkpt lat="49.24426" lon="-0.25201">
        <ele>26.5</ele>
        <time>2020-06-17T10:18:23Z</time>
      </trkpt>
      <trkpt lat="49.24433" lon="-0.25197">
        <ele>26.6</ele>
        <time>2020-06-17T10:18:24Z</time>
      </trkpt>
      <trkpt lat="49.2444" lon="-0.25192">
        <ele>26.6</ele>
        <time>2020-06-17T10:18:25Z</time>
      </trkpt>
      <trkpt lat="49.24446" lon="-0.25186">
        <ele>26.6</ele>
        <time>2020-06-17T10:18:26Z</time>
      </trkpt>
      <trkpt lat="49.24453" lon="-0.25181">
        <ele>26.7</ele>
        <time>2020-06-17T10:18:27Z</time>
      </trkpt>
      <trkpt lat="49.2446" lon="-0.25176">
        <ele>26.7</ele>
        <time>2020-06-17T10:18:28Z</time>
      </trkpt>
      <trkpt lat="49.24467" lon="-0.2517">
        <ele>26.7</ele>
        <time>2020-06-17T10:18:29Z</time>
      </trkpt>
      <trkpt lat="49.24474" lon="-0.25164">
        <ele>26.8</ele>
        <time>2020-06-17T10:18:30Z</time>
      </trkpt>
      <trkpt lat="49.24481" lon="-0.2516">
        <ele>26.9</ele>
        <time>2020-06-17T10:18:31Z</time>
      </trkpt>
      <trkpt lat="49.24488" lon="-0.25155">
        <ele>27</ele>
        <time>2020-06-17T10:18:32Z</time>
      </trkpt>
      <trkpt lat="49.24496" lon="-0.25151">
        <ele>27.1</ele>
        <time>2020-06-17T10:18:33Z</time>
      </trkpt>
      <trkpt lat="49.24503" lon="-0.25146">
        <ele>27.2</ele>
        <time>2020-06-17T10:18:34Z</time>
      </trkpt>
      <trkpt lat="49.24509" lon="-0.25139">
        <ele>27.3</ele>
        <time>2020-06-17T10:18:35Z</time>
      </trkpt>
      <trkpt lat="49.24516" lon="-0.25132">
        <ele>27.3</ele>
        <time>2020-06-17T10:18:36Z</time>
      </trkpt>
      <trkpt lat="49.24523" lon="-0.25126">
        <ele>27.3</ele>
        <time>2020-06-17T10:18:37Z</time>
      </trkpt>
      <trkpt lat="49.2453" lon="-0.2512">
        <ele>27.3</ele>
        <time>2020-06-17T10:18:38Z</time>
      </trkpt>
      <trkpt lat="49.24536" lon="-0.25113">
        <ele>27.4</ele>
        <time>2020-06-17T10:18:39Z</time>
      </trkpt>
      <trkpt lat="49.24543" lon="-0.25106">
        <ele>27.4</ele>
        <time>2020-06-17T10:18:40Z</time>
      </trkpt>
      <trkpt lat="49.24549" lon="-0.251">
        <ele>27.5</ele>
        <time>2020-06-17T10:18:41Z</time>
      </trkpt>
      <trkpt lat="49.24555" lon="-0.25093">
        <ele>27.5</ele>
        <time>2020-06-17T10:18:42Z</time>
      </trkpt>
      <trkpt lat="49.24561" lon="-0.25086">
        <ele>27.6</ele>
        <time>2020-06-17T10:18:43Z</time>
      </trkpt>
      <trkpt lat="49.24566" lon="-0.25079">
        <ele>27.6</ele>
        <time>2020-06-17T10:18:44Z</time>
      </trkpt>
      <trkpt lat="49.24572" lon="-0.25073">
        <ele>27.6</ele>
        <time>2020-06-17T10:18:45Z</time>
      </trkpt>
      <trkpt lat="49.24578" lon="-0.25066">
        <ele>27.7</ele>
        <time>2020-06-17T10:18:46Z</time>
      </trkpt>
      <trkpt lat="49.24583" lon="-0.25058">
        <ele>27.7</ele>
        <time>2020-06-17T10:18:47Z</time>
      </trkpt>
      <trkpt lat="49.24588" lon="-0.2505">
        <ele>27.8</ele>
        <time>2020-06-17T10:18:48Z</time>
      </trkpt>
      <trkpt lat="49.24593" lon="-0.25042">
        <ele>27.8</ele>
        <time>2020-06-17T10:18:49Z</time>
      </trkpt>
      <trkpt lat="49.24599" lon="-0.25036">
        <ele>27.9</ele>
        <time>2020-06-17T10:18:50Z</time>
      </trkpt>
      <trkpt lat="49.24604" lon="-0.25028">
        <ele>28</ele>
        <time>2020-06-17T10:18:51Z</time>
      </trkpt>
      <trkpt lat="49.24609" lon="-0.2502">
        <ele>28</ele>
        <time>2020-06-17T10:18:52Z</time>
      </trkpt>
      <trkpt lat="49.24614" lon="-0.25013">
        <ele>28.1</ele>
        <time>2020-06-17T10:18:53Z</time>
      </trkpt>
      <trkpt lat="49.2462" lon="-0.25005">
        <ele>28.1</ele>
        <time>2020-06-17T10:18:54Z</time>
      </trkpt>
      <trkpt lat="49.24625" lon="-0.24997">
        <ele>28.1</ele>
        <time>2020-06-17T10:18:55Z</time>
      </trkpt>
      <trkpt lat="49.2463" lon="-0.24989">
        <ele>28.1</ele>
        <time>2020-06-17T10:18:56Z</time>
      </trkpt>
      <trkpt lat="49.24635" lon="-0.24981">
        <ele>28.1</ele>
        <time>2020-06-17T10:18:57Z</time>
      </trkpt>
      <trkpt lat="49.2464" lon="-0.24972">
        <ele>28</ele>
        <time>2020-06-17T10:18:58Z</time>
      </trkpt>
      <trkpt lat="49.24645" lon="-0.24963">
        <ele>27.9</ele>
        <time>2020-06-17T10:18:59Z</time>
      </trkpt>
      <trkpt lat="49.2465" lon="-0.24955">
        <ele>27.9</ele>
        <time>2020-06-17T10:19:00Z</time>
      </trkpt>
      <trkpt lat="49.24655" lon="-0.24946">
        <ele>27.9</ele>
        <time>2020-06-17T10:19:01Z</time>
      </trkpt>
      <trkpt lat="49.2466" lon="-0.24938">
        <ele>27.8</ele>
        <time>2020-06-17T10:19:02Z</time>
      </trkpt>
      <trkpt lat="49.24665" lon="-0.24929">
        <ele>27.9</ele>
        <time>2020-06-17T10:19:03Z</time>
      </trkpt>
      <trkpt lat="49.24671" lon="-0.24921">
        <ele>27.9</ele>
        <time>2020-06-17T10:19:04Z</time>
      </trkpt>
      <trkpt lat="49.24677" lon="-0.24913">
        <ele>27.9</ele>
        <time>2020-06-17T10:19:05Z</time>
      </trkpt>
      <trkpt lat="49.24682" lon="-0.24905">
        <ele>27.9</ele>
        <time>2020-06-17T10:19:06Z</time>
      </trkpt>
      <trkpt lat="49.24687" lon="-0.24897">
        <ele>27.9</ele>
        <time>2020-06-17T10:19:07Z</time>
      </trkpt>
      <trkpt lat="49.24692" lon="-0.24888">
        <ele>27.8</ele>
        <time>2020-06-17T10:19:08Z</time>
      </trkpt>
      <trkpt lat="49.24698" lon="-0.2488">
        <ele>27.8</ele>
        <time>2020-06-17T10:19:09Z</time>
      </trkpt>
      <trkpt lat="49.24703" lon="-0.24872">
        <ele>27.7</ele>
        <time>2020-06-17T10:19:10Z</time>
      </trkpt>
      <trkpt lat="49.24708" lon="-0.24864">
        <ele>27.7</ele>
        <time>2020-06-17T10:19:11Z</time>
      </trkpt>
      <trkpt lat="49.24714" lon="-0.24856">
        <ele>27.7</ele>
        <time>2020-06-17T10:19:12Z</time>
      </trkpt>
      <trkpt lat="49.24719" lon="-0.24848">
        <ele>27.6</ele>
        <time>2020-06-17T10:19:13Z</time>
      </trkpt>
      <trkpt lat="49.24724" lon="-0.2484">
        <ele>27.6</ele>
        <time>2020-06-17T10:19:14Z</time>
      </trkpt>
      <trkpt lat="49.2473" lon="-0.24832">
        <ele>27.5</ele>
        <time>2020-06-17T10:19:15Z</time>
      </trkpt>
      <trkpt lat="49.24735" lon="-0.24824">
        <ele>27.4</ele>
        <time>2020-06-17T10:19:16Z</time>
      </trkpt>
      <trkpt lat="49.24741" lon="-0.24817">
        <ele>27.3</ele>
        <time>2020-06-17T10:19:17Z</time>
      </trkpt>
      <trkpt lat="49.24747" lon="-0.2481">
        <ele>27.2</ele>
        <time>2020-06-17T10:19:18Z</time>
      </trkpt>
      <trkpt lat="49.24752" lon="-0.24802">
        <ele>27.2</ele>
        <time>2020-06-17T10:19:19Z</time>
      </trkpt>
      <trkpt lat="49.24758" lon="-0.24795">
        <ele>27.1</ele>
        <time>2020-06-17T10:19:20Z</time>
      </trkpt>
      <trkpt lat="49.24763" lon="-0.24787">
        <ele>27</ele>
        <time>2020-06-17T10:19:21Z</time>
      </trkpt>
      <trkpt lat="49.24768" lon="-0.24779">
        <ele>26.9</ele>
        <time>2020-06-17T10:19:22Z</time>
      </trkpt>
      <trkpt lat="49.24773" lon="-0.2477">
        <ele>26.8</ele>
        <time>2020-06-17T10:19:23Z</time>
      </trkpt>
      <trkpt lat="49.24778" lon="-0.24762">
        <ele>26.6</ele>
        <time>2020-06-17T10:19:24Z</time>
      </trkpt>
      <trkpt lat="49.24783" lon="-0.24753">
        <ele>26.4</ele>
        <time>2020-06-17T10:19:25Z</time>
      </trkpt>
      <trkpt lat="49.24789" lon="-0.24745">
        <ele>26.3</ele>
        <time>2020-06-17T10:19:26Z</time>
      </trkpt>
      <trkpt lat="49.24795" lon="-0.24737">
        <ele>26.1</ele>
        <time>2020-06-17T10:19:27Z</time>
      </trkpt>
      <trkpt lat="49.248" lon="-0.24729">
        <ele>26</ele>
        <time>2020-06-17T10:19:28Z</time>
      </trkpt>
      <trkpt lat="49.24806" lon="-0.2472">
        <ele>25.9</ele>
        <time>2020-06-17T10:19:29Z</time>
      </trkpt>
      <trkpt lat="49.24811" lon="-0.24712">
        <ele>25.7</ele>
        <time>2020-06-17T10:19:30Z</time>
      </trkpt>
      <trkpt lat="49.24817" lon="-0.24703">
        <ele>25.5</ele>
        <time>2020-06-17T10:19:31Z</time>
      </trkpt>
      <trkpt lat="49.24822" lon="-0.24695">
        <ele>25.3</ele>
        <time>2020-06-17T10:19:32Z</time>
      </trkpt>
      <trkpt lat="49.24828" lon="-0.24686">
        <ele>25.2</ele>
        <time>2020-06-17T10:19:33Z</time>
      </trkpt>
      <trkpt lat="49.24834" lon="-0.24678">
        <ele>25.1</ele>
        <time>2020-06-17T10:19:34Z</time>
      </trkpt>
      <trkpt lat="49.2484" lon="-0.24669">
        <ele>25</ele>
        <time>2020-06-17T10:19:35Z</time>
      </trkpt>
      <trkpt lat="49.24845" lon="-0.2466">
        <ele>24.9</ele>
        <time>2020-06-17T10:19:36Z</time>
      </trkpt>
      <trkpt lat="49.24851" lon="-0.2465">
        <ele>24.8</ele>
        <time>2020-06-17T10:19:37Z</time>
      </trkpt>
      <trkpt lat="49.24857" lon="-0.24641">
        <ele>24.7</ele>
        <time>2020-06-17T10:19:38Z</time>
      </trkpt>
      <trkpt lat="49.24863" lon="-0.24632">
        <ele>24.7</ele>
        <time>2020-06-17T10:19:39Z</time>
      </trkpt>
      <trkpt lat="49.24869" lon="-0.24623">
        <ele>24.6</ele>
        <time>2020-06-17T10:19:40Z</time>
      </trkpt>
      <trkpt lat="49.24875" lon="-0.24614">
        <ele>24.5</ele>
        <time>2020-06-17T10:19:41Z</time>
      </trkpt>
      <trkpt lat="49.24882" lon="-0.24605">
        <ele>24.4</ele>
        <time>2020-06-17T10:19:42Z</time>
      </trkpt>
      <trkpt lat="49.24888" lon="-0.24597">
        <ele>24.2</ele>
        <time>2020-06-17T10:19:43Z</time>
      </trkpt>
      <trkpt lat="49.24894" lon="-0.24588">
        <ele>24</ele>
        <time>2020-06-17T10:19:44Z</time>
      </trkpt>
      <trkpt lat="49.24901" lon="-0.24579">
        <ele>23.9</ele>
        <time>2020-06-17T10:19:45Z</time>
      </trkpt>
      <trkpt lat="49.24907" lon="-0.2457">
        <ele>23.7</ele>
        <time>2020-06-17T10:19:46Z</time>
      </trkpt>
      <trkpt lat="49.24913" lon="-0.24562">
        <ele>23.6</ele>
        <time>2020-06-17T10:19:47Z</time>
      </trkpt>
      <trkpt lat="49.24919" lon="-0.24553">
        <ele>23.4</ele>
        <time>2020-06-17T10:19:48Z</time>
      </trkpt>
      <trkpt lat="49.24925" lon="-0.24544">
        <ele>23.3</ele>
        <time>2020-06-17T10:19:49Z</time>
      </trkpt>
      <trkpt lat="49.24931" lon="-0.24537">
        <ele>23.2</ele>
        <time>2020-06-17T10:19:50Z</time>
      </trkpt>
      <trkpt lat="49.24938" lon="-0.24529">
        <ele>23.1</ele>
        <time>2020-06-17T10:19:51Z</time>
      </trkpt>
      <trkpt lat="49.24944" lon="-0.2452">
        <ele>23</ele>
        <time>2020-06-17T10:19:52Z</time>
      </trkpt>
      <trkpt lat="49.24951" lon="-0.24513">
        <ele>22.9</ele>
        <time>2020-06-17T10:19:53Z</time>
      </trkpt>
      <trkpt lat="49.24958" lon="-0.24506">
        <ele>22.7</ele>
        <time>2020-06-17T10:19:54Z</time>
      </trkpt>
      <trkpt lat="49.24964" lon="-0.24499">
        <ele>22.6</ele>
        <time>2020-06-17T10:19:55Z</time>
      </trkpt>
      <trkpt lat="49.24971" lon="-0.24491">
        <ele>22.4</ele>
        <time>2020-06-17T10:19:56Z</time>
      </trkpt>
      <trkpt lat="49.24978" lon="-0.24483">
        <ele>22.3</ele>
        <time>2020-06-17T10:19:57Z</time>
      </trkpt>
      <trkpt lat="49.24984" lon="-0.24476">
        <ele>22.2</ele>
        <time>2020-06-17T10:19:58Z</time>
      </trkpt>
      <trkpt lat="49.24991" lon="-0.24468">
        <ele>22.1</ele>
        <time>2020-06-17T10:19:59Z</time>
      </trkpt>
      <trkpt lat="49.24998" lon="-0.24461">
        <ele>22</ele>
        <time>2020-06-17T10:20:00Z</time>
      </trkpt>
      <trkpt lat="49.25005" lon="-0.24455">
        <ele>21.9</ele>
        <time>2020-06-17T10:20:01Z</time>
      </trkpt>
      <trkpt lat="49.25012" lon="-0.24449">
        <ele>21.9</ele>
        <time>2020-06-17T10:20:02Z</time>
      </trkpt>
      <trkpt lat="49.25019" lon="-0.24443">
        <ele>21.8</ele>
        <time>2020-06-17T10:20:03Z</time>
      </trkpt>
      <trkpt lat="49.25025" lon="-0.24435">
        <ele>21.8</ele>
        <time>2020-06-17T10:20:04Z</time>
      </trkpt>
      <trkpt lat="49.25032" lon="-0.2443">
        <ele>21.7</ele>
        <time>2020-06-17T10:20:05Z</time>
      </trkpt>
      <trkpt lat="49.25039" lon="-0.24424">
        <ele>21.7</ele>
        <time>2020-06-17T10:20:06Z</time>
      </trkpt>
      <trkpt lat="49.25046" lon="-0.24418">
        <ele>21.7</ele>
        <time>2020-06-17T10:20:07Z</time>
      </trkpt>
      <trkpt lat="49.25053" lon="-0.24411">
        <ele>21.7</ele>
        <time>2020-06-17T10:20:08Z</time>
      </trkpt>
      <trkpt lat="49.2506" lon="-0.24405">
        <ele>21.7</ele>
        <time>2020-06-17T10:20:09Z</time>
      </trkpt>
      <trkpt lat="49.25067" lon="-0.24401">
        <ele>21.7</ele>
        <time>2020-06-17T10:20:10Z</time>
      </trkpt>
      <trkpt lat="49.25074" lon="-0.24396">
        <ele>21.8</ele>
        <time>2020-06-17T10:20:11Z</time>
      </trkpt>
      <trkpt lat="49.25082" lon="-0.24391">
        <ele>21.9</ele>
        <time>2020-06-17T10:20:12Z</time>
      </trkpt>
      <trkpt lat="49.25089" lon="-0.24386">
        <ele>22</ele>
        <time>2020-06-17T10:20:13Z</time>
      </trkpt>
      <trkpt lat="49.25096" lon="-0.24381">
        <ele>22.1</ele>
        <time>2020-06-17T10:20:14Z</time>
      </trkpt>
      <trkpt lat="49.25103" lon="-0.24377">
        <ele>22.2</ele>
        <time>2020-06-17T10:20:15Z</time>
      </trkpt>
      <trkpt lat="49.25109" lon="-0.24371">
        <ele>22.4</ele>
        <time>2020-06-17T10:20:16Z</time>
      </trkpt>
      <trkpt lat="49.25116" lon="-0.24366">
        <ele>22.5</ele>
        <time>2020-06-17T10:20:17Z</time>
      </trkpt>
      <trkpt lat="49.25122" lon="-0.2436">
        <ele>22.7</ele>
        <time>2020-06-17T10:20:18Z</time>
      </trkpt>
      <trkpt lat="49.25129" lon="-0.24355">
        <ele>22.8</ele>
        <time>2020-06-17T10:20:19Z</time>
      </trkpt>
      <trkpt lat="49.25136" lon="-0.2435">
        <ele>22.9</ele>
        <time>2020-06-17T10:20:20Z</time>
      </trkpt>
      <trkpt lat="49.25142" lon="-0.24345">
        <ele>23</ele>
        <time>2020-06-17T10:20:21Z</time>
      </trkpt>
      <trkpt lat="49.25149" lon="-0.24341">
        <ele>23.1</ele>
        <time>2020-06-17T10:20:22Z</time>
      </trkpt>
      <trkpt lat="49.25157" lon="-0.24336">
        <ele>23.2</ele>
        <time>2020-06-17T10:20:23Z</time>
      </trkpt>
      <trkpt lat="49.25164" lon="-0.24331">
        <ele>23.3</ele>
        <time>2020-06-17T10:20:24Z</time>
      </trkpt>
      <trkpt lat="49.25171" lon="-0.24327">
        <ele>23.5</ele>
        <time>2020-06-17T10:20:25Z</time>
      </trkpt>
      <trkpt lat="49.25179" lon="-0.24323">
        <ele>23.6</ele>
        <time>2020-06-17T10:20:26Z</time>
      </trkpt>
      <trkpt lat="49.25186" lon="-0.24319">
        <ele>23.8</ele>
        <time>2020-06-17T10:20:27Z</time>
      </trkpt>
      <trkpt lat="49.25193" lon="-0.24315">
        <ele>23.9</ele>
        <time>2020-06-17T10:20:28Z</time>
      </trkpt>
      <trkpt lat="49.252" lon="-0.2431">
        <ele>24</ele>
        <time>2020-06-17T10:20:29Z</time>
      </trkpt>
      <trkpt lat="49.25207" lon="-0.24305">
        <ele>24.1</ele>
        <time>2020-06-17T10:20:30Z</time>
      </trkpt>
      <trkpt lat="49.25214" lon="-0.24301">
        <ele>24.2</ele>
        <time>2020-06-17T10:20:31Z</time>
      </trkpt>
      <trkpt lat="49.25221" lon="-0.24296">
        <ele>24.2</ele>
        <time>2020-06-17T10:20:32Z</time>
      </trkpt>
      <trkpt lat="49.25228" lon="-0.24292">
        <ele>24.3</ele>
        <time>2020-06-17T10:20:33Z</time>
      </trkpt>
      <trkpt lat="49.25235" lon="-0.24288">
        <ele>24.4</ele>
        <time>2020-06-17T10:20:34Z</time>
      </trkpt>
      <trkpt lat="49.25242" lon="-0.24284">
        <ele>24.4</ele>
        <time>2020-06-17T10:20:35Z</time>
      </trkpt>
      <trkpt lat="49.25249" lon="-0.24279">
        <ele>24.5</ele>
        <time>2020-06-17T10:20:36Z</time>
      </trkpt>
      <trkpt lat="49.25256" lon="-0.24276">
        <ele>24.5</ele>
        <time>2020-06-17T10:20:37Z</time>
      </trkpt>
      <trkpt lat="49.25263" lon="-0.24272">
        <ele>24.6</ele>
        <time>2020-06-17T10:20:38Z</time>
      </trkpt>
      <trkpt lat="49.2527" lon="-0.24268">
        <ele>24.7</ele>
        <time>2020-06-17T10:20:39Z</time>
      </trkpt>
      <trkpt lat="49.25277" lon="-0.24265">
        <ele>24.7</ele>
        <time>2020-06-17T10:20:40Z</time>
      </trkpt>
      <trkpt lat="49.25284" lon="-0.24261">
        <ele>24.8</ele>
        <time>2020-06-17T10:20:41Z</time>
      </trkpt>
      <trkpt lat="49.2529" lon="-0.24257">
        <ele>24.8</ele>
        <time>2020-06-17T10:20:42Z</time>
      </trkpt>
      <trkpt lat="49.25297" lon="-0.24254">
        <ele>24.9</ele>
        <time>2020-06-17T10:20:43Z</time>
      </trkpt>
      <trkpt lat="49.25304" lon="-0.2425">
        <ele>24.9</ele>
        <time>2020-06-17T10:20:44Z</time>
      </trkpt>
      <trkpt lat="49.25312" lon="-0.24247">
        <ele>24.9</ele>
        <time>2020-06-17T10:20:45Z</time>
      </trkpt>
      <trkpt lat="49.25319" lon="-0.24244">
        <ele>24.8</ele>
        <time>2020-06-17T10:20:46Z</time>
      </trkpt>
      <trkpt lat="49.25326" lon="-0.24242">
        <ele>24.8</ele>
        <time>2020-06-17T10:20:47Z</time>
      </trkpt>
      <trkpt lat="49.25334" lon="-0.24239">
        <ele>24.7</ele>
        <time>2020-06-17T10:20:48Z</time>
      </trkpt>
      <trkpt lat="49.25341" lon="-0.24237">
        <ele>24.7</ele>
        <time>2020-06-17T10:20:49Z</time>
      </trkpt>
      <trkpt lat="49.25349" lon="-0.24235">
        <ele>24.6</ele>
        <time>2020-06-17T10:20:50Z</time>
      </trkpt>
      <trkpt lat="49.25356" lon="-0.24232">
        <ele>24.5</ele>
        <time>2020-06-17T10:20:51Z</time>
      </trkpt>
      <trkpt lat="49.25363" lon="-0.2423">
        <ele>24.4</ele>
        <time>2020-06-17T10:20:52Z</time>
      </trkpt>
      <trkpt lat="49.25371" lon="-0.24227">
        <ele>24.3</ele>
        <time>2020-06-17T10:20:53Z</time>
      </trkpt>
      <trkpt lat="49.25378" lon="-0.24224">
        <ele>24.1</ele>
        <time>2020-06-17T10:20:54Z</time>
      </trkpt>
      <trkpt lat="49.25386" lon="-0.24221">
        <ele>23.9</ele>
        <time>2020-06-17T10:20:55Z</time>
      </trkpt>
      <trkpt lat="49.25393" lon="-0.24218">
        <ele>23.8</ele>
        <time>2020-06-17T10:20:56Z</time>
      </trkpt>
      <trkpt lat="49.25401" lon="-0.24215">
        <ele>23.6</ele>
        <time>2020-06-17T10:20:57Z</time>
      </trkpt>
      <trkpt lat="49.25408" lon="-0.24211">
        <ele>23.4</ele>
        <time>2020-06-17T10:20:58Z</time>
      </trkpt>
      <trkpt lat="49.25416" lon="-0.24208">
        <ele>23.1</ele>
        <time>2020-06-17T10:20:59Z</time>
      </trkpt>
      <trkpt lat="49.25424" lon="-0.24203">
        <ele>22.9</ele>
        <time>2020-06-17T10:21:00Z</time>
      </trkpt>
      <trkpt lat="49.25431" lon="-0.24198">
        <ele>22.7</ele>
        <time>2020-06-17T10:21:01Z</time>
      </trkpt>
      <trkpt lat="49.25439" lon="-0.24193">
        <ele>22.4</ele>
        <time>2020-06-17T10:21:02Z</time>
      </trkpt>
      <trkpt lat="49.25447" lon="-0.24188">
        <ele>22.2</ele>
        <time>2020-06-17T10:21:03Z</time>
      </trkpt>
      <trkpt lat="49.25455" lon="-0.24182">
        <ele>22</ele>
        <time>2020-06-17T10:21:04Z</time>
      </trkpt>
      <trkpt lat="49.25462" lon="-0.24175">
        <ele>21.7</ele>
        <time>2020-06-17T10:21:05Z</time>
      </trkpt>
      <trkpt lat="49.2547" lon="-0.24169">
        <ele>21.5</ele>
        <time>2020-06-17T10:21:06Z</time>
      </trkpt>
      <trkpt lat="49.25478" lon="-0.24162">
        <ele>21.2</ele>
        <time>2020-06-17T10:21:07Z</time>
      </trkpt>
      <trkpt lat="49.25486" lon="-0.24156">
        <ele>21</ele>
        <time>2020-06-17T10:21:08Z</time>
      </trkpt>
      <trkpt lat="49.25493" lon="-0.24148">
        <ele>20.9</ele>
        <time>2020-06-17T10:21:09Z</time>
      </trkpt>
      <trkpt lat="49.255" lon="-0.2414">
        <ele>20.8</ele>
        <time>2020-06-17T10:21:10Z</time>
      </trkpt>
      <trkpt lat="49.25507" lon="-0.24133">
        <ele>20.7</ele>
        <time>2020-06-17T10:21:11Z</time>
      </trkpt>
      <trkpt lat="49.25514" lon="-0.24125">
        <ele>20.6</ele>
        <time>2020-06-17T10:21:12Z</time>
      </trkpt>
      <trkpt lat="49.25522" lon="-0.24117">
        <ele>20.6</ele>
        <time>2020-06-17T10:21:13Z</time>
      </trkpt>
      <trkpt lat="49.25529" lon="-0.2411">
        <ele>20.4</ele>
        <time>2020-06-17T10:21:14Z</time>
      </trkpt>
      <trkpt lat="49.25536" lon="-0.24102">
        <ele>20.3</ele>
        <time>2020-06-17T10:21:15Z</time>
      </trkpt>
      <trkpt lat="49.25543" lon="-0.24094">
        <ele>20.2</ele>
        <time>2020-06-17T10:21:16Z</time>
      </trkpt>
      <trkpt lat="49.2555" lon="-0.24086">
        <ele>20.1</ele>
        <time>2020-06-17T10:21:17Z</time>
      </trkpt>
      <trkpt lat="49.25556" lon="-0.24078">
        <ele>20</ele>
        <time>2020-06-17T10:21:18Z</time>
      </trkpt>
      <trkpt lat="49.25563" lon="-0.24069">
        <ele>19.9</ele>
        <time>2020-06-17T10:21:19Z</time>
      </trkpt>
      <trkpt lat="49.25569" lon="-0.24062">
        <ele>19.9</ele>
        <time>2020-06-17T10:21:20Z</time>
      </trkpt>
      <trkpt lat="49.25576" lon="-0.24054">
        <ele>19.8</ele>
        <time>2020-06-17T10:21:21Z</time>
      </trkpt>
      <trkpt lat="49.25582" lon="-0.24047">
        <ele>19.7</ele>
        <time>2020-06-17T10:21:22Z</time>
      </trkpt>
      <trkpt lat="49.25589" lon="-0.2404">
        <ele>19.6</ele>
        <time>2020-06-17T10:21:23Z</time>
      </trkpt>
      <trkpt lat="49.25595" lon="-0.24032">
        <ele>19.4</ele>
        <time>2020-06-17T10:21:24Z</time>
      </trkpt>
      <trkpt lat="49.25602" lon="-0.24025">
        <ele>19.3</ele>
        <time>2020-06-17T10:21:25Z</time>
      </trkpt>
      <trkpt lat="49.25609" lon="-0.24019">
        <ele>19.2</ele>
        <time>2020-06-17T10:21:26Z</time>
      </trkpt>
      <trkpt lat="49.25615" lon="-0.24012">
        <ele>19.1</ele>
        <time>2020-06-17T10:21:27Z</time>
      </trkpt>
      <trkpt lat="49.25621" lon="-0.24005">
        <ele>19</ele>
        <time>2020-06-17T10:21:28Z</time>
      </trkpt>
      <trkpt lat="49.25628" lon="-0.23998">
        <ele>19</ele>
        <time>2020-06-17T10:21:29Z</time>
      </trkpt>
      <trkpt lat="49.25634" lon="-0.23991">
        <ele>18.9</ele>
        <time>2020-06-17T10:21:30Z</time>
      </trkpt>
      <trkpt lat="49.25641" lon="-0.23985">
        <ele>18.8</ele>
        <time>2020-06-17T10:21:31Z</time>
      </trkpt>
      <trkpt lat="49.25647" lon="-0.23978">
        <ele>18.6</ele>
        <time>2020-06-17T10:21:32Z</time>
      </trkpt>
      <trkpt lat="49.25654" lon="-0.23972">
        <ele>18.4</ele>
        <time>2020-06-17T10:21:33Z</time>
      </trkpt>
      <trkpt lat="49.25661" lon="-0.23964">
        <ele>18.2</ele>
        <time>2020-06-17T10:21:34Z</time>
      </trkpt>
      <trkpt lat="49.25668" lon="-0.23957">
        <ele>18.1</ele>
        <time>2020-06-17T10:21:35Z</time>
      </trkpt>
      <trkpt lat="49.25675" lon="-0.2395">
        <ele>17.9</ele>
        <time>2020-06-17T10:21:36Z</time>
      </trkpt>
      <trkpt lat="49.25682" lon="-0.23942">
        <ele>17.8</ele>
        <time>2020-06-17T10:21:37Z</time>
      </trkpt>
      <trkpt lat="49.25689" lon="-0.23935">
        <ele>17.7</ele>
        <time>2020-06-17T10:21:38Z</time>
      </trkpt>
      <trkpt lat="49.25697" lon="-0.23928">
        <ele>17.6</ele>
        <time>2020-06-17T10:21:39Z</time>
      </trkpt>
      <trkpt lat="49.25704" lon="-0.23921">
        <ele>17.5</ele>
        <time>2020-06-17T10:21:40Z</time>
      </trkpt>
      <trkpt lat="49.25711" lon="-0.23914">
        <ele>17.4</ele>
        <time>2020-06-17T10:21:41Z</time>
      </trkpt>
      <trkpt lat="49.25719" lon="-0.23907">
        <ele>17.3</ele>
        <time>2020-06-17T10:21:42Z</time>
      </trkpt>
      <trkpt lat="49.25726" lon="-0.239">
        <ele>17.2</ele>
        <time>2020-06-17T10:21:43Z</time>
      </trkpt>
      <trkpt lat="49.25733" lon="-0.23893">
        <ele>17.2</ele>
        <time>2020-06-17T10:21:44Z</time>
      </trkpt>
      <trkpt lat="49.2574" lon="-0.23886">
        <ele>17.1</ele>
        <time>2020-06-17T10:21:45Z</time>
      </trkpt>
      <trkpt lat="49.25747" lon="-0.23878">
        <ele>17</ele>
        <time>2020-06-17T10:21:46Z</time>
      </trkpt>
      <trkpt lat="49.25753" lon="-0.2387">
        <ele>16.9</ele>
        <time>2020-06-17T10:21:47Z</time>
      </trkpt>
      <trkpt lat="49.2576" lon="-0.23861">
        <ele>16.7</ele>
        <time>2020-06-17T10:21:48Z</time>
      </trkpt>
      <trkpt lat="49.25766" lon="-0.23853">
        <ele>16.5</ele>
        <time>2020-06-17T10:21:49Z</time>
      </trkpt>
      <trkpt lat="49.25773" lon="-0.23845">
        <ele>16.3</ele>
        <time>2020-06-17T10:21:50Z</time>
      </trkpt>
      <trkpt lat="49.2578" lon="-0.23838">
        <ele>16.1</ele>
        <time>2020-06-17T10:21:51Z</time>
      </trkpt>
      <trkpt lat="49.25787" lon="-0.2383">
        <ele>15.9</ele>
        <time>2020-06-17T10:21:52Z</time>
      </trkpt>
      <trkpt lat="49.25795" lon="-0.23822">
        <ele>15.7</ele>
        <time>2020-06-17T10:21:53Z</time>
      </trkpt>
      <trkpt lat="49.25802" lon="-0.23814">
        <ele>15.5</ele>
        <time>2020-06-17T10:21:54Z</time>
      </trkpt>
      <trkpt lat="49.25808" lon="-0.23805">
        <ele>15.2</ele>
        <time>2020-06-17T10:21:55Z</time>
      </trkpt>
      <trkpt lat="49.25815" lon="-0.23796">
        <ele>15</ele>
        <time>2020-06-17T10:21:56Z</time>
      </trkpt>
      <trkpt lat="49.25822" lon="-0.23787">
        <ele>14.7</ele>
        <time>2020-06-17T10:21:57Z</time>
      </trkpt>
      <trkpt lat="49.2583" lon="-0.23777">
        <ele>14.4</ele>
        <time>2020-06-17T10:21:58Z</time>
      </trkpt>
      <trkpt lat="49.25837" lon="-0.23768">
        <ele>14.1</ele>
        <time>2020-06-17T10:21:59Z</time>
      </trkpt>
      <trkpt lat="49.25845" lon="-0.23759">
        <ele>13.9</ele>
        <time>2020-06-17T10:22:00Z</time>
      </trkpt>
      <trkpt lat="49.25852" lon="-0.2375">
        <ele>13.5</ele>
        <time>2020-06-17T10:22:01Z</time>
      </trkpt>
      <trkpt lat="49.2586" lon="-0.23741">
        <ele>13.1</ele>
        <time>2020-06-17T10:22:02Z</time>
      </trkpt>
      <trkpt lat="49.25868" lon="-0.23732">
        <ele>12.6</ele>
        <time>2020-06-17T10:22:03Z</time>
      </trkpt>
      <trkpt lat="49.25876" lon="-0.23724">
        <ele>12.2</ele>
        <time>2020-06-17T10:22:04Z</time>
      </trkpt>
      <trkpt lat="49.25884" lon="-0.23715">
        <ele>11.8</ele>
        <time>2020-06-17T10:22:05Z</time>
      </trkpt>
      <trkpt lat="49.25893" lon="-0.23708">
        <ele>11.4</ele>
        <time>2020-06-17T10:22:06Z</time>
      </trkpt>
      <trkpt lat="49.25903" lon="-0.23703">
        <ele>11</ele>
        <time>2020-06-17T10:22:07Z</time>
      </trkpt>
      <trkpt lat="49.25913" lon="-0.23697">
        <ele>10.7</ele>
        <time>2020-06-17T10:22:08Z</time>
      </trkpt>
      <trkpt lat="49.25922" lon="-0.23691">
        <ele>10.4</ele>
        <time>2020-06-17T10:22:09Z</time>
      </trkpt>
      <trkpt lat="49.25932" lon="-0.23685">
        <ele>10.1</ele>
        <time>2020-06-17T10:22:10Z</time>
      </trkpt>
      <trkpt lat="49.25941" lon="-0.23679">
        <ele>9.9</ele>
        <time>2020-06-17T10:22:11Z</time>
      </trkpt>
      <trkpt lat="49.25951" lon="-0.23674">
        <ele>9.5</ele>
        <time>2020-06-17T10:22:12Z</time>
      </trkpt>
      <trkpt lat="49.2596" lon="-0.2367">
        <ele>9.2</ele>
        <time>2020-06-17T10:22:13Z</time>
      </trkpt>
      <trkpt lat="49.2597" lon="-0.23667">
        <ele>9</ele>
        <time>2020-06-17T10:22:14Z</time>
      </trkpt>
      <trkpt lat="49.2598" lon="-0.23662">
        <ele>8.7</ele>
        <time>2020-06-17T10:22:15Z</time>
      </trkpt>
      <trkpt lat="49.25989" lon="-0.23658">
        <ele>8.4</ele>
        <time>2020-06-17T10:22:16Z</time>
      </trkpt>
      <trkpt lat="49.25999" lon="-0.23651">
        <ele>8.3</ele>
        <time>2020-06-17T10:22:17Z</time>
      </trkpt>
      <trkpt lat="49.26008" lon="-0.23644">
        <ele>8.1</ele>
        <time>2020-06-17T10:22:18Z</time>
      </trkpt>
      <trkpt lat="49.26017" lon="-0.23637">
        <ele>7.9</ele>
        <time>2020-06-17T10:22:19Z</time>
      </trkpt>
      <trkpt lat="49.26026" lon="-0.2363">
        <ele>7.8</ele>
        <time>2020-06-17T10:22:20Z</time>
      </trkpt>
      <trkpt lat="49.26035" lon="-0.23622">
        <ele>7.8</ele>
        <time>2020-06-17T10:22:21Z</time>
      </trkpt>
      <trkpt lat="49.26044" lon="-0.23614">
        <ele>7.9</ele>
        <time>2020-06-17T10:22:22Z</time>
      </trkpt>
      <trkpt lat="49.26053" lon="-0.23606">
        <ele>8</ele>
        <time>2020-06-17T10:22:23Z</time>
      </trkpt>
      <trkpt lat="49.26061" lon="-0.23598">
        <ele>8.2</ele>
        <time>2020-06-17T10:22:24Z</time>
      </trkpt>
      <trkpt lat="49.26069" lon="-0.2359">
        <ele>8.3</ele>
        <time>2020-06-17T10:22:25Z</time>
      </trkpt>
      <trkpt lat="49.26077" lon="-0.2358">
        <ele>8.4</ele>
        <time>2020-06-17T10:22:26Z</time>
      </trkpt>
      <trkpt lat="49.26084" lon="-0.2357">
        <ele>8.4</ele>
        <time>2020-06-17T10:22:27Z</time>
      </trkpt>
      <trkpt lat="49.26091" lon="-0.2356">
        <ele>8.5</ele>
        <time>2020-06-17T10:22:28Z</time>
      </trkpt>
      <trkpt lat="49.26098" lon="-0.2355">
        <ele>8.6</ele>
        <time>2020-06-17T10:22:29Z</time>
      </trkpt>
      <trkpt lat="49.26104" lon="-0.23541">
        <ele>8.7</ele>
        <time>2020-06-17T10:22:30Z</time>
      </trkpt>
      <trkpt lat="49.26111" lon="-0.23531">
        <ele>8.8</ele>
        <time>2020-06-17T10:22:31Z</time>
      </trkpt>
      <trkpt lat="49.26116" lon="-0.2352">
        <ele>8.8</ele>
        <time>2020-06-17T10:22:32Z</time>
      </trkpt>
      <trkpt lat="49.26123" lon="-0.2351">
        <ele>8.9</ele>
        <time>2020-06-17T10:22:33Z</time>
      </trkpt>
      <trkpt lat="49.26129" lon="-0.235">
        <ele>8.9</ele>
        <time>2020-06-17T10:22:34Z</time>
      </trkpt>
      <trkpt lat="49.26135" lon="-0.2349">
        <ele>9</ele>
        <time>2020-06-17T10:22:35Z</time>
      </trkpt>
      <trkpt lat="49.26141" lon="-0.23479">
        <ele>9</ele>
        <time>2020-06-17T10:22:36Z</time>
      </trkpt>
      <trkpt lat="49.26147" lon="-0.23469">
        <ele>9</ele>
        <time>2020-06-17T10:22:37Z</time>
      </trkpt>
      <trkpt lat="49.26153" lon="-0.23459">
        <ele>8.9</ele>
        <time>2020-06-17T10:22:38Z</time>
      </trkpt>
      <trkpt lat="49.26158" lon="-0.23447">
        <ele>8.9</ele>
        <time>2020-06-17T10:22:39Z</time>
      </trkpt>
      <trkpt lat="49.26163" lon="-0.23436">
        <ele>8.9</ele>
        <time>2020-06-17T10:22:40Z</time>
      </trkpt>
      <trkpt lat="49.26169" lon="-0.23426">
        <ele>8.9</ele>
        <time>2020-06-17T10:22:41Z</time>
      </trkpt>
      <trkpt lat="49.26173" lon="-0.23415">
        <ele>8.8</ele>
        <time>2020-06-17T10:22:42Z</time>
      </trkpt>
      <trkpt lat="49.26178" lon="-0.23404">
        <ele>8.8</ele>
        <time>2020-06-17T10:22:43Z</time>
      </trkpt>
      <trkpt lat="49.26183" lon="-0.23392">
        <ele>8.8</ele>
        <time>2020-06-17T10:22:44Z</time>
      </trkpt>
      <trkpt lat="49.26188" lon="-0.23381">
        <ele>8.8</ele>
        <time>2020-06-17T10:22:45Z</time>
      </trkpt>
      <trkpt lat="49.26192" lon="-0.2337">
        <ele>8.7</ele>
        <time>2020-06-17T10:22:46Z</time>
      </trkpt>
      <trkpt lat="49.26196" lon="-0.23358">
        <ele>8.7</ele>
        <time>2020-06-17T10:22:47Z</time>
      </trkpt>
      <trkpt lat="49.26201" lon="-0.23347">
        <ele>8.7</ele>
        <time>2020-06-17T10:22:48Z</time>
      </trkpt>
      <trkpt lat="49.26205" lon="-0.23335">
        <ele>8.7</ele>
        <time>2020-06-17T10:22:49Z</time>
      </trkpt>
      <trkpt lat="49.2621" lon="-0.23324">
        <ele>8.7</ele>
        <time>2020-06-17T10:22:50Z</time>
      </trkpt>
      <trkpt lat="49.26214" lon="-0.23313">
        <ele>8.6</ele>
        <time>2020-06-17T10:22:51Z</time>
      </trkpt>
      <trkpt lat="49.26219" lon="-0.23302">
        <ele>8.6</ele>
        <time>2020-06-17T10:22:52Z</time>
      </trkpt>
      <trkpt lat="49.26224" lon="-0.23291">
        <ele>8.6</ele>
        <time>2020-06-17T10:22:53Z</time>
      </trkpt>
      <trkpt lat="49.26228" lon="-0.23279">
        <ele>8.5</ele>
        <time>2020-06-17T10:22:54Z</time>
      </trkpt>
      <trkpt lat="49.26233" lon="-0.23269">
        <ele>8.5</ele>
        <time>2020-06-17T10:22:55Z</time>
      </trkpt>
      <trkpt lat="49.26237" lon="-0.23259">
        <ele>8.5</ele>
        <time>2020-06-17T10:22:56Z</time>
      </trkpt>
      <trkpt lat="49.26241" lon="-0.23248">
        <ele>8.4</ele>
        <time>2020-06-17T10:22:57Z</time>
      </trkpt>
      <trkpt lat="49.26245" lon="-0.2324">
        <ele>8.4</ele>
        <time>2020-06-17T10:22:58Z</time>
      </trkpt>
      <trkpt lat="49.26248" lon="-0.23231">
        <ele>8.3</ele>
        <time>2020-06-17T10:22:59Z</time>
      </trkpt>
      <trkpt lat="49.26251" lon="-0.23223">
        <ele>8.3</ele>
        <time>2020-06-17T10:23:00Z</time>
      </trkpt>
      <trkpt lat="49.26254" lon="-0.23216">
        <ele>8.2</ele>
        <time>2020-06-17T10:23:01Z</time>
      </trkpt>
      <trkpt lat="49.26258" lon="-0.23208">
        <ele>8.1</ele>
        <time>2020-06-17T10:23:02Z</time>
      </trkpt>
      <trkpt lat="49.26261" lon="-0.232">
        <ele>8</ele>
        <time>2020-06-17T10:23:03Z</time>
      </trkpt>
      <trkpt lat="49.26265" lon="-0.23192">
        <ele>7.8</ele>
        <time>2020-06-17T10:23:04Z</time>
      </trkpt>
      <trkpt lat="49.26269" lon="-0.23184">
        <ele>7.7</ele>
        <time>2020-06-17T10:23:05Z</time>
      </trkpt>
      <trkpt lat="49.26274" lon="-0.23176">
        <ele>7.6</ele>
        <time>2020-06-17T10:23:06Z</time>
      </trkpt>
      <trkpt lat="49.26279" lon="-0.23167">
        <ele>7.4</ele>
        <time>2020-06-17T10:23:07Z</time>
      </trkpt>
      <trkpt lat="49.26284" lon="-0.23159">
        <ele>7.3</ele>
        <time>2020-06-17T10:23:08Z</time>
      </trkpt>
      <trkpt lat="49.26289" lon="-0.23151">
        <ele>7.2</ele>
        <time>2020-06-17T10:23:09Z</time>
      </trkpt>
      <trkpt lat="49.26294" lon="-0.23142">
        <ele>7.1</ele>
        <time>2020-06-17T10:23:10Z</time>
      </trkpt>
      <trkpt lat="49.26298" lon="-0.23132">
        <ele>7</ele>
        <time>2020-06-17T10:23:11Z</time>
      </trkpt>
      <trkpt lat="49.26302" lon="-0.23124">
        <ele>6.9</ele>
        <time>2020-06-17T10:23:12Z</time>
      </trkpt>
      <trkpt lat="49.26306" lon="-0.23115">
        <ele>6.9</ele>
        <time>2020-06-17T10:23:13Z</time>
      </trkpt>
      <trkpt lat="49.2631" lon="-0.23106">
        <ele>6.9</ele>
        <time>2020-06-17T10:23:14Z</time>
      </trkpt>
      <trkpt lat="49.26314" lon="-0.23098">
        <ele>6.9</ele>
        <time>2020-06-17T10:23:15Z</time>
      </trkpt>
      <trkpt lat="49.26318" lon="-0.2309">
        <ele>6.9</ele>
        <time>2020-06-17T10:23:16Z</time>
      </trkpt>
      <trkpt lat="49.26322" lon="-0.23082">
        <ele>6.9</ele>
        <time>2020-06-17T10:23:17Z</time>
      </trkpt>
      <trkpt lat="49.26325" lon="-0.23074">
        <ele>7</ele>
        <time>2020-06-17T10:23:18Z</time>
      </trkpt>
      <trkpt lat="49.26328" lon="-0.23066">
        <ele>7</ele>
        <time>2020-06-17T10:23:19Z</time>
      </trkpt>
      <trkpt lat="49.26331" lon="-0.23057">
        <ele>7.1</ele>
        <time>2020-06-17T10:23:20Z</time>
      </trkpt>
      <trkpt lat="49.26334" lon="-0.23049">
        <ele>7.1</ele>
        <time>2020-06-17T10:23:21Z</time>
      </trkpt>
      <trkpt lat="49.26336" lon="-0.23041">
        <ele>7.2</ele>
        <time>2020-06-17T10:23:22Z</time>
      </trkpt>
      <trkpt lat="49.26338" lon="-0.23033">
        <ele>7.2</ele>
        <time>2020-06-17T10:23:23Z</time>
      </trkpt>
      <trkpt lat="49.2634" lon="-0.23026">
        <ele>7.2</ele>
        <time>2020-06-17T10:23:24Z</time>
      </trkpt>
      <trkpt lat="49.26342" lon="-0.23019">
        <ele>7.3</ele>
        <time>2020-06-17T10:23:25Z</time>
      </trkpt>
      <trkpt lat="49.26342" lon="-0.23012">
        <ele>7.3</ele>
        <time>2020-06-17T10:23:26Z</time>
      </trkpt>
      <trkpt lat="49.26342" lon="-0.23004">
        <ele>7.3</ele>
        <time>2020-06-17T10:23:27Z</time>
      </trkpt>
      <trkpt lat="49.26343" lon="-0.22996">
        <ele>7.3</ele>
        <time>2020-06-17T10:23:28Z</time>
      </trkpt>
      <trkpt lat="49.26344" lon="-0.22987">
        <ele>7.3</ele>
        <time>2020-06-17T10:23:29Z</time>
      </trkpt>
      <trkpt lat="49.26346" lon="-0.22978">
        <ele>7.2</ele>
        <time>2020-06-17T10:23:30Z</time>
      </trkpt>
      <trkpt lat="49.26347" lon="-0.2297">
        <ele>7.1</ele>
        <time>2020-06-17T10:23:31Z</time>
      </trkpt>
      <trkpt lat="49.2635" lon="-0.22962">
        <ele>7.1</ele>
        <time>2020-06-17T10:23:32Z</time>
      </trkpt>
      <trkpt lat="49.26354" lon="-0.22954">
        <ele>7</ele>
        <time>2020-06-17T10:23:33Z</time>
      </trkpt>
      <trkpt lat="49.26358" lon="-0.22946">
        <ele>7</ele>
        <time>2020-06-17T10:23:34Z</time>
      </trkpt>
      <trkpt lat="49.26361" lon="-0.22938">
        <ele>6.9</ele>
        <time>2020-06-17T10:23:35Z</time>
      </trkpt>
      <trkpt lat="49.26364" lon="-0.2293">
        <ele>6.9</ele>
        <time>2020-06-17T10:23:36Z</time>
      </trkpt>
      <trkpt lat="49.26367" lon="-0.22921">
        <ele>6.9</ele>
        <time>2020-06-17T10:23:37Z</time>
      </trkpt>
      <trkpt lat="49.26369" lon="-0.22913">
        <ele>6.8</ele>
        <time>2020-06-17T10:23:38Z</time>
      </trkpt>
      <trkpt lat="49.2637" lon="-0.22903">
        <ele>6.8</ele>
        <time>2020-06-17T10:23:39Z</time>
      </trkpt>
      <trkpt lat="49.26372" lon="-0.22895">
        <ele>6.8</ele>
        <time>2020-06-17T10:23:40Z</time>
      </trkpt>
      <trkpt lat="49.26375" lon="-0.22886">
        <ele>6.7</ele>
        <time>2020-06-17T10:23:41Z</time>
      </trkpt>
      <trkpt lat="49.26377" lon="-0.22878">
        <ele>6.7</ele>
        <time>2020-06-17T10:23:42Z</time>
      </trkpt>
      <trkpt lat="49.2638" lon="-0.22871">
        <ele>6.7</ele>
        <time>2020-06-17T10:23:43Z</time>
      </trkpt>
      <trkpt lat="49.26381" lon="-0.22864">
        <ele>6.6</ele>
        <time>2020-06-17T10:23:44Z</time>
      </trkpt>
      <trkpt lat="49.26383" lon="-0.22858">
        <ele>6.6</ele>
        <time>2020-06-17T10:23:45Z</time>
      </trkpt>
      <trkpt lat="49.26384" lon="-0.22853">
        <ele>6.6</ele>
        <time>2020-06-17T10:23:46Z</time>
      </trkpt>
      <trkpt lat="49.26387" lon="-0.22848">
        <ele>6.5</ele>
        <time>2020-06-17T10:23:47Z</time>
      </trkpt>
      <trkpt lat="49.26389" lon="-0.22843">
        <ele>6.5</ele>
        <time>2020-06-17T10:23:48Z</time>
      </trkpt>
      <trkpt lat="49.2639" lon="-0.22836">
        <ele>6.4</ele>
        <time>2020-06-17T10:23:49Z</time>
      </trkpt>
      <trkpt lat="49.26393" lon="-0.22829">
        <ele>6.4</ele>
        <time>2020-06-17T10:23:50Z</time>
      </trkpt>
      <trkpt lat="49.26396" lon="-0.22822">
        <ele>6.3</ele>
        <time>2020-06-17T10:23:51Z</time>
      </trkpt>
      <trkpt lat="49.26399" lon="-0.22814">
        <ele>6.3</ele>
        <time>2020-06-17T10:23:52Z</time>
      </trkpt>
      <trkpt lat="49.26402" lon="-0.22806">
        <ele>6.3</ele>
        <time>2020-06-17T10:23:53Z</time>
      </trkpt>
      <trkpt lat="49.26405" lon="-0.22799">
        <ele>6.2</ele>
        <time>2020-06-17T10:23:54Z</time>
      </trkpt>
      <trkpt lat="49.26409" lon="-0.22792">
        <ele>6.2</ele>
        <time>2020-06-17T10:23:55Z</time>
      </trkpt>
      <trkpt lat="49.26412" lon="-0.22784">
        <ele>6.2</ele>
        <time>2020-06-17T10:23:56Z</time>
      </trkpt>
      <trkpt lat="49.26416" lon="-0.22777">
        <ele>6.2</ele>
        <time>2020-06-17T10:23:57Z</time>
      </trkpt>
      <trkpt lat="49.26419" lon="-0.2277">
        <ele>6.2</ele>
        <time>2020-06-17T10:23:58Z</time>
      </trkpt>
      <trkpt lat="49.26422" lon="-0.22762">
        <ele>6.2</ele>
        <time>2020-06-17T10:23:59Z</time>
      </trkpt>
      <trkpt lat="49.26425" lon="-0.22754">
        <ele>6.2</ele>
        <time>2020-06-17T10:24:00Z</time>
      </trkpt>
      <trkpt lat="49.26429" lon="-0.22747">
        <ele>6.2</ele>
        <time>2020-06-17T10:24:01Z</time>
      </trkpt>
      <trkpt lat="49.26432" lon="-0.2274">
        <ele>6.1</ele>
        <time>2020-06-17T10:24:02Z</time>
      </trkpt>
      <trkpt lat="49.26436" lon="-0.22733">
        <ele>6.1</ele>
        <time>2020-06-17T10:24:03Z</time>
      </trkpt>
      <trkpt lat="49.26439" lon="-0.22726">
        <ele>6</ele>
        <time>2020-06-17T10:24:04Z</time>
      </trkpt>
      <trkpt lat="49.26441" lon="-0.22719">
        <ele>6</ele>
        <time>2020-06-17T10:24:05Z</time>
      </trkpt>
      <trkpt lat="49.26444" lon="-0.22712">
        <ele>5.9</ele>
        <time>2020-06-17T10:24:06Z</time>
      </trkpt>
      <trkpt lat="49.26447" lon="-0.22705">
        <ele>5.8</ele>
        <time>2020-06-17T10:24:07Z</time>
      </trkpt>
      <trkpt lat="49.26449" lon="-0.22697">
        <ele>5.7</ele>
        <time>2020-06-17T10:24:08Z</time>
      </trkpt>
      <trkpt lat="49.26452" lon="-0.22689">
        <ele>5.6</ele>
        <time>2020-06-17T10:24:09Z</time>
      </trkpt>
      <trkpt lat="49.26455" lon="-0.22681">
        <ele>5.5</ele>
        <time>2020-06-17T10:24:10Z</time>
      </trkpt>
      <trkpt lat="49.26457" lon="-0.22672">
        <ele>5.5</ele>
        <time>2020-06-17T10:24:11Z</time>
      </trkpt>
      <trkpt lat="49.2646" lon="-0.22663">
        <ele>5.4</ele>
        <time>2020-06-17T10:24:12Z</time>
      </trkpt>
      <trkpt lat="49.26462" lon="-0.22654">
        <ele>5.3</ele>
        <time>2020-06-17T10:24:13Z</time>
      </trkpt>
      <trkpt lat="49.26465" lon="-0.22644">
        <ele>5.3</ele>
        <time>2020-06-17T10:24:14Z</time>
      </trkpt>
      <trkpt lat="49.26467" lon="-0.22634">
        <ele>5.2</ele>
        <time>2020-06-17T10:24:15Z</time>
      </trkpt>
      <trkpt lat="49.2647" lon="-0.22624">
        <ele>5.1</ele>
        <time>2020-06-17T10:24:16Z</time>
      </trkpt>
      <trkpt lat="49.26473" lon="-0.22613">
        <ele>5.1</ele>
        <time>2020-06-17T10:24:17Z</time>
      </trkpt>
      <trkpt lat="49.26476" lon="-0.22604">
        <ele>5</ele>
        <time>2020-06-17T10:24:18Z</time>
      </trkpt>
      <trkpt lat="49.26478" lon="-0.22594">
        <ele>5</ele>
        <time>2020-06-17T10:24:19Z</time>
      </trkpt>
      <trkpt lat="49.26481" lon="-0.22585">
        <ele>5</ele>
        <time>2020-06-17T10:24:20Z</time>
      </trkpt>
      <trkpt lat="49.26484" lon="-0.22575">
        <ele>5</ele>
        <time>2020-06-17T10:24:21Z</time>
      </trkpt>
      <trkpt lat="49.26487" lon="-0.22566">
        <ele>5</ele>
        <time>2020-06-17T10:24:22Z</time>
      </trkpt>
      <trkpt lat="49.26488" lon="-0.22556">
        <ele>5</ele>
        <time>2020-06-17T10:24:23Z</time>
      </trkpt>
      <trkpt lat="49.2649" lon="-0.22545">
        <ele>5</ele>
        <time>2020-06-17T10:24:24Z</time>
      </trkpt>
      <trkpt lat="49.26492" lon="-0.22535">
        <ele>5</ele>
        <time>2020-06-17T10:24:25Z</time>
      </trkpt>
      <trkpt lat="49.26494" lon="-0.22525">
        <ele>5</ele>
        <time>2020-06-17T10:24:26Z</time>
      </trkpt>
      <trkpt lat="49.26496" lon="-0.22515">
        <ele>5</ele>
        <time>2020-06-17T10:24:27Z</time>
      </trkpt>
      <trkpt lat="49.26499" lon="-0.22505">
        <ele>5.1</ele>
        <time>2020-06-17T10:24:28Z</time>
      </trkpt>
      <trkpt lat="49.26502" lon="-0.22496">
        <ele>5.1</ele>
        <time>2020-06-17T10:24:29Z</time>
      </trkpt>
      <trkpt lat="49.26504" lon="-0.22486">
        <ele>5.1</ele>
        <time>2020-06-17T10:24:30Z</time>
      </trkpt>
      <trkpt lat="49.26507" lon="-0.22476">
        <ele>5.1</ele>
        <time>2020-06-17T10:24:31Z</time>
      </trkpt>
      <trkpt lat="49.26509" lon="-0.22465">
        <ele>5</ele>
        <time>2020-06-17T10:24:32Z</time>
      </trkpt>
      <trkpt lat="49.26512" lon="-0.22456">
        <ele>4.9</ele>
        <time>2020-06-17T10:24:33Z</time>
      </trkpt>
      <trkpt lat="49.26515" lon="-0.22446">
        <ele>4.9</ele>
        <time>2020-06-17T10:24:34Z</time>
      </trkpt>
      <trkpt lat="49.26518" lon="-0.22436">
        <ele>4.8</ele>
        <time>2020-06-17T10:24:35Z</time>
      </trkpt>
      <trkpt lat="49.26521" lon="-0.22426">
        <ele>4.8</ele>
        <time>2020-06-17T10:24:36Z</time>
      </trkpt>
      <trkpt lat="49.26524" lon="-0.22417">
        <ele>4.8</ele>
        <time>2020-06-17T10:24:37Z</time>
      </trkpt>
      <trkpt lat="49.26527" lon="-0.22407">
        <ele>4.7</ele>
        <time>2020-06-17T10:24:38Z</time>
      </trkpt>
      <trkpt lat="49.2653" lon="-0.22398">
        <ele>4.7</ele>
        <time>2020-06-17T10:24:39Z</time>
      </trkpt>
      <trkpt lat="49.26534" lon="-0.22388">
        <ele>4.7</ele>
        <time>2020-06-17T10:24:40Z</time>
      </trkpt>
      <trkpt lat="49.26536" lon="-0.22379">
        <ele>4.6</ele>
        <time>2020-06-17T10:24:41Z</time>
      </trkpt>
      <trkpt lat="49.26539" lon="-0.22369">
        <ele>4.6</ele>
        <time>2020-06-17T10:24:42Z</time>
      </trkpt>
      <trkpt lat="49.26542" lon="-0.22359">
        <ele>4.6</ele>
        <time>2020-06-17T10:24:43Z</time>
      </trkpt>
      <trkpt lat="49.26545" lon="-0.22349">
        <ele>4.5</ele>
        <time>2020-06-17T10:24:44Z</time>
      </trkpt>
      <trkpt lat="49.26548" lon="-0.2234">
        <ele>4.5</ele>
        <time>2020-06-17T10:24:45Z</time>
      </trkpt>
      <trkpt lat="49.26551" lon="-0.22331">
        <ele>4.6</ele>
        <time>2020-06-17T10:24:46Z</time>
      </trkpt>
      <trkpt lat="49.26554" lon="-0.22321">
        <ele>4.6</ele>
        <time>2020-06-17T10:24:47Z</time>
      </trkpt>
      <trkpt lat="49.26556" lon="-0.22312">
        <ele>4.7</ele>
        <time>2020-06-17T10:24:48Z</time>
      </trkpt>
      <trkpt lat="49.26559" lon="-0.22303">
        <ele>4.7</ele>
        <time>2020-06-17T10:24:49Z</time>
      </trkpt>
      <trkpt lat="49.26561" lon="-0.22294">
        <ele>4.7</ele>
        <time>2020-06-17T10:24:50Z</time>
      </trkpt>
      <trkpt lat="49.26564" lon="-0.22284">
        <ele>4.7</ele>
        <time>2020-06-17T10:24:51Z</time>
      </trkpt>
      <trkpt lat="49.26567" lon="-0.22276">
        <ele>4.6</ele>
        <time>2020-06-17T10:24:52Z</time>
      </trkpt>
      <trkpt lat="49.26571" lon="-0.22268">
        <ele>4.6</ele>
        <time>2020-06-17T10:24:53Z</time>
      </trkpt>
      <trkpt lat="49.26575" lon="-0.2226">
        <ele>4.5</ele>
        <time>2020-06-17T10:24:54Z</time>
      </trkpt>
      <trkpt lat="49.26579" lon="-0.22252">
        <ele>4.4</ele>
        <time>2020-06-17T10:24:55Z</time>
      </trkpt>
      <trkpt lat="49.26583" lon="-0.22244">
        <ele>4.4</ele>
        <time>2020-06-17T10:24:56Z</time>
      </trkpt>
      <trkpt lat="49.26587" lon="-0.22236">
        <ele>4.3</ele>
        <time>2020-06-17T10:24:57Z</time>
      </trkpt>
      <trkpt lat="49.26591" lon="-0.22228">
        <ele>4.3</ele>
        <time>2020-06-17T10:24:58Z</time>
      </trkpt>
      <trkpt lat="49.26595" lon="-0.2222">
        <ele>4.3</ele>
        <time>2020-06-17T10:24:59Z</time>
      </trkpt>
      <trkpt lat="49.26599" lon="-0.22212">
        <ele>4.3</ele>
        <time>2020-06-17T10:25:00Z</time>
      </trkpt>
      <trkpt lat="49.26604" lon="-0.22204">
        <ele>4.3</ele>
        <time>2020-06-17T10:25:01Z</time>
      </trkpt>
      <trkpt lat="49.26609" lon="-0.22197">
        <ele>4.4</ele>
        <time>2020-06-17T10:25:02Z</time>
      </trkpt>
      <trkpt lat="49.26614" lon="-0.2219">
        <ele>4.4</ele>
        <time>2020-06-17T10:25:03Z</time>
      </trkpt>
      <trkpt lat="49.26619" lon="-0.22184">
        <ele>4.4</ele>
        <time>2020-06-17T10:25:04Z</time>
      </trkpt>
      <trkpt lat="49.26625" lon="-0.22178">
        <ele>4.4</ele>
        <time>2020-06-17T10:25:05Z</time>
      </trkpt>
      <trkpt lat="49.2663" lon="-0.22171">
        <ele>4.4</ele>
        <time>2020-06-17T10:25:06Z</time>
      </trkpt>
      <trkpt lat="49.26635" lon="-0.22165">
        <ele>4.4</ele>
        <time>2020-06-17T10:25:07Z</time>
      </trkpt>
      <trkpt lat="49.2664" lon="-0.22159">
        <ele>4.4</ele>
        <time>2020-06-17T10:25:08Z</time>
      </trkpt>
      <trkpt lat="49.26646" lon="-0.22154">
        <ele>4.4</ele>
        <time>2020-06-17T10:25:09Z</time>
      </trkpt>
      <trkpt lat="49.2665" lon="-0.22149">
        <ele>4.5</ele>
        <time>2020-06-17T10:25:10Z</time>
      </trkpt>
      <trkpt lat="49.26655" lon="-0.22144">
        <ele>4.5</ele>
        <time>2020-06-17T10:25:11Z</time>
      </trkpt>
      <trkpt lat="49.2666" lon="-0.22138">
        <ele>4.5</ele>
        <time>2020-06-17T10:25:12Z</time>
      </trkpt>
      <trkpt lat="49.26664" lon="-0.22134">
        <ele>4.5</ele>
        <time>2020-06-17T10:25:13Z</time>
      </trkpt>
      <trkpt lat="49.26669" lon="-0.2213">
        <ele>4.5</ele>
        <time>2020-06-17T10:25:14Z</time>
      </trkpt>
      <trkpt lat="49.26673" lon="-0.22128">
        <ele>4.6</ele>
        <time>2020-06-17T10:25:15Z</time>
      </trkpt>
      <trkpt lat="49.26678" lon="-0.22125">
        <ele>4.6</ele>
        <time>2020-06-17T10:25:16Z</time>
      </trkpt>
      <trkpt lat="49.26683" lon="-0.22122">
        <ele>4.6</ele>
        <time>2020-06-17T10:25:17Z</time>
      </trkpt>
      <trkpt lat="49.26688" lon="-0.22118">
        <ele>4.7</ele>
        <time>2020-06-17T10:25:18Z</time>
      </trkpt>
      <trkpt lat="49.26693" lon="-0.22115">
        <ele>4.8</ele>
        <time>2020-06-17T10:25:19Z</time>
      </trkpt>
      <trkpt lat="49.26698" lon="-0.22112">
        <ele>4.8</ele>
        <time>2020-06-17T10:25:20Z</time>
      </trkpt>
      <trkpt lat="49.26703" lon="-0.22109">
        <ele>4.9</ele>
        <time>2020-06-17T10:25:21Z</time>
      </trkpt>
      <trkpt lat="49.26708" lon="-0.22105">
        <ele>4.9</ele>
        <time>2020-06-17T10:25:22Z</time>
      </trkpt>
      <trkpt lat="49.26713" lon="-0.22103">
        <ele>5</ele>
        <time>2020-06-17T10:25:23Z</time>
      </trkpt>
      <trkpt lat="49.26718" lon="-0.221">
        <ele>5</ele>
        <time>2020-06-17T10:25:24Z</time>
      </trkpt>
      <trkpt lat="49.26722" lon="-0.22098">
        <ele>5</ele>
        <time>2020-06-17T10:25:25Z</time>
      </trkpt>
      <trkpt lat="49.26726" lon="-0.22098">
        <ele>4.9</ele>
        <time>2020-06-17T10:25:26Z</time>
      </trkpt>
      <trkpt lat="49.26729" lon="-0.22098">
        <ele>4.9</ele>
        <time>2020-06-17T10:25:27Z</time>
      </trkpt>
      <trkpt lat="49.26733" lon="-0.22096">
        <ele>5</ele>
        <time>2020-06-17T10:25:28Z</time>
      </trkpt>
      <trkpt lat="49.26733" lon="-0.22095">
        <ele>5</ele>
        <time>2020-06-17T10:25:29Z</time>
      </trkpt>
      <trkpt lat="49.26737" lon="-0.22094">
        <ele>5</ele>
        <time>2020-06-17T10:25:30Z</time>
      </trkpt>
      <trkpt lat="49.26738" lon="-0.22093">
        <ele>5</ele>
        <time>2020-06-17T10:25:31Z</time>
      </trkpt>
      <trkpt lat="49.26741" lon="-0.22092">
        <ele>5</ele>
        <time>2020-06-17T10:25:32Z</time>
      </trkpt>
      <trkpt lat="49.26744" lon="-0.22092">
        <ele>5</ele>
        <time>2020-06-17T10:25:33Z</time>
      </trkpt>
      <trkpt lat="49.26748" lon="-0.22092">
        <ele>4.9</ele>
        <time>2020-06-17T10:25:34Z</time>
      </trkpt>
      <trkpt lat="49.26752" lon="-0.22092">
        <ele>4.9</ele>
        <time>2020-06-17T10:25:35Z</time>
      </trkpt>
      <trkpt lat="49.26756" lon="-0.22091">
        <ele>4.9</ele>
        <time>2020-06-17T10:25:36Z</time>
      </trkpt>
      <trkpt lat="49.2676" lon="-0.2209">
        <ele>4.9</ele>
        <time>2020-06-17T10:25:37Z</time>
      </trkpt>
      <trkpt lat="49.26765" lon="-0.22089">
        <ele>4.9</ele>
        <time>2020-06-17T10:25:38Z</time>
      </trkpt>
      <trkpt lat="49.2677" lon="-0.22087">
        <ele>4.9</ele>
        <time>2020-06-17T10:25:39Z</time>
      </trkpt>
      <trkpt lat="49.26775" lon="-0.22086">
        <ele>4.9</ele>
        <time>2020-06-17T10:25:40Z</time>
      </trkpt>
      <trkpt lat="49.2678" lon="-0.22083">
        <ele>4.9</ele>
        <time>2020-06-17T10:25:41Z</time>
      </trkpt>
      <trkpt lat="49.26785" lon="-0.22082">
        <ele>4.9</ele>
        <time>2020-06-17T10:25:42Z</time>
      </trkpt>
      <trkpt lat="49.2679" lon="-0.2208">
        <ele>4.9</ele>
        <time>2020-06-17T10:25:43Z</time>
      </trkpt>
      <trkpt lat="49.26796" lon="-0.22078">
        <ele>4.9</ele>
        <time>2020-06-17T10:25:44Z</time>
      </trkpt>
      <trkpt lat="49.26801" lon="-0.22076">
        <ele>4.9</ele>
        <time>2020-06-17T10:25:45Z</time>
      </trkpt>
      <trkpt lat="49.26806" lon="-0.22074">
        <ele>4.9</ele>
        <time>2020-06-17T10:25:46Z</time>
      </trkpt>
      <trkpt lat="49.26811" lon="-0.22072">
        <ele>4.9</ele>
        <time>2020-06-17T10:25:47Z</time>
      </trkpt>
      <trkpt lat="49.26816" lon="-0.2207">
        <ele>4.9</ele>
        <time>2020-06-17T10:25:48Z</time>
      </trkpt>
      <trkpt lat="49.26821" lon="-0.22068">
        <ele>4.9</ele>
        <time>2020-06-17T10:25:49Z</time>
      </trkpt>
      <trkpt lat="49.26827" lon="-0.22066">
        <ele>5</ele>
        <time>2020-06-17T10:25:50Z</time>
      </trkpt>
      <trkpt lat="49.26834" lon="-0.22063">
        <ele>5</ele>
        <time>2020-06-17T10:25:51Z</time>
      </trkpt>
      <trkpt lat="49.26839" lon="-0.22062">
        <ele>5</ele>
        <time>2020-06-17T10:25:52Z</time>
      </trkpt>
      <trkpt lat="49.26846" lon="-0.22059">
        <ele>5</ele>
        <time>2020-06-17T10:25:53Z</time>
      </trkpt>
      <trkpt lat="49.26852" lon="-0.22058">
        <ele>5</ele>
        <time>2020-06-17T10:25:54Z</time>
      </trkpt>
      <trkpt lat="49.26858" lon="-0.22056">
        <ele>5</ele>
        <time>2020-06-17T10:25:55Z</time>
      </trkpt>
      <trkpt lat="49.26865" lon="-0.22055">
        <ele>5</ele>
        <time>2020-06-17T10:25:56Z</time>
      </trkpt>
      <trkpt lat="49.26872" lon="-0.22054">
        <ele>5</ele>
        <time>2020-06-17T10:25:57Z</time>
      </trkpt>
      <trkpt lat="49.26878" lon="-0.22052">
        <ele>5</ele>
        <time>2020-06-17T10:25:58Z</time>
      </trkpt>
      <trkpt lat="49.26885" lon="-0.22051">
        <ele>5.1</ele>
        <time>2020-06-17T10:25:59Z</time>
      </trkpt>
      <trkpt lat="49.2689" lon="-0.22049">
        <ele>5</ele>
        <time>2020-06-17T10:26:00Z</time>
      </trkpt>
      <trkpt lat="49.26896" lon="-0.22047">
        <ele>5</ele>
        <time>2020-06-17T10:26:01Z</time>
      </trkpt>
      <trkpt lat="49.26903" lon="-0.22045">
        <ele>4.9</ele>
        <time>2020-06-17T10:26:02Z</time>
      </trkpt>
      <trkpt lat="49.26909" lon="-0.22043">
        <ele>4.9</ele>
        <time>2020-06-17T10:26:03Z</time>
      </trkpt>
      <trkpt lat="49.26913" lon="-0.22041">
        <ele>4.8</ele>
        <time>2020-06-17T10:26:04Z</time>
      </trkpt>
      <trkpt lat="49.26919" lon="-0.22039">
        <ele>4.8</ele>
        <time>2020-06-17T10:26:05Z</time>
      </trkpt>
      <trkpt lat="49.26925" lon="-0.22038">
        <ele>4.8</ele>
        <time>2020-06-17T10:26:06Z</time>
      </trkpt>
      <trkpt lat="49.2693" lon="-0.22036">
        <ele>4.7</ele>
        <time>2020-06-17T10:26:07Z</time>
      </trkpt>
      <trkpt lat="49.26935" lon="-0.22034">
        <ele>4.7</ele>
        <time>2020-06-17T10:26:08Z</time>
      </trkpt>
      <trkpt lat="49.26942" lon="-0.22032">
        <ele>4.7</ele>
        <time>2020-06-17T10:26:09Z</time>
      </trkpt>
      <trkpt lat="49.26949" lon="-0.22031">
        <ele>4.7</ele>
        <time>2020-06-17T10:26:10Z</time>
      </trkpt>
      <trkpt lat="49.26955" lon="-0.2203">
        <ele>4.7</ele>
        <time>2020-06-17T10:26:11Z</time>
      </trkpt>
      <trkpt lat="49.26961" lon="-0.22029">
        <ele>4.6</ele>
        <time>2020-06-17T10:26:12Z</time>
      </trkpt>
      <trkpt lat="49.26966" lon="-0.22027">
        <ele>4.6</ele>
        <time>2020-06-17T10:26:13Z</time>
      </trkpt>
      <trkpt lat="49.26972" lon="-0.22024">
        <ele>4.5</ele>
        <time>2020-06-17T10:26:14Z</time>
      </trkpt>
      <trkpt lat="49.26978" lon="-0.22022">
        <ele>4.5</ele>
        <time>2020-06-17T10:26:15Z</time>
      </trkpt>
      <trkpt lat="49.26983" lon="-0.22018">
        <ele>4.4</ele>
        <time>2020-06-17T10:26:16Z</time>
      </trkpt>
      <trkpt lat="49.26987" lon="-0.22016">
        <ele>4.4</ele>
        <time>2020-06-17T10:26:17Z</time>
      </trkpt>
      <trkpt lat="49.26994" lon="-0.22013">
        <ele>4.4</ele>
        <time>2020-06-17T10:26:18Z</time>
      </trkpt>
      <trkpt lat="49.27" lon="-0.2201">
        <ele>4.4</ele>
        <time>2020-06-17T10:26:19Z</time>
      </trkpt>
      <trkpt lat="49.27005" lon="-0.22008">
        <ele>4.3</ele>
        <time>2020-06-17T10:26:20Z</time>
      </trkpt>
      <trkpt lat="49.27011" lon="-0.22006">
        <ele>4.3</ele>
        <time>2020-06-17T10:26:21Z</time>
      </trkpt>
      <trkpt lat="49.27016" lon="-0.22003">
        <ele>4.4</ele>
        <time>2020-06-17T10:26:22Z</time>
      </trkpt>
      <trkpt lat="49.27021" lon="-0.21999">
        <ele>4.4</ele>
        <time>2020-06-17T10:26:23Z</time>
      </trkpt>
      <trkpt lat="49.27026" lon="-0.21996">
        <ele>4.4</ele>
        <time>2020-06-17T10:26:24Z</time>
      </trkpt>
      <trkpt lat="49.27031" lon="-0.21992">
        <ele>4.4</ele>
        <time>2020-06-17T10:26:25Z</time>
      </trkpt>
      <trkpt lat="49.27037" lon="-0.21987">
        <ele>4.4</ele>
        <time>2020-06-17T10:26:26Z</time>
      </trkpt>
      <trkpt lat="49.27043" lon="-0.21982">
        <ele>4.4</ele>
        <time>2020-06-17T10:26:27Z</time>
      </trkpt>
      <trkpt lat="49.27048" lon="-0.21976">
        <ele>4.4</ele>
        <time>2020-06-17T10:26:28Z</time>
      </trkpt>
      <trkpt lat="49.27053" lon="-0.21972">
        <ele>4.4</ele>
        <time>2020-06-17T10:26:29Z</time>
      </trkpt>
      <trkpt lat="49.27058" lon="-0.21967">
        <ele>4.3</ele>
        <time>2020-06-17T10:26:30Z</time>
      </trkpt>
      <trkpt lat="49.27063" lon="-0.2196">
        <ele>4.3</ele>
        <time>2020-06-17T10:26:31Z</time>
      </trkpt>
      <trkpt lat="49.27068" lon="-0.21953">
        <ele>4.3</ele>
        <time>2020-06-17T10:26:32Z</time>
      </trkpt>
      <trkpt lat="49.27073" lon="-0.21946">
        <ele>4.2</ele>
        <time>2020-06-17T10:26:33Z</time>
      </trkpt>
      <trkpt lat="49.27077" lon="-0.2194">
        <ele>4.2</ele>
        <time>2020-06-17T10:26:34Z</time>
      </trkpt>
      <trkpt lat="49.27082" lon="-0.21933">
        <ele>4.2</ele>
        <time>2020-06-17T10:26:35Z</time>
      </trkpt>
      <trkpt lat="49.27087" lon="-0.21925">
        <ele>4.2</ele>
        <time>2020-06-17T10:26:36Z</time>
      </trkpt>
      <trkpt lat="49.27091" lon="-0.21917">
        <ele>4.2</ele>
        <time>2020-06-17T10:26:37Z</time>
      </trkpt>
      <trkpt lat="49.27096" lon="-0.21911">
        <ele>4.2</ele>
        <time>2020-06-17T10:26:38Z</time>
      </trkpt>
      <trkpt lat="49.27101" lon="-0.21904">
        <ele>4.2</ele>
        <time>2020-06-17T10:26:39Z</time>
      </trkpt>
      <trkpt lat="49.27106" lon="-0.21898">
        <ele>4.1</ele>
        <time>2020-06-17T10:26:40Z</time>
      </trkpt>
      <trkpt lat="49.2711" lon="-0.21891">
        <ele>4.2</ele>
        <time>2020-06-17T10:26:41Z</time>
      </trkpt>
      <trkpt lat="49.27115" lon="-0.21884">
        <ele>4.2</ele>
        <time>2020-06-17T10:26:42Z</time>
      </trkpt>
      <trkpt lat="49.27119" lon="-0.21878">
        <ele>4.2</ele>
        <time>2020-06-17T10:26:43Z</time>
      </trkpt>
      <trkpt lat="49.27124" lon="-0.21871">
        <ele>4.3</ele>
        <time>2020-06-17T10:26:44Z</time>
      </trkpt>
      <trkpt lat="49.27129" lon="-0.21865">
        <ele>4.2</ele>
        <time>2020-06-17T10:26:45Z</time>
      </trkpt>
      <trkpt lat="49.27133" lon="-0.21858">
        <ele>4.2</ele>
        <time>2020-06-17T10:26:46Z</time>
      </trkpt>
      <trkpt lat="49.27137" lon="-0.21851">
        <ele>4.2</ele>
        <time>2020-06-17T10:26:47Z</time>
      </trkpt>
      <trkpt lat="49.27142" lon="-0.21844">
        <ele>4.2</ele>
        <time>2020-06-17T10:26:48Z</time>
      </trkpt>
      <trkpt lat="49.27146" lon="-0.21838">
        <ele>4.2</ele>
        <time>2020-06-17T10:26:49Z</time>
      </trkpt>
      <trkpt lat="49.27151" lon="-0.21831">
        <ele>4.2</ele>
        <time>2020-06-17T10:26:50Z</time>
      </trkpt>
      <trkpt lat="49.27156" lon="-0.21824">
        <ele>4.2</ele>
        <time>2020-06-17T10:26:51Z</time>
      </trkpt>
      <trkpt lat="49.2716" lon="-0.21817">
        <ele>4.2</ele>
        <time>2020-06-17T10:26:52Z</time>
      </trkpt>
      <trkpt lat="49.27165" lon="-0.2181">
        <ele>4.2</ele>
        <time>2020-06-17T10:26:53Z</time>
      </trkpt>
      <trkpt lat="49.27169" lon="-0.21802">
        <ele>4.2</ele>
        <time>2020-06-17T10:26:54Z</time>
      </trkpt>
      <trkpt lat="49.27174" lon="-0.21796">
        <ele>4.2</ele>
        <time>2020-06-17T10:26:55Z</time>
      </trkpt>
      <trkpt lat="49.27178" lon="-0.21789">
        <ele>4.2</ele>
        <time>2020-06-17T10:26:56Z</time>
      </trkpt>
      <trkpt lat="49.27184" lon="-0.21783">
        <ele>4.2</ele>
        <time>2020-06-17T10:26:57Z</time>
      </trkpt>
      <trkpt lat="49.27189" lon="-0.21776">
        <ele>4.2</ele>
        <time>2020-06-17T10:26:58Z</time>
      </trkpt>
      <trkpt lat="49.27193" lon="-0.21769">
        <ele>4.2</ele>
        <time>2020-06-17T10:26:59Z</time>
      </trkpt>
      <trkpt lat="49.27199" lon="-0.21762">
        <ele>4.2</ele>
        <time>2020-06-17T10:27:00Z</time>
      </trkpt>
      <trkpt lat="49.27204" lon="-0.21754">
        <ele>4.2</ele>
        <time>2020-06-17T10:27:01Z</time>
      </trkpt>
      <trkpt lat="49.27209" lon="-0.21748">
        <ele>4.1</ele>
        <time>2020-06-17T10:27:02Z</time>
      </trkpt>
      <trkpt lat="49.27214" lon="-0.21741">
        <ele>4.2</ele>
        <time>2020-06-17T10:27:03Z</time>
      </trkpt>
      <trkpt lat="49.27219" lon="-0.21734">
        <ele>4.2</ele>
        <time>2020-06-17T10:27:04Z</time>
      </trkpt>
      <trkpt lat="49.27224" lon="-0.21726">
        <ele>4.2</ele>
        <time>2020-06-17T10:27:05Z</time>
      </trkpt>
      <trkpt lat="49.27229" lon="-0.21718">
        <ele>4.3</ele>
        <time>2020-06-17T10:27:06Z</time>
      </trkpt>
      <trkpt lat="49.27234" lon="-0.21712">
        <ele>4.3</ele>
        <time>2020-06-17T10:27:07Z</time>
      </trkpt>
      <trkpt lat="49.27239" lon="-0.21705">
        <ele>4.4</ele>
        <time>2020-06-17T10:27:08Z</time>
      </trkpt>
      <trkpt lat="49.27243" lon="-0.21698">
        <ele>4.4</ele>
        <time>2020-06-17T10:27:09Z</time>
      </trkpt>
      <trkpt lat="49.27248" lon="-0.21691">
        <ele>4.3</ele>
        <time>2020-06-17T10:27:10Z</time>
      </trkpt>
      <trkpt lat="49.27253" lon="-0.21685">
        <ele>4.3</ele>
        <time>2020-06-17T10:27:11Z</time>
      </trkpt>
      <trkpt lat="49.27258" lon="-0.21677">
        <ele>4.3</ele>
        <time>2020-06-17T10:27:12Z</time>
      </trkpt>
      <trkpt lat="49.27263" lon="-0.2167">
        <ele>4.3</ele>
        <time>2020-06-17T10:27:13Z</time>
      </trkpt>
      <trkpt lat="49.27268" lon="-0.21663">
        <ele>4.3</ele>
        <time>2020-06-17T10:27:14Z</time>
      </trkpt>
      <trkpt lat="49.27273" lon="-0.21657">
        <ele>4.2</ele>
        <time>2020-06-17T10:27:15Z</time>
      </trkpt>
      <trkpt lat="49.27278" lon="-0.2165">
        <ele>4.2</ele>
        <time>2020-06-17T10:27:16Z</time>
      </trkpt>
      <trkpt lat="49.27283" lon="-0.21643">
        <ele>4.2</ele>
        <time>2020-06-17T10:27:17Z</time>
      </trkpt>
      <trkpt lat="49.27288" lon="-0.21637">
        <ele>4.2</ele>
        <time>2020-06-17T10:27:18Z</time>
      </trkpt>
      <trkpt lat="49.27293" lon="-0.21629">
        <ele>4.2</ele>
        <time>2020-06-17T10:27:19Z</time>
      </trkpt>
      <trkpt lat="49.27298" lon="-0.21622">
        <ele>4.2</ele>
        <time>2020-06-17T10:27:20Z</time>
      </trkpt>
      <trkpt lat="49.27303" lon="-0.21615">
        <ele>4.2</ele>
        <time>2020-06-17T10:27:21Z</time>
      </trkpt>
      <trkpt lat="49.27308" lon="-0.21608">
        <ele>4.2</ele>
        <time>2020-06-17T10:27:22Z</time>
      </trkpt>
      <trkpt lat="49.27313" lon="-0.21601">
        <ele>4.2</ele>
        <time>2020-06-17T10:27:23Z</time>
      </trkpt>
      <trkpt lat="49.27318" lon="-0.21594">
        <ele>4.2</ele>
        <time>2020-06-17T10:27:24Z</time>
      </trkpt>
      <trkpt lat="49.27323" lon="-0.21586">
        <ele>4.3</ele>
        <time>2020-06-17T10:27:25Z</time>
      </trkpt>
      <trkpt lat="49.27328" lon="-0.21578">
        <ele>4.3</ele>
        <time>2020-06-17T10:27:26Z</time>
      </trkpt>
      <trkpt lat="49.27333" lon="-0.21571">
        <ele>4.3</ele>
        <time>2020-06-17T10:27:27Z</time>
      </trkpt>
      <trkpt lat="49.27337" lon="-0.21563">
        <ele>4.3</ele>
        <time>2020-06-17T10:27:28Z</time>
      </trkpt>
      <trkpt lat="49.27342" lon="-0.21555">
        <ele>4.4</ele>
        <time>2020-06-17T10:27:29Z</time>
      </trkpt>
      <trkpt lat="49.27346" lon="-0.21547">
        <ele>4.4</ele>
        <time>2020-06-17T10:27:30Z</time>
      </trkpt>
      <trkpt lat="49.2735" lon="-0.2154">
        <ele>4.4</ele>
        <time>2020-06-17T10:27:31Z</time>
      </trkpt>
      <trkpt lat="49.27354" lon="-0.21533">
        <ele>4.4</ele>
        <time>2020-06-17T10:27:32Z</time>
      </trkpt>
      <trkpt lat="49.27358" lon="-0.21526">
        <ele>4.4</ele>
        <time>2020-06-17T10:27:33Z</time>
      </trkpt>
      <trkpt lat="49.27362" lon="-0.21519">
        <ele>4.4</ele>
        <time>2020-06-17T10:27:34Z</time>
      </trkpt>
      <trkpt lat="49.27366" lon="-0.21513">
        <ele>4.5</ele>
        <time>2020-06-17T10:27:35Z</time>
      </trkpt>
      <trkpt lat="49.2737" lon="-0.21507">
        <ele>4.5</ele>
        <time>2020-06-17T10:27:36Z</time>
      </trkpt>
      <trkpt lat="49.27375" lon="-0.21502">
        <ele>4.5</ele>
        <time>2020-06-17T10:27:37Z</time>
      </trkpt>
      <trkpt lat="49.27378" lon="-0.21495">
        <ele>4.6</ele>
        <time>2020-06-17T10:27:38Z</time>
      </trkpt>
      <trkpt lat="49.27381" lon="-0.21491">
        <ele>4.6</ele>
        <time>2020-06-17T10:27:39Z</time>
      </trkpt>
      <trkpt lat="49.27384" lon="-0.21487">
        <ele>4.6</ele>
        <time>2020-06-17T10:27:40Z</time>
      </trkpt>
      <trkpt lat="49.27387" lon="-0.21484">
        <ele>4.6</ele>
        <time>2020-06-17T10:27:41Z</time>
      </trkpt>
      <trkpt lat="49.27389" lon="-0.21481">
        <ele>4.6</ele>
        <time>2020-06-17T10:27:42Z</time>
      </trkpt>
      <trkpt lat="49.27392" lon="-0.21477">
        <ele>4.7</ele>
        <time>2020-06-17T10:27:43Z</time>
      </trkpt>
      <trkpt lat="49.27394" lon="-0.21474">
        <ele>4.7</ele>
        <time>2020-06-17T10:27:44Z</time>
      </trkpt>
      <trkpt lat="49.27397" lon="-0.21472">
        <ele>4.7</ele>
        <time>2020-06-17T10:27:45Z</time>
      </trkpt>
      <trkpt lat="49.27399" lon="-0.21469">
        <ele>4.7</ele>
        <time>2020-06-17T10:27:46Z</time>
      </trkpt>
      <trkpt lat="49.27401" lon="-0.21468">
        <ele>4.7</ele>
        <time>2020-06-17T10:27:47Z</time>
      </trkpt>
      <trkpt lat="49.27402" lon="-0.21469">
        <ele>4.7</ele>
        <time>2020-06-17T10:27:48Z</time>
      </trkpt>
      <trkpt lat="49.27403" lon="-0.21469">
        <ele>4.7</ele>
        <time>2020-06-17T10:27:49Z</time>
      </trkpt>
      <trkpt lat="49.27403" lon="-0.21469">
        <ele>4.7</ele>
        <time>2020-06-17T10:27:50Z</time>
      </trkpt>
      <trkpt lat="49.27403" lon="-0.2147">
        <ele>4.7</ele>
        <time>2020-06-17T10:27:51Z</time>
      </trkpt>
      <trkpt lat="49.27404" lon="-0.21471">
        <ele>4.7</ele>
        <time>2020-06-17T10:27:52Z</time>
      </trkpt>
      <trkpt lat="49.27403" lon="-0.21471">
        <ele>4.7</ele>
        <time>2020-06-17T10:27:53Z</time>
      </trkpt>
      <trkpt lat="49.27403" lon="-0.21471">
        <ele>4.7</ele>
        <time>2020-06-17T10:27:54Z</time>
      </trkpt>
      <trkpt lat="49.27403" lon="-0.21469">
        <ele>4.7</ele>
        <time>2020-06-17T10:27:55Z</time>
      </trkpt>
      <trkpt lat="49.27403" lon="-0.21468">
        <ele>4.7</ele>
        <time>2020-06-17T10:27:56Z</time>
      </trkpt>
      <trkpt lat="49.27403" lon="-0.21467">
        <ele>4.7</ele>
        <time>2020-06-17T10:27:57Z</time>
      </trkpt>
      <trkpt lat="49.27403" lon="-0.21468">
        <ele>4.7</ele>
        <time>2020-06-17T10:27:58Z</time>
      </trkpt>
      <trkpt lat="49.27403" lon="-0.2147">
        <ele>4.7</ele>
        <time>2020-06-17T10:27:59Z</time>
      </trkpt>
      <trkpt lat="49.27404" lon="-0.21471">
        <ele>4.7</ele>
        <time>2020-06-17T10:28:00Z</time>
      </trkpt>
      <trkpt lat="49.27406" lon="-0.21482">
        <ele>4.8</ele>
        <time>2020-06-17T10:28:38Z</time>
      </trkpt>
      <trkpt lat="49.27406" lon="-0.21483">
        <ele>4.8</ele>
        <time>2020-06-17T10:28:39Z</time>
      </trkpt>
      <trkpt lat="49.27407" lon="-0.21484">
        <ele>4.8</ele>
        <time>2020-06-17T10:28:40Z</time>
      </trkpt>
      <trkpt lat="49.27406" lon="-0.21486">
        <ele>4.9</ele>
        <time>2020-06-17T10:28:41Z</time>
      </trkpt>
      <trkpt lat="49.27407" lon="-0.21488">
        <ele>4.9</ele>
        <time>2020-06-17T10:28:42Z</time>
      </trkpt>
      <trkpt lat="49.27408" lon="-0.2149">
        <ele>4.9</ele>
        <time>2020-06-17T10:28:43Z</time>
      </trkpt>
      <trkpt lat="49.27408" lon="-0.21491">
        <ele>4.9</ele>
        <time>2020-06-17T10:28:44Z</time>
      </trkpt>
      <trkpt lat="49.27412" lon="-0.21494">
        <ele>5</ele>
        <time>2020-06-17T10:28:45Z</time>
      </trkpt>
      <trkpt lat="49.27413" lon="-0.21495">
        <ele>5</ele>
        <time>2020-06-17T10:28:46Z</time>
      </trkpt>
      <trkpt lat="49.27416" lon="-0.21498">
        <ele>5.1</ele>
        <time>2020-06-17T10:28:47Z</time>
      </trkpt>
      <trkpt lat="49.27418" lon="-0.21501">
        <ele>5.1</ele>
        <time>2020-06-17T10:28:48Z</time>
      </trkpt>
      <trkpt lat="49.27421" lon="-0.21504">
        <ele>5.2</ele>
        <time>2020-06-17T10:28:49Z</time>
      </trkpt>
      <trkpt lat="49.27424" lon="-0.21506">
        <ele>5.2</ele>
        <time>2020-06-17T10:28:50Z</time>
      </trkpt>
      <trkpt lat="49.27426" lon="-0.21509">
        <ele>5.2</ele>
        <time>2020-06-17T10:28:51Z</time>
      </trkpt>
      <trkpt lat="49.27429" lon="-0.21512">
        <ele>5.2</ele>
        <time>2020-06-17T10:28:52Z</time>
      </trkpt>
      <trkpt lat="49.2743" lon="-0.21513">
        <ele>5.2</ele>
        <time>2020-06-17T10:28:53Z</time>
      </trkpt>
      <trkpt lat="49.27433" lon="-0.21517">
        <ele>5.1</ele>
        <time>2020-06-17T10:28:54Z</time>
      </trkpt>
      <trkpt lat="49.27434" lon="-0.21519">
        <ele>5.1</ele>
        <time>2020-06-17T10:28:55Z</time>
      </trkpt>
      <trkpt lat="49.27435" lon="-0.21522">
        <ele>5</ele>
        <time>2020-06-17T10:28:56Z</time>
      </trkpt>
      <trkpt lat="49.27437" lon="-0.21526">
        <ele>4.9</ele>
        <time>2020-06-17T10:28:57Z</time>
      </trkpt>
      <trkpt lat="49.27439" lon="-0.21531">
        <ele>4.8</ele>
        <time>2020-06-17T10:28:58Z</time>
      </trkpt>
      <trkpt lat="49.27441" lon="-0.21536">
        <ele>4.6</ele>
        <time>2020-06-17T10:28:59Z</time>
      </trkpt>
      <trkpt lat="49.27444" lon="-0.21542">
        <ele>4.5</ele>
        <time>2020-06-17T10:29:00Z</time>
      </trkpt>
      <trkpt lat="49.27447" lon="-0.21549">
        <ele>4.4</ele>
        <time>2020-06-17T10:29:01Z</time>
      </trkpt>
      <trkpt lat="49.27448" lon="-0.21554">
        <ele>4.4</ele>
        <time>2020-06-17T10:29:02Z</time>
      </trkpt>
      <trkpt lat="49.2745" lon="-0.21558">
        <ele>4.3</ele>
        <time>2020-06-17T10:29:03Z</time>
      </trkpt>
      <trkpt lat="49.27453" lon="-0.21564">
        <ele>4.3</ele>
        <time>2020-06-17T10:29:04Z</time>
      </trkpt>
      <trkpt lat="49.27455" lon="-0.21568">
        <ele>4.2</ele>
        <time>2020-06-17T10:29:05Z</time>
      </trkpt>
      <trkpt lat="49.27457" lon="-0.21571">
        <ele>4.2</ele>
        <time>2020-06-17T10:29:06Z</time>
      </trkpt>
      <trkpt lat="49.27461" lon="-0.21576">
        <ele>4.1</ele>
        <time>2020-06-17T10:29:07Z</time>
      </trkpt>
      <trkpt lat="49.27464" lon="-0.21579">
        <ele>4.1</ele>
        <time>2020-06-17T10:29:08Z</time>
      </trkpt>
      <trkpt lat="49.27467" lon="-0.21583">
        <ele>4</ele>
        <time>2020-06-17T10:29:09Z</time>
      </trkpt>
      <trkpt lat="49.27471" lon="-0.21583">
        <ele>4</ele>
        <time>2020-06-17T10:29:10Z</time>
      </trkpt>
      <trkpt lat="49.27476" lon="-0.21582">
        <ele>4</ele>
        <time>2020-06-17T10:29:11Z</time>
      </trkpt>
      <trkpt lat="49.27479" lon="-0.21579">
        <ele>4</ele>
        <time>2020-06-17T10:29:12Z</time>
      </trkpt>
      <trkpt lat="49.27484" lon="-0.21575">
        <ele>4</ele>
        <time>2020-06-17T10:29:13Z</time>
      </trkpt>
      <trkpt lat="49.27489" lon="-0.21572">
        <ele>3.9</ele>
        <time>2020-06-17T10:29:14Z</time>
      </trkpt>
      <trkpt lat="49.27493" lon="-0.21569">
        <ele>3.9</ele>
        <time>2020-06-17T10:29:15Z</time>
      </trkpt>
      <trkpt lat="49.27498" lon="-0.21566">
        <ele>3.9</ele>
        <time>2020-06-17T10:29:16Z</time>
      </trkpt>
      <trkpt lat="49.27502" lon="-0.21563">
        <ele>3.9</ele>
        <time>2020-06-17T10:29:17Z</time>
      </trkpt>
      <trkpt lat="49.27508" lon="-0.2156">
        <ele>4</ele>
        <time>2020-06-17T10:29:18Z</time>
      </trkpt>
      <trkpt lat="49.27513" lon="-0.21557">
        <ele>4</ele>
        <time>2020-06-17T10:29:19Z</time>
      </trkpt>
      <trkpt lat="49.27518" lon="-0.21556">
        <ele>4</ele>
        <time>2020-06-17T10:29:20Z</time>
      </trkpt>
      <trkpt lat="49.27524" lon="-0.21555">
        <ele>4</ele>
        <time>2020-06-17T10:29:21Z</time>
      </trkpt>
      <trkpt lat="49.2753" lon="-0.21551">
        <ele>4</ele>
        <time>2020-06-17T10:29:22Z</time>
      </trkpt>
      <trkpt lat="49.27535" lon="-0.2155">
        <ele>4</ele>
        <time>2020-06-17T10:29:23Z</time>
      </trkpt>
      <trkpt lat="49.27541" lon="-0.21548">
        <ele>3.9</ele>
        <time>2020-06-17T10:29:24Z</time>
      </trkpt>
      <trkpt lat="49.27546" lon="-0.21548">
        <ele>3.9</ele>
        <time>2020-06-17T10:29:25Z</time>
      </trkpt>
      <trkpt lat="49.27552" lon="-0.21546">
        <ele>3.9</ele>
        <time>2020-06-17T10:29:26Z</time>
      </trkpt>
      <trkpt lat="49.27558" lon="-0.21545">
        <ele>3.9</ele>
        <time>2020-06-17T10:29:27Z</time>
      </trkpt>
      <trkpt lat="49.27563" lon="-0.21545">
        <ele>3.8</ele>
        <time>2020-06-17T10:29:28Z</time>
      </trkpt>
      <trkpt lat="49.27568" lon="-0.21546">
        <ele>3.8</ele>
        <time>2020-06-17T10:29:29Z</time>
      </trkpt>
      <trkpt lat="49.27574" lon="-0.21546">
        <ele>3.8</ele>
        <time>2020-06-17T10:29:30Z</time>
      </trkpt>
      <trkpt lat="49.27579" lon="-0.21545">
        <ele>3.8</ele>
        <time>2020-06-17T10:29:31Z</time>
      </trkpt>
      <trkpt lat="49.27585" lon="-0.21544">
        <ele>3.8</ele>
        <time>2020-06-17T10:29:32Z</time>
      </trkpt>
      <trkpt lat="49.2759" lon="-0.21542">
        <ele>3.8</ele>
        <time>2020-06-17T10:29:33Z</time>
      </trkpt>
      <trkpt lat="49.27594" lon="-0.21539">
        <ele>3.8</ele>
        <time>2020-06-17T10:29:34Z</time>
      </trkpt>
      <trkpt lat="49.27599" lon="-0.21537">
        <ele>3.8</ele>
        <time>2020-06-17T10:29:35Z</time>
      </trkpt>
      <trkpt lat="49.27604" lon="-0.21535">
        <ele>3.8</ele>
        <time>2020-06-17T10:29:36Z</time>
      </trkpt>
      <trkpt lat="49.2761" lon="-0.21534">
        <ele>3.8</ele>
        <time>2020-06-17T10:29:37Z</time>
      </trkpt>
      <trkpt lat="49.27616" lon="-0.21534">
        <ele>3.8</ele>
        <time>2020-06-17T10:29:38Z</time>
      </trkpt>
      <trkpt lat="49.27622" lon="-0.21534">
        <ele>3.8</ele>
        <time>2020-06-17T10:29:39Z</time>
      </trkpt>
      <trkpt lat="49.27627" lon="-0.21534">
        <ele>3.8</ele>
        <time>2020-06-17T10:29:40Z</time>
      </trkpt>
      <trkpt lat="49.27632" lon="-0.21534">
        <ele>3.8</ele>
        <time>2020-06-17T10:29:41Z</time>
      </trkpt>
      <trkpt lat="49.27638" lon="-0.21534">
        <ele>3.8</ele>
        <time>2020-06-17T10:29:42Z</time>
      </trkpt>
      <trkpt lat="49.27644" lon="-0.21534">
        <ele>3.8</ele>
        <time>2020-06-17T10:29:43Z</time>
      </trkpt>
      <trkpt lat="49.27649" lon="-0.21533">
        <ele>3.8</ele>
        <time>2020-06-17T10:29:44Z</time>
      </trkpt>
      <trkpt lat="49.27655" lon="-0.21534">
        <ele>3.8</ele>
        <time>2020-06-17T10:29:45Z</time>
      </trkpt>
      <trkpt lat="49.27661" lon="-0.21534">
        <ele>3.8</ele>
        <time>2020-06-17T10:29:46Z</time>
      </trkpt>
      <trkpt lat="49.27667" lon="-0.21535">
        <ele>3.8</ele>
        <time>2020-06-17T10:29:47Z</time>
      </trkpt>
      <trkpt lat="49.27676" lon="-0.21535">
        <ele>3.8</ele>
        <time>2020-06-17T10:29:48Z</time>
      </trkpt>
      <trkpt lat="49.27683" lon="-0.21535">
        <ele>3.9</ele>
        <time>2020-06-17T10:29:49Z</time>
      </trkpt>
      <trkpt lat="49.2769" lon="-0.21536">
        <ele>3.9</ele>
        <time>2020-06-17T10:29:50Z</time>
      </trkpt>
      <trkpt lat="49.27697" lon="-0.21538">
        <ele>3.8</ele>
        <time>2020-06-17T10:29:51Z</time>
      </trkpt>
      <trkpt lat="49.27703" lon="-0.21541">
        <ele>3.8</ele>
        <time>2020-06-17T10:29:52Z</time>
      </trkpt>
      <trkpt lat="49.27708" lon="-0.21545">
        <ele>3.8</ele>
        <time>2020-06-17T10:29:53Z</time>
      </trkpt>
      <trkpt lat="49.27713" lon="-0.21548">
        <ele>3.8</ele>
        <time>2020-06-17T10:29:54Z</time>
      </trkpt>
      <trkpt lat="49.27717" lon="-0.21551">
        <ele>3.7</ele>
        <time>2020-06-17T10:29:55Z</time>
      </trkpt>
      <trkpt lat="49.27722" lon="-0.21553">
        <ele>3.7</ele>
        <time>2020-06-17T10:29:56Z</time>
      </trkpt>
      <trkpt lat="49.27726" lon="-0.21554">
        <ele>3.7</ele>
        <time>2020-06-17T10:29:57Z</time>
      </trkpt>
      <trkpt lat="49.27731" lon="-0.21555">
        <ele>3.7</ele>
        <time>2020-06-17T10:29:58Z</time>
      </trkpt>
      <trkpt lat="49.27737" lon="-0.21556">
        <ele>3.7</ele>
        <time>2020-06-17T10:29:59Z</time>
      </trkpt>
      <trkpt lat="49.27743" lon="-0.21559">
        <ele>3.6</ele>
        <time>2020-06-17T10:30:00Z</time>
      </trkpt>
      <trkpt lat="49.2775" lon="-0.21562">
        <ele>3.6</ele>
        <time>2020-06-17T10:30:01Z</time>
      </trkpt>
      <trkpt lat="49.27755" lon="-0.21565">
        <ele>3.6</ele>
        <time>2020-06-17T10:30:02Z</time>
      </trkpt>
      <trkpt lat="49.27761" lon="-0.21567">
        <ele>3.6</ele>
        <time>2020-06-17T10:30:03Z</time>
      </trkpt>
      <trkpt lat="49.27767" lon="-0.2157">
        <ele>3.6</ele>
        <time>2020-06-17T10:30:04Z</time>
      </trkpt>
      <trkpt lat="49.27772" lon="-0.21572">
        <ele>3.6</ele>
        <time>2020-06-17T10:30:05Z</time>
      </trkpt>
      <trkpt lat="49.27778" lon="-0.21575">
        <ele>3.6</ele>
        <time>2020-06-17T10:30:06Z</time>
      </trkpt>
      <trkpt lat="49.27782" lon="-0.2158">
        <ele>3.6</ele>
        <time>2020-06-17T10:30:07Z</time>
      </trkpt>
      <trkpt lat="49.27788" lon="-0.21584">
        <ele>3.6</ele>
        <time>2020-06-17T10:30:08Z</time>
      </trkpt>
      <trkpt lat="49.27795" lon="-0.21589">
        <ele>3.5</ele>
        <time>2020-06-17T10:30:09Z</time>
      </trkpt>
      <trkpt lat="49.278" lon="-0.21592">
        <ele>3.5</ele>
        <time>2020-06-17T10:30:10Z</time>
      </trkpt>
      <trkpt lat="49.27805" lon="-0.21596">
        <ele>3.5</ele>
        <time>2020-06-17T10:30:11Z</time>
      </trkpt>
      <trkpt lat="49.27811" lon="-0.21599">
        <ele>3.5</ele>
        <time>2020-06-17T10:30:12Z</time>
      </trkpt>
      <trkpt lat="49.27816" lon="-0.21603">
        <ele>3.5</ele>
        <time>2020-06-17T10:30:13Z</time>
      </trkpt>
      <trkpt lat="49.2782" lon="-0.21606">
        <ele>3.6</ele>
        <time>2020-06-17T10:30:14Z</time>
      </trkpt>
      <trkpt lat="49.27825" lon="-0.2161">
        <ele>3.6</ele>
        <time>2020-06-17T10:30:15Z</time>
      </trkpt>
      <trkpt lat="49.27831" lon="-0.21615">
        <ele>3.6</ele>
        <time>2020-06-17T10:30:16Z</time>
      </trkpt>
      <trkpt lat="49.27835" lon="-0.21619">
        <ele>3.6</ele>
        <time>2020-06-17T10:30:17Z</time>
      </trkpt>
      <trkpt lat="49.2784" lon="-0.21624">
        <ele>3.6</ele>
        <time>2020-06-17T10:30:18Z</time>
      </trkpt>
      <trkpt lat="49.27846" lon="-0.2163">
        <ele>3.6</ele>
        <time>2020-06-17T10:30:19Z</time>
      </trkpt>
      <trkpt lat="49.27851" lon="-0.21635">
        <ele>3.6</ele>
        <time>2020-06-17T10:30:20Z</time>
      </trkpt>
      <trkpt lat="49.27857" lon="-0.2164">
        <ele>3.6</ele>
        <time>2020-06-17T10:30:21Z</time>
      </trkpt>
      <trkpt lat="49.27862" lon="-0.21644">
        <ele>3.6</ele>
        <time>2020-06-17T10:30:22Z</time>
      </trkpt>
      <trkpt lat="49.27868" lon="-0.21649">
        <ele>3.6</ele>
        <time>2020-06-17T10:30:23Z</time>
      </trkpt>
      <trkpt lat="49.27872" lon="-0.21654">
        <ele>3.6</ele>
        <time>2020-06-17T10:30:24Z</time>
      </trkpt>
      <trkpt lat="49.27877" lon="-0.21658">
        <ele>3.6</ele>
        <time>2020-06-17T10:30:25Z</time>
      </trkpt>
      <trkpt lat="49.27883" lon="-0.21663">
        <ele>3.6</ele>
        <time>2020-06-17T10:30:26Z</time>
      </trkpt>
      <trkpt lat="49.27888" lon="-0.21668">
        <ele>3.6</ele>
        <time>2020-06-17T10:30:27Z</time>
      </trkpt>
      <trkpt lat="49.27894" lon="-0.21672">
        <ele>3.6</ele>
        <time>2020-06-17T10:30:28Z</time>
      </trkpt>
      <trkpt lat="49.27898" lon="-0.21675">
        <ele>3.6</ele>
        <time>2020-06-17T10:30:29Z</time>
      </trkpt>
      <trkpt lat="49.27905" lon="-0.21681">
        <ele>3.6</ele>
        <time>2020-06-17T10:30:30Z</time>
      </trkpt>
      <trkpt lat="49.27909" lon="-0.21684">
        <ele>3.6</ele>
        <time>2020-06-17T10:30:31Z</time>
      </trkpt>
      <trkpt lat="49.27914" lon="-0.21687">
        <ele>3.6</ele>
        <time>2020-06-17T10:30:32Z</time>
      </trkpt>
      <trkpt lat="49.27919" lon="-0.2169">
        <ele>3.6</ele>
        <time>2020-06-17T10:30:33Z</time>
      </trkpt>
      <trkpt lat="49.27925" lon="-0.21693">
        <ele>3.6</ele>
        <time>2020-06-17T10:30:34Z</time>
      </trkpt>
      <trkpt lat="49.27931" lon="-0.21693">
        <ele>3.6</ele>
        <time>2020-06-17T10:30:35Z</time>
      </trkpt>
      <trkpt lat="49.27938" lon="-0.21693">
        <ele>3.6</ele>
        <time>2020-06-17T10:30:36Z</time>
      </trkpt>
      <trkpt lat="49.27943" lon="-0.21694">
        <ele>3.7</ele>
        <time>2020-06-17T10:30:37Z</time>
      </trkpt>
      <trkpt lat="49.27948" lon="-0.21695">
        <ele>3.7</ele>
        <time>2020-06-17T10:30:38Z</time>
      </trkpt>
      <trkpt lat="49.27952" lon="-0.21696">
        <ele>3.7</ele>
        <time>2020-06-17T10:30:39Z</time>
      </trkpt>
      <trkpt lat="49.27957" lon="-0.21698">
        <ele>3.7</ele>
        <time>2020-06-17T10:30:40Z</time>
      </trkpt>
      <trkpt lat="49.27963" lon="-0.21702">
        <ele>3.7</ele>
        <time>2020-06-17T10:30:41Z</time>
      </trkpt>
      <trkpt lat="49.27968" lon="-0.21706">
        <ele>3.7</ele>
        <time>2020-06-17T10:30:42Z</time>
      </trkpt>
      <trkpt lat="49.27974" lon="-0.21711">
        <ele>3.7</ele>
        <time>2020-06-17T10:30:43Z</time>
      </trkpt>
      <trkpt lat="49.27979" lon="-0.21715">
        <ele>3.7</ele>
        <time>2020-06-17T10:30:44Z</time>
      </trkpt>
      <trkpt lat="49.27984" lon="-0.2172">
        <ele>3.6</ele>
        <time>2020-06-17T10:30:45Z</time>
      </trkpt>
      <trkpt lat="49.27989" lon="-0.21724">
        <ele>3.6</ele>
        <time>2020-06-17T10:30:46Z</time>
      </trkpt>
      <trkpt lat="49.27995" lon="-0.21728">
        <ele>3.6</ele>
        <time>2020-06-17T10:30:47Z</time>
      </trkpt>
      <trkpt lat="49.28" lon="-0.21732">
        <ele>3.6</ele>
        <time>2020-06-17T10:30:48Z</time>
      </trkpt>
      <trkpt lat="49.28006" lon="-0.21736">
        <ele>3.6</ele>
        <time>2020-06-17T10:30:49Z</time>
      </trkpt>
      <trkpt lat="49.28011" lon="-0.2174">
        <ele>3.6</ele>
        <time>2020-06-17T10:30:50Z</time>
      </trkpt>
      <trkpt lat="49.28016" lon="-0.21745">
        <ele>3.6</ele>
        <time>2020-06-17T10:30:51Z</time>
      </trkpt>
      <trkpt lat="49.28021" lon="-0.21749">
        <ele>3.6</ele>
        <time>2020-06-17T10:30:52Z</time>
      </trkpt>
      <trkpt lat="49.28025" lon="-0.21755">
        <ele>3.6</ele>
        <time>2020-06-17T10:30:53Z</time>
      </trkpt>
      <trkpt lat="49.2803" lon="-0.2176">
        <ele>3.6</ele>
        <time>2020-06-17T10:30:54Z</time>
      </trkpt>
      <trkpt lat="49.28036" lon="-0.21764">
        <ele>3.6</ele>
        <time>2020-06-17T10:30:55Z</time>
      </trkpt>
      <trkpt lat="49.28042" lon="-0.21769">
        <ele>3.6</ele>
        <time>2020-06-17T10:30:56Z</time>
      </trkpt>
      <trkpt lat="49.28047" lon="-0.21775">
        <ele>3.6</ele>
        <time>2020-06-17T10:30:57Z</time>
      </trkpt>
      <trkpt lat="49.28051" lon="-0.2178">
        <ele>3.6</ele>
        <time>2020-06-17T10:30:58Z</time>
      </trkpt>
      <trkpt lat="49.28056" lon="-0.21786">
        <ele>3.6</ele>
        <time>2020-06-17T10:30:59Z</time>
      </trkpt>
      <trkpt lat="49.28062" lon="-0.2179">
        <ele>3.6</ele>
        <time>2020-06-17T10:31:00Z</time>
      </trkpt>
      <trkpt lat="49.28067" lon="-0.21795">
        <ele>3.7</ele>
        <time>2020-06-17T10:31:01Z</time>
      </trkpt>
      <trkpt lat="49.28071" lon="-0.21799">
        <ele>3.7</ele>
        <time>2020-06-17T10:31:02Z</time>
      </trkpt>
      <trkpt lat="49.28075" lon="-0.21804">
        <ele>3.7</ele>
        <time>2020-06-17T10:31:03Z</time>
      </trkpt>
      <trkpt lat="49.28079" lon="-0.21809">
        <ele>3.7</ele>
        <time>2020-06-17T10:31:04Z</time>
      </trkpt>
      <trkpt lat="49.28083" lon="-0.21816">
        <ele>3.7</ele>
        <time>2020-06-17T10:31:05Z</time>
      </trkpt>
      <trkpt lat="49.28087" lon="-0.21825">
        <ele>3.7</ele>
        <time>2020-06-17T10:31:06Z</time>
      </trkpt>
      <trkpt lat="49.2809" lon="-0.21834">
        <ele>3.7</ele>
        <time>2020-06-17T10:31:07Z</time>
      </trkpt>
      <trkpt lat="49.28092" lon="-0.21842">
        <ele>3.8</ele>
        <time>2020-06-17T10:31:08Z</time>
      </trkpt>
      <trkpt lat="49.28095" lon="-0.21849">
        <ele>3.8</ele>
        <time>2020-06-17T10:31:09Z</time>
      </trkpt>
      <trkpt lat="49.28099" lon="-0.21855">
        <ele>3.8</ele>
        <time>2020-06-17T10:31:10Z</time>
      </trkpt>
      <trkpt lat="49.28102" lon="-0.21862">
        <ele>3.9</ele>
        <time>2020-06-17T10:31:11Z</time>
      </trkpt>
      <trkpt lat="49.28107" lon="-0.21868">
        <ele>3.9</ele>
        <time>2020-06-17T10:31:12Z</time>
      </trkpt>
      <trkpt lat="49.28111" lon="-0.21874">
        <ele>3.9</ele>
        <time>2020-06-17T10:31:13Z</time>
      </trkpt>
      <trkpt lat="49.28114" lon="-0.21881">
        <ele>3.8</ele>
        <time>2020-06-17T10:31:14Z</time>
      </trkpt>
      <trkpt lat="49.28118" lon="-0.21888">
        <ele>3.8</ele>
        <time>2020-06-17T10:31:15Z</time>
      </trkpt>
      <trkpt lat="49.28122" lon="-0.21894">
        <ele>3.8</ele>
        <time>2020-06-17T10:31:16Z</time>
      </trkpt>
      <trkpt lat="49.28126" lon="-0.21901">
        <ele>3.8</ele>
        <time>2020-06-17T10:31:17Z</time>
      </trkpt>
      <trkpt lat="49.2813" lon="-0.21908">
        <ele>3.7</ele>
        <time>2020-06-17T10:31:18Z</time>
      </trkpt>
      <trkpt lat="49.28133" lon="-0.21914">
        <ele>3.6</ele>
        <time>2020-06-17T10:31:19Z</time>
      </trkpt>
      <trkpt lat="49.28135" lon="-0.2192">
        <ele>3.5</ele>
        <time>2020-06-17T10:31:20Z</time>
      </trkpt>
      <trkpt lat="49.28137" lon="-0.21929">
        <ele>3.3</ele>
        <time>2020-06-17T10:31:21Z</time>
      </trkpt>
      <trkpt lat="49.28136" lon="-0.21937">
        <ele>3.2</ele>
        <time>2020-06-17T10:31:22Z</time>
      </trkpt>
      <trkpt lat="49.28134" lon="-0.21946">
        <ele>3.2</ele>
        <time>2020-06-17T10:31:23Z</time>
      </trkpt>
      <trkpt lat="49.28132" lon="-0.21954">
        <ele>3.2</ele>
        <time>2020-06-17T10:31:24Z</time>
      </trkpt>
      <trkpt lat="49.2813" lon="-0.21962">
        <ele>3.2</ele>
        <time>2020-06-17T10:31:25Z</time>
      </trkpt>
      <trkpt lat="49.28128" lon="-0.21971">
        <ele>3.2</ele>
        <time>2020-06-17T10:31:26Z</time>
      </trkpt>
      <trkpt lat="49.28126" lon="-0.2198">
        <ele>3.3</ele>
        <time>2020-06-17T10:31:27Z</time>
      </trkpt>
      <trkpt lat="49.28125" lon="-0.21988">
        <ele>3.3</ele>
        <time>2020-06-17T10:31:28Z</time>
      </trkpt>
      <trkpt lat="49.28125" lon="-0.21996">
        <ele>3.3</ele>
        <time>2020-06-17T10:31:29Z</time>
      </trkpt>
      <trkpt lat="49.28127" lon="-0.22002">
        <ele>3.4</ele>
        <time>2020-06-17T10:31:30Z</time>
      </trkpt>
      <trkpt lat="49.28131" lon="-0.22003">
        <ele>3.4</ele>
        <time>2020-06-17T10:31:31Z</time>
      </trkpt>
      <trkpt lat="49.28135" lon="-0.22002">
        <ele>3.4</ele>
        <time>2020-06-17T10:31:32Z</time>
      </trkpt>
      <trkpt lat="49.28139" lon="-0.22">
        <ele>3.5</ele>
        <time>2020-06-17T10:31:33Z</time>
      </trkpt>
      <trkpt lat="49.28142" lon="-0.21996">
        <ele>3.5</ele>
        <time>2020-06-17T10:31:34Z</time>
      </trkpt>
      <trkpt lat="49.28146" lon="-0.21992">
        <ele>3.5</ele>
        <time>2020-06-17T10:31:35Z</time>
      </trkpt>
      <trkpt lat="49.28149" lon="-0.21987">
        <ele>3.6</ele>
        <time>2020-06-17T10:31:36Z</time>
      </trkpt>
      <trkpt lat="49.28152" lon="-0.21983">
        <ele>3.6</ele>
        <time>2020-06-17T10:31:37Z</time>
      </trkpt>
      <trkpt lat="49.28155" lon="-0.21978">
        <ele>3.6</ele>
        <time>2020-06-17T10:31:38Z</time>
      </trkpt>
      <trkpt lat="49.28158" lon="-0.21974">
        <ele>3.7</ele>
        <time>2020-06-17T10:31:39Z</time>
      </trkpt>
      <trkpt lat="49.28161" lon="-0.21969">
        <ele>3.7</ele>
        <time>2020-06-17T10:31:40Z</time>
      </trkpt>
      <trkpt lat="49.28164" lon="-0.21964">
        <ele>3.8</ele>
        <time>2020-06-17T10:31:41Z</time>
      </trkpt>
      <trkpt lat="49.28166" lon="-0.21961">
        <ele>3.8</ele>
        <time>2020-06-17T10:31:42Z</time>
      </trkpt>
      <trkpt lat="49.28169" lon="-0.21959">
        <ele>3.8</ele>
        <time>2020-06-17T10:31:43Z</time>
      </trkpt>
      <trkpt lat="49.28172" lon="-0.21959">
        <ele>3.9</ele>
        <time>2020-06-17T10:31:44Z</time>
      </trkpt>
      <trkpt lat="49.28176" lon="-0.21963">
        <ele>3.9</ele>
        <time>2020-06-17T10:31:45Z</time>
      </trkpt>
      <trkpt lat="49.28177" lon="-0.21968">
        <ele>4</ele>
        <time>2020-06-17T10:31:46Z</time>
      </trkpt>
      <trkpt lat="49.28178" lon="-0.21973">
        <ele>4</ele>
        <time>2020-06-17T10:31:47Z</time>
      </trkpt>
      <trkpt lat="49.28178" lon="-0.21979">
        <ele>4.1</ele>
        <time>2020-06-17T10:31:48Z</time>
      </trkpt>
      <trkpt lat="49.28178" lon="-0.21984">
        <ele>4.2</ele>
        <time>2020-06-17T10:31:49Z</time>
      </trkpt>
      <trkpt lat="49.28179" lon="-0.21989">
        <ele>4.2</ele>
        <time>2020-06-17T10:31:50Z</time>
      </trkpt>
      <trkpt lat="49.28178" lon="-0.21993">
        <ele>4.2</ele>
        <time>2020-06-17T10:31:51Z</time>
      </trkpt>
      <trkpt lat="49.28179" lon="-0.21998">
        <ele>4.3</ele>
        <time>2020-06-17T10:31:52Z</time>
      </trkpt>
      <trkpt lat="49.2818" lon="-0.21999">
        <ele>4.3</ele>
        <time>2020-06-17T10:31:53Z</time>
      </trkpt>
      <trkpt lat="49.28182" lon="-0.22">
        <ele>4.3</ele>
        <time>2020-06-17T10:31:54Z</time>
      </trkpt>
      <trkpt lat="49.28185" lon="-0.21998">
        <ele>4.5</ele>
        <time>2020-06-17T10:31:55Z</time>
      </trkpt>
      <trkpt lat="49.28188" lon="-0.21994">
        <ele>4.5</ele>
        <time>2020-06-17T10:31:56Z</time>
      </trkpt>
      <trkpt lat="49.28191" lon="-0.21989">
        <ele>4.5</ele>
        <time>2020-06-17T10:31:57Z</time>
      </trkpt>
      <trkpt lat="49.28194" lon="-0.21985">
        <ele>4.6</ele>
        <time>2020-06-17T10:31:58Z</time>
      </trkpt>
      <trkpt lat="49.28198" lon="-0.21981">
        <ele>4.7</ele>
        <time>2020-06-17T10:31:59Z</time>
      </trkpt>
      <trkpt lat="49.28202" lon="-0.21977">
        <ele>4.8</ele>
        <time>2020-06-17T10:32:00Z</time>
      </trkpt>
      <trkpt lat="49.28206" lon="-0.21973">
        <ele>4.9</ele>
        <time>2020-06-17T10:32:01Z</time>
      </trkpt>
      <trkpt lat="49.28209" lon="-0.21972">
        <ele>5</ele>
        <time>2020-06-17T10:32:02Z</time>
      </trkpt>
      <trkpt lat="49.28212" lon="-0.21971">
        <ele>5</ele>
        <time>2020-06-17T10:32:03Z</time>
      </trkpt>
      <trkpt lat="49.28215" lon="-0.21968">
        <ele>5</ele>
        <time>2020-06-17T10:32:04Z</time>
      </trkpt>
      <trkpt lat="49.28218" lon="-0.21966">
        <ele>5.1</ele>
        <time>2020-06-17T10:32:05Z</time>
      </trkpt>
      <trkpt lat="49.28222" lon="-0.21962">
        <ele>5.1</ele>
        <time>2020-06-17T10:32:06Z</time>
      </trkpt>
      <trkpt lat="49.28225" lon="-0.2196">
        <ele>5.1</ele>
        <time>2020-06-17T10:32:07Z</time>
      </trkpt>
      <trkpt lat="49.28229" lon="-0.21958">
        <ele>5.2</ele>
        <time>2020-06-17T10:32:08Z</time>
      </trkpt>
      <trkpt lat="49.28234" lon="-0.21956">
        <ele>5.2</ele>
        <time>2020-06-17T10:32:09Z</time>
      </trkpt>
      <trkpt lat="49.28239" lon="-0.21954">
        <ele>5.3</ele>
        <time>2020-06-17T10:32:10Z</time>
      </trkpt>
      <trkpt lat="49.28243" lon="-0.21953">
        <ele>5.3</ele>
        <time>2020-06-17T10:32:11Z</time>
      </trkpt>
      <trkpt lat="49.28248" lon="-0.21953">
        <ele>5.4</ele>
        <time>2020-06-17T10:32:12Z</time>
      </trkpt>
      <trkpt lat="49.28254" lon="-0.21953">
        <ele>5.5</ele>
        <time>2020-06-17T10:32:13Z</time>
      </trkpt>
      <trkpt lat="49.28258" lon="-0.21953">
        <ele>5.6</ele>
        <time>2020-06-17T10:32:14Z</time>
      </trkpt>
      <trkpt lat="49.28263" lon="-0.21952">
        <ele>5.6</ele>
        <time>2020-06-17T10:32:15Z</time>
      </trkpt>
      <trkpt lat="49.28268" lon="-0.21953">
        <ele>5.7</ele>
        <time>2020-06-17T10:32:16Z</time>
      </trkpt>
      <trkpt lat="49.28272" lon="-0.21956">
        <ele>5.8</ele>
        <time>2020-06-17T10:32:17Z</time>
      </trkpt>
      <trkpt lat="49.28277" lon="-0.2196">
        <ele>6</ele>
        <time>2020-06-17T10:32:18Z</time>
      </trkpt>
      <trkpt lat="49.2828" lon="-0.21965">
        <ele>6.1</ele>
        <time>2020-06-17T10:32:19Z</time>
      </trkpt>
      <trkpt lat="49.28285" lon="-0.21968">
        <ele>6.3</ele>
        <time>2020-06-17T10:32:20Z</time>
      </trkpt>
      <trkpt lat="49.28289" lon="-0.21969">
        <ele>6.4</ele>
        <time>2020-06-17T10:32:21Z</time>
      </trkpt>
      <trkpt lat="49.28294" lon="-0.21968">
        <ele>6.6</ele>
        <time>2020-06-17T10:32:22Z</time>
      </trkpt>
      <trkpt lat="49.28298" lon="-0.21967">
        <ele>6.7</ele>
        <time>2020-06-17T10:32:23Z</time>
      </trkpt>
      <trkpt lat="49.28301" lon="-0.21964">
        <ele>6.8</ele>
        <time>2020-06-17T10:32:24Z</time>
      </trkpt>
      <trkpt lat="49.28304" lon="-0.2196">
        <ele>7</ele>
        <time>2020-06-17T10:32:25Z</time>
      </trkpt>
      <trkpt lat="49.28306" lon="-0.21955">
        <ele>7.2</ele>
        <time>2020-06-17T10:32:26Z</time>
      </trkpt>
      <trkpt lat="49.28309" lon="-0.2195">
        <ele>7.4</ele>
        <time>2020-06-17T10:32:27Z</time>
      </trkpt>
      <trkpt lat="49.28311" lon="-0.21944">
        <ele>7.5</ele>
        <time>2020-06-17T10:32:28Z</time>
      </trkpt>
      <trkpt lat="49.28313" lon="-0.21939">
        <ele>7.6</ele>
        <time>2020-06-17T10:32:29Z</time>
      </trkpt>
      <trkpt lat="49.28316" lon="-0.21932">
        <ele>7.7</ele>
        <time>2020-06-17T10:32:30Z</time>
      </trkpt>
      <trkpt lat="49.28318" lon="-0.21927">
        <ele>7.7</ele>
        <time>2020-06-17T10:32:31Z</time>
      </trkpt>
      <trkpt lat="49.28321" lon="-0.21923">
        <ele>7.6</ele>
        <time>2020-06-17T10:32:32Z</time>
      </trkpt>
      <trkpt lat="49.28325" lon="-0.21919">
        <ele>7.5</ele>
        <time>2020-06-17T10:32:33Z</time>
      </trkpt>
      <trkpt lat="49.28328" lon="-0.21916">
        <ele>7.3</ele>
        <time>2020-06-17T10:32:34Z</time>
      </trkpt>
      <trkpt lat="49.28332" lon="-0.21913">
        <ele>7.2</ele>
        <time>2020-06-17T10:32:35Z</time>
      </trkpt>
      <trkpt lat="49.28336" lon="-0.21911">
        <ele>7</ele>
        <time>2020-06-17T10:32:36Z</time>
      </trkpt>
      <trkpt lat="49.28341" lon="-0.21907">
        <ele>6.8</ele>
        <time>2020-06-17T10:32:37Z</time>
      </trkpt>
      <trkpt lat="49.28346" lon="-0.21903">
        <ele>6.5</ele>
        <time>2020-06-17T10:32:38Z</time>
      </trkpt>
      <trkpt lat="49.28351" lon="-0.21897">
        <ele>6.3</ele>
        <time>2020-06-17T10:32:39Z</time>
      </trkpt>
      <trkpt lat="49.28356" lon="-0.21892">
        <ele>6</ele>
        <time>2020-06-17T10:32:40Z</time>
      </trkpt>
      <trkpt lat="49.28361" lon="-0.21886">
        <ele>5.8</ele>
        <time>2020-06-17T10:32:41Z</time>
      </trkpt>
      <trkpt lat="49.28366" lon="-0.2188">
        <ele>5.6</ele>
        <time>2020-06-17T10:32:42Z</time>
      </trkpt>
      <trkpt lat="49.28372" lon="-0.21873">
        <ele>5.5</ele>
        <time>2020-06-17T10:32:43Z</time>
      </trkpt>
      <trkpt lat="49.28376" lon="-0.21866">
        <ele>5.3</ele>
        <time>2020-06-17T10:32:44Z</time>
      </trkpt>
      <trkpt lat="49.2838" lon="-0.21858">
        <ele>5.3</ele>
        <time>2020-06-17T10:32:45Z</time>
      </trkpt>
      <trkpt lat="49.28382" lon="-0.21851">
        <ele>5.2</ele>
        <time>2020-06-17T10:32:46Z</time>
      </trkpt>
      <trkpt lat="49.28383" lon="-0.21845">
        <ele>5.2</ele>
        <time>2020-06-17T10:32:47Z</time>
      </trkpt>
      <trkpt lat="49.28383" lon="-0.21839">
        <ele>5.2</ele>
        <time>2020-06-17T10:32:48Z</time>
      </trkpt>
      <trkpt lat="49.28381" lon="-0.21833">
        <ele>5.1</ele>
        <time>2020-06-17T10:32:49Z</time>
      </trkpt>
      <trkpt lat="49.28381" lon="-0.21825">
        <ele>5.1</ele>
        <time>2020-06-17T10:32:50Z</time>
      </trkpt>
      <trkpt lat="49.28381" lon="-0.21818">
        <ele>5.1</ele>
        <time>2020-06-17T10:32:51Z</time>
      </trkpt>
      <trkpt lat="49.28382" lon="-0.21806">
        <ele>5.1</ele>
        <time>2020-06-17T10:32:52Z</time>
      </trkpt>
      <trkpt lat="49.28385" lon="-0.21799">
        <ele>5.1</ele>
        <time>2020-06-17T10:32:53Z</time>
      </trkpt>
      <trkpt lat="49.28388" lon="-0.21792">
        <ele>5.1</ele>
        <time>2020-06-17T10:32:54Z</time>
      </trkpt>
      <trkpt lat="49.28391" lon="-0.21784">
        <ele>5.2</ele>
        <time>2020-06-17T10:32:55Z</time>
      </trkpt>
      <trkpt lat="49.28393" lon="-0.21778">
        <ele>5.3</ele>
        <time>2020-06-17T10:32:56Z</time>
      </trkpt>
      <trkpt lat="49.28396" lon="-0.2177">
        <ele>5.4</ele>
        <time>2020-06-17T10:32:57Z</time>
      </trkpt>
      <trkpt lat="49.28399" lon="-0.21762">
        <ele>5.6</ele>
        <time>2020-06-17T10:32:58Z</time>
      </trkpt>
      <trkpt lat="49.28401" lon="-0.21752">
        <ele>5.7</ele>
        <time>2020-06-17T10:32:59Z</time>
      </trkpt>
      <trkpt lat="49.28401" lon="-0.21745">
        <ele>5.7</ele>
        <time>2020-06-17T10:33:00Z</time>
      </trkpt>
      <trkpt lat="49.28399" lon="-0.21739">
        <ele>5.8</ele>
        <time>2020-06-17T10:33:01Z</time>
      </trkpt>
      <trkpt lat="49.28398" lon="-0.21733">
        <ele>5.8</ele>
        <time>2020-06-17T10:33:02Z</time>
      </trkpt>
      <trkpt lat="49.28398" lon="-0.21727">
        <ele>5.8</ele>
        <time>2020-06-17T10:33:03Z</time>
      </trkpt>
      <trkpt lat="49.28398" lon="-0.2172">
        <ele>5.7</ele>
        <time>2020-06-17T10:33:04Z</time>
      </trkpt>
      <trkpt lat="49.28398" lon="-0.21712">
        <ele>5.7</ele>
        <time>2020-06-17T10:33:05Z</time>
      </trkpt>
      <trkpt lat="49.28399" lon="-0.21705">
        <ele>5.6</ele>
        <time>2020-06-17T10:33:06Z</time>
      </trkpt>
      <trkpt lat="49.284" lon="-0.21697">
        <ele>5.6</ele>
        <time>2020-06-17T10:33:07Z</time>
      </trkpt>
      <trkpt lat="49.284" lon="-0.2169">
        <ele>5.6</ele>
        <time>2020-06-17T10:33:08Z</time>
      </trkpt>
      <trkpt lat="49.284" lon="-0.21682">
        <ele>5.6</ele>
        <time>2020-06-17T10:33:09Z</time>
      </trkpt>
      <trkpt lat="49.28399" lon="-0.21672">
        <ele>5.7</ele>
        <time>2020-06-17T10:33:10Z</time>
      </trkpt>
      <trkpt lat="49.28398" lon="-0.21665">
        <ele>5.7</ele>
        <time>2020-06-17T10:33:11Z</time>
      </trkpt>
      <trkpt lat="49.28397" lon="-0.21657">
        <ele>5.8</ele>
        <time>2020-06-17T10:33:12Z</time>
      </trkpt>
      <trkpt lat="49.28396" lon="-0.2165">
        <ele>5.8</ele>
        <time>2020-06-17T10:33:13Z</time>
      </trkpt>
      <trkpt lat="49.28396" lon="-0.21645">
        <ele>5.9</ele>
        <time>2020-06-17T10:33:14Z</time>
      </trkpt>
      <trkpt lat="49.28396" lon="-0.21639">
        <ele>5.9</ele>
        <time>2020-06-17T10:33:15Z</time>
      </trkpt>
      <trkpt lat="49.28397" lon="-0.21632">
        <ele>5.9</ele>
        <time>2020-06-17T10:33:16Z</time>
      </trkpt>
      <trkpt lat="49.28399" lon="-0.21621">
        <ele>5.8</ele>
        <time>2020-06-17T10:33:17Z</time>
      </trkpt>
      <trkpt lat="49.28401" lon="-0.21612">
        <ele>5.8</ele>
        <time>2020-06-17T10:33:18Z</time>
      </trkpt>
      <trkpt lat="49.28402" lon="-0.21604">
        <ele>5.8</ele>
        <time>2020-06-17T10:33:19Z</time>
      </trkpt>
      <trkpt lat="49.28405" lon="-0.21596">
        <ele>5.8</ele>
        <time>2020-06-17T10:33:20Z</time>
      </trkpt>
      <trkpt lat="49.28407" lon="-0.21588">
        <ele>5.8</ele>
        <time>2020-06-17T10:33:21Z</time>
      </trkpt>
      <trkpt lat="49.2841" lon="-0.21581">
        <ele>5.7</ele>
        <time>2020-06-17T10:33:22Z</time>
      </trkpt>
      <trkpt lat="49.28412" lon="-0.21573">
        <ele>5.6</ele>
        <time>2020-06-17T10:33:23Z</time>
      </trkpt>
      <trkpt lat="49.28413" lon="-0.21565">
        <ele>5.5</ele>
        <time>2020-06-17T10:33:24Z</time>
      </trkpt>
      <trkpt lat="49.28414" lon="-0.21559">
        <ele>5.5</ele>
        <time>2020-06-17T10:33:25Z</time>
      </trkpt>
      <trkpt lat="49.28414" lon="-0.21551">
        <ele>5.4</ele>
        <time>2020-06-17T10:33:26Z</time>
      </trkpt>
      <trkpt lat="49.28414" lon="-0.21541">
        <ele>5.3</ele>
        <time>2020-06-17T10:33:27Z</time>
      </trkpt>
      <trkpt lat="49.28415" lon="-0.21531">
        <ele>5.2</ele>
        <time>2020-06-17T10:33:28Z</time>
      </trkpt>
      <trkpt lat="49.28416" lon="-0.2152">
        <ele>5.2</ele>
        <time>2020-06-17T10:33:29Z</time>
      </trkpt>
      <trkpt lat="49.28417" lon="-0.21511">
        <ele>5.2</ele>
        <time>2020-06-17T10:33:30Z</time>
      </trkpt>
      <trkpt lat="49.28418" lon="-0.21502">
        <ele>5.1</ele>
        <time>2020-06-17T10:33:31Z</time>
      </trkpt>
      <trkpt lat="49.2842" lon="-0.21492">
        <ele>5.1</ele>
        <time>2020-06-17T10:33:32Z</time>
      </trkpt>
      <trkpt lat="49.28421" lon="-0.21484">
        <ele>5.1</ele>
        <time>2020-06-17T10:33:33Z</time>
      </trkpt>
      <trkpt lat="49.28422" lon="-0.21477">
        <ele>5</ele>
        <time>2020-06-17T10:33:34Z</time>
      </trkpt>
      <trkpt lat="49.28425" lon="-0.21469">
        <ele>5</ele>
        <time>2020-06-17T10:33:35Z</time>
      </trkpt>
      <trkpt lat="49.28427" lon="-0.2146">
        <ele>4.9</ele>
        <time>2020-06-17T10:33:36Z</time>
      </trkpt>
      <trkpt lat="49.28429" lon="-0.21449">
        <ele>4.8</ele>
        <time>2020-06-17T10:33:37Z</time>
      </trkpt>
      <trkpt lat="49.28431" lon="-0.21441">
        <ele>4.8</ele>
        <time>2020-06-17T10:33:38Z</time>
      </trkpt>
      <trkpt lat="49.28433" lon="-0.21433">
        <ele>4.8</ele>
        <time>2020-06-17T10:33:39Z</time>
      </trkpt>
      <trkpt lat="49.28435" lon="-0.21422">
        <ele>4.9</ele>
        <time>2020-06-17T10:33:40Z</time>
      </trkpt>
      <trkpt lat="49.28437" lon="-0.21411">
        <ele>5</ele>
        <time>2020-06-17T10:33:41Z</time>
      </trkpt>
      <trkpt lat="49.28438" lon="-0.21402">
        <ele>5</ele>
        <time>2020-06-17T10:33:42Z</time>
      </trkpt>
      <trkpt lat="49.2844" lon="-0.21393">
        <ele>5.1</ele>
        <time>2020-06-17T10:33:43Z</time>
      </trkpt>
      <trkpt lat="49.28441" lon="-0.21384">
        <ele>5.1</ele>
        <time>2020-06-17T10:33:44Z</time>
      </trkpt>
      <trkpt lat="49.28442" lon="-0.21376">
        <ele>5.2</ele>
        <time>2020-06-17T10:33:45Z</time>
      </trkpt>
      <trkpt lat="49.28444" lon="-0.21368">
        <ele>5.2</ele>
        <time>2020-06-17T10:33:46Z</time>
      </trkpt>
      <trkpt lat="49.28444" lon="-0.21359">
        <ele>5.2</ele>
        <time>2020-06-17T10:33:47Z</time>
      </trkpt>
      <trkpt lat="49.28445" lon="-0.21352">
        <ele>5.2</ele>
        <time>2020-06-17T10:33:48Z</time>
      </trkpt>
      <trkpt lat="49.28444" lon="-0.21344">
        <ele>5.3</ele>
        <time>2020-06-17T10:33:49Z</time>
      </trkpt>
      <trkpt lat="49.28444" lon="-0.21335">
        <ele>5.3</ele>
        <time>2020-06-17T10:33:50Z</time>
      </trkpt>
      <trkpt lat="49.28446" lon="-0.21326">
        <ele>5.3</ele>
        <time>2020-06-17T10:33:51Z</time>
      </trkpt>
      <trkpt lat="49.28447" lon="-0.21316">
        <ele>5.4</ele>
        <time>2020-06-17T10:33:52Z</time>
      </trkpt>
      <trkpt lat="49.2845" lon="-0.21309">
        <ele>5.4</ele>
        <time>2020-06-17T10:33:53Z</time>
      </trkpt>
      <trkpt lat="49.28453" lon="-0.21304">
        <ele>5.4</ele>
        <time>2020-06-17T10:33:54Z</time>
      </trkpt>
      <trkpt lat="49.28454" lon="-0.21301">
        <ele>5.4</ele>
        <time>2020-06-17T10:33:55Z</time>
      </trkpt>
      <trkpt lat="49.28454" lon="-0.213">
        <ele>5.4</ele>
        <time>2020-06-17T10:33:56Z</time>
      </trkpt>
      <trkpt lat="49.28453" lon="-0.21302">
        <ele>5.4</ele>
        <time>2020-06-17T10:33:57Z</time>
      </trkpt>
      <trkpt lat="49.28453" lon="-0.21303">
        <ele>5.4</ele>
        <time>2020-06-17T10:33:58Z</time>
      </trkpt>
      <trkpt lat="49.28452" lon="-0.21304">
        <ele>5.4</ele>
        <time>2020-06-17T10:33:59Z</time>
      </trkpt>
      <trkpt lat="49.28452" lon="-0.21304">
        <ele>5.4</ele>
        <time>2020-06-17T10:34:00Z</time>
      </trkpt>
      <trkpt lat="49.28452" lon="-0.21305">
        <ele>5.4</ele>
        <time>2020-06-17T10:34:01Z</time>
      </trkpt>
      <trkpt lat="49.28452" lon="-0.21305">
        <ele>5.4</ele>
        <time>2020-06-17T10:34:02Z</time>
      </trkpt>
      <trkpt lat="49.28453" lon="-0.21304">
        <ele>5.4</ele>
        <time>2020-06-17T10:34:03Z</time>
      </trkpt>
      <trkpt lat="49.28453" lon="-0.21302">
        <ele>5.4</ele>
        <time>2020-06-17T10:34:04Z</time>
      </trkpt>
      <trkpt lat="49.28454" lon="-0.21301">
        <ele>5.4</ele>
        <time>2020-06-17T10:34:05Z</time>
      </trkpt>
      <trkpt lat="49.28454" lon="-0.213">
        <ele>5.4</ele>
        <time>2020-06-17T10:34:06Z</time>
      </trkpt>
      <trkpt lat="49.28454" lon="-0.21299">
        <ele>5.4</ele>
        <time>2020-06-17T10:34:07Z</time>
      </trkpt>
      <trkpt lat="49.28455" lon="-0.21298">
        <ele>5.4</ele>
        <time>2020-06-17T10:34:08Z</time>
      </trkpt>
      <trkpt lat="49.28455" lon="-0.21296">
        <ele>5.4</ele>
        <time>2020-06-17T10:34:09Z</time>
      </trkpt>
      <trkpt lat="49.28456" lon="-0.21295">
        <ele>5.4</ele>
        <time>2020-06-17T10:34:10Z</time>
      </trkpt>
      <trkpt lat="49.28456" lon="-0.21294">
        <ele>5.5</ele>
        <time>2020-06-17T10:43:15Z</time>
      </trkpt>
      <trkpt lat="49.28456" lon="-0.21293">
        <ele>5.5</ele>
        <time>2020-06-17T10:43:16Z</time>
      </trkpt>
      <trkpt lat="49.28458" lon="-0.21289">
        <ele>5.5</ele>
        <time>2020-06-17T10:43:17Z</time>
      </trkpt>
      <trkpt lat="49.28458" lon="-0.21284">
        <ele>5.5</ele>
        <time>2020-06-17T10:43:18Z</time>
      </trkpt>
      <trkpt lat="49.28458" lon="-0.21279">
        <ele>5.5</ele>
        <time>2020-06-17T10:43:19Z</time>
      </trkpt>
      <trkpt lat="49.28459" lon="-0.21272">
        <ele>5.5</ele>
        <time>2020-06-17T10:43:20Z</time>
      </trkpt>
      <trkpt lat="49.28458" lon="-0.2127">
        <ele>5.5</ele>
        <time>2020-06-17T10:43:21Z</time>
      </trkpt>
      <trkpt lat="49.28458" lon="-0.21263">
        <ele>5.5</ele>
        <time>2020-06-17T10:43:22Z</time>
      </trkpt>
      <trkpt lat="49.28458" lon="-0.21257">
        <ele>5.5</ele>
        <time>2020-06-17T10:43:23Z</time>
      </trkpt>
      <trkpt lat="49.28457" lon="-0.2125">
        <ele>5.5</ele>
        <time>2020-06-17T10:43:24Z</time>
      </trkpt>
      <trkpt lat="49.28458" lon="-0.21243">
        <ele>5.4</ele>
        <time>2020-06-17T10:43:25Z</time>
      </trkpt>
      <trkpt lat="49.28457" lon="-0.21237">
        <ele>5.4</ele>
        <time>2020-06-17T10:43:26Z</time>
      </trkpt>
      <trkpt lat="49.28458" lon="-0.2123">
        <ele>5.4</ele>
        <time>2020-06-17T10:43:27Z</time>
      </trkpt>
      <trkpt lat="49.28459" lon="-0.21224">
        <ele>5.4</ele>
        <time>2020-06-17T10:43:28Z</time>
      </trkpt>
      <trkpt lat="49.28461" lon="-0.21218">
        <ele>5.4</ele>
        <time>2020-06-17T10:43:29Z</time>
      </trkpt>
      <trkpt lat="49.28463" lon="-0.21213">
        <ele>5.5</ele>
        <time>2020-06-17T10:43:30Z</time>
      </trkpt>
      <trkpt lat="49.28464" lon="-0.21209">
        <ele>5.5</ele>
        <time>2020-06-17T10:43:31Z</time>
      </trkpt>
      <trkpt lat="49.28465" lon="-0.21205">
        <ele>5.5</ele>
        <time>2020-06-17T10:43:32Z</time>
      </trkpt>
      <trkpt lat="49.28466" lon="-0.21203">
        <ele>5.5</ele>
        <time>2020-06-17T10:43:33Z</time>
      </trkpt>
      <trkpt lat="49.28466" lon="-0.21201">
        <ele>5.5</ele>
        <time>2020-06-17T10:43:34Z</time>
      </trkpt>
      <trkpt lat="49.28468" lon="-0.21195">
        <ele>5.5</ele>
        <time>2020-06-17T10:43:35Z</time>
      </trkpt>
      <trkpt lat="49.28468" lon="-0.21193">
        <ele>5.5</ele>
        <time>2020-06-17T10:43:36Z</time>
      </trkpt>
      <trkpt lat="49.28469" lon="-0.21188">
        <ele>5.5</ele>
        <time>2020-06-17T10:43:37Z</time>
      </trkpt>
      <trkpt lat="49.28471" lon="-0.21183">
        <ele>5.5</ele>
        <time>2020-06-17T10:43:38Z</time>
      </trkpt>
      <trkpt lat="49.28471" lon="-0.21177">
        <ele>5.5</ele>
        <time>2020-06-17T10:43:39Z</time>
      </trkpt>
      <trkpt lat="49.28472" lon="-0.21173">
        <ele>5.5</ele>
        <time>2020-06-17T10:43:40Z</time>
      </trkpt>
      <trkpt lat="49.28472" lon="-0.21167">
        <ele>5.6</ele>
        <time>2020-06-17T10:43:41Z</time>
      </trkpt>
      <trkpt lat="49.28472" lon="-0.21162">
        <ele>5.6</ele>
        <time>2020-06-17T10:43:42Z</time>
      </trkpt>
      <trkpt lat="49.28472" lon="-0.21155">
        <ele>5.6</ele>
        <time>2020-06-17T10:43:43Z</time>
      </trkpt>
      <trkpt lat="49.28472" lon="-0.21153">
        <ele>5.6</ele>
        <time>2020-06-17T10:43:44Z</time>
      </trkpt>
      <trkpt lat="49.28472" lon="-0.21148">
        <ele>5.6</ele>
        <time>2020-06-17T10:43:45Z</time>
      </trkpt>
      <trkpt lat="49.28472" lon="-0.21142">
        <ele>5.7</ele>
        <time>2020-06-17T10:43:46Z</time>
      </trkpt>
      <trkpt lat="49.28472" lon="-0.2114">
        <ele>5.7</ele>
        <time>2020-06-17T10:43:47Z</time>
      </trkpt>
      <trkpt lat="49.28472" lon="-0.21136">
        <ele>5.7</ele>
        <time>2020-06-17T10:43:48Z</time>
      </trkpt>
      <trkpt lat="49.28472" lon="-0.21134">
        <ele>5.7</ele>
        <time>2020-06-17T10:43:49Z</time>
      </trkpt>
      <trkpt lat="49.28473" lon="-0.21128">
        <ele>5.7</ele>
        <time>2020-06-17T10:43:50Z</time>
      </trkpt>
      <trkpt lat="49.28473" lon="-0.21125">
        <ele>5.6</ele>
        <time>2020-06-17T10:43:51Z</time>
      </trkpt>
      <trkpt lat="49.28473" lon="-0.2112">
        <ele>5.6</ele>
        <time>2020-06-17T10:43:52Z</time>
      </trkpt>
      <trkpt lat="49.28473" lon="-0.21119">
        <ele>5.6</ele>
        <time>2020-06-17T10:43:53Z</time>
      </trkpt>
      <trkpt lat="49.28473" lon="-0.21118">
        <ele>5.6</ele>
        <time>2020-06-17T10:43:54Z</time>
      </trkpt>
      <trkpt lat="49.28471" lon="-0.21118">
        <ele>5.6</ele>
        <time>2020-06-17T10:43:55Z</time>
      </trkpt>
      <trkpt lat="49.28471" lon="-0.21119">
        <ele>5.5</ele>
        <time>2020-06-17T10:43:56Z</time>
      </trkpt>
      <trkpt lat="49.2847" lon="-0.21116">
        <ele>5.5</ele>
        <time>2020-06-17T10:43:57Z</time>
      </trkpt>
      <trkpt lat="49.2847" lon="-0.21111">
        <ele>5.5</ele>
        <time>2020-06-17T10:43:58Z</time>
      </trkpt>
      <trkpt lat="49.2847" lon="-0.21109">
        <ele>5.5</ele>
        <time>2020-06-17T10:43:59Z</time>
      </trkpt>
      <trkpt lat="49.28471" lon="-0.21101">
        <ele>5.4</ele>
        <time>2020-06-17T10:44:00Z</time>
      </trkpt>
      <trkpt lat="49.28471" lon="-0.21093">
        <ele>5.4</ele>
        <time>2020-06-17T10:44:01Z</time>
      </trkpt>
      <trkpt lat="49.28472" lon="-0.21085">
        <ele>5.4</ele>
        <time>2020-06-17T10:44:02Z</time>
      </trkpt>
      <trkpt lat="49.28472" lon="-0.21077">
        <ele>5.4</ele>
        <time>2020-06-17T10:44:03Z</time>
      </trkpt>
      <trkpt lat="49.28473" lon="-0.2107">
        <ele>5.4</ele>
        <time>2020-06-17T10:44:04Z</time>
      </trkpt>
      <trkpt lat="49.28474" lon="-0.21064">
        <ele>5.4</ele>
        <time>2020-06-17T10:44:05Z</time>
      </trkpt>
      <trkpt lat="49.28475" lon="-0.21057">
        <ele>5.4</ele>
        <time>2020-06-17T10:44:06Z</time>
      </trkpt>
      <trkpt lat="49.28476" lon="-0.2105">
        <ele>5.4</ele>
        <time>2020-06-17T10:44:07Z</time>
      </trkpt>
      <trkpt lat="49.28476" lon="-0.21043">
        <ele>5.4</ele>
        <time>2020-06-17T10:44:08Z</time>
      </trkpt>
      <trkpt lat="49.28477" lon="-0.21035">
        <ele>5.5</ele>
        <time>2020-06-17T10:44:09Z</time>
      </trkpt>
      <trkpt lat="49.28478" lon="-0.21027">
        <ele>5.5</ele>
        <time>2020-06-17T10:44:10Z</time>
      </trkpt>
      <trkpt lat="49.28479" lon="-0.2102">
        <ele>5.5</ele>
        <time>2020-06-17T10:44:11Z</time>
      </trkpt>
      <trkpt lat="49.2848" lon="-0.21011">
        <ele>5.5</ele>
        <time>2020-06-17T10:44:12Z</time>
      </trkpt>
      <trkpt lat="49.28482" lon="-0.21004">
        <ele>5.6</ele>
        <time>2020-06-17T10:44:13Z</time>
      </trkpt>
      <trkpt lat="49.28483" lon="-0.20996">
        <ele>5.6</ele>
        <time>2020-06-17T10:44:14Z</time>
      </trkpt>
      <trkpt lat="49.28484" lon="-0.20986">
        <ele>5.6</ele>
        <time>2020-06-17T10:44:15Z</time>
      </trkpt>
      <trkpt lat="49.28484" lon="-0.20979">
        <ele>5.6</ele>
        <time>2020-06-17T10:44:16Z</time>
      </trkpt>
      <trkpt lat="49.28484" lon="-0.2097">
        <ele>5.6</ele>
        <time>2020-06-17T10:44:17Z</time>
      </trkpt>
      <trkpt lat="49.28485" lon="-0.20962">
        <ele>5.6</ele>
        <time>2020-06-17T10:44:18Z</time>
      </trkpt>
      <trkpt lat="49.28486" lon="-0.20953">
        <ele>5.6</ele>
        <time>2020-06-17T10:44:19Z</time>
      </trkpt>
      <trkpt lat="49.28486" lon="-0.20946">
        <ele>5.6</ele>
        <time>2020-06-17T10:44:20Z</time>
      </trkpt>
      <trkpt lat="49.28487" lon="-0.20937">
        <ele>5.6</ele>
        <time>2020-06-17T10:44:21Z</time>
      </trkpt>
      <trkpt lat="49.28487" lon="-0.20929">
        <ele>5.6</ele>
        <time>2020-06-17T10:44:22Z</time>
      </trkpt>
      <trkpt lat="49.28488" lon="-0.20922">
        <ele>5.5</ele>
        <time>2020-06-17T10:44:23Z</time>
      </trkpt>
      <trkpt lat="49.28488" lon="-0.20913">
        <ele>5.5</ele>
        <time>2020-06-17T10:44:24Z</time>
      </trkpt>
      <trkpt lat="49.28488" lon="-0.20903">
        <ele>5.5</ele>
        <time>2020-06-17T10:44:25Z</time>
      </trkpt>
      <trkpt lat="49.28489" lon="-0.20893">
        <ele>5.5</ele>
        <time>2020-06-17T10:44:26Z</time>
      </trkpt>
      <trkpt lat="49.2849" lon="-0.20885">
        <ele>5.6</ele>
        <time>2020-06-17T10:44:27Z</time>
      </trkpt>
      <trkpt lat="49.28491" lon="-0.20877">
        <ele>5.6</ele>
        <time>2020-06-17T10:44:28Z</time>
      </trkpt>
      <trkpt lat="49.28492" lon="-0.20868">
        <ele>5.6</ele>
        <time>2020-06-17T10:44:29Z</time>
      </trkpt>
      <trkpt lat="49.28492" lon="-0.2086">
        <ele>5.6</ele>
        <time>2020-06-17T10:44:30Z</time>
      </trkpt>
      <trkpt lat="49.28493" lon="-0.20852">
        <ele>5.7</ele>
        <time>2020-06-17T10:44:31Z</time>
      </trkpt>
      <trkpt lat="49.28495" lon="-0.20844">
        <ele>5.7</ele>
        <time>2020-06-17T10:44:32Z</time>
      </trkpt>
      <trkpt lat="49.28496" lon="-0.20836">
        <ele>5.7</ele>
        <time>2020-06-17T10:44:33Z</time>
      </trkpt>
      <trkpt lat="49.28498" lon="-0.20829">
        <ele>5.7</ele>
        <time>2020-06-17T10:44:34Z</time>
      </trkpt>
      <trkpt lat="49.28499" lon="-0.2082">
        <ele>5.6</ele>
        <time>2020-06-17T10:44:35Z</time>
      </trkpt>
      <trkpt lat="49.285" lon="-0.2081">
        <ele>5.6</ele>
        <time>2020-06-17T10:44:36Z</time>
      </trkpt>
      <trkpt lat="49.28501" lon="-0.20801">
        <ele>5.6</ele>
        <time>2020-06-17T10:44:37Z</time>
      </trkpt>
      <trkpt lat="49.28502" lon="-0.20794">
        <ele>5.7</ele>
        <time>2020-06-17T10:44:38Z</time>
      </trkpt>
      <trkpt lat="49.28503" lon="-0.20785">
        <ele>5.7</ele>
        <time>2020-06-17T10:44:39Z</time>
      </trkpt>
      <trkpt lat="49.28502" lon="-0.20776">
        <ele>5.7</ele>
        <time>2020-06-17T10:44:40Z</time>
      </trkpt>
      <trkpt lat="49.28503" lon="-0.20767">
        <ele>5.8</ele>
        <time>2020-06-17T10:44:41Z</time>
      </trkpt>
      <trkpt lat="49.28504" lon="-0.20759">
        <ele>5.8</ele>
        <time>2020-06-17T10:44:42Z</time>
      </trkpt>
      <trkpt lat="49.28504" lon="-0.2075">
        <ele>5.9</ele>
        <time>2020-06-17T10:44:43Z</time>
      </trkpt>
      <trkpt lat="49.28505" lon="-0.20742">
        <ele>5.9</ele>
        <time>2020-06-17T10:44:44Z</time>
      </trkpt>
      <trkpt lat="49.28506" lon="-0.20733">
        <ele>6</ele>
        <time>2020-06-17T10:44:45Z</time>
      </trkpt>
      <trkpt lat="49.28507" lon="-0.20725">
        <ele>6</ele>
        <time>2020-06-17T10:44:46Z</time>
      </trkpt>
      <trkpt lat="49.28508" lon="-0.20716">
        <ele>6.1</ele>
        <time>2020-06-17T10:44:47Z</time>
      </trkpt>
      <trkpt lat="49.28509" lon="-0.20709">
        <ele>6.1</ele>
        <time>2020-06-17T10:44:48Z</time>
      </trkpt>
      <trkpt lat="49.2851" lon="-0.20701">
        <ele>6.1</ele>
        <time>2020-06-17T10:44:49Z</time>
      </trkpt>
      <trkpt lat="49.28511" lon="-0.20692">
        <ele>6.2</ele>
        <time>2020-06-17T10:44:50Z</time>
      </trkpt>
      <trkpt lat="49.28512" lon="-0.20684">
        <ele>6.2</ele>
        <time>2020-06-17T10:44:51Z</time>
      </trkpt>
      <trkpt lat="49.28512" lon="-0.20675">
        <ele>6.3</ele>
        <time>2020-06-17T10:44:52Z</time>
      </trkpt>
      <trkpt lat="49.28514" lon="-0.20666">
        <ele>6.3</ele>
        <time>2020-06-17T10:44:53Z</time>
      </trkpt>
      <trkpt lat="49.28515" lon="-0.20658">
        <ele>6.4</ele>
        <time>2020-06-17T10:44:54Z</time>
      </trkpt>
      <trkpt lat="49.28516" lon="-0.20649">
        <ele>6.4</ele>
        <time>2020-06-17T10:44:55Z</time>
      </trkpt>
      <trkpt lat="49.28516" lon="-0.2064">
        <ele>6.5</ele>
        <time>2020-06-17T10:44:56Z</time>
      </trkpt>
      <trkpt lat="49.28517" lon="-0.20631">
        <ele>6.5</ele>
        <time>2020-06-17T10:44:57Z</time>
      </trkpt>
      <trkpt lat="49.28518" lon="-0.20623">
        <ele>6.6</ele>
        <time>2020-06-17T10:44:58Z</time>
      </trkpt>
      <trkpt lat="49.28519" lon="-0.20616">
        <ele>6.6</ele>
        <time>2020-06-17T10:44:59Z</time>
      </trkpt>
      <trkpt lat="49.2852" lon="-0.20608">
        <ele>6.7</ele>
        <time>2020-06-17T10:45:00Z</time>
      </trkpt>
      <trkpt lat="49.28521" lon="-0.206">
        <ele>6.7</ele>
        <time>2020-06-17T10:45:01Z</time>
      </trkpt>
      <trkpt lat="49.28522" lon="-0.20592">
        <ele>6.8</ele>
        <time>2020-06-17T10:45:02Z</time>
      </trkpt>
      <trkpt lat="49.28522" lon="-0.20584">
        <ele>6.8</ele>
        <time>2020-06-17T10:45:03Z</time>
      </trkpt>
      <trkpt lat="49.28523" lon="-0.20577">
        <ele>6.9</ele>
        <time>2020-06-17T10:45:04Z</time>
      </trkpt>
      <trkpt lat="49.28524" lon="-0.2057">
        <ele>6.9</ele>
        <time>2020-06-17T10:45:05Z</time>
      </trkpt>
      <trkpt lat="49.28524" lon="-0.20563">
        <ele>6.9</ele>
        <time>2020-06-17T10:45:06Z</time>
      </trkpt>
      <trkpt lat="49.28526" lon="-0.20556">
        <ele>7</ele>
        <time>2020-06-17T10:45:07Z</time>
      </trkpt>
      <trkpt lat="49.28526" lon="-0.20549">
        <ele>7</ele>
        <time>2020-06-17T10:45:08Z</time>
      </trkpt>
      <trkpt lat="49.28526" lon="-0.2054">
        <ele>7</ele>
        <time>2020-06-17T10:45:09Z</time>
      </trkpt>
      <trkpt lat="49.28527" lon="-0.20533">
        <ele>7</ele>
        <time>2020-06-17T10:45:10Z</time>
      </trkpt>
      <trkpt lat="49.28528" lon="-0.20524">
        <ele>7.1</ele>
        <time>2020-06-17T10:45:11Z</time>
      </trkpt>
      <trkpt lat="49.28528" lon="-0.20516">
        <ele>7.1</ele>
        <time>2020-06-17T10:45:12Z</time>
      </trkpt>
      <trkpt lat="49.28528" lon="-0.20508">
        <ele>7.1</ele>
        <time>2020-06-17T10:45:13Z</time>
      </trkpt>
      <trkpt lat="49.28528" lon="-0.205">
        <ele>7.1</ele>
        <time>2020-06-17T10:45:14Z</time>
      </trkpt>
      <trkpt lat="49.28528" lon="-0.20492">
        <ele>7.1</ele>
        <time>2020-06-17T10:45:15Z</time>
      </trkpt>
      <trkpt lat="49.28528" lon="-0.20484">
        <ele>7.1</ele>
        <time>2020-06-17T10:45:16Z</time>
      </trkpt>
      <trkpt lat="49.28529" lon="-0.20475">
        <ele>7.2</ele>
        <time>2020-06-17T10:45:17Z</time>
      </trkpt>
      <trkpt lat="49.28531" lon="-0.20467">
        <ele>7.2</ele>
        <time>2020-06-17T10:45:18Z</time>
      </trkpt>
      <trkpt lat="49.28531" lon="-0.20459">
        <ele>7.2</ele>
        <time>2020-06-17T10:45:19Z</time>
      </trkpt>
      <trkpt lat="49.28532" lon="-0.20452">
        <ele>7.2</ele>
        <time>2020-06-17T10:45:20Z</time>
      </trkpt>
      <trkpt lat="49.28533" lon="-0.20443">
        <ele>7.3</ele>
        <time>2020-06-17T10:45:21Z</time>
      </trkpt>
      <trkpt lat="49.28535" lon="-0.20435">
        <ele>7.4</ele>
        <time>2020-06-17T10:45:22Z</time>
      </trkpt>
      <trkpt lat="49.28536" lon="-0.20428">
        <ele>7.4</ele>
        <time>2020-06-17T10:45:23Z</time>
      </trkpt>
      <trkpt lat="49.28537" lon="-0.20421">
        <ele>7.5</ele>
        <time>2020-06-17T10:45:24Z</time>
      </trkpt>
      <trkpt lat="49.28538" lon="-0.20413">
        <ele>7.6</ele>
        <time>2020-06-17T10:45:25Z</time>
      </trkpt>
      <trkpt lat="49.28538" lon="-0.20405">
        <ele>7.6</ele>
        <time>2020-06-17T10:45:26Z</time>
      </trkpt>
      <trkpt lat="49.28539" lon="-0.20397">
        <ele>7.7</ele>
        <time>2020-06-17T10:45:27Z</time>
      </trkpt>
      <trkpt lat="49.28539" lon="-0.20389">
        <ele>7.7</ele>
        <time>2020-06-17T10:45:28Z</time>
      </trkpt>
      <trkpt lat="49.28541" lon="-0.20382">
        <ele>7.8</ele>
        <time>2020-06-17T10:45:29Z</time>
      </trkpt>
      <trkpt lat="49.28543" lon="-0.20374">
        <ele>7.8</ele>
        <time>2020-06-17T10:45:30Z</time>
      </trkpt>
      <trkpt lat="49.28543" lon="-0.20365">
        <ele>7.8</ele>
        <time>2020-06-17T10:45:31Z</time>
      </trkpt>
      <trkpt lat="49.28544" lon="-0.20357">
        <ele>7.8</ele>
        <time>2020-06-17T10:45:32Z</time>
      </trkpt>
      <trkpt lat="49.28545" lon="-0.20349">
        <ele>7.9</ele>
        <time>2020-06-17T10:45:33Z</time>
      </trkpt>
      <trkpt lat="49.28547" lon="-0.20341">
        <ele>7.9</ele>
        <time>2020-06-17T10:45:34Z</time>
      </trkpt>
      <trkpt lat="49.28548" lon="-0.20333">
        <ele>8</ele>
        <time>2020-06-17T10:45:35Z</time>
      </trkpt>
      <trkpt lat="49.2855" lon="-0.20325">
        <ele>8</ele>
        <time>2020-06-17T10:45:36Z</time>
      </trkpt>
      <trkpt lat="49.28552" lon="-0.20316">
        <ele>8.1</ele>
        <time>2020-06-17T10:45:37Z</time>
      </trkpt>
      <trkpt lat="49.28553" lon="-0.20308">
        <ele>8.1</ele>
        <time>2020-06-17T10:45:38Z</time>
      </trkpt>
      <trkpt lat="49.28554" lon="-0.20299">
        <ele>8.2</ele>
        <time>2020-06-17T10:45:39Z</time>
      </trkpt>
      <trkpt lat="49.28555" lon="-0.20292">
        <ele>8.2</ele>
        <time>2020-06-17T10:45:40Z</time>
      </trkpt>
      <trkpt lat="49.28556" lon="-0.20284">
        <ele>8.2</ele>
        <time>2020-06-17T10:45:41Z</time>
      </trkpt>
      <trkpt lat="49.28557" lon="-0.20277">
        <ele>8.3</ele>
        <time>2020-06-17T10:45:42Z</time>
      </trkpt>
      <trkpt lat="49.28557" lon="-0.20271">
        <ele>8.3</ele>
        <time>2020-06-17T10:45:43Z</time>
      </trkpt>
      <trkpt lat="49.28556" lon="-0.20263">
        <ele>8.3</ele>
        <time>2020-06-17T10:45:44Z</time>
      </trkpt>
      <trkpt lat="49.28555" lon="-0.20255">
        <ele>8.4</ele>
        <time>2020-06-17T10:45:45Z</time>
      </trkpt>
      <trkpt lat="49.28554" lon="-0.20249">
        <ele>8.4</ele>
        <time>2020-06-17T10:45:46Z</time>
      </trkpt>
      <trkpt lat="49.28555" lon="-0.20242">
        <ele>8.4</ele>
        <time>2020-06-17T10:45:47Z</time>
      </trkpt>
      <trkpt lat="49.28556" lon="-0.20235">
        <ele>8.3</ele>
        <time>2020-06-17T10:45:48Z</time>
      </trkpt>
      <trkpt lat="49.28557" lon="-0.20227">
        <ele>8.3</ele>
        <time>2020-06-17T10:45:49Z</time>
      </trkpt>
      <trkpt lat="49.28557" lon="-0.20221">
        <ele>8.3</ele>
        <time>2020-06-17T10:45:50Z</time>
      </trkpt>
      <trkpt lat="49.28558" lon="-0.20213">
        <ele>8.3</ele>
        <time>2020-06-17T10:45:51Z</time>
      </trkpt>
      <trkpt lat="49.28558" lon="-0.20206">
        <ele>8.3</ele>
        <time>2020-06-17T10:45:52Z</time>
      </trkpt>
      <trkpt lat="49.28559" lon="-0.20198">
        <ele>8.2</ele>
        <time>2020-06-17T10:45:53Z</time>
      </trkpt>
      <trkpt lat="49.28561" lon="-0.2019">
        <ele>8.2</ele>
        <time>2020-06-17T10:45:54Z</time>
      </trkpt>
      <trkpt lat="49.28561" lon="-0.20182">
        <ele>8.2</ele>
        <time>2020-06-17T10:45:55Z</time>
      </trkpt>
      <trkpt lat="49.28562" lon="-0.20174">
        <ele>8.2</ele>
        <time>2020-06-17T10:45:56Z</time>
      </trkpt>
      <trkpt lat="49.28562" lon="-0.20166">
        <ele>8.2</ele>
        <time>2020-06-17T10:45:57Z</time>
      </trkpt>
      <trkpt lat="49.28563" lon="-0.20157">
        <ele>8.2</ele>
        <time>2020-06-17T10:45:58Z</time>
      </trkpt>
      <trkpt lat="49.28563" lon="-0.20149">
        <ele>8.2</ele>
        <time>2020-06-17T10:45:59Z</time>
      </trkpt>
      <trkpt lat="49.28562" lon="-0.20141">
        <ele>8.2</ele>
        <time>2020-06-17T10:46:00Z</time>
      </trkpt>
      <trkpt lat="49.28561" lon="-0.20132">
        <ele>8.2</ele>
        <time>2020-06-17T10:46:01Z</time>
      </trkpt>
      <trkpt lat="49.2856" lon="-0.20123">
        <ele>8.2</ele>
        <time>2020-06-17T10:46:02Z</time>
      </trkpt>
      <trkpt lat="49.2856" lon="-0.20115">
        <ele>8.2</ele>
        <time>2020-06-17T10:46:03Z</time>
      </trkpt>
      <trkpt lat="49.2856" lon="-0.20107">
        <ele>8.2</ele>
        <time>2020-06-17T10:46:04Z</time>
      </trkpt>
      <trkpt lat="49.2856" lon="-0.20099">
        <ele>8.2</ele>
        <time>2020-06-17T10:46:05Z</time>
      </trkpt>
      <trkpt lat="49.28561" lon="-0.20092">
        <ele>8.3</ele>
        <time>2020-06-17T10:46:06Z</time>
      </trkpt>
      <trkpt lat="49.28561" lon="-0.20085">
        <ele>8.3</ele>
        <time>2020-06-17T10:46:07Z</time>
      </trkpt>
      <trkpt lat="49.28559" lon="-0.20079">
        <ele>8.3</ele>
        <time>2020-06-17T10:46:08Z</time>
      </trkpt>
      <trkpt lat="49.28555" lon="-0.20074">
        <ele>8.2</ele>
        <time>2020-06-17T10:46:09Z</time>
      </trkpt>
      <trkpt lat="49.2855" lon="-0.20073">
        <ele>8.2</ele>
        <time>2020-06-17T10:46:10Z</time>
      </trkpt>
      <trkpt lat="49.28544" lon="-0.20073">
        <ele>8.1</ele>
        <time>2020-06-17T10:46:11Z</time>
      </trkpt>
      <trkpt lat="49.28539" lon="-0.20073">
        <ele>8.1</ele>
        <time>2020-06-17T10:46:12Z</time>
      </trkpt>
      <trkpt lat="49.28533" lon="-0.20074">
        <ele>8</ele>
        <time>2020-06-17T10:46:13Z</time>
      </trkpt>
      <trkpt lat="49.28527" lon="-0.20074">
        <ele>7.9</ele>
        <time>2020-06-17T10:46:14Z</time>
      </trkpt>
      <trkpt lat="49.28521" lon="-0.20074">
        <ele>7.9</ele>
        <time>2020-06-17T10:46:15Z</time>
      </trkpt>
      <trkpt lat="49.28516" lon="-0.20072">
        <ele>7.8</ele>
        <time>2020-06-17T10:46:16Z</time>
      </trkpt>
      <trkpt lat="49.28511" lon="-0.20071">
        <ele>7.7</ele>
        <time>2020-06-17T10:46:17Z</time>
      </trkpt>
      <trkpt lat="49.28505" lon="-0.2007">
        <ele>7.7</ele>
        <time>2020-06-17T10:46:18Z</time>
      </trkpt>
      <trkpt lat="49.285" lon="-0.20068">
        <ele>7.7</ele>
        <time>2020-06-17T10:46:19Z</time>
      </trkpt>
      <trkpt lat="49.28494" lon="-0.20066">
        <ele>7.7</ele>
        <time>2020-06-17T10:46:20Z</time>
      </trkpt>
      <trkpt lat="49.28488" lon="-0.20063">
        <ele>7.6</ele>
        <time>2020-06-17T10:46:21Z</time>
      </trkpt>
      <trkpt lat="49.28483" lon="-0.20061">
        <ele>7.6</ele>
        <time>2020-06-17T10:46:22Z</time>
      </trkpt>
      <trkpt lat="49.28476" lon="-0.20058">
        <ele>7.6</ele>
        <time>2020-06-17T10:46:23Z</time>
      </trkpt>
      <trkpt lat="49.28472" lon="-0.20052">
        <ele>7.5</ele>
        <time>2020-06-17T10:46:24Z</time>
      </trkpt>
      <trkpt lat="49.28471" lon="-0.20045">
        <ele>7.4</ele>
        <time>2020-06-17T10:46:25Z</time>
      </trkpt>
      <trkpt lat="49.28475" lon="-0.20035">
        <ele>7.4</ele>
        <time>2020-06-17T10:46:26Z</time>
      </trkpt>
      <trkpt lat="49.28477" lon="-0.20024">
        <ele>7.3</ele>
        <time>2020-06-17T10:46:27Z</time>
      </trkpt>
      <trkpt lat="49.28478" lon="-0.20013">
        <ele>7.3</ele>
        <time>2020-06-17T10:46:28Z</time>
      </trkpt>
      <trkpt lat="49.2848" lon="-0.20002">
        <ele>7.2</ele>
        <time>2020-06-17T10:46:29Z</time>
      </trkpt>
      <trkpt lat="49.28481" lon="-0.19991">
        <ele>7.2</ele>
        <time>2020-06-17T10:46:30Z</time>
      </trkpt>
      <trkpt lat="49.28482" lon="-0.1998">
        <ele>7.2</ele>
        <time>2020-06-17T10:46:31Z</time>
      </trkpt>
      <trkpt lat="49.28484" lon="-0.19971">
        <ele>7.1</ele>
        <time>2020-06-17T10:46:32Z</time>
      </trkpt>
      <trkpt lat="49.28486" lon="-0.19959">
        <ele>7.1</ele>
        <time>2020-06-17T10:46:33Z</time>
      </trkpt>
      <trkpt lat="49.28487" lon="-0.19949">
        <ele>7.1</ele>
        <time>2020-06-17T10:46:34Z</time>
      </trkpt>
      <trkpt lat="49.28487" lon="-0.1994">
        <ele>7.1</ele>
        <time>2020-06-17T10:46:35Z</time>
      </trkpt>
      <trkpt lat="49.28487" lon="-0.1993">
        <ele>7.1</ele>
        <time>2020-06-17T10:46:36Z</time>
      </trkpt>
      <trkpt lat="49.28489" lon="-0.1992">
        <ele>7.2</ele>
        <time>2020-06-17T10:46:37Z</time>
      </trkpt>
      <trkpt lat="49.2849" lon="-0.19912">
        <ele>7.2</ele>
        <time>2020-06-17T10:46:38Z</time>
      </trkpt>
      <trkpt lat="49.28491" lon="-0.19904">
        <ele>7.2</ele>
        <time>2020-06-17T10:46:39Z</time>
      </trkpt>
      <trkpt lat="49.28492" lon="-0.19893">
        <ele>7.2</ele>
        <time>2020-06-17T10:46:40Z</time>
      </trkpt>
      <trkpt lat="49.28493" lon="-0.19885">
        <ele>7.2</ele>
        <time>2020-06-17T10:46:41Z</time>
      </trkpt>
      <trkpt lat="49.28494" lon="-0.19876">
        <ele>7.2</ele>
        <time>2020-06-17T10:46:42Z</time>
      </trkpt>
      <trkpt lat="49.28495" lon="-0.19867">
        <ele>7.3</ele>
        <time>2020-06-17T10:46:43Z</time>
      </trkpt>
      <trkpt lat="49.28496" lon="-0.19859">
        <ele>7.3</ele>
        <time>2020-06-17T10:46:44Z</time>
      </trkpt>
      <trkpt lat="49.28496" lon="-0.19854">
        <ele>7.3</ele>
        <time>2020-06-17T10:46:45Z</time>
      </trkpt>
      <trkpt lat="49.28497" lon="-0.19847">
        <ele>7.4</ele>
        <time>2020-06-17T10:46:46Z</time>
      </trkpt>
      <trkpt lat="49.28498" lon="-0.1984">
        <ele>7.4</ele>
        <time>2020-06-17T10:46:47Z</time>
      </trkpt>
      <trkpt lat="49.28497" lon="-0.19835">
        <ele>7.4</ele>
        <time>2020-06-17T10:46:48Z</time>
      </trkpt>
      <trkpt lat="49.28494" lon="-0.19831">
        <ele>7.4</ele>
        <time>2020-06-17T10:46:49Z</time>
      </trkpt>
      <trkpt lat="49.28489" lon="-0.19829">
        <ele>7.4</ele>
        <time>2020-06-17T10:46:50Z</time>
      </trkpt>
      <trkpt lat="49.28484" lon="-0.19825">
        <ele>7.4</ele>
        <time>2020-06-17T10:46:51Z</time>
      </trkpt>
      <trkpt lat="49.28479" lon="-0.1982">
        <ele>7.4</ele>
        <time>2020-06-17T10:46:52Z</time>
      </trkpt>
      <trkpt lat="49.28473" lon="-0.19815">
        <ele>7.4</ele>
        <time>2020-06-17T10:46:53Z</time>
      </trkpt>
      <trkpt lat="49.28468" lon="-0.19811">
        <ele>7.4</ele>
        <time>2020-06-17T10:46:54Z</time>
      </trkpt>
      <trkpt lat="49.28463" lon="-0.19807">
        <ele>7.4</ele>
        <time>2020-06-17T10:46:55Z</time>
      </trkpt>
      <trkpt lat="49.28458" lon="-0.19802">
        <ele>7.4</ele>
        <time>2020-06-17T10:46:56Z</time>
      </trkpt>
      <trkpt lat="49.28453" lon="-0.19797">
        <ele>7.4</ele>
        <time>2020-06-17T10:46:57Z</time>
      </trkpt>
      <trkpt lat="49.28448" lon="-0.19792">
        <ele>7.4</ele>
        <time>2020-06-17T10:46:58Z</time>
      </trkpt>
      <trkpt lat="49.28444" lon="-0.19786">
        <ele>7.4</ele>
        <time>2020-06-17T10:46:59Z</time>
      </trkpt>
      <trkpt lat="49.28438" lon="-0.19781">
        <ele>7.3</ele>
        <time>2020-06-17T10:47:00Z</time>
      </trkpt>
      <trkpt lat="49.28433" lon="-0.19777">
        <ele>7.3</ele>
        <time>2020-06-17T10:47:01Z</time>
      </trkpt>
      <trkpt lat="49.28428" lon="-0.19773">
        <ele>7.3</ele>
        <time>2020-06-17T10:47:02Z</time>
      </trkpt>
      <trkpt lat="49.28423" lon="-0.19768">
        <ele>7.3</ele>
        <time>2020-06-17T10:47:03Z</time>
      </trkpt>
      <trkpt lat="49.28418" lon="-0.19764">
        <ele>7.3</ele>
        <time>2020-06-17T10:47:04Z</time>
      </trkpt>
      <trkpt lat="49.28413" lon="-0.1976">
        <ele>7.3</ele>
        <time>2020-06-17T10:47:05Z</time>
      </trkpt>
      <trkpt lat="49.2841" lon="-0.19756">
        <ele>7.3</ele>
        <time>2020-06-17T10:47:06Z</time>
      </trkpt>
      <trkpt lat="49.28405" lon="-0.19752">
        <ele>7.3</ele>
        <time>2020-06-17T10:47:07Z</time>
      </trkpt>
      <trkpt lat="49.284" lon="-0.19748">
        <ele>7.3</ele>
        <time>2020-06-17T10:47:08Z</time>
      </trkpt>
      <trkpt lat="49.28397" lon="-0.19743">
        <ele>7.3</ele>
        <time>2020-06-17T10:47:09Z</time>
      </trkpt>
      <trkpt lat="49.28394" lon="-0.1974">
        <ele>7.3</ele>
        <time>2020-06-17T10:47:10Z</time>
      </trkpt>
      <trkpt lat="49.28389" lon="-0.19735">
        <ele>7.3</ele>
        <time>2020-06-17T10:47:11Z</time>
      </trkpt>
      <trkpt lat="49.28384" lon="-0.19731">
        <ele>7.3</ele>
        <time>2020-06-17T10:47:12Z</time>
      </trkpt>
      <trkpt lat="49.28379" lon="-0.19726">
        <ele>7.3</ele>
        <time>2020-06-17T10:47:13Z</time>
      </trkpt>
      <trkpt lat="49.28374" lon="-0.19723">
        <ele>7.3</ele>
        <time>2020-06-17T10:47:14Z</time>
      </trkpt>
      <trkpt lat="49.28369" lon="-0.19719">
        <ele>7.3</ele>
        <time>2020-06-17T10:47:15Z</time>
      </trkpt>
      <trkpt lat="49.28364" lon="-0.19711">
        <ele>7.3</ele>
        <time>2020-06-17T10:47:16Z</time>
      </trkpt>
      <trkpt lat="49.28359" lon="-0.19706">
        <ele>7.3</ele>
        <time>2020-06-17T10:47:17Z</time>
      </trkpt>
      <trkpt lat="49.28353" lon="-0.19699">
        <ele>7.3</ele>
        <time>2020-06-17T10:47:18Z</time>
      </trkpt>
      <trkpt lat="49.28347" lon="-0.19693">
        <ele>7.3</ele>
        <time>2020-06-17T10:47:19Z</time>
      </trkpt>
      <trkpt lat="49.28343" lon="-0.19688">
        <ele>7.3</ele>
        <time>2020-06-17T10:47:20Z</time>
      </trkpt>
      <trkpt lat="49.28338" lon="-0.19683">
        <ele>7.3</ele>
        <time>2020-06-17T10:47:21Z</time>
      </trkpt>
      <trkpt lat="49.28333" lon="-0.19678">
        <ele>7.3</ele>
        <time>2020-06-17T10:47:22Z</time>
      </trkpt>
      <trkpt lat="49.28328" lon="-0.19674">
        <ele>7.3</ele>
        <time>2020-06-17T10:47:23Z</time>
      </trkpt>
      <trkpt lat="49.28323" lon="-0.19668">
        <ele>7.3</ele>
        <time>2020-06-17T10:47:24Z</time>
      </trkpt>
      <trkpt lat="49.28318" lon="-0.19663">
        <ele>7.3</ele>
        <time>2020-06-17T10:47:25Z</time>
      </trkpt>
      <trkpt lat="49.28312" lon="-0.19658">
        <ele>7.3</ele>
        <time>2020-06-17T10:47:26Z</time>
      </trkpt>
      <trkpt lat="49.28306" lon="-0.19654">
        <ele>7.3</ele>
        <time>2020-06-17T10:47:27Z</time>
      </trkpt>
      <trkpt lat="49.28301" lon="-0.1965">
        <ele>7.3</ele>
        <time>2020-06-17T10:47:28Z</time>
      </trkpt>
      <trkpt lat="49.28296" lon="-0.19645">
        <ele>7.3</ele>
        <time>2020-06-17T10:47:29Z</time>
      </trkpt>
      <trkpt lat="49.28292" lon="-0.19641">
        <ele>7.3</ele>
        <time>2020-06-17T10:47:30Z</time>
      </trkpt>
      <trkpt lat="49.28288" lon="-0.19635">
        <ele>7.3</ele>
        <time>2020-06-17T10:47:31Z</time>
      </trkpt>
      <trkpt lat="49.28283" lon="-0.1963">
        <ele>7.2</ele>
        <time>2020-06-17T10:47:32Z</time>
      </trkpt>
      <trkpt lat="49.28277" lon="-0.19624">
        <ele>7.1</ele>
        <time>2020-06-17T10:47:33Z</time>
      </trkpt>
      <trkpt lat="49.28272" lon="-0.19619">
        <ele>7</ele>
        <time>2020-06-17T10:47:34Z</time>
      </trkpt>
      <trkpt lat="49.28268" lon="-0.19615">
        <ele>7</ele>
        <time>2020-06-17T10:47:35Z</time>
      </trkpt>
      <trkpt lat="49.28263" lon="-0.19611">
        <ele>6.9</ele>
        <time>2020-06-17T10:47:36Z</time>
      </trkpt>
      <trkpt lat="49.28257" lon="-0.19606">
        <ele>6.8</ele>
        <time>2020-06-17T10:47:37Z</time>
      </trkpt>
      <trkpt lat="49.28252" lon="-0.19601">
        <ele>6.8</ele>
        <time>2020-06-17T10:47:38Z</time>
      </trkpt>
      <trkpt lat="49.28247" lon="-0.19596">
        <ele>6.7</ele>
        <time>2020-06-17T10:47:39Z</time>
      </trkpt>
      <trkpt lat="49.28243" lon="-0.19592">
        <ele>6.7</ele>
        <time>2020-06-17T10:47:40Z</time>
      </trkpt>
      <trkpt lat="49.28239" lon="-0.19586">
        <ele>6.6</ele>
        <time>2020-06-17T10:47:41Z</time>
      </trkpt>
      <trkpt lat="49.28235" lon="-0.19581">
        <ele>6.6</ele>
        <time>2020-06-17T10:47:42Z</time>
      </trkpt>
      <trkpt lat="49.28234" lon="-0.19573">
        <ele>6.6</ele>
        <time>2020-06-17T10:47:43Z</time>
      </trkpt>
      <trkpt lat="49.28236" lon="-0.19566">
        <ele>6.6</ele>
        <time>2020-06-17T10:47:44Z</time>
      </trkpt>
      <trkpt lat="49.28239" lon="-0.19559">
        <ele>6.6</ele>
        <time>2020-06-17T10:47:45Z</time>
      </trkpt>
      <trkpt lat="49.28242" lon="-0.19555">
        <ele>6.6</ele>
        <time>2020-06-17T10:47:46Z</time>
      </trkpt>
      <trkpt lat="49.28245" lon="-0.1955">
        <ele>6.6</ele>
        <time>2020-06-17T10:47:47Z</time>
      </trkpt>
      <trkpt lat="49.28248" lon="-0.19546">
        <ele>6.6</ele>
        <time>2020-06-17T10:47:48Z</time>
      </trkpt>
      <trkpt lat="49.2825" lon="-0.19539">
        <ele>6.6</ele>
        <time>2020-06-17T10:47:49Z</time>
      </trkpt>
      <trkpt lat="49.28252" lon="-0.19533">
        <ele>6.6</ele>
        <time>2020-06-17T10:47:50Z</time>
      </trkpt>
      <trkpt lat="49.28256" lon="-0.19526">
        <ele>6.7</ele>
        <time>2020-06-17T10:47:51Z</time>
      </trkpt>
      <trkpt lat="49.2826" lon="-0.19518">
        <ele>6.8</ele>
        <time>2020-06-17T10:47:52Z</time>
      </trkpt>
      <trkpt lat="49.28264" lon="-0.1951">
        <ele>6.8</ele>
        <time>2020-06-17T10:47:53Z</time>
      </trkpt>
      <trkpt lat="49.28267" lon="-0.19503">
        <ele>6.9</ele>
        <time>2020-06-17T10:47:54Z</time>
      </trkpt>
      <trkpt lat="49.2827" lon="-0.19496">
        <ele>7</ele>
        <time>2020-06-17T10:47:55Z</time>
      </trkpt>
      <trkpt lat="49.28274" lon="-0.19489">
        <ele>7.1</ele>
        <time>2020-06-17T10:47:56Z</time>
      </trkpt>
      <trkpt lat="49.28277" lon="-0.19483">
        <ele>7.2</ele>
        <time>2020-06-17T10:47:57Z</time>
      </trkpt>
      <trkpt lat="49.2828" lon="-0.19475">
        <ele>7.2</ele>
        <time>2020-06-17T10:47:58Z</time>
      </trkpt>
      <trkpt lat="49.28283" lon="-0.19469">
        <ele>7.3</ele>
        <time>2020-06-17T10:47:59Z</time>
      </trkpt>
      <trkpt lat="49.28285" lon="-0.19463">
        <ele>7.3</ele>
        <time>2020-06-17T10:48:00Z</time>
      </trkpt>
      <trkpt lat="49.28288" lon="-0.19457">
        <ele>7.2</ele>
        <time>2020-06-17T10:48:01Z</time>
      </trkpt>
      <trkpt lat="49.2829" lon="-0.19451">
        <ele>7.2</ele>
        <time>2020-06-17T10:48:02Z</time>
      </trkpt>
      <trkpt lat="49.28293" lon="-0.19444">
        <ele>7.2</ele>
        <time>2020-06-17T10:48:03Z</time>
      </trkpt>
      <trkpt lat="49.28294" lon="-0.19438">
        <ele>7.2</ele>
        <time>2020-06-17T10:48:04Z</time>
      </trkpt>
      <trkpt lat="49.28298" lon="-0.19429">
        <ele>7.1</ele>
        <time>2020-06-17T10:48:05Z</time>
      </trkpt>
      <trkpt lat="49.283" lon="-0.19424">
        <ele>7.1</ele>
        <time>2020-06-17T10:48:06Z</time>
      </trkpt>
      <trkpt lat="49.28302" lon="-0.19416">
        <ele>7</ele>
        <time>2020-06-17T10:48:07Z</time>
      </trkpt>
      <trkpt lat="49.28305" lon="-0.19408">
        <ele>6.9</ele>
        <time>2020-06-17T10:48:08Z</time>
      </trkpt>
      <trkpt lat="49.28309" lon="-0.19403">
        <ele>6.8</ele>
        <time>2020-06-17T10:48:09Z</time>
      </trkpt>
      <trkpt lat="49.28313" lon="-0.19395">
        <ele>6.8</ele>
        <time>2020-06-17T10:48:10Z</time>
      </trkpt>
      <trkpt lat="49.28315" lon="-0.19387">
        <ele>6.7</ele>
        <time>2020-06-17T10:48:11Z</time>
      </trkpt>
      <trkpt lat="49.28317" lon="-0.19378">
        <ele>6.7</ele>
        <time>2020-06-17T10:48:12Z</time>
      </trkpt>
      <trkpt lat="49.2832" lon="-0.19371">
        <ele>6.6</ele>
        <time>2020-06-17T10:48:13Z</time>
      </trkpt>
      <trkpt lat="49.28324" lon="-0.19364">
        <ele>6.5</ele>
        <time>2020-06-17T10:48:14Z</time>
      </trkpt>
      <trkpt lat="49.28327" lon="-0.19359">
        <ele>6.5</ele>
        <time>2020-06-17T10:48:15Z</time>
      </trkpt>
      <trkpt lat="49.2833" lon="-0.19355">
        <ele>6.4</ele>
        <time>2020-06-17T10:48:16Z</time>
      </trkpt>
      <trkpt lat="49.28331" lon="-0.19349">
        <ele>6.3</ele>
        <time>2020-06-17T10:48:17Z</time>
      </trkpt>
      <trkpt lat="49.28331" lon="-0.19342">
        <ele>6.1</ele>
        <time>2020-06-17T10:48:18Z</time>
      </trkpt>
      <trkpt lat="49.28326" lon="-0.19336">
        <ele>5.9</ele>
        <time>2020-06-17T10:48:19Z</time>
      </trkpt>
      <trkpt lat="49.2832" lon="-0.19332">
        <ele>5.8</ele>
        <time>2020-06-17T10:48:20Z</time>
      </trkpt>
      <trkpt lat="49.28314" lon="-0.19328">
        <ele>5.6</ele>
        <time>2020-06-17T10:48:21Z</time>
      </trkpt>
      <trkpt lat="49.28308" lon="-0.19323">
        <ele>5.4</ele>
        <time>2020-06-17T10:48:22Z</time>
      </trkpt>
      <trkpt lat="49.28301" lon="-0.19316">
        <ele>5.3</ele>
        <time>2020-06-17T10:48:23Z</time>
      </trkpt>
      <trkpt lat="49.28296" lon="-0.19311">
        <ele>5.2</ele>
        <time>2020-06-17T10:48:24Z</time>
      </trkpt>
      <trkpt lat="49.28291" lon="-0.19308">
        <ele>5.1</ele>
        <time>2020-06-17T10:48:25Z</time>
      </trkpt>
      <trkpt lat="49.28283" lon="-0.19305">
        <ele>5</ele>
        <time>2020-06-17T10:48:26Z</time>
      </trkpt>
      <trkpt lat="49.28278" lon="-0.193">
        <ele>4.9</ele>
        <time>2020-06-17T10:48:27Z</time>
      </trkpt>
      <trkpt lat="49.28273" lon="-0.19297">
        <ele>4.9</ele>
        <time>2020-06-17T10:48:28Z</time>
      </trkpt>
      <trkpt lat="49.28267" lon="-0.19293">
        <ele>4.8</ele>
        <time>2020-06-17T10:48:29Z</time>
      </trkpt>
      <trkpt lat="49.28263" lon="-0.19291">
        <ele>4.8</ele>
        <time>2020-06-17T10:48:30Z</time>
      </trkpt>
      <trkpt lat="49.28258" lon="-0.19288">
        <ele>4.8</ele>
        <time>2020-06-17T10:48:31Z</time>
      </trkpt>
      <trkpt lat="49.28253" lon="-0.19285">
        <ele>4.8</ele>
        <time>2020-06-17T10:48:32Z</time>
      </trkpt>
      <trkpt lat="49.28249" lon="-0.19281">
        <ele>4.8</ele>
        <time>2020-06-17T10:48:33Z</time>
      </trkpt>
      <trkpt lat="49.28248" lon="-0.1928">
        <ele>4.8</ele>
        <time>2020-06-17T10:48:34Z</time>
      </trkpt>
      <trkpt lat="49.28249" lon="-0.19279">
        <ele>4.8</ele>
        <time>2020-06-17T10:48:35Z</time>
      </trkpt>
      <trkpt lat="49.28249" lon="-0.19276">
        <ele>4.8</ele>
        <time>2020-06-17T10:48:36Z</time>
      </trkpt>
      <trkpt lat="49.2825" lon="-0.1927">
        <ele>4.8</ele>
        <time>2020-06-17T10:48:37Z</time>
      </trkpt>
      <trkpt lat="49.28251" lon="-0.19267">
        <ele>4.8</ele>
        <time>2020-06-17T10:48:38Z</time>
      </trkpt>
      <trkpt lat="49.28255" lon="-0.19258">
        <ele>4.8</ele>
        <time>2020-06-17T10:48:39Z</time>
      </trkpt>
      <trkpt lat="49.28258" lon="-0.19251">
        <ele>4.8</ele>
        <time>2020-06-17T10:48:40Z</time>
      </trkpt>
      <trkpt lat="49.28259" lon="-0.19245">
        <ele>4.8</ele>
        <time>2020-06-17T10:48:41Z</time>
      </trkpt>
      <trkpt lat="49.28261" lon="-0.19238">
        <ele>4.8</ele>
        <time>2020-06-17T10:48:42Z</time>
      </trkpt>
      <trkpt lat="49.28263" lon="-0.19231">
        <ele>4.7</ele>
        <time>2020-06-17T10:48:43Z</time>
      </trkpt>
      <trkpt lat="49.28264" lon="-0.19222">
        <ele>4.7</ele>
        <time>2020-06-17T10:48:44Z</time>
      </trkpt>
      <trkpt lat="49.28266" lon="-0.19216">
        <ele>4.7</ele>
        <time>2020-06-17T10:48:45Z</time>
      </trkpt>
      <trkpt lat="49.28268" lon="-0.19209">
        <ele>4.7</ele>
        <time>2020-06-17T10:48:46Z</time>
      </trkpt>
      <trkpt lat="49.2827" lon="-0.19202">
        <ele>4.7</ele>
        <time>2020-06-17T10:48:47Z</time>
      </trkpt>
      <trkpt lat="49.28274" lon="-0.19198">
        <ele>4.7</ele>
        <time>2020-06-17T10:48:48Z</time>
      </trkpt>
      <trkpt lat="49.28276" lon="-0.19192">
        <ele>4.6</ele>
        <time>2020-06-17T10:48:49Z</time>
      </trkpt>
      <trkpt lat="49.28278" lon="-0.19185">
        <ele>4.6</ele>
        <time>2020-06-17T10:48:50Z</time>
      </trkpt>
      <trkpt lat="49.28281" lon="-0.19179">
        <ele>4.6</ele>
        <time>2020-06-17T10:48:51Z</time>
      </trkpt>
      <trkpt lat="49.28283" lon="-0.19171">
        <ele>4.6</ele>
        <time>2020-06-17T10:48:52Z</time>
      </trkpt>
      <trkpt lat="49.28285" lon="-0.19164">
        <ele>4.6</ele>
        <time>2020-06-17T10:48:53Z</time>
      </trkpt>
      <trkpt lat="49.28287" lon="-0.19157">
        <ele>4.6</ele>
        <time>2020-06-17T10:48:54Z</time>
      </trkpt>
      <trkpt lat="49.28288" lon="-0.19149">
        <ele>4.6</ele>
        <time>2020-06-17T10:48:55Z</time>
      </trkpt>
      <trkpt lat="49.28291" lon="-0.1914">
        <ele>4.6</ele>
        <time>2020-06-17T10:48:56Z</time>
      </trkpt>
      <trkpt lat="49.28294" lon="-0.19131">
        <ele>4.5</ele>
        <time>2020-06-17T10:48:57Z</time>
      </trkpt>
      <trkpt lat="49.28296" lon="-0.19126">
        <ele>4.5</ele>
        <time>2020-06-17T10:48:58Z</time>
      </trkpt>
      <trkpt lat="49.28298" lon="-0.19119">
        <ele>4.5</ele>
        <time>2020-06-17T10:48:59Z</time>
      </trkpt>
      <trkpt lat="49.28301" lon="-0.19112">
        <ele>4.5</ele>
        <time>2020-06-17T10:49:00Z</time>
      </trkpt>
      <trkpt lat="49.28303" lon="-0.19105">
        <ele>4.5</ele>
        <time>2020-06-17T10:49:01Z</time>
      </trkpt>
      <trkpt lat="49.28306" lon="-0.19098">
        <ele>4.5</ele>
        <time>2020-06-17T10:49:02Z</time>
      </trkpt>
      <trkpt lat="49.28308" lon="-0.1909">
        <ele>4.5</ele>
        <time>2020-06-17T10:49:03Z</time>
      </trkpt>
      <trkpt lat="49.28311" lon="-0.19084">
        <ele>4.5</ele>
        <time>2020-06-17T10:49:04Z</time>
      </trkpt>
      <trkpt lat="49.28313" lon="-0.19076">
        <ele>4.5</ele>
        <time>2020-06-17T10:49:05Z</time>
      </trkpt>
      <trkpt lat="49.28315" lon="-0.19069">
        <ele>4.5</ele>
        <time>2020-06-17T10:49:06Z</time>
      </trkpt>
      <trkpt lat="49.28317" lon="-0.19064">
        <ele>4.5</ele>
        <time>2020-06-17T10:49:07Z</time>
      </trkpt>
      <trkpt lat="49.28318" lon="-0.19057">
        <ele>4.5</ele>
        <time>2020-06-17T10:49:08Z</time>
      </trkpt>
      <trkpt lat="49.28319" lon="-0.1905">
        <ele>4.6</ele>
        <time>2020-06-17T10:49:09Z</time>
      </trkpt>
      <trkpt lat="49.2832" lon="-0.19044">
        <ele>4.6</ele>
        <time>2020-06-17T10:49:10Z</time>
      </trkpt>
      <trkpt lat="49.28322" lon="-0.19037">
        <ele>4.5</ele>
        <time>2020-06-17T10:49:11Z</time>
      </trkpt>
      <trkpt lat="49.28322" lon="-0.1903">
        <ele>4.5</ele>
        <time>2020-06-17T10:49:12Z</time>
      </trkpt>
      <trkpt lat="49.28323" lon="-0.19021">
        <ele>4.5</ele>
        <time>2020-06-17T10:49:13Z</time>
      </trkpt>
      <trkpt lat="49.28324" lon="-0.19014">
        <ele>4.5</ele>
        <time>2020-06-17T10:49:14Z</time>
      </trkpt>
      <trkpt lat="49.28326" lon="-0.19008">
        <ele>4.4</ele>
        <time>2020-06-17T10:49:15Z</time>
      </trkpt>
      <trkpt lat="49.28326" lon="-0.18999">
        <ele>4.4</ele>
        <time>2020-06-17T10:49:16Z</time>
      </trkpt>
      <trkpt lat="49.28328" lon="-0.18992">
        <ele>4.4</ele>
        <time>2020-06-17T10:49:17Z</time>
      </trkpt>
      <trkpt lat="49.28329" lon="-0.18984">
        <ele>4.4</ele>
        <time>2020-06-17T10:49:18Z</time>
      </trkpt>
      <trkpt lat="49.28331" lon="-0.18976">
        <ele>4.4</ele>
        <time>2020-06-17T10:49:19Z</time>
      </trkpt>
      <trkpt lat="49.28333" lon="-0.18968">
        <ele>4.4</ele>
        <time>2020-06-17T10:49:20Z</time>
      </trkpt>
      <trkpt lat="49.28333" lon="-0.18959">
        <ele>4.4</ele>
        <time>2020-06-17T10:49:21Z</time>
      </trkpt>
      <trkpt lat="49.28335" lon="-0.1895">
        <ele>4.4</ele>
        <time>2020-06-17T10:49:22Z</time>
      </trkpt>
      <trkpt lat="49.28337" lon="-0.18941">
        <ele>4.5</ele>
        <time>2020-06-17T10:49:23Z</time>
      </trkpt>
      <trkpt lat="49.28338" lon="-0.18934">
        <ele>4.5</ele>
        <time>2020-06-17T10:49:24Z</time>
      </trkpt>
      <trkpt lat="49.28339" lon="-0.18925">
        <ele>4.5</ele>
        <time>2020-06-17T10:49:25Z</time>
      </trkpt>
      <trkpt lat="49.28341" lon="-0.18917">
        <ele>4.5</ele>
        <time>2020-06-17T10:49:26Z</time>
      </trkpt>
      <trkpt lat="49.28342" lon="-0.18909">
        <ele>4.5</ele>
        <time>2020-06-17T10:49:27Z</time>
      </trkpt>
      <trkpt lat="49.28343" lon="-0.189">
        <ele>4.5</ele>
        <time>2020-06-17T10:49:28Z</time>
      </trkpt>
      <trkpt lat="49.28345" lon="-0.18892">
        <ele>4.5</ele>
        <time>2020-06-17T10:49:29Z</time>
      </trkpt>
      <trkpt lat="49.28346" lon="-0.18883">
        <ele>4.5</ele>
        <time>2020-06-17T10:49:30Z</time>
      </trkpt>
      <trkpt lat="49.28348" lon="-0.18875">
        <ele>4.5</ele>
        <time>2020-06-17T10:49:31Z</time>
      </trkpt>
      <trkpt lat="49.2835" lon="-0.18867">
        <ele>4.5</ele>
        <time>2020-06-17T10:49:32Z</time>
      </trkpt>
      <trkpt lat="49.28352" lon="-0.1886">
        <ele>4.5</ele>
        <time>2020-06-17T10:49:33Z</time>
      </trkpt>
      <trkpt lat="49.28353" lon="-0.18852">
        <ele>4.5</ele>
        <time>2020-06-17T10:49:34Z</time>
      </trkpt>
      <trkpt lat="49.28355" lon="-0.18844">
        <ele>4.6</ele>
        <time>2020-06-17T10:49:35Z</time>
      </trkpt>
      <trkpt lat="49.28357" lon="-0.18837">
        <ele>4.6</ele>
        <time>2020-06-17T10:49:36Z</time>
      </trkpt>
      <trkpt lat="49.28359" lon="-0.18829">
        <ele>4.6</ele>
        <time>2020-06-17T10:49:37Z</time>
      </trkpt>
      <trkpt lat="49.28361" lon="-0.18821">
        <ele>4.6</ele>
        <time>2020-06-17T10:49:38Z</time>
      </trkpt>
      <trkpt lat="49.28364" lon="-0.18813">
        <ele>4.5</ele>
        <time>2020-06-17T10:49:39Z</time>
      </trkpt>
      <trkpt lat="49.28366" lon="-0.18805">
        <ele>4.5</ele>
        <time>2020-06-17T10:49:40Z</time>
      </trkpt>
      <trkpt lat="49.28369" lon="-0.18797">
        <ele>4.5</ele>
        <time>2020-06-17T10:49:41Z</time>
      </trkpt>
      <trkpt lat="49.28371" lon="-0.18789">
        <ele>4.5</ele>
        <time>2020-06-17T10:49:42Z</time>
      </trkpt>
      <trkpt lat="49.28374" lon="-0.18781">
        <ele>4.5</ele>
        <time>2020-06-17T10:49:43Z</time>
      </trkpt>
      <trkpt lat="49.28375" lon="-0.18772">
        <ele>4.5</ele>
        <time>2020-06-17T10:49:44Z</time>
      </trkpt>
      <trkpt lat="49.28377" lon="-0.18764">
        <ele>4.5</ele>
        <time>2020-06-17T10:49:45Z</time>
      </trkpt>
      <trkpt lat="49.28379" lon="-0.18756">
        <ele>4.5</ele>
        <time>2020-06-17T10:49:46Z</time>
      </trkpt>
      <trkpt lat="49.28381" lon="-0.18748">
        <ele>4.5</ele>
        <time>2020-06-17T10:49:47Z</time>
      </trkpt>
      <trkpt lat="49.28384" lon="-0.18742">
        <ele>4.5</ele>
        <time>2020-06-17T10:49:48Z</time>
      </trkpt>
      <trkpt lat="49.28386" lon="-0.18736">
        <ele>4.5</ele>
        <time>2020-06-17T10:49:49Z</time>
      </trkpt>
      <trkpt lat="49.28388" lon="-0.18729">
        <ele>4.5</ele>
        <time>2020-06-17T10:49:50Z</time>
      </trkpt>
      <trkpt lat="49.2839" lon="-0.18722">
        <ele>4.5</ele>
        <time>2020-06-17T10:49:51Z</time>
      </trkpt>
      <trkpt lat="49.28393" lon="-0.18715">
        <ele>4.5</ele>
        <time>2020-06-17T10:49:52Z</time>
      </trkpt>
      <trkpt lat="49.28396" lon="-0.18708">
        <ele>4.5</ele>
        <time>2020-06-17T10:49:53Z</time>
      </trkpt>
      <trkpt lat="49.28399" lon="-0.18702">
        <ele>4.5</ele>
        <time>2020-06-17T10:49:54Z</time>
      </trkpt>
      <trkpt lat="49.28401" lon="-0.18695">
        <ele>4.5</ele>
        <time>2020-06-17T10:49:55Z</time>
      </trkpt>
      <trkpt lat="49.28404" lon="-0.18688">
        <ele>4.5</ele>
        <time>2020-06-17T10:49:56Z</time>
      </trkpt>
      <trkpt lat="49.28407" lon="-0.1868">
        <ele>4.5</ele>
        <time>2020-06-17T10:49:57Z</time>
      </trkpt>
      <trkpt lat="49.28409" lon="-0.18671">
        <ele>4.5</ele>
        <time>2020-06-17T10:49:58Z</time>
      </trkpt>
      <trkpt lat="49.28412" lon="-0.18663">
        <ele>4.5</ele>
        <time>2020-06-17T10:49:59Z</time>
      </trkpt>
      <trkpt lat="49.28415" lon="-0.18654">
        <ele>4.5</ele>
        <time>2020-06-17T10:50:00Z</time>
      </trkpt>
      <trkpt lat="49.28418" lon="-0.18646">
        <ele>4.5</ele>
        <time>2020-06-17T10:50:01Z</time>
      </trkpt>
      <trkpt lat="49.2842" lon="-0.18638">
        <ele>4.5</ele>
        <time>2020-06-17T10:50:02Z</time>
      </trkpt>
      <trkpt lat="49.28424" lon="-0.1863">
        <ele>4.5</ele>
        <time>2020-06-17T10:50:03Z</time>
      </trkpt>
      <trkpt lat="49.28427" lon="-0.18623">
        <ele>4.5</ele>
        <time>2020-06-17T10:50:04Z</time>
      </trkpt>
      <trkpt lat="49.28431" lon="-0.18616">
        <ele>4.5</ele>
        <time>2020-06-17T10:50:05Z</time>
      </trkpt>
      <trkpt lat="49.28434" lon="-0.18608">
        <ele>4.6</ele>
        <time>2020-06-17T10:50:06Z</time>
      </trkpt>
      <trkpt lat="49.28436" lon="-0.18599">
        <ele>4.6</ele>
        <time>2020-06-17T10:50:07Z</time>
      </trkpt>
      <trkpt lat="49.28439" lon="-0.18591">
        <ele>4.6</ele>
        <time>2020-06-17T10:50:08Z</time>
      </trkpt>
      <trkpt lat="49.28441" lon="-0.18583">
        <ele>4.7</ele>
        <time>2020-06-17T10:50:09Z</time>
      </trkpt>
      <trkpt lat="49.28444" lon="-0.18575">
        <ele>4.7</ele>
        <time>2020-06-17T10:50:10Z</time>
      </trkpt>
      <trkpt lat="49.28446" lon="-0.18566">
        <ele>4.7</ele>
        <time>2020-06-17T10:50:11Z</time>
      </trkpt>
      <trkpt lat="49.2845" lon="-0.18558">
        <ele>4.7</ele>
        <time>2020-06-17T10:50:12Z</time>
      </trkpt>
      <trkpt lat="49.28452" lon="-0.18548">
        <ele>4.7</ele>
        <time>2020-06-17T10:50:13Z</time>
      </trkpt>
      <trkpt lat="49.28455" lon="-0.18537">
        <ele>4.7</ele>
        <time>2020-06-17T10:50:14Z</time>
      </trkpt>
      <trkpt lat="49.28457" lon="-0.18527">
        <ele>4.6</ele>
        <time>2020-06-17T10:50:15Z</time>
      </trkpt>
      <trkpt lat="49.28459" lon="-0.18519">
        <ele>4.6</ele>
        <time>2020-06-17T10:50:16Z</time>
      </trkpt>
      <trkpt lat="49.28461" lon="-0.18509">
        <ele>4.6</ele>
        <time>2020-06-17T10:50:17Z</time>
      </trkpt>
      <trkpt lat="49.28463" lon="-0.18498">
        <ele>4.6</ele>
        <time>2020-06-17T10:50:18Z</time>
      </trkpt>
      <trkpt lat="49.28465" lon="-0.18489">
        <ele>4.6</ele>
        <time>2020-06-17T10:50:19Z</time>
      </trkpt>
      <trkpt lat="49.28466" lon="-0.18478">
        <ele>4.7</ele>
        <time>2020-06-17T10:50:20Z</time>
      </trkpt>
      <trkpt lat="49.28468" lon="-0.18467">
        <ele>4.7</ele>
        <time>2020-06-17T10:50:21Z</time>
      </trkpt>
      <trkpt lat="49.2847" lon="-0.18456">
        <ele>4.7</ele>
        <time>2020-06-17T10:50:22Z</time>
      </trkpt>
      <trkpt lat="49.28471" lon="-0.18447">
        <ele>4.7</ele>
        <time>2020-06-17T10:50:23Z</time>
      </trkpt>
      <trkpt lat="49.28473" lon="-0.18437">
        <ele>4.7</ele>
        <time>2020-06-17T10:50:24Z</time>
      </trkpt>
      <trkpt lat="49.28474" lon="-0.18427">
        <ele>4.7</ele>
        <time>2020-06-17T10:50:25Z</time>
      </trkpt>
      <trkpt lat="49.28474" lon="-0.18417">
        <ele>4.7</ele>
        <time>2020-06-17T10:50:26Z</time>
      </trkpt>
      <trkpt lat="49.28475" lon="-0.18407">
        <ele>4.7</ele>
        <time>2020-06-17T10:50:27Z</time>
      </trkpt>
      <trkpt lat="49.28474" lon="-0.18396">
        <ele>4.7</ele>
        <time>2020-06-17T10:50:28Z</time>
      </trkpt>
      <trkpt lat="49.28475" lon="-0.18386">
        <ele>4.7</ele>
        <time>2020-06-17T10:50:29Z</time>
      </trkpt>
      <trkpt lat="49.28475" lon="-0.18376">
        <ele>4.7</ele>
        <time>2020-06-17T10:50:30Z</time>
      </trkpt>
      <trkpt lat="49.28475" lon="-0.18365">
        <ele>4.7</ele>
        <time>2020-06-17T10:50:31Z</time>
      </trkpt>
      <trkpt lat="49.28475" lon="-0.18355">
        <ele>4.7</ele>
        <time>2020-06-17T10:50:32Z</time>
      </trkpt>
      <trkpt lat="49.28475" lon="-0.18344">
        <ele>4.7</ele>
        <time>2020-06-17T10:50:33Z</time>
      </trkpt>
      <trkpt lat="49.28474" lon="-0.18334">
        <ele>4.7</ele>
        <time>2020-06-17T10:50:34Z</time>
      </trkpt>
      <trkpt lat="49.28474" lon="-0.18323">
        <ele>4.8</ele>
        <time>2020-06-17T10:50:35Z</time>
      </trkpt>
      <trkpt lat="49.28473" lon="-0.18313">
        <ele>4.8</ele>
        <time>2020-06-17T10:50:36Z</time>
      </trkpt>
      <trkpt lat="49.28472" lon="-0.18303">
        <ele>4.8</ele>
        <time>2020-06-17T10:50:37Z</time>
      </trkpt>
      <trkpt lat="49.28472" lon="-0.18293">
        <ele>4.9</ele>
        <time>2020-06-17T10:50:38Z</time>
      </trkpt>
      <trkpt lat="49.28471" lon="-0.18283">
        <ele>4.9</ele>
        <time>2020-06-17T10:50:39Z</time>
      </trkpt>
      <trkpt lat="49.28471" lon="-0.18273">
        <ele>4.9</ele>
        <time>2020-06-17T10:50:40Z</time>
      </trkpt>
      <trkpt lat="49.2847" lon="-0.18263">
        <ele>5</ele>
        <time>2020-06-17T10:50:41Z</time>
      </trkpt>
      <trkpt lat="49.2847" lon="-0.18253">
        <ele>5</ele>
        <time>2020-06-17T10:50:42Z</time>
      </trkpt>
      <trkpt lat="49.28469" lon="-0.18244">
        <ele>5</ele>
        <time>2020-06-17T10:50:43Z</time>
      </trkpt>
      <trkpt lat="49.28469" lon="-0.18234">
        <ele>5</ele>
        <time>2020-06-17T10:50:44Z</time>
      </trkpt>
      <trkpt lat="49.28469" lon="-0.18223">
        <ele>5</ele>
        <time>2020-06-17T10:50:45Z</time>
      </trkpt>
      <trkpt lat="49.28468" lon="-0.18213">
        <ele>4.9</ele>
        <time>2020-06-17T10:50:46Z</time>
      </trkpt>
      <trkpt lat="49.28468" lon="-0.18203">
        <ele>4.9</ele>
        <time>2020-06-17T10:50:47Z</time>
      </trkpt>
      <trkpt lat="49.28467" lon="-0.18193">
        <ele>4.9</ele>
        <time>2020-06-17T10:50:48Z</time>
      </trkpt>
      <trkpt lat="49.28466" lon="-0.18183">
        <ele>4.8</ele>
        <time>2020-06-17T10:50:49Z</time>
      </trkpt>
      <trkpt lat="49.28464" lon="-0.18172">
        <ele>4.8</ele>
        <time>2020-06-17T10:50:50Z</time>
      </trkpt>
      <trkpt lat="49.28464" lon="-0.18161">
        <ele>4.8</ele>
        <time>2020-06-17T10:50:51Z</time>
      </trkpt>
      <trkpt lat="49.28463" lon="-0.1815">
        <ele>4.7</ele>
        <time>2020-06-17T10:50:52Z</time>
      </trkpt>
      <trkpt lat="49.28462" lon="-0.18139">
        <ele>4.7</ele>
        <time>2020-06-17T10:50:53Z</time>
      </trkpt>
      <trkpt lat="49.28461" lon="-0.18128">
        <ele>4.7</ele>
        <time>2020-06-17T10:50:54Z</time>
      </trkpt>
      <trkpt lat="49.28461" lon="-0.18117">
        <ele>4.7</ele>
        <time>2020-06-17T10:50:55Z</time>
      </trkpt>
      <trkpt lat="49.2846" lon="-0.18106">
        <ele>4.7</ele>
        <time>2020-06-17T10:50:56Z</time>
      </trkpt>
      <trkpt lat="49.28459" lon="-0.18096">
        <ele>4.7</ele>
        <time>2020-06-17T10:50:57Z</time>
      </trkpt>
      <trkpt lat="49.28458" lon="-0.18087">
        <ele>4.7</ele>
        <time>2020-06-17T10:50:58Z</time>
      </trkpt>
      <trkpt lat="49.28458" lon="-0.18076">
        <ele>4.7</ele>
        <time>2020-06-17T10:50:59Z</time>
      </trkpt>
      <trkpt lat="49.28457" lon="-0.18065">
        <ele>4.7</ele>
        <time>2020-06-17T10:51:00Z</time>
      </trkpt>
      <trkpt lat="49.28456" lon="-0.18054">
        <ele>4.6</ele>
        <time>2020-06-17T10:51:01Z</time>
      </trkpt>
      <trkpt lat="49.28456" lon="-0.18043">
        <ele>4.6</ele>
        <time>2020-06-17T10:51:02Z</time>
      </trkpt>
      <trkpt lat="49.28456" lon="-0.18032">
        <ele>4.6</ele>
        <time>2020-06-17T10:51:03Z</time>
      </trkpt>
      <trkpt lat="49.28455" lon="-0.18021">
        <ele>4.6</ele>
        <time>2020-06-17T10:51:04Z</time>
      </trkpt>
      <trkpt lat="49.28454" lon="-0.18011">
        <ele>4.6</ele>
        <time>2020-06-17T10:51:05Z</time>
      </trkpt>
      <trkpt lat="49.28453" lon="-0.18001">
        <ele>4.6</ele>
        <time>2020-06-17T10:51:06Z</time>
      </trkpt>
      <trkpt lat="49.28452" lon="-0.1799">
        <ele>4.6</ele>
        <time>2020-06-17T10:51:07Z</time>
      </trkpt>
      <trkpt lat="49.28452" lon="-0.1798">
        <ele>4.5</ele>
        <time>2020-06-17T10:51:08Z</time>
      </trkpt>
      <trkpt lat="49.28452" lon="-0.17969">
        <ele>4.5</ele>
        <time>2020-06-17T10:51:09Z</time>
      </trkpt>
      <trkpt lat="49.28452" lon="-0.17958">
        <ele>4.5</ele>
        <time>2020-06-17T10:51:10Z</time>
      </trkpt>
      <trkpt lat="49.28452" lon="-0.17947">
        <ele>4.5</ele>
        <time>2020-06-17T10:51:11Z</time>
      </trkpt>
      <trkpt lat="49.28453" lon="-0.17936">
        <ele>4.5</ele>
        <time>2020-06-17T10:51:12Z</time>
      </trkpt>
      <trkpt lat="49.28453" lon="-0.17926">
        <ele>4.5</ele>
        <time>2020-06-17T10:51:13Z</time>
      </trkpt>
      <trkpt lat="49.28454" lon="-0.17915">
        <ele>4.5</ele>
        <time>2020-06-17T10:51:14Z</time>
      </trkpt>
      <trkpt lat="49.28455" lon="-0.17905">
        <ele>4.5</ele>
        <time>2020-06-17T10:51:15Z</time>
      </trkpt>
      <trkpt lat="49.28457" lon="-0.17895">
        <ele>4.5</ele>
        <time>2020-06-17T10:51:16Z</time>
      </trkpt>
      <trkpt lat="49.28459" lon="-0.17885">
        <ele>4.5</ele>
        <time>2020-06-17T10:51:17Z</time>
      </trkpt>
      <trkpt lat="49.28459" lon="-0.17876">
        <ele>4.6</ele>
        <time>2020-06-17T10:51:18Z</time>
      </trkpt>
      <trkpt lat="49.28461" lon="-0.17867">
        <ele>4.6</ele>
        <time>2020-06-17T10:51:19Z</time>
      </trkpt>
      <trkpt lat="49.28462" lon="-0.17858">
        <ele>4.6</ele>
        <time>2020-06-17T10:51:20Z</time>
      </trkpt>
      <trkpt lat="49.28463" lon="-0.1785">
        <ele>4.6</ele>
        <time>2020-06-17T10:51:21Z</time>
      </trkpt>
      <trkpt lat="49.28464" lon="-0.17842">
        <ele>4.7</ele>
        <time>2020-06-17T10:51:22Z</time>
      </trkpt>
      <trkpt lat="49.28466" lon="-0.17835">
        <ele>4.7</ele>
        <time>2020-06-17T10:51:23Z</time>
      </trkpt>
      <trkpt lat="49.28467" lon="-0.17828">
        <ele>4.7</ele>
        <time>2020-06-17T10:51:24Z</time>
      </trkpt>
      <trkpt lat="49.28468" lon="-0.1782">
        <ele>4.7</ele>
        <time>2020-06-17T10:51:25Z</time>
      </trkpt>
      <trkpt lat="49.28468" lon="-0.17813">
        <ele>4.7</ele>
        <time>2020-06-17T10:51:26Z</time>
      </trkpt>
      <trkpt lat="49.28465" lon="-0.17807">
        <ele>4.7</ele>
        <time>2020-06-17T10:51:27Z</time>
      </trkpt>
      <trkpt lat="49.28465" lon="-0.178">
        <ele>4.7</ele>
        <time>2020-06-17T10:51:28Z</time>
      </trkpt>
      <trkpt lat="49.28466" lon="-0.17793">
        <ele>4.7</ele>
        <time>2020-06-17T10:51:29Z</time>
      </trkpt>
      <trkpt lat="49.28468" lon="-0.17787">
        <ele>4.8</ele>
        <time>2020-06-17T10:51:30Z</time>
      </trkpt>
      <trkpt lat="49.28471" lon="-0.17784">
        <ele>4.8</ele>
        <time>2020-06-17T10:51:31Z</time>
      </trkpt>
      <trkpt lat="49.28474" lon="-0.17779">
        <ele>4.8</ele>
        <time>2020-06-17T10:51:32Z</time>
      </trkpt>
      <trkpt lat="49.28476" lon="-0.17773">
        <ele>4.8</ele>
        <time>2020-06-17T10:51:33Z</time>
      </trkpt>
      <trkpt lat="49.28477" lon="-0.17766">
        <ele>4.8</ele>
        <time>2020-06-17T10:51:34Z</time>
      </trkpt>
      <trkpt lat="49.28477" lon="-0.17759">
        <ele>4.8</ele>
        <time>2020-06-17T10:51:35Z</time>
      </trkpt>
      <trkpt lat="49.28478" lon="-0.17752">
        <ele>4.8</ele>
        <time>2020-06-17T10:51:36Z</time>
      </trkpt>
      <trkpt lat="49.2848" lon="-0.17745">
        <ele>4.8</ele>
        <time>2020-06-17T10:51:37Z</time>
      </trkpt>
      <trkpt lat="49.28482" lon="-0.17737">
        <ele>4.7</ele>
        <time>2020-06-17T10:51:38Z</time>
      </trkpt>
      <trkpt lat="49.28483" lon="-0.17729">
        <ele>4.7</ele>
        <time>2020-06-17T10:51:39Z</time>
      </trkpt>
      <trkpt lat="49.28484" lon="-0.17721">
        <ele>4.7</ele>
        <time>2020-06-17T10:51:40Z</time>
      </trkpt>
      <trkpt lat="49.28485" lon="-0.17713">
        <ele>4.7</ele>
        <time>2020-06-17T10:51:41Z</time>
      </trkpt>
      <trkpt lat="49.28486" lon="-0.17705">
        <ele>4.7</ele>
        <time>2020-06-17T10:51:42Z</time>
      </trkpt>
      <trkpt lat="49.28486" lon="-0.17696">
        <ele>4.7</ele>
        <time>2020-06-17T10:51:43Z</time>
      </trkpt>
      <trkpt lat="49.28487" lon="-0.17687">
        <ele>4.7</ele>
        <time>2020-06-17T10:51:44Z</time>
      </trkpt>
      <trkpt lat="49.28487" lon="-0.17678">
        <ele>4.7</ele>
        <time>2020-06-17T10:51:45Z</time>
      </trkpt>
      <trkpt lat="49.28489" lon="-0.17669">
        <ele>4.7</ele>
        <time>2020-06-17T10:51:46Z</time>
      </trkpt>
      <trkpt lat="49.2849" lon="-0.17661">
        <ele>4.7</ele>
        <time>2020-06-17T10:51:47Z</time>
      </trkpt>
      <trkpt lat="49.28491" lon="-0.17652">
        <ele>4.7</ele>
        <time>2020-06-17T10:51:48Z</time>
      </trkpt>
      <trkpt lat="49.28492" lon="-0.17644">
        <ele>4.7</ele>
        <time>2020-06-17T10:51:49Z</time>
      </trkpt>
      <trkpt lat="49.28492" lon="-0.17635">
        <ele>4.7</ele>
        <time>2020-06-17T10:51:50Z</time>
      </trkpt>
      <trkpt lat="49.28493" lon="-0.17626">
        <ele>4.6</ele>
        <time>2020-06-17T10:51:51Z</time>
      </trkpt>
      <trkpt lat="49.28493" lon="-0.17616">
        <ele>4.6</ele>
        <time>2020-06-17T10:51:52Z</time>
      </trkpt>
      <trkpt lat="49.28492" lon="-0.17607">
        <ele>4.7</ele>
        <time>2020-06-17T10:51:53Z</time>
      </trkpt>
      <trkpt lat="49.28492" lon="-0.17598">
        <ele>4.7</ele>
        <time>2020-06-17T10:51:54Z</time>
      </trkpt>
      <trkpt lat="49.28492" lon="-0.17588">
        <ele>4.7</ele>
        <time>2020-06-17T10:51:55Z</time>
      </trkpt>
      <trkpt lat="49.28492" lon="-0.17579">
        <ele>4.6</ele>
        <time>2020-06-17T10:51:56Z</time>
      </trkpt>
      <trkpt lat="49.28491" lon="-0.17569">
        <ele>4.6</ele>
        <time>2020-06-17T10:51:57Z</time>
      </trkpt>
      <trkpt lat="49.2849" lon="-0.1756">
        <ele>4.6</ele>
        <time>2020-06-17T10:51:58Z</time>
      </trkpt>
      <trkpt lat="49.28488" lon="-0.1755">
        <ele>4.5</ele>
        <time>2020-06-17T10:51:59Z</time>
      </trkpt>
      <trkpt lat="49.28487" lon="-0.1754">
        <ele>4.5</ele>
        <time>2020-06-17T10:52:00Z</time>
      </trkpt>
      <trkpt lat="49.28486" lon="-0.1753">
        <ele>4.4</ele>
        <time>2020-06-17T10:52:01Z</time>
      </trkpt>
      <trkpt lat="49.28484" lon="-0.1752">
        <ele>4.4</ele>
        <time>2020-06-17T10:52:02Z</time>
      </trkpt>
      <trkpt lat="49.28483" lon="-0.1751">
        <ele>4.3</ele>
        <time>2020-06-17T10:52:03Z</time>
      </trkpt>
      <trkpt lat="49.28482" lon="-0.175">
        <ele>4.3</ele>
        <time>2020-06-17T10:52:04Z</time>
      </trkpt>
      <trkpt lat="49.2848" lon="-0.1749">
        <ele>4.3</ele>
        <time>2020-06-17T10:52:05Z</time>
      </trkpt>
      <trkpt lat="49.28479" lon="-0.1748">
        <ele>4.3</ele>
        <time>2020-06-17T10:52:06Z</time>
      </trkpt>
      <trkpt lat="49.28478" lon="-0.17469">
        <ele>4.3</ele>
        <time>2020-06-17T10:52:07Z</time>
      </trkpt>
      <trkpt lat="49.28476" lon="-0.17459">
        <ele>4.3</ele>
        <time>2020-06-17T10:52:08Z</time>
      </trkpt>
      <trkpt lat="49.28475" lon="-0.17449">
        <ele>4.3</ele>
        <time>2020-06-17T10:52:09Z</time>
      </trkpt>
      <trkpt lat="49.28474" lon="-0.17438">
        <ele>4.3</ele>
        <time>2020-06-17T10:52:10Z</time>
      </trkpt>
      <trkpt lat="49.28473" lon="-0.17428">
        <ele>4.3</ele>
        <time>2020-06-17T10:52:11Z</time>
      </trkpt>
      <trkpt lat="49.28472" lon="-0.17417">
        <ele>4.3</ele>
        <time>2020-06-17T10:52:12Z</time>
      </trkpt>
      <trkpt lat="49.28471" lon="-0.17407">
        <ele>4.3</ele>
        <time>2020-06-17T10:52:13Z</time>
      </trkpt>
      <trkpt lat="49.2847" lon="-0.17396">
        <ele>4.3</ele>
        <time>2020-06-17T10:52:14Z</time>
      </trkpt>
      <trkpt lat="49.28468" lon="-0.17385">
        <ele>4.4</ele>
        <time>2020-06-17T10:52:15Z</time>
      </trkpt>
      <trkpt lat="49.28467" lon="-0.17375">
        <ele>4.4</ele>
        <time>2020-06-17T10:52:16Z</time>
      </trkpt>
      <trkpt lat="49.28465" lon="-0.17364">
        <ele>4.3</ele>
        <time>2020-06-17T10:52:17Z</time>
      </trkpt>
      <trkpt lat="49.28464" lon="-0.17354">
        <ele>4.3</ele>
        <time>2020-06-17T10:52:18Z</time>
      </trkpt>
      <trkpt lat="49.28462" lon="-0.17343">
        <ele>4.3</ele>
        <time>2020-06-17T10:52:19Z</time>
      </trkpt>
      <trkpt lat="49.28461" lon="-0.17332">
        <ele>4.2</ele>
        <time>2020-06-17T10:52:20Z</time>
      </trkpt>
      <trkpt lat="49.28459" lon="-0.17321">
        <ele>4.2</ele>
        <time>2020-06-17T10:52:21Z</time>
      </trkpt>
      <trkpt lat="49.28458" lon="-0.1731">
        <ele>4.2</ele>
        <time>2020-06-17T10:52:22Z</time>
      </trkpt>
      <trkpt lat="49.28457" lon="-0.17299">
        <ele>4.1</ele>
        <time>2020-06-17T10:52:23Z</time>
      </trkpt>
      <trkpt lat="49.28456" lon="-0.17288">
        <ele>4.1</ele>
        <time>2020-06-17T10:52:24Z</time>
      </trkpt>
      <trkpt lat="49.28454" lon="-0.17277">
        <ele>4.1</ele>
        <time>2020-06-17T10:52:25Z</time>
      </trkpt>
      <trkpt lat="49.28453" lon="-0.17266">
        <ele>4.1</ele>
        <time>2020-06-17T10:52:26Z</time>
      </trkpt>
      <trkpt lat="49.28451" lon="-0.17255">
        <ele>4.1</ele>
        <time>2020-06-17T10:52:27Z</time>
      </trkpt>
      <trkpt lat="49.2845" lon="-0.17244">
        <ele>4.1</ele>
        <time>2020-06-17T10:52:28Z</time>
      </trkpt>
      <trkpt lat="49.28449" lon="-0.17234">
        <ele>4.1</ele>
        <time>2020-06-17T10:52:29Z</time>
      </trkpt>
      <trkpt lat="49.28448" lon="-0.17223">
        <ele>4.1</ele>
        <time>2020-06-17T10:52:30Z</time>
      </trkpt>
      <trkpt lat="49.28446" lon="-0.17211">
        <ele>4.1</ele>
        <time>2020-06-17T10:52:31Z</time>
      </trkpt>
      <trkpt lat="49.28445" lon="-0.172">
        <ele>4.1</ele>
        <time>2020-06-17T10:52:32Z</time>
      </trkpt>
      <trkpt lat="49.28444" lon="-0.17189">
        <ele>4.1</ele>
        <time>2020-06-17T10:52:33Z</time>
      </trkpt>
      <trkpt lat="49.28442" lon="-0.17178">
        <ele>4.1</ele>
        <time>2020-06-17T10:52:34Z</time>
      </trkpt>
      <trkpt lat="49.28441" lon="-0.17167">
        <ele>4.1</ele>
        <time>2020-06-17T10:52:35Z</time>
      </trkpt>
      <trkpt lat="49.2844" lon="-0.17157">
        <ele>4.1</ele>
        <time>2020-06-17T10:52:36Z</time>
      </trkpt>
      <trkpt lat="49.28438" lon="-0.17146">
        <ele>4.1</ele>
        <time>2020-06-17T10:52:37Z</time>
      </trkpt>
      <trkpt lat="49.28437" lon="-0.17137">
        <ele>4.1</ele>
        <time>2020-06-17T10:52:38Z</time>
      </trkpt>
      <trkpt lat="49.28436" lon="-0.17127">
        <ele>4.2</ele>
        <time>2020-06-17T10:52:39Z</time>
      </trkpt>
      <trkpt lat="49.28435" lon="-0.17117">
        <ele>4.3</ele>
        <time>2020-06-17T10:52:40Z</time>
      </trkpt>
      <trkpt lat="49.28435" lon="-0.17108">
        <ele>4.3</ele>
        <time>2020-06-17T10:52:41Z</time>
      </trkpt>
      <trkpt lat="49.28434" lon="-0.17098">
        <ele>4.4</ele>
        <time>2020-06-17T10:52:42Z</time>
      </trkpt>
      <trkpt lat="49.28433" lon="-0.17089">
        <ele>4.4</ele>
        <time>2020-06-17T10:52:43Z</time>
      </trkpt>
      <trkpt lat="49.28431" lon="-0.17079">
        <ele>4.4</ele>
        <time>2020-06-17T10:52:44Z</time>
      </trkpt>
      <trkpt lat="49.28431" lon="-0.1707">
        <ele>4.4</ele>
        <time>2020-06-17T10:52:45Z</time>
      </trkpt>
      <trkpt lat="49.2843" lon="-0.17061">
        <ele>4.4</ele>
        <time>2020-06-17T10:52:46Z</time>
      </trkpt>
      <trkpt lat="49.28428" lon="-0.17051">
        <ele>4.4</ele>
        <time>2020-06-17T10:52:47Z</time>
      </trkpt>
      <trkpt lat="49.28427" lon="-0.17041">
        <ele>4.4</ele>
        <time>2020-06-17T10:52:48Z</time>
      </trkpt>
      <trkpt lat="49.28426" lon="-0.17032">
        <ele>4.4</ele>
        <time>2020-06-17T10:52:49Z</time>
      </trkpt>
      <trkpt lat="49.28425" lon="-0.17023">
        <ele>4.4</ele>
        <time>2020-06-17T10:52:50Z</time>
      </trkpt>
      <trkpt lat="49.28425" lon="-0.17014">
        <ele>4.4</ele>
        <time>2020-06-17T10:52:51Z</time>
      </trkpt>
      <trkpt lat="49.28425" lon="-0.17005">
        <ele>4.4</ele>
        <time>2020-06-17T10:52:52Z</time>
      </trkpt>
      <trkpt lat="49.28426" lon="-0.16996">
        <ele>4.4</ele>
        <time>2020-06-17T10:52:53Z</time>
      </trkpt>
      <trkpt lat="49.28425" lon="-0.16987">
        <ele>4.5</ele>
        <time>2020-06-17T10:52:54Z</time>
      </trkpt>
      <trkpt lat="49.28425" lon="-0.16979">
        <ele>4.5</ele>
        <time>2020-06-17T10:52:55Z</time>
      </trkpt>
      <trkpt lat="49.28426" lon="-0.16971">
        <ele>4.6</ele>
        <time>2020-06-17T10:52:56Z</time>
      </trkpt>
      <trkpt lat="49.28427" lon="-0.16963">
        <ele>4.6</ele>
        <time>2020-06-17T10:52:57Z</time>
      </trkpt>
      <trkpt lat="49.28427" lon="-0.16956">
        <ele>4.6</ele>
        <time>2020-06-17T10:52:58Z</time>
      </trkpt>
      <trkpt lat="49.28428" lon="-0.16949">
        <ele>4.6</ele>
        <time>2020-06-17T10:52:59Z</time>
      </trkpt>
      <trkpt lat="49.28429" lon="-0.16942">
        <ele>4.6</ele>
        <time>2020-06-17T10:53:00Z</time>
      </trkpt>
      <trkpt lat="49.28429" lon="-0.16934">
        <ele>4.6</ele>
        <time>2020-06-17T10:53:01Z</time>
      </trkpt>
      <trkpt lat="49.2843" lon="-0.16927">
        <ele>4.6</ele>
        <time>2020-06-17T10:53:02Z</time>
      </trkpt>
      <trkpt lat="49.28431" lon="-0.16919">
        <ele>4.6</ele>
        <time>2020-06-17T10:53:03Z</time>
      </trkpt>
      <trkpt lat="49.28433" lon="-0.16912">
        <ele>4.5</ele>
        <time>2020-06-17T10:53:04Z</time>
      </trkpt>
      <trkpt lat="49.28434" lon="-0.16904">
        <ele>4.5</ele>
        <time>2020-06-17T10:53:05Z</time>
      </trkpt>
      <trkpt lat="49.28436" lon="-0.16895">
        <ele>4.5</ele>
        <time>2020-06-17T10:53:06Z</time>
      </trkpt>
      <trkpt lat="49.28437" lon="-0.16886">
        <ele>4.5</ele>
        <time>2020-06-17T10:53:07Z</time>
      </trkpt>
      <trkpt lat="49.28438" lon="-0.16877">
        <ele>4.5</ele>
        <time>2020-06-17T10:53:08Z</time>
      </trkpt>
      <trkpt lat="49.2844" lon="-0.16869">
        <ele>4.5</ele>
        <time>2020-06-17T10:53:09Z</time>
      </trkpt>
      <trkpt lat="49.2844" lon="-0.16862">
        <ele>4.5</ele>
        <time>2020-06-17T10:53:10Z</time>
      </trkpt>
      <trkpt lat="49.2844" lon="-0.16854">
        <ele>4.5</ele>
        <time>2020-06-17T10:53:11Z</time>
      </trkpt>
      <trkpt lat="49.28439" lon="-0.16846">
        <ele>4.5</ele>
        <time>2020-06-17T10:53:12Z</time>
      </trkpt>
      <trkpt lat="49.28441" lon="-0.16838">
        <ele>4.5</ele>
        <time>2020-06-17T10:53:13Z</time>
      </trkpt>
      <trkpt lat="49.28441" lon="-0.16829">
        <ele>4.5</ele>
        <time>2020-06-17T10:53:14Z</time>
      </trkpt>
      <trkpt lat="49.28442" lon="-0.1682">
        <ele>4.5</ele>
        <time>2020-06-17T10:53:15Z</time>
      </trkpt>
      <trkpt lat="49.28443" lon="-0.16811">
        <ele>4.5</ele>
        <time>2020-06-17T10:53:16Z</time>
      </trkpt>
      <trkpt lat="49.28443" lon="-0.16803">
        <ele>4.5</ele>
        <time>2020-06-17T10:53:17Z</time>
      </trkpt>
      <trkpt lat="49.28444" lon="-0.16794">
        <ele>4.4</ele>
        <time>2020-06-17T10:53:18Z</time>
      </trkpt>
      <trkpt lat="49.28446" lon="-0.16785">
        <ele>4.5</ele>
        <time>2020-06-17T10:53:19Z</time>
      </trkpt>
      <trkpt lat="49.28447" lon="-0.16776">
        <ele>4.5</ele>
        <time>2020-06-17T10:53:20Z</time>
      </trkpt>
      <trkpt lat="49.28448" lon="-0.16767">
        <ele>4.5</ele>
        <time>2020-06-17T10:53:21Z</time>
      </trkpt>
      <trkpt lat="49.28449" lon="-0.16759">
        <ele>4.6</ele>
        <time>2020-06-17T10:53:22Z</time>
      </trkpt>
      <trkpt lat="49.28449" lon="-0.16751">
        <ele>4.6</ele>
        <time>2020-06-17T10:53:23Z</time>
      </trkpt>
      <trkpt lat="49.28449" lon="-0.16743">
        <ele>4.7</ele>
        <time>2020-06-17T10:53:24Z</time>
      </trkpt>
      <trkpt lat="49.2845" lon="-0.16734">
        <ele>4.7</ele>
        <time>2020-06-17T10:53:25Z</time>
      </trkpt>
      <trkpt lat="49.28449" lon="-0.16726">
        <ele>4.8</ele>
        <time>2020-06-17T10:53:26Z</time>
      </trkpt>
      <trkpt lat="49.28448" lon="-0.16718">
        <ele>4.9</ele>
        <time>2020-06-17T10:53:27Z</time>
      </trkpt>
      <trkpt lat="49.28447" lon="-0.16709">
        <ele>5</ele>
        <time>2020-06-17T10:53:28Z</time>
      </trkpt>
      <trkpt lat="49.28447" lon="-0.16701">
        <ele>5</ele>
        <time>2020-06-17T10:53:29Z</time>
      </trkpt>
      <trkpt lat="49.28447" lon="-0.16693">
        <ele>5.1</ele>
        <time>2020-06-17T10:53:30Z</time>
      </trkpt>
      <trkpt lat="49.28445" lon="-0.16688">
        <ele>5.2</ele>
        <time>2020-06-17T10:53:31Z</time>
      </trkpt>
      <trkpt lat="49.28443" lon="-0.16683">
        <ele>5.2</ele>
        <time>2020-06-17T10:53:32Z</time>
      </trkpt>
      <trkpt lat="49.28439" lon="-0.16685">
        <ele>5.2</ele>
        <time>2020-06-17T10:53:33Z</time>
      </trkpt>
      <trkpt lat="49.28435" lon="-0.16685">
        <ele>5.1</ele>
        <time>2020-06-17T10:53:34Z</time>
      </trkpt>
      <trkpt lat="49.28431" lon="-0.16685">
        <ele>5.1</ele>
        <time>2020-06-17T10:53:35Z</time>
      </trkpt>
      <trkpt lat="49.28427" lon="-0.16685">
        <ele>5.1</ele>
        <time>2020-06-17T10:53:36Z</time>
      </trkpt>
      <trkpt lat="49.28423" lon="-0.16683">
        <ele>5.1</ele>
        <time>2020-06-17T10:53:37Z</time>
      </trkpt>
      <trkpt lat="49.28419" lon="-0.16681">
        <ele>5.2</ele>
        <time>2020-06-17T10:53:38Z</time>
      </trkpt>
      <trkpt lat="49.28415" lon="-0.1668">
        <ele>5.2</ele>
        <time>2020-06-17T10:53:39Z</time>
      </trkpt>
      <trkpt lat="49.2841" lon="-0.1668">
        <ele>5.3</ele>
        <time>2020-06-17T10:53:40Z</time>
      </trkpt>
      <trkpt lat="49.28406" lon="-0.1668">
        <ele>5.4</ele>
        <time>2020-06-17T10:53:41Z</time>
      </trkpt>
      <trkpt lat="49.28401" lon="-0.16681">
        <ele>5.5</ele>
        <time>2020-06-17T10:53:42Z</time>
      </trkpt>
      <trkpt lat="49.28396" lon="-0.16681">
        <ele>5.7</ele>
        <time>2020-06-17T10:53:43Z</time>
      </trkpt>
      <trkpt lat="49.28391" lon="-0.1668">
        <ele>5.8</ele>
        <time>2020-06-17T10:53:44Z</time>
      </trkpt>
      <trkpt lat="49.28387" lon="-0.16679">
        <ele>5.9</ele>
        <time>2020-06-17T10:53:45Z</time>
      </trkpt>
      <trkpt lat="49.28381" lon="-0.16681">
        <ele>6</ele>
        <time>2020-06-17T10:53:46Z</time>
      </trkpt>
      <trkpt lat="49.28377" lon="-0.1668">
        <ele>6.1</ele>
        <time>2020-06-17T10:53:47Z</time>
      </trkpt>
      <trkpt lat="49.28372" lon="-0.16679">
        <ele>6.1</ele>
        <time>2020-06-17T10:53:48Z</time>
      </trkpt>
      <trkpt lat="49.28368" lon="-0.16678">
        <ele>6.2</ele>
        <time>2020-06-17T10:53:49Z</time>
      </trkpt>
      <trkpt lat="49.28364" lon="-0.16677">
        <ele>6.3</ele>
        <time>2020-06-17T10:53:50Z</time>
      </trkpt>
      <trkpt lat="49.2836" lon="-0.16676">
        <ele>6.3</ele>
        <time>2020-06-17T10:53:51Z</time>
      </trkpt>
      <trkpt lat="49.28355" lon="-0.16674">
        <ele>6.4</ele>
        <time>2020-06-17T10:53:52Z</time>
      </trkpt>
      <trkpt lat="49.28351" lon="-0.16672">
        <ele>6.5</ele>
        <time>2020-06-17T10:53:53Z</time>
      </trkpt>
      <trkpt lat="49.28349" lon="-0.16665">
        <ele>6.6</ele>
        <time>2020-06-17T10:53:54Z</time>
      </trkpt>
      <trkpt lat="49.28349" lon="-0.16661">
        <ele>6.5</ele>
        <time>2020-06-17T10:53:55Z</time>
      </trkpt>
      <trkpt lat="49.28349" lon="-0.16653">
        <ele>6.4</ele>
        <time>2020-06-17T10:53:56Z</time>
      </trkpt>
      <trkpt lat="49.28349" lon="-0.16645">
        <ele>6.4</ele>
        <time>2020-06-17T10:53:57Z</time>
      </trkpt>
      <trkpt lat="49.28349" lon="-0.16637">
        <ele>6.3</ele>
        <time>2020-06-17T10:53:58Z</time>
      </trkpt>
      <trkpt lat="49.28349" lon="-0.16628">
        <ele>6.3</ele>
        <time>2020-06-17T10:53:59Z</time>
      </trkpt>
      <trkpt lat="49.28348" lon="-0.16621">
        <ele>6.2</ele>
        <time>2020-06-17T10:54:00Z</time>
      </trkpt>
      <trkpt lat="49.28348" lon="-0.16612">
        <ele>6.2</ele>
        <time>2020-06-17T10:54:01Z</time>
      </trkpt>
      <trkpt lat="49.28349" lon="-0.16604">
        <ele>6.1</ele>
        <time>2020-06-17T10:54:02Z</time>
      </trkpt>
      <trkpt lat="49.28349" lon="-0.16595">
        <ele>6</ele>
        <time>2020-06-17T10:54:03Z</time>
      </trkpt>
      <trkpt lat="49.28349" lon="-0.16587">
        <ele>6</ele>
        <time>2020-06-17T10:54:04Z</time>
      </trkpt>
      <trkpt lat="49.2835" lon="-0.16579">
        <ele>6</ele>
        <time>2020-06-17T10:54:05Z</time>
      </trkpt>
      <trkpt lat="49.28352" lon="-0.16569">
        <ele>6</ele>
        <time>2020-06-17T10:54:06Z</time>
      </trkpt>
      <trkpt lat="49.28353" lon="-0.16561">
        <ele>6</ele>
        <time>2020-06-17T10:54:07Z</time>
      </trkpt>
      <trkpt lat="49.28353" lon="-0.16549">
        <ele>5.9</ele>
        <time>2020-06-17T10:54:08Z</time>
      </trkpt>
      <trkpt lat="49.28353" lon="-0.1654">
        <ele>5.8</ele>
        <time>2020-06-17T10:54:09Z</time>
      </trkpt>
      <trkpt lat="49.28353" lon="-0.16531">
        <ele>5.8</ele>
        <time>2020-06-17T10:54:10Z</time>
      </trkpt>
      <trkpt lat="49.28353" lon="-0.1652">
        <ele>5.7</ele>
        <time>2020-06-17T10:54:11Z</time>
      </trkpt>
      <trkpt lat="49.28352" lon="-0.1651">
        <ele>5.7</ele>
        <time>2020-06-17T10:54:12Z</time>
      </trkpt>
      <trkpt lat="49.28353" lon="-0.16502">
        <ele>5.7</ele>
        <time>2020-06-17T10:54:13Z</time>
      </trkpt>
      <trkpt lat="49.28353" lon="-0.16495">
        <ele>5.6</ele>
        <time>2020-06-17T10:54:14Z</time>
      </trkpt>
      <trkpt lat="49.28352" lon="-0.16488">
        <ele>5.6</ele>
        <time>2020-06-17T10:54:15Z</time>
      </trkpt>
      <trkpt lat="49.28352" lon="-0.1648">
        <ele>5.6</ele>
        <time>2020-06-17T10:54:16Z</time>
      </trkpt>
      <trkpt lat="49.28353" lon="-0.16474">
        <ele>5.5</ele>
        <time>2020-06-17T10:54:17Z</time>
      </trkpt>
      <trkpt lat="49.28354" lon="-0.16467">
        <ele>5.5</ele>
        <time>2020-06-17T10:54:18Z</time>
      </trkpt>
      <trkpt lat="49.28355" lon="-0.16458">
        <ele>5.5</ele>
        <time>2020-06-17T10:54:19Z</time>
      </trkpt>
      <trkpt lat="49.28356" lon="-0.16451">
        <ele>5.5</ele>
        <time>2020-06-17T10:54:20Z</time>
      </trkpt>
      <trkpt lat="49.28356" lon="-0.16445">
        <ele>5.5</ele>
        <time>2020-06-17T10:54:21Z</time>
      </trkpt>
      <trkpt lat="49.28356" lon="-0.16438">
        <ele>5.4</ele>
        <time>2020-06-17T10:54:22Z</time>
      </trkpt>
      <trkpt lat="49.28357" lon="-0.16431">
        <ele>5.4</ele>
        <time>2020-06-17T10:54:23Z</time>
      </trkpt>
      <trkpt lat="49.28357" lon="-0.16423">
        <ele>5.4</ele>
        <time>2020-06-17T10:54:24Z</time>
      </trkpt>
      <trkpt lat="49.28358" lon="-0.16417">
        <ele>5.4</ele>
        <time>2020-06-17T10:54:25Z</time>
      </trkpt>
      <trkpt lat="49.28358" lon="-0.16409">
        <ele>5.4</ele>
        <time>2020-06-17T10:54:26Z</time>
      </trkpt>
      <trkpt lat="49.28358" lon="-0.16402">
        <ele>5.4</ele>
        <time>2020-06-17T10:54:27Z</time>
      </trkpt>
      <trkpt lat="49.28359" lon="-0.16394">
        <ele>5.4</ele>
        <time>2020-06-17T10:54:28Z</time>
      </trkpt>
      <trkpt lat="49.28359" lon="-0.16384">
        <ele>5.3</ele>
        <time>2020-06-17T10:54:29Z</time>
      </trkpt>
      <trkpt lat="49.28359" lon="-0.16376">
        <ele>5.3</ele>
        <time>2020-06-17T10:54:30Z</time>
      </trkpt>
      <trkpt lat="49.2836" lon="-0.16367">
        <ele>5.2</ele>
        <time>2020-06-17T10:54:31Z</time>
      </trkpt>
      <trkpt lat="49.2836" lon="-0.16357">
        <ele>5.2</ele>
        <time>2020-06-17T10:54:32Z</time>
      </trkpt>
      <trkpt lat="49.2836" lon="-0.16348">
        <ele>5.2</ele>
        <time>2020-06-17T10:54:33Z</time>
      </trkpt>
      <trkpt lat="49.2836" lon="-0.1634">
        <ele>5.2</ele>
        <time>2020-06-17T10:54:34Z</time>
      </trkpt>
      <trkpt lat="49.28361" lon="-0.16331">
        <ele>5.2</ele>
        <time>2020-06-17T10:54:35Z</time>
      </trkpt>
      <trkpt lat="49.28362" lon="-0.16321">
        <ele>5.1</ele>
        <time>2020-06-17T10:54:36Z</time>
      </trkpt>
      <trkpt lat="49.28362" lon="-0.16311">
        <ele>5.1</ele>
        <time>2020-06-17T10:54:37Z</time>
      </trkpt>
      <trkpt lat="49.28362" lon="-0.16303">
        <ele>5</ele>
        <time>2020-06-17T10:54:38Z</time>
      </trkpt>
      <trkpt lat="49.28363" lon="-0.16294">
        <ele>5</ele>
        <time>2020-06-17T10:54:39Z</time>
      </trkpt>
      <trkpt lat="49.28363" lon="-0.16284">
        <ele>4.9</ele>
        <time>2020-06-17T10:54:40Z</time>
      </trkpt>
      <trkpt lat="49.28364" lon="-0.16276">
        <ele>4.8</ele>
        <time>2020-06-17T10:54:41Z</time>
      </trkpt>
      <trkpt lat="49.28364" lon="-0.16267">
        <ele>4.8</ele>
        <time>2020-06-17T10:54:42Z</time>
      </trkpt>
      <trkpt lat="49.28364" lon="-0.16259">
        <ele>4.7</ele>
        <time>2020-06-17T10:54:43Z</time>
      </trkpt>
      <trkpt lat="49.28363" lon="-0.16249">
        <ele>4.7</ele>
        <time>2020-06-17T10:54:44Z</time>
      </trkpt>
      <trkpt lat="49.28362" lon="-0.1624">
        <ele>4.6</ele>
        <time>2020-06-17T10:54:45Z</time>
      </trkpt>
      <trkpt lat="49.28362" lon="-0.16232">
        <ele>4.6</ele>
        <time>2020-06-17T10:54:46Z</time>
      </trkpt>
      <trkpt lat="49.28363" lon="-0.16225">
        <ele>4.6</ele>
        <time>2020-06-17T10:54:47Z</time>
      </trkpt>
      <trkpt lat="49.28364" lon="-0.16218">
        <ele>4.5</ele>
        <time>2020-06-17T10:54:48Z</time>
      </trkpt>
      <trkpt lat="49.28365" lon="-0.16211">
        <ele>4.5</ele>
        <time>2020-06-17T10:54:49Z</time>
      </trkpt>
      <trkpt lat="49.28365" lon="-0.16203">
        <ele>4.5</ele>
        <time>2020-06-17T10:54:50Z</time>
      </trkpt>
      <trkpt lat="49.28366" lon="-0.16197">
        <ele>4.5</ele>
        <time>2020-06-17T10:54:51Z</time>
      </trkpt>
      <trkpt lat="49.28366" lon="-0.1619">
        <ele>4.5</ele>
        <time>2020-06-17T10:54:52Z</time>
      </trkpt>
      <trkpt lat="49.28367" lon="-0.16183">
        <ele>4.5</ele>
        <time>2020-06-17T10:54:53Z</time>
      </trkpt>
      <trkpt lat="49.28368" lon="-0.16177">
        <ele>4.5</ele>
        <time>2020-06-17T10:54:54Z</time>
      </trkpt>
      <trkpt lat="49.28367" lon="-0.16171">
        <ele>4.5</ele>
        <time>2020-06-17T10:54:55Z</time>
      </trkpt>
      <trkpt lat="49.28368" lon="-0.16166">
        <ele>4.5</ele>
        <time>2020-06-17T10:54:56Z</time>
      </trkpt>
      <trkpt lat="49.28369" lon="-0.16161">
        <ele>4.5</ele>
        <time>2020-06-17T10:54:57Z</time>
      </trkpt>
      <trkpt lat="49.28372" lon="-0.16161">
        <ele>4.5</ele>
        <time>2020-06-17T10:54:58Z</time>
      </trkpt>
      <trkpt lat="49.28377" lon="-0.16162">
        <ele>4.4</ele>
        <time>2020-06-17T10:54:59Z</time>
      </trkpt>
      <trkpt lat="49.28381" lon="-0.16161">
        <ele>4.4</ele>
        <time>2020-06-17T10:55:00Z</time>
      </trkpt>
      <trkpt lat="49.28385" lon="-0.16161">
        <ele>4.4</ele>
        <time>2020-06-17T10:55:01Z</time>
      </trkpt>
      <trkpt lat="49.28391" lon="-0.16161">
        <ele>4.3</ele>
        <time>2020-06-17T10:55:02Z</time>
      </trkpt>
      <trkpt lat="49.28396" lon="-0.16158">
        <ele>4.3</ele>
        <time>2020-06-17T10:55:03Z</time>
      </trkpt>
      <trkpt lat="49.28399" lon="-0.16158">
        <ele>4.3</ele>
        <time>2020-06-17T10:55:04Z</time>
      </trkpt>
      <trkpt lat="49.28401" lon="-0.16157">
        <ele>4.3</ele>
        <time>2020-06-17T10:55:05Z</time>
      </trkpt>
      <trkpt lat="49.28401" lon="-0.16151">
        <ele>4.3</ele>
        <time>2020-06-17T10:55:06Z</time>
      </trkpt>
      <trkpt lat="49.284" lon="-0.16149">
        <ele>4.2</ele>
        <time>2020-06-17T10:55:07Z</time>
      </trkpt>
      <trkpt lat="49.28402" lon="-0.16143">
        <ele>4.2</ele>
        <time>2020-06-17T10:55:08Z</time>
      </trkpt>
      <trkpt lat="49.28406" lon="-0.16139">
        <ele>4.2</ele>
        <time>2020-06-17T10:55:09Z</time>
      </trkpt>
      <trkpt lat="49.28409" lon="-0.16133">
        <ele>4.2</ele>
        <time>2020-06-17T10:55:10Z</time>
      </trkpt>
      <trkpt lat="49.28413" lon="-0.16128">
        <ele>4.2</ele>
        <time>2020-06-17T10:55:11Z</time>
      </trkpt>
      <trkpt lat="49.28416" lon="-0.16122">
        <ele>4.2</ele>
        <time>2020-06-17T10:55:12Z</time>
      </trkpt>
      <trkpt lat="49.2842" lon="-0.16118">
        <ele>4.2</ele>
        <time>2020-06-17T10:55:13Z</time>
      </trkpt>
      <trkpt lat="49.28423" lon="-0.16114">
        <ele>4.2</ele>
        <time>2020-06-17T10:55:14Z</time>
      </trkpt>
      <trkpt lat="49.28427" lon="-0.16109">
        <ele>4.3</ele>
        <time>2020-06-17T10:55:15Z</time>
      </trkpt>
      <trkpt lat="49.28431" lon="-0.16104">
        <ele>4.3</ele>
        <time>2020-06-17T10:55:16Z</time>
      </trkpt>
      <trkpt lat="49.28435" lon="-0.16101">
        <ele>4.3</ele>
        <time>2020-06-17T10:55:17Z</time>
      </trkpt>
      <trkpt lat="49.28439" lon="-0.16095">
        <ele>4.3</ele>
        <time>2020-06-17T10:55:18Z</time>
      </trkpt>
      <trkpt lat="49.28443" lon="-0.16089">
        <ele>4.4</ele>
        <time>2020-06-17T10:55:19Z</time>
      </trkpt>
      <trkpt lat="49.28446" lon="-0.16085">
        <ele>4.4</ele>
        <time>2020-06-17T10:55:20Z</time>
      </trkpt>
      <trkpt lat="49.28449" lon="-0.16081">
        <ele>4.5</ele>
        <time>2020-06-17T10:55:21Z</time>
      </trkpt>
      <trkpt lat="49.28452" lon="-0.16078">
        <ele>4.5</ele>
        <time>2020-06-17T10:55:22Z</time>
      </trkpt>
      <trkpt lat="49.28453" lon="-0.16077">
        <ele>4.5</ele>
        <time>2020-06-17T10:55:23Z</time>
      </trkpt>
      <trkpt lat="49.28455" lon="-0.16073">
        <ele>4.6</ele>
        <time>2020-06-17T10:55:24Z</time>
      </trkpt>
      <trkpt lat="49.28456" lon="-0.16072">
        <ele>4.6</ele>
        <time>2020-06-17T10:55:25Z</time>
      </trkpt>
      <trkpt lat="49.28459" lon="-0.16067">
        <ele>4.6</ele>
        <time>2020-06-17T10:55:26Z</time>
      </trkpt>
      <trkpt lat="49.2846" lon="-0.16064">
        <ele>4.6</ele>
        <time>2020-06-17T10:55:27Z</time>
      </trkpt>
      <trkpt lat="49.28462" lon="-0.16059">
        <ele>4.6</ele>
        <time>2020-06-17T10:55:28Z</time>
      </trkpt>
      <trkpt lat="49.28461" lon="-0.1605">
        <ele>4.6</ele>
        <time>2020-06-17T10:55:29Z</time>
      </trkpt>
      <trkpt lat="49.28459" lon="-0.16043">
        <ele>4.6</ele>
        <time>2020-06-17T10:55:30Z</time>
      </trkpt>
      <trkpt lat="49.28459" lon="-0.16036">
        <ele>4.6</ele>
        <time>2020-06-17T10:55:31Z</time>
      </trkpt>
      <trkpt lat="49.28459" lon="-0.16028">
        <ele>4.6</ele>
        <time>2020-06-17T10:55:32Z</time>
      </trkpt>
      <trkpt lat="49.28461" lon="-0.16021">
        <ele>4.7</ele>
        <time>2020-06-17T10:55:33Z</time>
      </trkpt>
      <trkpt lat="49.28461" lon="-0.16013">
        <ele>4.7</ele>
        <time>2020-06-17T10:55:34Z</time>
      </trkpt>
      <trkpt lat="49.28461" lon="-0.16006">
        <ele>4.7</ele>
        <time>2020-06-17T10:55:35Z</time>
      </trkpt>
      <trkpt lat="49.2846" lon="-0.15998">
        <ele>4.7</ele>
        <time>2020-06-17T10:55:36Z</time>
      </trkpt>
      <trkpt lat="49.28459" lon="-0.1599">
        <ele>4.7</ele>
        <time>2020-06-17T10:55:37Z</time>
      </trkpt>
      <trkpt lat="49.28458" lon="-0.15984">
        <ele>4.7</ele>
        <time>2020-06-17T10:55:38Z</time>
      </trkpt>
      <trkpt lat="49.28458" lon="-0.15975">
        <ele>4.6</ele>
        <time>2020-06-17T10:55:39Z</time>
      </trkpt>
      <trkpt lat="49.28456" lon="-0.15965">
        <ele>4.6</ele>
        <time>2020-06-17T10:55:40Z</time>
      </trkpt>
      <trkpt lat="49.28455" lon="-0.15957">
        <ele>4.6</ele>
        <time>2020-06-17T10:55:41Z</time>
      </trkpt>
      <trkpt lat="49.28454" lon="-0.15948">
        <ele>4.6</ele>
        <time>2020-06-17T10:55:42Z</time>
      </trkpt>
      <trkpt lat="49.28454" lon="-0.15939">
        <ele>4.6</ele>
        <time>2020-06-17T10:55:43Z</time>
      </trkpt>
      <trkpt lat="49.28454" lon="-0.15929">
        <ele>4.6</ele>
        <time>2020-06-17T10:55:44Z</time>
      </trkpt>
      <trkpt lat="49.28453" lon="-0.1592">
        <ele>4.6</ele>
        <time>2020-06-17T10:55:45Z</time>
      </trkpt>
      <trkpt lat="49.28453" lon="-0.15913">
        <ele>4.6</ele>
        <time>2020-06-17T10:55:46Z</time>
      </trkpt>
      <trkpt lat="49.28453" lon="-0.15905">
        <ele>4.6</ele>
        <time>2020-06-17T10:55:47Z</time>
      </trkpt>
      <trkpt lat="49.28453" lon="-0.15896">
        <ele>4.6</ele>
        <time>2020-06-17T10:55:48Z</time>
      </trkpt>
      <trkpt lat="49.28452" lon="-0.1589">
        <ele>4.6</ele>
        <time>2020-06-17T10:55:49Z</time>
      </trkpt>
      <trkpt lat="49.28451" lon="-0.15882">
        <ele>4.6</ele>
        <time>2020-06-17T10:55:50Z</time>
      </trkpt>
      <trkpt lat="49.2845" lon="-0.15873">
        <ele>4.6</ele>
        <time>2020-06-17T10:55:51Z</time>
      </trkpt>
      <trkpt lat="49.2845" lon="-0.15864">
        <ele>4.6</ele>
        <time>2020-06-17T10:55:52Z</time>
      </trkpt>
      <trkpt lat="49.28449" lon="-0.15855">
        <ele>4.6</ele>
        <time>2020-06-17T10:55:53Z</time>
      </trkpt>
      <trkpt lat="49.28448" lon="-0.15847">
        <ele>4.6</ele>
        <time>2020-06-17T10:55:54Z</time>
      </trkpt>
      <trkpt lat="49.28448" lon="-0.1584">
        <ele>4.6</ele>
        <time>2020-06-17T10:55:55Z</time>
      </trkpt>
      <trkpt lat="49.28449" lon="-0.1583">
        <ele>4.6</ele>
        <time>2020-06-17T10:55:56Z</time>
      </trkpt>
      <trkpt lat="49.28448" lon="-0.15823">
        <ele>4.6</ele>
        <time>2020-06-17T10:55:57Z</time>
      </trkpt>
      <trkpt lat="49.28448" lon="-0.15819">
        <ele>4.6</ele>
        <time>2020-06-17T10:55:58Z</time>
      </trkpt>
      <trkpt lat="49.28447" lon="-0.15814">
        <ele>4.5</ele>
        <time>2020-06-17T10:55:59Z</time>
      </trkpt>
      <trkpt lat="49.28446" lon="-0.1581">
        <ele>4.5</ele>
        <time>2020-06-17T10:56:00Z</time>
      </trkpt>
      <trkpt lat="49.28446" lon="-0.15803">
        <ele>4.5</ele>
        <time>2020-06-17T10:56:01Z</time>
      </trkpt>
      <trkpt lat="49.28445" lon="-0.15797">
        <ele>4.5</ele>
        <time>2020-06-17T10:56:02Z</time>
      </trkpt>
      <trkpt lat="49.28444" lon="-0.15791">
        <ele>4.5</ele>
        <time>2020-06-17T10:56:03Z</time>
      </trkpt>
      <trkpt lat="49.28444" lon="-0.15785">
        <ele>4.5</ele>
        <time>2020-06-17T10:56:04Z</time>
      </trkpt>
      <trkpt lat="49.28444" lon="-0.15781">
        <ele>4.5</ele>
        <time>2020-06-17T10:56:05Z</time>
      </trkpt>
      <trkpt lat="49.28444" lon="-0.15776">
        <ele>4.5</ele>
        <time>2020-06-17T10:56:06Z</time>
      </trkpt>
      <trkpt lat="49.28443" lon="-0.15768">
        <ele>4.5</ele>
        <time>2020-06-17T10:56:07Z</time>
      </trkpt>
      <trkpt lat="49.28443" lon="-0.15763">
        <ele>4.5</ele>
        <time>2020-06-17T10:56:08Z</time>
      </trkpt>
      <trkpt lat="49.28442" lon="-0.15757">
        <ele>4.5</ele>
        <time>2020-06-17T10:56:09Z</time>
      </trkpt>
      <trkpt lat="49.28442" lon="-0.1575">
        <ele>4.5</ele>
        <time>2020-06-17T10:56:10Z</time>
      </trkpt>
      <trkpt lat="49.28442" lon="-0.15746">
        <ele>4.5</ele>
        <time>2020-06-17T10:56:11Z</time>
      </trkpt>
      <trkpt lat="49.28442" lon="-0.15741">
        <ele>4.5</ele>
        <time>2020-06-17T10:56:12Z</time>
      </trkpt>
      <trkpt lat="49.28442" lon="-0.15735">
        <ele>4.5</ele>
        <time>2020-06-17T10:56:13Z</time>
      </trkpt>
      <trkpt lat="49.28442" lon="-0.15732">
        <ele>4.5</ele>
        <time>2020-06-17T10:56:14Z</time>
      </trkpt>
      <trkpt lat="49.28442" lon="-0.15728">
        <ele>4.5</ele>
        <time>2020-06-17T10:56:15Z</time>
      </trkpt>
      <trkpt lat="49.28442" lon="-0.15722">
        <ele>4.5</ele>
        <time>2020-06-17T10:56:16Z</time>
      </trkpt>
      <trkpt lat="49.28442" lon="-0.15714">
        <ele>4.5</ele>
        <time>2020-06-17T10:56:17Z</time>
      </trkpt>
      <trkpt lat="49.28442" lon="-0.15706">
        <ele>4.5</ele>
        <time>2020-06-17T10:56:18Z</time>
      </trkpt>
      <trkpt lat="49.28442" lon="-0.15698">
        <ele>4.5</ele>
        <time>2020-06-17T10:56:19Z</time>
      </trkpt>
      <trkpt lat="49.28442" lon="-0.15692">
        <ele>4.5</ele>
        <time>2020-06-17T10:56:20Z</time>
      </trkpt>
      <trkpt lat="49.28442" lon="-0.15684">
        <ele>4.5</ele>
        <time>2020-06-17T10:56:21Z</time>
      </trkpt>
      <trkpt lat="49.28441" lon="-0.15676">
        <ele>4.5</ele>
        <time>2020-06-17T10:56:22Z</time>
      </trkpt>
      <trkpt lat="49.28441" lon="-0.15668">
        <ele>4.4</ele>
        <time>2020-06-17T10:56:23Z</time>
      </trkpt>
      <trkpt lat="49.2844" lon="-0.15659">
        <ele>4.4</ele>
        <time>2020-06-17T10:56:24Z</time>
      </trkpt>
      <trkpt lat="49.28439" lon="-0.15651">
        <ele>4.4</ele>
        <time>2020-06-17T10:56:25Z</time>
      </trkpt>
      <trkpt lat="49.28439" lon="-0.15644">
        <ele>4.3</ele>
        <time>2020-06-17T10:56:26Z</time>
      </trkpt>
      <trkpt lat="49.28439" lon="-0.15636">
        <ele>4.3</ele>
        <time>2020-06-17T10:56:27Z</time>
      </trkpt>
      <trkpt lat="49.28439" lon="-0.15627">
        <ele>4.3</ele>
        <time>2020-06-17T10:56:28Z</time>
      </trkpt>
      <trkpt lat="49.28439" lon="-0.15619">
        <ele>4.3</ele>
        <time>2020-06-17T10:56:29Z</time>
      </trkpt>
      <trkpt lat="49.28439" lon="-0.1561">
        <ele>4.3</ele>
        <time>2020-06-17T10:56:30Z</time>
      </trkpt>
      <trkpt lat="49.28438" lon="-0.15601">
        <ele>4.3</ele>
        <time>2020-06-17T10:56:31Z</time>
      </trkpt>
      <trkpt lat="49.28438" lon="-0.15592">
        <ele>4.3</ele>
        <time>2020-06-17T10:56:32Z</time>
      </trkpt>
      <trkpt lat="49.28438" lon="-0.15582">
        <ele>4.3</ele>
        <time>2020-06-17T10:56:33Z</time>
      </trkpt>
      <trkpt lat="49.28437" lon="-0.15574">
        <ele>4.3</ele>
        <time>2020-06-17T10:56:34Z</time>
      </trkpt>
      <trkpt lat="49.28437" lon="-0.15567">
        <ele>4.3</ele>
        <time>2020-06-17T10:56:35Z</time>
      </trkpt>
      <trkpt lat="49.28436" lon="-0.15559">
        <ele>4.3</ele>
        <time>2020-06-17T10:56:36Z</time>
      </trkpt>
      <trkpt lat="49.28435" lon="-0.1555">
        <ele>4.3</ele>
        <time>2020-06-17T10:56:37Z</time>
      </trkpt>
      <trkpt lat="49.28435" lon="-0.15542">
        <ele>4.3</ele>
        <time>2020-06-17T10:56:38Z</time>
      </trkpt>
      <trkpt lat="49.28434" lon="-0.15535">
        <ele>4.3</ele>
        <time>2020-06-17T10:56:39Z</time>
      </trkpt>
      <trkpt lat="49.28434" lon="-0.15528">
        <ele>4.3</ele>
        <time>2020-06-17T10:56:40Z</time>
      </trkpt>
      <trkpt lat="49.28434" lon="-0.15522">
        <ele>4.4</ele>
        <time>2020-06-17T10:56:41Z</time>
      </trkpt>
      <trkpt lat="49.28434" lon="-0.15517">
        <ele>4.4</ele>
        <time>2020-06-17T10:56:42Z</time>
      </trkpt>
      <trkpt lat="49.28434" lon="-0.15511">
        <ele>4.4</ele>
        <time>2020-06-17T10:56:43Z</time>
      </trkpt>
      <trkpt lat="49.28433" lon="-0.15505">
        <ele>4.4</ele>
        <time>2020-06-17T10:56:44Z</time>
      </trkpt>
      <trkpt lat="49.28432" lon="-0.155">
        <ele>4.5</ele>
        <time>2020-06-17T10:56:45Z</time>
      </trkpt>
      <trkpt lat="49.2843" lon="-0.15495">
        <ele>4.5</ele>
        <time>2020-06-17T10:56:46Z</time>
      </trkpt>
      <trkpt lat="49.2843" lon="-0.15488">
        <ele>4.5</ele>
        <time>2020-06-17T10:56:47Z</time>
      </trkpt>
      <trkpt lat="49.28431" lon="-0.15483">
        <ele>4.5</ele>
        <time>2020-06-17T10:56:48Z</time>
      </trkpt>
      <trkpt lat="49.28432" lon="-0.15479">
        <ele>4.1</ele>
        <time>2020-06-17T10:56:49Z</time>
      </trkpt>
      <trkpt lat="49.28434" lon="-0.15474">
        <ele>4</ele>
        <time>2020-06-17T10:56:50Z</time>
      </trkpt>
      <trkpt lat="49.28434" lon="-0.15472">
        <ele>4</ele>
        <time>2020-06-17T10:56:51Z</time>
      </trkpt>
      <trkpt lat="49.28435" lon="-0.15468">
        <ele>4</ele>
        <time>2020-06-17T10:56:52Z</time>
      </trkpt>
      <trkpt lat="49.28435" lon="-0.15467">
        <ele>4</ele>
        <time>2020-06-17T10:56:53Z</time>
      </trkpt>
      <trkpt lat="49.28434" lon="-0.15464">
        <ele>4</ele>
        <time>2020-06-17T10:56:54Z</time>
      </trkpt>
      <trkpt lat="49.28433" lon="-0.15459">
        <ele>3.9</ele>
        <time>2020-06-17T10:56:55Z</time>
      </trkpt>
      <trkpt lat="49.28433" lon="-0.15458">
        <ele>3.9</ele>
        <time>2020-06-17T10:56:56Z</time>
      </trkpt>
      <trkpt lat="49.28432" lon="-0.15453">
        <ele>3.9</ele>
        <time>2020-06-17T10:56:57Z</time>
      </trkpt>
      <trkpt lat="49.28432" lon="-0.15448">
        <ele>3.9</ele>
        <time>2020-06-17T10:56:58Z</time>
      </trkpt>
      <trkpt lat="49.28432" lon="-0.15442">
        <ele>3.9</ele>
        <time>2020-06-17T10:56:59Z</time>
      </trkpt>
      <trkpt lat="49.28433" lon="-0.15436">
        <ele>3.9</ele>
        <time>2020-06-17T10:57:00Z</time>
      </trkpt>
      <trkpt lat="49.28433" lon="-0.15428">
        <ele>3.9</ele>
        <time>2020-06-17T10:57:01Z</time>
      </trkpt>
      <trkpt lat="49.28432" lon="-0.1542">
        <ele>3.8</ele>
        <time>2020-06-17T10:57:02Z</time>
      </trkpt>
      <trkpt lat="49.28432" lon="-0.15413">
        <ele>3.8</ele>
        <time>2020-06-17T10:57:03Z</time>
      </trkpt>
      <trkpt lat="49.28433" lon="-0.15405">
        <ele>3.8</ele>
        <time>2020-06-17T10:57:04Z</time>
      </trkpt>
      <trkpt lat="49.28433" lon="-0.15399">
        <ele>3.8</ele>
        <time>2020-06-17T10:57:05Z</time>
      </trkpt>
      <trkpt lat="49.28433" lon="-0.15392">
        <ele>3.7</ele>
        <time>2020-06-17T10:57:06Z</time>
      </trkpt>
      <trkpt lat="49.28432" lon="-0.15383">
        <ele>3.7</ele>
        <time>2020-06-17T10:57:07Z</time>
      </trkpt>
      <trkpt lat="49.28432" lon="-0.15374">
        <ele>3.7</ele>
        <time>2020-06-17T10:57:08Z</time>
      </trkpt>
      <trkpt lat="49.28432" lon="-0.15365">
        <ele>3.6</ele>
        <time>2020-06-17T10:57:09Z</time>
      </trkpt>
      <trkpt lat="49.28432" lon="-0.15357">
        <ele>3.6</ele>
        <time>2020-06-17T10:57:10Z</time>
      </trkpt>
      <trkpt lat="49.28432" lon="-0.15348">
        <ele>3.6</ele>
        <time>2020-06-17T10:57:11Z</time>
      </trkpt>
      <trkpt lat="49.28431" lon="-0.15339">
        <ele>3.6</ele>
        <time>2020-06-17T10:57:12Z</time>
      </trkpt>
      <trkpt lat="49.2843" lon="-0.15331">
        <ele>3.6</ele>
        <time>2020-06-17T10:57:13Z</time>
      </trkpt>
      <trkpt lat="49.2843" lon="-0.15323">
        <ele>3.6</ele>
        <time>2020-06-17T10:57:14Z</time>
      </trkpt>
      <trkpt lat="49.28429" lon="-0.15316">
        <ele>3.6</ele>
        <time>2020-06-17T10:57:15Z</time>
      </trkpt>
      <trkpt lat="49.28428" lon="-0.15308">
        <ele>3.6</ele>
        <time>2020-06-17T10:57:16Z</time>
      </trkpt>
      <trkpt lat="49.28427" lon="-0.153">
        <ele>3.6</ele>
        <time>2020-06-17T10:57:17Z</time>
      </trkpt>
      <trkpt lat="49.28427" lon="-0.15291">
        <ele>3.6</ele>
        <time>2020-06-17T10:57:18Z</time>
      </trkpt>
      <trkpt lat="49.28426" lon="-0.15284">
        <ele>3.6</ele>
        <time>2020-06-17T10:57:19Z</time>
      </trkpt>
      <trkpt lat="49.28426" lon="-0.15277">
        <ele>3.7</ele>
        <time>2020-06-17T10:57:20Z</time>
      </trkpt>
      <trkpt lat="49.28428" lon="-0.15268">
        <ele>3.7</ele>
        <time>2020-06-17T10:57:21Z</time>
      </trkpt>
      <trkpt lat="49.28429" lon="-0.15261">
        <ele>3.7</ele>
        <time>2020-06-17T10:57:22Z</time>
      </trkpt>
      <trkpt lat="49.28431" lon="-0.15254">
        <ele>3.7</ele>
        <time>2020-06-17T10:57:23Z</time>
      </trkpt>
      <trkpt lat="49.28431" lon="-0.15245">
        <ele>3.8</ele>
        <time>2020-06-17T10:57:24Z</time>
      </trkpt>
      <trkpt lat="49.28432" lon="-0.15237">
        <ele>3.9</ele>
        <time>2020-06-17T10:57:25Z</time>
      </trkpt>
      <trkpt lat="49.28433" lon="-0.15229">
        <ele>3.8</ele>
        <time>2020-06-17T10:57:26Z</time>
      </trkpt>
      <trkpt lat="49.28433" lon="-0.15219">
        <ele>3.8</ele>
        <time>2020-06-17T10:57:27Z</time>
      </trkpt>
      <trkpt lat="49.28433" lon="-0.1521">
        <ele>3.8</ele>
        <time>2020-06-17T10:57:28Z</time>
      </trkpt>
      <trkpt lat="49.28433" lon="-0.152">
        <ele>3.8</ele>
        <time>2020-06-17T10:57:29Z</time>
      </trkpt>
      <trkpt lat="49.28434" lon="-0.15192">
        <ele>3.8</ele>
        <time>2020-06-17T10:57:30Z</time>
      </trkpt>
      <trkpt lat="49.28434" lon="-0.15183">
        <ele>3.8</ele>
        <time>2020-06-17T10:57:31Z</time>
      </trkpt>
      <trkpt lat="49.28434" lon="-0.15175">
        <ele>3.8</ele>
        <time>2020-06-17T10:57:32Z</time>
      </trkpt>
      <trkpt lat="49.28434" lon="-0.15168">
        <ele>3.8</ele>
        <time>2020-06-17T10:57:33Z</time>
      </trkpt>
      <trkpt lat="49.28433" lon="-0.15159">
        <ele>3.8</ele>
        <time>2020-06-17T10:57:34Z</time>
      </trkpt>
      <trkpt lat="49.28432" lon="-0.15149">
        <ele>3.8</ele>
        <time>2020-06-17T10:57:35Z</time>
      </trkpt>
      <trkpt lat="49.28431" lon="-0.15139">
        <ele>3.8</ele>
        <time>2020-06-17T10:57:36Z</time>
      </trkpt>
      <trkpt lat="49.2843" lon="-0.15129">
        <ele>3.8</ele>
        <time>2020-06-17T10:57:37Z</time>
      </trkpt>
      <trkpt lat="49.28431" lon="-0.15116">
        <ele>3.8</ele>
        <time>2020-06-17T10:57:38Z</time>
      </trkpt>
      <trkpt lat="49.28431" lon="-0.15103">
        <ele>3.9</ele>
        <time>2020-06-17T10:57:39Z</time>
      </trkpt>
      <trkpt lat="49.28431" lon="-0.15094">
        <ele>3.9</ele>
        <time>2020-06-17T10:57:40Z</time>
      </trkpt>
      <trkpt lat="49.28431" lon="-0.15085">
        <ele>3.9</ele>
        <time>2020-06-17T10:57:41Z</time>
      </trkpt>
      <trkpt lat="49.28431" lon="-0.15075">
        <ele>3.9</ele>
        <time>2020-06-17T10:57:42Z</time>
      </trkpt>
      <trkpt lat="49.28431" lon="-0.15069">
        <ele>3.9</ele>
        <time>2020-06-17T10:57:43Z</time>
      </trkpt>
      <trkpt lat="49.28432" lon="-0.1506">
        <ele>3.9</ele>
        <time>2020-06-17T10:57:44Z</time>
      </trkpt>
      <trkpt lat="49.28432" lon="-0.15051">
        <ele>3.9</ele>
        <time>2020-06-17T10:57:45Z</time>
      </trkpt>
      <trkpt lat="49.28433" lon="-0.15041">
        <ele>3.9</ele>
        <time>2020-06-17T10:57:46Z</time>
      </trkpt>
      <trkpt lat="49.28434" lon="-0.15032">
        <ele>3.9</ele>
        <time>2020-06-17T10:57:47Z</time>
      </trkpt>
      <trkpt lat="49.28435" lon="-0.15023">
        <ele>3.9</ele>
        <time>2020-06-17T10:57:48Z</time>
      </trkpt>
      <trkpt lat="49.28436" lon="-0.15014">
        <ele>3.9</ele>
        <time>2020-06-17T10:57:49Z</time>
      </trkpt>
      <trkpt lat="49.28437" lon="-0.15006">
        <ele>3.9</ele>
        <time>2020-06-17T10:57:50Z</time>
      </trkpt>
      <trkpt lat="49.28437" lon="-0.14996">
        <ele>4</ele>
        <time>2020-06-17T10:57:51Z</time>
      </trkpt>
      <trkpt lat="49.28437" lon="-0.14986">
        <ele>4</ele>
        <time>2020-06-17T10:57:52Z</time>
      </trkpt>
      <trkpt lat="49.28438" lon="-0.14977">
        <ele>4.1</ele>
        <time>2020-06-17T10:57:53Z</time>
      </trkpt>
      <trkpt lat="49.28438" lon="-0.14966">
        <ele>4.1</ele>
        <time>2020-06-17T10:57:54Z</time>
      </trkpt>
      <trkpt lat="49.28439" lon="-0.14956">
        <ele>4</ele>
        <time>2020-06-17T10:57:55Z</time>
      </trkpt>
      <trkpt lat="49.2844" lon="-0.14945">
        <ele>4</ele>
        <time>2020-06-17T10:57:56Z</time>
      </trkpt>
      <trkpt lat="49.2844" lon="-0.14936">
        <ele>4</ele>
        <time>2020-06-17T10:57:57Z</time>
      </trkpt>
      <trkpt lat="49.2844" lon="-0.14927">
        <ele>4</ele>
        <time>2020-06-17T10:57:58Z</time>
      </trkpt>
      <trkpt lat="49.2844" lon="-0.14915">
        <ele>4</ele>
        <time>2020-06-17T10:57:59Z</time>
      </trkpt>
      <trkpt lat="49.2844" lon="-0.14906">
        <ele>4</ele>
        <time>2020-06-17T10:58:00Z</time>
      </trkpt>
      <trkpt lat="49.28441" lon="-0.14897">
        <ele>3.9</ele>
        <time>2020-06-17T10:58:01Z</time>
      </trkpt>
      <trkpt lat="49.28441" lon="-0.14887">
        <ele>3.9</ele>
        <time>2020-06-17T10:58:02Z</time>
      </trkpt>
      <trkpt lat="49.28441" lon="-0.14877">
        <ele>3.9</ele>
        <time>2020-06-17T10:58:03Z</time>
      </trkpt>
      <trkpt lat="49.28442" lon="-0.14867">
        <ele>3.9</ele>
        <time>2020-06-17T10:58:04Z</time>
      </trkpt>
      <trkpt lat="49.28443" lon="-0.14859">
        <ele>3.9</ele>
        <time>2020-06-17T10:58:05Z</time>
      </trkpt>
      <trkpt lat="49.28443" lon="-0.14849">
        <ele>3.9</ele>
        <time>2020-06-17T10:58:06Z</time>
      </trkpt>
      <trkpt lat="49.28444" lon="-0.14839">
        <ele>3.9</ele>
        <time>2020-06-17T10:58:07Z</time>
      </trkpt>
      <trkpt lat="49.28445" lon="-0.14829">
        <ele>3.9</ele>
        <time>2020-06-17T10:58:08Z</time>
      </trkpt>
      <trkpt lat="49.28446" lon="-0.14819">
        <ele>3.9</ele>
        <time>2020-06-17T10:58:09Z</time>
      </trkpt>
      <trkpt lat="49.28446" lon="-0.14809">
        <ele>3.9</ele>
        <time>2020-06-17T10:58:10Z</time>
      </trkpt>
      <trkpt lat="49.28447" lon="-0.148">
        <ele>3.9</ele>
        <time>2020-06-17T10:58:11Z</time>
      </trkpt>
      <trkpt lat="49.28448" lon="-0.1479">
        <ele>3.9</ele>
        <time>2020-06-17T10:58:12Z</time>
      </trkpt>
      <trkpt lat="49.28449" lon="-0.14782">
        <ele>4</ele>
        <time>2020-06-17T10:58:13Z</time>
      </trkpt>
      <trkpt lat="49.2845" lon="-0.14773">
        <ele>4</ele>
        <time>2020-06-17T10:58:14Z</time>
      </trkpt>
      <trkpt lat="49.28451" lon="-0.14763">
        <ele>3.9</ele>
        <time>2020-06-17T10:58:15Z</time>
      </trkpt>
      <trkpt lat="49.28451" lon="-0.14753">
        <ele>3.9</ele>
        <time>2020-06-17T10:58:16Z</time>
      </trkpt>
      <trkpt lat="49.28451" lon="-0.14743">
        <ele>3.9</ele>
        <time>2020-06-17T10:58:17Z</time>
      </trkpt>
      <trkpt lat="49.28452" lon="-0.14732">
        <ele>3.9</ele>
        <time>2020-06-17T10:58:18Z</time>
      </trkpt>
      <trkpt lat="49.28452" lon="-0.14722">
        <ele>3.9</ele>
        <time>2020-06-17T10:58:19Z</time>
      </trkpt>
      <trkpt lat="49.28453" lon="-0.14713">
        <ele>3.9</ele>
        <time>2020-06-17T10:58:20Z</time>
      </trkpt>
      <trkpt lat="49.28453" lon="-0.14704">
        <ele>3.9</ele>
        <time>2020-06-17T10:58:21Z</time>
      </trkpt>
      <trkpt lat="49.28455" lon="-0.14694">
        <ele>3.9</ele>
        <time>2020-06-17T10:58:22Z</time>
      </trkpt>
      <trkpt lat="49.28455" lon="-0.14684">
        <ele>3.9</ele>
        <time>2020-06-17T10:58:23Z</time>
      </trkpt>
      <trkpt lat="49.28456" lon="-0.14675">
        <ele>3.8</ele>
        <time>2020-06-17T10:58:24Z</time>
      </trkpt>
      <trkpt lat="49.28458" lon="-0.14664">
        <ele>3.8</ele>
        <time>2020-06-17T10:58:25Z</time>
      </trkpt>
      <trkpt lat="49.28458" lon="-0.14656">
        <ele>3.8</ele>
        <time>2020-06-17T10:58:26Z</time>
      </trkpt>
      <trkpt lat="49.28459" lon="-0.14645">
        <ele>3.8</ele>
        <time>2020-06-17T10:58:27Z</time>
      </trkpt>
      <trkpt lat="49.2846" lon="-0.14634">
        <ele>3.8</ele>
        <time>2020-06-17T10:58:28Z</time>
      </trkpt>
      <trkpt lat="49.2846" lon="-0.14624">
        <ele>3.8</ele>
        <time>2020-06-17T10:58:29Z</time>
      </trkpt>
      <trkpt lat="49.28461" lon="-0.14613">
        <ele>3.8</ele>
        <time>2020-06-17T10:58:30Z</time>
      </trkpt>
      <trkpt lat="49.28461" lon="-0.14604">
        <ele>3.8</ele>
        <time>2020-06-17T10:58:31Z</time>
      </trkpt>
      <trkpt lat="49.28462" lon="-0.14595">
        <ele>3.8</ele>
        <time>2020-06-17T10:58:32Z</time>
      </trkpt>
      <trkpt lat="49.28462" lon="-0.14585">
        <ele>3.8</ele>
        <time>2020-06-17T10:58:33Z</time>
      </trkpt>
      <trkpt lat="49.28464" lon="-0.14576">
        <ele>3.8</ele>
        <time>2020-06-17T10:58:34Z</time>
      </trkpt>
      <trkpt lat="49.28465" lon="-0.14566">
        <ele>3.8</ele>
        <time>2020-06-17T10:58:35Z</time>
      </trkpt>
      <trkpt lat="49.28466" lon="-0.14557">
        <ele>3.8</ele>
        <time>2020-06-17T10:58:36Z</time>
      </trkpt>
      <trkpt lat="49.28466" lon="-0.14547">
        <ele>3.8</ele>
        <time>2020-06-17T10:58:37Z</time>
      </trkpt>
      <trkpt lat="49.28467" lon="-0.14537">
        <ele>3.8</ele>
        <time>2020-06-17T10:58:38Z</time>
      </trkpt>
      <trkpt lat="49.28468" lon="-0.14528">
        <ele>3.8</ele>
        <time>2020-06-17T10:58:39Z</time>
      </trkpt>
      <trkpt lat="49.2847" lon="-0.14519">
        <ele>3.8</ele>
        <time>2020-06-17T10:58:40Z</time>
      </trkpt>
      <trkpt lat="49.28472" lon="-0.1451">
        <ele>3.8</ele>
        <time>2020-06-17T10:58:41Z</time>
      </trkpt>
      <trkpt lat="49.28474" lon="-0.14501">
        <ele>3.8</ele>
        <time>2020-06-17T10:58:42Z</time>
      </trkpt>
      <trkpt lat="49.28476" lon="-0.14492">
        <ele>3.8</ele>
        <time>2020-06-17T10:58:43Z</time>
      </trkpt>
      <trkpt lat="49.28477" lon="-0.14482">
        <ele>3.8</ele>
        <time>2020-06-17T10:58:44Z</time>
      </trkpt>
      <trkpt lat="49.2848" lon="-0.14472">
        <ele>3.9</ele>
        <time>2020-06-17T10:58:45Z</time>
      </trkpt>
      <trkpt lat="49.28481" lon="-0.14463">
        <ele>3.9</ele>
        <time>2020-06-17T10:58:46Z</time>
      </trkpt>
      <trkpt lat="49.28484" lon="-0.14453">
        <ele>3.9</ele>
        <time>2020-06-17T10:58:47Z</time>
      </trkpt>
      <trkpt lat="49.28486" lon="-0.14444">
        <ele>3.9</ele>
        <time>2020-06-17T10:58:48Z</time>
      </trkpt>
      <trkpt lat="49.28489" lon="-0.14435">
        <ele>3.9</ele>
        <time>2020-06-17T10:58:49Z</time>
      </trkpt>
      <trkpt lat="49.28491" lon="-0.14425">
        <ele>3.9</ele>
        <time>2020-06-17T10:58:50Z</time>
      </trkpt>
      <trkpt lat="49.28493" lon="-0.14415">
        <ele>3.9</ele>
        <time>2020-06-17T10:58:51Z</time>
      </trkpt>
      <trkpt lat="49.28495" lon="-0.14406">
        <ele>4</ele>
        <time>2020-06-17T10:58:52Z</time>
      </trkpt>
      <trkpt lat="49.28497" lon="-0.14396">
        <ele>4</ele>
        <time>2020-06-17T10:58:53Z</time>
      </trkpt>
      <trkpt lat="49.28499" lon="-0.14387">
        <ele>4</ele>
        <time>2020-06-17T10:58:54Z</time>
      </trkpt>
      <trkpt lat="49.28501" lon="-0.14377">
        <ele>4.1</ele>
        <time>2020-06-17T10:58:55Z</time>
      </trkpt>
      <trkpt lat="49.28502" lon="-0.14367">
        <ele>4.1</ele>
        <time>2020-06-17T10:58:56Z</time>
      </trkpt>
      <trkpt lat="49.28504" lon="-0.14358">
        <ele>4.2</ele>
        <time>2020-06-17T10:58:57Z</time>
      </trkpt>
      <trkpt lat="49.28506" lon="-0.14348">
        <ele>4.1</ele>
        <time>2020-06-17T10:58:58Z</time>
      </trkpt>
      <trkpt lat="49.28507" lon="-0.14339">
        <ele>4.1</ele>
        <time>2020-06-17T10:58:59Z</time>
      </trkpt>
      <trkpt lat="49.28509" lon="-0.14329">
        <ele>4</ele>
        <time>2020-06-17T10:59:00Z</time>
      </trkpt>
      <trkpt lat="49.2851" lon="-0.14319">
        <ele>4</ele>
        <time>2020-06-17T10:59:01Z</time>
      </trkpt>
      <trkpt lat="49.28511" lon="-0.14309">
        <ele>4.1</ele>
        <time>2020-06-17T10:59:02Z</time>
      </trkpt>
      <trkpt lat="49.28513" lon="-0.143">
        <ele>4.1</ele>
        <time>2020-06-17T10:59:03Z</time>
      </trkpt>
      <trkpt lat="49.28514" lon="-0.1429">
        <ele>4.2</ele>
        <time>2020-06-17T10:59:04Z</time>
      </trkpt>
      <trkpt lat="49.28515" lon="-0.14281">
        <ele>4.2</ele>
        <time>2020-06-17T10:59:05Z</time>
      </trkpt>
      <trkpt lat="49.28517" lon="-0.14271">
        <ele>4.2</ele>
        <time>2020-06-17T10:59:06Z</time>
      </trkpt>
      <trkpt lat="49.28518" lon="-0.14262">
        <ele>4.3</ele>
        <time>2020-06-17T10:59:07Z</time>
      </trkpt>
      <trkpt lat="49.28519" lon="-0.14253">
        <ele>4.3</ele>
        <time>2020-06-17T10:59:08Z</time>
      </trkpt>
      <trkpt lat="49.2852" lon="-0.14244">
        <ele>4.3</ele>
        <time>2020-06-17T10:59:09Z</time>
      </trkpt>
      <trkpt lat="49.2852" lon="-0.14235">
        <ele>4.3</ele>
        <time>2020-06-17T10:59:10Z</time>
      </trkpt>
      <trkpt lat="49.28522" lon="-0.14227">
        <ele>4.3</ele>
        <time>2020-06-17T10:59:11Z</time>
      </trkpt>
      <trkpt lat="49.28524" lon="-0.14218">
        <ele>4.3</ele>
        <time>2020-06-17T10:59:12Z</time>
      </trkpt>
      <trkpt lat="49.28525" lon="-0.1421">
        <ele>4.2</ele>
        <time>2020-06-17T10:59:13Z</time>
      </trkpt>
      <trkpt lat="49.28527" lon="-0.14201">
        <ele>4.2</ele>
        <time>2020-06-17T10:59:14Z</time>
      </trkpt>
      <trkpt lat="49.28528" lon="-0.14192">
        <ele>4.2</ele>
        <time>2020-06-17T10:59:15Z</time>
      </trkpt>
      <trkpt lat="49.28529" lon="-0.14183">
        <ele>4.2</ele>
        <time>2020-06-17T10:59:16Z</time>
      </trkpt>
      <trkpt lat="49.2853" lon="-0.14175">
        <ele>4.2</ele>
        <time>2020-06-17T10:59:17Z</time>
      </trkpt>
      <trkpt lat="49.28532" lon="-0.14166">
        <ele>4.2</ele>
        <time>2020-06-17T10:59:18Z</time>
      </trkpt>
      <trkpt lat="49.28533" lon="-0.14158">
        <ele>4.3</ele>
        <time>2020-06-17T10:59:19Z</time>
      </trkpt>
      <trkpt lat="49.28534" lon="-0.14149">
        <ele>4.3</ele>
        <time>2020-06-17T10:59:20Z</time>
      </trkpt>
      <trkpt lat="49.28535" lon="-0.14141">
        <ele>4.3</ele>
        <time>2020-06-17T10:59:21Z</time>
      </trkpt>
      <trkpt lat="49.28536" lon="-0.14133">
        <ele>4.2</ele>
        <time>2020-06-17T10:59:22Z</time>
      </trkpt>
      <trkpt lat="49.28538" lon="-0.14124">
        <ele>4.2</ele>
        <time>2020-06-17T10:59:23Z</time>
      </trkpt>
      <trkpt lat="49.28539" lon="-0.14116">
        <ele>4.1</ele>
        <time>2020-06-17T10:59:24Z</time>
      </trkpt>
      <trkpt lat="49.28539" lon="-0.14108">
        <ele>4.1</ele>
        <time>2020-06-17T10:59:25Z</time>
      </trkpt>
      <trkpt lat="49.2854" lon="-0.14099">
        <ele>4.1</ele>
        <time>2020-06-17T10:59:26Z</time>
      </trkpt>
      <trkpt lat="49.28541" lon="-0.1409">
        <ele>4.1</ele>
        <time>2020-06-17T10:59:27Z</time>
      </trkpt>
      <trkpt lat="49.28542" lon="-0.14081">
        <ele>4.1</ele>
        <time>2020-06-17T10:59:28Z</time>
      </trkpt>
      <trkpt lat="49.28543" lon="-0.14073">
        <ele>4.1</ele>
        <time>2020-06-17T10:59:29Z</time>
      </trkpt>
      <trkpt lat="49.28544" lon="-0.14065">
        <ele>4.1</ele>
        <time>2020-06-17T10:59:30Z</time>
      </trkpt>
      <trkpt lat="49.28545" lon="-0.14057">
        <ele>4.1</ele>
        <time>2020-06-17T10:59:31Z</time>
      </trkpt>
      <trkpt lat="49.28545" lon="-0.14048">
        <ele>4.1</ele>
        <time>2020-06-17T10:59:32Z</time>
      </trkpt>
      <trkpt lat="49.28545" lon="-0.14039">
        <ele>4.1</ele>
        <time>2020-06-17T10:59:33Z</time>
      </trkpt>
      <trkpt lat="49.28545" lon="-0.14031">
        <ele>4.1</ele>
        <time>2020-06-17T10:59:34Z</time>
      </trkpt>
      <trkpt lat="49.28546" lon="-0.14023">
        <ele>4.1</ele>
        <time>2020-06-17T10:59:35Z</time>
      </trkpt>
      <trkpt lat="49.28546" lon="-0.14014">
        <ele>4.1</ele>
        <time>2020-06-17T10:59:36Z</time>
      </trkpt>
      <trkpt lat="49.28546" lon="-0.14006">
        <ele>4.1</ele>
        <time>2020-06-17T10:59:37Z</time>
      </trkpt>
      <trkpt lat="49.28546" lon="-0.13998">
        <ele>4.1</ele>
        <time>2020-06-17T10:59:38Z</time>
      </trkpt>
      <trkpt lat="49.28546" lon="-0.1399">
        <ele>4.1</ele>
        <time>2020-06-17T10:59:39Z</time>
      </trkpt>
      <trkpt lat="49.28545" lon="-0.13982">
        <ele>4.1</ele>
        <time>2020-06-17T10:59:40Z</time>
      </trkpt>
      <trkpt lat="49.28545" lon="-0.13974">
        <ele>4.1</ele>
        <time>2020-06-17T10:59:41Z</time>
      </trkpt>
      <trkpt lat="49.28545" lon="-0.13966">
        <ele>4.1</ele>
        <time>2020-06-17T10:59:42Z</time>
      </trkpt>
      <trkpt lat="49.28545" lon="-0.13958">
        <ele>4.1</ele>
        <time>2020-06-17T10:59:43Z</time>
      </trkpt>
      <trkpt lat="49.28546" lon="-0.1395">
        <ele>4</ele>
        <time>2020-06-17T10:59:44Z</time>
      </trkpt>
      <trkpt lat="49.28546" lon="-0.13944">
        <ele>4</ele>
        <time>2020-06-17T10:59:45Z</time>
      </trkpt>
      <trkpt lat="49.28546" lon="-0.13938">
        <ele>4</ele>
        <time>2020-06-17T10:59:46Z</time>
      </trkpt>
      <trkpt lat="49.28549" lon="-0.13935">
        <ele>4</ele>
        <time>2020-06-17T10:59:47Z</time>
      </trkpt>
      <trkpt lat="49.28553" lon="-0.13936">
        <ele>4.1</ele>
        <time>2020-06-17T10:59:48Z</time>
      </trkpt>
      <trkpt lat="49.28556" lon="-0.13935">
        <ele>4.1</ele>
        <time>2020-06-17T10:59:49Z</time>
      </trkpt>
      <trkpt lat="49.2856" lon="-0.13934">
        <ele>4.1</ele>
        <time>2020-06-17T10:59:50Z</time>
      </trkpt>
      <trkpt lat="49.28563" lon="-0.13933">
        <ele>4.1</ele>
        <time>2020-06-17T10:59:51Z</time>
      </trkpt>
      <trkpt lat="49.28567" lon="-0.13932">
        <ele>4.1</ele>
        <time>2020-06-17T10:59:52Z</time>
      </trkpt>
      <trkpt lat="49.28571" lon="-0.13932">
        <ele>4.1</ele>
        <time>2020-06-17T10:59:53Z</time>
      </trkpt>
      <trkpt lat="49.28574" lon="-0.13931">
        <ele>4.1</ele>
        <time>2020-06-17T10:59:54Z</time>
      </trkpt>
      <trkpt lat="49.28577" lon="-0.1393">
        <ele>4.1</ele>
        <time>2020-06-17T10:59:55Z</time>
      </trkpt>
      <trkpt lat="49.2858" lon="-0.1393">
        <ele>4.1</ele>
        <time>2020-06-17T10:59:56Z</time>
      </trkpt>
      <trkpt lat="49.28583" lon="-0.13927">
        <ele>4.1</ele>
        <time>2020-06-17T10:59:57Z</time>
      </trkpt>
      <trkpt lat="49.28586" lon="-0.13929">
        <ele>4.1</ele>
        <time>2020-06-17T10:59:58Z</time>
      </trkpt>
      <trkpt lat="49.28588" lon="-0.1393">
        <ele>4.1</ele>
        <time>2020-06-17T10:59:59Z</time>
      </trkpt>
      <trkpt lat="49.2859" lon="-0.13931">
        <ele>4.1</ele>
        <time>2020-06-17T11:00:00Z</time>
      </trkpt>
      <trkpt lat="49.28594" lon="-0.1393">
        <ele>4.1</ele>
        <time>2020-06-17T11:00:01Z</time>
      </trkpt>
      <trkpt lat="49.28598" lon="-0.13928">
        <ele>4.1</ele>
        <time>2020-06-17T11:00:02Z</time>
      </trkpt>
      <trkpt lat="49.28602" lon="-0.13926">
        <ele>4.2</ele>
        <time>2020-06-17T11:00:03Z</time>
      </trkpt>
      <trkpt lat="49.28606" lon="-0.13925">
        <ele>4.2</ele>
        <time>2020-06-17T11:00:04Z</time>
      </trkpt>
      <trkpt lat="49.28611" lon="-0.13926">
        <ele>4.2</ele>
        <time>2020-06-17T11:00:05Z</time>
      </trkpt>
      <trkpt lat="49.28615" lon="-0.13926">
        <ele>4.2</ele>
        <time>2020-06-17T11:00:06Z</time>
      </trkpt>
      <trkpt lat="49.28618" lon="-0.1393">
        <ele>4.2</ele>
        <time>2020-06-17T11:00:07Z</time>
      </trkpt>
      <trkpt lat="49.28621" lon="-0.13935">
        <ele>4.2</ele>
        <time>2020-06-17T11:00:08Z</time>
      </trkpt>
      <trkpt lat="49.28625" lon="-0.13937">
        <ele>4.3</ele>
        <time>2020-06-17T11:00:09Z</time>
      </trkpt>
      <trkpt lat="49.28629" lon="-0.13936">
        <ele>4.3</ele>
        <time>2020-06-17T11:00:10Z</time>
      </trkpt>
      <trkpt lat="49.28634" lon="-0.13934">
        <ele>4.3</ele>
        <time>2020-06-17T11:00:11Z</time>
      </trkpt>
      <trkpt lat="49.28639" lon="-0.13932">
        <ele>4.3</ele>
        <time>2020-06-17T11:00:12Z</time>
      </trkpt>
      <trkpt lat="49.28645" lon="-0.13931">
        <ele>4.3</ele>
        <time>2020-06-17T11:00:13Z</time>
      </trkpt>
      <trkpt lat="49.2865" lon="-0.1393">
        <ele>4.3</ele>
        <time>2020-06-17T11:00:14Z</time>
      </trkpt>
      <trkpt lat="49.28656" lon="-0.1393">
        <ele>4.3</ele>
        <time>2020-06-17T11:00:15Z</time>
      </trkpt>
      <trkpt lat="49.28662" lon="-0.1393">
        <ele>4.2</ele>
        <time>2020-06-17T11:00:16Z</time>
      </trkpt>
      <trkpt lat="49.28668" lon="-0.13929">
        <ele>4.2</ele>
        <time>2020-06-17T11:00:17Z</time>
      </trkpt>
      <trkpt lat="49.28674" lon="-0.1393">
        <ele>4.2</ele>
        <time>2020-06-17T11:00:18Z</time>
      </trkpt>
      <trkpt lat="49.28679" lon="-0.13932">
        <ele>4.2</ele>
        <time>2020-06-17T11:00:19Z</time>
      </trkpt>
      <trkpt lat="49.28685" lon="-0.13934">
        <ele>4.2</ele>
        <time>2020-06-17T11:00:20Z</time>
      </trkpt>
      <trkpt lat="49.2869" lon="-0.13934">
        <ele>4.2</ele>
        <time>2020-06-17T11:00:21Z</time>
      </trkpt>
      <trkpt lat="49.28696" lon="-0.13935">
        <ele>4.2</ele>
        <time>2020-06-17T11:00:22Z</time>
      </trkpt>
      <trkpt lat="49.28701" lon="-0.13933">
        <ele>4.2</ele>
        <time>2020-06-17T11:00:23Z</time>
      </trkpt>
      <trkpt lat="49.28706" lon="-0.13932">
        <ele>4.2</ele>
        <time>2020-06-17T11:00:24Z</time>
      </trkpt>
      <trkpt lat="49.28711" lon="-0.13931">
        <ele>4.2</ele>
        <time>2020-06-17T11:00:25Z</time>
      </trkpt>
      <trkpt lat="49.28716" lon="-0.1393">
        <ele>4.2</ele>
        <time>2020-06-17T11:00:26Z</time>
      </trkpt>
      <trkpt lat="49.28722" lon="-0.13929">
        <ele>4.2</ele>
        <time>2020-06-17T11:00:27Z</time>
      </trkpt>
      <trkpt lat="49.28727" lon="-0.13928">
        <ele>4.3</ele>
        <time>2020-06-17T11:00:28Z</time>
      </trkpt>
      <trkpt lat="49.28735" lon="-0.13928">
        <ele>4.3</ele>
        <time>2020-06-17T11:00:29Z</time>
      </trkpt>
      <trkpt lat="49.28741" lon="-0.13928">
        <ele>4.3</ele>
        <time>2020-06-17T11:00:30Z</time>
      </trkpt>
      <trkpt lat="49.28747" lon="-0.13929">
        <ele>4.3</ele>
        <time>2020-06-17T11:00:31Z</time>
      </trkpt>
      <trkpt lat="49.28753" lon="-0.1393">
        <ele>4.4</ele>
        <time>2020-06-17T11:00:32Z</time>
      </trkpt>
      <trkpt lat="49.28759" lon="-0.13929">
        <ele>4.4</ele>
        <time>2020-06-17T11:00:33Z</time>
      </trkpt>
      <trkpt lat="49.28765" lon="-0.13929">
        <ele>4.4</ele>
        <time>2020-06-17T11:00:34Z</time>
      </trkpt>
      <trkpt lat="49.28771" lon="-0.13928">
        <ele>4.4</ele>
        <time>2020-06-17T11:00:35Z</time>
      </trkpt>
      <trkpt lat="49.28776" lon="-0.13928">
        <ele>4.5</ele>
        <time>2020-06-17T11:00:36Z</time>
      </trkpt>
      <trkpt lat="49.28781" lon="-0.13929">
        <ele>4.5</ele>
        <time>2020-06-17T11:00:37Z</time>
      </trkpt>
      <trkpt lat="49.28786" lon="-0.13928">
        <ele>4.6</ele>
        <time>2020-06-17T11:00:38Z</time>
      </trkpt>
      <trkpt lat="49.2879" lon="-0.13928">
        <ele>4.6</ele>
        <time>2020-06-17T11:00:39Z</time>
      </trkpt>
      <trkpt lat="49.28794" lon="-0.13927">
        <ele>4.6</ele>
        <time>2020-06-17T11:00:40Z</time>
      </trkpt>
      <trkpt lat="49.288" lon="-0.13927">
        <ele>4.7</ele>
        <time>2020-06-17T11:00:41Z</time>
      </trkpt>
      <trkpt lat="49.28806" lon="-0.13927">
        <ele>4.8</ele>
        <time>2020-06-17T11:00:42Z</time>
      </trkpt>
      <trkpt lat="49.2881" lon="-0.13927">
        <ele>4.8</ele>
        <time>2020-06-17T11:00:43Z</time>
      </trkpt>
      <trkpt lat="49.28816" lon="-0.13926">
        <ele>4.9</ele>
        <time>2020-06-17T11:00:44Z</time>
      </trkpt>
      <trkpt lat="49.28819" lon="-0.13926">
        <ele>4.9</ele>
        <time>2020-06-17T11:00:45Z</time>
      </trkpt>
      <trkpt lat="49.28822" lon="-0.13925">
        <ele>5</ele>
        <time>2020-06-17T11:00:46Z</time>
      </trkpt>
      <trkpt lat="49.28827" lon="-0.13924">
        <ele>5</ele>
        <time>2020-06-17T11:00:47Z</time>
      </trkpt>
      <trkpt lat="49.28831" lon="-0.13924">
        <ele>5.1</ele>
        <time>2020-06-17T11:00:48Z</time>
      </trkpt>
      <trkpt lat="49.28834" lon="-0.13924">
        <ele>5.2</ele>
        <time>2020-06-17T11:00:49Z</time>
      </trkpt>
      <trkpt lat="49.28838" lon="-0.13924">
        <ele>5.3</ele>
        <time>2020-06-17T11:00:50Z</time>
      </trkpt>
      <trkpt lat="49.28841" lon="-0.13924">
        <ele>5.3</ele>
        <time>2020-06-17T11:00:51Z</time>
      </trkpt>
      <trkpt lat="49.28845" lon="-0.13925">
        <ele>5.4</ele>
        <time>2020-06-17T11:00:52Z</time>
      </trkpt>
      <trkpt lat="49.2885" lon="-0.13926">
        <ele>5.5</ele>
        <time>2020-06-17T11:00:53Z</time>
      </trkpt>
      <trkpt lat="49.28854" lon="-0.13926">
        <ele>5.6</ele>
        <time>2020-06-17T11:00:54Z</time>
      </trkpt>
      <trkpt lat="49.2886" lon="-0.13927">
        <ele>5.8</ele>
        <time>2020-06-17T11:00:55Z</time>
      </trkpt>
      <trkpt lat="49.28866" lon="-0.13927">
        <ele>6.1</ele>
        <time>2020-06-17T11:00:56Z</time>
      </trkpt>
      <trkpt lat="49.28871" lon="-0.13927">
        <ele>6.3</ele>
        <time>2020-06-17T11:00:57Z</time>
      </trkpt>
      <trkpt lat="49.28875" lon="-0.13927">
        <ele>6.4</ele>
        <time>2020-06-17T11:00:58Z</time>
      </trkpt>
      <trkpt lat="49.28879" lon="-0.13927">
        <ele>6.6</ele>
        <time>2020-06-17T11:00:59Z</time>
      </trkpt>
      <trkpt lat="49.28885" lon="-0.13924">
        <ele>6.9</ele>
        <time>2020-06-17T11:01:00Z</time>
      </trkpt>
      <trkpt lat="49.28889" lon="-0.13924">
        <ele>7.1</ele>
        <time>2020-06-17T11:01:01Z</time>
      </trkpt>
      <trkpt lat="49.28893" lon="-0.13923">
        <ele>7.3</ele>
        <time>2020-06-17T11:01:02Z</time>
      </trkpt>
      <trkpt lat="49.28896" lon="-0.13923">
        <ele>7.4</ele>
        <time>2020-06-17T11:01:03Z</time>
      </trkpt>
      <trkpt lat="49.28901" lon="-0.13922">
        <ele>7.7</ele>
        <time>2020-06-17T11:01:04Z</time>
      </trkpt>
      <trkpt lat="49.28905" lon="-0.13923">
        <ele>8.1</ele>
        <time>2020-06-17T11:01:05Z</time>
      </trkpt>
      <trkpt lat="49.28909" lon="-0.13924">
        <ele>8.1</ele>
        <time>2020-06-17T11:01:06Z</time>
      </trkpt>
      <trkpt lat="49.2891" lon="-0.13924">
        <ele>8.2</ele>
        <time>2020-06-17T11:01:07Z</time>
      </trkpt>
      <trkpt lat="49.28914" lon="-0.13925">
        <ele>8.2</ele>
        <time>2020-06-17T11:01:08Z</time>
      </trkpt>
      <trkpt lat="49.28917" lon="-0.13924">
        <ele>8.3</ele>
        <time>2020-06-17T11:01:09Z</time>
      </trkpt>
      <trkpt lat="49.28922" lon="-0.13923">
        <ele>8.4</ele>
        <time>2020-06-17T11:01:10Z</time>
      </trkpt>
      <trkpt lat="49.28925" lon="-0.13924">
        <ele>8.4</ele>
        <time>2020-06-17T11:01:11Z</time>
      </trkpt>
      <trkpt lat="49.28928" lon="-0.13924">
        <ele>8.4</ele>
        <time>2020-06-17T11:01:12Z</time>
      </trkpt>
      <trkpt lat="49.28929" lon="-0.13924">
        <ele>8.4</ele>
        <time>2020-06-17T11:01:13Z</time>
      </trkpt>
      <trkpt lat="49.28933" lon="-0.13925">
        <ele>8.5</ele>
        <time>2020-06-17T11:01:14Z</time>
      </trkpt>
      <trkpt lat="49.28934" lon="-0.13925">
        <ele>8.5</ele>
        <time>2020-06-17T11:01:15Z</time>
      </trkpt>
      <trkpt lat="49.28937" lon="-0.13924">
        <ele>8.5</ele>
        <time>2020-06-17T11:01:16Z</time>
      </trkpt>
      <trkpt lat="49.28939" lon="-0.13924">
        <ele>8.5</ele>
        <time>2020-06-17T11:01:17Z</time>
      </trkpt>
      <trkpt lat="49.28941" lon="-0.13923">
        <ele>8.4</ele>
        <time>2020-06-17T11:01:18Z</time>
      </trkpt>
      <trkpt lat="49.28942" lon="-0.13922">
        <ele>8.4</ele>
        <time>2020-06-17T11:01:19Z</time>
      </trkpt>
      <trkpt lat="49.28945" lon="-0.13921">
        <ele>8.4</ele>
        <time>2020-06-17T11:01:20Z</time>
      </trkpt>
      <trkpt lat="49.28946" lon="-0.1392">
        <ele>8.4</ele>
        <time>2020-06-17T11:01:21Z</time>
      </trkpt>
      <trkpt lat="49.2895" lon="-0.13917">
        <ele>8.3</ele>
        <time>2020-06-17T11:01:22Z</time>
      </trkpt>
      <trkpt lat="49.28951" lon="-0.13916">
        <ele>8.3</ele>
        <time>2020-06-17T11:01:23Z</time>
      </trkpt>
      <trkpt lat="49.28954" lon="-0.13914">
        <ele>8.2</ele>
        <time>2020-06-17T11:01:24Z</time>
      </trkpt>
      <trkpt lat="49.28955" lon="-0.13913">
        <ele>8.2</ele>
        <time>2020-06-17T11:01:25Z</time>
      </trkpt>
      <trkpt lat="49.28957" lon="-0.1391">
        <ele>8</ele>
        <time>2020-06-17T11:01:26Z</time>
      </trkpt>
      <trkpt lat="49.28959" lon="-0.13906">
        <ele>8</ele>
        <time>2020-06-17T11:01:27Z</time>
      </trkpt>
      <trkpt lat="49.2896" lon="-0.13901">
        <ele>7.8</ele>
        <time>2020-06-17T11:01:28Z</time>
      </trkpt>
      <trkpt lat="49.28962" lon="-0.13896">
        <ele>7.7</ele>
        <time>2020-06-17T11:01:29Z</time>
      </trkpt>
      <trkpt lat="49.28964" lon="-0.13891">
        <ele>7.6</ele>
        <time>2020-06-17T11:01:30Z</time>
      </trkpt>
      <trkpt lat="49.28967" lon="-0.13885">
        <ele>7.4</ele>
        <time>2020-06-17T11:01:31Z</time>
      </trkpt>
      <trkpt lat="49.28969" lon="-0.1388">
        <ele>7.2</ele>
        <time>2020-06-17T11:01:32Z</time>
      </trkpt>
      <trkpt lat="49.28972" lon="-0.13873">
        <ele>7</ele>
        <time>2020-06-17T11:01:33Z</time>
      </trkpt>
      <trkpt lat="49.28975" lon="-0.13867">
        <ele>7</ele>
        <time>2020-06-17T11:01:34Z</time>
      </trkpt>
      <trkpt lat="49.28976" lon="-0.1386">
        <ele>6.9</ele>
        <time>2020-06-17T11:01:35Z</time>
      </trkpt>
      <trkpt lat="49.28977" lon="-0.13853">
        <ele>6.8</ele>
        <time>2020-06-17T11:01:36Z</time>
      </trkpt>
      <trkpt lat="49.28978" lon="-0.13845">
        <ele>6.7</ele>
        <time>2020-06-17T11:01:37Z</time>
      </trkpt>
      <trkpt lat="49.2898" lon="-0.13838">
        <ele>6.7</ele>
        <time>2020-06-17T11:01:38Z</time>
      </trkpt>
      <trkpt lat="49.28982" lon="-0.1383">
        <ele>6.7</ele>
        <time>2020-06-17T11:01:39Z</time>
      </trkpt>
      <trkpt lat="49.28983" lon="-0.13823">
        <ele>6.6</ele>
        <time>2020-06-17T11:01:40Z</time>
      </trkpt>
      <trkpt lat="49.28983" lon="-0.13815">
        <ele>6.6</ele>
        <time>2020-06-17T11:01:41Z</time>
      </trkpt>
      <trkpt lat="49.28984" lon="-0.13809">
        <ele>6.5</ele>
        <time>2020-06-17T11:01:42Z</time>
      </trkpt>
      <trkpt lat="49.28985" lon="-0.13805">
        <ele>6.5</ele>
        <time>2020-06-17T11:01:43Z</time>
      </trkpt>
      <trkpt lat="49.28986" lon="-0.13798">
        <ele>6.5</ele>
        <time>2020-06-17T11:01:44Z</time>
      </trkpt>
      <trkpt lat="49.28987" lon="-0.13791">
        <ele>6.4</ele>
        <time>2020-06-17T11:01:45Z</time>
      </trkpt>
      <trkpt lat="49.28987" lon="-0.13785">
        <ele>6.4</ele>
        <time>2020-06-17T11:01:46Z</time>
      </trkpt>
      <trkpt lat="49.28989" lon="-0.13779">
        <ele>6.4</ele>
        <time>2020-06-17T11:01:47Z</time>
      </trkpt>
      <trkpt lat="49.28989" lon="-0.13771">
        <ele>6.4</ele>
        <time>2020-06-17T11:01:48Z</time>
      </trkpt>
      <trkpt lat="49.28991" lon="-0.13766">
        <ele>6.4</ele>
        <time>2020-06-17T11:01:49Z</time>
      </trkpt>
      <trkpt lat="49.28991" lon="-0.13762">
        <ele>6.3</ele>
        <time>2020-06-17T11:01:50Z</time>
      </trkpt>
      <trkpt lat="49.28993" lon="-0.13757">
        <ele>6.3</ele>
        <time>2020-06-17T11:01:51Z</time>
      </trkpt>
      <trkpt lat="49.28993" lon="-0.13749">
        <ele>6.3</ele>
        <time>2020-06-17T11:01:52Z</time>
      </trkpt>
      <trkpt lat="49.28994" lon="-0.13745">
        <ele>6.3</ele>
        <time>2020-06-17T11:01:53Z</time>
      </trkpt>
      <trkpt lat="49.28994" lon="-0.13737">
        <ele>6.3</ele>
        <time>2020-06-17T11:01:54Z</time>
      </trkpt>
      <trkpt lat="49.28995" lon="-0.13731">
        <ele>6.2</ele>
        <time>2020-06-17T11:01:55Z</time>
      </trkpt>
      <trkpt lat="49.28995" lon="-0.13728">
        <ele>6.2</ele>
        <time>2020-06-17T11:01:56Z</time>
      </trkpt>
      <trkpt lat="49.28996" lon="-0.13724">
        <ele>6.2</ele>
        <time>2020-06-17T11:01:57Z</time>
      </trkpt>
      <trkpt lat="49.28997" lon="-0.13719">
        <ele>6.2</ele>
        <time>2020-06-17T11:01:58Z</time>
      </trkpt>
      <trkpt lat="49.28999" lon="-0.13712">
        <ele>6.2</ele>
        <time>2020-06-17T11:01:59Z</time>
      </trkpt>
      <trkpt lat="49.29" lon="-0.13706">
        <ele>6.2</ele>
        <time>2020-06-17T11:02:00Z</time>
      </trkpt>
      <trkpt lat="49.29001" lon="-0.137">
        <ele>6.2</ele>
        <time>2020-06-17T11:02:01Z</time>
      </trkpt>
      <trkpt lat="49.29003" lon="-0.13692">
        <ele>6.2</ele>
        <time>2020-06-17T11:02:02Z</time>
      </trkpt>
      <trkpt lat="49.29004" lon="-0.13686">
        <ele>6.2</ele>
        <time>2020-06-17T11:02:03Z</time>
      </trkpt>
      <trkpt lat="49.29005" lon="-0.1368">
        <ele>6.2</ele>
        <time>2020-06-17T11:02:04Z</time>
      </trkpt>
      <trkpt lat="49.29007" lon="-0.13675">
        <ele>6.1</ele>
        <time>2020-06-17T11:02:05Z</time>
      </trkpt>
      <trkpt lat="49.29009" lon="-0.1367">
        <ele>6.1</ele>
        <time>2020-06-17T11:02:06Z</time>
      </trkpt>
      <trkpt lat="49.2901" lon="-0.13665">
        <ele>6</ele>
        <time>2020-06-17T11:02:07Z</time>
      </trkpt>
      <trkpt lat="49.29011" lon="-0.13658">
        <ele>6</ele>
        <time>2020-06-17T11:02:08Z</time>
      </trkpt>
      <trkpt lat="49.29012" lon="-0.1365">
        <ele>5.9</ele>
        <time>2020-06-17T11:02:09Z</time>
      </trkpt>
      <trkpt lat="49.29014" lon="-0.13643">
        <ele>5.8</ele>
        <time>2020-06-17T11:02:10Z</time>
      </trkpt>
      <trkpt lat="49.29015" lon="-0.13635">
        <ele>5.8</ele>
        <time>2020-06-17T11:02:11Z</time>
      </trkpt>
      <trkpt lat="49.29017" lon="-0.13627">
        <ele>5.7</ele>
        <time>2020-06-17T11:02:12Z</time>
      </trkpt>
      <trkpt lat="49.29018" lon="-0.13618">
        <ele>5.7</ele>
        <time>2020-06-17T11:02:13Z</time>
      </trkpt>
      <trkpt lat="49.29019" lon="-0.13612">
        <ele>5.7</ele>
        <time>2020-06-17T11:02:14Z</time>
      </trkpt>
      <trkpt lat="49.2902" lon="-0.13607">
        <ele>5.7</ele>
        <time>2020-06-17T11:02:15Z</time>
      </trkpt>
      <trkpt lat="49.29021" lon="-0.136">
        <ele>5.7</ele>
        <time>2020-06-17T11:02:16Z</time>
      </trkpt>
      <trkpt lat="49.29023" lon="-0.13593">
        <ele>5.7</ele>
        <time>2020-06-17T11:02:17Z</time>
      </trkpt>
      <trkpt lat="49.29023" lon="-0.13584">
        <ele>5.7</ele>
        <time>2020-06-17T11:02:18Z</time>
      </trkpt>
      <trkpt lat="49.29025" lon="-0.13576">
        <ele>5.7</ele>
        <time>2020-06-17T11:02:19Z</time>
      </trkpt>
      <trkpt lat="49.29026" lon="-0.13568">
        <ele>5.7</ele>
        <time>2020-06-17T11:02:20Z</time>
      </trkpt>
      <trkpt lat="49.29027" lon="-0.1356">
        <ele>5.7</ele>
        <time>2020-06-17T11:02:21Z</time>
      </trkpt>
      <trkpt lat="49.29029" lon="-0.13553">
        <ele>5.7</ele>
        <time>2020-06-17T11:02:22Z</time>
      </trkpt>
      <trkpt lat="49.2903" lon="-0.13547">
        <ele>5.7</ele>
        <time>2020-06-17T11:02:23Z</time>
      </trkpt>
      <trkpt lat="49.29031" lon="-0.13541">
        <ele>5.7</ele>
        <time>2020-06-17T11:02:24Z</time>
      </trkpt>
      <trkpt lat="49.29033" lon="-0.13533">
        <ele>5.7</ele>
        <time>2020-06-17T11:02:25Z</time>
      </trkpt>
      <trkpt lat="49.29034" lon="-0.13526">
        <ele>5.8</ele>
        <time>2020-06-17T11:02:26Z</time>
      </trkpt>
      <trkpt lat="49.29036" lon="-0.13519">
        <ele>5.8</ele>
        <time>2020-06-17T11:02:27Z</time>
      </trkpt>
      <trkpt lat="49.29037" lon="-0.13511">
        <ele>5.8</ele>
        <time>2020-06-17T11:02:28Z</time>
      </trkpt>
      <trkpt lat="49.29039" lon="-0.13504">
        <ele>5.8</ele>
        <time>2020-06-17T11:02:29Z</time>
      </trkpt>
      <trkpt lat="49.2904" lon="-0.13497">
        <ele>5.8</ele>
        <time>2020-06-17T11:02:30Z</time>
      </trkpt>
      <trkpt lat="49.29042" lon="-0.13489">
        <ele>5.8</ele>
        <time>2020-06-17T11:02:31Z</time>
      </trkpt>
      <trkpt lat="49.29043" lon="-0.13481">
        <ele>5.8</ele>
        <time>2020-06-17T11:02:32Z</time>
      </trkpt>
      <trkpt lat="49.29045" lon="-0.13474">
        <ele>5.8</ele>
        <time>2020-06-17T11:02:33Z</time>
      </trkpt>
      <trkpt lat="49.29046" lon="-0.13466">
        <ele>5.8</ele>
        <time>2020-06-17T11:02:34Z</time>
      </trkpt>
      <trkpt lat="49.29047" lon="-0.13458">
        <ele>5.8</ele>
        <time>2020-06-17T11:02:35Z</time>
      </trkpt>
      <trkpt lat="49.29048" lon="-0.13452">
        <ele>5.8</ele>
        <time>2020-06-17T11:02:36Z</time>
      </trkpt>
      <trkpt lat="49.2905" lon="-0.13445">
        <ele>5.8</ele>
        <time>2020-06-17T11:02:37Z</time>
      </trkpt>
      <trkpt lat="49.29051" lon="-0.13438">
        <ele>5.7</ele>
        <time>2020-06-17T11:02:38Z</time>
      </trkpt>
      <trkpt lat="49.29051" lon="-0.13429">
        <ele>5.7</ele>
        <time>2020-06-17T11:02:39Z</time>
      </trkpt>
      <trkpt lat="49.29053" lon="-0.13422">
        <ele>5.7</ele>
        <time>2020-06-17T11:02:40Z</time>
      </trkpt>
      <trkpt lat="49.29054" lon="-0.13415">
        <ele>5.7</ele>
        <time>2020-06-17T11:02:41Z</time>
      </trkpt>
      <trkpt lat="49.29055" lon="-0.13406">
        <ele>5.7</ele>
        <time>2020-06-17T11:02:42Z</time>
      </trkpt>
      <trkpt lat="49.29056" lon="-0.13398">
        <ele>5.7</ele>
        <time>2020-06-17T11:02:43Z</time>
      </trkpt>
      <trkpt lat="49.29058" lon="-0.13391">
        <ele>5.6</ele>
        <time>2020-06-17T11:02:44Z</time>
      </trkpt>
      <trkpt lat="49.29058" lon="-0.13383">
        <ele>5.6</ele>
        <time>2020-06-17T11:02:45Z</time>
      </trkpt>
      <trkpt lat="49.29059" lon="-0.13375">
        <ele>5.6</ele>
        <time>2020-06-17T11:02:46Z</time>
      </trkpt>
      <trkpt lat="49.2906" lon="-0.13368">
        <ele>5.6</ele>
        <time>2020-06-17T11:02:47Z</time>
      </trkpt>
      <trkpt lat="49.29061" lon="-0.13362">
        <ele>5.6</ele>
        <time>2020-06-17T11:02:48Z</time>
      </trkpt>
      <trkpt lat="49.29062" lon="-0.13356">
        <ele>5.6</ele>
        <time>2020-06-17T11:02:49Z</time>
      </trkpt>
      <trkpt lat="49.29063" lon="-0.13348">
        <ele>5.6</ele>
        <time>2020-06-17T11:02:50Z</time>
      </trkpt>
      <trkpt lat="49.29064" lon="-0.13342">
        <ele>5.6</ele>
        <time>2020-06-17T11:02:51Z</time>
      </trkpt>
      <trkpt lat="49.29066" lon="-0.13334">
        <ele>5.6</ele>
        <time>2020-06-17T11:02:52Z</time>
      </trkpt>
      <trkpt lat="49.29068" lon="-0.13326">
        <ele>5.6</ele>
        <time>2020-06-17T11:02:53Z</time>
      </trkpt>
      <trkpt lat="49.29069" lon="-0.13319">
        <ele>5.6</ele>
        <time>2020-06-17T11:02:54Z</time>
      </trkpt>
      <trkpt lat="49.2907" lon="-0.13312">
        <ele>5.6</ele>
        <time>2020-06-17T11:02:55Z</time>
      </trkpt>
      <trkpt lat="49.29071" lon="-0.13304">
        <ele>5.6</ele>
        <time>2020-06-17T11:02:56Z</time>
      </trkpt>
      <trkpt lat="49.29073" lon="-0.13297">
        <ele>5.6</ele>
        <time>2020-06-17T11:02:57Z</time>
      </trkpt>
      <trkpt lat="49.29074" lon="-0.13288">
        <ele>5.6</ele>
        <time>2020-06-17T11:02:58Z</time>
      </trkpt>
      <trkpt lat="49.29075" lon="-0.1328">
        <ele>5.6</ele>
        <time>2020-06-17T11:02:59Z</time>
      </trkpt>
      <trkpt lat="49.29076" lon="-0.13274">
        <ele>5.6</ele>
        <time>2020-06-17T11:03:00Z</time>
      </trkpt>
      <trkpt lat="49.29078" lon="-0.13268">
        <ele>5.6</ele>
        <time>2020-06-17T11:03:01Z</time>
      </trkpt>
      <trkpt lat="49.2908" lon="-0.13261">
        <ele>5.6</ele>
        <time>2020-06-17T11:03:02Z</time>
      </trkpt>
      <trkpt lat="49.29082" lon="-0.13254">
        <ele>5.6</ele>
        <time>2020-06-17T11:03:03Z</time>
      </trkpt>
      <trkpt lat="49.29083" lon="-0.13246">
        <ele>5.6</ele>
        <time>2020-06-17T11:03:04Z</time>
      </trkpt>
      <trkpt lat="49.29085" lon="-0.13236">
        <ele>5.6</ele>
        <time>2020-06-17T11:03:05Z</time>
      </trkpt>
      <trkpt lat="49.29086" lon="-0.13228">
        <ele>5.6</ele>
        <time>2020-06-17T11:03:06Z</time>
      </trkpt>
      <trkpt lat="49.29087" lon="-0.13219">
        <ele>5.7</ele>
        <time>2020-06-17T11:03:07Z</time>
      </trkpt>
      <trkpt lat="49.29089" lon="-0.13209">
        <ele>5.7</ele>
        <time>2020-06-17T11:03:08Z</time>
      </trkpt>
      <trkpt lat="49.2909" lon="-0.13203">
        <ele>5.7</ele>
        <time>2020-06-17T11:03:09Z</time>
      </trkpt>
      <trkpt lat="49.29091" lon="-0.13195">
        <ele>5.7</ele>
        <time>2020-06-17T11:03:10Z</time>
      </trkpt>
      <trkpt lat="49.29092" lon="-0.13187">
        <ele>5.7</ele>
        <time>2020-06-17T11:03:11Z</time>
      </trkpt>
      <trkpt lat="49.29094" lon="-0.13178">
        <ele>5</ele>
        <time>2020-06-17T11:03:12Z</time>
      </trkpt>
      <trkpt lat="49.29095" lon="-0.13172">
        <ele>5</ele>
        <time>2020-06-17T11:03:13Z</time>
      </trkpt>
      <trkpt lat="49.29096" lon="-0.13166">
        <ele>5</ele>
        <time>2020-06-17T11:03:14Z</time>
      </trkpt>
      <trkpt lat="49.29097" lon="-0.13159">
        <ele>5</ele>
        <time>2020-06-17T11:03:15Z</time>
      </trkpt>
      <trkpt lat="49.29098" lon="-0.13152">
        <ele>5</ele>
        <time>2020-06-17T11:03:16Z</time>
      </trkpt>
      <trkpt lat="49.29099" lon="-0.13144">
        <ele>5</ele>
        <time>2020-06-17T11:03:17Z</time>
      </trkpt>
      <trkpt lat="49.291" lon="-0.13135">
        <ele>5</ele>
        <time>2020-06-17T11:03:18Z</time>
      </trkpt>
      <trkpt lat="49.29102" lon="-0.13128">
        <ele>5</ele>
        <time>2020-06-17T11:03:19Z</time>
      </trkpt>
      <trkpt lat="49.29103" lon="-0.13121">
        <ele>5</ele>
        <time>2020-06-17T11:03:20Z</time>
      </trkpt>
      <trkpt lat="49.29105" lon="-0.13114">
        <ele>5</ele>
        <time>2020-06-17T11:03:21Z</time>
      </trkpt>
      <trkpt lat="49.29107" lon="-0.13105">
        <ele>5</ele>
        <time>2020-06-17T11:03:22Z</time>
      </trkpt>
      <trkpt lat="49.29108" lon="-0.13097">
        <ele>5</ele>
        <time>2020-06-17T11:03:23Z</time>
      </trkpt>
      <trkpt lat="49.2911" lon="-0.13088">
        <ele>5</ele>
        <time>2020-06-17T11:03:24Z</time>
      </trkpt>
      <trkpt lat="49.29111" lon="-0.13079">
        <ele>5</ele>
        <time>2020-06-17T11:03:25Z</time>
      </trkpt>
      <trkpt lat="49.29112" lon="-0.13072">
        <ele>5</ele>
        <time>2020-06-17T11:03:26Z</time>
      </trkpt>
      <trkpt lat="49.29113" lon="-0.13065">
        <ele>5</ele>
        <time>2020-06-17T11:03:27Z</time>
      </trkpt>
      <trkpt lat="49.29115" lon="-0.13057">
        <ele>5.1</ele>
        <time>2020-06-17T11:03:28Z</time>
      </trkpt>
      <trkpt lat="49.29116" lon="-0.1305">
        <ele>5.2</ele>
        <time>2020-06-17T11:03:29Z</time>
      </trkpt>
      <trkpt lat="49.29117" lon="-0.13043">
        <ele>5.2</ele>
        <time>2020-06-17T11:03:30Z</time>
      </trkpt>
      <trkpt lat="49.29119" lon="-0.13035">
        <ele>5.2</ele>
        <time>2020-06-17T11:03:31Z</time>
      </trkpt>
      <trkpt lat="49.29121" lon="-0.13026">
        <ele>5.3</ele>
        <time>2020-06-17T11:03:32Z</time>
      </trkpt>
      <trkpt lat="49.29122" lon="-0.13018">
        <ele>5.3</ele>
        <time>2020-06-17T11:03:33Z</time>
      </trkpt>
      <trkpt lat="49.29124" lon="-0.1301">
        <ele>5.4</ele>
        <time>2020-06-17T11:03:34Z</time>
      </trkpt>
      <trkpt lat="49.29125" lon="-0.13003">
        <ele>5.4</ele>
        <time>2020-06-17T11:03:35Z</time>
      </trkpt>
      <trkpt lat="49.29126" lon="-0.12994">
        <ele>5.4</ele>
        <time>2020-06-17T11:03:36Z</time>
      </trkpt>
      <trkpt lat="49.29128" lon="-0.12987">
        <ele>5.5</ele>
        <time>2020-06-17T11:03:37Z</time>
      </trkpt>
      <trkpt lat="49.2913" lon="-0.12982">
        <ele>5.5</ele>
        <time>2020-06-17T11:03:38Z</time>
      </trkpt>
      <trkpt lat="49.29132" lon="-0.12974">
        <ele>5.6</ele>
        <time>2020-06-17T11:03:39Z</time>
      </trkpt>
      <trkpt lat="49.29134" lon="-0.12968">
        <ele>5.6</ele>
        <time>2020-06-17T11:03:40Z</time>
      </trkpt>
      <trkpt lat="49.29135" lon="-0.12959">
        <ele>5.6</ele>
        <time>2020-06-17T11:03:41Z</time>
      </trkpt>
      <trkpt lat="49.29137" lon="-0.12951">
        <ele>5.6</ele>
        <time>2020-06-17T11:03:42Z</time>
      </trkpt>
      <trkpt lat="49.29138" lon="-0.12943">
        <ele>5.6</ele>
        <time>2020-06-17T11:03:43Z</time>
      </trkpt>
      <trkpt lat="49.29139" lon="-0.12936">
        <ele>5.6</ele>
        <time>2020-06-17T11:03:44Z</time>
      </trkpt>
      <trkpt lat="49.29141" lon="-0.12927">
        <ele>5.6</ele>
        <time>2020-06-17T11:03:45Z</time>
      </trkpt>
      <trkpt lat="49.29143" lon="-0.12918">
        <ele>5.6</ele>
        <time>2020-06-17T11:03:46Z</time>
      </trkpt>
      <trkpt lat="49.29144" lon="-0.1291">
        <ele>5.6</ele>
        <time>2020-06-17T11:03:47Z</time>
      </trkpt>
      <trkpt lat="49.29146" lon="-0.12902">
        <ele>5.6</ele>
        <time>2020-06-17T11:03:48Z</time>
      </trkpt>
      <trkpt lat="49.29148" lon="-0.12892">
        <ele>5.6</ele>
        <time>2020-06-17T11:03:49Z</time>
      </trkpt>
      <trkpt lat="49.29149" lon="-0.12885">
        <ele>5.6</ele>
        <time>2020-06-17T11:03:50Z</time>
      </trkpt>
      <trkpt lat="49.29151" lon="-0.12877">
        <ele>5.6</ele>
        <time>2020-06-17T11:03:51Z</time>
      </trkpt>
      <trkpt lat="49.29152" lon="-0.12868">
        <ele>5.6</ele>
        <time>2020-06-17T11:03:52Z</time>
      </trkpt>
      <trkpt lat="49.29154" lon="-0.12861">
        <ele>5.6</ele>
        <time>2020-06-17T11:03:53Z</time>
      </trkpt>
      <trkpt lat="49.29155" lon="-0.12852">
        <ele>5.7</ele>
        <time>2020-06-17T11:03:54Z</time>
      </trkpt>
      <trkpt lat="49.29158" lon="-0.12845">
        <ele>5.7</ele>
        <time>2020-06-17T11:03:55Z</time>
      </trkpt>
      <trkpt lat="49.2916" lon="-0.12837">
        <ele>5.7</ele>
        <time>2020-06-17T11:03:56Z</time>
      </trkpt>
      <trkpt lat="49.29162" lon="-0.12829">
        <ele>5.7</ele>
        <time>2020-06-17T11:03:57Z</time>
      </trkpt>
      <trkpt lat="49.29164" lon="-0.12819">
        <ele>5.7</ele>
        <time>2020-06-17T11:03:58Z</time>
      </trkpt>
      <trkpt lat="49.29165" lon="-0.12813">
        <ele>5.8</ele>
        <time>2020-06-17T11:03:59Z</time>
      </trkpt>
      <trkpt lat="49.29167" lon="-0.12806">
        <ele>5.8</ele>
        <time>2020-06-17T11:04:00Z</time>
      </trkpt>
      <trkpt lat="49.29169" lon="-0.12799">
        <ele>5.9</ele>
        <time>2020-06-17T11:04:01Z</time>
      </trkpt>
      <trkpt lat="49.29171" lon="-0.12791">
        <ele>5.9</ele>
        <time>2020-06-17T11:04:02Z</time>
      </trkpt>
      <trkpt lat="49.29172" lon="-0.12785">
        <ele>5.9</ele>
        <time>2020-06-17T11:04:03Z</time>
      </trkpt>
      <trkpt lat="49.29174" lon="-0.12778">
        <ele>6</ele>
        <time>2020-06-17T11:04:04Z</time>
      </trkpt>
      <trkpt lat="49.29175" lon="-0.1277">
        <ele>6</ele>
        <time>2020-06-17T11:04:05Z</time>
      </trkpt>
      <trkpt lat="49.29176" lon="-0.12763">
        <ele>6</ele>
        <time>2020-06-17T11:04:06Z</time>
      </trkpt>
      <trkpt lat="49.29178" lon="-0.12756">
        <ele>6.1</ele>
        <time>2020-06-17T11:04:07Z</time>
      </trkpt>
      <trkpt lat="49.29179" lon="-0.12751">
        <ele>6.1</ele>
        <time>2020-06-17T11:04:08Z</time>
      </trkpt>
      <trkpt lat="49.29181" lon="-0.12741">
        <ele>6.1</ele>
        <time>2020-06-17T11:04:09Z</time>
      </trkpt>
      <trkpt lat="49.29183" lon="-0.12732">
        <ele>6.1</ele>
        <time>2020-06-17T11:04:10Z</time>
      </trkpt>
      <trkpt lat="49.29184" lon="-0.12727">
        <ele>6.1</ele>
        <time>2020-06-17T11:04:11Z</time>
      </trkpt>
      <trkpt lat="49.29186" lon="-0.12721">
        <ele>6.1</ele>
        <time>2020-06-17T11:04:12Z</time>
      </trkpt>
      <trkpt lat="49.29187" lon="-0.12714">
        <ele>6.1</ele>
        <time>2020-06-17T11:04:13Z</time>
      </trkpt>
      <trkpt lat="49.2919" lon="-0.12707">
        <ele>6</ele>
        <time>2020-06-17T11:04:14Z</time>
      </trkpt>
      <trkpt lat="49.29191" lon="-0.12699">
        <ele>6</ele>
        <time>2020-06-17T11:04:15Z</time>
      </trkpt>
      <trkpt lat="49.29192" lon="-0.12692">
        <ele>6</ele>
        <time>2020-06-17T11:04:16Z</time>
      </trkpt>
      <trkpt lat="49.29193" lon="-0.12684">
        <ele>6</ele>
        <time>2020-06-17T11:04:17Z</time>
      </trkpt>
      <trkpt lat="49.29194" lon="-0.12675">
        <ele>6</ele>
        <time>2020-06-17T11:04:18Z</time>
      </trkpt>
      <trkpt lat="49.29196" lon="-0.1267">
        <ele>6</ele>
        <time>2020-06-17T11:04:19Z</time>
      </trkpt>
      <trkpt lat="49.29197" lon="-0.12662">
        <ele>6</ele>
        <time>2020-06-17T11:04:20Z</time>
      </trkpt>
      <trkpt lat="49.29198" lon="-0.12654">
        <ele>6</ele>
        <time>2020-06-17T11:04:21Z</time>
      </trkpt>
      <trkpt lat="49.292" lon="-0.12646">
        <ele>6</ele>
        <time>2020-06-17T11:04:22Z</time>
      </trkpt>
      <trkpt lat="49.29202" lon="-0.12639">
        <ele>6</ele>
        <time>2020-06-17T11:04:23Z</time>
      </trkpt>
      <trkpt lat="49.29203" lon="-0.12632">
        <ele>6</ele>
        <time>2020-06-17T11:04:24Z</time>
      </trkpt>
      <trkpt lat="49.29205" lon="-0.12626">
        <ele>6</ele>
        <time>2020-06-17T11:04:25Z</time>
      </trkpt>
      <trkpt lat="49.29206" lon="-0.12619">
        <ele>6</ele>
        <time>2020-06-17T11:04:26Z</time>
      </trkpt>
      <trkpt lat="49.29207" lon="-0.12611">
        <ele>6</ele>
        <time>2020-06-17T11:04:27Z</time>
      </trkpt>
      <trkpt lat="49.29208" lon="-0.12606">
        <ele>6</ele>
        <time>2020-06-17T11:04:28Z</time>
      </trkpt>
      <trkpt lat="49.29209" lon="-0.126">
        <ele>6</ele>
        <time>2020-06-17T11:04:29Z</time>
      </trkpt>
      <trkpt lat="49.29211" lon="-0.12596">
        <ele>6</ele>
        <time>2020-06-17T11:04:30Z</time>
      </trkpt>
      <trkpt lat="49.29212" lon="-0.12591">
        <ele>6</ele>
        <time>2020-06-17T11:04:31Z</time>
      </trkpt>
      <trkpt lat="49.29214" lon="-0.12585">
        <ele>6</ele>
        <time>2020-06-17T11:04:32Z</time>
      </trkpt>
      <trkpt lat="49.29215" lon="-0.12579">
        <ele>6</ele>
        <time>2020-06-17T11:04:33Z</time>
      </trkpt>
      <trkpt lat="49.29217" lon="-0.12574">
        <ele>6.1</ele>
        <time>2020-06-17T11:04:34Z</time>
      </trkpt>
      <trkpt lat="49.29218" lon="-0.12569">
        <ele>6.1</ele>
        <time>2020-06-17T11:04:35Z</time>
      </trkpt>
      <trkpt lat="49.29218" lon="-0.12562">
        <ele>6.1</ele>
        <time>2020-06-17T11:04:36Z</time>
      </trkpt>
      <trkpt lat="49.2922" lon="-0.12556">
        <ele>6.1</ele>
        <time>2020-06-17T11:04:37Z</time>
      </trkpt>
      <trkpt lat="49.29221" lon="-0.12548">
        <ele>6.1</ele>
        <time>2020-06-17T11:04:38Z</time>
      </trkpt>
      <trkpt lat="49.29222" lon="-0.12542">
        <ele>6.1</ele>
        <time>2020-06-17T11:04:39Z</time>
      </trkpt>
      <trkpt lat="49.29222" lon="-0.12536">
        <ele>6.1</ele>
        <time>2020-06-17T11:04:40Z</time>
      </trkpt>
      <trkpt lat="49.29223" lon="-0.1253">
        <ele>6.1</ele>
        <time>2020-06-17T11:04:41Z</time>
      </trkpt>
      <trkpt lat="49.29222" lon="-0.12522">
        <ele>6.1</ele>
        <time>2020-06-17T11:04:42Z</time>
      </trkpt>
      <trkpt lat="49.29223" lon="-0.12515">
        <ele>6.2</ele>
        <time>2020-06-17T11:04:43Z</time>
      </trkpt>
      <trkpt lat="49.29225" lon="-0.1251">
        <ele>6.2</ele>
        <time>2020-06-17T11:04:44Z</time>
      </trkpt>
      <trkpt lat="49.29226" lon="-0.12504">
        <ele>6.2</ele>
        <time>2020-06-17T11:04:45Z</time>
      </trkpt>
      <trkpt lat="49.29229" lon="-0.12496">
        <ele>6.2</ele>
        <time>2020-06-17T11:04:46Z</time>
      </trkpt>
      <trkpt lat="49.29231" lon="-0.12489">
        <ele>6.2</ele>
        <time>2020-06-17T11:04:47Z</time>
      </trkpt>
      <trkpt lat="49.29233" lon="-0.12484">
        <ele>6.3</ele>
        <time>2020-06-17T11:04:48Z</time>
      </trkpt>
      <trkpt lat="49.29235" lon="-0.12477">
        <ele>6.3</ele>
        <time>2020-06-17T11:04:49Z</time>
      </trkpt>
      <trkpt lat="49.29236" lon="-0.12471">
        <ele>6.3</ele>
        <time>2020-06-17T11:04:50Z</time>
      </trkpt>
      <trkpt lat="49.29237" lon="-0.12464">
        <ele>6.4</ele>
        <time>2020-06-17T11:04:51Z</time>
      </trkpt>
      <trkpt lat="49.29238" lon="-0.12458">
        <ele>6.4</ele>
        <time>2020-06-17T11:04:52Z</time>
      </trkpt>
      <trkpt lat="49.29239" lon="-0.1245">
        <ele>6.4</ele>
        <time>2020-06-17T11:04:53Z</time>
      </trkpt>
      <trkpt lat="49.2924" lon="-0.12444">
        <ele>6.4</ele>
        <time>2020-06-17T11:04:54Z</time>
      </trkpt>
      <trkpt lat="49.29242" lon="-0.12438">
        <ele>6.4</ele>
        <time>2020-06-17T11:04:55Z</time>
      </trkpt>
      <trkpt lat="49.29243" lon="-0.12433">
        <ele>6.4</ele>
        <time>2020-06-17T11:04:56Z</time>
      </trkpt>
      <trkpt lat="49.29244" lon="-0.12426">
        <ele>6.4</ele>
        <time>2020-06-17T11:04:57Z</time>
      </trkpt>
      <trkpt lat="49.29244" lon="-0.12423">
        <ele>6.4</ele>
        <time>2020-06-17T11:04:58Z</time>
      </trkpt>
      <trkpt lat="49.29246" lon="-0.12418">
        <ele>6.4</ele>
        <time>2020-06-17T11:04:59Z</time>
      </trkpt>
      <trkpt lat="49.29246" lon="-0.12413">
        <ele>6.4</ele>
        <time>2020-06-17T11:05:00Z</time>
      </trkpt>
      <trkpt lat="49.29246" lon="-0.12411">
        <ele>6.4</ele>
        <time>2020-06-17T11:05:01Z</time>
      </trkpt>
      <trkpt lat="49.29246" lon="-0.1241">
        <ele>6.4</ele>
        <time>2020-06-17T11:05:02Z</time>
      </trkpt>
      <trkpt lat="49.29245" lon="-0.12407">
        <ele>6.4</ele>
        <time>2020-06-17T11:05:03Z</time>
      </trkpt>
      <trkpt lat="49.29245" lon="-0.12406">
        <ele>6.4</ele>
        <time>2020-06-17T11:05:04Z</time>
      </trkpt>
      <trkpt lat="49.29245" lon="-0.12407">
        <ele>6.4</ele>
        <time>2020-06-17T11:05:05Z</time>
      </trkpt>
      <trkpt lat="49.29246" lon="-0.12407">
        <ele>6.4</ele>
        <time>2020-06-17T11:05:06Z</time>
      </trkpt>
      <trkpt lat="49.29246" lon="-0.12408">
        <ele>6.4</ele>
        <time>2020-06-17T11:05:07Z</time>
      </trkpt>
      <trkpt lat="49.29247" lon="-0.12408">
        <ele>6.4</ele>
        <time>2020-06-17T11:05:08Z</time>
      </trkpt>
      <trkpt lat="49.29246" lon="-0.12407">
        <ele>6.4</ele>
        <time>2020-06-17T11:05:09Z</time>
      </trkpt>
      <trkpt lat="49.29247" lon="-0.12407">
        <ele>6.4</ele>
        <time>2020-06-17T11:05:10Z</time>
      </trkpt>
      <trkpt lat="49.29247" lon="-0.12407">
        <ele>6.4</ele>
        <time>2020-06-17T11:05:11Z</time>
      </trkpt>
      <trkpt lat="49.29247" lon="-0.12407">
        <ele>6.4</ele>
        <time>2020-06-17T11:05:12Z</time>
      </trkpt>
      <trkpt lat="49.29247" lon="-0.12407">
        <ele>6.4</ele>
        <time>2020-06-17T11:05:13Z</time>
      </trkpt>
      <trkpt lat="49.29247" lon="-0.12407">
        <ele>6.4</ele>
        <time>2020-06-17T11:05:14Z</time>
      </trkpt>
      <trkpt lat="49.29247" lon="-0.12406">
        <ele>6.4</ele>
        <time>2020-06-17T11:05:15Z</time>
      </trkpt>
      <trkpt lat="49.29247" lon="-0.12405">
        <ele>6.4</ele>
        <time>2020-06-17T11:05:16Z</time>
      </trkpt>
      <trkpt lat="49.29247" lon="-0.12405">
        <ele>6.4</ele>
        <time>2020-06-17T11:05:17Z</time>
      </trkpt>
      <trkpt lat="49.29247" lon="-0.12405">
        <ele>6.4</ele>
        <time>2020-06-17T11:05:18Z</time>
      </trkpt>
      <trkpt lat="49.29247" lon="-0.12403">
        <ele>6.4</ele>
        <time>2020-06-17T11:05:19Z</time>
      </trkpt>
      <trkpt lat="49.29248" lon="-0.124">
        <ele>6.4</ele>
        <time>2020-06-17T11:05:20Z</time>
      </trkpt>
      <trkpt lat="49.29248" lon="-0.12398">
        <ele>6.4</ele>
        <time>2020-06-17T11:05:21Z</time>
      </trkpt>
      <trkpt lat="49.29248" lon="-0.12397">
        <ele>6.4</ele>
        <time>2020-06-17T11:05:22Z</time>
      </trkpt>
      <trkpt lat="49.29249" lon="-0.12397">
        <ele>6.4</ele>
        <time>2020-06-17T11:05:23Z</time>
      </trkpt>
      <trkpt lat="49.2925" lon="-0.12394">
        <ele>6.4</ele>
        <time>2020-06-17T11:05:24Z</time>
      </trkpt>
      <trkpt lat="49.29252" lon="-0.12389">
        <ele>6.3</ele>
        <time>2020-06-17T11:05:25Z</time>
      </trkpt>
      <trkpt lat="49.29253" lon="-0.12382">
        <ele>6.3</ele>
        <time>2020-06-17T11:05:26Z</time>
      </trkpt>
      <trkpt lat="49.29253" lon="-0.12377">
        <ele>6.4</ele>
        <time>2020-06-17T11:05:27Z</time>
      </trkpt>
      <trkpt lat="49.29254" lon="-0.1237">
        <ele>6.4</ele>
        <time>2020-06-17T11:05:28Z</time>
      </trkpt>
      <trkpt lat="49.29255" lon="-0.12366">
        <ele>6.4</ele>
        <time>2020-06-17T11:05:29Z</time>
      </trkpt>
      <trkpt lat="49.29256" lon="-0.12359">
        <ele>6.5</ele>
        <time>2020-06-17T11:05:30Z</time>
      </trkpt>
      <trkpt lat="49.29259" lon="-0.12354">
        <ele>6.5</ele>
        <time>2020-06-17T11:05:31Z</time>
      </trkpt>
      <trkpt lat="49.2926" lon="-0.12349">
        <ele>6.5</ele>
        <time>2020-06-17T11:05:32Z</time>
      </trkpt>
      <trkpt lat="49.29261" lon="-0.12342">
        <ele>6.6</ele>
        <time>2020-06-17T11:05:33Z</time>
      </trkpt>
      <trkpt lat="49.29262" lon="-0.12336">
        <ele>6.6</ele>
        <time>2020-06-17T11:05:34Z</time>
      </trkpt>
      <trkpt lat="49.29262" lon="-0.12328">
        <ele>6.6</ele>
        <time>2020-06-17T11:05:35Z</time>
      </trkpt>
      <trkpt lat="49.29264" lon="-0.12319">
        <ele>6.7</ele>
        <time>2020-06-17T11:05:36Z</time>
      </trkpt>
      <trkpt lat="49.29266" lon="-0.12311">
        <ele>6.8</ele>
        <time>2020-06-17T11:05:37Z</time>
      </trkpt>
      <trkpt lat="49.29268" lon="-0.12304">
        <ele>6.7</ele>
        <time>2020-06-17T11:05:38Z</time>
      </trkpt>
      <trkpt lat="49.2927" lon="-0.12298">
        <ele>6.7</ele>
        <time>2020-06-17T11:05:39Z</time>
      </trkpt>
      <trkpt lat="49.29271" lon="-0.1229">
        <ele>6.8</ele>
        <time>2020-06-17T11:05:40Z</time>
      </trkpt>
      <trkpt lat="49.29274" lon="-0.12284">
        <ele>6.8</ele>
        <time>2020-06-17T11:05:41Z</time>
      </trkpt>
      <trkpt lat="49.29276" lon="-0.12278">
        <ele>6.8</ele>
        <time>2020-06-17T11:05:42Z</time>
      </trkpt>
      <trkpt lat="49.29277" lon="-0.12271">
        <ele>6.8</ele>
        <time>2020-06-17T11:05:43Z</time>
      </trkpt>
      <trkpt lat="49.29278" lon="-0.12264">
        <ele>6.8</ele>
        <time>2020-06-17T11:05:44Z</time>
      </trkpt>
      <trkpt lat="49.29278" lon="-0.12257">
        <ele>6.8</ele>
        <time>2020-06-17T11:05:45Z</time>
      </trkpt>
      <trkpt lat="49.29279" lon="-0.1225">
        <ele>6.9</ele>
        <time>2020-06-17T11:05:46Z</time>
      </trkpt>
      <trkpt lat="49.2928" lon="-0.12244">
        <ele>6.9</ele>
        <time>2020-06-17T11:05:47Z</time>
      </trkpt>
      <trkpt lat="49.29283" lon="-0.12239">
        <ele>6.9</ele>
        <time>2020-06-17T11:05:48Z</time>
      </trkpt>
      <trkpt lat="49.29285" lon="-0.12234">
        <ele>6.9</ele>
        <time>2020-06-17T11:05:49Z</time>
      </trkpt>
      <trkpt lat="49.29286" lon="-0.12227">
        <ele>7</ele>
        <time>2020-06-17T11:05:50Z</time>
      </trkpt>
      <trkpt lat="49.29287" lon="-0.12219">
        <ele>7</ele>
        <time>2020-06-17T11:05:51Z</time>
      </trkpt>
      <trkpt lat="49.29288" lon="-0.12213">
        <ele>7</ele>
        <time>2020-06-17T11:05:52Z</time>
      </trkpt>
      <trkpt lat="49.29289" lon="-0.12206">
        <ele>7</ele>
        <time>2020-06-17T11:05:53Z</time>
      </trkpt>
      <trkpt lat="49.29291" lon="-0.12199">
        <ele>7</ele>
        <time>2020-06-17T11:05:54Z</time>
      </trkpt>
      <trkpt lat="49.29292" lon="-0.12192">
        <ele>7</ele>
        <time>2020-06-17T11:05:55Z</time>
      </trkpt>
      <trkpt lat="49.29293" lon="-0.12186">
        <ele>7</ele>
        <time>2020-06-17T11:05:56Z</time>
      </trkpt>
      <trkpt lat="49.29295" lon="-0.12179">
        <ele>7</ele>
        <time>2020-06-17T11:05:57Z</time>
      </trkpt>
      <trkpt lat="49.29296" lon="-0.12173">
        <ele>7</ele>
        <time>2020-06-17T11:05:58Z</time>
      </trkpt>
      <trkpt lat="49.29298" lon="-0.12167">
        <ele>7.1</ele>
        <time>2020-06-17T11:05:59Z</time>
      </trkpt>
      <trkpt lat="49.293" lon="-0.12161">
        <ele>7.1</ele>
        <time>2020-06-17T11:06:00Z</time>
      </trkpt>
      <trkpt lat="49.29301" lon="-0.12156">
        <ele>7.1</ele>
        <time>2020-06-17T11:06:01Z</time>
      </trkpt>
      <trkpt lat="49.29302" lon="-0.12151">
        <ele>7.1</ele>
        <time>2020-06-17T11:06:02Z</time>
      </trkpt>
      <trkpt lat="49.29304" lon="-0.12146">
        <ele>7.1</ele>
        <time>2020-06-17T11:06:03Z</time>
      </trkpt>
      <trkpt lat="49.29305" lon="-0.12141">
        <ele>7.2</ele>
        <time>2020-06-17T11:06:04Z</time>
      </trkpt>
      <trkpt lat="49.29306" lon="-0.12135">
        <ele>7.2</ele>
        <time>2020-06-17T11:06:05Z</time>
      </trkpt>
      <trkpt lat="49.29307" lon="-0.12128">
        <ele>7.2</ele>
        <time>2020-06-17T11:06:06Z</time>
      </trkpt>
      <trkpt lat="49.29307" lon="-0.12122">
        <ele>7.2</ele>
        <time>2020-06-17T11:06:07Z</time>
      </trkpt>
      <trkpt lat="49.29308" lon="-0.12114">
        <ele>7.2</ele>
        <time>2020-06-17T11:06:08Z</time>
      </trkpt>
      <trkpt lat="49.29309" lon="-0.12108">
        <ele>7.2</ele>
        <time>2020-06-17T11:06:09Z</time>
      </trkpt>
      <trkpt lat="49.2931" lon="-0.12102">
        <ele>7.2</ele>
        <time>2020-06-17T11:06:10Z</time>
      </trkpt>
      <trkpt lat="49.29312" lon="-0.12096">
        <ele>7.2</ele>
        <time>2020-06-17T11:06:11Z</time>
      </trkpt>
      <trkpt lat="49.29314" lon="-0.12089">
        <ele>7.3</ele>
        <time>2020-06-17T11:06:12Z</time>
      </trkpt>
      <trkpt lat="49.29316" lon="-0.12084">
        <ele>7.3</ele>
        <time>2020-06-17T11:06:13Z</time>
      </trkpt>
      <trkpt lat="49.29317" lon="-0.12078">
        <ele>7.3</ele>
        <time>2020-06-17T11:06:14Z</time>
      </trkpt>
      <trkpt lat="49.29318" lon="-0.12072">
        <ele>7.3</ele>
        <time>2020-06-17T11:06:15Z</time>
      </trkpt>
      <trkpt lat="49.2932" lon="-0.12067">
        <ele>7.3</ele>
        <time>2020-06-17T11:06:16Z</time>
      </trkpt>
      <trkpt lat="49.2932" lon="-0.12062">
        <ele>7.3</ele>
        <time>2020-06-17T11:06:17Z</time>
      </trkpt>
      <trkpt lat="49.29321" lon="-0.12057">
        <ele>7.3</ele>
        <time>2020-06-17T11:06:18Z</time>
      </trkpt>
      <trkpt lat="49.29322" lon="-0.12052">
        <ele>7.3</ele>
        <time>2020-06-17T11:06:19Z</time>
      </trkpt>
      <trkpt lat="49.29324" lon="-0.12044">
        <ele>7.3</ele>
        <time>2020-06-17T11:06:20Z</time>
      </trkpt>
      <trkpt lat="49.29325" lon="-0.12037">
        <ele>7.3</ele>
        <time>2020-06-17T11:06:21Z</time>
      </trkpt>
      <trkpt lat="49.29325" lon="-0.12031">
        <ele>7.3</ele>
        <time>2020-06-17T11:06:22Z</time>
      </trkpt>
      <trkpt lat="49.29326" lon="-0.12025">
        <ele>7.3</ele>
        <time>2020-06-17T11:06:23Z</time>
      </trkpt>
      <trkpt lat="49.29327" lon="-0.1202">
        <ele>7.3</ele>
        <time>2020-06-17T11:06:24Z</time>
      </trkpt>
      <trkpt lat="49.29328" lon="-0.12014">
        <ele>7.3</ele>
        <time>2020-06-17T11:06:25Z</time>
      </trkpt>
      <trkpt lat="49.29329" lon="-0.12008">
        <ele>7.3</ele>
        <time>2020-06-17T11:06:26Z</time>
      </trkpt>
      <trkpt lat="49.29331" lon="-0.12001">
        <ele>7.3</ele>
        <time>2020-06-17T11:06:27Z</time>
      </trkpt>
      <trkpt lat="49.29332" lon="-0.11995">
        <ele>7.4</ele>
        <time>2020-06-17T11:06:28Z</time>
      </trkpt>
      <trkpt lat="49.29335" lon="-0.11989">
        <ele>7.4</ele>
        <time>2020-06-17T11:06:29Z</time>
      </trkpt>
      <trkpt lat="49.29337" lon="-0.11983">
        <ele>7.4</ele>
        <time>2020-06-17T11:06:30Z</time>
      </trkpt>
      <trkpt lat="49.29339" lon="-0.11976">
        <ele>7.4</ele>
        <time>2020-06-17T11:06:31Z</time>
      </trkpt>
      <trkpt lat="49.29341" lon="-0.1197">
        <ele>7.4</ele>
        <time>2020-06-17T11:06:32Z</time>
      </trkpt>
      <trkpt lat="49.29341" lon="-0.11963">
        <ele>7.4</ele>
        <time>2020-06-17T11:06:33Z</time>
      </trkpt>
      <trkpt lat="49.29342" lon="-0.11957">
        <ele>7.4</ele>
        <time>2020-06-17T11:06:34Z</time>
      </trkpt>
      <trkpt lat="49.29342" lon="-0.11951">
        <ele>7.4</ele>
        <time>2020-06-17T11:06:35Z</time>
      </trkpt>
      <trkpt lat="49.29343" lon="-0.11946">
        <ele>7.4</ele>
        <time>2020-06-17T11:06:36Z</time>
      </trkpt>
      <trkpt lat="49.29344" lon="-0.11941">
        <ele>7.4</ele>
        <time>2020-06-17T11:06:37Z</time>
      </trkpt>
      <trkpt lat="49.29345" lon="-0.11937">
        <ele>7.4</ele>
        <time>2020-06-17T11:06:38Z</time>
      </trkpt>
      <trkpt lat="49.29348" lon="-0.11932">
        <ele>7.4</ele>
        <time>2020-06-17T11:06:39Z</time>
      </trkpt>
      <trkpt lat="49.29349" lon="-0.11926">
        <ele>7.4</ele>
        <time>2020-06-17T11:06:40Z</time>
      </trkpt>
      <trkpt lat="49.2935" lon="-0.1192">
        <ele>7.4</ele>
        <time>2020-06-17T11:06:41Z</time>
      </trkpt>
      <trkpt lat="49.29351" lon="-0.11914">
        <ele>7.4</ele>
        <time>2020-06-17T11:06:42Z</time>
      </trkpt>
      <trkpt lat="49.29351" lon="-0.11908">
        <ele>7.4</ele>
        <time>2020-06-17T11:06:43Z</time>
      </trkpt>
      <trkpt lat="49.29353" lon="-0.11903">
        <ele>7.4</ele>
        <time>2020-06-17T11:06:44Z</time>
      </trkpt>
      <trkpt lat="49.29354" lon="-0.11896">
        <ele>7.4</ele>
        <time>2020-06-17T11:06:45Z</time>
      </trkpt>
      <trkpt lat="49.29356" lon="-0.1189">
        <ele>7.4</ele>
        <time>2020-06-17T11:06:46Z</time>
      </trkpt>
      <trkpt lat="49.29357" lon="-0.11884">
        <ele>7.4</ele>
        <time>2020-06-17T11:06:47Z</time>
      </trkpt>
      <trkpt lat="49.29358" lon="-0.11879">
        <ele>7.4</ele>
        <time>2020-06-17T11:06:48Z</time>
      </trkpt>
      <trkpt lat="49.29359" lon="-0.11872">
        <ele>7.4</ele>
        <time>2020-06-17T11:06:49Z</time>
      </trkpt>
      <trkpt lat="49.2936" lon="-0.11866">
        <ele>7.4</ele>
        <time>2020-06-17T11:06:50Z</time>
      </trkpt>
      <trkpt lat="49.29361" lon="-0.11862">
        <ele>7.5</ele>
        <time>2020-06-17T11:06:51Z</time>
      </trkpt>
      <trkpt lat="49.29361" lon="-0.11856">
        <ele>7.5</ele>
        <time>2020-06-17T11:06:52Z</time>
      </trkpt>
      <trkpt lat="49.29361" lon="-0.11851">
        <ele>7.5</ele>
        <time>2020-06-17T11:06:53Z</time>
      </trkpt>
      <trkpt lat="49.29362" lon="-0.11846">
        <ele>7.5</ele>
        <time>2020-06-17T11:06:54Z</time>
      </trkpt>
      <trkpt lat="49.29364" lon="-0.11842">
        <ele>7.5</ele>
        <time>2020-06-17T11:06:55Z</time>
      </trkpt>
      <trkpt lat="49.29365" lon="-0.11836">
        <ele>7.5</ele>
        <time>2020-06-17T11:06:56Z</time>
      </trkpt>
      <trkpt lat="49.29365" lon="-0.11832">
        <ele>7.5</ele>
        <time>2020-06-17T11:06:57Z</time>
      </trkpt>
      <trkpt lat="49.29366" lon="-0.11827">
        <ele>7.5</ele>
        <time>2020-06-17T11:06:58Z</time>
      </trkpt>
      <trkpt lat="49.29367" lon="-0.11825">
        <ele>7.5</ele>
        <time>2020-06-17T11:06:59Z</time>
      </trkpt>
      <trkpt lat="49.29368" lon="-0.1182">
        <ele>7.5</ele>
        <time>2020-06-17T11:07:00Z</time>
      </trkpt>
      <trkpt lat="49.29368" lon="-0.11815">
        <ele>7.6</ele>
        <time>2020-06-17T11:07:01Z</time>
      </trkpt>
      <trkpt lat="49.2937" lon="-0.1181">
        <ele>7.6</ele>
        <time>2020-06-17T11:07:02Z</time>
      </trkpt>
      <trkpt lat="49.2937" lon="-0.11802">
        <ele>7.6</ele>
        <time>2020-06-17T11:07:03Z</time>
      </trkpt>
      <trkpt lat="49.29372" lon="-0.11795">
        <ele>7.6</ele>
        <time>2020-06-17T11:07:04Z</time>
      </trkpt>
      <trkpt lat="49.29375" lon="-0.11788">
        <ele>7.6</ele>
        <time>2020-06-17T11:07:05Z</time>
      </trkpt>
      <trkpt lat="49.29377" lon="-0.11782">
        <ele>7.6</ele>
        <time>2020-06-17T11:07:06Z</time>
      </trkpt>
      <trkpt lat="49.29378" lon="-0.11777">
        <ele>7.6</ele>
        <time>2020-06-17T11:07:07Z</time>
      </trkpt>
      <trkpt lat="49.29379" lon="-0.1177">
        <ele>7.6</ele>
        <time>2020-06-17T11:07:08Z</time>
      </trkpt>
      <trkpt lat="49.2938" lon="-0.11765">
        <ele>7.6</ele>
        <time>2020-06-17T11:07:09Z</time>
      </trkpt>
      <trkpt lat="49.29381" lon="-0.1176">
        <ele>7.6</ele>
        <time>2020-06-17T11:07:10Z</time>
      </trkpt>
      <trkpt lat="49.29382" lon="-0.11754">
        <ele>7.7</ele>
        <time>2020-06-17T11:07:11Z</time>
      </trkpt>
      <trkpt lat="49.29384" lon="-0.11749">
        <ele>7.7</ele>
        <time>2020-06-17T11:07:12Z</time>
      </trkpt>
      <trkpt lat="49.29385" lon="-0.11744">
        <ele>7.7</ele>
        <time>2020-06-17T11:07:13Z</time>
      </trkpt>
      <trkpt lat="49.29387" lon="-0.11738">
        <ele>7.7</ele>
        <time>2020-06-17T11:07:14Z</time>
      </trkpt>
      <trkpt lat="49.29388" lon="-0.11733">
        <ele>7.8</ele>
        <time>2020-06-17T11:07:15Z</time>
      </trkpt>
      <trkpt lat="49.2939" lon="-0.11728">
        <ele>7.8</ele>
        <time>2020-06-17T11:07:16Z</time>
      </trkpt>
      <trkpt lat="49.2939" lon="-0.11724">
        <ele>7.8</ele>
        <time>2020-06-17T11:07:17Z</time>
      </trkpt>
      <trkpt lat="49.29392" lon="-0.11719">
        <ele>7.8</ele>
        <time>2020-06-17T11:07:18Z</time>
      </trkpt>
      <trkpt lat="49.29393" lon="-0.11714">
        <ele>7.8</ele>
        <time>2020-06-17T11:07:19Z</time>
      </trkpt>
      <trkpt lat="49.29393" lon="-0.1171">
        <ele>7.8</ele>
        <time>2020-06-17T11:07:20Z</time>
      </trkpt>
      <trkpt lat="49.29393" lon="-0.11705">
        <ele>7.8</ele>
        <time>2020-06-17T11:07:21Z</time>
      </trkpt>
      <trkpt lat="49.29394" lon="-0.117">
        <ele>7.9</ele>
        <time>2020-06-17T11:07:22Z</time>
      </trkpt>
      <trkpt lat="49.29394" lon="-0.11698">
        <ele>7.9</ele>
        <time>2020-06-17T11:07:23Z</time>
      </trkpt>
      <trkpt lat="49.29394" lon="-0.11693">
        <ele>7.9</ele>
        <time>2020-06-17T11:07:24Z</time>
      </trkpt>
      <trkpt lat="49.29393" lon="-0.11692">
        <ele>7.9</ele>
        <time>2020-06-17T11:07:25Z</time>
      </trkpt>
      <trkpt lat="49.29393" lon="-0.11687">
        <ele>7.8</ele>
        <time>2020-06-17T11:07:26Z</time>
      </trkpt>
      <trkpt lat="49.29393" lon="-0.11686">
        <ele>7.8</ele>
        <time>2020-06-17T11:07:27Z</time>
      </trkpt>
      <trkpt lat="49.29393" lon="-0.1168">
        <ele>7.8</ele>
        <time>2020-06-17T11:07:28Z</time>
      </trkpt>
      <trkpt lat="49.29393" lon="-0.11675">
        <ele>7.8</ele>
        <time>2020-06-17T11:07:29Z</time>
      </trkpt>
      <trkpt lat="49.29394" lon="-0.11673">
        <ele>7.7</ele>
        <time>2020-06-17T11:07:30Z</time>
      </trkpt>
      <trkpt lat="49.29395" lon="-0.11668">
        <ele>7.7</ele>
        <time>2020-06-17T11:07:31Z</time>
      </trkpt>
      <trkpt lat="49.29395" lon="-0.11666">
        <ele>7.7</ele>
        <time>2020-06-17T11:07:32Z</time>
      </trkpt>
      <trkpt lat="49.29396" lon="-0.11662">
        <ele>7.7</ele>
        <time>2020-06-17T11:07:33Z</time>
      </trkpt>
      <trkpt lat="49.29397" lon="-0.11658">
        <ele>7.6</ele>
        <time>2020-06-17T11:07:34Z</time>
      </trkpt>
      <trkpt lat="49.29398" lon="-0.11652">
        <ele>7.6</ele>
        <time>2020-06-17T11:07:35Z</time>
      </trkpt>
      <trkpt lat="49.29398" lon="-0.1165">
        <ele>7.6</ele>
        <time>2020-06-17T11:07:36Z</time>
      </trkpt>
      <trkpt lat="49.29399" lon="-0.11645">
        <ele>7.6</ele>
        <time>2020-06-17T11:07:37Z</time>
      </trkpt>
      <trkpt lat="49.294" lon="-0.1164">
        <ele>7.5</ele>
        <time>2020-06-17T11:07:38Z</time>
      </trkpt>
      <trkpt lat="49.29402" lon="-0.11634">
        <ele>7.5</ele>
        <time>2020-06-17T11:07:39Z</time>
      </trkpt>
      <trkpt lat="49.29403" lon="-0.11632">
        <ele>7.5</ele>
        <time>2020-06-17T11:07:40Z</time>
      </trkpt>
      <trkpt lat="49.29403" lon="-0.11626">
        <ele>7.5</ele>
        <time>2020-06-17T11:07:41Z</time>
      </trkpt>
      <trkpt lat="49.29404" lon="-0.11624">
        <ele>7.5</ele>
        <time>2020-06-17T11:07:42Z</time>
      </trkpt>
      <trkpt lat="49.29404" lon="-0.11619">
        <ele>7.5</ele>
        <time>2020-06-17T11:07:43Z</time>
      </trkpt>
      <trkpt lat="49.29405" lon="-0.11616">
        <ele>7.5</ele>
        <time>2020-06-17T11:07:44Z</time>
      </trkpt>
      <trkpt lat="49.29405" lon="-0.11612">
        <ele>7.4</ele>
        <time>2020-06-17T11:07:45Z</time>
      </trkpt>
      <trkpt lat="49.29406" lon="-0.11606">
        <ele>7.4</ele>
        <time>2020-06-17T11:07:46Z</time>
      </trkpt>
      <trkpt lat="49.29407" lon="-0.11601">
        <ele>7.4</ele>
        <time>2020-06-17T11:07:47Z</time>
      </trkpt>
      <trkpt lat="49.29408" lon="-0.11597">
        <ele>7.3</ele>
        <time>2020-06-17T11:07:48Z</time>
      </trkpt>
      <trkpt lat="49.29409" lon="-0.11592">
        <ele>7.3</ele>
        <time>2020-06-17T11:07:49Z</time>
      </trkpt>
      <trkpt lat="49.2941" lon="-0.11588">
        <ele>7.2</ele>
        <time>2020-06-17T11:07:50Z</time>
      </trkpt>
      <trkpt lat="49.29411" lon="-0.11583">
        <ele>7.2</ele>
        <time>2020-06-17T11:07:51Z</time>
      </trkpt>
      <trkpt lat="49.29412" lon="-0.11578">
        <ele>7.1</ele>
        <time>2020-06-17T11:07:52Z</time>
      </trkpt>
      <trkpt lat="49.29412" lon="-0.11576">
        <ele>7.1</ele>
        <time>2020-06-17T11:07:53Z</time>
      </trkpt>
      <trkpt lat="49.29413" lon="-0.11571">
        <ele>7.1</ele>
        <time>2020-06-17T11:07:54Z</time>
      </trkpt>
      <trkpt lat="49.29414" lon="-0.11565">
        <ele>7</ele>
        <time>2020-06-17T11:07:55Z</time>
      </trkpt>
      <trkpt lat="49.29415" lon="-0.11563">
        <ele>7</ele>
        <time>2020-06-17T11:07:56Z</time>
      </trkpt>
      <trkpt lat="49.29416" lon="-0.11557">
        <ele>7</ele>
        <time>2020-06-17T11:07:57Z</time>
      </trkpt>
      <trkpt lat="49.29416" lon="-0.11555">
        <ele>7</ele>
        <time>2020-06-17T11:07:58Z</time>
      </trkpt>
      <trkpt lat="49.29417" lon="-0.11551">
        <ele>6.9</ele>
        <time>2020-06-17T11:07:59Z</time>
      </trkpt>
      <trkpt lat="49.29417" lon="-0.11549">
        <ele>6.9</ele>
        <time>2020-06-17T11:08:00Z</time>
      </trkpt>
      <trkpt lat="49.29418" lon="-0.11544">
        <ele>6.9</ele>
        <time>2020-06-17T11:08:01Z</time>
      </trkpt>
      <trkpt lat="49.29419" lon="-0.11542">
        <ele>6.9</ele>
        <time>2020-06-17T11:08:02Z</time>
      </trkpt>
      <trkpt lat="49.29419" lon="-0.11537">
        <ele>6.9</ele>
        <time>2020-06-17T11:08:03Z</time>
      </trkpt>
      <trkpt lat="49.2942" lon="-0.11533">
        <ele>6.9</ele>
        <time>2020-06-17T11:08:04Z</time>
      </trkpt>
      <trkpt lat="49.29421" lon="-0.11528">
        <ele>6.9</ele>
        <time>2020-06-17T11:08:05Z</time>
      </trkpt>
      <trkpt lat="49.29422" lon="-0.11526">
        <ele>6.9</ele>
        <time>2020-06-17T11:08:06Z</time>
      </trkpt>
      <trkpt lat="49.29424" lon="-0.1152">
        <ele>6.8</ele>
        <time>2020-06-17T11:08:07Z</time>
      </trkpt>
      <trkpt lat="49.29425" lon="-0.11518">
        <ele>6.8</ele>
        <time>2020-06-17T11:08:08Z</time>
      </trkpt>
      <trkpt lat="49.29426" lon="-0.11513">
        <ele>6.8</ele>
        <time>2020-06-17T11:08:09Z</time>
      </trkpt>
      <trkpt lat="49.29427" lon="-0.11507">
        <ele>6.7</ele>
        <time>2020-06-17T11:08:10Z</time>
      </trkpt>
      <trkpt lat="49.29428" lon="-0.11505">
        <ele>6.7</ele>
        <time>2020-06-17T11:08:11Z</time>
      </trkpt>
      <trkpt lat="49.29429" lon="-0.115">
        <ele>6.6</ele>
        <time>2020-06-17T11:08:12Z</time>
      </trkpt>
      <trkpt lat="49.29429" lon="-0.11496">
        <ele>6.6</ele>
        <time>2020-06-17T11:08:13Z</time>
      </trkpt>
      <trkpt lat="49.2943" lon="-0.11491">
        <ele>6.6</ele>
        <time>2020-06-17T11:08:14Z</time>
      </trkpt>
      <trkpt lat="49.29431" lon="-0.11488">
        <ele>6.6</ele>
        <time>2020-06-17T11:08:15Z</time>
      </trkpt>
      <trkpt lat="49.29432" lon="-0.11483">
        <ele>6.5</ele>
        <time>2020-06-17T11:08:16Z</time>
      </trkpt>
      <trkpt lat="49.29433" lon="-0.11478">
        <ele>6.5</ele>
        <time>2020-06-17T11:08:17Z</time>
      </trkpt>
      <trkpt lat="49.29434" lon="-0.11474">
        <ele>6.5</ele>
        <time>2020-06-17T11:08:18Z</time>
      </trkpt>
      <trkpt lat="49.29436" lon="-0.11468">
        <ele>6.5</ele>
        <time>2020-06-17T11:08:19Z</time>
      </trkpt>
      <trkpt lat="49.29436" lon="-0.11466">
        <ele>6.5</ele>
        <time>2020-06-17T11:08:20Z</time>
      </trkpt>
      <trkpt lat="49.29437" lon="-0.11461">
        <ele>6.5</ele>
        <time>2020-06-17T11:08:21Z</time>
      </trkpt>
      <trkpt lat="49.29436" lon="-0.11457">
        <ele>6.6</ele>
        <time>2020-06-17T11:08:22Z</time>
      </trkpt>
      <trkpt lat="49.29436" lon="-0.11456">
        <ele>6.7</ele>
        <time>2020-06-17T11:08:23Z</time>
      </trkpt>
      <trkpt lat="49.29433" lon="-0.11456">
        <ele>6.8</ele>
        <time>2020-06-17T11:08:24Z</time>
      </trkpt>
      <trkpt lat="49.2943" lon="-0.11454">
        <ele>6.9</ele>
        <time>2020-06-17T11:08:25Z</time>
      </trkpt>
      <trkpt lat="49.29426" lon="-0.11454">
        <ele>7.1</ele>
        <time>2020-06-17T11:08:26Z</time>
      </trkpt>
      <trkpt lat="49.29422" lon="-0.11453">
        <ele>7.2</ele>
        <time>2020-06-17T11:08:27Z</time>
      </trkpt>
      <trkpt lat="49.29419" lon="-0.11452">
        <ele>7.4</ele>
        <time>2020-06-17T11:08:28Z</time>
      </trkpt>
      <trkpt lat="49.29418" lon="-0.11451">
        <ele>7.4</ele>
        <time>2020-06-17T11:08:29Z</time>
      </trkpt>
      <trkpt lat="49.29415" lon="-0.1145">
        <ele>7.6</ele>
        <time>2020-06-17T11:08:30Z</time>
      </trkpt>
      <trkpt lat="49.29412" lon="-0.1145">
        <ele>7.7</ele>
        <time>2020-06-17T11:08:31Z</time>
      </trkpt>
      <trkpt lat="49.29408" lon="-0.1145">
        <ele>7.8</ele>
        <time>2020-06-17T11:08:32Z</time>
      </trkpt>
      <trkpt lat="49.29404" lon="-0.11451">
        <ele>8</ele>
        <time>2020-06-17T11:08:33Z</time>
      </trkpt>
      <trkpt lat="49.29401" lon="-0.11451">
        <ele>8.1</ele>
        <time>2020-06-17T11:08:34Z</time>
      </trkpt>
      <trkpt lat="49.29399" lon="-0.11451">
        <ele>8.2</ele>
        <time>2020-06-17T11:08:35Z</time>
      </trkpt>
      <trkpt lat="49.29398" lon="-0.1145">
        <ele>8.3</ele>
        <time>2020-06-17T11:08:36Z</time>
      </trkpt>
      <trkpt lat="49.29396" lon="-0.11449">
        <ele>8.3</ele>
        <time>2020-06-17T11:08:37Z</time>
      </trkpt>
      <trkpt lat="49.29395" lon="-0.11449">
        <ele>8.4</ele>
        <time>2020-06-17T11:08:38Z</time>
      </trkpt>
      <trkpt lat="49.29395" lon="-0.11449">
        <ele>8.4</ele>
        <time>2020-06-17T11:08:39Z</time>
      </trkpt>
      <trkpt lat="49.29394" lon="-0.11449">
        <ele>8.4</ele>
        <time>2020-06-17T11:08:40Z</time>
      </trkpt>
      <trkpt lat="49.29394" lon="-0.11448">
        <ele>8.4</ele>
        <time>2020-06-17T11:08:41Z</time>
      </trkpt>
      <trkpt lat="49.29392" lon="-0.11449">
        <ele>8.5</ele>
        <time>2020-06-17T11:08:42Z</time>
      </trkpt>
      <trkpt lat="49.29391" lon="-0.11449">
        <ele>8.5</ele>
        <time>2020-06-17T11:08:43Z</time>
      </trkpt>
      <trkpt lat="49.29389" lon="-0.1145">
        <ele>8.5</ele>
        <time>2020-06-17T11:08:44Z</time>
      </trkpt>
      <trkpt lat="49.29389" lon="-0.11451">
        <ele>8.5</ele>
        <time>2020-06-17T11:08:45Z</time>
      </trkpt>
      <trkpt lat="49.29388" lon="-0.11454">
        <ele>8.5</ele>
        <time>2020-06-17T11:08:46Z</time>
      </trkpt>
      <trkpt lat="49.29386" lon="-0.11459">
        <ele>8.5</ele>
        <time>2020-06-17T11:08:47Z</time>
      </trkpt>
      <trkpt lat="49.29385" lon="-0.11461">
        <ele>8.5</ele>
        <time>2020-06-17T11:08:48Z</time>
      </trkpt>
      <trkpt lat="49.29384" lon="-0.11465">
        <ele>8.5</ele>
        <time>2020-06-17T11:08:49Z</time>
      </trkpt>
      <trkpt lat="49.29383" lon="-0.11469">
        <ele>8.5</ele>
        <time>2020-06-17T11:08:50Z</time>
      </trkpt>
      <trkpt lat="49.29383" lon="-0.11475">
        <ele>8.5</ele>
        <time>2020-06-17T11:08:51Z</time>
      </trkpt>
      <trkpt lat="49.29382" lon="-0.11477">
        <ele>8.5</ele>
        <time>2020-06-17T11:08:52Z</time>
      </trkpt>
      <trkpt lat="49.29382" lon="-0.11482">
        <ele>8.5</ele>
        <time>2020-06-17T11:08:53Z</time>
      </trkpt>
      <trkpt lat="49.29381" lon="-0.11489">
        <ele>8.5</ele>
        <time>2020-06-17T11:08:54Z</time>
      </trkpt>
      <trkpt lat="49.2938" lon="-0.11496">
        <ele>8.6</ele>
        <time>2020-06-17T11:08:55Z</time>
      </trkpt>
      <trkpt lat="49.29379" lon="-0.11501">
        <ele>8.6</ele>
        <time>2020-06-17T11:08:56Z</time>
      </trkpt>
      <trkpt lat="49.29379" lon="-0.11505">
        <ele>8.6</ele>
        <time>2020-06-17T11:08:57Z</time>
      </trkpt>
      <trkpt lat="49.29378" lon="-0.11511">
        <ele>8.6</ele>
        <time>2020-06-17T11:08:58Z</time>
      </trkpt>
      <trkpt lat="49.29377" lon="-0.11516">
        <ele>8.6</ele>
        <time>2020-06-17T11:08:59Z</time>
      </trkpt>
      <trkpt lat="49.29376" lon="-0.11521">
        <ele>8.6</ele>
        <time>2020-06-17T11:09:00Z</time>
      </trkpt>
      <trkpt lat="49.29375" lon="-0.11525">
        <ele>8.7</ele>
        <time>2020-06-17T11:09:01Z</time>
      </trkpt>
      <trkpt lat="49.29375" lon="-0.11526">
        <ele>8.7</ele>
        <time>2020-06-17T11:09:02Z</time>
      </trkpt>
      <trkpt lat="49.29375" lon="-0.11527">
        <ele>8.7</ele>
        <time>2020-06-17T11:09:03Z</time>
      </trkpt>
      <trkpt lat="49.29375" lon="-0.11527">
        <ele>8.7</ele>
        <time>2020-06-17T11:09:04Z</time>
      </trkpt>
      <trkpt lat="49.29372" lon="-0.11527">
        <ele>8.5</ele>
        <time>2020-06-17T11:09:05Z</time>
      </trkpt>
      <trkpt lat="49.29372" lon="-0.11528">
        <ele>8.5</ele>
        <time>2020-06-17T11:09:06Z</time>
      </trkpt>
      <trkpt lat="49.2937" lon="-0.11531">
        <ele>8.5</ele>
        <time>2020-06-17T11:09:07Z</time>
      </trkpt>
      <trkpt lat="49.29369" lon="-0.11533">
        <ele>8.5</ele>
        <time>2020-06-17T11:09:08Z</time>
      </trkpt>
      <trkpt lat="49.29369" lon="-0.11537">
        <ele>8.5</ele>
        <time>2020-06-17T11:09:09Z</time>
      </trkpt>
      <trkpt lat="49.29368" lon="-0.11539">
        <ele>8.5</ele>
        <time>2020-06-17T11:09:10Z</time>
      </trkpt>
      <trkpt lat="49.29367" lon="-0.11543">
        <ele>8.5</ele>
        <time>2020-06-17T11:09:11Z</time>
      </trkpt>
      <trkpt lat="49.29365" lon="-0.11548">
        <ele>8.5</ele>
        <time>2020-06-17T11:09:12Z</time>
      </trkpt>
      <trkpt lat="49.29363" lon="-0.11552">
        <ele>8.5</ele>
        <time>2020-06-17T11:09:13Z</time>
      </trkpt>
      <trkpt lat="49.29362" lon="-0.11554">
        <ele>8.5</ele>
        <time>2020-06-17T11:09:14Z</time>
      </trkpt>
      <trkpt lat="49.29361" lon="-0.11558">
        <ele>8.5</ele>
        <time>2020-06-17T11:09:15Z</time>
      </trkpt>
      <trkpt lat="49.2936" lon="-0.11561">
        <ele>8.5</ele>
        <time>2020-06-17T11:09:16Z</time>
      </trkpt>
      <trkpt lat="49.29359" lon="-0.11567">
        <ele>8.5</ele>
        <time>2020-06-17T11:09:17Z</time>
      </trkpt>
      <trkpt lat="49.29359" lon="-0.11569">
        <ele>8.5</ele>
        <time>2020-06-17T11:09:18Z</time>
      </trkpt>
      <trkpt lat="49.29357" lon="-0.11573">
        <ele>8.5</ele>
        <time>2020-06-17T11:09:19Z</time>
      </trkpt>
      <trkpt lat="49.29356" lon="-0.11579">
        <ele>8.6</ele>
        <time>2020-06-17T11:09:20Z</time>
      </trkpt>
      <trkpt lat="49.29356" lon="-0.11581">
        <ele>8.6</ele>
        <time>2020-06-17T11:09:21Z</time>
      </trkpt>
      <trkpt lat="49.29355" lon="-0.11586">
        <ele>8.6</ele>
        <time>2020-06-17T11:09:22Z</time>
      </trkpt>
      <trkpt lat="49.29354" lon="-0.11593">
        <ele>8.6</ele>
        <time>2020-06-17T11:09:23Z</time>
      </trkpt>
      <trkpt lat="49.29352" lon="-0.11597">
        <ele>8.6</ele>
        <time>2020-06-17T11:09:24Z</time>
      </trkpt>
      <trkpt lat="49.29349" lon="-0.11598">
        <ele>8.6</ele>
        <time>2020-06-17T11:09:25Z</time>
      </trkpt>
      <trkpt lat="49.29345" lon="-0.116">
        <ele>8.6</ele>
        <time>2020-06-17T11:09:26Z</time>
      </trkpt>
      <trkpt lat="49.29342" lon="-0.11601">
        <ele>8.6</ele>
        <time>2020-06-17T11:09:27Z</time>
      </trkpt>
      <trkpt lat="49.29339" lon="-0.11602">
        <ele>8.6</ele>
        <time>2020-06-17T11:09:28Z</time>
      </trkpt>
      <trkpt lat="49.29336" lon="-0.11603">
        <ele>8.6</ele>
        <time>2020-06-17T11:09:29Z</time>
      </trkpt>
      <trkpt lat="49.29332" lon="-0.11604">
        <ele>8.6</ele>
        <time>2020-06-17T11:09:30Z</time>
      </trkpt>
      <trkpt lat="49.29329" lon="-0.11605">
        <ele>8.6</ele>
        <time>2020-06-17T11:09:31Z</time>
      </trkpt>
      <trkpt lat="49.29327" lon="-0.11604">
        <ele>8.5</ele>
        <time>2020-06-17T11:09:32Z</time>
      </trkpt>
      <trkpt lat="49.29324" lon="-0.11603">
        <ele>8.4</ele>
        <time>2020-06-17T11:09:33Z</time>
      </trkpt>
      <trkpt lat="49.29321" lon="-0.11602">
        <ele>8.3</ele>
        <time>2020-06-17T11:09:34Z</time>
      </trkpt>
      <trkpt lat="49.29317" lon="-0.11601">
        <ele>8.3</ele>
        <time>2020-06-17T11:09:35Z</time>
      </trkpt>
      <trkpt lat="49.29313" lon="-0.11599">
        <ele>8.2</ele>
        <time>2020-06-17T11:09:36Z</time>
      </trkpt>
      <trkpt lat="49.2931" lon="-0.11596">
        <ele>8.2</ele>
        <time>2020-06-17T11:09:37Z</time>
      </trkpt>
      <trkpt lat="49.29306" lon="-0.11593">
        <ele>8.1</ele>
        <time>2020-06-17T11:09:38Z</time>
      </trkpt>
      <trkpt lat="49.29302" lon="-0.11591">
        <ele>8</ele>
        <time>2020-06-17T11:09:39Z</time>
      </trkpt>
      <trkpt lat="49.29298" lon="-0.11589">
        <ele>7.9</ele>
        <time>2020-06-17T11:09:40Z</time>
      </trkpt>
      <trkpt lat="49.29293" lon="-0.11586">
        <ele>7.8</ele>
        <time>2020-06-17T11:09:41Z</time>
      </trkpt>
      <trkpt lat="49.2929" lon="-0.11584">
        <ele>7.6</ele>
        <time>2020-06-17T11:09:42Z</time>
      </trkpt>
      <trkpt lat="49.29285" lon="-0.11583">
        <ele>7.4</ele>
        <time>2020-06-17T11:09:43Z</time>
      </trkpt>
      <trkpt lat="49.2928" lon="-0.11582">
        <ele>7.2</ele>
        <time>2020-06-17T11:09:44Z</time>
      </trkpt>
      <trkpt lat="49.29275" lon="-0.1158">
        <ele>7</ele>
        <time>2020-06-17T11:09:45Z</time>
      </trkpt>
      <trkpt lat="49.2927" lon="-0.11579">
        <ele>6.8</ele>
        <time>2020-06-17T11:09:46Z</time>
      </trkpt>
      <trkpt lat="49.29264" lon="-0.11578">
        <ele>6.6</ele>
        <time>2020-06-17T11:09:47Z</time>
      </trkpt>
      <trkpt lat="49.29259" lon="-0.11577">
        <ele>6.4</ele>
        <time>2020-06-17T11:09:48Z</time>
      </trkpt>
      <trkpt lat="49.29255" lon="-0.11576">
        <ele>6.2</ele>
        <time>2020-06-17T11:09:49Z</time>
      </trkpt>
      <trkpt lat="49.29251" lon="-0.11576">
        <ele>6.1</ele>
        <time>2020-06-17T11:09:50Z</time>
      </trkpt>
      <trkpt lat="49.29248" lon="-0.11576">
        <ele>6</ele>
        <time>2020-06-17T11:09:51Z</time>
      </trkpt>
      <trkpt lat="49.29244" lon="-0.11576">
        <ele>5.9</ele>
        <time>2020-06-17T11:09:52Z</time>
      </trkpt>
      <trkpt lat="49.29243" lon="-0.11576">
        <ele>5.8</ele>
        <time>2020-06-17T11:09:53Z</time>
      </trkpt>
      <trkpt lat="49.29242" lon="-0.11576">
        <ele>5.8</ele>
        <time>2020-06-17T11:09:54Z</time>
      </trkpt>
      <trkpt lat="49.29239" lon="-0.11577">
        <ele>5.8</ele>
        <time>2020-06-17T11:09:55Z</time>
      </trkpt>
      <trkpt lat="49.29237" lon="-0.11579">
        <ele>5.7</ele>
        <time>2020-06-17T11:09:56Z</time>
      </trkpt>
      <trkpt lat="49.29234" lon="-0.1158">
        <ele>5.7</ele>
        <time>2020-06-17T11:09:57Z</time>
      </trkpt>
      <trkpt lat="49.29232" lon="-0.1158">
        <ele>5.7</ele>
        <time>2020-06-17T11:09:58Z</time>
      </trkpt>
      <trkpt lat="49.29228" lon="-0.1158">
        <ele>5.6</ele>
        <time>2020-06-17T11:09:59Z</time>
      </trkpt>
      <trkpt lat="49.29227" lon="-0.1158">
        <ele>5.6</ele>
        <time>2020-06-17T11:10:00Z</time>
      </trkpt>
      <trkpt lat="49.29223" lon="-0.11581">
        <ele>5.6</ele>
        <time>2020-06-17T11:10:01Z</time>
      </trkpt>
      <trkpt lat="49.2922" lon="-0.11583">
        <ele>5.5</ele>
        <time>2020-06-17T11:10:02Z</time>
      </trkpt>
      <trkpt lat="49.29217" lon="-0.11584">
        <ele>5.5</ele>
        <time>2020-06-17T11:10:03Z</time>
      </trkpt>
      <trkpt lat="49.29213" lon="-0.11585">
        <ele>5.5</ele>
        <time>2020-06-17T11:10:04Z</time>
      </trkpt>
      <trkpt lat="49.2921" lon="-0.11586">
        <ele>5.4</ele>
        <time>2020-06-17T11:10:05Z</time>
      </trkpt>
      <trkpt lat="49.29207" lon="-0.11586">
        <ele>5.4</ele>
        <time>2020-06-17T11:10:06Z</time>
      </trkpt>
      <trkpt lat="49.29205" lon="-0.11586">
        <ele>5.4</ele>
        <time>2020-06-17T11:10:07Z</time>
      </trkpt>
      <trkpt lat="49.29202" lon="-0.11587">
        <ele>5.3</ele>
        <time>2020-06-17T11:10:08Z</time>
      </trkpt>
      <trkpt lat="49.292" lon="-0.11588">
        <ele>5.3</ele>
        <time>2020-06-17T11:10:09Z</time>
      </trkpt>
      <trkpt lat="49.29197" lon="-0.11589">
        <ele>5.3</ele>
        <time>2020-06-17T11:10:10Z</time>
      </trkpt>
      <trkpt lat="49.29196" lon="-0.11589">
        <ele>5.3</ele>
        <time>2020-06-17T11:10:11Z</time>
      </trkpt>
      <trkpt lat="49.29193" lon="-0.1159">
        <ele>5.2</ele>
        <time>2020-06-17T11:10:12Z</time>
      </trkpt>
      <trkpt lat="49.29189" lon="-0.11591">
        <ele>5.2</ele>
        <time>2020-06-17T11:10:13Z</time>
      </trkpt>
      <trkpt lat="49.29186" lon="-0.11592">
        <ele>5.2</ele>
        <time>2020-06-17T11:10:14Z</time>
      </trkpt>
      <trkpt lat="49.29182" lon="-0.11594">
        <ele>5.2</ele>
        <time>2020-06-17T11:10:15Z</time>
      </trkpt>
      <trkpt lat="49.29178" lon="-0.11593">
        <ele>5.2</ele>
        <time>2020-06-17T11:10:16Z</time>
      </trkpt>
      <trkpt lat="49.29174" lon="-0.11594">
        <ele>5.2</ele>
        <time>2020-06-17T11:10:17Z</time>
      </trkpt>
      <trkpt lat="49.2917" lon="-0.11594">
        <ele>5.2</ele>
        <time>2020-06-17T11:10:18Z</time>
      </trkpt>
      <trkpt lat="49.29169" lon="-0.11594">
        <ele>5.2</ele>
        <time>2020-06-17T11:10:19Z</time>
      </trkpt>
      <trkpt lat="49.29165" lon="-0.11594">
        <ele>5.2</ele>
        <time>2020-06-17T11:10:20Z</time>
      </trkpt>
      <trkpt lat="49.29164" lon="-0.11594">
        <ele>5.2</ele>
        <time>2020-06-17T11:10:21Z</time>
      </trkpt>
      <trkpt lat="49.2916" lon="-0.11594">
        <ele>5.2</ele>
        <time>2020-06-17T11:10:22Z</time>
      </trkpt>
      <trkpt lat="49.29157" lon="-0.11594">
        <ele>5.2</ele>
        <time>2020-06-17T11:10:23Z</time>
      </trkpt>
      <trkpt lat="49.29154" lon="-0.11593">
        <ele>5.2</ele>
        <time>2020-06-17T11:10:24Z</time>
      </trkpt>
      <trkpt lat="49.29153" lon="-0.11593">
        <ele>5.2</ele>
        <time>2020-06-17T11:10:25Z</time>
      </trkpt>
      <trkpt lat="49.2915" lon="-0.11592">
        <ele>5.2</ele>
        <time>2020-06-17T11:10:26Z</time>
      </trkpt>
      <trkpt lat="49.29149" lon="-0.11592">
        <ele>5.2</ele>
        <time>2020-06-17T11:10:27Z</time>
      </trkpt>
      <trkpt lat="49.29146" lon="-0.11592">
        <ele>5.2</ele>
        <time>2020-06-17T11:10:28Z</time>
      </trkpt>
      <trkpt lat="49.29145" lon="-0.11592">
        <ele>5.2</ele>
        <time>2020-06-17T11:10:29Z</time>
      </trkpt>
      <trkpt lat="49.29141" lon="-0.11593">
        <ele>5.2</ele>
        <time>2020-06-17T11:10:30Z</time>
      </trkpt>
      <trkpt lat="49.2914" lon="-0.11593">
        <ele>5.2</ele>
        <time>2020-06-17T11:10:31Z</time>
      </trkpt>
      <trkpt lat="49.29137" lon="-0.11593">
        <ele>5.2</ele>
        <time>2020-06-17T11:10:32Z</time>
      </trkpt>
      <trkpt lat="49.29135" lon="-0.11594">
        <ele>5.2</ele>
        <time>2020-06-17T11:10:33Z</time>
      </trkpt>
      <trkpt lat="49.29134" lon="-0.11595">
        <ele>5.2</ele>
        <time>2020-06-17T11:10:34Z</time>
      </trkpt>
      <trkpt lat="49.29132" lon="-0.11592">
        <ele>5.3</ele>
        <time>2020-06-17T11:10:35Z</time>
      </trkpt>
      <trkpt lat="49.2913" lon="-0.11592">
        <ele>5.3</ele>
        <time>2020-06-17T11:10:36Z</time>
      </trkpt>
      <trkpt lat="49.29129" lon="-0.11592">
        <ele>5.3</ele>
        <time>2020-06-17T11:10:37Z</time>
      </trkpt>
      <trkpt lat="49.29125" lon="-0.11594">
        <ele>5.3</ele>
        <time>2020-06-17T11:10:38Z</time>
      </trkpt>
      <trkpt lat="49.29124" lon="-0.11595">
        <ele>5.3</ele>
        <time>2020-06-17T11:10:39Z</time>
      </trkpt>
      <trkpt lat="49.29121" lon="-0.11597">
        <ele>5.3</ele>
        <time>2020-06-17T11:10:40Z</time>
      </trkpt>
      <trkpt lat="49.2912" lon="-0.11598">
        <ele>5.3</ele>
        <time>2020-06-17T11:10:41Z</time>
      </trkpt>
      <trkpt lat="49.29116" lon="-0.11599">
        <ele>5.3</ele>
        <time>2020-06-17T11:10:42Z</time>
      </trkpt>
      <trkpt lat="49.29115" lon="-0.11601">
        <ele>5.3</ele>
        <time>2020-06-17T11:10:43Z</time>
      </trkpt>
      <trkpt lat="49.29113" lon="-0.11601">
        <ele>5.4</ele>
        <time>2020-06-17T11:10:44Z</time>
      </trkpt>
      <trkpt lat="49.29112" lon="-0.11601">
        <ele>5.4</ele>
        <time>2020-06-17T11:10:45Z</time>
      </trkpt>
      <trkpt lat="49.2911" lon="-0.11601">
        <ele>5.4</ele>
        <time>2020-06-17T11:10:46Z</time>
      </trkpt>
      <trkpt lat="49.29109" lon="-0.11601">
        <ele>5.4</ele>
        <time>2020-06-17T11:10:47Z</time>
      </trkpt>
      <trkpt lat="49.29108" lon="-0.116">
        <ele>5.4</ele>
        <time>2020-06-17T11:10:48Z</time>
      </trkpt>
      <trkpt lat="49.29107" lon="-0.11601">
        <ele>5.4</ele>
        <time>2020-06-17T11:10:49Z</time>
      </trkpt>
      <trkpt lat="49.29105" lon="-0.11602">
        <ele>5.4</ele>
        <time>2020-06-17T11:10:50Z</time>
      </trkpt>
      <trkpt lat="49.29104" lon="-0.11603">
        <ele>5.4</ele>
        <time>2020-06-17T11:10:51Z</time>
      </trkpt>
      <trkpt lat="49.29103" lon="-0.11601">
        <ele>5.4</ele>
        <time>2020-06-17T11:10:52Z</time>
      </trkpt>
      <trkpt lat="49.29103" lon="-0.116">
        <ele>5.4</ele>
        <time>2020-06-17T11:10:53Z</time>
      </trkpt>
      <trkpt lat="49.29102" lon="-0.116">
        <ele>5.4</ele>
        <time>2020-06-17T11:10:54Z</time>
      </trkpt>
      <trkpt lat="49.29101" lon="-0.116">
        <ele>5.4</ele>
        <time>2020-06-17T11:10:55Z</time>
      </trkpt>
      <trkpt lat="49.29101" lon="-0.116">
        <ele>5.4</ele>
        <time>2020-06-17T11:10:56Z</time>
      </trkpt>
      <trkpt lat="49.291" lon="-0.116">
        <ele>5.4</ele>
        <time>2020-06-17T11:10:57Z</time>
      </trkpt>
      <trkpt lat="49.291" lon="-0.11601">
        <ele>5.4</ele>
        <time>2020-06-17T11:10:58Z</time>
      </trkpt>
      <trkpt lat="49.29099" lon="-0.11601">
        <ele>5.4</ele>
        <time>2020-06-17T11:10:59Z</time>
      </trkpt>
      <trkpt lat="49.29097" lon="-0.11603">
        <ele>5.5</ele>
        <time>2020-06-17T11:11:00Z</time>
      </trkpt>
      <trkpt lat="49.29096" lon="-0.11604">
        <ele>5.5</ele>
        <time>2020-06-17T11:11:01Z</time>
      </trkpt>
      <trkpt lat="49.29094" lon="-0.11606">
        <ele>5.5</ele>
        <time>2020-06-17T11:11:02Z</time>
      </trkpt>
      <trkpt lat="49.29093" lon="-0.11608">
        <ele>5.5</ele>
        <time>2020-06-17T11:11:03Z</time>
      </trkpt>
      <trkpt lat="49.29091" lon="-0.11607">
        <ele>5.5</ele>
        <time>2020-06-17T11:11:04Z</time>
      </trkpt>
      <trkpt lat="49.2909" lon="-0.11607">
        <ele>5.5</ele>
        <time>2020-06-17T11:11:05Z</time>
      </trkpt>
      <trkpt lat="49.29089" lon="-0.11606">
        <ele>5.5</ele>
        <time>2020-06-17T11:11:06Z</time>
      </trkpt>
      <trkpt lat="49.29087" lon="-0.11604">
        <ele>5.5</ele>
        <time>2020-06-17T11:11:07Z</time>
      </trkpt>
      <trkpt lat="49.29083" lon="-0.11604">
        <ele>5.5</ele>
        <time>2020-06-17T11:11:08Z</time>
      </trkpt>
      <trkpt lat="49.29082" lon="-0.11604">
        <ele>5.5</ele>
        <time>2020-06-17T11:11:09Z</time>
      </trkpt>
      <trkpt lat="49.29078" lon="-0.11605">
        <ele>5.5</ele>
        <time>2020-06-17T11:11:10Z</time>
      </trkpt>
      <trkpt lat="49.29077" lon="-0.11605">
        <ele>5.5</ele>
        <time>2020-06-17T11:11:11Z</time>
      </trkpt>
      <trkpt lat="49.29074" lon="-0.11605">
        <ele>5.5</ele>
        <time>2020-06-17T11:11:12Z</time>
      </trkpt>
      <trkpt lat="49.29071" lon="-0.11605">
        <ele>5.5</ele>
        <time>2020-06-17T11:11:13Z</time>
      </trkpt>
      <trkpt lat="49.29068" lon="-0.11607">
        <ele>5.5</ele>
        <time>2020-06-17T11:11:14Z</time>
      </trkpt>
      <trkpt lat="49.29066" lon="-0.11608">
        <ele>5.5</ele>
        <time>2020-06-17T11:11:15Z</time>
      </trkpt>
      <trkpt lat="49.29063" lon="-0.11606">
        <ele>5.5</ele>
        <time>2020-06-17T11:11:16Z</time>
      </trkpt>
      <trkpt lat="49.2906" lon="-0.11607">
        <ele>5.5</ele>
        <time>2020-06-17T11:11:17Z</time>
      </trkpt>
      <trkpt lat="49.29057" lon="-0.11608">
        <ele>5.5</ele>
        <time>2020-06-17T11:11:18Z</time>
      </trkpt>
      <trkpt lat="49.29056" lon="-0.11612">
        <ele>5.6</ele>
        <time>2020-06-17T11:11:19Z</time>
      </trkpt>
      <trkpt lat="49.29054" lon="-0.11617">
        <ele>5.6</ele>
        <time>2020-06-17T11:11:20Z</time>
      </trkpt>
      <trkpt lat="49.29053" lon="-0.11619">
        <ele>5.6</ele>
        <time>2020-06-17T11:11:21Z</time>
      </trkpt>
      <trkpt lat="49.29052" lon="-0.11619">
        <ele>5.6</ele>
        <time>2020-06-17T11:11:22Z</time>
      </trkpt>
      <trkpt lat="49.29051" lon="-0.11619">
        <ele>5.6</ele>
        <time>2020-06-17T11:11:23Z</time>
      </trkpt>
      <trkpt lat="49.29047" lon="-0.11618">
        <ele>5.6</ele>
        <time>2020-06-17T11:11:24Z</time>
      </trkpt>
      <trkpt lat="49.29045" lon="-0.11618">
        <ele>5.6</ele>
        <time>2020-06-17T11:11:25Z</time>
      </trkpt>
      <trkpt lat="49.29042" lon="-0.11619">
        <ele>5.6</ele>
        <time>2020-06-17T11:11:26Z</time>
      </trkpt>
      <trkpt lat="49.29041" lon="-0.11619">
        <ele>5.6</ele>
        <time>2020-06-17T11:11:27Z</time>
      </trkpt>
      <trkpt lat="49.29038" lon="-0.11618">
        <ele>5.6</ele>
        <time>2020-06-17T11:11:28Z</time>
      </trkpt>
      <trkpt lat="49.29037" lon="-0.11617">
        <ele>5.6</ele>
        <time>2020-06-17T11:11:29Z</time>
      </trkpt>
      <trkpt lat="49.29033" lon="-0.11618">
        <ele>5.6</ele>
        <time>2020-06-17T11:11:30Z</time>
      </trkpt>
      <trkpt lat="49.29032" lon="-0.11618">
        <ele>5.6</ele>
        <time>2020-06-17T11:11:31Z</time>
      </trkpt>
      <trkpt lat="49.29028" lon="-0.11617">
        <ele>5.6</ele>
        <time>2020-06-17T11:11:32Z</time>
      </trkpt>
      <trkpt lat="49.29027" lon="-0.11617">
        <ele>5.6</ele>
        <time>2020-06-17T11:11:33Z</time>
      </trkpt>
      <trkpt lat="49.29024" lon="-0.11618">
        <ele>5.5</ele>
        <time>2020-06-17T11:11:34Z</time>
      </trkpt>
      <trkpt lat="49.29021" lon="-0.11618">
        <ele>5.5</ele>
        <time>2020-06-17T11:11:35Z</time>
      </trkpt>
      <trkpt lat="49.29018" lon="-0.11618">
        <ele>5.5</ele>
        <time>2020-06-17T11:11:36Z</time>
      </trkpt>
      <trkpt lat="49.29014" lon="-0.11619">
        <ele>5.5</ele>
        <time>2020-06-17T11:11:37Z</time>
      </trkpt>
      <trkpt lat="49.29013" lon="-0.11619">
        <ele>5.5</ele>
        <time>2020-06-17T11:11:38Z</time>
      </trkpt>
      <trkpt lat="49.2901" lon="-0.11621">
        <ele>5.5</ele>
        <time>2020-06-17T11:11:39Z</time>
      </trkpt>
      <trkpt lat="49.29009" lon="-0.11621">
        <ele>5.5</ele>
        <time>2020-06-17T11:11:40Z</time>
      </trkpt>
      <trkpt lat="49.29006" lon="-0.11622">
        <ele>5.5</ele>
        <time>2020-06-17T11:11:41Z</time>
      </trkpt>
      <trkpt lat="49.29005" lon="-0.11622">
        <ele>5.5</ele>
        <time>2020-06-17T11:11:42Z</time>
      </trkpt>
      <trkpt lat="49.29002" lon="-0.11624">
        <ele>5.5</ele>
        <time>2020-06-17T11:11:43Z</time>
      </trkpt>
      <trkpt lat="49.28998" lon="-0.11625">
        <ele>5.5</ele>
        <time>2020-06-17T11:11:44Z</time>
      </trkpt>
      <trkpt lat="49.28995" lon="-0.11626">
        <ele>5.5</ele>
        <time>2020-06-17T11:11:45Z</time>
      </trkpt>
      <trkpt lat="49.28993" lon="-0.11625">
        <ele>5.5</ele>
        <time>2020-06-17T11:11:46Z</time>
      </trkpt>
      <trkpt lat="49.2899" lon="-0.11625">
        <ele>5.5</ele>
        <time>2020-06-17T11:11:47Z</time>
      </trkpt>
      <trkpt lat="49.28989" lon="-0.11625">
        <ele>5.5</ele>
        <time>2020-06-17T11:11:48Z</time>
      </trkpt>
      <trkpt lat="49.28985" lon="-0.11626">
        <ele>5.5</ele>
        <time>2020-06-17T11:11:49Z</time>
      </trkpt>
      <trkpt lat="49.28984" lon="-0.11627">
        <ele>5.5</ele>
        <time>2020-06-17T11:11:50Z</time>
      </trkpt>
      <trkpt lat="49.28982" lon="-0.11628">
        <ele>5.5</ele>
        <time>2020-06-17T11:11:51Z</time>
      </trkpt>
      <trkpt lat="49.28979" lon="-0.11628">
        <ele>5.4</ele>
        <time>2020-06-17T11:11:52Z</time>
      </trkpt>
      <trkpt lat="49.28975" lon="-0.11629">
        <ele>5.4</ele>
        <time>2020-06-17T11:11:53Z</time>
      </trkpt>
      <trkpt lat="49.28972" lon="-0.11629">
        <ele>5.4</ele>
        <time>2020-06-17T11:11:54Z</time>
      </trkpt>
      <trkpt lat="49.28969" lon="-0.11631">
        <ele>5.4</ele>
        <time>2020-06-17T11:11:55Z</time>
      </trkpt>
      <trkpt lat="49.28966" lon="-0.11632">
        <ele>5.3</ele>
        <time>2020-06-17T11:11:56Z</time>
      </trkpt>
      <trkpt lat="49.28963" lon="-0.11632">
        <ele>5.3</ele>
        <time>2020-06-17T11:11:57Z</time>
      </trkpt>
      <trkpt lat="49.2896" lon="-0.11631">
        <ele>5.3</ele>
        <time>2020-06-17T11:11:58Z</time>
      </trkpt>
      <trkpt lat="49.28957" lon="-0.1163">
        <ele>5.3</ele>
        <time>2020-06-17T11:11:59Z</time>
      </trkpt>
      <trkpt lat="49.28954" lon="-0.11632">
        <ele>5.3</ele>
        <time>2020-06-17T11:12:00Z</time>
      </trkpt>
      <trkpt lat="49.28953" lon="-0.11632">
        <ele>5.3</ele>
        <time>2020-06-17T11:12:01Z</time>
      </trkpt>
      <trkpt lat="49.28952" lon="-0.11634">
        <ele>5.3</ele>
        <time>2020-06-17T11:12:02Z</time>
      </trkpt>
      <trkpt lat="49.2895" lon="-0.11634">
        <ele>5.3</ele>
        <time>2020-06-17T11:12:03Z</time>
      </trkpt>
      <trkpt lat="49.28949" lon="-0.11637">
        <ele>5.3</ele>
        <time>2020-06-17T11:12:04Z</time>
      </trkpt>
      <trkpt lat="49.28948" lon="-0.11638">
        <ele>5.3</ele>
        <time>2020-06-17T11:12:05Z</time>
      </trkpt>
      <trkpt lat="49.28947" lon="-0.11638">
        <ele>5.3</ele>
        <time>2020-06-17T11:12:06Z</time>
      </trkpt>
      <trkpt lat="49.28946" lon="-0.11638">
        <ele>5.3</ele>
        <time>2020-06-17T11:12:07Z</time>
      </trkpt>
      <trkpt lat="49.28945" lon="-0.11636">
        <ele>5.3</ele>
        <time>2020-06-17T11:12:08Z</time>
      </trkpt>
      <trkpt lat="49.28944" lon="-0.11635">
        <ele>5.3</ele>
        <time>2020-06-17T11:12:09Z</time>
      </trkpt>
      <trkpt lat="49.28942" lon="-0.11634">
        <ele>5.3</ele>
        <time>2020-06-17T11:12:10Z</time>
      </trkpt>
      <trkpt lat="49.28941" lon="-0.11636">
        <ele>5.3</ele>
        <time>2020-06-17T11:12:11Z</time>
      </trkpt>
      <trkpt lat="49.28939" lon="-0.11637">
        <ele>5.3</ele>
        <time>2020-06-17T11:12:12Z</time>
      </trkpt>
      <trkpt lat="49.28939" lon="-0.11637">
        <ele>5.3</ele>
        <time>2020-06-17T11:12:13Z</time>
      </trkpt>
      <trkpt lat="49.28939" lon="-0.11636">
        <ele>5.3</ele>
        <time>2020-06-17T11:12:14Z</time>
      </trkpt>
      <trkpt lat="49.28938" lon="-0.11635">
        <ele>5.3</ele>
        <time>2020-06-17T11:12:15Z</time>
      </trkpt>
      <trkpt lat="49.28938" lon="-0.11633">
        <ele>5.3</ele>
        <time>2020-06-17T11:12:16Z</time>
      </trkpt>
      <trkpt lat="49.28938" lon="-0.11631">
        <ele>5.3</ele>
        <time>2020-06-17T11:12:17Z</time>
      </trkpt>
      <trkpt lat="49.28938" lon="-0.11632">
        <ele>5.3</ele>
        <time>2020-06-17T11:12:18Z</time>
      </trkpt>
      <trkpt lat="49.28937" lon="-0.11633">
        <ele>5.3</ele>
        <time>2020-06-17T11:12:19Z</time>
      </trkpt>
      <trkpt lat="49.28936" lon="-0.11635">
        <ele>5.3</ele>
        <time>2020-06-17T11:12:20Z</time>
      </trkpt>
      <trkpt lat="49.28936" lon="-0.11633">
        <ele>5.3</ele>
        <time>2020-06-17T11:12:21Z</time>
      </trkpt>
      <trkpt lat="49.28935" lon="-0.11633">
        <ele>5.3</ele>
        <time>2020-06-17T11:12:22Z</time>
      </trkpt>
      <trkpt lat="49.28935" lon="-0.11632">
        <ele>5.2</ele>
        <time>2020-06-17T11:12:23Z</time>
      </trkpt>
      <trkpt lat="49.28934" lon="-0.11631">
        <ele>5.2</ele>
        <time>2020-06-17T11:12:24Z</time>
      </trkpt>
      <trkpt lat="49.28934" lon="-0.11632">
        <ele>5.2</ele>
        <time>2020-06-17T11:12:25Z</time>
      </trkpt>
      <trkpt lat="49.28934" lon="-0.11632">
        <ele>5.2</ele>
        <time>2020-06-17T11:12:26Z</time>
      </trkpt>
      <trkpt lat="49.28933" lon="-0.11632">
        <ele>5.2</ele>
        <time>2020-06-17T11:12:27Z</time>
      </trkpt>
      <trkpt lat="49.28933" lon="-0.11632">
        <ele>5.2</ele>
        <time>2020-06-17T11:12:28Z</time>
      </trkpt>
      <trkpt lat="49.28933" lon="-0.11633">
        <ele>5.2</ele>
        <time>2020-06-17T11:12:29Z</time>
      </trkpt>
      <trkpt lat="49.28932" lon="-0.11633">
        <ele>5.2</ele>
        <time>2020-06-17T11:12:30Z</time>
      </trkpt>
      <trkpt lat="49.28932" lon="-0.11632">
        <ele>5.2</ele>
        <time>2020-06-17T11:12:31Z</time>
      </trkpt>
      <trkpt lat="49.28932" lon="-0.11633">
        <ele>5.2</ele>
        <time>2020-06-17T11:12:32Z</time>
      </trkpt>
      <trkpt lat="49.28932" lon="-0.11632">
        <ele>5.2</ele>
        <time>2020-06-17T11:12:33Z</time>
      </trkpt>
      <trkpt lat="49.28931" lon="-0.11633">
        <ele>5.2</ele>
        <time>2020-06-17T11:12:34Z</time>
      </trkpt>
      <trkpt lat="49.28931" lon="-0.11633">
        <ele>5.2</ele>
        <time>2020-06-17T11:12:35Z</time>
      </trkpt>
      <trkpt lat="49.28931" lon="-0.11633">
        <ele>5.2</ele>
        <time>2020-06-17T11:12:36Z</time>
      </trkpt>
      <trkpt lat="49.28931" lon="-0.11633">
        <ele>5.2</ele>
        <time>2020-06-17T11:12:37Z</time>
      </trkpt>
      <trkpt lat="49.28931" lon="-0.11633">
        <ele>5.2</ele>
        <time>2020-06-17T11:12:38Z</time>
      </trkpt>
      <trkpt lat="49.28931" lon="-0.11633">
        <ele>5.2</ele>
        <time>2020-06-17T11:12:39Z</time>
      </trkpt>
      <trkpt lat="49.28931" lon="-0.11633">
        <ele>5.2</ele>
        <time>2020-06-17T11:12:40Z</time>
      </trkpt>
      <trkpt lat="49.28931" lon="-0.11633">
        <ele>5.2</ele>
        <time>2020-06-17T11:12:41Z</time>
      </trkpt>
      <trkpt lat="49.28931" lon="-0.11633">
        <ele>5.2</ele>
        <time>2020-06-17T11:12:42Z</time>
      </trkpt>
      <trkpt lat="49.28931" lon="-0.11633">
        <ele>5.2</ele>
        <time>2020-06-17T11:12:43Z</time>
      </trkpt>
      <trkpt lat="49.28931" lon="-0.11633">
        <ele>5.2</ele>
        <time>2020-06-17T11:12:44Z</time>
      </trkpt>
      <trkpt lat="49.28931" lon="-0.11633">
        <ele>5.2</ele>
        <time>2020-06-17T11:12:45Z</time>
      </trkpt>
      <trkpt lat="49.28933" lon="-0.1163">
        <ele>5.2</ele>
        <time>2020-06-17T11:14:51Z</time>
      </trkpt>
      <trkpt lat="49.28932" lon="-0.11632">
        <ele>5.2</ele>
        <time>2020-06-17T11:14:52Z</time>
      </trkpt>
      <trkpt lat="49.28931" lon="-0.11634">
        <ele>5.2</ele>
        <time>2020-06-17T11:14:53Z</time>
      </trkpt>
      <trkpt lat="49.2893" lon="-0.11635">
        <ele>5.2</ele>
        <time>2020-06-17T11:14:54Z</time>
      </trkpt>
      <trkpt lat="49.2893" lon="-0.11636">
        <ele>5.2</ele>
        <time>2020-06-17T11:14:55Z</time>
      </trkpt>
      <trkpt lat="49.2893" lon="-0.11637">
        <ele>5.2</ele>
        <time>2020-06-17T11:14:56Z</time>
      </trkpt>
      <trkpt lat="49.28929" lon="-0.11638">
        <ele>5.2</ele>
        <time>2020-06-17T11:14:57Z</time>
      </trkpt>
      <trkpt lat="49.28929" lon="-0.11639">
        <ele>5.2</ele>
        <time>2020-06-17T11:14:58Z</time>
      </trkpt>
      <trkpt lat="49.28928" lon="-0.1164">
        <ele>5.2</ele>
        <time>2020-06-17T11:14:59Z</time>
      </trkpt>
      <trkpt lat="49.28928" lon="-0.11641">
        <ele>5.2</ele>
        <time>2020-06-17T11:15:00Z</time>
      </trkpt>
      <trkpt lat="49.28927" lon="-0.11642">
        <ele>5.2</ele>
        <time>2020-06-17T11:15:01Z</time>
      </trkpt>
      <trkpt lat="49.28927" lon="-0.11643">
        <ele>5.2</ele>
        <time>2020-06-17T11:15:02Z</time>
      </trkpt>
      <trkpt lat="49.28926" lon="-0.11645">
        <ele>5.2</ele>
        <time>2020-06-17T11:15:03Z</time>
      </trkpt>
      <trkpt lat="49.28926" lon="-0.11646">
        <ele>5.2</ele>
        <time>2020-06-17T11:15:04Z</time>
      </trkpt>
      <trkpt lat="49.28926" lon="-0.11646">
        <ele>5.2</ele>
        <time>2020-06-17T11:15:05Z</time>
      </trkpt>
      <trkpt lat="49.28926" lon="-0.1165">
        <ele>5.2</ele>
        <time>2020-06-17T11:15:20Z</time>
      </trkpt>
      <trkpt lat="49.28925" lon="-0.11652">
        <ele>5.2</ele>
        <time>2020-06-17T11:15:21Z</time>
      </trkpt>
      <trkpt lat="49.28925" lon="-0.11652">
        <ele>5.2</ele>
        <time>2020-06-17T11:15:22Z</time>
      </trkpt>
      <trkpt lat="49.28924" lon="-0.11653">
        <ele>5.2</ele>
        <time>2020-06-17T11:15:23Z</time>
      </trkpt>
      <trkpt lat="49.28924" lon="-0.11654">
        <ele>5.2</ele>
        <time>2020-06-17T11:15:24Z</time>
      </trkpt>
      <trkpt lat="49.28923" lon="-0.11657">
        <ele>5.2</ele>
        <time>2020-06-17T11:15:25Z</time>
      </trkpt>
      <trkpt lat="49.28923" lon="-0.11657">
        <ele>5.2</ele>
        <time>2020-06-17T11:15:26Z</time>
      </trkpt>
      <trkpt lat="49.28922" lon="-0.11658">
        <ele>5.2</ele>
        <time>2020-06-17T11:15:27Z</time>
      </trkpt>
      <trkpt lat="49.28921" lon="-0.1166">
        <ele>5.2</ele>
        <time>2020-06-17T11:15:28Z</time>
      </trkpt>
      <trkpt lat="49.28922" lon="-0.11661">
        <ele>5.2</ele>
        <time>2020-06-17T11:15:29Z</time>
      </trkpt>
      <trkpt lat="49.28923" lon="-0.11658">
        <ele>5.2</ele>
        <time>2020-06-17T11:15:30Z</time>
      </trkpt>
      <trkpt lat="49.28923" lon="-0.11657">
        <ele>5.2</ele>
        <time>2020-06-17T11:15:31Z</time>
      </trkpt>
      <trkpt lat="49.28923" lon="-0.11656">
        <ele>5.2</ele>
        <time>2020-06-17T11:15:32Z</time>
      </trkpt>
      <trkpt lat="49.28924" lon="-0.11656">
        <ele>5.2</ele>
        <time>2020-06-17T11:15:33Z</time>
      </trkpt>
      <trkpt lat="49.28924" lon="-0.11655">
        <ele>5.2</ele>
        <time>2020-06-17T11:15:34Z</time>
      </trkpt>
      <trkpt lat="49.28924" lon="-0.11653">
        <ele>5.2</ele>
        <time>2020-06-17T11:15:35Z</time>
      </trkpt>
      <trkpt lat="49.28925" lon="-0.11652">
        <ele>5.2</ele>
        <time>2020-06-17T11:15:36Z</time>
      </trkpt>
      <trkpt lat="49.28925" lon="-0.1165">
        <ele>5.2</ele>
        <time>2020-06-17T11:15:37Z</time>
      </trkpt>
      <trkpt lat="49.28925" lon="-0.1165">
        <ele>5.2</ele>
        <time>2020-06-17T11:15:38Z</time>
      </trkpt>
      <trkpt lat="49.28925" lon="-0.11649">
        <ele>5.2</ele>
        <time>2020-06-17T11:15:39Z</time>
      </trkpt>
      <trkpt lat="49.28925" lon="-0.1165">
        <ele>5.2</ele>
        <time>2020-06-17T11:15:40Z</time>
      </trkpt>
      <trkpt lat="49.28925" lon="-0.1165">
        <ele>5.2</ele>
        <time>2020-06-17T11:15:41Z</time>
      </trkpt>
      <trkpt lat="49.28925" lon="-0.1165">
        <ele>5.2</ele>
        <time>2020-06-17T11:15:42Z</time>
      </trkpt>
      <trkpt lat="49.28925" lon="-0.1165">
        <ele>5.2</ele>
        <time>2020-06-17T11:15:43Z</time>
      </trkpt>
      <trkpt lat="49.28926" lon="-0.11649">
        <ele>5.2</ele>
        <time>2020-06-17T11:15:44Z</time>
      </trkpt>
      <trkpt lat="49.28926" lon="-0.11649">
        <ele>5.2</ele>
        <time>2020-06-17T11:15:45Z</time>
      </trkpt>
      <trkpt lat="49.28926" lon="-0.11648">
        <ele>5.2</ele>
        <time>2020-06-17T11:15:46Z</time>
      </trkpt>
      <trkpt lat="49.28926" lon="-0.11648">
        <ele>5.2</ele>
        <time>2020-06-17T11:15:47Z</time>
      </trkpt>
      <trkpt lat="49.28926" lon="-0.11648">
        <ele>5.2</ele>
        <time>2020-06-17T11:15:48Z</time>
      </trkpt>
      <trkpt lat="49.28927" lon="-0.11619">
        <ele>5.2</ele>
        <time>2020-06-17T11:16:50Z</time>
      </trkpt>
      <trkpt lat="49.28927" lon="-0.11618">
        <ele>5.2</ele>
        <time>2020-06-17T11:16:51Z</time>
      </trkpt>
      <trkpt lat="49.28926" lon="-0.11617">
        <ele>5.2</ele>
        <time>2020-06-17T11:16:52Z</time>
      </trkpt>
      <trkpt lat="49.28926" lon="-0.11617">
        <ele>5.2</ele>
        <time>2020-06-17T11:16:53Z</time>
      </trkpt>
      <trkpt lat="49.28926" lon="-0.11617">
        <ele>5.2</ele>
        <time>2020-06-17T11:16:54Z</time>
      </trkpt>
      <trkpt lat="49.28926" lon="-0.11618">
        <ele>5.2</ele>
        <time>2020-06-17T11:16:55Z</time>
      </trkpt>
      <trkpt lat="49.28926" lon="-0.11619">
        <ele>5.2</ele>
        <time>2020-06-17T11:16:56Z</time>
      </trkpt>
      <trkpt lat="49.28926" lon="-0.1162">
        <ele>5.2</ele>
        <time>2020-06-17T11:16:57Z</time>
      </trkpt>
      <trkpt lat="49.28926" lon="-0.1162">
        <ele>5.2</ele>
        <time>2020-06-17T11:16:58Z</time>
      </trkpt>
      <trkpt lat="49.28926" lon="-0.11618">
        <ele>5.2</ele>
        <time>2020-06-17T11:16:59Z</time>
      </trkpt>
      <trkpt lat="49.28926" lon="-0.11617">
        <ele>5.2</ele>
        <time>2020-06-17T11:17:00Z</time>
      </trkpt>
      <trkpt lat="49.28926" lon="-0.11616">
        <ele>5.2</ele>
        <time>2020-06-17T11:17:01Z</time>
      </trkpt>
      <trkpt lat="49.28926" lon="-0.11616">
        <ele>5.2</ele>
        <time>2020-06-17T11:17:02Z</time>
      </trkpt>
      <trkpt lat="49.28926" lon="-0.11615">
        <ele>5.2</ele>
        <time>2020-06-17T11:17:03Z</time>
      </trkpt>
      <trkpt lat="49.28926" lon="-0.11615">
        <ele>5.2</ele>
        <time>2020-06-17T11:17:04Z</time>
      </trkpt>
      <trkpt lat="49.28926" lon="-0.11615">
        <ele>5.2</ele>
        <time>2020-06-17T11:17:05Z</time>
      </trkpt>
      <trkpt lat="49.28926" lon="-0.11615">
        <ele>5.2</ele>
        <time>2020-06-17T11:17:06Z</time>
      </trkpt>
      <trkpt lat="49.28927" lon="-0.11614">
        <ele>5.2</ele>
        <time>2020-06-17T11:17:07Z</time>
      </trkpt>
      <trkpt lat="49.28927" lon="-0.11614">
        <ele>5.2</ele>
        <time>2020-06-17T11:17:08Z</time>
      </trkpt>
      <trkpt lat="49.28927" lon="-0.11614">
        <ele>5.2</ele>
        <time>2020-06-17T11:17:09Z</time>
      </trkpt>
      <trkpt lat="49.28928" lon="-0.11614">
        <ele>5.2</ele>
        <time>2020-06-17T11:17:10Z</time>
      </trkpt>
      <trkpt lat="49.28928" lon="-0.11615">
        <ele>5.2</ele>
        <time>2020-06-17T11:17:11Z</time>
      </trkpt>
      <trkpt lat="49.28928" lon="-0.11616">
        <ele>5.2</ele>
        <time>2020-06-17T11:17:12Z</time>
      </trkpt>
      <trkpt lat="49.28927" lon="-0.11615">
        <ele>5.2</ele>
        <time>2020-06-17T11:17:13Z</time>
      </trkpt>
      <trkpt lat="49.28927" lon="-0.11614">
        <ele>5.2</ele>
        <time>2020-06-17T11:17:14Z</time>
      </trkpt>
      <trkpt lat="49.28927" lon="-0.11613">
        <ele>5.2</ele>
        <time>2020-06-17T11:17:15Z</time>
      </trkpt>
      <trkpt lat="49.28927" lon="-0.11612">
        <ele>5.2</ele>
        <time>2020-06-17T11:17:16Z</time>
      </trkpt>
      <trkpt lat="49.28928" lon="-0.11612">
        <ele>5.2</ele>
        <time>2020-06-17T11:17:17Z</time>
      </trkpt>
      <trkpt lat="49.28927" lon="-0.11612">
        <ele>5.2</ele>
        <time>2020-06-17T11:17:18Z</time>
      </trkpt>
      <trkpt lat="49.28927" lon="-0.11611">
        <ele>5.2</ele>
        <time>2020-06-17T11:17:19Z</time>
      </trkpt>
      <trkpt lat="49.28928" lon="-0.11612">
        <ele>5.2</ele>
        <time>2020-06-17T11:17:20Z</time>
      </trkpt>
      <trkpt lat="49.28928" lon="-0.11612">
        <ele>5.2</ele>
        <time>2020-06-17T11:17:21Z</time>
      </trkpt>
      <trkpt lat="49.28927" lon="-0.11612">
        <ele>5.2</ele>
        <time>2020-06-17T11:17:22Z</time>
      </trkpt>
      <trkpt lat="49.28927" lon="-0.11613">
        <ele>5.2</ele>
        <time>2020-06-17T11:17:23Z</time>
      </trkpt>
      <trkpt lat="49.28926" lon="-0.11613">
        <ele>5.2</ele>
        <time>2020-06-17T11:17:24Z</time>
      </trkpt>
      <trkpt lat="49.28926" lon="-0.11613">
        <ele>5.2</ele>
        <time>2020-06-17T11:17:25Z</time>
      </trkpt>
      <trkpt lat="49.28926" lon="-0.11613">
        <ele>5.2</ele>
        <time>2020-06-17T11:17:26Z</time>
      </trkpt>
      <trkpt lat="49.28926" lon="-0.11612">
        <ele>5.2</ele>
        <time>2020-06-17T11:17:27Z</time>
      </trkpt>
      <trkpt lat="49.28926" lon="-0.11612">
        <ele>5.2</ele>
        <time>2020-06-17T11:17:28Z</time>
      </trkpt>
      <trkpt lat="49.28925" lon="-0.11612">
        <ele>5.2</ele>
        <time>2020-06-17T11:17:29Z</time>
      </trkpt>
      <trkpt lat="49.28925" lon="-0.11611">
        <ele>5.2</ele>
        <time>2020-06-17T11:17:30Z</time>
      </trkpt>
      <trkpt lat="49.28925" lon="-0.11611">
        <ele>5.2</ele>
        <time>2020-06-17T11:17:31Z</time>
      </trkpt>
      <trkpt lat="49.28924" lon="-0.11612">
        <ele>5.2</ele>
        <time>2020-06-17T11:17:32Z</time>
      </trkpt>
      <trkpt lat="49.28923" lon="-0.11612">
        <ele>5.2</ele>
        <time>2020-06-17T11:17:33Z</time>
      </trkpt>
      <trkpt lat="49.28922" lon="-0.11612">
        <ele>5.2</ele>
        <time>2020-06-17T11:17:34Z</time>
      </trkpt>
      <trkpt lat="49.28922" lon="-0.11611">
        <ele>5.2</ele>
        <time>2020-06-17T11:17:35Z</time>
      </trkpt>
      <trkpt lat="49.28921" lon="-0.11611">
        <ele>5.2</ele>
        <time>2020-06-17T11:17:36Z</time>
      </trkpt>
      <trkpt lat="49.28921" lon="-0.11611">
        <ele>5.2</ele>
        <time>2020-06-17T11:17:37Z</time>
      </trkpt>
      <trkpt lat="49.2892" lon="-0.1161">
        <ele>5.2</ele>
        <time>2020-06-17T11:17:38Z</time>
      </trkpt>
      <trkpt lat="49.2892" lon="-0.1161">
        <ele>5.2</ele>
        <time>2020-06-17T11:17:39Z</time>
      </trkpt>
      <trkpt lat="49.2892" lon="-0.1161">
        <ele>5.2</ele>
        <time>2020-06-17T11:17:40Z</time>
      </trkpt>
      <trkpt lat="49.2892" lon="-0.1161">
        <ele>5.2</ele>
        <time>2020-06-17T11:17:41Z</time>
      </trkpt>
      <trkpt lat="49.28921" lon="-0.1161">
        <ele>5.2</ele>
        <time>2020-06-17T11:17:42Z</time>
      </trkpt>
      <trkpt lat="49.28921" lon="-0.1161">
        <ele>5.2</ele>
        <time>2020-06-17T11:17:43Z</time>
      </trkpt>
      <trkpt lat="49.28922" lon="-0.1161">
        <ele>5.2</ele>
        <time>2020-06-17T11:17:44Z</time>
      </trkpt>
      <trkpt lat="49.28922" lon="-0.1161">
        <ele>5.2</ele>
        <time>2020-06-17T11:17:45Z</time>
      </trkpt>
      <trkpt lat="49.28923" lon="-0.1161">
        <ele>5.2</ele>
        <time>2020-06-17T11:17:46Z</time>
      </trkpt>
      <trkpt lat="49.28923" lon="-0.1161">
        <ele>5.2</ele>
        <time>2020-06-17T11:17:47Z</time>
      </trkpt>
      <trkpt lat="49.28923" lon="-0.1161">
        <ele>5.2</ele>
        <time>2020-06-17T11:17:48Z</time>
      </trkpt>
      <trkpt lat="49.28924" lon="-0.1161">
        <ele>5.2</ele>
        <time>2020-06-17T11:17:49Z</time>
      </trkpt>
      <trkpt lat="49.28924" lon="-0.11609">
        <ele>5.2</ele>
        <time>2020-06-17T11:17:50Z</time>
      </trkpt>
      <trkpt lat="49.28924" lon="-0.11608">
        <ele>5.2</ele>
        <time>2020-06-17T11:17:51Z</time>
      </trkpt>
      <trkpt lat="49.28925" lon="-0.11607">
        <ele>5.2</ele>
        <time>2020-06-17T11:17:52Z</time>
      </trkpt>
      <trkpt lat="49.28925" lon="-0.11606">
        <ele>5.2</ele>
        <time>2020-06-17T11:17:53Z</time>
      </trkpt>
      <trkpt lat="49.28925" lon="-0.11606">
        <ele>5.2</ele>
        <time>2020-06-17T11:17:54Z</time>
      </trkpt>
      <trkpt lat="49.28925" lon="-0.11604">
        <ele>5.2</ele>
        <time>2020-06-17T11:17:55Z</time>
      </trkpt>
      <trkpt lat="49.28925" lon="-0.11603">
        <ele>5.2</ele>
        <time>2020-06-17T11:17:56Z</time>
      </trkpt>
      <trkpt lat="49.28925" lon="-0.11602">
        <ele>5.2</ele>
        <time>2020-06-17T11:17:57Z</time>
      </trkpt>
      <trkpt lat="49.28925" lon="-0.11602">
        <ele>5.2</ele>
        <time>2020-06-17T11:17:58Z</time>
      </trkpt>
      <trkpt lat="49.28926" lon="-0.11601">
        <ele>5.2</ele>
        <time>2020-06-17T11:17:59Z</time>
      </trkpt>
      <trkpt lat="49.28926" lon="-0.116">
        <ele>5.2</ele>
        <time>2020-06-17T11:18:00Z</time>
      </trkpt>
      <trkpt lat="49.28926" lon="-0.116">
        <ele>5.2</ele>
        <time>2020-06-17T11:18:01Z</time>
      </trkpt>
      <trkpt lat="49.28926" lon="-0.11599">
        <ele>5.2</ele>
        <time>2020-06-17T11:18:02Z</time>
      </trkpt>
      <trkpt lat="49.28927" lon="-0.11599">
        <ele>5.2</ele>
        <time>2020-06-17T11:18:03Z</time>
      </trkpt>
      <trkpt lat="49.28926" lon="-0.11599">
        <ele>5.2</ele>
        <time>2020-06-17T11:18:04Z</time>
      </trkpt>
      <trkpt lat="49.28927" lon="-0.11598">
        <ele>5.2</ele>
        <time>2020-06-17T11:18:05Z</time>
      </trkpt>
      <trkpt lat="49.28927" lon="-0.11597">
        <ele>5.2</ele>
        <time>2020-06-17T11:18:06Z</time>
      </trkpt>
      <trkpt lat="49.28927" lon="-0.11597">
        <ele>5.2</ele>
        <time>2020-06-17T11:18:07Z</time>
      </trkpt>
      <trkpt lat="49.28926" lon="-0.11597">
        <ele>5.2</ele>
        <time>2020-06-17T11:18:08Z</time>
      </trkpt>
      <trkpt lat="49.28927" lon="-0.11597">
        <ele>5.2</ele>
        <time>2020-06-17T11:18:09Z</time>
      </trkpt>
      <trkpt lat="49.28928" lon="-0.11596">
        <ele>5.2</ele>
        <time>2020-06-17T11:18:10Z</time>
      </trkpt>
      <trkpt lat="49.28928" lon="-0.11595">
        <ele>5.2</ele>
        <time>2020-06-17T11:18:11Z</time>
      </trkpt>
      <trkpt lat="49.28929" lon="-0.11595">
        <ele>5.2</ele>
        <time>2020-06-17T11:18:12Z</time>
      </trkpt>
      <trkpt lat="49.2893" lon="-0.11594">
        <ele>5.2</ele>
        <time>2020-06-17T11:18:13Z</time>
      </trkpt>
      <trkpt lat="49.2893" lon="-0.11593">
        <ele>5.2</ele>
        <time>2020-06-17T11:18:14Z</time>
      </trkpt>
      <trkpt lat="49.28931" lon="-0.11592">
        <ele>5.2</ele>
        <time>2020-06-17T11:18:15Z</time>
      </trkpt>
      <trkpt lat="49.28932" lon="-0.11592">
        <ele>5.2</ele>
        <time>2020-06-17T11:18:16Z</time>
      </trkpt>
      <trkpt lat="49.28932" lon="-0.11592">
        <ele>5.2</ele>
        <time>2020-06-17T11:18:17Z</time>
      </trkpt>
      <trkpt lat="49.28933" lon="-0.11592">
        <ele>5.2</ele>
        <time>2020-06-17T11:18:18Z</time>
      </trkpt>
      <trkpt lat="49.28933" lon="-0.11593">
        <ele>5.2</ele>
        <time>2020-06-17T11:18:19Z</time>
      </trkpt>
      <trkpt lat="49.28934" lon="-0.11593">
        <ele>5.2</ele>
        <time>2020-06-17T11:18:20Z</time>
      </trkpt>
      <trkpt lat="49.28934" lon="-0.11595">
        <ele>5.2</ele>
        <time>2020-06-17T11:18:21Z</time>
      </trkpt>
      <trkpt lat="49.28934" lon="-0.11595">
        <ele>5.2</ele>
        <time>2020-06-17T11:18:22Z</time>
      </trkpt>
      <trkpt lat="49.28935" lon="-0.11595">
        <ele>5.2</ele>
        <time>2020-06-17T11:18:23Z</time>
      </trkpt>
      <trkpt lat="49.28935" lon="-0.11595">
        <ele>5.2</ele>
        <time>2020-06-17T11:18:24Z</time>
      </trkpt>
      <trkpt lat="49.28935" lon="-0.11595">
        <ele>5.2</ele>
        <time>2020-06-17T11:18:25Z</time>
      </trkpt>
      <trkpt lat="49.28936" lon="-0.11596">
        <ele>5.2</ele>
        <time>2020-06-17T11:18:26Z</time>
      </trkpt>
      <trkpt lat="49.28936" lon="-0.11595">
        <ele>5.2</ele>
        <time>2020-06-17T11:18:27Z</time>
      </trkpt>
      <trkpt lat="49.28936" lon="-0.11593">
        <ele>5.2</ele>
        <time>2020-06-17T11:18:28Z</time>
      </trkpt>
      <trkpt lat="49.28936" lon="-0.11592">
        <ele>5.2</ele>
        <time>2020-06-17T11:18:29Z</time>
      </trkpt>
      <trkpt lat="49.28937" lon="-0.11591">
        <ele>5.2</ele>
        <time>2020-06-17T11:18:30Z</time>
      </trkpt>
      <trkpt lat="49.28937" lon="-0.11589">
        <ele>5.2</ele>
        <time>2020-06-17T11:18:31Z</time>
      </trkpt>
      <trkpt lat="49.28936" lon="-0.11592">
        <ele>5.2</ele>
        <time>2020-06-17T11:18:32Z</time>
      </trkpt>
      <trkpt lat="49.28935" lon="-0.11595">
        <ele>5.2</ele>
        <time>2020-06-17T11:18:33Z</time>
      </trkpt>
      <trkpt lat="49.28935" lon="-0.11597">
        <ele>5.2</ele>
        <time>2020-06-17T11:18:34Z</time>
      </trkpt>
      <trkpt lat="49.28935" lon="-0.11598">
        <ele>5.2</ele>
        <time>2020-06-17T11:18:35Z</time>
      </trkpt>
      <trkpt lat="49.28935" lon="-0.11599">
        <ele>5.2</ele>
        <time>2020-06-17T11:18:36Z</time>
      </trkpt>
      <trkpt lat="49.28936" lon="-0.116">
        <ele>5.2</ele>
        <time>2020-06-17T11:18:37Z</time>
      </trkpt>
      <trkpt lat="49.28936" lon="-0.11602">
        <ele>5.2</ele>
        <time>2020-06-17T11:18:38Z</time>
      </trkpt>
      <trkpt lat="49.28934" lon="-0.11603">
        <ele>5.2</ele>
        <time>2020-06-17T11:18:39Z</time>
      </trkpt>
      <trkpt lat="49.28932" lon="-0.11606">
        <ele>5.2</ele>
        <time>2020-06-17T11:18:40Z</time>
      </trkpt>
      <trkpt lat="49.28931" lon="-0.11607">
        <ele>5.2</ele>
        <time>2020-06-17T11:18:41Z</time>
      </trkpt>
      <trkpt lat="49.28931" lon="-0.11609">
        <ele>5.2</ele>
        <time>2020-06-17T11:18:42Z</time>
      </trkpt>
      <trkpt lat="49.2893" lon="-0.1161">
        <ele>5.2</ele>
        <time>2020-06-17T11:18:43Z</time>
      </trkpt>
      <trkpt lat="49.28928" lon="-0.11611">
        <ele>5.2</ele>
        <time>2020-06-17T11:18:44Z</time>
      </trkpt>
      <trkpt lat="49.28926" lon="-0.11611">
        <ele>5.2</ele>
        <time>2020-06-17T11:18:45Z</time>
      </trkpt>
      <trkpt lat="49.28925" lon="-0.11612">
        <ele>5.2</ele>
        <time>2020-06-17T11:18:46Z</time>
      </trkpt>
      <trkpt lat="49.28923" lon="-0.11613">
        <ele>5.2</ele>
        <time>2020-06-17T11:18:47Z</time>
      </trkpt>
      <trkpt lat="49.28922" lon="-0.11614">
        <ele>5.2</ele>
        <time>2020-06-17T11:18:48Z</time>
      </trkpt>
      <trkpt lat="49.28921" lon="-0.11615">
        <ele>5.2</ele>
        <time>2020-06-17T11:18:49Z</time>
      </trkpt>
      <trkpt lat="49.28917" lon="-0.11615">
        <ele>5.2</ele>
        <time>2020-06-17T11:18:50Z</time>
      </trkpt>
      <trkpt lat="49.28916" lon="-0.11615">
        <ele>5.2</ele>
        <time>2020-06-17T11:18:51Z</time>
      </trkpt>
      <trkpt lat="49.28914" lon="-0.11616">
        <ele>5.2</ele>
        <time>2020-06-17T11:18:52Z</time>
      </trkpt>
      <trkpt lat="49.28913" lon="-0.11616">
        <ele>5.2</ele>
        <time>2020-06-17T11:18:53Z</time>
      </trkpt>
      <trkpt lat="49.28912" lon="-0.11617">
        <ele>5.2</ele>
        <time>2020-06-17T11:18:54Z</time>
      </trkpt>
      <trkpt lat="49.28911" lon="-0.11618">
        <ele>5.2</ele>
        <time>2020-06-17T11:18:55Z</time>
      </trkpt>
      <trkpt lat="49.28909" lon="-0.11618">
        <ele>5.2</ele>
        <time>2020-06-17T11:18:56Z</time>
      </trkpt>
      <trkpt lat="49.28908" lon="-0.11619">
        <ele>5.2</ele>
        <time>2020-06-17T11:18:57Z</time>
      </trkpt>
      <trkpt lat="49.28906" lon="-0.11619">
        <ele>5.1</ele>
        <time>2020-06-17T11:18:58Z</time>
      </trkpt>
      <trkpt lat="49.28903" lon="-0.1162">
        <ele>5.1</ele>
        <time>2020-06-17T11:18:59Z</time>
      </trkpt>
      <trkpt lat="49.28902" lon="-0.1162">
        <ele>5.1</ele>
        <time>2020-06-17T11:19:00Z</time>
      </trkpt>
      <trkpt lat="49.28901" lon="-0.11621">
        <ele>5.1</ele>
        <time>2020-06-17T11:19:01Z</time>
      </trkpt>
      <trkpt lat="49.28899" lon="-0.11623">
        <ele>5.1</ele>
        <time>2020-06-17T11:19:02Z</time>
      </trkpt>
      <trkpt lat="49.28898" lon="-0.11623">
        <ele>5.1</ele>
        <time>2020-06-17T11:19:03Z</time>
      </trkpt>
      <trkpt lat="49.28897" lon="-0.11625">
        <ele>5.1</ele>
        <time>2020-06-17T11:19:04Z</time>
      </trkpt>
      <trkpt lat="49.28896" lon="-0.11625">
        <ele>5.1</ele>
        <time>2020-06-17T11:19:05Z</time>
      </trkpt>
      <trkpt lat="49.28894" lon="-0.11625">
        <ele>5.1</ele>
        <time>2020-06-17T11:19:06Z</time>
      </trkpt>
      <trkpt lat="49.28892" lon="-0.11627">
        <ele>5.1</ele>
        <time>2020-06-17T11:19:07Z</time>
      </trkpt>
      <trkpt lat="49.28891" lon="-0.11627">
        <ele>5.1</ele>
        <time>2020-06-17T11:19:08Z</time>
      </trkpt>
      <trkpt lat="49.2889" lon="-0.11627">
        <ele>5.1</ele>
        <time>2020-06-17T11:19:09Z</time>
      </trkpt>
      <trkpt lat="49.28889" lon="-0.11628">
        <ele>5.1</ele>
        <time>2020-06-17T11:19:10Z</time>
      </trkpt>
      <trkpt lat="49.28888" lon="-0.11628">
        <ele>5.1</ele>
        <time>2020-06-17T11:19:11Z</time>
      </trkpt>
      <trkpt lat="49.28888" lon="-0.11629">
        <ele>5.1</ele>
        <time>2020-06-17T11:19:12Z</time>
      </trkpt>
      <trkpt lat="49.28887" lon="-0.1163">
        <ele>5.1</ele>
        <time>2020-06-17T11:19:13Z</time>
      </trkpt>
      <trkpt lat="49.28886" lon="-0.1163">
        <ele>5.1</ele>
        <time>2020-06-17T11:19:14Z</time>
      </trkpt>
      <trkpt lat="49.28886" lon="-0.11631">
        <ele>5.1</ele>
        <time>2020-06-17T11:19:15Z</time>
      </trkpt>
      <trkpt lat="49.28885" lon="-0.11632">
        <ele>5.1</ele>
        <time>2020-06-17T11:19:16Z</time>
      </trkpt>
      <trkpt lat="49.28885" lon="-0.11632">
        <ele>5.1</ele>
        <time>2020-06-17T11:19:17Z</time>
      </trkpt>
      <trkpt lat="49.28885" lon="-0.11632">
        <ele>5.1</ele>
        <time>2020-06-17T11:19:18Z</time>
      </trkpt>
      <trkpt lat="49.28885" lon="-0.11632">
        <ele>5.1</ele>
        <time>2020-06-17T11:19:19Z</time>
      </trkpt>
      <trkpt lat="49.28884" lon="-0.11633">
        <ele>5.1</ele>
        <time>2020-06-17T11:19:20Z</time>
      </trkpt>
      <trkpt lat="49.28884" lon="-0.11633">
        <ele>5.1</ele>
        <time>2020-06-17T11:19:21Z</time>
      </trkpt>
      <trkpt lat="49.28884" lon="-0.11633">
        <ele>5.1</ele>
        <time>2020-06-17T11:19:22Z</time>
      </trkpt>
      <trkpt lat="49.28884" lon="-0.11634">
        <ele>5.1</ele>
        <time>2020-06-17T11:19:23Z</time>
      </trkpt>
      <trkpt lat="49.28883" lon="-0.11635">
        <ele>5.1</ele>
        <time>2020-06-17T11:19:24Z</time>
      </trkpt>
      <trkpt lat="49.28883" lon="-0.11635">
        <ele>5.1</ele>
        <time>2020-06-17T11:19:25Z</time>
      </trkpt>
      <trkpt lat="49.28801" lon="-0.11613">
        <ele>4.8</ele>
        <time>2020-06-17T11:22:13Z</time>
      </trkpt>
      <trkpt lat="49.28801" lon="-0.11611">
        <ele>4.8</ele>
        <time>2020-06-17T11:22:14Z</time>
      </trkpt>
      <trkpt lat="49.28802" lon="-0.1161">
        <ele>4.8</ele>
        <time>2020-06-17T11:22:15Z</time>
      </trkpt>
      <trkpt lat="49.28802" lon="-0.1161">
        <ele>4.8</ele>
        <time>2020-06-17T11:22:16Z</time>
      </trkpt>
      <trkpt lat="49.28801" lon="-0.11607">
        <ele>4.8</ele>
        <time>2020-06-17T11:22:17Z</time>
      </trkpt>
      <trkpt lat="49.28801" lon="-0.11605">
        <ele>4.8</ele>
        <time>2020-06-17T11:22:18Z</time>
      </trkpt>
      <trkpt lat="49.28801" lon="-0.11603">
        <ele>4.8</ele>
        <time>2020-06-17T11:22:19Z</time>
      </trkpt>
      <trkpt lat="49.288" lon="-0.11601">
        <ele>4.8</ele>
        <time>2020-06-17T11:22:20Z</time>
      </trkpt>
      <trkpt lat="49.28798" lon="-0.11596">
        <ele>4.8</ele>
        <time>2020-06-17T11:22:21Z</time>
      </trkpt>
      <trkpt lat="49.28798" lon="-0.11594">
        <ele>4.8</ele>
        <time>2020-06-17T11:22:22Z</time>
      </trkpt>
      <trkpt lat="49.28797" lon="-0.11592">
        <ele>4.8</ele>
        <time>2020-06-17T11:22:23Z</time>
      </trkpt>
      <trkpt lat="49.28796" lon="-0.1159">
        <ele>4.8</ele>
        <time>2020-06-17T11:22:24Z</time>
      </trkpt>
      <trkpt lat="49.28795" lon="-0.11587">
        <ele>4.8</ele>
        <time>2020-06-17T11:22:25Z</time>
      </trkpt>
      <trkpt lat="49.28796" lon="-0.11587">
        <ele>4.8</ele>
        <time>2020-06-17T11:22:26Z</time>
      </trkpt>
      <trkpt lat="49.28799" lon="-0.1159">
        <ele>4.8</ele>
        <time>2020-06-17T11:22:27Z</time>
      </trkpt>
      <trkpt lat="49.288" lon="-0.1159">
        <ele>4.8</ele>
        <time>2020-06-17T11:22:28Z</time>
      </trkpt>
      <trkpt lat="49.28801" lon="-0.1159">
        <ele>4.8</ele>
        <time>2020-06-17T11:22:29Z</time>
      </trkpt>
      <trkpt lat="49.28802" lon="-0.11592">
        <ele>4.8</ele>
        <time>2020-06-17T11:22:30Z</time>
      </trkpt>
      <trkpt lat="49.28802" lon="-0.11592">
        <ele>4.8</ele>
        <time>2020-06-17T11:22:31Z</time>
      </trkpt>
      <trkpt lat="49.28802" lon="-0.11592">
        <ele>4.8</ele>
        <time>2020-06-17T11:22:32Z</time>
      </trkpt>
      <trkpt lat="49.28801" lon="-0.11594">
        <ele>4.8</ele>
        <time>2020-06-17T11:22:33Z</time>
      </trkpt>
      <trkpt lat="49.28801" lon="-0.11594">
        <ele>4.8</ele>
        <time>2020-06-17T11:22:34Z</time>
      </trkpt>
      <trkpt lat="49.28802" lon="-0.11592">
        <ele>4.8</ele>
        <time>2020-06-17T11:22:35Z</time>
      </trkpt>
      <trkpt lat="49.28804" lon="-0.11591">
        <ele>4.8</ele>
        <time>2020-06-17T11:22:36Z</time>
      </trkpt>
      <trkpt lat="49.28804" lon="-0.11591">
        <ele>4.8</ele>
        <time>2020-06-17T11:22:37Z</time>
      </trkpt>
      <trkpt lat="49.28804" lon="-0.1159">
        <ele>4.8</ele>
        <time>2020-06-17T11:22:38Z</time>
      </trkpt>
      <trkpt lat="49.28803" lon="-0.11592">
        <ele>4.8</ele>
        <time>2020-06-17T11:22:39Z</time>
      </trkpt>
      <trkpt lat="49.28803" lon="-0.11591">
        <ele>4.8</ele>
        <time>2020-06-17T11:22:40Z</time>
      </trkpt>
      <trkpt lat="49.28803" lon="-0.11591">
        <ele>4.8</ele>
        <time>2020-06-17T11:22:41Z</time>
      </trkpt>
      <trkpt lat="49.28803" lon="-0.11591">
        <ele>4.8</ele>
        <time>2020-06-17T11:22:42Z</time>
      </trkpt>
      <trkpt lat="49.28802" lon="-0.11591">
        <ele>4.8</ele>
        <time>2020-06-17T11:22:43Z</time>
      </trkpt>
      <trkpt lat="49.28805" lon="-0.11591">
        <ele>4.8</ele>
        <time>2020-06-17T11:22:44Z</time>
      </trkpt>
      <trkpt lat="49.28806" lon="-0.1159">
        <ele>4.8</ele>
        <time>2020-06-17T11:22:45Z</time>
      </trkpt>
      <trkpt lat="49.28804" lon="-0.11591">
        <ele>4.8</ele>
        <time>2020-06-17T11:22:46Z</time>
      </trkpt>
      <trkpt lat="49.28802" lon="-0.11592">
        <ele>4.8</ele>
        <time>2020-06-17T11:22:47Z</time>
      </trkpt>
      <trkpt lat="49.288" lon="-0.11593">
        <ele>4.8</ele>
        <time>2020-06-17T11:22:48Z</time>
      </trkpt>
      <trkpt lat="49.28799" lon="-0.11594">
        <ele>4.8</ele>
        <time>2020-06-17T11:22:49Z</time>
      </trkpt>
      <trkpt lat="49.28799" lon="-0.11594">
        <ele>4.8</ele>
        <time>2020-06-17T11:22:50Z</time>
      </trkpt>
      <trkpt lat="49.288" lon="-0.11594">
        <ele>4.8</ele>
        <time>2020-06-17T11:22:51Z</time>
      </trkpt>
      <trkpt lat="49.28801" lon="-0.11594">
        <ele>4.8</ele>
        <time>2020-06-17T11:22:52Z</time>
      </trkpt>
      <trkpt lat="49.28802" lon="-0.11594">
        <ele>4.8</ele>
        <time>2020-06-17T11:22:53Z</time>
      </trkpt>
      <trkpt lat="49.28804" lon="-0.11594">
        <ele>4.8</ele>
        <time>2020-06-17T11:22:54Z</time>
      </trkpt>
      <trkpt lat="49.28805" lon="-0.11594">
        <ele>4.8</ele>
        <time>2020-06-17T11:22:55Z</time>
      </trkpt>
      <trkpt lat="49.28806" lon="-0.11594">
        <ele>4.8</ele>
        <time>2020-06-17T11:22:56Z</time>
      </trkpt>
      <trkpt lat="49.28807" lon="-0.11594">
        <ele>4.8</ele>
        <time>2020-06-17T11:22:57Z</time>
      </trkpt>
      <trkpt lat="49.28808" lon="-0.11594">
        <ele>4.8</ele>
        <time>2020-06-17T11:22:58Z</time>
      </trkpt>
      <trkpt lat="49.2881" lon="-0.11593">
        <ele>4.8</ele>
        <time>2020-06-17T11:22:59Z</time>
      </trkpt>
      <trkpt lat="49.2881" lon="-0.11593">
        <ele>4.8</ele>
        <time>2020-06-17T11:23:00Z</time>
      </trkpt>
      <trkpt lat="49.2881" lon="-0.11593">
        <ele>4.8</ele>
        <time>2020-06-17T11:23:01Z</time>
      </trkpt>
      <trkpt lat="49.2881" lon="-0.11593">
        <ele>4.8</ele>
        <time>2020-06-17T11:23:02Z</time>
      </trkpt>
      <trkpt lat="49.2881" lon="-0.11593">
        <ele>4.8</ele>
        <time>2020-06-17T11:23:03Z</time>
      </trkpt>
      <trkpt lat="49.28844" lon="-0.11626">
        <ele>4.8</ele>
        <time>2020-06-17T11:24:05Z</time>
      </trkpt>
      <trkpt lat="49.28844" lon="-0.11626">
        <ele>4.8</ele>
        <time>2020-06-17T11:24:06Z</time>
      </trkpt>
      <trkpt lat="49.28844" lon="-0.1163">
        <ele>4.8</ele>
        <time>2020-06-17T11:24:07Z</time>
      </trkpt>
      <trkpt lat="49.28845" lon="-0.11629">
        <ele>4.8</ele>
        <time>2020-06-17T11:24:08Z</time>
      </trkpt>
      <trkpt lat="49.28847" lon="-0.11627">
        <ele>4.9</ele>
        <time>2020-06-17T11:24:09Z</time>
      </trkpt>
      <trkpt lat="49.28848" lon="-0.11629">
        <ele>4.9</ele>
        <time>2020-06-17T11:24:10Z</time>
      </trkpt>
      <trkpt lat="49.28852" lon="-0.11632">
        <ele>4.9</ele>
        <time>2020-06-17T11:24:11Z</time>
      </trkpt>
      <trkpt lat="49.28856" lon="-0.11636">
        <ele>4.9</ele>
        <time>2020-06-17T11:24:12Z</time>
      </trkpt>
      <trkpt lat="49.28858" lon="-0.11637">
        <ele>4.9</ele>
        <time>2020-06-17T11:24:13Z</time>
      </trkpt>
      <trkpt lat="49.28861" lon="-0.11638">
        <ele>4.9</ele>
        <time>2020-06-17T11:24:14Z</time>
      </trkpt>
      <trkpt lat="49.28865" lon="-0.11639">
        <ele>4.9</ele>
        <time>2020-06-17T11:24:15Z</time>
      </trkpt>
      <trkpt lat="49.28868" lon="-0.11639">
        <ele>5</ele>
        <time>2020-06-17T11:24:16Z</time>
      </trkpt>
      <trkpt lat="49.28869" lon="-0.11639">
        <ele>5</ele>
        <time>2020-06-17T11:24:17Z</time>
      </trkpt>
      <trkpt lat="49.28871" lon="-0.11639">
        <ele>5</ele>
        <time>2020-06-17T11:24:18Z</time>
      </trkpt>
      <trkpt lat="49.28872" lon="-0.11639">
        <ele>5</ele>
        <time>2020-06-17T11:24:19Z</time>
      </trkpt>
      <trkpt lat="49.28873" lon="-0.11639">
        <ele>5</ele>
        <time>2020-06-17T11:24:20Z</time>
      </trkpt>
      <trkpt lat="49.28873" lon="-0.11639">
        <ele>5</ele>
        <time>2020-06-17T11:24:21Z</time>
      </trkpt>
      <trkpt lat="49.28874" lon="-0.11639">
        <ele>5</ele>
        <time>2020-06-17T11:24:22Z</time>
      </trkpt>
      <trkpt lat="49.28874" lon="-0.11639">
        <ele>5</ele>
        <time>2020-06-17T11:24:23Z</time>
      </trkpt>
      <trkpt lat="49.28874" lon="-0.11639">
        <ele>5</ele>
        <time>2020-06-17T11:24:24Z</time>
      </trkpt>
      <trkpt lat="49.28874" lon="-0.11639">
        <ele>5</ele>
        <time>2020-06-17T11:24:25Z</time>
      </trkpt>
      <trkpt lat="49.28874" lon="-0.11639">
        <ele>5</ele>
        <time>2020-06-17T11:24:26Z</time>
      </trkpt>
      <trkpt lat="49.28888" lon="-0.11632">
        <ele>5.1</ele>
        <time>2020-06-17T11:26:07Z</time>
      </trkpt>
      <trkpt lat="49.28889" lon="-0.11633">
        <ele>5.2</ele>
        <time>2020-06-17T11:26:08Z</time>
      </trkpt>
      <trkpt lat="49.28892" lon="-0.11635">
        <ele>5.2</ele>
        <time>2020-06-17T11:26:09Z</time>
      </trkpt>
      <trkpt lat="49.28893" lon="-0.11636">
        <ele>5.2</ele>
        <time>2020-06-17T11:26:10Z</time>
      </trkpt>
      <trkpt lat="49.28894" lon="-0.11636">
        <ele>5.2</ele>
        <time>2020-06-17T11:26:11Z</time>
      </trkpt>
      <trkpt lat="49.28895" lon="-0.11637">
        <ele>5.2</ele>
        <time>2020-06-17T11:26:12Z</time>
      </trkpt>
      <trkpt lat="49.28897" lon="-0.11638">
        <ele>5.2</ele>
        <time>2020-06-17T11:26:13Z</time>
      </trkpt>
      <trkpt lat="49.28898" lon="-0.11639">
        <ele>5.2</ele>
        <time>2020-06-17T11:26:14Z</time>
      </trkpt>
      <trkpt lat="49.28899" lon="-0.11639">
        <ele>5.2</ele>
        <time>2020-06-17T11:26:15Z</time>
      </trkpt>
      <trkpt lat="49.289" lon="-0.1164">
        <ele>5.2</ele>
        <time>2020-06-17T11:26:16Z</time>
      </trkpt>
      <trkpt lat="49.28901" lon="-0.1164">
        <ele>5.2</ele>
        <time>2020-06-17T11:26:17Z</time>
      </trkpt>
      <trkpt lat="49.28902" lon="-0.11639">
        <ele>5.2</ele>
        <time>2020-06-17T11:26:18Z</time>
      </trkpt>
      <trkpt lat="49.28903" lon="-0.11638">
        <ele>5.2</ele>
        <time>2020-06-17T11:26:19Z</time>
      </trkpt>
      <trkpt lat="49.28905" lon="-0.11638">
        <ele>5.2</ele>
        <time>2020-06-17T11:26:20Z</time>
      </trkpt>
      <trkpt lat="49.28907" lon="-0.11637">
        <ele>5.2</ele>
        <time>2020-06-17T11:26:21Z</time>
      </trkpt>
      <trkpt lat="49.28908" lon="-0.11637">
        <ele>5.2</ele>
        <time>2020-06-17T11:26:22Z</time>
      </trkpt>
      <trkpt lat="49.2891" lon="-0.11636">
        <ele>5.2</ele>
        <time>2020-06-17T11:26:23Z</time>
      </trkpt>
      <trkpt lat="49.28911" lon="-0.11635">
        <ele>5.2</ele>
        <time>2020-06-17T11:26:24Z</time>
      </trkpt>
      <trkpt lat="49.28915" lon="-0.11633">
        <ele>5.2</ele>
        <time>2020-06-17T11:26:25Z</time>
      </trkpt>
      <trkpt lat="49.28917" lon="-0.11632">
        <ele>5.2</ele>
        <time>2020-06-17T11:26:26Z</time>
      </trkpt>
      <trkpt lat="49.28921" lon="-0.11629">
        <ele>5.2</ele>
        <time>2020-06-17T11:26:27Z</time>
      </trkpt>
      <trkpt lat="49.28925" lon="-0.11626">
        <ele>5.2</ele>
        <time>2020-06-17T11:26:28Z</time>
      </trkpt>
      <trkpt lat="49.28928" lon="-0.11624">
        <ele>5.2</ele>
        <time>2020-06-17T11:26:29Z</time>
      </trkpt>
      <trkpt lat="49.28931" lon="-0.11624">
        <ele>5.2</ele>
        <time>2020-06-17T11:26:30Z</time>
      </trkpt>
      <trkpt lat="49.28935" lon="-0.11624">
        <ele>5.2</ele>
        <time>2020-06-17T11:26:31Z</time>
      </trkpt>
      <trkpt lat="49.28936" lon="-0.11623">
        <ele>5.2</ele>
        <time>2020-06-17T11:26:32Z</time>
      </trkpt>
      <trkpt lat="49.2894" lon="-0.11621">
        <ele>5.2</ele>
        <time>2020-06-17T11:26:33Z</time>
      </trkpt>
      <trkpt lat="49.28941" lon="-0.1162">
        <ele>5.3</ele>
        <time>2020-06-17T11:26:34Z</time>
      </trkpt>
      <trkpt lat="49.28943" lon="-0.11618">
        <ele>5.3</ele>
        <time>2020-06-17T11:26:35Z</time>
      </trkpt>
      <trkpt lat="49.28946" lon="-0.11616">
        <ele>5.3</ele>
        <time>2020-06-17T11:26:36Z</time>
      </trkpt>
      <trkpt lat="49.2895" lon="-0.11614">
        <ele>5.3</ele>
        <time>2020-06-17T11:26:37Z</time>
      </trkpt>
      <trkpt lat="49.28951" lon="-0.11614">
        <ele>5.3</ele>
        <time>2020-06-17T11:26:38Z</time>
      </trkpt>
      <trkpt lat="49.28955" lon="-0.11612">
        <ele>5.3</ele>
        <time>2020-06-17T11:26:39Z</time>
      </trkpt>
      <trkpt lat="49.28956" lon="-0.11611">
        <ele>5.3</ele>
        <time>2020-06-17T11:26:40Z</time>
      </trkpt>
      <trkpt lat="49.28959" lon="-0.1161">
        <ele>5.3</ele>
        <time>2020-06-17T11:26:41Z</time>
      </trkpt>
      <trkpt lat="49.2896" lon="-0.11609">
        <ele>5.3</ele>
        <time>2020-06-17T11:26:42Z</time>
      </trkpt>
      <trkpt lat="49.28963" lon="-0.11606">
        <ele>5.3</ele>
        <time>2020-06-17T11:26:43Z</time>
      </trkpt>
      <trkpt lat="49.28964" lon="-0.11606">
        <ele>5.3</ele>
        <time>2020-06-17T11:26:44Z</time>
      </trkpt>
      <trkpt lat="49.28967" lon="-0.11602">
        <ele>5.3</ele>
        <time>2020-06-17T11:26:45Z</time>
      </trkpt>
      <trkpt lat="49.2897" lon="-0.11599">
        <ele>5.3</ele>
        <time>2020-06-17T11:26:46Z</time>
      </trkpt>
      <trkpt lat="49.28973" lon="-0.11596">
        <ele>5.3</ele>
        <time>2020-06-17T11:26:47Z</time>
      </trkpt>
      <trkpt lat="49.28974" lon="-0.11595">
        <ele>5.3</ele>
        <time>2020-06-17T11:26:48Z</time>
      </trkpt>
      <trkpt lat="49.28977" lon="-0.11592">
        <ele>5.3</ele>
        <time>2020-06-17T11:26:49Z</time>
      </trkpt>
      <trkpt lat="49.2898" lon="-0.1159">
        <ele>5.2</ele>
        <time>2020-06-17T11:26:50Z</time>
      </trkpt>
      <trkpt lat="49.28981" lon="-0.11589">
        <ele>5.2</ele>
        <time>2020-06-17T11:26:51Z</time>
      </trkpt>
      <trkpt lat="49.28984" lon="-0.11588">
        <ele>5.2</ele>
        <time>2020-06-17T11:26:52Z</time>
      </trkpt>
      <trkpt lat="49.28985" lon="-0.11588">
        <ele>5.2</ele>
        <time>2020-06-17T11:26:53Z</time>
      </trkpt>
      <trkpt lat="49.28989" lon="-0.11585">
        <ele>5.2</ele>
        <time>2020-06-17T11:26:54Z</time>
      </trkpt>
      <trkpt lat="49.2899" lon="-0.11584">
        <ele>5.2</ele>
        <time>2020-06-17T11:26:55Z</time>
      </trkpt>
      <trkpt lat="49.28993" lon="-0.11582">
        <ele>5.2</ele>
        <time>2020-06-17T11:26:56Z</time>
      </trkpt>
      <trkpt lat="49.28994" lon="-0.11581">
        <ele>5.2</ele>
        <time>2020-06-17T11:26:57Z</time>
      </trkpt>
      <trkpt lat="49.28997" lon="-0.1158">
        <ele>5.1</ele>
        <time>2020-06-17T11:26:58Z</time>
      </trkpt>
      <trkpt lat="49.28998" lon="-0.11579">
        <ele>5.1</ele>
        <time>2020-06-17T11:26:59Z</time>
      </trkpt>
      <trkpt lat="49.29" lon="-0.11578">
        <ele>5.1</ele>
        <time>2020-06-17T11:27:00Z</time>
      </trkpt>
      <trkpt lat="49.29002" lon="-0.11577">
        <ele>5.1</ele>
        <time>2020-06-17T11:27:01Z</time>
      </trkpt>
      <trkpt lat="49.29003" lon="-0.11576">
        <ele>5.1</ele>
        <time>2020-06-17T11:27:02Z</time>
      </trkpt>
      <trkpt lat="49.29004" lon="-0.11575">
        <ele>5.1</ele>
        <time>2020-06-17T11:27:03Z</time>
      </trkpt>
      <trkpt lat="49.29008" lon="-0.11576">
        <ele>5</ele>
        <time>2020-06-17T11:27:04Z</time>
      </trkpt>
      <trkpt lat="49.29009" lon="-0.11576">
        <ele>5</ele>
        <time>2020-06-17T11:27:05Z</time>
      </trkpt>
      <trkpt lat="49.29014" lon="-0.11576">
        <ele>5</ele>
        <time>2020-06-17T11:27:06Z</time>
      </trkpt>
      <trkpt lat="49.29016" lon="-0.11577">
        <ele>4.9</ele>
        <time>2020-06-17T11:27:07Z</time>
      </trkpt>
      <trkpt lat="49.29017" lon="-0.11576">
        <ele>4.9</ele>
        <time>2020-06-17T11:27:08Z</time>
      </trkpt>
      <trkpt lat="49.29019" lon="-0.11576">
        <ele>4.9</ele>
        <time>2020-06-17T11:27:09Z</time>
      </trkpt>
      <trkpt lat="49.29023" lon="-0.11575">
        <ele>4.9</ele>
        <time>2020-06-17T11:27:10Z</time>
      </trkpt>
      <trkpt lat="49.29025" lon="-0.11575">
        <ele>4.8</ele>
        <time>2020-06-17T11:27:11Z</time>
      </trkpt>
      <trkpt lat="49.29027" lon="-0.11573">
        <ele>4.8</ele>
        <time>2020-06-17T11:27:12Z</time>
      </trkpt>
      <trkpt lat="49.2903" lon="-0.11573">
        <ele>4.8</ele>
        <time>2020-06-17T11:27:13Z</time>
      </trkpt>
      <trkpt lat="49.29034" lon="-0.11572">
        <ele>4.7</ele>
        <time>2020-06-17T11:27:14Z</time>
      </trkpt>
      <trkpt lat="49.29035" lon="-0.11571">
        <ele>4.7</ele>
        <time>2020-06-17T11:27:15Z</time>
      </trkpt>
      <trkpt lat="49.29043" lon="-0.1157">
        <ele>4.6</ele>
        <time>2020-06-17T11:27:16Z</time>
      </trkpt>
      <trkpt lat="49.29046" lon="-0.11568">
        <ele>4.6</ele>
        <time>2020-06-17T11:27:17Z</time>
      </trkpt>
      <trkpt lat="49.29047" lon="-0.11567">
        <ele>4.6</ele>
        <time>2020-06-17T11:27:18Z</time>
      </trkpt>
      <trkpt lat="49.2905" lon="-0.11567">
        <ele>4.5</ele>
        <time>2020-06-17T11:27:19Z</time>
      </trkpt>
      <trkpt lat="49.29051" lon="-0.11566">
        <ele>4.5</ele>
        <time>2020-06-17T11:27:20Z</time>
      </trkpt>
      <trkpt lat="49.29054" lon="-0.11563">
        <ele>4.5</ele>
        <time>2020-06-17T11:27:21Z</time>
      </trkpt>
      <trkpt lat="49.29057" lon="-0.11562">
        <ele>4.5</ele>
        <time>2020-06-17T11:27:22Z</time>
      </trkpt>
      <trkpt lat="49.29058" lon="-0.11562">
        <ele>4.5</ele>
        <time>2020-06-17T11:27:23Z</time>
      </trkpt>
      <trkpt lat="49.29061" lon="-0.11561">
        <ele>4.5</ele>
        <time>2020-06-17T11:27:24Z</time>
      </trkpt>
      <trkpt lat="49.29062" lon="-0.11561">
        <ele>4.5</ele>
        <time>2020-06-17T11:27:25Z</time>
      </trkpt>
      <trkpt lat="49.29066" lon="-0.1156">
        <ele>4.5</ele>
        <time>2020-06-17T11:27:26Z</time>
      </trkpt>
      <trkpt lat="49.29069" lon="-0.1156">
        <ele>4.4</ele>
        <time>2020-06-17T11:27:27Z</time>
      </trkpt>
      <trkpt lat="49.29071" lon="-0.1156">
        <ele>4.4</ele>
        <time>2020-06-17T11:27:28Z</time>
      </trkpt>
      <trkpt lat="49.29075" lon="-0.1156">
        <ele>4.5</ele>
        <time>2020-06-17T11:27:29Z</time>
      </trkpt>
      <trkpt lat="49.29078" lon="-0.11558">
        <ele>4.5</ele>
        <time>2020-06-17T11:27:30Z</time>
      </trkpt>
      <trkpt lat="49.29081" lon="-0.11557">
        <ele>4.5</ele>
        <time>2020-06-17T11:27:31Z</time>
      </trkpt>
      <trkpt lat="49.29083" lon="-0.11553">
        <ele>4.5</ele>
        <time>2020-06-17T11:27:32Z</time>
      </trkpt>
      <trkpt lat="49.29084" lon="-0.11548">
        <ele>4.4</ele>
        <time>2020-06-17T11:27:33Z</time>
      </trkpt>
      <trkpt lat="49.29085" lon="-0.11539">
        <ele>4.4</ele>
        <time>2020-06-17T11:27:34Z</time>
      </trkpt>
      <trkpt lat="49.29086" lon="-0.11532">
        <ele>4.4</ele>
        <time>2020-06-17T11:27:35Z</time>
      </trkpt>
      <trkpt lat="49.29087" lon="-0.11524">
        <ele>4.4</ele>
        <time>2020-06-17T11:27:36Z</time>
      </trkpt>
      <trkpt lat="49.29087" lon="-0.11517">
        <ele>4.4</ele>
        <time>2020-06-17T11:27:37Z</time>
      </trkpt>
      <trkpt lat="49.29089" lon="-0.1151">
        <ele>4.4</ele>
        <time>2020-06-17T11:27:38Z</time>
      </trkpt>
      <trkpt lat="49.2909" lon="-0.11503">
        <ele>4.4</ele>
        <time>2020-06-17T11:27:39Z</time>
      </trkpt>
      <trkpt lat="49.29092" lon="-0.11497">
        <ele>4.4</ele>
        <time>2020-06-17T11:27:40Z</time>
      </trkpt>
      <trkpt lat="49.29094" lon="-0.11491">
        <ele>4.4</ele>
        <time>2020-06-17T11:27:41Z</time>
      </trkpt>
      <trkpt lat="49.29097" lon="-0.11487">
        <ele>4.4</ele>
        <time>2020-06-17T11:27:42Z</time>
      </trkpt>
      <trkpt lat="49.291" lon="-0.11487">
        <ele>4.4</ele>
        <time>2020-06-17T11:27:43Z</time>
      </trkpt>
      <trkpt lat="49.29105" lon="-0.11488">
        <ele>4.4</ele>
        <time>2020-06-17T11:27:44Z</time>
      </trkpt>
      <trkpt lat="49.29109" lon="-0.11488">
        <ele>4.4</ele>
        <time>2020-06-17T11:27:45Z</time>
      </trkpt>
      <trkpt lat="49.29114" lon="-0.1149">
        <ele>4.4</ele>
        <time>2020-06-17T11:27:46Z</time>
      </trkpt>
      <trkpt lat="49.29117" lon="-0.11489">
        <ele>4.4</ele>
        <time>2020-06-17T11:27:47Z</time>
      </trkpt>
      <trkpt lat="49.29126" lon="-0.11483">
        <ele>4.4</ele>
        <time>2020-06-17T11:27:48Z</time>
      </trkpt>
      <trkpt lat="49.29133" lon="-0.11481">
        <ele>4.4</ele>
        <time>2020-06-17T11:27:49Z</time>
      </trkpt>
      <trkpt lat="49.29141" lon="-0.11478">
        <ele>4.4</ele>
        <time>2020-06-17T11:27:50Z</time>
      </trkpt>
      <trkpt lat="49.2915" lon="-0.11475">
        <ele>4.5</ele>
        <time>2020-06-17T11:27:51Z</time>
      </trkpt>
      <trkpt lat="49.29156" lon="-0.1147">
        <ele>4.5</ele>
        <time>2020-06-17T11:27:52Z</time>
      </trkpt>
      <trkpt lat="49.29164" lon="-0.11467">
        <ele>4.6</ele>
        <time>2020-06-17T11:27:53Z</time>
      </trkpt>
      <trkpt lat="49.29172" lon="-0.11464">
        <ele>4.7</ele>
        <time>2020-06-17T11:27:54Z</time>
      </trkpt>
      <trkpt lat="49.2918" lon="-0.11463">
        <ele>4.8</ele>
        <time>2020-06-17T11:27:55Z</time>
      </trkpt>
      <trkpt lat="49.29188" lon="-0.11462">
        <ele>4.9</ele>
        <time>2020-06-17T11:27:56Z</time>
      </trkpt>
      <trkpt lat="49.29195" lon="-0.11462">
        <ele>5.1</ele>
        <time>2020-06-17T11:27:57Z</time>
      </trkpt>
      <trkpt lat="49.29201" lon="-0.11462">
        <ele>5.2</ele>
        <time>2020-06-17T11:27:58Z</time>
      </trkpt>
      <trkpt lat="49.29209" lon="-0.11466">
        <ele>5.4</ele>
        <time>2020-06-17T11:27:59Z</time>
      </trkpt>
      <trkpt lat="49.29215" lon="-0.11469">
        <ele>5.6</ele>
        <time>2020-06-17T11:28:00Z</time>
      </trkpt>
      <trkpt lat="49.29222" lon="-0.11472">
        <ele>5.7</ele>
        <time>2020-06-17T11:28:01Z</time>
      </trkpt>
      <trkpt lat="49.29229" lon="-0.11473">
        <ele>5.8</ele>
        <time>2020-06-17T11:28:02Z</time>
      </trkpt>
      <trkpt lat="49.29236" lon="-0.11474">
        <ele>6</ele>
        <time>2020-06-17T11:28:03Z</time>
      </trkpt>
      <trkpt lat="49.29243" lon="-0.11475">
        <ele>6</ele>
        <time>2020-06-17T11:28:04Z</time>
      </trkpt>
      <trkpt lat="49.29249" lon="-0.11477">
        <ele>6.2</ele>
        <time>2020-06-17T11:28:05Z</time>
      </trkpt>
      <trkpt lat="49.29255" lon="-0.11479">
        <ele>6.3</ele>
        <time>2020-06-17T11:28:06Z</time>
      </trkpt>
      <trkpt lat="49.29261" lon="-0.11482">
        <ele>6.4</ele>
        <time>2020-06-17T11:28:07Z</time>
      </trkpt>
      <trkpt lat="49.29267" lon="-0.11485">
        <ele>6.6</ele>
        <time>2020-06-17T11:28:08Z</time>
      </trkpt>
      <trkpt lat="49.29275" lon="-0.11487">
        <ele>6.7</ele>
        <time>2020-06-17T11:28:09Z</time>
      </trkpt>
      <trkpt lat="49.29282" lon="-0.11489">
        <ele>7</ele>
        <time>2020-06-17T11:28:10Z</time>
      </trkpt>
      <trkpt lat="49.29288" lon="-0.11488">
        <ele>7.1</ele>
        <time>2020-06-17T11:28:11Z</time>
      </trkpt>
      <trkpt lat="49.29325" lon="-0.11518">
        <ele>8.4</ele>
        <time>2020-06-17T11:28:12Z</time>
      </trkpt>
      <trkpt lat="49.29327" lon="-0.11516">
        <ele>8.4</ele>
        <time>2020-06-17T11:28:13Z</time>
      </trkpt>
      <trkpt lat="49.29329" lon="-0.11513">
        <ele>8.4</ele>
        <time>2020-06-17T11:28:14Z</time>
      </trkpt>
      <trkpt lat="49.29332" lon="-0.1151">
        <ele>8.4</ele>
        <time>2020-06-17T11:28:15Z</time>
      </trkpt>
      <trkpt lat="49.29335" lon="-0.11506">
        <ele>8.3</ele>
        <time>2020-06-17T11:28:16Z</time>
      </trkpt>
      <trkpt lat="49.2934" lon="-0.115">
        <ele>8.3</ele>
        <time>2020-06-17T11:28:17Z</time>
      </trkpt>
      <trkpt lat="49.29343" lon="-0.11496">
        <ele>8.3</ele>
        <time>2020-06-17T11:28:18Z</time>
      </trkpt>
      <trkpt lat="49.29344" lon="-0.11492">
        <ele>8.2</ele>
        <time>2020-06-17T11:28:19Z</time>
      </trkpt>
      <trkpt lat="49.29347" lon="-0.11487">
        <ele>8.2</ele>
        <time>2020-06-17T11:28:20Z</time>
      </trkpt>
      <trkpt lat="49.29348" lon="-0.11485">
        <ele>8.2</ele>
        <time>2020-06-17T11:28:21Z</time>
      </trkpt>
      <trkpt lat="49.2935" lon="-0.11482">
        <ele>8.2</ele>
        <time>2020-06-17T11:28:22Z</time>
      </trkpt>
      <trkpt lat="49.29354" lon="-0.1148">
        <ele>8.2</ele>
        <time>2020-06-17T11:28:23Z</time>
      </trkpt>
      <trkpt lat="49.29356" lon="-0.1148">
        <ele>8.2</ele>
        <time>2020-06-17T11:28:24Z</time>
      </trkpt>
      <trkpt lat="49.29359" lon="-0.11477">
        <ele>8.2</ele>
        <time>2020-06-17T11:28:25Z</time>
      </trkpt>
      <trkpt lat="49.29361" lon="-0.11474">
        <ele>8.2</ele>
        <time>2020-06-17T11:28:26Z</time>
      </trkpt>
      <trkpt lat="49.29365" lon="-0.11471">
        <ele>8.2</ele>
        <time>2020-06-17T11:28:27Z</time>
      </trkpt>
      <trkpt lat="49.29366" lon="-0.1147">
        <ele>8.2</ele>
        <time>2020-06-17T11:28:28Z</time>
      </trkpt>
      <trkpt lat="49.29367" lon="-0.11468">
        <ele>8.2</ele>
        <time>2020-06-17T11:28:29Z</time>
      </trkpt>
      <trkpt lat="49.29368" lon="-0.11467">
        <ele>8.2</ele>
        <time>2020-06-17T11:28:30Z</time>
      </trkpt>
      <trkpt lat="49.2937" lon="-0.11465">
        <ele>8.2</ele>
        <time>2020-06-17T11:28:31Z</time>
      </trkpt>
      <trkpt lat="49.29371" lon="-0.11464">
        <ele>8.2</ele>
        <time>2020-06-17T11:28:32Z</time>
      </trkpt>
      <trkpt lat="49.29372" lon="-0.11463">
        <ele>8.2</ele>
        <time>2020-06-17T11:28:33Z</time>
      </trkpt>
      <trkpt lat="49.29374" lon="-0.11462">
        <ele>8.1</ele>
        <time>2020-06-17T11:28:34Z</time>
      </trkpt>
      <trkpt lat="49.29375" lon="-0.1146">
        <ele>8.1</ele>
        <time>2020-06-17T11:28:35Z</time>
      </trkpt>
      <trkpt lat="49.29377" lon="-0.1146">
        <ele>8.1</ele>
        <time>2020-06-17T11:28:36Z</time>
      </trkpt>
      <trkpt lat="49.29377" lon="-0.11459">
        <ele>8.2</ele>
        <time>2020-06-17T11:28:37Z</time>
      </trkpt>
      <trkpt lat="49.29378" lon="-0.11459">
        <ele>8.2</ele>
        <time>2020-06-17T11:28:38Z</time>
      </trkpt>
      <trkpt lat="49.29387" lon="-0.11459">
        <ele>8.3</ele>
        <time>2020-06-17T11:28:43Z</time>
      </trkpt>
      <trkpt lat="49.29388" lon="-0.11459">
        <ele>8.4</ele>
        <time>2020-06-17T11:28:44Z</time>
      </trkpt>
      <trkpt lat="49.2939" lon="-0.11458">
        <ele>8.4</ele>
        <time>2020-06-17T11:28:45Z</time>
      </trkpt>
      <trkpt lat="49.2939" lon="-0.11458">
        <ele>8.4</ele>
        <time>2020-06-17T11:28:46Z</time>
      </trkpt>
      <trkpt lat="49.29392" lon="-0.11457">
        <ele>8.4</ele>
        <time>2020-06-17T11:28:47Z</time>
      </trkpt>
      <trkpt lat="49.29394" lon="-0.11453">
        <ele>8.4</ele>
        <time>2020-06-17T11:28:48Z</time>
      </trkpt>
      <trkpt lat="49.29397" lon="-0.1145">
        <ele>8.3</ele>
        <time>2020-06-17T11:28:49Z</time>
      </trkpt>
      <trkpt lat="49.29398" lon="-0.1145">
        <ele>8.2</ele>
        <time>2020-06-17T11:28:50Z</time>
      </trkpt>
      <trkpt lat="49.29401" lon="-0.11452">
        <ele>8.1</ele>
        <time>2020-06-17T11:28:51Z</time>
      </trkpt>
      <trkpt lat="49.29403" lon="-0.11453">
        <ele>8</ele>
        <time>2020-06-17T11:28:52Z</time>
      </trkpt>
      <trkpt lat="49.29406" lon="-0.11455">
        <ele>7.9</ele>
        <time>2020-06-17T11:28:53Z</time>
      </trkpt>
      <trkpt lat="49.29408" lon="-0.11457">
        <ele>7.8</ele>
        <time>2020-06-17T11:28:54Z</time>
      </trkpt>
      <trkpt lat="49.29411" lon="-0.11459">
        <ele>7.7</ele>
        <time>2020-06-17T11:28:55Z</time>
      </trkpt>
      <trkpt lat="49.29414" lon="-0.1146">
        <ele>7.6</ele>
        <time>2020-06-17T11:28:56Z</time>
      </trkpt>
      <trkpt lat="49.29415" lon="-0.1146">
        <ele>7.5</ele>
        <time>2020-06-17T11:28:57Z</time>
      </trkpt>
      <trkpt lat="49.29417" lon="-0.11461">
        <ele>7.4</ele>
        <time>2020-06-17T11:28:58Z</time>
      </trkpt>
      <trkpt lat="49.29418" lon="-0.1146">
        <ele>7.4</ele>
        <time>2020-06-17T11:28:59Z</time>
      </trkpt>
      <trkpt lat="49.29419" lon="-0.1146">
        <ele>7.4</ele>
        <time>2020-06-17T11:29:00Z</time>
      </trkpt>
      <trkpt lat="49.2942" lon="-0.1146">
        <ele>7.3</ele>
        <time>2020-06-17T11:29:01Z</time>
      </trkpt>
      <trkpt lat="49.29421" lon="-0.1146">
        <ele>7.3</ele>
        <time>2020-06-17T11:29:02Z</time>
      </trkpt>
      <trkpt lat="49.29424" lon="-0.11458">
        <ele>7.2</ele>
        <time>2020-06-17T11:29:03Z</time>
      </trkpt>
      <trkpt lat="49.29424" lon="-0.11455">
        <ele>6.5</ele>
        <time>2020-06-17T11:29:04Z</time>
      </trkpt>
      <trkpt lat="49.29425" lon="-0.11453">
        <ele>6.5</ele>
        <time>2020-06-17T11:29:05Z</time>
      </trkpt>
      <trkpt lat="49.29427" lon="-0.11453">
        <ele>6.5</ele>
        <time>2020-06-17T11:29:06Z</time>
      </trkpt>
      <trkpt lat="49.29428" lon="-0.1145">
        <ele>6.5</ele>
        <time>2020-06-17T11:29:07Z</time>
      </trkpt>
      <trkpt lat="49.29429" lon="-0.11448">
        <ele>6.5</ele>
        <time>2020-06-17T11:29:08Z</time>
      </trkpt>
      <trkpt lat="49.2943" lon="-0.11447">
        <ele>6.5</ele>
        <time>2020-06-17T11:29:09Z</time>
      </trkpt>
      <trkpt lat="49.2943" lon="-0.11446">
        <ele>6.5</ele>
        <time>2020-06-17T11:29:10Z</time>
      </trkpt>
      <trkpt lat="49.29431" lon="-0.11441">
        <ele>6.5</ele>
        <time>2020-06-17T11:29:11Z</time>
      </trkpt>
      <trkpt lat="49.29431" lon="-0.11435">
        <ele>6.5</ele>
        <time>2020-06-17T11:29:12Z</time>
      </trkpt>
      <trkpt lat="49.29432" lon="-0.11429">
        <ele>6.5</ele>
        <time>2020-06-17T11:29:13Z</time>
      </trkpt>
      <trkpt lat="49.29434" lon="-0.11423">
        <ele>6.5</ele>
        <time>2020-06-17T11:29:14Z</time>
      </trkpt>
      <trkpt lat="49.29435" lon="-0.11418">
        <ele>6.4</ele>
        <time>2020-06-17T11:29:15Z</time>
      </trkpt>
      <trkpt lat="49.29436" lon="-0.11412">
        <ele>6.4</ele>
        <time>2020-06-17T11:29:16Z</time>
      </trkpt>
      <trkpt lat="49.29438" lon="-0.11406">
        <ele>6.4</ele>
        <time>2020-06-17T11:29:17Z</time>
      </trkpt>
      <trkpt lat="49.2944" lon="-0.114">
        <ele>6.4</ele>
        <time>2020-06-17T11:29:18Z</time>
      </trkpt>
      <trkpt lat="49.29443" lon="-0.11394">
        <ele>6.4</ele>
        <time>2020-06-17T11:29:19Z</time>
      </trkpt>
      <trkpt lat="49.29445" lon="-0.11387">
        <ele>6.4</ele>
        <time>2020-06-17T11:29:20Z</time>
      </trkpt>
      <trkpt lat="49.29448" lon="-0.11381">
        <ele>6.5</ele>
        <time>2020-06-17T11:29:21Z</time>
      </trkpt>
      <trkpt lat="49.2945" lon="-0.11375">
        <ele>6.5</ele>
        <time>2020-06-17T11:29:22Z</time>
      </trkpt>
      <trkpt lat="49.29451" lon="-0.11368">
        <ele>6.5</ele>
        <time>2020-06-17T11:29:23Z</time>
      </trkpt>
      <trkpt lat="49.29453" lon="-0.11362">
        <ele>6.6</ele>
        <time>2020-06-17T11:29:24Z</time>
      </trkpt>
      <trkpt lat="49.29454" lon="-0.11356">
        <ele>6.6</ele>
        <time>2020-06-17T11:29:25Z</time>
      </trkpt>
      <trkpt lat="49.29455" lon="-0.1135">
        <ele>6.6</ele>
        <time>2020-06-17T11:29:26Z</time>
      </trkpt>
      <trkpt lat="49.29457" lon="-0.11345">
        <ele>6.6</ele>
        <time>2020-06-17T11:29:27Z</time>
      </trkpt>
      <trkpt lat="49.29458" lon="-0.1134">
        <ele>6.7</ele>
        <time>2020-06-17T11:29:28Z</time>
      </trkpt>
      <trkpt lat="49.29459" lon="-0.11335">
        <ele>6.7</ele>
        <time>2020-06-17T11:29:29Z</time>
      </trkpt>
      <trkpt lat="49.2946" lon="-0.1133">
        <ele>6.7</ele>
        <time>2020-06-17T11:29:30Z</time>
      </trkpt>
      <trkpt lat="49.29461" lon="-0.11326">
        <ele>6.8</ele>
        <time>2020-06-17T11:29:31Z</time>
      </trkpt>
      <trkpt lat="49.29462" lon="-0.11321">
        <ele>6.8</ele>
        <time>2020-06-17T11:29:32Z</time>
      </trkpt>
      <trkpt lat="49.29462" lon="-0.11319">
        <ele>6.8</ele>
        <time>2020-06-17T11:29:33Z</time>
      </trkpt>
      <trkpt lat="49.29465" lon="-0.11319">
        <ele>6.8</ele>
        <time>2020-06-17T11:29:34Z</time>
      </trkpt>
      <trkpt lat="49.29466" lon="-0.11314">
        <ele>6.8</ele>
        <time>2020-06-17T11:29:35Z</time>
      </trkpt>
      <trkpt lat="49.29466" lon="-0.11312">
        <ele>6.8</ele>
        <time>2020-06-17T11:29:36Z</time>
      </trkpt>
      <trkpt lat="49.29467" lon="-0.11307">
        <ele>6.8</ele>
        <time>2020-06-17T11:29:37Z</time>
      </trkpt>
      <trkpt lat="49.29467" lon="-0.11306">
        <ele>6.8</ele>
        <time>2020-06-17T11:29:38Z</time>
      </trkpt>
      <trkpt lat="49.29468" lon="-0.11303">
        <ele>6.8</ele>
        <time>2020-06-17T11:29:39Z</time>
      </trkpt>
      <trkpt lat="49.2947" lon="-0.11303">
        <ele>6.8</ele>
        <time>2020-06-17T11:29:40Z</time>
      </trkpt>
      <trkpt lat="49.2947" lon="-0.11303">
        <ele>6.8</ele>
        <time>2020-06-17T11:29:41Z</time>
      </trkpt>
      <trkpt lat="49.2947" lon="-0.11302">
        <ele>6.8</ele>
        <time>2020-06-17T11:29:42Z</time>
      </trkpt>
      <trkpt lat="49.2947" lon="-0.11302">
        <ele>6.8</ele>
        <time>2020-06-17T11:29:43Z</time>
      </trkpt>
      <trkpt lat="49.2947" lon="-0.11301">
        <ele>6.8</ele>
        <time>2020-06-17T11:29:44Z</time>
      </trkpt>
      <trkpt lat="49.2947" lon="-0.113">
        <ele>6.8</ele>
        <time>2020-06-17T11:29:45Z</time>
      </trkpt>
      <trkpt lat="49.2947" lon="-0.113">
        <ele>6.8</ele>
        <time>2020-06-17T11:29:46Z</time>
      </trkpt>
      <trkpt lat="49.2947" lon="-0.11299">
        <ele>6.8</ele>
        <time>2020-06-17T11:29:47Z</time>
      </trkpt>
      <trkpt lat="49.2947" lon="-0.11298">
        <ele>6.8</ele>
        <time>2020-06-17T11:29:48Z</time>
      </trkpt>
      <trkpt lat="49.2947" lon="-0.11298">
        <ele>6.8</ele>
        <time>2020-06-17T11:29:49Z</time>
      </trkpt>
      <trkpt lat="49.2947" lon="-0.11296">
        <ele>6.8</ele>
        <time>2020-06-17T11:29:50Z</time>
      </trkpt>
      <trkpt lat="49.2947" lon="-0.11295">
        <ele>6.8</ele>
        <time>2020-06-17T11:29:51Z</time>
      </trkpt>
      <trkpt lat="49.2947" lon="-0.11294">
        <ele>6.8</ele>
        <time>2020-06-17T11:29:52Z</time>
      </trkpt>
      <trkpt lat="49.29469" lon="-0.11294">
        <ele>6.8</ele>
        <time>2020-06-17T11:29:53Z</time>
      </trkpt>
      <trkpt lat="49.29469" lon="-0.11295">
        <ele>6.8</ele>
        <time>2020-06-17T11:29:54Z</time>
      </trkpt>
      <trkpt lat="49.29468" lon="-0.11296">
        <ele>6.8</ele>
        <time>2020-06-17T11:29:55Z</time>
      </trkpt>
      <trkpt lat="49.29468" lon="-0.11295">
        <ele>6.8</ele>
        <time>2020-06-17T11:29:56Z</time>
      </trkpt>
      <trkpt lat="49.29468" lon="-0.11295">
        <ele>6.8</ele>
        <time>2020-06-17T11:29:57Z</time>
      </trkpt>
      <trkpt lat="49.29468" lon="-0.11296">
        <ele>6.8</ele>
        <time>2020-06-17T11:29:58Z</time>
      </trkpt>
      <trkpt lat="49.29468" lon="-0.11297">
        <ele>6.8</ele>
        <time>2020-06-17T11:29:59Z</time>
      </trkpt>
      <trkpt lat="49.29468" lon="-0.11297">
        <ele>6.8</ele>
        <time>2020-06-17T11:30:00Z</time>
      </trkpt>
      <trkpt lat="49.29468" lon="-0.11297">
        <ele>6.8</ele>
        <time>2020-06-17T11:30:01Z</time>
      </trkpt>
      <trkpt lat="49.29455" lon="-0.113">
        <ele>6.8</ele>
        <time>2020-06-17T11:35:06Z</time>
      </trkpt>
      <trkpt lat="49.29455" lon="-0.11301">
        <ele>6.8</ele>
        <time>2020-06-17T11:35:07Z</time>
      </trkpt>
      <trkpt lat="49.29454" lon="-0.11301">
        <ele>6.8</ele>
        <time>2020-06-17T11:35:08Z</time>
      </trkpt>
      <trkpt lat="49.29455" lon="-0.113">
        <ele>6.8</ele>
        <time>2020-06-17T11:35:09Z</time>
      </trkpt>
      <trkpt lat="49.29455" lon="-0.113">
        <ele>6.8</ele>
        <time>2020-06-17T11:35:10Z</time>
      </trkpt>
      <trkpt lat="49.29456" lon="-0.113">
        <ele>6.8</ele>
        <time>2020-06-17T11:35:11Z</time>
      </trkpt>
      <trkpt lat="49.29456" lon="-0.113">
        <ele>6.8</ele>
        <time>2020-06-17T11:35:12Z</time>
      </trkpt>
      <trkpt lat="49.29456" lon="-0.113">
        <ele>6.8</ele>
        <time>2020-06-17T11:35:13Z</time>
      </trkpt>
      <trkpt lat="49.29455" lon="-0.113">
        <ele>6.8</ele>
        <time>2020-06-17T11:35:14Z</time>
      </trkpt>
      <trkpt lat="49.29455" lon="-0.113">
        <ele>6.8</ele>
        <time>2020-06-17T11:35:15Z</time>
      </trkpt>
      <trkpt lat="49.29455" lon="-0.113">
        <ele>6.8</ele>
        <time>2020-06-17T11:35:16Z</time>
      </trkpt>
      <trkpt lat="49.29455" lon="-0.11299">
        <ele>6.8</ele>
        <time>2020-06-17T11:35:17Z</time>
      </trkpt>
      <trkpt lat="49.29454" lon="-0.11299">
        <ele>6.8</ele>
        <time>2020-06-17T11:35:18Z</time>
      </trkpt>
      <trkpt lat="49.29453" lon="-0.11299">
        <ele>6.8</ele>
        <time>2020-06-17T11:35:19Z</time>
      </trkpt>
      <trkpt lat="49.29453" lon="-0.11299">
        <ele>6.8</ele>
        <time>2020-06-17T11:35:20Z</time>
      </trkpt>
      <trkpt lat="49.29452" lon="-0.11299">
        <ele>6.8</ele>
        <time>2020-06-17T11:35:21Z</time>
      </trkpt>
      <trkpt lat="49.29451" lon="-0.11299">
        <ele>6.8</ele>
        <time>2020-06-17T11:35:22Z</time>
      </trkpt>
      <trkpt lat="49.29451" lon="-0.11299">
        <ele>6.8</ele>
        <time>2020-06-17T11:35:23Z</time>
      </trkpt>
      <trkpt lat="49.2945" lon="-0.11299">
        <ele>6.8</ele>
        <time>2020-06-17T11:35:24Z</time>
      </trkpt>
      <trkpt lat="49.2945" lon="-0.11299">
        <ele>6.8</ele>
        <time>2020-06-17T11:35:25Z</time>
      </trkpt>
      <trkpt lat="49.2945" lon="-0.11299">
        <ele>6.8</ele>
        <time>2020-06-17T11:35:26Z</time>
      </trkpt>
      <trkpt lat="49.29449" lon="-0.11299">
        <ele>6.8</ele>
        <time>2020-06-17T11:35:27Z</time>
      </trkpt>
      <trkpt lat="49.29449" lon="-0.11299">
        <ele>6.8</ele>
        <time>2020-06-17T11:35:28Z</time>
      </trkpt>
      <trkpt lat="49.29449" lon="-0.11299">
        <ele>6.8</ele>
        <time>2020-06-17T11:35:29Z</time>
      </trkpt>
      <trkpt lat="49.29449" lon="-0.11299">
        <ele>6.8</ele>
        <time>2020-06-17T11:35:30Z</time>
      </trkpt>
      <trkpt lat="49.29449" lon="-0.11299">
        <ele>6.8</ele>
        <time>2020-06-17T11:35:31Z</time>
      </trkpt>
      <trkpt lat="49.29449" lon="-0.11299">
        <ele>6.8</ele>
        <time>2020-06-17T11:35:32Z</time>
      </trkpt>
      <trkpt lat="49.29447" lon="-0.11298">
        <ele>6.8</ele>
        <time>2020-06-17T11:35:33Z</time>
      </trkpt>
      <trkpt lat="49.29446" lon="-0.11298">
        <ele>6.8</ele>
        <time>2020-06-17T11:35:34Z</time>
      </trkpt>
      <trkpt lat="49.29446" lon="-0.11298">
        <ele>6.8</ele>
        <time>2020-06-17T11:35:35Z</time>
      </trkpt>
      <trkpt lat="49.29446" lon="-0.11298">
        <ele>6.8</ele>
        <time>2020-06-17T11:35:36Z</time>
      </trkpt>
      <trkpt lat="49.29446" lon="-0.11298">
        <ele>6.8</ele>
        <time>2020-06-17T11:35:37Z</time>
      </trkpt>
      <trkpt lat="49.29446" lon="-0.11298">
        <ele>6.8</ele>
        <time>2020-06-17T11:35:38Z</time>
      </trkpt>
      <trkpt lat="49.29445" lon="-0.11298">
        <ele>6.8</ele>
        <time>2020-06-17T11:35:39Z</time>
      </trkpt>
      <trkpt lat="49.29444" lon="-0.11298">
        <ele>6.8</ele>
        <time>2020-06-17T11:35:40Z</time>
      </trkpt>
      <trkpt lat="49.29443" lon="-0.11299">
        <ele>6.8</ele>
        <time>2020-06-17T11:35:41Z</time>
      </trkpt>
      <trkpt lat="49.29444" lon="-0.11298">
        <ele>6.8</ele>
        <time>2020-06-17T11:35:42Z</time>
      </trkpt>
      <trkpt lat="49.29443" lon="-0.11298">
        <ele>6.8</ele>
        <time>2020-06-17T11:35:43Z</time>
      </trkpt>
      <trkpt lat="49.29443" lon="-0.11298">
        <ele>6.8</ele>
        <time>2020-06-17T11:35:44Z</time>
      </trkpt>
      <trkpt lat="49.29443" lon="-0.11298">
        <ele>6.8</ele>
        <time>2020-06-17T11:35:45Z</time>
      </trkpt>
      <trkpt lat="49.29443" lon="-0.11298">
        <ele>6.8</ele>
        <time>2020-06-17T11:35:46Z</time>
      </trkpt>
      <trkpt lat="49.29443" lon="-0.11298">
        <ele>6.8</ele>
        <time>2020-06-17T11:35:47Z</time>
      </trkpt>
      <trkpt lat="49.29443" lon="-0.11298">
        <ele>6.8</ele>
        <time>2020-06-17T11:35:48Z</time>
      </trkpt>
      <trkpt lat="49.29443" lon="-0.11297">
        <ele>6.8</ele>
        <time>2020-06-17T11:35:49Z</time>
      </trkpt>
      <trkpt lat="49.29443" lon="-0.11297">
        <ele>6.8</ele>
        <time>2020-06-17T11:35:50Z</time>
      </trkpt>
      <trkpt lat="49.29443" lon="-0.11297">
        <ele>6.8</ele>
        <time>2020-06-17T11:35:51Z</time>
      </trkpt>
      <trkpt lat="49.29443" lon="-0.11298">
        <ele>6.8</ele>
        <time>2020-06-17T11:35:52Z</time>
      </trkpt>
      <trkpt lat="49.29442" lon="-0.11298">
        <ele>6.8</ele>
        <time>2020-06-17T11:35:53Z</time>
      </trkpt>
      <trkpt lat="49.29442" lon="-0.11298">
        <ele>6.8</ele>
        <time>2020-06-17T11:35:54Z</time>
      </trkpt>
      <trkpt lat="49.29441" lon="-0.11298">
        <ele>6.8</ele>
        <time>2020-06-17T11:35:55Z</time>
      </trkpt>
      <trkpt lat="49.29441" lon="-0.11299">
        <ele>6.9</ele>
        <time>2020-06-17T11:35:56Z</time>
      </trkpt>
      <trkpt lat="49.2944" lon="-0.11299">
        <ele>6.9</ele>
        <time>2020-06-17T11:35:57Z</time>
      </trkpt>
      <trkpt lat="49.2944" lon="-0.11299">
        <ele>6.9</ele>
        <time>2020-06-17T11:35:58Z</time>
      </trkpt>
      <trkpt lat="49.29439" lon="-0.11299">
        <ele>6.9</ele>
        <time>2020-06-17T11:35:59Z</time>
      </trkpt>
      <trkpt lat="49.29439" lon="-0.113">
        <ele>6.9</ele>
        <time>2020-06-17T11:36:00Z</time>
      </trkpt>
      <trkpt lat="49.29439" lon="-0.113">
        <ele>6.9</ele>
        <time>2020-06-17T11:36:01Z</time>
      </trkpt>
      <trkpt lat="49.29439" lon="-0.113">
        <ele>6.9</ele>
        <time>2020-06-17T11:36:02Z</time>
      </trkpt>
      <trkpt lat="49.29439" lon="-0.113">
        <ele>6.9</ele>
        <time>2020-06-17T11:36:03Z</time>
      </trkpt>
      <trkpt lat="49.29439" lon="-0.113">
        <ele>6.9</ele>
        <time>2020-06-17T11:36:04Z</time>
      </trkpt>
      <trkpt lat="49.29439" lon="-0.113">
        <ele>6.9</ele>
        <time>2020-06-17T11:36:05Z</time>
      </trkpt>
      <trkpt lat="49.29439" lon="-0.113">
        <ele>6.9</ele>
        <time>2020-06-17T11:36:06Z</time>
      </trkpt>
      <trkpt lat="49.29439" lon="-0.113">
        <ele>6.9</ele>
        <time>2020-06-17T11:36:07Z</time>
      </trkpt>
      <trkpt lat="49.29439" lon="-0.113">
        <ele>6.9</ele>
        <time>2020-06-17T11:36:08Z</time>
      </trkpt>
      <trkpt lat="49.29439" lon="-0.113">
        <ele>6.9</ele>
        <time>2020-06-17T11:36:09Z</time>
      </trkpt>
      <trkpt lat="49.29439" lon="-0.11299">
        <ele>6.9</ele>
        <time>2020-06-17T11:36:10Z</time>
      </trkpt>
      <trkpt lat="49.29439" lon="-0.11299">
        <ele>6.9</ele>
        <time>2020-06-17T11:36:11Z</time>
      </trkpt>
      <trkpt lat="49.29451" lon="-0.11299">
        <ele>6.9</ele>
        <time>2020-06-17T11:40:13Z</time>
      </trkpt>
      <trkpt lat="49.29451" lon="-0.11299">
        <ele>6.9</ele>
        <time>2020-06-17T11:40:14Z</time>
      </trkpt>
      <trkpt lat="49.29451" lon="-0.11299">
        <ele>6.9</ele>
        <time>2020-06-17T11:40:15Z</time>
      </trkpt>
      <trkpt lat="49.29451" lon="-0.11299">
        <ele>6.9</ele>
        <time>2020-06-17T11:40:16Z</time>
      </trkpt>
      <trkpt lat="49.2945" lon="-0.11299">
        <ele>6.9</ele>
        <time>2020-06-17T11:40:17Z</time>
      </trkpt>
      <trkpt lat="49.29449" lon="-0.11299">
        <ele>6.9</ele>
        <time>2020-06-17T11:40:18Z</time>
      </trkpt>
      <trkpt lat="49.29448" lon="-0.11299">
        <ele>6.9</ele>
        <time>2020-06-17T11:40:19Z</time>
      </trkpt>
      <trkpt lat="49.29447" lon="-0.11299">
        <ele>6.9</ele>
        <time>2020-06-17T11:40:20Z</time>
      </trkpt>
      <trkpt lat="49.29447" lon="-0.11299">
        <ele>6.9</ele>
        <time>2020-06-17T11:40:21Z</time>
      </trkpt>
      <trkpt lat="49.29447" lon="-0.11299">
        <ele>6.9</ele>
        <time>2020-06-17T11:40:22Z</time>
      </trkpt>
      <trkpt lat="49.29446" lon="-0.11299">
        <ele>6.9</ele>
        <time>2020-06-17T11:40:23Z</time>
      </trkpt>
      <trkpt lat="49.29445" lon="-0.11298">
        <ele>6.9</ele>
        <time>2020-06-17T11:40:24Z</time>
      </trkpt>
      <trkpt lat="49.29444" lon="-0.11297">
        <ele>6.9</ele>
        <time>2020-06-17T11:40:25Z</time>
      </trkpt>
      <trkpt lat="49.29445" lon="-0.11297">
        <ele>6.9</ele>
        <time>2020-06-17T11:40:26Z</time>
      </trkpt>
      <trkpt lat="49.29445" lon="-0.11296">
        <ele>6.9</ele>
        <time>2020-06-17T11:40:27Z</time>
      </trkpt>
      <trkpt lat="49.29445" lon="-0.11296">
        <ele>6.9</ele>
        <time>2020-06-17T11:40:28Z</time>
      </trkpt>
      <trkpt lat="49.29446" lon="-0.11295">
        <ele>6.9</ele>
        <time>2020-06-17T11:40:29Z</time>
      </trkpt>
      <trkpt lat="49.29447" lon="-0.11295">
        <ele>6.9</ele>
        <time>2020-06-17T11:40:30Z</time>
      </trkpt>
      <trkpt lat="49.29447" lon="-0.11295">
        <ele>6.9</ele>
        <time>2020-06-17T11:40:31Z</time>
      </trkpt>
      <trkpt lat="49.29447" lon="-0.11295">
        <ele>6.9</ele>
        <time>2020-06-17T11:40:32Z</time>
      </trkpt>
      <trkpt lat="49.29446" lon="-0.11296">
        <ele>6.9</ele>
        <time>2020-06-17T11:40:33Z</time>
      </trkpt>
      <trkpt lat="49.29446" lon="-0.11297">
        <ele>6.9</ele>
        <time>2020-06-17T11:40:34Z</time>
      </trkpt>
      <trkpt lat="49.29446" lon="-0.11297">
        <ele>6.9</ele>
        <time>2020-06-17T11:40:35Z</time>
      </trkpt>
      <trkpt lat="49.29446" lon="-0.11297">
        <ele>6.9</ele>
        <time>2020-06-17T11:40:36Z</time>
      </trkpt>
      <trkpt lat="49.29446" lon="-0.11298">
        <ele>6.9</ele>
        <time>2020-06-17T11:40:37Z</time>
      </trkpt>
      <trkpt lat="49.29446" lon="-0.11298">
        <ele>6.9</ele>
        <time>2020-06-17T11:40:38Z</time>
      </trkpt>
      <trkpt lat="49.29446" lon="-0.11299">
        <ele>6.9</ele>
        <time>2020-06-17T11:40:39Z</time>
      </trkpt>
      <trkpt lat="49.29446" lon="-0.113">
        <ele>6.9</ele>
        <time>2020-06-17T11:40:40Z</time>
      </trkpt>
      <trkpt lat="49.29446" lon="-0.11302">
        <ele>6.9</ele>
        <time>2020-06-17T11:40:41Z</time>
      </trkpt>
      <trkpt lat="49.29447" lon="-0.11302">
        <ele>6.9</ele>
        <time>2020-06-17T11:40:42Z</time>
      </trkpt>
      <trkpt lat="49.29447" lon="-0.11302">
        <ele>6.9</ele>
        <time>2020-06-17T11:40:43Z</time>
      </trkpt>
      <trkpt lat="49.29447" lon="-0.11302">
        <ele>6.9</ele>
        <time>2020-06-17T11:40:44Z</time>
      </trkpt>
      <trkpt lat="49.29447" lon="-0.11301">
        <ele>6.9</ele>
        <time>2020-06-17T11:40:45Z</time>
      </trkpt>
      <trkpt lat="49.29447" lon="-0.11301">
        <ele>6.9</ele>
        <time>2020-06-17T11:40:46Z</time>
      </trkpt>
      <trkpt lat="49.29447" lon="-0.113">
        <ele>6.9</ele>
        <time>2020-06-17T11:40:47Z</time>
      </trkpt>
      <trkpt lat="49.29447" lon="-0.113">
        <ele>6.9</ele>
        <time>2020-06-17T11:40:48Z</time>
      </trkpt>
      <trkpt lat="49.29448" lon="-0.113">
        <ele>6.9</ele>
        <time>2020-06-17T11:40:49Z</time>
      </trkpt>
      <trkpt lat="49.29448" lon="-0.11299">
        <ele>6.9</ele>
        <time>2020-06-17T11:40:50Z</time>
      </trkpt>
      <trkpt lat="49.29448" lon="-0.11299">
        <ele>6.9</ele>
        <time>2020-06-17T11:40:51Z</time>
      </trkpt>
      <trkpt lat="49.29449" lon="-0.11299">
        <ele>6.9</ele>
        <time>2020-06-17T11:40:52Z</time>
      </trkpt>
      <trkpt lat="49.2945" lon="-0.11299">
        <ele>6.9</ele>
        <time>2020-06-17T11:40:53Z</time>
      </trkpt>
      <trkpt lat="49.29451" lon="-0.11299">
        <ele>6.9</ele>
        <time>2020-06-17T11:40:54Z</time>
      </trkpt>
      <trkpt lat="49.29451" lon="-0.11299">
        <ele>6.9</ele>
        <time>2020-06-17T11:40:55Z</time>
      </trkpt>
      <trkpt lat="49.29452" lon="-0.11299">
        <ele>6.9</ele>
        <time>2020-06-17T11:40:56Z</time>
      </trkpt>
      <trkpt lat="49.29453" lon="-0.11299">
        <ele>6.9</ele>
        <time>2020-06-17T11:40:57Z</time>
      </trkpt>
      <trkpt lat="49.29453" lon="-0.11298">
        <ele>6.9</ele>
        <time>2020-06-17T11:40:58Z</time>
      </trkpt>
      <trkpt lat="49.29453" lon="-0.11298">
        <ele>6.9</ele>
        <time>2020-06-17T11:40:59Z</time>
      </trkpt>
      <trkpt lat="49.29453" lon="-0.11298">
        <ele>6.9</ele>
        <time>2020-06-17T11:41:00Z</time>
      </trkpt>
      <trkpt lat="49.29452" lon="-0.11297">
        <ele>7</ele>
        <time>2020-06-17T11:41:01Z</time>
      </trkpt>
      <trkpt lat="49.29452" lon="-0.11297">
        <ele>7</ele>
        <time>2020-06-17T11:41:02Z</time>
      </trkpt>
      <trkpt lat="49.29452" lon="-0.11298">
        <ele>7</ele>
        <time>2020-06-17T11:41:03Z</time>
      </trkpt>
      <trkpt lat="49.29453" lon="-0.11298">
        <ele>7</ele>
        <time>2020-06-17T11:41:04Z</time>
      </trkpt>
      <trkpt lat="49.29453" lon="-0.11299">
        <ele>7</ele>
        <time>2020-06-17T11:41:05Z</time>
      </trkpt>
      <trkpt lat="49.29453" lon="-0.11299">
        <ele>7</ele>
        <time>2020-06-17T11:41:06Z</time>
      </trkpt>
      <trkpt lat="49.29453" lon="-0.11299">
        <ele>7</ele>
        <time>2020-06-17T11:41:07Z</time>
      </trkpt>
      <trkpt lat="49.29453" lon="-0.11299">
        <ele>7</ele>
        <time>2020-06-17T11:41:08Z</time>
      </trkpt>
      <trkpt lat="49.29453" lon="-0.11299">
        <ele>7</ele>
        <time>2020-06-17T11:41:09Z</time>
      </trkpt>
      <trkpt lat="49.29458" lon="-0.11294">
        <ele>7</ele>
        <time>2020-06-17T11:44:46Z</time>
      </trkpt>
      <trkpt lat="49.29459" lon="-0.11294">
        <ele>7</ele>
        <time>2020-06-17T11:44:47Z</time>
      </trkpt>
      <trkpt lat="49.29459" lon="-0.11294">
        <ele>7</ele>
        <time>2020-06-17T11:44:48Z</time>
      </trkpt>
      <trkpt lat="49.29459" lon="-0.11294">
        <ele>7</ele>
        <time>2020-06-17T11:44:49Z</time>
      </trkpt>
      <trkpt lat="49.29459" lon="-0.11295">
        <ele>7</ele>
        <time>2020-06-17T11:44:50Z</time>
      </trkpt>
      <trkpt lat="49.2946" lon="-0.11294">
        <ele>7</ele>
        <time>2020-06-17T11:44:51Z</time>
      </trkpt>
      <trkpt lat="49.2946" lon="-0.11294">
        <ele>7</ele>
        <time>2020-06-17T11:44:52Z</time>
      </trkpt>
      <trkpt lat="49.29459" lon="-0.11295">
        <ele>7</ele>
        <time>2020-06-17T11:44:53Z</time>
      </trkpt>
      <trkpt lat="49.29459" lon="-0.11296">
        <ele>7</ele>
        <time>2020-06-17T11:44:54Z</time>
      </trkpt>
      <trkpt lat="49.29459" lon="-0.11296">
        <ele>7</ele>
        <time>2020-06-17T11:44:55Z</time>
      </trkpt>
      <trkpt lat="49.29459" lon="-0.11297">
        <ele>7</ele>
        <time>2020-06-17T11:44:56Z</time>
      </trkpt>
      <trkpt lat="49.29459" lon="-0.11297">
        <ele>7</ele>
        <time>2020-06-17T11:44:57Z</time>
      </trkpt>
      <trkpt lat="49.29459" lon="-0.11296">
        <ele>7</ele>
        <time>2020-06-17T11:44:58Z</time>
      </trkpt>
      <trkpt lat="49.29459" lon="-0.11296">
        <ele>7</ele>
        <time>2020-06-17T11:44:59Z</time>
      </trkpt>
      <trkpt lat="49.29459" lon="-0.11296">
        <ele>7</ele>
        <time>2020-06-17T11:45:00Z</time>
      </trkpt>
      <trkpt lat="49.29457" lon="-0.11301">
        <ele>7</ele>
        <time>2020-06-17T11:52:40Z</time>
      </trkpt>
      <trkpt lat="49.29456" lon="-0.113">
        <ele>7</ele>
        <time>2020-06-17T11:52:41Z</time>
      </trkpt>
      <trkpt lat="49.29454" lon="-0.11299">
        <ele>7</ele>
        <time>2020-06-17T11:52:42Z</time>
      </trkpt>
      <trkpt lat="49.29452" lon="-0.11298">
        <ele>7</ele>
        <time>2020-06-17T11:52:43Z</time>
      </trkpt>
      <trkpt lat="49.29452" lon="-0.11298">
        <ele>7</ele>
        <time>2020-06-17T11:52:44Z</time>
      </trkpt>
      <trkpt lat="49.29451" lon="-0.11297">
        <ele>7</ele>
        <time>2020-06-17T11:52:45Z</time>
      </trkpt>
      <trkpt lat="49.29451" lon="-0.11297">
        <ele>7</ele>
        <time>2020-06-17T11:52:46Z</time>
      </trkpt>
      <trkpt lat="49.29451" lon="-0.11297">
        <ele>7</ele>
        <time>2020-06-17T11:52:47Z</time>
      </trkpt>
      <trkpt lat="49.29451" lon="-0.11297">
        <ele>7</ele>
        <time>2020-06-17T11:52:48Z</time>
      </trkpt>
      <trkpt lat="49.29451" lon="-0.11297">
        <ele>7</ele>
        <time>2020-06-17T11:52:49Z</time>
      </trkpt>
      <trkpt lat="49.29451" lon="-0.11297">
        <ele>7</ele>
        <time>2020-06-17T11:52:50Z</time>
      </trkpt>
      <trkpt lat="49.2945" lon="-0.11297">
        <ele>7</ele>
        <time>2020-06-17T11:52:51Z</time>
      </trkpt>
      <trkpt lat="49.2945" lon="-0.11297">
        <ele>7</ele>
        <time>2020-06-17T11:52:52Z</time>
      </trkpt>
      <trkpt lat="49.29451" lon="-0.11299">
        <ele>7</ele>
        <time>2020-06-17T11:52:53Z</time>
      </trkpt>
      <trkpt lat="49.29452" lon="-0.113">
        <ele>7</ele>
        <time>2020-06-17T11:52:54Z</time>
      </trkpt>
      <trkpt lat="49.29452" lon="-0.11301">
        <ele>7</ele>
        <time>2020-06-17T11:52:55Z</time>
      </trkpt>
      <trkpt lat="49.29453" lon="-0.11304">
        <ele>7</ele>
        <time>2020-06-17T11:52:56Z</time>
      </trkpt>
      <trkpt lat="49.29444" lon="-0.11295">
        <ele>7</ele>
        <time>2020-06-17T11:57:08Z</time>
      </trkpt>
      <trkpt lat="49.29444" lon="-0.11296">
        <ele>7</ele>
        <time>2020-06-17T11:57:09Z</time>
      </trkpt>
      <trkpt lat="49.29443" lon="-0.11295">
        <ele>7.1</ele>
        <time>2020-06-17T11:57:10Z</time>
      </trkpt>
      <trkpt lat="49.29444" lon="-0.11296">
        <ele>7.1</ele>
        <time>2020-06-17T11:57:11Z</time>
      </trkpt>
      <trkpt lat="49.29443" lon="-0.11295">
        <ele>7.1</ele>
        <time>2020-06-17T11:57:12Z</time>
      </trkpt>
      <trkpt lat="49.29442" lon="-0.11293">
        <ele>7.1</ele>
        <time>2020-06-17T11:57:13Z</time>
      </trkpt>
      <trkpt lat="49.29442" lon="-0.11292">
        <ele>7.1</ele>
        <time>2020-06-17T11:57:14Z</time>
      </trkpt>
      <trkpt lat="49.29441" lon="-0.1129">
        <ele>7.1</ele>
        <time>2020-06-17T11:57:15Z</time>
      </trkpt>
      <trkpt lat="49.29441" lon="-0.1129">
        <ele>7.1</ele>
        <time>2020-06-17T11:57:16Z</time>
      </trkpt>
      <trkpt lat="49.29441" lon="-0.1129">
        <ele>7.1</ele>
        <time>2020-06-17T11:57:17Z</time>
      </trkpt>
      <trkpt lat="49.29441" lon="-0.1129">
        <ele>7.1</ele>
        <time>2020-06-17T11:57:18Z</time>
      </trkpt>
      <trkpt lat="49.29441" lon="-0.1129">
        <ele>7.1</ele>
        <time>2020-06-17T11:57:19Z</time>
      </trkpt>
      <trkpt lat="49.29441" lon="-0.1129">
        <ele>7.1</ele>
        <time>2020-06-17T11:57:20Z</time>
      </trkpt>
      <trkpt lat="49.29441" lon="-0.1129">
        <ele>7.1</ele>
        <time>2020-06-17T11:57:21Z</time>
      </trkpt>
      <trkpt lat="49.29441" lon="-0.11287">
        <ele>7.1</ele>
        <time>2020-06-17T11:57:33Z</time>
      </trkpt>
      <trkpt lat="49.29441" lon="-0.11287">
        <ele>7.1</ele>
        <time>2020-06-17T11:57:34Z</time>
      </trkpt>
      <trkpt lat="49.29441" lon="-0.11287">
        <ele>7.1</ele>
        <time>2020-06-17T11:57:35Z</time>
      </trkpt>
      <trkpt lat="49.29441" lon="-0.11287">
        <ele>7.1</ele>
        <time>2020-06-17T11:57:36Z</time>
      </trkpt>
      <trkpt lat="49.29441" lon="-0.11287">
        <ele>7.1</ele>
        <time>2020-06-17T11:57:37Z</time>
      </trkpt>
      <trkpt lat="49.29441" lon="-0.11287">
        <ele>7.1</ele>
        <time>2020-06-17T11:57:38Z</time>
      </trkpt>
      <trkpt lat="49.29441" lon="-0.11287">
        <ele>7.1</ele>
        <time>2020-06-17T11:57:39Z</time>
      </trkpt>
      <trkpt lat="49.29441" lon="-0.11287">
        <ele>7.1</ele>
        <time>2020-06-17T11:57:40Z</time>
      </trkpt>
      <trkpt lat="49.29441" lon="-0.11287">
        <ele>7.1</ele>
        <time>2020-06-17T11:57:41Z</time>
      </trkpt>
      <trkpt lat="49.29441" lon="-0.11287">
        <ele>7.1</ele>
        <time>2020-06-17T11:57:42Z</time>
      </trkpt>
      <trkpt lat="49.29441" lon="-0.11287">
        <ele>7.1</ele>
        <time>2020-06-17T11:57:43Z</time>
      </trkpt>
      <trkpt lat="49.29441" lon="-0.11287">
        <ele>7.1</ele>
        <time>2020-06-17T11:57:44Z</time>
      </trkpt>
      <trkpt lat="49.29441" lon="-0.11287">
        <ele>7.1</ele>
        <time>2020-06-17T11:57:45Z</time>
      </trkpt>
      <trkpt lat="49.29441" lon="-0.11286">
        <ele>7.1</ele>
        <time>2020-06-17T11:57:46Z</time>
      </trkpt>
      <trkpt lat="49.29443" lon="-0.11284">
        <ele>7.1</ele>
        <time>2020-06-17T11:57:54Z</time>
      </trkpt>
      <trkpt lat="49.29443" lon="-0.11284">
        <ele>7.1</ele>
        <time>2020-06-17T11:57:55Z</time>
      </trkpt>
      <trkpt lat="49.29443" lon="-0.11284">
        <ele>7.1</ele>
        <time>2020-06-17T11:57:56Z</time>
      </trkpt>
      <trkpt lat="49.29443" lon="-0.11284">
        <ele>7.1</ele>
        <time>2020-06-17T11:57:57Z</time>
      </trkpt>
      <trkpt lat="49.29443" lon="-0.11284">
        <ele>7.1</ele>
        <time>2020-06-17T11:57:58Z</time>
      </trkpt>
      <trkpt lat="49.29442" lon="-0.11283">
        <ele>7.1</ele>
        <time>2020-06-17T11:57:59Z</time>
      </trkpt>
      <trkpt lat="49.29442" lon="-0.11282">
        <ele>7.1</ele>
        <time>2020-06-17T11:58:00Z</time>
      </trkpt>
      <trkpt lat="49.29442" lon="-0.11281">
        <ele>7.1</ele>
        <time>2020-06-17T11:58:01Z</time>
      </trkpt>
      <trkpt lat="49.29442" lon="-0.1128">
        <ele>7.1</ele>
        <time>2020-06-17T11:58:02Z</time>
      </trkpt>
      <trkpt lat="49.29442" lon="-0.1128">
        <ele>7.1</ele>
        <time>2020-06-17T11:58:03Z</time>
      </trkpt>
      <trkpt lat="49.29441" lon="-0.1128">
        <ele>7.1</ele>
        <time>2020-06-17T11:58:04Z</time>
      </trkpt>
      <trkpt lat="49.29441" lon="-0.1128">
        <ele>7.1</ele>
        <time>2020-06-17T11:58:05Z</time>
      </trkpt>
      <trkpt lat="49.2944" lon="-0.11281">
        <ele>7.1</ele>
        <time>2020-06-17T11:58:06Z</time>
      </trkpt>
      <trkpt lat="49.29439" lon="-0.11281">
        <ele>7.1</ele>
        <time>2020-06-17T11:58:07Z</time>
      </trkpt>
      <trkpt lat="49.29438" lon="-0.11282">
        <ele>7.1</ele>
        <time>2020-06-17T11:58:08Z</time>
      </trkpt>
      <trkpt lat="49.29438" lon="-0.11282">
        <ele>7.1</ele>
        <time>2020-06-17T11:58:09Z</time>
      </trkpt>
      <trkpt lat="49.29438" lon="-0.11282">
        <ele>7.1</ele>
        <time>2020-06-17T11:58:10Z</time>
      </trkpt>
      <trkpt lat="49.29437" lon="-0.11282">
        <ele>7.1</ele>
        <time>2020-06-17T11:58:11Z</time>
      </trkpt>
      <trkpt lat="49.29437" lon="-0.11283">
        <ele>7.1</ele>
        <time>2020-06-17T11:58:12Z</time>
      </trkpt>
      <trkpt lat="49.29438" lon="-0.11283">
        <ele>7.1</ele>
        <time>2020-06-17T11:58:13Z</time>
      </trkpt>
      <trkpt lat="49.29438" lon="-0.11282">
        <ele>7.1</ele>
        <time>2020-06-17T11:58:14Z</time>
      </trkpt>
      <trkpt lat="49.29438" lon="-0.11282">
        <ele>7.1</ele>
        <time>2020-06-17T11:58:15Z</time>
      </trkpt>
      <trkpt lat="49.29438" lon="-0.11285">
        <ele>7.1</ele>
        <time>2020-06-17T11:58:16Z</time>
      </trkpt>
      <trkpt lat="49.29438" lon="-0.11286">
        <ele>7.1</ele>
        <time>2020-06-17T11:58:17Z</time>
      </trkpt>
      <trkpt lat="49.29438" lon="-0.11288">
        <ele>7.1</ele>
        <time>2020-06-17T11:58:18Z</time>
      </trkpt>
      <trkpt lat="49.29439" lon="-0.11289">
        <ele>7.1</ele>
        <time>2020-06-17T11:58:19Z</time>
      </trkpt>
      <trkpt lat="49.29439" lon="-0.1129">
        <ele>7.1</ele>
        <time>2020-06-17T11:58:20Z</time>
      </trkpt>
      <trkpt lat="49.29439" lon="-0.11291">
        <ele>7.1</ele>
        <time>2020-06-17T11:58:21Z</time>
      </trkpt>
      <trkpt lat="49.2944" lon="-0.11291">
        <ele>7.1</ele>
        <time>2020-06-17T11:58:22Z</time>
      </trkpt>
      <trkpt lat="49.2944" lon="-0.11291">
        <ele>7.1</ele>
        <time>2020-06-17T11:58:23Z</time>
      </trkpt>
      <trkpt lat="49.2944" lon="-0.11292">
        <ele>7.1</ele>
        <time>2020-06-17T11:58:24Z</time>
      </trkpt>
      <trkpt lat="49.2944" lon="-0.11293">
        <ele>7.1</ele>
        <time>2020-06-17T11:58:25Z</time>
      </trkpt>
      <trkpt lat="49.29453" lon="-0.11299">
        <ele>7.2</ele>
        <time>2020-06-17T11:59:35Z</time>
      </trkpt>
      <trkpt lat="49.29453" lon="-0.11298">
        <ele>7.2</ele>
        <time>2020-06-17T11:59:36Z</time>
      </trkpt>
      <trkpt lat="49.29453" lon="-0.11298">
        <ele>7.2</ele>
        <time>2020-06-17T11:59:37Z</time>
      </trkpt>
      <trkpt lat="49.29453" lon="-0.11298">
        <ele>7.2</ele>
        <time>2020-06-17T11:59:38Z</time>
      </trkpt>
      <trkpt lat="49.29453" lon="-0.11298">
        <ele>7.2</ele>
        <time>2020-06-17T11:59:39Z</time>
      </trkpt>
      <trkpt lat="49.29452" lon="-0.11299">
        <ele>7.2</ele>
        <time>2020-06-17T11:59:40Z</time>
      </trkpt>
      <trkpt lat="49.29452" lon="-0.11299">
        <ele>7.2</ele>
        <time>2020-06-17T11:59:41Z</time>
      </trkpt>
      <trkpt lat="49.29452" lon="-0.11298">
        <ele>7.2</ele>
        <time>2020-06-17T11:59:42Z</time>
      </trkpt>
      <trkpt lat="49.29452" lon="-0.11299">
        <ele>7.2</ele>
        <time>2020-06-17T11:59:43Z</time>
      </trkpt>
      <trkpt lat="49.29452" lon="-0.11299">
        <ele>7.2</ele>
        <time>2020-06-17T11:59:44Z</time>
      </trkpt>
      <trkpt lat="49.29451" lon="-0.11299">
        <ele>7.2</ele>
        <time>2020-06-17T11:59:45Z</time>
      </trkpt>
      <trkpt lat="49.29451" lon="-0.11299">
        <ele>7.2</ele>
        <time>2020-06-17T11:59:46Z</time>
      </trkpt>
      <trkpt lat="49.29458" lon="-0.11303">
        <ele>7.2</ele>
        <time>2020-06-17T12:00:05Z</time>
      </trkpt>
      <trkpt lat="49.29459" lon="-0.11304">
        <ele>7.2</ele>
        <time>2020-06-17T12:00:06Z</time>
      </trkpt>
      <trkpt lat="49.2946" lon="-0.11305">
        <ele>7.2</ele>
        <time>2020-06-17T12:00:07Z</time>
      </trkpt>
      <trkpt lat="49.29461" lon="-0.11306">
        <ele>7.2</ele>
        <time>2020-06-17T12:00:08Z</time>
      </trkpt>
      <trkpt lat="49.29462" lon="-0.11306">
        <ele>7.2</ele>
        <time>2020-06-17T12:00:09Z</time>
      </trkpt>
      <trkpt lat="49.29464" lon="-0.11305">
        <ele>7.2</ele>
        <time>2020-06-17T12:00:10Z</time>
      </trkpt>
      <trkpt lat="49.29466" lon="-0.11305">
        <ele>7.2</ele>
        <time>2020-06-17T12:00:11Z</time>
      </trkpt>
      <trkpt lat="49.29468" lon="-0.11304">
        <ele>7.2</ele>
        <time>2020-06-17T12:00:12Z</time>
      </trkpt>
      <trkpt lat="49.29469" lon="-0.11304">
        <ele>7.2</ele>
        <time>2020-06-17T12:00:13Z</time>
      </trkpt>
      <trkpt lat="49.29471" lon="-0.11303">
        <ele>7.2</ele>
        <time>2020-06-17T12:00:14Z</time>
      </trkpt>
      <trkpt lat="49.29473" lon="-0.11302">
        <ele>7.2</ele>
        <time>2020-06-17T12:00:15Z</time>
      </trkpt>
      <trkpt lat="49.29475" lon="-0.11302">
        <ele>7.2</ele>
        <time>2020-06-17T12:00:16Z</time>
      </trkpt>
      <trkpt lat="49.29477" lon="-0.11301">
        <ele>7.2</ele>
        <time>2020-06-17T12:00:17Z</time>
      </trkpt>
      <trkpt lat="49.29478" lon="-0.113">
        <ele>7.2</ele>
        <time>2020-06-17T12:00:18Z</time>
      </trkpt>
      <trkpt lat="49.2948" lon="-0.113">
        <ele>7.2</ele>
        <time>2020-06-17T12:00:19Z</time>
      </trkpt>
      <trkpt lat="49.29482" lon="-0.11299">
        <ele>7.2</ele>
        <time>2020-06-17T12:00:20Z</time>
      </trkpt>
      <trkpt lat="49.29484" lon="-0.11298">
        <ele>7.2</ele>
        <time>2020-06-17T12:01:53Z</time>
      </trkpt>
      <trkpt lat="49.29486" lon="-0.11298">
        <ele>7.2</ele>
        <time>2020-06-17T12:01:54Z</time>
      </trkpt>
      <trkpt lat="49.29487" lon="-0.11297">
        <ele>7.2</ele>
        <time>2020-06-17T12:01:55Z</time>
      </trkpt>
      <trkpt lat="49.29489" lon="-0.11297">
        <ele>7.2</ele>
        <time>2020-06-17T12:01:56Z</time>
      </trkpt>
      <trkpt lat="49.29491" lon="-0.11296">
        <ele>7.2</ele>
        <time>2020-06-17T12:01:57Z</time>
      </trkpt>
      <trkpt lat="49.29493" lon="-0.11295">
        <ele>7.2</ele>
        <time>2020-06-17T12:01:58Z</time>
      </trkpt>
      <trkpt lat="49.29495" lon="-0.11292">
        <ele>7.2</ele>
        <time>2020-06-17T12:01:59Z</time>
      </trkpt>
      <trkpt lat="49.29496" lon="-0.11291">
        <ele>7.2</ele>
        <time>2020-06-17T12:02:00Z</time>
      </trkpt>
      <trkpt lat="49.29498" lon="-0.11289">
        <ele>7.2</ele>
        <time>2020-06-17T12:02:01Z</time>
      </trkpt>
      <trkpt lat="49.29498" lon="-0.11288">
        <ele>7.2</ele>
        <time>2020-06-17T12:02:02Z</time>
      </trkpt>
      <trkpt lat="49.29499" lon="-0.11287">
        <ele>7.2</ele>
        <time>2020-06-17T12:02:03Z</time>
      </trkpt>
      <trkpt lat="49.29501" lon="-0.11284">
        <ele>7.2</ele>
        <time>2020-06-17T12:02:04Z</time>
      </trkpt>
      <trkpt lat="49.29502" lon="-0.11283">
        <ele>7.2</ele>
        <time>2020-06-17T12:02:05Z</time>
      </trkpt>
      <trkpt lat="49.29503" lon="-0.11281">
        <ele>7.2</ele>
        <time>2020-06-17T12:02:06Z</time>
      </trkpt>
      <trkpt lat="49.29504" lon="-0.11279">
        <ele>7.2</ele>
        <time>2020-06-17T12:02:07Z</time>
      </trkpt>
      <trkpt lat="49.29505" lon="-0.11277">
        <ele>7.2</ele>
        <time>2020-06-17T12:02:08Z</time>
      </trkpt>
      <trkpt lat="49.29506" lon="-0.11275">
        <ele>7.2</ele>
        <time>2020-06-17T12:02:09Z</time>
      </trkpt>
      <trkpt lat="49.29507" lon="-0.11273">
        <ele>7.3</ele>
        <time>2020-06-17T12:02:10Z</time>
      </trkpt>
      <trkpt lat="49.29507" lon="-0.11272">
        <ele>7.3</ele>
        <time>2020-06-17T12:02:11Z</time>
      </trkpt>
      <trkpt lat="49.29508" lon="-0.1127">
        <ele>7.3</ele>
        <time>2020-06-17T12:02:12Z</time>
      </trkpt>
      <trkpt lat="49.29509" lon="-0.11269">
        <ele>7.3</ele>
        <time>2020-06-17T12:02:13Z</time>
      </trkpt>
      <trkpt lat="49.29511" lon="-0.11267">
        <ele>7.3</ele>
        <time>2020-06-17T12:02:14Z</time>
      </trkpt>
      <trkpt lat="49.29513" lon="-0.11265">
        <ele>7.3</ele>
        <time>2020-06-17T12:02:15Z</time>
      </trkpt>
      <trkpt lat="49.29514" lon="-0.11265">
        <ele>7.3</ele>
        <time>2020-06-17T12:02:16Z</time>
      </trkpt>
      <trkpt lat="49.29513" lon="-0.11266">
        <ele>7.3</ele>
        <time>2020-06-17T12:02:17Z</time>
      </trkpt>
      <trkpt lat="49.29511" lon="-0.11268">
        <ele>7.3</ele>
        <time>2020-06-17T12:02:18Z</time>
      </trkpt>
      <trkpt lat="49.29511" lon="-0.11269">
        <ele>7.3</ele>
        <time>2020-06-17T12:02:19Z</time>
      </trkpt>
      <trkpt lat="49.29511" lon="-0.1127">
        <ele>7.3</ele>
        <time>2020-06-17T12:02:20Z</time>
      </trkpt>
      <trkpt lat="49.2951" lon="-0.1127">
        <ele>7.3</ele>
        <time>2020-06-17T12:02:21Z</time>
      </trkpt>
      <trkpt lat="49.2951" lon="-0.11271">
        <ele>7.3</ele>
        <time>2020-06-17T12:02:22Z</time>
      </trkpt>
      <trkpt lat="49.2951" lon="-0.11272">
        <ele>7.3</ele>
        <time>2020-06-17T12:02:23Z</time>
      </trkpt>
      <trkpt lat="49.2951" lon="-0.11272">
        <ele>7.3</ele>
        <time>2020-06-17T12:02:24Z</time>
      </trkpt>
      <trkpt lat="49.2951" lon="-0.11273">
        <ele>7.3</ele>
        <time>2020-06-17T12:02:25Z</time>
      </trkpt>
      <trkpt lat="49.29509" lon="-0.11274">
        <ele>7.3</ele>
        <time>2020-06-17T12:02:26Z</time>
      </trkpt>
      <trkpt lat="49.29509" lon="-0.11275">
        <ele>7.3</ele>
        <time>2020-06-17T12:02:27Z</time>
      </trkpt>
      <trkpt lat="49.29508" lon="-0.11275">
        <ele>7.3</ele>
        <time>2020-06-17T12:02:28Z</time>
      </trkpt>
      <trkpt lat="49.29508" lon="-0.11276">
        <ele>7.3</ele>
        <time>2020-06-17T12:02:29Z</time>
      </trkpt>
      <trkpt lat="49.29507" lon="-0.11278">
        <ele>7.3</ele>
        <time>2020-06-17T12:02:30Z</time>
      </trkpt>
      <trkpt lat="49.29506" lon="-0.11279">
        <ele>7.3</ele>
        <time>2020-06-17T12:02:31Z</time>
      </trkpt>
      <trkpt lat="49.29506" lon="-0.11282">
        <ele>7.2</ele>
        <time>2020-06-17T12:02:32Z</time>
      </trkpt>
      <trkpt lat="49.29505" lon="-0.11283">
        <ele>7.2</ele>
        <time>2020-06-17T12:02:33Z</time>
      </trkpt>
      <trkpt lat="49.29503" lon="-0.11285">
        <ele>7.2</ele>
        <time>2020-06-17T12:02:34Z</time>
      </trkpt>
      <trkpt lat="49.29485" lon="-0.11311">
        <ele>7</ele>
        <time>2020-06-17T12:03:27Z</time>
      </trkpt>
      <trkpt lat="49.29486" lon="-0.11311">
        <ele>7</ele>
        <time>2020-06-17T12:03:28Z</time>
      </trkpt>
      <trkpt lat="49.29484" lon="-0.1131">
        <ele>7</ele>
        <time>2020-06-17T12:03:29Z</time>
      </trkpt>
      <trkpt lat="49.29485" lon="-0.1131">
        <ele>7</ele>
        <time>2020-06-17T12:03:30Z</time>
      </trkpt>
      <trkpt lat="49.29486" lon="-0.1131">
        <ele>7</ele>
        <time>2020-06-17T12:03:31Z</time>
      </trkpt>
      <trkpt lat="49.29486" lon="-0.1131">
        <ele>7</ele>
        <time>2020-06-17T12:03:32Z</time>
      </trkpt>
      <trkpt lat="49.29487" lon="-0.1131">
        <ele>7</ele>
        <time>2020-06-17T12:03:33Z</time>
      </trkpt>
      <trkpt lat="49.29487" lon="-0.1131">
        <ele>7</ele>
        <time>2020-06-17T12:03:34Z</time>
      </trkpt>
      <trkpt lat="49.29488" lon="-0.11309">
        <ele>7</ele>
        <time>2020-06-17T12:03:35Z</time>
      </trkpt>
      <trkpt lat="49.29488" lon="-0.11309">
        <ele>7</ele>
        <time>2020-06-17T12:03:36Z</time>
      </trkpt>
      <trkpt lat="49.29488" lon="-0.11309">
        <ele>7</ele>
        <time>2020-06-17T12:03:37Z</time>
      </trkpt>
      <trkpt lat="49.29488" lon="-0.11309">
        <ele>7</ele>
        <time>2020-06-17T12:03:38Z</time>
      </trkpt>
      <trkpt lat="49.29488" lon="-0.11308">
        <ele>7</ele>
        <time>2020-06-17T12:03:39Z</time>
      </trkpt>
      <trkpt lat="49.29488" lon="-0.11308">
        <ele>7</ele>
        <time>2020-06-17T12:03:40Z</time>
      </trkpt>
      <trkpt lat="49.29488" lon="-0.11308">
        <ele>7</ele>
        <time>2020-06-17T12:03:41Z</time>
      </trkpt>
      <trkpt lat="49.29488" lon="-0.11308">
        <ele>7</ele>
        <time>2020-06-17T12:03:42Z</time>
      </trkpt>
      <trkpt lat="49.29488" lon="-0.11308">
        <ele>7</ele>
        <time>2020-06-17T12:03:43Z</time>
      </trkpt>
      <trkpt lat="49.29488" lon="-0.11307">
        <ele>7</ele>
        <time>2020-06-17T12:03:44Z</time>
      </trkpt>
      <trkpt lat="49.29488" lon="-0.11307">
        <ele>7</ele>
        <time>2020-06-17T12:03:45Z</time>
      </trkpt>
      <trkpt lat="49.29488" lon="-0.11307">
        <ele>7</ele>
        <time>2020-06-17T12:03:46Z</time>
      </trkpt>
      <trkpt lat="49.29488" lon="-0.11306">
        <ele>7</ele>
        <time>2020-06-17T12:03:47Z</time>
      </trkpt>
      <trkpt lat="49.29488" lon="-0.11306">
        <ele>7</ele>
        <time>2020-06-17T12:03:48Z</time>
      </trkpt>
      <trkpt lat="49.29481" lon="-0.11297">
        <ele>7</ele>
        <time>2020-06-17T12:04:39Z</time>
      </trkpt>
      <trkpt lat="49.29482" lon="-0.11295">
        <ele>7</ele>
        <time>2020-06-17T12:04:40Z</time>
      </trkpt>
      <trkpt lat="49.29482" lon="-0.11292">
        <ele>7</ele>
        <time>2020-06-17T12:04:41Z</time>
      </trkpt>
      <trkpt lat="49.29482" lon="-0.1129">
        <ele>7</ele>
        <time>2020-06-17T12:04:42Z</time>
      </trkpt>
      <trkpt lat="49.29482" lon="-0.11289">
        <ele>7</ele>
        <time>2020-06-17T12:04:43Z</time>
      </trkpt>
      <trkpt lat="49.29482" lon="-0.11286">
        <ele>7</ele>
        <time>2020-06-17T12:04:44Z</time>
      </trkpt>
      <trkpt lat="49.29482" lon="-0.11285">
        <ele>7</ele>
        <time>2020-06-17T12:04:45Z</time>
      </trkpt>
      <trkpt lat="49.29482" lon="-0.11283">
        <ele>7</ele>
        <time>2020-06-17T12:04:46Z</time>
      </trkpt>
      <trkpt lat="49.29481" lon="-0.11282">
        <ele>7</ele>
        <time>2020-06-17T12:04:47Z</time>
      </trkpt>
      <trkpt lat="49.29482" lon="-0.1128">
        <ele>7</ele>
        <time>2020-06-17T12:04:48Z</time>
      </trkpt>
      <trkpt lat="49.29481" lon="-0.11279">
        <ele>7</ele>
        <time>2020-06-17T12:04:49Z</time>
      </trkpt>
      <trkpt lat="49.29481" lon="-0.11276">
        <ele>7</ele>
        <time>2020-06-17T12:04:50Z</time>
      </trkpt>
      <trkpt lat="49.29481" lon="-0.11274">
        <ele>7</ele>
        <time>2020-06-17T12:04:51Z</time>
      </trkpt>
      <trkpt lat="49.29481" lon="-0.11273">
        <ele>7</ele>
        <time>2020-06-17T12:04:52Z</time>
      </trkpt>
      <trkpt lat="49.29481" lon="-0.11273">
        <ele>7</ele>
        <time>2020-06-17T12:04:53Z</time>
      </trkpt>
      <trkpt lat="49.29481" lon="-0.11275">
        <ele>7</ele>
        <time>2020-06-17T12:04:54Z</time>
      </trkpt>
      <trkpt lat="49.2948" lon="-0.11275">
        <ele>7</ele>
        <time>2020-06-17T12:04:55Z</time>
      </trkpt>
      <trkpt lat="49.29479" lon="-0.11276">
        <ele>7</ele>
        <time>2020-06-17T12:04:56Z</time>
      </trkpt>
      <trkpt lat="49.29478" lon="-0.11277">
        <ele>7</ele>
        <time>2020-06-17T12:04:57Z</time>
      </trkpt>
      <trkpt lat="49.29477" lon="-0.11279">
        <ele>7</ele>
        <time>2020-06-17T12:04:58Z</time>
      </trkpt>
      <trkpt lat="49.29477" lon="-0.11282">
        <ele>7</ele>
        <time>2020-06-17T12:04:59Z</time>
      </trkpt>
      <trkpt lat="49.29476" lon="-0.11285">
        <ele>7</ele>
        <time>2020-06-17T12:05:00Z</time>
      </trkpt>
      <trkpt lat="49.29476" lon="-0.11287">
        <ele>7</ele>
        <time>2020-06-17T12:05:01Z</time>
      </trkpt>
      <trkpt lat="49.29476" lon="-0.11289">
        <ele>7</ele>
        <time>2020-06-17T12:05:02Z</time>
      </trkpt>
      <trkpt lat="49.29476" lon="-0.1129">
        <ele>7</ele>
        <time>2020-06-17T12:05:03Z</time>
      </trkpt>
      <trkpt lat="49.29476" lon="-0.11292">
        <ele>7</ele>
        <time>2020-06-17T12:05:04Z</time>
      </trkpt>
      <trkpt lat="49.29475" lon="-0.11293">
        <ele>7</ele>
        <time>2020-06-17T12:05:05Z</time>
      </trkpt>
      <trkpt lat="49.29475" lon="-0.11295">
        <ele>7</ele>
        <time>2020-06-17T12:05:06Z</time>
      </trkpt>
      <trkpt lat="49.29475" lon="-0.11295">
        <ele>7</ele>
        <time>2020-06-17T12:05:07Z</time>
      </trkpt>
      <trkpt lat="49.29475" lon="-0.11295">
        <ele>7</ele>
        <time>2020-06-17T12:05:08Z</time>
      </trkpt>
      <trkpt lat="49.29475" lon="-0.11295">
        <ele>7</ele>
        <time>2020-06-17T12:05:09Z</time>
      </trkpt>
      <trkpt lat="49.29476" lon="-0.11296">
        <ele>7</ele>
        <time>2020-06-17T12:05:10Z</time>
      </trkpt>
      <trkpt lat="49.29476" lon="-0.11297">
        <ele>7</ele>
        <time>2020-06-17T12:05:11Z</time>
      </trkpt>
      <trkpt lat="49.29477" lon="-0.11297">
        <ele>7</ele>
        <time>2020-06-17T12:05:12Z</time>
      </trkpt>
      <trkpt lat="49.29477" lon="-0.11297">
        <ele>7</ele>
        <time>2020-06-17T12:05:13Z</time>
      </trkpt>
      <trkpt lat="49.29477" lon="-0.11297">
        <ele>7</ele>
        <time>2020-06-17T12:05:14Z</time>
      </trkpt>
      <trkpt lat="49.29476" lon="-0.11298">
        <ele>7</ele>
        <time>2020-06-17T12:05:15Z</time>
      </trkpt>
      <trkpt lat="49.29477" lon="-0.11296">
        <ele>7</ele>
        <time>2020-06-17T12:08:05Z</time>
      </trkpt>
      <trkpt lat="49.29478" lon="-0.11295">
        <ele>7</ele>
        <time>2020-06-17T12:08:06Z</time>
      </trkpt>
      <trkpt lat="49.29478" lon="-0.11296">
        <ele>7</ele>
        <time>2020-06-17T12:08:07Z</time>
      </trkpt>
      <trkpt lat="49.29478" lon="-0.11296">
        <ele>7</ele>
        <time>2020-06-17T12:08:08Z</time>
      </trkpt>
      <trkpt lat="49.29479" lon="-0.11297">
        <ele>7</ele>
        <time>2020-06-17T12:08:09Z</time>
      </trkpt>
      <trkpt lat="49.29479" lon="-0.11297">
        <ele>7</ele>
        <time>2020-06-17T12:08:10Z</time>
      </trkpt>
      <trkpt lat="49.29479" lon="-0.11298">
        <ele>7</ele>
        <time>2020-06-17T12:08:11Z</time>
      </trkpt>
      <trkpt lat="49.2948" lon="-0.11298">
        <ele>7</ele>
        <time>2020-06-17T12:08:12Z</time>
      </trkpt>
      <trkpt lat="49.2948" lon="-0.11298">
        <ele>7</ele>
        <time>2020-06-17T12:08:13Z</time>
      </trkpt>
      <trkpt lat="49.29481" lon="-0.11298">
        <ele>7</ele>
        <time>2020-06-17T12:08:14Z</time>
      </trkpt>
      <trkpt lat="49.29481" lon="-0.11299">
        <ele>7</ele>
        <time>2020-06-17T12:08:15Z</time>
      </trkpt>
      <trkpt lat="49.2948" lon="-0.11299">
        <ele>7</ele>
        <time>2020-06-17T12:08:16Z</time>
      </trkpt>
      <trkpt lat="49.2948" lon="-0.11298">
        <ele>7</ele>
        <time>2020-06-17T12:08:17Z</time>
      </trkpt>
      <trkpt lat="49.2948" lon="-0.11297">
        <ele>7</ele>
        <time>2020-06-17T12:08:18Z</time>
      </trkpt>
      <trkpt lat="49.2948" lon="-0.11297">
        <ele>7</ele>
        <time>2020-06-17T12:08:19Z</time>
      </trkpt>
      <trkpt lat="49.2948" lon="-0.11297">
        <ele>7</ele>
        <time>2020-06-17T12:08:20Z</time>
      </trkpt>
      <trkpt lat="49.29479" lon="-0.11303">
        <ele>7</ele>
        <time>2020-06-17T12:09:03Z</time>
      </trkpt>
      <trkpt lat="49.29479" lon="-0.11303">
        <ele>7</ele>
        <time>2020-06-17T12:09:04Z</time>
      </trkpt>
      <trkpt lat="49.2948" lon="-0.11303">
        <ele>7</ele>
        <time>2020-06-17T12:09:05Z</time>
      </trkpt>
      <trkpt lat="49.2948" lon="-0.11304">
        <ele>7</ele>
        <time>2020-06-17T12:09:06Z</time>
      </trkpt>
      <trkpt lat="49.2948" lon="-0.11304">
        <ele>7</ele>
        <time>2020-06-17T12:09:07Z</time>
      </trkpt>
      <trkpt lat="49.2948" lon="-0.11305">
        <ele>7</ele>
        <time>2020-06-17T12:09:08Z</time>
      </trkpt>
      <trkpt lat="49.2948" lon="-0.11305">
        <ele>7</ele>
        <time>2020-06-17T12:09:09Z</time>
      </trkpt>
      <trkpt lat="49.2948" lon="-0.11305">
        <ele>7</ele>
        <time>2020-06-17T12:09:10Z</time>
      </trkpt>
      <trkpt lat="49.2948" lon="-0.11305">
        <ele>7</ele>
        <time>2020-06-17T12:09:11Z</time>
      </trkpt>
      <trkpt lat="49.2948" lon="-0.11305">
        <ele>7</ele>
        <time>2020-06-17T12:09:12Z</time>
      </trkpt>
      <trkpt lat="49.29479" lon="-0.11304">
        <ele>7</ele>
        <time>2020-06-17T12:09:13Z</time>
      </trkpt>
      <trkpt lat="49.29479" lon="-0.11305">
        <ele>7</ele>
        <time>2020-06-17T12:09:14Z</time>
      </trkpt>
      <trkpt lat="49.29478" lon="-0.11305">
        <ele>7</ele>
        <time>2020-06-17T12:09:15Z</time>
      </trkpt>
      <trkpt lat="49.29478" lon="-0.11305">
        <ele>7</ele>
        <time>2020-06-17T12:09:16Z</time>
      </trkpt>
      <trkpt lat="49.29477" lon="-0.11305">
        <ele>7</ele>
        <time>2020-06-17T12:09:17Z</time>
      </trkpt>
      <trkpt lat="49.29477" lon="-0.11306">
        <ele>7</ele>
        <time>2020-06-17T12:09:18Z</time>
      </trkpt>
      <trkpt lat="49.29476" lon="-0.11306">
        <ele>7</ele>
        <time>2020-06-17T12:09:19Z</time>
      </trkpt>
      <trkpt lat="49.29476" lon="-0.11306">
        <ele>7</ele>
        <time>2020-06-17T12:09:20Z</time>
      </trkpt>
      <trkpt lat="49.29475" lon="-0.11306">
        <ele>7</ele>
        <time>2020-06-17T12:09:21Z</time>
      </trkpt>
      <trkpt lat="49.29475" lon="-0.11306">
        <ele>7</ele>
        <time>2020-06-17T12:09:22Z</time>
      </trkpt>
      <trkpt lat="49.29475" lon="-0.11306">
        <ele>7</ele>
        <time>2020-06-17T12:09:23Z</time>
      </trkpt>
      <trkpt lat="49.29475" lon="-0.11306">
        <ele>7</ele>
        <time>2020-06-17T12:09:24Z</time>
      </trkpt>
      <trkpt lat="49.29475" lon="-0.11306">
        <ele>7</ele>
        <time>2020-06-17T12:09:25Z</time>
      </trkpt>
      <trkpt lat="49.29474" lon="-0.11306">
        <ele>7</ele>
        <time>2020-06-17T12:09:26Z</time>
      </trkpt>
      <trkpt lat="49.29474" lon="-0.11306">
        <ele>7</ele>
        <time>2020-06-17T12:09:27Z</time>
      </trkpt>
      <trkpt lat="49.29474" lon="-0.11305">
        <ele>7</ele>
        <time>2020-06-17T12:09:28Z</time>
      </trkpt>
      <trkpt lat="49.29474" lon="-0.11305">
        <ele>7</ele>
        <time>2020-06-17T12:09:29Z</time>
      </trkpt>
      <trkpt lat="49.29474" lon="-0.11305">
        <ele>7</ele>
        <time>2020-06-17T12:09:30Z</time>
      </trkpt>
      <trkpt lat="49.29474" lon="-0.11304">
        <ele>7</ele>
        <time>2020-06-17T12:09:31Z</time>
      </trkpt>
      <trkpt lat="49.29473" lon="-0.11304">
        <ele>7</ele>
        <time>2020-06-17T12:09:32Z</time>
      </trkpt>
      <trkpt lat="49.29473" lon="-0.11304">
        <ele>7</ele>
        <time>2020-06-17T12:09:33Z</time>
      </trkpt>
      <trkpt lat="49.29473" lon="-0.11304">
        <ele>7</ele>
        <time>2020-06-17T12:09:34Z</time>
      </trkpt>
      <trkpt lat="49.29473" lon="-0.11304">
        <ele>7</ele>
        <time>2020-06-17T12:09:35Z</time>
      </trkpt>
      <trkpt lat="49.29473" lon="-0.11304">
        <ele>7</ele>
        <time>2020-06-17T12:09:36Z</time>
      </trkpt>
      <trkpt lat="49.29473" lon="-0.11304">
        <ele>7</ele>
        <time>2020-06-17T12:09:37Z</time>
      </trkpt>
      <trkpt lat="49.29473" lon="-0.11303">
        <ele>7</ele>
        <time>2020-06-17T12:09:38Z</time>
      </trkpt>
      <trkpt lat="49.29472" lon="-0.11304">
        <ele>7</ele>
        <time>2020-06-17T12:09:39Z</time>
      </trkpt>
      <trkpt lat="49.29472" lon="-0.11303">
        <ele>7</ele>
        <time>2020-06-17T12:09:40Z</time>
      </trkpt>
      <trkpt lat="49.29472" lon="-0.11303">
        <ele>7</ele>
        <time>2020-06-17T12:09:41Z</time>
      </trkpt>
      <trkpt lat="49.29471" lon="-0.11303">
        <ele>7</ele>
        <time>2020-06-17T12:09:42Z</time>
      </trkpt>
      <trkpt lat="49.29471" lon="-0.11302">
        <ele>7</ele>
        <time>2020-06-17T12:09:43Z</time>
      </trkpt>
      <trkpt lat="49.29471" lon="-0.11302">
        <ele>7</ele>
        <time>2020-06-17T12:09:44Z</time>
      </trkpt>
      <trkpt lat="49.29471" lon="-0.11301">
        <ele>7</ele>
        <time>2020-06-17T12:09:45Z</time>
      </trkpt>
      <trkpt lat="49.2947" lon="-0.11301">
        <ele>7</ele>
        <time>2020-06-17T12:09:46Z</time>
      </trkpt>
      <trkpt lat="49.2947" lon="-0.11301">
        <ele>7</ele>
        <time>2020-06-17T12:09:47Z</time>
      </trkpt>
      <trkpt lat="49.29469" lon="-0.11302">
        <ele>7</ele>
        <time>2020-06-17T12:09:48Z</time>
      </trkpt>
      <trkpt lat="49.29471" lon="-0.11296">
        <ele>7</ele>
        <time>2020-06-17T12:10:17Z</time>
      </trkpt>
      <trkpt lat="49.29472" lon="-0.11295">
        <ele>7</ele>
        <time>2020-06-17T12:10:18Z</time>
      </trkpt>
      <trkpt lat="49.29472" lon="-0.11295">
        <ele>7</ele>
        <time>2020-06-17T12:10:19Z</time>
      </trkpt>
      <trkpt lat="49.29473" lon="-0.11294">
        <ele>7</ele>
        <time>2020-06-17T12:10:20Z</time>
      </trkpt>
      <trkpt lat="49.29473" lon="-0.11293">
        <ele>7</ele>
        <time>2020-06-17T12:10:21Z</time>
      </trkpt>
      <trkpt lat="49.29474" lon="-0.11292">
        <ele>7</ele>
        <time>2020-06-17T12:10:22Z</time>
      </trkpt>
      <trkpt lat="49.29474" lon="-0.11292">
        <ele>7</ele>
        <time>2020-06-17T12:10:23Z</time>
      </trkpt>
      <trkpt lat="49.29473" lon="-0.11291">
        <ele>7</ele>
        <time>2020-06-17T12:10:24Z</time>
      </trkpt>
      <trkpt lat="49.29473" lon="-0.11292">
        <ele>7</ele>
        <time>2020-06-17T12:10:25Z</time>
      </trkpt>
      <trkpt lat="49.29473" lon="-0.11292">
        <ele>7</ele>
        <time>2020-06-17T12:10:26Z</time>
      </trkpt>
      <trkpt lat="49.29472" lon="-0.11293">
        <ele>7</ele>
        <time>2020-06-17T12:10:27Z</time>
      </trkpt>
      <trkpt lat="49.29473" lon="-0.11293">
        <ele>7</ele>
        <time>2020-06-17T12:10:28Z</time>
      </trkpt>
      <trkpt lat="49.29473" lon="-0.11294">
        <ele>7</ele>
        <time>2020-06-17T12:10:29Z</time>
      </trkpt>
      <trkpt lat="49.29472" lon="-0.11295">
        <ele>7.1</ele>
        <time>2020-06-17T12:10:30Z</time>
      </trkpt>
      <trkpt lat="49.29473" lon="-0.11295">
        <ele>7.1</ele>
        <time>2020-06-17T12:10:31Z</time>
      </trkpt>
      <trkpt lat="49.29473" lon="-0.11295">
        <ele>7.1</ele>
        <time>2020-06-17T12:10:32Z</time>
      </trkpt>
      <trkpt lat="49.29473" lon="-0.11295">
        <ele>7.1</ele>
        <time>2020-06-17T12:10:33Z</time>
      </trkpt>
      <trkpt lat="49.29463" lon="-0.11303">
        <ele>6.9</ele>
        <time>2020-06-17T12:12:27Z</time>
      </trkpt>
      <trkpt lat="49.29464" lon="-0.11303">
        <ele>6.9</ele>
        <time>2020-06-17T12:12:28Z</time>
      </trkpt>
      <trkpt lat="49.29464" lon="-0.11303">
        <ele>6.9</ele>
        <time>2020-06-17T12:12:29Z</time>
      </trkpt>
      <trkpt lat="49.29464" lon="-0.11303">
        <ele>6.9</ele>
        <time>2020-06-17T12:12:30Z</time>
      </trkpt>
      <trkpt lat="49.29464" lon="-0.11303">
        <ele>6.9</ele>
        <time>2020-06-17T12:12:31Z</time>
      </trkpt>
      <trkpt lat="49.29465" lon="-0.11302">
        <ele>7</ele>
        <time>2020-06-17T12:12:32Z</time>
      </trkpt>
      <trkpt lat="49.29466" lon="-0.11301">
        <ele>7</ele>
        <time>2020-06-17T12:12:33Z</time>
      </trkpt>
      <trkpt lat="49.29466" lon="-0.113">
        <ele>7</ele>
        <time>2020-06-17T12:12:34Z</time>
      </trkpt>
      <trkpt lat="49.29466" lon="-0.11299">
        <ele>7</ele>
        <time>2020-06-17T12:12:35Z</time>
      </trkpt>
      <trkpt lat="49.29467" lon="-0.11297">
        <ele>7</ele>
        <time>2020-06-17T12:12:36Z</time>
      </trkpt>
      <trkpt lat="49.29468" lon="-0.11295">
        <ele>7</ele>
        <time>2020-06-17T12:12:37Z</time>
      </trkpt>
      <trkpt lat="49.29468" lon="-0.11295">
        <ele>7</ele>
        <time>2020-06-17T12:12:38Z</time>
      </trkpt>
      <trkpt lat="49.29469" lon="-0.11294">
        <ele>7</ele>
        <time>2020-06-17T12:12:39Z</time>
      </trkpt>
      <trkpt lat="49.29471" lon="-0.11292">
        <ele>7.1</ele>
        <time>2020-06-17T12:12:40Z</time>
      </trkpt>
      <trkpt lat="49.29471" lon="-0.1129">
        <ele>7.1</ele>
        <time>2020-06-17T12:12:41Z</time>
      </trkpt>
      <trkpt lat="49.29472" lon="-0.11288">
        <ele>7.1</ele>
        <time>2020-06-17T12:12:42Z</time>
      </trkpt>
      <trkpt lat="49.29473" lon="-0.11286">
        <ele>7.1</ele>
        <time>2020-06-17T12:12:43Z</time>
      </trkpt>
      <trkpt lat="49.29474" lon="-0.11284">
        <ele>7.1</ele>
        <time>2020-06-17T12:12:44Z</time>
      </trkpt>
      <trkpt lat="49.29475" lon="-0.11282">
        <ele>7.2</ele>
        <time>2020-06-17T12:12:45Z</time>
      </trkpt>
      <trkpt lat="49.29475" lon="-0.11281">
        <ele>7.2</ele>
        <time>2020-06-17T12:12:46Z</time>
      </trkpt>
      <trkpt lat="49.29475" lon="-0.11281">
        <ele>7.2</ele>
        <time>2020-06-17T12:12:47Z</time>
      </trkpt>
      <trkpt lat="49.29475" lon="-0.11282">
        <ele>7.2</ele>
        <time>2020-06-17T12:12:48Z</time>
      </trkpt>
      <trkpt lat="49.29475" lon="-0.11282">
        <ele>7.2</ele>
        <time>2020-06-17T12:12:49Z</time>
      </trkpt>
      <trkpt lat="49.29475" lon="-0.11282">
        <ele>7.2</ele>
        <time>2020-06-17T12:12:50Z</time>
      </trkpt>
      <trkpt lat="49.29475" lon="-0.11282">
        <ele>7.2</ele>
        <time>2020-06-17T12:12:51Z</time>
      </trkpt>
      <trkpt lat="49.29476" lon="-0.11282">
        <ele>7.2</ele>
        <time>2020-06-17T12:12:52Z</time>
      </trkpt>
      <trkpt lat="49.29476" lon="-0.11282">
        <ele>7.2</ele>
        <time>2020-06-17T12:12:53Z</time>
      </trkpt>
      <trkpt lat="49.29476" lon="-0.11281">
        <ele>7.2</ele>
        <time>2020-06-17T12:12:54Z</time>
      </trkpt>
      <trkpt lat="49.29476" lon="-0.1128">
        <ele>7.2</ele>
        <time>2020-06-17T12:12:55Z</time>
      </trkpt>
      <trkpt lat="49.29477" lon="-0.11281">
        <ele>7.2</ele>
        <time>2020-06-17T12:12:56Z</time>
      </trkpt>
      <trkpt lat="49.29477" lon="-0.11281">
        <ele>7.2</ele>
        <time>2020-06-17T12:12:57Z</time>
      </trkpt>
      <trkpt lat="49.29477" lon="-0.11281">
        <ele>7.2</ele>
        <time>2020-06-17T12:12:58Z</time>
      </trkpt>
      <trkpt lat="49.29478" lon="-0.1128">
        <ele>7.2</ele>
        <time>2020-06-17T12:12:59Z</time>
      </trkpt>
      <trkpt lat="49.29478" lon="-0.11279">
        <ele>7.2</ele>
        <time>2020-06-17T12:13:00Z</time>
      </trkpt>
      <trkpt lat="49.29478" lon="-0.11278">
        <ele>7.2</ele>
        <time>2020-06-17T12:13:01Z</time>
      </trkpt>
      <trkpt lat="49.29478" lon="-0.11278">
        <ele>7.2</ele>
        <time>2020-06-17T12:13:02Z</time>
      </trkpt>
      <trkpt lat="49.29478" lon="-0.11278">
        <ele>7.2</ele>
        <time>2020-06-17T12:13:03Z</time>
      </trkpt>
      <trkpt lat="49.29478" lon="-0.11277">
        <ele>7.2</ele>
        <time>2020-06-17T12:13:04Z</time>
      </trkpt>
      <trkpt lat="49.29477" lon="-0.11275">
        <ele>7.2</ele>
        <time>2020-06-17T12:13:05Z</time>
      </trkpt>
      <trkpt lat="49.29478" lon="-0.11273">
        <ele>7.2</ele>
        <time>2020-06-17T12:13:06Z</time>
      </trkpt>
      <trkpt lat="49.29478" lon="-0.1127">
        <ele>7.2</ele>
        <time>2020-06-17T12:13:07Z</time>
      </trkpt>
      <trkpt lat="49.2948" lon="-0.11266">
        <ele>7.3</ele>
        <time>2020-06-17T12:13:08Z</time>
      </trkpt>
      <trkpt lat="49.2948" lon="-0.11264">
        <ele>7.3</ele>
        <time>2020-06-17T12:13:09Z</time>
      </trkpt>
      <trkpt lat="49.29482" lon="-0.11258">
        <ele>7.3</ele>
        <time>2020-06-17T12:13:10Z</time>
      </trkpt>
      <trkpt lat="49.29482" lon="-0.11256">
        <ele>7.3</ele>
        <time>2020-06-17T12:13:11Z</time>
      </trkpt>
      <trkpt lat="49.29483" lon="-0.11252">
        <ele>7.3</ele>
        <time>2020-06-17T12:13:12Z</time>
      </trkpt>
      <trkpt lat="49.29484" lon="-0.11248">
        <ele>7.3</ele>
        <time>2020-06-17T12:13:13Z</time>
      </trkpt>
      <trkpt lat="49.29484" lon="-0.11243">
        <ele>7.4</ele>
        <time>2020-06-17T12:13:14Z</time>
      </trkpt>
      <trkpt lat="49.29485" lon="-0.11239">
        <ele>7.4</ele>
        <time>2020-06-17T12:13:15Z</time>
      </trkpt>
      <trkpt lat="49.29486" lon="-0.11234">
        <ele>7.4</ele>
        <time>2020-06-17T12:13:16Z</time>
      </trkpt>
      <trkpt lat="49.29487" lon="-0.1123">
        <ele>7.5</ele>
        <time>2020-06-17T12:13:17Z</time>
      </trkpt>
      <trkpt lat="49.29488" lon="-0.11225">
        <ele>7.5</ele>
        <time>2020-06-17T12:13:18Z</time>
      </trkpt>
      <trkpt lat="49.29489" lon="-0.11219">
        <ele>7.5</ele>
        <time>2020-06-17T12:13:19Z</time>
      </trkpt>
      <trkpt lat="49.2949" lon="-0.11215">
        <ele>7.6</ele>
        <time>2020-06-17T12:13:20Z</time>
      </trkpt>
      <trkpt lat="49.29492" lon="-0.1121">
        <ele>7.6</ele>
        <time>2020-06-17T12:13:21Z</time>
      </trkpt>
      <trkpt lat="49.29492" lon="-0.11208">
        <ele>7.6</ele>
        <time>2020-06-17T12:13:22Z</time>
      </trkpt>
      <trkpt lat="49.29493" lon="-0.11202">
        <ele>7.7</ele>
        <time>2020-06-17T12:13:23Z</time>
      </trkpt>
      <trkpt lat="49.29493" lon="-0.112">
        <ele>7.7</ele>
        <time>2020-06-17T12:13:24Z</time>
      </trkpt>
      <trkpt lat="49.29494" lon="-0.11195">
        <ele>7.8</ele>
        <time>2020-06-17T12:13:25Z</time>
      </trkpt>
      <trkpt lat="49.29494" lon="-0.1119">
        <ele>7.8</ele>
        <time>2020-06-17T12:13:26Z</time>
      </trkpt>
      <trkpt lat="49.29494" lon="-0.11184">
        <ele>7.8</ele>
        <time>2020-06-17T12:13:27Z</time>
      </trkpt>
      <trkpt lat="49.29495" lon="-0.11179">
        <ele>7.9</ele>
        <time>2020-06-17T12:13:28Z</time>
      </trkpt>
      <trkpt lat="49.29496" lon="-0.11175">
        <ele>7.9</ele>
        <time>2020-06-17T12:13:29Z</time>
      </trkpt>
      <trkpt lat="49.29497" lon="-0.1117">
        <ele>7.9</ele>
        <time>2020-06-17T12:13:30Z</time>
      </trkpt>
      <trkpt lat="49.29498" lon="-0.11164">
        <ele>7.9</ele>
        <time>2020-06-17T12:13:31Z</time>
      </trkpt>
      <trkpt lat="49.29499" lon="-0.1116">
        <ele>7.9</ele>
        <time>2020-06-17T12:13:32Z</time>
      </trkpt>
      <trkpt lat="49.295" lon="-0.11156">
        <ele>7.9</ele>
        <time>2020-06-17T12:13:33Z</time>
      </trkpt>
      <trkpt lat="49.295" lon="-0.11151">
        <ele>7.9</ele>
        <time>2020-06-17T12:13:34Z</time>
      </trkpt>
      <trkpt lat="49.29501" lon="-0.11147">
        <ele>7.9</ele>
        <time>2020-06-17T12:13:35Z</time>
      </trkpt>
      <trkpt lat="49.29502" lon="-0.11143">
        <ele>7.9</ele>
        <time>2020-06-17T12:13:36Z</time>
      </trkpt>
      <trkpt lat="49.29503" lon="-0.11139">
        <ele>7.9</ele>
        <time>2020-06-17T12:13:37Z</time>
      </trkpt>
      <trkpt lat="49.29504" lon="-0.11134">
        <ele>7.9</ele>
        <time>2020-06-17T12:13:38Z</time>
      </trkpt>
      <trkpt lat="49.29505" lon="-0.11129">
        <ele>7.9</ele>
        <time>2020-06-17T12:13:39Z</time>
      </trkpt>
      <trkpt lat="49.29506" lon="-0.11123">
        <ele>7.9</ele>
        <time>2020-06-17T12:13:40Z</time>
      </trkpt>
      <trkpt lat="49.29507" lon="-0.11119">
        <ele>7.9</ele>
        <time>2020-06-17T12:13:41Z</time>
      </trkpt>
      <trkpt lat="49.29508" lon="-0.11114">
        <ele>7.9</ele>
        <time>2020-06-17T12:13:42Z</time>
      </trkpt>
      <trkpt lat="49.2951" lon="-0.11108">
        <ele>7.9</ele>
        <time>2020-06-17T12:13:43Z</time>
      </trkpt>
      <trkpt lat="49.29512" lon="-0.11102">
        <ele>7.9</ele>
        <time>2020-06-17T12:13:44Z</time>
      </trkpt>
      <trkpt lat="49.29513" lon="-0.11095">
        <ele>7.9</ele>
        <time>2020-06-17T12:13:45Z</time>
      </trkpt>
      <trkpt lat="49.29514" lon="-0.1109">
        <ele>7.9</ele>
        <time>2020-06-17T12:13:46Z</time>
      </trkpt>
      <trkpt lat="49.29515" lon="-0.11084">
        <ele>7.9</ele>
        <time>2020-06-17T12:13:47Z</time>
      </trkpt>
      <trkpt lat="49.29516" lon="-0.11078">
        <ele>7.9</ele>
        <time>2020-06-17T12:13:48Z</time>
      </trkpt>
      <trkpt lat="49.29518" lon="-0.11073">
        <ele>7.9</ele>
        <time>2020-06-17T12:13:49Z</time>
      </trkpt>
      <trkpt lat="49.29519" lon="-0.11067">
        <ele>7.9</ele>
        <time>2020-06-17T12:13:50Z</time>
      </trkpt>
      <trkpt lat="49.2952" lon="-0.11061">
        <ele>7.9</ele>
        <time>2020-06-17T12:13:51Z</time>
      </trkpt>
      <trkpt lat="49.29521" lon="-0.11056">
        <ele>7.9</ele>
        <time>2020-06-17T12:13:52Z</time>
      </trkpt>
      <trkpt lat="49.29522" lon="-0.1105">
        <ele>7.9</ele>
        <time>2020-06-17T12:13:53Z</time>
      </trkpt>
      <trkpt lat="49.29523" lon="-0.11044">
        <ele>7.9</ele>
        <time>2020-06-17T12:13:54Z</time>
      </trkpt>
      <trkpt lat="49.29524" lon="-0.11039">
        <ele>7.9</ele>
        <time>2020-06-17T12:13:55Z</time>
      </trkpt>
      <trkpt lat="49.29526" lon="-0.11033">
        <ele>7.9</ele>
        <time>2020-06-17T12:13:56Z</time>
      </trkpt>
      <trkpt lat="49.29527" lon="-0.11027">
        <ele>7.9</ele>
        <time>2020-06-17T12:13:57Z</time>
      </trkpt>
      <trkpt lat="49.29528" lon="-0.11022">
        <ele>7.9</ele>
        <time>2020-06-17T12:13:58Z</time>
      </trkpt>
      <trkpt lat="49.2953" lon="-0.11016">
        <ele>7.9</ele>
        <time>2020-06-17T12:13:59Z</time>
      </trkpt>
      <trkpt lat="49.29533" lon="-0.1101">
        <ele>7.9</ele>
        <time>2020-06-17T12:14:00Z</time>
      </trkpt>
      <trkpt lat="49.29535" lon="-0.11005">
        <ele>7.9</ele>
        <time>2020-06-17T12:14:01Z</time>
      </trkpt>
      <trkpt lat="49.29537" lon="-0.10999">
        <ele>7.9</ele>
        <time>2020-06-17T12:14:02Z</time>
      </trkpt>
      <trkpt lat="49.29539" lon="-0.10993">
        <ele>8</ele>
        <time>2020-06-17T12:14:03Z</time>
      </trkpt>
      <trkpt lat="49.2954" lon="-0.10988">
        <ele>8</ele>
        <time>2020-06-17T12:14:04Z</time>
      </trkpt>
      <trkpt lat="49.29542" lon="-0.10982">
        <ele>8</ele>
        <time>2020-06-17T12:14:05Z</time>
      </trkpt>
      <trkpt lat="49.29543" lon="-0.10975">
        <ele>8</ele>
        <time>2020-06-17T12:14:06Z</time>
      </trkpt>
      <trkpt lat="49.29544" lon="-0.10969">
        <ele>8</ele>
        <time>2020-06-17T12:14:07Z</time>
      </trkpt>
      <trkpt lat="49.29546" lon="-0.10963">
        <ele>8</ele>
        <time>2020-06-17T12:14:08Z</time>
      </trkpt>
      <trkpt lat="49.29548" lon="-0.10958">
        <ele>8</ele>
        <time>2020-06-17T12:14:09Z</time>
      </trkpt>
      <trkpt lat="49.2955" lon="-0.10952">
        <ele>8</ele>
        <time>2020-06-17T12:14:10Z</time>
      </trkpt>
      <trkpt lat="49.29551" lon="-0.10946">
        <ele>8</ele>
        <time>2020-06-17T12:14:11Z</time>
      </trkpt>
      <trkpt lat="49.29551" lon="-0.1094">
        <ele>8</ele>
        <time>2020-06-17T12:14:12Z</time>
      </trkpt>
      <trkpt lat="49.29552" lon="-0.10934">
        <ele>8</ele>
        <time>2020-06-17T12:14:13Z</time>
      </trkpt>
      <trkpt lat="49.29553" lon="-0.1093">
        <ele>8</ele>
        <time>2020-06-17T12:14:14Z</time>
      </trkpt>
      <trkpt lat="49.29554" lon="-0.10925">
        <ele>8</ele>
        <time>2020-06-17T12:14:15Z</time>
      </trkpt>
      <trkpt lat="49.29555" lon="-0.1092">
        <ele>7.9</ele>
        <time>2020-06-17T12:14:16Z</time>
      </trkpt>
      <trkpt lat="49.29556" lon="-0.10914">
        <ele>7.9</ele>
        <time>2020-06-17T12:14:17Z</time>
      </trkpt>
      <trkpt lat="49.29558" lon="-0.10908">
        <ele>7.9</ele>
        <time>2020-06-17T12:14:18Z</time>
      </trkpt>
      <trkpt lat="49.29559" lon="-0.10901">
        <ele>7.9</ele>
        <time>2020-06-17T12:14:19Z</time>
      </trkpt>
      <trkpt lat="49.2956" lon="-0.10895">
        <ele>7.9</ele>
        <time>2020-06-17T12:14:20Z</time>
      </trkpt>
      <trkpt lat="49.29562" lon="-0.10888">
        <ele>7.9</ele>
        <time>2020-06-17T12:14:21Z</time>
      </trkpt>
      <trkpt lat="49.29564" lon="-0.10881">
        <ele>8</ele>
        <time>2020-06-17T12:14:22Z</time>
      </trkpt>
      <trkpt lat="49.29565" lon="-0.10874">
        <ele>8</ele>
        <time>2020-06-17T12:14:23Z</time>
      </trkpt>
      <trkpt lat="49.29566" lon="-0.10868">
        <ele>8</ele>
        <time>2020-06-17T12:14:24Z</time>
      </trkpt>
      <trkpt lat="49.29567" lon="-0.10861">
        <ele>8</ele>
        <time>2020-06-17T12:14:25Z</time>
      </trkpt>
      <trkpt lat="49.29569" lon="-0.10854">
        <ele>8</ele>
        <time>2020-06-17T12:14:26Z</time>
      </trkpt>
      <trkpt lat="49.2957" lon="-0.10847">
        <ele>8</ele>
        <time>2020-06-17T12:14:27Z</time>
      </trkpt>
      <trkpt lat="49.29571" lon="-0.1084">
        <ele>8</ele>
        <time>2020-06-17T12:14:28Z</time>
      </trkpt>
      <trkpt lat="49.29572" lon="-0.10834">
        <ele>8</ele>
        <time>2020-06-17T12:14:29Z</time>
      </trkpt>
      <trkpt lat="49.29573" lon="-0.10827">
        <ele>8</ele>
        <time>2020-06-17T12:14:30Z</time>
      </trkpt>
      <trkpt lat="49.29574" lon="-0.1082">
        <ele>8</ele>
        <time>2020-06-17T12:14:31Z</time>
      </trkpt>
      <trkpt lat="49.29575" lon="-0.10814">
        <ele>8</ele>
        <time>2020-06-17T12:14:32Z</time>
      </trkpt>
      <trkpt lat="49.29577" lon="-0.10808">
        <ele>7.9</ele>
        <time>2020-06-17T12:14:33Z</time>
      </trkpt>
      <trkpt lat="49.2958" lon="-0.10801">
        <ele>7.9</ele>
        <time>2020-06-17T12:14:34Z</time>
      </trkpt>
      <trkpt lat="49.29582" lon="-0.10795">
        <ele>7.9</ele>
        <time>2020-06-17T12:14:35Z</time>
      </trkpt>
      <trkpt lat="49.29583" lon="-0.10789">
        <ele>7.9</ele>
        <time>2020-06-17T12:14:36Z</time>
      </trkpt>
      <trkpt lat="49.29584" lon="-0.10785">
        <ele>7.9</ele>
        <time>2020-06-17T12:14:37Z</time>
      </trkpt>
      <trkpt lat="49.29585" lon="-0.10781">
        <ele>7.9</ele>
        <time>2020-06-17T12:14:38Z</time>
      </trkpt>
      <trkpt lat="49.29586" lon="-0.10777">
        <ele>7.9</ele>
        <time>2020-06-17T12:14:39Z</time>
      </trkpt>
      <trkpt lat="49.29587" lon="-0.10771">
        <ele>7.9</ele>
        <time>2020-06-17T12:14:40Z</time>
      </trkpt>
      <trkpt lat="49.29589" lon="-0.10765">
        <ele>7.9</ele>
        <time>2020-06-17T12:14:41Z</time>
      </trkpt>
      <trkpt lat="49.2959" lon="-0.1076">
        <ele>7.9</ele>
        <time>2020-06-17T12:14:42Z</time>
      </trkpt>
      <trkpt lat="49.29591" lon="-0.10754">
        <ele>7.9</ele>
        <time>2020-06-17T12:14:43Z</time>
      </trkpt>
      <trkpt lat="49.29592" lon="-0.10749">
        <ele>7.9</ele>
        <time>2020-06-17T12:14:44Z</time>
      </trkpt>
      <trkpt lat="49.29593" lon="-0.10743">
        <ele>7.9</ele>
        <time>2020-06-17T12:14:45Z</time>
      </trkpt>
      <trkpt lat="49.29594" lon="-0.10737">
        <ele>7.9</ele>
        <time>2020-06-17T12:14:46Z</time>
      </trkpt>
      <trkpt lat="49.29595" lon="-0.10731">
        <ele>7.9</ele>
        <time>2020-06-17T12:14:47Z</time>
      </trkpt>
      <trkpt lat="49.29596" lon="-0.10726">
        <ele>8</ele>
        <time>2020-06-17T12:14:48Z</time>
      </trkpt>
      <trkpt lat="49.29596" lon="-0.10719">
        <ele>8</ele>
        <time>2020-06-17T12:14:49Z</time>
      </trkpt>
      <trkpt lat="49.29597" lon="-0.10712">
        <ele>8</ele>
        <time>2020-06-17T12:14:50Z</time>
      </trkpt>
      <trkpt lat="49.29597" lon="-0.10706">
        <ele>8</ele>
        <time>2020-06-17T12:14:51Z</time>
      </trkpt>
      <trkpt lat="49.29597" lon="-0.107">
        <ele>8</ele>
        <time>2020-06-17T12:14:52Z</time>
      </trkpt>
      <trkpt lat="49.29599" lon="-0.10693">
        <ele>8</ele>
        <time>2020-06-17T12:14:53Z</time>
      </trkpt>
      <trkpt lat="49.296" lon="-0.10689">
        <ele>8</ele>
        <time>2020-06-17T12:14:54Z</time>
      </trkpt>
      <trkpt lat="49.29602" lon="-0.10684">
        <ele>8</ele>
        <time>2020-06-17T12:14:55Z</time>
      </trkpt>
      <trkpt lat="49.29604" lon="-0.1068">
        <ele>8.1</ele>
        <time>2020-06-17T12:14:56Z</time>
      </trkpt>
      <trkpt lat="49.29605" lon="-0.10673">
        <ele>8.1</ele>
        <time>2020-06-17T12:14:57Z</time>
      </trkpt>
      <trkpt lat="49.29606" lon="-0.10666">
        <ele>8.1</ele>
        <time>2020-06-17T12:14:58Z</time>
      </trkpt>
      <trkpt lat="49.29607" lon="-0.1066">
        <ele>8.1</ele>
        <time>2020-06-17T12:14:59Z</time>
      </trkpt>
      <trkpt lat="49.29608" lon="-0.10653">
        <ele>8.1</ele>
        <time>2020-06-17T12:15:00Z</time>
      </trkpt>
      <trkpt lat="49.2961" lon="-0.10647">
        <ele>8.1</ele>
        <time>2020-06-17T12:15:01Z</time>
      </trkpt>
      <trkpt lat="49.29611" lon="-0.10642">
        <ele>8.1</ele>
        <time>2020-06-17T12:15:02Z</time>
      </trkpt>
      <trkpt lat="49.29612" lon="-0.10635">
        <ele>8.2</ele>
        <time>2020-06-17T12:15:03Z</time>
      </trkpt>
      <trkpt lat="49.29613" lon="-0.10629">
        <ele>8.2</ele>
        <time>2020-06-17T12:15:04Z</time>
      </trkpt>
      <trkpt lat="49.29614" lon="-0.10623">
        <ele>8.2</ele>
        <time>2020-06-17T12:15:05Z</time>
      </trkpt>
      <trkpt lat="49.29615" lon="-0.10618">
        <ele>8.2</ele>
        <time>2020-06-17T12:15:06Z</time>
      </trkpt>
      <trkpt lat="49.29617" lon="-0.10613">
        <ele>8.2</ele>
        <time>2020-06-17T12:15:07Z</time>
      </trkpt>
      <trkpt lat="49.29618" lon="-0.10608">
        <ele>8.2</ele>
        <time>2020-06-17T12:15:08Z</time>
      </trkpt>
      <trkpt lat="49.29619" lon="-0.10604">
        <ele>8.2</ele>
        <time>2020-06-17T12:15:09Z</time>
      </trkpt>
      <trkpt lat="49.2962" lon="-0.10599">
        <ele>8.2</ele>
        <time>2020-06-17T12:15:10Z</time>
      </trkpt>
      <trkpt lat="49.29621" lon="-0.10594">
        <ele>8.2</ele>
        <time>2020-06-17T12:15:11Z</time>
      </trkpt>
      <trkpt lat="49.29622" lon="-0.1059">
        <ele>8.2</ele>
        <time>2020-06-17T12:15:12Z</time>
      </trkpt>
      <trkpt lat="49.29624" lon="-0.10585">
        <ele>8.2</ele>
        <time>2020-06-17T12:15:13Z</time>
      </trkpt>
      <trkpt lat="49.29625" lon="-0.10582">
        <ele>8.2</ele>
        <time>2020-06-17T12:15:14Z</time>
      </trkpt>
      <trkpt lat="49.29625" lon="-0.10577">
        <ele>8.2</ele>
        <time>2020-06-17T12:15:15Z</time>
      </trkpt>
      <trkpt lat="49.29625" lon="-0.10575">
        <ele>8.2</ele>
        <time>2020-06-17T12:15:16Z</time>
      </trkpt>
      <trkpt lat="49.29625" lon="-0.10573">
        <ele>8.2</ele>
        <time>2020-06-17T12:15:17Z</time>
      </trkpt>
      <trkpt lat="49.29625" lon="-0.10574">
        <ele>8.2</ele>
        <time>2020-06-17T12:15:18Z</time>
      </trkpt>
      <trkpt lat="49.29625" lon="-0.10574">
        <ele>8.2</ele>
        <time>2020-06-17T12:15:19Z</time>
      </trkpt>
      <trkpt lat="49.29625" lon="-0.10573">
        <ele>8.2</ele>
        <time>2020-06-17T12:15:20Z</time>
      </trkpt>
      <trkpt lat="49.29625" lon="-0.10573">
        <ele>8.2</ele>
        <time>2020-06-17T12:15:21Z</time>
      </trkpt>
      <trkpt lat="49.29624" lon="-0.10574">
        <ele>8.2</ele>
        <time>2020-06-17T12:15:22Z</time>
      </trkpt>
      <trkpt lat="49.29624" lon="-0.10573">
        <ele>8.2</ele>
        <time>2020-06-17T12:15:23Z</time>
      </trkpt>
      <trkpt lat="49.29624" lon="-0.10573">
        <ele>8.2</ele>
        <time>2020-06-17T12:15:24Z</time>
      </trkpt>
      <trkpt lat="49.29624" lon="-0.10573">
        <ele>8.2</ele>
        <time>2020-06-17T12:15:25Z</time>
      </trkpt>
      <trkpt lat="49.29623" lon="-0.10572">
        <ele>8.2</ele>
        <time>2020-06-17T12:15:26Z</time>
      </trkpt>
      <trkpt lat="49.29623" lon="-0.10572">
        <ele>8.2</ele>
        <time>2020-06-17T12:15:27Z</time>
      </trkpt>
      <trkpt lat="49.29624" lon="-0.10571">
        <ele>8.2</ele>
        <time>2020-06-17T12:15:28Z</time>
      </trkpt>
      <trkpt lat="49.29624" lon="-0.1057">
        <ele>8.1</ele>
        <time>2020-06-17T12:15:29Z</time>
      </trkpt>
      <trkpt lat="49.29625" lon="-0.10569">
        <ele>8.1</ele>
        <time>2020-06-17T12:15:30Z</time>
      </trkpt>
      <trkpt lat="49.29625" lon="-0.10568">
        <ele>8.1</ele>
        <time>2020-06-17T12:15:31Z</time>
      </trkpt>
      <trkpt lat="49.29626" lon="-0.10567">
        <ele>8.1</ele>
        <time>2020-06-17T12:15:32Z</time>
      </trkpt>
      <trkpt lat="49.29626" lon="-0.10561">
        <ele>8.1</ele>
        <time>2020-06-17T12:15:33Z</time>
      </trkpt>
      <trkpt lat="49.29627" lon="-0.10558">
        <ele>8.1</ele>
        <time>2020-06-17T12:15:34Z</time>
      </trkpt>
      <trkpt lat="49.29627" lon="-0.10554">
        <ele>8</ele>
        <time>2020-06-17T12:15:35Z</time>
      </trkpt>
      <trkpt lat="49.29628" lon="-0.10548">
        <ele>8</ele>
        <time>2020-06-17T12:15:36Z</time>
      </trkpt>
      <trkpt lat="49.29629" lon="-0.10542">
        <ele>7.9</ele>
        <time>2020-06-17T12:15:37Z</time>
      </trkpt>
      <trkpt lat="49.2963" lon="-0.10536">
        <ele>7.9</ele>
        <time>2020-06-17T12:15:38Z</time>
      </trkpt>
      <trkpt lat="49.29632" lon="-0.1053">
        <ele>7.9</ele>
        <time>2020-06-17T12:15:39Z</time>
      </trkpt>
      <trkpt lat="49.29633" lon="-0.10523">
        <ele>7.9</ele>
        <time>2020-06-17T12:15:40Z</time>
      </trkpt>
      <trkpt lat="49.29634" lon="-0.10517">
        <ele>7.9</ele>
        <time>2020-06-17T12:15:41Z</time>
      </trkpt>
      <trkpt lat="49.29636" lon="-0.1051">
        <ele>7.8</ele>
        <time>2020-06-17T12:15:42Z</time>
      </trkpt>
      <trkpt lat="49.29638" lon="-0.10504">
        <ele>7.8</ele>
        <time>2020-06-17T12:15:43Z</time>
      </trkpt>
      <trkpt lat="49.29639" lon="-0.10498">
        <ele>7.7</ele>
        <time>2020-06-17T12:15:44Z</time>
      </trkpt>
      <trkpt lat="49.29641" lon="-0.1049">
        <ele>7.7</ele>
        <time>2020-06-17T12:15:45Z</time>
      </trkpt>
      <trkpt lat="49.29643" lon="-0.10483">
        <ele>7.6</ele>
        <time>2020-06-17T12:15:46Z</time>
      </trkpt>
      <trkpt lat="49.29644" lon="-0.10477">
        <ele>7.6</ele>
        <time>2020-06-17T12:15:47Z</time>
      </trkpt>
      <trkpt lat="49.29645" lon="-0.10471">
        <ele>7.6</ele>
        <time>2020-06-17T12:15:48Z</time>
      </trkpt>
      <trkpt lat="49.29646" lon="-0.10464">
        <ele>7.5</ele>
        <time>2020-06-17T12:15:49Z</time>
      </trkpt>
      <trkpt lat="49.29648" lon="-0.10458">
        <ele>7.5</ele>
        <time>2020-06-17T12:15:50Z</time>
      </trkpt>
      <trkpt lat="49.29649" lon="-0.10452">
        <ele>7.5</ele>
        <time>2020-06-17T12:15:51Z</time>
      </trkpt>
      <trkpt lat="49.29651" lon="-0.10445">
        <ele>7.4</ele>
        <time>2020-06-17T12:15:52Z</time>
      </trkpt>
      <trkpt lat="49.29653" lon="-0.10438">
        <ele>7.4</ele>
        <time>2020-06-17T12:15:53Z</time>
      </trkpt>
      <trkpt lat="49.29655" lon="-0.1043">
        <ele>7.3</ele>
        <time>2020-06-17T12:15:54Z</time>
      </trkpt>
      <trkpt lat="49.29656" lon="-0.10422">
        <ele>7.3</ele>
        <time>2020-06-17T12:15:55Z</time>
      </trkpt>
      <trkpt lat="49.29658" lon="-0.10414">
        <ele>7.2</ele>
        <time>2020-06-17T12:15:56Z</time>
      </trkpt>
      <trkpt lat="49.2966" lon="-0.10406">
        <ele>7.1</ele>
        <time>2020-06-17T12:15:57Z</time>
      </trkpt>
      <trkpt lat="49.29661" lon="-0.10398">
        <ele>7.1</ele>
        <time>2020-06-17T12:15:58Z</time>
      </trkpt>
      <trkpt lat="49.29663" lon="-0.1039">
        <ele>7</ele>
        <time>2020-06-17T12:15:59Z</time>
      </trkpt>
      <trkpt lat="49.29664" lon="-0.1038">
        <ele>6.9</ele>
        <time>2020-06-17T12:16:00Z</time>
      </trkpt>
      <trkpt lat="49.29666" lon="-0.10372">
        <ele>6.9</ele>
        <time>2020-06-17T12:16:01Z</time>
      </trkpt>
      <trkpt lat="49.29667" lon="-0.10363">
        <ele>6.9</ele>
        <time>2020-06-17T12:16:02Z</time>
      </trkpt>
      <trkpt lat="49.29668" lon="-0.10356">
        <ele>6.8</ele>
        <time>2020-06-17T12:16:03Z</time>
      </trkpt>
      <trkpt lat="49.29669" lon="-0.10349">
        <ele>6.8</ele>
        <time>2020-06-17T12:16:04Z</time>
      </trkpt>
      <trkpt lat="49.2967" lon="-0.10343">
        <ele>6.8</ele>
        <time>2020-06-17T12:16:05Z</time>
      </trkpt>
      <trkpt lat="49.29672" lon="-0.10336">
        <ele>6.8</ele>
        <time>2020-06-17T12:16:06Z</time>
      </trkpt>
      <trkpt lat="49.29674" lon="-0.1033">
        <ele>6.7</ele>
        <time>2020-06-17T12:16:07Z</time>
      </trkpt>
      <trkpt lat="49.29675" lon="-0.10324">
        <ele>6.7</ele>
        <time>2020-06-17T12:16:08Z</time>
      </trkpt>
      <trkpt lat="49.29676" lon="-0.10319">
        <ele>6.7</ele>
        <time>2020-06-17T12:16:09Z</time>
      </trkpt>
      <trkpt lat="49.29678" lon="-0.10313">
        <ele>6.7</ele>
        <time>2020-06-17T12:16:10Z</time>
      </trkpt>
      <trkpt lat="49.2968" lon="-0.10307">
        <ele>6.6</ele>
        <time>2020-06-17T12:16:11Z</time>
      </trkpt>
      <trkpt lat="49.29681" lon="-0.10302">
        <ele>6.6</ele>
        <time>2020-06-17T12:16:12Z</time>
      </trkpt>
      <trkpt lat="49.29682" lon="-0.10296">
        <ele>6.5</ele>
        <time>2020-06-17T12:16:13Z</time>
      </trkpt>
      <trkpt lat="49.29683" lon="-0.1029">
        <ele>6.5</ele>
        <time>2020-06-17T12:16:14Z</time>
      </trkpt>
      <trkpt lat="49.29684" lon="-0.10284">
        <ele>6.4</ele>
        <time>2020-06-17T12:16:15Z</time>
      </trkpt>
      <trkpt lat="49.29686" lon="-0.10278">
        <ele>6.4</ele>
        <time>2020-06-17T12:16:16Z</time>
      </trkpt>
      <trkpt lat="49.29687" lon="-0.10273">
        <ele>6.4</ele>
        <time>2020-06-17T12:16:17Z</time>
      </trkpt>
      <trkpt lat="49.29688" lon="-0.10267">
        <ele>6.3</ele>
        <time>2020-06-17T12:16:18Z</time>
      </trkpt>
      <trkpt lat="49.29689" lon="-0.10262">
        <ele>6.3</ele>
        <time>2020-06-17T12:16:19Z</time>
      </trkpt>
      <trkpt lat="49.29689" lon="-0.10258">
        <ele>6.3</ele>
        <time>2020-06-17T12:16:20Z</time>
      </trkpt>
      <trkpt lat="49.2969" lon="-0.10252">
        <ele>6.3</ele>
        <time>2020-06-17T12:16:21Z</time>
      </trkpt>
      <trkpt lat="49.2969" lon="-0.1025">
        <ele>6.3</ele>
        <time>2020-06-17T12:16:22Z</time>
      </trkpt>
      <trkpt lat="49.2969" lon="-0.10249">
        <ele>6.3</ele>
        <time>2020-06-17T12:16:23Z</time>
      </trkpt>
      <trkpt lat="49.29689" lon="-0.10248">
        <ele>6.3</ele>
        <time>2020-06-17T12:16:24Z</time>
      </trkpt>
      <trkpt lat="49.29689" lon="-0.10247">
        <ele>6.3</ele>
        <time>2020-06-17T12:16:25Z</time>
      </trkpt>
      <trkpt lat="49.29689" lon="-0.10245">
        <ele>6.2</ele>
        <time>2020-06-17T12:16:26Z</time>
      </trkpt>
      <trkpt lat="49.29687" lon="-0.10243">
        <ele>6.2</ele>
        <time>2020-06-17T12:16:27Z</time>
      </trkpt>
      <trkpt lat="49.29686" lon="-0.10242">
        <ele>6.2</ele>
        <time>2020-06-17T12:16:28Z</time>
      </trkpt>
      <trkpt lat="49.29682" lon="-0.1024">
        <ele>6.2</ele>
        <time>2020-06-17T12:16:29Z</time>
      </trkpt>
      <trkpt lat="49.2968" lon="-0.10239">
        <ele>6.2</ele>
        <time>2020-06-17T12:16:30Z</time>
      </trkpt>
      <trkpt lat="49.29676" lon="-0.10236">
        <ele>6.1</ele>
        <time>2020-06-17T12:16:31Z</time>
      </trkpt>
      <trkpt lat="49.29672" lon="-0.10234">
        <ele>6</ele>
        <time>2020-06-17T12:16:32Z</time>
      </trkpt>
      <trkpt lat="49.29667" lon="-0.10233">
        <ele>5.9</ele>
        <time>2020-06-17T12:16:33Z</time>
      </trkpt>
      <trkpt lat="49.29664" lon="-0.10233">
        <ele>5.8</ele>
        <time>2020-06-17T12:16:34Z</time>
      </trkpt>
      <trkpt lat="49.2966" lon="-0.10235">
        <ele>5.8</ele>
        <time>2020-06-17T12:16:35Z</time>
      </trkpt>
      <trkpt lat="49.29656" lon="-0.10238">
        <ele>5.8</ele>
        <time>2020-06-17T12:16:36Z</time>
      </trkpt>
      <trkpt lat="49.29653" lon="-0.10242">
        <ele>5.8</ele>
        <time>2020-06-17T12:16:37Z</time>
      </trkpt>
      <trkpt lat="49.29651" lon="-0.10247">
        <ele>5.7</ele>
        <time>2020-06-17T12:16:38Z</time>
      </trkpt>
      <trkpt lat="49.29648" lon="-0.1025">
        <ele>5.7</ele>
        <time>2020-06-17T12:16:39Z</time>
      </trkpt>
      <trkpt lat="49.29646" lon="-0.10253">
        <ele>5.7</ele>
        <time>2020-06-17T12:16:40Z</time>
      </trkpt>
      <trkpt lat="49.29645" lon="-0.10253">
        <ele>5.7</ele>
        <time>2020-06-17T12:16:41Z</time>
      </trkpt>
      <trkpt lat="49.29644" lon="-0.10254">
        <ele>5.7</ele>
        <time>2020-06-17T12:16:42Z</time>
      </trkpt>
      <trkpt lat="49.29643" lon="-0.10255">
        <ele>5.7</ele>
        <time>2020-06-17T12:16:43Z</time>
      </trkpt>
      <trkpt lat="49.29642" lon="-0.10255">
        <ele>5.7</ele>
        <time>2020-06-17T12:16:44Z</time>
      </trkpt>
      <trkpt lat="49.29642" lon="-0.10254">
        <ele>5.6</ele>
        <time>2020-06-17T12:16:45Z</time>
      </trkpt>
      <trkpt lat="49.29642" lon="-0.10254">
        <ele>5.6</ele>
        <time>2020-06-17T12:16:46Z</time>
      </trkpt>
      <trkpt lat="49.29641" lon="-0.10254">
        <ele>5.6</ele>
        <time>2020-06-17T12:16:47Z</time>
      </trkpt>
      <trkpt lat="49.29641" lon="-0.10254">
        <ele>5.6</ele>
        <time>2020-06-17T12:16:48Z</time>
      </trkpt>
      <trkpt lat="49.29641" lon="-0.10254">
        <ele>5.6</ele>
        <time>2020-06-17T12:16:49Z</time>
      </trkpt>
      <trkpt lat="49.29641" lon="-0.10254">
        <ele>5.6</ele>
        <time>2020-06-17T12:16:50Z</time>
      </trkpt>
      <trkpt lat="49.29641" lon="-0.10254">
        <ele>5.6</ele>
        <time>2020-06-17T12:16:51Z</time>
      </trkpt>
      <trkpt lat="49.29641" lon="-0.10253">
        <ele>5.6</ele>
        <time>2020-06-17T12:16:52Z</time>
      </trkpt>
      <trkpt lat="49.29641" lon="-0.10253">
        <ele>5.6</ele>
        <time>2020-06-17T12:16:53Z</time>
      </trkpt>
      <trkpt lat="49.29641" lon="-0.10253">
        <ele>5.6</ele>
        <time>2020-06-17T12:16:54Z</time>
      </trkpt>
      <trkpt lat="49.2964" lon="-0.10253">
        <ele>5.6</ele>
        <time>2020-06-17T12:16:55Z</time>
      </trkpt>
      <trkpt lat="49.2964" lon="-0.10253">
        <ele>5.6</ele>
        <time>2020-06-17T12:16:56Z</time>
      </trkpt>
      <trkpt lat="49.2964" lon="-0.10252">
        <ele>5.6</ele>
        <time>2020-06-17T12:16:57Z</time>
      </trkpt>
      <trkpt lat="49.2964" lon="-0.10252">
        <ele>5.6</ele>
        <time>2020-06-17T12:16:58Z</time>
      </trkpt>
      <trkpt lat="49.2964" lon="-0.10252">
        <ele>5.6</ele>
        <time>2020-06-17T12:16:59Z</time>
      </trkpt>
      <trkpt lat="49.2964" lon="-0.10252">
        <ele>5.6</ele>
        <time>2020-06-17T12:17:00Z</time>
      </trkpt>
      <trkpt lat="49.2964" lon="-0.10252">
        <ele>5.6</ele>
        <time>2020-06-17T12:17:01Z</time>
      </trkpt>
      <trkpt lat="49.29639" lon="-0.10252">
        <ele>5.6</ele>
        <time>2020-06-17T12:17:02Z</time>
      </trkpt>
      <trkpt lat="49.29639" lon="-0.10251">
        <ele>5.6</ele>
        <time>2020-06-17T12:17:03Z</time>
      </trkpt>
      <trkpt lat="49.29639" lon="-0.10251">
        <ele>5.6</ele>
        <time>2020-06-17T12:17:04Z</time>
      </trkpt>
      <trkpt lat="49.29639" lon="-0.10251">
        <ele>5.6</ele>
        <time>2020-06-17T12:17:05Z</time>
      </trkpt>
      <trkpt lat="49.29639" lon="-0.10251">
        <ele>5.6</ele>
        <time>2020-06-17T12:17:06Z</time>
      </trkpt>
      <trkpt lat="49.29639" lon="-0.10251">
        <ele>5.6</ele>
        <time>2020-06-17T12:17:07Z</time>
      </trkpt>
      <trkpt lat="49.29638" lon="-0.1025">
        <ele>5.6</ele>
        <time>2020-06-17T12:17:08Z</time>
      </trkpt>
      <trkpt lat="49.29636" lon="-0.10248">
        <ele>5.5</ele>
        <time>2020-06-17T12:17:09Z</time>
      </trkpt>
      <trkpt lat="49.29634" lon="-0.10246">
        <ele>5.5</ele>
        <time>2020-06-17T12:17:10Z</time>
      </trkpt>
      <trkpt lat="49.29633" lon="-0.10246">
        <ele>5.5</ele>
        <time>2020-06-17T12:17:11Z</time>
      </trkpt>
      <trkpt lat="49.29632" lon="-0.10246">
        <ele>5.5</ele>
        <time>2020-06-17T12:17:12Z</time>
      </trkpt>
      <trkpt lat="49.29631" lon="-0.10245">
        <ele>5.5</ele>
        <time>2020-06-17T12:17:13Z</time>
      </trkpt>
      <trkpt lat="49.29629" lon="-0.10245">
        <ele>5.5</ele>
        <time>2020-06-17T12:17:14Z</time>
      </trkpt>
      <trkpt lat="49.29628" lon="-0.10246">
        <ele>5.5</ele>
        <time>2020-06-17T12:17:15Z</time>
      </trkpt>
      <trkpt lat="49.29628" lon="-0.10246">
        <ele>5.5</ele>
        <time>2020-06-17T12:17:16Z</time>
      </trkpt>
      <trkpt lat="49.29628" lon="-0.10247">
        <ele>5.5</ele>
        <time>2020-06-17T12:17:17Z</time>
      </trkpt>
      <trkpt lat="49.29628" lon="-0.10248">
        <ele>5.5</ele>
        <time>2020-06-17T12:17:18Z</time>
      </trkpt>
      <trkpt lat="49.29627" lon="-0.10249">
        <ele>5.5</ele>
        <time>2020-06-17T12:17:19Z</time>
      </trkpt>
      <trkpt lat="49.29627" lon="-0.10249">
        <ele>5.5</ele>
        <time>2020-06-17T12:17:20Z</time>
      </trkpt>
      <trkpt lat="49.29627" lon="-0.1025">
        <ele>5.5</ele>
        <time>2020-06-17T12:17:21Z</time>
      </trkpt>
      <trkpt lat="49.29627" lon="-0.10251">
        <ele>5.5</ele>
        <time>2020-06-17T12:17:22Z</time>
      </trkpt>
      <trkpt lat="49.29626" lon="-0.10251">
        <ele>5.5</ele>
        <time>2020-06-17T12:17:23Z</time>
      </trkpt>
      <trkpt lat="49.29626" lon="-0.10254">
        <ele>5.5</ele>
        <time>2020-06-17T12:17:24Z</time>
      </trkpt>
      <trkpt lat="49.29626" lon="-0.10254">
        <ele>5.5</ele>
        <time>2020-06-17T12:17:25Z</time>
      </trkpt>
      <trkpt lat="49.29626" lon="-0.10255">
        <ele>5.5</ele>
        <time>2020-06-17T12:17:26Z</time>
      </trkpt>
      <trkpt lat="49.29626" lon="-0.10256">
        <ele>5.5</ele>
        <time>2020-06-17T12:17:27Z</time>
      </trkpt>
      <trkpt lat="49.29626" lon="-0.10257">
        <ele>5.5</ele>
        <time>2020-06-17T12:17:28Z</time>
      </trkpt>
      <trkpt lat="49.29625" lon="-0.10259">
        <ele>5.5</ele>
        <time>2020-06-17T12:17:29Z</time>
      </trkpt>
      <trkpt lat="49.29625" lon="-0.1026">
        <ele>5.5</ele>
        <time>2020-06-17T12:17:30Z</time>
      </trkpt>
      <trkpt lat="49.29625" lon="-0.10261">
        <ele>5.5</ele>
        <time>2020-06-17T12:17:31Z</time>
      </trkpt>
      <trkpt lat="49.29624" lon="-0.10263">
        <ele>5.5</ele>
        <time>2020-06-17T12:17:32Z</time>
      </trkpt>
      <trkpt lat="49.29624" lon="-0.10265">
        <ele>5.6</ele>
        <time>2020-06-17T12:17:33Z</time>
      </trkpt>
      <trkpt lat="49.29624" lon="-0.10267">
        <ele>5.6</ele>
        <time>2020-06-17T12:17:34Z</time>
      </trkpt>
      <trkpt lat="49.29623" lon="-0.10269">
        <ele>5.6</ele>
        <time>2020-06-17T12:17:35Z</time>
      </trkpt>
      <trkpt lat="49.29623" lon="-0.10271">
        <ele>5.7</ele>
        <time>2020-06-17T12:17:36Z</time>
      </trkpt>
      <trkpt lat="49.29622" lon="-0.10274">
        <ele>5.7</ele>
        <time>2020-06-17T12:17:37Z</time>
      </trkpt>
      <trkpt lat="49.29622" lon="-0.10277">
        <ele>5.8</ele>
        <time>2020-06-17T12:17:38Z</time>
      </trkpt>
      <trkpt lat="49.29621" lon="-0.10279">
        <ele>5.8</ele>
        <time>2020-06-17T12:17:39Z</time>
      </trkpt>
      <trkpt lat="49.29621" lon="-0.1028">
        <ele>5.9</ele>
        <time>2020-06-17T12:17:40Z</time>
      </trkpt>
      <trkpt lat="49.29621" lon="-0.10283">
        <ele>6.3</ele>
        <time>2020-06-17T12:17:41Z</time>
      </trkpt>
      <trkpt lat="49.2962" lon="-0.10285">
        <ele>6.3</ele>
        <time>2020-06-17T12:17:42Z</time>
      </trkpt>
      <trkpt lat="49.29619" lon="-0.10287">
        <ele>6.3</ele>
        <time>2020-06-17T12:17:43Z</time>
      </trkpt>
      <trkpt lat="49.29617" lon="-0.10285">
        <ele>6.4</ele>
        <time>2020-06-17T12:17:44Z</time>
      </trkpt>
      <trkpt lat="49.29615" lon="-0.10282">
        <ele>6.4</ele>
        <time>2020-06-17T12:17:45Z</time>
      </trkpt>
      <trkpt lat="49.29611" lon="-0.10278">
        <ele>6.7</ele>
        <time>2020-06-17T12:17:46Z</time>
      </trkpt>
      <trkpt lat="49.29609" lon="-0.10277">
        <ele>6.8</ele>
        <time>2020-06-17T12:17:47Z</time>
      </trkpt>
      <trkpt lat="49.29606" lon="-0.10275">
        <ele>6.9</ele>
        <time>2020-06-17T12:17:48Z</time>
      </trkpt>
      <trkpt lat="49.29602" lon="-0.10273">
        <ele>7.1</ele>
        <time>2020-06-17T12:17:49Z</time>
      </trkpt>
      <trkpt lat="49.29599" lon="-0.10272">
        <ele>7.3</ele>
        <time>2020-06-17T12:17:50Z</time>
      </trkpt>
      <trkpt lat="49.29598" lon="-0.10271">
        <ele>7.3</ele>
        <time>2020-06-17T12:17:51Z</time>
      </trkpt>
      <trkpt lat="49.29594" lon="-0.1027">
        <ele>7.5</ele>
        <time>2020-06-17T12:17:52Z</time>
      </trkpt>
      <trkpt lat="49.29593" lon="-0.10269">
        <ele>7.5</ele>
        <time>2020-06-17T12:17:53Z</time>
      </trkpt>
      <trkpt lat="49.29591" lon="-0.10268">
        <ele>7.6</ele>
        <time>2020-06-17T12:17:54Z</time>
      </trkpt>
      <trkpt lat="49.29589" lon="-0.10268">
        <ele>7.6</ele>
        <time>2020-06-17T12:17:55Z</time>
      </trkpt>
      <trkpt lat="49.29586" lon="-0.10267">
        <ele>7.7</ele>
        <time>2020-06-17T12:17:56Z</time>
      </trkpt>
      <trkpt lat="49.29583" lon="-0.10265">
        <ele>7.8</ele>
        <time>2020-06-17T12:17:57Z</time>
      </trkpt>
      <trkpt lat="49.2958" lon="-0.10263">
        <ele>7.9</ele>
        <time>2020-06-17T12:17:58Z</time>
      </trkpt>
      <trkpt lat="49.29577" lon="-0.10262">
        <ele>8</ele>
        <time>2020-06-17T12:17:59Z</time>
      </trkpt>
      <trkpt lat="49.29575" lon="-0.10262">
        <ele>8</ele>
        <time>2020-06-17T12:18:00Z</time>
      </trkpt>
      <trkpt lat="49.29572" lon="-0.10261">
        <ele>8.1</ele>
        <time>2020-06-17T12:18:01Z</time>
      </trkpt>
      <trkpt lat="49.29571" lon="-0.1026">
        <ele>8.1</ele>
        <time>2020-06-17T12:18:02Z</time>
      </trkpt>
      <trkpt lat="49.29568" lon="-0.10259">
        <ele>8.1</ele>
        <time>2020-06-17T12:18:03Z</time>
      </trkpt>
      <trkpt lat="49.29567" lon="-0.10258">
        <ele>8.2</ele>
        <time>2020-06-17T12:18:04Z</time>
      </trkpt>
      <trkpt lat="49.29565" lon="-0.10258">
        <ele>8.2</ele>
        <time>2020-06-17T12:18:05Z</time>
      </trkpt>
      <trkpt lat="49.29563" lon="-0.10258">
        <ele>8.2</ele>
        <time>2020-06-17T12:18:06Z</time>
      </trkpt>
      <trkpt lat="49.29561" lon="-0.10257">
        <ele>8.2</ele>
        <time>2020-06-17T12:18:07Z</time>
      </trkpt>
      <trkpt lat="49.2956" lon="-0.10256">
        <ele>8.2</ele>
        <time>2020-06-17T12:18:08Z</time>
      </trkpt>
      <trkpt lat="49.29559" lon="-0.10256">
        <ele>8.2</ele>
        <time>2020-06-17T12:18:09Z</time>
      </trkpt>
      <trkpt lat="49.29559" lon="-0.10255">
        <ele>8.2</ele>
        <time>2020-06-17T12:18:10Z</time>
      </trkpt>
      <trkpt lat="49.29558" lon="-0.10254">
        <ele>8.2</ele>
        <time>2020-06-17T12:18:11Z</time>
      </trkpt>
      <trkpt lat="49.29557" lon="-0.10253">
        <ele>8.2</ele>
        <time>2020-06-17T12:18:12Z</time>
      </trkpt>
      <trkpt lat="49.29556" lon="-0.10251">
        <ele>8.2</ele>
        <time>2020-06-17T12:18:13Z</time>
      </trkpt>
      <trkpt lat="49.29555" lon="-0.10249">
        <ele>8.1</ele>
        <time>2020-06-17T12:18:14Z</time>
      </trkpt>
      <trkpt lat="49.29553" lon="-0.10247">
        <ele>8.1</ele>
        <time>2020-06-17T12:18:15Z</time>
      </trkpt>
      <trkpt lat="49.29552" lon="-0.10246">
        <ele>8.1</ele>
        <time>2020-06-17T12:18:16Z</time>
      </trkpt>
      <trkpt lat="49.2955" lon="-0.10245">
        <ele>8</ele>
        <time>2020-06-17T12:18:17Z</time>
      </trkpt>
      <trkpt lat="49.29549" lon="-0.10244">
        <ele>8</ele>
        <time>2020-06-17T12:18:18Z</time>
      </trkpt>
      <trkpt lat="49.29547" lon="-0.10242">
        <ele>8</ele>
        <time>2020-06-17T12:18:19Z</time>
      </trkpt>
      <trkpt lat="49.29546" lon="-0.10241">
        <ele>7.9</ele>
        <time>2020-06-17T12:18:20Z</time>
      </trkpt>
      <trkpt lat="49.29546" lon="-0.1024">
        <ele>7.9</ele>
        <time>2020-06-17T12:18:21Z</time>
      </trkpt>
      <trkpt lat="49.29544" lon="-0.10239">
        <ele>7.9</ele>
        <time>2020-06-17T12:18:22Z</time>
      </trkpt>
      <trkpt lat="49.29543" lon="-0.10238">
        <ele>7.8</ele>
        <time>2020-06-17T12:18:23Z</time>
      </trkpt>
      <trkpt lat="49.29543" lon="-0.10237">
        <ele>7.8</ele>
        <time>2020-06-17T12:18:24Z</time>
      </trkpt>
      <trkpt lat="49.29542" lon="-0.10237">
        <ele>7.8</ele>
        <time>2020-06-17T12:18:25Z</time>
      </trkpt>
      <trkpt lat="49.29541" lon="-0.10235">
        <ele>7.8</ele>
        <time>2020-06-17T12:18:26Z</time>
      </trkpt>
      <trkpt lat="49.29541" lon="-0.10234">
        <ele>7.7</ele>
        <time>2020-06-17T12:18:27Z</time>
      </trkpt>
      <trkpt lat="49.2954" lon="-0.10232">
        <ele>7.7</ele>
        <time>2020-06-17T12:18:28Z</time>
      </trkpt>
      <trkpt lat="49.29539" lon="-0.10231">
        <ele>7.7</ele>
        <time>2020-06-17T12:18:29Z</time>
      </trkpt>
      <trkpt lat="49.29538" lon="-0.1023">
        <ele>7.7</ele>
        <time>2020-06-17T12:18:30Z</time>
      </trkpt>
      <trkpt lat="49.29538" lon="-0.1023">
        <ele>7.6</ele>
        <time>2020-06-17T12:18:31Z</time>
      </trkpt>
      <trkpt lat="49.29537" lon="-0.10229">
        <ele>7.6</ele>
        <time>2020-06-17T12:18:32Z</time>
      </trkpt>
      <trkpt lat="49.29537" lon="-0.10229">
        <ele>7.6</ele>
        <time>2020-06-17T12:18:33Z</time>
      </trkpt>
      <trkpt lat="49.29536" lon="-0.10229">
        <ele>7.6</ele>
        <time>2020-06-17T12:18:34Z</time>
      </trkpt>
      <trkpt lat="49.29536" lon="-0.10228">
        <ele>7.6</ele>
        <time>2020-06-17T12:18:35Z</time>
      </trkpt>
      <trkpt lat="49.29536" lon="-0.10228">
        <ele>7.6</ele>
        <time>2020-06-17T12:18:36Z</time>
      </trkpt>
      <trkpt lat="49.29535" lon="-0.10228">
        <ele>7.6</ele>
        <time>2020-06-17T12:18:37Z</time>
      </trkpt>
      <trkpt lat="49.29534" lon="-0.10227">
        <ele>7.5</ele>
        <time>2020-06-17T12:18:38Z</time>
      </trkpt>
      <trkpt lat="49.29533" lon="-0.10226">
        <ele>7.5</ele>
        <time>2020-06-17T12:18:39Z</time>
      </trkpt>
      <trkpt lat="49.29533" lon="-0.10226">
        <ele>7.5</ele>
        <time>2020-06-17T12:18:40Z</time>
      </trkpt>
      <trkpt lat="49.29532" lon="-0.10225">
        <ele>7.4</ele>
        <time>2020-06-17T12:18:41Z</time>
      </trkpt>
      <trkpt lat="49.29531" lon="-0.10224">
        <ele>7.4</ele>
        <time>2020-06-17T12:18:42Z</time>
      </trkpt>
      <trkpt lat="49.2953" lon="-0.10223">
        <ele>7.4</ele>
        <time>2020-06-17T12:18:43Z</time>
      </trkpt>
      <trkpt lat="49.29529" lon="-0.10223">
        <ele>7.4</ele>
        <time>2020-06-17T12:18:44Z</time>
      </trkpt>
      <trkpt lat="49.29528" lon="-0.10221">
        <ele>7.3</ele>
        <time>2020-06-17T12:18:45Z</time>
      </trkpt>
      <trkpt lat="49.29527" lon="-0.1022">
        <ele>7.3</ele>
        <time>2020-06-17T12:18:46Z</time>
      </trkpt>
      <trkpt lat="49.29526" lon="-0.10219">
        <ele>7.2</ele>
        <time>2020-06-17T12:18:47Z</time>
      </trkpt>
      <trkpt lat="49.29525" lon="-0.10218">
        <ele>7.2</ele>
        <time>2020-06-17T12:18:48Z</time>
      </trkpt>
      <trkpt lat="49.29524" lon="-0.10217">
        <ele>7.1</ele>
        <time>2020-06-17T12:18:49Z</time>
      </trkpt>
      <trkpt lat="49.29523" lon="-0.10216">
        <ele>7.1</ele>
        <time>2020-06-17T12:18:50Z</time>
      </trkpt>
      <trkpt lat="49.29522" lon="-0.10215">
        <ele>7.1</ele>
        <time>2020-06-17T12:18:51Z</time>
      </trkpt>
      <trkpt lat="49.29522" lon="-0.10214">
        <ele>7</ele>
        <time>2020-06-17T12:18:52Z</time>
      </trkpt>
      <trkpt lat="49.2952" lon="-0.10213">
        <ele>7</ele>
        <time>2020-06-17T12:18:53Z</time>
      </trkpt>
      <trkpt lat="49.29518" lon="-0.10212">
        <ele>6.9</ele>
        <time>2020-06-17T12:18:54Z</time>
      </trkpt>
      <trkpt lat="49.29517" lon="-0.10212">
        <ele>6.9</ele>
        <time>2020-06-17T12:18:55Z</time>
      </trkpt>
      <trkpt lat="49.29514" lon="-0.10211">
        <ele>6.8</ele>
        <time>2020-06-17T12:18:56Z</time>
      </trkpt>
      <trkpt lat="49.29514" lon="-0.1021">
        <ele>6.7</ele>
        <time>2020-06-17T12:18:57Z</time>
      </trkpt>
      <trkpt lat="49.29513" lon="-0.1021">
        <ele>6.7</ele>
        <time>2020-06-17T12:18:58Z</time>
      </trkpt>
      <trkpt lat="49.29512" lon="-0.10208">
        <ele>6.7</ele>
        <time>2020-06-17T12:18:59Z</time>
      </trkpt>
      <trkpt lat="49.29512" lon="-0.10208">
        <ele>6.7</ele>
        <time>2020-06-17T12:19:00Z</time>
      </trkpt>
      <trkpt lat="49.29511" lon="-0.10208">
        <ele>6.6</ele>
        <time>2020-06-17T12:19:01Z</time>
      </trkpt>
      <trkpt lat="49.29511" lon="-0.10207">
        <ele>6.6</ele>
        <time>2020-06-17T12:19:02Z</time>
      </trkpt>
      <trkpt lat="49.29511" lon="-0.10207">
        <ele>6.6</ele>
        <time>2020-06-17T12:19:03Z</time>
      </trkpt>
      <trkpt lat="49.2951" lon="-0.10205">
        <ele>6.6</ele>
        <time>2020-06-17T12:19:04Z</time>
      </trkpt>
      <trkpt lat="49.29511" lon="-0.10205">
        <ele>6.5</ele>
        <time>2020-06-17T12:19:05Z</time>
      </trkpt>
      <trkpt lat="49.29511" lon="-0.10205">
        <ele>6.5</ele>
        <time>2020-06-17T12:19:06Z</time>
      </trkpt>
      <trkpt lat="49.29511" lon="-0.10204">
        <ele>6.5</ele>
        <time>2020-06-17T12:19:07Z</time>
      </trkpt>
      <trkpt lat="49.2951" lon="-0.10204">
        <ele>6.5</ele>
        <time>2020-06-17T12:19:08Z</time>
      </trkpt>
      <trkpt lat="49.2951" lon="-0.10203">
        <ele>6.5</ele>
        <time>2020-06-17T12:19:09Z</time>
      </trkpt>
      <trkpt lat="49.29509" lon="-0.10202">
        <ele>6.5</ele>
        <time>2020-06-17T12:19:10Z</time>
      </trkpt>
      <trkpt lat="49.29509" lon="-0.10202">
        <ele>6.4</ele>
        <time>2020-06-17T12:19:11Z</time>
      </trkpt>
      <trkpt lat="49.29509" lon="-0.10202">
        <ele>6.4</ele>
        <time>2020-06-17T12:19:12Z</time>
      </trkpt>
      <trkpt lat="49.29508" lon="-0.10202">
        <ele>6.4</ele>
        <time>2020-06-17T12:19:13Z</time>
      </trkpt>
      <trkpt lat="49.29508" lon="-0.10201">
        <ele>6.4</ele>
        <time>2020-06-17T12:19:14Z</time>
      </trkpt>
      <trkpt lat="49.29506" lon="-0.10201">
        <ele>6.3</ele>
        <time>2020-06-17T12:19:15Z</time>
      </trkpt>
      <trkpt lat="49.29503" lon="-0.10199">
        <ele>6.2</ele>
        <time>2020-06-17T12:19:16Z</time>
      </trkpt>
      <trkpt lat="49.29502" lon="-0.10198">
        <ele>6.1</ele>
        <time>2020-06-17T12:19:17Z</time>
      </trkpt>
      <trkpt lat="49.29498" lon="-0.10196">
        <ele>6</ele>
        <time>2020-06-17T12:19:18Z</time>
      </trkpt>
      <trkpt lat="49.29497" lon="-0.10195">
        <ele>6</ele>
        <time>2020-06-17T12:19:19Z</time>
      </trkpt>
      <trkpt lat="49.29495" lon="-0.10193">
        <ele>5.9</ele>
        <time>2020-06-17T12:19:20Z</time>
      </trkpt>
      <trkpt lat="49.29492" lon="-0.10191">
        <ele>5.8</ele>
        <time>2020-06-17T12:19:21Z</time>
      </trkpt>
      <trkpt lat="49.29489" lon="-0.10187">
        <ele>5.8</ele>
        <time>2020-06-17T12:19:22Z</time>
      </trkpt>
      <trkpt lat="49.29486" lon="-0.10185">
        <ele>5.7</ele>
        <time>2020-06-17T12:19:23Z</time>
      </trkpt>
      <trkpt lat="49.29482" lon="-0.10183">
        <ele>5.6</ele>
        <time>2020-06-17T12:19:24Z</time>
      </trkpt>
      <trkpt lat="49.29478" lon="-0.10179">
        <ele>5.5</ele>
        <time>2020-06-17T12:19:25Z</time>
      </trkpt>
      <trkpt lat="49.29475" lon="-0.10177">
        <ele>5.5</ele>
        <time>2020-06-17T12:19:26Z</time>
      </trkpt>
      <trkpt lat="49.29472" lon="-0.10176">
        <ele>5.4</ele>
        <time>2020-06-17T12:19:27Z</time>
      </trkpt>
      <trkpt lat="49.29467" lon="-0.10175">
        <ele>5.6</ele>
        <time>2020-06-17T12:19:28Z</time>
      </trkpt>
      <trkpt lat="49.29463" lon="-0.10173">
        <ele>5.7</ele>
        <time>2020-06-17T12:19:29Z</time>
      </trkpt>
      <trkpt lat="49.2946" lon="-0.1017">
        <ele>5.8</ele>
        <time>2020-06-17T12:19:30Z</time>
      </trkpt>
      <trkpt lat="49.29457" lon="-0.10167">
        <ele>5.8</ele>
        <time>2020-06-17T12:19:31Z</time>
      </trkpt>
      <trkpt lat="49.29454" lon="-0.10164">
        <ele>5.9</ele>
        <time>2020-06-17T12:19:32Z</time>
      </trkpt>
      <trkpt lat="49.29451" lon="-0.10161">
        <ele>6</ele>
        <time>2020-06-17T12:19:33Z</time>
      </trkpt>
      <trkpt lat="49.29449" lon="-0.10159">
        <ele>6.1</ele>
        <time>2020-06-17T12:19:34Z</time>
      </trkpt>
      <trkpt lat="49.29446" lon="-0.10157">
        <ele>6.2</ele>
        <time>2020-06-17T12:19:35Z</time>
      </trkpt>
      <trkpt lat="49.29444" lon="-0.10154">
        <ele>6.2</ele>
        <time>2020-06-17T12:19:36Z</time>
      </trkpt>
      <trkpt lat="49.29443" lon="-0.10154">
        <ele>6.2</ele>
        <time>2020-06-17T12:19:37Z</time>
      </trkpt>
      <trkpt lat="49.2944" lon="-0.10152">
        <ele>6.3</ele>
        <time>2020-06-17T12:19:38Z</time>
      </trkpt>
      <trkpt lat="49.29439" lon="-0.10152">
        <ele>6.3</ele>
        <time>2020-06-17T12:19:39Z</time>
      </trkpt>
      <trkpt lat="49.29435" lon="-0.10151">
        <ele>6.5</ele>
        <time>2020-06-17T12:19:40Z</time>
      </trkpt>
      <trkpt lat="49.29434" lon="-0.10152">
        <ele>6.5</ele>
        <time>2020-06-17T12:19:41Z</time>
      </trkpt>
      <trkpt lat="49.29431" lon="-0.10151">
        <ele>6.6</ele>
        <time>2020-06-17T12:19:42Z</time>
      </trkpt>
      <trkpt lat="49.29427" lon="-0.10151">
        <ele>6.6</ele>
        <time>2020-06-17T12:19:43Z</time>
      </trkpt>
      <trkpt lat="49.29426" lon="-0.10151">
        <ele>6.8</ele>
        <time>2020-06-17T12:19:44Z</time>
      </trkpt>
      <trkpt lat="49.29423" lon="-0.10152">
        <ele>6.8</ele>
        <time>2020-06-17T12:19:45Z</time>
      </trkpt>
      <trkpt lat="49.2942" lon="-0.1015">
        <ele>6.8</ele>
        <time>2020-06-17T12:19:46Z</time>
      </trkpt>
      <trkpt lat="49.29417" lon="-0.10148">
        <ele>6.8</ele>
        <time>2020-06-17T12:19:47Z</time>
      </trkpt>
      <trkpt lat="49.29413" lon="-0.10146">
        <ele>6.8</ele>
        <time>2020-06-17T12:19:48Z</time>
      </trkpt>
      <trkpt lat="49.29412" lon="-0.10145">
        <ele>6.8</ele>
        <time>2020-06-17T12:19:49Z</time>
      </trkpt>
      <trkpt lat="49.29409" lon="-0.10143">
        <ele>6.8</ele>
        <time>2020-06-17T12:19:50Z</time>
      </trkpt>
      <trkpt lat="49.29407" lon="-0.10141">
        <ele>6.8</ele>
        <time>2020-06-17T12:19:51Z</time>
      </trkpt>
      <trkpt lat="49.29404" lon="-0.10139">
        <ele>6.8</ele>
        <time>2020-06-17T12:19:52Z</time>
      </trkpt>
      <trkpt lat="49.29403" lon="-0.10138">
        <ele>6.8</ele>
        <time>2020-06-17T12:19:53Z</time>
      </trkpt>
      <trkpt lat="49.294" lon="-0.10135">
        <ele>6.8</ele>
        <time>2020-06-17T12:19:54Z</time>
      </trkpt>
      <trkpt lat="49.294" lon="-0.10134">
        <ele>6.8</ele>
        <time>2020-06-17T12:19:55Z</time>
      </trkpt>
      <trkpt lat="49.29397" lon="-0.1013">
        <ele>6.8</ele>
        <time>2020-06-17T12:19:56Z</time>
      </trkpt>
      <trkpt lat="49.29396" lon="-0.10129">
        <ele>6.8</ele>
        <time>2020-06-17T12:19:57Z</time>
      </trkpt>
      <trkpt lat="49.29392" lon="-0.10127">
        <ele>6.8</ele>
        <time>2020-06-17T12:19:58Z</time>
      </trkpt>
      <trkpt lat="49.29391" lon="-0.10126">
        <ele>6.8</ele>
        <time>2020-06-17T12:19:59Z</time>
      </trkpt>
      <trkpt lat="49.29388" lon="-0.10123">
        <ele>6.7</ele>
        <time>2020-06-17T12:20:00Z</time>
      </trkpt>
      <trkpt lat="49.29386" lon="-0.10121">
        <ele>6.7</ele>
        <time>2020-06-17T12:20:01Z</time>
      </trkpt>
      <trkpt lat="49.29383" lon="-0.10118">
        <ele>6.7</ele>
        <time>2020-06-17T12:20:02Z</time>
      </trkpt>
      <trkpt lat="49.2938" lon="-0.10116">
        <ele>6.7</ele>
        <time>2020-06-17T12:20:03Z</time>
      </trkpt>
      <trkpt lat="49.29376" lon="-0.10114">
        <ele>6.7</ele>
        <time>2020-06-17T12:20:04Z</time>
      </trkpt>
      <trkpt lat="49.29373" lon="-0.1011">
        <ele>6.7</ele>
        <time>2020-06-17T12:20:05Z</time>
      </trkpt>
      <trkpt lat="49.29369" lon="-0.10108">
        <ele>6.7</ele>
        <time>2020-06-17T12:20:06Z</time>
      </trkpt>
      <trkpt lat="49.29364" lon="-0.10104">
        <ele>6.7</ele>
        <time>2020-06-17T12:20:07Z</time>
      </trkpt>
      <trkpt lat="49.29358" lon="-0.10101">
        <ele>6.7</ele>
        <time>2020-06-17T12:20:08Z</time>
      </trkpt>
      <trkpt lat="49.29352" lon="-0.10097">
        <ele>6.7</ele>
        <time>2020-06-17T12:20:09Z</time>
      </trkpt>
      <trkpt lat="49.29347" lon="-0.10095">
        <ele>6.8</ele>
        <time>2020-06-17T12:20:10Z</time>
      </trkpt>
      <trkpt lat="49.29343" lon="-0.10091">
        <ele>6.8</ele>
        <time>2020-06-17T12:20:11Z</time>
      </trkpt>
      <trkpt lat="49.2934" lon="-0.10089">
        <ele>6.8</ele>
        <time>2020-06-17T12:20:12Z</time>
      </trkpt>
      <trkpt lat="49.29336" lon="-0.10087">
        <ele>6.8</ele>
        <time>2020-06-17T12:20:13Z</time>
      </trkpt>
      <trkpt lat="49.29333" lon="-0.10082">
        <ele>6.8</ele>
        <time>2020-06-17T12:20:14Z</time>
      </trkpt>
      <trkpt lat="49.2933" lon="-0.10078">
        <ele>6.8</ele>
        <time>2020-06-17T12:20:15Z</time>
      </trkpt>
      <trkpt lat="49.29328" lon="-0.10074">
        <ele>6.8</ele>
        <time>2020-06-17T12:20:16Z</time>
      </trkpt>
      <trkpt lat="49.29325" lon="-0.10071">
        <ele>6.8</ele>
        <time>2020-06-17T12:20:17Z</time>
      </trkpt>
      <trkpt lat="49.29322" lon="-0.10068">
        <ele>6.8</ele>
        <time>2020-06-17T12:20:18Z</time>
      </trkpt>
      <trkpt lat="49.29319" lon="-0.10066">
        <ele>6.8</ele>
        <time>2020-06-17T12:20:19Z</time>
      </trkpt>
      <trkpt lat="49.29316" lon="-0.10063">
        <ele>6.8</ele>
        <time>2020-06-17T12:20:20Z</time>
      </trkpt>
      <trkpt lat="49.29313" lon="-0.10061">
        <ele>6.8</ele>
        <time>2020-06-17T12:20:21Z</time>
      </trkpt>
      <trkpt lat="49.2931" lon="-0.10058">
        <ele>6.8</ele>
        <time>2020-06-17T12:20:22Z</time>
      </trkpt>
      <trkpt lat="49.29309" lon="-0.10056">
        <ele>6.8</ele>
        <time>2020-06-17T12:20:23Z</time>
      </trkpt>
      <trkpt lat="49.29305" lon="-0.10054">
        <ele>6.8</ele>
        <time>2020-06-17T12:20:24Z</time>
      </trkpt>
      <trkpt lat="49.29302" lon="-0.10053">
        <ele>6.8</ele>
        <time>2020-06-17T12:20:25Z</time>
      </trkpt>
      <trkpt lat="49.29297" lon="-0.10053">
        <ele>6.8</ele>
        <time>2020-06-17T12:20:26Z</time>
      </trkpt>
      <trkpt lat="49.29293" lon="-0.10051">
        <ele>6.8</ele>
        <time>2020-06-17T12:20:27Z</time>
      </trkpt>
      <trkpt lat="49.2929" lon="-0.1005">
        <ele>6.8</ele>
        <time>2020-06-17T12:20:28Z</time>
      </trkpt>
      <trkpt lat="49.29286" lon="-0.10048">
        <ele>6.7</ele>
        <time>2020-06-17T12:20:29Z</time>
      </trkpt>
      <trkpt lat="49.29282" lon="-0.10046">
        <ele>6.7</ele>
        <time>2020-06-17T12:20:30Z</time>
      </trkpt>
      <trkpt lat="49.29277" lon="-0.10046">
        <ele>6.6</ele>
        <time>2020-06-17T12:20:31Z</time>
      </trkpt>
      <trkpt lat="49.29273" lon="-0.10044">
        <ele>6.5</ele>
        <time>2020-06-17T12:20:32Z</time>
      </trkpt>
      <trkpt lat="49.2927" lon="-0.10042">
        <ele>6.4</ele>
        <time>2020-06-17T12:20:33Z</time>
      </trkpt>
      <trkpt lat="49.29267" lon="-0.10039">
        <ele>6.3</ele>
        <time>2020-06-17T12:20:34Z</time>
      </trkpt>
      <trkpt lat="49.29263" lon="-0.10037">
        <ele>6.2</ele>
        <time>2020-06-17T12:20:35Z</time>
      </trkpt>
      <trkpt lat="49.29259" lon="-0.10034">
        <ele>6.1</ele>
        <time>2020-06-17T12:20:36Z</time>
      </trkpt>
      <trkpt lat="49.29255" lon="-0.10032">
        <ele>5.9</ele>
        <time>2020-06-17T12:20:37Z</time>
      </trkpt>
      <trkpt lat="49.2925" lon="-0.1003">
        <ele>5.7</ele>
        <time>2020-06-17T12:20:38Z</time>
      </trkpt>
      <trkpt lat="49.29246" lon="-0.1003">
        <ele>5.6</ele>
        <time>2020-06-17T12:20:39Z</time>
      </trkpt>
      <trkpt lat="49.2924" lon="-0.10029">
        <ele>5.4</ele>
        <time>2020-06-17T12:20:40Z</time>
      </trkpt>
      <trkpt lat="49.29236" lon="-0.10028">
        <ele>5.2</ele>
        <time>2020-06-17T12:20:41Z</time>
      </trkpt>
      <trkpt lat="49.29232" lon="-0.10028">
        <ele>5</ele>
        <time>2020-06-17T12:20:42Z</time>
      </trkpt>
      <trkpt lat="49.29226" lon="-0.10028">
        <ele>4.8</ele>
        <time>2020-06-17T12:20:43Z</time>
      </trkpt>
      <trkpt lat="49.29221" lon="-0.10029">
        <ele>4.6</ele>
        <time>2020-06-17T12:20:44Z</time>
      </trkpt>
      <trkpt lat="49.29215" lon="-0.10029">
        <ele>4.5</ele>
        <time>2020-06-17T12:20:45Z</time>
      </trkpt>
      <trkpt lat="49.29211" lon="-0.10028">
        <ele>4.4</ele>
        <time>2020-06-17T12:20:46Z</time>
      </trkpt>
      <trkpt lat="49.29207" lon="-0.10026">
        <ele>4.3</ele>
        <time>2020-06-17T12:20:47Z</time>
      </trkpt>
      <trkpt lat="49.29203" lon="-0.10023">
        <ele>4.3</ele>
        <time>2020-06-17T12:20:48Z</time>
      </trkpt>
      <trkpt lat="49.29199" lon="-0.10021">
        <ele>4.2</ele>
        <time>2020-06-17T12:20:49Z</time>
      </trkpt>
      <trkpt lat="49.29194" lon="-0.10019">
        <ele>4.2</ele>
        <time>2020-06-17T12:20:50Z</time>
      </trkpt>
      <trkpt lat="49.29189" lon="-0.10018">
        <ele>4.2</ele>
        <time>2020-06-17T12:20:51Z</time>
      </trkpt>
      <trkpt lat="49.29185" lon="-0.10016">
        <ele>4.1</ele>
        <time>2020-06-17T12:20:52Z</time>
      </trkpt>
      <trkpt lat="49.29181" lon="-0.10014">
        <ele>4.1</ele>
        <time>2020-06-17T12:20:53Z</time>
      </trkpt>
      <trkpt lat="49.29177" lon="-0.10013">
        <ele>4.1</ele>
        <time>2020-06-17T12:20:54Z</time>
      </trkpt>
      <trkpt lat="49.29174" lon="-0.10013">
        <ele>4.1</ele>
        <time>2020-06-17T12:20:55Z</time>
      </trkpt>
      <trkpt lat="49.29171" lon="-0.10014">
        <ele>4</ele>
        <time>2020-06-17T12:20:56Z</time>
      </trkpt>
      <trkpt lat="49.29168" lon="-0.10016">
        <ele>4</ele>
        <time>2020-06-17T12:20:57Z</time>
      </trkpt>
      <trkpt lat="49.29165" lon="-0.10018">
        <ele>4</ele>
        <time>2020-06-17T12:20:58Z</time>
      </trkpt>
      <trkpt lat="49.29162" lon="-0.10018">
        <ele>4</ele>
        <time>2020-06-17T12:20:59Z</time>
      </trkpt>
      <trkpt lat="49.29159" lon="-0.10017">
        <ele>4</ele>
        <time>2020-06-17T12:21:00Z</time>
      </trkpt>
      <trkpt lat="49.29158" lon="-0.10016">
        <ele>4</ele>
        <time>2020-06-17T12:21:01Z</time>
      </trkpt>
      <trkpt lat="49.29157" lon="-0.10016">
        <ele>4</ele>
        <time>2020-06-17T12:21:02Z</time>
      </trkpt>
      <trkpt lat="49.29156" lon="-0.10016">
        <ele>4</ele>
        <time>2020-06-17T12:21:03Z</time>
      </trkpt>
      <trkpt lat="49.29155" lon="-0.10017">
        <ele>4</ele>
        <time>2020-06-17T12:21:04Z</time>
      </trkpt>
      <trkpt lat="49.29153" lon="-0.10018">
        <ele>4</ele>
        <time>2020-06-17T12:21:05Z</time>
      </trkpt>
      <trkpt lat="49.29152" lon="-0.10017">
        <ele>4</ele>
        <time>2020-06-17T12:21:06Z</time>
      </trkpt>
      <trkpt lat="49.29152" lon="-0.10017">
        <ele>4</ele>
        <time>2020-06-17T12:21:07Z</time>
      </trkpt>
      <trkpt lat="49.29151" lon="-0.10017">
        <ele>4</ele>
        <time>2020-06-17T12:21:08Z</time>
      </trkpt>
      <trkpt lat="49.29151" lon="-0.10016">
        <ele>4</ele>
        <time>2020-06-17T12:21:09Z</time>
      </trkpt>
      <trkpt lat="49.29152" lon="-0.10015">
        <ele>4</ele>
        <time>2020-06-17T12:21:10Z</time>
      </trkpt>
      <trkpt lat="49.29153" lon="-0.10014">
        <ele>4</ele>
        <time>2020-06-17T12:21:11Z</time>
      </trkpt>
      <trkpt lat="49.29154" lon="-0.10013">
        <ele>4</ele>
        <time>2020-06-17T12:21:12Z</time>
      </trkpt>
      <trkpt lat="49.29156" lon="-0.10009">
        <ele>4</ele>
        <time>2020-06-17T12:21:13Z</time>
      </trkpt>
      <trkpt lat="49.29159" lon="-0.10004">
        <ele>4</ele>
        <time>2020-06-17T12:21:14Z</time>
      </trkpt>
      <trkpt lat="49.29162" lon="-0.09999">
        <ele>4</ele>
        <time>2020-06-17T12:21:15Z</time>
      </trkpt>
      <trkpt lat="49.29164" lon="-0.09994">
        <ele>4</ele>
        <time>2020-06-17T12:21:16Z</time>
      </trkpt>
      <trkpt lat="49.29167" lon="-0.0999">
        <ele>4</ele>
        <time>2020-06-17T12:21:17Z</time>
      </trkpt>
      <trkpt lat="49.2917" lon="-0.09984">
        <ele>4</ele>
        <time>2020-06-17T12:21:18Z</time>
      </trkpt>
      <trkpt lat="49.29173" lon="-0.09979">
        <ele>4</ele>
        <time>2020-06-17T12:21:19Z</time>
      </trkpt>
      <trkpt lat="49.29176" lon="-0.09974">
        <ele>4</ele>
        <time>2020-06-17T12:21:20Z</time>
      </trkpt>
      <trkpt lat="49.29179" lon="-0.09969">
        <ele>4</ele>
        <time>2020-06-17T12:21:21Z</time>
      </trkpt>
      <trkpt lat="49.29183" lon="-0.09965">
        <ele>4</ele>
        <time>2020-06-17T12:21:22Z</time>
      </trkpt>
      <trkpt lat="49.29186" lon="-0.09961">
        <ele>4</ele>
        <time>2020-06-17T12:21:23Z</time>
      </trkpt>
      <trkpt lat="49.29189" lon="-0.09955">
        <ele>4</ele>
        <time>2020-06-17T12:21:24Z</time>
      </trkpt>
      <trkpt lat="49.29191" lon="-0.09949">
        <ele>4</ele>
        <time>2020-06-17T12:21:25Z</time>
      </trkpt>
      <trkpt lat="49.29195" lon="-0.09944">
        <ele>4</ele>
        <time>2020-06-17T12:21:26Z</time>
      </trkpt>
      <trkpt lat="49.29198" lon="-0.09939">
        <ele>4.1</ele>
        <time>2020-06-17T12:21:27Z</time>
      </trkpt>
      <trkpt lat="49.292" lon="-0.09934">
        <ele>4.1</ele>
        <time>2020-06-17T12:21:28Z</time>
      </trkpt>
      <trkpt lat="49.29204" lon="-0.09927">
        <ele>4.1</ele>
        <time>2020-06-17T12:21:29Z</time>
      </trkpt>
      <trkpt lat="49.29207" lon="-0.09921">
        <ele>4.1</ele>
        <time>2020-06-17T12:21:30Z</time>
      </trkpt>
      <trkpt lat="49.2921" lon="-0.09915">
        <ele>4.1</ele>
        <time>2020-06-17T12:21:31Z</time>
      </trkpt>
      <trkpt lat="49.29212" lon="-0.09909">
        <ele>4.2</ele>
        <time>2020-06-17T12:21:32Z</time>
      </trkpt>
      <trkpt lat="49.29215" lon="-0.09904">
        <ele>4.2</ele>
        <time>2020-06-17T12:21:33Z</time>
      </trkpt>
      <trkpt lat="49.29218" lon="-0.09899">
        <ele>4.2</ele>
        <time>2020-06-17T12:21:34Z</time>
      </trkpt>
      <trkpt lat="49.29222" lon="-0.09894">
        <ele>4.2</ele>
        <time>2020-06-17T12:21:35Z</time>
      </trkpt>
      <trkpt lat="49.29224" lon="-0.09889">
        <ele>4.2</ele>
        <time>2020-06-17T12:21:36Z</time>
      </trkpt>
      <trkpt lat="49.29226" lon="-0.09883">
        <ele>4.2</ele>
        <time>2020-06-17T12:21:37Z</time>
      </trkpt>
      <trkpt lat="49.29228" lon="-0.09877">
        <ele>4.2</ele>
        <time>2020-06-17T12:21:38Z</time>
      </trkpt>
      <trkpt lat="49.29231" lon="-0.09872">
        <ele>4.2</ele>
        <time>2020-06-17T12:21:39Z</time>
      </trkpt>
      <trkpt lat="49.29234" lon="-0.09866">
        <ele>4.2</ele>
        <time>2020-06-17T12:21:40Z</time>
      </trkpt>
      <trkpt lat="49.29237" lon="-0.0986">
        <ele>4.2</ele>
        <time>2020-06-17T12:21:41Z</time>
      </trkpt>
      <trkpt lat="49.29239" lon="-0.09854">
        <ele>4.2</ele>
        <time>2020-06-17T12:21:42Z</time>
      </trkpt>
      <trkpt lat="49.29242" lon="-0.09847">
        <ele>4.2</ele>
        <time>2020-06-17T12:21:43Z</time>
      </trkpt>
      <trkpt lat="49.29245" lon="-0.0984">
        <ele>4.2</ele>
        <time>2020-06-17T12:21:44Z</time>
      </trkpt>
      <trkpt lat="49.29248" lon="-0.09834">
        <ele>4.2</ele>
        <time>2020-06-17T12:21:45Z</time>
      </trkpt>
      <trkpt lat="49.2925" lon="-0.09827">
        <ele>4.2</ele>
        <time>2020-06-17T12:21:46Z</time>
      </trkpt>
      <trkpt lat="49.29252" lon="-0.09821">
        <ele>4.2</ele>
        <time>2020-06-17T12:21:47Z</time>
      </trkpt>
      <trkpt lat="49.29254" lon="-0.09814">
        <ele>4.1</ele>
        <time>2020-06-17T12:21:48Z</time>
      </trkpt>
      <trkpt lat="49.29256" lon="-0.09807">
        <ele>4.1</ele>
        <time>2020-06-17T12:21:49Z</time>
      </trkpt>
      <trkpt lat="49.29257" lon="-0.098">
        <ele>4.1</ele>
        <time>2020-06-17T12:21:50Z</time>
      </trkpt>
      <trkpt lat="49.29259" lon="-0.09793">
        <ele>4.1</ele>
        <time>2020-06-17T12:21:51Z</time>
      </trkpt>
      <trkpt lat="49.29261" lon="-0.09787">
        <ele>4.1</ele>
        <time>2020-06-17T12:21:52Z</time>
      </trkpt>
      <trkpt lat="49.29262" lon="-0.09781">
        <ele>4.1</ele>
        <time>2020-06-17T12:21:53Z</time>
      </trkpt>
      <trkpt lat="49.29264" lon="-0.09774">
        <ele>4.2</ele>
        <time>2020-06-17T12:21:54Z</time>
      </trkpt>
      <trkpt lat="49.29266" lon="-0.09767">
        <ele>4.2</ele>
        <time>2020-06-17T12:21:55Z</time>
      </trkpt>
      <trkpt lat="49.29268" lon="-0.0976">
        <ele>4.3</ele>
        <time>2020-06-17T12:21:56Z</time>
      </trkpt>
      <trkpt lat="49.2927" lon="-0.09754">
        <ele>4.3</ele>
        <time>2020-06-17T12:21:57Z</time>
      </trkpt>
      <trkpt lat="49.29272" lon="-0.09747">
        <ele>4.3</ele>
        <time>2020-06-17T12:21:58Z</time>
      </trkpt>
      <trkpt lat="49.29274" lon="-0.09741">
        <ele>4.3</ele>
        <time>2020-06-17T12:21:59Z</time>
      </trkpt>
      <trkpt lat="49.29276" lon="-0.09734">
        <ele>4.3</ele>
        <time>2020-06-17T12:22:00Z</time>
      </trkpt>
      <trkpt lat="49.29278" lon="-0.09728">
        <ele>4.3</ele>
        <time>2020-06-17T12:22:01Z</time>
      </trkpt>
      <trkpt lat="49.2928" lon="-0.09721">
        <ele>4.3</ele>
        <time>2020-06-17T12:22:02Z</time>
      </trkpt>
      <trkpt lat="49.29283" lon="-0.09712">
        <ele>4.2</ele>
        <time>2020-06-17T12:22:03Z</time>
      </trkpt>
      <trkpt lat="49.29285" lon="-0.09704">
        <ele>4.2</ele>
        <time>2020-06-17T12:22:04Z</time>
      </trkpt>
      <trkpt lat="49.29287" lon="-0.09696">
        <ele>4.2</ele>
        <time>2020-06-17T12:22:05Z</time>
      </trkpt>
      <trkpt lat="49.2929" lon="-0.09687">
        <ele>4.2</ele>
        <time>2020-06-17T12:22:06Z</time>
      </trkpt>
      <trkpt lat="49.29292" lon="-0.0968">
        <ele>4.2</ele>
        <time>2020-06-17T12:22:07Z</time>
      </trkpt>
      <trkpt lat="49.29295" lon="-0.09672">
        <ele>4.2</ele>
        <time>2020-06-17T12:22:08Z</time>
      </trkpt>
      <trkpt lat="49.29297" lon="-0.09665">
        <ele>4.2</ele>
        <time>2020-06-17T12:22:09Z</time>
      </trkpt>
      <trkpt lat="49.29298" lon="-0.09657">
        <ele>4.2</ele>
        <time>2020-06-17T12:22:10Z</time>
      </trkpt>
      <trkpt lat="49.293" lon="-0.0965">
        <ele>4.2</ele>
        <time>2020-06-17T12:22:11Z</time>
      </trkpt>
      <trkpt lat="49.29302" lon="-0.09643">
        <ele>4.2</ele>
        <time>2020-06-17T12:22:12Z</time>
      </trkpt>
      <trkpt lat="49.29304" lon="-0.09636">
        <ele>4.2</ele>
        <time>2020-06-17T12:22:13Z</time>
      </trkpt>
      <trkpt lat="49.29306" lon="-0.09628">
        <ele>4.2</ele>
        <time>2020-06-17T12:22:14Z</time>
      </trkpt>
      <trkpt lat="49.29308" lon="-0.0962">
        <ele>4.2</ele>
        <time>2020-06-17T12:22:15Z</time>
      </trkpt>
      <trkpt lat="49.29311" lon="-0.09612">
        <ele>4.2</ele>
        <time>2020-06-17T12:22:16Z</time>
      </trkpt>
      <trkpt lat="49.29313" lon="-0.09604">
        <ele>4.2</ele>
        <time>2020-06-17T12:22:17Z</time>
      </trkpt>
      <trkpt lat="49.29316" lon="-0.09596">
        <ele>4.1</ele>
        <time>2020-06-17T12:22:18Z</time>
      </trkpt>
      <trkpt lat="49.29319" lon="-0.09588">
        <ele>4.1</ele>
        <time>2020-06-17T12:22:19Z</time>
      </trkpt>
      <trkpt lat="49.2932" lon="-0.09581">
        <ele>4.1</ele>
        <time>2020-06-17T12:22:20Z</time>
      </trkpt>
      <trkpt lat="49.29322" lon="-0.09574">
        <ele>4.1</ele>
        <time>2020-06-17T12:22:21Z</time>
      </trkpt>
      <trkpt lat="49.29324" lon="-0.09567">
        <ele>4.1</ele>
        <time>2020-06-17T12:22:22Z</time>
      </trkpt>
      <trkpt lat="49.29326" lon="-0.0956">
        <ele>4.1</ele>
        <time>2020-06-17T12:22:23Z</time>
      </trkpt>
      <trkpt lat="49.29328" lon="-0.09552">
        <ele>4</ele>
        <time>2020-06-17T12:22:24Z</time>
      </trkpt>
      <trkpt lat="49.2933" lon="-0.09545">
        <ele>4</ele>
        <time>2020-06-17T12:22:25Z</time>
      </trkpt>
      <trkpt lat="49.29332" lon="-0.09538">
        <ele>4</ele>
        <time>2020-06-17T12:22:26Z</time>
      </trkpt>
      <trkpt lat="49.29334" lon="-0.0953">
        <ele>4.1</ele>
        <time>2020-06-17T12:22:27Z</time>
      </trkpt>
      <trkpt lat="49.29336" lon="-0.09523">
        <ele>4.1</ele>
        <time>2020-06-17T12:22:28Z</time>
      </trkpt>
      <trkpt lat="49.29337" lon="-0.09516">
        <ele>4.1</ele>
        <time>2020-06-17T12:22:29Z</time>
      </trkpt>
      <trkpt lat="49.29339" lon="-0.09509">
        <ele>4.2</ele>
        <time>2020-06-17T12:22:30Z</time>
      </trkpt>
      <trkpt lat="49.29341" lon="-0.09502">
        <ele>4.2</ele>
        <time>2020-06-17T12:22:31Z</time>
      </trkpt>
      <trkpt lat="49.29343" lon="-0.09495">
        <ele>4.1</ele>
        <time>2020-06-17T12:22:32Z</time>
      </trkpt>
      <trkpt lat="49.29345" lon="-0.09489">
        <ele>4.1</ele>
        <time>2020-06-17T12:22:33Z</time>
      </trkpt>
      <trkpt lat="49.29346" lon="-0.09482">
        <ele>4.1</ele>
        <time>2020-06-17T12:22:34Z</time>
      </trkpt>
      <trkpt lat="49.29348" lon="-0.09475">
        <ele>4.1</ele>
        <time>2020-06-17T12:22:35Z</time>
      </trkpt>
      <trkpt lat="49.2935" lon="-0.09468">
        <ele>4.1</ele>
        <time>2020-06-17T12:22:36Z</time>
      </trkpt>
      <trkpt lat="49.29353" lon="-0.0946">
        <ele>4.1</ele>
        <time>2020-06-17T12:22:37Z</time>
      </trkpt>
      <trkpt lat="49.29355" lon="-0.09453">
        <ele>4.1</ele>
        <time>2020-06-17T12:22:38Z</time>
      </trkpt>
      <trkpt lat="49.29357" lon="-0.09445">
        <ele>4.1</ele>
        <time>2020-06-17T12:22:39Z</time>
      </trkpt>
      <trkpt lat="49.29359" lon="-0.09437">
        <ele>4.1</ele>
        <time>2020-06-17T12:22:40Z</time>
      </trkpt>
      <trkpt lat="49.29361" lon="-0.0943">
        <ele>4.1</ele>
        <time>2020-06-17T12:22:41Z</time>
      </trkpt>
      <trkpt lat="49.29363" lon="-0.09423">
        <ele>4.1</ele>
        <time>2020-06-17T12:22:42Z</time>
      </trkpt>
      <trkpt lat="49.29365" lon="-0.09416">
        <ele>4.1</ele>
        <time>2020-06-17T12:22:43Z</time>
      </trkpt>
      <trkpt lat="49.29367" lon="-0.09408">
        <ele>4.1</ele>
        <time>2020-06-17T12:22:44Z</time>
      </trkpt>
      <trkpt lat="49.29368" lon="-0.09401">
        <ele>4.1</ele>
        <time>2020-06-17T12:22:45Z</time>
      </trkpt>
      <trkpt lat="49.2937" lon="-0.09396">
        <ele>4.1</ele>
        <time>2020-06-17T12:22:46Z</time>
      </trkpt>
      <trkpt lat="49.29372" lon="-0.09389">
        <ele>4.1</ele>
        <time>2020-06-17T12:22:47Z</time>
      </trkpt>
      <trkpt lat="49.29374" lon="-0.09382">
        <ele>4.1</ele>
        <time>2020-06-17T12:22:48Z</time>
      </trkpt>
      <trkpt lat="49.29377" lon="-0.09375">
        <ele>4.1</ele>
        <time>2020-06-17T12:22:49Z</time>
      </trkpt>
      <trkpt lat="49.29378" lon="-0.09369">
        <ele>4.1</ele>
        <time>2020-06-17T12:22:50Z</time>
      </trkpt>
      <trkpt lat="49.2938" lon="-0.09362">
        <ele>4.1</ele>
        <time>2020-06-17T12:22:51Z</time>
      </trkpt>
      <trkpt lat="49.29383" lon="-0.09355">
        <ele>4.2</ele>
        <time>2020-06-17T12:22:52Z</time>
      </trkpt>
      <trkpt lat="49.29385" lon="-0.09348">
        <ele>4.2</ele>
        <time>2020-06-17T12:22:53Z</time>
      </trkpt>
      <trkpt lat="49.29387" lon="-0.09341">
        <ele>4.2</ele>
        <time>2020-06-17T12:22:54Z</time>
      </trkpt>
      <trkpt lat="49.29388" lon="-0.09335">
        <ele>4.2</ele>
        <time>2020-06-17T12:22:55Z</time>
      </trkpt>
      <trkpt lat="49.29389" lon="-0.09331">
        <ele>4.2</ele>
        <time>2020-06-17T12:22:56Z</time>
      </trkpt>
      <trkpt lat="49.29391" lon="-0.09326">
        <ele>4.2</ele>
        <time>2020-06-17T12:22:57Z</time>
      </trkpt>
      <trkpt lat="49.29392" lon="-0.09324">
        <ele>4.3</ele>
        <time>2020-06-17T12:22:58Z</time>
      </trkpt>
      <trkpt lat="49.29394" lon="-0.09319">
        <ele>4.2</ele>
        <time>2020-06-17T12:22:59Z</time>
      </trkpt>
      <trkpt lat="49.29395" lon="-0.09318">
        <ele>4.2</ele>
        <time>2020-06-17T12:23:00Z</time>
      </trkpt>
      <trkpt lat="49.29398" lon="-0.09313">
        <ele>4.2</ele>
        <time>2020-06-17T12:23:01Z</time>
      </trkpt>
      <trkpt lat="49.29398" lon="-0.09312">
        <ele>4.2</ele>
        <time>2020-06-17T12:23:02Z</time>
      </trkpt>
      <trkpt lat="49.294" lon="-0.09308">
        <ele>4.2</ele>
        <time>2020-06-17T12:23:03Z</time>
      </trkpt>
      <trkpt lat="49.29402" lon="-0.09305">
        <ele>4.2</ele>
        <time>2020-06-17T12:23:04Z</time>
      </trkpt>
      <trkpt lat="49.29404" lon="-0.09301">
        <ele>4.2</ele>
        <time>2020-06-17T12:23:05Z</time>
      </trkpt>
      <trkpt lat="49.29406" lon="-0.09297">
        <ele>4.2</ele>
        <time>2020-06-17T12:23:06Z</time>
      </trkpt>
      <trkpt lat="49.29407" lon="-0.09295">
        <ele>4.2</ele>
        <time>2020-06-17T12:23:07Z</time>
      </trkpt>
      <trkpt lat="49.29408" lon="-0.09294">
        <ele>4.2</ele>
        <time>2020-06-17T12:23:08Z</time>
      </trkpt>
      <trkpt lat="49.2941" lon="-0.09293">
        <ele>4.2</ele>
        <time>2020-06-17T12:23:09Z</time>
      </trkpt>
      <trkpt lat="49.29413" lon="-0.09291">
        <ele>4.1</ele>
        <time>2020-06-17T12:23:10Z</time>
      </trkpt>
      <trkpt lat="49.29413" lon="-0.0929">
        <ele>4.1</ele>
        <time>2020-06-17T12:23:11Z</time>
      </trkpt>
      <trkpt lat="49.29414" lon="-0.0929">
        <ele>4.1</ele>
        <time>2020-06-17T12:23:12Z</time>
      </trkpt>
      <trkpt lat="49.29415" lon="-0.0929">
        <ele>4.1</ele>
        <time>2020-06-17T12:23:13Z</time>
      </trkpt>
      <trkpt lat="49.29416" lon="-0.0929">
        <ele>4.1</ele>
        <time>2020-06-17T12:23:14Z</time>
      </trkpt>
      <trkpt lat="49.29417" lon="-0.09288">
        <ele>4.1</ele>
        <time>2020-06-17T12:23:15Z</time>
      </trkpt>
      <trkpt lat="49.29419" lon="-0.09286">
        <ele>4.1</ele>
        <time>2020-06-17T12:23:16Z</time>
      </trkpt>
      <trkpt lat="49.2942" lon="-0.09282">
        <ele>4.1</ele>
        <time>2020-06-17T12:23:17Z</time>
      </trkpt>
      <trkpt lat="49.29421" lon="-0.09277">
        <ele>4.1</ele>
        <time>2020-06-17T12:23:18Z</time>
      </trkpt>
      <trkpt lat="49.29421" lon="-0.09275">
        <ele>4.1</ele>
        <time>2020-06-17T12:23:19Z</time>
      </trkpt>
      <trkpt lat="49.29421" lon="-0.09269">
        <ele>4.1</ele>
        <time>2020-06-17T12:23:20Z</time>
      </trkpt>
      <trkpt lat="49.29421" lon="-0.09267">
        <ele>4.1</ele>
        <time>2020-06-17T12:23:21Z</time>
      </trkpt>
      <trkpt lat="49.2942" lon="-0.09262">
        <ele>4.1</ele>
        <time>2020-06-17T12:23:22Z</time>
      </trkpt>
      <trkpt lat="49.29421" lon="-0.09258">
        <ele>4.1</ele>
        <time>2020-06-17T12:23:23Z</time>
      </trkpt>
      <trkpt lat="49.29421" lon="-0.09252">
        <ele>4.1</ele>
        <time>2020-06-17T12:23:24Z</time>
      </trkpt>
      <trkpt lat="49.29421" lon="-0.09246">
        <ele>4.2</ele>
        <time>2020-06-17T12:23:25Z</time>
      </trkpt>
      <trkpt lat="49.2942" lon="-0.09239">
        <ele>4.2</ele>
        <time>2020-06-17T12:23:26Z</time>
      </trkpt>
      <trkpt lat="49.2942" lon="-0.09233">
        <ele>4.2</ele>
        <time>2020-06-17T12:23:27Z</time>
      </trkpt>
      <trkpt lat="49.2942" lon="-0.09227">
        <ele>4.2</ele>
        <time>2020-06-17T12:23:28Z</time>
      </trkpt>
      <trkpt lat="49.29421" lon="-0.0922">
        <ele>4.2</ele>
        <time>2020-06-17T12:23:29Z</time>
      </trkpt>
      <trkpt lat="49.29423" lon="-0.09213">
        <ele>4.2</ele>
        <time>2020-06-17T12:23:30Z</time>
      </trkpt>
      <trkpt lat="49.29425" lon="-0.09206">
        <ele>4.1</ele>
        <time>2020-06-17T12:23:31Z</time>
      </trkpt>
      <trkpt lat="49.29426" lon="-0.092">
        <ele>4.1</ele>
        <time>2020-06-17T12:23:32Z</time>
      </trkpt>
      <trkpt lat="49.29428" lon="-0.09193">
        <ele>4.1</ele>
        <time>2020-06-17T12:23:33Z</time>
      </trkpt>
      <trkpt lat="49.2943" lon="-0.09185">
        <ele>4</ele>
        <time>2020-06-17T12:23:34Z</time>
      </trkpt>
      <trkpt lat="49.29432" lon="-0.09179">
        <ele>4</ele>
        <time>2020-06-17T12:23:35Z</time>
      </trkpt>
      <trkpt lat="49.29433" lon="-0.09173">
        <ele>4</ele>
        <time>2020-06-17T12:23:36Z</time>
      </trkpt>
      <trkpt lat="49.29434" lon="-0.09167">
        <ele>4</ele>
        <time>2020-06-17T12:23:37Z</time>
      </trkpt>
      <trkpt lat="49.29435" lon="-0.09161">
        <ele>4</ele>
        <time>2020-06-17T12:23:38Z</time>
      </trkpt>
      <trkpt lat="49.29437" lon="-0.09154">
        <ele>4</ele>
        <time>2020-06-17T12:23:39Z</time>
      </trkpt>
      <trkpt lat="49.29439" lon="-0.09147">
        <ele>4.1</ele>
        <time>2020-06-17T12:23:40Z</time>
      </trkpt>
      <trkpt lat="49.29441" lon="-0.0914">
        <ele>4.1</ele>
        <time>2020-06-17T12:23:41Z</time>
      </trkpt>
      <trkpt lat="49.29443" lon="-0.09135">
        <ele>4.2</ele>
        <time>2020-06-17T12:23:42Z</time>
      </trkpt>
      <trkpt lat="49.29446" lon="-0.09128">
        <ele>4.3</ele>
        <time>2020-06-17T12:23:43Z</time>
      </trkpt>
      <trkpt lat="49.29449" lon="-0.09121">
        <ele>4.4</ele>
        <time>2020-06-17T12:23:44Z</time>
      </trkpt>
      <trkpt lat="49.29451" lon="-0.09114">
        <ele>4.5</ele>
        <time>2020-06-17T12:23:45Z</time>
      </trkpt>
      <trkpt lat="49.29451" lon="-0.09105">
        <ele>4.7</ele>
        <time>2020-06-17T12:23:46Z</time>
      </trkpt>
      <trkpt lat="49.29451" lon="-0.09098">
        <ele>4.8</ele>
        <time>2020-06-17T12:23:47Z</time>
      </trkpt>
      <trkpt lat="49.29452" lon="-0.09091">
        <ele>4.9</ele>
        <time>2020-06-17T12:23:48Z</time>
      </trkpt>
      <trkpt lat="49.29453" lon="-0.09085">
        <ele>5</ele>
        <time>2020-06-17T12:23:49Z</time>
      </trkpt>
      <trkpt lat="49.29453" lon="-0.0908">
        <ele>5.1</ele>
        <time>2020-06-17T12:23:50Z</time>
      </trkpt>
      <trkpt lat="49.29454" lon="-0.09076">
        <ele>5.2</ele>
        <time>2020-06-17T12:23:51Z</time>
      </trkpt>
      <trkpt lat="49.29456" lon="-0.09072">
        <ele>5.3</ele>
        <time>2020-06-17T12:23:52Z</time>
      </trkpt>
      <trkpt lat="49.29458" lon="-0.09067">
        <ele>5.4</ele>
        <time>2020-06-17T12:23:53Z</time>
      </trkpt>
      <trkpt lat="49.29458" lon="-0.09066">
        <ele>5.5</ele>
        <time>2020-06-17T12:23:54Z</time>
      </trkpt>
      <trkpt lat="49.29459" lon="-0.09064">
        <ele>5.5</ele>
        <time>2020-06-17T12:23:55Z</time>
      </trkpt>
      <trkpt lat="49.29458" lon="-0.09061">
        <ele>5.5</ele>
        <time>2020-06-17T12:23:56Z</time>
      </trkpt>
      <trkpt lat="49.29455" lon="-0.09058">
        <ele>5.5</ele>
        <time>2020-06-17T12:23:57Z</time>
      </trkpt>
      <trkpt lat="49.29454" lon="-0.09057">
        <ele>5.5</ele>
        <time>2020-06-17T12:23:58Z</time>
      </trkpt>
      <trkpt lat="49.29452" lon="-0.09055">
        <ele>5.5</ele>
        <time>2020-06-17T12:23:59Z</time>
      </trkpt>
      <trkpt lat="49.29451" lon="-0.09054">
        <ele>5.5</ele>
        <time>2020-06-17T12:24:00Z</time>
      </trkpt>
      <trkpt lat="49.2945" lon="-0.09051">
        <ele>5.5</ele>
        <time>2020-06-17T12:24:01Z</time>
      </trkpt>
      <trkpt lat="49.29449" lon="-0.0905">
        <ele>5.5</ele>
        <time>2020-06-17T12:24:02Z</time>
      </trkpt>
      <trkpt lat="49.29447" lon="-0.0905">
        <ele>5.5</ele>
        <time>2020-06-17T12:24:03Z</time>
      </trkpt>
      <trkpt lat="49.29445" lon="-0.0905">
        <ele>5.5</ele>
        <time>2020-06-17T12:24:04Z</time>
      </trkpt>
      <trkpt lat="49.29442" lon="-0.09049">
        <ele>5.5</ele>
        <time>2020-06-17T12:24:05Z</time>
      </trkpt>
      <trkpt lat="49.29441" lon="-0.09049">
        <ele>5.2</ele>
        <time>2020-06-17T12:24:06Z</time>
      </trkpt>
      <trkpt lat="49.29438" lon="-0.09049">
        <ele>5.1</ele>
        <time>2020-06-17T12:24:07Z</time>
      </trkpt>
      <trkpt lat="49.29437" lon="-0.09048">
        <ele>5.1</ele>
        <time>2020-06-17T12:24:08Z</time>
      </trkpt>
      <trkpt lat="49.29435" lon="-0.09046">
        <ele>5.1</ele>
        <time>2020-06-17T12:24:09Z</time>
      </trkpt>
      <trkpt lat="49.29436" lon="-0.09043">
        <ele>5.1</ele>
        <time>2020-06-17T12:24:10Z</time>
      </trkpt>
      <trkpt lat="49.29437" lon="-0.09039">
        <ele>5</ele>
        <time>2020-06-17T12:24:11Z</time>
      </trkpt>
      <trkpt lat="49.29439" lon="-0.09036">
        <ele>5</ele>
        <time>2020-06-17T12:24:12Z</time>
      </trkpt>
      <trkpt lat="49.2944" lon="-0.09032">
        <ele>5</ele>
        <time>2020-06-17T12:24:13Z</time>
      </trkpt>
      <trkpt lat="49.29442" lon="-0.09028">
        <ele>4.9</ele>
        <time>2020-06-17T12:24:14Z</time>
      </trkpt>
      <trkpt lat="49.29443" lon="-0.09024">
        <ele>4.9</ele>
        <time>2020-06-17T12:24:15Z</time>
      </trkpt>
      <trkpt lat="49.29445" lon="-0.0902">
        <ele>4.9</ele>
        <time>2020-06-17T12:24:16Z</time>
      </trkpt>
      <trkpt lat="49.29447" lon="-0.09017">
        <ele>4.8</ele>
        <time>2020-06-17T12:24:17Z</time>
      </trkpt>
      <trkpt lat="49.29449" lon="-0.09014">
        <ele>4.9</ele>
        <time>2020-06-17T12:24:18Z</time>
      </trkpt>
      <trkpt lat="49.29452" lon="-0.0901">
        <ele>4.9</ele>
        <time>2020-06-17T12:24:19Z</time>
      </trkpt>
      <trkpt lat="49.29454" lon="-0.09006">
        <ele>5</ele>
        <time>2020-06-17T12:24:20Z</time>
      </trkpt>
      <trkpt lat="49.29456" lon="-0.09002">
        <ele>5</ele>
        <time>2020-06-17T12:24:21Z</time>
      </trkpt>
      <trkpt lat="49.29459" lon="-0.08998">
        <ele>5.1</ele>
        <time>2020-06-17T12:24:22Z</time>
      </trkpt>
      <trkpt lat="49.29461" lon="-0.08994">
        <ele>5.1</ele>
        <time>2020-06-17T12:24:23Z</time>
      </trkpt>
      <trkpt lat="49.29464" lon="-0.08989">
        <ele>5.1</ele>
        <time>2020-06-17T12:24:24Z</time>
      </trkpt>
      <trkpt lat="49.29467" lon="-0.08984">
        <ele>5.1</ele>
        <time>2020-06-17T12:24:25Z</time>
      </trkpt>
      <trkpt lat="49.2947" lon="-0.08978">
        <ele>5.1</ele>
        <time>2020-06-17T12:24:26Z</time>
      </trkpt>
      <trkpt lat="49.29473" lon="-0.08972">
        <ele>5.1</ele>
        <time>2020-06-17T12:24:27Z</time>
      </trkpt>
      <trkpt lat="49.29475" lon="-0.08965">
        <ele>5.1</ele>
        <time>2020-06-17T12:24:28Z</time>
      </trkpt>
      <trkpt lat="49.29476" lon="-0.08957">
        <ele>5.1</ele>
        <time>2020-06-17T12:24:29Z</time>
      </trkpt>
      <trkpt lat="49.29478" lon="-0.0895">
        <ele>5.1</ele>
        <time>2020-06-17T12:24:30Z</time>
      </trkpt>
      <trkpt lat="49.2948" lon="-0.08943">
        <ele>5.1</ele>
        <time>2020-06-17T12:24:31Z</time>
      </trkpt>
      <trkpt lat="49.29481" lon="-0.08937">
        <ele>5</ele>
        <time>2020-06-17T12:24:32Z</time>
      </trkpt>
      <trkpt lat="49.29483" lon="-0.08929">
        <ele>5</ele>
        <time>2020-06-17T12:24:33Z</time>
      </trkpt>
      <trkpt lat="49.29485" lon="-0.08922">
        <ele>5</ele>
        <time>2020-06-17T12:24:34Z</time>
      </trkpt>
      <trkpt lat="49.29486" lon="-0.08915">
        <ele>5</ele>
        <time>2020-06-17T12:24:35Z</time>
      </trkpt>
      <trkpt lat="49.29488" lon="-0.08909">
        <ele>4.9</ele>
        <time>2020-06-17T12:24:36Z</time>
      </trkpt>
      <trkpt lat="49.2949" lon="-0.08903">
        <ele>4.9</ele>
        <time>2020-06-17T12:24:37Z</time>
      </trkpt>
      <trkpt lat="49.29492" lon="-0.08897">
        <ele>4.9</ele>
        <time>2020-06-17T12:24:38Z</time>
      </trkpt>
      <trkpt lat="49.29495" lon="-0.0889">
        <ele>4.9</ele>
        <time>2020-06-17T12:24:39Z</time>
      </trkpt>
      <trkpt lat="49.29498" lon="-0.08883">
        <ele>4.8</ele>
        <time>2020-06-17T12:24:40Z</time>
      </trkpt>
      <trkpt lat="49.29502" lon="-0.08877">
        <ele>4.8</ele>
        <time>2020-06-17T12:24:41Z</time>
      </trkpt>
      <trkpt lat="49.29505" lon="-0.08871">
        <ele>4.8</ele>
        <time>2020-06-17T12:24:42Z</time>
      </trkpt>
      <trkpt lat="49.29509" lon="-0.08866">
        <ele>4.8</ele>
        <time>2020-06-17T12:24:43Z</time>
      </trkpt>
      <trkpt lat="49.29511" lon="-0.08861">
        <ele>4.8</ele>
        <time>2020-06-17T12:24:44Z</time>
      </trkpt>
      <trkpt lat="49.29514" lon="-0.08856">
        <ele>4.8</ele>
        <time>2020-06-17T12:24:45Z</time>
      </trkpt>
      <trkpt lat="49.29517" lon="-0.0885">
        <ele>4.9</ele>
        <time>2020-06-17T12:24:46Z</time>
      </trkpt>
      <trkpt lat="49.2952" lon="-0.08844">
        <ele>4.9</ele>
        <time>2020-06-17T12:24:47Z</time>
      </trkpt>
      <trkpt lat="49.29522" lon="-0.08839">
        <ele>4.9</ele>
        <time>2020-06-17T12:24:48Z</time>
      </trkpt>
      <trkpt lat="49.29525" lon="-0.08835">
        <ele>4.9</ele>
        <time>2020-06-17T12:24:49Z</time>
      </trkpt>
      <trkpt lat="49.29526" lon="-0.08832">
        <ele>4.9</ele>
        <time>2020-06-17T12:24:50Z</time>
      </trkpt>
      <trkpt lat="49.29529" lon="-0.08829">
        <ele>4.9</ele>
        <time>2020-06-17T12:24:51Z</time>
      </trkpt>
      <trkpt lat="49.29533" lon="-0.08828">
        <ele>4.9</ele>
        <time>2020-06-17T12:24:52Z</time>
      </trkpt>
      <trkpt lat="49.29536" lon="-0.08826">
        <ele>4.9</ele>
        <time>2020-06-17T12:24:53Z</time>
      </trkpt>
      <trkpt lat="49.29536" lon="-0.08824">
        <ele>4.8</ele>
        <time>2020-06-17T12:24:54Z</time>
      </trkpt>
      <trkpt lat="49.29536" lon="-0.08822">
        <ele>4.8</ele>
        <time>2020-06-17T12:24:55Z</time>
      </trkpt>
      <trkpt lat="49.29536" lon="-0.08821">
        <ele>4.8</ele>
        <time>2020-06-17T12:24:56Z</time>
      </trkpt>
      <trkpt lat="49.29537" lon="-0.08821">
        <ele>4.8</ele>
        <time>2020-06-17T12:24:57Z</time>
      </trkpt>
      <trkpt lat="49.29537" lon="-0.08819">
        <ele>4.8</ele>
        <time>2020-06-17T12:24:58Z</time>
      </trkpt>
      <trkpt lat="49.29538" lon="-0.08819">
        <ele>4.8</ele>
        <time>2020-06-17T12:24:59Z</time>
      </trkpt>
      <trkpt lat="49.2954" lon="-0.08818">
        <ele>4.8</ele>
        <time>2020-06-17T12:25:00Z</time>
      </trkpt>
      <trkpt lat="49.29541" lon="-0.08818">
        <ele>4.8</ele>
        <time>2020-06-17T12:25:01Z</time>
      </trkpt>
      <trkpt lat="49.29541" lon="-0.08817">
        <ele>4.8</ele>
        <time>2020-06-17T12:25:02Z</time>
      </trkpt>
      <trkpt lat="49.29541" lon="-0.08816">
        <ele>4.8</ele>
        <time>2020-06-17T12:25:03Z</time>
      </trkpt>
      <trkpt lat="49.29541" lon="-0.08816">
        <ele>4.8</ele>
        <time>2020-06-17T12:25:04Z</time>
      </trkpt>
      <trkpt lat="49.29542" lon="-0.08817">
        <ele>4.8</ele>
        <time>2020-06-17T12:25:05Z</time>
      </trkpt>
      <trkpt lat="49.2954" lon="-0.0882">
        <ele>4.8</ele>
        <time>2020-06-17T12:25:06Z</time>
      </trkpt>
      <trkpt lat="49.29539" lon="-0.08822">
        <ele>4.8</ele>
        <time>2020-06-17T12:25:07Z</time>
      </trkpt>
      <trkpt lat="49.29539" lon="-0.08823">
        <ele>4.8</ele>
        <time>2020-06-17T12:25:08Z</time>
      </trkpt>
      <trkpt lat="49.29539" lon="-0.08823">
        <ele>4.8</ele>
        <time>2020-06-17T12:25:09Z</time>
      </trkpt>
      <trkpt lat="49.29539" lon="-0.08823">
        <ele>4.8</ele>
        <time>2020-06-17T12:25:10Z</time>
      </trkpt>
      <trkpt lat="49.29538" lon="-0.08824">
        <ele>4.8</ele>
        <time>2020-06-17T12:25:11Z</time>
      </trkpt>
      <trkpt lat="49.29538" lon="-0.08824">
        <ele>4.8</ele>
        <time>2020-06-17T12:25:12Z</time>
      </trkpt>
      <trkpt lat="49.29539" lon="-0.08825">
        <ele>4.8</ele>
        <time>2020-06-17T12:25:13Z</time>
      </trkpt>
      <trkpt lat="49.29539" lon="-0.08826">
        <ele>4.8</ele>
        <time>2020-06-17T12:25:14Z</time>
      </trkpt>
      <trkpt lat="49.29539" lon="-0.08825">
        <ele>4.8</ele>
        <time>2020-06-17T12:25:15Z</time>
      </trkpt>
      <trkpt lat="49.29539" lon="-0.08825">
        <ele>4.8</ele>
        <time>2020-06-17T12:25:16Z</time>
      </trkpt>
      <trkpt lat="49.29539" lon="-0.08824">
        <ele>4.8</ele>
        <time>2020-06-17T12:25:17Z</time>
      </trkpt>
      <trkpt lat="49.29538" lon="-0.08825">
        <ele>4.8</ele>
        <time>2020-06-17T12:25:18Z</time>
      </trkpt>
      <trkpt lat="49.29538" lon="-0.08825">
        <ele>4.8</ele>
        <time>2020-06-17T12:25:19Z</time>
      </trkpt>
      <trkpt lat="49.29538" lon="-0.08825">
        <ele>4.8</ele>
        <time>2020-06-17T12:25:20Z</time>
      </trkpt>
      <trkpt lat="49.29538" lon="-0.08825">
        <ele>4.8</ele>
        <time>2020-06-17T12:25:21Z</time>
      </trkpt>
      <trkpt lat="49.29538" lon="-0.08825">
        <ele>4.8</ele>
        <time>2020-06-17T12:25:22Z</time>
      </trkpt>
      <trkpt lat="49.29538" lon="-0.08825">
        <ele>4.8</ele>
        <time>2020-06-17T12:25:23Z</time>
      </trkpt>
      <trkpt lat="49.29538" lon="-0.08825">
        <ele>4.8</ele>
        <time>2020-06-17T12:25:24Z</time>
      </trkpt>
      <trkpt lat="49.29538" lon="-0.08825">
        <ele>4.8</ele>
        <time>2020-06-17T12:25:25Z</time>
      </trkpt>
      <trkpt lat="49.29539" lon="-0.08821">
        <ele>4.8</ele>
        <time>2020-06-17T12:25:52Z</time>
      </trkpt>
      <trkpt lat="49.2954" lon="-0.08819">
        <ele>4.8</ele>
        <time>2020-06-17T12:25:53Z</time>
      </trkpt>
      <trkpt lat="49.2954" lon="-0.08819">
        <ele>4.8</ele>
        <time>2020-06-17T12:25:54Z</time>
      </trkpt>
      <trkpt lat="49.2954" lon="-0.08819">
        <ele>4.8</ele>
        <time>2020-06-17T12:25:55Z</time>
      </trkpt>
      <trkpt lat="49.2954" lon="-0.08818">
        <ele>4.8</ele>
        <time>2020-06-17T12:25:56Z</time>
      </trkpt>
      <trkpt lat="49.2954" lon="-0.08818">
        <ele>4.8</ele>
        <time>2020-06-17T12:25:57Z</time>
      </trkpt>
      <trkpt lat="49.2954" lon="-0.08818">
        <ele>4.8</ele>
        <time>2020-06-17T12:25:58Z</time>
      </trkpt>
      <trkpt lat="49.2954" lon="-0.08817">
        <ele>4.8</ele>
        <time>2020-06-17T12:25:59Z</time>
      </trkpt>
      <trkpt lat="49.2954" lon="-0.08817">
        <ele>4.8</ele>
        <time>2020-06-17T12:26:00Z</time>
      </trkpt>
      <trkpt lat="49.2954" lon="-0.08817">
        <ele>4.8</ele>
        <time>2020-06-17T12:26:01Z</time>
      </trkpt>
      <trkpt lat="49.29539" lon="-0.08817">
        <ele>4.8</ele>
        <time>2020-06-17T12:26:02Z</time>
      </trkpt>
      <trkpt lat="49.29539" lon="-0.08817">
        <ele>4.8</ele>
        <time>2020-06-17T12:26:03Z</time>
      </trkpt>
      <trkpt lat="49.29539" lon="-0.08817">
        <ele>4.8</ele>
        <time>2020-06-17T12:26:04Z</time>
      </trkpt>
      <trkpt lat="49.29539" lon="-0.08817">
        <ele>4.8</ele>
        <time>2020-06-17T12:26:05Z</time>
      </trkpt>
      <trkpt lat="49.29534" lon="-0.08813">
        <ele>4.8</ele>
        <time>2020-06-17T12:26:15Z</time>
      </trkpt>
      <trkpt lat="49.29534" lon="-0.08812">
        <ele>4.8</ele>
        <time>2020-06-17T12:26:16Z</time>
      </trkpt>
      <trkpt lat="49.29534" lon="-0.08811">
        <ele>4.8</ele>
        <time>2020-06-17T12:26:17Z</time>
      </trkpt>
      <trkpt lat="49.29534" lon="-0.0881">
        <ele>4.8</ele>
        <time>2020-06-17T12:26:18Z</time>
      </trkpt>
      <trkpt lat="49.29534" lon="-0.08809">
        <ele>4.8</ele>
        <time>2020-06-17T12:26:19Z</time>
      </trkpt>
      <trkpt lat="49.29535" lon="-0.08808">
        <ele>4.8</ele>
        <time>2020-06-17T12:26:20Z</time>
      </trkpt>
      <trkpt lat="49.29535" lon="-0.08806">
        <ele>4.8</ele>
        <time>2020-06-17T12:26:21Z</time>
      </trkpt>
      <trkpt lat="49.29535" lon="-0.08806">
        <ele>4.8</ele>
        <time>2020-06-17T12:26:22Z</time>
      </trkpt>
      <trkpt lat="49.29535" lon="-0.08805">
        <ele>4.8</ele>
        <time>2020-06-17T12:26:23Z</time>
      </trkpt>
      <trkpt lat="49.29536" lon="-0.08805">
        <ele>4.8</ele>
        <time>2020-06-17T12:26:24Z</time>
      </trkpt>
      <trkpt lat="49.29538" lon="-0.08804">
        <ele>4.8</ele>
        <time>2020-06-17T12:26:25Z</time>
      </trkpt>
      <trkpt lat="49.29541" lon="-0.088">
        <ele>4.8</ele>
        <time>2020-06-17T12:26:26Z</time>
      </trkpt>
      <trkpt lat="49.29542" lon="-0.08799">
        <ele>4.8</ele>
        <time>2020-06-17T12:26:27Z</time>
      </trkpt>
      <trkpt lat="49.29544" lon="-0.08795">
        <ele>4.9</ele>
        <time>2020-06-17T12:26:28Z</time>
      </trkpt>
      <trkpt lat="49.29547" lon="-0.08791">
        <ele>4.9</ele>
        <time>2020-06-17T12:26:29Z</time>
      </trkpt>
      <trkpt lat="49.2955" lon="-0.08788">
        <ele>4.9</ele>
        <time>2020-06-17T12:26:30Z</time>
      </trkpt>
      <trkpt lat="49.29553" lon="-0.08784">
        <ele>4.9</ele>
        <time>2020-06-17T12:26:31Z</time>
      </trkpt>
      <trkpt lat="49.29557" lon="-0.08781">
        <ele>4.9</ele>
        <time>2020-06-17T12:26:32Z</time>
      </trkpt>
      <trkpt lat="49.2956" lon="-0.08778">
        <ele>4.9</ele>
        <time>2020-06-17T12:26:33Z</time>
      </trkpt>
      <trkpt lat="49.29564" lon="-0.08774">
        <ele>4.9</ele>
        <time>2020-06-17T12:26:34Z</time>
      </trkpt>
      <trkpt lat="49.29568" lon="-0.08769">
        <ele>4.9</ele>
        <time>2020-06-17T12:26:35Z</time>
      </trkpt>
      <trkpt lat="49.29572" lon="-0.08764">
        <ele>4.9</ele>
        <time>2020-06-17T12:26:36Z</time>
      </trkpt>
      <trkpt lat="49.29576" lon="-0.0876">
        <ele>4.9</ele>
        <time>2020-06-17T12:26:37Z</time>
      </trkpt>
      <trkpt lat="49.29581" lon="-0.08754">
        <ele>4.9</ele>
        <time>2020-06-17T12:26:38Z</time>
      </trkpt>
      <trkpt lat="49.29586" lon="-0.08749">
        <ele>5</ele>
        <time>2020-06-17T12:26:39Z</time>
      </trkpt>
      <trkpt lat="49.2959" lon="-0.08746">
        <ele>5</ele>
        <time>2020-06-17T12:26:40Z</time>
      </trkpt>
      <trkpt lat="49.29595" lon="-0.08743">
        <ele>5</ele>
        <time>2020-06-17T12:26:41Z</time>
      </trkpt>
      <trkpt lat="49.29599" lon="-0.08739">
        <ele>5</ele>
        <time>2020-06-17T12:26:42Z</time>
      </trkpt>
      <trkpt lat="49.29603" lon="-0.08736">
        <ele>5</ele>
        <time>2020-06-17T12:26:43Z</time>
      </trkpt>
      <trkpt lat="49.29608" lon="-0.08732">
        <ele>4.9</ele>
        <time>2020-06-17T12:26:44Z</time>
      </trkpt>
      <trkpt lat="49.29613" lon="-0.08728">
        <ele>4.9</ele>
        <time>2020-06-17T12:26:45Z</time>
      </trkpt>
      <trkpt lat="49.29618" lon="-0.08725">
        <ele>4.9</ele>
        <time>2020-06-17T12:26:46Z</time>
      </trkpt>
      <trkpt lat="49.29624" lon="-0.08721">
        <ele>4.9</ele>
        <time>2020-06-17T12:26:47Z</time>
      </trkpt>
      <trkpt lat="49.29629" lon="-0.08718">
        <ele>4.8</ele>
        <time>2020-06-17T12:26:48Z</time>
      </trkpt>
      <trkpt lat="49.29633" lon="-0.08715">
        <ele>4.8</ele>
        <time>2020-06-17T12:26:49Z</time>
      </trkpt>
      <trkpt lat="49.29638" lon="-0.08712">
        <ele>4.8</ele>
        <time>2020-06-17T12:26:50Z</time>
      </trkpt>
      <trkpt lat="49.29643" lon="-0.08708">
        <ele>4.8</ele>
        <time>2020-06-17T12:26:51Z</time>
      </trkpt>
      <trkpt lat="49.29648" lon="-0.08704">
        <ele>4.8</ele>
        <time>2020-06-17T12:26:52Z</time>
      </trkpt>
      <trkpt lat="49.29653" lon="-0.08701">
        <ele>4.8</ele>
        <time>2020-06-17T12:26:53Z</time>
      </trkpt>
      <trkpt lat="49.29658" lon="-0.08697">
        <ele>4.8</ele>
        <time>2020-06-17T12:26:54Z</time>
      </trkpt>
      <trkpt lat="49.29663" lon="-0.08693">
        <ele>4.8</ele>
        <time>2020-06-17T12:26:55Z</time>
      </trkpt>
      <trkpt lat="49.29667" lon="-0.08689">
        <ele>4.8</ele>
        <time>2020-06-17T12:26:56Z</time>
      </trkpt>
      <trkpt lat="49.29672" lon="-0.08684">
        <ele>4.7</ele>
        <time>2020-06-17T12:26:57Z</time>
      </trkpt>
      <trkpt lat="49.29676" lon="-0.08679">
        <ele>4.7</ele>
        <time>2020-06-17T12:26:58Z</time>
      </trkpt>
      <trkpt lat="49.2968" lon="-0.08675">
        <ele>4.7</ele>
        <time>2020-06-17T12:26:59Z</time>
      </trkpt>
      <trkpt lat="49.29683" lon="-0.08671">
        <ele>4.7</ele>
        <time>2020-06-17T12:27:00Z</time>
      </trkpt>
      <trkpt lat="49.29687" lon="-0.08667">
        <ele>4.8</ele>
        <time>2020-06-17T12:27:01Z</time>
      </trkpt>
      <trkpt lat="49.29692" lon="-0.08663">
        <ele>4.8</ele>
        <time>2020-06-17T12:27:02Z</time>
      </trkpt>
      <trkpt lat="49.29696" lon="-0.08658">
        <ele>4.8</ele>
        <time>2020-06-17T12:27:03Z</time>
      </trkpt>
      <trkpt lat="49.29701" lon="-0.08655">
        <ele>4.8</ele>
        <time>2020-06-17T12:27:04Z</time>
      </trkpt>
      <trkpt lat="49.29705" lon="-0.08651">
        <ele>4.8</ele>
        <time>2020-06-17T12:27:05Z</time>
      </trkpt>
      <trkpt lat="49.2971" lon="-0.08646">
        <ele>4.9</ele>
        <time>2020-06-17T12:27:06Z</time>
      </trkpt>
      <trkpt lat="49.29714" lon="-0.08642">
        <ele>4.9</ele>
        <time>2020-06-17T12:27:07Z</time>
      </trkpt>
      <trkpt lat="49.29719" lon="-0.08638">
        <ele>4.9</ele>
        <time>2020-06-17T12:27:08Z</time>
      </trkpt>
      <trkpt lat="49.29723" lon="-0.08634">
        <ele>4.9</ele>
        <time>2020-06-17T12:27:09Z</time>
      </trkpt>
      <trkpt lat="49.29728" lon="-0.08629">
        <ele>4.9</ele>
        <time>2020-06-17T12:27:10Z</time>
      </trkpt>
      <trkpt lat="49.29732" lon="-0.08625">
        <ele>5</ele>
        <time>2020-06-17T12:27:11Z</time>
      </trkpt>
      <trkpt lat="49.29736" lon="-0.0862">
        <ele>5</ele>
        <time>2020-06-17T12:27:12Z</time>
      </trkpt>
      <trkpt lat="49.2974" lon="-0.08616">
        <ele>5</ele>
        <time>2020-06-17T12:27:13Z</time>
      </trkpt>
      <trkpt lat="49.29744" lon="-0.08612">
        <ele>5</ele>
        <time>2020-06-17T12:27:14Z</time>
      </trkpt>
      <trkpt lat="49.29748" lon="-0.08608">
        <ele>5</ele>
        <time>2020-06-17T12:27:15Z</time>
      </trkpt>
      <trkpt lat="49.29752" lon="-0.08604">
        <ele>5</ele>
        <time>2020-06-17T12:27:16Z</time>
      </trkpt>
      <trkpt lat="49.29756" lon="-0.08599">
        <ele>5.1</ele>
        <time>2020-06-17T12:27:17Z</time>
      </trkpt>
      <trkpt lat="49.2976" lon="-0.08595">
        <ele>5.1</ele>
        <time>2020-06-17T12:27:18Z</time>
      </trkpt>
      <trkpt lat="49.29763" lon="-0.08591">
        <ele>5.1</ele>
        <time>2020-06-17T12:27:19Z</time>
      </trkpt>
      <trkpt lat="49.29767" lon="-0.08587">
        <ele>5.1</ele>
        <time>2020-06-17T12:27:20Z</time>
      </trkpt>
      <trkpt lat="49.29771" lon="-0.08583">
        <ele>5.2</ele>
        <time>2020-06-17T12:27:21Z</time>
      </trkpt>
      <trkpt lat="49.29775" lon="-0.08579">
        <ele>5.2</ele>
        <time>2020-06-17T12:27:22Z</time>
      </trkpt>
      <trkpt lat="49.2978" lon="-0.08575">
        <ele>5.3</ele>
        <time>2020-06-17T12:27:23Z</time>
      </trkpt>
      <trkpt lat="49.29785" lon="-0.08572">
        <ele>5.3</ele>
        <time>2020-06-17T12:27:24Z</time>
      </trkpt>
      <trkpt lat="49.2979" lon="-0.08568">
        <ele>5.3</ele>
        <time>2020-06-17T12:27:25Z</time>
      </trkpt>
      <trkpt lat="49.29796" lon="-0.08565">
        <ele>5.3</ele>
        <time>2020-06-17T12:27:26Z</time>
      </trkpt>
      <trkpt lat="49.29802" lon="-0.08561">
        <ele>5.4</ele>
        <time>2020-06-17T12:27:27Z</time>
      </trkpt>
      <trkpt lat="49.29807" lon="-0.08556">
        <ele>5.4</ele>
        <time>2020-06-17T12:27:28Z</time>
      </trkpt>
      <trkpt lat="49.29811" lon="-0.08551">
        <ele>5.4</ele>
        <time>2020-06-17T12:27:29Z</time>
      </trkpt>
      <trkpt lat="49.29816" lon="-0.08546">
        <ele>5.4</ele>
        <time>2020-06-17T12:27:30Z</time>
      </trkpt>
      <trkpt lat="49.29823" lon="-0.08541">
        <ele>5.4</ele>
        <time>2020-06-17T12:27:31Z</time>
      </trkpt>
      <trkpt lat="49.29827" lon="-0.08536">
        <ele>5.3</ele>
        <time>2020-06-17T12:27:32Z</time>
      </trkpt>
      <trkpt lat="49.29831" lon="-0.08532">
        <ele>5.3</ele>
        <time>2020-06-17T12:27:33Z</time>
      </trkpt>
      <trkpt lat="49.29836" lon="-0.08527">
        <ele>5.3</ele>
        <time>2020-06-17T12:27:34Z</time>
      </trkpt>
      <trkpt lat="49.29841" lon="-0.08522">
        <ele>5.3</ele>
        <time>2020-06-17T12:27:35Z</time>
      </trkpt>
      <trkpt lat="49.29846" lon="-0.08517">
        <ele>5.4</ele>
        <time>2020-06-17T12:27:36Z</time>
      </trkpt>
      <trkpt lat="49.29851" lon="-0.08511">
        <ele>5.4</ele>
        <time>2020-06-17T12:27:37Z</time>
      </trkpt>
      <trkpt lat="49.29855" lon="-0.08506">
        <ele>5.4</ele>
        <time>2020-06-17T12:27:38Z</time>
      </trkpt>
      <trkpt lat="49.29859" lon="-0.08501">
        <ele>5.5</ele>
        <time>2020-06-17T12:27:39Z</time>
      </trkpt>
      <trkpt lat="49.29864" lon="-0.08496">
        <ele>5.5</ele>
        <time>2020-06-17T12:27:40Z</time>
      </trkpt>
      <trkpt lat="49.29869" lon="-0.08492">
        <ele>5.5</ele>
        <time>2020-06-17T12:27:41Z</time>
      </trkpt>
      <trkpt lat="49.29873" lon="-0.08487">
        <ele>5.5</ele>
        <time>2020-06-17T12:27:42Z</time>
      </trkpt>
      <trkpt lat="49.29878" lon="-0.08484">
        <ele>5.5</ele>
        <time>2020-06-17T12:27:43Z</time>
      </trkpt>
      <trkpt lat="49.29881" lon="-0.0848">
        <ele>5.5</ele>
        <time>2020-06-17T12:27:44Z</time>
      </trkpt>
      <trkpt lat="49.29885" lon="-0.08477">
        <ele>5.5</ele>
        <time>2020-06-17T12:27:45Z</time>
      </trkpt>
      <trkpt lat="49.29889" lon="-0.08474">
        <ele>5.5</ele>
        <time>2020-06-17T12:27:46Z</time>
      </trkpt>
      <trkpt lat="49.29892" lon="-0.08471">
        <ele>5.6</ele>
        <time>2020-06-17T12:27:47Z</time>
      </trkpt>
      <trkpt lat="49.29896" lon="-0.08467">
        <ele>5.6</ele>
        <time>2020-06-17T12:27:48Z</time>
      </trkpt>
      <trkpt lat="49.299" lon="-0.08464">
        <ele>5.6</ele>
        <time>2020-06-17T12:27:49Z</time>
      </trkpt>
      <trkpt lat="49.29903" lon="-0.08461">
        <ele>5.6</ele>
        <time>2020-06-17T12:27:50Z</time>
      </trkpt>
      <trkpt lat="49.29907" lon="-0.08458">
        <ele>5.7</ele>
        <time>2020-06-17T12:27:51Z</time>
      </trkpt>
      <trkpt lat="49.29911" lon="-0.08456">
        <ele>5.8</ele>
        <time>2020-06-17T12:27:52Z</time>
      </trkpt>
      <trkpt lat="49.29915" lon="-0.08453">
        <ele>5.8</ele>
        <time>2020-06-17T12:27:53Z</time>
      </trkpt>
      <trkpt lat="49.29919" lon="-0.08449">
        <ele>5.9</ele>
        <time>2020-06-17T12:27:54Z</time>
      </trkpt>
      <trkpt lat="49.29922" lon="-0.08447">
        <ele>5.9</ele>
        <time>2020-06-17T12:27:55Z</time>
      </trkpt>
      <trkpt lat="49.29924" lon="-0.08445">
        <ele>6</ele>
        <time>2020-06-17T12:27:56Z</time>
      </trkpt>
      <trkpt lat="49.29927" lon="-0.08442">
        <ele>6.1</ele>
        <time>2020-06-17T12:27:57Z</time>
      </trkpt>
      <trkpt lat="49.29929" lon="-0.08438">
        <ele>6.1</ele>
        <time>2020-06-17T12:27:58Z</time>
      </trkpt>
      <trkpt lat="49.29932" lon="-0.08435">
        <ele>6.2</ele>
        <time>2020-06-17T12:27:59Z</time>
      </trkpt>
      <trkpt lat="49.29935" lon="-0.08431">
        <ele>6.3</ele>
        <time>2020-06-17T12:28:00Z</time>
      </trkpt>
      <trkpt lat="49.29938" lon="-0.08428">
        <ele>6.4</ele>
        <time>2020-06-17T12:28:01Z</time>
      </trkpt>
      <trkpt lat="49.2994" lon="-0.08425">
        <ele>6.5</ele>
        <time>2020-06-17T12:28:02Z</time>
      </trkpt>
      <trkpt lat="49.29943" lon="-0.08421">
        <ele>6.6</ele>
        <time>2020-06-17T12:28:03Z</time>
      </trkpt>
      <trkpt lat="49.29947" lon="-0.08415">
        <ele>6.7</ele>
        <time>2020-06-17T12:28:04Z</time>
      </trkpt>
      <trkpt lat="49.29951" lon="-0.0841">
        <ele>6.7</ele>
        <time>2020-06-17T12:28:05Z</time>
      </trkpt>
      <trkpt lat="49.29954" lon="-0.08405">
        <ele>6.8</ele>
        <time>2020-06-17T12:28:06Z</time>
      </trkpt>
      <trkpt lat="49.29958" lon="-0.084">
        <ele>6.9</ele>
        <time>2020-06-17T12:28:07Z</time>
      </trkpt>
      <trkpt lat="49.29961" lon="-0.08395">
        <ele>6.9</ele>
        <time>2020-06-17T12:28:08Z</time>
      </trkpt>
      <trkpt lat="49.29965" lon="-0.08391">
        <ele>6.9</ele>
        <time>2020-06-17T12:28:09Z</time>
      </trkpt>
      <trkpt lat="49.29969" lon="-0.08386">
        <ele>6.8</ele>
        <time>2020-06-17T12:28:10Z</time>
      </trkpt>
      <trkpt lat="49.29974" lon="-0.08383">
        <ele>6.7</ele>
        <time>2020-06-17T12:28:11Z</time>
      </trkpt>
      <trkpt lat="49.29979" lon="-0.08379">
        <ele>6.6</ele>
        <time>2020-06-17T12:28:12Z</time>
      </trkpt>
      <trkpt lat="49.29984" lon="-0.08376">
        <ele>6.3</ele>
        <time>2020-06-17T12:28:13Z</time>
      </trkpt>
      <trkpt lat="49.29989" lon="-0.08373">
        <ele>6.2</ele>
        <time>2020-06-17T12:28:14Z</time>
      </trkpt>
      <trkpt lat="49.29994" lon="-0.08369">
        <ele>6.2</ele>
        <time>2020-06-17T12:28:15Z</time>
      </trkpt>
      <trkpt lat="49.29998" lon="-0.08366">
        <ele>6.1</ele>
        <time>2020-06-17T12:28:16Z</time>
      </trkpt>
      <trkpt lat="49.30003" lon="-0.08362">
        <ele>6</ele>
        <time>2020-06-17T12:28:17Z</time>
      </trkpt>
      <trkpt lat="49.30008" lon="-0.08358">
        <ele>5.9</ele>
        <time>2020-06-17T12:28:18Z</time>
      </trkpt>
      <trkpt lat="49.30013" lon="-0.08353">
        <ele>5.8</ele>
        <time>2020-06-17T12:28:19Z</time>
      </trkpt>
      <trkpt lat="49.30018" lon="-0.08349">
        <ele>5.8</ele>
        <time>2020-06-17T12:28:20Z</time>
      </trkpt>
      <trkpt lat="49.30022" lon="-0.08343">
        <ele>5.7</ele>
        <time>2020-06-17T12:28:21Z</time>
      </trkpt>
      <trkpt lat="49.30027" lon="-0.08338">
        <ele>5.7</ele>
        <time>2020-06-17T12:28:22Z</time>
      </trkpt>
      <trkpt lat="49.30032" lon="-0.08332">
        <ele>5.6</ele>
        <time>2020-06-17T12:28:23Z</time>
      </trkpt>
      <trkpt lat="49.30037" lon="-0.08326">
        <ele>5.6</ele>
        <time>2020-06-17T12:28:24Z</time>
      </trkpt>
      <trkpt lat="49.30042" lon="-0.08321">
        <ele>5.5</ele>
        <time>2020-06-17T12:28:25Z</time>
      </trkpt>
      <trkpt lat="49.30047" lon="-0.08315">
        <ele>5.5</ele>
        <time>2020-06-17T12:28:26Z</time>
      </trkpt>
      <trkpt lat="49.30051" lon="-0.0831">
        <ele>5.5</ele>
        <time>2020-06-17T12:28:27Z</time>
      </trkpt>
      <trkpt lat="49.30055" lon="-0.08306">
        <ele>5.5</ele>
        <time>2020-06-17T12:28:28Z</time>
      </trkpt>
      <trkpt lat="49.30058" lon="-0.08301">
        <ele>5.5</ele>
        <time>2020-06-17T12:28:29Z</time>
      </trkpt>
      <trkpt lat="49.30062" lon="-0.08296">
        <ele>5.5</ele>
        <time>2020-06-17T12:28:30Z</time>
      </trkpt>
      <trkpt lat="49.30065" lon="-0.08293">
        <ele>5.5</ele>
        <time>2020-06-17T12:28:31Z</time>
      </trkpt>
      <trkpt lat="49.30069" lon="-0.08289">
        <ele>5.5</ele>
        <time>2020-06-17T12:28:32Z</time>
      </trkpt>
      <trkpt lat="49.30072" lon="-0.08286">
        <ele>5.4</ele>
        <time>2020-06-17T12:28:33Z</time>
      </trkpt>
      <trkpt lat="49.30076" lon="-0.08282">
        <ele>5.4</ele>
        <time>2020-06-17T12:28:34Z</time>
      </trkpt>
      <trkpt lat="49.30079" lon="-0.08278">
        <ele>5.4</ele>
        <time>2020-06-17T12:28:35Z</time>
      </trkpt>
      <trkpt lat="49.30084" lon="-0.08274">
        <ele>5.4</ele>
        <time>2020-06-17T12:28:36Z</time>
      </trkpt>
      <trkpt lat="49.30087" lon="-0.0827">
        <ele>5.4</ele>
        <time>2020-06-17T12:28:37Z</time>
      </trkpt>
      <trkpt lat="49.30091" lon="-0.08265">
        <ele>5.4</ele>
        <time>2020-06-17T12:28:38Z</time>
      </trkpt>
      <trkpt lat="49.30094" lon="-0.08261">
        <ele>5.4</ele>
        <time>2020-06-17T12:28:39Z</time>
      </trkpt>
      <trkpt lat="49.30098" lon="-0.08257">
        <ele>5.3</ele>
        <time>2020-06-17T12:28:40Z</time>
      </trkpt>
      <trkpt lat="49.30103" lon="-0.08253">
        <ele>5.3</ele>
        <time>2020-06-17T12:28:41Z</time>
      </trkpt>
      <trkpt lat="49.30107" lon="-0.08249">
        <ele>5.3</ele>
        <time>2020-06-17T12:28:42Z</time>
      </trkpt>
      <trkpt lat="49.30112" lon="-0.08245">
        <ele>5.3</ele>
        <time>2020-06-17T12:28:43Z</time>
      </trkpt>
      <trkpt lat="49.30116" lon="-0.08241">
        <ele>5.3</ele>
        <time>2020-06-17T12:28:44Z</time>
      </trkpt>
      <trkpt lat="49.3012" lon="-0.08237">
        <ele>5.3</ele>
        <time>2020-06-17T12:28:45Z</time>
      </trkpt>
      <trkpt lat="49.30124" lon="-0.08233">
        <ele>5.3</ele>
        <time>2020-06-17T12:28:46Z</time>
      </trkpt>
      <trkpt lat="49.30128" lon="-0.0823">
        <ele>5.3</ele>
        <time>2020-06-17T12:28:47Z</time>
      </trkpt>
      <trkpt lat="49.30132" lon="-0.08225">
        <ele>5.2</ele>
        <time>2020-06-17T12:28:48Z</time>
      </trkpt>
      <trkpt lat="49.30137" lon="-0.08221">
        <ele>5.2</ele>
        <time>2020-06-17T12:28:49Z</time>
      </trkpt>
      <trkpt lat="49.30142" lon="-0.08216">
        <ele>5.1</ele>
        <time>2020-06-17T12:28:50Z</time>
      </trkpt>
      <trkpt lat="49.30146" lon="-0.08212">
        <ele>5.1</ele>
        <time>2020-06-17T12:28:51Z</time>
      </trkpt>
      <trkpt lat="49.3015" lon="-0.08208">
        <ele>5.1</ele>
        <time>2020-06-17T12:28:52Z</time>
      </trkpt>
      <trkpt lat="49.30155" lon="-0.08204">
        <ele>5.1</ele>
        <time>2020-06-17T12:28:53Z</time>
      </trkpt>
      <trkpt lat="49.3016" lon="-0.082">
        <ele>5.2</ele>
        <time>2020-06-17T12:28:54Z</time>
      </trkpt>
      <trkpt lat="49.30164" lon="-0.08196">
        <ele>5.2</ele>
        <time>2020-06-17T12:28:55Z</time>
      </trkpt>
      <trkpt lat="49.30169" lon="-0.08192">
        <ele>5.3</ele>
        <time>2020-06-17T12:28:56Z</time>
      </trkpt>
      <trkpt lat="49.30173" lon="-0.08187">
        <ele>5.4</ele>
        <time>2020-06-17T12:28:57Z</time>
      </trkpt>
      <trkpt lat="49.30177" lon="-0.08181">
        <ele>5.5</ele>
        <time>2020-06-17T12:28:58Z</time>
      </trkpt>
      <trkpt lat="49.30182" lon="-0.08174">
        <ele>5.5</ele>
        <time>2020-06-17T12:28:59Z</time>
      </trkpt>
      <trkpt lat="49.30185" lon="-0.08167">
        <ele>5.5</ele>
        <time>2020-06-17T12:29:00Z</time>
      </trkpt>
      <trkpt lat="49.30189" lon="-0.0816">
        <ele>5.6</ele>
        <time>2020-06-17T12:29:01Z</time>
      </trkpt>
      <trkpt lat="49.30192" lon="-0.08154">
        <ele>5.6</ele>
        <time>2020-06-17T12:29:02Z</time>
      </trkpt>
      <trkpt lat="49.30195" lon="-0.08148">
        <ele>5.7</ele>
        <time>2020-06-17T12:29:03Z</time>
      </trkpt>
      <trkpt lat="49.30198" lon="-0.08141">
        <ele>5.7</ele>
        <time>2020-06-17T12:29:04Z</time>
      </trkpt>
      <trkpt lat="49.30201" lon="-0.08133">
        <ele>5.8</ele>
        <time>2020-06-17T12:29:05Z</time>
      </trkpt>
      <trkpt lat="49.30204" lon="-0.08127">
        <ele>5.9</ele>
        <time>2020-06-17T12:29:06Z</time>
      </trkpt>
      <trkpt lat="49.30206" lon="-0.0812">
        <ele>5.9</ele>
        <time>2020-06-17T12:29:07Z</time>
      </trkpt>
      <trkpt lat="49.30209" lon="-0.08111">
        <ele>6</ele>
        <time>2020-06-17T12:29:08Z</time>
      </trkpt>
      <trkpt lat="49.30211" lon="-0.08104">
        <ele>6</ele>
        <time>2020-06-17T12:29:09Z</time>
      </trkpt>
      <trkpt lat="49.30213" lon="-0.08096">
        <ele>6</ele>
        <time>2020-06-17T12:29:10Z</time>
      </trkpt>
      <trkpt lat="49.30216" lon="-0.08089">
        <ele>6.1</ele>
        <time>2020-06-17T12:29:11Z</time>
      </trkpt>
      <trkpt lat="49.30218" lon="-0.08083">
        <ele>6.1</ele>
        <time>2020-06-17T12:29:12Z</time>
      </trkpt>
      <trkpt lat="49.3022" lon="-0.08077">
        <ele>6.2</ele>
        <time>2020-06-17T12:29:13Z</time>
      </trkpt>
      <trkpt lat="49.30222" lon="-0.08071">
        <ele>6.3</ele>
        <time>2020-06-17T12:29:14Z</time>
      </trkpt>
      <trkpt lat="49.30224" lon="-0.08065">
        <ele>6.3</ele>
        <time>2020-06-17T12:29:15Z</time>
      </trkpt>
      <trkpt lat="49.30226" lon="-0.08059">
        <ele>6.4</ele>
        <time>2020-06-17T12:29:16Z</time>
      </trkpt>
      <trkpt lat="49.30227" lon="-0.08054">
        <ele>6.5</ele>
        <time>2020-06-17T12:29:17Z</time>
      </trkpt>
      <trkpt lat="49.3023" lon="-0.08049">
        <ele>6.6</ele>
        <time>2020-06-17T12:29:18Z</time>
      </trkpt>
      <trkpt lat="49.30232" lon="-0.08043">
        <ele>6.7</ele>
        <time>2020-06-17T12:29:19Z</time>
      </trkpt>
      <trkpt lat="49.30233" lon="-0.08039">
        <ele>6.8</ele>
        <time>2020-06-17T12:29:20Z</time>
      </trkpt>
      <trkpt lat="49.30234" lon="-0.08034">
        <ele>6.9</ele>
        <time>2020-06-17T12:29:21Z</time>
      </trkpt>
      <trkpt lat="49.30235" lon="-0.0803">
        <ele>6.9</ele>
        <time>2020-06-17T12:29:22Z</time>
      </trkpt>
      <trkpt lat="49.30236" lon="-0.08026">
        <ele>7</ele>
        <time>2020-06-17T12:29:23Z</time>
      </trkpt>
      <trkpt lat="49.30237" lon="-0.08024">
        <ele>7</ele>
        <time>2020-06-17T12:29:24Z</time>
      </trkpt>
      <trkpt lat="49.30238" lon="-0.08022">
        <ele>7.1</ele>
        <time>2020-06-17T12:29:25Z</time>
      </trkpt>
      <trkpt lat="49.30239" lon="-0.0802">
        <ele>7.1</ele>
        <time>2020-06-17T12:29:26Z</time>
      </trkpt>
      <trkpt lat="49.30239" lon="-0.08018">
        <ele>7.1</ele>
        <time>2020-06-17T12:29:27Z</time>
      </trkpt>
      <trkpt lat="49.30239" lon="-0.08016">
        <ele>7.1</ele>
        <time>2020-06-17T12:29:28Z</time>
      </trkpt>
      <trkpt lat="49.30239" lon="-0.08015">
        <ele>7.1</ele>
        <time>2020-06-17T12:29:29Z</time>
      </trkpt>
      <trkpt lat="49.30239" lon="-0.08014">
        <ele>7.1</ele>
        <time>2020-06-17T12:29:30Z</time>
      </trkpt>
      <trkpt lat="49.3024" lon="-0.08012">
        <ele>7.2</ele>
        <time>2020-06-17T12:29:31Z</time>
      </trkpt>
      <trkpt lat="49.30239" lon="-0.08012">
        <ele>7.2</ele>
        <time>2020-06-17T12:29:32Z</time>
      </trkpt>
      <trkpt lat="49.3024" lon="-0.0801">
        <ele>7.2</ele>
        <time>2020-06-17T12:29:33Z</time>
      </trkpt>
      <trkpt lat="49.30241" lon="-0.08009">
        <ele>7.2</ele>
        <time>2020-06-17T12:29:34Z</time>
      </trkpt>
      <trkpt lat="49.30241" lon="-0.08008">
        <ele>7.2</ele>
        <time>2020-06-17T12:29:35Z</time>
      </trkpt>
      <trkpt lat="49.30241" lon="-0.08007">
        <ele>7.2</ele>
        <time>2020-06-17T12:29:36Z</time>
      </trkpt>
      <trkpt lat="49.30241" lon="-0.08006">
        <ele>7.2</ele>
        <time>2020-06-17T12:29:37Z</time>
      </trkpt>
      <trkpt lat="49.30241" lon="-0.08005">
        <ele>7.2</ele>
        <time>2020-06-17T12:29:38Z</time>
      </trkpt>
      <trkpt lat="49.30241" lon="-0.08003">
        <ele>7.3</ele>
        <time>2020-06-17T12:29:39Z</time>
      </trkpt>
      <trkpt lat="49.30242" lon="-0.08002">
        <ele>7.3</ele>
        <time>2020-06-17T12:29:40Z</time>
      </trkpt>
      <trkpt lat="49.30242" lon="-0.08001">
        <ele>7.3</ele>
        <time>2020-06-17T12:29:41Z</time>
      </trkpt>
      <trkpt lat="49.30242" lon="-0.08">
        <ele>7.3</ele>
        <time>2020-06-17T12:29:42Z</time>
      </trkpt>
      <trkpt lat="49.30242" lon="-0.08">
        <ele>7.3</ele>
        <time>2020-06-17T12:29:43Z</time>
      </trkpt>
      <trkpt lat="49.30242" lon="-0.07999">
        <ele>7.3</ele>
        <time>2020-06-17T12:29:44Z</time>
      </trkpt>
      <trkpt lat="49.30243" lon="-0.07998">
        <ele>7.3</ele>
        <time>2020-06-17T12:29:45Z</time>
      </trkpt>
      <trkpt lat="49.30244" lon="-0.07998">
        <ele>7.4</ele>
        <time>2020-06-17T12:29:46Z</time>
      </trkpt>
      <trkpt lat="49.30245" lon="-0.07998">
        <ele>7.4</ele>
        <time>2020-06-17T12:29:47Z</time>
      </trkpt>
      <trkpt lat="49.30245" lon="-0.07998">
        <ele>7.4</ele>
        <time>2020-06-17T12:29:48Z</time>
      </trkpt>
      <trkpt lat="49.30246" lon="-0.07998">
        <ele>7.4</ele>
        <time>2020-06-17T12:29:49Z</time>
      </trkpt>
      <trkpt lat="49.30248" lon="-0.07995">
        <ele>7.5</ele>
        <time>2020-06-17T12:29:50Z</time>
      </trkpt>
      <trkpt lat="49.30248" lon="-0.07994">
        <ele>7.5</ele>
        <time>2020-06-17T12:29:51Z</time>
      </trkpt>
      <trkpt lat="49.30249" lon="-0.07991">
        <ele>7.5</ele>
        <time>2020-06-17T12:29:52Z</time>
      </trkpt>
      <trkpt lat="49.3025" lon="-0.07986">
        <ele>7.6</ele>
        <time>2020-06-17T12:29:53Z</time>
      </trkpt>
      <trkpt lat="49.3025" lon="-0.07984">
        <ele>7.7</ele>
        <time>2020-06-17T12:29:54Z</time>
      </trkpt>
      <trkpt lat="49.30252" lon="-0.07979">
        <ele>7.8</ele>
        <time>2020-06-17T12:29:55Z</time>
      </trkpt>
      <trkpt lat="49.30252" lon="-0.07977">
        <ele>7.8</ele>
        <time>2020-06-17T12:29:56Z</time>
      </trkpt>
      <trkpt lat="49.30253" lon="-0.07973">
        <ele>7.9</ele>
        <time>2020-06-17T12:29:57Z</time>
      </trkpt>
      <trkpt lat="49.30255" lon="-0.07969">
        <ele>8</ele>
        <time>2020-06-17T12:29:58Z</time>
      </trkpt>
      <trkpt lat="49.30257" lon="-0.07965">
        <ele>8.1</ele>
        <time>2020-06-17T12:29:59Z</time>
      </trkpt>
      <trkpt lat="49.30258" lon="-0.07961">
        <ele>8.2</ele>
        <time>2020-06-17T12:30:00Z</time>
      </trkpt>
      <trkpt lat="49.3026" lon="-0.07956">
        <ele>8.3</ele>
        <time>2020-06-17T12:30:01Z</time>
      </trkpt>
      <trkpt lat="49.30262" lon="-0.07952">
        <ele>8.4</ele>
        <time>2020-06-17T12:30:02Z</time>
      </trkpt>
      <trkpt lat="49.30263" lon="-0.07947">
        <ele>8.5</ele>
        <time>2020-06-17T12:30:03Z</time>
      </trkpt>
      <trkpt lat="49.30263" lon="-0.07942">
        <ele>8.6</ele>
        <time>2020-06-17T12:30:04Z</time>
      </trkpt>
      <trkpt lat="49.30264" lon="-0.0794">
        <ele>8.6</ele>
        <time>2020-06-17T12:30:05Z</time>
      </trkpt>
      <trkpt lat="49.30265" lon="-0.07935">
        <ele>8.7</ele>
        <time>2020-06-17T12:30:06Z</time>
      </trkpt>
      <trkpt lat="49.30266" lon="-0.07934">
        <ele>8.7</ele>
        <time>2020-06-17T12:30:07Z</time>
      </trkpt>
      <trkpt lat="49.30267" lon="-0.07929">
        <ele>8.8</ele>
        <time>2020-06-17T12:30:08Z</time>
      </trkpt>
      <trkpt lat="49.30268" lon="-0.07927">
        <ele>8.8</ele>
        <time>2020-06-17T12:30:09Z</time>
      </trkpt>
      <trkpt lat="49.3027" lon="-0.07923">
        <ele>8.8</ele>
        <time>2020-06-17T12:30:10Z</time>
      </trkpt>
      <trkpt lat="49.30271" lon="-0.07921">
        <ele>8.8</ele>
        <time>2020-06-17T12:30:11Z</time>
      </trkpt>
      <trkpt lat="49.30273" lon="-0.07917">
        <ele>8.8</ele>
        <time>2020-06-17T12:30:12Z</time>
      </trkpt>
      <trkpt lat="49.30275" lon="-0.07914">
        <ele>8.8</ele>
        <time>2020-06-17T12:30:13Z</time>
      </trkpt>
      <trkpt lat="49.30276" lon="-0.0791">
        <ele>8.8</ele>
        <time>2020-06-17T12:30:14Z</time>
      </trkpt>
      <trkpt lat="49.30278" lon="-0.07906">
        <ele>8.8</ele>
        <time>2020-06-17T12:30:15Z</time>
      </trkpt>
      <trkpt lat="49.30281" lon="-0.07901">
        <ele>8.8</ele>
        <time>2020-06-17T12:30:16Z</time>
      </trkpt>
      <trkpt lat="49.30282" lon="-0.07896">
        <ele>8.9</ele>
        <time>2020-06-17T12:30:17Z</time>
      </trkpt>
      <trkpt lat="49.30285" lon="-0.0789">
        <ele>9</ele>
        <time>2020-06-17T12:30:18Z</time>
      </trkpt>
      <trkpt lat="49.30287" lon="-0.07885">
        <ele>9</ele>
        <time>2020-06-17T12:30:19Z</time>
      </trkpt>
      <trkpt lat="49.30289" lon="-0.07881">
        <ele>9</ele>
        <time>2020-06-17T12:30:20Z</time>
      </trkpt>
      <trkpt lat="49.30291" lon="-0.07876">
        <ele>9.1</ele>
        <time>2020-06-17T12:30:21Z</time>
      </trkpt>
      <trkpt lat="49.30293" lon="-0.07872">
        <ele>9.1</ele>
        <time>2020-06-17T12:30:22Z</time>
      </trkpt>
      <trkpt lat="49.30295" lon="-0.07867">
        <ele>9.2</ele>
        <time>2020-06-17T12:30:23Z</time>
      </trkpt>
      <trkpt lat="49.30297" lon="-0.07862">
        <ele>9.2</ele>
        <time>2020-06-17T12:30:24Z</time>
      </trkpt>
      <trkpt lat="49.30299" lon="-0.07857">
        <ele>9.3</ele>
        <time>2020-06-17T12:30:25Z</time>
      </trkpt>
      <trkpt lat="49.30301" lon="-0.07852">
        <ele>9.3</ele>
        <time>2020-06-17T12:30:26Z</time>
      </trkpt>
      <trkpt lat="49.30304" lon="-0.07847">
        <ele>9.3</ele>
        <time>2020-06-17T12:30:27Z</time>
      </trkpt>
      <trkpt lat="49.30306" lon="-0.0784">
        <ele>9.4</ele>
        <time>2020-06-17T12:30:28Z</time>
      </trkpt>
      <trkpt lat="49.30308" lon="-0.07835">
        <ele>9.4</ele>
        <time>2020-06-17T12:30:29Z</time>
      </trkpt>
      <trkpt lat="49.3031" lon="-0.0783">
        <ele>9.4</ele>
        <time>2020-06-17T12:30:30Z</time>
      </trkpt>
      <trkpt lat="49.30312" lon="-0.07823">
        <ele>9.4</ele>
        <time>2020-06-17T12:30:31Z</time>
      </trkpt>
      <trkpt lat="49.30314" lon="-0.07817">
        <ele>9.4</ele>
        <time>2020-06-17T12:30:32Z</time>
      </trkpt>
      <trkpt lat="49.30316" lon="-0.07811">
        <ele>9.5</ele>
        <time>2020-06-17T12:30:33Z</time>
      </trkpt>
      <trkpt lat="49.30319" lon="-0.07805">
        <ele>9.5</ele>
        <time>2020-06-17T12:30:34Z</time>
      </trkpt>
      <trkpt lat="49.3032" lon="-0.07799">
        <ele>9.5</ele>
        <time>2020-06-17T12:30:35Z</time>
      </trkpt>
      <trkpt lat="49.30322" lon="-0.07794">
        <ele>9.5</ele>
        <time>2020-06-17T12:30:36Z</time>
      </trkpt>
      <trkpt lat="49.30326" lon="-0.07788">
        <ele>9.6</ele>
        <time>2020-06-17T12:30:37Z</time>
      </trkpt>
      <trkpt lat="49.30328" lon="-0.07782">
        <ele>9.6</ele>
        <time>2020-06-17T12:30:38Z</time>
      </trkpt>
      <trkpt lat="49.3033" lon="-0.07777">
        <ele>9.7</ele>
        <time>2020-06-17T12:30:39Z</time>
      </trkpt>
      <trkpt lat="49.30333" lon="-0.0777">
        <ele>9.8</ele>
        <time>2020-06-17T12:30:40Z</time>
      </trkpt>
      <trkpt lat="49.30335" lon="-0.07763">
        <ele>9.9</ele>
        <time>2020-06-17T12:30:41Z</time>
      </trkpt>
      <trkpt lat="49.30338" lon="-0.07756">
        <ele>10</ele>
        <time>2020-06-17T12:30:42Z</time>
      </trkpt>
      <trkpt lat="49.3034" lon="-0.07749">
        <ele>10.2</ele>
        <time>2020-06-17T12:30:43Z</time>
      </trkpt>
      <trkpt lat="49.30342" lon="-0.07742">
        <ele>10.3</ele>
        <time>2020-06-17T12:30:44Z</time>
      </trkpt>
      <trkpt lat="49.30345" lon="-0.07735">
        <ele>10.4</ele>
        <time>2020-06-17T12:30:45Z</time>
      </trkpt>
      <trkpt lat="49.30348" lon="-0.07728">
        <ele>10.5</ele>
        <time>2020-06-17T12:30:46Z</time>
      </trkpt>
      <trkpt lat="49.3035" lon="-0.07723">
        <ele>10.6</ele>
        <time>2020-06-17T12:30:47Z</time>
      </trkpt>
      <trkpt lat="49.30353" lon="-0.07717">
        <ele>10.6</ele>
        <time>2020-06-17T12:30:48Z</time>
      </trkpt>
      <trkpt lat="49.30355" lon="-0.07711">
        <ele>10.7</ele>
        <time>2020-06-17T12:30:49Z</time>
      </trkpt>
      <trkpt lat="49.30358" lon="-0.07705">
        <ele>10.9</ele>
        <time>2020-06-17T12:30:50Z</time>
      </trkpt>
      <trkpt lat="49.3036" lon="-0.07699">
        <ele>10.9</ele>
        <time>2020-06-17T12:30:51Z</time>
      </trkpt>
      <trkpt lat="49.30363" lon="-0.07692">
        <ele>10.9</ele>
        <time>2020-06-17T12:30:52Z</time>
      </trkpt>
      <trkpt lat="49.30365" lon="-0.07686">
        <ele>11</ele>
        <time>2020-06-17T12:30:53Z</time>
      </trkpt>
      <trkpt lat="49.30367" lon="-0.0768">
        <ele>11</ele>
        <time>2020-06-17T12:30:54Z</time>
      </trkpt>
      <trkpt lat="49.30369" lon="-0.07675">
        <ele>11.1</ele>
        <time>2020-06-17T12:30:55Z</time>
      </trkpt>
      <trkpt lat="49.30371" lon="-0.07667">
        <ele>11.1</ele>
        <time>2020-06-17T12:30:56Z</time>
      </trkpt>
      <trkpt lat="49.30373" lon="-0.07661">
        <ele>11.2</ele>
        <time>2020-06-17T12:30:57Z</time>
      </trkpt>
      <trkpt lat="49.30374" lon="-0.07653">
        <ele>11.2</ele>
        <time>2020-06-17T12:30:58Z</time>
      </trkpt>
      <trkpt lat="49.30376" lon="-0.07647">
        <ele>11.3</ele>
        <time>2020-06-17T12:30:59Z</time>
      </trkpt>
      <trkpt lat="49.30377" lon="-0.0764">
        <ele>11.4</ele>
        <time>2020-06-17T12:31:00Z</time>
      </trkpt>
      <trkpt lat="49.30378" lon="-0.07634">
        <ele>11.4</ele>
        <time>2020-06-17T12:31:01Z</time>
      </trkpt>
      <trkpt lat="49.30379" lon="-0.07627">
        <ele>11.5</ele>
        <time>2020-06-17T12:31:02Z</time>
      </trkpt>
      <trkpt lat="49.30381" lon="-0.0762">
        <ele>11.5</ele>
        <time>2020-06-17T12:31:03Z</time>
      </trkpt>
      <trkpt lat="49.30383" lon="-0.07614">
        <ele>11.6</ele>
        <time>2020-06-17T12:31:04Z</time>
      </trkpt>
      <trkpt lat="49.30384" lon="-0.0761">
        <ele>11.6</ele>
        <time>2020-06-17T12:31:05Z</time>
      </trkpt>
      <trkpt lat="49.30386" lon="-0.07604">
        <ele>11.6</ele>
        <time>2020-06-17T12:31:06Z</time>
      </trkpt>
      <trkpt lat="49.30387" lon="-0.07598">
        <ele>11.7</ele>
        <time>2020-06-17T12:31:07Z</time>
      </trkpt>
      <trkpt lat="49.30389" lon="-0.07592">
        <ele>11.7</ele>
        <time>2020-06-17T12:31:08Z</time>
      </trkpt>
      <trkpt lat="49.3039" lon="-0.07586">
        <ele>11.7</ele>
        <time>2020-06-17T12:31:09Z</time>
      </trkpt>
      <trkpt lat="49.30392" lon="-0.07579">
        <ele>11.8</ele>
        <time>2020-06-17T12:31:10Z</time>
      </trkpt>
      <trkpt lat="49.30393" lon="-0.07574">
        <ele>11.8</ele>
        <time>2020-06-17T12:31:11Z</time>
      </trkpt>
      <trkpt lat="49.30395" lon="-0.07566">
        <ele>11.9</ele>
        <time>2020-06-17T12:31:12Z</time>
      </trkpt>
      <trkpt lat="49.30396" lon="-0.0756">
        <ele>11.9</ele>
        <time>2020-06-17T12:31:13Z</time>
      </trkpt>
      <trkpt lat="49.30399" lon="-0.07553">
        <ele>12</ele>
        <time>2020-06-17T12:31:14Z</time>
      </trkpt>
      <trkpt lat="49.304" lon="-0.07545">
        <ele>12.1</ele>
        <time>2020-06-17T12:31:15Z</time>
      </trkpt>
      <trkpt lat="49.30401" lon="-0.07539">
        <ele>12.2</ele>
        <time>2020-06-17T12:31:16Z</time>
      </trkpt>
      <trkpt lat="49.30402" lon="-0.07535">
        <ele>12.2</ele>
        <time>2020-06-17T12:31:17Z</time>
      </trkpt>
      <trkpt lat="49.30405" lon="-0.07531">
        <ele>12.3</ele>
        <time>2020-06-17T12:31:18Z</time>
      </trkpt>
      <trkpt lat="49.30406" lon="-0.0753">
        <ele>12.3</ele>
        <time>2020-06-17T12:31:19Z</time>
      </trkpt>
      <trkpt lat="49.3041" lon="-0.07526">
        <ele>12.4</ele>
        <time>2020-06-17T12:31:20Z</time>
      </trkpt>
      <trkpt lat="49.30411" lon="-0.07525">
        <ele>12.4</ele>
        <time>2020-06-17T12:31:21Z</time>
      </trkpt>
      <trkpt lat="49.30414" lon="-0.07522">
        <ele>12.4</ele>
        <time>2020-06-17T12:31:22Z</time>
      </trkpt>
      <trkpt lat="49.30415" lon="-0.07521">
        <ele>12.5</ele>
        <time>2020-06-17T12:31:23Z</time>
      </trkpt>
      <trkpt lat="49.30418" lon="-0.07518">
        <ele>12.5</ele>
        <time>2020-06-17T12:31:24Z</time>
      </trkpt>
      <trkpt lat="49.30419" lon="-0.07517">
        <ele>12.5</ele>
        <time>2020-06-17T12:31:25Z</time>
      </trkpt>
      <trkpt lat="49.30421" lon="-0.07515">
        <ele>12.5</ele>
        <time>2020-06-17T12:31:26Z</time>
      </trkpt>
      <trkpt lat="49.30421" lon="-0.07514">
        <ele>12.6</ele>
        <time>2020-06-17T12:31:27Z</time>
      </trkpt>
      <trkpt lat="49.30422" lon="-0.07514">
        <ele>12.6</ele>
        <time>2020-06-17T12:31:28Z</time>
      </trkpt>
      <trkpt lat="49.30424" lon="-0.07512">
        <ele>12.6</ele>
        <time>2020-06-17T12:31:29Z</time>
      </trkpt>
      <trkpt lat="49.30425" lon="-0.07511">
        <ele>12.6</ele>
        <time>2020-06-17T12:31:30Z</time>
      </trkpt>
      <trkpt lat="49.30429" lon="-0.07507">
        <ele>12.7</ele>
        <time>2020-06-17T12:31:31Z</time>
      </trkpt>
      <trkpt lat="49.30431" lon="-0.07505">
        <ele>12.7</ele>
        <time>2020-06-17T12:31:32Z</time>
      </trkpt>
      <trkpt lat="49.30433" lon="-0.07501">
        <ele>12.8</ele>
        <time>2020-06-17T12:31:33Z</time>
      </trkpt>
      <trkpt lat="49.30435" lon="-0.07497">
        <ele>12.8</ele>
        <time>2020-06-17T12:31:34Z</time>
      </trkpt>
      <trkpt lat="49.30435" lon="-0.07492">
        <ele>12.9</ele>
        <time>2020-06-17T12:31:35Z</time>
      </trkpt>
      <trkpt lat="49.30435" lon="-0.07487">
        <ele>12.9</ele>
        <time>2020-06-17T12:31:36Z</time>
      </trkpt>
      <trkpt lat="49.30436" lon="-0.07481">
        <ele>13</ele>
        <time>2020-06-17T12:31:37Z</time>
      </trkpt>
      <trkpt lat="49.30437" lon="-0.07477">
        <ele>13</ele>
        <time>2020-06-17T12:31:38Z</time>
      </trkpt>
      <trkpt lat="49.30437" lon="-0.07472">
        <ele>13</ele>
        <time>2020-06-17T12:31:39Z</time>
      </trkpt>
      <trkpt lat="49.30437" lon="-0.07467">
        <ele>13.1</ele>
        <time>2020-06-17T12:31:40Z</time>
      </trkpt>
      <trkpt lat="49.30438" lon="-0.07456">
        <ele>13</ele>
        <time>2020-06-17T12:31:41Z</time>
      </trkpt>
      <trkpt lat="49.30439" lon="-0.07447">
        <ele>13.1</ele>
        <time>2020-06-17T12:31:42Z</time>
      </trkpt>
      <trkpt lat="49.3044" lon="-0.0744">
        <ele>13.1</ele>
        <time>2020-06-17T12:31:43Z</time>
      </trkpt>
      <trkpt lat="49.30441" lon="-0.07431">
        <ele>13.1</ele>
        <time>2020-06-17T12:31:44Z</time>
      </trkpt>
      <trkpt lat="49.30442" lon="-0.07422">
        <ele>13.2</ele>
        <time>2020-06-17T12:31:45Z</time>
      </trkpt>
      <trkpt lat="49.30443" lon="-0.07414">
        <ele>13.2</ele>
        <time>2020-06-17T12:31:46Z</time>
      </trkpt>
      <trkpt lat="49.30444" lon="-0.07407">
        <ele>13.3</ele>
        <time>2020-06-17T12:31:47Z</time>
      </trkpt>
      <trkpt lat="49.30444" lon="-0.07397">
        <ele>13.3</ele>
        <time>2020-06-17T12:31:48Z</time>
      </trkpt>
      <trkpt lat="49.30444" lon="-0.0739">
        <ele>13.4</ele>
        <time>2020-06-17T12:31:49Z</time>
      </trkpt>
      <trkpt lat="49.30445" lon="-0.07385">
        <ele>13.5</ele>
        <time>2020-06-17T12:31:50Z</time>
      </trkpt>
      <trkpt lat="49.30447" lon="-0.07379">
        <ele>13.6</ele>
        <time>2020-06-17T12:31:51Z</time>
      </trkpt>
      <trkpt lat="49.30452" lon="-0.07376">
        <ele>13.7</ele>
        <time>2020-06-17T12:31:52Z</time>
      </trkpt>
      <trkpt lat="49.30455" lon="-0.07373">
        <ele>13.8</ele>
        <time>2020-06-17T12:31:53Z</time>
      </trkpt>
      <trkpt lat="49.3046" lon="-0.0737">
        <ele>13.9</ele>
        <time>2020-06-17T12:31:54Z</time>
      </trkpt>
      <trkpt lat="49.30463" lon="-0.07365">
        <ele>13.9</ele>
        <time>2020-06-17T12:31:55Z</time>
      </trkpt>
      <trkpt lat="49.30466" lon="-0.07363">
        <ele>14</ele>
        <time>2020-06-17T12:31:56Z</time>
      </trkpt>
      <trkpt lat="49.30469" lon="-0.07359">
        <ele>14</ele>
        <time>2020-06-17T12:31:57Z</time>
      </trkpt>
      <trkpt lat="49.30472" lon="-0.07357">
        <ele>14.2</ele>
        <time>2020-06-17T12:31:58Z</time>
      </trkpt>
      <trkpt lat="49.30476" lon="-0.07355">
        <ele>14.3</ele>
        <time>2020-06-17T12:31:59Z</time>
      </trkpt>
      <trkpt lat="49.30479" lon="-0.07352">
        <ele>14.4</ele>
        <time>2020-06-17T12:32:00Z</time>
      </trkpt>
      <trkpt lat="49.30481" lon="-0.07348">
        <ele>14.6</ele>
        <time>2020-06-17T12:32:01Z</time>
      </trkpt>
      <trkpt lat="49.30482" lon="-0.07344">
        <ele>14.7</ele>
        <time>2020-06-17T12:32:02Z</time>
      </trkpt>
      <trkpt lat="49.30484" lon="-0.0734">
        <ele>14.8</ele>
        <time>2020-06-17T12:32:03Z</time>
      </trkpt>
      <trkpt lat="49.30485" lon="-0.07336">
        <ele>14.9</ele>
        <time>2020-06-17T12:32:04Z</time>
      </trkpt>
      <trkpt lat="49.30488" lon="-0.07331">
        <ele>15.1</ele>
        <time>2020-06-17T12:32:05Z</time>
      </trkpt>
      <trkpt lat="49.30488" lon="-0.07329">
        <ele>15.1</ele>
        <time>2020-06-17T12:32:06Z</time>
      </trkpt>
      <trkpt lat="49.30491" lon="-0.07325">
        <ele>15.2</ele>
        <time>2020-06-17T12:32:07Z</time>
      </trkpt>
      <trkpt lat="49.30493" lon="-0.07321">
        <ele>15.4</ele>
        <time>2020-06-17T12:32:08Z</time>
      </trkpt>
      <trkpt lat="49.30494" lon="-0.07316">
        <ele>15.6</ele>
        <time>2020-06-17T12:32:09Z</time>
      </trkpt>
      <trkpt lat="49.30495" lon="-0.07311">
        <ele>15.7</ele>
        <time>2020-06-17T12:32:10Z</time>
      </trkpt>
      <trkpt lat="49.30497" lon="-0.07306">
        <ele>15.9</ele>
        <time>2020-06-17T12:32:11Z</time>
      </trkpt>
      <trkpt lat="49.30498" lon="-0.07304">
        <ele>16</ele>
        <time>2020-06-17T12:32:12Z</time>
      </trkpt>
      <trkpt lat="49.30499" lon="-0.07298">
        <ele>16.2</ele>
        <time>2020-06-17T12:32:13Z</time>
      </trkpt>
      <trkpt lat="49.305" lon="-0.07296">
        <ele>16.3</ele>
        <time>2020-06-17T12:32:14Z</time>
      </trkpt>
      <trkpt lat="49.30501" lon="-0.07291">
        <ele>16.5</ele>
        <time>2020-06-17T12:32:15Z</time>
      </trkpt>
      <trkpt lat="49.30502" lon="-0.07286">
        <ele>16.7</ele>
        <time>2020-06-17T12:32:16Z</time>
      </trkpt>
      <trkpt lat="49.30503" lon="-0.0728">
        <ele>17</ele>
        <time>2020-06-17T12:32:17Z</time>
      </trkpt>
      <trkpt lat="49.30504" lon="-0.07276">
        <ele>17.2</ele>
        <time>2020-06-17T12:32:18Z</time>
      </trkpt>
      <trkpt lat="49.30505" lon="-0.07271">
        <ele>17.4</ele>
        <time>2020-06-17T12:32:19Z</time>
      </trkpt>
      <trkpt lat="49.30507" lon="-0.07267">
        <ele>17.7</ele>
        <time>2020-06-17T12:32:20Z</time>
      </trkpt>
      <trkpt lat="49.30509" lon="-0.07262">
        <ele>18</ele>
        <time>2020-06-17T12:32:21Z</time>
      </trkpt>
      <trkpt lat="49.3051" lon="-0.07256">
        <ele>18.4</ele>
        <time>2020-06-17T12:32:22Z</time>
      </trkpt>
      <trkpt lat="49.30512" lon="-0.07252">
        <ele>18.7</ele>
        <time>2020-06-17T12:32:23Z</time>
      </trkpt>
      <trkpt lat="49.30513" lon="-0.07247">
        <ele>18.9</ele>
        <time>2020-06-17T12:32:24Z</time>
      </trkpt>
      <trkpt lat="49.30514" lon="-0.07243">
        <ele>19.2</ele>
        <time>2020-06-17T12:32:25Z</time>
      </trkpt>
      <trkpt lat="49.30516" lon="-0.07239">
        <ele>19.5</ele>
        <time>2020-06-17T12:32:26Z</time>
      </trkpt>
      <trkpt lat="49.30517" lon="-0.07235">
        <ele>19.7</ele>
        <time>2020-06-17T12:32:27Z</time>
      </trkpt>
      <trkpt lat="49.30519" lon="-0.07229">
        <ele>20</ele>
        <time>2020-06-17T12:32:28Z</time>
      </trkpt>
      <trkpt lat="49.3052" lon="-0.07224">
        <ele>20.3</ele>
        <time>2020-06-17T12:32:29Z</time>
      </trkpt>
      <trkpt lat="49.30521" lon="-0.07223">
        <ele>20.5</ele>
        <time>2020-06-17T12:32:30Z</time>
      </trkpt>
      <trkpt lat="49.30522" lon="-0.07217">
        <ele>20.8</ele>
        <time>2020-06-17T12:32:31Z</time>
      </trkpt>
      <trkpt lat="49.30523" lon="-0.07215">
        <ele>20.9</ele>
        <time>2020-06-17T12:32:32Z</time>
      </trkpt>
      <trkpt lat="49.30525" lon="-0.0721">
        <ele>21.3</ele>
        <time>2020-06-17T12:32:33Z</time>
      </trkpt>
      <trkpt lat="49.30525" lon="-0.07209">
        <ele>21.4</ele>
        <time>2020-06-17T12:32:34Z</time>
      </trkpt>
      <trkpt lat="49.30526" lon="-0.07205">
        <ele>21.6</ele>
        <time>2020-06-17T12:32:35Z</time>
      </trkpt>
      <trkpt lat="49.30526" lon="-0.07203">
        <ele>21.7</ele>
        <time>2020-06-17T12:32:36Z</time>
      </trkpt>
      <trkpt lat="49.30527" lon="-0.07199">
        <ele>22</ele>
        <time>2020-06-17T12:32:37Z</time>
      </trkpt>
      <trkpt lat="49.30527" lon="-0.07197">
        <ele>22.2</ele>
        <time>2020-06-17T12:32:38Z</time>
      </trkpt>
      <trkpt lat="49.30528" lon="-0.07192">
        <ele>22.5</ele>
        <time>2020-06-17T12:32:39Z</time>
      </trkpt>
      <trkpt lat="49.30528" lon="-0.0719">
        <ele>22.6</ele>
        <time>2020-06-17T12:32:40Z</time>
      </trkpt>
      <trkpt lat="49.30528" lon="-0.07188">
        <ele>22.7</ele>
        <time>2020-06-17T12:32:41Z</time>
      </trkpt>
      <trkpt lat="49.30528" lon="-0.07187">
        <ele>22.9</ele>
        <time>2020-06-17T12:32:42Z</time>
      </trkpt>
      <trkpt lat="49.30528" lon="-0.07185">
        <ele>23</ele>
        <time>2020-06-17T12:32:43Z</time>
      </trkpt>
      <trkpt lat="49.30527" lon="-0.07183">
        <ele>23.2</ele>
        <time>2020-06-17T12:32:44Z</time>
      </trkpt>
      <trkpt lat="49.30527" lon="-0.07181">
        <ele>23.3</ele>
        <time>2020-06-17T12:32:45Z</time>
      </trkpt>
      <trkpt lat="49.30527" lon="-0.07177">
        <ele>23.6</ele>
        <time>2020-06-17T12:32:46Z</time>
      </trkpt>
      <trkpt lat="49.30527" lon="-0.07176">
        <ele>23.8</ele>
        <time>2020-06-17T12:32:47Z</time>
      </trkpt>
      <trkpt lat="49.30527" lon="-0.07174">
        <ele>23.9</ele>
        <time>2020-06-17T12:32:48Z</time>
      </trkpt>
      <trkpt lat="49.30527" lon="-0.07168">
        <ele>24.3</ele>
        <time>2020-06-17T12:32:49Z</time>
      </trkpt>
      <trkpt lat="49.30526" lon="-0.07167">
        <ele>24.5</ele>
        <time>2020-06-17T12:32:50Z</time>
      </trkpt>
      <trkpt lat="49.30527" lon="-0.07163">
        <ele>24.8</ele>
        <time>2020-06-17T12:32:51Z</time>
      </trkpt>
      <trkpt lat="49.30527" lon="-0.07161">
        <ele>25</ele>
        <time>2020-06-17T12:32:52Z</time>
      </trkpt>
      <trkpt lat="49.30527" lon="-0.07158">
        <ele>25.2</ele>
        <time>2020-06-17T12:32:53Z</time>
      </trkpt>
      <trkpt lat="49.30527" lon="-0.07155">
        <ele>25.5</ele>
        <time>2020-06-17T12:32:54Z</time>
      </trkpt>
      <trkpt lat="49.30527" lon="-0.07154">
        <ele>25.6</ele>
        <time>2020-06-17T12:32:55Z</time>
      </trkpt>
      <trkpt lat="49.30526" lon="-0.07151">
        <ele>25.9</ele>
        <time>2020-06-17T12:32:56Z</time>
      </trkpt>
      <trkpt lat="49.30527" lon="-0.07149">
        <ele>26.1</ele>
        <time>2020-06-17T12:32:57Z</time>
      </trkpt>
      <trkpt lat="49.30527" lon="-0.07148">
        <ele>26.2</ele>
        <time>2020-06-17T12:32:58Z</time>
      </trkpt>
      <trkpt lat="49.30527" lon="-0.07146">
        <ele>26.3</ele>
        <time>2020-06-17T12:32:59Z</time>
      </trkpt>
      <trkpt lat="49.30528" lon="-0.07145">
        <ele>26.5</ele>
        <time>2020-06-17T12:33:00Z</time>
      </trkpt>
      <trkpt lat="49.30528" lon="-0.07144">
        <ele>26.6</ele>
        <time>2020-06-17T12:33:01Z</time>
      </trkpt>
      <trkpt lat="49.30527" lon="-0.07142">
        <ele>26.8</ele>
        <time>2020-06-17T12:33:02Z</time>
      </trkpt>
      <trkpt lat="49.30527" lon="-0.0714">
        <ele>26.9</ele>
        <time>2020-06-17T12:33:03Z</time>
      </trkpt>
      <trkpt lat="49.30527" lon="-0.0714">
        <ele>27</ele>
        <time>2020-06-17T12:33:04Z</time>
      </trkpt>
      <trkpt lat="49.30527" lon="-0.0714">
        <ele>27</ele>
        <time>2020-06-17T12:33:05Z</time>
      </trkpt>
      <trkpt lat="49.30527" lon="-0.07139">
        <ele>27</ele>
        <time>2020-06-17T12:33:06Z</time>
      </trkpt>
      <trkpt lat="49.30527" lon="-0.07137">
        <ele>27.3</ele>
        <time>2020-06-17T12:33:07Z</time>
      </trkpt>
      <trkpt lat="49.30527" lon="-0.07135">
        <ele>27.5</ele>
        <time>2020-06-17T12:33:08Z</time>
      </trkpt>
      <trkpt lat="49.30527" lon="-0.07132">
        <ele>27.9</ele>
        <time>2020-06-17T12:33:09Z</time>
      </trkpt>
      <trkpt lat="49.30526" lon="-0.07127">
        <ele>28.5</ele>
        <time>2020-06-17T12:33:10Z</time>
      </trkpt>
      <trkpt lat="49.30526" lon="-0.07126">
        <ele>28.7</ele>
        <time>2020-06-17T12:33:11Z</time>
      </trkpt>
      <trkpt lat="49.30526" lon="-0.07121">
        <ele>29.3</ele>
        <time>2020-06-17T12:33:12Z</time>
      </trkpt>
      <trkpt lat="49.30526" lon="-0.0712">
        <ele>29.5</ele>
        <time>2020-06-17T12:33:13Z</time>
      </trkpt>
      <trkpt lat="49.30524" lon="-0.07115">
        <ele>30.2</ele>
        <time>2020-06-17T12:33:14Z</time>
      </trkpt>
      <trkpt lat="49.30524" lon="-0.07113">
        <ele>30.4</ele>
        <time>2020-06-17T12:33:15Z</time>
      </trkpt>
      <trkpt lat="49.30524" lon="-0.07108">
        <ele>31.1</ele>
        <time>2020-06-17T12:33:16Z</time>
      </trkpt>
      <trkpt lat="49.30524" lon="-0.07107">
        <ele>31.3</ele>
        <time>2020-06-17T12:33:17Z</time>
      </trkpt>
      <trkpt lat="49.30525" lon="-0.07104">
        <ele>31.8</ele>
        <time>2020-06-17T12:33:18Z</time>
      </trkpt>
      <trkpt lat="49.30525" lon="-0.07102">
        <ele>32</ele>
        <time>2020-06-17T12:33:19Z</time>
      </trkpt>
      <trkpt lat="49.30526" lon="-0.07097">
        <ele>32.9</ele>
        <time>2020-06-17T12:33:20Z</time>
      </trkpt>
      <trkpt lat="49.30526" lon="-0.07095">
        <ele>33</ele>
        <time>2020-06-17T12:33:21Z</time>
      </trkpt>
      <trkpt lat="49.30527" lon="-0.07091">
        <ele>33.4</ele>
        <time>2020-06-17T12:33:22Z</time>
      </trkpt>
      <trkpt lat="49.30527" lon="-0.07089">
        <ele>33.5</ele>
        <time>2020-06-17T12:33:23Z</time>
      </trkpt>
      <trkpt lat="49.30527" lon="-0.07084">
        <ele>33.9</ele>
        <time>2020-06-17T12:33:24Z</time>
      </trkpt>
      <trkpt lat="49.30528" lon="-0.07082">
        <ele>34.3</ele>
        <time>2020-06-17T12:33:25Z</time>
      </trkpt>
      <trkpt lat="49.30527" lon="-0.07077">
        <ele>34.9</ele>
        <time>2020-06-17T12:33:26Z</time>
      </trkpt>
      <trkpt lat="49.30527" lon="-0.07075">
        <ele>35.2</ele>
        <time>2020-06-17T12:33:27Z</time>
      </trkpt>
      <trkpt lat="49.30526" lon="-0.07073">
        <ele>35.5</ele>
        <time>2020-06-17T12:33:28Z</time>
      </trkpt>
      <trkpt lat="49.30527" lon="-0.0707">
        <ele>35.9</ele>
        <time>2020-06-17T12:33:29Z</time>
      </trkpt>
      <trkpt lat="49.30527" lon="-0.07068">
        <ele>36.2</ele>
        <time>2020-06-17T12:33:30Z</time>
      </trkpt>
      <trkpt lat="49.30527" lon="-0.07066">
        <ele>36.5</ele>
        <time>2020-06-17T12:33:31Z</time>
      </trkpt>
      <trkpt lat="49.30526" lon="-0.07064">
        <ele>36.7</ele>
        <time>2020-06-17T12:33:32Z</time>
      </trkpt>
      <trkpt lat="49.30525" lon="-0.07063">
        <ele>37</ele>
        <time>2020-06-17T12:33:33Z</time>
      </trkpt>
      <trkpt lat="49.30525" lon="-0.07061">
        <ele>37.2</ele>
        <time>2020-06-17T12:33:34Z</time>
      </trkpt>
      <trkpt lat="49.30525" lon="-0.07059">
        <ele>37.4</ele>
        <time>2020-06-17T12:33:35Z</time>
      </trkpt>
      <trkpt lat="49.30525" lon="-0.07057">
        <ele>37.7</ele>
        <time>2020-06-17T12:33:36Z</time>
      </trkpt>
      <trkpt lat="49.30525" lon="-0.07056">
        <ele>37.8</ele>
        <time>2020-06-17T12:33:37Z</time>
      </trkpt>
      <trkpt lat="49.30524" lon="-0.07054">
        <ele>38</ele>
        <time>2020-06-17T12:33:38Z</time>
      </trkpt>
      <trkpt lat="49.30524" lon="-0.07053">
        <ele>38.2</ele>
        <time>2020-06-17T12:33:39Z</time>
      </trkpt>
      <trkpt lat="49.30524" lon="-0.07051">
        <ele>38.4</ele>
        <time>2020-06-17T12:33:40Z</time>
      </trkpt>
      <trkpt lat="49.30523" lon="-0.07049">
        <ele>38.7</ele>
        <time>2020-06-17T12:33:41Z</time>
      </trkpt>
      <trkpt lat="49.30523" lon="-0.07046">
        <ele>39</ele>
        <time>2020-06-17T12:33:42Z</time>
      </trkpt>
      <trkpt lat="49.30523" lon="-0.07044">
        <ele>39.2</ele>
        <time>2020-06-17T12:33:43Z</time>
      </trkpt>
      <trkpt lat="49.30523" lon="-0.07042">
        <ele>39.6</ele>
        <time>2020-06-17T12:33:44Z</time>
      </trkpt>
      <trkpt lat="49.30523" lon="-0.07039">
        <ele>39.8</ele>
        <time>2020-06-17T12:33:45Z</time>
      </trkpt>
      <trkpt lat="49.30523" lon="-0.07037">
        <ele>40.1</ele>
        <time>2020-06-17T12:33:46Z</time>
      </trkpt>
      <trkpt lat="49.30522" lon="-0.07036">
        <ele>40.3</ele>
        <time>2020-06-17T12:33:47Z</time>
      </trkpt>
      <trkpt lat="49.30522" lon="-0.07035">
        <ele>40.5</ele>
        <time>2020-06-17T12:33:48Z</time>
      </trkpt>
      <trkpt lat="49.30521" lon="-0.07033">
        <ele>40.7</ele>
        <time>2020-06-17T12:33:49Z</time>
      </trkpt>
      <trkpt lat="49.30521" lon="-0.0703">
        <ele>41</ele>
        <time>2020-06-17T12:33:50Z</time>
      </trkpt>
      <trkpt lat="49.30521" lon="-0.07029">
        <ele>41.1</ele>
        <time>2020-06-17T12:33:51Z</time>
      </trkpt>
      <trkpt lat="49.30521" lon="-0.07028">
        <ele>41.3</ele>
        <time>2020-06-17T12:33:52Z</time>
      </trkpt>
      <trkpt lat="49.30521" lon="-0.07026">
        <ele>41.5</ele>
        <time>2020-06-17T12:33:53Z</time>
      </trkpt>
      <trkpt lat="49.3052" lon="-0.07024">
        <ele>41.8</ele>
        <time>2020-06-17T12:33:54Z</time>
      </trkpt>
      <trkpt lat="49.3052" lon="-0.07022">
        <ele>41.9</ele>
        <time>2020-06-17T12:33:55Z</time>
      </trkpt>
      <trkpt lat="49.3052" lon="-0.07021">
        <ele>42.1</ele>
        <time>2020-06-17T12:33:56Z</time>
      </trkpt>
      <trkpt lat="49.30519" lon="-0.07019">
        <ele>42.3</ele>
        <time>2020-06-17T12:33:57Z</time>
      </trkpt>
      <trkpt lat="49.30519" lon="-0.07017">
        <ele>42.5</ele>
        <time>2020-06-17T12:33:58Z</time>
      </trkpt>
      <trkpt lat="49.3052" lon="-0.07015">
        <ele>42.7</ele>
        <time>2020-06-17T12:33:59Z</time>
      </trkpt>
      <trkpt lat="49.3052" lon="-0.07012">
        <ele>43.1</ele>
        <time>2020-06-17T12:34:00Z</time>
      </trkpt>
      <trkpt lat="49.3052" lon="-0.0701">
        <ele>43.3</ele>
        <time>2020-06-17T12:34:01Z</time>
      </trkpt>
      <trkpt lat="49.3052" lon="-0.07007">
        <ele>43.6</ele>
        <time>2020-06-17T12:34:02Z</time>
      </trkpt>
      <trkpt lat="49.30519" lon="-0.07003">
        <ele>44</ele>
        <time>2020-06-17T12:34:03Z</time>
      </trkpt>
      <trkpt lat="49.30519" lon="-0.07001">
        <ele>44.2</ele>
        <time>2020-06-17T12:34:04Z</time>
      </trkpt>
      <trkpt lat="49.30518" lon="-0.06996">
        <ele>44.8</ele>
        <time>2020-06-17T12:34:05Z</time>
      </trkpt>
      <trkpt lat="49.30518" lon="-0.06995">
        <ele>44.9</ele>
        <time>2020-06-17T12:34:06Z</time>
      </trkpt>
      <trkpt lat="49.30517" lon="-0.06993">
        <ele>45.2</ele>
        <time>2020-06-17T12:34:07Z</time>
      </trkpt>
      <trkpt lat="49.30515" lon="-0.06992">
        <ele>46.3</ele>
        <time>2020-06-17T12:34:08Z</time>
      </trkpt>
      <trkpt lat="49.30514" lon="-0.0699">
        <ele>46.5</ele>
        <time>2020-06-17T12:34:09Z</time>
      </trkpt>
      <trkpt lat="49.30512" lon="-0.06991">
        <ele>46.6</ele>
        <time>2020-06-17T12:34:10Z</time>
      </trkpt>
      <trkpt lat="49.30511" lon="-0.06992">
        <ele>46.8</ele>
        <time>2020-06-17T12:34:11Z</time>
      </trkpt>
      <trkpt lat="49.3051" lon="-0.06992">
        <ele>46.9</ele>
        <time>2020-06-17T12:34:12Z</time>
      </trkpt>
      <trkpt lat="49.3051" lon="-0.06991">
        <ele>47</ele>
        <time>2020-06-17T12:34:13Z</time>
      </trkpt>
      <trkpt lat="49.30511" lon="-0.06989">
        <ele>47.1</ele>
        <time>2020-06-17T12:34:14Z</time>
      </trkpt>
      <trkpt lat="49.3051" lon="-0.0699">
        <ele>47.2</ele>
        <time>2020-06-17T12:34:15Z</time>
      </trkpt>
      <trkpt lat="49.30509" lon="-0.0699">
        <ele>47.3</ele>
        <time>2020-06-17T12:34:16Z</time>
      </trkpt>
      <trkpt lat="49.30508" lon="-0.0699">
        <ele>47.4</ele>
        <time>2020-06-17T12:34:17Z</time>
      </trkpt>
      <trkpt lat="49.30507" lon="-0.0699">
        <ele>47.4</ele>
        <time>2020-06-17T12:34:18Z</time>
      </trkpt>
      <trkpt lat="49.30506" lon="-0.0699">
        <ele>47.5</ele>
        <time>2020-06-17T12:34:19Z</time>
      </trkpt>
      <trkpt lat="49.30506" lon="-0.0699">
        <ele>47.5</ele>
        <time>2020-06-17T12:34:20Z</time>
      </trkpt>
      <trkpt lat="49.30506" lon="-0.0699">
        <ele>47.5</ele>
        <time>2020-06-17T12:34:21Z</time>
      </trkpt>
      <trkpt lat="49.30506" lon="-0.0699">
        <ele>47.6</ele>
        <time>2020-06-17T12:34:22Z</time>
      </trkpt>
      <trkpt lat="49.30505" lon="-0.06989">
        <ele>47.6</ele>
        <time>2020-06-17T12:34:23Z</time>
      </trkpt>
      <trkpt lat="49.30504" lon="-0.06988">
        <ele>47.7</ele>
        <time>2020-06-17T12:34:24Z</time>
      </trkpt>
      <trkpt lat="49.30505" lon="-0.06989">
        <ele>47.7</ele>
        <time>2020-06-17T12:34:25Z</time>
      </trkpt>
      <trkpt lat="49.30505" lon="-0.06989">
        <ele>47.7</ele>
        <time>2020-06-17T12:34:26Z</time>
      </trkpt>
      <trkpt lat="49.30505" lon="-0.06989">
        <ele>47.8</ele>
        <time>2020-06-17T12:34:27Z</time>
      </trkpt>
      <trkpt lat="49.30505" lon="-0.06989">
        <ele>47.8</ele>
        <time>2020-06-17T12:34:28Z</time>
      </trkpt>
      <trkpt lat="49.30505" lon="-0.06988">
        <ele>47.8</ele>
        <time>2020-06-17T12:34:29Z</time>
      </trkpt>
      <trkpt lat="49.30505" lon="-0.06987">
        <ele>47.8</ele>
        <time>2020-06-17T12:34:30Z</time>
      </trkpt>
      <trkpt lat="49.30504" lon="-0.06987">
        <ele>47.9</ele>
        <time>2020-06-17T12:34:31Z</time>
      </trkpt>
      <trkpt lat="49.30504" lon="-0.06987">
        <ele>47.9</ele>
        <time>2020-06-17T12:34:32Z</time>
      </trkpt>
      <trkpt lat="49.30504" lon="-0.06987">
        <ele>47.9</ele>
        <time>2020-06-17T12:34:33Z</time>
      </trkpt>
      <trkpt lat="49.30504" lon="-0.06987">
        <ele>47.9</ele>
        <time>2020-06-17T12:34:34Z</time>
      </trkpt>
      <trkpt lat="49.30504" lon="-0.06987">
        <ele>47.9</ele>
        <time>2020-06-17T12:34:35Z</time>
      </trkpt>
      <trkpt lat="49.30496" lon="-0.06987">
        <ele>48.2</ele>
        <time>2020-06-17T12:35:20Z</time>
      </trkpt>
      <trkpt lat="49.30495" lon="-0.06987">
        <ele>48.2</ele>
        <time>2020-06-17T12:35:21Z</time>
      </trkpt>
      <trkpt lat="49.30493" lon="-0.06987">
        <ele>48.3</ele>
        <time>2020-06-17T12:35:22Z</time>
      </trkpt>
      <trkpt lat="49.30492" lon="-0.06988">
        <ele>48.3</ele>
        <time>2020-06-17T12:35:23Z</time>
      </trkpt>
      <trkpt lat="49.30491" lon="-0.06988">
        <ele>48.3</ele>
        <time>2020-06-17T12:35:24Z</time>
      </trkpt>
      <trkpt lat="49.3049" lon="-0.06988">
        <ele>48.4</ele>
        <time>2020-06-17T12:35:25Z</time>
      </trkpt>
      <trkpt lat="49.30489" lon="-0.06988">
        <ele>48.4</ele>
        <time>2020-06-17T12:35:26Z</time>
      </trkpt>
      <trkpt lat="49.30487" lon="-0.06987">
        <ele>48.4</ele>
        <time>2020-06-17T12:35:27Z</time>
      </trkpt>
      <trkpt lat="49.30486" lon="-0.06987">
        <ele>48.4</ele>
        <time>2020-06-17T12:35:28Z</time>
      </trkpt>
      <trkpt lat="49.30484" lon="-0.06987">
        <ele>48.5</ele>
        <time>2020-06-17T12:35:29Z</time>
      </trkpt>
      <trkpt lat="49.30483" lon="-0.06986">
        <ele>48.5</ele>
        <time>2020-06-17T12:35:30Z</time>
      </trkpt>
      <trkpt lat="49.30482" lon="-0.06986">
        <ele>48.5</ele>
        <time>2020-06-17T12:35:31Z</time>
      </trkpt>
      <trkpt lat="49.3048" lon="-0.06986">
        <ele>48.5</ele>
        <time>2020-06-17T12:35:32Z</time>
      </trkpt>
      <trkpt lat="49.30479" lon="-0.06987">
        <ele>48.5</ele>
        <time>2020-06-17T12:35:33Z</time>
      </trkpt>
      <trkpt lat="49.30475" lon="-0.06988">
        <ele>48.6</ele>
        <time>2020-06-17T12:35:34Z</time>
      </trkpt>
      <trkpt lat="49.30474" lon="-0.06988">
        <ele>48.6</ele>
        <time>2020-06-17T12:35:35Z</time>
      </trkpt>
      <trkpt lat="49.30471" lon="-0.0699">
        <ele>48.6</ele>
        <time>2020-06-17T12:35:36Z</time>
      </trkpt>
      <trkpt lat="49.30467" lon="-0.06991">
        <ele>48.7</ele>
        <time>2020-06-17T12:35:37Z</time>
      </trkpt>
      <trkpt lat="49.30463" lon="-0.06993">
        <ele>48.7</ele>
        <time>2020-06-17T12:35:38Z</time>
      </trkpt>
      <trkpt lat="49.30459" lon="-0.06994">
        <ele>48.7</ele>
        <time>2020-06-17T12:35:39Z</time>
      </trkpt>
      <trkpt lat="49.30456" lon="-0.06995">
        <ele>48.8</ele>
        <time>2020-06-17T12:35:40Z</time>
      </trkpt>
      <trkpt lat="49.30452" lon="-0.06996">
        <ele>48.8</ele>
        <time>2020-06-17T12:35:41Z</time>
      </trkpt>
      <trkpt lat="49.30448" lon="-0.06997">
        <ele>48.8</ele>
        <time>2020-06-17T12:35:42Z</time>
      </trkpt>
      <trkpt lat="49.30444" lon="-0.06997">
        <ele>48.8</ele>
        <time>2020-06-17T12:35:43Z</time>
      </trkpt>
      <trkpt lat="49.3044" lon="-0.06998">
        <ele>48.8</ele>
        <time>2020-06-17T12:35:44Z</time>
      </trkpt>
      <trkpt lat="49.30436" lon="-0.06999">
        <ele>48.9</ele>
        <time>2020-06-17T12:35:45Z</time>
      </trkpt>
      <trkpt lat="49.30432" lon="-0.06999">
        <ele>48.9</ele>
        <time>2020-06-17T12:35:46Z</time>
      </trkpt>
      <trkpt lat="49.30428" lon="-0.06998">
        <ele>48.9</ele>
        <time>2020-06-17T12:35:47Z</time>
      </trkpt>
      <trkpt lat="49.30423" lon="-0.06998">
        <ele>48.9</ele>
        <time>2020-06-17T12:35:48Z</time>
      </trkpt>
      <trkpt lat="49.30419" lon="-0.06999">
        <ele>48.9</ele>
        <time>2020-06-17T12:35:49Z</time>
      </trkpt>
      <trkpt lat="49.30415" lon="-0.06999">
        <ele>49</ele>
        <time>2020-06-17T12:35:50Z</time>
      </trkpt>
      <trkpt lat="49.30411" lon="-0.07">
        <ele>49</ele>
        <time>2020-06-17T12:35:51Z</time>
      </trkpt>
      <trkpt lat="49.30407" lon="-0.07">
        <ele>49</ele>
        <time>2020-06-17T12:35:52Z</time>
      </trkpt>
      <trkpt lat="49.30403" lon="-0.06999">
        <ele>49</ele>
        <time>2020-06-17T12:35:53Z</time>
      </trkpt>
      <trkpt lat="49.30399" lon="-0.06999">
        <ele>49.1</ele>
        <time>2020-06-17T12:35:54Z</time>
      </trkpt>
      <trkpt lat="49.30394" lon="-0.06999">
        <ele>49.1</ele>
        <time>2020-06-17T12:35:55Z</time>
      </trkpt>
      <trkpt lat="49.30391" lon="-0.07">
        <ele>49.1</ele>
        <time>2020-06-17T12:35:56Z</time>
      </trkpt>
      <trkpt lat="49.30387" lon="-0.07">
        <ele>49.2</ele>
        <time>2020-06-17T12:35:57Z</time>
      </trkpt>
      <trkpt lat="49.30384" lon="-0.07001">
        <ele>49.2</ele>
        <time>2020-06-17T12:35:58Z</time>
      </trkpt>
      <trkpt lat="49.3038" lon="-0.07002">
        <ele>49.2</ele>
        <time>2020-06-17T12:35:59Z</time>
      </trkpt>
      <trkpt lat="49.30376" lon="-0.07002">
        <ele>49.3</ele>
        <time>2020-06-17T12:36:00Z</time>
      </trkpt>
      <trkpt lat="49.30372" lon="-0.07003">
        <ele>49.4</ele>
        <time>2020-06-17T12:36:01Z</time>
      </trkpt>
      <trkpt lat="49.30368" lon="-0.07003">
        <ele>49.4</ele>
        <time>2020-06-17T12:36:02Z</time>
      </trkpt>
      <trkpt lat="49.30364" lon="-0.07003">
        <ele>49.5</ele>
        <time>2020-06-17T12:36:03Z</time>
      </trkpt>
      <trkpt lat="49.30359" lon="-0.07002">
        <ele>49.6</ele>
        <time>2020-06-17T12:36:04Z</time>
      </trkpt>
      <trkpt lat="49.30356" lon="-0.07002">
        <ele>49.7</ele>
        <time>2020-06-17T12:36:05Z</time>
      </trkpt>
      <trkpt lat="49.30351" lon="-0.07003">
        <ele>49.9</ele>
        <time>2020-06-17T12:36:06Z</time>
      </trkpt>
      <trkpt lat="49.30348" lon="-0.07003">
        <ele>50</ele>
        <time>2020-06-17T12:36:07Z</time>
      </trkpt>
      <trkpt lat="49.30345" lon="-0.07003">
        <ele>50.1</ele>
        <time>2020-06-17T12:36:08Z</time>
      </trkpt>
      <trkpt lat="49.30342" lon="-0.07002">
        <ele>50.2</ele>
        <time>2020-06-17T12:36:09Z</time>
      </trkpt>
      <trkpt lat="49.30339" lon="-0.07002">
        <ele>50.3</ele>
        <time>2020-06-17T12:36:10Z</time>
      </trkpt>
      <trkpt lat="49.30335" lon="-0.07002">
        <ele>50.4</ele>
        <time>2020-06-17T12:36:11Z</time>
      </trkpt>
      <trkpt lat="49.30332" lon="-0.07002">
        <ele>50.6</ele>
        <time>2020-06-17T12:36:12Z</time>
      </trkpt>
      <trkpt lat="49.30327" lon="-0.07002">
        <ele>50.7</ele>
        <time>2020-06-17T12:36:13Z</time>
      </trkpt>
      <trkpt lat="49.30325" lon="-0.07002">
        <ele>50.8</ele>
        <time>2020-06-17T12:36:14Z</time>
      </trkpt>
      <trkpt lat="49.30321" lon="-0.07001">
        <ele>50.9</ele>
        <time>2020-06-17T12:36:15Z</time>
      </trkpt>
      <trkpt lat="49.30318" lon="-0.06999">
        <ele>51</ele>
        <time>2020-06-17T12:36:16Z</time>
      </trkpt>
      <trkpt lat="49.30317" lon="-0.06998">
        <ele>51.1</ele>
        <time>2020-06-17T12:36:17Z</time>
      </trkpt>
      <trkpt lat="49.30316" lon="-0.06998">
        <ele>51.1</ele>
        <time>2020-06-17T12:36:18Z</time>
      </trkpt>
      <trkpt lat="49.30316" lon="-0.06998">
        <ele>51.1</ele>
        <time>2020-06-17T12:36:19Z</time>
      </trkpt>
      <trkpt lat="49.30316" lon="-0.06998">
        <ele>51.1</ele>
        <time>2020-06-17T12:36:20Z</time>
      </trkpt>
      <trkpt lat="49.30316" lon="-0.06998">
        <ele>51.1</ele>
        <time>2020-06-17T12:36:21Z</time>
      </trkpt>
      <trkpt lat="49.30317" lon="-0.06996">
        <ele>51.2</ele>
        <time>2020-06-17T12:36:22Z</time>
      </trkpt>
      <trkpt lat="49.30319" lon="-0.06994">
        <ele>51.3</ele>
        <time>2020-06-17T12:36:23Z</time>
      </trkpt>
      <trkpt lat="49.30321" lon="-0.06991">
        <ele>51.4</ele>
        <time>2020-06-17T12:36:24Z</time>
      </trkpt>
      <trkpt lat="49.30323" lon="-0.06988">
        <ele>52.8</ele>
        <time>2020-06-17T12:36:25Z</time>
      </trkpt>
      <trkpt lat="49.30326" lon="-0.06985">
        <ele>52.9</ele>
        <time>2020-06-17T12:36:26Z</time>
      </trkpt>
      <trkpt lat="49.30329" lon="-0.06982">
        <ele>53</ele>
        <time>2020-06-17T12:36:27Z</time>
      </trkpt>
      <trkpt lat="49.30332" lon="-0.06978">
        <ele>53.1</ele>
        <time>2020-06-17T12:36:28Z</time>
      </trkpt>
      <trkpt lat="49.30335" lon="-0.06975">
        <ele>53.1</ele>
        <time>2020-06-17T12:36:29Z</time>
      </trkpt>
      <trkpt lat="49.30338" lon="-0.06973">
        <ele>53.2</ele>
        <time>2020-06-17T12:36:30Z</time>
      </trkpt>
      <trkpt lat="49.30341" lon="-0.06971">
        <ele>53.3</ele>
        <time>2020-06-17T12:36:31Z</time>
      </trkpt>
      <trkpt lat="49.30345" lon="-0.06968">
        <ele>53.4</ele>
        <time>2020-06-17T12:36:32Z</time>
      </trkpt>
      <trkpt lat="49.30348" lon="-0.06966">
        <ele>53.5</ele>
        <time>2020-06-17T12:36:33Z</time>
      </trkpt>
      <trkpt lat="49.30351" lon="-0.06964">
        <ele>53.6</ele>
        <time>2020-06-17T12:36:34Z</time>
      </trkpt>
      <trkpt lat="49.30354" lon="-0.06962">
        <ele>53.7</ele>
        <time>2020-06-17T12:36:35Z</time>
      </trkpt>
      <trkpt lat="49.30358" lon="-0.06961">
        <ele>54.1</ele>
        <time>2020-06-17T12:36:36Z</time>
      </trkpt>
      <trkpt lat="49.30362" lon="-0.06959">
        <ele>54.4</ele>
        <time>2020-06-17T12:36:37Z</time>
      </trkpt>
      <trkpt lat="49.30366" lon="-0.06957">
        <ele>54.7</ele>
        <time>2020-06-17T12:36:38Z</time>
      </trkpt>
      <trkpt lat="49.30369" lon="-0.06955">
        <ele>54.9</ele>
        <time>2020-06-17T12:36:39Z</time>
      </trkpt>
      <trkpt lat="49.30372" lon="-0.06954">
        <ele>55.1</ele>
        <time>2020-06-17T12:36:40Z</time>
      </trkpt>
      <trkpt lat="49.30374" lon="-0.06952">
        <ele>55.3</ele>
        <time>2020-06-17T12:36:41Z</time>
      </trkpt>
      <trkpt lat="49.30378" lon="-0.0695">
        <ele>55.5</ele>
        <time>2020-06-17T12:36:42Z</time>
      </trkpt>
      <trkpt lat="49.30381" lon="-0.06949">
        <ele>55.7</ele>
        <time>2020-06-17T12:36:43Z</time>
      </trkpt>
      <trkpt lat="49.30384" lon="-0.06947">
        <ele>55.9</ele>
        <time>2020-06-17T12:36:44Z</time>
      </trkpt>
      <trkpt lat="49.30384" lon="-0.06947">
        <ele>56</ele>
        <time>2020-06-17T12:36:45Z</time>
      </trkpt>
      <trkpt lat="49.30387" lon="-0.06944">
        <ele>56.2</ele>
        <time>2020-06-17T12:36:46Z</time>
      </trkpt>
      <trkpt lat="49.30389" lon="-0.0694">
        <ele>56.4</ele>
        <time>2020-06-17T12:36:47Z</time>
      </trkpt>
      <trkpt lat="49.30392" lon="-0.06938">
        <ele>56.6</ele>
        <time>2020-06-17T12:36:48Z</time>
      </trkpt>
      <trkpt lat="49.30396" lon="-0.06936">
        <ele>56.9</ele>
        <time>2020-06-17T12:36:49Z</time>
      </trkpt>
      <trkpt lat="49.30397" lon="-0.06935">
        <ele>57</ele>
        <time>2020-06-17T12:36:50Z</time>
      </trkpt>
      <trkpt lat="49.304" lon="-0.06933">
        <ele>57.3</ele>
        <time>2020-06-17T12:36:51Z</time>
      </trkpt>
      <trkpt lat="49.30402" lon="-0.0693">
        <ele>57.5</ele>
        <time>2020-06-17T12:36:52Z</time>
      </trkpt>
      <trkpt lat="49.30405" lon="-0.06927">
        <ele>57.8</ele>
        <time>2020-06-17T12:36:53Z</time>
      </trkpt>
      <trkpt lat="49.30408" lon="-0.06924">
        <ele>58</ele>
        <time>2020-06-17T12:36:54Z</time>
      </trkpt>
      <trkpt lat="49.30412" lon="-0.06921">
        <ele>58.3</ele>
        <time>2020-06-17T12:36:55Z</time>
      </trkpt>
      <trkpt lat="49.30412" lon="-0.0692">
        <ele>58.4</ele>
        <time>2020-06-17T12:36:56Z</time>
      </trkpt>
      <trkpt lat="49.30416" lon="-0.06918">
        <ele>58.7</ele>
        <time>2020-06-17T12:36:57Z</time>
      </trkpt>
      <trkpt lat="49.30417" lon="-0.06917">
        <ele>58.8</ele>
        <time>2020-06-17T12:36:58Z</time>
      </trkpt>
      <trkpt lat="49.3042" lon="-0.06914">
        <ele>59.1</ele>
        <time>2020-06-17T12:36:59Z</time>
      </trkpt>
      <trkpt lat="49.30422" lon="-0.06911">
        <ele>59.3</ele>
        <time>2020-06-17T12:37:00Z</time>
      </trkpt>
      <trkpt lat="49.30424" lon="-0.06908">
        <ele>59.6</ele>
        <time>2020-06-17T12:37:01Z</time>
      </trkpt>
      <trkpt lat="49.30427" lon="-0.06905">
        <ele>59.8</ele>
        <time>2020-06-17T12:37:02Z</time>
      </trkpt>
      <trkpt lat="49.30428" lon="-0.06904">
        <ele>59.9</ele>
        <time>2020-06-17T12:37:03Z</time>
      </trkpt>
      <trkpt lat="49.3043" lon="-0.06901">
        <ele>60.2</ele>
        <time>2020-06-17T12:37:04Z</time>
      </trkpt>
      <trkpt lat="49.30431" lon="-0.069">
        <ele>60.3</ele>
        <time>2020-06-17T12:37:05Z</time>
      </trkpt>
      <trkpt lat="49.30433" lon="-0.06896">
        <ele>60.6</ele>
        <time>2020-06-17T12:37:06Z</time>
      </trkpt>
      <trkpt lat="49.30436" lon="-0.06892">
        <ele>60.9</ele>
        <time>2020-06-17T12:37:07Z</time>
      </trkpt>
      <trkpt lat="49.30436" lon="-0.0689">
        <ele>61</ele>
        <time>2020-06-17T12:37:08Z</time>
      </trkpt>
      <trkpt lat="49.30438" lon="-0.06887">
        <ele>61.3</ele>
        <time>2020-06-17T12:37:09Z</time>
      </trkpt>
      <trkpt lat="49.30439" lon="-0.06886">
        <ele>61.4</ele>
        <time>2020-06-17T12:37:10Z</time>
      </trkpt>
      <trkpt lat="49.3044" lon="-0.06884">
        <ele>61.5</ele>
        <time>2020-06-17T12:37:11Z</time>
      </trkpt>
      <trkpt lat="49.30442" lon="-0.06882">
        <ele>61.7</ele>
        <time>2020-06-17T12:37:12Z</time>
      </trkpt>
      <trkpt lat="49.30444" lon="-0.06879">
        <ele>62</ele>
        <time>2020-06-17T12:37:13Z</time>
      </trkpt>
      <trkpt lat="49.30445" lon="-0.06878">
        <ele>62.1</ele>
        <time>2020-06-17T12:37:14Z</time>
      </trkpt>
      <trkpt lat="49.30448" lon="-0.06875">
        <ele>62.5</ele>
        <time>2020-06-17T12:37:15Z</time>
      </trkpt>
      <trkpt lat="49.30449" lon="-0.06875">
        <ele>62.6</ele>
        <time>2020-06-17T12:37:16Z</time>
      </trkpt>
      <trkpt lat="49.30452" lon="-0.06873">
        <ele>62.9</ele>
        <time>2020-06-17T12:37:17Z</time>
      </trkpt>
      <trkpt lat="49.30452" lon="-0.06872">
        <ele>63</ele>
        <time>2020-06-17T12:37:18Z</time>
      </trkpt>
      <trkpt lat="49.30454" lon="-0.06871">
        <ele>63.2</ele>
        <time>2020-06-17T12:37:19Z</time>
      </trkpt>
      <trkpt lat="49.30455" lon="-0.0687">
        <ele>63.4</ele>
        <time>2020-06-17T12:37:20Z</time>
      </trkpt>
      <trkpt lat="49.30456" lon="-0.06869">
        <ele>63.5</ele>
        <time>2020-06-17T12:37:21Z</time>
      </trkpt>
      <trkpt lat="49.30457" lon="-0.06867">
        <ele>63.8</ele>
        <time>2020-06-17T12:37:22Z</time>
      </trkpt>
      <trkpt lat="49.30459" lon="-0.06865">
        <ele>64</ele>
        <time>2020-06-17T12:37:23Z</time>
      </trkpt>
      <trkpt lat="49.3046" lon="-0.06863">
        <ele>64.2</ele>
        <time>2020-06-17T12:37:24Z</time>
      </trkpt>
      <trkpt lat="49.30462" lon="-0.0686">
        <ele>64.5</ele>
        <time>2020-06-17T12:37:25Z</time>
      </trkpt>
      <trkpt lat="49.30462" lon="-0.06859">
        <ele>64.6</ele>
        <time>2020-06-17T12:37:26Z</time>
      </trkpt>
      <trkpt lat="49.30462" lon="-0.06858">
        <ele>64.7</ele>
        <time>2020-06-17T12:37:27Z</time>
      </trkpt>
      <trkpt lat="49.30463" lon="-0.06856">
        <ele>64.9</ele>
        <time>2020-06-17T12:37:28Z</time>
      </trkpt>
      <trkpt lat="49.30463" lon="-0.06855">
        <ele>65</ele>
        <time>2020-06-17T12:37:29Z</time>
      </trkpt>
      <trkpt lat="49.30463" lon="-0.06855">
        <ele>65</ele>
        <time>2020-06-17T12:37:30Z</time>
      </trkpt>
      <trkpt lat="49.30463" lon="-0.06853">
        <ele>65.2</ele>
        <time>2020-06-17T12:37:31Z</time>
      </trkpt>
      <trkpt lat="49.30463" lon="-0.06851">
        <ele>65.4</ele>
        <time>2020-06-17T12:37:32Z</time>
      </trkpt>
      <trkpt lat="49.30464" lon="-0.0685">
        <ele>65.5</ele>
        <time>2020-06-17T12:37:33Z</time>
      </trkpt>
      <trkpt lat="49.30464" lon="-0.06849">
        <ele>65.6</ele>
        <time>2020-06-17T12:37:34Z</time>
      </trkpt>
      <trkpt lat="49.30464" lon="-0.06847">
        <ele>65.7</ele>
        <time>2020-06-17T12:37:35Z</time>
      </trkpt>
      <trkpt lat="49.30464" lon="-0.06844">
        <ele>66</ele>
        <time>2020-06-17T12:37:36Z</time>
      </trkpt>
      <trkpt lat="49.30464" lon="-0.06843">
        <ele>66.1</ele>
        <time>2020-06-17T12:37:37Z</time>
      </trkpt>
      <trkpt lat="49.30464" lon="-0.06841">
        <ele>66.2</ele>
        <time>2020-06-17T12:37:38Z</time>
      </trkpt>
      <trkpt lat="49.30463" lon="-0.0684">
        <ele>66.4</ele>
        <time>2020-06-17T12:37:39Z</time>
      </trkpt>
      <trkpt lat="49.30463" lon="-0.06838">
        <ele>66.5</ele>
        <time>2020-06-17T12:37:40Z</time>
      </trkpt>
      <trkpt lat="49.30463" lon="-0.06837">
        <ele>67.5</ele>
        <time>2020-06-17T12:37:41Z</time>
      </trkpt>
      <trkpt lat="49.30463" lon="-0.06835">
        <ele>67.6</ele>
        <time>2020-06-17T12:37:42Z</time>
      </trkpt>
      <trkpt lat="49.30462" lon="-0.06833">
        <ele>67.8</ele>
        <time>2020-06-17T12:37:43Z</time>
      </trkpt>
      <trkpt lat="49.30461" lon="-0.06828">
        <ele>68.2</ele>
        <time>2020-06-17T12:37:44Z</time>
      </trkpt>
      <trkpt lat="49.30461" lon="-0.06827">
        <ele>68.2</ele>
        <time>2020-06-17T12:37:45Z</time>
      </trkpt>
      <trkpt lat="49.3046" lon="-0.06823">
        <ele>68.5</ele>
        <time>2020-06-17T12:37:46Z</time>
      </trkpt>
      <trkpt lat="49.30459" lon="-0.06822">
        <ele>68.6</ele>
        <time>2020-06-17T12:37:47Z</time>
      </trkpt>
      <trkpt lat="49.30458" lon="-0.0682">
        <ele>68.8</ele>
        <time>2020-06-17T12:37:48Z</time>
      </trkpt>
      <trkpt lat="49.30457" lon="-0.06818">
        <ele>69</ele>
        <time>2020-06-17T12:37:49Z</time>
      </trkpt>
      <trkpt lat="49.30456" lon="-0.06816">
        <ele>69.2</ele>
        <time>2020-06-17T12:37:50Z</time>
      </trkpt>
      <trkpt lat="49.30454" lon="-0.06814">
        <ele>69.3</ele>
        <time>2020-06-17T12:37:51Z</time>
      </trkpt>
      <trkpt lat="49.30454" lon="-0.06813">
        <ele>69.4</ele>
        <time>2020-06-17T12:37:52Z</time>
      </trkpt>
      <trkpt lat="49.30453" lon="-0.06812">
        <ele>69.5</ele>
        <time>2020-06-17T12:37:53Z</time>
      </trkpt>
      <trkpt lat="49.30452" lon="-0.0681">
        <ele>69.7</ele>
        <time>2020-06-17T12:37:54Z</time>
      </trkpt>
      <trkpt lat="49.3045" lon="-0.06808">
        <ele>69.9</ele>
        <time>2020-06-17T12:37:55Z</time>
      </trkpt>
      <trkpt lat="49.30449" lon="-0.06806">
        <ele>70</ele>
        <time>2020-06-17T12:37:56Z</time>
      </trkpt>
      <trkpt lat="49.30448" lon="-0.06804">
        <ele>70</ele>
        <time>2020-06-17T12:37:57Z</time>
      </trkpt>
      <trkpt lat="49.30447" lon="-0.06802">
        <ele>70.4</ele>
        <time>2020-06-17T12:37:58Z</time>
      </trkpt>
      <trkpt lat="49.30446" lon="-0.068">
        <ele>71.2</ele>
        <time>2020-06-17T12:37:59Z</time>
      </trkpt>
      <trkpt lat="49.30445" lon="-0.06799">
        <ele>71.2</ele>
        <time>2020-06-17T12:38:00Z</time>
      </trkpt>
      <trkpt lat="49.30444" lon="-0.06798">
        <ele>72.5</ele>
        <time>2020-06-17T12:38:01Z</time>
      </trkpt>
      <trkpt lat="49.30443" lon="-0.06796">
        <ele>72.5</ele>
        <time>2020-06-17T12:38:02Z</time>
      </trkpt>
      <trkpt lat="49.30442" lon="-0.06795">
        <ele>72.9</ele>
        <time>2020-06-17T12:38:03Z</time>
      </trkpt>
      <trkpt lat="49.30441" lon="-0.06793">
        <ele>73.7</ele>
        <time>2020-06-17T12:38:04Z</time>
      </trkpt>
      <trkpt lat="49.3044" lon="-0.06791">
        <ele>73.7</ele>
        <time>2020-06-17T12:38:05Z</time>
      </trkpt>
      <trkpt lat="49.30439" lon="-0.0679">
        <ele>74.2</ele>
        <time>2020-06-17T12:38:06Z</time>
      </trkpt>
      <trkpt lat="49.30438" lon="-0.06788">
        <ele>75</ele>
        <time>2020-06-17T12:38:07Z</time>
      </trkpt>
      <trkpt lat="49.30437" lon="-0.06787">
        <ele>75</ele>
        <time>2020-06-17T12:38:08Z</time>
      </trkpt>
      <trkpt lat="49.30435" lon="-0.06786">
        <ele>75.4</ele>
        <time>2020-06-17T12:38:09Z</time>
      </trkpt>
      <trkpt lat="49.30434" lon="-0.06784">
        <ele>76.3</ele>
        <time>2020-06-17T12:38:10Z</time>
      </trkpt>
      <trkpt lat="49.30433" lon="-0.06783">
        <ele>76.6</ele>
        <time>2020-06-17T12:38:11Z</time>
      </trkpt>
      <trkpt lat="49.30432" lon="-0.06782">
        <ele>76.6</ele>
        <time>2020-06-17T12:38:12Z</time>
      </trkpt>
      <trkpt lat="49.30431" lon="-0.0678">
        <ele>77.5</ele>
        <time>2020-06-17T12:38:13Z</time>
      </trkpt>
      <trkpt lat="49.30429" lon="-0.06778">
        <ele>77.8</ele>
        <time>2020-06-17T12:38:14Z</time>
      </trkpt>
      <trkpt lat="49.30428" lon="-0.06777">
        <ele>77.8</ele>
        <time>2020-06-17T12:38:15Z</time>
      </trkpt>
      <trkpt lat="49.30427" lon="-0.06777">
        <ele>78</ele>
        <time>2020-06-17T12:38:16Z</time>
      </trkpt>
      <trkpt lat="49.30426" lon="-0.06775">
        <ele>78.8</ele>
        <time>2020-06-17T12:38:17Z</time>
      </trkpt>
      <trkpt lat="49.30424" lon="-0.06774">
        <ele>79.1</ele>
        <time>2020-06-17T12:38:18Z</time>
      </trkpt>
      <trkpt lat="49.30423" lon="-0.06774">
        <ele>79.1</ele>
        <time>2020-06-17T12:38:19Z</time>
      </trkpt>
      <trkpt lat="49.30422" lon="-0.06772">
        <ele>79.4</ele>
        <time>2020-06-17T12:38:20Z</time>
      </trkpt>
      <trkpt lat="49.30421" lon="-0.0677">
        <ele>80.1</ele>
        <time>2020-06-17T12:38:21Z</time>
      </trkpt>
      <trkpt lat="49.30419" lon="-0.06769">
        <ele>80.4</ele>
        <time>2020-06-17T12:38:22Z</time>
      </trkpt>
      <trkpt lat="49.30417" lon="-0.06766">
        <ele>81.4</ele>
        <time>2020-06-17T12:38:23Z</time>
      </trkpt>
      <trkpt lat="49.30416" lon="-0.06765">
        <ele>81.4</ele>
        <time>2020-06-17T12:38:24Z</time>
      </trkpt>
      <trkpt lat="49.30414" lon="-0.06762">
        <ele>82.1</ele>
        <time>2020-06-17T12:38:25Z</time>
      </trkpt>
      <trkpt lat="49.3041" lon="-0.0676">
        <ele>82.6</ele>
        <time>2020-06-17T12:38:26Z</time>
      </trkpt>
      <trkpt lat="49.30408" lon="-0.06759">
        <ele>82.6</ele>
        <time>2020-06-17T12:38:27Z</time>
      </trkpt>
      <trkpt lat="49.30406" lon="-0.06757">
        <ele>83.5</ele>
        <time>2020-06-17T12:38:28Z</time>
      </trkpt>
      <trkpt lat="49.30403" lon="-0.06756">
        <ele>83.8</ele>
        <time>2020-06-17T12:38:29Z</time>
      </trkpt>
      <trkpt lat="49.30399" lon="-0.06755">
        <ele>83.9</ele>
        <time>2020-06-17T12:38:30Z</time>
      </trkpt>
      <trkpt lat="49.30396" lon="-0.06754">
        <ele>85</ele>
        <time>2020-06-17T12:38:31Z</time>
      </trkpt>
      <trkpt lat="49.30393" lon="-0.06752">
        <ele>85.1</ele>
        <time>2020-06-17T12:38:32Z</time>
      </trkpt>
      <trkpt lat="49.3039" lon="-0.06751">
        <ele>85.3</ele>
        <time>2020-06-17T12:38:33Z</time>
      </trkpt>
      <trkpt lat="49.30389" lon="-0.06751">
        <ele>85.4</ele>
        <time>2020-06-17T12:38:34Z</time>
      </trkpt>
      <trkpt lat="49.30387" lon="-0.06751">
        <ele>85.4</ele>
        <time>2020-06-17T12:38:35Z</time>
      </trkpt>
      <trkpt lat="49.30385" lon="-0.06751">
        <ele>85.6</ele>
        <time>2020-06-17T12:38:36Z</time>
      </trkpt>
      <trkpt lat="49.30384" lon="-0.06747">
        <ele>86.6</ele>
        <time>2020-06-17T12:38:37Z</time>
      </trkpt>
      <trkpt lat="49.30385" lon="-0.06746">
        <ele>87.8</ele>
        <time>2020-06-17T12:38:38Z</time>
      </trkpt>
      <trkpt lat="49.30385" lon="-0.06744">
        <ele>87.8</ele>
        <time>2020-06-17T12:38:39Z</time>
      </trkpt>
      <trkpt lat="49.30384" lon="-0.06739">
        <ele>88.9</ele>
        <time>2020-06-17T12:38:40Z</time>
      </trkpt>
      <trkpt lat="49.30381" lon="-0.0674">
        <ele>89.1</ele>
        <time>2020-06-17T12:38:41Z</time>
      </trkpt>
      <trkpt lat="49.3038" lon="-0.06741">
        <ele>89.3</ele>
        <time>2020-06-17T12:38:42Z</time>
      </trkpt>
      <trkpt lat="49.30377" lon="-0.0674">
        <ele>89.5</ele>
        <time>2020-06-17T12:38:43Z</time>
      </trkpt>
      <trkpt lat="49.30376" lon="-0.06739">
        <ele>89.5</ele>
        <time>2020-06-17T12:38:44Z</time>
      </trkpt>
      <trkpt lat="49.30375" lon="-0.06738">
        <ele>89.7</ele>
        <time>2020-06-17T12:38:45Z</time>
      </trkpt>
      <trkpt lat="49.30373" lon="-0.06738">
        <ele>89.7</ele>
        <time>2020-06-17T12:38:46Z</time>
      </trkpt>
      <trkpt lat="49.3037" lon="-0.06738">
        <ele>89.9</ele>
        <time>2020-06-17T12:38:47Z</time>
      </trkpt>
      <trkpt lat="49.30368" lon="-0.06738">
        <ele>90</ele>
        <time>2020-06-17T12:38:48Z</time>
      </trkpt>
      <trkpt lat="49.30365" lon="-0.06738">
        <ele>90.2</ele>
        <time>2020-06-17T12:38:49Z</time>
      </trkpt>
      <trkpt lat="49.30364" lon="-0.06738">
        <ele>90.2</ele>
        <time>2020-06-17T12:38:50Z</time>
      </trkpt>
      <trkpt lat="49.30361" lon="-0.06739">
        <ele>90.4</ele>
        <time>2020-06-17T12:38:51Z</time>
      </trkpt>
      <trkpt lat="49.3036" lon="-0.06739">
        <ele>90.4</ele>
        <time>2020-06-17T12:38:52Z</time>
      </trkpt>
      <trkpt lat="49.30357" lon="-0.0674">
        <ele>90.5</ele>
        <time>2020-06-17T12:38:53Z</time>
      </trkpt>
      <trkpt lat="49.30355" lon="-0.06738">
        <ele>90.5</ele>
        <time>2020-06-17T12:38:54Z</time>
      </trkpt>
      <trkpt lat="49.30353" lon="-0.06737">
        <ele>91.5</ele>
        <time>2020-06-17T12:38:55Z</time>
      </trkpt>
      <trkpt lat="49.30351" lon="-0.06736">
        <ele>91.5</ele>
        <time>2020-06-17T12:38:56Z</time>
      </trkpt>
      <trkpt lat="49.30349" lon="-0.06735">
        <ele>91.4</ele>
        <time>2020-06-17T12:38:57Z</time>
      </trkpt>
      <trkpt lat="49.30348" lon="-0.06734">
        <ele>91.4</ele>
        <time>2020-06-17T12:38:58Z</time>
      </trkpt>
      <trkpt lat="49.30345" lon="-0.06731">
        <ele>92.3</ele>
        <time>2020-06-17T12:38:59Z</time>
      </trkpt>
      <trkpt lat="49.30344" lon="-0.0673">
        <ele>92.2</ele>
        <time>2020-06-17T12:39:00Z</time>
      </trkpt>
      <trkpt lat="49.30341" lon="-0.06728">
        <ele>92.9</ele>
        <time>2020-06-17T12:39:01Z</time>
      </trkpt>
      <trkpt lat="49.30339" lon="-0.06724">
        <ele>93.8</ele>
        <time>2020-06-17T12:39:02Z</time>
      </trkpt>
      <trkpt lat="49.30338" lon="-0.06723">
        <ele>93.5</ele>
        <time>2020-06-17T12:39:03Z</time>
      </trkpt>
      <trkpt lat="49.30334" lon="-0.06723">
        <ele>93.3</ele>
        <time>2020-06-17T12:39:04Z</time>
      </trkpt>
      <trkpt lat="49.30332" lon="-0.0672">
        <ele>93.7</ele>
        <time>2020-06-17T12:39:05Z</time>
      </trkpt>
      <trkpt lat="49.3033" lon="-0.06718">
        <ele>93.3</ele>
        <time>2020-06-17T12:39:06Z</time>
      </trkpt>
      <trkpt lat="49.30327" lon="-0.06716">
        <ele>93.6</ele>
        <time>2020-06-17T12:39:07Z</time>
      </trkpt>
      <trkpt lat="49.30323" lon="-0.06714">
        <ele>93.2</ele>
        <time>2020-06-17T12:39:08Z</time>
      </trkpt>
      <trkpt lat="49.30322" lon="-0.06714">
        <ele>92.7</ele>
        <time>2020-06-17T12:39:09Z</time>
      </trkpt>
      <trkpt lat="49.30319" lon="-0.06713">
        <ele>92.1</ele>
        <time>2020-06-17T12:39:10Z</time>
      </trkpt>
      <trkpt lat="49.30315" lon="-0.06713">
        <ele>91.5</ele>
        <time>2020-06-17T12:39:11Z</time>
      </trkpt>
      <trkpt lat="49.30312" lon="-0.06713">
        <ele>90.8</ele>
        <time>2020-06-17T12:39:12Z</time>
      </trkpt>
      <trkpt lat="49.30309" lon="-0.06712">
        <ele>90.9</ele>
        <time>2020-06-17T12:39:13Z</time>
      </trkpt>
      <trkpt lat="49.30308" lon="-0.06711">
        <ele>90.9</ele>
        <time>2020-06-17T12:39:14Z</time>
      </trkpt>
      <trkpt lat="49.30305" lon="-0.06708">
        <ele>90.2</ele>
        <time>2020-06-17T12:39:15Z</time>
      </trkpt>
      <trkpt lat="49.30303" lon="-0.06704">
        <ele>90.2</ele>
        <time>2020-06-17T12:39:16Z</time>
      </trkpt>
      <trkpt lat="49.303" lon="-0.067">
        <ele>90.3</ele>
        <time>2020-06-17T12:39:17Z</time>
      </trkpt>
      <trkpt lat="49.30299" lon="-0.06698">
        <ele>90.5</ele>
        <time>2020-06-17T12:39:18Z</time>
      </trkpt>
      <trkpt lat="49.30297" lon="-0.06694">
        <ele>91.3</ele>
        <time>2020-06-17T12:39:19Z</time>
      </trkpt>
      <trkpt lat="49.30295" lon="-0.0669">
        <ele>91.5</ele>
        <time>2020-06-17T12:39:20Z</time>
      </trkpt>
      <trkpt lat="49.30292" lon="-0.06685">
        <ele>91.7</ele>
        <time>2020-06-17T12:39:21Z</time>
      </trkpt>
      <trkpt lat="49.30288" lon="-0.06686">
        <ele>91.1</ele>
        <time>2020-06-17T12:39:22Z</time>
      </trkpt>
      <trkpt lat="49.30285" lon="-0.06687">
        <ele>89.6</ele>
        <time>2020-06-17T12:39:23Z</time>
      </trkpt>
      <trkpt lat="49.30282" lon="-0.06688">
        <ele>88.4</ele>
        <time>2020-06-17T12:39:24Z</time>
      </trkpt>
      <trkpt lat="49.30279" lon="-0.06687">
        <ele>87.8</ele>
        <time>2020-06-17T12:39:25Z</time>
      </trkpt>
      <trkpt lat="49.30276" lon="-0.06685">
        <ele>87.9</ele>
        <time>2020-06-17T12:39:26Z</time>
      </trkpt>
      <trkpt lat="49.30273" lon="-0.06682">
        <ele>87.9</ele>
        <time>2020-06-17T12:39:27Z</time>
      </trkpt>
      <trkpt lat="49.30271" lon="-0.06677">
        <ele>87.9</ele>
        <time>2020-06-17T12:39:28Z</time>
      </trkpt>
      <trkpt lat="49.30269" lon="-0.06675">
        <ele>87.9</ele>
        <time>2020-06-17T12:39:29Z</time>
      </trkpt>
      <trkpt lat="49.30266" lon="-0.06673">
        <ele>87.8</ele>
        <time>2020-06-17T12:39:30Z</time>
      </trkpt>
      <trkpt lat="49.30263" lon="-0.06671">
        <ele>87.2</ele>
        <time>2020-06-17T12:39:31Z</time>
      </trkpt>
      <trkpt lat="49.30261" lon="-0.0667">
        <ele>86.5</ele>
        <time>2020-06-17T12:39:32Z</time>
      </trkpt>
      <trkpt lat="49.30258" lon="-0.06667">
        <ele>86.3</ele>
        <time>2020-06-17T12:39:33Z</time>
      </trkpt>
      <trkpt lat="49.30256" lon="-0.06664">
        <ele>86</ele>
        <time>2020-06-17T12:39:34Z</time>
      </trkpt>
      <trkpt lat="49.30254" lon="-0.06661">
        <ele>85.3</ele>
        <time>2020-06-17T12:39:35Z</time>
      </trkpt>
      <trkpt lat="49.30253" lon="-0.06659">
        <ele>85.7</ele>
        <time>2020-06-17T12:39:36Z</time>
      </trkpt>
      <trkpt lat="49.3025" lon="-0.06656">
        <ele>85.5</ele>
        <time>2020-06-17T12:39:37Z</time>
      </trkpt>
      <trkpt lat="49.30249" lon="-0.06653">
        <ele>84.8</ele>
        <time>2020-06-17T12:39:38Z</time>
      </trkpt>
      <trkpt lat="49.30245" lon="-0.06649">
        <ele>84.8</ele>
        <time>2020-06-17T12:39:39Z</time>
      </trkpt>
      <trkpt lat="49.30243" lon="-0.06645">
        <ele>84.9</ele>
        <time>2020-06-17T12:39:40Z</time>
      </trkpt>
      <trkpt lat="49.30241" lon="-0.0664">
        <ele>85.5</ele>
        <time>2020-06-17T12:39:41Z</time>
      </trkpt>
      <trkpt lat="49.30239" lon="-0.06634">
        <ele>86.4</ele>
        <time>2020-06-17T12:39:42Z</time>
      </trkpt>
      <trkpt lat="49.30236" lon="-0.06629">
        <ele>86.5</ele>
        <time>2020-06-17T12:39:43Z</time>
      </trkpt>
      <trkpt lat="49.30233" lon="-0.06624">
        <ele>86.7</ele>
        <time>2020-06-17T12:39:44Z</time>
      </trkpt>
      <trkpt lat="49.30231" lon="-0.0662">
        <ele>86.8</ele>
        <time>2020-06-17T12:39:45Z</time>
      </trkpt>
      <trkpt lat="49.30228" lon="-0.06614">
        <ele>87</ele>
        <time>2020-06-17T12:39:46Z</time>
      </trkpt>
      <trkpt lat="49.30226" lon="-0.06611">
        <ele>87.1</ele>
        <time>2020-06-17T12:39:47Z</time>
      </trkpt>
      <trkpt lat="49.30224" lon="-0.06608">
        <ele>87.2</ele>
        <time>2020-06-17T12:39:48Z</time>
      </trkpt>
      <trkpt lat="49.30222" lon="-0.06603">
        <ele>87.4</ele>
        <time>2020-06-17T12:39:49Z</time>
      </trkpt>
      <trkpt lat="49.30221" lon="-0.06599">
        <ele>87.5</ele>
        <time>2020-06-17T12:39:50Z</time>
      </trkpt>
      <trkpt lat="49.30221" lon="-0.06594">
        <ele>87.6</ele>
        <time>2020-06-17T12:39:51Z</time>
      </trkpt>
      <trkpt lat="49.3022" lon="-0.06589">
        <ele>87.7</ele>
        <time>2020-06-17T12:39:52Z</time>
      </trkpt>
      <trkpt lat="49.30219" lon="-0.06584">
        <ele>87.8</ele>
        <time>2020-06-17T12:39:53Z</time>
      </trkpt>
      <trkpt lat="49.30217" lon="-0.0658">
        <ele>87.9</ele>
        <time>2020-06-17T12:39:54Z</time>
      </trkpt>
      <trkpt lat="49.30216" lon="-0.06577">
        <ele>87.9</ele>
        <time>2020-06-17T12:39:55Z</time>
      </trkpt>
      <trkpt lat="49.30215" lon="-0.06571">
        <ele>88</ele>
        <time>2020-06-17T12:39:56Z</time>
      </trkpt>
      <trkpt lat="49.30215" lon="-0.0657">
        <ele>88</ele>
        <time>2020-06-17T12:39:57Z</time>
      </trkpt>
      <trkpt lat="49.30215" lon="-0.06565">
        <ele>88.1</ele>
        <time>2020-06-17T12:39:58Z</time>
      </trkpt>
      <trkpt lat="49.30215" lon="-0.06563">
        <ele>88.1</ele>
        <time>2020-06-17T12:39:59Z</time>
      </trkpt>
      <trkpt lat="49.30216" lon="-0.06558">
        <ele>88.2</ele>
        <time>2020-06-17T12:40:00Z</time>
      </trkpt>
      <trkpt lat="49.30216" lon="-0.06557">
        <ele>88.2</ele>
        <time>2020-06-17T12:40:01Z</time>
      </trkpt>
      <trkpt lat="49.30216" lon="-0.06553">
        <ele>88.2</ele>
        <time>2020-06-17T12:40:02Z</time>
      </trkpt>
      <trkpt lat="49.30216" lon="-0.06547">
        <ele>88.3</ele>
        <time>2020-06-17T12:40:03Z</time>
      </trkpt>
      <trkpt lat="49.30216" lon="-0.06542">
        <ele>88.4</ele>
        <time>2020-06-17T12:40:04Z</time>
      </trkpt>
      <trkpt lat="49.30216" lon="-0.06537">
        <ele>88.4</ele>
        <time>2020-06-17T12:40:05Z</time>
      </trkpt>
      <trkpt lat="49.30216" lon="-0.06535">
        <ele>88.4</ele>
        <time>2020-06-17T12:40:06Z</time>
      </trkpt>
      <trkpt lat="49.30215" lon="-0.06532">
        <ele>88.5</ele>
        <time>2020-06-17T12:40:07Z</time>
      </trkpt>
      <trkpt lat="49.30214" lon="-0.06528">
        <ele>88.5</ele>
        <time>2020-06-17T12:40:08Z</time>
      </trkpt>
      <trkpt lat="49.30214" lon="-0.06526">
        <ele>88.6</ele>
        <time>2020-06-17T12:40:09Z</time>
      </trkpt>
      <trkpt lat="49.30213" lon="-0.0652">
        <ele>88.6</ele>
        <time>2020-06-17T12:40:10Z</time>
      </trkpt>
      <trkpt lat="49.30211" lon="-0.06516">
        <ele>88.7</ele>
        <time>2020-06-17T12:40:11Z</time>
      </trkpt>
      <trkpt lat="49.30211" lon="-0.06514">
        <ele>88.7</ele>
        <time>2020-06-17T12:40:12Z</time>
      </trkpt>
      <trkpt lat="49.3021" lon="-0.06512">
        <ele>88.8</ele>
        <time>2020-06-17T12:40:13Z</time>
      </trkpt>
      <trkpt lat="49.30209" lon="-0.06511">
        <ele>88.8</ele>
        <time>2020-06-17T12:40:14Z</time>
      </trkpt>
      <trkpt lat="49.30208" lon="-0.0651">
        <ele>88.8</ele>
        <time>2020-06-17T12:40:15Z</time>
      </trkpt>
      <trkpt lat="49.30207" lon="-0.06509">
        <ele>88.8</ele>
        <time>2020-06-17T12:40:16Z</time>
      </trkpt>
      <trkpt lat="49.30206" lon="-0.06506">
        <ele>88.9</ele>
        <time>2020-06-17T12:40:17Z</time>
      </trkpt>
      <trkpt lat="49.30207" lon="-0.06503">
        <ele>88.9</ele>
        <time>2020-06-17T12:40:18Z</time>
      </trkpt>
      <trkpt lat="49.30207" lon="-0.06498">
        <ele>89</ele>
        <time>2020-06-17T12:40:19Z</time>
      </trkpt>
      <trkpt lat="49.30207" lon="-0.06496">
        <ele>89.1</ele>
        <time>2020-06-17T12:40:20Z</time>
      </trkpt>
      <trkpt lat="49.30206" lon="-0.06491">
        <ele>89.2</ele>
        <time>2020-06-17T12:40:21Z</time>
      </trkpt>
      <trkpt lat="49.30206" lon="-0.06489">
        <ele>89.2</ele>
        <time>2020-06-17T12:40:22Z</time>
      </trkpt>
      <trkpt lat="49.30204" lon="-0.06483">
        <ele>89.3</ele>
        <time>2020-06-17T12:40:23Z</time>
      </trkpt>
      <trkpt lat="49.30203" lon="-0.06481">
        <ele>89.4</ele>
        <time>2020-06-17T12:40:24Z</time>
      </trkpt>
      <trkpt lat="49.30201" lon="-0.06476">
        <ele>89.5</ele>
        <time>2020-06-17T12:40:25Z</time>
      </trkpt>
      <trkpt lat="49.30199" lon="-0.0647">
        <ele>89.7</ele>
        <time>2020-06-17T12:40:26Z</time>
      </trkpt>
      <trkpt lat="49.30198" lon="-0.06467">
        <ele>89.8</ele>
        <time>2020-06-17T12:40:27Z</time>
      </trkpt>
      <trkpt lat="49.30196" lon="-0.06463">
        <ele>89.9</ele>
        <time>2020-06-17T12:40:28Z</time>
      </trkpt>
      <trkpt lat="49.30195" lon="-0.06458">
        <ele>90</ele>
        <time>2020-06-17T12:40:29Z</time>
      </trkpt>
      <trkpt lat="49.30192" lon="-0.06454">
        <ele>90.2</ele>
        <time>2020-06-17T12:40:30Z</time>
      </trkpt>
      <trkpt lat="49.30192" lon="-0.06449">
        <ele>90.3</ele>
        <time>2020-06-17T12:40:31Z</time>
      </trkpt>
      <trkpt lat="49.30191" lon="-0.06445">
        <ele>90.5</ele>
        <time>2020-06-17T12:40:32Z</time>
      </trkpt>
      <trkpt lat="49.30191" lon="-0.06439">
        <ele>90.6</ele>
        <time>2020-06-17T12:40:33Z</time>
      </trkpt>
      <trkpt lat="49.3019" lon="-0.06435">
        <ele>90.7</ele>
        <time>2020-06-17T12:40:34Z</time>
      </trkpt>
      <trkpt lat="49.30189" lon="-0.0643">
        <ele>90.9</ele>
        <time>2020-06-17T12:40:35Z</time>
      </trkpt>
      <trkpt lat="49.30188" lon="-0.06424">
        <ele>91.1</ele>
        <time>2020-06-17T12:40:36Z</time>
      </trkpt>
      <trkpt lat="49.30188" lon="-0.06422">
        <ele>91.2</ele>
        <time>2020-06-17T12:40:37Z</time>
      </trkpt>
      <trkpt lat="49.30187" lon="-0.06417">
        <ele>91.3</ele>
        <time>2020-06-17T12:40:38Z</time>
      </trkpt>
      <trkpt lat="49.30185" lon="-0.06416">
        <ele>91.4</ele>
        <time>2020-06-17T12:40:39Z</time>
      </trkpt>
      <trkpt lat="49.30185" lon="-0.06414">
        <ele>91.5</ele>
        <time>2020-06-17T12:40:40Z</time>
      </trkpt>
      <trkpt lat="49.30184" lon="-0.06409">
        <ele>91.7</ele>
        <time>2020-06-17T12:40:41Z</time>
      </trkpt>
      <trkpt lat="49.30184" lon="-0.06408">
        <ele>91.7</ele>
        <time>2020-06-17T12:40:42Z</time>
      </trkpt>
      <trkpt lat="49.30183" lon="-0.06402">
        <ele>92</ele>
        <time>2020-06-17T12:40:43Z</time>
      </trkpt>
      <trkpt lat="49.30183" lon="-0.064">
        <ele>92.1</ele>
        <time>2020-06-17T12:40:44Z</time>
      </trkpt>
      <trkpt lat="49.30182" lon="-0.06395">
        <ele>92.2</ele>
        <time>2020-06-17T12:40:45Z</time>
      </trkpt>
      <trkpt lat="49.30182" lon="-0.06391">
        <ele>92.4</ele>
        <time>2020-06-17T12:40:46Z</time>
      </trkpt>
      <trkpt lat="49.30183" lon="-0.06386">
        <ele>92.7</ele>
        <time>2020-06-17T12:40:47Z</time>
      </trkpt>
      <trkpt lat="49.30183" lon="-0.06384">
        <ele>92.8</ele>
        <time>2020-06-17T12:40:48Z</time>
      </trkpt>
      <trkpt lat="49.30183" lon="-0.06378">
        <ele>93</ele>
        <time>2020-06-17T12:40:49Z</time>
      </trkpt>
      <trkpt lat="49.30183" lon="-0.06373">
        <ele>93.3</ele>
        <time>2020-06-17T12:40:50Z</time>
      </trkpt>
      <trkpt lat="49.30182" lon="-0.06367">
        <ele>93.6</ele>
        <time>2020-06-17T12:40:51Z</time>
      </trkpt>
      <trkpt lat="49.30181" lon="-0.06361">
        <ele>93.8</ele>
        <time>2020-06-17T12:40:52Z</time>
      </trkpt>
      <trkpt lat="49.3018" lon="-0.06359">
        <ele>93.9</ele>
        <time>2020-06-17T12:40:53Z</time>
      </trkpt>
      <trkpt lat="49.30177" lon="-0.06356">
        <ele>94.2</ele>
        <time>2020-06-17T12:40:54Z</time>
      </trkpt>
      <trkpt lat="49.30176" lon="-0.06355">
        <ele>94.3</ele>
        <time>2020-06-17T12:40:55Z</time>
      </trkpt>
      <trkpt lat="49.30175" lon="-0.06351">
        <ele>94.5</ele>
        <time>2020-06-17T12:40:56Z</time>
      </trkpt>
      <trkpt lat="49.30174" lon="-0.06345">
        <ele>94.8</ele>
        <time>2020-06-17T12:40:57Z</time>
      </trkpt>
      <trkpt lat="49.30172" lon="-0.06339">
        <ele>95.1</ele>
        <time>2020-06-17T12:40:58Z</time>
      </trkpt>
      <trkpt lat="49.3017" lon="-0.06331">
        <ele>95.4</ele>
        <time>2020-06-17T12:40:59Z</time>
      </trkpt>
      <trkpt lat="49.30169" lon="-0.06322">
        <ele>95.8</ele>
        <time>2020-06-17T12:41:00Z</time>
      </trkpt>
      <trkpt lat="49.30166" lon="-0.06313">
        <ele>96.3</ele>
        <time>2020-06-17T12:41:01Z</time>
      </trkpt>
      <trkpt lat="49.30165" lon="-0.06305">
        <ele>96.6</ele>
        <time>2020-06-17T12:41:02Z</time>
      </trkpt>
      <trkpt lat="49.30163" lon="-0.06298">
        <ele>97</ele>
        <time>2020-06-17T12:41:03Z</time>
      </trkpt>
      <trkpt lat="49.30161" lon="-0.06289">
        <ele>97.3</ele>
        <time>2020-06-17T12:41:04Z</time>
      </trkpt>
      <trkpt lat="49.3016" lon="-0.06283">
        <ele>97.6</ele>
        <time>2020-06-17T12:41:05Z</time>
      </trkpt>
      <trkpt lat="49.30161" lon="-0.06276">
        <ele>97.9</ele>
        <time>2020-06-17T12:41:06Z</time>
      </trkpt>
      <trkpt lat="49.30161" lon="-0.06271">
        <ele>98.1</ele>
        <time>2020-06-17T12:41:07Z</time>
      </trkpt>
      <trkpt lat="49.3016" lon="-0.06266">
        <ele>98.2</ele>
        <time>2020-06-17T12:41:08Z</time>
      </trkpt>
      <trkpt lat="49.3016" lon="-0.0626">
        <ele>98.4</ele>
        <time>2020-06-17T12:41:09Z</time>
      </trkpt>
      <trkpt lat="49.3016" lon="-0.06254">
        <ele>98.6</ele>
        <time>2020-06-17T12:41:10Z</time>
      </trkpt>
      <trkpt lat="49.3016" lon="-0.06247">
        <ele>98.8</ele>
        <time>2020-06-17T12:41:11Z</time>
      </trkpt>
      <trkpt lat="49.3016" lon="-0.06239">
        <ele>99.1</ele>
        <time>2020-06-17T12:41:12Z</time>
      </trkpt>
      <trkpt lat="49.3016" lon="-0.06231">
        <ele>99.4</ele>
        <time>2020-06-17T12:41:13Z</time>
      </trkpt>
      <trkpt lat="49.3016" lon="-0.06227">
        <ele>99.6</ele>
        <time>2020-06-17T12:41:14Z</time>
      </trkpt>
      <trkpt lat="49.3016" lon="-0.06221">
        <ele>99.8</ele>
        <time>2020-06-17T12:41:15Z</time>
      </trkpt>
      <trkpt lat="49.3016" lon="-0.06216">
        <ele>100</ele>
        <time>2020-06-17T12:41:16Z</time>
      </trkpt>
      <trkpt lat="49.30161" lon="-0.06211">
        <ele>100.1</ele>
        <time>2020-06-17T12:41:17Z</time>
      </trkpt>
      <trkpt lat="49.30161" lon="-0.06206">
        <ele>100.3</ele>
        <time>2020-06-17T12:41:18Z</time>
      </trkpt>
      <trkpt lat="49.30162" lon="-0.06201">
        <ele>100.5</ele>
        <time>2020-06-17T12:41:19Z</time>
      </trkpt>
      <trkpt lat="49.30162" lon="-0.06197">
        <ele>100.6</ele>
        <time>2020-06-17T12:41:20Z</time>
      </trkpt>
      <trkpt lat="49.30163" lon="-0.06193">
        <ele>100.8</ele>
        <time>2020-06-17T12:41:21Z</time>
      </trkpt>
      <trkpt lat="49.30164" lon="-0.06188">
        <ele>100.9</ele>
        <time>2020-06-17T12:41:22Z</time>
      </trkpt>
      <trkpt lat="49.30164" lon="-0.06182">
        <ele>101.1</ele>
        <time>2020-06-17T12:41:23Z</time>
      </trkpt>
      <trkpt lat="49.30164" lon="-0.0618">
        <ele>101.2</ele>
        <time>2020-06-17T12:41:24Z</time>
      </trkpt>
      <trkpt lat="49.30165" lon="-0.06175">
        <ele>101.4</ele>
        <time>2020-06-17T12:41:25Z</time>
      </trkpt>
      <trkpt lat="49.30165" lon="-0.06169">
        <ele>101.6</ele>
        <time>2020-06-17T12:41:26Z</time>
      </trkpt>
      <trkpt lat="49.30166" lon="-0.06164">
        <ele>101.8</ele>
        <time>2020-06-17T12:41:27Z</time>
      </trkpt>
      <trkpt lat="49.30166" lon="-0.0616">
        <ele>102</ele>
        <time>2020-06-17T12:41:28Z</time>
      </trkpt>
      <trkpt lat="49.30168" lon="-0.06156">
        <ele>102.2</ele>
        <time>2020-06-17T12:41:29Z</time>
      </trkpt>
      <trkpt lat="49.30168" lon="-0.06151">
        <ele>102.3</ele>
        <time>2020-06-17T12:41:30Z</time>
      </trkpt>
      <trkpt lat="49.30168" lon="-0.06146">
        <ele>102.5</ele>
        <time>2020-06-17T12:41:31Z</time>
      </trkpt>
      <trkpt lat="49.30169" lon="-0.06141">
        <ele>102.6</ele>
        <time>2020-06-17T12:41:32Z</time>
      </trkpt>
      <trkpt lat="49.30168" lon="-0.06137">
        <ele>102.8</ele>
        <time>2020-06-17T12:41:33Z</time>
      </trkpt>
      <trkpt lat="49.30169" lon="-0.06131">
        <ele>103</ele>
        <time>2020-06-17T12:41:34Z</time>
      </trkpt>
      <trkpt lat="49.30169" lon="-0.06129">
        <ele>103.1</ele>
        <time>2020-06-17T12:41:35Z</time>
      </trkpt>
      <trkpt lat="49.30168" lon="-0.06125">
        <ele>103.2</ele>
        <time>2020-06-17T12:41:36Z</time>
      </trkpt>
      <trkpt lat="49.30168" lon="-0.06122">
        <ele>103.3</ele>
        <time>2020-06-17T12:41:37Z</time>
      </trkpt>
      <trkpt lat="49.30168" lon="-0.06119">
        <ele>103.4</ele>
        <time>2020-06-17T12:41:38Z</time>
      </trkpt>
      <trkpt lat="49.30168" lon="-0.06115">
        <ele>103.5</ele>
        <time>2020-06-17T12:41:39Z</time>
      </trkpt>
      <trkpt lat="49.30168" lon="-0.06114">
        <ele>103.6</ele>
        <time>2020-06-17T12:41:40Z</time>
      </trkpt>
      <trkpt lat="49.30168" lon="-0.06112">
        <ele>103.7</ele>
        <time>2020-06-17T12:41:41Z</time>
      </trkpt>
      <trkpt lat="49.30168" lon="-0.06109">
        <ele>103.8</ele>
        <time>2020-06-17T12:41:42Z</time>
      </trkpt>
      <trkpt lat="49.30169" lon="-0.06103">
        <ele>104</ele>
        <time>2020-06-17T12:41:43Z</time>
      </trkpt>
      <trkpt lat="49.30169" lon="-0.06101">
        <ele>104</ele>
        <time>2020-06-17T12:41:44Z</time>
      </trkpt>
      <trkpt lat="49.30169" lon="-0.06095">
        <ele>104.2</ele>
        <time>2020-06-17T12:41:45Z</time>
      </trkpt>
      <trkpt lat="49.30169" lon="-0.06093">
        <ele>104.3</ele>
        <time>2020-06-17T12:41:46Z</time>
      </trkpt>
      <trkpt lat="49.30169" lon="-0.06088">
        <ele>104.5</ele>
        <time>2020-06-17T12:41:47Z</time>
      </trkpt>
      <trkpt lat="49.30169" lon="-0.06084">
        <ele>104.6</ele>
        <time>2020-06-17T12:41:48Z</time>
      </trkpt>
      <trkpt lat="49.3017" lon="-0.06079">
        <ele>104.8</ele>
        <time>2020-06-17T12:41:49Z</time>
      </trkpt>
      <trkpt lat="49.30171" lon="-0.06078">
        <ele>104.8</ele>
        <time>2020-06-17T12:41:50Z</time>
      </trkpt>
      <trkpt lat="49.30171" lon="-0.06073">
        <ele>105</ele>
        <time>2020-06-17T12:41:51Z</time>
      </trkpt>
      <trkpt lat="49.30171" lon="-0.06069">
        <ele>105.1</ele>
        <time>2020-06-17T12:41:52Z</time>
      </trkpt>
      <trkpt lat="49.30171" lon="-0.06064">
        <ele>105.3</ele>
        <time>2020-06-17T12:41:53Z</time>
      </trkpt>
      <trkpt lat="49.30172" lon="-0.06059">
        <ele>105.5</ele>
        <time>2020-06-17T12:41:54Z</time>
      </trkpt>
      <trkpt lat="49.30172" lon="-0.06052">
        <ele>105.7</ele>
        <time>2020-06-17T12:41:55Z</time>
      </trkpt>
      <trkpt lat="49.30173" lon="-0.06049">
        <ele>105.8</ele>
        <time>2020-06-17T12:41:56Z</time>
      </trkpt>
      <trkpt lat="49.30173" lon="-0.06044">
        <ele>106</ele>
        <time>2020-06-17T12:41:57Z</time>
      </trkpt>
      <trkpt lat="49.30173" lon="-0.06039">
        <ele>106.2</ele>
        <time>2020-06-17T12:41:58Z</time>
      </trkpt>
      <trkpt lat="49.30174" lon="-0.06033">
        <ele>106.4</ele>
        <time>2020-06-17T12:41:59Z</time>
      </trkpt>
      <trkpt lat="49.30173" lon="-0.06031">
        <ele>106.5</ele>
        <time>2020-06-17T12:42:00Z</time>
      </trkpt>
      <trkpt lat="49.30173" lon="-0.06025">
        <ele>106.7</ele>
        <time>2020-06-17T12:42:01Z</time>
      </trkpt>
      <trkpt lat="49.30173" lon="-0.06023">
        <ele>106.8</ele>
        <time>2020-06-17T12:42:02Z</time>
      </trkpt>
      <trkpt lat="49.30172" lon="-0.06018">
        <ele>107</ele>
        <time>2020-06-17T12:42:03Z</time>
      </trkpt>
      <trkpt lat="49.30172" lon="-0.06016">
        <ele>107.1</ele>
        <time>2020-06-17T12:42:04Z</time>
      </trkpt>
      <trkpt lat="49.30172" lon="-0.06011">
        <ele>107.2</ele>
        <time>2020-06-17T12:42:05Z</time>
      </trkpt>
      <trkpt lat="49.30171" lon="-0.06005">
        <ele>107.5</ele>
        <time>2020-06-17T12:42:06Z</time>
      </trkpt>
      <trkpt lat="49.30171" lon="-0.05998">
        <ele>107.7</ele>
        <time>2020-06-17T12:42:07Z</time>
      </trkpt>
      <trkpt lat="49.3017" lon="-0.05992">
        <ele>107.9</ele>
        <time>2020-06-17T12:42:08Z</time>
      </trkpt>
      <trkpt lat="49.3017" lon="-0.0599">
        <ele>108</ele>
        <time>2020-06-17T12:42:09Z</time>
      </trkpt>
      <trkpt lat="49.3017" lon="-0.05986">
        <ele>108.2</ele>
        <time>2020-06-17T12:42:10Z</time>
      </trkpt>
      <trkpt lat="49.30171" lon="-0.0598">
        <ele>108.4</ele>
        <time>2020-06-17T12:42:11Z</time>
      </trkpt>
      <trkpt lat="49.30171" lon="-0.05975">
        <ele>108.6</ele>
        <time>2020-06-17T12:42:12Z</time>
      </trkpt>
      <trkpt lat="49.30172" lon="-0.05973">
        <ele>108.6</ele>
        <time>2020-06-17T12:42:13Z</time>
      </trkpt>
      <trkpt lat="49.30172" lon="-0.05969">
        <ele>108.8</ele>
        <time>2020-06-17T12:42:14Z</time>
      </trkpt>
      <trkpt lat="49.30173" lon="-0.05967">
        <ele>108.9</ele>
        <time>2020-06-17T12:42:15Z</time>
      </trkpt>
      <trkpt lat="49.30175" lon="-0.05963">
        <ele>109</ele>
        <time>2020-06-17T12:42:16Z</time>
      </trkpt>
      <trkpt lat="49.30176" lon="-0.05962">
        <ele>109.1</ele>
        <time>2020-06-17T12:42:17Z</time>
      </trkpt>
      <trkpt lat="49.30178" lon="-0.05957">
        <ele>109.3</ele>
        <time>2020-06-17T12:42:18Z</time>
      </trkpt>
      <trkpt lat="49.30178" lon="-0.05955">
        <ele>109.4</ele>
        <time>2020-06-17T12:42:19Z</time>
      </trkpt>
      <trkpt lat="49.30179" lon="-0.05953">
        <ele>109.4</ele>
        <time>2020-06-17T12:42:20Z</time>
      </trkpt>
      <trkpt lat="49.30179" lon="-0.0595">
        <ele>109.5</ele>
        <time>2020-06-17T12:42:21Z</time>
      </trkpt>
      <trkpt lat="49.30179" lon="-0.05943">
        <ele>109.8</ele>
        <time>2020-06-17T12:42:22Z</time>
      </trkpt>
      <trkpt lat="49.3018" lon="-0.05937">
        <ele>110</ele>
        <time>2020-06-17T12:42:23Z</time>
      </trkpt>
      <trkpt lat="49.30181" lon="-0.05932">
        <ele>110.2</ele>
        <time>2020-06-17T12:42:24Z</time>
      </trkpt>
      <trkpt lat="49.3018" lon="-0.05927">
        <ele>110.3</ele>
        <time>2020-06-17T12:42:25Z</time>
      </trkpt>
      <trkpt lat="49.3018" lon="-0.05925">
        <ele>110.3</ele>
        <time>2020-06-17T12:42:26Z</time>
      </trkpt>
      <trkpt lat="49.3018" lon="-0.05925">
        <ele>110.3</ele>
        <time>2020-06-17T12:42:27Z</time>
      </trkpt>
      <trkpt lat="49.3018" lon="-0.05925">
        <ele>110.3</ele>
        <time>2020-06-17T12:42:28Z</time>
      </trkpt>
      <trkpt lat="49.3018" lon="-0.05925">
        <ele>110.3</ele>
        <time>2020-06-17T12:42:29Z</time>
      </trkpt>
      <trkpt lat="49.30181" lon="-0.05911">
        <ele>110.7</ele>
        <time>2020-06-17T12:42:38Z</time>
      </trkpt>
      <trkpt lat="49.30183" lon="-0.05905">
        <ele>110.8</ele>
        <time>2020-06-17T12:42:39Z</time>
      </trkpt>
      <trkpt lat="49.30184" lon="-0.059">
        <ele>110.9</ele>
        <time>2020-06-17T12:42:40Z</time>
      </trkpt>
      <trkpt lat="49.30186" lon="-0.05895">
        <ele>111</ele>
        <time>2020-06-17T12:42:41Z</time>
      </trkpt>
      <trkpt lat="49.30187" lon="-0.0589">
        <ele>111.1</ele>
        <time>2020-06-17T12:42:42Z</time>
      </trkpt>
      <trkpt lat="49.30188" lon="-0.05884">
        <ele>111.2</ele>
        <time>2020-06-17T12:42:43Z</time>
      </trkpt>
      <trkpt lat="49.3019" lon="-0.05879">
        <ele>111.2</ele>
        <time>2020-06-17T12:42:44Z</time>
      </trkpt>
      <trkpt lat="49.30192" lon="-0.05874">
        <ele>111.2</ele>
        <time>2020-06-17T12:42:45Z</time>
      </trkpt>
      <trkpt lat="49.30194" lon="-0.05869">
        <ele>111.2</ele>
        <time>2020-06-17T12:42:46Z</time>
      </trkpt>
      <trkpt lat="49.30196" lon="-0.05863">
        <ele>111.2</ele>
        <time>2020-06-17T12:42:47Z</time>
      </trkpt>
      <trkpt lat="49.30199" lon="-0.05857">
        <ele>111.2</ele>
        <time>2020-06-17T12:42:48Z</time>
      </trkpt>
      <trkpt lat="49.30201" lon="-0.05851">
        <ele>111.2</ele>
        <time>2020-06-17T12:42:49Z</time>
      </trkpt>
      <trkpt lat="49.30204" lon="-0.05843">
        <ele>111.1</ele>
        <time>2020-06-17T12:42:50Z</time>
      </trkpt>
      <trkpt lat="49.30206" lon="-0.05836">
        <ele>111</ele>
        <time>2020-06-17T12:42:51Z</time>
      </trkpt>
      <trkpt lat="49.30209" lon="-0.05831">
        <ele>110.9</ele>
        <time>2020-06-17T12:42:52Z</time>
      </trkpt>
      <trkpt lat="49.30212" lon="-0.05826">
        <ele>110.8</ele>
        <time>2020-06-17T12:42:53Z</time>
      </trkpt>
      <trkpt lat="49.30215" lon="-0.05821">
        <ele>110.6</ele>
        <time>2020-06-17T12:42:54Z</time>
      </trkpt>
      <trkpt lat="49.30217" lon="-0.05816">
        <ele>110.4</ele>
        <time>2020-06-17T12:42:55Z</time>
      </trkpt>
      <trkpt lat="49.30221" lon="-0.05811">
        <ele>110.2</ele>
        <time>2020-06-17T12:42:56Z</time>
      </trkpt>
      <trkpt lat="49.30224" lon="-0.05805">
        <ele>110</ele>
        <time>2020-06-17T12:42:57Z</time>
      </trkpt>
      <trkpt lat="49.30228" lon="-0.05799">
        <ele>109.8</ele>
        <time>2020-06-17T12:42:58Z</time>
      </trkpt>
      <trkpt lat="49.30232" lon="-0.05793">
        <ele>109.6</ele>
        <time>2020-06-17T12:42:59Z</time>
      </trkpt>
      <trkpt lat="49.30237" lon="-0.05787">
        <ele>109.3</ele>
        <time>2020-06-17T12:43:00Z</time>
      </trkpt>
      <trkpt lat="49.30241" lon="-0.05783">
        <ele>109.1</ele>
        <time>2020-06-17T12:43:01Z</time>
      </trkpt>
      <trkpt lat="49.30246" lon="-0.0578">
        <ele>108.8</ele>
        <time>2020-06-17T12:43:02Z</time>
      </trkpt>
      <trkpt lat="49.30251" lon="-0.05777">
        <ele>108.6</ele>
        <time>2020-06-17T12:43:03Z</time>
      </trkpt>
      <trkpt lat="49.30255" lon="-0.05774">
        <ele>108.4</ele>
        <time>2020-06-17T12:43:04Z</time>
      </trkpt>
      <trkpt lat="49.3026" lon="-0.05773">
        <ele>108.2</ele>
        <time>2020-06-17T12:43:05Z</time>
      </trkpt>
      <trkpt lat="49.30265" lon="-0.05771">
        <ele>108.1</ele>
        <time>2020-06-17T12:43:06Z</time>
      </trkpt>
      <trkpt lat="49.30271" lon="-0.05769">
        <ele>108.1</ele>
        <time>2020-06-17T12:43:07Z</time>
      </trkpt>
      <trkpt lat="49.30276" lon="-0.05767">
        <ele>108.4</ele>
        <time>2020-06-17T12:43:08Z</time>
      </trkpt>
      <trkpt lat="49.30282" lon="-0.05764">
        <ele>108.6</ele>
        <time>2020-06-17T12:43:09Z</time>
      </trkpt>
      <trkpt lat="49.30286" lon="-0.05763">
        <ele>108.8</ele>
        <time>2020-06-17T12:43:10Z</time>
      </trkpt>
      <trkpt lat="49.30289" lon="-0.05762">
        <ele>108.9</ele>
        <time>2020-06-17T12:43:11Z</time>
      </trkpt>
      <trkpt lat="49.30292" lon="-0.0576">
        <ele>109</ele>
        <time>2020-06-17T12:43:12Z</time>
      </trkpt>
      <trkpt lat="49.30295" lon="-0.0576">
        <ele>109.2</ele>
        <time>2020-06-17T12:43:13Z</time>
      </trkpt>
      <trkpt lat="49.30299" lon="-0.05759">
        <ele>109.4</ele>
        <time>2020-06-17T12:43:14Z</time>
      </trkpt>
      <trkpt lat="49.30302" lon="-0.05758">
        <ele>109.5</ele>
        <time>2020-06-17T12:43:15Z</time>
      </trkpt>
      <trkpt lat="49.30305" lon="-0.05756">
        <ele>109.7</ele>
        <time>2020-06-17T12:43:16Z</time>
      </trkpt>
      <trkpt lat="49.30308" lon="-0.05756">
        <ele>109.8</ele>
        <time>2020-06-17T12:43:17Z</time>
      </trkpt>
      <trkpt lat="49.30312" lon="-0.05756">
        <ele>110</ele>
        <time>2020-06-17T12:43:18Z</time>
      </trkpt>
      <trkpt lat="49.30313" lon="-0.05757">
        <ele>110.1</ele>
        <time>2020-06-17T12:43:19Z</time>
      </trkpt>
      <trkpt lat="49.30316" lon="-0.05758">
        <ele>110.2</ele>
        <time>2020-06-17T12:43:20Z</time>
      </trkpt>
      <trkpt lat="49.30317" lon="-0.05759">
        <ele>110.3</ele>
        <time>2020-06-17T12:43:21Z</time>
      </trkpt>
      <trkpt lat="49.3032" lon="-0.05756">
        <ele>110.4</ele>
        <time>2020-06-17T12:43:22Z</time>
      </trkpt>
      <trkpt lat="49.30323" lon="-0.05756">
        <ele>110.5</ele>
        <time>2020-06-17T12:43:23Z</time>
      </trkpt>
      <trkpt lat="49.30324" lon="-0.05756">
        <ele>110.6</ele>
        <time>2020-06-17T12:43:24Z</time>
      </trkpt>
      <trkpt lat="49.30328" lon="-0.05756">
        <ele>110.7</ele>
        <time>2020-06-17T12:43:25Z</time>
      </trkpt>
      <trkpt lat="49.30329" lon="-0.05755">
        <ele>110.7</ele>
        <time>2020-06-17T12:43:26Z</time>
      </trkpt>
      <trkpt lat="49.30333" lon="-0.05757">
        <ele>110.9</ele>
        <time>2020-06-17T12:43:27Z</time>
      </trkpt>
      <trkpt lat="49.30334" lon="-0.05757">
        <ele>110.9</ele>
        <time>2020-06-17T12:43:28Z</time>
      </trkpt>
      <trkpt lat="49.30338" lon="-0.05758">
        <ele>111</ele>
        <time>2020-06-17T12:43:29Z</time>
      </trkpt>
      <trkpt lat="49.30342" lon="-0.05758">
        <ele>111.1</ele>
        <time>2020-06-17T12:43:30Z</time>
      </trkpt>
      <trkpt lat="49.30343" lon="-0.05756">
        <ele>111.2</ele>
        <time>2020-06-17T12:43:31Z</time>
      </trkpt>
      <trkpt lat="49.30347" lon="-0.05755">
        <ele>111.3</ele>
        <time>2020-06-17T12:43:32Z</time>
      </trkpt>
      <trkpt lat="49.30349" lon="-0.05755">
        <ele>111.3</ele>
        <time>2020-06-17T12:43:33Z</time>
      </trkpt>
      <trkpt lat="49.30352" lon="-0.05756">
        <ele>111.3</ele>
        <time>2020-06-17T12:43:34Z</time>
      </trkpt>
      <trkpt lat="49.30356" lon="-0.05757">
        <ele>111.4</ele>
        <time>2020-06-17T12:43:35Z</time>
      </trkpt>
      <trkpt lat="49.30359" lon="-0.05758">
        <ele>111.4</ele>
        <time>2020-06-17T12:43:36Z</time>
      </trkpt>
      <trkpt lat="49.30362" lon="-0.05759">
        <ele>111.4</ele>
        <time>2020-06-17T12:43:37Z</time>
      </trkpt>
      <trkpt lat="49.30366" lon="-0.05761">
        <ele>111.4</ele>
        <time>2020-06-17T12:43:38Z</time>
      </trkpt>
      <trkpt lat="49.30369" lon="-0.05762">
        <ele>111.5</ele>
        <time>2020-06-17T12:43:39Z</time>
      </trkpt>
      <trkpt lat="49.30373" lon="-0.05763">
        <ele>111.4</ele>
        <time>2020-06-17T12:43:40Z</time>
      </trkpt>
      <trkpt lat="49.30377" lon="-0.05764">
        <ele>111.4</ele>
        <time>2020-06-17T12:43:41Z</time>
      </trkpt>
      <trkpt lat="49.30382" lon="-0.05765">
        <ele>111.3</ele>
        <time>2020-06-17T12:43:42Z</time>
      </trkpt>
      <trkpt lat="49.30386" lon="-0.05765">
        <ele>111.3</ele>
        <time>2020-06-17T12:43:43Z</time>
      </trkpt>
      <trkpt lat="49.30391" lon="-0.05765">
        <ele>111.2</ele>
        <time>2020-06-17T12:43:44Z</time>
      </trkpt>
      <trkpt lat="49.30395" lon="-0.05764">
        <ele>111.1</ele>
        <time>2020-06-17T12:43:45Z</time>
      </trkpt>
      <trkpt lat="49.30399" lon="-0.05764">
        <ele>111</ele>
        <time>2020-06-17T12:43:46Z</time>
      </trkpt>
      <trkpt lat="49.30403" lon="-0.05764">
        <ele>111</ele>
        <time>2020-06-17T12:43:47Z</time>
      </trkpt>
      <trkpt lat="49.30406" lon="-0.05766">
        <ele>110.9</ele>
        <time>2020-06-17T12:43:48Z</time>
      </trkpt>
      <trkpt lat="49.3041" lon="-0.05767">
        <ele>110.8</ele>
        <time>2020-06-17T12:43:49Z</time>
      </trkpt>
      <trkpt lat="49.30413" lon="-0.05768">
        <ele>110.7</ele>
        <time>2020-06-17T12:43:50Z</time>
      </trkpt>
      <trkpt lat="49.30417" lon="-0.05769">
        <ele>110.6</ele>
        <time>2020-06-17T12:43:51Z</time>
      </trkpt>
      <trkpt lat="49.30421" lon="-0.05769">
        <ele>110.5</ele>
        <time>2020-06-17T12:43:52Z</time>
      </trkpt>
      <trkpt lat="49.30426" lon="-0.05769">
        <ele>110.4</ele>
        <time>2020-06-17T12:43:53Z</time>
      </trkpt>
      <trkpt lat="49.30431" lon="-0.05767">
        <ele>110.2</ele>
        <time>2020-06-17T12:43:54Z</time>
      </trkpt>
      <trkpt lat="49.30436" lon="-0.05764">
        <ele>110</ele>
        <time>2020-06-17T12:43:55Z</time>
      </trkpt>
      <trkpt lat="49.3044" lon="-0.05762">
        <ele>109.8</ele>
        <time>2020-06-17T12:43:56Z</time>
      </trkpt>
      <trkpt lat="49.30447" lon="-0.0576">
        <ele>109.4</ele>
        <time>2020-06-17T12:43:57Z</time>
      </trkpt>
      <trkpt lat="49.30454" lon="-0.05755">
        <ele>109.1</ele>
        <time>2020-06-17T12:43:58Z</time>
      </trkpt>
      <trkpt lat="49.30462" lon="-0.0575">
        <ele>108.7</ele>
        <time>2020-06-17T12:43:59Z</time>
      </trkpt>
      <trkpt lat="49.30468" lon="-0.0574">
        <ele>108.2</ele>
        <time>2020-06-17T12:44:00Z</time>
      </trkpt>
      <trkpt lat="49.30474" lon="-0.05732">
        <ele>108</ele>
        <time>2020-06-17T12:44:01Z</time>
      </trkpt>
      <trkpt lat="49.30478" lon="-0.05723">
        <ele>107.8</ele>
        <time>2020-06-17T12:44:02Z</time>
      </trkpt>
      <trkpt lat="49.30483" lon="-0.05716">
        <ele>107.8</ele>
        <time>2020-06-17T12:44:03Z</time>
      </trkpt>
      <trkpt lat="49.30487" lon="-0.05709">
        <ele>107.7</ele>
        <time>2020-06-17T12:44:04Z</time>
      </trkpt>
      <trkpt lat="49.30492" lon="-0.05702">
        <ele>107.8</ele>
        <time>2020-06-17T12:44:05Z</time>
      </trkpt>
      <trkpt lat="49.30495" lon="-0.05695">
        <ele>107.8</ele>
        <time>2020-06-17T12:44:06Z</time>
      </trkpt>
      <trkpt lat="49.30499" lon="-0.05689">
        <ele>107.9</ele>
        <time>2020-06-17T12:44:07Z</time>
      </trkpt>
      <trkpt lat="49.30502" lon="-0.05683">
        <ele>107.9</ele>
        <time>2020-06-17T12:44:08Z</time>
      </trkpt>
      <trkpt lat="49.30505" lon="-0.05678">
        <ele>108</ele>
        <time>2020-06-17T12:44:09Z</time>
      </trkpt>
      <trkpt lat="49.30509" lon="-0.05673">
        <ele>108.1</ele>
        <time>2020-06-17T12:44:10Z</time>
      </trkpt>
      <trkpt lat="49.30511" lon="-0.05669">
        <ele>108.1</ele>
        <time>2020-06-17T12:44:11Z</time>
      </trkpt>
      <trkpt lat="49.30514" lon="-0.05665">
        <ele>108.2</ele>
        <time>2020-06-17T12:44:12Z</time>
      </trkpt>
      <trkpt lat="49.30516" lon="-0.05659">
        <ele>108.3</ele>
        <time>2020-06-17T12:44:13Z</time>
      </trkpt>
      <trkpt lat="49.30518" lon="-0.05655">
        <ele>108.4</ele>
        <time>2020-06-17T12:44:14Z</time>
      </trkpt>
      <trkpt lat="49.30522" lon="-0.05649">
        <ele>108.5</ele>
        <time>2020-06-17T12:44:15Z</time>
      </trkpt>
      <trkpt lat="49.30525" lon="-0.05643">
        <ele>108.6</ele>
        <time>2020-06-17T12:44:16Z</time>
      </trkpt>
      <trkpt lat="49.30528" lon="-0.05635">
        <ele>108.6</ele>
        <time>2020-06-17T12:44:17Z</time>
      </trkpt>
      <trkpt lat="49.3053" lon="-0.0563">
        <ele>108.7</ele>
        <time>2020-06-17T12:44:18Z</time>
      </trkpt>
      <trkpt lat="49.30533" lon="-0.05621">
        <ele>108.8</ele>
        <time>2020-06-17T12:44:19Z</time>
      </trkpt>
      <trkpt lat="49.30534" lon="-0.05617">
        <ele>108.8</ele>
        <time>2020-06-17T12:44:20Z</time>
      </trkpt>
      <trkpt lat="49.30536" lon="-0.0561">
        <ele>108.9</ele>
        <time>2020-06-17T12:44:21Z</time>
      </trkpt>
      <trkpt lat="49.30539" lon="-0.05606">
        <ele>108.9</ele>
        <time>2020-06-17T12:44:22Z</time>
      </trkpt>
      <trkpt lat="49.30541" lon="-0.056">
        <ele>109</ele>
        <time>2020-06-17T12:44:23Z</time>
      </trkpt>
      <trkpt lat="49.30544" lon="-0.05595">
        <ele>109</ele>
        <time>2020-06-17T12:44:24Z</time>
      </trkpt>
      <trkpt lat="49.30546" lon="-0.05589">
        <ele>109</ele>
        <time>2020-06-17T12:44:25Z</time>
      </trkpt>
      <trkpt lat="49.30548" lon="-0.05586">
        <ele>109.1</ele>
        <time>2020-06-17T12:44:26Z</time>
      </trkpt>
      <trkpt lat="49.30551" lon="-0.05581">
        <ele>109.2</ele>
        <time>2020-06-17T12:44:27Z</time>
      </trkpt>
      <trkpt lat="49.30553" lon="-0.05576">
        <ele>109.3</ele>
        <time>2020-06-17T12:44:28Z</time>
      </trkpt>
      <trkpt lat="49.30555" lon="-0.05569">
        <ele>109.4</ele>
        <time>2020-06-17T12:44:29Z</time>
      </trkpt>
      <trkpt lat="49.30556" lon="-0.05564">
        <ele>109.4</ele>
        <time>2020-06-17T12:44:30Z</time>
      </trkpt>
      <trkpt lat="49.30557" lon="-0.05557">
        <ele>109.5</ele>
        <time>2020-06-17T12:44:31Z</time>
      </trkpt>
      <trkpt lat="49.30559" lon="-0.05551">
        <ele>109.6</ele>
        <time>2020-06-17T12:44:32Z</time>
      </trkpt>
      <trkpt lat="49.30561" lon="-0.05545">
        <ele>109.7</ele>
        <time>2020-06-17T12:44:33Z</time>
      </trkpt>
      <trkpt lat="49.30563" lon="-0.05539">
        <ele>109.7</ele>
        <time>2020-06-17T12:44:34Z</time>
      </trkpt>
      <trkpt lat="49.30565" lon="-0.05534">
        <ele>109.8</ele>
        <time>2020-06-17T12:44:35Z</time>
      </trkpt>
      <trkpt lat="49.30567" lon="-0.05529">
        <ele>109.9</ele>
        <time>2020-06-17T12:44:36Z</time>
      </trkpt>
      <trkpt lat="49.30569" lon="-0.05523">
        <ele>110</ele>
        <time>2020-06-17T12:44:37Z</time>
      </trkpt>
      <trkpt lat="49.30571" lon="-0.05518">
        <ele>110</ele>
        <time>2020-06-17T12:44:38Z</time>
      </trkpt>
      <trkpt lat="49.30572" lon="-0.05513">
        <ele>110.1</ele>
        <time>2020-06-17T12:44:39Z</time>
      </trkpt>
      <trkpt lat="49.30573" lon="-0.05508">
        <ele>110.2</ele>
        <time>2020-06-17T12:44:40Z</time>
      </trkpt>
      <trkpt lat="49.30574" lon="-0.05503">
        <ele>110.3</ele>
        <time>2020-06-17T12:44:41Z</time>
      </trkpt>
      <trkpt lat="49.30576" lon="-0.05499">
        <ele>110.4</ele>
        <time>2020-06-17T12:44:42Z</time>
      </trkpt>
      <trkpt lat="49.30578" lon="-0.05493">
        <ele>110.5</ele>
        <time>2020-06-17T12:44:43Z</time>
      </trkpt>
      <trkpt lat="49.30579" lon="-0.05488">
        <ele>110.6</ele>
        <time>2020-06-17T12:44:44Z</time>
      </trkpt>
      <trkpt lat="49.3058" lon="-0.05483">
        <ele>110.6</ele>
        <time>2020-06-17T12:44:45Z</time>
      </trkpt>
      <trkpt lat="49.30581" lon="-0.05478">
        <ele>110.7</ele>
        <time>2020-06-17T12:44:46Z</time>
      </trkpt>
      <trkpt lat="49.30582" lon="-0.05474">
        <ele>110.7</ele>
        <time>2020-06-17T12:44:47Z</time>
      </trkpt>
      <trkpt lat="49.30583" lon="-0.05469">
        <ele>110.8</ele>
        <time>2020-06-17T12:44:48Z</time>
      </trkpt>
      <trkpt lat="49.30585" lon="-0.05462">
        <ele>110.8</ele>
        <time>2020-06-17T12:44:49Z</time>
      </trkpt>
      <trkpt lat="49.30586" lon="-0.05456">
        <ele>110.9</ele>
        <time>2020-06-17T12:44:50Z</time>
      </trkpt>
      <trkpt lat="49.30588" lon="-0.05449">
        <ele>111</ele>
        <time>2020-06-17T12:44:51Z</time>
      </trkpt>
      <trkpt lat="49.30589" lon="-0.05443">
        <ele>111.1</ele>
        <time>2020-06-17T12:44:52Z</time>
      </trkpt>
      <trkpt lat="49.3059" lon="-0.05437">
        <ele>111.2</ele>
        <time>2020-06-17T12:44:53Z</time>
      </trkpt>
      <trkpt lat="49.30591" lon="-0.0543">
        <ele>111.3</ele>
        <time>2020-06-17T12:44:54Z</time>
      </trkpt>
      <trkpt lat="49.30591" lon="-0.05423">
        <ele>111.4</ele>
        <time>2020-06-17T12:44:55Z</time>
      </trkpt>
      <trkpt lat="49.30591" lon="-0.05416">
        <ele>111.6</ele>
        <time>2020-06-17T12:44:56Z</time>
      </trkpt>
      <trkpt lat="49.30592" lon="-0.05409">
        <ele>111.7</ele>
        <time>2020-06-17T12:44:57Z</time>
      </trkpt>
      <trkpt lat="49.30593" lon="-0.05403">
        <ele>111.8</ele>
        <time>2020-06-17T12:44:58Z</time>
      </trkpt>
      <trkpt lat="49.30594" lon="-0.05397">
        <ele>112</ele>
        <time>2020-06-17T12:44:59Z</time>
      </trkpt>
      <trkpt lat="49.30594" lon="-0.0539">
        <ele>112.1</ele>
        <time>2020-06-17T12:45:00Z</time>
      </trkpt>
      <trkpt lat="49.30594" lon="-0.05384">
        <ele>112.2</ele>
        <time>2020-06-17T12:45:01Z</time>
      </trkpt>
      <trkpt lat="49.30595" lon="-0.05377">
        <ele>112.3</ele>
        <time>2020-06-17T12:45:02Z</time>
      </trkpt>
      <trkpt lat="49.30596" lon="-0.0537">
        <ele>112.4</ele>
        <time>2020-06-17T12:45:03Z</time>
      </trkpt>
      <trkpt lat="49.30596" lon="-0.05362">
        <ele>112.6</ele>
        <time>2020-06-17T12:45:04Z</time>
      </trkpt>
      <trkpt lat="49.30597" lon="-0.05355">
        <ele>112.7</ele>
        <time>2020-06-17T12:45:05Z</time>
      </trkpt>
      <trkpt lat="49.30598" lon="-0.05347">
        <ele>112.9</ele>
        <time>2020-06-17T12:45:06Z</time>
      </trkpt>
      <trkpt lat="49.30599" lon="-0.0534">
        <ele>113</ele>
        <time>2020-06-17T12:45:07Z</time>
      </trkpt>
      <trkpt lat="49.306" lon="-0.05333">
        <ele>113</ele>
        <time>2020-06-17T12:45:08Z</time>
      </trkpt>
      <trkpt lat="49.30602" lon="-0.05325">
        <ele>113.1</ele>
        <time>2020-06-17T12:45:09Z</time>
      </trkpt>
      <trkpt lat="49.30603" lon="-0.05319">
        <ele>113.2</ele>
        <time>2020-06-17T12:45:10Z</time>
      </trkpt>
      <trkpt lat="49.30604" lon="-0.05312">
        <ele>113.2</ele>
        <time>2020-06-17T12:45:11Z</time>
      </trkpt>
      <trkpt lat="49.30605" lon="-0.05305">
        <ele>113.3</ele>
        <time>2020-06-17T12:45:12Z</time>
      </trkpt>
      <trkpt lat="49.30605" lon="-0.05299">
        <ele>113.4</ele>
        <time>2020-06-17T12:45:13Z</time>
      </trkpt>
      <trkpt lat="49.30606" lon="-0.05293">
        <ele>113.4</ele>
        <time>2020-06-17T12:45:14Z</time>
      </trkpt>
      <trkpt lat="49.30606" lon="-0.05286">
        <ele>113.4</ele>
        <time>2020-06-17T12:45:15Z</time>
      </trkpt>
      <trkpt lat="49.30606" lon="-0.0528">
        <ele>113.5</ele>
        <time>2020-06-17T12:45:16Z</time>
      </trkpt>
      <trkpt lat="49.30606" lon="-0.05274">
        <ele>113.5</ele>
        <time>2020-06-17T12:45:17Z</time>
      </trkpt>
      <trkpt lat="49.30607" lon="-0.05268">
        <ele>113.6</ele>
        <time>2020-06-17T12:45:18Z</time>
      </trkpt>
      <trkpt lat="49.30607" lon="-0.05262">
        <ele>113.6</ele>
        <time>2020-06-17T12:45:19Z</time>
      </trkpt>
      <trkpt lat="49.30607" lon="-0.05258">
        <ele>113.6</ele>
        <time>2020-06-17T12:45:20Z</time>
      </trkpt>
      <trkpt lat="49.30608" lon="-0.05249">
        <ele>113.6</ele>
        <time>2020-06-17T12:45:21Z</time>
      </trkpt>
      <trkpt lat="49.30609" lon="-0.05242">
        <ele>113.7</ele>
        <time>2020-06-17T12:45:22Z</time>
      </trkpt>
      <trkpt lat="49.30609" lon="-0.05233">
        <ele>113.7</ele>
        <time>2020-06-17T12:45:23Z</time>
      </trkpt>
      <trkpt lat="49.30609" lon="-0.05226">
        <ele>113.7</ele>
        <time>2020-06-17T12:45:24Z</time>
      </trkpt>
      <trkpt lat="49.3061" lon="-0.05219">
        <ele>113.8</ele>
        <time>2020-06-17T12:45:25Z</time>
      </trkpt>
      <trkpt lat="49.30611" lon="-0.0521">
        <ele>113.8</ele>
        <time>2020-06-17T12:45:26Z</time>
      </trkpt>
      <trkpt lat="49.30612" lon="-0.05201">
        <ele>113.8</ele>
        <time>2020-06-17T12:45:27Z</time>
      </trkpt>
      <trkpt lat="49.30613" lon="-0.05193">
        <ele>113.8</ele>
        <time>2020-06-17T12:45:28Z</time>
      </trkpt>
      <trkpt lat="49.30615" lon="-0.05184">
        <ele>113.8</ele>
        <time>2020-06-17T12:45:29Z</time>
      </trkpt>
      <trkpt lat="49.30615" lon="-0.05175">
        <ele>113.7</ele>
        <time>2020-06-17T12:45:30Z</time>
      </trkpt>
      <trkpt lat="49.30616" lon="-0.05167">
        <ele>113.7</ele>
        <time>2020-06-17T12:45:31Z</time>
      </trkpt>
      <trkpt lat="49.30617" lon="-0.05158">
        <ele>113.7</ele>
        <time>2020-06-17T12:45:32Z</time>
      </trkpt>
      <trkpt lat="49.30617" lon="-0.05145">
        <ele>113.6</ele>
        <time>2020-06-17T12:45:33Z</time>
      </trkpt>
      <trkpt lat="49.30618" lon="-0.05138">
        <ele>113.6</ele>
        <time>2020-06-17T12:45:34Z</time>
      </trkpt>
      <trkpt lat="49.30618" lon="-0.05127">
        <ele>113.6</ele>
        <time>2020-06-17T12:45:35Z</time>
      </trkpt>
      <trkpt lat="49.30619" lon="-0.0512">
        <ele>113.5</ele>
        <time>2020-06-17T12:45:36Z</time>
      </trkpt>
      <trkpt lat="49.30619" lon="-0.05111">
        <ele>113.5</ele>
        <time>2020-06-17T12:45:37Z</time>
      </trkpt>
      <trkpt lat="49.30619" lon="-0.05105">
        <ele>113.5</ele>
        <time>2020-06-17T12:45:38Z</time>
      </trkpt>
      <trkpt lat="49.3062" lon="-0.05095">
        <ele>113.5</ele>
        <time>2020-06-17T12:45:39Z</time>
      </trkpt>
      <trkpt lat="49.30621" lon="-0.05087">
        <ele>113.5</ele>
        <time>2020-06-17T12:45:40Z</time>
      </trkpt>
      <trkpt lat="49.30621" lon="-0.05079">
        <ele>113.4</ele>
        <time>2020-06-17T12:45:41Z</time>
      </trkpt>
      <trkpt lat="49.30622" lon="-0.0507">
        <ele>113.4</ele>
        <time>2020-06-17T12:45:42Z</time>
      </trkpt>
      <trkpt lat="49.30623" lon="-0.05062">
        <ele>113.4</ele>
        <time>2020-06-17T12:45:43Z</time>
      </trkpt>
      <trkpt lat="49.30623" lon="-0.05054">
        <ele>113.3</ele>
        <time>2020-06-17T12:45:44Z</time>
      </trkpt>
      <trkpt lat="49.30624" lon="-0.05045">
        <ele>113.3</ele>
        <time>2020-06-17T12:45:45Z</time>
      </trkpt>
      <trkpt lat="49.30624" lon="-0.05037">
        <ele>113.3</ele>
        <time>2020-06-17T12:45:46Z</time>
      </trkpt>
      <trkpt lat="49.30624" lon="-0.05028">
        <ele>113.2</ele>
        <time>2020-06-17T12:45:47Z</time>
      </trkpt>
      <trkpt lat="49.30624" lon="-0.05022">
        <ele>113.2</ele>
        <time>2020-06-17T12:45:48Z</time>
      </trkpt>
      <trkpt lat="49.30624" lon="-0.05014">
        <ele>113.2</ele>
        <time>2020-06-17T12:45:49Z</time>
      </trkpt>
      <trkpt lat="49.30625" lon="-0.05009">
        <ele>113.2</ele>
        <time>2020-06-17T12:45:50Z</time>
      </trkpt>
      <trkpt lat="49.30625" lon="-0.05">
        <ele>113.1</ele>
        <time>2020-06-17T12:45:51Z</time>
      </trkpt>
      <trkpt lat="49.30626" lon="-0.04992">
        <ele>113.1</ele>
        <time>2020-06-17T12:45:52Z</time>
      </trkpt>
      <trkpt lat="49.30626" lon="-0.04984">
        <ele>113.1</ele>
        <time>2020-06-17T12:45:53Z</time>
      </trkpt>
      <trkpt lat="49.30628" lon="-0.04975">
        <ele>113.1</ele>
        <time>2020-06-17T12:45:54Z</time>
      </trkpt>
      <trkpt lat="49.30629" lon="-0.04968">
        <ele>113</ele>
        <time>2020-06-17T12:45:55Z</time>
      </trkpt>
      <trkpt lat="49.3063" lon="-0.0496">
        <ele>113</ele>
        <time>2020-06-17T12:45:56Z</time>
      </trkpt>
      <trkpt lat="49.30631" lon="-0.0495">
        <ele>113</ele>
        <time>2020-06-17T12:45:57Z</time>
      </trkpt>
      <trkpt lat="49.30631" lon="-0.0494">
        <ele>113</ele>
        <time>2020-06-17T12:45:58Z</time>
      </trkpt>
      <trkpt lat="49.30632" lon="-0.04931">
        <ele>113</ele>
        <time>2020-06-17T12:45:59Z</time>
      </trkpt>
      <trkpt lat="49.30632" lon="-0.04922">
        <ele>113</ele>
        <time>2020-06-17T12:46:00Z</time>
      </trkpt>
      <trkpt lat="49.30633" lon="-0.04913">
        <ele>113</ele>
        <time>2020-06-17T12:46:01Z</time>
      </trkpt>
      <trkpt lat="49.30634" lon="-0.04906">
        <ele>113.1</ele>
        <time>2020-06-17T12:46:02Z</time>
      </trkpt>
      <trkpt lat="49.30634" lon="-0.04898">
        <ele>113.1</ele>
        <time>2020-06-17T12:46:03Z</time>
      </trkpt>
      <trkpt lat="49.30634" lon="-0.04891">
        <ele>113.2</ele>
        <time>2020-06-17T12:46:04Z</time>
      </trkpt>
      <trkpt lat="49.30635" lon="-0.04883">
        <ele>113.3</ele>
        <time>2020-06-17T12:46:05Z</time>
      </trkpt>
      <trkpt lat="49.30635" lon="-0.04874">
        <ele>113.4</ele>
        <time>2020-06-17T12:46:06Z</time>
      </trkpt>
      <trkpt lat="49.30635" lon="-0.04867">
        <ele>113.5</ele>
        <time>2020-06-17T12:46:07Z</time>
      </trkpt>
      <trkpt lat="49.30636" lon="-0.0486">
        <ele>113.6</ele>
        <time>2020-06-17T12:46:08Z</time>
      </trkpt>
      <trkpt lat="49.30636" lon="-0.04853">
        <ele>113.7</ele>
        <time>2020-06-17T12:46:09Z</time>
      </trkpt>
      <trkpt lat="49.30637" lon="-0.04847">
        <ele>113.8</ele>
        <time>2020-06-17T12:46:10Z</time>
      </trkpt>
      <trkpt lat="49.30638" lon="-0.0484">
        <ele>113.9</ele>
        <time>2020-06-17T12:46:11Z</time>
      </trkpt>
      <trkpt lat="49.3064" lon="-0.04833">
        <ele>114</ele>
        <time>2020-06-17T12:46:12Z</time>
      </trkpt>
      <trkpt lat="49.30641" lon="-0.04826">
        <ele>114</ele>
        <time>2020-06-17T12:46:13Z</time>
      </trkpt>
      <trkpt lat="49.30643" lon="-0.04819">
        <ele>114.1</ele>
        <time>2020-06-17T12:46:14Z</time>
      </trkpt>
      <trkpt lat="49.30644" lon="-0.04812">
        <ele>114.1</ele>
        <time>2020-06-17T12:46:15Z</time>
      </trkpt>
      <trkpt lat="49.30646" lon="-0.04804">
        <ele>114.3</ele>
        <time>2020-06-17T12:46:16Z</time>
      </trkpt>
      <trkpt lat="49.30647" lon="-0.04785">
        <ele>114.6</ele>
        <time>2020-06-17T12:46:17Z</time>
      </trkpt>
      <trkpt lat="49.3065" lon="-0.04777">
        <ele>114.7</ele>
        <time>2020-06-17T12:46:18Z</time>
      </trkpt>
      <trkpt lat="49.30653" lon="-0.0477">
        <ele>114.9</ele>
        <time>2020-06-17T12:46:19Z</time>
      </trkpt>
      <trkpt lat="49.30655" lon="-0.04763">
        <ele>115</ele>
        <time>2020-06-17T12:46:20Z</time>
      </trkpt>
      <trkpt lat="49.30657" lon="-0.04756">
        <ele>115.1</ele>
        <time>2020-06-17T12:46:21Z</time>
      </trkpt>
      <trkpt lat="49.30658" lon="-0.04747">
        <ele>115.2</ele>
        <time>2020-06-17T12:46:22Z</time>
      </trkpt>
      <trkpt lat="49.30659" lon="-0.04739">
        <ele>115.2</ele>
        <time>2020-06-17T12:46:23Z</time>
      </trkpt>
      <trkpt lat="49.3066" lon="-0.04731">
        <ele>115.3</ele>
        <time>2020-06-17T12:46:24Z</time>
      </trkpt>
      <trkpt lat="49.30661" lon="-0.04722">
        <ele>115.4</ele>
        <time>2020-06-17T12:46:25Z</time>
      </trkpt>
      <trkpt lat="49.30662" lon="-0.04713">
        <ele>115.5</ele>
        <time>2020-06-17T12:46:26Z</time>
      </trkpt>
      <trkpt lat="49.30663" lon="-0.04704">
        <ele>115.6</ele>
        <time>2020-06-17T12:46:27Z</time>
      </trkpt>
      <trkpt lat="49.30665" lon="-0.04696">
        <ele>115.7</ele>
        <time>2020-06-17T12:46:28Z</time>
      </trkpt>
      <trkpt lat="49.30666" lon="-0.04689">
        <ele>115.7</ele>
        <time>2020-06-17T12:46:29Z</time>
      </trkpt>
      <trkpt lat="49.30667" lon="-0.04682">
        <ele>115.8</ele>
        <time>2020-06-17T12:46:30Z</time>
      </trkpt>
      <trkpt lat="49.30668" lon="-0.04676">
        <ele>115.9</ele>
        <time>2020-06-17T12:46:31Z</time>
      </trkpt>
      <trkpt lat="49.3067" lon="-0.0467">
        <ele>115.9</ele>
        <time>2020-06-17T12:46:32Z</time>
      </trkpt>
      <trkpt lat="49.30671" lon="-0.04663">
        <ele>115.9</ele>
        <time>2020-06-17T12:46:33Z</time>
      </trkpt>
      <trkpt lat="49.30673" lon="-0.04656">
        <ele>116</ele>
        <time>2020-06-17T12:46:34Z</time>
      </trkpt>
      <trkpt lat="49.30674" lon="-0.04649">
        <ele>116</ele>
        <time>2020-06-17T12:46:35Z</time>
      </trkpt>
      <trkpt lat="49.30675" lon="-0.04644">
        <ele>116.1</ele>
        <time>2020-06-17T12:46:36Z</time>
      </trkpt>
      <trkpt lat="49.30676" lon="-0.04637">
        <ele>116.1</ele>
        <time>2020-06-17T12:46:37Z</time>
      </trkpt>
      <trkpt lat="49.30677" lon="-0.04629">
        <ele>116.2</ele>
        <time>2020-06-17T12:46:38Z</time>
      </trkpt>
      <trkpt lat="49.30679" lon="-0.0462">
        <ele>116.3</ele>
        <time>2020-06-17T12:46:39Z</time>
      </trkpt>
      <trkpt lat="49.30679" lon="-0.04611">
        <ele>116.4</ele>
        <time>2020-06-17T12:46:40Z</time>
      </trkpt>
      <trkpt lat="49.30679" lon="-0.04603">
        <ele>116.5</ele>
        <time>2020-06-17T12:46:41Z</time>
      </trkpt>
      <trkpt lat="49.30679" lon="-0.04595">
        <ele>116.6</ele>
        <time>2020-06-17T12:46:42Z</time>
      </trkpt>
      <trkpt lat="49.30681" lon="-0.04589">
        <ele>116.6</ele>
        <time>2020-06-17T12:46:43Z</time>
      </trkpt>
      <trkpt lat="49.30681" lon="-0.04582">
        <ele>116.7</ele>
        <time>2020-06-17T12:46:44Z</time>
      </trkpt>
      <trkpt lat="49.30683" lon="-0.04574">
        <ele>116.8</ele>
        <time>2020-06-17T12:46:45Z</time>
      </trkpt>
      <trkpt lat="49.30685" lon="-0.04566">
        <ele>116.8</ele>
        <time>2020-06-17T12:46:46Z</time>
      </trkpt>
      <trkpt lat="49.30687" lon="-0.04559">
        <ele>116.9</ele>
        <time>2020-06-17T12:46:47Z</time>
      </trkpt>
      <trkpt lat="49.30688" lon="-0.04552">
        <ele>117</ele>
        <time>2020-06-17T12:46:48Z</time>
      </trkpt>
      <trkpt lat="49.30688" lon="-0.04539">
        <ele>117.1</ele>
        <time>2020-06-17T12:46:49Z</time>
      </trkpt>
      <trkpt lat="49.30689" lon="-0.04528">
        <ele>117.2</ele>
        <time>2020-06-17T12:46:50Z</time>
      </trkpt>
      <trkpt lat="49.30689" lon="-0.04517">
        <ele>117.3</ele>
        <time>2020-06-17T12:46:51Z</time>
      </trkpt>
      <trkpt lat="49.3069" lon="-0.04507">
        <ele>117.4</ele>
        <time>2020-06-17T12:46:52Z</time>
      </trkpt>
      <trkpt lat="49.30691" lon="-0.04498">
        <ele>117.4</ele>
        <time>2020-06-17T12:46:53Z</time>
      </trkpt>
      <trkpt lat="49.30692" lon="-0.04489">
        <ele>117.5</ele>
        <time>2020-06-17T12:46:54Z</time>
      </trkpt>
      <trkpt lat="49.30694" lon="-0.0448">
        <ele>117.6</ele>
        <time>2020-06-17T12:46:55Z</time>
      </trkpt>
      <trkpt lat="49.30696" lon="-0.04472">
        <ele>117.6</ele>
        <time>2020-06-17T12:46:56Z</time>
      </trkpt>
      <trkpt lat="49.30697" lon="-0.04463">
        <ele>117.7</ele>
        <time>2020-06-17T12:46:57Z</time>
      </trkpt>
      <trkpt lat="49.30699" lon="-0.04455">
        <ele>117.7</ele>
        <time>2020-06-17T12:46:58Z</time>
      </trkpt>
      <trkpt lat="49.30701" lon="-0.04447">
        <ele>117.7</ele>
        <time>2020-06-17T12:46:59Z</time>
      </trkpt>
      <trkpt lat="49.30704" lon="-0.0444">
        <ele>117.7</ele>
        <time>2020-06-17T12:47:00Z</time>
      </trkpt>
      <trkpt lat="49.30706" lon="-0.04433">
        <ele>117.7</ele>
        <time>2020-06-17T12:47:01Z</time>
      </trkpt>
      <trkpt lat="49.30708" lon="-0.04425">
        <ele>117.8</ele>
        <time>2020-06-17T12:47:02Z</time>
      </trkpt>
      <trkpt lat="49.30711" lon="-0.04418">
        <ele>117.8</ele>
        <time>2020-06-17T12:47:03Z</time>
      </trkpt>
      <trkpt lat="49.30713" lon="-0.0441">
        <ele>117.9</ele>
        <time>2020-06-17T12:47:04Z</time>
      </trkpt>
      <trkpt lat="49.30716" lon="-0.04402">
        <ele>117.9</ele>
        <time>2020-06-17T12:47:05Z</time>
      </trkpt>
      <trkpt lat="49.30719" lon="-0.04393">
        <ele>118</ele>
        <time>2020-06-17T12:47:06Z</time>
      </trkpt>
      <trkpt lat="49.30722" lon="-0.04385">
        <ele>118</ele>
        <time>2020-06-17T12:47:07Z</time>
      </trkpt>
      <trkpt lat="49.30724" lon="-0.04377">
        <ele>118.1</ele>
        <time>2020-06-17T12:47:08Z</time>
      </trkpt>
      <trkpt lat="49.30727" lon="-0.0437">
        <ele>118.2</ele>
        <time>2020-06-17T12:47:09Z</time>
      </trkpt>
      <trkpt lat="49.30729" lon="-0.04363">
        <ele>118.2</ele>
        <time>2020-06-17T12:47:10Z</time>
      </trkpt>
      <trkpt lat="49.30733" lon="-0.04356">
        <ele>118.2</ele>
        <time>2020-06-17T12:47:11Z</time>
      </trkpt>
      <trkpt lat="49.30735" lon="-0.04349">
        <ele>118.2</ele>
        <time>2020-06-17T12:47:12Z</time>
      </trkpt>
      <trkpt lat="49.30738" lon="-0.04343">
        <ele>118.3</ele>
        <time>2020-06-17T12:47:13Z</time>
      </trkpt>
      <trkpt lat="49.3074" lon="-0.04336">
        <ele>118.3</ele>
        <time>2020-06-17T12:47:14Z</time>
      </trkpt>
      <trkpt lat="49.30742" lon="-0.04329">
        <ele>118.3</ele>
        <time>2020-06-17T12:47:15Z</time>
      </trkpt>
      <trkpt lat="49.30743" lon="-0.04323">
        <ele>118.3</ele>
        <time>2020-06-17T12:47:16Z</time>
      </trkpt>
      <trkpt lat="49.30746" lon="-0.04317">
        <ele>118.3</ele>
        <time>2020-06-17T12:47:17Z</time>
      </trkpt>
      <trkpt lat="49.30748" lon="-0.04309">
        <ele>118.3</ele>
        <time>2020-06-17T12:47:18Z</time>
      </trkpt>
      <trkpt lat="49.3075" lon="-0.04302">
        <ele>118.3</ele>
        <time>2020-06-17T12:47:19Z</time>
      </trkpt>
      <trkpt lat="49.30751" lon="-0.04296">
        <ele>118.3</ele>
        <time>2020-06-17T12:47:20Z</time>
      </trkpt>
      <trkpt lat="49.30752" lon="-0.04291">
        <ele>118.4</ele>
        <time>2020-06-17T12:47:21Z</time>
      </trkpt>
      <trkpt lat="49.30753" lon="-0.04286">
        <ele>118.5</ele>
        <time>2020-06-17T12:47:22Z</time>
      </trkpt>
      <trkpt lat="49.30755" lon="-0.0428">
        <ele>118.6</ele>
        <time>2020-06-17T12:47:23Z</time>
      </trkpt>
      <trkpt lat="49.30757" lon="-0.04274">
        <ele>118.8</ele>
        <time>2020-06-17T12:47:24Z</time>
      </trkpt>
      <trkpt lat="49.30758" lon="-0.04269">
        <ele>118.9</ele>
        <time>2020-06-17T12:47:25Z</time>
      </trkpt>
      <trkpt lat="49.30759" lon="-0.04262">
        <ele>119</ele>
        <time>2020-06-17T12:47:26Z</time>
      </trkpt>
      <trkpt lat="49.3076" lon="-0.04256">
        <ele>119.1</ele>
        <time>2020-06-17T12:47:27Z</time>
      </trkpt>
      <trkpt lat="49.3076" lon="-0.0425">
        <ele>119.2</ele>
        <time>2020-06-17T12:47:28Z</time>
      </trkpt>
      <trkpt lat="49.30761" lon="-0.04245">
        <ele>119.2</ele>
        <time>2020-06-17T12:47:29Z</time>
      </trkpt>
      <trkpt lat="49.30762" lon="-0.04241">
        <ele>119.3</ele>
        <time>2020-06-17T12:47:30Z</time>
      </trkpt>
      <trkpt lat="49.30762" lon="-0.04236">
        <ele>119.3</ele>
        <time>2020-06-17T12:47:31Z</time>
      </trkpt>
      <trkpt lat="49.30762" lon="-0.04231">
        <ele>119.4</ele>
        <time>2020-06-17T12:47:32Z</time>
      </trkpt>
      <trkpt lat="49.30763" lon="-0.04226">
        <ele>119.4</ele>
        <time>2020-06-17T12:47:33Z</time>
      </trkpt>
      <trkpt lat="49.30764" lon="-0.0422">
        <ele>119.5</ele>
        <time>2020-06-17T12:47:34Z</time>
      </trkpt>
      <trkpt lat="49.30765" lon="-0.04214">
        <ele>119.5</ele>
        <time>2020-06-17T12:47:35Z</time>
      </trkpt>
      <trkpt lat="49.30765" lon="-0.04208">
        <ele>119.6</ele>
        <time>2020-06-17T12:47:36Z</time>
      </trkpt>
      <trkpt lat="49.30766" lon="-0.04201">
        <ele>119.7</ele>
        <time>2020-06-17T12:47:37Z</time>
      </trkpt>
      <trkpt lat="49.30766" lon="-0.04195">
        <ele>119.7</ele>
        <time>2020-06-17T12:47:38Z</time>
      </trkpt>
      <trkpt lat="49.30767" lon="-0.0419">
        <ele>119.8</ele>
        <time>2020-06-17T12:47:39Z</time>
      </trkpt>
      <trkpt lat="49.30766" lon="-0.04184">
        <ele>119.8</ele>
        <time>2020-06-17T12:47:40Z</time>
      </trkpt>
      <trkpt lat="49.30766" lon="-0.0418">
        <ele>119.8</ele>
        <time>2020-06-17T12:47:41Z</time>
      </trkpt>
      <trkpt lat="49.30766" lon="-0.04175">
        <ele>119.9</ele>
        <time>2020-06-17T12:47:42Z</time>
      </trkpt>
      <trkpt lat="49.30766" lon="-0.04168">
        <ele>119.9</ele>
        <time>2020-06-17T12:47:43Z</time>
      </trkpt>
      <trkpt lat="49.30767" lon="-0.0416">
        <ele>120</ele>
        <time>2020-06-17T12:47:44Z</time>
      </trkpt>
      <trkpt lat="49.30768" lon="-0.0415">
        <ele>120</ele>
        <time>2020-06-17T12:47:45Z</time>
      </trkpt>
      <trkpt lat="49.30769" lon="-0.04144">
        <ele>120.1</ele>
        <time>2020-06-17T12:47:46Z</time>
      </trkpt>
      <trkpt lat="49.3077" lon="-0.04136">
        <ele>120.2</ele>
        <time>2020-06-17T12:47:47Z</time>
      </trkpt>
      <trkpt lat="49.30772" lon="-0.04129">
        <ele>120.2</ele>
        <time>2020-06-17T12:47:48Z</time>
      </trkpt>
      <trkpt lat="49.30773" lon="-0.04123">
        <ele>120.3</ele>
        <time>2020-06-17T12:47:49Z</time>
      </trkpt>
      <trkpt lat="49.30774" lon="-0.04115">
        <ele>120.3</ele>
        <time>2020-06-17T12:47:50Z</time>
      </trkpt>
      <trkpt lat="49.30775" lon="-0.04107">
        <ele>120.4</ele>
        <time>2020-06-17T12:47:51Z</time>
      </trkpt>
      <trkpt lat="49.30775" lon="-0.04098">
        <ele>120.5</ele>
        <time>2020-06-17T12:47:52Z</time>
      </trkpt>
      <trkpt lat="49.30776" lon="-0.04092">
        <ele>120.5</ele>
        <time>2020-06-17T12:47:53Z</time>
      </trkpt>
      <trkpt lat="49.30778" lon="-0.04084">
        <ele>120.6</ele>
        <time>2020-06-17T12:47:54Z</time>
      </trkpt>
      <trkpt lat="49.30779" lon="-0.04077">
        <ele>120.6</ele>
        <time>2020-06-17T12:47:55Z</time>
      </trkpt>
      <trkpt lat="49.30779" lon="-0.04067">
        <ele>120.7</ele>
        <time>2020-06-17T12:47:56Z</time>
      </trkpt>
      <trkpt lat="49.30779" lon="-0.04053">
        <ele>120.7</ele>
        <time>2020-06-17T12:47:57Z</time>
      </trkpt>
      <trkpt lat="49.30779" lon="-0.04044">
        <ele>120.8</ele>
        <time>2020-06-17T12:47:58Z</time>
      </trkpt>
      <trkpt lat="49.3078" lon="-0.04037">
        <ele>120.8</ele>
        <time>2020-06-17T12:47:59Z</time>
      </trkpt>
      <trkpt lat="49.3078" lon="-0.0403">
        <ele>120.9</ele>
        <time>2020-06-17T12:48:00Z</time>
      </trkpt>
      <trkpt lat="49.30782" lon="-0.04023">
        <ele>120.9</ele>
        <time>2020-06-17T12:48:01Z</time>
      </trkpt>
      <trkpt lat="49.30782" lon="-0.04016">
        <ele>120.9</ele>
        <time>2020-06-17T12:48:02Z</time>
      </trkpt>
      <trkpt lat="49.30783" lon="-0.04008">
        <ele>120.9</ele>
        <time>2020-06-17T12:48:03Z</time>
      </trkpt>
      <trkpt lat="49.30784" lon="-0.04001">
        <ele>121</ele>
        <time>2020-06-17T12:48:04Z</time>
      </trkpt>
      <trkpt lat="49.30784" lon="-0.03993">
        <ele>121</ele>
        <time>2020-06-17T12:48:05Z</time>
      </trkpt>
      <trkpt lat="49.30784" lon="-0.03985">
        <ele>121</ele>
        <time>2020-06-17T12:48:06Z</time>
      </trkpt>
      <trkpt lat="49.30784" lon="-0.03977">
        <ele>121</ele>
        <time>2020-06-17T12:48:07Z</time>
      </trkpt>
      <trkpt lat="49.30785" lon="-0.03968">
        <ele>121.1</ele>
        <time>2020-06-17T12:48:08Z</time>
      </trkpt>
      <trkpt lat="49.30785" lon="-0.0396">
        <ele>121.1</ele>
        <time>2020-06-17T12:48:09Z</time>
      </trkpt>
      <trkpt lat="49.30787" lon="-0.03952">
        <ele>121.2</ele>
        <time>2020-06-17T12:48:10Z</time>
      </trkpt>
      <trkpt lat="49.30789" lon="-0.03943">
        <ele>121.3</ele>
        <time>2020-06-17T12:48:11Z</time>
      </trkpt>
      <trkpt lat="49.30791" lon="-0.03934">
        <ele>121.3</ele>
        <time>2020-06-17T12:48:12Z</time>
      </trkpt>
      <trkpt lat="49.30792" lon="-0.03924">
        <ele>121.4</ele>
        <time>2020-06-17T12:48:13Z</time>
      </trkpt>
      <trkpt lat="49.30793" lon="-0.03915">
        <ele>121.5</ele>
        <time>2020-06-17T12:48:14Z</time>
      </trkpt>
      <trkpt lat="49.30794" lon="-0.03907">
        <ele>121.5</ele>
        <time>2020-06-17T12:48:15Z</time>
      </trkpt>
      <trkpt lat="49.30796" lon="-0.03899">
        <ele>121.6</ele>
        <time>2020-06-17T12:48:16Z</time>
      </trkpt>
      <trkpt lat="49.30796" lon="-0.03892">
        <ele>121.6</ele>
        <time>2020-06-17T12:48:17Z</time>
      </trkpt>
      <trkpt lat="49.30796" lon="-0.03883">
        <ele>121.7</ele>
        <time>2020-06-17T12:48:18Z</time>
      </trkpt>
      <trkpt lat="49.30795" lon="-0.03873">
        <ele>121.7</ele>
        <time>2020-06-17T12:48:19Z</time>
      </trkpt>
      <trkpt lat="49.30795" lon="-0.03865">
        <ele>121.7</ele>
        <time>2020-06-17T12:48:20Z</time>
      </trkpt>
      <trkpt lat="49.30795" lon="-0.03857">
        <ele>121.7</ele>
        <time>2020-06-17T12:48:21Z</time>
      </trkpt>
      <trkpt lat="49.30794" lon="-0.03847">
        <ele>121.7</ele>
        <time>2020-06-17T12:48:22Z</time>
      </trkpt>
      <trkpt lat="49.30793" lon="-0.03838">
        <ele>121.8</ele>
        <time>2020-06-17T12:48:23Z</time>
      </trkpt>
      <trkpt lat="49.30792" lon="-0.03829">
        <ele>121.9</ele>
        <time>2020-06-17T12:48:24Z</time>
      </trkpt>
      <trkpt lat="49.3079" lon="-0.0382">
        <ele>121.9</ele>
        <time>2020-06-17T12:48:25Z</time>
      </trkpt>
      <trkpt lat="49.30789" lon="-0.03811">
        <ele>122</ele>
        <time>2020-06-17T12:48:26Z</time>
      </trkpt>
      <trkpt lat="49.30787" lon="-0.03803">
        <ele>122.1</ele>
        <time>2020-06-17T12:48:27Z</time>
      </trkpt>
      <trkpt lat="49.30786" lon="-0.03794">
        <ele>122.1</ele>
        <time>2020-06-17T12:48:28Z</time>
      </trkpt>
      <trkpt lat="49.30784" lon="-0.03785">
        <ele>122.2</ele>
        <time>2020-06-17T12:48:29Z</time>
      </trkpt>
      <trkpt lat="49.30782" lon="-0.03776">
        <ele>122.3</ele>
        <time>2020-06-17T12:48:30Z</time>
      </trkpt>
      <trkpt lat="49.3078" lon="-0.03766">
        <ele>122.3</ele>
        <time>2020-06-17T12:48:31Z</time>
      </trkpt>
      <trkpt lat="49.30779" lon="-0.03756">
        <ele>122.4</ele>
        <time>2020-06-17T12:48:32Z</time>
      </trkpt>
      <trkpt lat="49.30775" lon="-0.03747">
        <ele>122.5</ele>
        <time>2020-06-17T12:48:33Z</time>
      </trkpt>
      <trkpt lat="49.30772" lon="-0.03737">
        <ele>122.7</ele>
        <time>2020-06-17T12:48:34Z</time>
      </trkpt>
      <trkpt lat="49.3077" lon="-0.03729">
        <ele>122.8</ele>
        <time>2020-06-17T12:48:35Z</time>
      </trkpt>
      <trkpt lat="49.30768" lon="-0.03721">
        <ele>122.9</ele>
        <time>2020-06-17T12:48:36Z</time>
      </trkpt>
      <trkpt lat="49.30766" lon="-0.03713">
        <ele>123</ele>
        <time>2020-06-17T12:48:37Z</time>
      </trkpt>
      <trkpt lat="49.30764" lon="-0.03707">
        <ele>123.1</ele>
        <time>2020-06-17T12:48:38Z</time>
      </trkpt>
      <trkpt lat="49.30762" lon="-0.03702">
        <ele>123.1</ele>
        <time>2020-06-17T12:48:39Z</time>
      </trkpt>
      <trkpt lat="49.30761" lon="-0.03697">
        <ele>123.1</ele>
        <time>2020-06-17T12:48:40Z</time>
      </trkpt>
      <trkpt lat="49.30758" lon="-0.03689">
        <ele>123.2</ele>
        <time>2020-06-17T12:48:41Z</time>
      </trkpt>
      <trkpt lat="49.30756" lon="-0.03684">
        <ele>123.2</ele>
        <time>2020-06-17T12:48:42Z</time>
      </trkpt>
      <trkpt lat="49.30753" lon="-0.03676">
        <ele>123.3</ele>
        <time>2020-06-17T12:48:43Z</time>
      </trkpt>
      <trkpt lat="49.30751" lon="-0.03669">
        <ele>123.3</ele>
        <time>2020-06-17T12:48:44Z</time>
      </trkpt>
      <trkpt lat="49.30749" lon="-0.03661">
        <ele>123.4</ele>
        <time>2020-06-17T12:48:45Z</time>
      </trkpt>
      <trkpt lat="49.30747" lon="-0.03652">
        <ele>123.4</ele>
        <time>2020-06-17T12:48:46Z</time>
      </trkpt>
      <trkpt lat="49.30745" lon="-0.03645">
        <ele>123.5</ele>
        <time>2020-06-17T12:48:47Z</time>
      </trkpt>
      <trkpt lat="49.30744" lon="-0.03638">
        <ele>123.5</ele>
        <time>2020-06-17T12:48:48Z</time>
      </trkpt>
      <trkpt lat="49.30743" lon="-0.03632">
        <ele>123.6</ele>
        <time>2020-06-17T12:48:49Z</time>
      </trkpt>
      <trkpt lat="49.30743" lon="-0.03624">
        <ele>123.6</ele>
        <time>2020-06-17T12:48:50Z</time>
      </trkpt>
      <trkpt lat="49.30743" lon="-0.03616">
        <ele>123.7</ele>
        <time>2020-06-17T12:48:51Z</time>
      </trkpt>
      <trkpt lat="49.30743" lon="-0.03608">
        <ele>123.7</ele>
        <time>2020-06-17T12:48:52Z</time>
      </trkpt>
      <trkpt lat="49.30743" lon="-0.036">
        <ele>123.8</ele>
        <time>2020-06-17T12:48:53Z</time>
      </trkpt>
      <trkpt lat="49.30743" lon="-0.03592">
        <ele>123.9</ele>
        <time>2020-06-17T12:48:54Z</time>
      </trkpt>
      <trkpt lat="49.30742" lon="-0.03585">
        <ele>124</ele>
        <time>2020-06-17T12:48:55Z</time>
      </trkpt>
      <trkpt lat="49.30742" lon="-0.03577">
        <ele>124.1</ele>
        <time>2020-06-17T12:48:56Z</time>
      </trkpt>
      <trkpt lat="49.30741" lon="-0.03569">
        <ele>124.1</ele>
        <time>2020-06-17T12:48:57Z</time>
      </trkpt>
      <trkpt lat="49.30741" lon="-0.0356">
        <ele>124.2</ele>
        <time>2020-06-17T12:48:58Z</time>
      </trkpt>
      <trkpt lat="49.3074" lon="-0.0355">
        <ele>124.3</ele>
        <time>2020-06-17T12:48:59Z</time>
      </trkpt>
      <trkpt lat="49.30739" lon="-0.03541">
        <ele>124.3</ele>
        <time>2020-06-17T12:49:00Z</time>
      </trkpt>
      <trkpt lat="49.30738" lon="-0.03532">
        <ele>124.4</ele>
        <time>2020-06-17T12:49:01Z</time>
      </trkpt>
      <trkpt lat="49.30738" lon="-0.03525">
        <ele>124.5</ele>
        <time>2020-06-17T12:49:02Z</time>
      </trkpt>
      <trkpt lat="49.30738" lon="-0.03518">
        <ele>124.6</ele>
        <time>2020-06-17T12:49:03Z</time>
      </trkpt>
      <trkpt lat="49.30737" lon="-0.0351">
        <ele>124.6</ele>
        <time>2020-06-17T12:49:04Z</time>
      </trkpt>
      <trkpt lat="49.30737" lon="-0.03503">
        <ele>124.7</ele>
        <time>2020-06-17T12:49:05Z</time>
      </trkpt>
      <trkpt lat="49.30737" lon="-0.03495">
        <ele>124.8</ele>
        <time>2020-06-17T12:49:06Z</time>
      </trkpt>
      <trkpt lat="49.30737" lon="-0.03489">
        <ele>124.8</ele>
        <time>2020-06-17T12:49:07Z</time>
      </trkpt>
      <trkpt lat="49.30737" lon="-0.03482">
        <ele>124.9</ele>
        <time>2020-06-17T12:49:08Z</time>
      </trkpt>
      <trkpt lat="49.30737" lon="-0.03476">
        <ele>124.9</ele>
        <time>2020-06-17T12:49:09Z</time>
      </trkpt>
      <trkpt lat="49.30737" lon="-0.03469">
        <ele>125</ele>
        <time>2020-06-17T12:49:10Z</time>
      </trkpt>
      <trkpt lat="49.30737" lon="-0.03462">
        <ele>125</ele>
        <time>2020-06-17T12:49:11Z</time>
      </trkpt>
      <trkpt lat="49.30737" lon="-0.03456">
        <ele>125.1</ele>
        <time>2020-06-17T12:49:12Z</time>
      </trkpt>
      <trkpt lat="49.30737" lon="-0.03449">
        <ele>125.2</ele>
        <time>2020-06-17T12:49:13Z</time>
      </trkpt>
      <trkpt lat="49.30737" lon="-0.03444">
        <ele>125.2</ele>
        <time>2020-06-17T12:49:14Z</time>
      </trkpt>
      <trkpt lat="49.30737" lon="-0.03439">
        <ele>125.3</ele>
        <time>2020-06-17T12:49:15Z</time>
      </trkpt>
      <trkpt lat="49.30737" lon="-0.03434">
        <ele>125.4</ele>
        <time>2020-06-17T12:49:16Z</time>
      </trkpt>
      <trkpt lat="49.30737" lon="-0.03429">
        <ele>125.4</ele>
        <time>2020-06-17T12:49:17Z</time>
      </trkpt>
      <trkpt lat="49.30737" lon="-0.03422">
        <ele>125.5</ele>
        <time>2020-06-17T12:49:18Z</time>
      </trkpt>
      <trkpt lat="49.30737" lon="-0.03416">
        <ele>125.5</ele>
        <time>2020-06-17T12:49:19Z</time>
      </trkpt>
      <trkpt lat="49.30737" lon="-0.03408">
        <ele>125.6</ele>
        <time>2020-06-17T12:49:20Z</time>
      </trkpt>
      <trkpt lat="49.30736" lon="-0.03402">
        <ele>125.6</ele>
        <time>2020-06-17T12:49:21Z</time>
      </trkpt>
      <trkpt lat="49.30735" lon="-0.03394">
        <ele>125.6</ele>
        <time>2020-06-17T12:49:22Z</time>
      </trkpt>
      <trkpt lat="49.30735" lon="-0.03385">
        <ele>125.7</ele>
        <time>2020-06-17T12:49:23Z</time>
      </trkpt>
      <trkpt lat="49.30735" lon="-0.03378">
        <ele>125.8</ele>
        <time>2020-06-17T12:49:24Z</time>
      </trkpt>
      <trkpt lat="49.30735" lon="-0.0337">
        <ele>125.9</ele>
        <time>2020-06-17T12:49:25Z</time>
      </trkpt>
      <trkpt lat="49.30735" lon="-0.03362">
        <ele>126</ele>
        <time>2020-06-17T12:49:26Z</time>
      </trkpt>
      <trkpt lat="49.30735" lon="-0.03353">
        <ele>126.1</ele>
        <time>2020-06-17T12:49:27Z</time>
      </trkpt>
      <trkpt lat="49.30735" lon="-0.03345">
        <ele>126.1</ele>
        <time>2020-06-17T12:49:28Z</time>
      </trkpt>
      <trkpt lat="49.30736" lon="-0.03338">
        <ele>126.2</ele>
        <time>2020-06-17T12:49:29Z</time>
      </trkpt>
      <trkpt lat="49.30737" lon="-0.0333">
        <ele>126.3</ele>
        <time>2020-06-17T12:49:30Z</time>
      </trkpt>
      <trkpt lat="49.30737" lon="-0.03323">
        <ele>126.3</ele>
        <time>2020-06-17T12:49:31Z</time>
      </trkpt>
      <trkpt lat="49.30737" lon="-0.03316">
        <ele>126.4</ele>
        <time>2020-06-17T12:49:32Z</time>
      </trkpt>
      <trkpt lat="49.30738" lon="-0.03309">
        <ele>126.4</ele>
        <time>2020-06-17T12:49:33Z</time>
      </trkpt>
      <trkpt lat="49.30738" lon="-0.03301">
        <ele>126.5</ele>
        <time>2020-06-17T12:49:34Z</time>
      </trkpt>
      <trkpt lat="49.30738" lon="-0.03293">
        <ele>126.5</ele>
        <time>2020-06-17T12:49:35Z</time>
      </trkpt>
      <trkpt lat="49.30739" lon="-0.03286">
        <ele>126.5</ele>
        <time>2020-06-17T12:49:36Z</time>
      </trkpt>
      <trkpt lat="49.30739" lon="-0.03277">
        <ele>126.5</ele>
        <time>2020-06-17T12:49:37Z</time>
      </trkpt>
      <trkpt lat="49.30739" lon="-0.0327">
        <ele>126.5</ele>
        <time>2020-06-17T12:49:38Z</time>
      </trkpt>
      <trkpt lat="49.30739" lon="-0.03262">
        <ele>126.6</ele>
        <time>2020-06-17T12:49:39Z</time>
      </trkpt>
      <trkpt lat="49.30738" lon="-0.03255">
        <ele>126.6</ele>
        <time>2020-06-17T12:49:40Z</time>
      </trkpt>
      <trkpt lat="49.30738" lon="-0.03248">
        <ele>126.6</ele>
        <time>2020-06-17T12:49:41Z</time>
      </trkpt>
      <trkpt lat="49.30737" lon="-0.03241">
        <ele>126.7</ele>
        <time>2020-06-17T12:49:42Z</time>
      </trkpt>
      <trkpt lat="49.30737" lon="-0.03234">
        <ele>126.7</ele>
        <time>2020-06-17T12:49:43Z</time>
      </trkpt>
      <trkpt lat="49.30737" lon="-0.03228">
        <ele>126.7</ele>
        <time>2020-06-17T12:49:44Z</time>
      </trkpt>
      <trkpt lat="49.30737" lon="-0.03222">
        <ele>126.7</ele>
        <time>2020-06-17T12:49:45Z</time>
      </trkpt>
      <trkpt lat="49.30737" lon="-0.03215">
        <ele>126.8</ele>
        <time>2020-06-17T12:49:46Z</time>
      </trkpt>
      <trkpt lat="49.30736" lon="-0.03208">
        <ele>126.8</ele>
        <time>2020-06-17T12:49:47Z</time>
      </trkpt>
      <trkpt lat="49.30735" lon="-0.03202">
        <ele>126.8</ele>
        <time>2020-06-17T12:49:48Z</time>
      </trkpt>
      <trkpt lat="49.30734" lon="-0.03194">
        <ele>126.9</ele>
        <time>2020-06-17T12:49:49Z</time>
      </trkpt>
      <trkpt lat="49.30734" lon="-0.03187">
        <ele>126.9</ele>
        <time>2020-06-17T12:49:50Z</time>
      </trkpt>
      <trkpt lat="49.30734" lon="-0.03181">
        <ele>126.9</ele>
        <time>2020-06-17T12:49:51Z</time>
      </trkpt>
      <trkpt lat="49.30734" lon="-0.03175">
        <ele>126.9</ele>
        <time>2020-06-17T12:49:52Z</time>
      </trkpt>
      <trkpt lat="49.30732" lon="-0.03168">
        <ele>126.9</ele>
        <time>2020-06-17T12:49:53Z</time>
      </trkpt>
      <trkpt lat="49.30729" lon="-0.03161">
        <ele>127</ele>
        <time>2020-06-17T12:49:54Z</time>
      </trkpt>
      <trkpt lat="49.30726" lon="-0.03153">
        <ele>127</ele>
        <time>2020-06-17T12:49:55Z</time>
      </trkpt>
      <trkpt lat="49.30724" lon="-0.03147">
        <ele>127</ele>
        <time>2020-06-17T12:49:56Z</time>
      </trkpt>
      <trkpt lat="49.30719" lon="-0.03136">
        <ele>127</ele>
        <time>2020-06-17T12:49:57Z</time>
      </trkpt>
      <trkpt lat="49.30715" lon="-0.03125">
        <ele>127.1</ele>
        <time>2020-06-17T12:49:58Z</time>
      </trkpt>
      <trkpt lat="49.3071" lon="-0.03113">
        <ele>127.1</ele>
        <time>2020-06-17T12:49:59Z</time>
      </trkpt>
      <trkpt lat="49.30708" lon="-0.03105">
        <ele>127.1</ele>
        <time>2020-06-17T12:50:00Z</time>
      </trkpt>
      <trkpt lat="49.30704" lon="-0.03096">
        <ele>127.1</ele>
        <time>2020-06-17T12:50:01Z</time>
      </trkpt>
      <trkpt lat="49.307" lon="-0.03087">
        <ele>127.1</ele>
        <time>2020-06-17T12:50:02Z</time>
      </trkpt>
      <trkpt lat="49.30696" lon="-0.03081">
        <ele>127.1</ele>
        <time>2020-06-17T12:50:03Z</time>
      </trkpt>
      <trkpt lat="49.30692" lon="-0.03076">
        <ele>127.1</ele>
        <time>2020-06-17T12:50:04Z</time>
      </trkpt>
      <trkpt lat="49.30686" lon="-0.0307">
        <ele>127.2</ele>
        <time>2020-06-17T12:50:05Z</time>
      </trkpt>
      <trkpt lat="49.30679" lon="-0.03066">
        <ele>127.2</ele>
        <time>2020-06-17T12:50:06Z</time>
      </trkpt>
      <trkpt lat="49.30673" lon="-0.03063">
        <ele>127.3</ele>
        <time>2020-06-17T12:50:07Z</time>
      </trkpt>
      <trkpt lat="49.30667" lon="-0.0306">
        <ele>127.4</ele>
        <time>2020-06-17T12:50:08Z</time>
      </trkpt>
      <trkpt lat="49.3066" lon="-0.03057">
        <ele>127.5</ele>
        <time>2020-06-17T12:50:09Z</time>
      </trkpt>
      <trkpt lat="49.30654" lon="-0.03056">
        <ele>127.6</ele>
        <time>2020-06-17T12:50:10Z</time>
      </trkpt>
      <trkpt lat="49.30648" lon="-0.03053">
        <ele>127.8</ele>
        <time>2020-06-17T12:50:11Z</time>
      </trkpt>
      <trkpt lat="49.30642" lon="-0.03051">
        <ele>127.9</ele>
        <time>2020-06-17T12:50:12Z</time>
      </trkpt>
      <trkpt lat="49.30636" lon="-0.03049">
        <ele>128.1</ele>
        <time>2020-06-17T12:50:13Z</time>
      </trkpt>
      <trkpt lat="49.30632" lon="-0.03046">
        <ele>128.2</ele>
        <time>2020-06-17T12:50:14Z</time>
      </trkpt>
      <trkpt lat="49.30627" lon="-0.03044">
        <ele>128.3</ele>
        <time>2020-06-17T12:50:15Z</time>
      </trkpt>
      <trkpt lat="49.30623" lon="-0.03043">
        <ele>128.4</ele>
        <time>2020-06-17T12:50:16Z</time>
      </trkpt>
      <trkpt lat="49.3062" lon="-0.03042">
        <ele>128.5</ele>
        <time>2020-06-17T12:50:17Z</time>
      </trkpt>
      <trkpt lat="49.30619" lon="-0.03041">
        <ele>128.5</ele>
        <time>2020-06-17T12:50:18Z</time>
      </trkpt>
      <trkpt lat="49.30618" lon="-0.03041">
        <ele>128.5</ele>
        <time>2020-06-17T12:50:19Z</time>
      </trkpt>
      <trkpt lat="49.30617" lon="-0.03041">
        <ele>128.5</ele>
        <time>2020-06-17T12:50:20Z</time>
      </trkpt>
      <trkpt lat="49.30616" lon="-0.0304">
        <ele>128.5</ele>
        <time>2020-06-17T12:50:21Z</time>
      </trkpt>
      <trkpt lat="49.30615" lon="-0.0304">
        <ele>128.6</ele>
        <time>2020-06-17T12:50:22Z</time>
      </trkpt>
      <trkpt lat="49.30613" lon="-0.03037">
        <ele>128.6</ele>
        <time>2020-06-17T12:50:23Z</time>
      </trkpt>
      <trkpt lat="49.30612" lon="-0.03035">
        <ele>128.6</ele>
        <time>2020-06-17T12:50:24Z</time>
      </trkpt>
      <trkpt lat="49.3061" lon="-0.03032">
        <ele>128.7</ele>
        <time>2020-06-17T12:50:25Z</time>
      </trkpt>
      <trkpt lat="49.30609" lon="-0.0303">
        <ele>128.7</ele>
        <time>2020-06-17T12:50:26Z</time>
      </trkpt>
      <trkpt lat="49.30608" lon="-0.03028">
        <ele>128.7</ele>
        <time>2020-06-17T12:50:27Z</time>
      </trkpt>
      <trkpt lat="49.30609" lon="-0.03025">
        <ele>128.6</ele>
        <time>2020-06-17T12:50:28Z</time>
      </trkpt>
      <trkpt lat="49.30611" lon="-0.03022">
        <ele>128.6</ele>
        <time>2020-06-17T12:50:29Z</time>
      </trkpt>
      <trkpt lat="49.30613" lon="-0.03018">
        <ele>128.6</ele>
        <time>2020-06-17T12:50:30Z</time>
      </trkpt>
      <trkpt lat="49.30615" lon="-0.03012">
        <ele>128.5</ele>
        <time>2020-06-17T12:50:31Z</time>
      </trkpt>
      <trkpt lat="49.30617" lon="-0.03006">
        <ele>128.6</ele>
        <time>2020-06-17T12:50:32Z</time>
      </trkpt>
      <trkpt lat="49.30619" lon="-0.02999">
        <ele>128.6</ele>
        <time>2020-06-17T12:50:33Z</time>
      </trkpt>
      <trkpt lat="49.30621" lon="-0.02993">
        <ele>128.6</ele>
        <time>2020-06-17T12:50:34Z</time>
      </trkpt>
      <trkpt lat="49.30623" lon="-0.02987">
        <ele>128.6</ele>
        <time>2020-06-17T12:50:35Z</time>
      </trkpt>
      <trkpt lat="49.30625" lon="-0.02981">
        <ele>128.6</ele>
        <time>2020-06-17T12:50:36Z</time>
      </trkpt>
      <trkpt lat="49.30627" lon="-0.02974">
        <ele>128.6</ele>
        <time>2020-06-17T12:50:37Z</time>
      </trkpt>
      <trkpt lat="49.30629" lon="-0.02969">
        <ele>128.7</ele>
        <time>2020-06-17T12:50:38Z</time>
      </trkpt>
      <trkpt lat="49.30631" lon="-0.02963">
        <ele>128.7</ele>
        <time>2020-06-17T12:50:39Z</time>
      </trkpt>
      <trkpt lat="49.30633" lon="-0.02956">
        <ele>128.7</ele>
        <time>2020-06-17T12:50:40Z</time>
      </trkpt>
      <trkpt lat="49.30635" lon="-0.02951">
        <ele>128.8</ele>
        <time>2020-06-17T12:50:41Z</time>
      </trkpt>
      <trkpt lat="49.30637" lon="-0.02945">
        <ele>128.8</ele>
        <time>2020-06-17T12:50:42Z</time>
      </trkpt>
      <trkpt lat="49.30638" lon="-0.02938">
        <ele>128.8</ele>
        <time>2020-06-17T12:50:43Z</time>
      </trkpt>
      <trkpt lat="49.3064" lon="-0.02933">
        <ele>128.9</ele>
        <time>2020-06-17T12:50:44Z</time>
      </trkpt>
      <trkpt lat="49.30642" lon="-0.02927">
        <ele>128.9</ele>
        <time>2020-06-17T12:50:45Z</time>
      </trkpt>
      <trkpt lat="49.30644" lon="-0.02921">
        <ele>129</ele>
        <time>2020-06-17T12:50:46Z</time>
      </trkpt>
      <trkpt lat="49.30645" lon="-0.02915">
        <ele>129.1</ele>
        <time>2020-06-17T12:50:47Z</time>
      </trkpt>
      <trkpt lat="49.30647" lon="-0.02908">
        <ele>129.1</ele>
        <time>2020-06-17T12:50:48Z</time>
      </trkpt>
      <trkpt lat="49.30649" lon="-0.02901">
        <ele>129.2</ele>
        <time>2020-06-17T12:50:49Z</time>
      </trkpt>
      <trkpt lat="49.30651" lon="-0.02894">
        <ele>129.3</ele>
        <time>2020-06-17T12:50:50Z</time>
      </trkpt>
      <trkpt lat="49.30653" lon="-0.02888">
        <ele>129.3</ele>
        <time>2020-06-17T12:50:51Z</time>
      </trkpt>
      <trkpt lat="49.30655" lon="-0.0288">
        <ele>129.4</ele>
        <time>2020-06-17T12:50:52Z</time>
      </trkpt>
      <trkpt lat="49.30657" lon="-0.02873">
        <ele>129.4</ele>
        <time>2020-06-17T12:50:53Z</time>
      </trkpt>
      <trkpt lat="49.30659" lon="-0.02866">
        <ele>129.5</ele>
        <time>2020-06-17T12:50:54Z</time>
      </trkpt>
      <trkpt lat="49.30662" lon="-0.02858">
        <ele>129.5</ele>
        <time>2020-06-17T12:50:55Z</time>
      </trkpt>
      <trkpt lat="49.30664" lon="-0.02851">
        <ele>129.5</ele>
        <time>2020-06-17T12:50:56Z</time>
      </trkpt>
      <trkpt lat="49.30665" lon="-0.02843">
        <ele>129.6</ele>
        <time>2020-06-17T12:50:57Z</time>
      </trkpt>
      <trkpt lat="49.30666" lon="-0.02835">
        <ele>129.7</ele>
        <time>2020-06-17T12:50:58Z</time>
      </trkpt>
      <trkpt lat="49.30668" lon="-0.02826">
        <ele>129.7</ele>
        <time>2020-06-17T12:50:59Z</time>
      </trkpt>
      <trkpt lat="49.30669" lon="-0.02819">
        <ele>129.8</ele>
        <time>2020-06-17T12:51:00Z</time>
      </trkpt>
      <trkpt lat="49.3067" lon="-0.02812">
        <ele>129.8</ele>
        <time>2020-06-17T12:51:01Z</time>
      </trkpt>
      <trkpt lat="49.30672" lon="-0.02805">
        <ele>129.8</ele>
        <time>2020-06-17T12:51:02Z</time>
      </trkpt>
      <trkpt lat="49.30674" lon="-0.02798">
        <ele>129.9</ele>
        <time>2020-06-17T12:51:03Z</time>
      </trkpt>
      <trkpt lat="49.30676" lon="-0.02791">
        <ele>129.9</ele>
        <time>2020-06-17T12:51:04Z</time>
      </trkpt>
      <trkpt lat="49.30678" lon="-0.02783">
        <ele>130.1</ele>
        <time>2020-06-17T12:51:05Z</time>
      </trkpt>
      <trkpt lat="49.3068" lon="-0.02775">
        <ele>130.1</ele>
        <time>2020-06-17T12:51:06Z</time>
      </trkpt>
      <trkpt lat="49.30681" lon="-0.02766">
        <ele>130.2</ele>
        <time>2020-06-17T12:51:07Z</time>
      </trkpt>
      <trkpt lat="49.30682" lon="-0.02757">
        <ele>130.3</ele>
        <time>2020-06-17T12:51:08Z</time>
      </trkpt>
      <trkpt lat="49.30684" lon="-0.02749">
        <ele>130.4</ele>
        <time>2020-06-17T12:51:09Z</time>
      </trkpt>
      <trkpt lat="49.30686" lon="-0.02741">
        <ele>130.5</ele>
        <time>2020-06-17T12:51:10Z</time>
      </trkpt>
      <trkpt lat="49.30688" lon="-0.02733">
        <ele>130.6</ele>
        <time>2020-06-17T12:51:11Z</time>
      </trkpt>
      <trkpt lat="49.30689" lon="-0.02726">
        <ele>130.7</ele>
        <time>2020-06-17T12:51:12Z</time>
      </trkpt>
      <trkpt lat="49.30691" lon="-0.02717">
        <ele>130.6</ele>
        <time>2020-06-17T12:51:13Z</time>
      </trkpt>
      <trkpt lat="49.30693" lon="-0.02709">
        <ele>130.6</ele>
        <time>2020-06-17T12:51:14Z</time>
      </trkpt>
      <trkpt lat="49.30694" lon="-0.02701">
        <ele>130.6</ele>
        <time>2020-06-17T12:51:15Z</time>
      </trkpt>
      <trkpt lat="49.30695" lon="-0.02694">
        <ele>130.5</ele>
        <time>2020-06-17T12:51:16Z</time>
      </trkpt>
      <trkpt lat="49.30694" lon="-0.02687">
        <ele>130.5</ele>
        <time>2020-06-17T12:51:17Z</time>
      </trkpt>
      <trkpt lat="49.30694" lon="-0.0268">
        <ele>130.5</ele>
        <time>2020-06-17T12:51:18Z</time>
      </trkpt>
      <trkpt lat="49.30693" lon="-0.02672">
        <ele>130.4</ele>
        <time>2020-06-17T12:51:19Z</time>
      </trkpt>
      <trkpt lat="49.30692" lon="-0.02665">
        <ele>130.4</ele>
        <time>2020-06-17T12:51:20Z</time>
      </trkpt>
      <trkpt lat="49.30693" lon="-0.02656">
        <ele>131</ele>
        <time>2020-06-17T12:51:21Z</time>
      </trkpt>
      <trkpt lat="49.30694" lon="-0.02646">
        <ele>130.7</ele>
        <time>2020-06-17T12:51:22Z</time>
      </trkpt>
      <trkpt lat="49.30695" lon="-0.0264">
        <ele>130.4</ele>
        <time>2020-06-17T12:51:23Z</time>
      </trkpt>
      <trkpt lat="49.30697" lon="-0.02635">
        <ele>130.6</ele>
        <time>2020-06-17T12:51:24Z</time>
      </trkpt>
      <trkpt lat="49.30701" lon="-0.02629">
        <ele>130.5</ele>
        <time>2020-06-17T12:51:25Z</time>
      </trkpt>
      <trkpt lat="49.30704" lon="-0.02624">
        <ele>130.3</ele>
        <time>2020-06-17T12:51:26Z</time>
      </trkpt>
      <trkpt lat="49.30707" lon="-0.02618">
        <ele>130.1</ele>
        <time>2020-06-17T12:51:27Z</time>
      </trkpt>
      <trkpt lat="49.3071" lon="-0.02612">
        <ele>130</ele>
        <time>2020-06-17T12:51:28Z</time>
      </trkpt>
      <trkpt lat="49.30713" lon="-0.02604">
        <ele>129.8</ele>
        <time>2020-06-17T12:51:29Z</time>
      </trkpt>
      <trkpt lat="49.30716" lon="-0.02597">
        <ele>129.8</ele>
        <time>2020-06-17T12:51:30Z</time>
      </trkpt>
      <trkpt lat="49.30719" lon="-0.0259">
        <ele>129.8</ele>
        <time>2020-06-17T12:51:31Z</time>
      </trkpt>
      <trkpt lat="49.30722" lon="-0.02582">
        <ele>129.8</ele>
        <time>2020-06-17T12:51:32Z</time>
      </trkpt>
      <trkpt lat="49.30725" lon="-0.02574">
        <ele>129.8</ele>
        <time>2020-06-17T12:51:33Z</time>
      </trkpt>
      <trkpt lat="49.30727" lon="-0.02566">
        <ele>129.9</ele>
        <time>2020-06-17T12:51:34Z</time>
      </trkpt>
      <trkpt lat="49.30729" lon="-0.02558">
        <ele>129.9</ele>
        <time>2020-06-17T12:51:35Z</time>
      </trkpt>
      <trkpt lat="49.30731" lon="-0.02549">
        <ele>129.8</ele>
        <time>2020-06-17T12:51:36Z</time>
      </trkpt>
      <trkpt lat="49.30733" lon="-0.02541">
        <ele>129.8</ele>
        <time>2020-06-17T12:51:37Z</time>
      </trkpt>
      <trkpt lat="49.30735" lon="-0.02531">
        <ele>129.8</ele>
        <time>2020-06-17T12:51:38Z</time>
      </trkpt>
      <trkpt lat="49.30736" lon="-0.02523">
        <ele>129.7</ele>
        <time>2020-06-17T12:51:39Z</time>
      </trkpt>
      <trkpt lat="49.30738" lon="-0.02515">
        <ele>129.7</ele>
        <time>2020-06-17T12:51:40Z</time>
      </trkpt>
      <trkpt lat="49.3074" lon="-0.02506">
        <ele>129.6</ele>
        <time>2020-06-17T12:51:41Z</time>
      </trkpt>
      <trkpt lat="49.30742" lon="-0.02497">
        <ele>129.6</ele>
        <time>2020-06-17T12:51:42Z</time>
      </trkpt>
      <trkpt lat="49.30744" lon="-0.02488">
        <ele>129.6</ele>
        <time>2020-06-17T12:51:43Z</time>
      </trkpt>
      <trkpt lat="49.30746" lon="-0.02479">
        <ele>129.6</ele>
        <time>2020-06-17T12:51:44Z</time>
      </trkpt>
      <trkpt lat="49.30748" lon="-0.0247">
        <ele>129.5</ele>
        <time>2020-06-17T12:51:45Z</time>
      </trkpt>
      <trkpt lat="49.3075" lon="-0.0246">
        <ele>129.5</ele>
        <time>2020-06-17T12:51:46Z</time>
      </trkpt>
      <trkpt lat="49.30753" lon="-0.02452">
        <ele>129.5</ele>
        <time>2020-06-17T12:51:47Z</time>
      </trkpt>
      <trkpt lat="49.30756" lon="-0.02443">
        <ele>129.4</ele>
        <time>2020-06-17T12:51:48Z</time>
      </trkpt>
      <trkpt lat="49.30759" lon="-0.02435">
        <ele>129.4</ele>
        <time>2020-06-17T12:51:49Z</time>
      </trkpt>
      <trkpt lat="49.3076" lon="-0.02426">
        <ele>129.4</ele>
        <time>2020-06-17T12:51:50Z</time>
      </trkpt>
      <trkpt lat="49.30763" lon="-0.02417">
        <ele>129.3</ele>
        <time>2020-06-17T12:51:51Z</time>
      </trkpt>
      <trkpt lat="49.30766" lon="-0.02408">
        <ele>129.3</ele>
        <time>2020-06-17T12:51:52Z</time>
      </trkpt>
      <trkpt lat="49.30769" lon="-0.02399">
        <ele>129.2</ele>
        <time>2020-06-17T12:51:53Z</time>
      </trkpt>
      <trkpt lat="49.30771" lon="-0.0239">
        <ele>129.1</ele>
        <time>2020-06-17T12:51:54Z</time>
      </trkpt>
      <trkpt lat="49.30774" lon="-0.0238">
        <ele>129.1</ele>
        <time>2020-06-17T12:51:55Z</time>
      </trkpt>
      <trkpt lat="49.30777" lon="-0.02371">
        <ele>129</ele>
        <time>2020-06-17T12:51:56Z</time>
      </trkpt>
      <trkpt lat="49.3078" lon="-0.02361">
        <ele>128.9</ele>
        <time>2020-06-17T12:51:57Z</time>
      </trkpt>
      <trkpt lat="49.30782" lon="-0.02351">
        <ele>128.8</ele>
        <time>2020-06-17T12:51:58Z</time>
      </trkpt>
      <trkpt lat="49.30785" lon="-0.02341">
        <ele>128.8</ele>
        <time>2020-06-17T12:51:59Z</time>
      </trkpt>
      <trkpt lat="49.30787" lon="-0.02329">
        <ele>128.7</ele>
        <time>2020-06-17T12:52:00Z</time>
      </trkpt>
      <trkpt lat="49.30789" lon="-0.02319">
        <ele>128.7</ele>
        <time>2020-06-17T12:52:01Z</time>
      </trkpt>
      <trkpt lat="49.30791" lon="-0.0231">
        <ele>128.6</ele>
        <time>2020-06-17T12:52:02Z</time>
      </trkpt>
      <trkpt lat="49.30792" lon="-0.02301">
        <ele>128.5</ele>
        <time>2020-06-17T12:52:03Z</time>
      </trkpt>
      <trkpt lat="49.30793" lon="-0.02291">
        <ele>128.4</ele>
        <time>2020-06-17T12:52:04Z</time>
      </trkpt>
      <trkpt lat="49.30795" lon="-0.0228">
        <ele>128.4</ele>
        <time>2020-06-17T12:52:05Z</time>
      </trkpt>
      <trkpt lat="49.30797" lon="-0.02271">
        <ele>128.3</ele>
        <time>2020-06-17T12:52:06Z</time>
      </trkpt>
      <trkpt lat="49.30799" lon="-0.02262">
        <ele>128.2</ele>
        <time>2020-06-17T12:52:07Z</time>
      </trkpt>
      <trkpt lat="49.308" lon="-0.02252">
        <ele>128.1</ele>
        <time>2020-06-17T12:52:08Z</time>
      </trkpt>
      <trkpt lat="49.30802" lon="-0.02243">
        <ele>128</ele>
        <time>2020-06-17T12:52:09Z</time>
      </trkpt>
      <trkpt lat="49.30803" lon="-0.02233">
        <ele>127.9</ele>
        <time>2020-06-17T12:52:10Z</time>
      </trkpt>
      <trkpt lat="49.30805" lon="-0.02223">
        <ele>127.8</ele>
        <time>2020-06-17T12:52:11Z</time>
      </trkpt>
      <trkpt lat="49.30808" lon="-0.02213">
        <ele>127.7</ele>
        <time>2020-06-17T12:52:12Z</time>
      </trkpt>
      <trkpt lat="49.3081" lon="-0.02204">
        <ele>127.6</ele>
        <time>2020-06-17T12:52:13Z</time>
      </trkpt>
      <trkpt lat="49.30812" lon="-0.02193">
        <ele>127.5</ele>
        <time>2020-06-17T12:52:14Z</time>
      </trkpt>
      <trkpt lat="49.30815" lon="-0.02184">
        <ele>127.4</ele>
        <time>2020-06-17T12:52:15Z</time>
      </trkpt>
      <trkpt lat="49.30817" lon="-0.02175">
        <ele>127.4</ele>
        <time>2020-06-17T12:52:16Z</time>
      </trkpt>
      <trkpt lat="49.3082" lon="-0.02165">
        <ele>127.2</ele>
        <time>2020-06-17T12:52:17Z</time>
      </trkpt>
      <trkpt lat="49.30822" lon="-0.02156">
        <ele>127.1</ele>
        <time>2020-06-17T12:52:18Z</time>
      </trkpt>
      <trkpt lat="49.30824" lon="-0.02146">
        <ele>127</ele>
        <time>2020-06-17T12:52:19Z</time>
      </trkpt>
      <trkpt lat="49.30826" lon="-0.02136">
        <ele>126.9</ele>
        <time>2020-06-17T12:52:20Z</time>
      </trkpt>
      <trkpt lat="49.30827" lon="-0.02126">
        <ele>126.8</ele>
        <time>2020-06-17T12:52:21Z</time>
      </trkpt>
      <trkpt lat="49.30829" lon="-0.02117">
        <ele>126.7</ele>
        <time>2020-06-17T12:52:22Z</time>
      </trkpt>
      <trkpt lat="49.30831" lon="-0.02107">
        <ele>126.6</ele>
        <time>2020-06-17T12:52:23Z</time>
      </trkpt>
      <trkpt lat="49.30833" lon="-0.02097">
        <ele>126.5</ele>
        <time>2020-06-17T12:52:24Z</time>
      </trkpt>
      <trkpt lat="49.30835" lon="-0.02087">
        <ele>126.5</ele>
        <time>2020-06-17T12:52:25Z</time>
      </trkpt>
      <trkpt lat="49.30837" lon="-0.02076">
        <ele>126.3</ele>
        <time>2020-06-17T12:52:26Z</time>
      </trkpt>
      <trkpt lat="49.30839" lon="-0.02066">
        <ele>126.2</ele>
        <time>2020-06-17T12:52:27Z</time>
      </trkpt>
      <trkpt lat="49.30841" lon="-0.02056">
        <ele>126</ele>
        <time>2020-06-17T12:52:28Z</time>
      </trkpt>
      <trkpt lat="49.30843" lon="-0.02045">
        <ele>125.8</ele>
        <time>2020-06-17T12:52:29Z</time>
      </trkpt>
      <trkpt lat="49.30846" lon="-0.02034">
        <ele>125.6</ele>
        <time>2020-06-17T12:52:30Z</time>
      </trkpt>
      <trkpt lat="49.30848" lon="-0.02024">
        <ele>125.5</ele>
        <time>2020-06-17T12:52:31Z</time>
      </trkpt>
      <trkpt lat="49.3085" lon="-0.02015">
        <ele>125.3</ele>
        <time>2020-06-17T12:52:32Z</time>
      </trkpt>
      <trkpt lat="49.30852" lon="-0.02004">
        <ele>125.2</ele>
        <time>2020-06-17T12:52:33Z</time>
      </trkpt>
      <trkpt lat="49.30854" lon="-0.01994">
        <ele>125.1</ele>
        <time>2020-06-17T12:52:34Z</time>
      </trkpt>
      <trkpt lat="49.30857" lon="-0.01983">
        <ele>125</ele>
        <time>2020-06-17T12:52:35Z</time>
      </trkpt>
      <trkpt lat="49.30859" lon="-0.01973">
        <ele>124.8</ele>
        <time>2020-06-17T12:52:36Z</time>
      </trkpt>
      <trkpt lat="49.30862" lon="-0.01962">
        <ele>124.6</ele>
        <time>2020-06-17T12:52:37Z</time>
      </trkpt>
      <trkpt lat="49.30864" lon="-0.01951">
        <ele>124.1</ele>
        <time>2020-06-17T12:52:38Z</time>
      </trkpt>
      <trkpt lat="49.30867" lon="-0.0194">
        <ele>123.7</ele>
        <time>2020-06-17T12:52:39Z</time>
      </trkpt>
      <trkpt lat="49.30869" lon="-0.01929">
        <ele>123.3</ele>
        <time>2020-06-17T12:52:40Z</time>
      </trkpt>
      <trkpt lat="49.30871" lon="-0.01917">
        <ele>123</ele>
        <time>2020-06-17T12:52:41Z</time>
      </trkpt>
      <trkpt lat="49.30873" lon="-0.01905">
        <ele>122.6</ele>
        <time>2020-06-17T12:52:42Z</time>
      </trkpt>
      <trkpt lat="49.30874" lon="-0.01893">
        <ele>122.2</ele>
        <time>2020-06-17T12:52:43Z</time>
      </trkpt>
      <trkpt lat="49.30876" lon="-0.01881">
        <ele>121.8</ele>
        <time>2020-06-17T12:52:44Z</time>
      </trkpt>
      <trkpt lat="49.30877" lon="-0.01868">
        <ele>121.4</ele>
        <time>2020-06-17T12:52:45Z</time>
      </trkpt>
      <trkpt lat="49.30879" lon="-0.01858">
        <ele>121.1</ele>
        <time>2020-06-17T12:52:46Z</time>
      </trkpt>
      <trkpt lat="49.3088" lon="-0.01846">
        <ele>120.7</ele>
        <time>2020-06-17T12:52:47Z</time>
      </trkpt>
      <trkpt lat="49.30881" lon="-0.01832">
        <ele>120.2</ele>
        <time>2020-06-17T12:52:48Z</time>
      </trkpt>
      <trkpt lat="49.30882" lon="-0.01817">
        <ele>119.6</ele>
        <time>2020-06-17T12:52:49Z</time>
      </trkpt>
      <trkpt lat="49.30883" lon="-0.01802">
        <ele>118.9</ele>
        <time>2020-06-17T12:52:50Z</time>
      </trkpt>
      <trkpt lat="49.30883" lon="-0.01786">
        <ele>118.2</ele>
        <time>2020-06-17T12:52:51Z</time>
      </trkpt>
      <trkpt lat="49.30883" lon="-0.01771">
        <ele>117.5</ele>
        <time>2020-06-17T12:52:52Z</time>
      </trkpt>
      <trkpt lat="49.30884" lon="-0.01756">
        <ele>116.7</ele>
        <time>2020-06-17T12:52:53Z</time>
      </trkpt>
      <trkpt lat="49.30885" lon="-0.01741">
        <ele>116</ele>
        <time>2020-06-17T12:52:54Z</time>
      </trkpt>
      <trkpt lat="49.30886" lon="-0.01724">
        <ele>115.2</ele>
        <time>2020-06-17T12:52:55Z</time>
      </trkpt>
      <trkpt lat="49.30887" lon="-0.01705">
        <ele>114.3</ele>
        <time>2020-06-17T12:52:56Z</time>
      </trkpt>
      <trkpt lat="49.30889" lon="-0.01687">
        <ele>113.3</ele>
        <time>2020-06-17T12:52:57Z</time>
      </trkpt>
      <trkpt lat="49.30891" lon="-0.01669">
        <ele>112.4</ele>
        <time>2020-06-17T12:52:58Z</time>
      </trkpt>
      <trkpt lat="49.30894" lon="-0.01655">
        <ele>111.5</ele>
        <time>2020-06-17T12:52:59Z</time>
      </trkpt>
      <trkpt lat="49.30897" lon="-0.01638">
        <ele>110.7</ele>
        <time>2020-06-17T12:53:00Z</time>
      </trkpt>
      <trkpt lat="49.30901" lon="-0.01624">
        <ele>109.9</ele>
        <time>2020-06-17T12:53:01Z</time>
      </trkpt>
      <trkpt lat="49.30905" lon="-0.01613">
        <ele>109.3</ele>
        <time>2020-06-17T12:53:02Z</time>
      </trkpt>
      <trkpt lat="49.30909" lon="-0.01598">
        <ele>108.4</ele>
        <time>2020-06-17T12:53:03Z</time>
      </trkpt>
      <trkpt lat="49.30914" lon="-0.01585">
        <ele>107.6</ele>
        <time>2020-06-17T12:53:04Z</time>
      </trkpt>
      <trkpt lat="49.30921" lon="-0.01571">
        <ele>106.6</ele>
        <time>2020-06-17T12:53:05Z</time>
      </trkpt>
      <trkpt lat="49.30929" lon="-0.01559">
        <ele>105.5</ele>
        <time>2020-06-17T12:53:06Z</time>
      </trkpt>
      <trkpt lat="49.30939" lon="-0.01549">
        <ele>104.4</ele>
        <time>2020-06-17T12:53:07Z</time>
      </trkpt>
      <trkpt lat="49.30948" lon="-0.01539">
        <ele>103.3</ele>
        <time>2020-06-17T12:53:08Z</time>
      </trkpt>
      <trkpt lat="49.30958" lon="-0.01531">
        <ele>102.2</ele>
        <time>2020-06-17T12:53:09Z</time>
      </trkpt>
      <trkpt lat="49.30967" lon="-0.01523">
        <ele>101.2</ele>
        <time>2020-06-17T12:53:10Z</time>
      </trkpt>
      <trkpt lat="49.30977" lon="-0.01516">
        <ele>100.3</ele>
        <time>2020-06-17T12:53:11Z</time>
      </trkpt>
      <trkpt lat="49.30986" lon="-0.01509">
        <ele>99.5</ele>
        <time>2020-06-17T12:53:12Z</time>
      </trkpt>
      <trkpt lat="49.30996" lon="-0.01503">
        <ele>98.6</ele>
        <time>2020-06-17T12:53:13Z</time>
      </trkpt>
      <trkpt lat="49.31005" lon="-0.01497">
        <ele>97.8</ele>
        <time>2020-06-17T12:53:14Z</time>
      </trkpt>
      <trkpt lat="49.31016" lon="-0.01491">
        <ele>96.8</ele>
        <time>2020-06-17T12:53:15Z</time>
      </trkpt>
      <trkpt lat="49.31026" lon="-0.01485">
        <ele>95.8</ele>
        <time>2020-06-17T12:53:16Z</time>
      </trkpt>
      <trkpt lat="49.31038" lon="-0.0148">
        <ele>94.7</ele>
        <time>2020-06-17T12:53:17Z</time>
      </trkpt>
      <trkpt lat="49.31049" lon="-0.01474">
        <ele>93.6</ele>
        <time>2020-06-17T12:53:18Z</time>
      </trkpt>
      <trkpt lat="49.3106" lon="-0.01467">
        <ele>92.5</ele>
        <time>2020-06-17T12:53:19Z</time>
      </trkpt>
      <trkpt lat="49.31071" lon="-0.01461">
        <ele>91.5</ele>
        <time>2020-06-17T12:53:20Z</time>
      </trkpt>
      <trkpt lat="49.31082" lon="-0.01454">
        <ele>90.4</ele>
        <time>2020-06-17T12:53:21Z</time>
      </trkpt>
      <trkpt lat="49.31093" lon="-0.01446">
        <ele>89.4</ele>
        <time>2020-06-17T12:53:22Z</time>
      </trkpt>
      <trkpt lat="49.31104" lon="-0.01437">
        <ele>88.3</ele>
        <time>2020-06-17T12:53:23Z</time>
      </trkpt>
      <trkpt lat="49.31118" lon="-0.01429">
        <ele>87.2</ele>
        <time>2020-06-17T12:53:24Z</time>
      </trkpt>
      <trkpt lat="49.3113" lon="-0.0142">
        <ele>86.2</ele>
        <time>2020-06-17T12:53:25Z</time>
      </trkpt>
      <trkpt lat="49.3114" lon="-0.01411">
        <ele>85.4</ele>
        <time>2020-06-17T12:53:26Z</time>
      </trkpt>
      <trkpt lat="49.31151" lon="-0.01403">
        <ele>84.7</ele>
        <time>2020-06-17T12:53:27Z</time>
      </trkpt>
      <trkpt lat="49.31161" lon="-0.01395">
        <ele>84.2</ele>
        <time>2020-06-17T12:53:28Z</time>
      </trkpt>
      <trkpt lat="49.31172" lon="-0.01385">
        <ele>83.6</ele>
        <time>2020-06-17T12:53:29Z</time>
      </trkpt>
      <trkpt lat="49.31181" lon="-0.01376">
        <ele>83.2</ele>
        <time>2020-06-17T12:53:30Z</time>
      </trkpt>
      <trkpt lat="49.31191" lon="-0.01367">
        <ele>82.9</ele>
        <time>2020-06-17T12:53:31Z</time>
      </trkpt>
      <trkpt lat="49.31201" lon="-0.0136">
        <ele>82.6</ele>
        <time>2020-06-17T12:53:32Z</time>
      </trkpt>
      <trkpt lat="49.31209" lon="-0.01351">
        <ele>82.4</ele>
        <time>2020-06-17T12:53:33Z</time>
      </trkpt>
      <trkpt lat="49.31217" lon="-0.01341">
        <ele>82.3</ele>
        <time>2020-06-17T12:53:34Z</time>
      </trkpt>
      <trkpt lat="49.31225" lon="-0.01331">
        <ele>82.3</ele>
        <time>2020-06-17T12:53:35Z</time>
      </trkpt>
      <trkpt lat="49.31232" lon="-0.01321">
        <ele>82.2</ele>
        <time>2020-06-17T12:53:36Z</time>
      </trkpt>
      <trkpt lat="49.31242" lon="-0.01312">
        <ele>82</ele>
        <time>2020-06-17T12:53:37Z</time>
      </trkpt>
      <trkpt lat="49.31249" lon="-0.01303">
        <ele>81.8</ele>
        <time>2020-06-17T12:53:38Z</time>
      </trkpt>
      <trkpt lat="49.31258" lon="-0.01295">
        <ele>81.5</ele>
        <time>2020-06-17T12:53:39Z</time>
      </trkpt>
      <trkpt lat="49.31266" lon="-0.01286">
        <ele>81.3</ele>
        <time>2020-06-17T12:53:40Z</time>
      </trkpt>
      <trkpt lat="49.31271" lon="-0.01278">
        <ele>81.1</ele>
        <time>2020-06-17T12:53:41Z</time>
      </trkpt>
      <trkpt lat="49.31279" lon="-0.0127">
        <ele>80.9</ele>
        <time>2020-06-17T12:53:42Z</time>
      </trkpt>
      <trkpt lat="49.31285" lon="-0.01263">
        <ele>80.7</ele>
        <time>2020-06-17T12:53:43Z</time>
      </trkpt>
      <trkpt lat="49.31291" lon="-0.01255">
        <ele>80.5</ele>
        <time>2020-06-17T12:53:44Z</time>
      </trkpt>
      <trkpt lat="49.31295" lon="-0.01248">
        <ele>80.4</ele>
        <time>2020-06-17T12:53:45Z</time>
      </trkpt>
      <trkpt lat="49.313" lon="-0.01243">
        <ele>80.4</ele>
        <time>2020-06-17T12:53:46Z</time>
      </trkpt>
      <trkpt lat="49.31304" lon="-0.01237">
        <ele>80.2</ele>
        <time>2020-06-17T12:53:47Z</time>
      </trkpt>
      <trkpt lat="49.31307" lon="-0.01232">
        <ele>79.9</ele>
        <time>2020-06-17T12:53:48Z</time>
      </trkpt>
      <trkpt lat="49.31311" lon="-0.01228">
        <ele>79.7</ele>
        <time>2020-06-17T12:53:49Z</time>
      </trkpt>
      <trkpt lat="49.31314" lon="-0.01223">
        <ele>79.4</ele>
        <time>2020-06-17T12:53:50Z</time>
      </trkpt>
      <trkpt lat="49.31317" lon="-0.01219">
        <ele>79.2</ele>
        <time>2020-06-17T12:53:51Z</time>
      </trkpt>
      <trkpt lat="49.3132" lon="-0.01215">
        <ele>78.9</ele>
        <time>2020-06-17T12:53:52Z</time>
      </trkpt>
      <trkpt lat="49.31324" lon="-0.01211">
        <ele>78.5</ele>
        <time>2020-06-17T12:53:53Z</time>
      </trkpt>
      <trkpt lat="49.31329" lon="-0.01207">
        <ele>78.1</ele>
        <time>2020-06-17T12:53:54Z</time>
      </trkpt>
      <trkpt lat="49.31334" lon="-0.01201">
        <ele>77.8</ele>
        <time>2020-06-17T12:53:55Z</time>
      </trkpt>
      <trkpt lat="49.3134" lon="-0.01195">
        <ele>77.4</ele>
        <time>2020-06-17T12:53:56Z</time>
      </trkpt>
      <trkpt lat="49.31346" lon="-0.01188">
        <ele>77</ele>
        <time>2020-06-17T12:53:57Z</time>
      </trkpt>
      <trkpt lat="49.31351" lon="-0.01184">
        <ele>76.6</ele>
        <time>2020-06-17T12:53:58Z</time>
      </trkpt>
      <trkpt lat="49.31357" lon="-0.01178">
        <ele>76.2</ele>
        <time>2020-06-17T12:53:59Z</time>
      </trkpt>
      <trkpt lat="49.31362" lon="-0.01171">
        <ele>75.8</ele>
        <time>2020-06-17T12:54:00Z</time>
      </trkpt>
      <trkpt lat="49.31367" lon="-0.01164">
        <ele>75.4</ele>
        <time>2020-06-17T12:54:01Z</time>
      </trkpt>
      <trkpt lat="49.31373" lon="-0.01155">
        <ele>74.8</ele>
        <time>2020-06-17T12:54:02Z</time>
      </trkpt>
      <trkpt lat="49.31379" lon="-0.01147">
        <ele>74.2</ele>
        <time>2020-06-17T12:54:03Z</time>
      </trkpt>
      <trkpt lat="49.31386" lon="-0.01138">
        <ele>73.6</ele>
        <time>2020-06-17T12:54:04Z</time>
      </trkpt>
      <trkpt lat="49.31393" lon="-0.0113">
        <ele>73.1</ele>
        <time>2020-06-17T12:54:05Z</time>
      </trkpt>
      <trkpt lat="49.314" lon="-0.01122">
        <ele>72.5</ele>
        <time>2020-06-17T12:54:06Z</time>
      </trkpt>
      <trkpt lat="49.31407" lon="-0.01115">
        <ele>71.8</ele>
        <time>2020-06-17T12:54:07Z</time>
      </trkpt>
      <trkpt lat="49.31414" lon="-0.01107">
        <ele>71.1</ele>
        <time>2020-06-17T12:54:08Z</time>
      </trkpt>
      <trkpt lat="49.31422" lon="-0.01099">
        <ele>70.4</ele>
        <time>2020-06-17T12:54:09Z</time>
      </trkpt>
      <trkpt lat="49.31431" lon="-0.01091">
        <ele>69.6</ele>
        <time>2020-06-17T12:54:10Z</time>
      </trkpt>
      <trkpt lat="49.31439" lon="-0.01082">
        <ele>68.8</ele>
        <time>2020-06-17T12:54:11Z</time>
      </trkpt>
      <trkpt lat="49.31448" lon="-0.01073">
        <ele>68.1</ele>
        <time>2020-06-17T12:54:12Z</time>
      </trkpt>
      <trkpt lat="49.31457" lon="-0.01063">
        <ele>67.3</ele>
        <time>2020-06-17T12:54:13Z</time>
      </trkpt>
      <trkpt lat="49.31466" lon="-0.01055">
        <ele>66.5</ele>
        <time>2020-06-17T12:54:14Z</time>
      </trkpt>
      <trkpt lat="49.31475" lon="-0.01046">
        <ele>65.7</ele>
        <time>2020-06-17T12:54:15Z</time>
      </trkpt>
      <trkpt lat="49.31485" lon="-0.01038">
        <ele>65</ele>
        <time>2020-06-17T12:54:16Z</time>
      </trkpt>
      <trkpt lat="49.31494" lon="-0.0103">
        <ele>64.3</ele>
        <time>2020-06-17T12:54:17Z</time>
      </trkpt>
      <trkpt lat="49.31504" lon="-0.01022">
        <ele>63.5</ele>
        <time>2020-06-17T12:54:18Z</time>
      </trkpt>
      <trkpt lat="49.31514" lon="-0.01014">
        <ele>62.9</ele>
        <time>2020-06-17T12:54:19Z</time>
      </trkpt>
      <trkpt lat="49.31524" lon="-0.01006">
        <ele>62.2</ele>
        <time>2020-06-17T12:54:20Z</time>
      </trkpt>
      <trkpt lat="49.31534" lon="-0.00998">
        <ele>61.5</ele>
        <time>2020-06-17T12:54:21Z</time>
      </trkpt>
      <trkpt lat="49.31544" lon="-0.00991">
        <ele>60.8</ele>
        <time>2020-06-17T12:54:22Z</time>
      </trkpt>
      <trkpt lat="49.31554" lon="-0.00983">
        <ele>60.2</ele>
        <time>2020-06-17T12:54:23Z</time>
      </trkpt>
      <trkpt lat="49.31564" lon="-0.00975">
        <ele>59.4</ele>
        <time>2020-06-17T12:54:24Z</time>
      </trkpt>
      <trkpt lat="49.31574" lon="-0.00966">
        <ele>58.7</ele>
        <time>2020-06-17T12:54:25Z</time>
      </trkpt>
      <trkpt lat="49.31585" lon="-0.00957">
        <ele>58</ele>
        <time>2020-06-17T12:54:26Z</time>
      </trkpt>
      <trkpt lat="49.31596" lon="-0.00949">
        <ele>57.1</ele>
        <time>2020-06-17T12:54:27Z</time>
      </trkpt>
      <trkpt lat="49.31607" lon="-0.00941">
        <ele>56.4</ele>
        <time>2020-06-17T12:54:28Z</time>
      </trkpt>
      <trkpt lat="49.31618" lon="-0.00932">
        <ele>55.7</ele>
        <time>2020-06-17T12:54:29Z</time>
      </trkpt>
      <trkpt lat="49.31629" lon="-0.00924">
        <ele>55.1</ele>
        <time>2020-06-17T12:54:30Z</time>
      </trkpt>
      <trkpt lat="49.31639" lon="-0.00916">
        <ele>54.4</ele>
        <time>2020-06-17T12:54:31Z</time>
      </trkpt>
      <trkpt lat="49.31649" lon="-0.00908">
        <ele>53.8</ele>
        <time>2020-06-17T12:54:32Z</time>
      </trkpt>
      <trkpt lat="49.31659" lon="-0.00901">
        <ele>53.1</ele>
        <time>2020-06-17T12:54:33Z</time>
      </trkpt>
      <trkpt lat="49.31668" lon="-0.00894">
        <ele>52.5</ele>
        <time>2020-06-17T12:54:34Z</time>
      </trkpt>
      <trkpt lat="49.31677" lon="-0.00887">
        <ele>51.8</ele>
        <time>2020-06-17T12:54:35Z</time>
      </trkpt>
      <trkpt lat="49.31687" lon="-0.00879">
        <ele>51.1</ele>
        <time>2020-06-17T12:54:36Z</time>
      </trkpt>
      <trkpt lat="49.31696" lon="-0.00872">
        <ele>50.4</ele>
        <time>2020-06-17T12:54:37Z</time>
      </trkpt>
      <trkpt lat="49.31705" lon="-0.00867">
        <ele>49.8</ele>
        <time>2020-06-17T12:54:38Z</time>
      </trkpt>
      <trkpt lat="49.31713" lon="-0.00862">
        <ele>49.1</ele>
        <time>2020-06-17T12:54:39Z</time>
      </trkpt>
      <trkpt lat="49.31721" lon="-0.00856">
        <ele>48.5</ele>
        <time>2020-06-17T12:54:40Z</time>
      </trkpt>
      <trkpt lat="49.31728" lon="-0.00851">
        <ele>47.8</ele>
        <time>2020-06-17T12:54:41Z</time>
      </trkpt>
      <trkpt lat="49.31737" lon="-0.00844">
        <ele>47.1</ele>
        <time>2020-06-17T12:54:42Z</time>
      </trkpt>
      <trkpt lat="49.31744" lon="-0.00838">
        <ele>46.4</ele>
        <time>2020-06-17T12:54:43Z</time>
      </trkpt>
      <trkpt lat="49.31752" lon="-0.0083">
        <ele>45.6</ele>
        <time>2020-06-17T12:54:44Z</time>
      </trkpt>
      <trkpt lat="49.3176" lon="-0.00823">
        <ele>44.9</ele>
        <time>2020-06-17T12:54:45Z</time>
      </trkpt>
      <trkpt lat="49.31769" lon="-0.00815">
        <ele>44.1</ele>
        <time>2020-06-17T12:54:46Z</time>
      </trkpt>
      <trkpt lat="49.31777" lon="-0.00807">
        <ele>43.4</ele>
        <time>2020-06-17T12:54:47Z</time>
      </trkpt>
      <trkpt lat="49.31788" lon="-0.00798">
        <ele>42.4</ele>
        <time>2020-06-17T12:54:48Z</time>
      </trkpt>
      <trkpt lat="49.31796" lon="-0.00791">
        <ele>41.6</ele>
        <time>2020-06-17T12:54:49Z</time>
      </trkpt>
      <trkpt lat="49.31805" lon="-0.00785">
        <ele>40.8</ele>
        <time>2020-06-17T12:54:50Z</time>
      </trkpt>
      <trkpt lat="49.31813" lon="-0.00779">
        <ele>40.1</ele>
        <time>2020-06-17T12:54:51Z</time>
      </trkpt>
      <trkpt lat="49.31824" lon="-0.0077">
        <ele>39</ele>
        <time>2020-06-17T12:54:52Z</time>
      </trkpt>
      <trkpt lat="49.31837" lon="-0.00759">
        <ele>37.8</ele>
        <time>2020-06-17T12:54:53Z</time>
      </trkpt>
      <trkpt lat="49.31845" lon="-0.00751">
        <ele>37</ele>
        <time>2020-06-17T12:54:54Z</time>
      </trkpt>
      <trkpt lat="49.31852" lon="-0.00744">
        <ele>36.3</ele>
        <time>2020-06-17T12:54:55Z</time>
      </trkpt>
      <trkpt lat="49.3186" lon="-0.00738">
        <ele>35.6</ele>
        <time>2020-06-17T12:54:56Z</time>
      </trkpt>
      <trkpt lat="49.31869" lon="-0.00733">
        <ele>34.9</ele>
        <time>2020-06-17T12:54:57Z</time>
      </trkpt>
      <trkpt lat="49.31877" lon="-0.00729">
        <ele>34.2</ele>
        <time>2020-06-17T12:54:58Z</time>
      </trkpt>
      <trkpt lat="49.31883" lon="-0.00724">
        <ele>33.7</ele>
        <time>2020-06-17T12:54:59Z</time>
      </trkpt>
      <trkpt lat="49.3189" lon="-0.00721">
        <ele>33.1</ele>
        <time>2020-06-17T12:55:00Z</time>
      </trkpt>
      <trkpt lat="49.31895" lon="-0.00718">
        <ele>32.7</ele>
        <time>2020-06-17T12:55:01Z</time>
      </trkpt>
      <trkpt lat="49.31901" lon="-0.00716">
        <ele>32.2</ele>
        <time>2020-06-17T12:55:02Z</time>
      </trkpt>
      <trkpt lat="49.31904" lon="-0.00714">
        <ele>31.9</ele>
        <time>2020-06-17T12:55:03Z</time>
      </trkpt>
      <trkpt lat="49.31909" lon="-0.00713">
        <ele>31.5</ele>
        <time>2020-06-17T12:55:04Z</time>
      </trkpt>
      <trkpt lat="49.31913" lon="-0.00707">
        <ele>31.6</ele>
        <time>2020-06-17T12:55:05Z</time>
      </trkpt>
      <trkpt lat="49.31916" lon="-0.00705">
        <ele>31.6</ele>
        <time>2020-06-17T12:55:06Z</time>
      </trkpt>
      <trkpt lat="49.31919" lon="-0.00704">
        <ele>31.1</ele>
        <time>2020-06-17T12:55:07Z</time>
      </trkpt>
      <trkpt lat="49.3192" lon="-0.00704">
        <ele>31.1</ele>
        <time>2020-06-17T12:55:08Z</time>
      </trkpt>
      <trkpt lat="49.31923" lon="-0.00704">
        <ele>30.8</ele>
        <time>2020-06-17T12:55:09Z</time>
      </trkpt>
      <trkpt lat="49.31925" lon="-0.00703">
        <ele>30.6</ele>
        <time>2020-06-17T12:55:10Z</time>
      </trkpt>
      <trkpt lat="49.31929" lon="-0.00703">
        <ele>30.3</ele>
        <time>2020-06-17T12:55:11Z</time>
      </trkpt>
      <trkpt lat="49.31936" lon="-0.00699">
        <ele>29.7</ele>
        <time>2020-06-17T12:55:12Z</time>
      </trkpt>
      <trkpt lat="49.31941" lon="-0.00697">
        <ele>29.2</ele>
        <time>2020-06-17T12:55:13Z</time>
      </trkpt>
      <trkpt lat="49.31945" lon="-0.00693">
        <ele>28.8</ele>
        <time>2020-06-17T12:55:14Z</time>
      </trkpt>
      <trkpt lat="49.31949" lon="-0.00688">
        <ele>28.4</ele>
        <time>2020-06-17T12:55:15Z</time>
      </trkpt>
      <trkpt lat="49.31954" lon="-0.00681">
        <ele>27.9</ele>
        <time>2020-06-17T12:55:16Z</time>
      </trkpt>
      <trkpt lat="49.31959" lon="-0.00674">
        <ele>27.4</ele>
        <time>2020-06-17T12:55:17Z</time>
      </trkpt>
      <trkpt lat="49.31963" lon="-0.00668">
        <ele>27</ele>
        <time>2020-06-17T12:55:18Z</time>
      </trkpt>
      <trkpt lat="49.31966" lon="-0.00664">
        <ele>26.7</ele>
        <time>2020-06-17T12:55:19Z</time>
      </trkpt>
      <trkpt lat="49.3197" lon="-0.00661">
        <ele>26.4</ele>
        <time>2020-06-17T12:55:20Z</time>
      </trkpt>
      <trkpt lat="49.31973" lon="-0.00657">
        <ele>26.1</ele>
        <time>2020-06-17T12:55:21Z</time>
      </trkpt>
      <trkpt lat="49.3198" lon="-0.00654">
        <ele>25.7</ele>
        <time>2020-06-17T12:55:22Z</time>
      </trkpt>
      <trkpt lat="49.31986" lon="-0.0065">
        <ele>25.4</ele>
        <time>2020-06-17T12:55:23Z</time>
      </trkpt>
      <trkpt lat="49.31991" lon="-0.00647">
        <ele>25.1</ele>
        <time>2020-06-17T12:55:24Z</time>
      </trkpt>
      <trkpt lat="49.31997" lon="-0.00643">
        <ele>24.8</ele>
        <time>2020-06-17T12:55:25Z</time>
      </trkpt>
      <trkpt lat="49.32002" lon="-0.0064">
        <ele>24.5</ele>
        <time>2020-06-17T12:55:26Z</time>
      </trkpt>
      <trkpt lat="49.32006" lon="-0.00636">
        <ele>24.3</ele>
        <time>2020-06-17T12:55:27Z</time>
      </trkpt>
      <trkpt lat="49.32008" lon="-0.00631">
        <ele>24.1</ele>
        <time>2020-06-17T12:55:28Z</time>
      </trkpt>
      <trkpt lat="49.32011" lon="-0.00626">
        <ele>23.9</ele>
        <time>2020-06-17T12:55:29Z</time>
      </trkpt>
      <trkpt lat="49.32014" lon="-0.0062">
        <ele>23.6</ele>
        <time>2020-06-17T12:55:30Z</time>
      </trkpt>
      <trkpt lat="49.32016" lon="-0.00615">
        <ele>23.4</ele>
        <time>2020-06-17T12:55:31Z</time>
      </trkpt>
      <trkpt lat="49.32019" lon="-0.00611">
        <ele>23.2</ele>
        <time>2020-06-17T12:55:32Z</time>
      </trkpt>
      <trkpt lat="49.32022" lon="-0.00606">
        <ele>23</ele>
        <time>2020-06-17T12:55:33Z</time>
      </trkpt>
      <trkpt lat="49.32025" lon="-0.00604">
        <ele>22.8</ele>
        <time>2020-06-17T12:55:34Z</time>
      </trkpt>
      <trkpt lat="49.32028" lon="-0.00602">
        <ele>22.6</ele>
        <time>2020-06-17T12:55:35Z</time>
      </trkpt>
      <trkpt lat="49.32031" lon="-0.00601">
        <ele>22.4</ele>
        <time>2020-06-17T12:55:36Z</time>
      </trkpt>
      <trkpt lat="49.32033" lon="-0.00599">
        <ele>22.3</ele>
        <time>2020-06-17T12:55:37Z</time>
      </trkpt>
      <trkpt lat="49.32038" lon="-0.006">
        <ele>22</ele>
        <time>2020-06-17T12:55:38Z</time>
      </trkpt>
      <trkpt lat="49.32043" lon="-0.006">
        <ele>21.7</ele>
        <time>2020-06-17T12:55:39Z</time>
      </trkpt>
      <trkpt lat="49.32049" lon="-0.00601">
        <ele>21.3</ele>
        <time>2020-06-17T12:55:40Z</time>
      </trkpt>
      <trkpt lat="49.32053" lon="-0.006">
        <ele>21</ele>
        <time>2020-06-17T12:55:41Z</time>
      </trkpt>
      <trkpt lat="49.32057" lon="-0.00598">
        <ele>20.7</ele>
        <time>2020-06-17T12:55:42Z</time>
      </trkpt>
      <trkpt lat="49.32061" lon="-0.00595">
        <ele>20.3</ele>
        <time>2020-06-17T12:55:43Z</time>
      </trkpt>
      <trkpt lat="49.32063" lon="-0.0059">
        <ele>20.3</ele>
        <time>2020-06-17T12:55:44Z</time>
      </trkpt>
      <trkpt lat="49.32065" lon="-0.00588">
        <ele>20.4</ele>
        <time>2020-06-17T12:55:45Z</time>
      </trkpt>
      <trkpt lat="49.32068" lon="-0.00585">
        <ele>20.4</ele>
        <time>2020-06-17T12:55:46Z</time>
      </trkpt>
      <trkpt lat="49.32071" lon="-0.00583">
        <ele>19.9</ele>
        <time>2020-06-17T12:55:47Z</time>
      </trkpt>
      <trkpt lat="49.32073" lon="-0.0058">
        <ele>19.5</ele>
        <time>2020-06-17T12:55:48Z</time>
      </trkpt>
      <trkpt lat="49.32077" lon="-0.00579">
        <ele>19.2</ele>
        <time>2020-06-17T12:55:49Z</time>
      </trkpt>
      <trkpt lat="49.3208" lon="-0.00579">
        <ele>19</ele>
        <time>2020-06-17T12:55:50Z</time>
      </trkpt>
      <trkpt lat="49.32084" lon="-0.00578">
        <ele>18.8</ele>
        <time>2020-06-17T12:55:51Z</time>
      </trkpt>
      <trkpt lat="49.32088" lon="-0.00576">
        <ele>18.6</ele>
        <time>2020-06-17T12:55:52Z</time>
      </trkpt>
      <trkpt lat="49.32091" lon="-0.00575">
        <ele>18.5</ele>
        <time>2020-06-17T12:55:53Z</time>
      </trkpt>
      <trkpt lat="49.32094" lon="-0.00574">
        <ele>18.3</ele>
        <time>2020-06-17T12:55:54Z</time>
      </trkpt>
      <trkpt lat="49.32099" lon="-0.00574">
        <ele>18</ele>
        <time>2020-06-17T12:55:55Z</time>
      </trkpt>
      <trkpt lat="49.32104" lon="-0.00574">
        <ele>17.8</ele>
        <time>2020-06-17T12:55:56Z</time>
      </trkpt>
      <trkpt lat="49.32108" lon="-0.00574">
        <ele>17.7</ele>
        <time>2020-06-17T12:55:57Z</time>
      </trkpt>
      <trkpt lat="49.32113" lon="-0.00574">
        <ele>17.4</ele>
        <time>2020-06-17T12:55:58Z</time>
      </trkpt>
      <trkpt lat="49.32117" lon="-0.00574">
        <ele>17.2</ele>
        <time>2020-06-17T12:55:59Z</time>
      </trkpt>
      <trkpt lat="49.32122" lon="-0.00575">
        <ele>17</ele>
        <time>2020-06-17T12:56:00Z</time>
      </trkpt>
      <trkpt lat="49.32126" lon="-0.00572">
        <ele>16.8</ele>
        <time>2020-06-17T12:56:01Z</time>
      </trkpt>
      <trkpt lat="49.32129" lon="-0.00571">
        <ele>16.6</ele>
        <time>2020-06-17T12:56:02Z</time>
      </trkpt>
      <trkpt lat="49.32133" lon="-0.00571">
        <ele>16.5</ele>
        <time>2020-06-17T12:56:03Z</time>
      </trkpt>
      <trkpt lat="49.32138" lon="-0.00573">
        <ele>16.3</ele>
        <time>2020-06-17T12:56:04Z</time>
      </trkpt>
      <trkpt lat="49.32141" lon="-0.00575">
        <ele>16.2</ele>
        <time>2020-06-17T12:56:05Z</time>
      </trkpt>
      <trkpt lat="49.32144" lon="-0.00573">
        <ele>16</ele>
        <time>2020-06-17T12:56:06Z</time>
      </trkpt>
      <trkpt lat="49.32146" lon="-0.00571">
        <ele>15.9</ele>
        <time>2020-06-17T12:56:07Z</time>
      </trkpt>
      <trkpt lat="49.3215" lon="-0.00567">
        <ele>15.7</ele>
        <time>2020-06-17T12:56:08Z</time>
      </trkpt>
      <trkpt lat="49.32152" lon="-0.00565">
        <ele>15.6</ele>
        <time>2020-06-17T12:56:09Z</time>
      </trkpt>
      <trkpt lat="49.32155" lon="-0.00562">
        <ele>15.4</ele>
        <time>2020-06-17T12:56:10Z</time>
      </trkpt>
      <trkpt lat="49.32158" lon="-0.0056">
        <ele>15.2</ele>
        <time>2020-06-17T12:56:11Z</time>
      </trkpt>
      <trkpt lat="49.32162" lon="-0.00558">
        <ele>15.1</ele>
        <time>2020-06-17T12:56:12Z</time>
      </trkpt>
      <trkpt lat="49.32169" lon="-0.00559">
        <ele>14.9</ele>
        <time>2020-06-17T12:56:13Z</time>
      </trkpt>
      <trkpt lat="49.32175" lon="-0.00558">
        <ele>14.7</ele>
        <time>2020-06-17T12:56:14Z</time>
      </trkpt>
      <trkpt lat="49.3218" lon="-0.00557">
        <ele>14.6</ele>
        <time>2020-06-17T12:56:15Z</time>
      </trkpt>
      <trkpt lat="49.32184" lon="-0.00554">
        <ele>14.5</ele>
        <time>2020-06-17T12:56:16Z</time>
      </trkpt>
      <trkpt lat="49.32189" lon="-0.0055">
        <ele>14.4</ele>
        <time>2020-06-17T12:56:17Z</time>
      </trkpt>
      <trkpt lat="49.32194" lon="-0.00546">
        <ele>14.3</ele>
        <time>2020-06-17T12:56:18Z</time>
      </trkpt>
      <trkpt lat="49.32197" lon="-0.00544">
        <ele>14.2</ele>
        <time>2020-06-17T12:56:19Z</time>
      </trkpt>
      <trkpt lat="49.32202" lon="-0.00538">
        <ele>13.9</ele>
        <time>2020-06-17T12:56:20Z</time>
      </trkpt>
      <trkpt lat="49.32207" lon="-0.00535">
        <ele>13.7</ele>
        <time>2020-06-17T12:56:21Z</time>
      </trkpt>
      <trkpt lat="49.3221" lon="-0.00533">
        <ele>13.6</ele>
        <time>2020-06-17T12:56:22Z</time>
      </trkpt>
      <trkpt lat="49.32214" lon="-0.00531">
        <ele>13.4</ele>
        <time>2020-06-17T12:56:23Z</time>
      </trkpt>
      <trkpt lat="49.32218" lon="-0.0053">
        <ele>13.3</ele>
        <time>2020-06-17T12:56:24Z</time>
      </trkpt>
      <trkpt lat="49.32221" lon="-0.00529">
        <ele>13.1</ele>
        <time>2020-06-17T12:56:25Z</time>
      </trkpt>
      <trkpt lat="49.32224" lon="-0.00528">
        <ele>13</ele>
        <time>2020-06-17T12:56:26Z</time>
      </trkpt>
      <trkpt lat="49.32228" lon="-0.00529">
        <ele>12.8</ele>
        <time>2020-06-17T12:56:27Z</time>
      </trkpt>
      <trkpt lat="49.32232" lon="-0.00528">
        <ele>12.7</ele>
        <time>2020-06-17T12:56:28Z</time>
      </trkpt>
      <trkpt lat="49.32235" lon="-0.00526">
        <ele>12.5</ele>
        <time>2020-06-17T12:56:29Z</time>
      </trkpt>
      <trkpt lat="49.32239" lon="-0.00526">
        <ele>12.3</ele>
        <time>2020-06-17T12:56:30Z</time>
      </trkpt>
      <trkpt lat="49.32243" lon="-0.00524">
        <ele>12.1</ele>
        <time>2020-06-17T12:56:31Z</time>
      </trkpt>
      <trkpt lat="49.32248" lon="-0.00524">
        <ele>11.9</ele>
        <time>2020-06-17T12:56:32Z</time>
      </trkpt>
      <trkpt lat="49.32252" lon="-0.00523">
        <ele>11.8</ele>
        <time>2020-06-17T12:56:33Z</time>
      </trkpt>
      <trkpt lat="49.32256" lon="-0.00523">
        <ele>11.6</ele>
        <time>2020-06-17T12:56:34Z</time>
      </trkpt>
      <trkpt lat="49.3226" lon="-0.00522">
        <ele>11.5</ele>
        <time>2020-06-17T12:56:35Z</time>
      </trkpt>
      <trkpt lat="49.32264" lon="-0.00521">
        <ele>11.4</ele>
        <time>2020-06-17T12:56:36Z</time>
      </trkpt>
      <trkpt lat="49.32268" lon="-0.00519">
        <ele>11.2</ele>
        <time>2020-06-17T12:56:37Z</time>
      </trkpt>
      <trkpt lat="49.32271" lon="-0.00518">
        <ele>11.1</ele>
        <time>2020-06-17T12:56:38Z</time>
      </trkpt>
      <trkpt lat="49.32275" lon="-0.00518">
        <ele>11</ele>
        <time>2020-06-17T12:56:39Z</time>
      </trkpt>
      <trkpt lat="49.32278" lon="-0.00515">
        <ele>10.9</ele>
        <time>2020-06-17T12:56:40Z</time>
      </trkpt>
      <trkpt lat="49.32281" lon="-0.00513">
        <ele>10.8</ele>
        <time>2020-06-17T12:56:41Z</time>
      </trkpt>
      <trkpt lat="49.32284" lon="-0.00511">
        <ele>10.7</ele>
        <time>2020-06-17T12:56:42Z</time>
      </trkpt>
      <trkpt lat="49.32287" lon="-0.0051">
        <ele>10.6</ele>
        <time>2020-06-17T12:56:43Z</time>
      </trkpt>
      <trkpt lat="49.3229" lon="-0.00509">
        <ele>10.5</ele>
        <time>2020-06-17T12:56:44Z</time>
      </trkpt>
      <trkpt lat="49.32293" lon="-0.00508">
        <ele>10.4</ele>
        <time>2020-06-17T12:56:45Z</time>
      </trkpt>
      <trkpt lat="49.32296" lon="-0.00507">
        <ele>10.3</ele>
        <time>2020-06-17T12:56:46Z</time>
      </trkpt>
      <trkpt lat="49.32299" lon="-0.00507">
        <ele>10.1</ele>
        <time>2020-06-17T12:56:47Z</time>
      </trkpt>
      <trkpt lat="49.32304" lon="-0.00504">
        <ele>10.1</ele>
        <time>2020-06-17T12:56:48Z</time>
      </trkpt>
      <trkpt lat="49.32309" lon="-0.00502">
        <ele>10</ele>
        <time>2020-06-17T12:56:49Z</time>
      </trkpt>
      <trkpt lat="49.32313" lon="-0.00499">
        <ele>9.9</ele>
        <time>2020-06-17T12:56:50Z</time>
      </trkpt>
      <trkpt lat="49.32318" lon="-0.00494">
        <ele>9.8</ele>
        <time>2020-06-17T12:56:51Z</time>
      </trkpt>
      <trkpt lat="49.32321" lon="-0.00489">
        <ele>9.7</ele>
        <time>2020-06-17T12:56:52Z</time>
      </trkpt>
      <trkpt lat="49.32324" lon="-0.00483">
        <ele>9.2</ele>
        <time>2020-06-17T12:56:53Z</time>
      </trkpt>
      <trkpt lat="49.32327" lon="-0.00477">
        <ele>8.8</ele>
        <time>2020-06-17T12:56:54Z</time>
      </trkpt>
      <trkpt lat="49.3233" lon="-0.00469">
        <ele>8.7</ele>
        <time>2020-06-17T12:56:55Z</time>
      </trkpt>
      <trkpt lat="49.32332" lon="-0.00463">
        <ele>8.8</ele>
        <time>2020-06-17T12:56:56Z</time>
      </trkpt>
      <trkpt lat="49.32334" lon="-0.00456">
        <ele>8.7</ele>
        <time>2020-06-17T12:56:57Z</time>
      </trkpt>
      <trkpt lat="49.32337" lon="-0.00449">
        <ele>8.6</ele>
        <time>2020-06-17T12:56:58Z</time>
      </trkpt>
      <trkpt lat="49.32339" lon="-0.00442">
        <ele>8.7</ele>
        <time>2020-06-17T12:56:59Z</time>
      </trkpt>
      <trkpt lat="49.32341" lon="-0.00434">
        <ele>8.4</ele>
        <time>2020-06-17T12:57:00Z</time>
      </trkpt>
      <trkpt lat="49.32343" lon="-0.00427">
        <ele>7.9</ele>
        <time>2020-06-17T12:57:01Z</time>
      </trkpt>
      <trkpt lat="49.32346" lon="-0.0042">
        <ele>7.6</ele>
        <time>2020-06-17T12:57:02Z</time>
      </trkpt>
      <trkpt lat="49.32349" lon="-0.00412">
        <ele>7</ele>
        <time>2020-06-17T12:57:03Z</time>
      </trkpt>
      <trkpt lat="49.32351" lon="-0.00406">
        <ele>6.5</ele>
        <time>2020-06-17T12:57:04Z</time>
      </trkpt>
      <trkpt lat="49.32355" lon="-0.00399">
        <ele>6.4</ele>
        <time>2020-06-17T12:57:05Z</time>
      </trkpt>
      <trkpt lat="49.32357" lon="-0.00393">
        <ele>5.9</ele>
        <time>2020-06-17T12:57:06Z</time>
      </trkpt>
      <trkpt lat="49.3236" lon="-0.00387">
        <ele>5.4</ele>
        <time>2020-06-17T12:57:07Z</time>
      </trkpt>
      <trkpt lat="49.32363" lon="-0.00381">
        <ele>5.1</ele>
        <time>2020-06-17T12:57:08Z</time>
      </trkpt>
      <trkpt lat="49.32366" lon="-0.00376">
        <ele>4.8</ele>
        <time>2020-06-17T12:57:09Z</time>
      </trkpt>
      <trkpt lat="49.32369" lon="-0.00369">
        <ele>4.5</ele>
        <time>2020-06-17T12:57:10Z</time>
      </trkpt>
      <trkpt lat="49.32372" lon="-0.00361">
        <ele>4.4</ele>
        <time>2020-06-17T12:57:11Z</time>
      </trkpt>
      <trkpt lat="49.32376" lon="-0.00354">
        <ele>4.2</ele>
        <time>2020-06-17T12:57:12Z</time>
      </trkpt>
      <trkpt lat="49.3238" lon="-0.00347">
        <ele>3.9</ele>
        <time>2020-06-17T12:57:13Z</time>
      </trkpt>
      <trkpt lat="49.32384" lon="-0.0034">
        <ele>3.6</ele>
        <time>2020-06-17T12:57:14Z</time>
      </trkpt>
      <trkpt lat="49.32389" lon="-0.00332">
        <ele>3.3</ele>
        <time>2020-06-17T12:57:15Z</time>
      </trkpt>
      <trkpt lat="49.32394" lon="-0.00325">
        <ele>3.2</ele>
        <time>2020-06-17T12:57:16Z</time>
      </trkpt>
      <trkpt lat="49.32398" lon="-0.00319">
        <ele>2.9</ele>
        <time>2020-06-17T12:57:17Z</time>
      </trkpt>
      <trkpt lat="49.32402" lon="-0.00311">
        <ele>2.4</ele>
        <time>2020-06-17T12:57:18Z</time>
      </trkpt>
      <trkpt lat="49.32407" lon="-0.00302">
        <ele>2.1</ele>
        <time>2020-06-17T12:57:19Z</time>
      </trkpt>
      <trkpt lat="49.32411" lon="-0.00295">
        <ele>1.7</ele>
        <time>2020-06-17T12:57:20Z</time>
      </trkpt>
      <trkpt lat="49.32415" lon="-0.00288">
        <ele>1.4</ele>
        <time>2020-06-17T12:57:21Z</time>
      </trkpt>
      <trkpt lat="49.32424" lon="-0.00281">
        <ele>2.1</ele>
        <time>2020-06-17T12:57:22Z</time>
      </trkpt>
      <trkpt lat="49.32427" lon="-0.00275">
        <ele>2.6</ele>
        <time>2020-06-17T12:57:23Z</time>
      </trkpt>
      <trkpt lat="49.32431" lon="-0.00267">
        <ele>2.9</ele>
        <time>2020-06-17T12:57:24Z</time>
      </trkpt>
      <trkpt lat="49.32434" lon="-0.00259">
        <ele>3.2</ele>
        <time>2020-06-17T12:57:25Z</time>
      </trkpt>
      <trkpt lat="49.32438" lon="-0.00252">
        <ele>3.5</ele>
        <time>2020-06-17T12:57:26Z</time>
      </trkpt>
      <trkpt lat="49.32442" lon="-0.00245">
        <ele>3.6</ele>
        <time>2020-06-17T12:57:27Z</time>
      </trkpt>
      <trkpt lat="49.32444" lon="-0.00238">
        <ele>3.5</ele>
        <time>2020-06-17T12:57:28Z</time>
      </trkpt>
      <trkpt lat="49.32452" lon="-0.00232">
        <ele>3.7</ele>
        <time>2020-06-17T12:57:29Z</time>
      </trkpt>
      <trkpt lat="49.32458" lon="-0.00225">
        <ele>4.6</ele>
        <time>2020-06-17T12:57:30Z</time>
      </trkpt>
      <trkpt lat="49.32462" lon="-0.00218">
        <ele>5.3</ele>
        <time>2020-06-17T12:57:31Z</time>
      </trkpt>
      <trkpt lat="49.32467" lon="-0.00212">
        <ele>6.2</ele>
        <time>2020-06-17T12:57:32Z</time>
      </trkpt>
      <trkpt lat="49.32471" lon="-0.00205">
        <ele>6.2</ele>
        <time>2020-06-17T12:57:33Z</time>
      </trkpt>
      <trkpt lat="49.32473" lon="-0.00198">
        <ele>6.2</ele>
        <time>2020-06-17T12:57:34Z</time>
      </trkpt>
      <trkpt lat="49.32476" lon="-0.00191">
        <ele>6.2</ele>
        <time>2020-06-17T12:57:35Z</time>
      </trkpt>
      <trkpt lat="49.32479" lon="-0.00184">
        <ele>6.2</ele>
        <time>2020-06-17T12:57:36Z</time>
      </trkpt>
      <trkpt lat="49.32482" lon="-0.00178">
        <ele>6.2</ele>
        <time>2020-06-17T12:57:37Z</time>
      </trkpt>
      <trkpt lat="49.32485" lon="-0.00172">
        <ele>6.2</ele>
        <time>2020-06-17T12:57:38Z</time>
      </trkpt>
      <trkpt lat="49.32487" lon="-0.00166">
        <ele>6.2</ele>
        <time>2020-06-17T12:57:39Z</time>
      </trkpt>
      <trkpt lat="49.3249" lon="-0.00162">
        <ele>6.1</ele>
        <time>2020-06-17T12:57:40Z</time>
      </trkpt>
      <trkpt lat="49.32492" lon="-0.00157">
        <ele>6.1</ele>
        <time>2020-06-17T12:57:41Z</time>
      </trkpt>
      <trkpt lat="49.32494" lon="-0.00152">
        <ele>6.1</ele>
        <time>2020-06-17T12:57:42Z</time>
      </trkpt>
      <trkpt lat="49.32496" lon="-0.00146">
        <ele>6.1</ele>
        <time>2020-06-17T12:57:43Z</time>
      </trkpt>
      <trkpt lat="49.32499" lon="-0.0014">
        <ele>6.1</ele>
        <time>2020-06-17T12:57:44Z</time>
      </trkpt>
      <trkpt lat="49.32501" lon="-0.00134">
        <ele>6.1</ele>
        <time>2020-06-17T12:57:45Z</time>
      </trkpt>
      <trkpt lat="49.32504" lon="-0.00127">
        <ele>6</ele>
        <time>2020-06-17T12:57:46Z</time>
      </trkpt>
      <trkpt lat="49.32506" lon="-0.00122">
        <ele>6</ele>
        <time>2020-06-17T12:57:47Z</time>
      </trkpt>
      <trkpt lat="49.32509" lon="-0.00115">
        <ele>6</ele>
        <time>2020-06-17T12:57:48Z</time>
      </trkpt>
      <trkpt lat="49.32511" lon="-0.00109">
        <ele>5.9</ele>
        <time>2020-06-17T12:57:49Z</time>
      </trkpt>
      <trkpt lat="49.32514" lon="-0.00102">
        <ele>5.9</ele>
        <time>2020-06-17T12:57:50Z</time>
      </trkpt>
      <trkpt lat="49.32516" lon="-0.00096">
        <ele>5.9</ele>
        <time>2020-06-17T12:57:51Z</time>
      </trkpt>
      <trkpt lat="49.32519" lon="-0.00088">
        <ele>5.9</ele>
        <time>2020-06-17T12:57:52Z</time>
      </trkpt>
      <trkpt lat="49.3252" lon="-0.00081">
        <ele>6</ele>
        <time>2020-06-17T12:57:53Z</time>
      </trkpt>
      <trkpt lat="49.32523" lon="-0.00074">
        <ele>6</ele>
        <time>2020-06-17T12:57:54Z</time>
      </trkpt>
      <trkpt lat="49.32525" lon="-0.0007">
        <ele>5.9</ele>
        <time>2020-06-17T12:57:55Z</time>
      </trkpt>
      <trkpt lat="49.32527" lon="-0.00064">
        <ele>5.9</ele>
        <time>2020-06-17T12:57:56Z</time>
      </trkpt>
      <trkpt lat="49.3253" lon="-0.00058">
        <ele>5.9</ele>
        <time>2020-06-17T12:57:57Z</time>
      </trkpt>
      <trkpt lat="49.32533" lon="-0.00051">
        <ele>5.9</ele>
        <time>2020-06-17T12:57:58Z</time>
      </trkpt>
      <trkpt lat="49.32537" lon="-0.00045">
        <ele>5.8</ele>
        <time>2020-06-17T12:57:59Z</time>
      </trkpt>
      <trkpt lat="49.3254" lon="-0.00039">
        <ele>5.8</ele>
        <time>2020-06-17T12:58:00Z</time>
      </trkpt>
      <trkpt lat="49.32543" lon="-0.00031">
        <ele>5.8</ele>
        <time>2020-06-17T12:58:01Z</time>
      </trkpt>
      <trkpt lat="49.32545" lon="-0.00023">
        <ele>5.8</ele>
        <time>2020-06-17T12:58:02Z</time>
      </trkpt>
      <trkpt lat="49.32548" lon="-0.00016">
        <ele>5.7</ele>
        <time>2020-06-17T12:58:03Z</time>
      </trkpt>
      <trkpt lat="49.3255" lon="-9.0E-5">
        <ele>5.7</ele>
        <time>2020-06-17T12:58:04Z</time>
      </trkpt>
      <trkpt lat="49.32552" lon="-1.0E-5">
        <ele>5.7</ele>
        <time>2020-06-17T12:58:05Z</time>
      </trkpt>
      <trkpt lat="49.32554" lon="6.0E-5">
        <ele>5.7</ele>
        <time>2020-06-17T12:58:06Z</time>
      </trkpt>
      <trkpt lat="49.32556" lon="0.00013">
        <ele>5.7</ele>
        <time>2020-06-17T12:58:07Z</time>
      </trkpt>
      <trkpt lat="49.32557" lon="0.00019">
        <ele>5.7</ele>
        <time>2020-06-17T12:58:08Z</time>
      </trkpt>
      <trkpt lat="49.3256" lon="0.00024">
        <ele>5.7</ele>
        <time>2020-06-17T12:58:09Z</time>
      </trkpt>
      <trkpt lat="49.32563" lon="0.0003">
        <ele>5.7</ele>
        <time>2020-06-17T12:58:10Z</time>
      </trkpt>
      <trkpt lat="49.32566" lon="0.00034">
        <ele>5.6</ele>
        <time>2020-06-17T12:58:11Z</time>
      </trkpt>
      <trkpt lat="49.32569" lon="0.00039">
        <ele>5.6</ele>
        <time>2020-06-17T12:58:12Z</time>
      </trkpt>
      <trkpt lat="49.32571" lon="0.00043">
        <ele>5.6</ele>
        <time>2020-06-17T12:58:13Z</time>
      </trkpt>
      <trkpt lat="49.32573" lon="0.00048">
        <ele>5.6</ele>
        <time>2020-06-17T12:58:14Z</time>
      </trkpt>
      <trkpt lat="49.32574" lon="0.00054">
        <ele>5.5</ele>
        <time>2020-06-17T12:58:15Z</time>
      </trkpt>
      <trkpt lat="49.32576" lon="0.0006">
        <ele>5.5</ele>
        <time>2020-06-17T12:58:16Z</time>
      </trkpt>
      <trkpt lat="49.32578" lon="0.00065">
        <ele>5.5</ele>
        <time>2020-06-17T12:58:17Z</time>
      </trkpt>
      <trkpt lat="49.32582" lon="0.0007">
        <ele>5.5</ele>
        <time>2020-06-17T12:58:18Z</time>
      </trkpt>
      <trkpt lat="49.32585" lon="0.00075">
        <ele>5.4</ele>
        <time>2020-06-17T12:58:19Z</time>
      </trkpt>
      <trkpt lat="49.32588" lon="0.00081">
        <ele>5.4</ele>
        <time>2020-06-17T12:58:20Z</time>
      </trkpt>
      <trkpt lat="49.32591" lon="0.00087">
        <ele>5.4</ele>
        <time>2020-06-17T12:58:21Z</time>
      </trkpt>
      <trkpt lat="49.32593" lon="0.00093">
        <ele>5.4</ele>
        <time>2020-06-17T12:58:22Z</time>
      </trkpt>
      <trkpt lat="49.32595" lon="0.00099">
        <ele>5.4</ele>
        <time>2020-06-17T12:58:23Z</time>
      </trkpt>
      <trkpt lat="49.32597" lon="0.00105">
        <ele>5.4</ele>
        <time>2020-06-17T12:58:24Z</time>
      </trkpt>
      <trkpt lat="49.326" lon="0.00111">
        <ele>5.4</ele>
        <time>2020-06-17T12:58:25Z</time>
      </trkpt>
      <trkpt lat="49.32603" lon="0.00118">
        <ele>5.4</ele>
        <time>2020-06-17T12:58:26Z</time>
      </trkpt>
      <trkpt lat="49.32607" lon="0.00125">
        <ele>5.3</ele>
        <time>2020-06-17T12:58:27Z</time>
      </trkpt>
      <trkpt lat="49.3261" lon="0.00132">
        <ele>5.3</ele>
        <time>2020-06-17T12:58:28Z</time>
      </trkpt>
      <trkpt lat="49.32614" lon="0.00139">
        <ele>5.3</ele>
        <time>2020-06-17T12:58:29Z</time>
      </trkpt>
      <trkpt lat="49.32617" lon="0.00146">
        <ele>5.3</ele>
        <time>2020-06-17T12:58:30Z</time>
      </trkpt>
      <trkpt lat="49.32621" lon="0.00153">
        <ele>5.3</ele>
        <time>2020-06-17T12:58:31Z</time>
      </trkpt>
      <trkpt lat="49.32625" lon="0.0016">
        <ele>5.3</ele>
        <time>2020-06-17T12:58:32Z</time>
      </trkpt>
      <trkpt lat="49.32628" lon="0.00168">
        <ele>5.3</ele>
        <time>2020-06-17T12:58:33Z</time>
      </trkpt>
      <trkpt lat="49.32631" lon="0.00175">
        <ele>5.2</ele>
        <time>2020-06-17T12:58:34Z</time>
      </trkpt>
      <trkpt lat="49.32634" lon="0.00183">
        <ele>5.2</ele>
        <time>2020-06-17T12:58:35Z</time>
      </trkpt>
      <trkpt lat="49.32637" lon="0.0019">
        <ele>5.2</ele>
        <time>2020-06-17T12:58:36Z</time>
      </trkpt>
      <trkpt lat="49.32641" lon="0.00197">
        <ele>5.2</ele>
        <time>2020-06-17T12:58:37Z</time>
      </trkpt>
      <trkpt lat="49.32645" lon="0.00206">
        <ele>5.2</ele>
        <time>2020-06-17T12:58:38Z</time>
      </trkpt>
      <trkpt lat="49.32648" lon="0.00214">
        <ele>5.2</ele>
        <time>2020-06-17T12:58:39Z</time>
      </trkpt>
      <trkpt lat="49.32651" lon="0.00222">
        <ele>5.2</ele>
        <time>2020-06-17T12:58:40Z</time>
      </trkpt>
      <trkpt lat="49.32653" lon="0.00229">
        <ele>5.2</ele>
        <time>2020-06-17T12:58:41Z</time>
      </trkpt>
      <trkpt lat="49.32655" lon="0.00236">
        <ele>5.2</ele>
        <time>2020-06-17T12:58:42Z</time>
      </trkpt>
      <trkpt lat="49.32657" lon="0.00242">
        <ele>5.2</ele>
        <time>2020-06-17T12:58:43Z</time>
      </trkpt>
      <trkpt lat="49.32661" lon="0.00251">
        <ele>5.2</ele>
        <time>2020-06-17T12:58:44Z</time>
      </trkpt>
      <trkpt lat="49.32664" lon="0.00259">
        <ele>5.2</ele>
        <time>2020-06-17T12:58:45Z</time>
      </trkpt>
      <trkpt lat="49.32668" lon="0.00268">
        <ele>5.2</ele>
        <time>2020-06-17T12:58:46Z</time>
      </trkpt>
      <trkpt lat="49.3267" lon="0.00275">
        <ele>5.2</ele>
        <time>2020-06-17T12:58:47Z</time>
      </trkpt>
      <trkpt lat="49.32672" lon="0.00282">
        <ele>5.2</ele>
        <time>2020-06-17T12:58:48Z</time>
      </trkpt>
      <trkpt lat="49.32675" lon="0.0029">
        <ele>5.2</ele>
        <time>2020-06-17T12:58:49Z</time>
      </trkpt>
      <trkpt lat="49.32679" lon="0.00299">
        <ele>5.2</ele>
        <time>2020-06-17T12:58:50Z</time>
      </trkpt>
      <trkpt lat="49.32682" lon="0.00307">
        <ele>5.2</ele>
        <time>2020-06-17T12:58:51Z</time>
      </trkpt>
      <trkpt lat="49.32685" lon="0.00315">
        <ele>5.2</ele>
        <time>2020-06-17T12:58:52Z</time>
      </trkpt>
      <trkpt lat="49.32688" lon="0.00323">
        <ele>5.3</ele>
        <time>2020-06-17T12:58:53Z</time>
      </trkpt>
      <trkpt lat="49.32691" lon="0.00331">
        <ele>5.3</ele>
        <time>2020-06-17T12:58:54Z</time>
      </trkpt>
      <trkpt lat="49.32695" lon="0.00339">
        <ele>5.3</ele>
        <time>2020-06-17T12:58:55Z</time>
      </trkpt>
      <trkpt lat="49.32698" lon="0.00347">
        <ele>5.3</ele>
        <time>2020-06-17T12:58:56Z</time>
      </trkpt>
      <trkpt lat="49.32701" lon="0.00355">
        <ele>5.3</ele>
        <time>2020-06-17T12:58:57Z</time>
      </trkpt>
      <trkpt lat="49.32704" lon="0.00362">
        <ele>5.3</ele>
        <time>2020-06-17T12:58:58Z</time>
      </trkpt>
      <trkpt lat="49.32707" lon="0.00368">
        <ele>5.4</ele>
        <time>2020-06-17T12:58:59Z</time>
      </trkpt>
      <trkpt lat="49.32711" lon="0.00374">
        <ele>5.4</ele>
        <time>2020-06-17T12:59:00Z</time>
      </trkpt>
      <trkpt lat="49.32714" lon="0.00381">
        <ele>5.4</ele>
        <time>2020-06-17T12:59:01Z</time>
      </trkpt>
      <trkpt lat="49.32718" lon="0.00388">
        <ele>5.4</ele>
        <time>2020-06-17T12:59:02Z</time>
      </trkpt>
      <trkpt lat="49.32721" lon="0.00395">
        <ele>5.4</ele>
        <time>2020-06-17T12:59:03Z</time>
      </trkpt>
      <trkpt lat="49.32724" lon="0.00403">
        <ele>5.4</ele>
        <time>2020-06-17T12:59:04Z</time>
      </trkpt>
      <trkpt lat="49.32727" lon="0.00411">
        <ele>5.4</ele>
        <time>2020-06-17T12:59:05Z</time>
      </trkpt>
      <trkpt lat="49.32731" lon="0.00418">
        <ele>5.4</ele>
        <time>2020-06-17T12:59:06Z</time>
      </trkpt>
      <trkpt lat="49.32734" lon="0.00425">
        <ele>5.4</ele>
        <time>2020-06-17T12:59:07Z</time>
      </trkpt>
      <trkpt lat="49.32737" lon="0.00433">
        <ele>5.5</ele>
        <time>2020-06-17T12:59:08Z</time>
      </trkpt>
      <trkpt lat="49.32741" lon="0.00441">
        <ele>5.5</ele>
        <time>2020-06-17T12:59:09Z</time>
      </trkpt>
      <trkpt lat="49.32744" lon="0.00449">
        <ele>5.5</ele>
        <time>2020-06-17T12:59:10Z</time>
      </trkpt>
      <trkpt lat="49.32747" lon="0.00458">
        <ele>5.5</ele>
        <time>2020-06-17T12:59:11Z</time>
      </trkpt>
      <trkpt lat="49.32751" lon="0.00464">
        <ele>5.5</ele>
        <time>2020-06-17T12:59:12Z</time>
      </trkpt>
      <trkpt lat="49.32754" lon="0.00471">
        <ele>5.5</ele>
        <time>2020-06-17T12:59:13Z</time>
      </trkpt>
      <trkpt lat="49.32758" lon="0.00479">
        <ele>5.4</ele>
        <time>2020-06-17T12:59:14Z</time>
      </trkpt>
      <trkpt lat="49.32762" lon="0.00487">
        <ele>5.4</ele>
        <time>2020-06-17T12:59:15Z</time>
      </trkpt>
      <trkpt lat="49.32766" lon="0.00495">
        <ele>5.4</ele>
        <time>2020-06-17T12:59:16Z</time>
      </trkpt>
      <trkpt lat="49.3277" lon="0.00502">
        <ele>5.4</ele>
        <time>2020-06-17T12:59:17Z</time>
      </trkpt>
      <trkpt lat="49.32774" lon="0.0051">
        <ele>5.4</ele>
        <time>2020-06-17T12:59:18Z</time>
      </trkpt>
      <trkpt lat="49.32777" lon="0.00517">
        <ele>5.4</ele>
        <time>2020-06-17T12:59:19Z</time>
      </trkpt>
      <trkpt lat="49.3278" lon="0.00524">
        <ele>5.4</ele>
        <time>2020-06-17T12:59:20Z</time>
      </trkpt>
      <trkpt lat="49.32783" lon="0.00531">
        <ele>5.4</ele>
        <time>2020-06-17T12:59:21Z</time>
      </trkpt>
      <trkpt lat="49.32787" lon="0.00539">
        <ele>5.4</ele>
        <time>2020-06-17T12:59:22Z</time>
      </trkpt>
      <trkpt lat="49.3279" lon="0.00547">
        <ele>5.4</ele>
        <time>2020-06-17T12:59:23Z</time>
      </trkpt>
      <trkpt lat="49.32793" lon="0.00555">
        <ele>5.4</ele>
        <time>2020-06-17T12:59:24Z</time>
      </trkpt>
      <trkpt lat="49.32797" lon="0.00563">
        <ele>5.4</ele>
        <time>2020-06-17T12:59:25Z</time>
      </trkpt>
      <trkpt lat="49.328" lon="0.0057">
        <ele>5.4</ele>
        <time>2020-06-17T12:59:26Z</time>
      </trkpt>
      <trkpt lat="49.32803" lon="0.00577">
        <ele>5.4</ele>
        <time>2020-06-17T12:59:27Z</time>
      </trkpt>
      <trkpt lat="49.32805" lon="0.00583">
        <ele>5.4</ele>
        <time>2020-06-17T12:59:28Z</time>
      </trkpt>
      <trkpt lat="49.32808" lon="0.0059">
        <ele>5.4</ele>
        <time>2020-06-17T12:59:29Z</time>
      </trkpt>
      <trkpt lat="49.32812" lon="0.00598">
        <ele>5.4</ele>
        <time>2020-06-17T12:59:30Z</time>
      </trkpt>
      <trkpt lat="49.32816" lon="0.00605">
        <ele>5.4</ele>
        <time>2020-06-17T12:59:31Z</time>
      </trkpt>
      <trkpt lat="49.3282" lon="0.00614">
        <ele>5.3</ele>
        <time>2020-06-17T12:59:32Z</time>
      </trkpt>
      <trkpt lat="49.32822" lon="0.00621">
        <ele>5.3</ele>
        <time>2020-06-17T12:59:33Z</time>
      </trkpt>
      <trkpt lat="49.32824" lon="0.00629">
        <ele>5.3</ele>
        <time>2020-06-17T12:59:34Z</time>
      </trkpt>
      <trkpt lat="49.32826" lon="0.00636">
        <ele>5.3</ele>
        <time>2020-06-17T12:59:35Z</time>
      </trkpt>
      <trkpt lat="49.32829" lon="0.00643">
        <ele>5.4</ele>
        <time>2020-06-17T12:59:36Z</time>
      </trkpt>
      <trkpt lat="49.32831" lon="0.00651">
        <ele>5.4</ele>
        <time>2020-06-17T12:59:37Z</time>
      </trkpt>
      <trkpt lat="49.32834" lon="0.00657">
        <ele>5.4</ele>
        <time>2020-06-17T12:59:38Z</time>
      </trkpt>
      <trkpt lat="49.32836" lon="0.00663">
        <ele>5.4</ele>
        <time>2020-06-17T12:59:39Z</time>
      </trkpt>
      <trkpt lat="49.32839" lon="0.00671">
        <ele>5.4</ele>
        <time>2020-06-17T12:59:40Z</time>
      </trkpt>
      <trkpt lat="49.32841" lon="0.00679">
        <ele>5.4</ele>
        <time>2020-06-17T12:59:41Z</time>
      </trkpt>
      <trkpt lat="49.32843" lon="0.00685">
        <ele>5.5</ele>
        <time>2020-06-17T12:59:42Z</time>
      </trkpt>
      <trkpt lat="49.32846" lon="0.00692">
        <ele>5.5</ele>
        <time>2020-06-17T12:59:43Z</time>
      </trkpt>
      <trkpt lat="49.3285" lon="0.00699">
        <ele>5.5</ele>
        <time>2020-06-17T12:59:44Z</time>
      </trkpt>
      <trkpt lat="49.32854" lon="0.00706">
        <ele>5.5</ele>
        <time>2020-06-17T12:59:45Z</time>
      </trkpt>
      <trkpt lat="49.32858" lon="0.00713">
        <ele>5.5</ele>
        <time>2020-06-17T12:59:46Z</time>
      </trkpt>
      <trkpt lat="49.32861" lon="0.0072">
        <ele>5.5</ele>
        <time>2020-06-17T12:59:47Z</time>
      </trkpt>
      <trkpt lat="49.32864" lon="0.00726">
        <ele>5.6</ele>
        <time>2020-06-17T12:59:48Z</time>
      </trkpt>
      <trkpt lat="49.32868" lon="0.00732">
        <ele>5.6</ele>
        <time>2020-06-17T12:59:49Z</time>
      </trkpt>
      <trkpt lat="49.32872" lon="0.00739">
        <ele>5.6</ele>
        <time>2020-06-17T12:59:50Z</time>
      </trkpt>
      <trkpt lat="49.32876" lon="0.00747">
        <ele>5.6</ele>
        <time>2020-06-17T12:59:51Z</time>
      </trkpt>
      <trkpt lat="49.32879" lon="0.00756">
        <ele>5.7</ele>
        <time>2020-06-17T12:59:52Z</time>
      </trkpt>
      <trkpt lat="49.32883" lon="0.00762">
        <ele>5.7</ele>
        <time>2020-06-17T12:59:53Z</time>
      </trkpt>
      <trkpt lat="49.32887" lon="0.00769">
        <ele>5.7</ele>
        <time>2020-06-17T12:59:54Z</time>
      </trkpt>
      <trkpt lat="49.3289" lon="0.00775">
        <ele>5.7</ele>
        <time>2020-06-17T12:59:55Z</time>
      </trkpt>
      <trkpt lat="49.32894" lon="0.00781">
        <ele>5.7</ele>
        <time>2020-06-17T12:59:56Z</time>
      </trkpt>
      <trkpt lat="49.32897" lon="0.00785">
        <ele>5.7</ele>
        <time>2020-06-17T12:59:57Z</time>
      </trkpt>
      <trkpt lat="49.329" lon="0.00792">
        <ele>5.7</ele>
        <time>2020-06-17T12:59:58Z</time>
      </trkpt>
      <trkpt lat="49.32903" lon="0.008">
        <ele>5.7</ele>
        <time>2020-06-17T12:59:59Z</time>
      </trkpt>
      <trkpt lat="49.32906" lon="0.00808">
        <ele>5.7</ele>
        <time>2020-06-17T13:00:00Z</time>
      </trkpt>
      <trkpt lat="49.32908" lon="0.00815">
        <ele>5.8</ele>
        <time>2020-06-17T13:00:01Z</time>
      </trkpt>
      <trkpt lat="49.32912" lon="0.00822">
        <ele>5.8</ele>
        <time>2020-06-17T13:00:02Z</time>
      </trkpt>
      <trkpt lat="49.32917" lon="0.00829">
        <ele>5.8</ele>
        <time>2020-06-17T13:00:03Z</time>
      </trkpt>
      <trkpt lat="49.32921" lon="0.00835">
        <ele>5.8</ele>
        <time>2020-06-17T13:00:04Z</time>
      </trkpt>
      <trkpt lat="49.32924" lon="0.00841">
        <ele>5.8</ele>
        <time>2020-06-17T13:00:05Z</time>
      </trkpt>
      <trkpt lat="49.32928" lon="0.00847">
        <ele>5.8</ele>
        <time>2020-06-17T13:00:06Z</time>
      </trkpt>
      <trkpt lat="49.32931" lon="0.00853">
        <ele>5.8</ele>
        <time>2020-06-17T13:00:07Z</time>
      </trkpt>
      <trkpt lat="49.32934" lon="0.00859">
        <ele>5.9</ele>
        <time>2020-06-17T13:00:08Z</time>
      </trkpt>
      <trkpt lat="49.32938" lon="0.00865">
        <ele>5.9</ele>
        <time>2020-06-17T13:00:09Z</time>
      </trkpt>
      <trkpt lat="49.32941" lon="0.00871">
        <ele>5.9</ele>
        <time>2020-06-17T13:00:10Z</time>
      </trkpt>
      <trkpt lat="49.32945" lon="0.00877">
        <ele>5.9</ele>
        <time>2020-06-17T13:00:11Z</time>
      </trkpt>
      <trkpt lat="49.32948" lon="0.00883">
        <ele>5.9</ele>
        <time>2020-06-17T13:00:12Z</time>
      </trkpt>
      <trkpt lat="49.32951" lon="0.0089">
        <ele>6</ele>
        <time>2020-06-17T13:00:13Z</time>
      </trkpt>
      <trkpt lat="49.32955" lon="0.00897">
        <ele>6</ele>
        <time>2020-06-17T13:00:14Z</time>
      </trkpt>
      <trkpt lat="49.32959" lon="0.00903">
        <ele>6</ele>
        <time>2020-06-17T13:00:15Z</time>
      </trkpt>
      <trkpt lat="49.32962" lon="0.0091">
        <ele>6</ele>
        <time>2020-06-17T13:00:16Z</time>
      </trkpt>
      <trkpt lat="49.32966" lon="0.00916">
        <ele>6</ele>
        <time>2020-06-17T13:00:17Z</time>
      </trkpt>
      <trkpt lat="49.32969" lon="0.00922">
        <ele>6</ele>
        <time>2020-06-17T13:00:18Z</time>
      </trkpt>
      <trkpt lat="49.32971" lon="0.00928">
        <ele>6</ele>
        <time>2020-06-17T13:00:19Z</time>
      </trkpt>
      <trkpt lat="49.32974" lon="0.00935">
        <ele>6</ele>
        <time>2020-06-17T13:00:20Z</time>
      </trkpt>
      <trkpt lat="49.32977" lon="0.00941">
        <ele>6</ele>
        <time>2020-06-17T13:00:21Z</time>
      </trkpt>
      <trkpt lat="49.3298" lon="0.00947">
        <ele>6</ele>
        <time>2020-06-17T13:00:22Z</time>
      </trkpt>
      <trkpt lat="49.32983" lon="0.00952">
        <ele>6</ele>
        <time>2020-06-17T13:00:23Z</time>
      </trkpt>
      <trkpt lat="49.32985" lon="0.00957">
        <ele>6</ele>
        <time>2020-06-17T13:00:24Z</time>
      </trkpt>
      <trkpt lat="49.32988" lon="0.00962">
        <ele>6</ele>
        <time>2020-06-17T13:00:25Z</time>
      </trkpt>
      <trkpt lat="49.32991" lon="0.00968">
        <ele>6</ele>
        <time>2020-06-17T13:00:26Z</time>
      </trkpt>
      <trkpt lat="49.32994" lon="0.00974">
        <ele>6</ele>
        <time>2020-06-17T13:00:27Z</time>
      </trkpt>
      <trkpt lat="49.32997" lon="0.00979">
        <ele>6</ele>
        <time>2020-06-17T13:00:28Z</time>
      </trkpt>
      <trkpt lat="49.33" lon="0.00984">
        <ele>6</ele>
        <time>2020-06-17T13:00:29Z</time>
      </trkpt>
      <trkpt lat="49.33003" lon="0.0099">
        <ele>6.1</ele>
        <time>2020-06-17T13:00:30Z</time>
      </trkpt>
      <trkpt lat="49.33006" lon="0.00995">
        <ele>6.1</ele>
        <time>2020-06-17T13:00:31Z</time>
      </trkpt>
      <trkpt lat="49.33009" lon="0.01001">
        <ele>6.1</ele>
        <time>2020-06-17T13:00:32Z</time>
      </trkpt>
      <trkpt lat="49.33011" lon="0.01007">
        <ele>6.1</ele>
        <time>2020-06-17T13:00:33Z</time>
      </trkpt>
      <trkpt lat="49.33012" lon="0.01013">
        <ele>6.1</ele>
        <time>2020-06-17T13:00:34Z</time>
      </trkpt>
      <trkpt lat="49.33013" lon="0.01019">
        <ele>6.2</ele>
        <time>2020-06-17T13:00:35Z</time>
      </trkpt>
      <trkpt lat="49.33013" lon="0.01025">
        <ele>6.2</ele>
        <time>2020-06-17T13:00:36Z</time>
      </trkpt>
      <trkpt lat="49.33012" lon="0.01031">
        <ele>6.2</ele>
        <time>2020-06-17T13:00:37Z</time>
      </trkpt>
      <trkpt lat="49.33011" lon="0.01037">
        <ele>6.2</ele>
        <time>2020-06-17T13:00:38Z</time>
      </trkpt>
      <trkpt lat="49.3301" lon="0.01043">
        <ele>6.2</ele>
        <time>2020-06-17T13:00:39Z</time>
      </trkpt>
      <trkpt lat="49.33009" lon="0.0105">
        <ele>6.2</ele>
        <time>2020-06-17T13:00:40Z</time>
      </trkpt>
      <trkpt lat="49.33009" lon="0.01056">
        <ele>6.3</ele>
        <time>2020-06-17T13:00:41Z</time>
      </trkpt>
      <trkpt lat="49.33011" lon="0.0106">
        <ele>6.3</ele>
        <time>2020-06-17T13:00:42Z</time>
      </trkpt>
      <trkpt lat="49.33014" lon="0.01063">
        <ele>6.3</ele>
        <time>2020-06-17T13:00:43Z</time>
      </trkpt>
      <trkpt lat="49.33017" lon="0.01063">
        <ele>6.3</ele>
        <time>2020-06-17T13:00:44Z</time>
      </trkpt>
      <trkpt lat="49.33021" lon="0.01062">
        <ele>6.3</ele>
        <time>2020-06-17T13:00:45Z</time>
      </trkpt>
      <trkpt lat="49.33025" lon="0.01062">
        <ele>6.3</ele>
        <time>2020-06-17T13:00:46Z</time>
      </trkpt>
      <trkpt lat="49.33026" lon="0.01062">
        <ele>6.3</ele>
        <time>2020-06-17T13:00:47Z</time>
      </trkpt>
      <trkpt lat="49.3303" lon="0.01063">
        <ele>6.3</ele>
        <time>2020-06-17T13:00:48Z</time>
      </trkpt>
      <trkpt lat="49.33034" lon="0.01068">
        <ele>6.3</ele>
        <time>2020-06-17T13:00:49Z</time>
      </trkpt>
      <trkpt lat="49.33038" lon="0.01073">
        <ele>6.3</ele>
        <time>2020-06-17T13:00:50Z</time>
      </trkpt>
      <trkpt lat="49.33041" lon="0.01078">
        <ele>6.4</ele>
        <time>2020-06-17T13:00:51Z</time>
      </trkpt>
      <trkpt lat="49.33043" lon="0.01082">
        <ele>6.4</ele>
        <time>2020-06-17T13:00:52Z</time>
      </trkpt>
      <trkpt lat="49.33045" lon="0.01087">
        <ele>6.4</ele>
        <time>2020-06-17T13:00:53Z</time>
      </trkpt>
      <trkpt lat="49.3305" lon="0.01092">
        <ele>6.4</ele>
        <time>2020-06-17T13:00:54Z</time>
      </trkpt>
      <trkpt lat="49.33053" lon="0.01097">
        <ele>6.4</ele>
        <time>2020-06-17T13:00:55Z</time>
      </trkpt>
      <trkpt lat="49.33056" lon="0.01103">
        <ele>6.4</ele>
        <time>2020-06-17T13:00:56Z</time>
      </trkpt>
      <trkpt lat="49.33059" lon="0.0111">
        <ele>6.4</ele>
        <time>2020-06-17T13:00:57Z</time>
      </trkpt>
      <trkpt lat="49.33063" lon="0.01117">
        <ele>6.4</ele>
        <time>2020-06-17T13:00:58Z</time>
      </trkpt>
      <trkpt lat="49.33068" lon="0.01124">
        <ele>6.4</ele>
        <time>2020-06-17T13:00:59Z</time>
      </trkpt>
      <trkpt lat="49.33071" lon="0.0113">
        <ele>6.5</ele>
        <time>2020-06-17T13:01:00Z</time>
      </trkpt>
      <trkpt lat="49.33075" lon="0.01137">
        <ele>6.5</ele>
        <time>2020-06-17T13:01:01Z</time>
      </trkpt>
      <trkpt lat="49.33078" lon="0.01144">
        <ele>6.5</ele>
        <time>2020-06-17T13:01:02Z</time>
      </trkpt>
      <trkpt lat="49.33081" lon="0.0115">
        <ele>6.5</ele>
        <time>2020-06-17T13:01:03Z</time>
      </trkpt>
      <trkpt lat="49.33085" lon="0.01157">
        <ele>6.5</ele>
        <time>2020-06-17T13:01:04Z</time>
      </trkpt>
      <trkpt lat="49.33088" lon="0.01163">
        <ele>6.5</ele>
        <time>2020-06-17T13:01:05Z</time>
      </trkpt>
      <trkpt lat="49.33091" lon="0.0117">
        <ele>6.5</ele>
        <time>2020-06-17T13:01:06Z</time>
      </trkpt>
      <trkpt lat="49.33095" lon="0.01177">
        <ele>6.5</ele>
        <time>2020-06-17T13:01:07Z</time>
      </trkpt>
      <trkpt lat="49.33098" lon="0.01183">
        <ele>6.4</ele>
        <time>2020-06-17T13:01:08Z</time>
      </trkpt>
      <trkpt lat="49.33102" lon="0.0119">
        <ele>6.5</ele>
        <time>2020-06-17T13:01:09Z</time>
      </trkpt>
      <trkpt lat="49.33105" lon="0.01197">
        <ele>6.5</ele>
        <time>2020-06-17T13:01:10Z</time>
      </trkpt>
      <trkpt lat="49.33109" lon="0.01203">
        <ele>6.5</ele>
        <time>2020-06-17T13:01:11Z</time>
      </trkpt>
      <trkpt lat="49.33112" lon="0.01209">
        <ele>6.5</ele>
        <time>2020-06-17T13:01:12Z</time>
      </trkpt>
      <trkpt lat="49.33115" lon="0.01215">
        <ele>6.5</ele>
        <time>2020-06-17T13:01:13Z</time>
      </trkpt>
      <trkpt lat="49.33117" lon="0.0122">
        <ele>6.6</ele>
        <time>2020-06-17T13:01:14Z</time>
      </trkpt>
      <trkpt lat="49.3312" lon="0.01225">
        <ele>6.6</ele>
        <time>2020-06-17T13:01:15Z</time>
      </trkpt>
      <trkpt lat="49.33123" lon="0.0123">
        <ele>6.6</ele>
        <time>2020-06-17T13:01:16Z</time>
      </trkpt>
      <trkpt lat="49.33126" lon="0.01235">
        <ele>6.6</ele>
        <time>2020-06-17T13:01:17Z</time>
      </trkpt>
      <trkpt lat="49.33129" lon="0.0124">
        <ele>6.6</ele>
        <time>2020-06-17T13:01:18Z</time>
      </trkpt>
      <trkpt lat="49.33131" lon="0.01245">
        <ele>6.6</ele>
        <time>2020-06-17T13:01:19Z</time>
      </trkpt>
      <trkpt lat="49.33133" lon="0.0125">
        <ele>6.7</ele>
        <time>2020-06-17T13:01:20Z</time>
      </trkpt>
      <trkpt lat="49.33137" lon="0.01256">
        <ele>6.7</ele>
        <time>2020-06-17T13:01:21Z</time>
      </trkpt>
      <trkpt lat="49.33139" lon="0.01263">
        <ele>6.7</ele>
        <time>2020-06-17T13:01:22Z</time>
      </trkpt>
      <trkpt lat="49.33142" lon="0.01271">
        <ele>6.7</ele>
        <time>2020-06-17T13:01:23Z</time>
      </trkpt>
      <trkpt lat="49.33145" lon="0.01278">
        <ele>6.7</ele>
        <time>2020-06-17T13:01:24Z</time>
      </trkpt>
      <trkpt lat="49.33148" lon="0.01284">
        <ele>6.8</ele>
        <time>2020-06-17T13:01:25Z</time>
      </trkpt>
      <trkpt lat="49.3315" lon="0.01291">
        <ele>6.8</ele>
        <time>2020-06-17T13:01:26Z</time>
      </trkpt>
      <trkpt lat="49.33153" lon="0.01297">
        <ele>6.8</ele>
        <time>2020-06-17T13:01:27Z</time>
      </trkpt>
      <trkpt lat="49.33157" lon="0.01303">
        <ele>6.9</ele>
        <time>2020-06-17T13:01:28Z</time>
      </trkpt>
      <trkpt lat="49.3316" lon="0.01309">
        <ele>6.9</ele>
        <time>2020-06-17T13:01:29Z</time>
      </trkpt>
      <trkpt lat="49.33162" lon="0.01314">
        <ele>6.9</ele>
        <time>2020-06-17T13:01:30Z</time>
      </trkpt>
      <trkpt lat="49.33166" lon="0.01319">
        <ele>7</ele>
        <time>2020-06-17T13:01:31Z</time>
      </trkpt>
      <trkpt lat="49.33168" lon="0.01325">
        <ele>7</ele>
        <time>2020-06-17T13:01:32Z</time>
      </trkpt>
      <trkpt lat="49.33172" lon="0.0133">
        <ele>7.1</ele>
        <time>2020-06-17T13:01:33Z</time>
      </trkpt>
      <trkpt lat="49.33174" lon="0.01337">
        <ele>7.1</ele>
        <time>2020-06-17T13:01:34Z</time>
      </trkpt>
      <trkpt lat="49.33177" lon="0.01342">
        <ele>7.1</ele>
        <time>2020-06-17T13:01:35Z</time>
      </trkpt>
      <trkpt lat="49.33179" lon="0.01347">
        <ele>7.2</ele>
        <time>2020-06-17T13:01:36Z</time>
      </trkpt>
      <trkpt lat="49.33182" lon="0.01353">
        <ele>7.2</ele>
        <time>2020-06-17T13:01:37Z</time>
      </trkpt>
      <trkpt lat="49.33185" lon="0.01358">
        <ele>7.2</ele>
        <time>2020-06-17T13:01:38Z</time>
      </trkpt>
      <trkpt lat="49.33187" lon="0.01364">
        <ele>7.2</ele>
        <time>2020-06-17T13:01:39Z</time>
      </trkpt>
      <trkpt lat="49.33189" lon="0.0137">
        <ele>7.2</ele>
        <time>2020-06-17T13:01:40Z</time>
      </trkpt>
      <trkpt lat="49.33191" lon="0.01375">
        <ele>7.2</ele>
        <time>2020-06-17T13:01:41Z</time>
      </trkpt>
      <trkpt lat="49.33194" lon="0.0138">
        <ele>7.2</ele>
        <time>2020-06-17T13:01:42Z</time>
      </trkpt>
      <trkpt lat="49.33197" lon="0.01385">
        <ele>7.2</ele>
        <time>2020-06-17T13:01:43Z</time>
      </trkpt>
      <trkpt lat="49.332" lon="0.0139">
        <ele>7.2</ele>
        <time>2020-06-17T13:01:44Z</time>
      </trkpt>
      <trkpt lat="49.33202" lon="0.01396">
        <ele>7.2</ele>
        <time>2020-06-17T13:01:45Z</time>
      </trkpt>
      <trkpt lat="49.33205" lon="0.01401">
        <ele>7.2</ele>
        <time>2020-06-17T13:01:46Z</time>
      </trkpt>
      <trkpt lat="49.33206" lon="0.01407">
        <ele>7.2</ele>
        <time>2020-06-17T13:01:47Z</time>
      </trkpt>
      <trkpt lat="49.33209" lon="0.01412">
        <ele>7.2</ele>
        <time>2020-06-17T13:01:48Z</time>
      </trkpt>
      <trkpt lat="49.33211" lon="0.01416">
        <ele>7.2</ele>
        <time>2020-06-17T13:01:49Z</time>
      </trkpt>
      <trkpt lat="49.33213" lon="0.0142">
        <ele>7.3</ele>
        <time>2020-06-17T13:01:50Z</time>
      </trkpt>
      <trkpt lat="49.33215" lon="0.01425">
        <ele>7.3</ele>
        <time>2020-06-17T13:01:51Z</time>
      </trkpt>
      <trkpt lat="49.33217" lon="0.01429">
        <ele>7.3</ele>
        <time>2020-06-17T13:01:52Z</time>
      </trkpt>
      <trkpt lat="49.3322" lon="0.01433">
        <ele>7.3</ele>
        <time>2020-06-17T13:01:53Z</time>
      </trkpt>
      <trkpt lat="49.33222" lon="0.01437">
        <ele>7.3</ele>
        <time>2020-06-17T13:01:54Z</time>
      </trkpt>
      <trkpt lat="49.33224" lon="0.01442">
        <ele>7.2</ele>
        <time>2020-06-17T13:01:55Z</time>
      </trkpt>
      <trkpt lat="49.33226" lon="0.01447">
        <ele>7.2</ele>
        <time>2020-06-17T13:01:56Z</time>
      </trkpt>
      <trkpt lat="49.33229" lon="0.01452">
        <ele>7.2</ele>
        <time>2020-06-17T13:01:57Z</time>
      </trkpt>
      <trkpt lat="49.33231" lon="0.01457">
        <ele>7.2</ele>
        <time>2020-06-17T13:01:58Z</time>
      </trkpt>
      <trkpt lat="49.33233" lon="0.01462">
        <ele>7.1</ele>
        <time>2020-06-17T13:01:59Z</time>
      </trkpt>
      <trkpt lat="49.33236" lon="0.01466">
        <ele>7.1</ele>
        <time>2020-06-17T13:02:00Z</time>
      </trkpt>
      <trkpt lat="49.33239" lon="0.0147">
        <ele>7.1</ele>
        <time>2020-06-17T13:02:01Z</time>
      </trkpt>
      <trkpt lat="49.33241" lon="0.01475">
        <ele>7.1</ele>
        <time>2020-06-17T13:02:02Z</time>
      </trkpt>
      <trkpt lat="49.33244" lon="0.01479">
        <ele>7</ele>
        <time>2020-06-17T13:02:03Z</time>
      </trkpt>
      <trkpt lat="49.33246" lon="0.01483">
        <ele>7</ele>
        <time>2020-06-17T13:02:04Z</time>
      </trkpt>
      <trkpt lat="49.33247" lon="0.01487">
        <ele>7</ele>
        <time>2020-06-17T13:02:05Z</time>
      </trkpt>
      <trkpt lat="49.33248" lon="0.01491">
        <ele>6.9</ele>
        <time>2020-06-17T13:02:06Z</time>
      </trkpt>
      <trkpt lat="49.3325" lon="0.01497">
        <ele>6.9</ele>
        <time>2020-06-17T13:02:07Z</time>
      </trkpt>
      <trkpt lat="49.33252" lon="0.01503">
        <ele>6.9</ele>
        <time>2020-06-17T13:02:08Z</time>
      </trkpt>
      <trkpt lat="49.33254" lon="0.01509">
        <ele>6.8</ele>
        <time>2020-06-17T13:02:09Z</time>
      </trkpt>
      <trkpt lat="49.33257" lon="0.01514">
        <ele>6.8</ele>
        <time>2020-06-17T13:02:10Z</time>
      </trkpt>
      <trkpt lat="49.33261" lon="0.01519">
        <ele>6.7</ele>
        <time>2020-06-17T13:02:11Z</time>
      </trkpt>
      <trkpt lat="49.33264" lon="0.01525">
        <ele>6.7</ele>
        <time>2020-06-17T13:02:12Z</time>
      </trkpt>
      <trkpt lat="49.33266" lon="0.01531">
        <ele>6.7</ele>
        <time>2020-06-17T13:02:13Z</time>
      </trkpt>
      <trkpt lat="49.3327" lon="0.01538">
        <ele>6.6</ele>
        <time>2020-06-17T13:02:14Z</time>
      </trkpt>
      <trkpt lat="49.33273" lon="0.01545">
        <ele>6.6</ele>
        <time>2020-06-17T13:02:15Z</time>
      </trkpt>
      <trkpt lat="49.33278" lon="0.01552">
        <ele>6.6</ele>
        <time>2020-06-17T13:02:16Z</time>
      </trkpt>
      <trkpt lat="49.33281" lon="0.01559">
        <ele>6.6</ele>
        <time>2020-06-17T13:02:17Z</time>
      </trkpt>
      <trkpt lat="49.33284" lon="0.01565">
        <ele>6.5</ele>
        <time>2020-06-17T13:02:18Z</time>
      </trkpt>
      <trkpt lat="49.33288" lon="0.01571">
        <ele>6.5</ele>
        <time>2020-06-17T13:02:19Z</time>
      </trkpt>
      <trkpt lat="49.33292" lon="0.01576">
        <ele>6.5</ele>
        <time>2020-06-17T13:02:20Z</time>
      </trkpt>
      <trkpt lat="49.33295" lon="0.01582">
        <ele>6.5</ele>
        <time>2020-06-17T13:02:21Z</time>
      </trkpt>
      <trkpt lat="49.33298" lon="0.01588">
        <ele>6.5</ele>
        <time>2020-06-17T13:02:22Z</time>
      </trkpt>
      <trkpt lat="49.333" lon="0.01593">
        <ele>6.4</ele>
        <time>2020-06-17T13:02:23Z</time>
      </trkpt>
      <trkpt lat="49.33303" lon="0.01598">
        <ele>6.4</ele>
        <time>2020-06-17T13:02:24Z</time>
      </trkpt>
      <trkpt lat="49.33305" lon="0.01604">
        <ele>6.3</ele>
        <time>2020-06-17T13:02:25Z</time>
      </trkpt>
      <trkpt lat="49.33306" lon="0.01608">
        <ele>6.3</ele>
        <time>2020-06-17T13:02:26Z</time>
      </trkpt>
      <trkpt lat="49.33308" lon="0.01613">
        <ele>6.3</ele>
        <time>2020-06-17T13:02:27Z</time>
      </trkpt>
      <trkpt lat="49.33309" lon="0.01617">
        <ele>6.3</ele>
        <time>2020-06-17T13:02:28Z</time>
      </trkpt>
      <trkpt lat="49.3331" lon="0.01623">
        <ele>6.3</ele>
        <time>2020-06-17T13:02:29Z</time>
      </trkpt>
      <trkpt lat="49.3331" lon="0.01628">
        <ele>6.3</ele>
        <time>2020-06-17T13:02:30Z</time>
      </trkpt>
      <trkpt lat="49.33312" lon="0.01634">
        <ele>6.2</ele>
        <time>2020-06-17T13:02:31Z</time>
      </trkpt>
      <trkpt lat="49.33315" lon="0.01638">
        <ele>6.2</ele>
        <time>2020-06-17T13:02:32Z</time>
      </trkpt>
      <trkpt lat="49.33318" lon="0.01643">
        <ele>6.2</ele>
        <time>2020-06-17T13:02:33Z</time>
      </trkpt>
      <trkpt lat="49.3332" lon="0.01648">
        <ele>6.2</ele>
        <time>2020-06-17T13:02:34Z</time>
      </trkpt>
      <trkpt lat="49.33323" lon="0.01654">
        <ele>6.2</ele>
        <time>2020-06-17T13:02:35Z</time>
      </trkpt>
      <trkpt lat="49.33326" lon="0.01659">
        <ele>6.2</ele>
        <time>2020-06-17T13:02:36Z</time>
      </trkpt>
      <trkpt lat="49.33329" lon="0.01665">
        <ele>6.2</ele>
        <time>2020-06-17T13:02:37Z</time>
      </trkpt>
      <trkpt lat="49.33332" lon="0.0167">
        <ele>6.2</ele>
        <time>2020-06-17T13:02:38Z</time>
      </trkpt>
      <trkpt lat="49.33336" lon="0.01676">
        <ele>6.2</ele>
        <time>2020-06-17T13:02:39Z</time>
      </trkpt>
      <trkpt lat="49.33338" lon="0.01682">
        <ele>6.2</ele>
        <time>2020-06-17T13:02:40Z</time>
      </trkpt>
      <trkpt lat="49.33341" lon="0.01687">
        <ele>6.2</ele>
        <time>2020-06-17T13:02:41Z</time>
      </trkpt>
      <trkpt lat="49.33344" lon="0.01693">
        <ele>6.2</ele>
        <time>2020-06-17T13:02:42Z</time>
      </trkpt>
      <trkpt lat="49.33347" lon="0.01699">
        <ele>6.2</ele>
        <time>2020-06-17T13:02:43Z</time>
      </trkpt>
      <trkpt lat="49.3335" lon="0.01705">
        <ele>6.2</ele>
        <time>2020-06-17T13:02:44Z</time>
      </trkpt>
      <trkpt lat="49.33353" lon="0.01711">
        <ele>6.3</ele>
        <time>2020-06-17T13:02:45Z</time>
      </trkpt>
      <trkpt lat="49.33357" lon="0.01719">
        <ele>6.3</ele>
        <time>2020-06-17T13:02:46Z</time>
      </trkpt>
      <trkpt lat="49.3336" lon="0.01726">
        <ele>6.2</ele>
        <time>2020-06-17T13:02:47Z</time>
      </trkpt>
      <trkpt lat="49.33363" lon="0.01733">
        <ele>6.2</ele>
        <time>2020-06-17T13:02:48Z</time>
      </trkpt>
      <trkpt lat="49.33366" lon="0.01742">
        <ele>6.3</ele>
        <time>2020-06-17T13:02:49Z</time>
      </trkpt>
      <trkpt lat="49.33369" lon="0.01749">
        <ele>6.3</ele>
        <time>2020-06-17T13:02:50Z</time>
      </trkpt>
      <trkpt lat="49.33372" lon="0.01756">
        <ele>6.3</ele>
        <time>2020-06-17T13:02:51Z</time>
      </trkpt>
      <trkpt lat="49.33375" lon="0.01762">
        <ele>6.3</ele>
        <time>2020-06-17T13:02:52Z</time>
      </trkpt>
      <trkpt lat="49.33378" lon="0.01769">
        <ele>6.3</ele>
        <time>2020-06-17T13:02:53Z</time>
      </trkpt>
      <trkpt lat="49.33382" lon="0.01775">
        <ele>6.3</ele>
        <time>2020-06-17T13:02:54Z</time>
      </trkpt>
      <trkpt lat="49.33386" lon="0.01782">
        <ele>6.3</ele>
        <time>2020-06-17T13:02:55Z</time>
      </trkpt>
      <trkpt lat="49.3339" lon="0.01789">
        <ele>6.3</ele>
        <time>2020-06-17T13:02:56Z</time>
      </trkpt>
      <trkpt lat="49.33394" lon="0.01795">
        <ele>6.3</ele>
        <time>2020-06-17T13:02:57Z</time>
      </trkpt>
      <trkpt lat="49.33398" lon="0.01801">
        <ele>6.3</ele>
        <time>2020-06-17T13:02:58Z</time>
      </trkpt>
      <trkpt lat="49.33401" lon="0.01807">
        <ele>6.4</ele>
        <time>2020-06-17T13:02:59Z</time>
      </trkpt>
      <trkpt lat="49.33405" lon="0.01813">
        <ele>6.4</ele>
        <time>2020-06-17T13:03:00Z</time>
      </trkpt>
      <trkpt lat="49.3341" lon="0.01819">
        <ele>6.4</ele>
        <time>2020-06-17T13:03:01Z</time>
      </trkpt>
      <trkpt lat="49.33414" lon="0.01825">
        <ele>6.4</ele>
        <time>2020-06-17T13:03:02Z</time>
      </trkpt>
      <trkpt lat="49.33418" lon="0.01831">
        <ele>6.4</ele>
        <time>2020-06-17T13:03:03Z</time>
      </trkpt>
      <trkpt lat="49.33422" lon="0.01836">
        <ele>6.4</ele>
        <time>2020-06-17T13:03:04Z</time>
      </trkpt>
      <trkpt lat="49.33426" lon="0.01843">
        <ele>6.4</ele>
        <time>2020-06-17T13:03:05Z</time>
      </trkpt>
      <trkpt lat="49.33429" lon="0.01849">
        <ele>6.4</ele>
        <time>2020-06-17T13:03:06Z</time>
      </trkpt>
      <trkpt lat="49.33433" lon="0.01856">
        <ele>6.4</ele>
        <time>2020-06-17T13:03:07Z</time>
      </trkpt>
      <trkpt lat="49.33436" lon="0.01862">
        <ele>6.4</ele>
        <time>2020-06-17T13:03:08Z</time>
      </trkpt>
      <trkpt lat="49.3344" lon="0.01869">
        <ele>6.4</ele>
        <time>2020-06-17T13:03:09Z</time>
      </trkpt>
      <trkpt lat="49.33442" lon="0.01877">
        <ele>6.4</ele>
        <time>2020-06-17T13:03:10Z</time>
      </trkpt>
      <trkpt lat="49.33445" lon="0.01885">
        <ele>6.4</ele>
        <time>2020-06-17T13:03:11Z</time>
      </trkpt>
      <trkpt lat="49.33449" lon="0.01893">
        <ele>6.4</ele>
        <time>2020-06-17T13:03:12Z</time>
      </trkpt>
      <trkpt lat="49.33452" lon="0.019">
        <ele>6.4</ele>
        <time>2020-06-17T13:03:13Z</time>
      </trkpt>
      <trkpt lat="49.33456" lon="0.01907">
        <ele>6.3</ele>
        <time>2020-06-17T13:03:14Z</time>
      </trkpt>
      <trkpt lat="49.3346" lon="0.01915">
        <ele>6.3</ele>
        <time>2020-06-17T13:03:15Z</time>
      </trkpt>
      <trkpt lat="49.33463" lon="0.01922">
        <ele>6.3</ele>
        <time>2020-06-17T13:03:16Z</time>
      </trkpt>
      <trkpt lat="49.33467" lon="0.01929">
        <ele>6.3</ele>
        <time>2020-06-17T13:03:17Z</time>
      </trkpt>
      <trkpt lat="49.3347" lon="0.01936">
        <ele>6.3</ele>
        <time>2020-06-17T13:03:18Z</time>
      </trkpt>
      <trkpt lat="49.33473" lon="0.01943">
        <ele>6.3</ele>
        <time>2020-06-17T13:03:19Z</time>
      </trkpt>
      <trkpt lat="49.33476" lon="0.01951">
        <ele>6.3</ele>
        <time>2020-06-17T13:03:20Z</time>
      </trkpt>
      <trkpt lat="49.3348" lon="0.01959">
        <ele>6.4</ele>
        <time>2020-06-17T13:03:21Z</time>
      </trkpt>
      <trkpt lat="49.33484" lon="0.01967">
        <ele>6.4</ele>
        <time>2020-06-17T13:03:22Z</time>
      </trkpt>
      <trkpt lat="49.33488" lon="0.01975">
        <ele>6.4</ele>
        <time>2020-06-17T13:03:23Z</time>
      </trkpt>
      <trkpt lat="49.33492" lon="0.01982">
        <ele>6.5</ele>
        <time>2020-06-17T13:03:24Z</time>
      </trkpt>
      <trkpt lat="49.33496" lon="0.01988">
        <ele>6.5</ele>
        <time>2020-06-17T13:03:25Z</time>
      </trkpt>
      <trkpt lat="49.335" lon="0.01995">
        <ele>6.5</ele>
        <time>2020-06-17T13:03:26Z</time>
      </trkpt>
      <trkpt lat="49.33505" lon="0.02003">
        <ele>6.5</ele>
        <time>2020-06-17T13:03:27Z</time>
      </trkpt>
      <trkpt lat="49.33509" lon="0.02011">
        <ele>6.5</ele>
        <time>2020-06-17T13:03:28Z</time>
      </trkpt>
      <trkpt lat="49.33512" lon="0.02018">
        <ele>6.6</ele>
        <time>2020-06-17T13:03:29Z</time>
      </trkpt>
      <trkpt lat="49.33515" lon="0.02025">
        <ele>6.6</ele>
        <time>2020-06-17T13:03:30Z</time>
      </trkpt>
      <trkpt lat="49.33518" lon="0.02031">
        <ele>6.6</ele>
        <time>2020-06-17T13:03:31Z</time>
      </trkpt>
      <trkpt lat="49.33522" lon="0.02039">
        <ele>6.6</ele>
        <time>2020-06-17T13:03:32Z</time>
      </trkpt>
      <trkpt lat="49.33525" lon="0.02047">
        <ele>6.6</ele>
        <time>2020-06-17T13:03:33Z</time>
      </trkpt>
      <trkpt lat="49.33529" lon="0.02054">
        <ele>6.6</ele>
        <time>2020-06-17T13:03:34Z</time>
      </trkpt>
      <trkpt lat="49.33532" lon="0.0206">
        <ele>6.6</ele>
        <time>2020-06-17T13:03:35Z</time>
      </trkpt>
      <trkpt lat="49.33535" lon="0.02067">
        <ele>6.6</ele>
        <time>2020-06-17T13:03:36Z</time>
      </trkpt>
      <trkpt lat="49.33538" lon="0.02073">
        <ele>6.6</ele>
        <time>2020-06-17T13:03:37Z</time>
      </trkpt>
      <trkpt lat="49.33541" lon="0.0208">
        <ele>6.6</ele>
        <time>2020-06-17T13:03:38Z</time>
      </trkpt>
      <trkpt lat="49.33544" lon="0.02087">
        <ele>6.6</ele>
        <time>2020-06-17T13:03:39Z</time>
      </trkpt>
      <trkpt lat="49.33547" lon="0.02095">
        <ele>6.6</ele>
        <time>2020-06-17T13:03:40Z</time>
      </trkpt>
      <trkpt lat="49.33551" lon="0.02103">
        <ele>6.6</ele>
        <time>2020-06-17T13:03:41Z</time>
      </trkpt>
      <trkpt lat="49.33555" lon="0.0211">
        <ele>6.5</ele>
        <time>2020-06-17T13:03:42Z</time>
      </trkpt>
      <trkpt lat="49.33559" lon="0.02118">
        <ele>6.5</ele>
        <time>2020-06-17T13:03:43Z</time>
      </trkpt>
      <trkpt lat="49.33562" lon="0.02126">
        <ele>6.5</ele>
        <time>2020-06-17T13:03:44Z</time>
      </trkpt>
      <trkpt lat="49.33567" lon="0.02135">
        <ele>6.5</ele>
        <time>2020-06-17T13:03:45Z</time>
      </trkpt>
      <trkpt lat="49.33571" lon="0.02143">
        <ele>6.5</ele>
        <time>2020-06-17T13:03:46Z</time>
      </trkpt>
      <trkpt lat="49.33574" lon="0.02151">
        <ele>6.5</ele>
        <time>2020-06-17T13:03:47Z</time>
      </trkpt>
      <trkpt lat="49.33578" lon="0.02158">
        <ele>6.5</ele>
        <time>2020-06-17T13:03:48Z</time>
      </trkpt>
      <trkpt lat="49.3358" lon="0.02167">
        <ele>6.5</ele>
        <time>2020-06-17T13:03:49Z</time>
      </trkpt>
      <trkpt lat="49.33583" lon="0.02176">
        <ele>6.5</ele>
        <time>2020-06-17T13:03:50Z</time>
      </trkpt>
      <trkpt lat="49.33587" lon="0.02183">
        <ele>6.5</ele>
        <time>2020-06-17T13:03:51Z</time>
      </trkpt>
      <trkpt lat="49.3359" lon="0.0219">
        <ele>6.5</ele>
        <time>2020-06-17T13:03:52Z</time>
      </trkpt>
      <trkpt lat="49.33594" lon="0.02197">
        <ele>6.5</ele>
        <time>2020-06-17T13:03:53Z</time>
      </trkpt>
      <trkpt lat="49.33597" lon="0.02203">
        <ele>6.5</ele>
        <time>2020-06-17T13:03:54Z</time>
      </trkpt>
      <trkpt lat="49.33601" lon="0.0221">
        <ele>6.5</ele>
        <time>2020-06-17T13:03:55Z</time>
      </trkpt>
      <trkpt lat="49.33604" lon="0.02217">
        <ele>6.5</ele>
        <time>2020-06-17T13:03:56Z</time>
      </trkpt>
      <trkpt lat="49.33608" lon="0.02223">
        <ele>6.5</ele>
        <time>2020-06-17T13:03:57Z</time>
      </trkpt>
      <trkpt lat="49.33611" lon="0.0223">
        <ele>6.5</ele>
        <time>2020-06-17T13:03:58Z</time>
      </trkpt>
      <trkpt lat="49.33614" lon="0.02236">
        <ele>6.5</ele>
        <time>2020-06-17T13:03:59Z</time>
      </trkpt>
      <trkpt lat="49.33618" lon="0.02242">
        <ele>6.5</ele>
        <time>2020-06-17T13:04:00Z</time>
      </trkpt>
      <trkpt lat="49.33622" lon="0.0225">
        <ele>6.5</ele>
        <time>2020-06-17T13:04:01Z</time>
      </trkpt>
      <trkpt lat="49.33625" lon="0.02255">
        <ele>6.5</ele>
        <time>2020-06-17T13:04:02Z</time>
      </trkpt>
      <trkpt lat="49.33629" lon="0.02262">
        <ele>6.5</ele>
        <time>2020-06-17T13:04:03Z</time>
      </trkpt>
      <trkpt lat="49.33633" lon="0.0227">
        <ele>6.5</ele>
        <time>2020-06-17T13:04:04Z</time>
      </trkpt>
      <trkpt lat="49.33638" lon="0.02277">
        <ele>6.5</ele>
        <time>2020-06-17T13:04:05Z</time>
      </trkpt>
      <trkpt lat="49.33642" lon="0.02283">
        <ele>6.5</ele>
        <time>2020-06-17T13:04:06Z</time>
      </trkpt>
      <trkpt lat="49.33645" lon="0.0229">
        <ele>6.5</ele>
        <time>2020-06-17T13:04:07Z</time>
      </trkpt>
      <trkpt lat="49.33649" lon="0.02298">
        <ele>6.5</ele>
        <time>2020-06-17T13:04:08Z</time>
      </trkpt>
      <trkpt lat="49.33653" lon="0.02305">
        <ele>6.5</ele>
        <time>2020-06-17T13:04:09Z</time>
      </trkpt>
      <trkpt lat="49.33656" lon="0.02312">
        <ele>6.5</ele>
        <time>2020-06-17T13:04:10Z</time>
      </trkpt>
      <trkpt lat="49.3366" lon="0.02318">
        <ele>6.5</ele>
        <time>2020-06-17T13:04:11Z</time>
      </trkpt>
      <trkpt lat="49.33664" lon="0.02325">
        <ele>6.5</ele>
        <time>2020-06-17T13:04:12Z</time>
      </trkpt>
      <trkpt lat="49.33667" lon="0.02332">
        <ele>6.6</ele>
        <time>2020-06-17T13:04:13Z</time>
      </trkpt>
      <trkpt lat="49.3367" lon="0.02341">
        <ele>6.5</ele>
        <time>2020-06-17T13:04:14Z</time>
      </trkpt>
      <trkpt lat="49.33674" lon="0.02349">
        <ele>6.5</ele>
        <time>2020-06-17T13:04:15Z</time>
      </trkpt>
      <trkpt lat="49.33678" lon="0.02358">
        <ele>6.5</ele>
        <time>2020-06-17T13:04:16Z</time>
      </trkpt>
      <trkpt lat="49.33681" lon="0.02365">
        <ele>6.5</ele>
        <time>2020-06-17T13:04:17Z</time>
      </trkpt>
      <trkpt lat="49.33685" lon="0.02372">
        <ele>6.5</ele>
        <time>2020-06-17T13:04:18Z</time>
      </trkpt>
      <trkpt lat="49.33689" lon="0.0238">
        <ele>6.5</ele>
        <time>2020-06-17T13:04:19Z</time>
      </trkpt>
      <trkpt lat="49.33693" lon="0.02387">
        <ele>6.5</ele>
        <time>2020-06-17T13:04:20Z</time>
      </trkpt>
      <trkpt lat="49.33695" lon="0.02394">
        <ele>6.5</ele>
        <time>2020-06-17T13:04:21Z</time>
      </trkpt>
      <trkpt lat="49.33699" lon="0.02401">
        <ele>6.5</ele>
        <time>2020-06-17T13:04:22Z</time>
      </trkpt>
      <trkpt lat="49.33703" lon="0.02408">
        <ele>6.5</ele>
        <time>2020-06-17T13:04:23Z</time>
      </trkpt>
      <trkpt lat="49.33707" lon="0.02415">
        <ele>6.5</ele>
        <time>2020-06-17T13:04:24Z</time>
      </trkpt>
      <trkpt lat="49.3371" lon="0.02423">
        <ele>6.5</ele>
        <time>2020-06-17T13:04:25Z</time>
      </trkpt>
      <trkpt lat="49.33713" lon="0.0243">
        <ele>6.5</ele>
        <time>2020-06-17T13:04:26Z</time>
      </trkpt>
      <trkpt lat="49.33716" lon="0.02438">
        <ele>6.5</ele>
        <time>2020-06-17T13:04:27Z</time>
      </trkpt>
      <trkpt lat="49.33719" lon="0.02445">
        <ele>6.5</ele>
        <time>2020-06-17T13:04:28Z</time>
      </trkpt>
      <trkpt lat="49.33723" lon="0.02452">
        <ele>6.5</ele>
        <time>2020-06-17T13:04:29Z</time>
      </trkpt>
      <trkpt lat="49.33727" lon="0.02458">
        <ele>6.5</ele>
        <time>2020-06-17T13:04:30Z</time>
      </trkpt>
      <trkpt lat="49.33731" lon="0.02465">
        <ele>6.5</ele>
        <time>2020-06-17T13:04:31Z</time>
      </trkpt>
      <trkpt lat="49.33734" lon="0.02472">
        <ele>6.6</ele>
        <time>2020-06-17T13:04:32Z</time>
      </trkpt>
      <trkpt lat="49.33738" lon="0.02479">
        <ele>6.6</ele>
        <time>2020-06-17T13:04:33Z</time>
      </trkpt>
      <trkpt lat="49.33741" lon="0.02485">
        <ele>6.6</ele>
        <time>2020-06-17T13:04:34Z</time>
      </trkpt>
      <trkpt lat="49.33745" lon="0.02492">
        <ele>6.6</ele>
        <time>2020-06-17T13:04:35Z</time>
      </trkpt>
      <trkpt lat="49.33749" lon="0.02499">
        <ele>6.6</ele>
        <time>2020-06-17T13:04:36Z</time>
      </trkpt>
      <trkpt lat="49.33753" lon="0.02507">
        <ele>6.6</ele>
        <time>2020-06-17T13:04:37Z</time>
      </trkpt>
      <trkpt lat="49.33757" lon="0.02515">
        <ele>6.7</ele>
        <time>2020-06-17T13:04:38Z</time>
      </trkpt>
      <trkpt lat="49.3376" lon="0.02522">
        <ele>6.7</ele>
        <time>2020-06-17T13:04:39Z</time>
      </trkpt>
      <trkpt lat="49.33764" lon="0.02531">
        <ele>6.7</ele>
        <time>2020-06-17T13:04:40Z</time>
      </trkpt>
      <trkpt lat="49.33768" lon="0.02539">
        <ele>6.7</ele>
        <time>2020-06-17T13:04:41Z</time>
      </trkpt>
      <trkpt lat="49.33771" lon="0.02547">
        <ele>6.7</ele>
        <time>2020-06-17T13:04:42Z</time>
      </trkpt>
      <trkpt lat="49.33774" lon="0.02555">
        <ele>6.7</ele>
        <time>2020-06-17T13:04:43Z</time>
      </trkpt>
      <trkpt lat="49.33777" lon="0.02563">
        <ele>6.7</ele>
        <time>2020-06-17T13:04:44Z</time>
      </trkpt>
      <trkpt lat="49.3378" lon="0.02571">
        <ele>6.7</ele>
        <time>2020-06-17T13:04:45Z</time>
      </trkpt>
      <trkpt lat="49.33784" lon="0.0258">
        <ele>6.7</ele>
        <time>2020-06-17T13:04:46Z</time>
      </trkpt>
      <trkpt lat="49.33787" lon="0.02587">
        <ele>6.7</ele>
        <time>2020-06-17T13:04:47Z</time>
      </trkpt>
      <trkpt lat="49.3379" lon="0.02595">
        <ele>6.7</ele>
        <time>2020-06-17T13:04:48Z</time>
      </trkpt>
      <trkpt lat="49.33793" lon="0.02603">
        <ele>6.7</ele>
        <time>2020-06-17T13:04:49Z</time>
      </trkpt>
      <trkpt lat="49.33797" lon="0.02612">
        <ele>6.7</ele>
        <time>2020-06-17T13:04:50Z</time>
      </trkpt>
      <trkpt lat="49.338" lon="0.02619">
        <ele>6.6</ele>
        <time>2020-06-17T13:04:51Z</time>
      </trkpt>
      <trkpt lat="49.33802" lon="0.02626">
        <ele>6.6</ele>
        <time>2020-06-17T13:04:52Z</time>
      </trkpt>
      <trkpt lat="49.33805" lon="0.02633">
        <ele>6.6</ele>
        <time>2020-06-17T13:04:53Z</time>
      </trkpt>
      <trkpt lat="49.33808" lon="0.0264">
        <ele>6.6</ele>
        <time>2020-06-17T13:04:54Z</time>
      </trkpt>
      <trkpt lat="49.33811" lon="0.02648">
        <ele>6.6</ele>
        <time>2020-06-17T13:04:55Z</time>
      </trkpt>
      <trkpt lat="49.33814" lon="0.02656">
        <ele>6.5</ele>
        <time>2020-06-17T13:04:56Z</time>
      </trkpt>
      <trkpt lat="49.33816" lon="0.02664">
        <ele>6.5</ele>
        <time>2020-06-17T13:04:57Z</time>
      </trkpt>
      <trkpt lat="49.33818" lon="0.02672">
        <ele>6.5</ele>
        <time>2020-06-17T13:04:58Z</time>
      </trkpt>
      <trkpt lat="49.33819" lon="0.0268">
        <ele>6.4</ele>
        <time>2020-06-17T13:04:59Z</time>
      </trkpt>
      <trkpt lat="49.3382" lon="0.02686">
        <ele>6.4</ele>
        <time>2020-06-17T13:05:00Z</time>
      </trkpt>
      <trkpt lat="49.33822" lon="0.02693">
        <ele>6.4</ele>
        <time>2020-06-17T13:05:01Z</time>
      </trkpt>
      <trkpt lat="49.33823" lon="0.02701">
        <ele>6.4</ele>
        <time>2020-06-17T13:05:02Z</time>
      </trkpt>
      <trkpt lat="49.33827" lon="0.02712">
        <ele>6.4</ele>
        <time>2020-06-17T13:05:03Z</time>
      </trkpt>
      <trkpt lat="49.33829" lon="0.02718">
        <ele>6.4</ele>
        <time>2020-06-17T13:05:04Z</time>
      </trkpt>
      <trkpt lat="49.33831" lon="0.02726">
        <ele>6.5</ele>
        <time>2020-06-17T13:05:05Z</time>
      </trkpt>
      <trkpt lat="49.33834" lon="0.02733">
        <ele>6.5</ele>
        <time>2020-06-17T13:05:06Z</time>
      </trkpt>
      <trkpt lat="49.33836" lon="0.0274">
        <ele>6.5</ele>
        <time>2020-06-17T13:05:07Z</time>
      </trkpt>
      <trkpt lat="49.33839" lon="0.02748">
        <ele>6.5</ele>
        <time>2020-06-17T13:05:08Z</time>
      </trkpt>
      <trkpt lat="49.33841" lon="0.02756">
        <ele>6.5</ele>
        <time>2020-06-17T13:05:09Z</time>
      </trkpt>
      <trkpt lat="49.33842" lon="0.02765">
        <ele>6.5</ele>
        <time>2020-06-17T13:05:10Z</time>
      </trkpt>
      <trkpt lat="49.33844" lon="0.02773">
        <ele>6.6</ele>
        <time>2020-06-17T13:05:11Z</time>
      </trkpt>
      <trkpt lat="49.33845" lon="0.02781">
        <ele>6.5</ele>
        <time>2020-06-17T13:05:12Z</time>
      </trkpt>
      <trkpt lat="49.33847" lon="0.0279">
        <ele>6.5</ele>
        <time>2020-06-17T13:05:13Z</time>
      </trkpt>
      <trkpt lat="49.33849" lon="0.028">
        <ele>6.5</ele>
        <time>2020-06-17T13:05:14Z</time>
      </trkpt>
      <trkpt lat="49.3385" lon="0.02809">
        <ele>6.5</ele>
        <time>2020-06-17T13:05:15Z</time>
      </trkpt>
      <trkpt lat="49.33851" lon="0.02816">
        <ele>6.5</ele>
        <time>2020-06-17T13:05:16Z</time>
      </trkpt>
      <trkpt lat="49.33852" lon="0.02824">
        <ele>6.5</ele>
        <time>2020-06-17T13:05:17Z</time>
      </trkpt>
      <trkpt lat="49.33854" lon="0.02832">
        <ele>6.5</ele>
        <time>2020-06-17T13:05:18Z</time>
      </trkpt>
      <trkpt lat="49.33856" lon="0.02839">
        <ele>6.5</ele>
        <time>2020-06-17T13:05:19Z</time>
      </trkpt>
      <trkpt lat="49.33858" lon="0.02847">
        <ele>6.5</ele>
        <time>2020-06-17T13:05:20Z</time>
      </trkpt>
      <trkpt lat="49.3386" lon="0.02855">
        <ele>6.5</ele>
        <time>2020-06-17T13:05:21Z</time>
      </trkpt>
      <trkpt lat="49.33862" lon="0.02863">
        <ele>6.5</ele>
        <time>2020-06-17T13:05:22Z</time>
      </trkpt>
      <trkpt lat="49.33864" lon="0.02869">
        <ele>6.6</ele>
        <time>2020-06-17T13:05:23Z</time>
      </trkpt>
      <trkpt lat="49.33866" lon="0.02878">
        <ele>6.6</ele>
        <time>2020-06-17T13:05:24Z</time>
      </trkpt>
      <trkpt lat="49.33868" lon="0.02887">
        <ele>6.6</ele>
        <time>2020-06-17T13:05:25Z</time>
      </trkpt>
      <trkpt lat="49.3387" lon="0.02894">
        <ele>6.7</ele>
        <time>2020-06-17T13:05:26Z</time>
      </trkpt>
      <trkpt lat="49.33872" lon="0.02904">
        <ele>6.7</ele>
        <time>2020-06-17T13:05:27Z</time>
      </trkpt>
      <trkpt lat="49.33875" lon="0.02911">
        <ele>6.8</ele>
        <time>2020-06-17T13:05:28Z</time>
      </trkpt>
      <trkpt lat="49.33878" lon="0.02919">
        <ele>6.9</ele>
        <time>2020-06-17T13:05:29Z</time>
      </trkpt>
      <trkpt lat="49.3388" lon="0.02927">
        <ele>7.1</ele>
        <time>2020-06-17T13:05:30Z</time>
      </trkpt>
      <trkpt lat="49.33883" lon="0.02935">
        <ele>7.4</ele>
        <time>2020-06-17T13:05:31Z</time>
      </trkpt>
      <trkpt lat="49.33885" lon="0.02942">
        <ele>7.6</ele>
        <time>2020-06-17T13:05:32Z</time>
      </trkpt>
      <trkpt lat="49.33886" lon="0.02949">
        <ele>7.8</ele>
        <time>2020-06-17T13:05:33Z</time>
      </trkpt>
      <trkpt lat="49.33887" lon="0.02954">
        <ele>7.9</ele>
        <time>2020-06-17T13:05:34Z</time>
      </trkpt>
      <trkpt lat="49.33888" lon="0.0296">
        <ele>8.1</ele>
        <time>2020-06-17T13:05:35Z</time>
      </trkpt>
      <trkpt lat="49.33889" lon="0.02965">
        <ele>8.2</ele>
        <time>2020-06-17T13:05:36Z</time>
      </trkpt>
      <trkpt lat="49.3389" lon="0.02971">
        <ele>8.2</ele>
        <time>2020-06-17T13:05:37Z</time>
      </trkpt>
      <trkpt lat="49.33894" lon="0.02976">
        <ele>8.1</ele>
        <time>2020-06-17T13:05:38Z</time>
      </trkpt>
      <trkpt lat="49.33896" lon="0.02981">
        <ele>8.1</ele>
        <time>2020-06-17T13:05:39Z</time>
      </trkpt>
      <trkpt lat="49.33898" lon="0.02987">
        <ele>8.1</ele>
        <time>2020-06-17T13:05:40Z</time>
      </trkpt>
      <trkpt lat="49.33901" lon="0.02992">
        <ele>8.4</ele>
        <time>2020-06-17T13:05:41Z</time>
      </trkpt>
      <trkpt lat="49.33905" lon="0.02996">
        <ele>8.5</ele>
        <time>2020-06-17T13:05:42Z</time>
      </trkpt>
      <trkpt lat="49.33908" lon="0.03001">
        <ele>8.6</ele>
        <time>2020-06-17T13:05:43Z</time>
      </trkpt>
      <trkpt lat="49.33911" lon="0.03006">
        <ele>8.7</ele>
        <time>2020-06-17T13:05:44Z</time>
      </trkpt>
      <trkpt lat="49.33914" lon="0.03011">
        <ele>8.9</ele>
        <time>2020-06-17T13:05:45Z</time>
      </trkpt>
      <trkpt lat="49.33916" lon="0.03015">
        <ele>9</ele>
        <time>2020-06-17T13:05:46Z</time>
      </trkpt>
      <trkpt lat="49.3392" lon="0.0302">
        <ele>9.1</ele>
        <time>2020-06-17T13:05:47Z</time>
      </trkpt>
      <trkpt lat="49.33923" lon="0.03024">
        <ele>9.2</ele>
        <time>2020-06-17T13:05:48Z</time>
      </trkpt>
      <trkpt lat="49.33926" lon="0.03027">
        <ele>9.4</ele>
        <time>2020-06-17T13:05:49Z</time>
      </trkpt>
      <trkpt lat="49.33928" lon="0.03031">
        <ele>9.6</ele>
        <time>2020-06-17T13:05:50Z</time>
      </trkpt>
      <trkpt lat="49.3393" lon="0.03034">
        <ele>9.8</ele>
        <time>2020-06-17T13:05:51Z</time>
      </trkpt>
      <trkpt lat="49.33932" lon="0.03038">
        <ele>10.1</ele>
        <time>2020-06-17T13:05:52Z</time>
      </trkpt>
      <trkpt lat="49.33935" lon="0.03041">
        <ele>10.3</ele>
        <time>2020-06-17T13:05:53Z</time>
      </trkpt>
      <trkpt lat="49.33937" lon="0.03044">
        <ele>10.5</ele>
        <time>2020-06-17T13:05:54Z</time>
      </trkpt>
      <trkpt lat="49.3394" lon="0.03047">
        <ele>10.8</ele>
        <time>2020-06-17T13:05:55Z</time>
      </trkpt>
      <trkpt lat="49.33942" lon="0.03049">
        <ele>11</ele>
        <time>2020-06-17T13:05:56Z</time>
      </trkpt>
      <trkpt lat="49.33945" lon="0.03052">
        <ele>11.2</ele>
        <time>2020-06-17T13:05:57Z</time>
      </trkpt>
      <trkpt lat="49.33947" lon="0.03055">
        <ele>11.3</ele>
        <time>2020-06-17T13:05:58Z</time>
      </trkpt>
      <trkpt lat="49.3395" lon="0.03058">
        <ele>11.5</ele>
        <time>2020-06-17T13:05:59Z</time>
      </trkpt>
      <trkpt lat="49.33952" lon="0.0306">
        <ele>11.6</ele>
        <time>2020-06-17T13:06:00Z</time>
      </trkpt>
      <trkpt lat="49.33954" lon="0.03064">
        <ele>11.7</ele>
        <time>2020-06-17T13:06:01Z</time>
      </trkpt>
      <trkpt lat="49.33957" lon="0.03068">
        <ele>11.9</ele>
        <time>2020-06-17T13:06:02Z</time>
      </trkpt>
      <trkpt lat="49.33959" lon="0.03073">
        <ele>12</ele>
        <time>2020-06-17T13:06:03Z</time>
      </trkpt>
      <trkpt lat="49.33961" lon="0.03077">
        <ele>12.2</ele>
        <time>2020-06-17T13:06:04Z</time>
      </trkpt>
      <trkpt lat="49.33963" lon="0.03081">
        <ele>12.3</ele>
        <time>2020-06-17T13:06:05Z</time>
      </trkpt>
      <trkpt lat="49.33965" lon="0.03085">
        <ele>12.5</ele>
        <time>2020-06-17T13:06:06Z</time>
      </trkpt>
      <trkpt lat="49.33966" lon="0.03088">
        <ele>12.6</ele>
        <time>2020-06-17T13:06:07Z</time>
      </trkpt>
      <trkpt lat="49.33969" lon="0.03093">
        <ele>12.8</ele>
        <time>2020-06-17T13:06:08Z</time>
      </trkpt>
      <trkpt lat="49.33971" lon="0.03097">
        <ele>12.9</ele>
        <time>2020-06-17T13:06:09Z</time>
      </trkpt>
      <trkpt lat="49.33974" lon="0.03101">
        <ele>13.1</ele>
        <time>2020-06-17T13:06:10Z</time>
      </trkpt>
      <trkpt lat="49.33976" lon="0.03106">
        <ele>13.3</ele>
        <time>2020-06-17T13:06:11Z</time>
      </trkpt>
      <trkpt lat="49.33979" lon="0.03111">
        <ele>13.4</ele>
        <time>2020-06-17T13:06:12Z</time>
      </trkpt>
      <trkpt lat="49.33981" lon="0.03115">
        <ele>13.6</ele>
        <time>2020-06-17T13:06:13Z</time>
      </trkpt>
      <trkpt lat="49.33984" lon="0.03119">
        <ele>14.2</ele>
        <time>2020-06-17T13:06:14Z</time>
      </trkpt>
      <trkpt lat="49.33986" lon="0.03123">
        <ele>14.5</ele>
        <time>2020-06-17T13:06:15Z</time>
      </trkpt>
      <trkpt lat="49.33987" lon="0.03127">
        <ele>14.7</ele>
        <time>2020-06-17T13:06:16Z</time>
      </trkpt>
      <trkpt lat="49.33989" lon="0.03131">
        <ele>14.9</ele>
        <time>2020-06-17T13:06:17Z</time>
      </trkpt>
      <trkpt lat="49.33992" lon="0.03135">
        <ele>15.2</ele>
        <time>2020-06-17T13:06:18Z</time>
      </trkpt>
      <trkpt lat="49.33993" lon="0.03139">
        <ele>15.4</ele>
        <time>2020-06-17T13:06:19Z</time>
      </trkpt>
      <trkpt lat="49.33995" lon="0.03142">
        <ele>15.6</ele>
        <time>2020-06-17T13:06:20Z</time>
      </trkpt>
      <trkpt lat="49.33998" lon="0.03145">
        <ele>15.8</ele>
        <time>2020-06-17T13:06:21Z</time>
      </trkpt>
      <trkpt lat="49.34001" lon="0.03148">
        <ele>16</ele>
        <time>2020-06-17T13:06:22Z</time>
      </trkpt>
      <trkpt lat="49.34003" lon="0.03151">
        <ele>16.2</ele>
        <time>2020-06-17T13:06:23Z</time>
      </trkpt>
      <trkpt lat="49.34006" lon="0.03154">
        <ele>16.4</ele>
        <time>2020-06-17T13:06:24Z</time>
      </trkpt>
      <trkpt lat="49.34008" lon="0.03157">
        <ele>16.6</ele>
        <time>2020-06-17T13:06:25Z</time>
      </trkpt>
      <trkpt lat="49.3401" lon="0.03161">
        <ele>16.9</ele>
        <time>2020-06-17T13:06:26Z</time>
      </trkpt>
      <trkpt lat="49.34012" lon="0.03164">
        <ele>17</ele>
        <time>2020-06-17T13:06:27Z</time>
      </trkpt>
      <trkpt lat="49.34015" lon="0.03166">
        <ele>17.2</ele>
        <time>2020-06-17T13:06:28Z</time>
      </trkpt>
      <trkpt lat="49.34017" lon="0.03169">
        <ele>17.4</ele>
        <time>2020-06-17T13:06:29Z</time>
      </trkpt>
      <trkpt lat="49.3402" lon="0.03173">
        <ele>17.6</ele>
        <time>2020-06-17T13:06:30Z</time>
      </trkpt>
      <trkpt lat="49.3402" lon="0.03175">
        <ele>17.7</ele>
        <time>2020-06-17T13:06:31Z</time>
      </trkpt>
      <trkpt lat="49.34023" lon="0.03178">
        <ele>17.9</ele>
        <time>2020-06-17T13:06:32Z</time>
      </trkpt>
      <trkpt lat="49.34025" lon="0.03183">
        <ele>18.2</ele>
        <time>2020-06-17T13:06:33Z</time>
      </trkpt>
      <trkpt lat="49.34026" lon="0.03185">
        <ele>18.3</ele>
        <time>2020-06-17T13:06:34Z</time>
      </trkpt>
      <trkpt lat="49.34028" lon="0.03188">
        <ele>18.5</ele>
        <time>2020-06-17T13:06:35Z</time>
      </trkpt>
      <trkpt lat="49.3403" lon="0.03192">
        <ele>18.8</ele>
        <time>2020-06-17T13:06:36Z</time>
      </trkpt>
      <trkpt lat="49.34032" lon="0.03196">
        <ele>19</ele>
        <time>2020-06-17T13:06:37Z</time>
      </trkpt>
      <trkpt lat="49.34034" lon="0.032">
        <ele>19.3</ele>
        <time>2020-06-17T13:06:38Z</time>
      </trkpt>
      <trkpt lat="49.34036" lon="0.03205">
        <ele>19.6</ele>
        <time>2020-06-17T13:06:39Z</time>
      </trkpt>
      <trkpt lat="49.34037" lon="0.03206">
        <ele>19.7</ele>
        <time>2020-06-17T13:06:40Z</time>
      </trkpt>
      <trkpt lat="49.3404" lon="0.0321">
        <ele>19.9</ele>
        <time>2020-06-17T13:06:41Z</time>
      </trkpt>
      <trkpt lat="49.34042" lon="0.03213">
        <ele>20.1</ele>
        <time>2020-06-17T13:06:42Z</time>
      </trkpt>
      <trkpt lat="49.34044" lon="0.03217">
        <ele>20.3</ele>
        <time>2020-06-17T13:06:43Z</time>
      </trkpt>
      <trkpt lat="49.34046" lon="0.03221">
        <ele>20.5</ele>
        <time>2020-06-17T13:06:44Z</time>
      </trkpt>
      <trkpt lat="49.34048" lon="0.03225">
        <ele>20.7</ele>
        <time>2020-06-17T13:06:45Z</time>
      </trkpt>
      <trkpt lat="49.3405" lon="0.0323">
        <ele>20.9</ele>
        <time>2020-06-17T13:06:46Z</time>
      </trkpt>
      <trkpt lat="49.3405" lon="0.03232">
        <ele>21</ele>
        <time>2020-06-17T13:06:47Z</time>
      </trkpt>
      <trkpt lat="49.34052" lon="0.03236">
        <ele>21</ele>
        <time>2020-06-17T13:06:48Z</time>
      </trkpt>
      <trkpt lat="49.34054" lon="0.0324">
        <ele>21.2</ele>
        <time>2020-06-17T13:06:49Z</time>
      </trkpt>
      <trkpt lat="49.34055" lon="0.03242">
        <ele>21.2</ele>
        <time>2020-06-17T13:06:50Z</time>
      </trkpt>
      <trkpt lat="49.34057" lon="0.03246">
        <ele>21.3</ele>
        <time>2020-06-17T13:06:51Z</time>
      </trkpt>
      <trkpt lat="49.34059" lon="0.03251">
        <ele>21.4</ele>
        <time>2020-06-17T13:06:52Z</time>
      </trkpt>
      <trkpt lat="49.3406" lon="0.03255">
        <ele>21.5</ele>
        <time>2020-06-17T13:06:53Z</time>
      </trkpt>
      <trkpt lat="49.34062" lon="0.03259">
        <ele>21.6</ele>
        <time>2020-06-17T13:06:54Z</time>
      </trkpt>
      <trkpt lat="49.34064" lon="0.03263">
        <ele>22.2</ele>
        <time>2020-06-17T13:06:55Z</time>
      </trkpt>
      <trkpt lat="49.34065" lon="0.03267">
        <ele>22.4</ele>
        <time>2020-06-17T13:06:56Z</time>
      </trkpt>
      <trkpt lat="49.34068" lon="0.0327">
        <ele>22.6</ele>
        <time>2020-06-17T13:06:57Z</time>
      </trkpt>
      <trkpt lat="49.3407" lon="0.03273">
        <ele>22.9</ele>
        <time>2020-06-17T13:06:58Z</time>
      </trkpt>
      <trkpt lat="49.34073" lon="0.03277">
        <ele>23.1</ele>
        <time>2020-06-17T13:06:59Z</time>
      </trkpt>
      <trkpt lat="49.34075" lon="0.0328">
        <ele>23.3</ele>
        <time>2020-06-17T13:07:00Z</time>
      </trkpt>
      <trkpt lat="49.34077" lon="0.03283">
        <ele>23.5</ele>
        <time>2020-06-17T13:07:01Z</time>
      </trkpt>
      <trkpt lat="49.3408" lon="0.03287">
        <ele>23.7</ele>
        <time>2020-06-17T13:07:02Z</time>
      </trkpt>
      <trkpt lat="49.34083" lon="0.0329">
        <ele>24</ele>
        <time>2020-06-17T13:07:03Z</time>
      </trkpt>
      <trkpt lat="49.34085" lon="0.03293">
        <ele>24.2</ele>
        <time>2020-06-17T13:07:04Z</time>
      </trkpt>
      <trkpt lat="49.34087" lon="0.03296">
        <ele>24.4</ele>
        <time>2020-06-17T13:07:05Z</time>
      </trkpt>
      <trkpt lat="49.3409" lon="0.033">
        <ele>24.6</ele>
        <time>2020-06-17T13:07:06Z</time>
      </trkpt>
      <trkpt lat="49.34091" lon="0.03302">
        <ele>24.7</ele>
        <time>2020-06-17T13:07:07Z</time>
      </trkpt>
      <trkpt lat="49.34094" lon="0.03305">
        <ele>24.9</ele>
        <time>2020-06-17T13:07:08Z</time>
      </trkpt>
      <trkpt lat="49.34096" lon="0.03308">
        <ele>25.2</ele>
        <time>2020-06-17T13:07:09Z</time>
      </trkpt>
      <trkpt lat="49.34097" lon="0.0331">
        <ele>25.3</ele>
        <time>2020-06-17T13:07:10Z</time>
      </trkpt>
      <trkpt lat="49.341" lon="0.03313">
        <ele>25.5</ele>
        <time>2020-06-17T13:07:11Z</time>
      </trkpt>
      <trkpt lat="49.341" lon="0.03314">
        <ele>25.6</ele>
        <time>2020-06-17T13:07:12Z</time>
      </trkpt>
      <trkpt lat="49.34103" lon="0.03317">
        <ele>25.8</ele>
        <time>2020-06-17T13:07:13Z</time>
      </trkpt>
      <trkpt lat="49.34105" lon="0.03318">
        <ele>25.9</ele>
        <time>2020-06-17T13:07:14Z</time>
      </trkpt>
      <trkpt lat="49.34107" lon="0.03319">
        <ele>26.1</ele>
        <time>2020-06-17T13:07:15Z</time>
      </trkpt>
      <trkpt lat="49.3411" lon="0.03321">
        <ele>26.3</ele>
        <time>2020-06-17T13:07:16Z</time>
      </trkpt>
      <trkpt lat="49.34113" lon="0.03323">
        <ele>26.6</ele>
        <time>2020-06-17T13:07:17Z</time>
      </trkpt>
      <trkpt lat="49.34115" lon="0.03326">
        <ele>26.9</ele>
        <time>2020-06-17T13:07:18Z</time>
      </trkpt>
      <trkpt lat="49.34117" lon="0.03329">
        <ele>27.1</ele>
        <time>2020-06-17T13:07:19Z</time>
      </trkpt>
      <trkpt lat="49.34118" lon="0.03334">
        <ele>27.4</ele>
        <time>2020-06-17T13:07:20Z</time>
      </trkpt>
      <trkpt lat="49.34118" lon="0.03335">
        <ele>27.5</ele>
        <time>2020-06-17T13:07:21Z</time>
      </trkpt>
      <trkpt lat="49.3412" lon="0.03339">
        <ele>27.7</ele>
        <time>2020-06-17T13:07:22Z</time>
      </trkpt>
      <trkpt lat="49.34121" lon="0.03344">
        <ele>28</ele>
        <time>2020-06-17T13:07:23Z</time>
      </trkpt>
      <trkpt lat="49.34122" lon="0.03346">
        <ele>28.1</ele>
        <time>2020-06-17T13:07:24Z</time>
      </trkpt>
      <trkpt lat="49.34124" lon="0.03349">
        <ele>28.3</ele>
        <time>2020-06-17T13:07:25Z</time>
      </trkpt>
      <trkpt lat="49.34126" lon="0.03353">
        <ele>28.6</ele>
        <time>2020-06-17T13:07:26Z</time>
      </trkpt>
      <trkpt lat="49.34127" lon="0.03357">
        <ele>28.8</ele>
        <time>2020-06-17T13:07:27Z</time>
      </trkpt>
      <trkpt lat="49.34128" lon="0.03361">
        <ele>28.9</ele>
        <time>2020-06-17T13:07:28Z</time>
      </trkpt>
      <trkpt lat="49.3413" lon="0.03366">
        <ele>29.2</ele>
        <time>2020-06-17T13:07:29Z</time>
      </trkpt>
      <trkpt lat="49.3413" lon="0.03368">
        <ele>29.3</ele>
        <time>2020-06-17T13:07:30Z</time>
      </trkpt>
      <trkpt lat="49.34131" lon="0.03374">
        <ele>29.6</ele>
        <time>2020-06-17T13:07:31Z</time>
      </trkpt>
      <trkpt lat="49.34131" lon="0.03376">
        <ele>29.7</ele>
        <time>2020-06-17T13:07:32Z</time>
      </trkpt>
      <trkpt lat="49.34133" lon="0.03381">
        <ele>30</ele>
        <time>2020-06-17T13:07:33Z</time>
      </trkpt>
      <trkpt lat="49.34133" lon="0.03383">
        <ele>30.1</ele>
        <time>2020-06-17T13:07:34Z</time>
      </trkpt>
      <trkpt lat="49.34135" lon="0.03387">
        <ele>30.3</ele>
        <time>2020-06-17T13:07:35Z</time>
      </trkpt>
      <trkpt lat="49.34137" lon="0.03392">
        <ele>30.7</ele>
        <time>2020-06-17T13:07:36Z</time>
      </trkpt>
      <trkpt lat="49.34138" lon="0.03395">
        <ele>30.7</ele>
        <time>2020-06-17T13:07:37Z</time>
      </trkpt>
      <trkpt lat="49.34139" lon="0.03399">
        <ele>30.7</ele>
        <time>2020-06-17T13:07:38Z</time>
      </trkpt>
      <trkpt lat="49.34141" lon="0.03404">
        <ele>30.7</ele>
        <time>2020-06-17T13:07:39Z</time>
      </trkpt>
      <trkpt lat="49.34141" lon="0.03406">
        <ele>30.8</ele>
        <time>2020-06-17T13:07:40Z</time>
      </trkpt>
      <trkpt lat="49.34143" lon="0.0341">
        <ele>31</ele>
        <time>2020-06-17T13:07:41Z</time>
      </trkpt>
      <trkpt lat="49.34144" lon="0.03414">
        <ele>31.2</ele>
        <time>2020-06-17T13:07:42Z</time>
      </trkpt>
      <trkpt lat="49.34145" lon="0.03419">
        <ele>31.4</ele>
        <time>2020-06-17T13:07:43Z</time>
      </trkpt>
      <trkpt lat="49.34146" lon="0.0342">
        <ele>31.4</ele>
        <time>2020-06-17T13:07:44Z</time>
      </trkpt>
      <trkpt lat="49.34148" lon="0.03425">
        <ele>31.7</ele>
        <time>2020-06-17T13:07:45Z</time>
      </trkpt>
      <trkpt lat="49.34149" lon="0.03427">
        <ele>31.7</ele>
        <time>2020-06-17T13:07:46Z</time>
      </trkpt>
      <trkpt lat="49.3415" lon="0.0343">
        <ele>31.9</ele>
        <time>2020-06-17T13:07:47Z</time>
      </trkpt>
      <trkpt lat="49.34152" lon="0.03434">
        <ele>32</ele>
        <time>2020-06-17T13:07:48Z</time>
      </trkpt>
      <trkpt lat="49.34154" lon="0.03438">
        <ele>32.2</ele>
        <time>2020-06-17T13:07:49Z</time>
      </trkpt>
      <trkpt lat="49.34155" lon="0.03443">
        <ele>32.4</ele>
        <time>2020-06-17T13:07:50Z</time>
      </trkpt>
      <trkpt lat="49.34156" lon="0.03447">
        <ele>32.6</ele>
        <time>2020-06-17T13:07:51Z</time>
      </trkpt>
      <trkpt lat="49.34157" lon="0.03452">
        <ele>32.8</ele>
        <time>2020-06-17T13:07:52Z</time>
      </trkpt>
      <trkpt lat="49.34158" lon="0.03456">
        <ele>33</ele>
        <time>2020-06-17T13:07:53Z</time>
      </trkpt>
      <trkpt lat="49.34159" lon="0.0346">
        <ele>33.1</ele>
        <time>2020-06-17T13:07:54Z</time>
      </trkpt>
      <trkpt lat="49.34161" lon="0.03464">
        <ele>33.3</ele>
        <time>2020-06-17T13:07:55Z</time>
      </trkpt>
      <trkpt lat="49.34163" lon="0.03468">
        <ele>33.5</ele>
        <time>2020-06-17T13:07:56Z</time>
      </trkpt>
      <trkpt lat="49.34165" lon="0.03471">
        <ele>33.7</ele>
        <time>2020-06-17T13:07:57Z</time>
      </trkpt>
      <trkpt lat="49.34167" lon="0.03474">
        <ele>33.8</ele>
        <time>2020-06-17T13:07:58Z</time>
      </trkpt>
      <trkpt lat="49.34169" lon="0.03477">
        <ele>34</ele>
        <time>2020-06-17T13:07:59Z</time>
      </trkpt>
      <trkpt lat="49.34171" lon="0.0348">
        <ele>34.2</ele>
        <time>2020-06-17T13:08:00Z</time>
      </trkpt>
      <trkpt lat="49.34173" lon="0.03483">
        <ele>34.4</ele>
        <time>2020-06-17T13:08:01Z</time>
      </trkpt>
      <trkpt lat="49.34175" lon="0.03487">
        <ele>34.5</ele>
        <time>2020-06-17T13:08:02Z</time>
      </trkpt>
      <trkpt lat="49.34176" lon="0.03491">
        <ele>34.7</ele>
        <time>2020-06-17T13:08:03Z</time>
      </trkpt>
      <trkpt lat="49.34178" lon="0.03495">
        <ele>34.9</ele>
        <time>2020-06-17T13:08:04Z</time>
      </trkpt>
      <trkpt lat="49.3418" lon="0.03499">
        <ele>35.1</ele>
        <time>2020-06-17T13:08:05Z</time>
      </trkpt>
      <trkpt lat="49.34183" lon="0.03502">
        <ele>35.3</ele>
        <time>2020-06-17T13:08:06Z</time>
      </trkpt>
      <trkpt lat="49.34185" lon="0.03505">
        <ele>35.4</ele>
        <time>2020-06-17T13:08:07Z</time>
      </trkpt>
      <trkpt lat="49.34187" lon="0.03509">
        <ele>35.6</ele>
        <time>2020-06-17T13:08:08Z</time>
      </trkpt>
      <trkpt lat="49.3419" lon="0.03512">
        <ele>35.8</ele>
        <time>2020-06-17T13:08:09Z</time>
      </trkpt>
      <trkpt lat="49.34193" lon="0.03516">
        <ele>36</ele>
        <time>2020-06-17T13:08:10Z</time>
      </trkpt>
      <trkpt lat="49.34196" lon="0.0352">
        <ele>36.2</ele>
        <time>2020-06-17T13:08:11Z</time>
      </trkpt>
      <trkpt lat="49.34198" lon="0.03524">
        <ele>36.3</ele>
        <time>2020-06-17T13:08:12Z</time>
      </trkpt>
      <trkpt lat="49.34202" lon="0.03528">
        <ele>36.5</ele>
        <time>2020-06-17T13:08:13Z</time>
      </trkpt>
      <trkpt lat="49.34206" lon="0.03532">
        <ele>36.6</ele>
        <time>2020-06-17T13:08:14Z</time>
      </trkpt>
      <trkpt lat="49.34208" lon="0.03536">
        <ele>36.8</ele>
        <time>2020-06-17T13:08:15Z</time>
      </trkpt>
      <trkpt lat="49.34211" lon="0.0354">
        <ele>36.9</ele>
        <time>2020-06-17T13:08:16Z</time>
      </trkpt>
      <trkpt lat="49.34216" lon="0.03544">
        <ele>37</ele>
        <time>2020-06-17T13:08:17Z</time>
      </trkpt>
      <trkpt lat="49.34223" lon="0.03547">
        <ele>37.1</ele>
        <time>2020-06-17T13:08:18Z</time>
      </trkpt>
      <trkpt lat="49.34231" lon="0.03549">
        <ele>37.2</ele>
        <time>2020-06-17T13:08:19Z</time>
      </trkpt>
      <trkpt lat="49.34238" lon="0.03553">
        <ele>37.3</ele>
        <time>2020-06-17T13:08:20Z</time>
      </trkpt>
      <trkpt lat="49.34242" lon="0.03558">
        <ele>37.3</ele>
        <time>2020-06-17T13:08:21Z</time>
      </trkpt>
      <trkpt lat="49.34247" lon="0.03562">
        <ele>37.3</ele>
        <time>2020-06-17T13:08:22Z</time>
      </trkpt>
      <trkpt lat="49.34253" lon="0.03566">
        <ele>37.3</ele>
        <time>2020-06-17T13:08:23Z</time>
      </trkpt>
      <trkpt lat="49.34259" lon="0.03571">
        <ele>37.3</ele>
        <time>2020-06-17T13:08:24Z</time>
      </trkpt>
      <trkpt lat="49.34264" lon="0.03577">
        <ele>37.3</ele>
        <time>2020-06-17T13:08:25Z</time>
      </trkpt>
      <trkpt lat="49.3427" lon="0.03583">
        <ele>37.3</ele>
        <time>2020-06-17T13:08:26Z</time>
      </trkpt>
      <trkpt lat="49.34275" lon="0.03589">
        <ele>37.3</ele>
        <time>2020-06-17T13:08:27Z</time>
      </trkpt>
      <trkpt lat="49.34279" lon="0.03595">
        <ele>37.3</ele>
        <time>2020-06-17T13:08:28Z</time>
      </trkpt>
      <trkpt lat="49.34284" lon="0.03602">
        <ele>37.4</ele>
        <time>2020-06-17T13:08:29Z</time>
      </trkpt>
      <trkpt lat="49.34288" lon="0.03608">
        <ele>37.4</ele>
        <time>2020-06-17T13:08:30Z</time>
      </trkpt>
      <trkpt lat="49.34292" lon="0.03614">
        <ele>37.4</ele>
        <time>2020-06-17T13:08:31Z</time>
      </trkpt>
      <trkpt lat="49.34296" lon="0.03621">
        <ele>37.5</ele>
        <time>2020-06-17T13:08:32Z</time>
      </trkpt>
      <trkpt lat="49.343" lon="0.03627">
        <ele>37.5</ele>
        <time>2020-06-17T13:08:33Z</time>
      </trkpt>
      <trkpt lat="49.34305" lon="0.03634">
        <ele>37.6</ele>
        <time>2020-06-17T13:08:34Z</time>
      </trkpt>
      <trkpt lat="49.34309" lon="0.0364">
        <ele>37.6</ele>
        <time>2020-06-17T13:08:35Z</time>
      </trkpt>
      <trkpt lat="49.34313" lon="0.03647">
        <ele>37.6</ele>
        <time>2020-06-17T13:08:36Z</time>
      </trkpt>
      <trkpt lat="49.34318" lon="0.03654">
        <ele>37.7</ele>
        <time>2020-06-17T13:08:37Z</time>
      </trkpt>
      <trkpt lat="49.34322" lon="0.03661">
        <ele>37.7</ele>
        <time>2020-06-17T13:08:38Z</time>
      </trkpt>
      <trkpt lat="49.34326" lon="0.03668">
        <ele>37.7</ele>
        <time>2020-06-17T13:08:39Z</time>
      </trkpt>
      <trkpt lat="49.34329" lon="0.03675">
        <ele>37.7</ele>
        <time>2020-06-17T13:08:40Z</time>
      </trkpt>
      <trkpt lat="49.34334" lon="0.03682">
        <ele>37.7</ele>
        <time>2020-06-17T13:08:41Z</time>
      </trkpt>
      <trkpt lat="49.34338" lon="0.03688">
        <ele>37.8</ele>
        <time>2020-06-17T13:08:42Z</time>
      </trkpt>
      <trkpt lat="49.34343" lon="0.03695">
        <ele>37.8</ele>
        <time>2020-06-17T13:08:43Z</time>
      </trkpt>
      <trkpt lat="49.34348" lon="0.03702">
        <ele>37.8</ele>
        <time>2020-06-17T13:08:44Z</time>
      </trkpt>
      <trkpt lat="49.34352" lon="0.0371">
        <ele>37.8</ele>
        <time>2020-06-17T13:08:45Z</time>
      </trkpt>
      <trkpt lat="49.34357" lon="0.03717">
        <ele>37.8</ele>
        <time>2020-06-17T13:08:46Z</time>
      </trkpt>
      <trkpt lat="49.34361" lon="0.03726">
        <ele>37.8</ele>
        <time>2020-06-17T13:08:47Z</time>
      </trkpt>
      <trkpt lat="49.34366" lon="0.03734">
        <ele>37.8</ele>
        <time>2020-06-17T13:08:48Z</time>
      </trkpt>
      <trkpt lat="49.3437" lon="0.03743">
        <ele>37.8</ele>
        <time>2020-06-17T13:08:49Z</time>
      </trkpt>
      <trkpt lat="49.34374" lon="0.03752">
        <ele>37.8</ele>
        <time>2020-06-17T13:08:50Z</time>
      </trkpt>
      <trkpt lat="49.34378" lon="0.03763">
        <ele>37.9</ele>
        <time>2020-06-17T13:08:51Z</time>
      </trkpt>
      <trkpt lat="49.34379" lon="0.03771">
        <ele>37.9</ele>
        <time>2020-06-17T13:08:52Z</time>
      </trkpt>
      <trkpt lat="49.34381" lon="0.0378">
        <ele>37.9</ele>
        <time>2020-06-17T13:08:53Z</time>
      </trkpt>
      <trkpt lat="49.34383" lon="0.03789">
        <ele>38</ele>
        <time>2020-06-17T13:08:54Z</time>
      </trkpt>
      <trkpt lat="49.34384" lon="0.03798">
        <ele>38.1</ele>
        <time>2020-06-17T13:08:55Z</time>
      </trkpt>
      <trkpt lat="49.34386" lon="0.03807">
        <ele>38.2</ele>
        <time>2020-06-17T13:08:56Z</time>
      </trkpt>
      <trkpt lat="49.34387" lon="0.03815">
        <ele>38.2</ele>
        <time>2020-06-17T13:08:57Z</time>
      </trkpt>
      <trkpt lat="49.34389" lon="0.03823">
        <ele>38.2</ele>
        <time>2020-06-17T13:08:58Z</time>
      </trkpt>
      <trkpt lat="49.34389" lon="0.0383">
        <ele>38.1</ele>
        <time>2020-06-17T13:08:59Z</time>
      </trkpt>
      <trkpt lat="49.34392" lon="0.03839">
        <ele>38.1</ele>
        <time>2020-06-17T13:09:00Z</time>
      </trkpt>
      <trkpt lat="49.34394" lon="0.03848">
        <ele>38</ele>
        <time>2020-06-17T13:09:01Z</time>
      </trkpt>
      <trkpt lat="49.34396" lon="0.03857">
        <ele>38</ele>
        <time>2020-06-17T13:09:02Z</time>
      </trkpt>
      <trkpt lat="49.34398" lon="0.03867">
        <ele>38</ele>
        <time>2020-06-17T13:09:03Z</time>
      </trkpt>
      <trkpt lat="49.344" lon="0.03876">
        <ele>37.9</ele>
        <time>2020-06-17T13:09:04Z</time>
      </trkpt>
      <trkpt lat="49.34402" lon="0.03885">
        <ele>37.9</ele>
        <time>2020-06-17T13:09:05Z</time>
      </trkpt>
      <trkpt lat="49.34404" lon="0.03893">
        <ele>37.8</ele>
        <time>2020-06-17T13:09:06Z</time>
      </trkpt>
      <trkpt lat="49.34406" lon="0.03902">
        <ele>37.8</ele>
        <time>2020-06-17T13:09:07Z</time>
      </trkpt>
      <trkpt lat="49.34408" lon="0.03911">
        <ele>37.7</ele>
        <time>2020-06-17T13:09:08Z</time>
      </trkpt>
      <trkpt lat="49.3441" lon="0.03919">
        <ele>37.7</ele>
        <time>2020-06-17T13:09:09Z</time>
      </trkpt>
      <trkpt lat="49.34413" lon="0.03927">
        <ele>37.6</ele>
        <time>2020-06-17T13:09:10Z</time>
      </trkpt>
      <trkpt lat="49.34416" lon="0.03936">
        <ele>37.6</ele>
        <time>2020-06-17T13:09:11Z</time>
      </trkpt>
      <trkpt lat="49.34418" lon="0.03943">
        <ele>37.5</ele>
        <time>2020-06-17T13:09:12Z</time>
      </trkpt>
      <trkpt lat="49.3442" lon="0.03952">
        <ele>37.5</ele>
        <time>2020-06-17T13:09:13Z</time>
      </trkpt>
      <trkpt lat="49.34423" lon="0.03959">
        <ele>37.4</ele>
        <time>2020-06-17T13:09:14Z</time>
      </trkpt>
      <trkpt lat="49.34426" lon="0.03966">
        <ele>37.4</ele>
        <time>2020-06-17T13:09:15Z</time>
      </trkpt>
      <trkpt lat="49.34429" lon="0.03974">
        <ele>37.3</ele>
        <time>2020-06-17T13:09:16Z</time>
      </trkpt>
      <trkpt lat="49.34431" lon="0.03982">
        <ele>37.2</ele>
        <time>2020-06-17T13:09:17Z</time>
      </trkpt>
      <trkpt lat="49.34433" lon="0.03989">
        <ele>37.2</ele>
        <time>2020-06-17T13:09:18Z</time>
      </trkpt>
      <trkpt lat="49.34436" lon="0.03996">
        <ele>37.1</ele>
        <time>2020-06-17T13:09:19Z</time>
      </trkpt>
      <trkpt lat="49.34438" lon="0.04003">
        <ele>37</ele>
        <time>2020-06-17T13:09:20Z</time>
      </trkpt>
      <trkpt lat="49.3444" lon="0.0401">
        <ele>37</ele>
        <time>2020-06-17T13:09:21Z</time>
      </trkpt>
      <trkpt lat="49.34442" lon="0.04018">
        <ele>36.9</ele>
        <time>2020-06-17T13:09:22Z</time>
      </trkpt>
      <trkpt lat="49.34443" lon="0.04024">
        <ele>36.8</ele>
        <time>2020-06-17T13:09:23Z</time>
      </trkpt>
      <trkpt lat="49.34445" lon="0.04031">
        <ele>36.8</ele>
        <time>2020-06-17T13:09:24Z</time>
      </trkpt>
      <trkpt lat="49.34447" lon="0.04038">
        <ele>36.7</ele>
        <time>2020-06-17T13:09:25Z</time>
      </trkpt>
      <trkpt lat="49.3445" lon="0.04046">
        <ele>36.6</ele>
        <time>2020-06-17T13:09:26Z</time>
      </trkpt>
      <trkpt lat="49.34452" lon="0.04053">
        <ele>36.5</ele>
        <time>2020-06-17T13:09:27Z</time>
      </trkpt>
      <trkpt lat="49.34455" lon="0.04061">
        <ele>36.4</ele>
        <time>2020-06-17T13:09:28Z</time>
      </trkpt>
      <trkpt lat="49.34457" lon="0.04069">
        <ele>36.3</ele>
        <time>2020-06-17T13:09:29Z</time>
      </trkpt>
      <trkpt lat="49.34459" lon="0.04076">
        <ele>36.2</ele>
        <time>2020-06-17T13:09:30Z</time>
      </trkpt>
      <trkpt lat="49.34461" lon="0.04084">
        <ele>36.1</ele>
        <time>2020-06-17T13:09:31Z</time>
      </trkpt>
      <trkpt lat="49.34463" lon="0.04091">
        <ele>36.1</ele>
        <time>2020-06-17T13:09:32Z</time>
      </trkpt>
      <trkpt lat="49.34465" lon="0.04099">
        <ele>36</ele>
        <time>2020-06-17T13:09:33Z</time>
      </trkpt>
      <trkpt lat="49.34469" lon="0.04107">
        <ele>36</ele>
        <time>2020-06-17T13:09:34Z</time>
      </trkpt>
      <trkpt lat="49.34471" lon="0.04116">
        <ele>35.9</ele>
        <time>2020-06-17T13:09:35Z</time>
      </trkpt>
      <trkpt lat="49.34473" lon="0.04125">
        <ele>35.8</ele>
        <time>2020-06-17T13:09:36Z</time>
      </trkpt>
      <trkpt lat="49.34476" lon="0.04135">
        <ele>35.7</ele>
        <time>2020-06-17T13:09:37Z</time>
      </trkpt>
      <trkpt lat="49.34478" lon="0.04144">
        <ele>35.6</ele>
        <time>2020-06-17T13:09:38Z</time>
      </trkpt>
      <trkpt lat="49.3448" lon="0.04155">
        <ele>35.5</ele>
        <time>2020-06-17T13:09:39Z</time>
      </trkpt>
      <trkpt lat="49.34481" lon="0.04166">
        <ele>35.4</ele>
        <time>2020-06-17T13:09:40Z</time>
      </trkpt>
      <trkpt lat="49.34483" lon="0.04178">
        <ele>35.2</ele>
        <time>2020-06-17T13:09:41Z</time>
      </trkpt>
      <trkpt lat="49.34484" lon="0.0419">
        <ele>35.1</ele>
        <time>2020-06-17T13:09:42Z</time>
      </trkpt>
      <trkpt lat="49.34486" lon="0.04199">
        <ele>35</ele>
        <time>2020-06-17T13:09:43Z</time>
      </trkpt>
      <trkpt lat="49.34488" lon="0.0421">
        <ele>34.8</ele>
        <time>2020-06-17T13:09:44Z</time>
      </trkpt>
      <trkpt lat="49.3449" lon="0.0422">
        <ele>34.7</ele>
        <time>2020-06-17T13:09:45Z</time>
      </trkpt>
      <trkpt lat="49.34493" lon="0.0423">
        <ele>34.5</ele>
        <time>2020-06-17T13:09:46Z</time>
      </trkpt>
      <trkpt lat="49.34495" lon="0.0424">
        <ele>34.2</ele>
        <time>2020-06-17T13:09:47Z</time>
      </trkpt>
      <trkpt lat="49.34499" lon="0.04249">
        <ele>33.9</ele>
        <time>2020-06-17T13:09:48Z</time>
      </trkpt>
      <trkpt lat="49.34502" lon="0.04258">
        <ele>33.6</ele>
        <time>2020-06-17T13:09:49Z</time>
      </trkpt>
      <trkpt lat="49.34507" lon="0.04266">
        <ele>33.1</ele>
        <time>2020-06-17T13:09:50Z</time>
      </trkpt>
      <trkpt lat="49.34513" lon="0.04274">
        <ele>32.6</ele>
        <time>2020-06-17T13:09:51Z</time>
      </trkpt>
      <trkpt lat="49.3452" lon="0.04281">
        <ele>32</ele>
        <time>2020-06-17T13:09:52Z</time>
      </trkpt>
      <trkpt lat="49.34526" lon="0.04288">
        <ele>31.5</ele>
        <time>2020-06-17T13:09:53Z</time>
      </trkpt>
      <trkpt lat="49.34533" lon="0.04297">
        <ele>30.8</ele>
        <time>2020-06-17T13:09:54Z</time>
      </trkpt>
      <trkpt lat="49.34539" lon="0.04306">
        <ele>30.2</ele>
        <time>2020-06-17T13:09:55Z</time>
      </trkpt>
      <trkpt lat="49.34546" lon="0.04316">
        <ele>29.6</ele>
        <time>2020-06-17T13:09:56Z</time>
      </trkpt>
      <trkpt lat="49.34554" lon="0.04326">
        <ele>28.9</ele>
        <time>2020-06-17T13:09:57Z</time>
      </trkpt>
      <trkpt lat="49.34563" lon="0.04339">
        <ele>28</ele>
        <time>2020-06-17T13:09:58Z</time>
      </trkpt>
      <trkpt lat="49.34571" lon="0.04351">
        <ele>27.2</ele>
        <time>2020-06-17T13:09:59Z</time>
      </trkpt>
      <trkpt lat="49.3458" lon="0.04364">
        <ele>26.2</ele>
        <time>2020-06-17T13:10:00Z</time>
      </trkpt>
      <trkpt lat="49.34588" lon="0.04375">
        <ele>25.5</ele>
        <time>2020-06-17T13:10:01Z</time>
      </trkpt>
      <trkpt lat="49.34595" lon="0.04385">
        <ele>24.8</ele>
        <time>2020-06-17T13:10:02Z</time>
      </trkpt>
      <trkpt lat="49.34604" lon="0.04394">
        <ele>24.1</ele>
        <time>2020-06-17T13:10:03Z</time>
      </trkpt>
      <trkpt lat="49.34612" lon="0.04402">
        <ele>23.5</ele>
        <time>2020-06-17T13:10:04Z</time>
      </trkpt>
      <trkpt lat="49.3462" lon="0.04408">
        <ele>22.9</ele>
        <time>2020-06-17T13:10:05Z</time>
      </trkpt>
      <trkpt lat="49.34628" lon="0.04418">
        <ele>22.2</ele>
        <time>2020-06-17T13:10:06Z</time>
      </trkpt>
      <trkpt lat="49.34636" lon="0.04424">
        <ele>21.6</ele>
        <time>2020-06-17T13:10:07Z</time>
      </trkpt>
      <trkpt lat="49.34645" lon="0.04433">
        <ele>20.8</ele>
        <time>2020-06-17T13:10:08Z</time>
      </trkpt>
      <trkpt lat="49.34652" lon="0.04438">
        <ele>20.3</ele>
        <time>2020-06-17T13:10:09Z</time>
      </trkpt>
      <trkpt lat="49.34659" lon="0.04446">
        <ele>19.6</ele>
        <time>2020-06-17T13:10:10Z</time>
      </trkpt>
      <trkpt lat="49.34666" lon="0.04454">
        <ele>18.9</ele>
        <time>2020-06-17T13:10:11Z</time>
      </trkpt>
      <trkpt lat="49.34672" lon="0.04461">
        <ele>18.3</ele>
        <time>2020-06-17T13:10:12Z</time>
      </trkpt>
      <trkpt lat="49.34678" lon="0.04469">
        <ele>17.8</ele>
        <time>2020-06-17T13:10:13Z</time>
      </trkpt>
      <trkpt lat="49.34684" lon="0.04479">
        <ele>17.1</ele>
        <time>2020-06-17T13:10:14Z</time>
      </trkpt>
      <trkpt lat="49.3469" lon="0.04489">
        <ele>16.5</ele>
        <time>2020-06-17T13:10:15Z</time>
      </trkpt>
      <trkpt lat="49.34694" lon="0.04498">
        <ele>16</ele>
        <time>2020-06-17T13:10:16Z</time>
      </trkpt>
      <trkpt lat="49.34698" lon="0.04507">
        <ele>15.4</ele>
        <time>2020-06-17T13:10:17Z</time>
      </trkpt>
      <trkpt lat="49.34702" lon="0.04518">
        <ele>14.8</ele>
        <time>2020-06-17T13:10:18Z</time>
      </trkpt>
      <trkpt lat="49.34706" lon="0.04531">
        <ele>14.1</ele>
        <time>2020-06-17T13:10:19Z</time>
      </trkpt>
      <trkpt lat="49.34708" lon="0.04544">
        <ele>13.5</ele>
        <time>2020-06-17T13:10:20Z</time>
      </trkpt>
      <trkpt lat="49.34711" lon="0.04556">
        <ele>12.8</ele>
        <time>2020-06-17T13:10:21Z</time>
      </trkpt>
      <trkpt lat="49.34713" lon="0.0457">
        <ele>12.6</ele>
        <time>2020-06-17T13:10:22Z</time>
      </trkpt>
      <trkpt lat="49.34717" lon="0.04583">
        <ele>12.3</ele>
        <time>2020-06-17T13:10:23Z</time>
      </trkpt>
      <trkpt lat="49.34721" lon="0.04595">
        <ele>11.6</ele>
        <time>2020-06-17T13:10:24Z</time>
      </trkpt>
      <trkpt lat="49.34726" lon="0.04608">
        <ele>11</ele>
        <time>2020-06-17T13:10:25Z</time>
      </trkpt>
      <trkpt lat="49.3473" lon="0.04622">
        <ele>10.3</ele>
        <time>2020-06-17T13:10:26Z</time>
      </trkpt>
      <trkpt lat="49.34736" lon="0.04635">
        <ele>9.8</ele>
        <time>2020-06-17T13:10:27Z</time>
      </trkpt>
      <trkpt lat="49.3474" lon="0.04648">
        <ele>9.3</ele>
        <time>2020-06-17T13:10:28Z</time>
      </trkpt>
      <trkpt lat="49.34744" lon="0.0466">
        <ele>8.9</ele>
        <time>2020-06-17T13:10:29Z</time>
      </trkpt>
      <trkpt lat="49.34748" lon="0.04673">
        <ele>8.5</ele>
        <time>2020-06-17T13:10:30Z</time>
      </trkpt>
      <trkpt lat="49.34751" lon="0.04687">
        <ele>8.2</ele>
        <time>2020-06-17T13:10:31Z</time>
      </trkpt>
      <trkpt lat="49.34755" lon="0.04698">
        <ele>8</ele>
        <time>2020-06-17T13:10:32Z</time>
      </trkpt>
      <trkpt lat="49.3476" lon="0.04712">
        <ele>7.9</ele>
        <time>2020-06-17T13:10:33Z</time>
      </trkpt>
      <trkpt lat="49.34764" lon="0.04723">
        <ele>7.8</ele>
        <time>2020-06-17T13:10:34Z</time>
      </trkpt>
      <trkpt lat="49.34769" lon="0.04733">
        <ele>7.7</ele>
        <time>2020-06-17T13:10:35Z</time>
      </trkpt>
      <trkpt lat="49.34774" lon="0.04744">
        <ele>7.7</ele>
        <time>2020-06-17T13:10:36Z</time>
      </trkpt>
      <trkpt lat="49.34778" lon="0.04753">
        <ele>7.6</ele>
        <time>2020-06-17T13:10:37Z</time>
      </trkpt>
      <trkpt lat="49.34782" lon="0.04761">
        <ele>7.6</ele>
        <time>2020-06-17T13:10:38Z</time>
      </trkpt>
      <trkpt lat="49.34786" lon="0.0477">
        <ele>7.6</ele>
        <time>2020-06-17T13:10:39Z</time>
      </trkpt>
      <trkpt lat="49.34791" lon="0.0478">
        <ele>7.5</ele>
        <time>2020-06-17T13:10:40Z</time>
      </trkpt>
      <trkpt lat="49.34795" lon="0.04789">
        <ele>7.4</ele>
        <time>2020-06-17T13:10:41Z</time>
      </trkpt>
      <trkpt lat="49.34798" lon="0.04798">
        <ele>7.4</ele>
        <time>2020-06-17T13:10:42Z</time>
      </trkpt>
      <trkpt lat="49.34802" lon="0.04807">
        <ele>7.4</ele>
        <time>2020-06-17T13:10:43Z</time>
      </trkpt>
      <trkpt lat="49.34805" lon="0.04814">
        <ele>7.4</ele>
        <time>2020-06-17T13:10:44Z</time>
      </trkpt>
      <trkpt lat="49.34808" lon="0.04823">
        <ele>7.4</ele>
        <time>2020-06-17T13:10:45Z</time>
      </trkpt>
      <trkpt lat="49.3481" lon="0.04831">
        <ele>7.4</ele>
        <time>2020-06-17T13:10:46Z</time>
      </trkpt>
      <trkpt lat="49.34813" lon="0.04839">
        <ele>7.3</ele>
        <time>2020-06-17T13:10:47Z</time>
      </trkpt>
      <trkpt lat="49.34816" lon="0.04847">
        <ele>7.3</ele>
        <time>2020-06-17T13:10:48Z</time>
      </trkpt>
      <trkpt lat="49.34819" lon="0.04857">
        <ele>7.3</ele>
        <time>2020-06-17T13:10:49Z</time>
      </trkpt>
      <trkpt lat="49.34822" lon="0.04866">
        <ele>7.3</ele>
        <time>2020-06-17T13:10:50Z</time>
      </trkpt>
      <trkpt lat="49.34825" lon="0.04876">
        <ele>7.4</ele>
        <time>2020-06-17T13:10:51Z</time>
      </trkpt>
      <trkpt lat="49.34829" lon="0.04885">
        <ele>7.4</ele>
        <time>2020-06-17T13:10:52Z</time>
      </trkpt>
      <trkpt lat="49.34832" lon="0.04895">
        <ele>7.5</ele>
        <time>2020-06-17T13:10:53Z</time>
      </trkpt>
      <trkpt lat="49.34836" lon="0.04905">
        <ele>7.5</ele>
        <time>2020-06-17T13:10:54Z</time>
      </trkpt>
      <trkpt lat="49.34839" lon="0.04916">
        <ele>7.5</ele>
        <time>2020-06-17T13:10:55Z</time>
      </trkpt>
      <trkpt lat="49.34842" lon="0.04927">
        <ele>7.5</ele>
        <time>2020-06-17T13:10:56Z</time>
      </trkpt>
      <trkpt lat="49.34845" lon="0.04936">
        <ele>7.5</ele>
        <time>2020-06-17T13:10:57Z</time>
      </trkpt>
      <trkpt lat="49.34847" lon="0.04946">
        <ele>7.5</ele>
        <time>2020-06-17T13:10:58Z</time>
      </trkpt>
      <trkpt lat="49.3485" lon="0.04955">
        <ele>7.5</ele>
        <time>2020-06-17T13:10:59Z</time>
      </trkpt>
      <trkpt lat="49.34854" lon="0.04965">
        <ele>7.5</ele>
        <time>2020-06-17T13:11:00Z</time>
      </trkpt>
      <trkpt lat="49.34857" lon="0.04973">
        <ele>7.5</ele>
        <time>2020-06-17T13:11:01Z</time>
      </trkpt>
      <trkpt lat="49.3486" lon="0.04981">
        <ele>7.6</ele>
        <time>2020-06-17T13:11:02Z</time>
      </trkpt>
      <trkpt lat="49.34862" lon="0.04991">
        <ele>7.6</ele>
        <time>2020-06-17T13:11:03Z</time>
      </trkpt>
      <trkpt lat="49.34864" lon="0.04998">
        <ele>7.6</ele>
        <time>2020-06-17T13:11:04Z</time>
      </trkpt>
      <trkpt lat="49.34865" lon="0.05006">
        <ele>7.6</ele>
        <time>2020-06-17T13:11:05Z</time>
      </trkpt>
      <trkpt lat="49.34865" lon="0.05018">
        <ele>7.6</ele>
        <time>2020-06-17T13:11:06Z</time>
      </trkpt>
      <trkpt lat="49.34868" lon="0.05027">
        <ele>7.6</ele>
        <time>2020-06-17T13:11:07Z</time>
      </trkpt>
      <trkpt lat="49.34871" lon="0.05035">
        <ele>7.7</ele>
        <time>2020-06-17T13:11:08Z</time>
      </trkpt>
      <trkpt lat="49.34872" lon="0.05048">
        <ele>7.7</ele>
        <time>2020-06-17T13:11:09Z</time>
      </trkpt>
      <trkpt lat="49.34875" lon="0.05058">
        <ele>7.6</ele>
        <time>2020-06-17T13:11:10Z</time>
      </trkpt>
      <trkpt lat="49.34877" lon="0.05066">
        <ele>7.6</ele>
        <time>2020-06-17T13:11:11Z</time>
      </trkpt>
      <trkpt lat="49.3488" lon="0.05073">
        <ele>7.6</ele>
        <time>2020-06-17T13:11:12Z</time>
      </trkpt>
      <trkpt lat="49.34883" lon="0.05082">
        <ele>7.6</ele>
        <time>2020-06-17T13:11:13Z</time>
      </trkpt>
      <trkpt lat="49.34886" lon="0.05089">
        <ele>7.6</ele>
        <time>2020-06-17T13:11:14Z</time>
      </trkpt>
      <trkpt lat="49.34889" lon="0.05095">
        <ele>7.5</ele>
        <time>2020-06-17T13:11:15Z</time>
      </trkpt>
      <trkpt lat="49.34892" lon="0.05104">
        <ele>7.4</ele>
        <time>2020-06-17T13:11:16Z</time>
      </trkpt>
      <trkpt lat="49.34894" lon="0.0511">
        <ele>7.3</ele>
        <time>2020-06-17T13:11:17Z</time>
      </trkpt>
      <trkpt lat="49.34895" lon="0.05117">
        <ele>7.3</ele>
        <time>2020-06-17T13:11:18Z</time>
      </trkpt>
      <trkpt lat="49.34898" lon="0.05125">
        <ele>7.2</ele>
        <time>2020-06-17T13:11:19Z</time>
      </trkpt>
      <trkpt lat="49.349" lon="0.05134">
        <ele>7.1</ele>
        <time>2020-06-17T13:11:20Z</time>
      </trkpt>
      <trkpt lat="49.34903" lon="0.05142">
        <ele>7</ele>
        <time>2020-06-17T13:11:21Z</time>
      </trkpt>
      <trkpt lat="49.34905" lon="0.05151">
        <ele>7</ele>
        <time>2020-06-17T13:11:22Z</time>
      </trkpt>
      <trkpt lat="49.34908" lon="0.0516">
        <ele>6.9</ele>
        <time>2020-06-17T13:11:23Z</time>
      </trkpt>
      <trkpt lat="49.3491" lon="0.0517">
        <ele>6.8</ele>
        <time>2020-06-17T13:11:24Z</time>
      </trkpt>
      <trkpt lat="49.34912" lon="0.05179">
        <ele>6.8</ele>
        <time>2020-06-17T13:11:25Z</time>
      </trkpt>
      <trkpt lat="49.34915" lon="0.05188">
        <ele>6.8</ele>
        <time>2020-06-17T13:11:26Z</time>
      </trkpt>
      <trkpt lat="49.34918" lon="0.05197">
        <ele>6.7</ele>
        <time>2020-06-17T13:11:27Z</time>
      </trkpt>
      <trkpt lat="49.34921" lon="0.05204">
        <ele>6.7</ele>
        <time>2020-06-17T13:11:28Z</time>
      </trkpt>
      <trkpt lat="49.34925" lon="0.05212">
        <ele>6.7</ele>
        <time>2020-06-17T13:11:29Z</time>
      </trkpt>
      <trkpt lat="49.34928" lon="0.0522">
        <ele>6.7</ele>
        <time>2020-06-17T13:11:30Z</time>
      </trkpt>
      <trkpt lat="49.34931" lon="0.05227">
        <ele>6.6</ele>
        <time>2020-06-17T13:11:31Z</time>
      </trkpt>
      <trkpt lat="49.34935" lon="0.05235">
        <ele>6.6</ele>
        <time>2020-06-17T13:11:32Z</time>
      </trkpt>
      <trkpt lat="49.34938" lon="0.05242">
        <ele>6.6</ele>
        <time>2020-06-17T13:11:33Z</time>
      </trkpt>
      <trkpt lat="49.34942" lon="0.05249">
        <ele>6.6</ele>
        <time>2020-06-17T13:11:34Z</time>
      </trkpt>
      <trkpt lat="49.34945" lon="0.05256">
        <ele>6.6</ele>
        <time>2020-06-17T13:11:35Z</time>
      </trkpt>
      <trkpt lat="49.3495" lon="0.05265">
        <ele>6.6</ele>
        <time>2020-06-17T13:11:36Z</time>
      </trkpt>
      <trkpt lat="49.34953" lon="0.05273">
        <ele>6.6</ele>
        <time>2020-06-17T13:11:37Z</time>
      </trkpt>
      <trkpt lat="49.34956" lon="0.05282">
        <ele>6.6</ele>
        <time>2020-06-17T13:11:38Z</time>
      </trkpt>
      <trkpt lat="49.34959" lon="0.0529">
        <ele>6.6</ele>
        <time>2020-06-17T13:11:39Z</time>
      </trkpt>
      <trkpt lat="49.34962" lon="0.05298">
        <ele>6.6</ele>
        <time>2020-06-17T13:11:40Z</time>
      </trkpt>
      <trkpt lat="49.34965" lon="0.05306">
        <ele>6.6</ele>
        <time>2020-06-17T13:11:41Z</time>
      </trkpt>
      <trkpt lat="49.34967" lon="0.05314">
        <ele>6.6</ele>
        <time>2020-06-17T13:11:42Z</time>
      </trkpt>
      <trkpt lat="49.3497" lon="0.05322">
        <ele>6.6</ele>
        <time>2020-06-17T13:11:43Z</time>
      </trkpt>
      <trkpt lat="49.34974" lon="0.0533">
        <ele>6.6</ele>
        <time>2020-06-17T13:11:44Z</time>
      </trkpt>
      <trkpt lat="49.34977" lon="0.05338">
        <ele>6.6</ele>
        <time>2020-06-17T13:11:45Z</time>
      </trkpt>
      <trkpt lat="49.34982" lon="0.05347">
        <ele>6.6</ele>
        <time>2020-06-17T13:11:46Z</time>
      </trkpt>
      <trkpt lat="49.34986" lon="0.05357">
        <ele>6.6</ele>
        <time>2020-06-17T13:11:47Z</time>
      </trkpt>
      <trkpt lat="49.3499" lon="0.05366">
        <ele>6.7</ele>
        <time>2020-06-17T13:11:48Z</time>
      </trkpt>
      <trkpt lat="49.34993" lon="0.05374">
        <ele>6.7</ele>
        <time>2020-06-17T13:11:49Z</time>
      </trkpt>
      <trkpt lat="49.34996" lon="0.05382">
        <ele>6.8</ele>
        <time>2020-06-17T13:11:50Z</time>
      </trkpt>
      <trkpt lat="49.35001" lon="0.05392">
        <ele>6.8</ele>
        <time>2020-06-17T13:11:51Z</time>
      </trkpt>
      <trkpt lat="49.35004" lon="0.05402">
        <ele>6.9</ele>
        <time>2020-06-17T13:11:52Z</time>
      </trkpt>
      <trkpt lat="49.35008" lon="0.05411">
        <ele>7</ele>
        <time>2020-06-17T13:11:53Z</time>
      </trkpt>
      <trkpt lat="49.35011" lon="0.05421">
        <ele>7.1</ele>
        <time>2020-06-17T13:11:54Z</time>
      </trkpt>
      <trkpt lat="49.35014" lon="0.05429">
        <ele>7.1</ele>
        <time>2020-06-17T13:11:55Z</time>
      </trkpt>
      <trkpt lat="49.35018" lon="0.05437">
        <ele>7.2</ele>
        <time>2020-06-17T13:11:56Z</time>
      </trkpt>
      <trkpt lat="49.35021" lon="0.05445">
        <ele>6.9</ele>
        <time>2020-06-17T13:11:57Z</time>
      </trkpt>
      <trkpt lat="49.35024" lon="0.05454">
        <ele>6.8</ele>
        <time>2020-06-17T13:11:58Z</time>
      </trkpt>
      <trkpt lat="49.35028" lon="0.05462">
        <ele>6.7</ele>
        <time>2020-06-17T13:11:59Z</time>
      </trkpt>
      <trkpt lat="49.35031" lon="0.05472">
        <ele>6.5</ele>
        <time>2020-06-17T13:12:00Z</time>
      </trkpt>
      <trkpt lat="49.35035" lon="0.05481">
        <ele>6.5</ele>
        <time>2020-06-17T13:12:01Z</time>
      </trkpt>
      <trkpt lat="49.35037" lon="0.0549">
        <ele>6.5</ele>
        <time>2020-06-17T13:12:02Z</time>
      </trkpt>
      <trkpt lat="49.35041" lon="0.05499">
        <ele>6.5</ele>
        <time>2020-06-17T13:12:03Z</time>
      </trkpt>
      <trkpt lat="49.35046" lon="0.05507">
        <ele>6.4</ele>
        <time>2020-06-17T13:12:04Z</time>
      </trkpt>
      <trkpt lat="49.35051" lon="0.05515">
        <ele>6.4</ele>
        <time>2020-06-17T13:12:05Z</time>
      </trkpt>
      <trkpt lat="49.35056" lon="0.05524">
        <ele>6.4</ele>
        <time>2020-06-17T13:12:06Z</time>
      </trkpt>
      <trkpt lat="49.3506" lon="0.05531">
        <ele>6.4</ele>
        <time>2020-06-17T13:12:07Z</time>
      </trkpt>
      <trkpt lat="49.35064" lon="0.05541">
        <ele>6.4</ele>
        <time>2020-06-17T13:12:08Z</time>
      </trkpt>
      <trkpt lat="49.35066" lon="0.0555">
        <ele>6.3</ele>
        <time>2020-06-17T13:12:09Z</time>
      </trkpt>
      <trkpt lat="49.35068" lon="0.05558">
        <ele>6.3</ele>
        <time>2020-06-17T13:12:10Z</time>
      </trkpt>
      <trkpt lat="49.35071" lon="0.05568">
        <ele>6.3</ele>
        <time>2020-06-17T13:12:11Z</time>
      </trkpt>
      <trkpt lat="49.35074" lon="0.05577">
        <ele>6.3</ele>
        <time>2020-06-17T13:12:12Z</time>
      </trkpt>
      <trkpt lat="49.35077" lon="0.05585">
        <ele>6.3</ele>
        <time>2020-06-17T13:12:13Z</time>
      </trkpt>
      <trkpt lat="49.35081" lon="0.05594">
        <ele>6.2</ele>
        <time>2020-06-17T13:12:14Z</time>
      </trkpt>
      <trkpt lat="49.35084" lon="0.05603">
        <ele>6.2</ele>
        <time>2020-06-17T13:12:15Z</time>
      </trkpt>
      <trkpt lat="49.35086" lon="0.05611">
        <ele>6.2</ele>
        <time>2020-06-17T13:12:16Z</time>
      </trkpt>
      <trkpt lat="49.35089" lon="0.0562">
        <ele>6.2</ele>
        <time>2020-06-17T13:12:17Z</time>
      </trkpt>
      <trkpt lat="49.35091" lon="0.05628">
        <ele>6.2</ele>
        <time>2020-06-17T13:12:18Z</time>
      </trkpt>
      <trkpt lat="49.35093" lon="0.05636">
        <ele>6.1</ele>
        <time>2020-06-17T13:12:19Z</time>
      </trkpt>
      <trkpt lat="49.35096" lon="0.05644">
        <ele>6.1</ele>
        <time>2020-06-17T13:12:20Z</time>
      </trkpt>
      <trkpt lat="49.35099" lon="0.05653">
        <ele>6.1</ele>
        <time>2020-06-17T13:12:21Z</time>
      </trkpt>
      <trkpt lat="49.35103" lon="0.05661">
        <ele>6.1</ele>
        <time>2020-06-17T13:12:22Z</time>
      </trkpt>
      <trkpt lat="49.35106" lon="0.05669">
        <ele>6</ele>
        <time>2020-06-17T13:12:23Z</time>
      </trkpt>
      <trkpt lat="49.35108" lon="0.05676">
        <ele>6</ele>
        <time>2020-06-17T13:12:24Z</time>
      </trkpt>
      <trkpt lat="49.3511" lon="0.05684">
        <ele>6</ele>
        <time>2020-06-17T13:12:25Z</time>
      </trkpt>
      <trkpt lat="49.35113" lon="0.0569">
        <ele>6</ele>
        <time>2020-06-17T13:12:26Z</time>
      </trkpt>
      <trkpt lat="49.35116" lon="0.05699">
        <ele>6</ele>
        <time>2020-06-17T13:12:27Z</time>
      </trkpt>
      <trkpt lat="49.35119" lon="0.05708">
        <ele>6</ele>
        <time>2020-06-17T13:12:28Z</time>
      </trkpt>
      <trkpt lat="49.35121" lon="0.05717">
        <ele>6</ele>
        <time>2020-06-17T13:12:29Z</time>
      </trkpt>
      <trkpt lat="49.35124" lon="0.05724">
        <ele>5.9</ele>
        <time>2020-06-17T13:12:30Z</time>
      </trkpt>
      <trkpt lat="49.35127" lon="0.05732">
        <ele>5.8</ele>
        <time>2020-06-17T13:12:31Z</time>
      </trkpt>
      <trkpt lat="49.3513" lon="0.0574">
        <ele>5.8</ele>
        <time>2020-06-17T13:12:32Z</time>
      </trkpt>
      <trkpt lat="49.35133" lon="0.05749">
        <ele>5.7</ele>
        <time>2020-06-17T13:12:33Z</time>
      </trkpt>
      <trkpt lat="49.35136" lon="0.05758">
        <ele>5.7</ele>
        <time>2020-06-17T13:12:34Z</time>
      </trkpt>
      <trkpt lat="49.3514" lon="0.05766">
        <ele>5.7</ele>
        <time>2020-06-17T13:12:35Z</time>
      </trkpt>
      <trkpt lat="49.35143" lon="0.05774">
        <ele>5.6</ele>
        <time>2020-06-17T13:12:36Z</time>
      </trkpt>
      <trkpt lat="49.35147" lon="0.05783">
        <ele>5.6</ele>
        <time>2020-06-17T13:12:37Z</time>
      </trkpt>
      <trkpt lat="49.35151" lon="0.05791">
        <ele>5.6</ele>
        <time>2020-06-17T13:12:38Z</time>
      </trkpt>
      <trkpt lat="49.35154" lon="0.058">
        <ele>5.6</ele>
        <time>2020-06-17T13:12:39Z</time>
      </trkpt>
      <trkpt lat="49.35158" lon="0.05809">
        <ele>5.6</ele>
        <time>2020-06-17T13:12:40Z</time>
      </trkpt>
      <trkpt lat="49.35162" lon="0.05818">
        <ele>5.6</ele>
        <time>2020-06-17T13:12:41Z</time>
      </trkpt>
      <trkpt lat="49.35165" lon="0.05827">
        <ele>5.5</ele>
        <time>2020-06-17T13:12:42Z</time>
      </trkpt>
      <trkpt lat="49.35168" lon="0.05835">
        <ele>5.5</ele>
        <time>2020-06-17T13:12:43Z</time>
      </trkpt>
      <trkpt lat="49.3517" lon="0.05843">
        <ele>5.5</ele>
        <time>2020-06-17T13:12:44Z</time>
      </trkpt>
      <trkpt lat="49.35172" lon="0.05852">
        <ele>5.5</ele>
        <time>2020-06-17T13:12:45Z</time>
      </trkpt>
      <trkpt lat="49.35174" lon="0.0586">
        <ele>5.5</ele>
        <time>2020-06-17T13:12:46Z</time>
      </trkpt>
      <trkpt lat="49.35175" lon="0.05868">
        <ele>5.5</ele>
        <time>2020-06-17T13:12:47Z</time>
      </trkpt>
      <trkpt lat="49.35178" lon="0.05877">
        <ele>5.5</ele>
        <time>2020-06-17T13:12:48Z</time>
      </trkpt>
      <trkpt lat="49.3518" lon="0.05886">
        <ele>5.4</ele>
        <time>2020-06-17T13:12:49Z</time>
      </trkpt>
      <trkpt lat="49.35183" lon="0.05896">
        <ele>5.4</ele>
        <time>2020-06-17T13:12:50Z</time>
      </trkpt>
      <trkpt lat="49.35185" lon="0.05905">
        <ele>5.4</ele>
        <time>2020-06-17T13:12:51Z</time>
      </trkpt>
      <trkpt lat="49.35188" lon="0.05914">
        <ele>5.4</ele>
        <time>2020-06-17T13:12:52Z</time>
      </trkpt>
      <trkpt lat="49.3519" lon="0.05922">
        <ele>5.5</ele>
        <time>2020-06-17T13:12:53Z</time>
      </trkpt>
      <trkpt lat="49.35194" lon="0.05931">
        <ele>5.5</ele>
        <time>2020-06-17T13:12:54Z</time>
      </trkpt>
      <trkpt lat="49.35197" lon="0.0594">
        <ele>5.4</ele>
        <time>2020-06-17T13:12:55Z</time>
      </trkpt>
      <trkpt lat="49.35199" lon="0.05948">
        <ele>5.4</ele>
        <time>2020-06-17T13:12:56Z</time>
      </trkpt>
      <trkpt lat="49.35202" lon="0.05959">
        <ele>5.4</ele>
        <time>2020-06-17T13:12:57Z</time>
      </trkpt>
      <trkpt lat="49.35205" lon="0.05967">
        <ele>5.4</ele>
        <time>2020-06-17T13:12:58Z</time>
      </trkpt>
      <trkpt lat="49.35208" lon="0.05977">
        <ele>5.4</ele>
        <time>2020-06-17T13:12:59Z</time>
      </trkpt>
      <trkpt lat="49.35212" lon="0.05984">
        <ele>5.4</ele>
        <time>2020-06-17T13:13:00Z</time>
      </trkpt>
      <trkpt lat="49.35216" lon="0.05993">
        <ele>5.4</ele>
        <time>2020-06-17T13:13:01Z</time>
      </trkpt>
      <trkpt lat="49.35219" lon="0.06002">
        <ele>5.4</ele>
        <time>2020-06-17T13:13:02Z</time>
      </trkpt>
      <trkpt lat="49.35222" lon="0.06011">
        <ele>5.4</ele>
        <time>2020-06-17T13:13:03Z</time>
      </trkpt>
      <trkpt lat="49.35226" lon="0.06019">
        <ele>5.4</ele>
        <time>2020-06-17T13:13:04Z</time>
      </trkpt>
      <trkpt lat="49.3523" lon="0.06028">
        <ele>5.4</ele>
        <time>2020-06-17T13:13:05Z</time>
      </trkpt>
      <trkpt lat="49.35233" lon="0.06037">
        <ele>5.4</ele>
        <time>2020-06-17T13:13:06Z</time>
      </trkpt>
      <trkpt lat="49.35236" lon="0.06046">
        <ele>5.4</ele>
        <time>2020-06-17T13:13:07Z</time>
      </trkpt>
      <trkpt lat="49.3524" lon="0.06055">
        <ele>5.5</ele>
        <time>2020-06-17T13:13:08Z</time>
      </trkpt>
      <trkpt lat="49.35244" lon="0.06065">
        <ele>5.5</ele>
        <time>2020-06-17T13:13:09Z</time>
      </trkpt>
      <trkpt lat="49.35247" lon="0.06074">
        <ele>5.6</ele>
        <time>2020-06-17T13:13:10Z</time>
      </trkpt>
      <trkpt lat="49.35251" lon="0.06081">
        <ele>5.6</ele>
        <time>2020-06-17T13:13:11Z</time>
      </trkpt>
      <trkpt lat="49.35254" lon="0.06089">
        <ele>5.5</ele>
        <time>2020-06-17T13:13:12Z</time>
      </trkpt>
      <trkpt lat="49.35257" lon="0.06097">
        <ele>5.5</ele>
        <time>2020-06-17T13:13:13Z</time>
      </trkpt>
      <trkpt lat="49.3526" lon="0.06104">
        <ele>5.4</ele>
        <time>2020-06-17T13:13:14Z</time>
      </trkpt>
      <trkpt lat="49.35263" lon="0.06111">
        <ele>5.3</ele>
        <time>2020-06-17T13:13:15Z</time>
      </trkpt>
      <trkpt lat="49.35267" lon="0.06118">
        <ele>5.3</ele>
        <time>2020-06-17T13:13:16Z</time>
      </trkpt>
      <trkpt lat="49.3527" lon="0.06126">
        <ele>5.3</ele>
        <time>2020-06-17T13:13:17Z</time>
      </trkpt>
      <trkpt lat="49.35273" lon="0.06134">
        <ele>5.3</ele>
        <time>2020-06-17T13:13:18Z</time>
      </trkpt>
      <trkpt lat="49.35276" lon="0.06142">
        <ele>5.3</ele>
        <time>2020-06-17T13:13:19Z</time>
      </trkpt>
      <trkpt lat="49.35279" lon="0.0615">
        <ele>5.3</ele>
        <time>2020-06-17T13:13:20Z</time>
      </trkpt>
      <trkpt lat="49.35282" lon="0.06158">
        <ele>5.3</ele>
        <time>2020-06-17T13:13:21Z</time>
      </trkpt>
      <trkpt lat="49.35285" lon="0.06167">
        <ele>5.3</ele>
        <time>2020-06-17T13:13:22Z</time>
      </trkpt>
      <trkpt lat="49.35289" lon="0.06176">
        <ele>5.3</ele>
        <time>2020-06-17T13:13:23Z</time>
      </trkpt>
      <trkpt lat="49.35291" lon="0.06184">
        <ele>5.3</ele>
        <time>2020-06-17T13:13:24Z</time>
      </trkpt>
      <trkpt lat="49.35293" lon="0.06193">
        <ele>5.3</ele>
        <time>2020-06-17T13:13:25Z</time>
      </trkpt>
      <trkpt lat="49.35295" lon="0.06203">
        <ele>5.3</ele>
        <time>2020-06-17T13:13:26Z</time>
      </trkpt>
      <trkpt lat="49.35298" lon="0.06211">
        <ele>5.3</ele>
        <time>2020-06-17T13:13:27Z</time>
      </trkpt>
      <trkpt lat="49.35301" lon="0.0622">
        <ele>5.2</ele>
        <time>2020-06-17T13:13:28Z</time>
      </trkpt>
      <trkpt lat="49.35304" lon="0.0623">
        <ele>5.2</ele>
        <time>2020-06-17T13:13:29Z</time>
      </trkpt>
      <trkpt lat="49.35307" lon="0.0624">
        <ele>5.2</ele>
        <time>2020-06-17T13:13:30Z</time>
      </trkpt>
      <trkpt lat="49.3531" lon="0.06248">
        <ele>5.2</ele>
        <time>2020-06-17T13:13:31Z</time>
      </trkpt>
      <trkpt lat="49.35313" lon="0.06257">
        <ele>5.2</ele>
        <time>2020-06-17T13:13:32Z</time>
      </trkpt>
      <trkpt lat="49.35315" lon="0.06267">
        <ele>5.2</ele>
        <time>2020-06-17T13:13:33Z</time>
      </trkpt>
      <trkpt lat="49.35318" lon="0.06275">
        <ele>5.2</ele>
        <time>2020-06-17T13:13:34Z</time>
      </trkpt>
      <trkpt lat="49.35321" lon="0.06285">
        <ele>5.2</ele>
        <time>2020-06-17T13:13:35Z</time>
      </trkpt>
      <trkpt lat="49.35323" lon="0.06294">
        <ele>5.2</ele>
        <time>2020-06-17T13:13:36Z</time>
      </trkpt>
      <trkpt lat="49.35325" lon="0.06302">
        <ele>5.2</ele>
        <time>2020-06-17T13:13:37Z</time>
      </trkpt>
      <trkpt lat="49.35328" lon="0.0631">
        <ele>5.2</ele>
        <time>2020-06-17T13:13:38Z</time>
      </trkpt>
      <trkpt lat="49.35331" lon="0.0632">
        <ele>5.2</ele>
        <time>2020-06-17T13:13:39Z</time>
      </trkpt>
      <trkpt lat="49.35334" lon="0.0633">
        <ele>5.2</ele>
        <time>2020-06-17T13:13:40Z</time>
      </trkpt>
      <trkpt lat="49.35337" lon="0.06339">
        <ele>5.2</ele>
        <time>2020-06-17T13:13:41Z</time>
      </trkpt>
      <trkpt lat="49.3534" lon="0.06348">
        <ele>5.2</ele>
        <time>2020-06-17T13:13:42Z</time>
      </trkpt>
      <trkpt lat="49.35344" lon="0.06357">
        <ele>5.2</ele>
        <time>2020-06-17T13:13:43Z</time>
      </trkpt>
      <trkpt lat="49.35348" lon="0.06364">
        <ele>5.2</ele>
        <time>2020-06-17T13:13:44Z</time>
      </trkpt>
      <trkpt lat="49.35351" lon="0.06372">
        <ele>5.2</ele>
        <time>2020-06-17T13:13:45Z</time>
      </trkpt>
      <trkpt lat="49.35354" lon="0.06379">
        <ele>5.2</ele>
        <time>2020-06-17T13:13:46Z</time>
      </trkpt>
      <trkpt lat="49.35358" lon="0.06387">
        <ele>5.2</ele>
        <time>2020-06-17T13:13:47Z</time>
      </trkpt>
      <trkpt lat="49.3536" lon="0.06394">
        <ele>5.3</ele>
        <time>2020-06-17T13:13:48Z</time>
      </trkpt>
      <trkpt lat="49.35362" lon="0.064">
        <ele>5.4</ele>
        <time>2020-06-17T13:13:49Z</time>
      </trkpt>
      <trkpt lat="49.35365" lon="0.06408">
        <ele>5.6</ele>
        <time>2020-06-17T13:13:50Z</time>
      </trkpt>
      <trkpt lat="49.35368" lon="0.06415">
        <ele>5.7</ele>
        <time>2020-06-17T13:13:51Z</time>
      </trkpt>
      <trkpt lat="49.3537" lon="0.06421">
        <ele>5.8</ele>
        <time>2020-06-17T13:13:52Z</time>
      </trkpt>
      <trkpt lat="49.35373" lon="0.06427">
        <ele>5.8</ele>
        <time>2020-06-17T13:13:53Z</time>
      </trkpt>
      <trkpt lat="49.35375" lon="0.0643">
        <ele>5.9</ele>
        <time>2020-06-17T13:13:54Z</time>
      </trkpt>
      <trkpt lat="49.35377" lon="0.06434">
        <ele>5.9</ele>
        <time>2020-06-17T13:13:55Z</time>
      </trkpt>
      <trkpt lat="49.35379" lon="0.06439">
        <ele>6</ele>
        <time>2020-06-17T13:13:56Z</time>
      </trkpt>
      <trkpt lat="49.3538" lon="0.06445">
        <ele>6</ele>
        <time>2020-06-17T13:13:57Z</time>
      </trkpt>
      <trkpt lat="49.35382" lon="0.06451">
        <ele>6.1</ele>
        <time>2020-06-17T13:13:58Z</time>
      </trkpt>
      <trkpt lat="49.35383" lon="0.06453">
        <ele>6.1</ele>
        <time>2020-06-17T13:13:59Z</time>
      </trkpt>
      <trkpt lat="49.35385" lon="0.06457">
        <ele>6.2</ele>
        <time>2020-06-17T13:14:00Z</time>
      </trkpt>
      <trkpt lat="49.35386" lon="0.06458">
        <ele>6.2</ele>
        <time>2020-06-17T13:14:01Z</time>
      </trkpt>
      <trkpt lat="49.35389" lon="0.06463">
        <ele>6.2</ele>
        <time>2020-06-17T13:14:02Z</time>
      </trkpt>
      <trkpt lat="49.35391" lon="0.06467">
        <ele>6.3</ele>
        <time>2020-06-17T13:14:03Z</time>
      </trkpt>
      <trkpt lat="49.35393" lon="0.06473">
        <ele>6.3</ele>
        <time>2020-06-17T13:14:04Z</time>
      </trkpt>
      <trkpt lat="49.35393" lon="0.06476">
        <ele>6.3</ele>
        <time>2020-06-17T13:14:05Z</time>
      </trkpt>
      <trkpt lat="49.35393" lon="0.0648">
        <ele>6.4</ele>
        <time>2020-06-17T13:14:06Z</time>
      </trkpt>
      <trkpt lat="49.35394" lon="0.06485">
        <ele>6.4</ele>
        <time>2020-06-17T13:14:07Z</time>
      </trkpt>
      <trkpt lat="49.35394" lon="0.06486">
        <ele>6.4</ele>
        <time>2020-06-17T13:14:08Z</time>
      </trkpt>
      <trkpt lat="49.35395" lon="0.06487">
        <ele>6.4</ele>
        <time>2020-06-17T13:14:09Z</time>
      </trkpt>
      <trkpt lat="49.35396" lon="0.06488">
        <ele>6.5</ele>
        <time>2020-06-17T13:14:10Z</time>
      </trkpt>
      <trkpt lat="49.35396" lon="0.06488">
        <ele>6.5</ele>
        <time>2020-06-17T13:14:11Z</time>
      </trkpt>
      <trkpt lat="49.35397" lon="0.0649">
        <ele>6.5</ele>
        <time>2020-06-17T13:14:12Z</time>
      </trkpt>
      <trkpt lat="49.35396" lon="0.06491">
        <ele>6.5</ele>
        <time>2020-06-17T13:14:13Z</time>
      </trkpt>
      <trkpt lat="49.35396" lon="0.06493">
        <ele>6.5</ele>
        <time>2020-06-17T13:14:14Z</time>
      </trkpt>
      <trkpt lat="49.35396" lon="0.06494">
        <ele>6.5</ele>
        <time>2020-06-17T13:14:15Z</time>
      </trkpt>
      <trkpt lat="49.35396" lon="0.06495">
        <ele>6.5</ele>
        <time>2020-06-17T13:14:16Z</time>
      </trkpt>
      <trkpt lat="49.35396" lon="0.06496">
        <ele>6.5</ele>
        <time>2020-06-17T13:14:17Z</time>
      </trkpt>
      <trkpt lat="49.35396" lon="0.06498">
        <ele>6.5</ele>
        <time>2020-06-17T13:14:18Z</time>
      </trkpt>
      <trkpt lat="49.35396" lon="0.06499">
        <ele>6.5</ele>
        <time>2020-06-17T13:14:19Z</time>
      </trkpt>
      <trkpt lat="49.35396" lon="0.065">
        <ele>6.6</ele>
        <time>2020-06-17T13:14:20Z</time>
      </trkpt>
      <trkpt lat="49.35395" lon="0.06502">
        <ele>6.6</ele>
        <time>2020-06-17T13:14:21Z</time>
      </trkpt>
      <trkpt lat="49.35395" lon="0.06503">
        <ele>6.6</ele>
        <time>2020-06-17T13:14:22Z</time>
      </trkpt>
      <trkpt lat="49.35395" lon="0.06504">
        <ele>6.6</ele>
        <time>2020-06-17T13:16:19Z</time>
      </trkpt>
      <trkpt lat="49.35395" lon="0.06506">
        <ele>6.6</ele>
        <time>2020-06-17T13:16:20Z</time>
      </trkpt>
      <trkpt lat="49.35398" lon="0.0651">
        <ele>6.6</ele>
        <time>2020-06-17T13:16:21Z</time>
      </trkpt>
      <trkpt lat="49.35398" lon="0.06511">
        <ele>6.7</ele>
        <time>2020-06-17T13:16:22Z</time>
      </trkpt>
      <trkpt lat="49.354" lon="0.06515">
        <ele>6.7</ele>
        <time>2020-06-17T13:16:23Z</time>
      </trkpt>
      <trkpt lat="49.35401" lon="0.06517">
        <ele>6.7</ele>
        <time>2020-06-17T13:16:24Z</time>
      </trkpt>
      <trkpt lat="49.35401" lon="0.06518">
        <ele>6.7</ele>
        <time>2020-06-17T13:16:25Z</time>
      </trkpt>
      <trkpt lat="49.35402" lon="0.0652">
        <ele>6.7</ele>
        <time>2020-06-17T13:16:26Z</time>
      </trkpt>
      <trkpt lat="49.35402" lon="0.06522">
        <ele>6.8</ele>
        <time>2020-06-17T13:16:27Z</time>
      </trkpt>
      <trkpt lat="49.35403" lon="0.06523">
        <ele>6.8</ele>
        <time>2020-06-17T13:16:28Z</time>
      </trkpt>
      <trkpt lat="49.35404" lon="0.06526">
        <ele>6.8</ele>
        <time>2020-06-17T13:16:29Z</time>
      </trkpt>
      <trkpt lat="49.35406" lon="0.0653">
        <ele>6.9</ele>
        <time>2020-06-17T13:16:30Z</time>
      </trkpt>
      <trkpt lat="49.35406" lon="0.06532">
        <ele>6.9</ele>
        <time>2020-06-17T13:16:31Z</time>
      </trkpt>
      <trkpt lat="49.35408" lon="0.06535">
        <ele>6.9</ele>
        <time>2020-06-17T13:16:32Z</time>
      </trkpt>
      <trkpt lat="49.35411" lon="0.06541">
        <ele>7</ele>
        <time>2020-06-17T13:16:33Z</time>
      </trkpt>
      <trkpt lat="49.35414" lon="0.06546">
        <ele>7.1</ele>
        <time>2020-06-17T13:16:34Z</time>
      </trkpt>
      <trkpt lat="49.35416" lon="0.06552">
        <ele>7.2</ele>
        <time>2020-06-17T13:16:35Z</time>
      </trkpt>
      <trkpt lat="49.35419" lon="0.06558">
        <ele>7.2</ele>
        <time>2020-06-17T13:16:36Z</time>
      </trkpt>
      <trkpt lat="49.35421" lon="0.06563">
        <ele>7.2</ele>
        <time>2020-06-17T13:16:37Z</time>
      </trkpt>
      <trkpt lat="49.35424" lon="0.06569">
        <ele>7.1</ele>
        <time>2020-06-17T13:16:38Z</time>
      </trkpt>
      <trkpt lat="49.35426" lon="0.06575">
        <ele>7</ele>
        <time>2020-06-17T13:16:39Z</time>
      </trkpt>
      <trkpt lat="49.35429" lon="0.06581">
        <ele>6.9</ele>
        <time>2020-06-17T13:16:40Z</time>
      </trkpt>
      <trkpt lat="49.35431" lon="0.06588">
        <ele>6.8</ele>
        <time>2020-06-17T13:16:41Z</time>
      </trkpt>
      <trkpt lat="49.35434" lon="0.06594">
        <ele>6.7</ele>
        <time>2020-06-17T13:16:42Z</time>
      </trkpt>
      <trkpt lat="49.35436" lon="0.066">
        <ele>6.6</ele>
        <time>2020-06-17T13:16:43Z</time>
      </trkpt>
      <trkpt lat="49.35439" lon="0.06606">
        <ele>6.5</ele>
        <time>2020-06-17T13:16:44Z</time>
      </trkpt>
      <trkpt lat="49.35441" lon="0.06613">
        <ele>6.4</ele>
        <time>2020-06-17T13:16:45Z</time>
      </trkpt>
      <trkpt lat="49.35443" lon="0.0662">
        <ele>6.3</ele>
        <time>2020-06-17T13:16:46Z</time>
      </trkpt>
      <trkpt lat="49.35446" lon="0.06626">
        <ele>6.2</ele>
        <time>2020-06-17T13:16:47Z</time>
      </trkpt>
      <trkpt lat="49.35449" lon="0.06633">
        <ele>6.1</ele>
        <time>2020-06-17T13:16:48Z</time>
      </trkpt>
      <trkpt lat="49.35452" lon="0.06639">
        <ele>6</ele>
        <time>2020-06-17T13:16:49Z</time>
      </trkpt>
      <trkpt lat="49.35455" lon="0.06646">
        <ele>5.9</ele>
        <time>2020-06-17T13:16:50Z</time>
      </trkpt>
      <trkpt lat="49.35458" lon="0.06652">
        <ele>5.8</ele>
        <time>2020-06-17T13:16:51Z</time>
      </trkpt>
      <trkpt lat="49.3546" lon="0.06659">
        <ele>5.7</ele>
        <time>2020-06-17T13:16:52Z</time>
      </trkpt>
      <trkpt lat="49.35463" lon="0.06665">
        <ele>5.7</ele>
        <time>2020-06-17T13:16:53Z</time>
      </trkpt>
      <trkpt lat="49.35465" lon="0.06671">
        <ele>5.6</ele>
        <time>2020-06-17T13:16:54Z</time>
      </trkpt>
      <trkpt lat="49.35468" lon="0.06677">
        <ele>5.5</ele>
        <time>2020-06-17T13:16:55Z</time>
      </trkpt>
      <trkpt lat="49.3547" lon="0.06684">
        <ele>5.5</ele>
        <time>2020-06-17T13:16:56Z</time>
      </trkpt>
      <trkpt lat="49.35473" lon="0.0669">
        <ele>5.5</ele>
        <time>2020-06-17T13:16:57Z</time>
      </trkpt>
      <trkpt lat="49.35476" lon="0.06697">
        <ele>5.5</ele>
        <time>2020-06-17T13:16:58Z</time>
      </trkpt>
      <trkpt lat="49.35479" lon="0.06704">
        <ele>5.4</ele>
        <time>2020-06-17T13:16:59Z</time>
      </trkpt>
      <trkpt lat="49.35482" lon="0.06711">
        <ele>5.4</ele>
        <time>2020-06-17T13:17:00Z</time>
      </trkpt>
      <trkpt lat="49.35484" lon="0.06719">
        <ele>5.4</ele>
        <time>2020-06-17T13:17:01Z</time>
      </trkpt>
      <trkpt lat="49.35487" lon="0.06725">
        <ele>5.4</ele>
        <time>2020-06-17T13:17:02Z</time>
      </trkpt>
      <trkpt lat="49.35489" lon="0.06732">
        <ele>5.4</ele>
        <time>2020-06-17T13:17:03Z</time>
      </trkpt>
      <trkpt lat="49.35492" lon="0.0674">
        <ele>5.4</ele>
        <time>2020-06-17T13:17:04Z</time>
      </trkpt>
      <trkpt lat="49.35495" lon="0.06746">
        <ele>5.4</ele>
        <time>2020-06-17T13:17:05Z</time>
      </trkpt>
      <trkpt lat="49.35497" lon="0.06754">
        <ele>5.4</ele>
        <time>2020-06-17T13:17:06Z</time>
      </trkpt>
      <trkpt lat="49.355" lon="0.06763">
        <ele>5.4</ele>
        <time>2020-06-17T13:17:07Z</time>
      </trkpt>
      <trkpt lat="49.35502" lon="0.06771">
        <ele>5.4</ele>
        <time>2020-06-17T13:17:08Z</time>
      </trkpt>
      <trkpt lat="49.35504" lon="0.06779">
        <ele>5.4</ele>
        <time>2020-06-17T13:17:09Z</time>
      </trkpt>
      <trkpt lat="49.35507" lon="0.06787">
        <ele>5.4</ele>
        <time>2020-06-17T13:17:10Z</time>
      </trkpt>
      <trkpt lat="49.35509" lon="0.06794">
        <ele>5.4</ele>
        <time>2020-06-17T13:17:11Z</time>
      </trkpt>
      <trkpt lat="49.35511" lon="0.06803">
        <ele>5.4</ele>
        <time>2020-06-17T13:17:12Z</time>
      </trkpt>
      <trkpt lat="49.35513" lon="0.06811">
        <ele>5.4</ele>
        <time>2020-06-17T13:17:13Z</time>
      </trkpt>
      <trkpt lat="49.35516" lon="0.0682">
        <ele>5.4</ele>
        <time>2020-06-17T13:17:14Z</time>
      </trkpt>
      <trkpt lat="49.35519" lon="0.06829">
        <ele>5.4</ele>
        <time>2020-06-17T13:17:15Z</time>
      </trkpt>
      <trkpt lat="49.35522" lon="0.06836">
        <ele>5.4</ele>
        <time>2020-06-17T13:17:16Z</time>
      </trkpt>
      <trkpt lat="49.35524" lon="0.06845">
        <ele>5.3</ele>
        <time>2020-06-17T13:17:17Z</time>
      </trkpt>
      <trkpt lat="49.35527" lon="0.06853">
        <ele>5.3</ele>
        <time>2020-06-17T13:17:18Z</time>
      </trkpt>
      <trkpt lat="49.3553" lon="0.0686">
        <ele>5.3</ele>
        <time>2020-06-17T13:17:19Z</time>
      </trkpt>
      <trkpt lat="49.35533" lon="0.06868">
        <ele>5.3</ele>
        <time>2020-06-17T13:17:20Z</time>
      </trkpt>
      <trkpt lat="49.35536" lon="0.06877">
        <ele>5.3</ele>
        <time>2020-06-17T13:17:21Z</time>
      </trkpt>
      <trkpt lat="49.35538" lon="0.06884">
        <ele>5.3</ele>
        <time>2020-06-17T13:17:22Z</time>
      </trkpt>
      <trkpt lat="49.35541" lon="0.06892">
        <ele>5.3</ele>
        <time>2020-06-17T13:17:23Z</time>
      </trkpt>
      <trkpt lat="49.35544" lon="0.06899">
        <ele>5.4</ele>
        <time>2020-06-17T13:17:24Z</time>
      </trkpt>
      <trkpt lat="49.35547" lon="0.06905">
        <ele>5.4</ele>
        <time>2020-06-17T13:17:25Z</time>
      </trkpt>
      <trkpt lat="49.35549" lon="0.06913">
        <ele>5.4</ele>
        <time>2020-06-17T13:17:26Z</time>
      </trkpt>
      <trkpt lat="49.35552" lon="0.0692">
        <ele>5.4</ele>
        <time>2020-06-17T13:17:27Z</time>
      </trkpt>
      <trkpt lat="49.35554" lon="0.06928">
        <ele>5.5</ele>
        <time>2020-06-17T13:17:28Z</time>
      </trkpt>
      <trkpt lat="49.35556" lon="0.06934">
        <ele>5.5</ele>
        <time>2020-06-17T13:17:29Z</time>
      </trkpt>
      <trkpt lat="49.35559" lon="0.0694">
        <ele>5.5</ele>
        <time>2020-06-17T13:17:30Z</time>
      </trkpt>
      <trkpt lat="49.35561" lon="0.06945">
        <ele>5.5</ele>
        <time>2020-06-17T13:17:31Z</time>
      </trkpt>
      <trkpt lat="49.35564" lon="0.06952">
        <ele>5.6</ele>
        <time>2020-06-17T13:17:32Z</time>
      </trkpt>
      <trkpt lat="49.35568" lon="0.06958">
        <ele>5.6</ele>
        <time>2020-06-17T13:17:33Z</time>
      </trkpt>
      <trkpt lat="49.35571" lon="0.06964">
        <ele>5.6</ele>
        <time>2020-06-17T13:17:34Z</time>
      </trkpt>
      <trkpt lat="49.35573" lon="0.06971">
        <ele>5.6</ele>
        <time>2020-06-17T13:17:35Z</time>
      </trkpt>
      <trkpt lat="49.35576" lon="0.06977">
        <ele>5.6</ele>
        <time>2020-06-17T13:17:36Z</time>
      </trkpt>
      <trkpt lat="49.35579" lon="0.06985">
        <ele>5.7</ele>
        <time>2020-06-17T13:17:37Z</time>
      </trkpt>
      <trkpt lat="49.35582" lon="0.06992">
        <ele>5.7</ele>
        <time>2020-06-17T13:17:38Z</time>
      </trkpt>
      <trkpt lat="49.35585" lon="0.07">
        <ele>5.7</ele>
        <time>2020-06-17T13:17:39Z</time>
      </trkpt>
      <trkpt lat="49.35588" lon="0.07007">
        <ele>5.7</ele>
        <time>2020-06-17T13:17:40Z</time>
      </trkpt>
      <trkpt lat="49.3559" lon="0.07014">
        <ele>5.7</ele>
        <time>2020-06-17T13:17:41Z</time>
      </trkpt>
      <trkpt lat="49.35593" lon="0.07021">
        <ele>5.7</ele>
        <time>2020-06-17T13:17:42Z</time>
      </trkpt>
      <trkpt lat="49.35595" lon="0.07029">
        <ele>5.7</ele>
        <time>2020-06-17T13:17:43Z</time>
      </trkpt>
      <trkpt lat="49.35598" lon="0.07036">
        <ele>5.7</ele>
        <time>2020-06-17T13:17:44Z</time>
      </trkpt>
      <trkpt lat="49.356" lon="0.07044">
        <ele>5.7</ele>
        <time>2020-06-17T13:17:45Z</time>
      </trkpt>
      <trkpt lat="49.35603" lon="0.07051">
        <ele>5.7</ele>
        <time>2020-06-17T13:17:46Z</time>
      </trkpt>
      <trkpt lat="49.35606" lon="0.07058">
        <ele>5.7</ele>
        <time>2020-06-17T13:17:47Z</time>
      </trkpt>
      <trkpt lat="49.35609" lon="0.07065">
        <ele>5.7</ele>
        <time>2020-06-17T13:17:48Z</time>
      </trkpt>
      <trkpt lat="49.35611" lon="0.07072">
        <ele>5.7</ele>
        <time>2020-06-17T13:17:49Z</time>
      </trkpt>
      <trkpt lat="49.35615" lon="0.07077">
        <ele>5.7</ele>
        <time>2020-06-17T13:17:50Z</time>
      </trkpt>
      <trkpt lat="49.35617" lon="0.07083">
        <ele>5.7</ele>
        <time>2020-06-17T13:17:51Z</time>
      </trkpt>
      <trkpt lat="49.3562" lon="0.07089">
        <ele>5.6</ele>
        <time>2020-06-17T13:17:52Z</time>
      </trkpt>
      <trkpt lat="49.35622" lon="0.07094">
        <ele>5.6</ele>
        <time>2020-06-17T13:17:53Z</time>
      </trkpt>
      <trkpt lat="49.35625" lon="0.07101">
        <ele>5.6</ele>
        <time>2020-06-17T13:17:54Z</time>
      </trkpt>
      <trkpt lat="49.35628" lon="0.07108">
        <ele>5.6</ele>
        <time>2020-06-17T13:17:55Z</time>
      </trkpt>
      <trkpt lat="49.3563" lon="0.07114">
        <ele>5.6</ele>
        <time>2020-06-17T13:17:56Z</time>
      </trkpt>
      <trkpt lat="49.35632" lon="0.07121">
        <ele>5.6</ele>
        <time>2020-06-17T13:17:57Z</time>
      </trkpt>
      <trkpt lat="49.35633" lon="0.07129">
        <ele>5.6</ele>
        <time>2020-06-17T13:17:58Z</time>
      </trkpt>
      <trkpt lat="49.35636" lon="0.07136">
        <ele>5.6</ele>
        <time>2020-06-17T13:17:59Z</time>
      </trkpt>
      <trkpt lat="49.35639" lon="0.07143">
        <ele>5.6</ele>
        <time>2020-06-17T13:18:00Z</time>
      </trkpt>
      <trkpt lat="49.35642" lon="0.07151">
        <ele>5.7</ele>
        <time>2020-06-17T13:18:01Z</time>
      </trkpt>
      <trkpt lat="49.35644" lon="0.07157">
        <ele>5.7</ele>
        <time>2020-06-17T13:18:02Z</time>
      </trkpt>
      <trkpt lat="49.35646" lon="0.07163">
        <ele>5.8</ele>
        <time>2020-06-17T13:18:03Z</time>
      </trkpt>
      <trkpt lat="49.35649" lon="0.07171">
        <ele>5.9</ele>
        <time>2020-06-17T13:18:04Z</time>
      </trkpt>
      <trkpt lat="49.35652" lon="0.07178">
        <ele>5.9</ele>
        <time>2020-06-17T13:18:05Z</time>
      </trkpt>
      <trkpt lat="49.35655" lon="0.07186">
        <ele>6</ele>
        <time>2020-06-17T13:18:06Z</time>
      </trkpt>
      <trkpt lat="49.35657" lon="0.07194">
        <ele>6.1</ele>
        <time>2020-06-17T13:18:07Z</time>
      </trkpt>
      <trkpt lat="49.3566" lon="0.07202">
        <ele>6.2</ele>
        <time>2020-06-17T13:18:08Z</time>
      </trkpt>
      <trkpt lat="49.35663" lon="0.07209">
        <ele>6.2</ele>
        <time>2020-06-17T13:18:09Z</time>
      </trkpt>
      <trkpt lat="49.35666" lon="0.07216">
        <ele>6.3</ele>
        <time>2020-06-17T13:18:10Z</time>
      </trkpt>
      <trkpt lat="49.35668" lon="0.07221">
        <ele>6.3</ele>
        <time>2020-06-17T13:18:11Z</time>
      </trkpt>
      <trkpt lat="49.3567" lon="0.07226">
        <ele>6.3</ele>
        <time>2020-06-17T13:18:12Z</time>
      </trkpt>
      <trkpt lat="49.35672" lon="0.07232">
        <ele>6.3</ele>
        <time>2020-06-17T13:18:13Z</time>
      </trkpt>
      <trkpt lat="49.35675" lon="0.07237">
        <ele>6.4</ele>
        <time>2020-06-17T13:18:14Z</time>
      </trkpt>
      <trkpt lat="49.35677" lon="0.07242">
        <ele>6.4</ele>
        <time>2020-06-17T13:18:15Z</time>
      </trkpt>
      <trkpt lat="49.35679" lon="0.07248">
        <ele>6.4</ele>
        <time>2020-06-17T13:18:16Z</time>
      </trkpt>
      <trkpt lat="49.35682" lon="0.07253">
        <ele>6.3</ele>
        <time>2020-06-17T13:18:17Z</time>
      </trkpt>
      <trkpt lat="49.35684" lon="0.07259">
        <ele>6.2</ele>
        <time>2020-06-17T13:18:18Z</time>
      </trkpt>
      <trkpt lat="49.35686" lon="0.07264">
        <ele>6.2</ele>
        <time>2020-06-17T13:18:19Z</time>
      </trkpt>
      <trkpt lat="49.35688" lon="0.0727">
        <ele>6.1</ele>
        <time>2020-06-17T13:18:20Z</time>
      </trkpt>
      <trkpt lat="49.3569" lon="0.07275">
        <ele>6.1</ele>
        <time>2020-06-17T13:18:21Z</time>
      </trkpt>
      <trkpt lat="49.35692" lon="0.07281">
        <ele>6</ele>
        <time>2020-06-17T13:18:22Z</time>
      </trkpt>
      <trkpt lat="49.35695" lon="0.07287">
        <ele>6</ele>
        <time>2020-06-17T13:18:23Z</time>
      </trkpt>
      <trkpt lat="49.35698" lon="0.07293">
        <ele>5.9</ele>
        <time>2020-06-17T13:18:24Z</time>
      </trkpt>
      <trkpt lat="49.357" lon="0.07299">
        <ele>5.8</ele>
        <time>2020-06-17T13:18:25Z</time>
      </trkpt>
      <trkpt lat="49.35703" lon="0.07306">
        <ele>5.7</ele>
        <time>2020-06-17T13:18:26Z</time>
      </trkpt>
      <trkpt lat="49.35706" lon="0.07312">
        <ele>5.7</ele>
        <time>2020-06-17T13:18:27Z</time>
      </trkpt>
      <trkpt lat="49.35708" lon="0.07319">
        <ele>5.6</ele>
        <time>2020-06-17T13:18:28Z</time>
      </trkpt>
      <trkpt lat="49.3571" lon="0.07326">
        <ele>5.5</ele>
        <time>2020-06-17T13:18:29Z</time>
      </trkpt>
      <trkpt lat="49.35713" lon="0.07332">
        <ele>5.5</ele>
        <time>2020-06-17T13:18:30Z</time>
      </trkpt>
      <trkpt lat="49.35715" lon="0.07338">
        <ele>5.4</ele>
        <time>2020-06-17T13:18:31Z</time>
      </trkpt>
      <trkpt lat="49.35717" lon="0.07344">
        <ele>5.4</ele>
        <time>2020-06-17T13:18:32Z</time>
      </trkpt>
      <trkpt lat="49.3572" lon="0.0735">
        <ele>5.3</ele>
        <time>2020-06-17T13:18:33Z</time>
      </trkpt>
      <trkpt lat="49.35723" lon="0.07357">
        <ele>5.3</ele>
        <time>2020-06-17T13:18:34Z</time>
      </trkpt>
      <trkpt lat="49.35726" lon="0.07364">
        <ele>5.3</ele>
        <time>2020-06-17T13:18:35Z</time>
      </trkpt>
      <trkpt lat="49.35728" lon="0.07372">
        <ele>5.3</ele>
        <time>2020-06-17T13:18:36Z</time>
      </trkpt>
      <trkpt lat="49.35731" lon="0.07379">
        <ele>5.3</ele>
        <time>2020-06-17T13:18:37Z</time>
      </trkpt>
      <trkpt lat="49.35734" lon="0.07386">
        <ele>5.3</ele>
        <time>2020-06-17T13:18:38Z</time>
      </trkpt>
      <trkpt lat="49.35737" lon="0.07394">
        <ele>5.2</ele>
        <time>2020-06-17T13:18:39Z</time>
      </trkpt>
      <trkpt lat="49.35739" lon="0.07401">
        <ele>5.2</ele>
        <time>2020-06-17T13:18:40Z</time>
      </trkpt>
      <trkpt lat="49.35742" lon="0.07409">
        <ele>5.2</ele>
        <time>2020-06-17T13:18:41Z</time>
      </trkpt>
      <trkpt lat="49.35745" lon="0.07417">
        <ele>5.2</ele>
        <time>2020-06-17T13:18:42Z</time>
      </trkpt>
      <trkpt lat="49.35747" lon="0.07424">
        <ele>5.2</ele>
        <time>2020-06-17T13:18:43Z</time>
      </trkpt>
      <trkpt lat="49.3575" lon="0.07432">
        <ele>5.2</ele>
        <time>2020-06-17T13:18:44Z</time>
      </trkpt>
      <trkpt lat="49.35752" lon="0.07439">
        <ele>5.2</ele>
        <time>2020-06-17T13:18:45Z</time>
      </trkpt>
      <trkpt lat="49.35755" lon="0.07447">
        <ele>5.2</ele>
        <time>2020-06-17T13:18:46Z</time>
      </trkpt>
      <trkpt lat="49.35759" lon="0.07455">
        <ele>5.3</ele>
        <time>2020-06-17T13:18:47Z</time>
      </trkpt>
      <trkpt lat="49.35762" lon="0.07462">
        <ele>5.3</ele>
        <time>2020-06-17T13:18:48Z</time>
      </trkpt>
      <trkpt lat="49.35765" lon="0.0747">
        <ele>5.4</ele>
        <time>2020-06-17T13:18:49Z</time>
      </trkpt>
      <trkpt lat="49.35768" lon="0.07478">
        <ele>5.4</ele>
        <time>2020-06-17T13:18:50Z</time>
      </trkpt>
      <trkpt lat="49.3577" lon="0.07486">
        <ele>5.4</ele>
        <time>2020-06-17T13:18:51Z</time>
      </trkpt>
      <trkpt lat="49.35773" lon="0.07493">
        <ele>5.5</ele>
        <time>2020-06-17T13:18:52Z</time>
      </trkpt>
      <trkpt lat="49.35775" lon="0.07501">
        <ele>5.5</ele>
        <time>2020-06-17T13:18:53Z</time>
      </trkpt>
      <trkpt lat="49.35778" lon="0.07508">
        <ele>5.5</ele>
        <time>2020-06-17T13:18:54Z</time>
      </trkpt>
      <trkpt lat="49.3578" lon="0.07516">
        <ele>5.6</ele>
        <time>2020-06-17T13:18:55Z</time>
      </trkpt>
      <trkpt lat="49.35783" lon="0.07523">
        <ele>5.6</ele>
        <time>2020-06-17T13:18:56Z</time>
      </trkpt>
      <trkpt lat="49.35786" lon="0.07531">
        <ele>5.6</ele>
        <time>2020-06-17T13:18:57Z</time>
      </trkpt>
      <trkpt lat="49.3579" lon="0.07539">
        <ele>5.6</ele>
        <time>2020-06-17T13:18:58Z</time>
      </trkpt>
      <trkpt lat="49.35793" lon="0.07547">
        <ele>5.7</ele>
        <time>2020-06-17T13:18:59Z</time>
      </trkpt>
      <trkpt lat="49.35796" lon="0.07557">
        <ele>5.7</ele>
        <time>2020-06-17T13:19:00Z</time>
      </trkpt>
      <trkpt lat="49.35798" lon="0.07566">
        <ele>5.7</ele>
        <time>2020-06-17T13:19:01Z</time>
      </trkpt>
      <trkpt lat="49.35801" lon="0.07573">
        <ele>5.7</ele>
        <time>2020-06-17T13:19:02Z</time>
      </trkpt>
      <trkpt lat="49.35804" lon="0.0758">
        <ele>5.8</ele>
        <time>2020-06-17T13:19:03Z</time>
      </trkpt>
      <trkpt lat="49.35806" lon="0.07587">
        <ele>5.8</ele>
        <time>2020-06-17T13:19:04Z</time>
      </trkpt>
      <trkpt lat="49.35809" lon="0.07595">
        <ele>5.8</ele>
        <time>2020-06-17T13:19:05Z</time>
      </trkpt>
      <trkpt lat="49.35811" lon="0.07603">
        <ele>5.8</ele>
        <time>2020-06-17T13:19:06Z</time>
      </trkpt>
      <trkpt lat="49.35813" lon="0.0761">
        <ele>5.7</ele>
        <time>2020-06-17T13:19:07Z</time>
      </trkpt>
      <trkpt lat="49.35816" lon="0.07617">
        <ele>5.7</ele>
        <time>2020-06-17T13:19:08Z</time>
      </trkpt>
      <trkpt lat="49.35818" lon="0.07624">
        <ele>5.7</ele>
        <time>2020-06-17T13:19:09Z</time>
      </trkpt>
      <trkpt lat="49.35821" lon="0.0763">
        <ele>5.7</ele>
        <time>2020-06-17T13:19:10Z</time>
      </trkpt>
      <trkpt lat="49.35823" lon="0.07636">
        <ele>5.7</ele>
        <time>2020-06-17T13:19:11Z</time>
      </trkpt>
      <trkpt lat="49.35826" lon="0.07641">
        <ele>5.7</ele>
        <time>2020-06-17T13:19:12Z</time>
      </trkpt>
      <trkpt lat="49.35828" lon="0.07646">
        <ele>5.7</ele>
        <time>2020-06-17T13:19:13Z</time>
      </trkpt>
      <trkpt lat="49.35831" lon="0.07653">
        <ele>5.6</ele>
        <time>2020-06-17T13:19:14Z</time>
      </trkpt>
      <trkpt lat="49.35832" lon="0.07657">
        <ele>5.6</ele>
        <time>2020-06-17T13:19:15Z</time>
      </trkpt>
      <trkpt lat="49.35834" lon="0.07662">
        <ele>5.6</ele>
        <time>2020-06-17T13:19:16Z</time>
      </trkpt>
      <trkpt lat="49.35836" lon="0.07665">
        <ele>5.6</ele>
        <time>2020-06-17T13:19:17Z</time>
      </trkpt>
      <trkpt lat="49.35837" lon="0.0767">
        <ele>5.6</ele>
        <time>2020-06-17T13:19:18Z</time>
      </trkpt>
      <trkpt lat="49.35838" lon="0.07671">
        <ele>5.6</ele>
        <time>2020-06-17T13:19:19Z</time>
      </trkpt>
      <trkpt lat="49.35839" lon="0.07675">
        <ele>5.6</ele>
        <time>2020-06-17T13:19:20Z</time>
      </trkpt>
      <trkpt lat="49.3584" lon="0.07677">
        <ele>5.6</ele>
        <time>2020-06-17T13:19:21Z</time>
      </trkpt>
      <trkpt lat="49.35842" lon="0.07682">
        <ele>5.5</ele>
        <time>2020-06-17T13:19:22Z</time>
      </trkpt>
      <trkpt lat="49.35842" lon="0.07683">
        <ele>5.5</ele>
        <time>2020-06-17T13:19:23Z</time>
      </trkpt>
      <trkpt lat="49.35844" lon="0.07688">
        <ele>5.5</ele>
        <time>2020-06-17T13:19:24Z</time>
      </trkpt>
      <trkpt lat="49.35846" lon="0.07692">
        <ele>5.5</ele>
        <time>2020-06-17T13:19:25Z</time>
      </trkpt>
      <trkpt lat="49.35848" lon="0.07696">
        <ele>5.5</ele>
        <time>2020-06-17T13:19:26Z</time>
      </trkpt>
      <trkpt lat="49.3585" lon="0.077">
        <ele>5.4</ele>
        <time>2020-06-17T13:19:27Z</time>
      </trkpt>
      <trkpt lat="49.35852" lon="0.07705">
        <ele>5.4</ele>
        <time>2020-06-17T13:19:28Z</time>
      </trkpt>
      <trkpt lat="49.35854" lon="0.0771">
        <ele>5.4</ele>
        <time>2020-06-17T13:19:29Z</time>
      </trkpt>
      <trkpt lat="49.35856" lon="0.07715">
        <ele>5.4</ele>
        <time>2020-06-17T13:19:30Z</time>
      </trkpt>
      <trkpt lat="49.35859" lon="0.07721">
        <ele>5.3</ele>
        <time>2020-06-17T13:19:31Z</time>
      </trkpt>
      <trkpt lat="49.35861" lon="0.07728">
        <ele>5.3</ele>
        <time>2020-06-17T13:19:32Z</time>
      </trkpt>
      <trkpt lat="49.35864" lon="0.07734">
        <ele>5.3</ele>
        <time>2020-06-17T13:19:33Z</time>
      </trkpt>
      <trkpt lat="49.35866" lon="0.0774">
        <ele>5.3</ele>
        <time>2020-06-17T13:19:34Z</time>
      </trkpt>
      <trkpt lat="49.35869" lon="0.07746">
        <ele>5.3</ele>
        <time>2020-06-17T13:19:35Z</time>
      </trkpt>
      <trkpt lat="49.35872" lon="0.07753">
        <ele>5.3</ele>
        <time>2020-06-17T13:19:36Z</time>
      </trkpt>
      <trkpt lat="49.35874" lon="0.0776">
        <ele>5.3</ele>
        <time>2020-06-17T13:19:37Z</time>
      </trkpt>
      <trkpt lat="49.35876" lon="0.07767">
        <ele>5.3</ele>
        <time>2020-06-17T13:19:38Z</time>
      </trkpt>
      <trkpt lat="49.35879" lon="0.07774">
        <ele>5.3</ele>
        <time>2020-06-17T13:19:39Z</time>
      </trkpt>
      <trkpt lat="49.35881" lon="0.0778">
        <ele>5.3</ele>
        <time>2020-06-17T13:19:40Z</time>
      </trkpt>
      <trkpt lat="49.35882" lon="0.07787">
        <ele>5.3</ele>
        <time>2020-06-17T13:19:41Z</time>
      </trkpt>
      <trkpt lat="49.35885" lon="0.07792">
        <ele>5.3</ele>
        <time>2020-06-17T13:19:42Z</time>
      </trkpt>
      <trkpt lat="49.35887" lon="0.07798">
        <ele>5.2</ele>
        <time>2020-06-17T13:19:43Z</time>
      </trkpt>
      <trkpt lat="49.35889" lon="0.07804">
        <ele>5.2</ele>
        <time>2020-06-17T13:19:44Z</time>
      </trkpt>
      <trkpt lat="49.35891" lon="0.0781">
        <ele>5.2</ele>
        <time>2020-06-17T13:19:45Z</time>
      </trkpt>
      <trkpt lat="49.35893" lon="0.07816">
        <ele>5.2</ele>
        <time>2020-06-17T13:19:46Z</time>
      </trkpt>
      <trkpt lat="49.35895" lon="0.07822">
        <ele>5.2</ele>
        <time>2020-06-17T13:19:47Z</time>
      </trkpt>
      <trkpt lat="49.35897" lon="0.07828">
        <ele>5.3</ele>
        <time>2020-06-17T13:19:48Z</time>
      </trkpt>
      <trkpt lat="49.359" lon="0.07835">
        <ele>5.3</ele>
        <time>2020-06-17T13:19:49Z</time>
      </trkpt>
      <trkpt lat="49.35902" lon="0.07841">
        <ele>5.3</ele>
        <time>2020-06-17T13:19:50Z</time>
      </trkpt>
      <trkpt lat="49.35904" lon="0.07847">
        <ele>5.3</ele>
        <time>2020-06-17T13:19:51Z</time>
      </trkpt>
      <trkpt lat="49.35907" lon="0.07853">
        <ele>5.4</ele>
        <time>2020-06-17T13:19:52Z</time>
      </trkpt>
      <trkpt lat="49.3591" lon="0.07859">
        <ele>5.4</ele>
        <time>2020-06-17T13:19:53Z</time>
      </trkpt>
      <trkpt lat="49.35912" lon="0.07865">
        <ele>5.4</ele>
        <time>2020-06-17T13:19:54Z</time>
      </trkpt>
      <trkpt lat="49.35914" lon="0.07871">
        <ele>5.4</ele>
        <time>2020-06-17T13:19:55Z</time>
      </trkpt>
      <trkpt lat="49.35916" lon="0.07876">
        <ele>5.5</ele>
        <time>2020-06-17T13:19:56Z</time>
      </trkpt>
      <trkpt lat="49.35918" lon="0.07883">
        <ele>5.5</ele>
        <time>2020-06-17T13:19:57Z</time>
      </trkpt>
      <trkpt lat="49.3592" lon="0.0789">
        <ele>5.5</ele>
        <time>2020-06-17T13:19:58Z</time>
      </trkpt>
      <trkpt lat="49.35922" lon="0.07898">
        <ele>5.6</ele>
        <time>2020-06-17T13:19:59Z</time>
      </trkpt>
      <trkpt lat="49.35924" lon="0.07905">
        <ele>5.6</ele>
        <time>2020-06-17T13:20:00Z</time>
      </trkpt>
      <trkpt lat="49.35927" lon="0.0791">
        <ele>5.6</ele>
        <time>2020-06-17T13:20:01Z</time>
      </trkpt>
      <trkpt lat="49.35929" lon="0.07917">
        <ele>5.6</ele>
        <time>2020-06-17T13:20:02Z</time>
      </trkpt>
      <trkpt lat="49.35931" lon="0.07922">
        <ele>5.7</ele>
        <time>2020-06-17T13:20:03Z</time>
      </trkpt>
      <trkpt lat="49.35933" lon="0.07928">
        <ele>5.7</ele>
        <time>2020-06-17T13:20:04Z</time>
      </trkpt>
      <trkpt lat="49.35935" lon="0.07934">
        <ele>5.7</ele>
        <time>2020-06-17T13:20:05Z</time>
      </trkpt>
      <trkpt lat="49.35937" lon="0.0794">
        <ele>5.7</ele>
        <time>2020-06-17T13:20:06Z</time>
      </trkpt>
      <trkpt lat="49.35939" lon="0.07945">
        <ele>5.7</ele>
        <time>2020-06-17T13:20:07Z</time>
      </trkpt>
      <trkpt lat="49.35941" lon="0.07951">
        <ele>5.8</ele>
        <time>2020-06-17T13:20:08Z</time>
      </trkpt>
      <trkpt lat="49.35943" lon="0.07958">
        <ele>5.8</ele>
        <time>2020-06-17T13:20:09Z</time>
      </trkpt>
      <trkpt lat="49.35945" lon="0.07964">
        <ele>5.8</ele>
        <time>2020-06-17T13:20:10Z</time>
      </trkpt>
      <trkpt lat="49.35947" lon="0.07971">
        <ele>5.8</ele>
        <time>2020-06-17T13:20:11Z</time>
      </trkpt>
      <trkpt lat="49.35949" lon="0.07977">
        <ele>5.8</ele>
        <time>2020-06-17T13:20:12Z</time>
      </trkpt>
      <trkpt lat="49.35951" lon="0.07983">
        <ele>5.8</ele>
        <time>2020-06-17T13:20:13Z</time>
      </trkpt>
      <trkpt lat="49.35952" lon="0.07987">
        <ele>5.8</ele>
        <time>2020-06-17T13:20:14Z</time>
      </trkpt>
      <trkpt lat="49.35954" lon="0.07991">
        <ele>5.8</ele>
        <time>2020-06-17T13:20:15Z</time>
      </trkpt>
      <trkpt lat="49.35955" lon="0.07995">
        <ele>5.8</ele>
        <time>2020-06-17T13:20:16Z</time>
      </trkpt>
      <trkpt lat="49.35955" lon="0.07996">
        <ele>5.8</ele>
        <time>2020-06-17T13:20:17Z</time>
      </trkpt>
      <trkpt lat="49.35957" lon="0.07999">
        <ele>5.8</ele>
        <time>2020-06-17T13:20:18Z</time>
      </trkpt>
      <trkpt lat="49.35957" lon="0.08">
        <ele>5.8</ele>
        <time>2020-06-17T13:20:19Z</time>
      </trkpt>
      <trkpt lat="49.35958" lon="0.08001">
        <ele>5.8</ele>
        <time>2020-06-17T13:20:20Z</time>
      </trkpt>
      <trkpt lat="49.3596" lon="0.08003">
        <ele>5.8</ele>
        <time>2020-06-17T13:20:21Z</time>
      </trkpt>
      <trkpt lat="49.3596" lon="0.08004">
        <ele>5.8</ele>
        <time>2020-06-17T13:20:22Z</time>
      </trkpt>
      <trkpt lat="49.35961" lon="0.08004">
        <ele>5.8</ele>
        <time>2020-06-17T13:20:23Z</time>
      </trkpt>
      <trkpt lat="49.35961" lon="0.08005">
        <ele>5.8</ele>
        <time>2020-06-17T13:20:24Z</time>
      </trkpt>
      <trkpt lat="49.35961" lon="0.08005">
        <ele>5.8</ele>
        <time>2020-06-17T13:20:25Z</time>
      </trkpt>
      <trkpt lat="49.35962" lon="0.08005">
        <ele>5.8</ele>
        <time>2020-06-17T13:20:26Z</time>
      </trkpt>
      <trkpt lat="49.35962" lon="0.08004">
        <ele>5.8</ele>
        <time>2020-06-17T13:20:27Z</time>
      </trkpt>
      <trkpt lat="49.35962" lon="0.08003">
        <ele>5.8</ele>
        <time>2020-06-17T13:20:28Z</time>
      </trkpt>
      <trkpt lat="49.35962" lon="0.08003">
        <ele>5.8</ele>
        <time>2020-06-17T13:20:29Z</time>
      </trkpt>
      <trkpt lat="49.35962" lon="0.08003">
        <ele>5.8</ele>
        <time>2020-06-17T13:20:30Z</time>
      </trkpt>
      <trkpt lat="49.35961" lon="0.08003">
        <ele>5.8</ele>
        <time>2020-06-17T13:20:31Z</time>
      </trkpt>
      <trkpt lat="49.3596" lon="0.08002">
        <ele>5.8</ele>
        <time>2020-06-17T13:20:32Z</time>
      </trkpt>
      <trkpt lat="49.35959" lon="0.08002">
        <ele>5.8</ele>
        <time>2020-06-17T13:20:33Z</time>
      </trkpt>
      <trkpt lat="49.35959" lon="0.08003">
        <ele>5.8</ele>
        <time>2020-06-17T13:20:34Z</time>
      </trkpt>
      <trkpt lat="49.35959" lon="0.08002">
        <ele>5.8</ele>
        <time>2020-06-17T13:20:35Z</time>
      </trkpt>
      <trkpt lat="49.35964" lon="0.08002">
        <ele>5.8</ele>
        <time>2020-06-17T13:21:38Z</time>
      </trkpt>
      <trkpt lat="49.35964" lon="0.08002">
        <ele>5.8</ele>
        <time>2020-06-17T13:21:39Z</time>
      </trkpt>
      <trkpt lat="49.35964" lon="0.08002">
        <ele>5.8</ele>
        <time>2020-06-17T13:21:40Z</time>
      </trkpt>
      <trkpt lat="49.35964" lon="0.08002">
        <ele>5.8</ele>
        <time>2020-06-17T13:21:41Z</time>
      </trkpt>
      <trkpt lat="49.35964" lon="0.08002">
        <ele>5.8</ele>
        <time>2020-06-17T13:21:42Z</time>
      </trkpt>
      <trkpt lat="49.35964" lon="0.08002">
        <ele>5.8</ele>
        <time>2020-06-17T13:21:43Z</time>
      </trkpt>
      <trkpt lat="49.35964" lon="0.08001">
        <ele>5.8</ele>
        <time>2020-06-17T13:21:44Z</time>
      </trkpt>
      <trkpt lat="49.35965" lon="0.08002">
        <ele>5.8</ele>
        <time>2020-06-17T13:21:45Z</time>
      </trkpt>
      <trkpt lat="49.35966" lon="0.08002">
        <ele>5.8</ele>
        <time>2020-06-17T13:21:46Z</time>
      </trkpt>
      <trkpt lat="49.35966" lon="0.08004">
        <ele>5.8</ele>
        <time>2020-06-17T13:21:47Z</time>
      </trkpt>
      <trkpt lat="49.35967" lon="0.08004">
        <ele>5.8</ele>
        <time>2020-06-17T13:21:48Z</time>
      </trkpt>
      <trkpt lat="49.35967" lon="0.08004">
        <ele>5.8</ele>
        <time>2020-06-17T13:21:49Z</time>
      </trkpt>
      <trkpt lat="49.35967" lon="0.08005">
        <ele>5.8</ele>
        <time>2020-06-17T13:21:50Z</time>
      </trkpt>
      <trkpt lat="49.35967" lon="0.08005">
        <ele>5.8</ele>
        <time>2020-06-17T13:21:51Z</time>
      </trkpt>
      <trkpt lat="49.35968" lon="0.08004">
        <ele>5.8</ele>
        <time>2020-06-17T13:21:52Z</time>
      </trkpt>
      <trkpt lat="49.35968" lon="0.08004">
        <ele>5.8</ele>
        <time>2020-06-17T13:21:53Z</time>
      </trkpt>
      <trkpt lat="49.35968" lon="0.08005">
        <ele>5.8</ele>
        <time>2020-06-17T13:21:54Z</time>
      </trkpt>
      <trkpt lat="49.35968" lon="0.08005">
        <ele>5.8</ele>
        <time>2020-06-17T13:21:55Z</time>
      </trkpt>
      <trkpt lat="49.35968" lon="0.08006">
        <ele>5.8</ele>
        <time>2020-06-17T13:21:56Z</time>
      </trkpt>
      <trkpt lat="49.35968" lon="0.08005">
        <ele>5.8</ele>
        <time>2020-06-17T13:21:57Z</time>
      </trkpt>
      <trkpt lat="49.35967" lon="0.08005">
        <ele>5.8</ele>
        <time>2020-06-17T13:21:58Z</time>
      </trkpt>
      <trkpt lat="49.35967" lon="0.08005">
        <ele>5.8</ele>
        <time>2020-06-17T13:21:59Z</time>
      </trkpt>
      <trkpt lat="49.35966" lon="0.08003">
        <ele>5.8</ele>
        <time>2020-06-17T13:22:00Z</time>
      </trkpt>
      <trkpt lat="49.35966" lon="0.08003">
        <ele>5.8</ele>
        <time>2020-06-17T13:22:01Z</time>
      </trkpt>
      <trkpt lat="49.35965" lon="0.08001">
        <ele>5.8</ele>
        <time>2020-06-17T13:22:02Z</time>
      </trkpt>
      <trkpt lat="49.35964" lon="0.08">
        <ele>5.8</ele>
        <time>2020-06-17T13:22:03Z</time>
      </trkpt>
      <trkpt lat="49.35964" lon="0.07999">
        <ele>5.8</ele>
        <time>2020-06-17T13:22:04Z</time>
      </trkpt>
      <trkpt lat="49.35963" lon="0.07999">
        <ele>5.8</ele>
        <time>2020-06-17T13:22:05Z</time>
      </trkpt>
      <trkpt lat="49.35963" lon="0.07998">
        <ele>5.8</ele>
        <time>2020-06-17T13:22:06Z</time>
      </trkpt>
      <trkpt lat="49.35963" lon="0.07998">
        <ele>5.8</ele>
        <time>2020-06-17T13:22:07Z</time>
      </trkpt>
      <trkpt lat="49.35962" lon="0.07997">
        <ele>5.8</ele>
        <time>2020-06-17T13:22:08Z</time>
      </trkpt>
      <trkpt lat="49.35962" lon="0.07997">
        <ele>5.8</ele>
        <time>2020-06-17T13:22:09Z</time>
      </trkpt>
      <trkpt lat="49.35962" lon="0.07997">
        <ele>5.8</ele>
        <time>2020-06-17T13:22:10Z</time>
      </trkpt>
      <trkpt lat="49.35962" lon="0.07997">
        <ele>5.8</ele>
        <time>2020-06-17T13:22:11Z</time>
      </trkpt>
      <trkpt lat="49.35962" lon="0.07997">
        <ele>5.8</ele>
        <time>2020-06-17T13:22:12Z</time>
      </trkpt>
      <trkpt lat="49.35962" lon="0.08006">
        <ele>5.8</ele>
        <time>2020-06-17T13:23:20Z</time>
      </trkpt>
      <trkpt lat="49.35964" lon="0.08008">
        <ele>5.8</ele>
        <time>2020-06-17T13:23:21Z</time>
      </trkpt>
      <trkpt lat="49.35965" lon="0.0801">
        <ele>5.8</ele>
        <time>2020-06-17T13:23:22Z</time>
      </trkpt>
      <trkpt lat="49.35966" lon="0.08012">
        <ele>5.8</ele>
        <time>2020-06-17T13:23:23Z</time>
      </trkpt>
      <trkpt lat="49.35968" lon="0.08016">
        <ele>5.8</ele>
        <time>2020-06-17T13:23:24Z</time>
      </trkpt>
      <trkpt lat="49.35969" lon="0.08017">
        <ele>5.8</ele>
        <time>2020-06-17T13:23:25Z</time>
      </trkpt>
      <trkpt lat="49.3597" lon="0.08022">
        <ele>5.7</ele>
        <time>2020-06-17T13:23:26Z</time>
      </trkpt>
      <trkpt lat="49.35971" lon="0.08024">
        <ele>5.7</ele>
        <time>2020-06-17T13:23:27Z</time>
      </trkpt>
      <trkpt lat="49.35972" lon="0.0803">
        <ele>5.7</ele>
        <time>2020-06-17T13:23:28Z</time>
      </trkpt>
      <trkpt lat="49.35973" lon="0.08032">
        <ele>5.7</ele>
        <time>2020-06-17T13:23:29Z</time>
      </trkpt>
      <trkpt lat="49.35974" lon="0.08037">
        <ele>5.7</ele>
        <time>2020-06-17T13:23:30Z</time>
      </trkpt>
      <trkpt lat="49.35976" lon="0.08042">
        <ele>5.7</ele>
        <time>2020-06-17T13:23:31Z</time>
      </trkpt>
      <trkpt lat="49.35977" lon="0.08047">
        <ele>5.7</ele>
        <time>2020-06-17T13:23:32Z</time>
      </trkpt>
      <trkpt lat="49.35978" lon="0.08053">
        <ele>5.7</ele>
        <time>2020-06-17T13:23:33Z</time>
      </trkpt>
      <trkpt lat="49.35979" lon="0.0806">
        <ele>5.7</ele>
        <time>2020-06-17T13:23:34Z</time>
      </trkpt>
      <trkpt lat="49.35979" lon="0.08065">
        <ele>5.7</ele>
        <time>2020-06-17T13:23:35Z</time>
      </trkpt>
      <trkpt lat="49.3598" lon="0.08072">
        <ele>5.7</ele>
        <time>2020-06-17T13:23:36Z</time>
      </trkpt>
      <trkpt lat="49.3598" lon="0.08076">
        <ele>5.7</ele>
        <time>2020-06-17T13:23:37Z</time>
      </trkpt>
      <trkpt lat="49.35981" lon="0.08081">
        <ele>5.7</ele>
        <time>2020-06-17T13:23:38Z</time>
      </trkpt>
      <trkpt lat="49.35981" lon="0.08083">
        <ele>5.7</ele>
        <time>2020-06-17T13:23:39Z</time>
      </trkpt>
      <trkpt lat="49.35981" lon="0.08087">
        <ele>5.7</ele>
        <time>2020-06-17T13:23:40Z</time>
      </trkpt>
      <trkpt lat="49.35981" lon="0.08089">
        <ele>5.7</ele>
        <time>2020-06-17T13:23:41Z</time>
      </trkpt>
      <trkpt lat="49.35982" lon="0.08093">
        <ele>5.7</ele>
        <time>2020-06-17T13:23:42Z</time>
      </trkpt>
      <trkpt lat="49.35982" lon="0.08098">
        <ele>5.7</ele>
        <time>2020-06-17T13:23:43Z</time>
      </trkpt>
      <trkpt lat="49.35983" lon="0.08103">
        <ele>5.7</ele>
        <time>2020-06-17T13:23:44Z</time>
      </trkpt>
      <trkpt lat="49.35983" lon="0.08108">
        <ele>5.7</ele>
        <time>2020-06-17T13:23:45Z</time>
      </trkpt>
      <trkpt lat="49.35985" lon="0.08111">
        <ele>5.7</ele>
        <time>2020-06-17T13:23:46Z</time>
      </trkpt>
      <trkpt lat="49.35988" lon="0.08112">
        <ele>5.7</ele>
        <time>2020-06-17T13:23:47Z</time>
      </trkpt>
      <trkpt lat="49.35991" lon="0.08114">
        <ele>5.7</ele>
        <time>2020-06-17T13:23:48Z</time>
      </trkpt>
      <trkpt lat="49.35994" lon="0.08114">
        <ele>5.6</ele>
        <time>2020-06-17T13:23:49Z</time>
      </trkpt>
      <trkpt lat="49.35997" lon="0.08113">
        <ele>5.6</ele>
        <time>2020-06-17T13:23:50Z</time>
      </trkpt>
      <trkpt lat="49.35999" lon="0.0811">
        <ele>5.6</ele>
        <time>2020-06-17T13:23:51Z</time>
      </trkpt>
      <trkpt lat="49.36002" lon="0.08106">
        <ele>5.6</ele>
        <time>2020-06-17T13:23:52Z</time>
      </trkpt>
      <trkpt lat="49.36005" lon="0.08102">
        <ele>5.6</ele>
        <time>2020-06-17T13:23:53Z</time>
      </trkpt>
      <trkpt lat="49.36008" lon="0.08099">
        <ele>5.6</ele>
        <time>2020-06-17T13:23:54Z</time>
      </trkpt>
      <trkpt lat="49.36011" lon="0.08095">
        <ele>5.6</ele>
        <time>2020-06-17T13:23:55Z</time>
      </trkpt>
      <trkpt lat="49.36015" lon="0.08093">
        <ele>5.6</ele>
        <time>2020-06-17T13:23:56Z</time>
      </trkpt>
      <trkpt lat="49.36019" lon="0.0809">
        <ele>5.6</ele>
        <time>2020-06-17T13:23:57Z</time>
      </trkpt>
      <trkpt lat="49.36023" lon="0.08087">
        <ele>5.6</ele>
        <time>2020-06-17T13:23:58Z</time>
      </trkpt>
      <trkpt lat="49.36028" lon="0.08084">
        <ele>5.6</ele>
        <time>2020-06-17T13:23:59Z</time>
      </trkpt>
      <trkpt lat="49.36033" lon="0.08082">
        <ele>5.6</ele>
        <time>2020-06-17T13:24:00Z</time>
      </trkpt>
      <trkpt lat="49.36038" lon="0.0808">
        <ele>5.6</ele>
        <time>2020-06-17T13:24:01Z</time>
      </trkpt>
      <trkpt lat="49.36043" lon="0.08078">
        <ele>5.6</ele>
        <time>2020-06-17T13:24:02Z</time>
      </trkpt>
      <trkpt lat="49.36046" lon="0.08076">
        <ele>5.6</ele>
        <time>2020-06-17T13:24:03Z</time>
      </trkpt>
      <trkpt lat="49.3605" lon="0.08073">
        <ele>5.6</ele>
        <time>2020-06-17T13:24:04Z</time>
      </trkpt>
      <trkpt lat="49.36055" lon="0.08072">
        <ele>5.6</ele>
        <time>2020-06-17T13:24:05Z</time>
      </trkpt>
      <trkpt lat="49.3606" lon="0.0807">
        <ele>5.6</ele>
        <time>2020-06-17T13:24:06Z</time>
      </trkpt>
      <trkpt lat="49.36064" lon="0.08068">
        <ele>5.6</ele>
        <time>2020-06-17T13:24:07Z</time>
      </trkpt>
      <trkpt lat="49.36068" lon="0.08066">
        <ele>5.6</ele>
        <time>2020-06-17T13:24:08Z</time>
      </trkpt>
      <trkpt lat="49.36073" lon="0.08063">
        <ele>5.6</ele>
        <time>2020-06-17T13:24:09Z</time>
      </trkpt>
      <trkpt lat="49.36078" lon="0.0806">
        <ele>5.6</ele>
        <time>2020-06-17T13:24:10Z</time>
      </trkpt>
      <trkpt lat="49.36082" lon="0.08058">
        <ele>5.6</ele>
        <time>2020-06-17T13:24:11Z</time>
      </trkpt>
      <trkpt lat="49.36086" lon="0.08055">
        <ele>5.6</ele>
        <time>2020-06-17T13:24:12Z</time>
      </trkpt>
      <trkpt lat="49.36089" lon="0.08052">
        <ele>5.6</ele>
        <time>2020-06-17T13:24:13Z</time>
      </trkpt>
      <trkpt lat="49.36091" lon="0.0805">
        <ele>5.6</ele>
        <time>2020-06-17T13:24:14Z</time>
      </trkpt>
      <trkpt lat="49.36095" lon="0.08047">
        <ele>5.6</ele>
        <time>2020-06-17T13:24:15Z</time>
      </trkpt>
      <trkpt lat="49.36098" lon="0.08042">
        <ele>5.6</ele>
        <time>2020-06-17T13:24:16Z</time>
      </trkpt>
      <trkpt lat="49.36101" lon="0.0804">
        <ele>5.5</ele>
        <time>2020-06-17T13:24:17Z</time>
      </trkpt>
      <trkpt lat="49.36104" lon="0.08037">
        <ele>5.5</ele>
        <time>2020-06-17T13:24:18Z</time>
      </trkpt>
      <trkpt lat="49.36108" lon="0.08033">
        <ele>5.5</ele>
        <time>2020-06-17T13:24:19Z</time>
      </trkpt>
      <trkpt lat="49.36111" lon="0.0803">
        <ele>5.5</ele>
        <time>2020-06-17T13:24:20Z</time>
      </trkpt>
      <trkpt lat="49.36117" lon="0.08028">
        <ele>5.4</ele>
        <time>2020-06-17T13:24:21Z</time>
      </trkpt>
      <trkpt lat="49.36121" lon="0.08024">
        <ele>5.4</ele>
        <time>2020-06-17T13:24:22Z</time>
      </trkpt>
      <trkpt lat="49.36127" lon="0.0802">
        <ele>5.4</ele>
        <time>2020-06-17T13:24:23Z</time>
      </trkpt>
      <trkpt lat="49.36132" lon="0.08017">
        <ele>5.4</ele>
        <time>2020-06-17T13:24:24Z</time>
      </trkpt>
      <trkpt lat="49.36136" lon="0.08012">
        <ele>5.4</ele>
        <time>2020-06-17T13:24:25Z</time>
      </trkpt>
      <trkpt lat="49.36141" lon="0.08007">
        <ele>5.4</ele>
        <time>2020-06-17T13:24:26Z</time>
      </trkpt>
      <trkpt lat="49.36144" lon="0.08004">
        <ele>5.4</ele>
        <time>2020-06-17T13:24:27Z</time>
      </trkpt>
      <trkpt lat="49.36147" lon="0.08">
        <ele>5.4</ele>
        <time>2020-06-17T13:24:28Z</time>
      </trkpt>
      <trkpt lat="49.36152" lon="0.07998">
        <ele>5.4</ele>
        <time>2020-06-17T13:24:29Z</time>
      </trkpt>
      <trkpt lat="49.36156" lon="0.07997">
        <ele>5.4</ele>
        <time>2020-06-17T13:24:30Z</time>
      </trkpt>
      <trkpt lat="49.3616" lon="0.07993">
        <ele>5.4</ele>
        <time>2020-06-17T13:24:31Z</time>
      </trkpt>
      <trkpt lat="49.36162" lon="0.07989">
        <ele>5.4</ele>
        <time>2020-06-17T13:24:32Z</time>
      </trkpt>
      <trkpt lat="49.36165" lon="0.07986">
        <ele>5.4</ele>
        <time>2020-06-17T13:24:33Z</time>
      </trkpt>
      <trkpt lat="49.36168" lon="0.07983">
        <ele>5.4</ele>
        <time>2020-06-17T13:24:34Z</time>
      </trkpt>
      <trkpt lat="49.36171" lon="0.07981">
        <ele>5.4</ele>
        <time>2020-06-17T13:24:35Z</time>
      </trkpt>
      <trkpt lat="49.36174" lon="0.07979">
        <ele>5.4</ele>
        <time>2020-06-17T13:24:36Z</time>
      </trkpt>
      <trkpt lat="49.36181" lon="0.07978">
        <ele>5.4</ele>
        <time>2020-06-17T13:24:37Z</time>
      </trkpt>
      <trkpt lat="49.36185" lon="0.07975">
        <ele>5.4</ele>
        <time>2020-06-17T13:24:38Z</time>
      </trkpt>
      <trkpt lat="49.3619" lon="0.07972">
        <ele>5.4</ele>
        <time>2020-06-17T13:24:39Z</time>
      </trkpt>
      <trkpt lat="49.36194" lon="0.07968">
        <ele>5.4</ele>
        <time>2020-06-17T13:24:40Z</time>
      </trkpt>
      <trkpt lat="49.36199" lon="0.07965">
        <ele>5.4</ele>
        <time>2020-06-17T13:24:41Z</time>
      </trkpt>
      <trkpt lat="49.36206" lon="0.07963">
        <ele>5.4</ele>
        <time>2020-06-17T13:24:42Z</time>
      </trkpt>
      <trkpt lat="49.36213" lon="0.07962">
        <ele>5.4</ele>
        <time>2020-06-17T13:24:43Z</time>
      </trkpt>
      <trkpt lat="49.36218" lon="0.07959">
        <ele>5.4</ele>
        <time>2020-06-17T13:24:44Z</time>
      </trkpt>
      <trkpt lat="49.36224" lon="0.07956">
        <ele>5.4</ele>
        <time>2020-06-17T13:24:45Z</time>
      </trkpt>
      <trkpt lat="49.3623" lon="0.07954">
        <ele>5.4</ele>
        <time>2020-06-17T13:24:46Z</time>
      </trkpt>
      <trkpt lat="49.36234" lon="0.0795">
        <ele>5.4</ele>
        <time>2020-06-17T13:24:47Z</time>
      </trkpt>
      <trkpt lat="49.36238" lon="0.07946">
        <ele>5.4</ele>
        <time>2020-06-17T13:24:48Z</time>
      </trkpt>
      <trkpt lat="49.36242" lon="0.07942">
        <ele>5.4</ele>
        <time>2020-06-17T13:24:49Z</time>
      </trkpt>
      <trkpt lat="49.36247" lon="0.07939">
        <ele>5.4</ele>
        <time>2020-06-17T13:24:50Z</time>
      </trkpt>
      <trkpt lat="49.36251" lon="0.07936">
        <ele>5.3</ele>
        <time>2020-06-17T13:24:51Z</time>
      </trkpt>
      <trkpt lat="49.36255" lon="0.07933">
        <ele>5.3</ele>
        <time>2020-06-17T13:24:52Z</time>
      </trkpt>
      <trkpt lat="49.3626" lon="0.0793">
        <ele>5.3</ele>
        <time>2020-06-17T13:24:53Z</time>
      </trkpt>
      <trkpt lat="49.36265" lon="0.07927">
        <ele>5.2</ele>
        <time>2020-06-17T13:24:54Z</time>
      </trkpt>
      <trkpt lat="49.3627" lon="0.07925">
        <ele>5.2</ele>
        <time>2020-06-17T13:24:55Z</time>
      </trkpt>
      <trkpt lat="49.36275" lon="0.07924">
        <ele>5.2</ele>
        <time>2020-06-17T13:24:56Z</time>
      </trkpt>
      <trkpt lat="49.36281" lon="0.07922">
        <ele>5.1</ele>
        <time>2020-06-17T13:24:57Z</time>
      </trkpt>
      <trkpt lat="49.36286" lon="0.0792">
        <ele>5</ele>
        <time>2020-06-17T13:24:58Z</time>
      </trkpt>
      <trkpt lat="49.3629" lon="0.07917">
        <ele>5</ele>
        <time>2020-06-17T13:24:59Z</time>
      </trkpt>
      <trkpt lat="49.36296" lon="0.07915">
        <ele>4.9</ele>
        <time>2020-06-17T13:25:00Z</time>
      </trkpt>
      <trkpt lat="49.36301" lon="0.07914">
        <ele>4.9</ele>
        <time>2020-06-17T13:25:01Z</time>
      </trkpt>
      <trkpt lat="49.36307" lon="0.07913">
        <ele>4.8</ele>
        <time>2020-06-17T13:25:02Z</time>
      </trkpt>
      <trkpt lat="49.36311" lon="0.07912">
        <ele>4.8</ele>
        <time>2020-06-17T13:25:03Z</time>
      </trkpt>
      <trkpt lat="49.36315" lon="0.07909">
        <ele>4.8</ele>
        <time>2020-06-17T13:25:04Z</time>
      </trkpt>
      <trkpt lat="49.36319" lon="0.07906">
        <ele>4.8</ele>
        <time>2020-06-17T13:25:05Z</time>
      </trkpt>
      <trkpt lat="49.36323" lon="0.07903">
        <ele>4.7</ele>
        <time>2020-06-17T13:25:06Z</time>
      </trkpt>
      <trkpt lat="49.36326" lon="0.079">
        <ele>4.7</ele>
        <time>2020-06-17T13:25:07Z</time>
      </trkpt>
      <trkpt lat="49.36329" lon="0.07896">
        <ele>4.7</ele>
        <time>2020-06-17T13:25:08Z</time>
      </trkpt>
      <trkpt lat="49.36332" lon="0.07891">
        <ele>4.8</ele>
        <time>2020-06-17T13:25:09Z</time>
      </trkpt>
      <trkpt lat="49.36335" lon="0.07885">
        <ele>4.8</ele>
        <time>2020-06-17T13:25:10Z</time>
      </trkpt>
      <trkpt lat="49.36338" lon="0.0788">
        <ele>4.8</ele>
        <time>2020-06-17T13:25:11Z</time>
      </trkpt>
      <trkpt lat="49.3634" lon="0.07876">
        <ele>4.8</ele>
        <time>2020-06-17T13:25:12Z</time>
      </trkpt>
      <trkpt lat="49.36343" lon="0.07872">
        <ele>4.8</ele>
        <time>2020-06-17T13:25:13Z</time>
      </trkpt>
      <trkpt lat="49.36346" lon="0.07868">
        <ele>4.8</ele>
        <time>2020-06-17T13:25:14Z</time>
      </trkpt>
      <trkpt lat="49.36349" lon="0.07863">
        <ele>4.8</ele>
        <time>2020-06-17T13:25:15Z</time>
      </trkpt>
      <trkpt lat="49.36351" lon="0.07858">
        <ele>4.8</ele>
        <time>2020-06-17T13:25:16Z</time>
      </trkpt>
      <trkpt lat="49.36353" lon="0.07854">
        <ele>4.8</ele>
        <time>2020-06-17T13:25:17Z</time>
      </trkpt>
      <trkpt lat="49.36356" lon="0.07849">
        <ele>4.8</ele>
        <time>2020-06-17T13:25:18Z</time>
      </trkpt>
      <trkpt lat="49.36358" lon="0.07844">
        <ele>4.8</ele>
        <time>2020-06-17T13:25:19Z</time>
      </trkpt>
      <trkpt lat="49.3636" lon="0.07839">
        <ele>4.8</ele>
        <time>2020-06-17T13:25:20Z</time>
      </trkpt>
      <trkpt lat="49.36362" lon="0.07834">
        <ele>4.8</ele>
        <time>2020-06-17T13:25:21Z</time>
      </trkpt>
      <trkpt lat="49.36364" lon="0.07829">
        <ele>4.8</ele>
        <time>2020-06-17T13:25:22Z</time>
      </trkpt>
      <trkpt lat="49.36364" lon="0.07828">
        <ele>4.8</ele>
        <time>2020-06-17T13:25:23Z</time>
      </trkpt>
      <trkpt lat="49.36366" lon="0.07823">
        <ele>4.8</ele>
        <time>2020-06-17T13:25:24Z</time>
      </trkpt>
      <trkpt lat="49.36367" lon="0.07822">
        <ele>4.8</ele>
        <time>2020-06-17T13:25:25Z</time>
      </trkpt>
      <trkpt lat="49.3637" lon="0.07819">
        <ele>4.8</ele>
        <time>2020-06-17T13:25:26Z</time>
      </trkpt>
      <trkpt lat="49.3637" lon="0.07818">
        <ele>4.8</ele>
        <time>2020-06-17T13:25:27Z</time>
      </trkpt>
      <trkpt lat="49.36372" lon="0.07816">
        <ele>4.6</ele>
        <time>2020-06-17T13:25:28Z</time>
      </trkpt>
      <trkpt lat="49.36373" lon="0.07814">
        <ele>4.6</ele>
        <time>2020-06-17T13:25:29Z</time>
      </trkpt>
      <trkpt lat="49.36374" lon="0.07812">
        <ele>4.6</ele>
        <time>2020-06-17T13:25:30Z</time>
      </trkpt>
      <trkpt lat="49.36373" lon="0.0781">
        <ele>4.6</ele>
        <time>2020-06-17T13:25:31Z</time>
      </trkpt>
      <trkpt lat="49.36374" lon="0.07804">
        <ele>4.5</ele>
        <time>2020-06-17T13:25:32Z</time>
      </trkpt>
      <trkpt lat="49.36374" lon="0.07803">
        <ele>4.5</ele>
        <time>2020-06-17T13:25:33Z</time>
      </trkpt>
      <trkpt lat="49.36375" lon="0.07799">
        <ele>4.5</ele>
        <time>2020-06-17T13:25:34Z</time>
      </trkpt>
      <trkpt lat="49.36376" lon="0.07798">
        <ele>4.5</ele>
        <time>2020-06-17T13:25:35Z</time>
      </trkpt>
      <trkpt lat="49.36377" lon="0.07795">
        <ele>4.5</ele>
        <time>2020-06-17T13:25:36Z</time>
      </trkpt>
      <trkpt lat="49.36377" lon="0.07793">
        <ele>4.4</ele>
        <time>2020-06-17T13:25:37Z</time>
      </trkpt>
      <trkpt lat="49.36377" lon="0.0779">
        <ele>4.4</ele>
        <time>2020-06-17T13:25:38Z</time>
      </trkpt>
      <trkpt lat="49.36378" lon="0.07787">
        <ele>4.4</ele>
        <time>2020-06-17T13:25:39Z</time>
      </trkpt>
      <trkpt lat="49.36377" lon="0.07787">
        <ele>4.4</ele>
        <time>2020-06-17T13:25:40Z</time>
      </trkpt>
      <trkpt lat="49.36377" lon="0.07787">
        <ele>4.4</ele>
        <time>2020-06-17T13:25:41Z</time>
      </trkpt>
      <trkpt lat="49.36377" lon="0.07788">
        <ele>4.4</ele>
        <time>2020-06-17T13:25:42Z</time>
      </trkpt>
      <trkpt lat="49.36376" lon="0.07788">
        <ele>4.4</ele>
        <time>2020-06-17T13:25:43Z</time>
      </trkpt>
      <trkpt lat="49.36376" lon="0.07789">
        <ele>4.4</ele>
        <time>2020-06-17T13:25:44Z</time>
      </trkpt>
      <trkpt lat="49.36376" lon="0.07789">
        <ele>4.4</ele>
        <time>2020-06-17T13:25:45Z</time>
      </trkpt>
      <trkpt lat="49.36375" lon="0.0779">
        <ele>4.4</ele>
        <time>2020-06-17T13:25:46Z</time>
      </trkpt>
      <trkpt lat="49.36375" lon="0.0779">
        <ele>4.4</ele>
        <time>2020-06-17T13:25:47Z</time>
      </trkpt>
      <trkpt lat="49.36374" lon="0.07792">
        <ele>4.3</ele>
        <time>2020-06-17T13:25:48Z</time>
      </trkpt>
      <trkpt lat="49.36374" lon="0.07793">
        <ele>4.3</ele>
        <time>2020-06-17T13:25:49Z</time>
      </trkpt>
      <trkpt lat="49.36373" lon="0.07793">
        <ele>4.3</ele>
        <time>2020-06-17T13:25:50Z</time>
      </trkpt>
      <trkpt lat="49.36373" lon="0.078">
        <ele>4.3</ele>
        <time>2020-06-17T13:25:52Z</time>
      </trkpt>
      <trkpt lat="49.36374" lon="0.07804">
        <ele>4.2</ele>
        <time>2020-06-17T13:25:53Z</time>
      </trkpt>
      <trkpt lat="49.36375" lon="0.07809">
        <ele>4.2</ele>
        <time>2020-06-17T13:25:54Z</time>
      </trkpt>
      <trkpt lat="49.36376" lon="0.07813">
        <ele>4.2</ele>
        <time>2020-06-17T13:25:55Z</time>
      </trkpt>
      <trkpt lat="49.36378" lon="0.07816">
        <ele>4.1</ele>
        <time>2020-06-17T13:25:56Z</time>
      </trkpt>
      <trkpt lat="49.3638" lon="0.0782">
        <ele>4.1</ele>
        <time>2020-06-17T13:25:57Z</time>
      </trkpt>
      <trkpt lat="49.36383" lon="0.07822">
        <ele>4</ele>
        <time>2020-06-17T13:25:58Z</time>
      </trkpt>
      <trkpt lat="49.36384" lon="0.07822">
        <ele>4</ele>
        <time>2020-06-17T13:25:59Z</time>
      </trkpt>
      <trkpt lat="49.36387" lon="0.07823">
        <ele>4</ele>
        <time>2020-06-17T13:26:00Z</time>
      </trkpt>
      <trkpt lat="49.36388" lon="0.07823">
        <ele>4</ele>
        <time>2020-06-17T13:26:01Z</time>
      </trkpt>
      <trkpt lat="49.36391" lon="0.07824">
        <ele>4</ele>
        <time>2020-06-17T13:26:02Z</time>
      </trkpt>
      <trkpt lat="49.36395" lon="0.07825">
        <ele>3.9</ele>
        <time>2020-06-17T13:26:03Z</time>
      </trkpt>
      <trkpt lat="49.36398" lon="0.07826">
        <ele>3.9</ele>
        <time>2020-06-17T13:26:04Z</time>
      </trkpt>
      <trkpt lat="49.36401" lon="0.0783">
        <ele>3.9</ele>
        <time>2020-06-17T13:26:05Z</time>
      </trkpt>
      <trkpt lat="49.36401" lon="0.07831">
        <ele>3.8</ele>
        <time>2020-06-17T13:26:06Z</time>
      </trkpt>
      <trkpt lat="49.36403" lon="0.07836">
        <ele>3.8</ele>
        <time>2020-06-17T13:26:07Z</time>
      </trkpt>
      <trkpt lat="49.36402" lon="0.07842">
        <ele>3.8</ele>
        <time>2020-06-17T13:26:08Z</time>
      </trkpt>
      <trkpt lat="49.36402" lon="0.07844">
        <ele>3.8</ele>
        <time>2020-06-17T13:26:09Z</time>
      </trkpt>
      <trkpt lat="49.36403" lon="0.07849">
        <ele>3.8</ele>
        <time>2020-06-17T13:26:10Z</time>
      </trkpt>
      <trkpt lat="49.36404" lon="0.07852">
        <ele>3.9</ele>
        <time>2020-06-17T13:26:11Z</time>
      </trkpt>
      <trkpt lat="49.36407" lon="0.07856">
        <ele>3.9</ele>
        <time>2020-06-17T13:26:12Z</time>
      </trkpt>
      <trkpt lat="49.36408" lon="0.07857">
        <ele>3.9</ele>
        <time>2020-06-17T13:26:13Z</time>
      </trkpt>
      <trkpt lat="49.3641" lon="0.07861">
        <ele>4</ele>
        <time>2020-06-17T13:26:14Z</time>
      </trkpt>
      <trkpt lat="49.3641" lon="0.07862">
        <ele>4</ele>
        <time>2020-06-17T13:26:15Z</time>
      </trkpt>
      <trkpt lat="49.36413" lon="0.07865">
        <ele>4</ele>
        <time>2020-06-17T13:26:16Z</time>
      </trkpt>
      <trkpt lat="49.36413" lon="0.07867">
        <ele>4.1</ele>
        <time>2020-06-17T13:26:17Z</time>
      </trkpt>
      <trkpt lat="49.36415" lon="0.0787">
        <ele>4.1</ele>
        <time>2020-06-17T13:26:18Z</time>
      </trkpt>
      <trkpt lat="49.36416" lon="0.07871">
        <ele>4.1</ele>
        <time>2020-06-17T13:26:19Z</time>
      </trkpt>
      <trkpt lat="49.36417" lon="0.07873">
        <ele>4.1</ele>
        <time>2020-06-17T13:26:20Z</time>
      </trkpt>
      <trkpt lat="49.36418" lon="0.07874">
        <ele>4.2</ele>
        <time>2020-06-17T13:26:21Z</time>
      </trkpt>
      <trkpt lat="49.3642" lon="0.07878">
        <ele>4.2</ele>
        <time>2020-06-17T13:26:22Z</time>
      </trkpt>
      <trkpt lat="49.3642" lon="0.07879">
        <ele>4.2</ele>
        <time>2020-06-17T13:26:23Z</time>
      </trkpt>
      <trkpt lat="49.36421" lon="0.07882">
        <ele>4.2</ele>
        <time>2020-06-17T13:26:24Z</time>
      </trkpt>
      <trkpt lat="49.36422" lon="0.07884">
        <ele>4.3</ele>
        <time>2020-06-17T13:26:25Z</time>
      </trkpt>
      <trkpt lat="49.36423" lon="0.07885">
        <ele>4.3</ele>
        <time>2020-06-17T13:26:26Z</time>
      </trkpt>
      <trkpt lat="49.36424" lon="0.07886">
        <ele>4.2</ele>
        <time>2020-06-17T13:26:27Z</time>
      </trkpt>
      <trkpt lat="49.36426" lon="0.07888">
        <ele>4.2</ele>
        <time>2020-06-17T13:26:28Z</time>
      </trkpt>
      <trkpt lat="49.36427" lon="0.07889">
        <ele>4.1</ele>
        <time>2020-06-17T13:26:29Z</time>
      </trkpt>
      <trkpt lat="49.36427" lon="0.0789">
        <ele>4.1</ele>
        <time>2020-06-17T13:26:30Z</time>
      </trkpt>
      <trkpt lat="49.36428" lon="0.07891">
        <ele>4.1</ele>
        <time>2020-06-17T13:26:31Z</time>
      </trkpt>
      <trkpt lat="49.36429" lon="0.07891">
        <ele>4.1</ele>
        <time>2020-06-17T13:26:32Z</time>
      </trkpt>
      <trkpt lat="49.3643" lon="0.07892">
        <ele>4.1</ele>
        <time>2020-06-17T13:26:33Z</time>
      </trkpt>
      <trkpt lat="49.36433" lon="0.07894">
        <ele>4</ele>
        <time>2020-06-17T13:26:34Z</time>
      </trkpt>
      <trkpt lat="49.36434" lon="0.07895">
        <ele>4</ele>
        <time>2020-06-17T13:26:35Z</time>
      </trkpt>
      <trkpt lat="49.36436" lon="0.07895">
        <ele>3.9</ele>
        <time>2020-06-17T13:26:36Z</time>
      </trkpt>
      <trkpt lat="49.36437" lon="0.07895">
        <ele>3.9</ele>
        <time>2020-06-17T13:26:37Z</time>
      </trkpt>
      <trkpt lat="49.36438" lon="0.07896">
        <ele>3.9</ele>
        <time>2020-06-17T13:26:38Z</time>
      </trkpt>
      <trkpt lat="49.36439" lon="0.07897">
        <ele>3.8</ele>
        <time>2020-06-17T13:26:39Z</time>
      </trkpt>
      <trkpt lat="49.36441" lon="0.079">
        <ele>3.8</ele>
        <time>2020-06-17T13:26:40Z</time>
      </trkpt>
      <trkpt lat="49.36442" lon="0.07901">
        <ele>3.8</ele>
        <time>2020-06-17T13:26:41Z</time>
      </trkpt>
      <trkpt lat="49.36443" lon="0.07904">
        <ele>3.8</ele>
        <time>2020-06-17T13:26:42Z</time>
      </trkpt>
      <trkpt lat="49.36444" lon="0.07906">
        <ele>3.9</ele>
        <time>2020-06-17T13:26:43Z</time>
      </trkpt>
      <trkpt lat="49.36444" lon="0.07907">
        <ele>3.9</ele>
        <time>2020-06-17T13:26:44Z</time>
      </trkpt>
      <trkpt lat="49.36444" lon="0.07909">
        <ele>3.9</ele>
        <time>2020-06-17T13:26:45Z</time>
      </trkpt>
      <trkpt lat="49.36445" lon="0.07911">
        <ele>3.9</ele>
        <time>2020-06-17T13:26:46Z</time>
      </trkpt>
      <trkpt lat="49.36445" lon="0.07914">
        <ele>4</ele>
        <time>2020-06-17T13:26:47Z</time>
      </trkpt>
      <trkpt lat="49.36446" lon="0.07916">
        <ele>4</ele>
        <time>2020-06-17T13:26:48Z</time>
      </trkpt>
      <trkpt lat="49.36446" lon="0.07919">
        <ele>4</ele>
        <time>2020-06-17T13:26:49Z</time>
      </trkpt>
      <trkpt lat="49.36447" lon="0.07921">
        <ele>4</ele>
        <time>2020-06-17T13:26:50Z</time>
      </trkpt>
      <trkpt lat="49.36448" lon="0.07924">
        <ele>4</ele>
        <time>2020-06-17T13:26:51Z</time>
      </trkpt>
      <trkpt lat="49.36448" lon="0.07926">
        <ele>4.1</ele>
        <time>2020-06-17T13:26:52Z</time>
      </trkpt>
      <trkpt lat="49.36448" lon="0.07931">
        <ele>4.1</ele>
        <time>2020-06-17T13:26:53Z</time>
      </trkpt>
      <trkpt lat="49.36448" lon="0.07933">
        <ele>4.1</ele>
        <time>2020-06-17T13:26:54Z</time>
      </trkpt>
      <trkpt lat="49.36448" lon="0.07937">
        <ele>4.2</ele>
        <time>2020-06-17T13:26:55Z</time>
      </trkpt>
      <trkpt lat="49.36449" lon="0.07942">
        <ele>4.2</ele>
        <time>2020-06-17T13:26:56Z</time>
      </trkpt>
      <trkpt lat="49.3645" lon="0.07947">
        <ele>4.2</ele>
        <time>2020-06-17T13:26:57Z</time>
      </trkpt>
      <trkpt lat="49.36452" lon="0.0795">
        <ele>4.3</ele>
        <time>2020-06-17T13:26:58Z</time>
      </trkpt>
      <trkpt lat="49.36453" lon="0.07951">
        <ele>4.3</ele>
        <time>2020-06-17T13:26:59Z</time>
      </trkpt>
      <trkpt lat="49.36456" lon="0.07953">
        <ele>4.4</ele>
        <time>2020-06-17T13:27:00Z</time>
      </trkpt>
      <trkpt lat="49.36456" lon="0.07954">
        <ele>4.4</ele>
        <time>2020-06-17T13:27:01Z</time>
      </trkpt>
      <trkpt lat="49.3646" lon="0.07958">
        <ele>4.5</ele>
        <time>2020-06-17T13:27:02Z</time>
      </trkpt>
      <trkpt lat="49.36461" lon="0.0796">
        <ele>4.5</ele>
        <time>2020-06-17T13:27:03Z</time>
      </trkpt>
      <trkpt lat="49.36464" lon="0.07964">
        <ele>4.5</ele>
        <time>2020-06-17T13:27:04Z</time>
      </trkpt>
      <trkpt lat="49.36465" lon="0.07966">
        <ele>4.5</ele>
        <time>2020-06-17T13:27:05Z</time>
      </trkpt>
      <trkpt lat="49.36466" lon="0.0797">
        <ele>4.6</ele>
        <time>2020-06-17T13:27:06Z</time>
      </trkpt>
      <trkpt lat="49.36467" lon="0.07972">
        <ele>4.6</ele>
        <time>2020-06-17T13:27:07Z</time>
      </trkpt>
      <trkpt lat="49.36469" lon="0.07976">
        <ele>4.6</ele>
        <time>2020-06-17T13:27:08Z</time>
      </trkpt>
      <trkpt lat="49.3647" lon="0.07977">
        <ele>4.6</ele>
        <time>2020-06-17T13:27:09Z</time>
      </trkpt>
      <trkpt lat="49.36471" lon="0.07982">
        <ele>4.6</ele>
        <time>2020-06-17T13:27:10Z</time>
      </trkpt>
      <trkpt lat="49.36472" lon="0.07983">
        <ele>4.6</ele>
        <time>2020-06-17T13:27:11Z</time>
      </trkpt>
      <trkpt lat="49.36473" lon="0.07988">
        <ele>4.6</ele>
        <time>2020-06-17T13:27:12Z</time>
      </trkpt>
      <trkpt lat="49.36474" lon="0.0799">
        <ele>4.6</ele>
        <time>2020-06-17T13:27:13Z</time>
      </trkpt>
      <trkpt lat="49.36475" lon="0.07996">
        <ele>4.6</ele>
        <time>2020-06-17T13:27:14Z</time>
      </trkpt>
      <trkpt lat="49.36475" lon="0.07998">
        <ele>4.6</ele>
        <time>2020-06-17T13:27:15Z</time>
      </trkpt>
      <trkpt lat="49.36474" lon="0.08003">
        <ele>4.6</ele>
        <time>2020-06-17T13:27:16Z</time>
      </trkpt>
      <trkpt lat="49.36473" lon="0.08008">
        <ele>4.7</ele>
        <time>2020-06-17T13:27:17Z</time>
      </trkpt>
      <trkpt lat="49.36471" lon="0.08012">
        <ele>4.7</ele>
        <time>2020-06-17T13:27:18Z</time>
      </trkpt>
      <trkpt lat="49.36469" lon="0.08016">
        <ele>4.7</ele>
        <time>2020-06-17T13:27:19Z</time>
      </trkpt>
      <trkpt lat="49.36467" lon="0.08021">
        <ele>4.7</ele>
        <time>2020-06-17T13:27:20Z</time>
      </trkpt>
      <trkpt lat="49.36465" lon="0.08025">
        <ele>4.7</ele>
        <time>2020-06-17T13:27:21Z</time>
      </trkpt>
      <trkpt lat="49.36462" lon="0.0803">
        <ele>4.7</ele>
        <time>2020-06-17T13:27:22Z</time>
      </trkpt>
      <trkpt lat="49.36459" lon="0.08035">
        <ele>4.7</ele>
        <time>2020-06-17T13:27:23Z</time>
      </trkpt>
      <trkpt lat="49.36456" lon="0.08039">
        <ele>4.7</ele>
        <time>2020-06-17T13:27:24Z</time>
      </trkpt>
      <trkpt lat="49.36452" lon="0.08044">
        <ele>4.7</ele>
        <time>2020-06-17T13:27:25Z</time>
      </trkpt>
      <trkpt lat="49.36448" lon="0.08048">
        <ele>4.7</ele>
        <time>2020-06-17T13:27:26Z</time>
      </trkpt>
      <trkpt lat="49.36444" lon="0.08053">
        <ele>4.7</ele>
        <time>2020-06-17T13:27:27Z</time>
      </trkpt>
      <trkpt lat="49.36441" lon="0.08058">
        <ele>4.7</ele>
        <time>2020-06-17T13:27:28Z</time>
      </trkpt>
      <trkpt lat="49.36437" lon="0.08061">
        <ele>4.7</ele>
        <time>2020-06-17T13:27:29Z</time>
      </trkpt>
      <trkpt lat="49.36434" lon="0.08066">
        <ele>4.7</ele>
        <time>2020-06-17T13:27:30Z</time>
      </trkpt>
      <trkpt lat="49.3643" lon="0.08071">
        <ele>4.7</ele>
        <time>2020-06-17T13:27:31Z</time>
      </trkpt>
      <trkpt lat="49.36426" lon="0.08076">
        <ele>4.7</ele>
        <time>2020-06-17T13:27:32Z</time>
      </trkpt>
      <trkpt lat="49.36423" lon="0.08081">
        <ele>4.7</ele>
        <time>2020-06-17T13:27:33Z</time>
      </trkpt>
      <trkpt lat="49.3642" lon="0.08085">
        <ele>4.7</ele>
        <time>2020-06-17T13:27:34Z</time>
      </trkpt>
      <trkpt lat="49.36418" lon="0.0809">
        <ele>4.7</ele>
        <time>2020-06-17T13:27:35Z</time>
      </trkpt>
      <trkpt lat="49.36414" lon="0.08095">
        <ele>4.7</ele>
        <time>2020-06-17T13:27:36Z</time>
      </trkpt>
      <trkpt lat="49.36411" lon="0.08101">
        <ele>4.7</ele>
        <time>2020-06-17T13:27:37Z</time>
      </trkpt>
      <trkpt lat="49.36407" lon="0.08106">
        <ele>4.7</ele>
        <time>2020-06-17T13:27:38Z</time>
      </trkpt>
      <trkpt lat="49.36404" lon="0.08111">
        <ele>4.7</ele>
        <time>2020-06-17T13:27:39Z</time>
      </trkpt>
      <trkpt lat="49.36401" lon="0.08116">
        <ele>4.7</ele>
        <time>2020-06-17T13:27:40Z</time>
      </trkpt>
      <trkpt lat="49.36399" lon="0.0812">
        <ele>4.7</ele>
        <time>2020-06-17T13:27:41Z</time>
      </trkpt>
      <trkpt lat="49.36395" lon="0.08126">
        <ele>4.7</ele>
        <time>2020-06-17T13:27:42Z</time>
      </trkpt>
      <trkpt lat="49.36391" lon="0.08133">
        <ele>4.7</ele>
        <time>2020-06-17T13:27:43Z</time>
      </trkpt>
      <trkpt lat="49.36388" lon="0.08137">
        <ele>4.7</ele>
        <time>2020-06-17T13:27:44Z</time>
      </trkpt>
      <trkpt lat="49.36385" lon="0.08143">
        <ele>4.8</ele>
        <time>2020-06-17T13:27:45Z</time>
      </trkpt>
      <trkpt lat="49.36382" lon="0.08149">
        <ele>4.8</ele>
        <time>2020-06-17T13:27:46Z</time>
      </trkpt>
      <trkpt lat="49.36379" lon="0.08153">
        <ele>4.8</ele>
        <time>2020-06-17T13:27:47Z</time>
      </trkpt>
      <trkpt lat="49.36376" lon="0.08156">
        <ele>4.8</ele>
        <time>2020-06-17T13:27:48Z</time>
      </trkpt>
      <trkpt lat="49.36372" lon="0.08158">
        <ele>4.9</ele>
        <time>2020-06-17T13:27:49Z</time>
      </trkpt>
      <trkpt lat="49.36369" lon="0.0816">
        <ele>4.9</ele>
        <time>2020-06-17T13:27:50Z</time>
      </trkpt>
      <trkpt lat="49.36366" lon="0.08164">
        <ele>4.9</ele>
        <time>2020-06-17T13:27:51Z</time>
      </trkpt>
      <trkpt lat="49.36363" lon="0.08166">
        <ele>4.9</ele>
        <time>2020-06-17T13:27:52Z</time>
      </trkpt>
      <trkpt lat="49.3636" lon="0.08169">
        <ele>5</ele>
        <time>2020-06-17T13:27:53Z</time>
      </trkpt>
      <trkpt lat="49.36357" lon="0.08172">
        <ele>5</ele>
        <time>2020-06-17T13:27:54Z</time>
      </trkpt>
      <trkpt lat="49.36355" lon="0.08173">
        <ele>5</ele>
        <time>2020-06-17T13:27:55Z</time>
      </trkpt>
      <trkpt lat="49.36352" lon="0.08174">
        <ele>5.1</ele>
        <time>2020-06-17T13:27:56Z</time>
      </trkpt>
      <trkpt lat="49.36349" lon="0.08176">
        <ele>5.1</ele>
        <time>2020-06-17T13:27:57Z</time>
      </trkpt>
      <trkpt lat="49.36347" lon="0.08179">
        <ele>5.1</ele>
        <time>2020-06-17T13:27:58Z</time>
      </trkpt>
      <trkpt lat="49.36347" lon="0.0818">
        <ele>5.1</ele>
        <time>2020-06-17T13:27:59Z</time>
      </trkpt>
      <trkpt lat="49.36348" lon="0.08181">
        <ele>5.2</ele>
        <time>2020-06-17T13:28:00Z</time>
      </trkpt>
      <trkpt lat="49.36349" lon="0.08182">
        <ele>5.2</ele>
        <time>2020-06-17T13:28:01Z</time>
      </trkpt>
      <trkpt lat="49.36351" lon="0.08182">
        <ele>5.2</ele>
        <time>2020-06-17T13:28:02Z</time>
      </trkpt>
      <trkpt lat="49.36353" lon="0.08184">
        <ele>4.8</ele>
        <time>2020-06-17T13:28:03Z</time>
      </trkpt>
      <trkpt lat="49.36354" lon="0.08185">
        <ele>3.8</ele>
        <time>2020-06-17T13:28:04Z</time>
      </trkpt>
      <trkpt lat="49.36356" lon="0.08185">
        <ele>3.8</ele>
        <time>2020-06-17T13:28:05Z</time>
      </trkpt>
      <trkpt lat="49.36357" lon="0.08186">
        <ele>3.4</ele>
        <time>2020-06-17T13:28:06Z</time>
      </trkpt>
      <trkpt lat="49.36358" lon="0.0819">
        <ele>2.9</ele>
        <time>2020-06-17T13:28:07Z</time>
      </trkpt>
      <trkpt lat="49.36359" lon="0.08194">
        <ele>2.3</ele>
        <time>2020-06-17T13:28:08Z</time>
      </trkpt>
      <trkpt lat="49.3636" lon="0.08199">
        <ele>2.3</ele>
        <time>2020-06-17T13:28:09Z</time>
      </trkpt>
      <trkpt lat="49.36358" lon="0.08205">
        <ele>2.4</ele>
        <time>2020-06-17T13:28:10Z</time>
      </trkpt>
      <trkpt lat="49.36357" lon="0.08206">
        <ele>2.4</ele>
        <time>2020-06-17T13:28:11Z</time>
      </trkpt>
      <trkpt lat="49.36355" lon="0.0821">
        <ele>2.5</ele>
        <time>2020-06-17T13:28:12Z</time>
      </trkpt>
      <trkpt lat="49.36352" lon="0.08214">
        <ele>2.6</ele>
        <time>2020-06-17T13:28:13Z</time>
      </trkpt>
      <trkpt lat="49.3635" lon="0.08218">
        <ele>2.6</ele>
        <time>2020-06-17T13:28:14Z</time>
      </trkpt>
      <trkpt lat="49.36347" lon="0.08221">
        <ele>2.7</ele>
        <time>2020-06-17T13:28:15Z</time>
      </trkpt>
      <trkpt lat="49.36344" lon="0.08225">
        <ele>2.8</ele>
        <time>2020-06-17T13:28:16Z</time>
      </trkpt>
      <trkpt lat="49.36342" lon="0.0823">
        <ele>2.8</ele>
        <time>2020-06-17T13:28:17Z</time>
      </trkpt>
      <trkpt lat="49.3634" lon="0.08234">
        <ele>2.9</ele>
        <time>2020-06-17T13:28:18Z</time>
      </trkpt>
      <trkpt lat="49.36337" lon="0.08239">
        <ele>2.9</ele>
        <time>2020-06-17T13:28:19Z</time>
      </trkpt>
      <trkpt lat="49.36335" lon="0.08242">
        <ele>2.9</ele>
        <time>2020-06-17T13:28:20Z</time>
      </trkpt>
      <trkpt lat="49.36333" lon="0.08246">
        <ele>3</ele>
        <time>2020-06-17T13:28:21Z</time>
      </trkpt>
      <trkpt lat="49.36331" lon="0.0825">
        <ele>3</ele>
        <time>2020-06-17T13:28:22Z</time>
      </trkpt>
      <trkpt lat="49.36329" lon="0.08255">
        <ele>3</ele>
        <time>2020-06-17T13:28:23Z</time>
      </trkpt>
      <trkpt lat="49.36327" lon="0.08259">
        <ele>3</ele>
        <time>2020-06-17T13:28:24Z</time>
      </trkpt>
      <trkpt lat="49.36325" lon="0.08264">
        <ele>3.1</ele>
        <time>2020-06-17T13:28:25Z</time>
      </trkpt>
      <trkpt lat="49.36324" lon="0.08266">
        <ele>3.1</ele>
        <time>2020-06-17T13:28:26Z</time>
      </trkpt>
      <trkpt lat="49.36325" lon="0.08268">
        <ele>3.1</ele>
        <time>2020-06-17T13:28:27Z</time>
      </trkpt>
      <trkpt lat="49.36325" lon="0.0827">
        <ele>3.1</ele>
        <time>2020-06-17T13:28:28Z</time>
      </trkpt>
      <trkpt lat="49.36325" lon="0.08272">
        <ele>3.1</ele>
        <time>2020-06-17T13:28:29Z</time>
      </trkpt>
      <trkpt lat="49.36325" lon="0.08273">
        <ele>3.1</ele>
        <time>2020-06-17T13:28:30Z</time>
      </trkpt>
      <trkpt lat="49.36325" lon="0.08275">
        <ele>3.1</ele>
        <time>2020-06-17T13:28:31Z</time>
      </trkpt>
      <trkpt lat="49.36324" lon="0.08276">
        <ele>3.1</ele>
        <time>2020-06-17T13:28:32Z</time>
      </trkpt>
      <trkpt lat="49.36322" lon="0.08281">
        <ele>3.2</ele>
        <time>2020-06-17T13:28:33Z</time>
      </trkpt>
      <trkpt lat="49.36321" lon="0.08283">
        <ele>3.2</ele>
        <time>2020-06-17T13:28:34Z</time>
      </trkpt>
      <trkpt lat="49.36319" lon="0.08288">
        <ele>3.2</ele>
        <time>2020-06-17T13:28:35Z</time>
      </trkpt>
      <trkpt lat="49.36316" lon="0.08291">
        <ele>3.2</ele>
        <time>2020-06-17T13:28:36Z</time>
      </trkpt>
      <trkpt lat="49.36313" lon="0.08295">
        <ele>3.2</ele>
        <time>2020-06-17T13:28:37Z</time>
      </trkpt>
      <trkpt lat="49.3631" lon="0.08299">
        <ele>3.3</ele>
        <time>2020-06-17T13:28:38Z</time>
      </trkpt>
      <trkpt lat="49.36306" lon="0.08305">
        <ele>3.3</ele>
        <time>2020-06-17T13:28:39Z</time>
      </trkpt>
      <trkpt lat="49.36301" lon="0.0831">
        <ele>3.4</ele>
        <time>2020-06-17T13:28:40Z</time>
      </trkpt>
      <trkpt lat="49.36298" lon="0.08316">
        <ele>3.4</ele>
        <time>2020-06-17T13:28:41Z</time>
      </trkpt>
      <trkpt lat="49.36294" lon="0.08321">
        <ele>3.5</ele>
        <time>2020-06-17T13:28:42Z</time>
      </trkpt>
      <trkpt lat="49.3629" lon="0.08325">
        <ele>3.5</ele>
        <time>2020-06-17T13:28:43Z</time>
      </trkpt>
      <trkpt lat="49.36286" lon="0.08329">
        <ele>3.6</ele>
        <time>2020-06-17T13:28:44Z</time>
      </trkpt>
      <trkpt lat="49.36284" lon="0.08333">
        <ele>3.6</ele>
        <time>2020-06-17T13:28:45Z</time>
      </trkpt>
      <trkpt lat="49.36281" lon="0.08337">
        <ele>3.7</ele>
        <time>2020-06-17T13:28:46Z</time>
      </trkpt>
      <trkpt lat="49.36278" lon="0.08341">
        <ele>3.7</ele>
        <time>2020-06-17T13:28:47Z</time>
      </trkpt>
      <trkpt lat="49.36275" lon="0.08346">
        <ele>3.8</ele>
        <time>2020-06-17T13:28:48Z</time>
      </trkpt>
      <trkpt lat="49.36273" lon="0.0835">
        <ele>3.8</ele>
        <time>2020-06-17T13:28:49Z</time>
      </trkpt>
      <trkpt lat="49.3627" lon="0.08355">
        <ele>3.9</ele>
        <time>2020-06-17T13:28:50Z</time>
      </trkpt>
      <trkpt lat="49.36267" lon="0.08359">
        <ele>3.9</ele>
        <time>2020-06-17T13:28:51Z</time>
      </trkpt>
      <trkpt lat="49.36265" lon="0.08362">
        <ele>4</ele>
        <time>2020-06-17T13:28:52Z</time>
      </trkpt>
      <trkpt lat="49.36263" lon="0.08365">
        <ele>4</ele>
        <time>2020-06-17T13:28:53Z</time>
      </trkpt>
      <trkpt lat="49.3626" lon="0.08368">
        <ele>4</ele>
        <time>2020-06-17T13:28:54Z</time>
      </trkpt>
      <trkpt lat="49.36257" lon="0.08372">
        <ele>4.1</ele>
        <time>2020-06-17T13:28:55Z</time>
      </trkpt>
      <trkpt lat="49.36255" lon="0.08375">
        <ele>4.1</ele>
        <time>2020-06-17T13:28:56Z</time>
      </trkpt>
      <trkpt lat="49.36252" lon="0.08378">
        <ele>4.1</ele>
        <time>2020-06-17T13:28:57Z</time>
      </trkpt>
      <trkpt lat="49.3625" lon="0.08382">
        <ele>4.1</ele>
        <time>2020-06-17T13:28:58Z</time>
      </trkpt>
      <trkpt lat="49.36247" lon="0.08385">
        <ele>4.1</ele>
        <time>2020-06-17T13:28:59Z</time>
      </trkpt>
      <trkpt lat="49.36245" lon="0.08388">
        <ele>4.1</ele>
        <time>2020-06-17T13:29:00Z</time>
      </trkpt>
      <trkpt lat="49.36242" lon="0.08392">
        <ele>4.1</ele>
        <time>2020-06-17T13:29:01Z</time>
      </trkpt>
      <trkpt lat="49.36239" lon="0.08395">
        <ele>4.1</ele>
        <time>2020-06-17T13:29:02Z</time>
      </trkpt>
      <trkpt lat="49.36235" lon="0.08399">
        <ele>4.1</ele>
        <time>2020-06-17T13:29:03Z</time>
      </trkpt>
      <trkpt lat="49.36232" lon="0.08401">
        <ele>4.1</ele>
        <time>2020-06-17T13:29:04Z</time>
      </trkpt>
      <trkpt lat="49.36228" lon="0.08404">
        <ele>4.1</ele>
        <time>2020-06-17T13:29:05Z</time>
      </trkpt>
      <trkpt lat="49.36225" lon="0.08408">
        <ele>4.1</ele>
        <time>2020-06-17T13:29:06Z</time>
      </trkpt>
      <trkpt lat="49.36222" lon="0.08412">
        <ele>4.2</ele>
        <time>2020-06-17T13:29:07Z</time>
      </trkpt>
      <trkpt lat="49.36218" lon="0.08417">
        <ele>4.2</ele>
        <time>2020-06-17T13:29:08Z</time>
      </trkpt>
      <trkpt lat="49.36214" lon="0.0842">
        <ele>4.2</ele>
        <time>2020-06-17T13:29:09Z</time>
      </trkpt>
      <trkpt lat="49.36211" lon="0.08424">
        <ele>4.3</ele>
        <time>2020-06-17T13:29:10Z</time>
      </trkpt>
      <trkpt lat="49.36207" lon="0.08427">
        <ele>4.3</ele>
        <time>2020-06-17T13:29:11Z</time>
      </trkpt>
      <trkpt lat="49.36202" lon="0.08431">
        <ele>4.4</ele>
        <time>2020-06-17T13:29:12Z</time>
      </trkpt>
      <trkpt lat="49.36197" lon="0.08436">
        <ele>4.4</ele>
        <time>2020-06-17T13:29:13Z</time>
      </trkpt>
      <trkpt lat="49.36193" lon="0.0844">
        <ele>4.5</ele>
        <time>2020-06-17T13:29:14Z</time>
      </trkpt>
      <trkpt lat="49.36189" lon="0.08443">
        <ele>4.5</ele>
        <time>2020-06-17T13:29:15Z</time>
      </trkpt>
      <trkpt lat="49.36186" lon="0.08446">
        <ele>4.6</ele>
        <time>2020-06-17T13:29:16Z</time>
      </trkpt>
      <trkpt lat="49.36182" lon="0.08449">
        <ele>4.6</ele>
        <time>2020-06-17T13:29:17Z</time>
      </trkpt>
      <trkpt lat="49.36178" lon="0.08452">
        <ele>4.7</ele>
        <time>2020-06-17T13:29:18Z</time>
      </trkpt>
      <trkpt lat="49.36173" lon="0.08454">
        <ele>4.7</ele>
        <time>2020-06-17T13:29:19Z</time>
      </trkpt>
      <trkpt lat="49.36169" lon="0.08457">
        <ele>4.8</ele>
        <time>2020-06-17T13:29:20Z</time>
      </trkpt>
      <trkpt lat="49.36163" lon="0.08459">
        <ele>4.8</ele>
        <time>2020-06-17T13:29:21Z</time>
      </trkpt>
      <trkpt lat="49.36159" lon="0.08462">
        <ele>4.9</ele>
        <time>2020-06-17T13:29:22Z</time>
      </trkpt>
      <trkpt lat="49.36155" lon="0.08463">
        <ele>4.9</ele>
        <time>2020-06-17T13:29:23Z</time>
      </trkpt>
      <trkpt lat="49.36151" lon="0.08465">
        <ele>5</ele>
        <time>2020-06-17T13:29:24Z</time>
      </trkpt>
      <trkpt lat="49.36147" lon="0.08467">
        <ele>5.1</ele>
        <time>2020-06-17T13:29:25Z</time>
      </trkpt>
      <trkpt lat="49.36144" lon="0.08468">
        <ele>5.1</ele>
        <time>2020-06-17T13:29:26Z</time>
      </trkpt>
      <trkpt lat="49.3614" lon="0.0847">
        <ele>5.2</ele>
        <time>2020-06-17T13:29:27Z</time>
      </trkpt>
      <trkpt lat="49.36138" lon="0.08471">
        <ele>5.2</ele>
        <time>2020-06-17T13:29:28Z</time>
      </trkpt>
      <trkpt lat="49.36136" lon="0.08473">
        <ele>5.3</ele>
        <time>2020-06-17T13:29:29Z</time>
      </trkpt>
      <trkpt lat="49.36132" lon="0.08474">
        <ele>5.4</ele>
        <time>2020-06-17T13:29:30Z</time>
      </trkpt>
      <trkpt lat="49.3613" lon="0.08475">
        <ele>5.4</ele>
        <time>2020-06-17T13:29:31Z</time>
      </trkpt>
      <trkpt lat="49.36129" lon="0.08475">
        <ele>5.4</ele>
        <time>2020-06-17T13:29:32Z</time>
      </trkpt>
      <trkpt lat="49.36127" lon="0.08476">
        <ele>5.4</ele>
        <time>2020-06-17T13:29:33Z</time>
      </trkpt>
      <trkpt lat="49.36127" lon="0.08476">
        <ele>5.4</ele>
        <time>2020-06-17T13:29:34Z</time>
      </trkpt>
      <trkpt lat="49.36126" lon="0.08477">
        <ele>5.4</ele>
        <time>2020-06-17T13:29:35Z</time>
      </trkpt>
      <trkpt lat="49.36126" lon="0.08477">
        <ele>5.4</ele>
        <time>2020-06-17T13:29:36Z</time>
      </trkpt>
      <trkpt lat="49.36126" lon="0.08478">
        <ele>5.4</ele>
        <time>2020-06-17T13:29:37Z</time>
      </trkpt>
      <trkpt lat="49.36125" lon="0.08479">
        <ele>5.4</ele>
        <time>2020-06-17T13:29:38Z</time>
      </trkpt>
      <trkpt lat="49.36125" lon="0.08481">
        <ele>5.3</ele>
        <time>2020-06-17T13:29:39Z</time>
      </trkpt>
      <trkpt lat="49.36125" lon="0.08484">
        <ele>5.1</ele>
        <time>2020-06-17T13:29:40Z</time>
      </trkpt>
      <trkpt lat="49.36126" lon="0.08489">
        <ele>4.9</ele>
        <time>2020-06-17T13:29:41Z</time>
      </trkpt>
      <trkpt lat="49.36126" lon="0.08491">
        <ele>4.7</ele>
        <time>2020-06-17T13:29:42Z</time>
      </trkpt>
      <trkpt lat="49.36128" lon="0.08496">
        <ele>4.6</ele>
        <time>2020-06-17T13:29:43Z</time>
      </trkpt>
      <trkpt lat="49.36129" lon="0.08498">
        <ele>4.5</ele>
        <time>2020-06-17T13:29:44Z</time>
      </trkpt>
      <trkpt lat="49.3613" lon="0.08502">
        <ele>4.3</ele>
        <time>2020-06-17T13:29:45Z</time>
      </trkpt>
      <trkpt lat="49.36131" lon="0.08507">
        <ele>4.2</ele>
        <time>2020-06-17T13:29:46Z</time>
      </trkpt>
      <trkpt lat="49.36132" lon="0.08512">
        <ele>4</ele>
        <time>2020-06-17T13:29:47Z</time>
      </trkpt>
      <trkpt lat="49.36133" lon="0.08516">
        <ele>3.8</ele>
        <time>2020-06-17T13:29:48Z</time>
      </trkpt>
      <trkpt lat="49.36134" lon="0.0852">
        <ele>3.7</ele>
        <time>2020-06-17T13:29:49Z</time>
      </trkpt>
      <trkpt lat="49.36135" lon="0.08525">
        <ele>3.5</ele>
        <time>2020-06-17T13:29:50Z</time>
      </trkpt>
      <trkpt lat="49.36136" lon="0.08529">
        <ele>3.4</ele>
        <time>2020-06-17T13:29:51Z</time>
      </trkpt>
      <trkpt lat="49.36138" lon="0.08535">
        <ele>3.2</ele>
        <time>2020-06-17T13:29:52Z</time>
      </trkpt>
      <trkpt lat="49.36138" lon="0.08536">
        <ele>3.1</ele>
        <time>2020-06-17T13:29:53Z</time>
      </trkpt>
      <trkpt lat="49.36139" lon="0.0854">
        <ele>2.9</ele>
        <time>2020-06-17T13:29:54Z</time>
      </trkpt>
      <trkpt lat="49.36141" lon="0.08546">
        <ele>2.7</ele>
        <time>2020-06-17T13:29:55Z</time>
      </trkpt>
      <trkpt lat="49.36142" lon="0.08548">
        <ele>2.5</ele>
        <time>2020-06-17T13:29:56Z</time>
      </trkpt>
      <trkpt lat="49.36144" lon="0.08552">
        <ele>2.2</ele>
        <time>2020-06-17T13:29:57Z</time>
      </trkpt>
      <trkpt lat="49.36145" lon="0.08554">
        <ele>1.9</ele>
        <time>2020-06-17T13:29:58Z</time>
      </trkpt>
      <trkpt lat="49.36147" lon="0.08557">
        <ele>1.6</ele>
        <time>2020-06-17T13:29:59Z</time>
      </trkpt>
      <trkpt lat="49.3615" lon="0.08558">
        <ele>1.3</ele>
        <time>2020-06-17T13:30:00Z</time>
      </trkpt>
      <trkpt lat="49.36154" lon="0.08559">
        <ele>1</ele>
        <time>2020-06-17T13:30:01Z</time>
      </trkpt>
      <trkpt lat="49.36157" lon="0.08561">
        <ele>0.7</ele>
        <time>2020-06-17T13:30:02Z</time>
      </trkpt>
      <trkpt lat="49.36161" lon="0.08562">
        <ele>0.3</ele>
        <time>2020-06-17T13:30:03Z</time>
      </trkpt>
      <trkpt lat="49.36165" lon="0.08562">
        <ele>0.1</ele>
        <time>2020-06-17T13:30:04Z</time>
      </trkpt>
      <trkpt lat="49.36169" lon="0.08561">
        <ele>-0.2</ele>
        <time>2020-06-17T13:30:05Z</time>
      </trkpt>
      <trkpt lat="49.36174" lon="0.08561">
        <ele>-0.2</ele>
        <time>2020-06-17T13:30:06Z</time>
      </trkpt>
      <trkpt lat="49.36177" lon="0.0856">
        <ele>-0.2</ele>
        <time>2020-06-17T13:30:07Z</time>
      </trkpt>
      <trkpt lat="49.36182" lon="0.0856">
        <ele>0.2</ele>
        <time>2020-06-17T13:30:08Z</time>
      </trkpt>
      <trkpt lat="49.36185" lon="0.0856">
        <ele>0.4</ele>
        <time>2020-06-17T13:30:09Z</time>
      </trkpt>
      <trkpt lat="49.36189" lon="0.08559">
        <ele>0.7</ele>
        <time>2020-06-17T13:30:10Z</time>
      </trkpt>
      <trkpt lat="49.3619" lon="0.08559">
        <ele>1.1</ele>
        <time>2020-06-17T13:30:11Z</time>
      </trkpt>
      <trkpt lat="49.36193" lon="0.08559">
        <ele>1.5</ele>
        <time>2020-06-17T13:30:12Z</time>
      </trkpt>
      <trkpt lat="49.36193" lon="0.0856">
        <ele>1.4</ele>
        <time>2020-06-17T13:30:13Z</time>
      </trkpt>
      <trkpt lat="49.36195" lon="0.08561">
        <ele>1.8</ele>
        <time>2020-06-17T13:30:14Z</time>
      </trkpt>
      <trkpt lat="49.36196" lon="0.08562">
        <ele>2.2</ele>
        <time>2020-06-17T13:30:15Z</time>
      </trkpt>
      <trkpt lat="49.36197" lon="0.08563">
        <ele>2.1</ele>
        <time>2020-06-17T13:30:16Z</time>
      </trkpt>
      <trkpt lat="49.36199" lon="0.08564">
        <ele>2.6</ele>
        <time>2020-06-17T13:30:17Z</time>
      </trkpt>
      <trkpt lat="49.36199" lon="0.08566">
        <ele>2.4</ele>
        <time>2020-06-17T13:30:18Z</time>
      </trkpt>
      <trkpt lat="49.36201" lon="0.08565">
        <ele>2.9</ele>
        <time>2020-06-17T13:30:19Z</time>
      </trkpt>
      <trkpt lat="49.36203" lon="0.08565">
        <ele>2.7</ele>
        <time>2020-06-17T13:30:20Z</time>
      </trkpt>
      <trkpt lat="49.36207" lon="0.08563">
        <ele>3.6</ele>
        <time>2020-06-17T13:30:21Z</time>
      </trkpt>
      <trkpt lat="49.36208" lon="0.08562">
        <ele>2.4</ele>
        <time>2020-06-17T13:30:22Z</time>
      </trkpt>
      <trkpt lat="49.36211" lon="0.0856">
        <ele>2.5</ele>
        <time>2020-06-17T13:30:23Z</time>
      </trkpt>
      <trkpt lat="49.36214" lon="0.08558">
        <ele>2.7</ele>
        <time>2020-06-17T13:30:24Z</time>
      </trkpt>
      <trkpt lat="49.36215" lon="0.08557">
        <ele>1</ele>
        <time>2020-06-17T13:30:25Z</time>
      </trkpt>
      <trkpt lat="49.36218" lon="0.08555">
        <ele>0.8</ele>
        <time>2020-06-17T13:30:26Z</time>
      </trkpt>
      <trkpt lat="49.36219" lon="0.08555">
        <ele>0.7</ele>
        <time>2020-06-17T13:30:27Z</time>
      </trkpt>
      <trkpt lat="49.36221" lon="0.08557">
        <ele>0.5</ele>
        <time>2020-06-17T13:30:28Z</time>
      </trkpt>
      <trkpt lat="49.36223" lon="0.08559">
        <ele>2.1</ele>
        <time>2020-06-17T13:30:29Z</time>
      </trkpt>
      <trkpt lat="49.36225" lon="0.08561">
        <ele>2</ele>
        <time>2020-06-17T13:30:30Z</time>
      </trkpt>
      <trkpt lat="49.36227" lon="0.08563">
        <ele>3.8</ele>
        <time>2020-06-17T13:30:31Z</time>
      </trkpt>
      <trkpt lat="49.36228" lon="0.08564">
        <ele>3.6</ele>
        <time>2020-06-17T13:30:32Z</time>
      </trkpt>
      <trkpt lat="49.36229" lon="0.08565">
        <ele>3.7</ele>
        <time>2020-06-17T13:30:33Z</time>
      </trkpt>
      <trkpt lat="49.3623" lon="0.08566">
        <ele>3.5</ele>
        <time>2020-06-17T13:30:34Z</time>
      </trkpt>
      <trkpt lat="49.36232" lon="0.08567">
        <ele>5.1</ele>
        <time>2020-06-17T13:30:35Z</time>
      </trkpt>
      <trkpt lat="49.36233" lon="0.08567">
        <ele>5</ele>
        <time>2020-06-17T13:30:36Z</time>
      </trkpt>
      <trkpt lat="49.36234" lon="0.08568">
        <ele>5.1</ele>
        <time>2020-06-17T13:30:37Z</time>
      </trkpt>
      <trkpt lat="49.36237" lon="0.08567">
        <ele>5.1</ele>
        <time>2020-06-17T13:30:38Z</time>
      </trkpt>
      <trkpt lat="49.36238" lon="0.08567">
        <ele>5.1</ele>
        <time>2020-06-17T13:30:39Z</time>
      </trkpt>
      <trkpt lat="49.36241" lon="0.08566">
        <ele>5.1</ele>
        <time>2020-06-17T13:30:40Z</time>
      </trkpt>
      <trkpt lat="49.36245" lon="0.08564">
        <ele>5.1</ele>
        <time>2020-06-17T13:30:41Z</time>
      </trkpt>
      <trkpt lat="49.36248" lon="0.08563">
        <ele>5.1</ele>
        <time>2020-06-17T13:30:42Z</time>
      </trkpt>
      <trkpt lat="49.36251" lon="0.08561">
        <ele>5.1</ele>
        <time>2020-06-17T13:30:43Z</time>
      </trkpt>
      <trkpt lat="49.36255" lon="0.08558">
        <ele>5.1</ele>
        <time>2020-06-17T13:30:44Z</time>
      </trkpt>
      <trkpt lat="49.36259" lon="0.08555">
        <ele>5.1</ele>
        <time>2020-06-17T13:30:45Z</time>
      </trkpt>
      <trkpt lat="49.36262" lon="0.08552">
        <ele>5.1</ele>
        <time>2020-06-17T13:30:46Z</time>
      </trkpt>
      <trkpt lat="49.36266" lon="0.08549">
        <ele>5.1</ele>
        <time>2020-06-17T13:30:47Z</time>
      </trkpt>
      <trkpt lat="49.3627" lon="0.08545">
        <ele>5.1</ele>
        <time>2020-06-17T13:30:48Z</time>
      </trkpt>
      <trkpt lat="49.36274" lon="0.08541">
        <ele>5.1</ele>
        <time>2020-06-17T13:30:49Z</time>
      </trkpt>
      <trkpt lat="49.36276" lon="0.08538">
        <ele>5.1</ele>
        <time>2020-06-17T13:30:50Z</time>
      </trkpt>
      <trkpt lat="49.36278" lon="0.08535">
        <ele>5.1</ele>
        <time>2020-06-17T13:30:51Z</time>
      </trkpt>
      <trkpt lat="49.36281" lon="0.08531">
        <ele>5.1</ele>
        <time>2020-06-17T13:30:52Z</time>
      </trkpt>
      <trkpt lat="49.36283" lon="0.08527">
        <ele>5.1</ele>
        <time>2020-06-17T13:30:53Z</time>
      </trkpt>
      <trkpt lat="49.36286" lon="0.08523">
        <ele>5.1</ele>
        <time>2020-06-17T13:30:54Z</time>
      </trkpt>
      <trkpt lat="49.36289" lon="0.08518">
        <ele>5.1</ele>
        <time>2020-06-17T13:30:55Z</time>
      </trkpt>
      <trkpt lat="49.36292" lon="0.08513">
        <ele>5.1</ele>
        <time>2020-06-17T13:30:56Z</time>
      </trkpt>
      <trkpt lat="49.36295" lon="0.08508">
        <ele>5.1</ele>
        <time>2020-06-17T13:30:57Z</time>
      </trkpt>
      <trkpt lat="49.36298" lon="0.08504">
        <ele>5.1</ele>
        <time>2020-06-17T13:30:58Z</time>
      </trkpt>
      <trkpt lat="49.36302" lon="0.08499">
        <ele>5.1</ele>
        <time>2020-06-17T13:30:59Z</time>
      </trkpt>
      <trkpt lat="49.36305" lon="0.08495">
        <ele>5.1</ele>
        <time>2020-06-17T13:31:00Z</time>
      </trkpt>
      <trkpt lat="49.36308" lon="0.08491">
        <ele>5.2</ele>
        <time>2020-06-17T13:31:01Z</time>
      </trkpt>
      <trkpt lat="49.36311" lon="0.08487">
        <ele>5.2</ele>
        <time>2020-06-17T13:31:02Z</time>
      </trkpt>
      <trkpt lat="49.36315" lon="0.08482">
        <ele>5.2</ele>
        <time>2020-06-17T13:31:03Z</time>
      </trkpt>
      <trkpt lat="49.36318" lon="0.08478">
        <ele>5.2</ele>
        <time>2020-06-17T13:31:04Z</time>
      </trkpt>
      <trkpt lat="49.36322" lon="0.08474">
        <ele>5.2</ele>
        <time>2020-06-17T13:31:05Z</time>
      </trkpt>
      <trkpt lat="49.36325" lon="0.08469">
        <ele>5.2</ele>
        <time>2020-06-17T13:31:06Z</time>
      </trkpt>
      <trkpt lat="49.36328" lon="0.08465">
        <ele>5.2</ele>
        <time>2020-06-17T13:31:07Z</time>
      </trkpt>
      <trkpt lat="49.36332" lon="0.08459">
        <ele>5.2</ele>
        <time>2020-06-17T13:31:08Z</time>
      </trkpt>
      <trkpt lat="49.36335" lon="0.08454">
        <ele>5.2</ele>
        <time>2020-06-17T13:31:09Z</time>
      </trkpt>
      <trkpt lat="49.36339" lon="0.08449">
        <ele>5.2</ele>
        <time>2020-06-17T13:31:10Z</time>
      </trkpt>
      <trkpt lat="49.36342" lon="0.08444">
        <ele>5.2</ele>
        <time>2020-06-17T13:31:11Z</time>
      </trkpt>
      <trkpt lat="49.36345" lon="0.08439">
        <ele>5.2</ele>
        <time>2020-06-17T13:31:12Z</time>
      </trkpt>
      <trkpt lat="49.36348" lon="0.08433">
        <ele>5.2</ele>
        <time>2020-06-17T13:31:13Z</time>
      </trkpt>
      <trkpt lat="49.36352" lon="0.08428">
        <ele>5.2</ele>
        <time>2020-06-17T13:31:14Z</time>
      </trkpt>
      <trkpt lat="49.36356" lon="0.08423">
        <ele>5.3</ele>
        <time>2020-06-17T13:31:15Z</time>
      </trkpt>
      <trkpt lat="49.36359" lon="0.08418">
        <ele>5.3</ele>
        <time>2020-06-17T13:31:16Z</time>
      </trkpt>
      <trkpt lat="49.36364" lon="0.08413">
        <ele>5.2</ele>
        <time>2020-06-17T13:31:17Z</time>
      </trkpt>
      <trkpt lat="49.36368" lon="0.08409">
        <ele>5.2</ele>
        <time>2020-06-17T13:31:18Z</time>
      </trkpt>
      <trkpt lat="49.36371" lon="0.08404">
        <ele>5.2</ele>
        <time>2020-06-17T13:31:19Z</time>
      </trkpt>
      <trkpt lat="49.36374" lon="0.08399">
        <ele>5.2</ele>
        <time>2020-06-17T13:31:20Z</time>
      </trkpt>
      <trkpt lat="49.36378" lon="0.08393">
        <ele>5.2</ele>
        <time>2020-06-17T13:31:21Z</time>
      </trkpt>
      <trkpt lat="49.36382" lon="0.08389">
        <ele>5.3</ele>
        <time>2020-06-17T13:31:22Z</time>
      </trkpt>
      <trkpt lat="49.36385" lon="0.08385">
        <ele>5.3</ele>
        <time>2020-06-17T13:31:23Z</time>
      </trkpt>
      <trkpt lat="49.36389" lon="0.0838">
        <ele>5.3</ele>
        <time>2020-06-17T13:31:24Z</time>
      </trkpt>
      <trkpt lat="49.36393" lon="0.08374">
        <ele>5.3</ele>
        <time>2020-06-17T13:31:25Z</time>
      </trkpt>
      <trkpt lat="49.36397" lon="0.08369">
        <ele>5.3</ele>
        <time>2020-06-17T13:31:26Z</time>
      </trkpt>
      <trkpt lat="49.364" lon="0.08363">
        <ele>5.4</ele>
        <time>2020-06-17T13:31:27Z</time>
      </trkpt>
      <trkpt lat="49.36404" lon="0.08359">
        <ele>5.4</ele>
        <time>2020-06-17T13:31:28Z</time>
      </trkpt>
      <trkpt lat="49.36407" lon="0.08353">
        <ele>5.4</ele>
        <time>2020-06-17T13:31:29Z</time>
      </trkpt>
      <trkpt lat="49.36411" lon="0.08348">
        <ele>5.4</ele>
        <time>2020-06-17T13:31:30Z</time>
      </trkpt>
      <trkpt lat="49.36415" lon="0.08344">
        <ele>5.4</ele>
        <time>2020-06-17T13:31:31Z</time>
      </trkpt>
      <trkpt lat="49.36419" lon="0.0834">
        <ele>5.4</ele>
        <time>2020-06-17T13:31:32Z</time>
      </trkpt>
      <trkpt lat="49.36422" lon="0.08335">
        <ele>5.5</ele>
        <time>2020-06-17T13:31:33Z</time>
      </trkpt>
      <trkpt lat="49.36426" lon="0.0833">
        <ele>5.5</ele>
        <time>2020-06-17T13:31:34Z</time>
      </trkpt>
      <trkpt lat="49.36429" lon="0.08325">
        <ele>5.5</ele>
        <time>2020-06-17T13:31:35Z</time>
      </trkpt>
      <trkpt lat="49.36432" lon="0.08319">
        <ele>5.5</ele>
        <time>2020-06-17T13:31:36Z</time>
      </trkpt>
      <trkpt lat="49.36436" lon="0.08314">
        <ele>5.6</ele>
        <time>2020-06-17T13:31:37Z</time>
      </trkpt>
      <trkpt lat="49.36439" lon="0.08309">
        <ele>5.6</ele>
        <time>2020-06-17T13:31:38Z</time>
      </trkpt>
      <trkpt lat="49.36442" lon="0.08305">
        <ele>5.6</ele>
        <time>2020-06-17T13:31:39Z</time>
      </trkpt>
      <trkpt lat="49.36446" lon="0.08299">
        <ele>5.6</ele>
        <time>2020-06-17T13:31:40Z</time>
      </trkpt>
      <trkpt lat="49.3645" lon="0.08293">
        <ele>5.5</ele>
        <time>2020-06-17T13:31:41Z</time>
      </trkpt>
      <trkpt lat="49.36453" lon="0.08289">
        <ele>5.5</ele>
        <time>2020-06-17T13:31:42Z</time>
      </trkpt>
      <trkpt lat="49.36456" lon="0.08283">
        <ele>5.5</ele>
        <time>2020-06-17T13:31:43Z</time>
      </trkpt>
      <trkpt lat="49.3646" lon="0.08278">
        <ele>5.5</ele>
        <time>2020-06-17T13:31:44Z</time>
      </trkpt>
      <trkpt lat="49.36463" lon="0.08275">
        <ele>5.4</ele>
        <time>2020-06-17T13:31:45Z</time>
      </trkpt>
      <trkpt lat="49.36467" lon="0.08271">
        <ele>5.4</ele>
        <time>2020-06-17T13:31:46Z</time>
      </trkpt>
      <trkpt lat="49.3647" lon="0.08268">
        <ele>5.4</ele>
        <time>2020-06-17T13:31:47Z</time>
      </trkpt>
      <trkpt lat="49.36474" lon="0.08264">
        <ele>5.4</ele>
        <time>2020-06-17T13:31:48Z</time>
      </trkpt>
      <trkpt lat="49.36478" lon="0.0826">
        <ele>5.3</ele>
        <time>2020-06-17T13:31:49Z</time>
      </trkpt>
      <trkpt lat="49.36482" lon="0.08256">
        <ele>5.3</ele>
        <time>2020-06-17T13:31:50Z</time>
      </trkpt>
      <trkpt lat="49.36486" lon="0.08251">
        <ele>5.3</ele>
        <time>2020-06-17T13:31:51Z</time>
      </trkpt>
      <trkpt lat="49.36489" lon="0.08246">
        <ele>5.3</ele>
        <time>2020-06-17T13:31:52Z</time>
      </trkpt>
      <trkpt lat="49.36495" lon="0.08241">
        <ele>5.2</ele>
        <time>2020-06-17T13:31:53Z</time>
      </trkpt>
      <trkpt lat="49.365" lon="0.08236">
        <ele>5.2</ele>
        <time>2020-06-17T13:31:54Z</time>
      </trkpt>
      <trkpt lat="49.36503" lon="0.08232">
        <ele>5.2</ele>
        <time>2020-06-17T13:31:55Z</time>
      </trkpt>
      <trkpt lat="49.36507" lon="0.08228">
        <ele>5.2</ele>
        <time>2020-06-17T13:31:56Z</time>
      </trkpt>
      <trkpt lat="49.3651" lon="0.08225">
        <ele>5.2</ele>
        <time>2020-06-17T13:31:57Z</time>
      </trkpt>
      <trkpt lat="49.36514" lon="0.08221">
        <ele>5.2</ele>
        <time>2020-06-17T13:31:58Z</time>
      </trkpt>
      <trkpt lat="49.36518" lon="0.08216">
        <ele>5.2</ele>
        <time>2020-06-17T13:31:59Z</time>
      </trkpt>
      <trkpt lat="49.36521" lon="0.08212">
        <ele>5.3</ele>
        <time>2020-06-17T13:32:00Z</time>
      </trkpt>
      <trkpt lat="49.36524" lon="0.08207">
        <ele>5.3</ele>
        <time>2020-06-17T13:32:01Z</time>
      </trkpt>
      <trkpt lat="49.36528" lon="0.08202">
        <ele>5.3</ele>
        <time>2020-06-17T13:32:02Z</time>
      </trkpt>
      <trkpt lat="49.36531" lon="0.08196">
        <ele>5.3</ele>
        <time>2020-06-17T13:32:03Z</time>
      </trkpt>
      <trkpt lat="49.36534" lon="0.08192">
        <ele>5.3</ele>
        <time>2020-06-17T13:32:04Z</time>
      </trkpt>
      <trkpt lat="49.36537" lon="0.08187">
        <ele>5.3</ele>
        <time>2020-06-17T13:32:05Z</time>
      </trkpt>
      <trkpt lat="49.3654" lon="0.08181">
        <ele>5.2</ele>
        <time>2020-06-17T13:32:06Z</time>
      </trkpt>
      <trkpt lat="49.36543" lon="0.08175">
        <ele>5.2</ele>
        <time>2020-06-17T13:32:07Z</time>
      </trkpt>
      <trkpt lat="49.36545" lon="0.08169">
        <ele>5.2</ele>
        <time>2020-06-17T13:32:08Z</time>
      </trkpt>
      <trkpt lat="49.36548" lon="0.08164">
        <ele>5.2</ele>
        <time>2020-06-17T13:32:09Z</time>
      </trkpt>
      <trkpt lat="49.3655" lon="0.08158">
        <ele>5.2</ele>
        <time>2020-06-17T13:32:10Z</time>
      </trkpt>
      <trkpt lat="49.36553" lon="0.08152">
        <ele>5.2</ele>
        <time>2020-06-17T13:32:11Z</time>
      </trkpt>
      <trkpt lat="49.36555" lon="0.08146">
        <ele>5.3</ele>
        <time>2020-06-17T13:32:12Z</time>
      </trkpt>
      <trkpt lat="49.36558" lon="0.08138">
        <ele>5.3</ele>
        <time>2020-06-17T13:32:13Z</time>
      </trkpt>
      <trkpt lat="49.36561" lon="0.08132">
        <ele>5.3</ele>
        <time>2020-06-17T13:32:14Z</time>
      </trkpt>
      <trkpt lat="49.36564" lon="0.08126">
        <ele>5.3</ele>
        <time>2020-06-17T13:32:15Z</time>
      </trkpt>
      <trkpt lat="49.36567" lon="0.0812">
        <ele>5.4</ele>
        <time>2020-06-17T13:32:16Z</time>
      </trkpt>
      <trkpt lat="49.36571" lon="0.08115">
        <ele>5.4</ele>
        <time>2020-06-17T13:32:17Z</time>
      </trkpt>
      <trkpt lat="49.36574" lon="0.0811">
        <ele>5.4</ele>
        <time>2020-06-17T13:32:18Z</time>
      </trkpt>
      <trkpt lat="49.36578" lon="0.08106">
        <ele>5.4</ele>
        <time>2020-06-17T13:32:19Z</time>
      </trkpt>
      <trkpt lat="49.36582" lon="0.08101">
        <ele>5.5</ele>
        <time>2020-06-17T13:32:20Z</time>
      </trkpt>
      <trkpt lat="49.36585" lon="0.08096">
        <ele>5.5</ele>
        <time>2020-06-17T13:32:21Z</time>
      </trkpt>
      <trkpt lat="49.36587" lon="0.08092">
        <ele>5.5</ele>
        <time>2020-06-17T13:32:22Z</time>
      </trkpt>
      <trkpt lat="49.36589" lon="0.08087">
        <ele>5.5</ele>
        <time>2020-06-17T13:32:23Z</time>
      </trkpt>
      <trkpt lat="49.36591" lon="0.08083">
        <ele>5.5</ele>
        <time>2020-06-17T13:32:24Z</time>
      </trkpt>
      <trkpt lat="49.36592" lon="0.08082">
        <ele>5.5</ele>
        <time>2020-06-17T13:32:25Z</time>
      </trkpt>
      <trkpt lat="49.36592" lon="0.08081">
        <ele>5.5</ele>
        <time>2020-06-17T13:32:26Z</time>
      </trkpt>
      <trkpt lat="49.36593" lon="0.0808">
        <ele>5.5</ele>
        <time>2020-06-17T13:32:27Z</time>
      </trkpt>
      <trkpt lat="49.36593" lon="0.08081">
        <ele>5.5</ele>
        <time>2020-06-17T13:32:28Z</time>
      </trkpt>
      <trkpt lat="49.36594" lon="0.0808">
        <ele>5.5</ele>
        <time>2020-06-17T13:32:29Z</time>
      </trkpt>
      <trkpt lat="49.36594" lon="0.08078">
        <ele>5.6</ele>
        <time>2020-06-17T13:32:30Z</time>
      </trkpt>
      <trkpt lat="49.36597" lon="0.08075">
        <ele>5.6</ele>
        <time>2020-06-17T13:32:31Z</time>
      </trkpt>
      <trkpt lat="49.36598" lon="0.08073">
        <ele>5.6</ele>
        <time>2020-06-17T13:32:32Z</time>
      </trkpt>
      <trkpt lat="49.366" lon="0.0807">
        <ele>5.6</ele>
        <time>2020-06-17T13:32:33Z</time>
      </trkpt>
      <trkpt lat="49.36601" lon="0.08065">
        <ele>5.6</ele>
        <time>2020-06-17T13:32:34Z</time>
      </trkpt>
      <trkpt lat="49.36603" lon="0.08062">
        <ele>5.6</ele>
        <time>2020-06-17T13:32:35Z</time>
      </trkpt>
      <trkpt lat="49.36606" lon="0.08059">
        <ele>5.6</ele>
        <time>2020-06-17T13:32:36Z</time>
      </trkpt>
      <trkpt lat="49.36608" lon="0.08056">
        <ele>5.6</ele>
        <time>2020-06-17T13:32:37Z</time>
      </trkpt>
      <trkpt lat="49.3661" lon="0.08052">
        <ele>5.5</ele>
        <time>2020-06-17T13:32:38Z</time>
      </trkpt>
      <trkpt lat="49.36613" lon="0.08049">
        <ele>5.5</ele>
        <time>2020-06-17T13:32:39Z</time>
      </trkpt>
      <trkpt lat="49.36614" lon="0.08045">
        <ele>5.5</ele>
        <time>2020-06-17T13:32:40Z</time>
      </trkpt>
      <trkpt lat="49.36616" lon="0.08042">
        <ele>5.5</ele>
        <time>2020-06-17T13:32:41Z</time>
      </trkpt>
      <trkpt lat="49.36618" lon="0.08036">
        <ele>5.6</ele>
        <time>2020-06-17T13:32:42Z</time>
      </trkpt>
      <trkpt lat="49.36619" lon="0.08031">
        <ele>5.6</ele>
        <time>2020-06-17T13:32:43Z</time>
      </trkpt>
      <trkpt lat="49.36621" lon="0.08027">
        <ele>5.6</ele>
        <time>2020-06-17T13:32:44Z</time>
      </trkpt>
      <trkpt lat="49.36623" lon="0.08022">
        <ele>5.7</ele>
        <time>2020-06-17T13:32:45Z</time>
      </trkpt>
      <trkpt lat="49.36626" lon="0.08019">
        <ele>5.7</ele>
        <time>2020-06-17T13:32:46Z</time>
      </trkpt>
      <trkpt lat="49.36629" lon="0.08016">
        <ele>5.8</ele>
        <time>2020-06-17T13:32:47Z</time>
      </trkpt>
      <trkpt lat="49.36632" lon="0.08014">
        <ele>5.8</ele>
        <time>2020-06-17T13:32:48Z</time>
      </trkpt>
      <trkpt lat="49.36634" lon="0.08012">
        <ele>5.9</ele>
        <time>2020-06-17T13:32:49Z</time>
      </trkpt>
      <trkpt lat="49.36637" lon="0.0801">
        <ele>5.9</ele>
        <time>2020-06-17T13:32:50Z</time>
      </trkpt>
      <trkpt lat="49.3664" lon="0.08009">
        <ele>6</ele>
        <time>2020-06-17T13:32:51Z</time>
      </trkpt>
      <trkpt lat="49.36642" lon="0.08008">
        <ele>6</ele>
        <time>2020-06-17T13:32:52Z</time>
      </trkpt>
      <trkpt lat="49.36645" lon="0.08008">
        <ele>6.1</ele>
        <time>2020-06-17T13:32:53Z</time>
      </trkpt>
      <trkpt lat="49.36647" lon="0.08007">
        <ele>6.2</ele>
        <time>2020-06-17T13:32:54Z</time>
      </trkpt>
      <trkpt lat="49.3665" lon="0.08002">
        <ele>6.3</ele>
        <time>2020-06-17T13:32:55Z</time>
      </trkpt>
      <trkpt lat="49.36651" lon="0.07999">
        <ele>6.4</ele>
        <time>2020-06-17T13:32:56Z</time>
      </trkpt>
      <trkpt lat="49.36652" lon="0.07997">
        <ele>6.5</ele>
        <time>2020-06-17T13:32:57Z</time>
      </trkpt>
      <trkpt lat="49.36653" lon="0.07991">
        <ele>6.5</ele>
        <time>2020-06-17T13:32:58Z</time>
      </trkpt>
      <trkpt lat="49.36654" lon="0.07986">
        <ele>6.5</ele>
        <time>2020-06-17T13:32:59Z</time>
      </trkpt>
      <trkpt lat="49.36656" lon="0.0798">
        <ele>6.5</ele>
        <time>2020-06-17T13:33:00Z</time>
      </trkpt>
      <trkpt lat="49.36657" lon="0.07975">
        <ele>6.5</ele>
        <time>2020-06-17T13:33:01Z</time>
      </trkpt>
      <trkpt lat="49.36659" lon="0.07969">
        <ele>6.5</ele>
        <time>2020-06-17T13:33:02Z</time>
      </trkpt>
      <trkpt lat="49.36661" lon="0.07965">
        <ele>6.5</ele>
        <time>2020-06-17T13:33:03Z</time>
      </trkpt>
      <trkpt lat="49.36662" lon="0.0796">
        <ele>6.5</ele>
        <time>2020-06-17T13:33:04Z</time>
      </trkpt>
      <trkpt lat="49.36663" lon="0.07955">
        <ele>6.5</ele>
        <time>2020-06-17T13:33:05Z</time>
      </trkpt>
      <trkpt lat="49.36663" lon="0.07949">
        <ele>6.5</ele>
        <time>2020-06-17T13:33:06Z</time>
      </trkpt>
      <trkpt lat="49.36663" lon="0.07944">
        <ele>6.5</ele>
        <time>2020-06-17T13:33:07Z</time>
      </trkpt>
      <trkpt lat="49.36664" lon="0.07938">
        <ele>6.5</ele>
        <time>2020-06-17T13:33:08Z</time>
      </trkpt>
      <trkpt lat="49.36665" lon="0.07933">
        <ele>6.5</ele>
        <time>2020-06-17T13:33:09Z</time>
      </trkpt>
      <trkpt lat="49.36665" lon="0.07928">
        <ele>6.5</ele>
        <time>2020-06-17T13:33:10Z</time>
      </trkpt>
      <trkpt lat="49.36666" lon="0.07922">
        <ele>6.5</ele>
        <time>2020-06-17T13:33:11Z</time>
      </trkpt>
      <trkpt lat="49.36667" lon="0.07915">
        <ele>6.5</ele>
        <time>2020-06-17T13:33:12Z</time>
      </trkpt>
      <trkpt lat="49.36668" lon="0.0791">
        <ele>6.5</ele>
        <time>2020-06-17T13:33:13Z</time>
      </trkpt>
      <trkpt lat="49.36669" lon="0.07904">
        <ele>6.5</ele>
        <time>2020-06-17T13:33:14Z</time>
      </trkpt>
      <trkpt lat="49.36669" lon="0.07899">
        <ele>6.5</ele>
        <time>2020-06-17T13:33:15Z</time>
      </trkpt>
      <trkpt lat="49.3667" lon="0.07894">
        <ele>6.6</ele>
        <time>2020-06-17T13:33:16Z</time>
      </trkpt>
      <trkpt lat="49.3667" lon="0.07889">
        <ele>6.6</ele>
        <time>2020-06-17T13:33:17Z</time>
      </trkpt>
      <trkpt lat="49.3667" lon="0.07883">
        <ele>6.6</ele>
        <time>2020-06-17T13:33:18Z</time>
      </trkpt>
      <trkpt lat="49.36671" lon="0.07878">
        <ele>6.6</ele>
        <time>2020-06-17T13:33:19Z</time>
      </trkpt>
      <trkpt lat="49.36672" lon="0.07873">
        <ele>6.6</ele>
        <time>2020-06-17T13:33:20Z</time>
      </trkpt>
      <trkpt lat="49.36672" lon="0.07869">
        <ele>6.5</ele>
        <time>2020-06-17T13:33:21Z</time>
      </trkpt>
      <trkpt lat="49.36672" lon="0.07865">
        <ele>6.5</ele>
        <time>2020-06-17T13:33:22Z</time>
      </trkpt>
      <trkpt lat="49.36673" lon="0.0786">
        <ele>6.5</ele>
        <time>2020-06-17T13:33:23Z</time>
      </trkpt>
      <trkpt lat="49.36673" lon="0.07854">
        <ele>6.5</ele>
        <time>2020-06-17T13:33:24Z</time>
      </trkpt>
      <trkpt lat="49.36672" lon="0.07851">
        <ele>6.5</ele>
        <time>2020-06-17T13:33:25Z</time>
      </trkpt>
      <trkpt lat="49.36673" lon="0.07845">
        <ele>6.4</ele>
        <time>2020-06-17T13:33:26Z</time>
      </trkpt>
      <trkpt lat="49.36673" lon="0.07838">
        <ele>6.4</ele>
        <time>2020-06-17T13:33:27Z</time>
      </trkpt>
      <trkpt lat="49.36673" lon="0.07832">
        <ele>6.4</ele>
        <time>2020-06-17T13:33:28Z</time>
      </trkpt>
      <trkpt lat="49.36674" lon="0.07826">
        <ele>6.3</ele>
        <time>2020-06-17T13:33:29Z</time>
      </trkpt>
      <trkpt lat="49.36674" lon="0.07815">
        <ele>6.3</ele>
        <time>2020-06-17T13:33:30Z</time>
      </trkpt>
      <trkpt lat="49.36674" lon="0.07808">
        <ele>6.3</ele>
        <time>2020-06-17T13:33:31Z</time>
      </trkpt>
      <trkpt lat="49.36676" lon="0.07803">
        <ele>6</ele>
        <time>2020-06-17T13:33:32Z</time>
      </trkpt>
      <trkpt lat="49.36677" lon="0.07797">
        <ele>5.9</ele>
        <time>2020-06-17T13:33:33Z</time>
      </trkpt>
      <trkpt lat="49.36678" lon="0.07792">
        <ele>5.8</ele>
        <time>2020-06-17T13:33:34Z</time>
      </trkpt>
      <trkpt lat="49.3668" lon="0.07785">
        <ele>5.7</ele>
        <time>2020-06-17T13:33:35Z</time>
      </trkpt>
      <trkpt lat="49.3668" lon="0.07783">
        <ele>5.7</ele>
        <time>2020-06-17T13:33:36Z</time>
      </trkpt>
      <trkpt lat="49.36682" lon="0.07779">
        <ele>5.6</ele>
        <time>2020-06-17T13:33:37Z</time>
      </trkpt>
      <trkpt lat="49.36686" lon="0.07777">
        <ele>5.5</ele>
        <time>2020-06-17T13:33:38Z</time>
      </trkpt>
      <trkpt lat="49.36687" lon="0.07776">
        <ele>5.5</ele>
        <time>2020-06-17T13:33:39Z</time>
      </trkpt>
      <trkpt lat="49.36688" lon="0.07775">
        <ele>5.5</ele>
        <time>2020-06-17T13:33:40Z</time>
      </trkpt>
      <trkpt lat="49.3669" lon="0.07774">
        <ele>5.4</ele>
        <time>2020-06-17T13:33:41Z</time>
      </trkpt>
      <trkpt lat="49.36691" lon="0.07774">
        <ele>5.4</ele>
        <time>2020-06-17T13:33:42Z</time>
      </trkpt>
      <trkpt lat="49.36692" lon="0.07775">
        <ele>5.4</ele>
        <time>2020-06-17T13:33:43Z</time>
      </trkpt>
      <trkpt lat="49.36693" lon="0.07776">
        <ele>5.4</ele>
        <time>2020-06-17T13:33:44Z</time>
      </trkpt>
      <trkpt lat="49.36694" lon="0.07776">
        <ele>5.4</ele>
        <time>2020-06-17T13:33:45Z</time>
      </trkpt>
      <trkpt lat="49.36695" lon="0.07777">
        <ele>5.4</ele>
        <time>2020-06-17T13:33:46Z</time>
      </trkpt>
      <trkpt lat="49.36696" lon="0.07779">
        <ele>5.4</ele>
        <time>2020-06-17T13:33:47Z</time>
      </trkpt>
      <trkpt lat="49.36697" lon="0.0778">
        <ele>5.4</ele>
        <time>2020-06-17T13:33:48Z</time>
      </trkpt>
      <trkpt lat="49.36699" lon="0.07782">
        <ele>5.4</ele>
        <time>2020-06-17T13:33:49Z</time>
      </trkpt>
      <trkpt lat="49.36701" lon="0.07786">
        <ele>5.3</ele>
        <time>2020-06-17T13:33:50Z</time>
      </trkpt>
      <trkpt lat="49.36702" lon="0.07787">
        <ele>5.3</ele>
        <time>2020-06-17T13:33:51Z</time>
      </trkpt>
      <trkpt lat="49.36704" lon="0.07791">
        <ele>5.3</ele>
        <time>2020-06-17T13:33:52Z</time>
      </trkpt>
      <trkpt lat="49.36705" lon="0.07792">
        <ele>5.3</ele>
        <time>2020-06-17T13:33:53Z</time>
      </trkpt>
      <trkpt lat="49.36707" lon="0.07795">
        <ele>5.3</ele>
        <time>2020-06-17T13:33:54Z</time>
      </trkpt>
      <trkpt lat="49.36708" lon="0.07796">
        <ele>5.3</ele>
        <time>2020-06-17T13:33:55Z</time>
      </trkpt>
      <trkpt lat="49.36711" lon="0.07799">
        <ele>5.3</ele>
        <time>2020-06-17T13:33:56Z</time>
      </trkpt>
      <trkpt lat="49.36713" lon="0.078">
        <ele>5.3</ele>
        <time>2020-06-17T13:33:57Z</time>
      </trkpt>
      <trkpt lat="49.36716" lon="0.07804">
        <ele>5.3</ele>
        <time>2020-06-17T13:33:58Z</time>
      </trkpt>
      <trkpt lat="49.36717" lon="0.07805">
        <ele>5.3</ele>
        <time>2020-06-17T13:33:59Z</time>
      </trkpt>
      <trkpt lat="49.36719" lon="0.07808">
        <ele>5.3</ele>
        <time>2020-06-17T13:34:00Z</time>
      </trkpt>
      <trkpt lat="49.36722" lon="0.07811">
        <ele>5.3</ele>
        <time>2020-06-17T13:34:01Z</time>
      </trkpt>
      <trkpt lat="49.36723" lon="0.07812">
        <ele>5.3</ele>
        <time>2020-06-17T13:34:02Z</time>
      </trkpt>
      <trkpt lat="49.36727" lon="0.07814">
        <ele>5.3</ele>
        <time>2020-06-17T13:34:03Z</time>
      </trkpt>
      <trkpt lat="49.36727" lon="0.07814">
        <ele>5.3</ele>
        <time>2020-06-17T13:34:04Z</time>
      </trkpt>
      <trkpt lat="49.36729" lon="0.07816">
        <ele>5.3</ele>
        <time>2020-06-17T13:34:05Z</time>
      </trkpt>
      <trkpt lat="49.3673" lon="0.07817">
        <ele>5.3</ele>
        <time>2020-06-17T13:34:06Z</time>
      </trkpt>
      <trkpt lat="49.36732" lon="0.07818">
        <ele>5.3</ele>
        <time>2020-06-17T13:34:07Z</time>
      </trkpt>
      <trkpt lat="49.36733" lon="0.0782">
        <ele>5.3</ele>
        <time>2020-06-17T13:34:08Z</time>
      </trkpt>
      <trkpt lat="49.36736" lon="0.07822">
        <ele>5.3</ele>
        <time>2020-06-17T13:34:09Z</time>
      </trkpt>
      <trkpt lat="49.36737" lon="0.07823">
        <ele>5.3</ele>
        <time>2020-06-17T13:34:10Z</time>
      </trkpt>
      <trkpt lat="49.3674" lon="0.07826">
        <ele>5.3</ele>
        <time>2020-06-17T13:34:11Z</time>
      </trkpt>
      <trkpt lat="49.36741" lon="0.07828">
        <ele>5.3</ele>
        <time>2020-06-17T13:34:12Z</time>
      </trkpt>
      <trkpt lat="49.36744" lon="0.0783">
        <ele>5.3</ele>
        <time>2020-06-17T13:34:13Z</time>
      </trkpt>
      <trkpt lat="49.36744" lon="0.07831">
        <ele>5.3</ele>
        <time>2020-06-17T13:34:14Z</time>
      </trkpt>
      <trkpt lat="49.36747" lon="0.07834">
        <ele>5.3</ele>
        <time>2020-06-17T13:34:15Z</time>
      </trkpt>
      <trkpt lat="49.36748" lon="0.07835">
        <ele>5.3</ele>
        <time>2020-06-17T13:34:16Z</time>
      </trkpt>
      <trkpt lat="49.36751" lon="0.07837">
        <ele>5.3</ele>
        <time>2020-06-17T13:34:17Z</time>
      </trkpt>
      <trkpt lat="49.36752" lon="0.07838">
        <ele>5.3</ele>
        <time>2020-06-17T13:34:18Z</time>
      </trkpt>
      <trkpt lat="49.36755" lon="0.07841">
        <ele>5.3</ele>
        <time>2020-06-17T13:34:19Z</time>
      </trkpt>
      <trkpt lat="49.36756" lon="0.07842">
        <ele>5.3</ele>
        <time>2020-06-17T13:34:20Z</time>
      </trkpt>
      <trkpt lat="49.36758" lon="0.07844">
        <ele>5.3</ele>
        <time>2020-06-17T13:34:21Z</time>
      </trkpt>
      <trkpt lat="49.36759" lon="0.07845">
        <ele>5.3</ele>
        <time>2020-06-17T13:34:22Z</time>
      </trkpt>
      <trkpt lat="49.3676" lon="0.07847">
        <ele>5.3</ele>
        <time>2020-06-17T13:34:23Z</time>
      </trkpt>
      <trkpt lat="49.36762" lon="0.07848">
        <ele>5.3</ele>
        <time>2020-06-17T13:34:24Z</time>
      </trkpt>
      <trkpt lat="49.36765" lon="0.07851">
        <ele>5.4</ele>
        <time>2020-06-17T13:34:25Z</time>
      </trkpt>
      <trkpt lat="49.36767" lon="0.07854">
        <ele>5.4</ele>
        <time>2020-06-17T13:34:26Z</time>
      </trkpt>
      <trkpt lat="49.36769" lon="0.07857">
        <ele>5.4</ele>
        <time>2020-06-17T13:34:27Z</time>
      </trkpt>
      <trkpt lat="49.36772" lon="0.0786">
        <ele>5.4</ele>
        <time>2020-06-17T13:34:28Z</time>
      </trkpt>
      <trkpt lat="49.36774" lon="0.07863">
        <ele>5.5</ele>
        <time>2020-06-17T13:34:29Z</time>
      </trkpt>
      <trkpt lat="49.36776" lon="0.07866">
        <ele>5.5</ele>
        <time>2020-06-17T13:34:30Z</time>
      </trkpt>
      <trkpt lat="49.36779" lon="0.07868">
        <ele>5.5</ele>
        <time>2020-06-17T13:34:31Z</time>
      </trkpt>
      <trkpt lat="49.36781" lon="0.07871">
        <ele>5.5</ele>
        <time>2020-06-17T13:34:32Z</time>
      </trkpt>
      <trkpt lat="49.36784" lon="0.07874">
        <ele>5.5</ele>
        <time>2020-06-17T13:34:33Z</time>
      </trkpt>
      <trkpt lat="49.36787" lon="0.07878">
        <ele>5.6</ele>
        <time>2020-06-17T13:34:34Z</time>
      </trkpt>
      <trkpt lat="49.36788" lon="0.07879">
        <ele>5.6</ele>
        <time>2020-06-17T13:34:35Z</time>
      </trkpt>
      <trkpt lat="49.36791" lon="0.07881">
        <ele>5.6</ele>
        <time>2020-06-17T13:34:36Z</time>
      </trkpt>
      <trkpt lat="49.36794" lon="0.07883">
        <ele>5.6</ele>
        <time>2020-06-17T13:34:37Z</time>
      </trkpt>
      <trkpt lat="49.36797" lon="0.07885">
        <ele>5.6</ele>
        <time>2020-06-17T13:34:38Z</time>
      </trkpt>
      <trkpt lat="49.36799" lon="0.07887">
        <ele>5.6</ele>
        <time>2020-06-17T13:34:39Z</time>
      </trkpt>
      <trkpt lat="49.36803" lon="0.0789">
        <ele>5.6</ele>
        <time>2020-06-17T13:34:40Z</time>
      </trkpt>
      <trkpt lat="49.36804" lon="0.07891">
        <ele>5.6</ele>
        <time>2020-06-17T13:34:41Z</time>
      </trkpt>
      <trkpt lat="49.36807" lon="0.07896">
        <ele>5.6</ele>
        <time>2020-06-17T13:34:42Z</time>
      </trkpt>
      <trkpt lat="49.36809" lon="0.07898">
        <ele>5.6</ele>
        <time>2020-06-17T13:34:43Z</time>
      </trkpt>
      <trkpt lat="49.36812" lon="0.07902">
        <ele>5.6</ele>
        <time>2020-06-17T13:34:44Z</time>
      </trkpt>
      <trkpt lat="49.36815" lon="0.07904">
        <ele>5.6</ele>
        <time>2020-06-17T13:34:45Z</time>
      </trkpt>
      <trkpt lat="49.36817" lon="0.07908">
        <ele>5.6</ele>
        <time>2020-06-17T13:34:46Z</time>
      </trkpt>
      <trkpt lat="49.36821" lon="0.07912">
        <ele>5.7</ele>
        <time>2020-06-17T13:34:47Z</time>
      </trkpt>
      <trkpt lat="49.36823" lon="0.07916">
        <ele>5.7</ele>
        <time>2020-06-17T13:34:48Z</time>
      </trkpt>
      <trkpt lat="49.36827" lon="0.07919">
        <ele>5.7</ele>
        <time>2020-06-17T13:34:49Z</time>
      </trkpt>
      <trkpt lat="49.36831" lon="0.07921">
        <ele>5.7</ele>
        <time>2020-06-17T13:34:50Z</time>
      </trkpt>
      <trkpt lat="49.36833" lon="0.07924">
        <ele>5.7</ele>
        <time>2020-06-17T13:34:51Z</time>
      </trkpt>
      <trkpt lat="49.36837" lon="0.07928">
        <ele>5.7</ele>
        <time>2020-06-17T13:34:52Z</time>
      </trkpt>
      <trkpt lat="49.36838" lon="0.0793">
        <ele>5.7</ele>
        <time>2020-06-17T13:34:53Z</time>
      </trkpt>
      <trkpt lat="49.36841" lon="0.07932">
        <ele>5.7</ele>
        <time>2020-06-17T13:34:54Z</time>
      </trkpt>
      <trkpt lat="49.36844" lon="0.07935">
        <ele>5.7</ele>
        <time>2020-06-17T13:34:55Z</time>
      </trkpt>
      <trkpt lat="49.36847" lon="0.07938">
        <ele>5.7</ele>
        <time>2020-06-17T13:34:56Z</time>
      </trkpt>
      <trkpt lat="49.36847" lon="0.07939">
        <ele>5.7</ele>
        <time>2020-06-17T13:34:57Z</time>
      </trkpt>
      <trkpt lat="49.36848" lon="0.0794">
        <ele>5.7</ele>
        <time>2020-06-17T13:34:58Z</time>
      </trkpt>
      <trkpt lat="49.36849" lon="0.07942">
        <ele>5.7</ele>
        <time>2020-06-17T13:34:59Z</time>
      </trkpt>
      <trkpt lat="49.36849" lon="0.07943">
        <ele>5.7</ele>
        <time>2020-06-17T13:35:00Z</time>
      </trkpt>
      <trkpt lat="49.36849" lon="0.07944">
        <ele>5.7</ele>
        <time>2020-06-17T13:35:01Z</time>
      </trkpt>
      <trkpt lat="49.36848" lon="0.07945">
        <ele>5.7</ele>
        <time>2020-06-17T13:35:02Z</time>
      </trkpt>
      <trkpt lat="49.36847" lon="0.07945">
        <ele>5.7</ele>
        <time>2020-06-17T13:35:03Z</time>
      </trkpt>
      <trkpt lat="49.36847" lon="0.07945">
        <ele>5.7</ele>
        <time>2020-06-17T13:35:04Z</time>
      </trkpt>
      <trkpt lat="49.36847" lon="0.07946">
        <ele>5.7</ele>
        <time>2020-06-17T13:35:05Z</time>
      </trkpt>
      <trkpt lat="49.36846" lon="0.07947">
        <ele>5.7</ele>
        <time>2020-06-17T13:35:06Z</time>
      </trkpt>
      <trkpt lat="49.36847" lon="0.07948">
        <ele>5.7</ele>
        <time>2020-06-17T13:35:07Z</time>
      </trkpt>
      <trkpt lat="49.36847" lon="0.07948">
        <ele>5.7</ele>
        <time>2020-06-17T13:35:08Z</time>
      </trkpt>
      <trkpt lat="49.36847" lon="0.07949">
        <ele>5.7</ele>
        <time>2020-06-17T13:35:09Z</time>
      </trkpt>
      <trkpt lat="49.36847" lon="0.0795">
        <ele>5.7</ele>
        <time>2020-06-17T13:35:10Z</time>
      </trkpt>
      <trkpt lat="49.36847" lon="0.0795">
        <ele>5.7</ele>
        <time>2020-06-17T13:35:11Z</time>
      </trkpt>
      <trkpt lat="49.36847" lon="0.0795">
        <ele>5.7</ele>
        <time>2020-06-17T13:35:12Z</time>
      </trkpt>
      <trkpt lat="49.36847" lon="0.0795">
        <ele>5.7</ele>
        <time>2020-06-17T13:35:13Z</time>
      </trkpt>
      <trkpt lat="49.36847" lon="0.0795">
        <ele>5.7</ele>
        <time>2020-06-17T13:35:14Z</time>
      </trkpt>
      <trkpt lat="49.36847" lon="0.0795">
        <ele>5.7</ele>
        <time>2020-06-17T13:35:15Z</time>
      </trkpt>
      <trkpt lat="49.36847" lon="0.07951">
        <ele>5.7</ele>
        <time>2020-06-17T13:35:16Z</time>
      </trkpt>
      <trkpt lat="49.36847" lon="0.07952">
        <ele>5.7</ele>
        <time>2020-06-17T13:35:17Z</time>
      </trkpt>
      <trkpt lat="49.36847" lon="0.07952">
        <ele>5.7</ele>
        <time>2020-06-17T13:35:18Z</time>
      </trkpt>
      <trkpt lat="49.36847" lon="0.07951">
        <ele>5.7</ele>
        <time>2020-06-17T13:35:19Z</time>
      </trkpt>
      <trkpt lat="49.36847" lon="0.0795">
        <ele>5.7</ele>
        <time>2020-06-17T13:35:20Z</time>
      </trkpt>
      <trkpt lat="49.36846" lon="0.07949">
        <ele>5.7</ele>
        <time>2020-06-17T13:35:21Z</time>
      </trkpt>
      <trkpt lat="49.36846" lon="0.07949">
        <ele>5.7</ele>
        <time>2020-06-17T13:35:22Z</time>
      </trkpt>
      <trkpt lat="49.36846" lon="0.07948">
        <ele>5.7</ele>
        <time>2020-06-17T13:35:23Z</time>
      </trkpt>
      <trkpt lat="49.36846" lon="0.07947">
        <ele>5.7</ele>
        <time>2020-06-17T13:35:24Z</time>
      </trkpt>
      <trkpt lat="49.36845" lon="0.07946">
        <ele>5.7</ele>
        <time>2020-06-17T13:35:25Z</time>
      </trkpt>
      <trkpt lat="49.36846" lon="0.07945">
        <ele>5.7</ele>
        <time>2020-06-17T13:35:26Z</time>
      </trkpt>
      <trkpt lat="49.36847" lon="0.07944">
        <ele>5.7</ele>
        <time>2020-06-17T13:35:27Z</time>
      </trkpt>
      <trkpt lat="49.36847" lon="0.07944">
        <ele>5.7</ele>
        <time>2020-06-17T13:35:28Z</time>
      </trkpt>
      <trkpt lat="49.36848" lon="0.07944">
        <ele>5.7</ele>
        <time>2020-06-17T13:35:29Z</time>
      </trkpt>
      <trkpt lat="49.36849" lon="0.07943">
        <ele>5.7</ele>
        <time>2020-06-17T13:35:30Z</time>
      </trkpt>
      <trkpt lat="49.36849" lon="0.07943">
        <ele>5.7</ele>
        <time>2020-06-17T13:35:31Z</time>
      </trkpt>
      <trkpt lat="49.3685" lon="0.07943">
        <ele>5.7</ele>
        <time>2020-06-17T13:35:50Z</time>
      </trkpt>
      <trkpt lat="49.36851" lon="0.07943">
        <ele>5.7</ele>
        <time>2020-06-17T13:35:51Z</time>
      </trkpt>
      <trkpt lat="49.36852" lon="0.07942">
        <ele>5.7</ele>
        <time>2020-06-17T13:35:52Z</time>
      </trkpt>
      <trkpt lat="49.36853" lon="0.07943">
        <ele>5.7</ele>
        <time>2020-06-17T13:35:53Z</time>
      </trkpt>
      <trkpt lat="49.36854" lon="0.07944">
        <ele>5.7</ele>
        <time>2020-06-17T13:35:54Z</time>
      </trkpt>
      <trkpt lat="49.36855" lon="0.07945">
        <ele>5.7</ele>
        <time>2020-06-17T13:35:55Z</time>
      </trkpt>
      <trkpt lat="49.36856" lon="0.07945">
        <ele>5.7</ele>
        <time>2020-06-17T13:35:56Z</time>
      </trkpt>
      <trkpt lat="49.36859" lon="0.07945">
        <ele>5.7</ele>
        <time>2020-06-17T13:35:57Z</time>
      </trkpt>
      <trkpt lat="49.36859" lon="0.07944">
        <ele>5.7</ele>
        <time>2020-06-17T13:35:58Z</time>
      </trkpt>
      <trkpt lat="49.36861" lon="0.07941">
        <ele>5.7</ele>
        <time>2020-06-17T13:35:59Z</time>
      </trkpt>
      <trkpt lat="49.36861" lon="0.07939">
        <ele>5.7</ele>
        <time>2020-06-17T13:36:00Z</time>
      </trkpt>
      <trkpt lat="49.36862" lon="0.07936">
        <ele>5.7</ele>
        <time>2020-06-17T13:36:01Z</time>
      </trkpt>
      <trkpt lat="49.36862" lon="0.07935">
        <ele>5.7</ele>
        <time>2020-06-17T13:36:02Z</time>
      </trkpt>
      <trkpt lat="49.36863" lon="0.07934">
        <ele>5.7</ele>
        <time>2020-06-17T13:36:03Z</time>
      </trkpt>
      <trkpt lat="49.36864" lon="0.07931">
        <ele>5.7</ele>
        <time>2020-06-17T13:36:04Z</time>
      </trkpt>
      <trkpt lat="49.36865" lon="0.07929">
        <ele>5.7</ele>
        <time>2020-06-17T13:36:05Z</time>
      </trkpt>
      <trkpt lat="49.36866" lon="0.07928">
        <ele>5.7</ele>
        <time>2020-06-17T13:36:06Z</time>
      </trkpt>
      <trkpt lat="49.36867" lon="0.07926">
        <ele>5.7</ele>
        <time>2020-06-17T13:36:07Z</time>
      </trkpt>
      <trkpt lat="49.36868" lon="0.07925">
        <ele>5.7</ele>
        <time>2020-06-17T13:36:08Z</time>
      </trkpt>
      <trkpt lat="49.36869" lon="0.07924">
        <ele>5.7</ele>
        <time>2020-06-17T13:36:09Z</time>
      </trkpt>
      <trkpt lat="49.36869" lon="0.07925">
        <ele>5.7</ele>
        <time>2020-06-17T13:36:10Z</time>
      </trkpt>
      <trkpt lat="49.3687" lon="0.07925">
        <ele>5.7</ele>
        <time>2020-06-17T13:36:11Z</time>
      </trkpt>
      <trkpt lat="49.36871" lon="0.07926">
        <ele>5.7</ele>
        <time>2020-06-17T13:36:12Z</time>
      </trkpt>
      <trkpt lat="49.36872" lon="0.07926">
        <ele>5.7</ele>
        <time>2020-06-17T13:36:13Z</time>
      </trkpt>
      <trkpt lat="49.36872" lon="0.07927">
        <ele>5.7</ele>
        <time>2020-06-17T13:36:14Z</time>
      </trkpt>
      <trkpt lat="49.36872" lon="0.07927">
        <ele>5.7</ele>
        <time>2020-06-17T13:36:15Z</time>
      </trkpt>
      <trkpt lat="49.36872" lon="0.07926">
        <ele>5.7</ele>
        <time>2020-06-17T13:36:16Z</time>
      </trkpt>
      <trkpt lat="49.36873" lon="0.07927">
        <ele>5.7</ele>
        <time>2020-06-17T13:36:17Z</time>
      </trkpt>
      <trkpt lat="49.36873" lon="0.07927">
        <ele>5.7</ele>
        <time>2020-06-17T13:36:18Z</time>
      </trkpt>
      <trkpt lat="49.36874" lon="0.07927">
        <ele>5.7</ele>
        <time>2020-06-17T13:36:19Z</time>
      </trkpt>
      <trkpt lat="49.36874" lon="0.07926">
        <ele>5.7</ele>
        <time>2020-06-17T13:36:20Z</time>
      </trkpt>
      <trkpt lat="49.36874" lon="0.07926">
        <ele>5.7</ele>
        <time>2020-06-17T13:36:21Z</time>
      </trkpt>
      <trkpt lat="49.36875" lon="0.07926">
        <ele>5.7</ele>
        <time>2020-06-17T13:36:22Z</time>
      </trkpt>
      <trkpt lat="49.36875" lon="0.07926">
        <ele>5.7</ele>
        <time>2020-06-17T13:36:23Z</time>
      </trkpt>
      <trkpt lat="49.36875" lon="0.07927">
        <ele>5.7</ele>
        <time>2020-06-17T13:36:24Z</time>
      </trkpt>
      <trkpt lat="49.36875" lon="0.07927">
        <ele>5.7</ele>
        <time>2020-06-17T13:36:25Z</time>
      </trkpt>
      <trkpt lat="49.36878" lon="0.07926">
        <ele>5.7</ele>
        <time>2020-06-17T13:37:53Z</time>
      </trkpt>
      <trkpt lat="49.36878" lon="0.07924">
        <ele>5.7</ele>
        <time>2020-06-17T13:37:54Z</time>
      </trkpt>
      <trkpt lat="49.36879" lon="0.07922">
        <ele>5.7</ele>
        <time>2020-06-17T13:37:55Z</time>
      </trkpt>
      <trkpt lat="49.36879" lon="0.07921">
        <ele>5.7</ele>
        <time>2020-06-17T13:37:56Z</time>
      </trkpt>
      <trkpt lat="49.36879" lon="0.0792">
        <ele>5.7</ele>
        <time>2020-06-17T13:37:57Z</time>
      </trkpt>
      <trkpt lat="49.36879" lon="0.07919">
        <ele>5.7</ele>
        <time>2020-06-17T13:37:58Z</time>
      </trkpt>
      <trkpt lat="49.36879" lon="0.07918">
        <ele>5.7</ele>
        <time>2020-06-17T13:37:59Z</time>
      </trkpt>
      <trkpt lat="49.36879" lon="0.07918">
        <ele>5.7</ele>
        <time>2020-06-17T13:38:00Z</time>
      </trkpt>
      <trkpt lat="49.36879" lon="0.07917">
        <ele>5.7</ele>
        <time>2020-06-17T13:38:01Z</time>
      </trkpt>
      <trkpt lat="49.36879" lon="0.07916">
        <ele>5.7</ele>
        <time>2020-06-17T13:38:02Z</time>
      </trkpt>
      <trkpt lat="49.36879" lon="0.07916">
        <ele>5.7</ele>
        <time>2020-06-17T13:38:03Z</time>
      </trkpt>
      <trkpt lat="49.36879" lon="0.07915">
        <ele>5.7</ele>
        <time>2020-06-17T13:38:04Z</time>
      </trkpt>
      <trkpt lat="49.36879" lon="0.07915">
        <ele>5.7</ele>
        <time>2020-06-17T13:38:05Z</time>
      </trkpt>
      <trkpt lat="49.36879" lon="0.07915">
        <ele>5.7</ele>
        <time>2020-06-17T13:38:06Z</time>
      </trkpt>
      <trkpt lat="49.36879" lon="0.07915">
        <ele>5.7</ele>
        <time>2020-06-17T13:38:07Z</time>
      </trkpt>
      <trkpt lat="49.36879" lon="0.07915">
        <ele>5.7</ele>
        <time>2020-06-17T13:38:08Z</time>
      </trkpt>
      <trkpt lat="49.36879" lon="0.07915">
        <ele>5.7</ele>
        <time>2020-06-17T13:38:09Z</time>
      </trkpt>
      <trkpt lat="49.36879" lon="0.07915">
        <ele>5.7</ele>
        <time>2020-06-17T13:38:10Z</time>
      </trkpt>
      <trkpt lat="49.36879" lon="0.07915">
        <ele>5.7</ele>
        <time>2020-06-17T13:38:11Z</time>
      </trkpt>
      <trkpt lat="49.36879" lon="0.07915">
        <ele>5.7</ele>
        <time>2020-06-17T13:38:12Z</time>
      </trkpt>
      <trkpt lat="49.36879" lon="0.07915">
        <ele>5.7</ele>
        <time>2020-06-17T13:38:13Z</time>
      </trkpt>
      <trkpt lat="49.36879" lon="0.07915">
        <ele>5.7</ele>
        <time>2020-06-17T13:38:14Z</time>
      </trkpt>
      <trkpt lat="49.3688" lon="0.07915">
        <ele>5.7</ele>
        <time>2020-06-17T13:38:15Z</time>
      </trkpt>
      <trkpt lat="49.3688" lon="0.07925">
        <ele>5.7</ele>
        <time>2020-06-17T13:51:12Z</time>
      </trkpt>
      <trkpt lat="49.3688" lon="0.07925">
        <ele>5.7</ele>
        <time>2020-06-17T13:51:13Z</time>
      </trkpt>
      <trkpt lat="49.3688" lon="0.07925">
        <ele>5.7</ele>
        <time>2020-06-17T13:51:14Z</time>
      </trkpt>
      <trkpt lat="49.3688" lon="0.07925">
        <ele>5.7</ele>
        <time>2020-06-17T13:51:15Z</time>
      </trkpt>
      <trkpt lat="49.3688" lon="0.07925">
        <ele>5.7</ele>
        <time>2020-06-17T13:51:16Z</time>
      </trkpt>
      <trkpt lat="49.3688" lon="0.07925">
        <ele>5.7</ele>
        <time>2020-06-17T13:51:17Z</time>
      </trkpt>
      <trkpt lat="49.3688" lon="0.07925">
        <ele>5.7</ele>
        <time>2020-06-17T13:51:18Z</time>
      </trkpt>
      <trkpt lat="49.3688" lon="0.07925">
        <ele>5.7</ele>
        <time>2020-06-17T13:51:19Z</time>
      </trkpt>
      <trkpt lat="49.3688" lon="0.07925">
        <ele>5.7</ele>
        <time>2020-06-17T13:51:20Z</time>
      </trkpt>
      <trkpt lat="49.3688" lon="0.07925">
        <ele>5.7</ele>
        <time>2020-06-17T13:51:21Z</time>
      </trkpt>
      <trkpt lat="49.3688" lon="0.07925">
        <ele>5.7</ele>
        <time>2020-06-17T13:51:22Z</time>
      </trkpt>
      <trkpt lat="49.3688" lon="0.07925">
        <ele>5.7</ele>
        <time>2020-06-17T13:51:23Z</time>
      </trkpt>
      <trkpt lat="49.36879" lon="0.07923">
        <ele>5.7</ele>
        <time>2020-06-17T14:15:17Z</time>
      </trkpt>
      <trkpt lat="49.3688" lon="0.07923">
        <ele>5.7</ele>
        <time>2020-06-17T14:15:18Z</time>
      </trkpt>
      <trkpt lat="49.36881" lon="0.07922">
        <ele>5.7</ele>
        <time>2020-06-17T14:15:19Z</time>
      </trkpt>
      <trkpt lat="49.36881" lon="0.07922">
        <ele>5.7</ele>
        <time>2020-06-17T14:15:20Z</time>
      </trkpt>
      <trkpt lat="49.36881" lon="0.07922">
        <ele>5.7</ele>
        <time>2020-06-17T14:15:21Z</time>
      </trkpt>
      <trkpt lat="49.36881" lon="0.07923">
        <ele>5.7</ele>
        <time>2020-06-17T14:15:22Z</time>
      </trkpt>
      <trkpt lat="49.36881" lon="0.07923">
        <ele>5.7</ele>
        <time>2020-06-17T14:15:23Z</time>
      </trkpt>
      <trkpt lat="49.3688" lon="0.07924">
        <ele>5.7</ele>
        <time>2020-06-17T14:15:24Z</time>
      </trkpt>
      <trkpt lat="49.3688" lon="0.07924">
        <ele>5.7</ele>
        <time>2020-06-17T14:15:25Z</time>
      </trkpt>
      <trkpt lat="49.3688" lon="0.07925">
        <ele>5.7</ele>
        <time>2020-06-17T14:15:26Z</time>
      </trkpt>
      <trkpt lat="49.3688" lon="0.07925">
        <ele>5.7</ele>
        <time>2020-06-17T14:15:27Z</time>
      </trkpt>
      <trkpt lat="49.36879" lon="0.07926">
        <ele>5.7</ele>
        <time>2020-06-17T14:15:28Z</time>
      </trkpt>
      <trkpt lat="49.36879" lon="0.07927">
        <ele>5.7</ele>
        <time>2020-06-17T14:15:29Z</time>
      </trkpt>
      <trkpt lat="49.36879" lon="0.07927">
        <ele>5.7</ele>
        <time>2020-06-17T14:15:30Z</time>
      </trkpt>
      <trkpt lat="49.36878" lon="0.07928">
        <ele>5.7</ele>
        <time>2020-06-17T14:15:31Z</time>
      </trkpt>
      <trkpt lat="49.36877" lon="0.07928">
        <ele>5.7</ele>
        <time>2020-06-17T14:15:32Z</time>
      </trkpt>
      <trkpt lat="49.36873" lon="0.07926">
        <ele>5.7</ele>
        <time>2020-06-17T14:16:04Z</time>
      </trkpt>
      <trkpt lat="49.36872" lon="0.07925">
        <ele>5.7</ele>
        <time>2020-06-17T14:16:05Z</time>
      </trkpt>
      <trkpt lat="49.36872" lon="0.07924">
        <ele>5.7</ele>
        <time>2020-06-17T14:16:06Z</time>
      </trkpt>
      <trkpt lat="49.36871" lon="0.07923">
        <ele>5.7</ele>
        <time>2020-06-17T14:16:07Z</time>
      </trkpt>
      <trkpt lat="49.36871" lon="0.07922">
        <ele>5.7</ele>
        <time>2020-06-17T14:16:08Z</time>
      </trkpt>
      <trkpt lat="49.3687" lon="0.07921">
        <ele>5.7</ele>
        <time>2020-06-17T14:16:09Z</time>
      </trkpt>
      <trkpt lat="49.36869" lon="0.07919">
        <ele>5.7</ele>
        <time>2020-06-17T14:16:10Z</time>
      </trkpt>
      <trkpt lat="49.36869" lon="0.07918">
        <ele>5.7</ele>
        <time>2020-06-17T14:16:11Z</time>
      </trkpt>
      <trkpt lat="49.36868" lon="0.07916">
        <ele>5.7</ele>
        <time>2020-06-17T14:16:12Z</time>
      </trkpt>
      <trkpt lat="49.36868" lon="0.07916">
        <ele>5.7</ele>
        <time>2020-06-17T14:16:13Z</time>
      </trkpt>
      <trkpt lat="49.36868" lon="0.07916">
        <ele>5.7</ele>
        <time>2020-06-17T14:16:14Z</time>
      </trkpt>
      <trkpt lat="49.36868" lon="0.07916">
        <ele>5.7</ele>
        <time>2020-06-17T14:16:15Z</time>
      </trkpt>
      <trkpt lat="49.36868" lon="0.07916">
        <ele>5.7</ele>
        <time>2020-06-17T14:16:16Z</time>
      </trkpt>
      <trkpt lat="49.36868" lon="0.07915">
        <ele>5.7</ele>
        <time>2020-06-17T14:16:17Z</time>
      </trkpt>
      <trkpt lat="49.36868" lon="0.07915">
        <ele>5.7</ele>
        <time>2020-06-17T14:16:18Z</time>
      </trkpt>
      <trkpt lat="49.36868" lon="0.07915">
        <ele>5.7</ele>
        <time>2020-06-17T14:16:19Z</time>
      </trkpt>
      <trkpt lat="49.36868" lon="0.07914">
        <ele>5.7</ele>
        <time>2020-06-17T14:16:20Z</time>
      </trkpt>
      <trkpt lat="49.36868" lon="0.07913">
        <ele>5.7</ele>
        <time>2020-06-17T14:16:21Z</time>
      </trkpt>
      <trkpt lat="49.36868" lon="0.07913">
        <ele>5.7</ele>
        <time>2020-06-17T14:16:22Z</time>
      </trkpt>
      <trkpt lat="49.36868" lon="0.07912">
        <ele>5.7</ele>
        <time>2020-06-17T14:16:23Z</time>
      </trkpt>
      <trkpt lat="49.36868" lon="0.07913">
        <ele>5.7</ele>
        <time>2020-06-17T14:16:24Z</time>
      </trkpt>
      <trkpt lat="49.36868" lon="0.07912">
        <ele>5.7</ele>
        <time>2020-06-17T14:16:25Z</time>
      </trkpt>
      <trkpt lat="49.36868" lon="0.07912">
        <ele>5.7</ele>
        <time>2020-06-17T14:16:26Z</time>
      </trkpt>
      <trkpt lat="49.36867" lon="0.07912">
        <ele>5.7</ele>
        <time>2020-06-17T14:16:27Z</time>
      </trkpt>
      <trkpt lat="49.36867" lon="0.07912">
        <ele>5.7</ele>
        <time>2020-06-17T14:16:28Z</time>
      </trkpt>
      <trkpt lat="49.36867" lon="0.07912">
        <ele>5.7</ele>
        <time>2020-06-17T14:16:29Z</time>
      </trkpt>
      <trkpt lat="49.36867" lon="0.07912">
        <ele>5.7</ele>
        <time>2020-06-17T14:16:30Z</time>
      </trkpt>
      <trkpt lat="49.36867" lon="0.07912">
        <ele>5.7</ele>
        <time>2020-06-17T14:16:31Z</time>
      </trkpt>
      <trkpt lat="49.36867" lon="0.07911">
        <ele>5.7</ele>
        <time>2020-06-17T14:16:32Z</time>
      </trkpt>
      <trkpt lat="49.36874" lon="0.07924">
        <ele>5.8</ele>
        <time>2020-06-17T14:16:50Z</time>
      </trkpt>
      <trkpt lat="49.36876" lon="0.07925">
        <ele>5.8</ele>
        <time>2020-06-17T14:16:51Z</time>
      </trkpt>
      <trkpt lat="49.36877" lon="0.07926">
        <ele>5.8</ele>
        <time>2020-06-17T14:16:52Z</time>
      </trkpt>
      <trkpt lat="49.36878" lon="0.07927">
        <ele>5.8</ele>
        <time>2020-06-17T14:16:53Z</time>
      </trkpt>
      <trkpt lat="49.36879" lon="0.07929">
        <ele>5.8</ele>
        <time>2020-06-17T14:16:54Z</time>
      </trkpt>
      <trkpt lat="49.36879" lon="0.07931">
        <ele>5.8</ele>
        <time>2020-06-17T14:16:55Z</time>
      </trkpt>
      <trkpt lat="49.3688" lon="0.07932">
        <ele>5.8</ele>
        <time>2020-06-17T14:16:56Z</time>
      </trkpt>
      <trkpt lat="49.36879" lon="0.07933">
        <ele>5.8</ele>
        <time>2020-06-17T14:16:57Z</time>
      </trkpt>
      <trkpt lat="49.36879" lon="0.07934">
        <ele>5.8</ele>
        <time>2020-06-17T14:16:58Z</time>
      </trkpt>
      <trkpt lat="49.36879" lon="0.07935">
        <ele>5.8</ele>
        <time>2020-06-17T14:16:59Z</time>
      </trkpt>
      <trkpt lat="49.36878" lon="0.07936">
        <ele>5.8</ele>
        <time>2020-06-17T14:17:00Z</time>
      </trkpt>
      <trkpt lat="49.36878" lon="0.07936">
        <ele>5.8</ele>
        <time>2020-06-17T14:17:01Z</time>
      </trkpt>
      <trkpt lat="49.36878" lon="0.07936">
        <ele>5.8</ele>
        <time>2020-06-17T14:17:02Z</time>
      </trkpt>
      <trkpt lat="49.36878" lon="0.07936">
        <ele>5.8</ele>
        <time>2020-06-17T14:17:03Z</time>
      </trkpt>
      <trkpt lat="49.36878" lon="0.07937">
        <ele>5.8</ele>
        <time>2020-06-17T14:17:04Z</time>
      </trkpt>
      <trkpt lat="49.36878" lon="0.07937">
        <ele>5.8</ele>
        <time>2020-06-17T14:17:05Z</time>
      </trkpt>
      <trkpt lat="49.36879" lon="0.07937">
        <ele>5.8</ele>
        <time>2020-06-17T14:17:06Z</time>
      </trkpt>
      <trkpt lat="49.36879" lon="0.07936">
        <ele>5.8</ele>
        <time>2020-06-17T14:17:07Z</time>
      </trkpt>
      <trkpt lat="49.36879" lon="0.07936">
        <ele>5.8</ele>
        <time>2020-06-17T14:17:08Z</time>
      </trkpt>
      <trkpt lat="49.3688" lon="0.07935">
        <ele>5.8</ele>
        <time>2020-06-17T14:17:09Z</time>
      </trkpt>
      <trkpt lat="49.3688" lon="0.07934">
        <ele>5.8</ele>
        <time>2020-06-17T14:17:10Z</time>
      </trkpt>
      <trkpt lat="49.3688" lon="0.07935">
        <ele>5.8</ele>
        <time>2020-06-17T14:17:11Z</time>
      </trkpt>
      <trkpt lat="49.3688" lon="0.07935">
        <ele>5.8</ele>
        <time>2020-06-17T14:17:12Z</time>
      </trkpt>
      <trkpt lat="49.3688" lon="0.07934">
        <ele>5.8</ele>
        <time>2020-06-17T14:17:13Z</time>
      </trkpt>
      <trkpt lat="49.3688" lon="0.07934">
        <ele>5.8</ele>
        <time>2020-06-17T14:17:14Z</time>
      </trkpt>
      <trkpt lat="49.3688" lon="0.07933">
        <ele>5.8</ele>
        <time>2020-06-17T14:17:15Z</time>
      </trkpt>
      <trkpt lat="49.36881" lon="0.07933">
        <ele>5.8</ele>
        <time>2020-06-17T14:17:16Z</time>
      </trkpt>
      <trkpt lat="49.36881" lon="0.07933">
        <ele>5.8</ele>
        <time>2020-06-17T14:17:17Z</time>
      </trkpt>
      <trkpt lat="49.36881" lon="0.07932">
        <ele>5.8</ele>
        <time>2020-06-17T14:17:18Z</time>
      </trkpt>
      <trkpt lat="49.3688" lon="0.0793">
        <ele>5.8</ele>
        <time>2020-06-17T14:17:19Z</time>
      </trkpt>
      <trkpt lat="49.36879" lon="0.07928">
        <ele>5.8</ele>
        <time>2020-06-17T14:17:20Z</time>
      </trkpt>
      <trkpt lat="49.36877" lon="0.07926">
        <ele>5.8</ele>
        <time>2020-06-17T14:17:21Z</time>
      </trkpt>
      <trkpt lat="49.36876" lon="0.07925">
        <ele>5.8</ele>
        <time>2020-06-17T14:17:22Z</time>
      </trkpt>
      <trkpt lat="49.36873" lon="0.07923">
        <ele>5.8</ele>
        <time>2020-06-17T14:17:23Z</time>
      </trkpt>
      <trkpt lat="49.36872" lon="0.07922">
        <ele>5.8</ele>
        <time>2020-06-17T14:17:24Z</time>
      </trkpt>
      <trkpt lat="49.36871" lon="0.07921">
        <ele>5.8</ele>
        <time>2020-06-17T14:17:25Z</time>
      </trkpt>
      <trkpt lat="49.3687" lon="0.0792">
        <ele>5.8</ele>
        <time>2020-06-17T14:17:26Z</time>
      </trkpt>
      <trkpt lat="49.3687" lon="0.07919">
        <ele>5.8</ele>
        <time>2020-06-17T14:17:27Z</time>
      </trkpt>
      <trkpt lat="49.36869" lon="0.07918">
        <ele>5.8</ele>
        <time>2020-06-17T14:17:28Z</time>
      </trkpt>
      <trkpt lat="49.3687" lon="0.07918">
        <ele>5.8</ele>
        <time>2020-06-17T14:17:29Z</time>
      </trkpt>
      <trkpt lat="49.36869" lon="0.07917">
        <ele>5.8</ele>
        <time>2020-06-17T14:17:30Z</time>
      </trkpt>
      <trkpt lat="49.36869" lon="0.07917">
        <ele>5.8</ele>
        <time>2020-06-17T14:17:31Z</time>
      </trkpt>
      <trkpt lat="49.36869" lon="0.07917">
        <ele>5.8</ele>
        <time>2020-06-17T14:17:32Z</time>
      </trkpt>
      <trkpt lat="49.36869" lon="0.07917">
        <ele>5.8</ele>
        <time>2020-06-17T14:17:33Z</time>
      </trkpt>
      <trkpt lat="49.36869" lon="0.07917">
        <ele>5.8</ele>
        <time>2020-06-17T14:17:34Z</time>
      </trkpt>
      <trkpt lat="49.36869" lon="0.07917">
        <ele>5.8</ele>
        <time>2020-06-17T14:17:35Z</time>
      </trkpt>
      <trkpt lat="49.36869" lon="0.07917">
        <ele>5.8</ele>
        <time>2020-06-17T14:17:36Z</time>
      </trkpt>
      <trkpt lat="49.36869" lon="0.07917">
        <ele>5.8</ele>
        <time>2020-06-17T14:17:37Z</time>
      </trkpt>
      <trkpt lat="49.36869" lon="0.07917">
        <ele>5.8</ele>
        <time>2020-06-17T14:17:38Z</time>
      </trkpt>
      <trkpt lat="49.36869" lon="0.07917">
        <ele>5.8</ele>
        <time>2020-06-17T14:17:39Z</time>
      </trkpt>
      <trkpt lat="49.36866" lon="0.07915">
        <ele>5.8</ele>
        <time>2020-06-17T14:17:56Z</time>
      </trkpt>
      <trkpt lat="49.36865" lon="0.07914">
        <ele>5.8</ele>
        <time>2020-06-17T14:17:57Z</time>
      </trkpt>
      <trkpt lat="49.36864" lon="0.07912">
        <ele>5.8</ele>
        <time>2020-06-17T14:17:58Z</time>
      </trkpt>
      <trkpt lat="49.36863" lon="0.07911">
        <ele>5.8</ele>
        <time>2020-06-17T14:17:59Z</time>
      </trkpt>
      <trkpt lat="49.36862" lon="0.0791">
        <ele>5.8</ele>
        <time>2020-06-17T14:18:00Z</time>
      </trkpt>
      <trkpt lat="49.36858" lon="0.07907">
        <ele>5.8</ele>
        <time>2020-06-17T14:18:01Z</time>
      </trkpt>
      <trkpt lat="49.36857" lon="0.07907">
        <ele>5.8</ele>
        <time>2020-06-17T14:18:02Z</time>
      </trkpt>
      <trkpt lat="49.36854" lon="0.07904">
        <ele>5.8</ele>
        <time>2020-06-17T14:18:03Z</time>
      </trkpt>
      <trkpt lat="49.36853" lon="0.07903">
        <ele>5.8</ele>
        <time>2020-06-17T14:18:04Z</time>
      </trkpt>
      <trkpt lat="49.3685" lon="0.07901">
        <ele>5.7</ele>
        <time>2020-06-17T14:18:05Z</time>
      </trkpt>
      <trkpt lat="49.36849" lon="0.07901">
        <ele>5.7</ele>
        <time>2020-06-17T14:18:06Z</time>
      </trkpt>
      <trkpt lat="49.36847" lon="0.07898">
        <ele>5.7</ele>
        <time>2020-06-17T14:18:07Z</time>
      </trkpt>
      <trkpt lat="49.36846" lon="0.07897">
        <ele>5.7</ele>
        <time>2020-06-17T14:18:08Z</time>
      </trkpt>
      <trkpt lat="49.36843" lon="0.07894">
        <ele>5.7</ele>
        <time>2020-06-17T14:18:09Z</time>
      </trkpt>
      <trkpt lat="49.36843" lon="0.07893">
        <ele>5.7</ele>
        <time>2020-06-17T14:18:10Z</time>
      </trkpt>
      <trkpt lat="49.3684" lon="0.07891">
        <ele>5.7</ele>
        <time>2020-06-17T14:18:11Z</time>
      </trkpt>
      <trkpt lat="49.36839" lon="0.0789">
        <ele>5.7</ele>
        <time>2020-06-17T14:18:12Z</time>
      </trkpt>
      <trkpt lat="49.36836" lon="0.07893">
        <ele>5.7</ele>
        <time>2020-06-17T14:18:13Z</time>
      </trkpt>
      <trkpt lat="49.36835" lon="0.07894">
        <ele>5.7</ele>
        <time>2020-06-17T14:18:14Z</time>
      </trkpt>
      <trkpt lat="49.36835" lon="0.07897">
        <ele>5.7</ele>
        <time>2020-06-17T14:18:15Z</time>
      </trkpt>
      <trkpt lat="49.36834" lon="0.07899">
        <ele>5.7</ele>
        <time>2020-06-17T14:18:16Z</time>
      </trkpt>
      <trkpt lat="49.36833" lon="0.07901">
        <ele>5.7</ele>
        <time>2020-06-17T14:18:17Z</time>
      </trkpt>
      <trkpt lat="49.36831" lon="0.07903">
        <ele>5.7</ele>
        <time>2020-06-17T14:18:18Z</time>
      </trkpt>
      <trkpt lat="49.36832" lon="0.07905">
        <ele>5.7</ele>
        <time>2020-06-17T14:18:19Z</time>
      </trkpt>
      <trkpt lat="49.36832" lon="0.07908">
        <ele>5.7</ele>
        <time>2020-06-17T14:18:20Z</time>
      </trkpt>
      <trkpt lat="49.36835" lon="0.07912">
        <ele>5.7</ele>
        <time>2020-06-17T14:18:21Z</time>
      </trkpt>
      <trkpt lat="49.36835" lon="0.07913">
        <ele>5.7</ele>
        <time>2020-06-17T14:18:22Z</time>
      </trkpt>
      <trkpt lat="49.36838" lon="0.07915">
        <ele>5.7</ele>
        <time>2020-06-17T14:18:23Z</time>
      </trkpt>
      <trkpt lat="49.36839" lon="0.07916">
        <ele>5.7</ele>
        <time>2020-06-17T14:18:24Z</time>
      </trkpt>
      <trkpt lat="49.3684" lon="0.07917">
        <ele>5.7</ele>
        <time>2020-06-17T14:18:25Z</time>
      </trkpt>
      <trkpt lat="49.36842" lon="0.07918">
        <ele>5.7</ele>
        <time>2020-06-17T14:18:26Z</time>
      </trkpt>
      <trkpt lat="49.36844" lon="0.07919">
        <ele>5.7</ele>
        <time>2020-06-17T14:18:27Z</time>
      </trkpt>
      <trkpt lat="49.36844" lon="0.0792">
        <ele>5.7</ele>
        <time>2020-06-17T14:18:28Z</time>
      </trkpt>
      <trkpt lat="49.36844" lon="0.07921">
        <ele>5.7</ele>
        <time>2020-06-17T14:18:29Z</time>
      </trkpt>
      <trkpt lat="49.36845" lon="0.07922">
        <ele>5.7</ele>
        <time>2020-06-17T14:18:30Z</time>
      </trkpt>
      <trkpt lat="49.36845" lon="0.07922">
        <ele>5.7</ele>
        <time>2020-06-17T14:18:31Z</time>
      </trkpt>
      <trkpt lat="49.36846" lon="0.07923">
        <ele>5.7</ele>
        <time>2020-06-17T14:18:32Z</time>
      </trkpt>
      <trkpt lat="49.36846" lon="0.07924">
        <ele>5.7</ele>
        <time>2020-06-17T14:18:33Z</time>
      </trkpt>
      <trkpt lat="49.36846" lon="0.0793">
        <ele>5.7</ele>
        <time>2020-06-17T14:18:34Z</time>
      </trkpt>
      <trkpt lat="49.36847" lon="0.07932">
        <ele>5.7</ele>
        <time>2020-06-17T14:18:35Z</time>
      </trkpt>
      <trkpt lat="49.36846" lon="0.07935">
        <ele>5.7</ele>
        <time>2020-06-17T14:18:36Z</time>
      </trkpt>
      <trkpt lat="49.36846" lon="0.0794">
        <ele>5.9</ele>
        <time>2020-06-17T14:18:37Z</time>
      </trkpt>
      <trkpt lat="49.36846" lon="0.07945">
        <ele>6</ele>
        <time>2020-06-17T14:18:38Z</time>
      </trkpt>
      <trkpt lat="49.36845" lon="0.07949">
        <ele>6.1</ele>
        <time>2020-06-17T14:18:39Z</time>
      </trkpt>
      <trkpt lat="49.36844" lon="0.07954">
        <ele>6.2</ele>
        <time>2020-06-17T14:18:40Z</time>
      </trkpt>
      <trkpt lat="49.36844" lon="0.07956">
        <ele>6.2</ele>
        <time>2020-06-17T14:18:41Z</time>
      </trkpt>
      <trkpt lat="49.36843" lon="0.07958">
        <ele>6.2</ele>
        <time>2020-06-17T14:18:42Z</time>
      </trkpt>
      <trkpt lat="49.36842" lon="0.07963">
        <ele>6.3</ele>
        <time>2020-06-17T14:18:43Z</time>
      </trkpt>
      <trkpt lat="49.36841" lon="0.07965">
        <ele>6.4</ele>
        <time>2020-06-17T14:18:44Z</time>
      </trkpt>
      <trkpt lat="49.36839" lon="0.07971">
        <ele>6.5</ele>
        <time>2020-06-17T14:18:45Z</time>
      </trkpt>
      <trkpt lat="49.36839" lon="0.07974">
        <ele>6.6</ele>
        <time>2020-06-17T14:18:46Z</time>
      </trkpt>
      <trkpt lat="49.36838" lon="0.07977">
        <ele>6.5</ele>
        <time>2020-06-17T14:18:47Z</time>
      </trkpt>
      <trkpt lat="49.36837" lon="0.0798">
        <ele>6.8</ele>
        <time>2020-06-17T14:18:48Z</time>
      </trkpt>
      <trkpt lat="49.36837" lon="0.07984">
        <ele>7</ele>
        <time>2020-06-17T14:18:49Z</time>
      </trkpt>
      <trkpt lat="49.36836" lon="0.07991">
        <ele>7.4</ele>
        <time>2020-06-17T14:18:50Z</time>
      </trkpt>
      <trkpt lat="49.36836" lon="0.07993">
        <ele>7.8</ele>
        <time>2020-06-17T14:18:51Z</time>
      </trkpt>
      <trkpt lat="49.36835" lon="0.07999">
        <ele>8.3</ele>
        <time>2020-06-17T14:18:52Z</time>
      </trkpt>
      <trkpt lat="49.36833" lon="0.08005">
        <ele>9.7</ele>
        <time>2020-06-17T14:18:53Z</time>
      </trkpt>
      <trkpt lat="49.36831" lon="0.08011">
        <ele>10.6</ele>
        <time>2020-06-17T14:18:54Z</time>
      </trkpt>
      <trkpt lat="49.36831" lon="0.08017">
        <ele>11.7</ele>
        <time>2020-06-17T14:18:55Z</time>
      </trkpt>
      <trkpt lat="49.36831" lon="0.08019">
        <ele>11.7</ele>
        <time>2020-06-17T14:18:56Z</time>
      </trkpt>
      <trkpt lat="49.3683" lon="0.08024">
        <ele>12.1</ele>
        <time>2020-06-17T14:18:57Z</time>
      </trkpt>
      <trkpt lat="49.3683" lon="0.0803">
        <ele>12.9</ele>
        <time>2020-06-17T14:18:58Z</time>
      </trkpt>
      <trkpt lat="49.36829" lon="0.08034">
        <ele>13.1</ele>
        <time>2020-06-17T14:18:59Z</time>
      </trkpt>
      <trkpt lat="49.36828" lon="0.08038">
        <ele>13.3</ele>
        <time>2020-06-17T14:19:00Z</time>
      </trkpt>
      <trkpt lat="49.36827" lon="0.0804">
        <ele>13.4</ele>
        <time>2020-06-17T14:19:01Z</time>
      </trkpt>
      <trkpt lat="49.36827" lon="0.08042">
        <ele>13.4</ele>
        <time>2020-06-17T14:19:02Z</time>
      </trkpt>
      <trkpt lat="49.36828" lon="0.08044">
        <ele>13.5</ele>
        <time>2020-06-17T14:19:03Z</time>
      </trkpt>
      <trkpt lat="49.36829" lon="0.08046">
        <ele>13.2</ele>
        <time>2020-06-17T14:19:04Z</time>
      </trkpt>
      <trkpt lat="49.3683" lon="0.08046">
        <ele>13.2</ele>
        <time>2020-06-17T14:19:05Z</time>
      </trkpt>
      <trkpt lat="49.36829" lon="0.08046">
        <ele>13.4</ele>
        <time>2020-06-17T14:19:06Z</time>
      </trkpt>
      <trkpt lat="49.36828" lon="0.08046">
        <ele>13.3</ele>
        <time>2020-06-17T14:19:07Z</time>
      </trkpt>
      <trkpt lat="49.36827" lon="0.08047">
        <ele>13.3</ele>
        <time>2020-06-17T14:19:08Z</time>
      </trkpt>
      <trkpt lat="49.36827" lon="0.08048">
        <ele>13.3</ele>
        <time>2020-06-17T14:19:09Z</time>
      </trkpt>
      <trkpt lat="49.36826" lon="0.08049">
        <ele>13.4</ele>
        <time>2020-06-17T14:19:10Z</time>
      </trkpt>
      <trkpt lat="49.36825" lon="0.08051">
        <ele>13.4</ele>
        <time>2020-06-17T14:19:11Z</time>
      </trkpt>
      <trkpt lat="49.36823" lon="0.08054">
        <ele>13.4</ele>
        <time>2020-06-17T14:19:12Z</time>
      </trkpt>
      <trkpt lat="49.36822" lon="0.08056">
        <ele>13.3</ele>
        <time>2020-06-17T14:19:13Z</time>
      </trkpt>
      <trkpt lat="49.36821" lon="0.08058">
        <ele>13.2</ele>
        <time>2020-06-17T14:19:14Z</time>
      </trkpt>
      <trkpt lat="49.3682" lon="0.0806">
        <ele>13.1</ele>
        <time>2020-06-17T14:19:15Z</time>
      </trkpt>
      <trkpt lat="49.36819" lon="0.08065">
        <ele>12.9</ele>
        <time>2020-06-17T14:19:16Z</time>
      </trkpt>
      <trkpt lat="49.36818" lon="0.08066">
        <ele>12.9</ele>
        <time>2020-06-17T14:19:17Z</time>
      </trkpt>
      <trkpt lat="49.36819" lon="0.08071">
        <ele>12.7</ele>
        <time>2020-06-17T14:19:18Z</time>
      </trkpt>
      <trkpt lat="49.36819" lon="0.08073">
        <ele>12.5</ele>
        <time>2020-06-17T14:19:19Z</time>
      </trkpt>
      <trkpt lat="49.3682" lon="0.08078">
        <ele>12.4</ele>
        <time>2020-06-17T14:19:20Z</time>
      </trkpt>
      <trkpt lat="49.3682" lon="0.08079">
        <ele>12.4</ele>
        <time>2020-06-17T14:19:21Z</time>
      </trkpt>
      <trkpt lat="49.3682" lon="0.08082">
        <ele>12.2</ele>
        <time>2020-06-17T14:19:22Z</time>
      </trkpt>
      <trkpt lat="49.3682" lon="0.08083">
        <ele>12.2</ele>
        <time>2020-06-17T14:19:23Z</time>
      </trkpt>
      <trkpt lat="49.3682" lon="0.08084">
        <ele>12.2</ele>
        <time>2020-06-17T14:19:24Z</time>
      </trkpt>
      <trkpt lat="49.3682" lon="0.08085">
        <ele>12.1</ele>
        <time>2020-06-17T14:19:25Z</time>
      </trkpt>
      <trkpt lat="49.3682" lon="0.08086">
        <ele>12</ele>
        <time>2020-06-17T14:19:26Z</time>
      </trkpt>
      <trkpt lat="49.3682" lon="0.08086">
        <ele>12</ele>
        <time>2020-06-17T14:19:27Z</time>
      </trkpt>
      <trkpt lat="49.3682" lon="0.08086">
        <ele>12</ele>
        <time>2020-06-17T14:19:28Z</time>
      </trkpt>
      <trkpt lat="49.3682" lon="0.08087">
        <ele>11.9</ele>
        <time>2020-06-17T14:19:29Z</time>
      </trkpt>
      <trkpt lat="49.3682" lon="0.08088">
        <ele>11.9</ele>
        <time>2020-06-17T14:19:30Z</time>
      </trkpt>
      <trkpt lat="49.3682" lon="0.08089">
        <ele>11.9</ele>
        <time>2020-06-17T14:19:31Z</time>
      </trkpt>
      <trkpt lat="49.3682" lon="0.08093">
        <ele>11.7</ele>
        <time>2020-06-17T14:19:32Z</time>
      </trkpt>
      <trkpt lat="49.3682" lon="0.08094">
        <ele>11.6</ele>
        <time>2020-06-17T14:19:33Z</time>
      </trkpt>
      <trkpt lat="49.3682" lon="0.08096">
        <ele>11.6</ele>
        <time>2020-06-17T14:19:34Z</time>
      </trkpt>
      <trkpt lat="49.36822" lon="0.081">
        <ele>11.5</ele>
        <time>2020-06-17T14:19:35Z</time>
      </trkpt>
      <trkpt lat="49.36824" lon="0.08104">
        <ele>11.4</ele>
        <time>2020-06-17T14:19:36Z</time>
      </trkpt>
      <trkpt lat="49.36825" lon="0.08105">
        <ele>11.3</ele>
        <time>2020-06-17T14:19:37Z</time>
      </trkpt>
      <trkpt lat="49.36827" lon="0.08107">
        <ele>11.2</ele>
        <time>2020-06-17T14:19:38Z</time>
      </trkpt>
      <trkpt lat="49.36827" lon="0.0811">
        <ele>11.2</ele>
        <time>2020-06-17T14:19:39Z</time>
      </trkpt>
      <trkpt lat="49.36828" lon="0.0811">
        <ele>11.2</ele>
        <time>2020-06-17T14:19:40Z</time>
      </trkpt>
      <trkpt lat="49.3683" lon="0.0811">
        <ele>11.1</ele>
        <time>2020-06-17T14:19:41Z</time>
      </trkpt>
      <trkpt lat="49.36831" lon="0.08111">
        <ele>11.1</ele>
        <time>2020-06-17T14:19:42Z</time>
      </trkpt>
      <trkpt lat="49.36832" lon="0.08113">
        <ele>11</ele>
        <time>2020-06-17T14:19:43Z</time>
      </trkpt>
      <trkpt lat="49.36833" lon="0.08114">
        <ele>10.9</ele>
        <time>2020-06-17T14:19:44Z</time>
      </trkpt>
      <trkpt lat="49.36835" lon="0.08116">
        <ele>10.8</ele>
        <time>2020-06-17T14:19:45Z</time>
      </trkpt>
      <trkpt lat="49.36835" lon="0.08118">
        <ele>10.8</ele>
        <time>2020-06-17T14:19:46Z</time>
      </trkpt>
      <trkpt lat="49.36836" lon="0.08119">
        <ele>10.7</ele>
        <time>2020-06-17T14:19:47Z</time>
      </trkpt>
      <trkpt lat="49.36836" lon="0.0812">
        <ele>10.6</ele>
        <time>2020-06-17T14:19:48Z</time>
      </trkpt>
      <trkpt lat="49.36838" lon="0.08123">
        <ele>10.6</ele>
        <time>2020-06-17T14:19:49Z</time>
      </trkpt>
      <trkpt lat="49.36839" lon="0.08124">
        <ele>10.6</ele>
        <time>2020-06-17T14:19:50Z</time>
      </trkpt>
      <trkpt lat="49.3684" lon="0.08125">
        <ele>10.4</ele>
        <time>2020-06-17T14:19:51Z</time>
      </trkpt>
      <trkpt lat="49.36843" lon="0.08128">
        <ele>10.4</ele>
        <time>2020-06-17T14:19:52Z</time>
      </trkpt>
      <trkpt lat="49.36844" lon="0.08129">
        <ele>10.3</ele>
        <time>2020-06-17T14:19:53Z</time>
      </trkpt>
      <trkpt lat="49.36849" lon="0.08131">
        <ele>10.3</ele>
        <time>2020-06-17T14:19:54Z</time>
      </trkpt>
      <trkpt lat="49.36852" lon="0.08132">
        <ele>10.3</ele>
        <time>2020-06-17T14:19:55Z</time>
      </trkpt>
      <trkpt lat="49.36856" lon="0.08132">
        <ele>10.3</ele>
        <time>2020-06-17T14:19:56Z</time>
      </trkpt>
      <trkpt lat="49.36858" lon="0.08132">
        <ele>10.2</ele>
        <time>2020-06-17T14:19:57Z</time>
      </trkpt>
      <trkpt lat="49.36862" lon="0.08134">
        <ele>10.1</ele>
        <time>2020-06-17T14:19:58Z</time>
      </trkpt>
      <trkpt lat="49.36863" lon="0.08135">
        <ele>10.1</ele>
        <time>2020-06-17T14:19:59Z</time>
      </trkpt>
      <trkpt lat="49.36869" lon="0.0814">
        <ele>10</ele>
        <time>2020-06-17T14:20:00Z</time>
      </trkpt>
      <trkpt lat="49.36874" lon="0.08143">
        <ele>9.9</ele>
        <time>2020-06-17T14:20:01Z</time>
      </trkpt>
      <trkpt lat="49.36879" lon="0.08149">
        <ele>9.8</ele>
        <time>2020-06-17T14:20:02Z</time>
      </trkpt>
      <trkpt lat="49.36883" lon="0.08151">
        <ele>9.7</ele>
        <time>2020-06-17T14:20:03Z</time>
      </trkpt>
      <trkpt lat="49.36886" lon="0.08154">
        <ele>9.7</ele>
        <time>2020-06-17T14:20:04Z</time>
      </trkpt>
      <trkpt lat="49.36889" lon="0.08157">
        <ele>9.6</ele>
        <time>2020-06-17T14:20:05Z</time>
      </trkpt>
      <trkpt lat="49.3689" lon="0.08158">
        <ele>9.6</ele>
        <time>2020-06-17T14:20:06Z</time>
      </trkpt>
      <trkpt lat="49.36892" lon="0.08161">
        <ele>9.5</ele>
        <time>2020-06-17T14:20:07Z</time>
      </trkpt>
      <trkpt lat="49.36895" lon="0.08164">
        <ele>9.4</ele>
        <time>2020-06-17T14:20:08Z</time>
      </trkpt>
      <trkpt lat="49.36897" lon="0.08168">
        <ele>9.4</ele>
        <time>2020-06-17T14:20:09Z</time>
      </trkpt>
      <trkpt lat="49.369" lon="0.08171">
        <ele>9.3</ele>
        <time>2020-06-17T14:20:10Z</time>
      </trkpt>
      <trkpt lat="49.36903" lon="0.08174">
        <ele>9.2</ele>
        <time>2020-06-17T14:20:11Z</time>
      </trkpt>
      <trkpt lat="49.36905" lon="0.08176">
        <ele>9.1</ele>
        <time>2020-06-17T14:20:12Z</time>
      </trkpt>
      <trkpt lat="49.36908" lon="0.08179">
        <ele>9</ele>
        <time>2020-06-17T14:20:13Z</time>
      </trkpt>
      <trkpt lat="49.3691" lon="0.08183">
        <ele>9</ele>
        <time>2020-06-17T14:20:14Z</time>
      </trkpt>
      <trkpt lat="49.3691" lon="0.08185">
        <ele>8.9</ele>
        <time>2020-06-17T14:20:15Z</time>
      </trkpt>
      <trkpt lat="49.36914" lon="0.08189">
        <ele>8.9</ele>
        <time>2020-06-17T14:20:16Z</time>
      </trkpt>
      <trkpt lat="49.36918" lon="0.08194">
        <ele>8.8</ele>
        <time>2020-06-17T14:20:17Z</time>
      </trkpt>
      <trkpt lat="49.36921" lon="0.08198">
        <ele>8.7</ele>
        <time>2020-06-17T14:20:18Z</time>
      </trkpt>
      <trkpt lat="49.36925" lon="0.08202">
        <ele>8.8</ele>
        <time>2020-06-17T14:20:19Z</time>
      </trkpt>
      <trkpt lat="49.36929" lon="0.08207">
        <ele>8.9</ele>
        <time>2020-06-17T14:20:20Z</time>
      </trkpt>
      <trkpt lat="49.36932" lon="0.0821">
        <ele>8.9</ele>
        <time>2020-06-17T14:20:21Z</time>
      </trkpt>
      <trkpt lat="49.36936" lon="0.08212">
        <ele>9</ele>
        <time>2020-06-17T14:20:22Z</time>
      </trkpt>
      <trkpt lat="49.3694" lon="0.08215">
        <ele>9</ele>
        <time>2020-06-17T14:20:23Z</time>
      </trkpt>
      <trkpt lat="49.36945" lon="0.08217">
        <ele>9.1</ele>
        <time>2020-06-17T14:20:24Z</time>
      </trkpt>
      <trkpt lat="49.36947" lon="0.0822">
        <ele>9.1</ele>
        <time>2020-06-17T14:20:25Z</time>
      </trkpt>
      <trkpt lat="49.3695" lon="0.08222">
        <ele>9.1</ele>
        <time>2020-06-17T14:20:26Z</time>
      </trkpt>
      <trkpt lat="49.36954" lon="0.08226">
        <ele>9.2</ele>
        <time>2020-06-17T14:20:27Z</time>
      </trkpt>
      <trkpt lat="49.36959" lon="0.0823">
        <ele>9.2</ele>
        <time>2020-06-17T14:20:28Z</time>
      </trkpt>
      <trkpt lat="49.36964" lon="0.08234">
        <ele>9.2</ele>
        <time>2020-06-17T14:20:29Z</time>
      </trkpt>
      <trkpt lat="49.36968" lon="0.08236">
        <ele>9.2</ele>
        <time>2020-06-17T14:20:30Z</time>
      </trkpt>
      <trkpt lat="49.36971" lon="0.08238">
        <ele>9.2</ele>
        <time>2020-06-17T14:20:31Z</time>
      </trkpt>
      <trkpt lat="49.36978" lon="0.08238">
        <ele>9.4</ele>
        <time>2020-06-17T14:20:32Z</time>
      </trkpt>
      <trkpt lat="49.36983" lon="0.08239">
        <ele>9.5</ele>
        <time>2020-06-17T14:20:33Z</time>
      </trkpt>
      <trkpt lat="49.36988" lon="0.0824">
        <ele>9.6</ele>
        <time>2020-06-17T14:20:34Z</time>
      </trkpt>
      <trkpt lat="49.36994" lon="0.08241">
        <ele>9.7</ele>
        <time>2020-06-17T14:20:35Z</time>
      </trkpt>
      <trkpt lat="49.36999" lon="0.08243">
        <ele>9.7</ele>
        <time>2020-06-17T14:20:36Z</time>
      </trkpt>
      <trkpt lat="49.37003" lon="0.08245">
        <ele>9.8</ele>
        <time>2020-06-17T14:20:37Z</time>
      </trkpt>
      <trkpt lat="49.37008" lon="0.08248">
        <ele>9.9</ele>
        <time>2020-06-17T14:20:38Z</time>
      </trkpt>
      <trkpt lat="49.37013" lon="0.0825">
        <ele>9.9</ele>
        <time>2020-06-17T14:20:39Z</time>
      </trkpt>
      <trkpt lat="49.37018" lon="0.08252">
        <ele>10</ele>
        <time>2020-06-17T14:20:40Z</time>
      </trkpt>
      <trkpt lat="49.37022" lon="0.08254">
        <ele>10.1</ele>
        <time>2020-06-17T14:20:41Z</time>
      </trkpt>
      <trkpt lat="49.37026" lon="0.08256">
        <ele>10.2</ele>
        <time>2020-06-17T14:20:42Z</time>
      </trkpt>
      <trkpt lat="49.3703" lon="0.08258">
        <ele>10.3</ele>
        <time>2020-06-17T14:20:43Z</time>
      </trkpt>
      <trkpt lat="49.37034" lon="0.0826">
        <ele>10.3</ele>
        <time>2020-06-17T14:20:44Z</time>
      </trkpt>
      <trkpt lat="49.37038" lon="0.08262">
        <ele>10.4</ele>
        <time>2020-06-17T14:20:45Z</time>
      </trkpt>
      <trkpt lat="49.37042" lon="0.08263">
        <ele>10.5</ele>
        <time>2020-06-17T14:20:46Z</time>
      </trkpt>
      <trkpt lat="49.37046" lon="0.08265">
        <ele>10.7</ele>
        <time>2020-06-17T14:20:47Z</time>
      </trkpt>
      <trkpt lat="49.3705" lon="0.08266">
        <ele>10.8</ele>
        <time>2020-06-17T14:20:48Z</time>
      </trkpt>
      <trkpt lat="49.37054" lon="0.08267">
        <ele>10.9</ele>
        <time>2020-06-17T14:20:49Z</time>
      </trkpt>
      <trkpt lat="49.37058" lon="0.08268">
        <ele>11</ele>
        <time>2020-06-17T14:20:50Z</time>
      </trkpt>
      <trkpt lat="49.37064" lon="0.08273">
        <ele>11.2</ele>
        <time>2020-06-17T14:20:51Z</time>
      </trkpt>
      <trkpt lat="49.37068" lon="0.08274">
        <ele>11.3</ele>
        <time>2020-06-17T14:20:52Z</time>
      </trkpt>
      <trkpt lat="49.37072" lon="0.08277">
        <ele>11.4</ele>
        <time>2020-06-17T14:20:53Z</time>
      </trkpt>
      <trkpt lat="49.37075" lon="0.08279">
        <ele>11.4</ele>
        <time>2020-06-17T14:20:54Z</time>
      </trkpt>
      <trkpt lat="49.37078" lon="0.0828">
        <ele>11.5</ele>
        <time>2020-06-17T14:20:55Z</time>
      </trkpt>
      <trkpt lat="49.37082" lon="0.08282">
        <ele>10.7</ele>
        <time>2020-06-17T14:20:56Z</time>
      </trkpt>
      <trkpt lat="49.37087" lon="0.08284">
        <ele>10.9</ele>
        <time>2020-06-17T14:20:57Z</time>
      </trkpt>
      <trkpt lat="49.37093" lon="0.08288">
        <ele>11.1</ele>
        <time>2020-06-17T14:20:58Z</time>
      </trkpt>
      <trkpt lat="49.37098" lon="0.08291">
        <ele>11.3</ele>
        <time>2020-06-17T14:20:59Z</time>
      </trkpt>
      <trkpt lat="49.37103" lon="0.08295">
        <ele>11.5</ele>
        <time>2020-06-17T14:21:00Z</time>
      </trkpt>
      <trkpt lat="49.37108" lon="0.08299">
        <ele>11.7</ele>
        <time>2020-06-17T14:21:01Z</time>
      </trkpt>
      <trkpt lat="49.37114" lon="0.08302">
        <ele>11.8</ele>
        <time>2020-06-17T14:21:02Z</time>
      </trkpt>
      <trkpt lat="49.3712" lon="0.08305">
        <ele>12</ele>
        <time>2020-06-17T14:21:03Z</time>
      </trkpt>
      <trkpt lat="49.37126" lon="0.08309">
        <ele>12.1</ele>
        <time>2020-06-17T14:21:04Z</time>
      </trkpt>
      <trkpt lat="49.3713" lon="0.08312">
        <ele>12.2</ele>
        <time>2020-06-17T14:21:05Z</time>
      </trkpt>
      <trkpt lat="49.37135" lon="0.08316">
        <ele>12.4</ele>
        <time>2020-06-17T14:21:06Z</time>
      </trkpt>
      <trkpt lat="49.37139" lon="0.08319">
        <ele>12.5</ele>
        <time>2020-06-17T14:21:07Z</time>
      </trkpt>
      <trkpt lat="49.37143" lon="0.08322">
        <ele>12.6</ele>
        <time>2020-06-17T14:21:08Z</time>
      </trkpt>
      <trkpt lat="49.37147" lon="0.08325">
        <ele>12.7</ele>
        <time>2020-06-17T14:21:09Z</time>
      </trkpt>
      <trkpt lat="49.3715" lon="0.08327">
        <ele>12.7</ele>
        <time>2020-06-17T14:21:10Z</time>
      </trkpt>
      <trkpt lat="49.37154" lon="0.08329">
        <ele>12.8</ele>
        <time>2020-06-17T14:21:11Z</time>
      </trkpt>
      <trkpt lat="49.37156" lon="0.0833">
        <ele>12.9</ele>
        <time>2020-06-17T14:21:12Z</time>
      </trkpt>
      <trkpt lat="49.37164" lon="0.08352">
        <ele>13.3</ele>
        <time>2020-06-17T14:21:13Z</time>
      </trkpt>
      <trkpt lat="49.37166" lon="0.08354">
        <ele>13.3</ele>
        <time>2020-06-17T14:21:14Z</time>
      </trkpt>
      <trkpt lat="49.37169" lon="0.08356">
        <ele>13.4</ele>
        <time>2020-06-17T14:21:15Z</time>
      </trkpt>
      <trkpt lat="49.3717" lon="0.08356">
        <ele>13.4</ele>
        <time>2020-06-17T14:21:16Z</time>
      </trkpt>
      <trkpt lat="49.37173" lon="0.08358">
        <ele>13.5</ele>
        <time>2020-06-17T14:21:17Z</time>
      </trkpt>
      <trkpt lat="49.37174" lon="0.08359">
        <ele>13.5</ele>
        <time>2020-06-17T14:21:18Z</time>
      </trkpt>
      <trkpt lat="49.37176" lon="0.08361">
        <ele>13.6</ele>
        <time>2020-06-17T14:21:19Z</time>
      </trkpt>
      <trkpt lat="49.37177" lon="0.08363">
        <ele>13.6</ele>
        <time>2020-06-17T14:21:20Z</time>
      </trkpt>
      <trkpt lat="49.3718" lon="0.08366">
        <ele>13.7</ele>
        <time>2020-06-17T14:21:21Z</time>
      </trkpt>
      <trkpt lat="49.37181" lon="0.08367">
        <ele>13.7</ele>
        <time>2020-06-17T14:21:22Z</time>
      </trkpt>
      <trkpt lat="49.37183" lon="0.08371">
        <ele>13.8</ele>
        <time>2020-06-17T14:21:23Z</time>
      </trkpt>
      <trkpt lat="49.37184" lon="0.08372">
        <ele>13.8</ele>
        <time>2020-06-17T14:21:24Z</time>
      </trkpt>
      <trkpt lat="49.37186" lon="0.08375">
        <ele>13.9</ele>
        <time>2020-06-17T14:21:25Z</time>
      </trkpt>
      <trkpt lat="49.3719" lon="0.08379">
        <ele>14</ele>
        <time>2020-06-17T14:21:26Z</time>
      </trkpt>
      <trkpt lat="49.37191" lon="0.08383">
        <ele>14</ele>
        <time>2020-06-17T14:21:27Z</time>
      </trkpt>
      <trkpt lat="49.37192" lon="0.08385">
        <ele>14</ele>
        <time>2020-06-17T14:21:28Z</time>
      </trkpt>
      <trkpt lat="49.37195" lon="0.0839">
        <ele>14.1</ele>
        <time>2020-06-17T14:21:29Z</time>
      </trkpt>
      <trkpt lat="49.37195" lon="0.08391">
        <ele>14.1</ele>
        <time>2020-06-17T14:21:30Z</time>
      </trkpt>
      <trkpt lat="49.37197" lon="0.08394">
        <ele>14.1</ele>
        <time>2020-06-17T14:21:31Z</time>
      </trkpt>
      <trkpt lat="49.372" lon="0.08397">
        <ele>14.2</ele>
        <time>2020-06-17T14:21:32Z</time>
      </trkpt>
      <trkpt lat="49.37201" lon="0.08398">
        <ele>14.2</ele>
        <time>2020-06-17T14:21:33Z</time>
      </trkpt>
      <trkpt lat="49.37204" lon="0.08402">
        <ele>14.2</ele>
        <time>2020-06-17T14:21:34Z</time>
      </trkpt>
      <trkpt lat="49.37205" lon="0.08403">
        <ele>14.3</ele>
        <time>2020-06-17T14:21:35Z</time>
      </trkpt>
      <trkpt lat="49.37207" lon="0.08406">
        <ele>14.3</ele>
        <time>2020-06-17T14:21:36Z</time>
      </trkpt>
      <trkpt lat="49.3721" lon="0.08409">
        <ele>14.3</ele>
        <time>2020-06-17T14:21:37Z</time>
      </trkpt>
      <trkpt lat="49.37213" lon="0.08413">
        <ele>14.3</ele>
        <time>2020-06-17T14:21:38Z</time>
      </trkpt>
      <trkpt lat="49.37217" lon="0.08416">
        <ele>14.4</ele>
        <time>2020-06-17T14:21:39Z</time>
      </trkpt>
      <trkpt lat="49.37219" lon="0.0842">
        <ele>14.4</ele>
        <time>2020-06-17T14:21:40Z</time>
      </trkpt>
      <trkpt lat="49.37223" lon="0.08424">
        <ele>14.4</ele>
        <time>2020-06-17T14:21:41Z</time>
      </trkpt>
      <trkpt lat="49.37227" lon="0.08427">
        <ele>14.4</ele>
        <time>2020-06-17T14:21:42Z</time>
      </trkpt>
      <trkpt lat="49.3723" lon="0.08429">
        <ele>14.5</ele>
        <time>2020-06-17T14:21:43Z</time>
      </trkpt>
      <trkpt lat="49.37233" lon="0.08431">
        <ele>14.5</ele>
        <time>2020-06-17T14:21:44Z</time>
      </trkpt>
      <trkpt lat="49.37236" lon="0.08435">
        <ele>14.6</ele>
        <time>2020-06-17T14:21:45Z</time>
      </trkpt>
      <trkpt lat="49.3724" lon="0.08437">
        <ele>14.7</ele>
        <time>2020-06-17T14:21:46Z</time>
      </trkpt>
      <trkpt lat="49.37242" lon="0.0844">
        <ele>14.7</ele>
        <time>2020-06-17T14:21:47Z</time>
      </trkpt>
      <trkpt lat="49.37245" lon="0.08442">
        <ele>14.8</ele>
        <time>2020-06-17T14:21:48Z</time>
      </trkpt>
      <trkpt lat="49.37247" lon="0.08445">
        <ele>14.8</ele>
        <time>2020-06-17T14:21:49Z</time>
      </trkpt>
      <trkpt lat="49.37248" lon="0.08446">
        <ele>14.8</ele>
        <time>2020-06-17T14:21:50Z</time>
      </trkpt>
      <trkpt lat="49.37249" lon="0.08448">
        <ele>14.9</ele>
        <time>2020-06-17T14:21:51Z</time>
      </trkpt>
      <trkpt lat="49.37251" lon="0.08449">
        <ele>14.9</ele>
        <time>2020-06-17T14:21:52Z</time>
      </trkpt>
      <trkpt lat="49.37252" lon="0.08451">
        <ele>14.9</ele>
        <time>2020-06-17T14:21:53Z</time>
      </trkpt>
      <trkpt lat="49.37253" lon="0.08452">
        <ele>14.9</ele>
        <time>2020-06-17T14:21:54Z</time>
      </trkpt>
      <trkpt lat="49.37254" lon="0.08455">
        <ele>15</ele>
        <time>2020-06-17T14:21:55Z</time>
      </trkpt>
      <trkpt lat="49.37254" lon="0.08457">
        <ele>15</ele>
        <time>2020-06-17T14:21:56Z</time>
      </trkpt>
      <trkpt lat="49.37254" lon="0.08458">
        <ele>15</ele>
        <time>2020-06-17T14:21:57Z</time>
      </trkpt>
      <trkpt lat="49.37254" lon="0.0846">
        <ele>15.1</ele>
        <time>2020-06-17T14:21:58Z</time>
      </trkpt>
      <trkpt lat="49.37254" lon="0.0846">
        <ele>15.1</ele>
        <time>2020-06-17T14:21:59Z</time>
      </trkpt>
      <trkpt lat="49.37254" lon="0.08462">
        <ele>15.1</ele>
        <time>2020-06-17T14:22:00Z</time>
      </trkpt>
      <trkpt lat="49.37253" lon="0.08464">
        <ele>15.1</ele>
        <time>2020-06-17T14:22:01Z</time>
      </trkpt>
      <trkpt lat="49.37254" lon="0.08465">
        <ele>15.2</ele>
        <time>2020-06-17T14:22:02Z</time>
      </trkpt>
      <trkpt lat="49.37255" lon="0.08466">
        <ele>15.2</ele>
        <time>2020-06-17T14:22:03Z</time>
      </trkpt>
      <trkpt lat="49.37255" lon="0.08467">
        <ele>15.2</ele>
        <time>2020-06-17T14:22:04Z</time>
      </trkpt>
      <trkpt lat="49.37255" lon="0.08468">
        <ele>15.2</ele>
        <time>2020-06-17T14:22:05Z</time>
      </trkpt>
      <trkpt lat="49.37255" lon="0.0847">
        <ele>15.4</ele>
        <time>2020-06-17T14:22:06Z</time>
      </trkpt>
      <trkpt lat="49.37255" lon="0.08471">
        <ele>15.5</ele>
        <time>2020-06-17T14:22:07Z</time>
      </trkpt>
      <trkpt lat="49.37256" lon="0.08471">
        <ele>15.5</ele>
        <time>2020-06-17T14:22:08Z</time>
      </trkpt>
      <trkpt lat="49.37256" lon="0.08473">
        <ele>15.6</ele>
        <time>2020-06-17T14:22:09Z</time>
      </trkpt>
      <trkpt lat="49.37256" lon="0.08475">
        <ele>15.7</ele>
        <time>2020-06-17T14:22:10Z</time>
      </trkpt>
      <trkpt lat="49.37256" lon="0.08476">
        <ele>15.7</ele>
        <time>2020-06-17T14:22:11Z</time>
      </trkpt>
      <trkpt lat="49.37256" lon="0.08477">
        <ele>15.7</ele>
        <time>2020-06-17T14:22:12Z</time>
      </trkpt>
      <trkpt lat="49.37255" lon="0.08478">
        <ele>15.8</ele>
        <time>2020-06-17T14:22:13Z</time>
      </trkpt>
      <trkpt lat="49.37256" lon="0.08479">
        <ele>15.8</ele>
        <time>2020-06-17T14:22:14Z</time>
      </trkpt>
      <trkpt lat="49.37255" lon="0.08479">
        <ele>15.8</ele>
        <time>2020-06-17T14:22:15Z</time>
      </trkpt>
      <trkpt lat="49.37255" lon="0.0848">
        <ele>15.9</ele>
        <time>2020-06-17T14:22:16Z</time>
      </trkpt>
      <trkpt lat="49.37255" lon="0.0848">
        <ele>15.9</ele>
        <time>2020-06-17T14:22:17Z</time>
      </trkpt>
      <trkpt lat="49.37254" lon="0.08481">
        <ele>15.9</ele>
        <time>2020-06-17T14:22:18Z</time>
      </trkpt>
      <trkpt lat="49.37253" lon="0.08482">
        <ele>16</ele>
        <time>2020-06-17T14:22:19Z</time>
      </trkpt>
      <trkpt lat="49.37253" lon="0.08483">
        <ele>16</ele>
        <time>2020-06-17T14:22:20Z</time>
      </trkpt>
      <trkpt lat="49.37254" lon="0.08483">
        <ele>16.1</ele>
        <time>2020-06-17T14:22:21Z</time>
      </trkpt>
      <trkpt lat="49.37254" lon="0.08484">
        <ele>16.1</ele>
        <time>2020-06-17T14:22:22Z</time>
      </trkpt>
      <trkpt lat="49.37256" lon="0.08485">
        <ele>16.2</ele>
        <time>2020-06-17T14:22:23Z</time>
      </trkpt>
      <trkpt lat="49.37256" lon="0.08486">
        <ele>16.2</ele>
        <time>2020-06-17T14:22:24Z</time>
      </trkpt>
      <trkpt lat="49.37256" lon="0.08486">
        <ele>16.3</ele>
        <time>2020-06-17T14:22:25Z</time>
      </trkpt>
      <trkpt lat="49.37257" lon="0.08487">
        <ele>16.3</ele>
        <time>2020-06-17T14:22:26Z</time>
      </trkpt>
      <trkpt lat="49.37258" lon="0.08487">
        <ele>16.3</ele>
        <time>2020-06-17T14:22:27Z</time>
      </trkpt>
      <trkpt lat="49.37258" lon="0.08487">
        <ele>16.4</ele>
        <time>2020-06-17T14:22:28Z</time>
      </trkpt>
      <trkpt lat="49.37259" lon="0.08487">
        <ele>16.4</ele>
        <time>2020-06-17T14:22:29Z</time>
      </trkpt>
      <trkpt lat="49.37259" lon="0.08488">
        <ele>16.5</ele>
        <time>2020-06-17T14:22:30Z</time>
      </trkpt>
      <trkpt lat="49.37261" lon="0.08489">
        <ele>16.6</ele>
        <time>2020-06-17T14:22:31Z</time>
      </trkpt>
      <trkpt lat="49.37262" lon="0.0849">
        <ele>16.7</ele>
        <time>2020-06-17T14:22:32Z</time>
      </trkpt>
      <trkpt lat="49.37263" lon="0.08491">
        <ele>16.7</ele>
        <time>2020-06-17T14:22:33Z</time>
      </trkpt>
      <trkpt lat="49.37263" lon="0.08491">
        <ele>16.8</ele>
        <time>2020-06-17T14:22:34Z</time>
      </trkpt>
      <trkpt lat="49.37264" lon="0.08492">
        <ele>16.8</ele>
        <time>2020-06-17T14:22:35Z</time>
      </trkpt>
      <trkpt lat="49.37264" lon="0.08492">
        <ele>16.8</ele>
        <time>2020-06-17T14:22:36Z</time>
      </trkpt>
      <trkpt lat="49.37264" lon="0.08492">
        <ele>16.8</ele>
        <time>2020-06-17T14:22:37Z</time>
      </trkpt>
      <trkpt lat="49.37266" lon="0.08494">
        <ele>17</ele>
        <time>2020-06-17T14:22:38Z</time>
      </trkpt>
      <trkpt lat="49.37267" lon="0.08495">
        <ele>17</ele>
        <time>2020-06-17T14:22:39Z</time>
      </trkpt>
      <trkpt lat="49.37267" lon="0.08495">
        <ele>17</ele>
        <time>2020-06-17T14:22:40Z</time>
      </trkpt>
      <trkpt lat="49.37267" lon="0.08495">
        <ele>17</ele>
        <time>2020-06-17T14:22:41Z</time>
      </trkpt>
      <trkpt lat="49.37267" lon="0.08495">
        <ele>17</ele>
        <time>2020-06-17T14:22:42Z</time>
      </trkpt>
      <trkpt lat="49.37266" lon="0.08495">
        <ele>17.1</ele>
        <time>2020-06-17T14:22:43Z</time>
      </trkpt>
      <trkpt lat="49.37265" lon="0.08495">
        <ele>17.1</ele>
        <time>2020-06-17T14:22:44Z</time>
      </trkpt>
      <trkpt lat="49.37265" lon="0.08494">
        <ele>17.2</ele>
        <time>2020-06-17T14:22:45Z</time>
      </trkpt>
      <trkpt lat="49.37264" lon="0.08493">
        <ele>17.3</ele>
        <time>2020-06-17T14:22:46Z</time>
      </trkpt>
      <trkpt lat="49.37264" lon="0.08493">
        <ele>17.3</ele>
        <time>2020-06-17T14:22:47Z</time>
      </trkpt>
      <trkpt lat="49.37264" lon="0.08493">
        <ele>17.3</ele>
        <time>2020-06-17T14:22:48Z</time>
      </trkpt>
      <trkpt lat="49.37264" lon="0.08492">
        <ele>17.3</ele>
        <time>2020-06-17T14:22:49Z</time>
      </trkpt>
      <trkpt lat="49.37265" lon="0.08492">
        <ele>17.3</ele>
        <time>2020-06-17T14:22:50Z</time>
      </trkpt>
      <trkpt lat="49.37264" lon="0.08492">
        <ele>17.4</ele>
        <time>2020-06-17T14:22:51Z</time>
      </trkpt>
      <trkpt lat="49.37264" lon="0.08492">
        <ele>17.4</ele>
        <time>2020-06-17T14:22:52Z</time>
      </trkpt>
      <trkpt lat="49.37265" lon="0.08492">
        <ele>17.4</ele>
        <time>2020-06-17T14:22:53Z</time>
      </trkpt>
      <trkpt lat="49.37265" lon="0.08492">
        <ele>17.4</ele>
        <time>2020-06-17T14:22:54Z</time>
      </trkpt>
      <trkpt lat="49.37265" lon="0.08491">
        <ele>17.5</ele>
        <time>2020-06-17T14:22:55Z</time>
      </trkpt>
      <trkpt lat="49.37266" lon="0.08491">
        <ele>17.5</ele>
        <time>2020-06-17T14:22:56Z</time>
      </trkpt>
      <trkpt lat="49.37267" lon="0.0849">
        <ele>17.6</ele>
        <time>2020-06-17T14:22:57Z</time>
      </trkpt>
      <trkpt lat="49.37268" lon="0.0849">
        <ele>17.6</ele>
        <time>2020-06-17T14:22:58Z</time>
      </trkpt>
      <trkpt lat="49.3727" lon="0.08488">
        <ele>17.8</ele>
        <time>2020-06-17T14:22:59Z</time>
      </trkpt>
      <trkpt lat="49.3727" lon="0.08487">
        <ele>17.9</ele>
        <time>2020-06-17T14:23:00Z</time>
      </trkpt>
      <trkpt lat="49.37271" lon="0.08487">
        <ele>17.9</ele>
        <time>2020-06-17T14:23:01Z</time>
      </trkpt>
      <trkpt lat="49.37271" lon="0.08487">
        <ele>17.9</ele>
        <time>2020-06-17T14:23:02Z</time>
      </trkpt>
      <trkpt lat="49.37271" lon="0.08487">
        <ele>17.9</ele>
        <time>2020-06-17T14:23:03Z</time>
      </trkpt>
      <trkpt lat="49.37271" lon="0.08487">
        <ele>17.9</ele>
        <time>2020-06-17T14:23:04Z</time>
      </trkpt>
      <trkpt lat="49.3727" lon="0.08487">
        <ele>18</ele>
        <time>2020-06-17T14:23:05Z</time>
      </trkpt>
      <trkpt lat="49.3727" lon="0.08487">
        <ele>18</ele>
        <time>2020-06-17T14:23:06Z</time>
      </trkpt>
      <trkpt lat="49.3727" lon="0.08487">
        <ele>18</ele>
        <time>2020-06-17T14:23:07Z</time>
      </trkpt>
      <trkpt lat="49.37269" lon="0.08487">
        <ele>18</ele>
        <time>2020-06-17T14:23:08Z</time>
      </trkpt>
      <trkpt lat="49.37269" lon="0.08487">
        <ele>18.1</ele>
        <time>2020-06-17T14:23:09Z</time>
      </trkpt>
      <trkpt lat="49.37269" lon="0.08488">
        <ele>18.1</ele>
        <time>2020-06-17T14:23:10Z</time>
      </trkpt>
      <trkpt lat="49.37268" lon="0.08488">
        <ele>18.1</ele>
        <time>2020-06-17T14:23:11Z</time>
      </trkpt>
      <trkpt lat="49.37268" lon="0.08488">
        <ele>18.2</ele>
        <time>2020-06-17T14:23:12Z</time>
      </trkpt>
      <trkpt lat="49.37268" lon="0.08488">
        <ele>18.2</ele>
        <time>2020-06-17T14:23:13Z</time>
      </trkpt>
      <trkpt lat="49.37253" lon="0.08487">
        <ele>19.3</ele>
        <time>2020-06-17T14:25:35Z</time>
      </trkpt>
      <trkpt lat="49.37252" lon="0.08488">
        <ele>19.3</ele>
        <time>2020-06-17T14:25:36Z</time>
      </trkpt>
      <trkpt lat="49.37252" lon="0.08488">
        <ele>19.3</ele>
        <time>2020-06-17T14:25:37Z</time>
      </trkpt>
      <trkpt lat="49.37252" lon="0.08488">
        <ele>19.4</ele>
        <time>2020-06-17T14:25:38Z</time>
      </trkpt>
      <trkpt lat="49.37251" lon="0.08488">
        <ele>19.4</ele>
        <time>2020-06-17T14:25:39Z</time>
      </trkpt>
      <trkpt lat="49.3725" lon="0.08488">
        <ele>19.5</ele>
        <time>2020-06-17T14:25:40Z</time>
      </trkpt>
      <trkpt lat="49.37249" lon="0.08488">
        <ele>19.5</ele>
        <time>2020-06-17T14:25:41Z</time>
      </trkpt>
      <trkpt lat="49.37248" lon="0.08488">
        <ele>19.6</ele>
        <time>2020-06-17T14:25:42Z</time>
      </trkpt>
      <trkpt lat="49.37248" lon="0.08488">
        <ele>19.6</ele>
        <time>2020-06-17T14:25:43Z</time>
      </trkpt>
      <trkpt lat="49.37248" lon="0.08488">
        <ele>19.6</ele>
        <time>2020-06-17T14:25:44Z</time>
      </trkpt>
      <trkpt lat="49.37247" lon="0.08488">
        <ele>19.7</ele>
        <time>2020-06-17T14:25:45Z</time>
      </trkpt>
      <trkpt lat="49.37248" lon="0.08488">
        <ele>19.7</ele>
        <time>2020-06-17T14:25:46Z</time>
      </trkpt>
      <trkpt lat="49.37248" lon="0.08488">
        <ele>19.7</ele>
        <time>2020-06-17T14:25:47Z</time>
      </trkpt>
      <trkpt lat="49.37248" lon="0.08488">
        <ele>19.7</ele>
        <time>2020-06-17T14:25:48Z</time>
      </trkpt>
      <trkpt lat="49.37247" lon="0.08488">
        <ele>19.7</ele>
        <time>2020-06-17T14:25:49Z</time>
      </trkpt>
      <trkpt lat="49.37247" lon="0.08489">
        <ele>19.8</ele>
        <time>2020-06-17T14:25:50Z</time>
      </trkpt>
      <trkpt lat="49.37247" lon="0.08489">
        <ele>19.8</ele>
        <time>2020-06-17T14:25:51Z</time>
      </trkpt>
      <trkpt lat="49.37247" lon="0.0849">
        <ele>19.9</ele>
        <time>2020-06-17T14:25:52Z</time>
      </trkpt>
      <trkpt lat="49.37246" lon="0.08491">
        <ele>19.9</ele>
        <time>2020-06-17T14:25:53Z</time>
      </trkpt>
      <trkpt lat="49.37245" lon="0.08492">
        <ele>20</ele>
        <time>2020-06-17T14:25:54Z</time>
      </trkpt>
      <trkpt lat="49.37245" lon="0.08493">
        <ele>20</ele>
        <time>2020-06-17T14:25:55Z</time>
      </trkpt>
      <trkpt lat="49.37244" lon="0.08494">
        <ele>20.1</ele>
        <time>2020-06-17T14:25:56Z</time>
      </trkpt>
      <trkpt lat="49.37244" lon="0.08495">
        <ele>20.2</ele>
        <time>2020-06-17T14:25:57Z</time>
      </trkpt>
      <trkpt lat="49.37243" lon="0.08496">
        <ele>20.2</ele>
        <time>2020-06-17T14:25:58Z</time>
      </trkpt>
      <trkpt lat="49.37244" lon="0.08498">
        <ele>20.3</ele>
        <time>2020-06-17T14:25:59Z</time>
      </trkpt>
      <trkpt lat="49.37246" lon="0.08498">
        <ele>20.4</ele>
        <time>2020-06-17T14:26:00Z</time>
      </trkpt>
      <trkpt lat="49.37247" lon="0.08498">
        <ele>20.5</ele>
        <time>2020-06-17T14:26:01Z</time>
      </trkpt>
      <trkpt lat="49.37249" lon="0.08498">
        <ele>20.6</ele>
        <time>2020-06-17T14:26:02Z</time>
      </trkpt>
      <trkpt lat="49.3725" lon="0.08499">
        <ele>20.7</ele>
        <time>2020-06-17T14:26:03Z</time>
      </trkpt>
      <trkpt lat="49.37252" lon="0.08499">
        <ele>20.8</ele>
        <time>2020-06-17T14:26:04Z</time>
      </trkpt>
      <trkpt lat="49.37253" lon="0.08499">
        <ele>20.9</ele>
        <time>2020-06-17T14:26:05Z</time>
      </trkpt>
      <trkpt lat="49.37255" lon="0.085">
        <ele>21.1</ele>
        <time>2020-06-17T14:26:06Z</time>
      </trkpt>
      <trkpt lat="49.37256" lon="0.085">
        <ele>21.2</ele>
        <time>2020-06-17T14:26:07Z</time>
      </trkpt>
      <trkpt lat="49.37258" lon="0.085">
        <ele>21.3</ele>
        <time>2020-06-17T14:26:08Z</time>
      </trkpt>
      <trkpt lat="49.37259" lon="0.08501">
        <ele>21.4</ele>
        <time>2020-06-17T14:26:09Z</time>
      </trkpt>
      <trkpt lat="49.37261" lon="0.08501">
        <ele>21.5</ele>
        <time>2020-06-17T14:30:49Z</time>
      </trkpt>
      <trkpt lat="49.37263" lon="0.08501">
        <ele>21.6</ele>
        <time>2020-06-17T14:30:50Z</time>
      </trkpt>
      <trkpt lat="49.37265" lon="0.08504">
        <ele>21.8</ele>
        <time>2020-06-17T14:30:51Z</time>
      </trkpt>
      <trkpt lat="49.37266" lon="0.08506">
        <ele>21.9</ele>
        <time>2020-06-17T14:30:52Z</time>
      </trkpt>
      <trkpt lat="49.37268" lon="0.08509">
        <ele>22.1</ele>
        <time>2020-06-17T14:30:53Z</time>
      </trkpt>
      <trkpt lat="49.3727" lon="0.08512">
        <ele>22.4</ele>
        <time>2020-06-17T14:30:54Z</time>
      </trkpt>
      <trkpt lat="49.37271" lon="0.08513">
        <ele>22.5</ele>
        <time>2020-06-17T14:30:55Z</time>
      </trkpt>
      <trkpt lat="49.37274" lon="0.08517">
        <ele>22.7</ele>
        <time>2020-06-17T14:30:56Z</time>
      </trkpt>
      <trkpt lat="49.37276" lon="0.08518">
        <ele>22.8</ele>
        <time>2020-06-17T14:30:57Z</time>
      </trkpt>
      <trkpt lat="49.37278" lon="0.0852">
        <ele>23.1</ele>
        <time>2020-06-17T14:30:58Z</time>
      </trkpt>
      <trkpt lat="49.37282" lon="0.08523">
        <ele>23.3</ele>
        <time>2020-06-17T14:30:59Z</time>
      </trkpt>
      <trkpt lat="49.37283" lon="0.08524">
        <ele>23.4</ele>
        <time>2020-06-17T14:31:00Z</time>
      </trkpt>
      <trkpt lat="49.37286" lon="0.08527">
        <ele>23.7</ele>
        <time>2020-06-17T14:31:01Z</time>
      </trkpt>
      <trkpt lat="49.3729" lon="0.0853">
        <ele>24</ele>
        <time>2020-06-17T14:31:02Z</time>
      </trkpt>
      <trkpt lat="49.37293" lon="0.08532">
        <ele>24.2</ele>
        <time>2020-06-17T14:31:03Z</time>
      </trkpt>
      <trkpt lat="49.37296" lon="0.08534">
        <ele>24.5</ele>
        <time>2020-06-17T14:31:04Z</time>
      </trkpt>
      <trkpt lat="49.37299" lon="0.08537">
        <ele>24.7</ele>
        <time>2020-06-17T14:31:05Z</time>
      </trkpt>
      <trkpt lat="49.37302" lon="0.08539">
        <ele>24.9</ele>
        <time>2020-06-17T14:31:06Z</time>
      </trkpt>
      <trkpt lat="49.37305" lon="0.08543">
        <ele>25.2</ele>
        <time>2020-06-17T14:31:07Z</time>
      </trkpt>
      <trkpt lat="49.37306" lon="0.08544">
        <ele>25.3</ele>
        <time>2020-06-17T14:31:08Z</time>
      </trkpt>
      <trkpt lat="49.37309" lon="0.08548">
        <ele>25.6</ele>
        <time>2020-06-17T14:31:09Z</time>
      </trkpt>
      <trkpt lat="49.37312" lon="0.0855">
        <ele>25.9</ele>
        <time>2020-06-17T14:31:10Z</time>
      </trkpt>
      <trkpt lat="49.37314" lon="0.08551">
        <ele>26</ele>
        <time>2020-06-17T14:31:11Z</time>
      </trkpt>
      <trkpt lat="49.37317" lon="0.08555">
        <ele>26.3</ele>
        <time>2020-06-17T14:31:12Z</time>
      </trkpt>
      <trkpt lat="49.37319" lon="0.08557">
        <ele>26.4</ele>
        <time>2020-06-17T14:31:13Z</time>
      </trkpt>
      <trkpt lat="49.37321" lon="0.08559">
        <ele>26.6</ele>
        <time>2020-06-17T14:31:14Z</time>
      </trkpt>
      <trkpt lat="49.37323" lon="0.08563">
        <ele>26.9</ele>
        <time>2020-06-17T14:31:15Z</time>
      </trkpt>
      <trkpt lat="49.37326" lon="0.08563">
        <ele>27.1</ele>
        <time>2020-06-17T14:31:16Z</time>
      </trkpt>
      <trkpt lat="49.37328" lon="0.08564">
        <ele>27.2</ele>
        <time>2020-06-17T14:31:17Z</time>
      </trkpt>
      <trkpt lat="49.3733" lon="0.08566">
        <ele>27.4</ele>
        <time>2020-06-17T14:31:18Z</time>
      </trkpt>
      <trkpt lat="49.37331" lon="0.08566">
        <ele>27.5</ele>
        <time>2020-06-17T14:31:19Z</time>
      </trkpt>
      <trkpt lat="49.37334" lon="0.08568">
        <ele>27.7</ele>
        <time>2020-06-17T14:31:20Z</time>
      </trkpt>
      <trkpt lat="49.37335" lon="0.08569">
        <ele>27.8</ele>
        <time>2020-06-17T14:31:21Z</time>
      </trkpt>
      <trkpt lat="49.37338" lon="0.08571">
        <ele>28</ele>
        <time>2020-06-17T14:31:22Z</time>
      </trkpt>
      <trkpt lat="49.37341" lon="0.08574">
        <ele>28.3</ele>
        <time>2020-06-17T14:31:23Z</time>
      </trkpt>
      <trkpt lat="49.37344" lon="0.08575">
        <ele>28.5</ele>
        <time>2020-06-17T14:31:24Z</time>
      </trkpt>
      <trkpt lat="49.37347" lon="0.08578">
        <ele>28.7</ele>
        <time>2020-06-17T14:31:25Z</time>
      </trkpt>
      <trkpt lat="49.3735" lon="0.0858">
        <ele>29</ele>
        <time>2020-06-17T14:31:26Z</time>
      </trkpt>
      <trkpt lat="49.37353" lon="0.08583">
        <ele>29.3</ele>
        <time>2020-06-17T14:31:27Z</time>
      </trkpt>
      <trkpt lat="49.37356" lon="0.08586">
        <ele>29.5</ele>
        <time>2020-06-17T14:31:28Z</time>
      </trkpt>
      <trkpt lat="49.37359" lon="0.08589">
        <ele>29.8</ele>
        <time>2020-06-17T14:31:29Z</time>
      </trkpt>
      <trkpt lat="49.37362" lon="0.08593">
        <ele>30.1</ele>
        <time>2020-06-17T14:31:30Z</time>
      </trkpt>
      <trkpt lat="49.37363" lon="0.08594">
        <ele>30.2</ele>
        <time>2020-06-17T14:31:31Z</time>
      </trkpt>
      <trkpt lat="49.37367" lon="0.08596">
        <ele>30.5</ele>
        <time>2020-06-17T14:31:32Z</time>
      </trkpt>
      <trkpt lat="49.3737" lon="0.08598">
        <ele>30.8</ele>
        <time>2020-06-17T14:31:33Z</time>
      </trkpt>
      <trkpt lat="49.37371" lon="0.08598">
        <ele>30.9</ele>
        <time>2020-06-17T14:31:34Z</time>
      </trkpt>
      <trkpt lat="49.37374" lon="0.086">
        <ele>31.1</ele>
        <time>2020-06-17T14:31:35Z</time>
      </trkpt>
      <trkpt lat="49.37375" lon="0.08601">
        <ele>31.2</ele>
        <time>2020-06-17T14:31:36Z</time>
      </trkpt>
      <trkpt lat="49.37378" lon="0.08604">
        <ele>31.5</ele>
        <time>2020-06-17T14:31:37Z</time>
      </trkpt>
      <trkpt lat="49.3738" lon="0.08606">
        <ele>31.6</ele>
        <time>2020-06-17T14:31:38Z</time>
      </trkpt>
      <trkpt lat="49.37382" lon="0.08609">
        <ele>31.8</ele>
        <time>2020-06-17T14:31:39Z</time>
      </trkpt>
      <trkpt lat="49.37384" lon="0.08611">
        <ele>32.1</ele>
        <time>2020-06-17T14:31:40Z</time>
      </trkpt>
      <trkpt lat="49.37388" lon="0.08613">
        <ele>32.3</ele>
        <time>2020-06-17T14:31:41Z</time>
      </trkpt>
      <trkpt lat="49.37389" lon="0.08614">
        <ele>32.4</ele>
        <time>2020-06-17T14:31:42Z</time>
      </trkpt>
      <trkpt lat="49.37392" lon="0.08616">
        <ele>32.7</ele>
        <time>2020-06-17T14:31:43Z</time>
      </trkpt>
      <trkpt lat="49.37393" lon="0.08617">
        <ele>32.8</ele>
        <time>2020-06-17T14:31:44Z</time>
      </trkpt>
      <trkpt lat="49.37396" lon="0.08619">
        <ele>33</ele>
        <time>2020-06-17T14:31:45Z</time>
      </trkpt>
      <trkpt lat="49.37397" lon="0.0862">
        <ele>33.1</ele>
        <time>2020-06-17T14:31:46Z</time>
      </trkpt>
      <trkpt lat="49.374" lon="0.08624">
        <ele>33.4</ele>
        <time>2020-06-17T14:31:47Z</time>
      </trkpt>
      <trkpt lat="49.37403" lon="0.08626">
        <ele>33.7</ele>
        <time>2020-06-17T14:31:48Z</time>
      </trkpt>
      <trkpt lat="49.37407" lon="0.08629">
        <ele>34</ele>
        <time>2020-06-17T14:31:49Z</time>
      </trkpt>
      <trkpt lat="49.37409" lon="0.08629">
        <ele>34.2</ele>
        <time>2020-06-17T14:31:50Z</time>
      </trkpt>
      <trkpt lat="49.3741" lon="0.0863">
        <ele>34.3</ele>
        <time>2020-06-17T14:31:51Z</time>
      </trkpt>
      <trkpt lat="49.37411" lon="0.08632">
        <ele>34.4</ele>
        <time>2020-06-17T14:31:52Z</time>
      </trkpt>
      <trkpt lat="49.37414" lon="0.08637">
        <ele>34.8</ele>
        <time>2020-06-17T14:31:53Z</time>
      </trkpt>
      <trkpt lat="49.37415" lon="0.08638">
        <ele>34.9</ele>
        <time>2020-06-17T14:31:54Z</time>
      </trkpt>
      <trkpt lat="49.37418" lon="0.08642">
        <ele>35.2</ele>
        <time>2020-06-17T14:31:55Z</time>
      </trkpt>
      <trkpt lat="49.37419" lon="0.08643">
        <ele>35.3</ele>
        <time>2020-06-17T14:31:56Z</time>
      </trkpt>
      <trkpt lat="49.37422" lon="0.08646">
        <ele>35.6</ele>
        <time>2020-06-17T14:31:57Z</time>
      </trkpt>
      <trkpt lat="49.37423" lon="0.08647">
        <ele>35.7</ele>
        <time>2020-06-17T14:31:58Z</time>
      </trkpt>
      <trkpt lat="49.37426" lon="0.0865">
        <ele>36</ele>
        <time>2020-06-17T14:31:59Z</time>
      </trkpt>
      <trkpt lat="49.37427" lon="0.08651">
        <ele>36.1</ele>
        <time>2020-06-17T14:32:00Z</time>
      </trkpt>
      <trkpt lat="49.37429" lon="0.08654">
        <ele>36.4</ele>
        <time>2020-06-17T14:32:01Z</time>
      </trkpt>
      <trkpt lat="49.37431" lon="0.08658">
        <ele>36.7</ele>
        <time>2020-06-17T14:32:02Z</time>
      </trkpt>
      <trkpt lat="49.37434" lon="0.0866">
        <ele>37</ele>
        <time>2020-06-17T14:32:03Z</time>
      </trkpt>
      <trkpt lat="49.37435" lon="0.08661">
        <ele>37.1</ele>
        <time>2020-06-17T14:32:04Z</time>
      </trkpt>
      <trkpt lat="49.37437" lon="0.08664">
        <ele>37.3</ele>
        <time>2020-06-17T14:32:05Z</time>
      </trkpt>
      <trkpt lat="49.3744" lon="0.08668">
        <ele>37.7</ele>
        <time>2020-06-17T14:32:06Z</time>
      </trkpt>
      <trkpt lat="49.37441" lon="0.08669">
        <ele>37.7</ele>
        <time>2020-06-17T14:32:07Z</time>
      </trkpt>
      <trkpt lat="49.37444" lon="0.08672">
        <ele>38</ele>
        <time>2020-06-17T14:32:08Z</time>
      </trkpt>
      <trkpt lat="49.37447" lon="0.08675">
        <ele>38.4</ele>
        <time>2020-06-17T14:32:09Z</time>
      </trkpt>
      <trkpt lat="49.37448" lon="0.08677">
        <ele>38.5</ele>
        <time>2020-06-17T14:32:10Z</time>
      </trkpt>
      <trkpt lat="49.37451" lon="0.0868">
        <ele>38.9</ele>
        <time>2020-06-17T14:32:11Z</time>
      </trkpt>
      <trkpt lat="49.37453" lon="0.08682">
        <ele>39</ele>
        <time>2020-06-17T14:32:12Z</time>
      </trkpt>
      <trkpt lat="49.37455" lon="0.08684">
        <ele>39.3</ele>
        <time>2020-06-17T14:32:13Z</time>
      </trkpt>
      <trkpt lat="49.37458" lon="0.08687">
        <ele>39.6</ele>
        <time>2020-06-17T14:32:14Z</time>
      </trkpt>
      <trkpt lat="49.37459" lon="0.08688">
        <ele>39.7</ele>
        <time>2020-06-17T14:32:15Z</time>
      </trkpt>
      <trkpt lat="49.37461" lon="0.08691">
        <ele>39.9</ele>
        <time>2020-06-17T14:32:16Z</time>
      </trkpt>
      <trkpt lat="49.37461" lon="0.08692">
        <ele>40</ele>
        <time>2020-06-17T14:32:17Z</time>
      </trkpt>
      <trkpt lat="49.37463" lon="0.08696">
        <ele>40.3</ele>
        <time>2020-06-17T14:32:18Z</time>
      </trkpt>
      <trkpt lat="49.37464" lon="0.08698">
        <ele>40.5</ele>
        <time>2020-06-17T14:32:19Z</time>
      </trkpt>
      <trkpt lat="49.37467" lon="0.08702">
        <ele>40.8</ele>
        <time>2020-06-17T14:32:20Z</time>
      </trkpt>
      <trkpt lat="49.37468" lon="0.08704">
        <ele>40.9</ele>
        <time>2020-06-17T14:32:21Z</time>
      </trkpt>
      <trkpt lat="49.3747" lon="0.08706">
        <ele>41.2</ele>
        <time>2020-06-17T14:32:22Z</time>
      </trkpt>
      <trkpt lat="49.37474" lon="0.08709">
        <ele>41.6</ele>
        <time>2020-06-17T14:32:23Z</time>
      </trkpt>
      <trkpt lat="49.37475" lon="0.0871">
        <ele>41.7</ele>
        <time>2020-06-17T14:32:24Z</time>
      </trkpt>
      <trkpt lat="49.37479" lon="0.08713">
        <ele>42</ele>
        <time>2020-06-17T14:32:25Z</time>
      </trkpt>
      <trkpt lat="49.3748" lon="0.08714">
        <ele>42.1</ele>
        <time>2020-06-17T14:32:26Z</time>
      </trkpt>
      <trkpt lat="49.37482" lon="0.08717">
        <ele>42.5</ele>
        <time>2020-06-17T14:32:27Z</time>
      </trkpt>
      <trkpt lat="49.37483" lon="0.08718">
        <ele>42.6</ele>
        <time>2020-06-17T14:32:28Z</time>
      </trkpt>
      <trkpt lat="49.37486" lon="0.08722">
        <ele>42.9</ele>
        <time>2020-06-17T14:32:29Z</time>
      </trkpt>
      <trkpt lat="49.37486" lon="0.08724">
        <ele>43</ele>
        <time>2020-06-17T14:32:30Z</time>
      </trkpt>
      <trkpt lat="49.37489" lon="0.08728">
        <ele>43.3</ele>
        <time>2020-06-17T14:32:31Z</time>
      </trkpt>
      <trkpt lat="49.37489" lon="0.08729">
        <ele>43.4</ele>
        <time>2020-06-17T14:32:32Z</time>
      </trkpt>
      <trkpt lat="49.37492" lon="0.08732">
        <ele>43.7</ele>
        <time>2020-06-17T14:32:33Z</time>
      </trkpt>
      <trkpt lat="49.37493" lon="0.08733">
        <ele>43.8</ele>
        <time>2020-06-17T14:32:34Z</time>
      </trkpt>
      <trkpt lat="49.37494" lon="0.08737">
        <ele>44</ele>
        <time>2020-06-17T14:32:35Z</time>
      </trkpt>
      <trkpt lat="49.37494" lon="0.08738">
        <ele>44.1</ele>
        <time>2020-06-17T14:32:36Z</time>
      </trkpt>
      <trkpt lat="49.37496" lon="0.08742">
        <ele>44.4</ele>
        <time>2020-06-17T14:32:37Z</time>
      </trkpt>
      <trkpt lat="49.37497" lon="0.08743">
        <ele>44.5</ele>
        <time>2020-06-17T14:32:38Z</time>
      </trkpt>
      <trkpt lat="49.37499" lon="0.08747">
        <ele>44.7</ele>
        <time>2020-06-17T14:32:39Z</time>
      </trkpt>
      <trkpt lat="49.375" lon="0.08748">
        <ele>44.8</ele>
        <time>2020-06-17T14:32:40Z</time>
      </trkpt>
      <trkpt lat="49.37501" lon="0.08753">
        <ele>45.2</ele>
        <time>2020-06-17T14:32:41Z</time>
      </trkpt>
      <trkpt lat="49.37502" lon="0.08755">
        <ele>45.3</ele>
        <time>2020-06-17T14:32:42Z</time>
      </trkpt>
      <trkpt lat="49.37504" lon="0.0876">
        <ele>45.6</ele>
        <time>2020-06-17T14:32:43Z</time>
      </trkpt>
      <trkpt lat="49.37504" lon="0.08762">
        <ele>45.7</ele>
        <time>2020-06-17T14:32:44Z</time>
      </trkpt>
      <trkpt lat="49.37506" lon="0.08765">
        <ele>45.9</ele>
        <time>2020-06-17T14:32:45Z</time>
      </trkpt>
      <trkpt lat="49.37507" lon="0.08767">
        <ele>46</ele>
        <time>2020-06-17T14:32:46Z</time>
      </trkpt>
      <trkpt lat="49.37508" lon="0.0877">
        <ele>46.2</ele>
        <time>2020-06-17T14:32:47Z</time>
      </trkpt>
      <trkpt lat="49.37508" lon="0.08772">
        <ele>46.3</ele>
        <time>2020-06-17T14:32:48Z</time>
      </trkpt>
      <trkpt lat="49.37511" lon="0.08776">
        <ele>46.6</ele>
        <time>2020-06-17T14:32:49Z</time>
      </trkpt>
      <trkpt lat="49.37512" lon="0.08777">
        <ele>46.7</ele>
        <time>2020-06-17T14:32:50Z</time>
      </trkpt>
      <trkpt lat="49.37513" lon="0.08781">
        <ele>46.9</ele>
        <time>2020-06-17T14:32:51Z</time>
      </trkpt>
      <trkpt lat="49.37514" lon="0.08787">
        <ele>47.2</ele>
        <time>2020-06-17T14:32:52Z</time>
      </trkpt>
      <trkpt lat="49.37514" lon="0.08788">
        <ele>47.3</ele>
        <time>2020-06-17T14:32:53Z</time>
      </trkpt>
      <trkpt lat="49.37516" lon="0.08792">
        <ele>47.6</ele>
        <time>2020-06-17T14:32:54Z</time>
      </trkpt>
      <trkpt lat="49.37516" lon="0.08793">
        <ele>47.6</ele>
        <time>2020-06-17T14:32:55Z</time>
      </trkpt>
      <trkpt lat="49.37519" lon="0.08796">
        <ele>47.9</ele>
        <time>2020-06-17T14:32:56Z</time>
      </trkpt>
      <trkpt lat="49.37519" lon="0.08798">
        <ele>48</ele>
        <time>2020-06-17T14:32:57Z</time>
      </trkpt>
      <trkpt lat="49.37521" lon="0.08802">
        <ele>48.2</ele>
        <time>2020-06-17T14:32:58Z</time>
      </trkpt>
      <trkpt lat="49.37522" lon="0.08803">
        <ele>48.3</ele>
        <time>2020-06-17T14:32:59Z</time>
      </trkpt>
      <trkpt lat="49.37522" lon="0.08805">
        <ele>48.4</ele>
        <time>2020-06-17T14:33:00Z</time>
      </trkpt>
      <trkpt lat="49.37523" lon="0.08808">
        <ele>48.6</ele>
        <time>2020-06-17T14:33:01Z</time>
      </trkpt>
      <trkpt lat="49.37525" lon="0.08812">
        <ele>48.8</ele>
        <time>2020-06-17T14:33:02Z</time>
      </trkpt>
      <trkpt lat="49.37526" lon="0.08813">
        <ele>48.9</ele>
        <time>2020-06-17T14:33:03Z</time>
      </trkpt>
      <trkpt lat="49.37528" lon="0.08818">
        <ele>49.2</ele>
        <time>2020-06-17T14:33:04Z</time>
      </trkpt>
      <trkpt lat="49.37529" lon="0.08819">
        <ele>49.3</ele>
        <time>2020-06-17T14:33:05Z</time>
      </trkpt>
      <trkpt lat="49.37531" lon="0.08823">
        <ele>49.6</ele>
        <time>2020-06-17T14:33:06Z</time>
      </trkpt>
      <trkpt lat="49.37531" lon="0.08824">
        <ele>49.7</ele>
        <time>2020-06-17T14:33:07Z</time>
      </trkpt>
      <trkpt lat="49.37532" lon="0.08828">
        <ele>49.9</ele>
        <time>2020-06-17T14:33:08Z</time>
      </trkpt>
      <trkpt lat="49.37533" lon="0.0883">
        <ele>50</ele>
        <time>2020-06-17T14:33:09Z</time>
      </trkpt>
      <trkpt lat="49.37535" lon="0.08834">
        <ele>50.3</ele>
        <time>2020-06-17T14:33:10Z</time>
      </trkpt>
      <trkpt lat="49.37536" lon="0.08836">
        <ele>50.4</ele>
        <time>2020-06-17T14:33:11Z</time>
      </trkpt>
      <trkpt lat="49.37538" lon="0.0884">
        <ele>50.7</ele>
        <time>2020-06-17T14:33:12Z</time>
      </trkpt>
      <trkpt lat="49.37539" lon="0.08841">
        <ele>50.8</ele>
        <time>2020-06-17T14:33:13Z</time>
      </trkpt>
      <trkpt lat="49.3754" lon="0.08847">
        <ele>51.1</ele>
        <time>2020-06-17T14:33:14Z</time>
      </trkpt>
      <trkpt lat="49.37541" lon="0.08848">
        <ele>51.7</ele>
        <time>2020-06-17T14:33:15Z</time>
      </trkpt>
      <trkpt lat="49.37543" lon="0.08854">
        <ele>52</ele>
        <time>2020-06-17T14:33:16Z</time>
      </trkpt>
      <trkpt lat="49.37543" lon="0.08855">
        <ele>52.1</ele>
        <time>2020-06-17T14:33:17Z</time>
      </trkpt>
      <trkpt lat="49.37545" lon="0.08859">
        <ele>52.3</ele>
        <time>2020-06-17T14:33:18Z</time>
      </trkpt>
      <trkpt lat="49.37545" lon="0.08861">
        <ele>52.4</ele>
        <time>2020-06-17T14:33:19Z</time>
      </trkpt>
      <trkpt lat="49.37547" lon="0.08866">
        <ele>52.7</ele>
        <time>2020-06-17T14:33:20Z</time>
      </trkpt>
      <trkpt lat="49.37547" lon="0.08867">
        <ele>52.8</ele>
        <time>2020-06-17T14:33:21Z</time>
      </trkpt>
      <trkpt lat="49.37548" lon="0.08872">
        <ele>53</ele>
        <time>2020-06-17T14:33:22Z</time>
      </trkpt>
      <trkpt lat="49.37548" lon="0.08874">
        <ele>53.1</ele>
        <time>2020-06-17T14:33:23Z</time>
      </trkpt>
      <trkpt lat="49.37548" lon="0.08879">
        <ele>53.4</ele>
        <time>2020-06-17T14:33:24Z</time>
      </trkpt>
      <trkpt lat="49.37549" lon="0.08885">
        <ele>53.7</ele>
        <time>2020-06-17T14:33:25Z</time>
      </trkpt>
      <trkpt lat="49.37549" lon="0.08887">
        <ele>53.8</ele>
        <time>2020-06-17T14:33:26Z</time>
      </trkpt>
      <trkpt lat="49.3755" lon="0.08892">
        <ele>54.1</ele>
        <time>2020-06-17T14:33:27Z</time>
      </trkpt>
      <trkpt lat="49.3755" lon="0.08893">
        <ele>54.2</ele>
        <time>2020-06-17T14:33:28Z</time>
      </trkpt>
      <trkpt lat="49.37551" lon="0.08899">
        <ele>54.5</ele>
        <time>2020-06-17T14:33:29Z</time>
      </trkpt>
      <trkpt lat="49.37552" lon="0.089">
        <ele>54.7</ele>
        <time>2020-06-17T14:33:30Z</time>
      </trkpt>
      <trkpt lat="49.37553" lon="0.08905">
        <ele>55</ele>
        <time>2020-06-17T14:33:31Z</time>
      </trkpt>
      <trkpt lat="49.37554" lon="0.08906">
        <ele>55.1</ele>
        <time>2020-06-17T14:33:32Z</time>
      </trkpt>
      <trkpt lat="49.37555" lon="0.08911">
        <ele>55.4</ele>
        <time>2020-06-17T14:33:33Z</time>
      </trkpt>
      <trkpt lat="49.37555" lon="0.08913">
        <ele>55.5</ele>
        <time>2020-06-17T14:33:34Z</time>
      </trkpt>
      <trkpt lat="49.37556" lon="0.08915">
        <ele>55.7</ele>
        <time>2020-06-17T14:33:35Z</time>
      </trkpt>
      <trkpt lat="49.37557" lon="0.08917">
        <ele>55.8</ele>
        <time>2020-06-17T14:33:36Z</time>
      </trkpt>
      <trkpt lat="49.37557" lon="0.08923">
        <ele>56.1</ele>
        <time>2020-06-17T14:33:37Z</time>
      </trkpt>
      <trkpt lat="49.37557" lon="0.08925">
        <ele>56.3</ele>
        <time>2020-06-17T14:33:38Z</time>
      </trkpt>
      <trkpt lat="49.37557" lon="0.08928">
        <ele>56.4</ele>
        <time>2020-06-17T14:33:39Z</time>
      </trkpt>
      <trkpt lat="49.37557" lon="0.0893">
        <ele>56.6</ele>
        <time>2020-06-17T14:33:40Z</time>
      </trkpt>
      <trkpt lat="49.37556" lon="0.08935">
        <ele>56.9</ele>
        <time>2020-06-17T14:33:41Z</time>
      </trkpt>
      <trkpt lat="49.37555" lon="0.08936">
        <ele>57</ele>
        <time>2020-06-17T14:33:42Z</time>
      </trkpt>
      <trkpt lat="49.37555" lon="0.0894">
        <ele>57.2</ele>
        <time>2020-06-17T14:33:43Z</time>
      </trkpt>
      <trkpt lat="49.37555" lon="0.08941">
        <ele>57.2</ele>
        <time>2020-06-17T14:33:44Z</time>
      </trkpt>
      <trkpt lat="49.37555" lon="0.08942">
        <ele>57.3</ele>
        <time>2020-06-17T14:33:45Z</time>
      </trkpt>
      <trkpt lat="49.37554" lon="0.08946">
        <ele>57.5</ele>
        <time>2020-06-17T14:33:46Z</time>
      </trkpt>
      <trkpt lat="49.37554" lon="0.08947">
        <ele>57.6</ele>
        <time>2020-06-17T14:33:47Z</time>
      </trkpt>
      <trkpt lat="49.37553" lon="0.0895">
        <ele>57.7</ele>
        <time>2020-06-17T14:33:48Z</time>
      </trkpt>
      <trkpt lat="49.37553" lon="0.08951">
        <ele>57.8</ele>
        <time>2020-06-17T14:33:49Z</time>
      </trkpt>
      <trkpt lat="49.37554" lon="0.08952">
        <ele>57.8</ele>
        <time>2020-06-17T14:33:50Z</time>
      </trkpt>
      <trkpt lat="49.37554" lon="0.08953">
        <ele>57.9</ele>
        <time>2020-06-17T14:33:51Z</time>
      </trkpt>
      <trkpt lat="49.37554" lon="0.08954">
        <ele>57.9</ele>
        <time>2020-06-17T14:33:52Z</time>
      </trkpt>
      <trkpt lat="49.37555" lon="0.08959">
        <ele>58.2</ele>
        <time>2020-06-17T14:33:53Z</time>
      </trkpt>
      <trkpt lat="49.37555" lon="0.08961">
        <ele>58.6</ele>
        <time>2020-06-17T14:33:54Z</time>
      </trkpt>
      <trkpt lat="49.37557" lon="0.08966">
        <ele>58.7</ele>
        <time>2020-06-17T14:33:55Z</time>
      </trkpt>
      <trkpt lat="49.37557" lon="0.08968">
        <ele>58.8</ele>
        <time>2020-06-17T14:33:56Z</time>
      </trkpt>
      <trkpt lat="49.37559" lon="0.08972">
        <ele>58.9</ele>
        <time>2020-06-17T14:33:57Z</time>
      </trkpt>
      <trkpt lat="49.3756" lon="0.08977">
        <ele>59.1</ele>
        <time>2020-06-17T14:33:58Z</time>
      </trkpt>
      <trkpt lat="49.37561" lon="0.08981">
        <ele>59.2</ele>
        <time>2020-06-17T14:33:59Z</time>
      </trkpt>
      <trkpt lat="49.37563" lon="0.08986">
        <ele>59.4</ele>
        <time>2020-06-17T14:34:00Z</time>
      </trkpt>
      <trkpt lat="49.37564" lon="0.08991">
        <ele>59.6</ele>
        <time>2020-06-17T14:34:01Z</time>
      </trkpt>
      <trkpt lat="49.37566" lon="0.08996">
        <ele>59.7</ele>
        <time>2020-06-17T14:34:02Z</time>
      </trkpt>
      <trkpt lat="49.37567" lon="0.09">
        <ele>59.9</ele>
        <time>2020-06-17T14:34:03Z</time>
      </trkpt>
      <trkpt lat="49.37568" lon="0.09005">
        <ele>60.1</ele>
        <time>2020-06-17T14:34:04Z</time>
      </trkpt>
      <trkpt lat="49.37569" lon="0.09008">
        <ele>60.2</ele>
        <time>2020-06-17T14:34:05Z</time>
      </trkpt>
      <trkpt lat="49.3757" lon="0.09013">
        <ele>60.4</ele>
        <time>2020-06-17T14:34:06Z</time>
      </trkpt>
      <trkpt lat="49.3757" lon="0.09015">
        <ele>60.4</ele>
        <time>2020-06-17T14:34:07Z</time>
      </trkpt>
      <trkpt lat="49.37572" lon="0.0902">
        <ele>60.7</ele>
        <time>2020-06-17T14:34:08Z</time>
      </trkpt>
      <trkpt lat="49.37573" lon="0.09022">
        <ele>60.8</ele>
        <time>2020-06-17T14:34:09Z</time>
      </trkpt>
      <trkpt lat="49.37575" lon="0.09026">
        <ele>60.9</ele>
        <time>2020-06-17T14:34:10Z</time>
      </trkpt>
      <trkpt lat="49.37576" lon="0.0903">
        <ele>61.1</ele>
        <time>2020-06-17T14:34:11Z</time>
      </trkpt>
      <trkpt lat="49.37577" lon="0.09034">
        <ele>61.3</ele>
        <time>2020-06-17T14:34:12Z</time>
      </trkpt>
      <trkpt lat="49.37578" lon="0.09038">
        <ele>61.4</ele>
        <time>2020-06-17T14:34:13Z</time>
      </trkpt>
      <trkpt lat="49.3758" lon="0.09043">
        <ele>61.6</ele>
        <time>2020-06-17T14:34:14Z</time>
      </trkpt>
      <trkpt lat="49.37581" lon="0.09047">
        <ele>61.8</ele>
        <time>2020-06-17T14:34:15Z</time>
      </trkpt>
      <trkpt lat="49.37582" lon="0.09051">
        <ele>61.9</ele>
        <time>2020-06-17T14:34:16Z</time>
      </trkpt>
      <trkpt lat="49.37584" lon="0.09057">
        <ele>62.2</ele>
        <time>2020-06-17T14:34:17Z</time>
      </trkpt>
      <trkpt lat="49.37585" lon="0.09059">
        <ele>62.2</ele>
        <time>2020-06-17T14:34:18Z</time>
      </trkpt>
      <trkpt lat="49.37587" lon="0.09064">
        <ele>62.4</ele>
        <time>2020-06-17T14:34:19Z</time>
      </trkpt>
      <trkpt lat="49.37587" lon="0.09065">
        <ele>62.5</ele>
        <time>2020-06-17T14:34:20Z</time>
      </trkpt>
      <trkpt lat="49.37588" lon="0.09069">
        <ele>62.7</ele>
        <time>2020-06-17T14:34:21Z</time>
      </trkpt>
      <trkpt lat="49.3759" lon="0.09074">
        <ele>62.8</ele>
        <time>2020-06-17T14:34:22Z</time>
      </trkpt>
      <trkpt lat="49.37591" lon="0.09078">
        <ele>63</ele>
        <time>2020-06-17T14:34:23Z</time>
      </trkpt>
      <trkpt lat="49.37592" lon="0.09082">
        <ele>63.1</ele>
        <time>2020-06-17T14:34:24Z</time>
      </trkpt>
      <trkpt lat="49.37594" lon="0.09087">
        <ele>63.3</ele>
        <time>2020-06-17T14:34:25Z</time>
      </trkpt>
      <trkpt lat="49.37595" lon="0.0909">
        <ele>63.4</ele>
        <time>2020-06-17T14:34:26Z</time>
      </trkpt>
      <trkpt lat="49.37597" lon="0.09094">
        <ele>63.6</ele>
        <time>2020-06-17T14:34:27Z</time>
      </trkpt>
      <trkpt lat="49.37599" lon="0.091">
        <ele>63.8</ele>
        <time>2020-06-17T14:34:28Z</time>
      </trkpt>
      <trkpt lat="49.37601" lon="0.09104">
        <ele>64</ele>
        <time>2020-06-17T14:34:29Z</time>
      </trkpt>
      <trkpt lat="49.37603" lon="0.09108">
        <ele>64.1</ele>
        <time>2020-06-17T14:34:30Z</time>
      </trkpt>
      <trkpt lat="49.37604" lon="0.09112">
        <ele>64.3</ele>
        <time>2020-06-17T14:34:31Z</time>
      </trkpt>
      <trkpt lat="49.37606" lon="0.09116">
        <ele>64.4</ele>
        <time>2020-06-17T14:34:32Z</time>
      </trkpt>
      <trkpt lat="49.37608" lon="0.09121">
        <ele>64.6</ele>
        <time>2020-06-17T14:34:33Z</time>
      </trkpt>
      <trkpt lat="49.37609" lon="0.09126">
        <ele>64.8</ele>
        <time>2020-06-17T14:34:34Z</time>
      </trkpt>
      <trkpt lat="49.37611" lon="0.09131">
        <ele>65</ele>
        <time>2020-06-17T14:34:35Z</time>
      </trkpt>
      <trkpt lat="49.37613" lon="0.09137">
        <ele>65.2</ele>
        <time>2020-06-17T14:34:36Z</time>
      </trkpt>
      <trkpt lat="49.37615" lon="0.09141">
        <ele>65.3</ele>
        <time>2020-06-17T14:34:37Z</time>
      </trkpt>
      <trkpt lat="49.37616" lon="0.09146">
        <ele>65.5</ele>
        <time>2020-06-17T14:34:38Z</time>
      </trkpt>
      <trkpt lat="49.37617" lon="0.0915">
        <ele>65.7</ele>
        <time>2020-06-17T14:34:39Z</time>
      </trkpt>
      <trkpt lat="49.37619" lon="0.09154">
        <ele>65.9</ele>
        <time>2020-06-17T14:34:40Z</time>
      </trkpt>
      <trkpt lat="49.3762" lon="0.0916">
        <ele>66.1</ele>
        <time>2020-06-17T14:34:41Z</time>
      </trkpt>
      <trkpt lat="49.37621" lon="0.09163">
        <ele>66.2</ele>
        <time>2020-06-17T14:34:42Z</time>
      </trkpt>
      <trkpt lat="49.37622" lon="0.09167">
        <ele>66.4</ele>
        <time>2020-06-17T14:34:43Z</time>
      </trkpt>
      <trkpt lat="49.37624" lon="0.09172">
        <ele>66.6</ele>
        <time>2020-06-17T14:34:44Z</time>
      </trkpt>
      <trkpt lat="49.37626" lon="0.09178">
        <ele>66.9</ele>
        <time>2020-06-17T14:34:45Z</time>
      </trkpt>
      <trkpt lat="49.37628" lon="0.09184">
        <ele>67.1</ele>
        <time>2020-06-17T14:34:46Z</time>
      </trkpt>
      <trkpt lat="49.37628" lon="0.09186">
        <ele>67.2</ele>
        <time>2020-06-17T14:34:47Z</time>
      </trkpt>
      <trkpt lat="49.3763" lon="0.09189">
        <ele>67.4</ele>
        <time>2020-06-17T14:34:48Z</time>
      </trkpt>
      <trkpt lat="49.37632" lon="0.09193">
        <ele>67.5</ele>
        <time>2020-06-17T14:34:49Z</time>
      </trkpt>
      <trkpt lat="49.37634" lon="0.09196">
        <ele>67.7</ele>
        <time>2020-06-17T14:34:50Z</time>
      </trkpt>
      <trkpt lat="49.37635" lon="0.09201">
        <ele>67.9</ele>
        <time>2020-06-17T14:34:51Z</time>
      </trkpt>
      <trkpt lat="49.37636" lon="0.09206">
        <ele>68</ele>
        <time>2020-06-17T14:34:52Z</time>
      </trkpt>
      <trkpt lat="49.37637" lon="0.0921">
        <ele>68.2</ele>
        <time>2020-06-17T14:34:53Z</time>
      </trkpt>
      <trkpt lat="49.37639" lon="0.09215">
        <ele>68.4</ele>
        <time>2020-06-17T14:34:54Z</time>
      </trkpt>
      <trkpt lat="49.37641" lon="0.0922">
        <ele>68.5</ele>
        <time>2020-06-17T14:34:55Z</time>
      </trkpt>
      <trkpt lat="49.37643" lon="0.09226">
        <ele>68.7</ele>
        <time>2020-06-17T14:34:56Z</time>
      </trkpt>
      <trkpt lat="49.37644" lon="0.09231">
        <ele>68.9</ele>
        <time>2020-06-17T14:34:57Z</time>
      </trkpt>
      <trkpt lat="49.37645" lon="0.09236">
        <ele>69.1</ele>
        <time>2020-06-17T14:34:58Z</time>
      </trkpt>
      <trkpt lat="49.37647" lon="0.0924">
        <ele>69.3</ele>
        <time>2020-06-17T14:34:59Z</time>
      </trkpt>
      <trkpt lat="49.37649" lon="0.09245">
        <ele>69.4</ele>
        <time>2020-06-17T14:35:00Z</time>
      </trkpt>
      <trkpt lat="49.37651" lon="0.09249">
        <ele>69.6</ele>
        <time>2020-06-17T14:35:01Z</time>
      </trkpt>
      <trkpt lat="49.37653" lon="0.09254">
        <ele>69.8</ele>
        <time>2020-06-17T14:35:02Z</time>
      </trkpt>
      <trkpt lat="49.37655" lon="0.09259">
        <ele>70</ele>
        <time>2020-06-17T14:35:03Z</time>
      </trkpt>
      <trkpt lat="49.37656" lon="0.09263">
        <ele>70.1</ele>
        <time>2020-06-17T14:35:04Z</time>
      </trkpt>
      <trkpt lat="49.37658" lon="0.09268">
        <ele>70.3</ele>
        <time>2020-06-17T14:35:05Z</time>
      </trkpt>
      <trkpt lat="49.37659" lon="0.09273">
        <ele>70.5</ele>
        <time>2020-06-17T14:35:06Z</time>
      </trkpt>
      <trkpt lat="49.37661" lon="0.09277">
        <ele>70.6</ele>
        <time>2020-06-17T14:35:07Z</time>
      </trkpt>
      <trkpt lat="49.37662" lon="0.09281">
        <ele>70.8</ele>
        <time>2020-06-17T14:35:08Z</time>
      </trkpt>
      <trkpt lat="49.37664" lon="0.09284">
        <ele>70.9</ele>
        <time>2020-06-17T14:35:09Z</time>
      </trkpt>
      <trkpt lat="49.37667" lon="0.09289">
        <ele>71.2</ele>
        <time>2020-06-17T14:35:10Z</time>
      </trkpt>
      <trkpt lat="49.37668" lon="0.09291">
        <ele>71.3</ele>
        <time>2020-06-17T14:35:11Z</time>
      </trkpt>
      <trkpt lat="49.37669" lon="0.09297">
        <ele>71.4</ele>
        <time>2020-06-17T14:35:12Z</time>
      </trkpt>
      <trkpt lat="49.3767" lon="0.09299">
        <ele>71.5</ele>
        <time>2020-06-17T14:35:13Z</time>
      </trkpt>
      <trkpt lat="49.37671" lon="0.09303">
        <ele>71.6</ele>
        <time>2020-06-17T14:35:14Z</time>
      </trkpt>
      <trkpt lat="49.37673" lon="0.09305">
        <ele>71.7</ele>
        <time>2020-06-17T14:35:15Z</time>
      </trkpt>
      <trkpt lat="49.37675" lon="0.09309">
        <ele>71.8</ele>
        <time>2020-06-17T14:35:16Z</time>
      </trkpt>
      <trkpt lat="49.37677" lon="0.09315">
        <ele>71.9</ele>
        <time>2020-06-17T14:35:17Z</time>
      </trkpt>
      <trkpt lat="49.37678" lon="0.09321">
        <ele>72</ele>
        <time>2020-06-17T14:35:18Z</time>
      </trkpt>
      <trkpt lat="49.3768" lon="0.09327">
        <ele>72.2</ele>
        <time>2020-06-17T14:35:19Z</time>
      </trkpt>
      <trkpt lat="49.37682" lon="0.09332">
        <ele>72.2</ele>
        <time>2020-06-17T14:35:20Z</time>
      </trkpt>
      <trkpt lat="49.37684" lon="0.09338">
        <ele>72.3</ele>
        <time>2020-06-17T14:35:21Z</time>
      </trkpt>
      <trkpt lat="49.37687" lon="0.09342">
        <ele>72.4</ele>
        <time>2020-06-17T14:35:22Z</time>
      </trkpt>
      <trkpt lat="49.37689" lon="0.09347">
        <ele>72.5</ele>
        <time>2020-06-17T14:35:23Z</time>
      </trkpt>
      <trkpt lat="49.37692" lon="0.09353">
        <ele>72.5</ele>
        <time>2020-06-17T14:35:24Z</time>
      </trkpt>
      <trkpt lat="49.37694" lon="0.09359">
        <ele>72.6</ele>
        <time>2020-06-17T14:35:25Z</time>
      </trkpt>
      <trkpt lat="49.37696" lon="0.09365">
        <ele>72.7</ele>
        <time>2020-06-17T14:35:26Z</time>
      </trkpt>
      <trkpt lat="49.37697" lon="0.09371">
        <ele>72.8</ele>
        <time>2020-06-17T14:35:27Z</time>
      </trkpt>
      <trkpt lat="49.37699" lon="0.09377">
        <ele>72.8</ele>
        <time>2020-06-17T14:35:28Z</time>
      </trkpt>
      <trkpt lat="49.37701" lon="0.09383">
        <ele>72.9</ele>
        <time>2020-06-17T14:35:29Z</time>
      </trkpt>
      <trkpt lat="49.37702" lon="0.09391">
        <ele>73</ele>
        <time>2020-06-17T14:35:30Z</time>
      </trkpt>
      <trkpt lat="49.37704" lon="0.09397">
        <ele>73</ele>
        <time>2020-06-17T14:35:31Z</time>
      </trkpt>
      <trkpt lat="49.37705" lon="0.09406">
        <ele>73.1</ele>
        <time>2020-06-17T14:35:32Z</time>
      </trkpt>
      <trkpt lat="49.37706" lon="0.09414">
        <ele>73.2</ele>
        <time>2020-06-17T14:35:33Z</time>
      </trkpt>
      <trkpt lat="49.37707" lon="0.09421">
        <ele>73.3</ele>
        <time>2020-06-17T14:35:34Z</time>
      </trkpt>
      <trkpt lat="49.37709" lon="0.09427">
        <ele>73.3</ele>
        <time>2020-06-17T14:35:35Z</time>
      </trkpt>
      <trkpt lat="49.37712" lon="0.09434">
        <ele>73.4</ele>
        <time>2020-06-17T14:35:36Z</time>
      </trkpt>
      <trkpt lat="49.37714" lon="0.09439">
        <ele>73.5</ele>
        <time>2020-06-17T14:35:37Z</time>
      </trkpt>
      <trkpt lat="49.37715" lon="0.09444">
        <ele>73.5</ele>
        <time>2020-06-17T14:35:38Z</time>
      </trkpt>
      <trkpt lat="49.37717" lon="0.0945">
        <ele>73.6</ele>
        <time>2020-06-17T14:35:39Z</time>
      </trkpt>
      <trkpt lat="49.37719" lon="0.09456">
        <ele>73.7</ele>
        <time>2020-06-17T14:35:40Z</time>
      </trkpt>
      <trkpt lat="49.3772" lon="0.09464">
        <ele>73.7</ele>
        <time>2020-06-17T14:35:41Z</time>
      </trkpt>
      <trkpt lat="49.37722" lon="0.09471">
        <ele>73.8</ele>
        <time>2020-06-17T14:35:42Z</time>
      </trkpt>
      <trkpt lat="49.37723" lon="0.09478">
        <ele>73.9</ele>
        <time>2020-06-17T14:35:43Z</time>
      </trkpt>
      <trkpt lat="49.37726" lon="0.09486">
        <ele>74</ele>
        <time>2020-06-17T14:35:44Z</time>
      </trkpt>
      <trkpt lat="49.37728" lon="0.09493">
        <ele>74.2</ele>
        <time>2020-06-17T14:35:45Z</time>
      </trkpt>
      <trkpt lat="49.3773" lon="0.095">
        <ele>74.3</ele>
        <time>2020-06-17T14:35:46Z</time>
      </trkpt>
      <trkpt lat="49.37733" lon="0.09506">
        <ele>74.5</ele>
        <time>2020-06-17T14:35:47Z</time>
      </trkpt>
      <trkpt lat="49.37734" lon="0.09513">
        <ele>74.6</ele>
        <time>2020-06-17T14:35:48Z</time>
      </trkpt>
      <trkpt lat="49.37736" lon="0.0952">
        <ele>74.8</ele>
        <time>2020-06-17T14:35:49Z</time>
      </trkpt>
      <trkpt lat="49.37738" lon="0.09526">
        <ele>75</ele>
        <time>2020-06-17T14:35:50Z</time>
      </trkpt>
      <trkpt lat="49.37739" lon="0.09533">
        <ele>75.2</ele>
        <time>2020-06-17T14:35:51Z</time>
      </trkpt>
      <trkpt lat="49.37742" lon="0.09539">
        <ele>75.3</ele>
        <time>2020-06-17T14:35:52Z</time>
      </trkpt>
      <trkpt lat="49.37744" lon="0.09545">
        <ele>75.5</ele>
        <time>2020-06-17T14:35:53Z</time>
      </trkpt>
      <trkpt lat="49.37746" lon="0.09551">
        <ele>75.6</ele>
        <time>2020-06-17T14:35:54Z</time>
      </trkpt>
      <trkpt lat="49.37747" lon="0.09557">
        <ele>75.7</ele>
        <time>2020-06-17T14:35:55Z</time>
      </trkpt>
      <trkpt lat="49.37749" lon="0.09564">
        <ele>75.9</ele>
        <time>2020-06-17T14:35:56Z</time>
      </trkpt>
      <trkpt lat="49.3775" lon="0.09569">
        <ele>76.1</ele>
        <time>2020-06-17T14:35:57Z</time>
      </trkpt>
      <trkpt lat="49.37752" lon="0.09574">
        <ele>76.3</ele>
        <time>2020-06-17T14:35:58Z</time>
      </trkpt>
      <trkpt lat="49.37753" lon="0.09579">
        <ele>76.5</ele>
        <time>2020-06-17T14:35:59Z</time>
      </trkpt>
      <trkpt lat="49.37755" lon="0.09585">
        <ele>76.8</ele>
        <time>2020-06-17T14:36:00Z</time>
      </trkpt>
      <trkpt lat="49.37757" lon="0.09592">
        <ele>77</ele>
        <time>2020-06-17T14:36:01Z</time>
      </trkpt>
      <trkpt lat="49.37759" lon="0.09599">
        <ele>77.3</ele>
        <time>2020-06-17T14:36:02Z</time>
      </trkpt>
      <trkpt lat="49.3776" lon="0.09607">
        <ele>77.6</ele>
        <time>2020-06-17T14:36:03Z</time>
      </trkpt>
      <trkpt lat="49.37761" lon="0.09614">
        <ele>77.9</ele>
        <time>2020-06-17T14:36:04Z</time>
      </trkpt>
      <trkpt lat="49.37762" lon="0.09619">
        <ele>78.1</ele>
        <time>2020-06-17T14:36:05Z</time>
      </trkpt>
      <trkpt lat="49.37763" lon="0.09625">
        <ele>78.4</ele>
        <time>2020-06-17T14:36:06Z</time>
      </trkpt>
      <trkpt lat="49.37764" lon="0.0963">
        <ele>78.6</ele>
        <time>2020-06-17T14:36:07Z</time>
      </trkpt>
      <trkpt lat="49.37765" lon="0.09636">
        <ele>78.9</ele>
        <time>2020-06-17T14:36:08Z</time>
      </trkpt>
      <trkpt lat="49.37767" lon="0.09643">
        <ele>79.2</ele>
        <time>2020-06-17T14:36:09Z</time>
      </trkpt>
      <trkpt lat="49.37767" lon="0.09649">
        <ele>79.4</ele>
        <time>2020-06-17T14:36:10Z</time>
      </trkpt>
      <trkpt lat="49.37768" lon="0.09655">
        <ele>79.6</ele>
        <time>2020-06-17T14:36:11Z</time>
      </trkpt>
      <trkpt lat="49.37768" lon="0.0966">
        <ele>79.8</ele>
        <time>2020-06-17T14:36:12Z</time>
      </trkpt>
      <trkpt lat="49.3777" lon="0.09666">
        <ele>80</ele>
        <time>2020-06-17T14:36:13Z</time>
      </trkpt>
      <trkpt lat="49.3777" lon="0.0967">
        <ele>80.1</ele>
        <time>2020-06-17T14:36:14Z</time>
      </trkpt>
      <trkpt lat="49.37771" lon="0.09675">
        <ele>80.3</ele>
        <time>2020-06-17T14:36:15Z</time>
      </trkpt>
      <trkpt lat="49.37773" lon="0.09682">
        <ele>80.5</ele>
        <time>2020-06-17T14:36:16Z</time>
      </trkpt>
      <trkpt lat="49.37774" lon="0.09688">
        <ele>80.6</ele>
        <time>2020-06-17T14:36:17Z</time>
      </trkpt>
      <trkpt lat="49.37775" lon="0.09694">
        <ele>80.7</ele>
        <time>2020-06-17T14:36:18Z</time>
      </trkpt>
      <trkpt lat="49.37776" lon="0.09699">
        <ele>80.8</ele>
        <time>2020-06-17T14:36:19Z</time>
      </trkpt>
      <trkpt lat="49.37777" lon="0.09705">
        <ele>80.8</ele>
        <time>2020-06-17T14:36:20Z</time>
      </trkpt>
      <trkpt lat="49.37778" lon="0.0971">
        <ele>80.9</ele>
        <time>2020-06-17T14:36:21Z</time>
      </trkpt>
      <trkpt lat="49.3778" lon="0.09715">
        <ele>80.9</ele>
        <time>2020-06-17T14:36:22Z</time>
      </trkpt>
      <trkpt lat="49.37782" lon="0.09722">
        <ele>80.9</ele>
        <time>2020-06-17T14:36:23Z</time>
      </trkpt>
      <trkpt lat="49.37784" lon="0.09728">
        <ele>80.9</ele>
        <time>2020-06-17T14:36:24Z</time>
      </trkpt>
      <trkpt lat="49.37787" lon="0.09734">
        <ele>80.9</ele>
        <time>2020-06-17T14:36:25Z</time>
      </trkpt>
      <trkpt lat="49.37789" lon="0.09741">
        <ele>80.9</ele>
        <time>2020-06-17T14:36:26Z</time>
      </trkpt>
      <trkpt lat="49.37792" lon="0.09747">
        <ele>80.8</ele>
        <time>2020-06-17T14:36:27Z</time>
      </trkpt>
      <trkpt lat="49.37794" lon="0.09753">
        <ele>80.7</ele>
        <time>2020-06-17T14:36:28Z</time>
      </trkpt>
      <trkpt lat="49.37797" lon="0.09759">
        <ele>80.5</ele>
        <time>2020-06-17T14:36:29Z</time>
      </trkpt>
      <trkpt lat="49.37801" lon="0.09766">
        <ele>80.3</ele>
        <time>2020-06-17T14:36:30Z</time>
      </trkpt>
      <trkpt lat="49.37804" lon="0.09772">
        <ele>80.2</ele>
        <time>2020-06-17T14:36:31Z</time>
      </trkpt>
      <trkpt lat="49.37808" lon="0.09777">
        <ele>80</ele>
        <time>2020-06-17T14:36:32Z</time>
      </trkpt>
      <trkpt lat="49.37812" lon="0.09783">
        <ele>79.9</ele>
        <time>2020-06-17T14:36:33Z</time>
      </trkpt>
      <trkpt lat="49.37816" lon="0.09789">
        <ele>79.7</ele>
        <time>2020-06-17T14:36:34Z</time>
      </trkpt>
      <trkpt lat="49.37819" lon="0.09795">
        <ele>79.5</ele>
        <time>2020-06-17T14:36:35Z</time>
      </trkpt>
      <trkpt lat="49.37823" lon="0.09801">
        <ele>79.4</ele>
        <time>2020-06-17T14:36:36Z</time>
      </trkpt>
      <trkpt lat="49.37826" lon="0.09807">
        <ele>79.2</ele>
        <time>2020-06-17T14:36:37Z</time>
      </trkpt>
      <trkpt lat="49.37829" lon="0.09812">
        <ele>79.1</ele>
        <time>2020-06-17T14:36:38Z</time>
      </trkpt>
      <trkpt lat="49.37832" lon="0.09818">
        <ele>78.9</ele>
        <time>2020-06-17T14:36:39Z</time>
      </trkpt>
      <trkpt lat="49.37834" lon="0.09823">
        <ele>78.8</ele>
        <time>2020-06-17T14:36:40Z</time>
      </trkpt>
      <trkpt lat="49.37837" lon="0.09827">
        <ele>78.4</ele>
        <time>2020-06-17T14:36:41Z</time>
      </trkpt>
      <trkpt lat="49.37838" lon="0.09829">
        <ele>78.4</ele>
        <time>2020-06-17T14:36:42Z</time>
      </trkpt>
      <trkpt lat="49.37839" lon="0.0983">
        <ele>78.4</ele>
        <time>2020-06-17T14:36:43Z</time>
      </trkpt>
      <trkpt lat="49.37839" lon="0.09832">
        <ele>78.4</ele>
        <time>2020-06-17T14:36:44Z</time>
      </trkpt>
      <trkpt lat="49.37838" lon="0.09833">
        <ele>78.4</ele>
        <time>2020-06-17T14:36:45Z</time>
      </trkpt>
      <trkpt lat="49.37838" lon="0.09835">
        <ele>78.4</ele>
        <time>2020-06-17T14:36:46Z</time>
      </trkpt>
      <trkpt lat="49.37836" lon="0.09837">
        <ele>78.4</ele>
        <time>2020-06-17T14:36:47Z</time>
      </trkpt>
      <trkpt lat="49.37835" lon="0.09838">
        <ele>78.9</ele>
        <time>2020-06-17T14:36:48Z</time>
      </trkpt>
      <trkpt lat="49.37833" lon="0.09838">
        <ele>79</ele>
        <time>2020-06-17T14:36:49Z</time>
      </trkpt>
      <trkpt lat="49.37832" lon="0.09838">
        <ele>79.1</ele>
        <time>2020-06-17T14:36:50Z</time>
      </trkpt>
      <trkpt lat="49.37831" lon="0.0984">
        <ele>79.3</ele>
        <time>2020-06-17T14:36:51Z</time>
      </trkpt>
      <trkpt lat="49.3783" lon="0.09841">
        <ele>79.4</ele>
        <time>2020-06-17T14:36:52Z</time>
      </trkpt>
      <trkpt lat="49.37828" lon="0.09843">
        <ele>79.6</ele>
        <time>2020-06-17T14:36:53Z</time>
      </trkpt>
      <trkpt lat="49.37827" lon="0.09844">
        <ele>79.7</ele>
        <time>2020-06-17T14:36:54Z</time>
      </trkpt>
      <trkpt lat="49.37825" lon="0.09846">
        <ele>79.9</ele>
        <time>2020-06-17T14:36:55Z</time>
      </trkpt>
      <trkpt lat="49.37823" lon="0.09846">
        <ele>80.1</ele>
        <time>2020-06-17T14:36:56Z</time>
      </trkpt>
      <trkpt lat="49.37822" lon="0.09847">
        <ele>80.3</ele>
        <time>2020-06-17T14:36:57Z</time>
      </trkpt>
      <trkpt lat="49.37819" lon="0.09849">
        <ele>80.7</ele>
        <time>2020-06-17T14:36:58Z</time>
      </trkpt>
      <trkpt lat="49.37817" lon="0.09849">
        <ele>80.9</ele>
        <time>2020-06-17T14:36:59Z</time>
      </trkpt>
      <trkpt lat="49.37814" lon="0.09851">
        <ele>81.4</ele>
        <time>2020-06-17T14:37:00Z</time>
      </trkpt>
      <trkpt lat="49.37813" lon="0.09852">
        <ele>81.6</ele>
        <time>2020-06-17T14:37:01Z</time>
      </trkpt>
      <trkpt lat="49.3781" lon="0.09853">
        <ele>82</ele>
        <time>2020-06-17T14:37:02Z</time>
      </trkpt>
      <trkpt lat="49.37807" lon="0.09856">
        <ele>82.4</ele>
        <time>2020-06-17T14:37:03Z</time>
      </trkpt>
      <trkpt lat="49.37806" lon="0.09857">
        <ele>82.6</ele>
        <time>2020-06-17T14:37:04Z</time>
      </trkpt>
      <trkpt lat="49.37803" lon="0.0986">
        <ele>83.1</ele>
        <time>2020-06-17T14:37:05Z</time>
      </trkpt>
      <trkpt lat="49.37802" lon="0.0986">
        <ele>83.2</ele>
        <time>2020-06-17T14:37:06Z</time>
      </trkpt>
      <trkpt lat="49.37799" lon="0.09862">
        <ele>83.7</ele>
        <time>2020-06-17T14:37:07Z</time>
      </trkpt>
      <trkpt lat="49.37798" lon="0.09862">
        <ele>83.9</ele>
        <time>2020-06-17T14:37:08Z</time>
      </trkpt>
      <trkpt lat="49.37796" lon="0.09864">
        <ele>84.2</ele>
        <time>2020-06-17T14:37:09Z</time>
      </trkpt>
      <trkpt lat="49.37795" lon="0.09864">
        <ele>84.3</ele>
        <time>2020-06-17T14:37:10Z</time>
      </trkpt>
      <trkpt lat="49.37793" lon="0.09866">
        <ele>84.6</ele>
        <time>2020-06-17T14:37:11Z</time>
      </trkpt>
      <trkpt lat="49.37792" lon="0.09867">
        <ele>84.8</ele>
        <time>2020-06-17T14:37:12Z</time>
      </trkpt>
      <trkpt lat="49.3779" lon="0.0987">
        <ele>85.2</ele>
        <time>2020-06-17T14:37:13Z</time>
      </trkpt>
      <trkpt lat="49.37787" lon="0.09872">
        <ele>85.6</ele>
        <time>2020-06-17T14:37:14Z</time>
      </trkpt>
      <trkpt lat="49.37784" lon="0.09875">
        <ele>86.1</ele>
        <time>2020-06-17T14:37:15Z</time>
      </trkpt>
      <trkpt lat="49.37783" lon="0.09876">
        <ele>86.3</ele>
        <time>2020-06-17T14:37:16Z</time>
      </trkpt>
      <trkpt lat="49.37779" lon="0.09878">
        <ele>86.9</ele>
        <time>2020-06-17T14:37:17Z</time>
      </trkpt>
      <trkpt lat="49.37777" lon="0.09879">
        <ele>87.2</ele>
        <time>2020-06-17T14:37:18Z</time>
      </trkpt>
      <trkpt lat="49.37774" lon="0.09881">
        <ele>87.6</ele>
        <time>2020-06-17T14:37:19Z</time>
      </trkpt>
      <trkpt lat="49.37772" lon="0.09883">
        <ele>88</ele>
        <time>2020-06-17T14:37:20Z</time>
      </trkpt>
      <trkpt lat="49.37769" lon="0.09886">
        <ele>88.6</ele>
        <time>2020-06-17T14:37:21Z</time>
      </trkpt>
      <trkpt lat="49.37768" lon="0.09887">
        <ele>88.7</ele>
        <time>2020-06-17T14:37:22Z</time>
      </trkpt>
      <trkpt lat="49.37767" lon="0.09889">
        <ele>89</ele>
        <time>2020-06-17T14:37:23Z</time>
      </trkpt>
      <trkpt lat="49.37765" lon="0.0989">
        <ele>89.3</ele>
        <time>2020-06-17T14:37:24Z</time>
      </trkpt>
      <trkpt lat="49.37764" lon="0.0989">
        <ele>89.5</ele>
        <time>2020-06-17T14:37:25Z</time>
      </trkpt>
      <trkpt lat="49.37762" lon="0.09891">
        <ele>89.7</ele>
        <time>2020-06-17T14:37:26Z</time>
      </trkpt>
      <trkpt lat="49.37761" lon="0.09892">
        <ele>89.9</ele>
        <time>2020-06-17T14:37:27Z</time>
      </trkpt>
      <trkpt lat="49.3776" lon="0.09894">
        <ele>90.1</ele>
        <time>2020-06-17T14:37:28Z</time>
      </trkpt>
      <trkpt lat="49.37759" lon="0.09895">
        <ele>90.3</ele>
        <time>2020-06-17T14:37:29Z</time>
      </trkpt>
      <trkpt lat="49.37757" lon="0.09897">
        <ele>90.6</ele>
        <time>2020-06-17T14:37:30Z</time>
      </trkpt>
      <trkpt lat="49.37756" lon="0.09899">
        <ele>90.9</ele>
        <time>2020-06-17T14:37:31Z</time>
      </trkpt>
      <trkpt lat="49.37754" lon="0.099">
        <ele>91.1</ele>
        <time>2020-06-17T14:37:32Z</time>
      </trkpt>
      <trkpt lat="49.37751" lon="0.09902">
        <ele>91.6</ele>
        <time>2020-06-17T14:37:33Z</time>
      </trkpt>
      <trkpt lat="49.3775" lon="0.09903">
        <ele>91.7</ele>
        <time>2020-06-17T14:37:34Z</time>
      </trkpt>
      <trkpt lat="49.37749" lon="0.09905">
        <ele>92</ele>
        <time>2020-06-17T14:37:35Z</time>
      </trkpt>
      <trkpt lat="49.37747" lon="0.09906">
        <ele>92.3</ele>
        <time>2020-06-17T14:37:36Z</time>
      </trkpt>
      <trkpt lat="49.37745" lon="0.09909">
        <ele>92.6</ele>
        <time>2020-06-17T14:37:37Z</time>
      </trkpt>
      <trkpt lat="49.37744" lon="0.09909">
        <ele>92.8</ele>
        <time>2020-06-17T14:37:38Z</time>
      </trkpt>
      <trkpt lat="49.37743" lon="0.0991">
        <ele>93</ele>
        <time>2020-06-17T14:37:39Z</time>
      </trkpt>
      <trkpt lat="49.37742" lon="0.09912">
        <ele>93.2</ele>
        <time>2020-06-17T14:37:40Z</time>
      </trkpt>
      <trkpt lat="49.37739" lon="0.09915">
        <ele>93.6</ele>
        <time>2020-06-17T14:37:41Z</time>
      </trkpt>
      <trkpt lat="49.37737" lon="0.09917">
        <ele>94</ele>
        <time>2020-06-17T14:37:42Z</time>
      </trkpt>
      <trkpt lat="49.37735" lon="0.09921">
        <ele>94.4</ele>
        <time>2020-06-17T14:37:43Z</time>
      </trkpt>
      <trkpt lat="49.37734" lon="0.09922">
        <ele>94.5</ele>
        <time>2020-06-17T14:37:44Z</time>
      </trkpt>
      <trkpt lat="49.37731" lon="0.09925">
        <ele>94.9</ele>
        <time>2020-06-17T14:37:45Z</time>
      </trkpt>
      <trkpt lat="49.37731" lon="0.09926">
        <ele>95</ele>
        <time>2020-06-17T14:37:46Z</time>
      </trkpt>
      <trkpt lat="49.3773" lon="0.09927">
        <ele>95.1</ele>
        <time>2020-06-17T14:37:47Z</time>
      </trkpt>
      <trkpt lat="49.3773" lon="0.09929">
        <ele>95.2</ele>
        <time>2020-06-17T14:37:48Z</time>
      </trkpt>
      <trkpt lat="49.3773" lon="0.09931">
        <ele>95.3</ele>
        <time>2020-06-17T14:37:49Z</time>
      </trkpt>
      <trkpt lat="49.37729" lon="0.09936">
        <ele>95.6</ele>
        <time>2020-06-17T14:37:50Z</time>
      </trkpt>
      <trkpt lat="49.37729" lon="0.09937">
        <ele>95.7</ele>
        <time>2020-06-17T14:37:51Z</time>
      </trkpt>
      <trkpt lat="49.37729" lon="0.0994">
        <ele>95.9</ele>
        <time>2020-06-17T14:37:52Z</time>
      </trkpt>
      <trkpt lat="49.37728" lon="0.09943">
        <ele>96</ele>
        <time>2020-06-17T14:37:53Z</time>
      </trkpt>
      <trkpt lat="49.37729" lon="0.09945">
        <ele>96.1</ele>
        <time>2020-06-17T14:37:54Z</time>
      </trkpt>
      <trkpt lat="49.37729" lon="0.09948">
        <ele>96.2</ele>
        <time>2020-06-17T14:37:55Z</time>
      </trkpt>
      <trkpt lat="49.3773" lon="0.09952">
        <ele>96.3</ele>
        <time>2020-06-17T14:37:56Z</time>
      </trkpt>
      <trkpt lat="49.3773" lon="0.09954">
        <ele>96.4</ele>
        <time>2020-06-17T14:37:57Z</time>
      </trkpt>
      <trkpt lat="49.37729" lon="0.09958">
        <ele>96.6</ele>
        <time>2020-06-17T14:37:58Z</time>
      </trkpt>
      <trkpt lat="49.37728" lon="0.09964">
        <ele>96.8</ele>
        <time>2020-06-17T14:37:59Z</time>
      </trkpt>
      <trkpt lat="49.37728" lon="0.09966">
        <ele>96.8</ele>
        <time>2020-06-17T14:38:00Z</time>
      </trkpt>
      <trkpt lat="49.37727" lon="0.09971">
        <ele>97</ele>
        <time>2020-06-17T14:38:01Z</time>
      </trkpt>
      <trkpt lat="49.37726" lon="0.09973">
        <ele>97.1</ele>
        <time>2020-06-17T14:38:02Z</time>
      </trkpt>
      <trkpt lat="49.37725" lon="0.09977">
        <ele>97.3</ele>
        <time>2020-06-17T14:38:03Z</time>
      </trkpt>
      <trkpt lat="49.37724" lon="0.09982">
        <ele>97.4</ele>
        <time>2020-06-17T14:38:04Z</time>
      </trkpt>
      <trkpt lat="49.37723" lon="0.09986">
        <ele>97.6</ele>
        <time>2020-06-17T14:38:05Z</time>
      </trkpt>
      <trkpt lat="49.37723" lon="0.09991">
        <ele>97.8</ele>
        <time>2020-06-17T14:38:06Z</time>
      </trkpt>
      <trkpt lat="49.37724" lon="0.09997">
        <ele>98</ele>
        <time>2020-06-17T14:38:07Z</time>
      </trkpt>
      <trkpt lat="49.37725" lon="0.09999">
        <ele>98.1</ele>
        <time>2020-06-17T14:38:08Z</time>
      </trkpt>
      <trkpt lat="49.37726" lon="0.10005">
        <ele>98.3</ele>
        <time>2020-06-17T14:38:09Z</time>
      </trkpt>
      <trkpt lat="49.37725" lon="0.10007">
        <ele>98.3</ele>
        <time>2020-06-17T14:38:10Z</time>
      </trkpt>
      <trkpt lat="49.37727" lon="0.10011">
        <ele>98.4</ele>
        <time>2020-06-17T14:38:11Z</time>
      </trkpt>
      <trkpt lat="49.37728" lon="0.10012">
        <ele>98.5</ele>
        <time>2020-06-17T14:38:12Z</time>
      </trkpt>
      <trkpt lat="49.37729" lon="0.10017">
        <ele>98.5</ele>
        <time>2020-06-17T14:38:13Z</time>
      </trkpt>
      <trkpt lat="49.3773" lon="0.10018">
        <ele>98.6</ele>
        <time>2020-06-17T14:38:14Z</time>
      </trkpt>
      <trkpt lat="49.37731" lon="0.10025">
        <ele>98.7</ele>
        <time>2020-06-17T14:38:15Z</time>
      </trkpt>
      <trkpt lat="49.37731" lon="0.10027">
        <ele>98.7</ele>
        <time>2020-06-17T14:38:16Z</time>
      </trkpt>
      <trkpt lat="49.37733" lon="0.10033">
        <ele>98.8</ele>
        <time>2020-06-17T14:38:17Z</time>
      </trkpt>
      <trkpt lat="49.37735" lon="0.10039">
        <ele>98.9</ele>
        <time>2020-06-17T14:38:18Z</time>
      </trkpt>
      <trkpt lat="49.37736" lon="0.10046">
        <ele>99</ele>
        <time>2020-06-17T14:38:19Z</time>
      </trkpt>
      <trkpt lat="49.37738" lon="0.10053">
        <ele>99.1</ele>
        <time>2020-06-17T14:38:20Z</time>
      </trkpt>
      <trkpt lat="49.37741" lon="0.1006">
        <ele>99.2</ele>
        <time>2020-06-17T14:38:21Z</time>
      </trkpt>
      <trkpt lat="49.37743" lon="0.10067">
        <ele>99.3</ele>
        <time>2020-06-17T14:38:22Z</time>
      </trkpt>
      <trkpt lat="49.37745" lon="0.10074">
        <ele>99.4</ele>
        <time>2020-06-17T14:38:23Z</time>
      </trkpt>
      <trkpt lat="49.37747" lon="0.10081">
        <ele>99.6</ele>
        <time>2020-06-17T14:38:24Z</time>
      </trkpt>
      <trkpt lat="49.37749" lon="0.10087">
        <ele>99.9</ele>
        <time>2020-06-17T14:38:25Z</time>
      </trkpt>
      <trkpt lat="49.37751" lon="0.10092">
        <ele>100.1</ele>
        <time>2020-06-17T14:38:26Z</time>
      </trkpt>
      <trkpt lat="49.37753" lon="0.10098">
        <ele>100.3</ele>
        <time>2020-06-17T14:38:27Z</time>
      </trkpt>
      <trkpt lat="49.37755" lon="0.10103">
        <ele>100.6</ele>
        <time>2020-06-17T14:38:28Z</time>
      </trkpt>
      <trkpt lat="49.37756" lon="0.10108">
        <ele>100.8</ele>
        <time>2020-06-17T14:38:29Z</time>
      </trkpt>
      <trkpt lat="49.37757" lon="0.10113">
        <ele>101.1</ele>
        <time>2020-06-17T14:38:30Z</time>
      </trkpt>
      <trkpt lat="49.37758" lon="0.10118">
        <ele>101.4</ele>
        <time>2020-06-17T14:38:31Z</time>
      </trkpt>
      <trkpt lat="49.3776" lon="0.10122">
        <ele>101.6</ele>
        <time>2020-06-17T14:38:32Z</time>
      </trkpt>
      <trkpt lat="49.37762" lon="0.10126">
        <ele>101.9</ele>
        <time>2020-06-17T14:38:33Z</time>
      </trkpt>
      <trkpt lat="49.37764" lon="0.1013">
        <ele>102.2</ele>
        <time>2020-06-17T14:38:34Z</time>
      </trkpt>
      <trkpt lat="49.37767" lon="0.10132">
        <ele>102.5</ele>
        <time>2020-06-17T14:38:35Z</time>
      </trkpt>
      <trkpt lat="49.37769" lon="0.10138">
        <ele>102.8</ele>
        <time>2020-06-17T14:38:36Z</time>
      </trkpt>
      <trkpt lat="49.37769" lon="0.10139">
        <ele>102.9</ele>
        <time>2020-06-17T14:38:37Z</time>
      </trkpt>
      <trkpt lat="49.37771" lon="0.10143">
        <ele>103.2</ele>
        <time>2020-06-17T14:38:38Z</time>
      </trkpt>
      <trkpt lat="49.37773" lon="0.10148">
        <ele>103.5</ele>
        <time>2020-06-17T14:38:39Z</time>
      </trkpt>
      <trkpt lat="49.37773" lon="0.1015">
        <ele>103.6</ele>
        <time>2020-06-17T14:38:40Z</time>
      </trkpt>
      <trkpt lat="49.37776" lon="0.10153">
        <ele>103.9</ele>
        <time>2020-06-17T14:38:41Z</time>
      </trkpt>
      <trkpt lat="49.37776" lon="0.10154">
        <ele>104</ele>
        <time>2020-06-17T14:38:42Z</time>
      </trkpt>
      <trkpt lat="49.37777" lon="0.10156">
        <ele>104.2</ele>
        <time>2020-06-17T14:38:43Z</time>
      </trkpt>
      <trkpt lat="49.37778" lon="0.10158">
        <ele>104.4</ele>
        <time>2020-06-17T14:38:44Z</time>
      </trkpt>
      <trkpt lat="49.37778" lon="0.10163">
        <ele>104.7</ele>
        <time>2020-06-17T14:38:45Z</time>
      </trkpt>
      <trkpt lat="49.37779" lon="0.10167">
        <ele>105.1</ele>
        <time>2020-06-17T14:38:46Z</time>
      </trkpt>
      <trkpt lat="49.3778" lon="0.10171">
        <ele>105.5</ele>
        <time>2020-06-17T14:38:47Z</time>
      </trkpt>
      <trkpt lat="49.3778" lon="0.10173">
        <ele>105.6</ele>
        <time>2020-06-17T14:38:48Z</time>
      </trkpt>
      <trkpt lat="49.37782" lon="0.10177">
        <ele>106.1</ele>
        <time>2020-06-17T14:38:49Z</time>
      </trkpt>
      <trkpt lat="49.37783" lon="0.10179">
        <ele>106.3</ele>
        <time>2020-06-17T14:38:50Z</time>
      </trkpt>
      <trkpt lat="49.37785" lon="0.10181">
        <ele>106.8</ele>
        <time>2020-06-17T14:38:51Z</time>
      </trkpt>
      <trkpt lat="49.37787" lon="0.10185">
        <ele>107.2</ele>
        <time>2020-06-17T14:38:52Z</time>
      </trkpt>
      <trkpt lat="49.37787" lon="0.10187">
        <ele>107.4</ele>
        <time>2020-06-17T14:38:53Z</time>
      </trkpt>
      <trkpt lat="49.3779" lon="0.1019">
        <ele>107.9</ele>
        <time>2020-06-17T14:38:54Z</time>
      </trkpt>
      <trkpt lat="49.3779" lon="0.10191">
        <ele>108</ele>
        <time>2020-06-17T14:38:55Z</time>
      </trkpt>
      <trkpt lat="49.37791" lon="0.10194">
        <ele>108.3</ele>
        <time>2020-06-17T14:38:56Z</time>
      </trkpt>
      <trkpt lat="49.37791" lon="0.10196">
        <ele>108.5</ele>
        <time>2020-06-17T14:38:57Z</time>
      </trkpt>
      <trkpt lat="49.37792" lon="0.102">
        <ele>108.9</ele>
        <time>2020-06-17T14:38:58Z</time>
      </trkpt>
      <trkpt lat="49.37792" lon="0.10201">
        <ele>109</ele>
        <time>2020-06-17T14:38:59Z</time>
      </trkpt>
      <trkpt lat="49.37792" lon="0.10204">
        <ele>109.3</ele>
        <time>2020-06-17T14:39:00Z</time>
      </trkpt>
      <trkpt lat="49.37792" lon="0.10206">
        <ele>109.5</ele>
        <time>2020-06-17T14:39:01Z</time>
      </trkpt>
      <trkpt lat="49.37792" lon="0.10209">
        <ele>109.7</ele>
        <time>2020-06-17T14:39:02Z</time>
      </trkpt>
      <trkpt lat="49.37792" lon="0.10212">
        <ele>110</ele>
        <time>2020-06-17T14:39:03Z</time>
      </trkpt>
      <trkpt lat="49.37793" lon="0.10216">
        <ele>110.3</ele>
        <time>2020-06-17T14:39:04Z</time>
      </trkpt>
      <trkpt lat="49.37794" lon="0.10217">
        <ele>110.5</ele>
        <time>2020-06-17T14:39:05Z</time>
      </trkpt>
      <trkpt lat="49.37794" lon="0.10219">
        <ele>110.6</ele>
        <time>2020-06-17T14:39:06Z</time>
      </trkpt>
      <trkpt lat="49.37795" lon="0.10222">
        <ele>110.9</ele>
        <time>2020-06-17T14:39:07Z</time>
      </trkpt>
      <trkpt lat="49.37795" lon="0.10227">
        <ele>111.2</ele>
        <time>2020-06-17T14:39:08Z</time>
      </trkpt>
      <trkpt lat="49.37796" lon="0.10229">
        <ele>111.4</ele>
        <time>2020-06-17T14:39:09Z</time>
      </trkpt>
      <trkpt lat="49.37797" lon="0.10233">
        <ele>111.7</ele>
        <time>2020-06-17T14:39:10Z</time>
      </trkpt>
      <trkpt lat="49.37796" lon="0.10236">
        <ele>111.9</ele>
        <time>2020-06-17T14:39:11Z</time>
      </trkpt>
      <trkpt lat="49.37797" lon="0.10239">
        <ele>112.1</ele>
        <time>2020-06-17T14:39:12Z</time>
      </trkpt>
      <trkpt lat="49.37798" lon="0.10243">
        <ele>112.8</ele>
        <time>2020-06-17T14:39:13Z</time>
      </trkpt>
      <trkpt lat="49.37798" lon="0.10247">
        <ele>113</ele>
        <time>2020-06-17T14:39:14Z</time>
      </trkpt>
      <trkpt lat="49.37799" lon="0.1025">
        <ele>113.2</ele>
        <time>2020-06-17T14:39:15Z</time>
      </trkpt>
      <trkpt lat="49.378" lon="0.10252">
        <ele>113.3</ele>
        <time>2020-06-17T14:39:16Z</time>
      </trkpt>
      <trkpt lat="49.378" lon="0.10256">
        <ele>113.5</ele>
        <time>2020-06-17T14:39:17Z</time>
      </trkpt>
      <trkpt lat="49.378" lon="0.10262">
        <ele>113.8</ele>
        <time>2020-06-17T14:39:18Z</time>
      </trkpt>
      <trkpt lat="49.378" lon="0.10264">
        <ele>113.9</ele>
        <time>2020-06-17T14:39:19Z</time>
      </trkpt>
      <trkpt lat="49.378" lon="0.10269">
        <ele>114.2</ele>
        <time>2020-06-17T14:39:20Z</time>
      </trkpt>
      <trkpt lat="49.37801" lon="0.10271">
        <ele>114.4</ele>
        <time>2020-06-17T14:39:21Z</time>
      </trkpt>
      <trkpt lat="49.37802" lon="0.10276">
        <ele>114.6</ele>
        <time>2020-06-17T14:39:22Z</time>
      </trkpt>
      <trkpt lat="49.37802" lon="0.10277">
        <ele>114.8</ele>
        <time>2020-06-17T14:39:23Z</time>
      </trkpt>
      <trkpt lat="49.37803" lon="0.10283">
        <ele>115.1</ele>
        <time>2020-06-17T14:39:24Z</time>
      </trkpt>
      <trkpt lat="49.37803" lon="0.10284">
        <ele>115.2</ele>
        <time>2020-06-17T14:39:25Z</time>
      </trkpt>
      <trkpt lat="49.37803" lon="0.1029">
        <ele>115.6</ele>
        <time>2020-06-17T14:39:26Z</time>
      </trkpt>
      <trkpt lat="49.37803" lon="0.10292">
        <ele>115.7</ele>
        <time>2020-06-17T14:39:27Z</time>
      </trkpt>
      <trkpt lat="49.37804" lon="0.10296">
        <ele>116</ele>
        <time>2020-06-17T14:39:28Z</time>
      </trkpt>
      <trkpt lat="49.37804" lon="0.10302">
        <ele>116.4</ele>
        <time>2020-06-17T14:39:29Z</time>
      </trkpt>
      <trkpt lat="49.37804" lon="0.10305">
        <ele>116.6</ele>
        <time>2020-06-17T14:39:30Z</time>
      </trkpt>
      <trkpt lat="49.37805" lon="0.1031">
        <ele>116.9</ele>
        <time>2020-06-17T14:39:31Z</time>
      </trkpt>
      <trkpt lat="49.37805" lon="0.10311">
        <ele>117</ele>
        <time>2020-06-17T14:39:32Z</time>
      </trkpt>
      <trkpt lat="49.37805" lon="0.10317">
        <ele>117.4</ele>
        <time>2020-06-17T14:39:33Z</time>
      </trkpt>
      <trkpt lat="49.37805" lon="0.10319">
        <ele>117.5</ele>
        <time>2020-06-17T14:39:34Z</time>
      </trkpt>
      <trkpt lat="49.37805" lon="0.10324">
        <ele>117.8</ele>
        <time>2020-06-17T14:39:35Z</time>
      </trkpt>
      <trkpt lat="49.37804" lon="0.10326">
        <ele>117.9</ele>
        <time>2020-06-17T14:39:36Z</time>
      </trkpt>
      <trkpt lat="49.37804" lon="0.10332">
        <ele>118.3</ele>
        <time>2020-06-17T14:39:37Z</time>
      </trkpt>
      <trkpt lat="49.37804" lon="0.10335">
        <ele>118.4</ele>
        <time>2020-06-17T14:39:38Z</time>
      </trkpt>
      <trkpt lat="49.37803" lon="0.10339">
        <ele>118.7</ele>
        <time>2020-06-17T14:39:39Z</time>
      </trkpt>
      <trkpt lat="49.37804" lon="0.10345">
        <ele>119</ele>
        <time>2020-06-17T14:39:40Z</time>
      </trkpt>
      <trkpt lat="49.37803" lon="0.1035">
        <ele>119.2</ele>
        <time>2020-06-17T14:39:41Z</time>
      </trkpt>
      <trkpt lat="49.37802" lon="0.10352">
        <ele>119.4</ele>
        <time>2020-06-17T14:39:42Z</time>
      </trkpt>
      <trkpt lat="49.37802" lon="0.10357">
        <ele>119.6</ele>
        <time>2020-06-17T14:39:43Z</time>
      </trkpt>
      <trkpt lat="49.37802" lon="0.10358">
        <ele>119.6</ele>
        <time>2020-06-17T14:39:44Z</time>
      </trkpt>
      <trkpt lat="49.37802" lon="0.10363">
        <ele>119.9</ele>
        <time>2020-06-17T14:39:45Z</time>
      </trkpt>
      <trkpt lat="49.37802" lon="0.10364">
        <ele>119.9</ele>
        <time>2020-06-17T14:39:46Z</time>
      </trkpt>
      <trkpt lat="49.37801" lon="0.10369">
        <ele>120.2</ele>
        <time>2020-06-17T14:39:47Z</time>
      </trkpt>
      <trkpt lat="49.37801" lon="0.1037">
        <ele>120.2</ele>
        <time>2020-06-17T14:39:48Z</time>
      </trkpt>
      <trkpt lat="49.37801" lon="0.10375">
        <ele>120.5</ele>
        <time>2020-06-17T14:39:49Z</time>
      </trkpt>
      <trkpt lat="49.378" lon="0.10381">
        <ele>120.7</ele>
        <time>2020-06-17T14:39:50Z</time>
      </trkpt>
      <trkpt lat="49.378" lon="0.10386">
        <ele>121</ele>
        <time>2020-06-17T14:39:51Z</time>
      </trkpt>
      <trkpt lat="49.37799" lon="0.10392">
        <ele>121.2</ele>
        <time>2020-06-17T14:39:52Z</time>
      </trkpt>
      <trkpt lat="49.37799" lon="0.10394">
        <ele>121.3</ele>
        <time>2020-06-17T14:39:53Z</time>
      </trkpt>
      <trkpt lat="49.37799" lon="0.104">
        <ele>121.6</ele>
        <time>2020-06-17T14:39:54Z</time>
      </trkpt>
      <trkpt lat="49.37799" lon="0.10402">
        <ele>121.7</ele>
        <time>2020-06-17T14:39:55Z</time>
      </trkpt>
      <trkpt lat="49.37798" lon="0.10408">
        <ele>121.9</ele>
        <time>2020-06-17T14:39:56Z</time>
      </trkpt>
      <trkpt lat="49.37798" lon="0.1041">
        <ele>122</ele>
        <time>2020-06-17T14:39:57Z</time>
      </trkpt>
      <trkpt lat="49.37797" lon="0.10414">
        <ele>122.1</ele>
        <time>2020-06-17T14:39:58Z</time>
      </trkpt>
      <trkpt lat="49.37796" lon="0.10419">
        <ele>122.3</ele>
        <time>2020-06-17T14:39:59Z</time>
      </trkpt>
      <trkpt lat="49.37796" lon="0.10423">
        <ele>122.4</ele>
        <time>2020-06-17T14:40:00Z</time>
      </trkpt>
      <trkpt lat="49.37795" lon="0.10428">
        <ele>122.6</ele>
        <time>2020-06-17T14:40:01Z</time>
      </trkpt>
      <trkpt lat="49.37794" lon="0.10433">
        <ele>122.8</ele>
        <time>2020-06-17T14:40:02Z</time>
      </trkpt>
      <trkpt lat="49.37794" lon="0.10435">
        <ele>122.8</ele>
        <time>2020-06-17T14:40:03Z</time>
      </trkpt>
      <trkpt lat="49.37793" lon="0.10439">
        <ele>123</ele>
        <time>2020-06-17T14:40:04Z</time>
      </trkpt>
      <trkpt lat="49.37794" lon="0.10444">
        <ele>123.2</ele>
        <time>2020-06-17T14:40:05Z</time>
      </trkpt>
      <trkpt lat="49.37793" lon="0.1045">
        <ele>123.3</ele>
        <time>2020-06-17T14:40:06Z</time>
      </trkpt>
      <trkpt lat="49.37792" lon="0.10456">
        <ele>123.5</ele>
        <time>2020-06-17T14:40:07Z</time>
      </trkpt>
      <trkpt lat="49.37792" lon="0.10462">
        <ele>123.8</ele>
        <time>2020-06-17T14:40:08Z</time>
      </trkpt>
      <trkpt lat="49.37791" lon="0.10464">
        <ele>123.9</ele>
        <time>2020-06-17T14:40:09Z</time>
      </trkpt>
      <trkpt lat="49.37789" lon="0.10469">
        <ele>124.1</ele>
        <time>2020-06-17T14:40:10Z</time>
      </trkpt>
      <trkpt lat="49.37787" lon="0.10473">
        <ele>124.2</ele>
        <time>2020-06-17T14:40:11Z</time>
      </trkpt>
      <trkpt lat="49.37786" lon="0.10478">
        <ele>124.3</ele>
        <time>2020-06-17T14:40:12Z</time>
      </trkpt>
      <trkpt lat="49.37786" lon="0.1048">
        <ele>124.3</ele>
        <time>2020-06-17T14:40:13Z</time>
      </trkpt>
      <trkpt lat="49.37785" lon="0.10485">
        <ele>124.3</ele>
        <time>2020-06-17T14:40:14Z</time>
      </trkpt>
      <trkpt lat="49.37786" lon="0.10491">
        <ele>124.4</ele>
        <time>2020-06-17T14:40:15Z</time>
      </trkpt>
      <trkpt lat="49.37786" lon="0.10496">
        <ele>124.4</ele>
        <time>2020-06-17T14:40:16Z</time>
      </trkpt>
      <trkpt lat="49.37787" lon="0.10501">
        <ele>124.5</ele>
        <time>2020-06-17T14:40:17Z</time>
      </trkpt>
      <trkpt lat="49.37786" lon="0.10507">
        <ele>124.5</ele>
        <time>2020-06-17T14:40:18Z</time>
      </trkpt>
      <trkpt lat="49.37787" lon="0.10512">
        <ele>124.6</ele>
        <time>2020-06-17T14:40:19Z</time>
      </trkpt>
      <trkpt lat="49.37788" lon="0.10517">
        <ele>124.6</ele>
        <time>2020-06-17T14:40:20Z</time>
      </trkpt>
      <trkpt lat="49.37789" lon="0.10523">
        <ele>124.6</ele>
        <time>2020-06-17T14:40:21Z</time>
      </trkpt>
      <trkpt lat="49.37789" lon="0.10528">
        <ele>124.6</ele>
        <time>2020-06-17T14:40:22Z</time>
      </trkpt>
      <trkpt lat="49.37789" lon="0.10534">
        <ele>124.6</ele>
        <time>2020-06-17T14:40:23Z</time>
      </trkpt>
      <trkpt lat="49.3779" lon="0.1054">
        <ele>124.6</ele>
        <time>2020-06-17T14:40:24Z</time>
      </trkpt>
      <trkpt lat="49.3779" lon="0.10546">
        <ele>124.6</ele>
        <time>2020-06-17T14:40:25Z</time>
      </trkpt>
      <trkpt lat="49.37791" lon="0.10553">
        <ele>124.6</ele>
        <time>2020-06-17T14:40:26Z</time>
      </trkpt>
      <trkpt lat="49.37791" lon="0.10559">
        <ele>124.6</ele>
        <time>2020-06-17T14:40:27Z</time>
      </trkpt>
      <trkpt lat="49.37792" lon="0.10565">
        <ele>124.6</ele>
        <time>2020-06-17T14:40:28Z</time>
      </trkpt>
      <trkpt lat="49.37793" lon="0.10571">
        <ele>124.6</ele>
        <time>2020-06-17T14:40:29Z</time>
      </trkpt>
      <trkpt lat="49.37793" lon="0.10576">
        <ele>124.6</ele>
        <time>2020-06-17T14:40:30Z</time>
      </trkpt>
      <trkpt lat="49.37793" lon="0.10581">
        <ele>124.6</ele>
        <time>2020-06-17T14:40:31Z</time>
      </trkpt>
      <trkpt lat="49.37795" lon="0.10586">
        <ele>124.6</ele>
        <time>2020-06-17T14:40:32Z</time>
      </trkpt>
      <trkpt lat="49.37795" lon="0.10591">
        <ele>124.6</ele>
        <time>2020-06-17T14:40:33Z</time>
      </trkpt>
      <trkpt lat="49.37797" lon="0.10597">
        <ele>124.5</ele>
        <time>2020-06-17T14:40:34Z</time>
      </trkpt>
      <trkpt lat="49.37799" lon="0.10602">
        <ele>124.5</ele>
        <time>2020-06-17T14:40:35Z</time>
      </trkpt>
      <trkpt lat="49.37801" lon="0.10609">
        <ele>124.5</ele>
        <time>2020-06-17T14:40:36Z</time>
      </trkpt>
      <trkpt lat="49.37802" lon="0.10615">
        <ele>124.5</ele>
        <time>2020-06-17T14:40:37Z</time>
      </trkpt>
      <trkpt lat="49.37804" lon="0.1062">
        <ele>124.5</ele>
        <time>2020-06-17T14:40:38Z</time>
      </trkpt>
      <trkpt lat="49.37805" lon="0.10626">
        <ele>124.5</ele>
        <time>2020-06-17T14:40:39Z</time>
      </trkpt>
      <trkpt lat="49.37807" lon="0.10632">
        <ele>124.5</ele>
        <time>2020-06-17T14:40:40Z</time>
      </trkpt>
      <trkpt lat="49.37811" lon="0.10638">
        <ele>124.6</ele>
        <time>2020-06-17T14:40:41Z</time>
      </trkpt>
      <trkpt lat="49.37813" lon="0.10645">
        <ele>124.7</ele>
        <time>2020-06-17T14:40:42Z</time>
      </trkpt>
      <trkpt lat="49.37815" lon="0.1065">
        <ele>124.7</ele>
        <time>2020-06-17T14:40:43Z</time>
      </trkpt>
      <trkpt lat="49.37818" lon="0.10655">
        <ele>124.8</ele>
        <time>2020-06-17T14:40:44Z</time>
      </trkpt>
      <trkpt lat="49.3782" lon="0.1066">
        <ele>124.9</ele>
        <time>2020-06-17T14:40:45Z</time>
      </trkpt>
      <trkpt lat="49.37822" lon="0.10664">
        <ele>125</ele>
        <time>2020-06-17T14:40:46Z</time>
      </trkpt>
      <trkpt lat="49.37825" lon="0.10669">
        <ele>125</ele>
        <time>2020-06-17T14:40:47Z</time>
      </trkpt>
      <trkpt lat="49.37828" lon="0.10672">
        <ele>125.1</ele>
        <time>2020-06-17T14:40:48Z</time>
      </trkpt>
      <trkpt lat="49.37831" lon="0.10676">
        <ele>125.1</ele>
        <time>2020-06-17T14:40:49Z</time>
      </trkpt>
      <trkpt lat="49.37834" lon="0.1068">
        <ele>125.2</ele>
        <time>2020-06-17T14:40:50Z</time>
      </trkpt>
      <trkpt lat="49.37839" lon="0.10682">
        <ele>125.2</ele>
        <time>2020-06-17T14:40:51Z</time>
      </trkpt>
      <trkpt lat="49.37842" lon="0.10686">
        <ele>125.3</ele>
        <time>2020-06-17T14:40:52Z</time>
      </trkpt>
      <trkpt lat="49.37845" lon="0.1069">
        <ele>125.3</ele>
        <time>2020-06-17T14:40:53Z</time>
      </trkpt>
      <trkpt lat="49.37848" lon="0.10693">
        <ele>125.3</ele>
        <time>2020-06-17T14:40:54Z</time>
      </trkpt>
      <trkpt lat="49.37851" lon="0.10698">
        <ele>125.3</ele>
        <time>2020-06-17T14:40:55Z</time>
      </trkpt>
      <trkpt lat="49.37855" lon="0.10701">
        <ele>125.3</ele>
        <time>2020-06-17T14:40:56Z</time>
      </trkpt>
      <trkpt lat="49.37858" lon="0.10703">
        <ele>125.4</ele>
        <time>2020-06-17T14:40:57Z</time>
      </trkpt>
      <trkpt lat="49.37862" lon="0.10704">
        <ele>125.4</ele>
        <time>2020-06-17T14:40:58Z</time>
      </trkpt>
      <trkpt lat="49.37865" lon="0.10704">
        <ele>125.4</ele>
        <time>2020-06-17T14:40:59Z</time>
      </trkpt>
      <trkpt lat="49.37869" lon="0.10705">
        <ele>125.4</ele>
        <time>2020-06-17T14:41:00Z</time>
      </trkpt>
      <trkpt lat="49.37872" lon="0.10706">
        <ele>125.4</ele>
        <time>2020-06-17T14:41:01Z</time>
      </trkpt>
      <trkpt lat="49.37876" lon="0.10705">
        <ele>125.4</ele>
        <time>2020-06-17T14:41:02Z</time>
      </trkpt>
      <trkpt lat="49.3788" lon="0.10707">
        <ele>125.4</ele>
        <time>2020-06-17T14:41:03Z</time>
      </trkpt>
      <trkpt lat="49.37885" lon="0.10709">
        <ele>125.5</ele>
        <time>2020-06-17T14:41:04Z</time>
      </trkpt>
      <trkpt lat="49.37888" lon="0.10711">
        <ele>125.5</ele>
        <time>2020-06-17T14:41:05Z</time>
      </trkpt>
      <trkpt lat="49.3789" lon="0.10713">
        <ele>125.5</ele>
        <time>2020-06-17T14:41:06Z</time>
      </trkpt>
      <trkpt lat="49.37893" lon="0.10715">
        <ele>125.5</ele>
        <time>2020-06-17T14:41:07Z</time>
      </trkpt>
      <trkpt lat="49.37897" lon="0.10718">
        <ele>125.5</ele>
        <time>2020-06-17T14:41:08Z</time>
      </trkpt>
      <trkpt lat="49.37901" lon="0.1072">
        <ele>125.6</ele>
        <time>2020-06-17T14:41:09Z</time>
      </trkpt>
      <trkpt lat="49.37904" lon="0.10722">
        <ele>125.6</ele>
        <time>2020-06-17T14:41:10Z</time>
      </trkpt>
      <trkpt lat="49.37908" lon="0.10724">
        <ele>125.6</ele>
        <time>2020-06-17T14:41:11Z</time>
      </trkpt>
      <trkpt lat="49.37911" lon="0.10726">
        <ele>125.7</ele>
        <time>2020-06-17T14:41:12Z</time>
      </trkpt>
      <trkpt lat="49.37915" lon="0.10728">
        <ele>125.8</ele>
        <time>2020-06-17T14:41:13Z</time>
      </trkpt>
      <trkpt lat="49.37919" lon="0.1073">
        <ele>125.9</ele>
        <time>2020-06-17T14:41:14Z</time>
      </trkpt>
      <trkpt lat="49.37924" lon="0.10732">
        <ele>126</ele>
        <time>2020-06-17T14:41:15Z</time>
      </trkpt>
      <trkpt lat="49.37928" lon="0.10734">
        <ele>126</ele>
        <time>2020-06-17T14:41:16Z</time>
      </trkpt>
      <trkpt lat="49.37933" lon="0.10735">
        <ele>126.1</ele>
        <time>2020-06-17T14:41:17Z</time>
      </trkpt>
      <trkpt lat="49.37937" lon="0.10736">
        <ele>126.2</ele>
        <time>2020-06-17T14:41:18Z</time>
      </trkpt>
      <trkpt lat="49.37942" lon="0.10738">
        <ele>126.4</ele>
        <time>2020-06-17T14:41:19Z</time>
      </trkpt>
      <trkpt lat="49.37947" lon="0.1074">
        <ele>126.5</ele>
        <time>2020-06-17T14:41:20Z</time>
      </trkpt>
      <trkpt lat="49.3795" lon="0.10743">
        <ele>126.5</ele>
        <time>2020-06-17T14:41:21Z</time>
      </trkpt>
      <trkpt lat="49.37954" lon="0.10746">
        <ele>126.6</ele>
        <time>2020-06-17T14:41:22Z</time>
      </trkpt>
      <trkpt lat="49.37958" lon="0.10749">
        <ele>126.7</ele>
        <time>2020-06-17T14:41:23Z</time>
      </trkpt>
      <trkpt lat="49.37962" lon="0.1075">
        <ele>126.8</ele>
        <time>2020-06-17T14:41:24Z</time>
      </trkpt>
      <trkpt lat="49.37966" lon="0.10752">
        <ele>126.9</ele>
        <time>2020-06-17T14:41:25Z</time>
      </trkpt>
      <trkpt lat="49.3797" lon="0.10754">
        <ele>127</ele>
        <time>2020-06-17T14:41:26Z</time>
      </trkpt>
      <trkpt lat="49.37975" lon="0.10757">
        <ele>127.1</ele>
        <time>2020-06-17T14:41:27Z</time>
      </trkpt>
      <trkpt lat="49.37979" lon="0.10759">
        <ele>127.2</ele>
        <time>2020-06-17T14:41:28Z</time>
      </trkpt>
      <trkpt lat="49.37982" lon="0.10761">
        <ele>127.2</ele>
        <time>2020-06-17T14:41:29Z</time>
      </trkpt>
      <trkpt lat="49.37986" lon="0.10764">
        <ele>127.4</ele>
        <time>2020-06-17T14:41:30Z</time>
      </trkpt>
      <trkpt lat="49.37989" lon="0.10768">
        <ele>127.5</ele>
        <time>2020-06-17T14:41:31Z</time>
      </trkpt>
      <trkpt lat="49.37992" lon="0.10771">
        <ele>127.7</ele>
        <time>2020-06-17T14:41:32Z</time>
      </trkpt>
      <trkpt lat="49.37995" lon="0.10772">
        <ele>127.8</ele>
        <time>2020-06-17T14:41:33Z</time>
      </trkpt>
      <trkpt lat="49.37999" lon="0.10775">
        <ele>128</ele>
        <time>2020-06-17T14:41:34Z</time>
      </trkpt>
      <trkpt lat="49.38002" lon="0.10778">
        <ele>128.2</ele>
        <time>2020-06-17T14:41:35Z</time>
      </trkpt>
      <trkpt lat="49.38005" lon="0.10781">
        <ele>128.3</ele>
        <time>2020-06-17T14:41:36Z</time>
      </trkpt>
      <trkpt lat="49.38008" lon="0.10784">
        <ele>128.5</ele>
        <time>2020-06-17T14:41:37Z</time>
      </trkpt>
      <trkpt lat="49.38012" lon="0.10787">
        <ele>128.6</ele>
        <time>2020-06-17T14:41:38Z</time>
      </trkpt>
      <trkpt lat="49.38015" lon="0.10789">
        <ele>128.8</ele>
        <time>2020-06-17T14:41:39Z</time>
      </trkpt>
      <trkpt lat="49.3802" lon="0.10792">
        <ele>129</ele>
        <time>2020-06-17T14:41:40Z</time>
      </trkpt>
      <trkpt lat="49.38025" lon="0.10794">
        <ele>129.2</ele>
        <time>2020-06-17T14:41:41Z</time>
      </trkpt>
      <trkpt lat="49.38029" lon="0.10797">
        <ele>129.3</ele>
        <time>2020-06-17T14:41:42Z</time>
      </trkpt>
      <trkpt lat="49.38033" lon="0.108">
        <ele>129.3</ele>
        <time>2020-06-17T14:41:43Z</time>
      </trkpt>
      <trkpt lat="49.38036" lon="0.10803">
        <ele>129.4</ele>
        <time>2020-06-17T14:41:44Z</time>
      </trkpt>
      <trkpt lat="49.38039" lon="0.10807">
        <ele>129.4</ele>
        <time>2020-06-17T14:41:45Z</time>
      </trkpt>
      <trkpt lat="49.38043" lon="0.10811">
        <ele>129.5</ele>
        <time>2020-06-17T14:41:46Z</time>
      </trkpt>
      <trkpt lat="49.38046" lon="0.10814">
        <ele>129.5</ele>
        <time>2020-06-17T14:41:47Z</time>
      </trkpt>
      <trkpt lat="49.3805" lon="0.10817">
        <ele>129.6</ele>
        <time>2020-06-17T14:41:48Z</time>
      </trkpt>
      <trkpt lat="49.38053" lon="0.10821">
        <ele>129.7</ele>
        <time>2020-06-17T14:41:49Z</time>
      </trkpt>
      <trkpt lat="49.38058" lon="0.10826">
        <ele>129.7</ele>
        <time>2020-06-17T14:41:50Z</time>
      </trkpt>
      <trkpt lat="49.38061" lon="0.10831">
        <ele>129.8</ele>
        <time>2020-06-17T14:41:51Z</time>
      </trkpt>
      <trkpt lat="49.38065" lon="0.10835">
        <ele>129.9</ele>
        <time>2020-06-17T14:41:52Z</time>
      </trkpt>
      <trkpt lat="49.38069" lon="0.10838">
        <ele>130</ele>
        <time>2020-06-17T14:41:53Z</time>
      </trkpt>
      <trkpt lat="49.38073" lon="0.10841">
        <ele>130</ele>
        <time>2020-06-17T14:41:54Z</time>
      </trkpt>
      <trkpt lat="49.38077" lon="0.10844">
        <ele>130.1</ele>
        <time>2020-06-17T14:41:55Z</time>
      </trkpt>
      <trkpt lat="49.38081" lon="0.10848">
        <ele>130.2</ele>
        <time>2020-06-17T14:41:56Z</time>
      </trkpt>
      <trkpt lat="49.38086" lon="0.10851">
        <ele>130.2</ele>
        <time>2020-06-17T14:41:57Z</time>
      </trkpt>
      <trkpt lat="49.38089" lon="0.10857">
        <ele>130.3</ele>
        <time>2020-06-17T14:41:58Z</time>
      </trkpt>
      <trkpt lat="49.38093" lon="0.10861">
        <ele>130.4</ele>
        <time>2020-06-17T14:41:59Z</time>
      </trkpt>
      <trkpt lat="49.38097" lon="0.10864">
        <ele>130.4</ele>
        <time>2020-06-17T14:42:00Z</time>
      </trkpt>
      <trkpt lat="49.38102" lon="0.10867">
        <ele>130.5</ele>
        <time>2020-06-17T14:42:01Z</time>
      </trkpt>
      <trkpt lat="49.38106" lon="0.10871">
        <ele>130.6</ele>
        <time>2020-06-17T14:42:02Z</time>
      </trkpt>
      <trkpt lat="49.3811" lon="0.10874">
        <ele>130.6</ele>
        <time>2020-06-17T14:42:03Z</time>
      </trkpt>
      <trkpt lat="49.38114" lon="0.10878">
        <ele>130.7</ele>
        <time>2020-06-17T14:42:04Z</time>
      </trkpt>
      <trkpt lat="49.38117" lon="0.10881">
        <ele>130.7</ele>
        <time>2020-06-17T14:42:05Z</time>
      </trkpt>
      <trkpt lat="49.38121" lon="0.10884">
        <ele>130.7</ele>
        <time>2020-06-17T14:42:06Z</time>
      </trkpt>
      <trkpt lat="49.38125" lon="0.10887">
        <ele>130.7</ele>
        <time>2020-06-17T14:42:07Z</time>
      </trkpt>
      <trkpt lat="49.38128" lon="0.10889">
        <ele>130.6</ele>
        <time>2020-06-17T14:42:08Z</time>
      </trkpt>
      <trkpt lat="49.38133" lon="0.10891">
        <ele>130.6</ele>
        <time>2020-06-17T14:42:09Z</time>
      </trkpt>
      <trkpt lat="49.38136" lon="0.10893">
        <ele>130.6</ele>
        <time>2020-06-17T14:42:10Z</time>
      </trkpt>
      <trkpt lat="49.3814" lon="0.10896">
        <ele>130.6</ele>
        <time>2020-06-17T14:42:11Z</time>
      </trkpt>
      <trkpt lat="49.38144" lon="0.109">
        <ele>130.6</ele>
        <time>2020-06-17T14:42:12Z</time>
      </trkpt>
      <trkpt lat="49.38148" lon="0.10903">
        <ele>130.6</ele>
        <time>2020-06-17T14:42:13Z</time>
      </trkpt>
      <trkpt lat="49.38152" lon="0.10907">
        <ele>130.6</ele>
        <time>2020-06-17T14:42:14Z</time>
      </trkpt>
      <trkpt lat="49.38157" lon="0.10908">
        <ele>130.6</ele>
        <time>2020-06-17T14:42:15Z</time>
      </trkpt>
      <trkpt lat="49.3816" lon="0.10908">
        <ele>130.6</ele>
        <time>2020-06-17T14:42:16Z</time>
      </trkpt>
      <trkpt lat="49.38164" lon="0.1091">
        <ele>130.6</ele>
        <time>2020-06-17T14:42:17Z</time>
      </trkpt>
      <trkpt lat="49.38168" lon="0.10912">
        <ele>130.6</ele>
        <time>2020-06-17T14:42:18Z</time>
      </trkpt>
      <trkpt lat="49.38172" lon="0.10914">
        <ele>130.7</ele>
        <time>2020-06-17T14:42:19Z</time>
      </trkpt>
      <trkpt lat="49.38176" lon="0.10917">
        <ele>130.7</ele>
        <time>2020-06-17T14:42:20Z</time>
      </trkpt>
      <trkpt lat="49.3818" lon="0.1092">
        <ele>130.6</ele>
        <time>2020-06-17T14:42:21Z</time>
      </trkpt>
      <trkpt lat="49.38184" lon="0.10925">
        <ele>130.6</ele>
        <time>2020-06-17T14:42:22Z</time>
      </trkpt>
      <trkpt lat="49.38188" lon="0.10928">
        <ele>130.6</ele>
        <time>2020-06-17T14:42:23Z</time>
      </trkpt>
      <trkpt lat="49.38192" lon="0.10931">
        <ele>130.6</ele>
        <time>2020-06-17T14:42:24Z</time>
      </trkpt>
      <trkpt lat="49.38195" lon="0.10935">
        <ele>130.5</ele>
        <time>2020-06-17T14:42:25Z</time>
      </trkpt>
      <trkpt lat="49.38199" lon="0.10938">
        <ele>130.5</ele>
        <time>2020-06-17T14:42:26Z</time>
      </trkpt>
      <trkpt lat="49.38203" lon="0.10944">
        <ele>130.4</ele>
        <time>2020-06-17T14:42:27Z</time>
      </trkpt>
      <trkpt lat="49.38206" lon="0.10949">
        <ele>130.3</ele>
        <time>2020-06-17T14:42:28Z</time>
      </trkpt>
      <trkpt lat="49.38208" lon="0.10953">
        <ele>130.3</ele>
        <time>2020-06-17T14:42:29Z</time>
      </trkpt>
      <trkpt lat="49.38213" lon="0.1096">
        <ele>130.2</ele>
        <time>2020-06-17T14:42:30Z</time>
      </trkpt>
      <trkpt lat="49.38216" lon="0.10965">
        <ele>130.1</ele>
        <time>2020-06-17T14:42:31Z</time>
      </trkpt>
      <trkpt lat="49.38219" lon="0.10969">
        <ele>130.1</ele>
        <time>2020-06-17T14:42:32Z</time>
      </trkpt>
      <trkpt lat="49.38223" lon="0.10973">
        <ele>130.1</ele>
        <time>2020-06-17T14:42:33Z</time>
      </trkpt>
      <trkpt lat="49.38226" lon="0.10976">
        <ele>130</ele>
        <time>2020-06-17T14:42:34Z</time>
      </trkpt>
      <trkpt lat="49.38229" lon="0.10979">
        <ele>130</ele>
        <time>2020-06-17T14:42:35Z</time>
      </trkpt>
      <trkpt lat="49.38232" lon="0.10982">
        <ele>130</ele>
        <time>2020-06-17T14:42:36Z</time>
      </trkpt>
      <trkpt lat="49.38235" lon="0.10984">
        <ele>129.9</ele>
        <time>2020-06-17T14:42:37Z</time>
      </trkpt>
      <trkpt lat="49.38238" lon="0.10986">
        <ele>129.9</ele>
        <time>2020-06-17T14:42:38Z</time>
      </trkpt>
      <trkpt lat="49.38241" lon="0.10989">
        <ele>129.9</ele>
        <time>2020-06-17T14:42:39Z</time>
      </trkpt>
      <trkpt lat="49.38245" lon="0.10994">
        <ele>129.8</ele>
        <time>2020-06-17T14:42:40Z</time>
      </trkpt>
      <trkpt lat="49.3825" lon="0.10999">
        <ele>129.7</ele>
        <time>2020-06-17T14:42:41Z</time>
      </trkpt>
      <trkpt lat="49.38254" lon="0.11004">
        <ele>129.7</ele>
        <time>2020-06-17T14:42:42Z</time>
      </trkpt>
      <trkpt lat="49.38258" lon="0.11009">
        <ele>129.6</ele>
        <time>2020-06-17T14:42:43Z</time>
      </trkpt>
      <trkpt lat="49.38262" lon="0.11015">
        <ele>129.5</ele>
        <time>2020-06-17T14:42:44Z</time>
      </trkpt>
      <trkpt lat="49.38266" lon="0.11022">
        <ele>129.5</ele>
        <time>2020-06-17T14:42:45Z</time>
      </trkpt>
      <trkpt lat="49.38271" lon="0.11029">
        <ele>129.4</ele>
        <time>2020-06-17T14:42:46Z</time>
      </trkpt>
      <trkpt lat="49.38275" lon="0.11037">
        <ele>129.4</ele>
        <time>2020-06-17T14:42:47Z</time>
      </trkpt>
      <trkpt lat="49.38278" lon="0.11043">
        <ele>129.3</ele>
        <time>2020-06-17T14:42:48Z</time>
      </trkpt>
      <trkpt lat="49.38282" lon="0.11051">
        <ele>129.3</ele>
        <time>2020-06-17T14:42:49Z</time>
      </trkpt>
      <trkpt lat="49.38285" lon="0.11058">
        <ele>129.3</ele>
        <time>2020-06-17T14:42:50Z</time>
      </trkpt>
      <trkpt lat="49.38288" lon="0.11066">
        <ele>129.3</ele>
        <time>2020-06-17T14:42:51Z</time>
      </trkpt>
      <trkpt lat="49.3829" lon="0.11073">
        <ele>129.2</ele>
        <time>2020-06-17T14:42:52Z</time>
      </trkpt>
      <trkpt lat="49.38293" lon="0.1108">
        <ele>129.1</ele>
        <time>2020-06-17T14:42:53Z</time>
      </trkpt>
      <trkpt lat="49.38296" lon="0.11086">
        <ele>129.1</ele>
        <time>2020-06-17T14:42:54Z</time>
      </trkpt>
      <trkpt lat="49.38298" lon="0.11094">
        <ele>129</ele>
        <time>2020-06-17T14:42:55Z</time>
      </trkpt>
      <trkpt lat="49.383" lon="0.11103">
        <ele>128.9</ele>
        <time>2020-06-17T14:42:56Z</time>
      </trkpt>
      <trkpt lat="49.38301" lon="0.11112">
        <ele>128.9</ele>
        <time>2020-06-17T14:42:57Z</time>
      </trkpt>
      <trkpt lat="49.38303" lon="0.1112">
        <ele>128.8</ele>
        <time>2020-06-17T14:42:58Z</time>
      </trkpt>
      <trkpt lat="49.38304" lon="0.11126">
        <ele>128.8</ele>
        <time>2020-06-17T14:42:59Z</time>
      </trkpt>
      <trkpt lat="49.38306" lon="0.11134">
        <ele>128.7</ele>
        <time>2020-06-17T14:43:00Z</time>
      </trkpt>
      <trkpt lat="49.38309" lon="0.11141">
        <ele>128.6</ele>
        <time>2020-06-17T14:43:01Z</time>
      </trkpt>
      <trkpt lat="49.38311" lon="0.11148">
        <ele>128.5</ele>
        <time>2020-06-17T14:43:02Z</time>
      </trkpt>
      <trkpt lat="49.38314" lon="0.11154">
        <ele>128.3</ele>
        <time>2020-06-17T14:43:03Z</time>
      </trkpt>
      <trkpt lat="49.38318" lon="0.1116">
        <ele>128.2</ele>
        <time>2020-06-17T14:43:04Z</time>
      </trkpt>
      <trkpt lat="49.38321" lon="0.11166">
        <ele>128</ele>
        <time>2020-06-17T14:43:05Z</time>
      </trkpt>
      <trkpt lat="49.38325" lon="0.11174">
        <ele>127.8</ele>
        <time>2020-06-17T14:43:06Z</time>
      </trkpt>
      <trkpt lat="49.38329" lon="0.1118">
        <ele>127.6</ele>
        <time>2020-06-17T14:43:07Z</time>
      </trkpt>
      <trkpt lat="49.38333" lon="0.11187">
        <ele>127.3</ele>
        <time>2020-06-17T14:43:08Z</time>
      </trkpt>
      <trkpt lat="49.38337" lon="0.11195">
        <ele>127.1</ele>
        <time>2020-06-17T14:43:09Z</time>
      </trkpt>
      <trkpt lat="49.38342" lon="0.11203">
        <ele>126.8</ele>
        <time>2020-06-17T14:43:10Z</time>
      </trkpt>
      <trkpt lat="49.38346" lon="0.11211">
        <ele>126.6</ele>
        <time>2020-06-17T14:43:11Z</time>
      </trkpt>
      <trkpt lat="49.38351" lon="0.1122">
        <ele>126.5</ele>
        <time>2020-06-17T14:43:12Z</time>
      </trkpt>
      <trkpt lat="49.38355" lon="0.11229">
        <ele>126.5</ele>
        <time>2020-06-17T14:43:13Z</time>
      </trkpt>
      <trkpt lat="49.3836" lon="0.11238">
        <ele>126.5</ele>
        <time>2020-06-17T14:43:14Z</time>
      </trkpt>
      <trkpt lat="49.38364" lon="0.11244">
        <ele>126.5</ele>
        <time>2020-06-17T14:43:15Z</time>
      </trkpt>
      <trkpt lat="49.38369" lon="0.11251">
        <ele>126.5</ele>
        <time>2020-06-17T14:43:16Z</time>
      </trkpt>
      <trkpt lat="49.38373" lon="0.11258">
        <ele>126.5</ele>
        <time>2020-06-17T14:43:17Z</time>
      </trkpt>
      <trkpt lat="49.38376" lon="0.11264">
        <ele>126.5</ele>
        <time>2020-06-17T14:43:18Z</time>
      </trkpt>
      <trkpt lat="49.3838" lon="0.11271">
        <ele>126.5</ele>
        <time>2020-06-17T14:43:19Z</time>
      </trkpt>
      <trkpt lat="49.38384" lon="0.11278">
        <ele>126.5</ele>
        <time>2020-06-17T14:43:20Z</time>
      </trkpt>
      <trkpt lat="49.38387" lon="0.11286">
        <ele>126.5</ele>
        <time>2020-06-17T14:43:21Z</time>
      </trkpt>
      <trkpt lat="49.38391" lon="0.11294">
        <ele>126.6</ele>
        <time>2020-06-17T14:43:22Z</time>
      </trkpt>
      <trkpt lat="49.38395" lon="0.11302">
        <ele>126.7</ele>
        <time>2020-06-17T14:43:23Z</time>
      </trkpt>
      <trkpt lat="49.38398" lon="0.11308">
        <ele>126.8</ele>
        <time>2020-06-17T14:43:24Z</time>
      </trkpt>
      <trkpt lat="49.38401" lon="0.11313">
        <ele>127</ele>
        <time>2020-06-17T14:43:25Z</time>
      </trkpt>
      <trkpt lat="49.38405" lon="0.11319">
        <ele>127.1</ele>
        <time>2020-06-17T14:43:26Z</time>
      </trkpt>
      <trkpt lat="49.38408" lon="0.11324">
        <ele>127.2</ele>
        <time>2020-06-17T14:43:27Z</time>
      </trkpt>
      <trkpt lat="49.3841" lon="0.1133">
        <ele>127.2</ele>
        <time>2020-06-17T14:43:28Z</time>
      </trkpt>
      <trkpt lat="49.38414" lon="0.11336">
        <ele>127.3</ele>
        <time>2020-06-17T14:43:29Z</time>
      </trkpt>
      <trkpt lat="49.38417" lon="0.11343">
        <ele>127.4</ele>
        <time>2020-06-17T14:43:30Z</time>
      </trkpt>
      <trkpt lat="49.38421" lon="0.11349">
        <ele>127.5</ele>
        <time>2020-06-17T14:43:31Z</time>
      </trkpt>
      <trkpt lat="49.38423" lon="0.11354">
        <ele>127.5</ele>
        <time>2020-06-17T14:43:32Z</time>
      </trkpt>
      <trkpt lat="49.38425" lon="0.11356">
        <ele>127.5</ele>
        <time>2020-06-17T14:43:33Z</time>
      </trkpt>
      <trkpt lat="49.38429" lon="0.11361">
        <ele>127.6</ele>
        <time>2020-06-17T14:43:34Z</time>
      </trkpt>
      <trkpt lat="49.38433" lon="0.11366">
        <ele>127.6</ele>
        <time>2020-06-17T14:43:35Z</time>
      </trkpt>
      <trkpt lat="49.38437" lon="0.11371">
        <ele>127.6</ele>
        <time>2020-06-17T14:43:36Z</time>
      </trkpt>
      <trkpt lat="49.38441" lon="0.11375">
        <ele>127.6</ele>
        <time>2020-06-17T14:43:37Z</time>
      </trkpt>
      <trkpt lat="49.38445" lon="0.11378">
        <ele>127.6</ele>
        <time>2020-06-17T14:43:38Z</time>
      </trkpt>
      <trkpt lat="49.38449" lon="0.11383">
        <ele>127.5</ele>
        <time>2020-06-17T14:43:39Z</time>
      </trkpt>
      <trkpt lat="49.38453" lon="0.11387">
        <ele>127.5</ele>
        <time>2020-06-17T14:43:40Z</time>
      </trkpt>
      <trkpt lat="49.38457" lon="0.11391">
        <ele>127.4</ele>
        <time>2020-06-17T14:43:41Z</time>
      </trkpt>
      <trkpt lat="49.38462" lon="0.11397">
        <ele>127.3</ele>
        <time>2020-06-17T14:43:42Z</time>
      </trkpt>
      <trkpt lat="49.38466" lon="0.11401">
        <ele>127.2</ele>
        <time>2020-06-17T14:43:43Z</time>
      </trkpt>
      <trkpt lat="49.3847" lon="0.11405">
        <ele>127.2</ele>
        <time>2020-06-17T14:43:44Z</time>
      </trkpt>
      <trkpt lat="49.38474" lon="0.1141">
        <ele>127.1</ele>
        <time>2020-06-17T14:43:45Z</time>
      </trkpt>
      <trkpt lat="49.38477" lon="0.11414">
        <ele>127</ele>
        <time>2020-06-17T14:43:46Z</time>
      </trkpt>
      <trkpt lat="49.38481" lon="0.11418">
        <ele>127</ele>
        <time>2020-06-17T14:43:47Z</time>
      </trkpt>
      <trkpt lat="49.38484" lon="0.11422">
        <ele>126.9</ele>
        <time>2020-06-17T14:43:48Z</time>
      </trkpt>
      <trkpt lat="49.38487" lon="0.11424">
        <ele>126.8</ele>
        <time>2020-06-17T14:43:49Z</time>
      </trkpt>
      <trkpt lat="49.38489" lon="0.11427">
        <ele>126.8</ele>
        <time>2020-06-17T14:43:50Z</time>
      </trkpt>
      <trkpt lat="49.38492" lon="0.11431">
        <ele>126.7</ele>
        <time>2020-06-17T14:43:51Z</time>
      </trkpt>
      <trkpt lat="49.38495" lon="0.11435">
        <ele>126.6</ele>
        <time>2020-06-17T14:43:52Z</time>
      </trkpt>
      <trkpt lat="49.38498" lon="0.11438">
        <ele>126.6</ele>
        <time>2020-06-17T14:43:53Z</time>
      </trkpt>
      <trkpt lat="49.38501" lon="0.11441">
        <ele>126.5</ele>
        <time>2020-06-17T14:43:54Z</time>
      </trkpt>
      <trkpt lat="49.38504" lon="0.11445">
        <ele>126.4</ele>
        <time>2020-06-17T14:43:55Z</time>
      </trkpt>
      <trkpt lat="49.38508" lon="0.11449">
        <ele>126.3</ele>
        <time>2020-06-17T14:43:56Z</time>
      </trkpt>
      <trkpt lat="49.38512" lon="0.11454">
        <ele>126.3</ele>
        <time>2020-06-17T14:43:57Z</time>
      </trkpt>
      <trkpt lat="49.38517" lon="0.11458">
        <ele>126.2</ele>
        <time>2020-06-17T14:43:58Z</time>
      </trkpt>
      <trkpt lat="49.38522" lon="0.11464">
        <ele>126</ele>
        <time>2020-06-17T14:43:59Z</time>
      </trkpt>
      <trkpt lat="49.38526" lon="0.11469">
        <ele>126</ele>
        <time>2020-06-17T14:44:00Z</time>
      </trkpt>
      <trkpt lat="49.3853" lon="0.11475">
        <ele>126</ele>
        <time>2020-06-17T14:44:01Z</time>
      </trkpt>
      <trkpt lat="49.38535" lon="0.11482">
        <ele>126</ele>
        <time>2020-06-17T14:44:02Z</time>
      </trkpt>
      <trkpt lat="49.38539" lon="0.11488">
        <ele>126</ele>
        <time>2020-06-17T14:44:03Z</time>
      </trkpt>
      <trkpt lat="49.38542" lon="0.11494">
        <ele>126.1</ele>
        <time>2020-06-17T14:44:04Z</time>
      </trkpt>
      <trkpt lat="49.38546" lon="0.11499">
        <ele>126.2</ele>
        <time>2020-06-17T14:44:05Z</time>
      </trkpt>
      <trkpt lat="49.38549" lon="0.11503">
        <ele>126.2</ele>
        <time>2020-06-17T14:44:06Z</time>
      </trkpt>
      <trkpt lat="49.38552" lon="0.11507">
        <ele>126.3</ele>
        <time>2020-06-17T14:44:07Z</time>
      </trkpt>
      <trkpt lat="49.38555" lon="0.1151">
        <ele>126.4</ele>
        <time>2020-06-17T14:44:08Z</time>
      </trkpt>
      <trkpt lat="49.38557" lon="0.11514">
        <ele>126.4</ele>
        <time>2020-06-17T14:44:09Z</time>
      </trkpt>
      <trkpt lat="49.38562" lon="0.11519">
        <ele>126.5</ele>
        <time>2020-06-17T14:44:10Z</time>
      </trkpt>
      <trkpt lat="49.38566" lon="0.11522">
        <ele>126.6</ele>
        <time>2020-06-17T14:44:11Z</time>
      </trkpt>
      <trkpt lat="49.38569" lon="0.11524">
        <ele>126.7</ele>
        <time>2020-06-17T14:44:12Z</time>
      </trkpt>
      <trkpt lat="49.38572" lon="0.11527">
        <ele>126.7</ele>
        <time>2020-06-17T14:44:13Z</time>
      </trkpt>
      <trkpt lat="49.38577" lon="0.11532">
        <ele>126.9</ele>
        <time>2020-06-17T14:44:14Z</time>
      </trkpt>
      <trkpt lat="49.38582" lon="0.11537">
        <ele>126.9</ele>
        <time>2020-06-17T14:44:15Z</time>
      </trkpt>
      <trkpt lat="49.38586" lon="0.11541">
        <ele>127</ele>
        <time>2020-06-17T14:44:16Z</time>
      </trkpt>
      <trkpt lat="49.3859" lon="0.11546">
        <ele>127.1</ele>
        <time>2020-06-17T14:44:17Z</time>
      </trkpt>
      <trkpt lat="49.38593" lon="0.1155">
        <ele>127.2</ele>
        <time>2020-06-17T14:44:18Z</time>
      </trkpt>
      <trkpt lat="49.38596" lon="0.11552">
        <ele>127.2</ele>
        <time>2020-06-17T14:44:19Z</time>
      </trkpt>
      <trkpt lat="49.38599" lon="0.11557">
        <ele>127.3</ele>
        <time>2020-06-17T14:44:20Z</time>
      </trkpt>
      <trkpt lat="49.38602" lon="0.11561">
        <ele>127.3</ele>
        <time>2020-06-17T14:44:21Z</time>
      </trkpt>
      <trkpt lat="49.38606" lon="0.11566">
        <ele>127.4</ele>
        <time>2020-06-17T14:44:22Z</time>
      </trkpt>
      <trkpt lat="49.3861" lon="0.1157">
        <ele>127.5</ele>
        <time>2020-06-17T14:44:23Z</time>
      </trkpt>
      <trkpt lat="49.38614" lon="0.11575">
        <ele>127.5</ele>
        <time>2020-06-17T14:44:24Z</time>
      </trkpt>
      <trkpt lat="49.38618" lon="0.1158">
        <ele>127.5</ele>
        <time>2020-06-17T14:44:25Z</time>
      </trkpt>
      <trkpt lat="49.38622" lon="0.11584">
        <ele>127.5</ele>
        <time>2020-06-17T14:44:26Z</time>
      </trkpt>
      <trkpt lat="49.38626" lon="0.1159">
        <ele>127.5</ele>
        <time>2020-06-17T14:44:27Z</time>
      </trkpt>
      <trkpt lat="49.38627" lon="0.11596">
        <ele>127.5</ele>
        <time>2020-06-17T14:44:28Z</time>
      </trkpt>
      <trkpt lat="49.38631" lon="0.11602">
        <ele>127.5</ele>
        <time>2020-06-17T14:44:29Z</time>
      </trkpt>
      <trkpt lat="49.38633" lon="0.11609">
        <ele>127.5</ele>
        <time>2020-06-17T14:44:30Z</time>
      </trkpt>
      <trkpt lat="49.38634" lon="0.11615">
        <ele>127.5</ele>
        <time>2020-06-17T14:44:31Z</time>
      </trkpt>
      <trkpt lat="49.38634" lon="0.11622">
        <ele>127.5</ele>
        <time>2020-06-17T14:44:32Z</time>
      </trkpt>
      <trkpt lat="49.38634" lon="0.11628">
        <ele>127.5</ele>
        <time>2020-06-17T14:44:33Z</time>
      </trkpt>
      <trkpt lat="49.38634" lon="0.11634">
        <ele>127.5</ele>
        <time>2020-06-17T14:44:34Z</time>
      </trkpt>
      <trkpt lat="49.38633" lon="0.11641">
        <ele>127.5</ele>
        <time>2020-06-17T14:44:35Z</time>
      </trkpt>
      <trkpt lat="49.38633" lon="0.11648">
        <ele>127.5</ele>
        <time>2020-06-17T14:44:36Z</time>
      </trkpt>
      <trkpt lat="49.38632" lon="0.11657">
        <ele>127.5</ele>
        <time>2020-06-17T14:44:37Z</time>
      </trkpt>
      <trkpt lat="49.38632" lon="0.11662">
        <ele>127.6</ele>
        <time>2020-06-17T14:44:38Z</time>
      </trkpt>
      <trkpt lat="49.38632" lon="0.11669">
        <ele>127.6</ele>
        <time>2020-06-17T14:44:39Z</time>
      </trkpt>
      <trkpt lat="49.38632" lon="0.11675">
        <ele>127.7</ele>
        <time>2020-06-17T14:44:40Z</time>
      </trkpt>
      <trkpt lat="49.38631" lon="0.11679">
        <ele>127.7</ele>
        <time>2020-06-17T14:44:41Z</time>
      </trkpt>
      <trkpt lat="49.38632" lon="0.11685">
        <ele>127.8</ele>
        <time>2020-06-17T14:44:42Z</time>
      </trkpt>
      <trkpt lat="49.38632" lon="0.1169">
        <ele>127.8</ele>
        <time>2020-06-17T14:44:43Z</time>
      </trkpt>
      <trkpt lat="49.38633" lon="0.11695">
        <ele>127.8</ele>
        <time>2020-06-17T14:44:44Z</time>
      </trkpt>
      <trkpt lat="49.38634" lon="0.117">
        <ele>127.9</ele>
        <time>2020-06-17T14:44:45Z</time>
      </trkpt>
      <trkpt lat="49.38636" lon="0.11706">
        <ele>127.9</ele>
        <time>2020-06-17T14:44:46Z</time>
      </trkpt>
      <trkpt lat="49.3864" lon="0.11709">
        <ele>128</ele>
        <time>2020-06-17T14:44:47Z</time>
      </trkpt>
      <trkpt lat="49.38642" lon="0.11715">
        <ele>128</ele>
        <time>2020-06-17T14:44:48Z</time>
      </trkpt>
      <trkpt lat="49.38643" lon="0.11719">
        <ele>128.1</ele>
        <time>2020-06-17T14:44:49Z</time>
      </trkpt>
      <trkpt lat="49.38645" lon="0.11724">
        <ele>128.1</ele>
        <time>2020-06-17T14:44:50Z</time>
      </trkpt>
      <trkpt lat="49.38646" lon="0.1173">
        <ele>128.1</ele>
        <time>2020-06-17T14:44:51Z</time>
      </trkpt>
      <trkpt lat="49.38648" lon="0.11735">
        <ele>128.2</ele>
        <time>2020-06-17T14:44:52Z</time>
      </trkpt>
      <trkpt lat="49.3865" lon="0.11741">
        <ele>128.2</ele>
        <time>2020-06-17T14:44:53Z</time>
      </trkpt>
      <trkpt lat="49.38651" lon="0.11747">
        <ele>128.2</ele>
        <time>2020-06-17T14:44:54Z</time>
      </trkpt>
      <trkpt lat="49.38653" lon="0.11753">
        <ele>128.3</ele>
        <time>2020-06-17T14:44:55Z</time>
      </trkpt>
      <trkpt lat="49.38655" lon="0.11759">
        <ele>128.3</ele>
        <time>2020-06-17T14:44:56Z</time>
      </trkpt>
      <trkpt lat="49.38656" lon="0.11764">
        <ele>128.3</ele>
        <time>2020-06-17T14:44:57Z</time>
      </trkpt>
      <trkpt lat="49.38658" lon="0.11769">
        <ele>128.3</ele>
        <time>2020-06-17T14:44:58Z</time>
      </trkpt>
      <trkpt lat="49.38659" lon="0.11775">
        <ele>128.4</ele>
        <time>2020-06-17T14:44:59Z</time>
      </trkpt>
      <trkpt lat="49.38661" lon="0.1178">
        <ele>128.4</ele>
        <time>2020-06-17T14:45:00Z</time>
      </trkpt>
      <trkpt lat="49.38663" lon="0.11786">
        <ele>128.4</ele>
        <time>2020-06-17T14:45:01Z</time>
      </trkpt>
      <trkpt lat="49.38665" lon="0.11792">
        <ele>128.4</ele>
        <time>2020-06-17T14:45:02Z</time>
      </trkpt>
      <trkpt lat="49.38667" lon="0.11798">
        <ele>128.5</ele>
        <time>2020-06-17T14:45:03Z</time>
      </trkpt>
      <trkpt lat="49.38669" lon="0.11803">
        <ele>128.5</ele>
        <time>2020-06-17T14:45:04Z</time>
      </trkpt>
      <trkpt lat="49.38672" lon="0.11807">
        <ele>128.5</ele>
        <time>2020-06-17T14:45:05Z</time>
      </trkpt>
      <trkpt lat="49.38675" lon="0.1181">
        <ele>128.5</ele>
        <time>2020-06-17T14:45:06Z</time>
      </trkpt>
      <trkpt lat="49.38679" lon="0.11814">
        <ele>128.5</ele>
        <time>2020-06-17T14:45:07Z</time>
      </trkpt>
      <trkpt lat="49.38682" lon="0.11817">
        <ele>128.5</ele>
        <time>2020-06-17T14:45:08Z</time>
      </trkpt>
      <trkpt lat="49.38685" lon="0.11823">
        <ele>128.5</ele>
        <time>2020-06-17T14:45:09Z</time>
      </trkpt>
      <trkpt lat="49.38686" lon="0.11826">
        <ele>128.5</ele>
        <time>2020-06-17T14:45:10Z</time>
      </trkpt>
      <trkpt lat="49.38687" lon="0.11829">
        <ele>128.6</ele>
        <time>2020-06-17T14:45:11Z</time>
      </trkpt>
      <trkpt lat="49.3869" lon="0.11836">
        <ele>128.6</ele>
        <time>2020-06-17T14:45:12Z</time>
      </trkpt>
      <trkpt lat="49.38693" lon="0.11842">
        <ele>128.6</ele>
        <time>2020-06-17T14:45:13Z</time>
      </trkpt>
      <trkpt lat="49.38696" lon="0.11848">
        <ele>128.6</ele>
        <time>2020-06-17T14:45:14Z</time>
      </trkpt>
      <trkpt lat="49.38699" lon="0.11855">
        <ele>128.7</ele>
        <time>2020-06-17T14:45:15Z</time>
      </trkpt>
      <trkpt lat="49.38702" lon="0.11863">
        <ele>128.8</ele>
        <time>2020-06-17T14:45:16Z</time>
      </trkpt>
      <trkpt lat="49.38706" lon="0.11872">
        <ele>128.9</ele>
        <time>2020-06-17T14:45:17Z</time>
      </trkpt>
      <trkpt lat="49.3871" lon="0.11881">
        <ele>128.9</ele>
        <time>2020-06-17T14:45:18Z</time>
      </trkpt>
      <trkpt lat="49.38714" lon="0.11889">
        <ele>128.9</ele>
        <time>2020-06-17T14:45:19Z</time>
      </trkpt>
      <trkpt lat="49.38718" lon="0.119">
        <ele>128.8</ele>
        <time>2020-06-17T14:45:20Z</time>
      </trkpt>
      <trkpt lat="49.38723" lon="0.11912">
        <ele>128.9</ele>
        <time>2020-06-17T14:45:21Z</time>
      </trkpt>
      <trkpt lat="49.38728" lon="0.11921">
        <ele>129</ele>
        <time>2020-06-17T14:45:22Z</time>
      </trkpt>
      <trkpt lat="49.38731" lon="0.11929">
        <ele>129</ele>
        <time>2020-06-17T14:45:23Z</time>
      </trkpt>
      <trkpt lat="49.38733" lon="0.11936">
        <ele>128.9</ele>
        <time>2020-06-17T14:45:24Z</time>
      </trkpt>
      <trkpt lat="49.38736" lon="0.11944">
        <ele>128.9</ele>
        <time>2020-06-17T14:45:25Z</time>
      </trkpt>
      <trkpt lat="49.38739" lon="0.11951">
        <ele>128.9</ele>
        <time>2020-06-17T14:45:26Z</time>
      </trkpt>
      <trkpt lat="49.38743" lon="0.11958">
        <ele>128.9</ele>
        <time>2020-06-17T14:45:27Z</time>
      </trkpt>
      <trkpt lat="49.38746" lon="0.11964">
        <ele>128.9</ele>
        <time>2020-06-17T14:45:28Z</time>
      </trkpt>
      <trkpt lat="49.38749" lon="0.1197">
        <ele>128.9</ele>
        <time>2020-06-17T14:45:29Z</time>
      </trkpt>
      <trkpt lat="49.38751" lon="0.11976">
        <ele>128.8</ele>
        <time>2020-06-17T14:45:30Z</time>
      </trkpt>
      <trkpt lat="49.38754" lon="0.11981">
        <ele>128.8</ele>
        <time>2020-06-17T14:45:31Z</time>
      </trkpt>
      <trkpt lat="49.38757" lon="0.11987">
        <ele>128.8</ele>
        <time>2020-06-17T14:45:32Z</time>
      </trkpt>
      <trkpt lat="49.3876" lon="0.11992">
        <ele>128.7</ele>
        <time>2020-06-17T14:45:33Z</time>
      </trkpt>
      <trkpt lat="49.38762" lon="0.11997">
        <ele>128.7</ele>
        <time>2020-06-17T14:45:34Z</time>
      </trkpt>
      <trkpt lat="49.38764" lon="0.12002">
        <ele>128.7</ele>
        <time>2020-06-17T14:45:35Z</time>
      </trkpt>
      <trkpt lat="49.38766" lon="0.12007">
        <ele>128.7</ele>
        <time>2020-06-17T14:45:36Z</time>
      </trkpt>
      <trkpt lat="49.38769" lon="0.12011">
        <ele>128.7</ele>
        <time>2020-06-17T14:45:37Z</time>
      </trkpt>
      <trkpt lat="49.38771" lon="0.12016">
        <ele>128.7</ele>
        <time>2020-06-17T14:45:38Z</time>
      </trkpt>
      <trkpt lat="49.38774" lon="0.12021">
        <ele>128.7</ele>
        <time>2020-06-17T14:45:39Z</time>
      </trkpt>
      <trkpt lat="49.38777" lon="0.12026">
        <ele>128.7</ele>
        <time>2020-06-17T14:45:40Z</time>
      </trkpt>
      <trkpt lat="49.38779" lon="0.12031">
        <ele>128.6</ele>
        <time>2020-06-17T14:45:41Z</time>
      </trkpt>
      <trkpt lat="49.38782" lon="0.12037">
        <ele>128.6</ele>
        <time>2020-06-17T14:45:42Z</time>
      </trkpt>
      <trkpt lat="49.38786" lon="0.12042">
        <ele>128.5</ele>
        <time>2020-06-17T14:45:43Z</time>
      </trkpt>
      <trkpt lat="49.3879" lon="0.12048">
        <ele>128.5</ele>
        <time>2020-06-17T14:45:44Z</time>
      </trkpt>
      <trkpt lat="49.38794" lon="0.12052">
        <ele>128.4</ele>
        <time>2020-06-17T14:45:45Z</time>
      </trkpt>
      <trkpt lat="49.38798" lon="0.12057">
        <ele>128.3</ele>
        <time>2020-06-17T14:45:46Z</time>
      </trkpt>
      <trkpt lat="49.388" lon="0.12061">
        <ele>128.3</ele>
        <time>2020-06-17T14:45:47Z</time>
      </trkpt>
      <trkpt lat="49.38803" lon="0.12065">
        <ele>128.3</ele>
        <time>2020-06-17T14:45:48Z</time>
      </trkpt>
      <trkpt lat="49.38806" lon="0.12071">
        <ele>128.2</ele>
        <time>2020-06-17T14:45:49Z</time>
      </trkpt>
      <trkpt lat="49.38809" lon="0.12077">
        <ele>128.2</ele>
        <time>2020-06-17T14:45:50Z</time>
      </trkpt>
      <trkpt lat="49.38812" lon="0.12083">
        <ele>128.1</ele>
        <time>2020-06-17T14:45:51Z</time>
      </trkpt>
      <trkpt lat="49.38815" lon="0.1209">
        <ele>128.1</ele>
        <time>2020-06-17T14:45:52Z</time>
      </trkpt>
      <trkpt lat="49.38818" lon="0.12099">
        <ele>128</ele>
        <time>2020-06-17T14:45:53Z</time>
      </trkpt>
      <trkpt lat="49.38821" lon="0.12108">
        <ele>127.9</ele>
        <time>2020-06-17T14:45:54Z</time>
      </trkpt>
      <trkpt lat="49.38824" lon="0.12116">
        <ele>127.8</ele>
        <time>2020-06-17T14:45:55Z</time>
      </trkpt>
      <trkpt lat="49.38827" lon="0.12126">
        <ele>127.7</ele>
        <time>2020-06-17T14:45:56Z</time>
      </trkpt>
      <trkpt lat="49.38829" lon="0.12138">
        <ele>127.6</ele>
        <time>2020-06-17T14:45:57Z</time>
      </trkpt>
      <trkpt lat="49.38831" lon="0.1215">
        <ele>127.5</ele>
        <time>2020-06-17T14:45:58Z</time>
      </trkpt>
      <trkpt lat="49.38833" lon="0.1216">
        <ele>127.4</ele>
        <time>2020-06-17T14:45:59Z</time>
      </trkpt>
      <trkpt lat="49.38835" lon="0.1217">
        <ele>127.4</ele>
        <time>2020-06-17T14:46:00Z</time>
      </trkpt>
      <trkpt lat="49.38838" lon="0.12177">
        <ele>127.4</ele>
        <time>2020-06-17T14:46:01Z</time>
      </trkpt>
      <trkpt lat="49.3884" lon="0.12185">
        <ele>127.3</ele>
        <time>2020-06-17T14:46:02Z</time>
      </trkpt>
      <trkpt lat="49.38842" lon="0.12194">
        <ele>127.3</ele>
        <time>2020-06-17T14:46:03Z</time>
      </trkpt>
      <trkpt lat="49.38844" lon="0.12202">
        <ele>127.3</ele>
        <time>2020-06-17T14:46:04Z</time>
      </trkpt>
      <trkpt lat="49.38847" lon="0.1221">
        <ele>127.3</ele>
        <time>2020-06-17T14:46:05Z</time>
      </trkpt>
      <trkpt lat="49.38849" lon="0.12218">
        <ele>127.3</ele>
        <time>2020-06-17T14:46:06Z</time>
      </trkpt>
      <trkpt lat="49.38851" lon="0.12225">
        <ele>127.3</ele>
        <time>2020-06-17T14:46:07Z</time>
      </trkpt>
      <trkpt lat="49.38853" lon="0.12232">
        <ele>127.3</ele>
        <time>2020-06-17T14:46:08Z</time>
      </trkpt>
      <trkpt lat="49.38855" lon="0.1224">
        <ele>127.3</ele>
        <time>2020-06-17T14:46:09Z</time>
      </trkpt>
      <trkpt lat="49.38856" lon="0.12247">
        <ele>127.4</ele>
        <time>2020-06-17T14:46:10Z</time>
      </trkpt>
      <trkpt lat="49.38857" lon="0.12255">
        <ele>127.4</ele>
        <time>2020-06-17T14:46:11Z</time>
      </trkpt>
      <trkpt lat="49.38859" lon="0.12263">
        <ele>127.5</ele>
        <time>2020-06-17T14:46:12Z</time>
      </trkpt>
      <trkpt lat="49.3886" lon="0.12271">
        <ele>127.5</ele>
        <time>2020-06-17T14:46:13Z</time>
      </trkpt>
      <trkpt lat="49.38861" lon="0.12279">
        <ele>127.5</ele>
        <time>2020-06-17T14:46:14Z</time>
      </trkpt>
      <trkpt lat="49.38861" lon="0.12289">
        <ele>127.4</ele>
        <time>2020-06-17T14:46:15Z</time>
      </trkpt>
      <trkpt lat="49.38862" lon="0.12298">
        <ele>127.3</ele>
        <time>2020-06-17T14:46:16Z</time>
      </trkpt>
      <trkpt lat="49.38863" lon="0.12306">
        <ele>127.4</ele>
        <time>2020-06-17T14:46:17Z</time>
      </trkpt>
      <trkpt lat="49.38864" lon="0.12315">
        <ele>127.5</ele>
        <time>2020-06-17T14:46:18Z</time>
      </trkpt>
      <trkpt lat="49.38866" lon="0.12323">
        <ele>127.6</ele>
        <time>2020-06-17T14:46:19Z</time>
      </trkpt>
      <trkpt lat="49.38868" lon="0.12331">
        <ele>127.5</ele>
        <time>2020-06-17T14:46:20Z</time>
      </trkpt>
      <trkpt lat="49.38869" lon="0.12338">
        <ele>127.4</ele>
        <time>2020-06-17T14:46:21Z</time>
      </trkpt>
      <trkpt lat="49.38869" lon="0.12345">
        <ele>127.4</ele>
        <time>2020-06-17T14:46:22Z</time>
      </trkpt>
      <trkpt lat="49.38868" lon="0.12352">
        <ele>127.3</ele>
        <time>2020-06-17T14:46:23Z</time>
      </trkpt>
      <trkpt lat="49.38867" lon="0.12357">
        <ele>127.2</ele>
        <time>2020-06-17T14:46:24Z</time>
      </trkpt>
      <trkpt lat="49.38867" lon="0.12363">
        <ele>127.1</ele>
        <time>2020-06-17T14:46:25Z</time>
      </trkpt>
      <trkpt lat="49.38866" lon="0.12369">
        <ele>126.9</ele>
        <time>2020-06-17T14:46:26Z</time>
      </trkpt>
      <trkpt lat="49.38866" lon="0.12377">
        <ele>126.8</ele>
        <time>2020-06-17T14:46:27Z</time>
      </trkpt>
      <trkpt lat="49.38866" lon="0.12385">
        <ele>126.7</ele>
        <time>2020-06-17T14:46:28Z</time>
      </trkpt>
      <trkpt lat="49.38865" lon="0.12393">
        <ele>126.5</ele>
        <time>2020-06-17T14:46:29Z</time>
      </trkpt>
      <trkpt lat="49.38864" lon="0.12401">
        <ele>126.4</ele>
        <time>2020-06-17T14:46:30Z</time>
      </trkpt>
      <trkpt lat="49.38862" lon="0.12409">
        <ele>126.2</ele>
        <time>2020-06-17T14:46:31Z</time>
      </trkpt>
      <trkpt lat="49.3886" lon="0.12418">
        <ele>126</ele>
        <time>2020-06-17T14:46:32Z</time>
      </trkpt>
      <trkpt lat="49.38857" lon="0.12427">
        <ele>125.8</ele>
        <time>2020-06-17T14:46:33Z</time>
      </trkpt>
      <trkpt lat="49.38855" lon="0.12435">
        <ele>125.6</ele>
        <time>2020-06-17T14:46:34Z</time>
      </trkpt>
      <trkpt lat="49.38852" lon="0.12443">
        <ele>125.3</ele>
        <time>2020-06-17T14:46:35Z</time>
      </trkpt>
      <trkpt lat="49.3885" lon="0.12451">
        <ele>125</ele>
        <time>2020-06-17T14:46:36Z</time>
      </trkpt>
      <trkpt lat="49.38846" lon="0.1246">
        <ele>124.7</ele>
        <time>2020-06-17T14:46:37Z</time>
      </trkpt>
      <trkpt lat="49.38843" lon="0.12468">
        <ele>124.4</ele>
        <time>2020-06-17T14:46:38Z</time>
      </trkpt>
      <trkpt lat="49.3884" lon="0.12475">
        <ele>124.1</ele>
        <time>2020-06-17T14:46:39Z</time>
      </trkpt>
      <trkpt lat="49.38837" lon="0.12483">
        <ele>123.7</ele>
        <time>2020-06-17T14:46:40Z</time>
      </trkpt>
      <trkpt lat="49.38834" lon="0.1249">
        <ele>123.3</ele>
        <time>2020-06-17T14:46:41Z</time>
      </trkpt>
      <trkpt lat="49.38831" lon="0.12497">
        <ele>123</ele>
        <time>2020-06-17T14:46:42Z</time>
      </trkpt>
      <trkpt lat="49.38828" lon="0.12507">
        <ele>122.4</ele>
        <time>2020-06-17T14:46:43Z</time>
      </trkpt>
      <trkpt lat="49.38823" lon="0.12515">
        <ele>121.8</ele>
        <time>2020-06-17T14:46:44Z</time>
      </trkpt>
      <trkpt lat="49.38817" lon="0.1253">
        <ele>120.7</ele>
        <time>2020-06-17T14:46:45Z</time>
      </trkpt>
      <trkpt lat="49.38811" lon="0.12545">
        <ele>119.7</ele>
        <time>2020-06-17T14:46:46Z</time>
      </trkpt>
      <trkpt lat="49.38805" lon="0.1256">
        <ele>118.7</ele>
        <time>2020-06-17T14:46:47Z</time>
      </trkpt>
      <trkpt lat="49.38799" lon="0.12573">
        <ele>118</ele>
        <time>2020-06-17T14:46:48Z</time>
      </trkpt>
      <trkpt lat="49.38794" lon="0.12585">
        <ele>117.4</ele>
        <time>2020-06-17T14:46:49Z</time>
      </trkpt>
      <trkpt lat="49.38789" lon="0.12596">
        <ele>117</ele>
        <time>2020-06-17T14:46:50Z</time>
      </trkpt>
      <trkpt lat="49.38783" lon="0.12608">
        <ele>116.7</ele>
        <time>2020-06-17T14:46:51Z</time>
      </trkpt>
      <trkpt lat="49.38778" lon="0.12619">
        <ele>116.6</ele>
        <time>2020-06-17T14:46:52Z</time>
      </trkpt>
      <trkpt lat="49.38774" lon="0.12629">
        <ele>116.5</ele>
        <time>2020-06-17T14:46:53Z</time>
      </trkpt>
      <trkpt lat="49.38772" lon="0.12638">
        <ele>116.5</ele>
        <time>2020-06-17T14:46:54Z</time>
      </trkpt>
      <trkpt lat="49.38767" lon="0.1265">
        <ele>116.6</ele>
        <time>2020-06-17T14:46:55Z</time>
      </trkpt>
      <trkpt lat="49.38763" lon="0.12661">
        <ele>116.9</ele>
        <time>2020-06-17T14:46:56Z</time>
      </trkpt>
      <trkpt lat="49.38759" lon="0.12673">
        <ele>117.3</ele>
        <time>2020-06-17T14:46:57Z</time>
      </trkpt>
      <trkpt lat="49.38758" lon="0.12684">
        <ele>117.9</ele>
        <time>2020-06-17T14:46:58Z</time>
      </trkpt>
      <trkpt lat="49.38759" lon="0.12693">
        <ele>118.5</ele>
        <time>2020-06-17T14:46:59Z</time>
      </trkpt>
      <trkpt lat="49.38761" lon="0.12701">
        <ele>119.1</ele>
        <time>2020-06-17T14:47:00Z</time>
      </trkpt>
      <trkpt lat="49.38762" lon="0.12706">
        <ele>119.5</ele>
        <time>2020-06-17T14:47:01Z</time>
      </trkpt>
      <trkpt lat="49.38764" lon="0.12709">
        <ele>119.9</ele>
        <time>2020-06-17T14:47:02Z</time>
      </trkpt>
      <trkpt lat="49.38768" lon="0.12713">
        <ele>120.4</ele>
        <time>2020-06-17T14:47:03Z</time>
      </trkpt>
      <trkpt lat="49.38772" lon="0.12715">
        <ele>120.8</ele>
        <time>2020-06-17T14:47:04Z</time>
      </trkpt>
      <trkpt lat="49.38774" lon="0.12716">
        <ele>121.2</ele>
        <time>2020-06-17T14:47:05Z</time>
      </trkpt>
      <trkpt lat="49.38779" lon="0.12718">
        <ele>121.7</ele>
        <time>2020-06-17T14:47:06Z</time>
      </trkpt>
      <trkpt lat="49.38783" lon="0.1272">
        <ele>122.2</ele>
        <time>2020-06-17T14:47:07Z</time>
      </trkpt>
      <trkpt lat="49.38786" lon="0.12722">
        <ele>122.5</ele>
        <time>2020-06-17T14:47:08Z</time>
      </trkpt>
      <trkpt lat="49.38788" lon="0.12725">
        <ele>122.8</ele>
        <time>2020-06-17T14:47:09Z</time>
      </trkpt>
      <trkpt lat="49.3879" lon="0.12728">
        <ele>123.1</ele>
        <time>2020-06-17T14:47:10Z</time>
      </trkpt>
      <trkpt lat="49.38793" lon="0.12731">
        <ele>123.4</ele>
        <time>2020-06-17T14:47:11Z</time>
      </trkpt>
      <trkpt lat="49.38796" lon="0.12734">
        <ele>123.7</ele>
        <time>2020-06-17T14:47:12Z</time>
      </trkpt>
      <trkpt lat="49.38797" lon="0.12735">
        <ele>123.8</ele>
        <time>2020-06-17T14:47:13Z</time>
      </trkpt>
      <trkpt lat="49.388" lon="0.12739">
        <ele>124.1</ele>
        <time>2020-06-17T14:47:14Z</time>
      </trkpt>
      <trkpt lat="49.38801" lon="0.1274">
        <ele>124.2</ele>
        <time>2020-06-17T14:47:15Z</time>
      </trkpt>
      <trkpt lat="49.38804" lon="0.12744">
        <ele>124.4</ele>
        <time>2020-06-17T14:47:16Z</time>
      </trkpt>
      <trkpt lat="49.38805" lon="0.12744">
        <ele>124.5</ele>
        <time>2020-06-17T14:47:17Z</time>
      </trkpt>
      <trkpt lat="49.38807" lon="0.12747">
        <ele>124.7</ele>
        <time>2020-06-17T14:47:18Z</time>
      </trkpt>
      <trkpt lat="49.38809" lon="0.12749">
        <ele>124.9</ele>
        <time>2020-06-17T14:47:19Z</time>
      </trkpt>
      <trkpt lat="49.38812" lon="0.12752">
        <ele>125.1</ele>
        <time>2020-06-17T14:47:20Z</time>
      </trkpt>
      <trkpt lat="49.38813" lon="0.12754">
        <ele>125.2</ele>
        <time>2020-06-17T14:47:21Z</time>
      </trkpt>
      <trkpt lat="49.38815" lon="0.12757">
        <ele>125.4</ele>
        <time>2020-06-17T14:47:22Z</time>
      </trkpt>
      <trkpt lat="49.38816" lon="0.12758">
        <ele>125.4</ele>
        <time>2020-06-17T14:47:23Z</time>
      </trkpt>
      <trkpt lat="49.38819" lon="0.12762">
        <ele>125.6</ele>
        <time>2020-06-17T14:47:24Z</time>
      </trkpt>
      <trkpt lat="49.38819" lon="0.12763">
        <ele>125.7</ele>
        <time>2020-06-17T14:47:25Z</time>
      </trkpt>
      <trkpt lat="49.38821" lon="0.12768">
        <ele>125.9</ele>
        <time>2020-06-17T14:47:26Z</time>
      </trkpt>
      <trkpt lat="49.38822" lon="0.1277">
        <ele>126</ele>
        <time>2020-06-17T14:47:27Z</time>
      </trkpt>
      <trkpt lat="49.38824" lon="0.12775">
        <ele>126.1</ele>
        <time>2020-06-17T14:47:28Z</time>
      </trkpt>
      <trkpt lat="49.38825" lon="0.12776">
        <ele>126.2</ele>
        <time>2020-06-17T14:47:29Z</time>
      </trkpt>
      <trkpt lat="49.38827" lon="0.12779">
        <ele>126.3</ele>
        <time>2020-06-17T14:47:30Z</time>
      </trkpt>
      <trkpt lat="49.38828" lon="0.12781">
        <ele>126.4</ele>
        <time>2020-06-17T14:47:31Z</time>
      </trkpt>
      <trkpt lat="49.38829" lon="0.12785">
        <ele>126.7</ele>
        <time>2020-06-17T14:47:32Z</time>
      </trkpt>
      <trkpt lat="49.38831" lon="0.12788">
        <ele>126.9</ele>
        <time>2020-06-17T14:47:33Z</time>
      </trkpt>
      <trkpt lat="49.38833" lon="0.12791">
        <ele>127</ele>
        <time>2020-06-17T14:47:34Z</time>
      </trkpt>
      <trkpt lat="49.38836" lon="0.12794">
        <ele>127.1</ele>
        <time>2020-06-17T14:47:35Z</time>
      </trkpt>
      <trkpt lat="49.38838" lon="0.12796">
        <ele>127.2</ele>
        <time>2020-06-17T14:47:36Z</time>
      </trkpt>
      <trkpt lat="49.38841" lon="0.12799">
        <ele>127.3</ele>
        <time>2020-06-17T14:47:37Z</time>
      </trkpt>
      <trkpt lat="49.38844" lon="0.12803">
        <ele>127.3</ele>
        <time>2020-06-17T14:47:38Z</time>
      </trkpt>
      <trkpt lat="49.38847" lon="0.12806">
        <ele>127.3</ele>
        <time>2020-06-17T14:47:39Z</time>
      </trkpt>
      <trkpt lat="49.38849" lon="0.12809">
        <ele>127.3</ele>
        <time>2020-06-17T14:47:40Z</time>
      </trkpt>
      <trkpt lat="49.38852" lon="0.12813">
        <ele>127.3</ele>
        <time>2020-06-17T14:47:41Z</time>
      </trkpt>
      <trkpt lat="49.38856" lon="0.12817">
        <ele>127.3</ele>
        <time>2020-06-17T14:47:42Z</time>
      </trkpt>
      <trkpt lat="49.38858" lon="0.12821">
        <ele>127.2</ele>
        <time>2020-06-17T14:47:43Z</time>
      </trkpt>
      <trkpt lat="49.3886" lon="0.12825">
        <ele>127.2</ele>
        <time>2020-06-17T14:47:44Z</time>
      </trkpt>
      <trkpt lat="49.3886" lon="0.12826">
        <ele>127.2</ele>
        <time>2020-06-17T14:47:45Z</time>
      </trkpt>
      <trkpt lat="49.38862" lon="0.12831">
        <ele>127.2</ele>
        <time>2020-06-17T14:47:46Z</time>
      </trkpt>
      <trkpt lat="49.38863" lon="0.12832">
        <ele>127.2</ele>
        <time>2020-06-17T14:47:47Z</time>
      </trkpt>
      <trkpt lat="49.38866" lon="0.12837">
        <ele>127.2</ele>
        <time>2020-06-17T14:47:48Z</time>
      </trkpt>
      <trkpt lat="49.38867" lon="0.12841">
        <ele>127.2</ele>
        <time>2020-06-17T14:47:49Z</time>
      </trkpt>
      <trkpt lat="49.38869" lon="0.12845">
        <ele>127.1</ele>
        <time>2020-06-17T14:47:50Z</time>
      </trkpt>
      <trkpt lat="49.3887" lon="0.12849">
        <ele>127.1</ele>
        <time>2020-06-17T14:47:51Z</time>
      </trkpt>
      <trkpt lat="49.38871" lon="0.12854">
        <ele>127.1</ele>
        <time>2020-06-17T14:47:52Z</time>
      </trkpt>
      <trkpt lat="49.38872" lon="0.1286">
        <ele>127.1</ele>
        <time>2020-06-17T14:47:53Z</time>
      </trkpt>
      <trkpt lat="49.38873" lon="0.12866">
        <ele>127.1</ele>
        <time>2020-06-17T14:47:54Z</time>
      </trkpt>
      <trkpt lat="49.38872" lon="0.12872">
        <ele>127.1</ele>
        <time>2020-06-17T14:47:55Z</time>
      </trkpt>
      <trkpt lat="49.38872" lon="0.12881">
        <ele>127.1</ele>
        <time>2020-06-17T14:47:56Z</time>
      </trkpt>
      <trkpt lat="49.38871" lon="0.12888">
        <ele>127.1</ele>
        <time>2020-06-17T14:47:57Z</time>
      </trkpt>
      <trkpt lat="49.38869" lon="0.12895">
        <ele>127.1</ele>
        <time>2020-06-17T14:47:58Z</time>
      </trkpt>
      <trkpt lat="49.38868" lon="0.12903">
        <ele>127</ele>
        <time>2020-06-17T14:47:59Z</time>
      </trkpt>
      <trkpt lat="49.38867" lon="0.1291">
        <ele>127</ele>
        <time>2020-06-17T14:48:00Z</time>
      </trkpt>
      <trkpt lat="49.38866" lon="0.12918">
        <ele>127</ele>
        <time>2020-06-17T14:48:01Z</time>
      </trkpt>
      <trkpt lat="49.38865" lon="0.12924">
        <ele>127</ele>
        <time>2020-06-17T14:48:02Z</time>
      </trkpt>
      <trkpt lat="49.38864" lon="0.12929">
        <ele>127</ele>
        <time>2020-06-17T14:48:03Z</time>
      </trkpt>
      <trkpt lat="49.38862" lon="0.12934">
        <ele>127</ele>
        <time>2020-06-17T14:48:04Z</time>
      </trkpt>
      <trkpt lat="49.38861" lon="0.12939">
        <ele>127</ele>
        <time>2020-06-17T14:48:05Z</time>
      </trkpt>
      <trkpt lat="49.38861" lon="0.12945">
        <ele>127</ele>
        <time>2020-06-17T14:48:06Z</time>
      </trkpt>
      <trkpt lat="49.3886" lon="0.12953">
        <ele>127</ele>
        <time>2020-06-17T14:48:07Z</time>
      </trkpt>
      <trkpt lat="49.3886" lon="0.12962">
        <ele>127</ele>
        <time>2020-06-17T14:48:08Z</time>
      </trkpt>
      <trkpt lat="49.38859" lon="0.1297">
        <ele>127</ele>
        <time>2020-06-17T14:48:09Z</time>
      </trkpt>
      <trkpt lat="49.38858" lon="0.12981">
        <ele>127</ele>
        <time>2020-06-17T14:48:10Z</time>
      </trkpt>
      <trkpt lat="49.38857" lon="0.12989">
        <ele>127</ele>
        <time>2020-06-17T14:48:11Z</time>
      </trkpt>
      <trkpt lat="49.38854" lon="0.12998">
        <ele>127</ele>
        <time>2020-06-17T14:48:12Z</time>
      </trkpt>
      <trkpt lat="49.38852" lon="0.13006">
        <ele>127</ele>
        <time>2020-06-17T14:48:13Z</time>
      </trkpt>
      <trkpt lat="49.3885" lon="0.13015">
        <ele>127</ele>
        <time>2020-06-17T14:48:14Z</time>
      </trkpt>
      <trkpt lat="49.38847" lon="0.13024">
        <ele>127</ele>
        <time>2020-06-17T14:48:15Z</time>
      </trkpt>
      <trkpt lat="49.38846" lon="0.13028">
        <ele>127</ele>
        <time>2020-06-17T14:48:16Z</time>
      </trkpt>
      <trkpt lat="49.38845" lon="0.13036">
        <ele>127</ele>
        <time>2020-06-17T14:48:17Z</time>
      </trkpt>
      <trkpt lat="49.38843" lon="0.1305">
        <ele>127</ele>
        <time>2020-06-17T14:48:18Z</time>
      </trkpt>
      <trkpt lat="49.38841" lon="0.13069">
        <ele>127.1</ele>
        <time>2020-06-17T14:48:19Z</time>
      </trkpt>
      <trkpt lat="49.3884" lon="0.13085">
        <ele>127</ele>
        <time>2020-06-17T14:48:20Z</time>
      </trkpt>
      <trkpt lat="49.38838" lon="0.13099">
        <ele>127</ele>
        <time>2020-06-17T14:48:21Z</time>
      </trkpt>
      <trkpt lat="49.38837" lon="0.13112">
        <ele>127</ele>
        <time>2020-06-17T14:48:22Z</time>
      </trkpt>
      <trkpt lat="49.38836" lon="0.13123">
        <ele>126.9</ele>
        <time>2020-06-17T14:48:23Z</time>
      </trkpt>
      <trkpt lat="49.38836" lon="0.13134">
        <ele>126.9</ele>
        <time>2020-06-17T14:48:24Z</time>
      </trkpt>
      <trkpt lat="49.38834" lon="0.13148">
        <ele>126.8</ele>
        <time>2020-06-17T14:48:25Z</time>
      </trkpt>
      <trkpt lat="49.38832" lon="0.13161">
        <ele>126.8</ele>
        <time>2020-06-17T14:48:26Z</time>
      </trkpt>
      <trkpt lat="49.3883" lon="0.13175">
        <ele>126.8</ele>
        <time>2020-06-17T14:48:27Z</time>
      </trkpt>
      <trkpt lat="49.38829" lon="0.13186">
        <ele>126.8</ele>
        <time>2020-06-17T14:48:28Z</time>
      </trkpt>
      <trkpt lat="49.38827" lon="0.13198">
        <ele>126.8</ele>
        <time>2020-06-17T14:48:29Z</time>
      </trkpt>
      <trkpt lat="49.38825" lon="0.13209">
        <ele>126.8</ele>
        <time>2020-06-17T14:48:30Z</time>
      </trkpt>
      <trkpt lat="49.38822" lon="0.13219">
        <ele>126.8</ele>
        <time>2020-06-17T14:48:31Z</time>
      </trkpt>
      <trkpt lat="49.3882" lon="0.13229">
        <ele>126.7</ele>
        <time>2020-06-17T14:48:32Z</time>
      </trkpt>
      <trkpt lat="49.38818" lon="0.13239">
        <ele>126.6</ele>
        <time>2020-06-17T14:48:33Z</time>
      </trkpt>
      <trkpt lat="49.38817" lon="0.13248">
        <ele>126.6</ele>
        <time>2020-06-17T14:48:34Z</time>
      </trkpt>
      <trkpt lat="49.38816" lon="0.13256">
        <ele>126.6</ele>
        <time>2020-06-17T14:48:35Z</time>
      </trkpt>
      <trkpt lat="49.38815" lon="0.13266">
        <ele>126.6</ele>
        <time>2020-06-17T14:48:36Z</time>
      </trkpt>
      <trkpt lat="49.38813" lon="0.13277">
        <ele>126.5</ele>
        <time>2020-06-17T14:48:37Z</time>
      </trkpt>
      <trkpt lat="49.38812" lon="0.13288">
        <ele>126.5</ele>
        <time>2020-06-17T14:48:38Z</time>
      </trkpt>
      <trkpt lat="49.38811" lon="0.13296">
        <ele>126.5</ele>
        <time>2020-06-17T14:48:39Z</time>
      </trkpt>
      <trkpt lat="49.38808" lon="0.13308">
        <ele>126.5</ele>
        <time>2020-06-17T14:48:40Z</time>
      </trkpt>
      <trkpt lat="49.38806" lon="0.13317">
        <ele>126.4</ele>
        <time>2020-06-17T14:48:41Z</time>
      </trkpt>
      <trkpt lat="49.38804" lon="0.13324">
        <ele>126.3</ele>
        <time>2020-06-17T14:48:42Z</time>
      </trkpt>
      <trkpt lat="49.38801" lon="0.13332">
        <ele>126.2</ele>
        <time>2020-06-17T14:48:43Z</time>
      </trkpt>
      <trkpt lat="49.38798" lon="0.13341">
        <ele>126.2</ele>
        <time>2020-06-17T14:48:44Z</time>
      </trkpt>
      <trkpt lat="49.38796" lon="0.13348">
        <ele>126.1</ele>
        <time>2020-06-17T14:48:45Z</time>
      </trkpt>
      <trkpt lat="49.38794" lon="0.13356">
        <ele>126</ele>
        <time>2020-06-17T14:48:46Z</time>
      </trkpt>
      <trkpt lat="49.38793" lon="0.13363">
        <ele>126</ele>
        <time>2020-06-17T14:48:47Z</time>
      </trkpt>
      <trkpt lat="49.38791" lon="0.1337">
        <ele>125.9</ele>
        <time>2020-06-17T14:48:48Z</time>
      </trkpt>
      <trkpt lat="49.38789" lon="0.13376">
        <ele>125.9</ele>
        <time>2020-06-17T14:48:49Z</time>
      </trkpt>
      <trkpt lat="49.38789" lon="0.1338">
        <ele>125.9</ele>
        <time>2020-06-17T14:48:50Z</time>
      </trkpt>
      <trkpt lat="49.38787" lon="0.13384">
        <ele>125.8</ele>
        <time>2020-06-17T14:48:51Z</time>
      </trkpt>
      <trkpt lat="49.38787" lon="0.13388">
        <ele>125.8</ele>
        <time>2020-06-17T14:48:52Z</time>
      </trkpt>
      <trkpt lat="49.38786" lon="0.13389">
        <ele>125.8</ele>
        <time>2020-06-17T14:48:53Z</time>
      </trkpt>
      <trkpt lat="49.38785" lon="0.13391">
        <ele>125.8</ele>
        <time>2020-06-17T14:48:54Z</time>
      </trkpt>
      <trkpt lat="49.38785" lon="0.13392">
        <ele>125.8</ele>
        <time>2020-06-17T14:48:55Z</time>
      </trkpt>
      <trkpt lat="49.38785" lon="0.13392">
        <ele>125.8</ele>
        <time>2020-06-17T14:48:56Z</time>
      </trkpt>
      <trkpt lat="49.38785" lon="0.13392">
        <ele>125.8</ele>
        <time>2020-06-17T14:48:57Z</time>
      </trkpt>
      <trkpt lat="49.38785" lon="0.13392">
        <ele>125.8</ele>
        <time>2020-06-17T14:48:58Z</time>
      </trkpt>
      <trkpt lat="49.38785" lon="0.13392">
        <ele>125.8</ele>
        <time>2020-06-17T14:48:59Z</time>
      </trkpt>
      <trkpt lat="49.38785" lon="0.13393">
        <ele>125.8</ele>
        <time>2020-06-17T14:49:00Z</time>
      </trkpt>
      <trkpt lat="49.38785" lon="0.13393">
        <ele>125.7</ele>
        <time>2020-06-17T14:49:01Z</time>
      </trkpt>
      <trkpt lat="49.38785" lon="0.13393">
        <ele>125.7</ele>
        <time>2020-06-17T14:49:02Z</time>
      </trkpt>
      <trkpt lat="49.38784" lon="0.13399">
        <ele>125.7</ele>
        <time>2020-06-17T14:49:03Z</time>
      </trkpt>
      <trkpt lat="49.38784" lon="0.13404">
        <ele>125.7</ele>
        <time>2020-06-17T14:49:04Z</time>
      </trkpt>
      <trkpt lat="49.38783" lon="0.1341">
        <ele>125.7</ele>
        <time>2020-06-17T14:49:28Z</time>
      </trkpt>
      <trkpt lat="49.38783" lon="0.13415">
        <ele>125.6</ele>
        <time>2020-06-17T14:49:29Z</time>
      </trkpt>
      <trkpt lat="49.38784" lon="0.13421">
        <ele>125.6</ele>
        <time>2020-06-17T14:49:30Z</time>
      </trkpt>
      <trkpt lat="49.38784" lon="0.13423">
        <ele>125.6</ele>
        <time>2020-06-17T14:49:31Z</time>
      </trkpt>
      <trkpt lat="49.38785" lon="0.13427">
        <ele>125.5</ele>
        <time>2020-06-17T14:49:32Z</time>
      </trkpt>
      <trkpt lat="49.38788" lon="0.13431">
        <ele>125.4</ele>
        <time>2020-06-17T14:49:33Z</time>
      </trkpt>
      <trkpt lat="49.38789" lon="0.13432">
        <ele>125.4</ele>
        <time>2020-06-17T14:49:34Z</time>
      </trkpt>
      <trkpt lat="49.38791" lon="0.13435">
        <ele>125.4</ele>
        <time>2020-06-17T14:49:35Z</time>
      </trkpt>
      <trkpt lat="49.38794" lon="0.13438">
        <ele>125.3</ele>
        <time>2020-06-17T14:49:36Z</time>
      </trkpt>
      <trkpt lat="49.38796" lon="0.13442">
        <ele>125.2</ele>
        <time>2020-06-17T14:49:37Z</time>
      </trkpt>
      <trkpt lat="49.38799" lon="0.13446">
        <ele>125.1</ele>
        <time>2020-06-17T14:49:38Z</time>
      </trkpt>
      <trkpt lat="49.38801" lon="0.1345">
        <ele>125</ele>
        <time>2020-06-17T14:49:39Z</time>
      </trkpt>
      <trkpt lat="49.38804" lon="0.13454">
        <ele>125</ele>
        <time>2020-06-17T14:49:40Z</time>
      </trkpt>
      <trkpt lat="49.38806" lon="0.13457">
        <ele>124.9</ele>
        <time>2020-06-17T14:49:41Z</time>
      </trkpt>
      <trkpt lat="49.3881" lon="0.13461">
        <ele>124.8</ele>
        <time>2020-06-17T14:49:42Z</time>
      </trkpt>
      <trkpt lat="49.38813" lon="0.13465">
        <ele>124.7</ele>
        <time>2020-06-17T14:49:43Z</time>
      </trkpt>
      <trkpt lat="49.38817" lon="0.13469">
        <ele>124.6</ele>
        <time>2020-06-17T14:49:44Z</time>
      </trkpt>
      <trkpt lat="49.38821" lon="0.13475">
        <ele>124.5</ele>
        <time>2020-06-17T14:49:45Z</time>
      </trkpt>
      <trkpt lat="49.38825" lon="0.1348">
        <ele>124.4</ele>
        <time>2020-06-17T14:49:46Z</time>
      </trkpt>
      <trkpt lat="49.38828" lon="0.13485">
        <ele>124.3</ele>
        <time>2020-06-17T14:49:47Z</time>
      </trkpt>
      <trkpt lat="49.38832" lon="0.1349">
        <ele>124.2</ele>
        <time>2020-06-17T14:49:48Z</time>
      </trkpt>
      <trkpt lat="49.38835" lon="0.13495">
        <ele>124.2</ele>
        <time>2020-06-17T14:49:49Z</time>
      </trkpt>
      <trkpt lat="49.38837" lon="0.13499">
        <ele>124.1</ele>
        <time>2020-06-17T14:49:50Z</time>
      </trkpt>
      <trkpt lat="49.38841" lon="0.13505">
        <ele>124.1</ele>
        <time>2020-06-17T14:49:51Z</time>
      </trkpt>
      <trkpt lat="49.38844" lon="0.13511">
        <ele>124</ele>
        <time>2020-06-17T14:49:52Z</time>
      </trkpt>
      <trkpt lat="49.38846" lon="0.13516">
        <ele>123.9</ele>
        <time>2020-06-17T14:49:53Z</time>
      </trkpt>
      <trkpt lat="49.38849" lon="0.13523">
        <ele>123.8</ele>
        <time>2020-06-17T14:49:54Z</time>
      </trkpt>
      <trkpt lat="49.38852" lon="0.13529">
        <ele>123.6</ele>
        <time>2020-06-17T14:49:55Z</time>
      </trkpt>
      <trkpt lat="49.38855" lon="0.13536">
        <ele>123.5</ele>
        <time>2020-06-17T14:49:56Z</time>
      </trkpt>
      <trkpt lat="49.38857" lon="0.13543">
        <ele>123.4</ele>
        <time>2020-06-17T14:49:57Z</time>
      </trkpt>
      <trkpt lat="49.3886" lon="0.13552">
        <ele>123.2</ele>
        <time>2020-06-17T14:49:58Z</time>
      </trkpt>
      <trkpt lat="49.38862" lon="0.1356">
        <ele>123.1</ele>
        <time>2020-06-17T14:49:59Z</time>
      </trkpt>
      <trkpt lat="49.38864" lon="0.13568">
        <ele>122.9</ele>
        <time>2020-06-17T14:50:00Z</time>
      </trkpt>
      <trkpt lat="49.38866" lon="0.13576">
        <ele>122.7</ele>
        <time>2020-06-17T14:50:01Z</time>
      </trkpt>
      <trkpt lat="49.38868" lon="0.13585">
        <ele>122.4</ele>
        <time>2020-06-17T14:50:02Z</time>
      </trkpt>
      <trkpt lat="49.38869" lon="0.13595">
        <ele>122.2</ele>
        <time>2020-06-17T14:50:03Z</time>
      </trkpt>
      <trkpt lat="49.38871" lon="0.13604">
        <ele>121.9</ele>
        <time>2020-06-17T14:50:04Z</time>
      </trkpt>
      <trkpt lat="49.38873" lon="0.13612">
        <ele>121.7</ele>
        <time>2020-06-17T14:50:05Z</time>
      </trkpt>
      <trkpt lat="49.38875" lon="0.13621">
        <ele>121.4</ele>
        <time>2020-06-17T14:50:06Z</time>
      </trkpt>
      <trkpt lat="49.38877" lon="0.13631">
        <ele>121.2</ele>
        <time>2020-06-17T14:50:07Z</time>
      </trkpt>
      <trkpt lat="49.38878" lon="0.1364">
        <ele>120.9</ele>
        <time>2020-06-17T14:50:08Z</time>
      </trkpt>
      <trkpt lat="49.3888" lon="0.1365">
        <ele>120.6</ele>
        <time>2020-06-17T14:50:09Z</time>
      </trkpt>
      <trkpt lat="49.38882" lon="0.1366">
        <ele>120.3</ele>
        <time>2020-06-17T14:50:10Z</time>
      </trkpt>
      <trkpt lat="49.38885" lon="0.1367">
        <ele>120</ele>
        <time>2020-06-17T14:50:11Z</time>
      </trkpt>
      <trkpt lat="49.38888" lon="0.13679">
        <ele>119.7</ele>
        <time>2020-06-17T14:50:12Z</time>
      </trkpt>
      <trkpt lat="49.38891" lon="0.13687">
        <ele>119.5</ele>
        <time>2020-06-17T14:50:13Z</time>
      </trkpt>
      <trkpt lat="49.38894" lon="0.13696">
        <ele>119.2</ele>
        <time>2020-06-17T14:50:14Z</time>
      </trkpt>
      <trkpt lat="49.38898" lon="0.13706">
        <ele>119.7</ele>
        <time>2020-06-17T14:50:15Z</time>
      </trkpt>
      <trkpt lat="49.38902" lon="0.13715">
        <ele>120.6</ele>
        <time>2020-06-17T14:50:16Z</time>
      </trkpt>
      <trkpt lat="49.38907" lon="0.13725">
        <ele>120.8</ele>
        <time>2020-06-17T14:50:17Z</time>
      </trkpt>
      <trkpt lat="49.38911" lon="0.13735">
        <ele>120.7</ele>
        <time>2020-06-17T14:50:18Z</time>
      </trkpt>
      <trkpt lat="49.38915" lon="0.13744">
        <ele>120.3</ele>
        <time>2020-06-17T14:50:19Z</time>
      </trkpt>
      <trkpt lat="49.3892" lon="0.13755">
        <ele>119.8</ele>
        <time>2020-06-17T14:50:20Z</time>
      </trkpt>
      <trkpt lat="49.38925" lon="0.13766">
        <ele>119.3</ele>
        <time>2020-06-17T14:50:21Z</time>
      </trkpt>
      <trkpt lat="49.3893" lon="0.13776">
        <ele>118.9</ele>
        <time>2020-06-17T14:50:22Z</time>
      </trkpt>
      <trkpt lat="49.38934" lon="0.13784">
        <ele>118.5</ele>
        <time>2020-06-17T14:50:23Z</time>
      </trkpt>
      <trkpt lat="49.38939" lon="0.13793">
        <ele>118</ele>
        <time>2020-06-17T14:50:24Z</time>
      </trkpt>
      <trkpt lat="49.38944" lon="0.13803">
        <ele>117.5</ele>
        <time>2020-06-17T14:50:25Z</time>
      </trkpt>
      <trkpt lat="49.38949" lon="0.13813">
        <ele>117</ele>
        <time>2020-06-17T14:50:26Z</time>
      </trkpt>
      <trkpt lat="49.38955" lon="0.13822">
        <ele>116.6</ele>
        <time>2020-06-17T14:50:27Z</time>
      </trkpt>
      <trkpt lat="49.38961" lon="0.13831">
        <ele>116.1</ele>
        <time>2020-06-17T14:50:28Z</time>
      </trkpt>
      <trkpt lat="49.38967" lon="0.13841">
        <ele>115.6</ele>
        <time>2020-06-17T14:50:29Z</time>
      </trkpt>
      <trkpt lat="49.38973" lon="0.13851">
        <ele>115</ele>
        <time>2020-06-17T14:50:30Z</time>
      </trkpt>
      <trkpt lat="49.3898" lon="0.13862">
        <ele>114.5</ele>
        <time>2020-06-17T14:50:31Z</time>
      </trkpt>
      <trkpt lat="49.38987" lon="0.13873">
        <ele>113.9</ele>
        <time>2020-06-17T14:50:32Z</time>
      </trkpt>
      <trkpt lat="49.38994" lon="0.13885">
        <ele>113.3</ele>
        <time>2020-06-17T14:50:33Z</time>
      </trkpt>
      <trkpt lat="49.39001" lon="0.13896">
        <ele>112.6</ele>
        <time>2020-06-17T14:50:34Z</time>
      </trkpt>
      <trkpt lat="49.39008" lon="0.13906">
        <ele>112</ele>
        <time>2020-06-17T14:50:35Z</time>
      </trkpt>
      <trkpt lat="49.39013" lon="0.13915">
        <ele>111.5</ele>
        <time>2020-06-17T14:50:36Z</time>
      </trkpt>
      <trkpt lat="49.39018" lon="0.13924">
        <ele>111</ele>
        <time>2020-06-17T14:50:37Z</time>
      </trkpt>
      <trkpt lat="49.39023" lon="0.13934">
        <ele>110.5</ele>
        <time>2020-06-17T14:50:38Z</time>
      </trkpt>
      <trkpt lat="49.39029" lon="0.13943">
        <ele>110</ele>
        <time>2020-06-17T14:50:39Z</time>
      </trkpt>
      <trkpt lat="49.39035" lon="0.13954">
        <ele>109.4</ele>
        <time>2020-06-17T14:50:40Z</time>
      </trkpt>
      <trkpt lat="49.39042" lon="0.13965">
        <ele>108.8</ele>
        <time>2020-06-17T14:50:41Z</time>
      </trkpt>
      <trkpt lat="49.39048" lon="0.13975">
        <ele>108.3</ele>
        <time>2020-06-17T14:50:42Z</time>
      </trkpt>
      <trkpt lat="49.39054" lon="0.13985">
        <ele>107.7</ele>
        <time>2020-06-17T14:50:43Z</time>
      </trkpt>
      <trkpt lat="49.39059" lon="0.13994">
        <ele>107.2</ele>
        <time>2020-06-17T14:50:44Z</time>
      </trkpt>
      <trkpt lat="49.39065" lon="0.14007">
        <ele>106.4</ele>
        <time>2020-06-17T14:50:45Z</time>
      </trkpt>
      <trkpt lat="49.3907" lon="0.1402">
        <ele>105.7</ele>
        <time>2020-06-17T14:50:46Z</time>
      </trkpt>
      <trkpt lat="49.39076" lon="0.1403">
        <ele>105.1</ele>
        <time>2020-06-17T14:50:47Z</time>
      </trkpt>
      <trkpt lat="49.39083" lon="0.1404">
        <ele>104.5</ele>
        <time>2020-06-17T14:50:48Z</time>
      </trkpt>
      <trkpt lat="49.3909" lon="0.1405">
        <ele>103.8</ele>
        <time>2020-06-17T14:50:49Z</time>
      </trkpt>
      <trkpt lat="49.39098" lon="0.1406">
        <ele>103.1</ele>
        <time>2020-06-17T14:50:50Z</time>
      </trkpt>
      <trkpt lat="49.39105" lon="0.1407">
        <ele>102.3</ele>
        <time>2020-06-17T14:50:51Z</time>
      </trkpt>
      <trkpt lat="49.3911" lon="0.1408">
        <ele>101.7</ele>
        <time>2020-06-17T14:50:52Z</time>
      </trkpt>
      <trkpt lat="49.39115" lon="0.14093">
        <ele>101</ele>
        <time>2020-06-17T14:50:53Z</time>
      </trkpt>
      <trkpt lat="49.39121" lon="0.14105">
        <ele>100.3</ele>
        <time>2020-06-17T14:50:54Z</time>
      </trkpt>
      <trkpt lat="49.39127" lon="0.14118">
        <ele>99.6</ele>
        <time>2020-06-17T14:50:55Z</time>
      </trkpt>
      <trkpt lat="49.39131" lon="0.14131">
        <ele>99</ele>
        <time>2020-06-17T14:50:56Z</time>
      </trkpt>
      <trkpt lat="49.39136" lon="0.14145">
        <ele>98.4</ele>
        <time>2020-06-17T14:50:57Z</time>
      </trkpt>
      <trkpt lat="49.39141" lon="0.14159">
        <ele>97.8</ele>
        <time>2020-06-17T14:50:58Z</time>
      </trkpt>
      <trkpt lat="49.39146" lon="0.14174">
        <ele>97.1</ele>
        <time>2020-06-17T14:50:59Z</time>
      </trkpt>
      <trkpt lat="49.39151" lon="0.14191">
        <ele>96.4</ele>
        <time>2020-06-17T14:51:00Z</time>
      </trkpt>
      <trkpt lat="49.39153" lon="0.14205">
        <ele>95.8</ele>
        <time>2020-06-17T14:51:01Z</time>
      </trkpt>
      <trkpt lat="49.39156" lon="0.14218">
        <ele>95.2</ele>
        <time>2020-06-17T14:51:02Z</time>
      </trkpt>
      <trkpt lat="49.39161" lon="0.1423">
        <ele>94.6</ele>
        <time>2020-06-17T14:51:03Z</time>
      </trkpt>
      <trkpt lat="49.39166" lon="0.14239">
        <ele>94</ele>
        <time>2020-06-17T14:51:04Z</time>
      </trkpt>
      <trkpt lat="49.39172" lon="0.14248">
        <ele>93.4</ele>
        <time>2020-06-17T14:51:05Z</time>
      </trkpt>
      <trkpt lat="49.39178" lon="0.14255">
        <ele>92.9</ele>
        <time>2020-06-17T14:51:06Z</time>
      </trkpt>
      <trkpt lat="49.39183" lon="0.14263">
        <ele>92.5</ele>
        <time>2020-06-17T14:51:07Z</time>
      </trkpt>
      <trkpt lat="49.39188" lon="0.14272">
        <ele>92</ele>
        <time>2020-06-17T14:51:08Z</time>
      </trkpt>
      <trkpt lat="49.39194" lon="0.14282">
        <ele>91.5</ele>
        <time>2020-06-17T14:51:09Z</time>
      </trkpt>
      <trkpt lat="49.39202" lon="0.14293">
        <ele>90.9</ele>
        <time>2020-06-17T14:51:10Z</time>
      </trkpt>
      <trkpt lat="49.3921" lon="0.14301">
        <ele>90.3</ele>
        <time>2020-06-17T14:51:11Z</time>
      </trkpt>
      <trkpt lat="49.39217" lon="0.14309">
        <ele>89.7</ele>
        <time>2020-06-17T14:51:12Z</time>
      </trkpt>
      <trkpt lat="49.39225" lon="0.14318">
        <ele>89</ele>
        <time>2020-06-17T14:51:13Z</time>
      </trkpt>
      <trkpt lat="49.39232" lon="0.14325">
        <ele>88.4</ele>
        <time>2020-06-17T14:51:14Z</time>
      </trkpt>
      <trkpt lat="49.3924" lon="0.14334">
        <ele>87.7</ele>
        <time>2020-06-17T14:51:15Z</time>
      </trkpt>
      <trkpt lat="49.39248" lon="0.14342">
        <ele>87.1</ele>
        <time>2020-06-17T14:51:16Z</time>
      </trkpt>
      <trkpt lat="49.39256" lon="0.14353">
        <ele>86.4</ele>
        <time>2020-06-17T14:51:17Z</time>
      </trkpt>
      <trkpt lat="49.39265" lon="0.14361">
        <ele>85.8</ele>
        <time>2020-06-17T14:51:18Z</time>
      </trkpt>
      <trkpt lat="49.39273" lon="0.14368">
        <ele>85.3</ele>
        <time>2020-06-17T14:51:19Z</time>
      </trkpt>
      <trkpt lat="49.39281" lon="0.14377">
        <ele>84.8</ele>
        <time>2020-06-17T14:51:20Z</time>
      </trkpt>
      <trkpt lat="49.39291" lon="0.14386">
        <ele>84.2</ele>
        <time>2020-06-17T14:51:21Z</time>
      </trkpt>
      <trkpt lat="49.39301" lon="0.14397">
        <ele>83.5</ele>
        <time>2020-06-17T14:51:22Z</time>
      </trkpt>
      <trkpt lat="49.3931" lon="0.14406">
        <ele>82.9</ele>
        <time>2020-06-17T14:51:23Z</time>
      </trkpt>
      <trkpt lat="49.39319" lon="0.14413">
        <ele>82.4</ele>
        <time>2020-06-17T14:51:24Z</time>
      </trkpt>
      <trkpt lat="49.39325" lon="0.14422">
        <ele>81.9</ele>
        <time>2020-06-17T14:51:25Z</time>
      </trkpt>
      <trkpt lat="49.39333" lon="0.14431">
        <ele>81.2</ele>
        <time>2020-06-17T14:51:26Z</time>
      </trkpt>
      <trkpt lat="49.39342" lon="0.14441">
        <ele>80.4</ele>
        <time>2020-06-17T14:51:27Z</time>
      </trkpt>
      <trkpt lat="49.39351" lon="0.14453">
        <ele>79.5</ele>
        <time>2020-06-17T14:51:28Z</time>
      </trkpt>
      <trkpt lat="49.3936" lon="0.14464">
        <ele>78.5</ele>
        <time>2020-06-17T14:51:29Z</time>
      </trkpt>
      <trkpt lat="49.39369" lon="0.14473">
        <ele>77.7</ele>
        <time>2020-06-17T14:51:30Z</time>
      </trkpt>
      <trkpt lat="49.39378" lon="0.14481">
        <ele>77</ele>
        <time>2020-06-17T14:51:31Z</time>
      </trkpt>
      <trkpt lat="49.39387" lon="0.14488">
        <ele>76.3</ele>
        <time>2020-06-17T14:51:32Z</time>
      </trkpt>
      <trkpt lat="49.39396" lon="0.14494">
        <ele>75.6</ele>
        <time>2020-06-17T14:51:33Z</time>
      </trkpt>
      <trkpt lat="49.39406" lon="0.145">
        <ele>74.9</ele>
        <time>2020-06-17T14:51:34Z</time>
      </trkpt>
      <trkpt lat="49.39415" lon="0.14505">
        <ele>74.1</ele>
        <time>2020-06-17T14:51:35Z</time>
      </trkpt>
      <trkpt lat="49.39425" lon="0.1451">
        <ele>73.4</ele>
        <time>2020-06-17T14:51:36Z</time>
      </trkpt>
      <trkpt lat="49.39436" lon="0.14516">
        <ele>72.5</ele>
        <time>2020-06-17T14:51:37Z</time>
      </trkpt>
      <trkpt lat="49.39446" lon="0.14522">
        <ele>71.6</ele>
        <time>2020-06-17T14:51:38Z</time>
      </trkpt>
      <trkpt lat="49.39456" lon="0.14528">
        <ele>70.9</ele>
        <time>2020-06-17T14:51:39Z</time>
      </trkpt>
      <trkpt lat="49.39466" lon="0.14535">
        <ele>70</ele>
        <time>2020-06-17T14:51:40Z</time>
      </trkpt>
      <trkpt lat="49.39475" lon="0.14544">
        <ele>69.2</ele>
        <time>2020-06-17T14:51:41Z</time>
      </trkpt>
      <trkpt lat="49.39485" lon="0.14557">
        <ele>68.5</ele>
        <time>2020-06-17T14:51:42Z</time>
      </trkpt>
      <trkpt lat="49.39494" lon="0.14568">
        <ele>68</ele>
        <time>2020-06-17T14:51:43Z</time>
      </trkpt>
      <trkpt lat="49.39502" lon="0.14578">
        <ele>67.7</ele>
        <time>2020-06-17T14:51:44Z</time>
      </trkpt>
      <trkpt lat="49.3951" lon="0.1459">
        <ele>67.6</ele>
        <time>2020-06-17T14:51:45Z</time>
      </trkpt>
      <trkpt lat="49.39518" lon="0.14602">
        <ele>67.6</ele>
        <time>2020-06-17T14:51:46Z</time>
      </trkpt>
      <trkpt lat="49.39527" lon="0.14617">
        <ele>67.2</ele>
        <time>2020-06-17T14:51:47Z</time>
      </trkpt>
      <trkpt lat="49.39535" lon="0.1463">
        <ele>66.6</ele>
        <time>2020-06-17T14:51:48Z</time>
      </trkpt>
      <trkpt lat="49.39543" lon="0.14642">
        <ele>66.1</ele>
        <time>2020-06-17T14:51:49Z</time>
      </trkpt>
      <trkpt lat="49.3955" lon="0.14655">
        <ele>65.6</ele>
        <time>2020-06-17T14:51:50Z</time>
      </trkpt>
      <trkpt lat="49.39557" lon="0.14666">
        <ele>65.2</ele>
        <time>2020-06-17T14:51:51Z</time>
      </trkpt>
      <trkpt lat="49.39565" lon="0.14678">
        <ele>64.8</ele>
        <time>2020-06-17T14:51:52Z</time>
      </trkpt>
      <trkpt lat="49.39573" lon="0.14689">
        <ele>64.5</ele>
        <time>2020-06-17T14:51:53Z</time>
      </trkpt>
      <trkpt lat="49.3958" lon="0.14697">
        <ele>64.2</ele>
        <time>2020-06-17T14:51:54Z</time>
      </trkpt>
      <trkpt lat="49.39587" lon="0.14708">
        <ele>63.9</ele>
        <time>2020-06-17T14:51:55Z</time>
      </trkpt>
      <trkpt lat="49.39594" lon="0.14715">
        <ele>63.6</ele>
        <time>2020-06-17T14:51:56Z</time>
      </trkpt>
      <trkpt lat="49.39601" lon="0.14725">
        <ele>63.3</ele>
        <time>2020-06-17T14:51:57Z</time>
      </trkpt>
      <trkpt lat="49.39607" lon="0.14733">
        <ele>62.9</ele>
        <time>2020-06-17T14:51:58Z</time>
      </trkpt>
      <trkpt lat="49.39614" lon="0.14743">
        <ele>62.4</ele>
        <time>2020-06-17T14:51:59Z</time>
      </trkpt>
      <trkpt lat="49.39622" lon="0.14754">
        <ele>61.8</ele>
        <time>2020-06-17T14:52:00Z</time>
      </trkpt>
      <trkpt lat="49.39629" lon="0.14765">
        <ele>61.3</ele>
        <time>2020-06-17T14:52:01Z</time>
      </trkpt>
      <trkpt lat="49.39637" lon="0.14778">
        <ele>60.6</ele>
        <time>2020-06-17T14:52:02Z</time>
      </trkpt>
      <trkpt lat="49.39644" lon="0.14789">
        <ele>60</ele>
        <time>2020-06-17T14:52:03Z</time>
      </trkpt>
      <trkpt lat="49.39652" lon="0.148">
        <ele>59.4</ele>
        <time>2020-06-17T14:52:04Z</time>
      </trkpt>
      <trkpt lat="49.39659" lon="0.1481">
        <ele>58.7</ele>
        <time>2020-06-17T14:52:05Z</time>
      </trkpt>
      <trkpt lat="49.39668" lon="0.14821">
        <ele>58.1</ele>
        <time>2020-06-17T14:52:06Z</time>
      </trkpt>
      <trkpt lat="49.39677" lon="0.14831">
        <ele>57.4</ele>
        <time>2020-06-17T14:52:07Z</time>
      </trkpt>
      <trkpt lat="49.39685" lon="0.14844">
        <ele>56.7</ele>
        <time>2020-06-17T14:52:08Z</time>
      </trkpt>
      <trkpt lat="49.39693" lon="0.14855">
        <ele>55.9</ele>
        <time>2020-06-17T14:52:09Z</time>
      </trkpt>
      <trkpt lat="49.39701" lon="0.14865">
        <ele>55.3</ele>
        <time>2020-06-17T14:52:10Z</time>
      </trkpt>
      <trkpt lat="49.39709" lon="0.14876">
        <ele>54.5</ele>
        <time>2020-06-17T14:52:11Z</time>
      </trkpt>
      <trkpt lat="49.39718" lon="0.14888">
        <ele>53.7</ele>
        <time>2020-06-17T14:52:12Z</time>
      </trkpt>
      <trkpt lat="49.39726" lon="0.14902">
        <ele>52.9</ele>
        <time>2020-06-17T14:52:13Z</time>
      </trkpt>
      <trkpt lat="49.39735" lon="0.14915">
        <ele>52.2</ele>
        <time>2020-06-17T14:52:14Z</time>
      </trkpt>
      <trkpt lat="49.39743" lon="0.14927">
        <ele>51.5</ele>
        <time>2020-06-17T14:52:15Z</time>
      </trkpt>
      <trkpt lat="49.3975" lon="0.1494">
        <ele>50.8</ele>
        <time>2020-06-17T14:52:16Z</time>
      </trkpt>
      <trkpt lat="49.39759" lon="0.14954">
        <ele>50</ele>
        <time>2020-06-17T14:52:17Z</time>
      </trkpt>
      <trkpt lat="49.39766" lon="0.14967">
        <ele>49.4</ele>
        <time>2020-06-17T14:52:18Z</time>
      </trkpt>
      <trkpt lat="49.39774" lon="0.14982">
        <ele>48.8</ele>
        <time>2020-06-17T14:52:19Z</time>
      </trkpt>
      <trkpt lat="49.39783" lon="0.14996">
        <ele>48.1</ele>
        <time>2020-06-17T14:52:20Z</time>
      </trkpt>
      <trkpt lat="49.3979" lon="0.15009">
        <ele>47.5</ele>
        <time>2020-06-17T14:52:21Z</time>
      </trkpt>
      <trkpt lat="49.39798" lon="0.1502">
        <ele>46.9</ele>
        <time>2020-06-17T14:52:22Z</time>
      </trkpt>
      <trkpt lat="49.39807" lon="0.15032">
        <ele>46.2</ele>
        <time>2020-06-17T14:52:23Z</time>
      </trkpt>
      <trkpt lat="49.39815" lon="0.15044">
        <ele>45.4</ele>
        <time>2020-06-17T14:52:24Z</time>
      </trkpt>
      <trkpt lat="49.39822" lon="0.15055">
        <ele>44.8</ele>
        <time>2020-06-17T14:52:25Z</time>
      </trkpt>
      <trkpt lat="49.3983" lon="0.15066">
        <ele>44.2</ele>
        <time>2020-06-17T14:52:26Z</time>
      </trkpt>
      <trkpt lat="49.39839" lon="0.15078">
        <ele>43.5</ele>
        <time>2020-06-17T14:52:27Z</time>
      </trkpt>
      <trkpt lat="49.39847" lon="0.15088">
        <ele>42.8</ele>
        <time>2020-06-17T14:52:28Z</time>
      </trkpt>
      <trkpt lat="49.39856" lon="0.151">
        <ele>42.5</ele>
        <time>2020-06-17T14:52:29Z</time>
      </trkpt>
      <trkpt lat="49.39865" lon="0.15112">
        <ele>41.7</ele>
        <time>2020-06-17T14:52:30Z</time>
      </trkpt>
      <trkpt lat="49.39873" lon="0.15124">
        <ele>40.3</ele>
        <time>2020-06-17T14:52:31Z</time>
      </trkpt>
      <trkpt lat="49.39882" lon="0.15136">
        <ele>39.1</ele>
        <time>2020-06-17T14:52:32Z</time>
      </trkpt>
      <trkpt lat="49.3989" lon="0.15146">
        <ele>38</ele>
        <time>2020-06-17T14:52:33Z</time>
      </trkpt>
      <trkpt lat="49.39898" lon="0.15159">
        <ele>37</ele>
        <time>2020-06-17T14:52:34Z</time>
      </trkpt>
      <trkpt lat="49.39906" lon="0.15171">
        <ele>36.2</ele>
        <time>2020-06-17T14:52:35Z</time>
      </trkpt>
      <trkpt lat="49.39913" lon="0.15183">
        <ele>35.3</ele>
        <time>2020-06-17T14:52:36Z</time>
      </trkpt>
      <trkpt lat="49.39921" lon="0.15195">
        <ele>34.6</ele>
        <time>2020-06-17T14:52:37Z</time>
      </trkpt>
      <trkpt lat="49.39929" lon="0.15207">
        <ele>33.8</ele>
        <time>2020-06-17T14:52:38Z</time>
      </trkpt>
      <trkpt lat="49.39937" lon="0.15217">
        <ele>33.1</ele>
        <time>2020-06-17T14:52:39Z</time>
      </trkpt>
      <trkpt lat="49.39945" lon="0.15227">
        <ele>32.4</ele>
        <time>2020-06-17T14:52:40Z</time>
      </trkpt>
      <trkpt lat="49.39953" lon="0.15239">
        <ele>31.7</ele>
        <time>2020-06-17T14:52:41Z</time>
      </trkpt>
      <trkpt lat="49.3996" lon="0.15249">
        <ele>31</ele>
        <time>2020-06-17T14:52:42Z</time>
      </trkpt>
      <trkpt lat="49.39968" lon="0.1526">
        <ele>30.4</ele>
        <time>2020-06-17T14:52:43Z</time>
      </trkpt>
      <trkpt lat="49.39975" lon="0.15272">
        <ele>29.7</ele>
        <time>2020-06-17T14:52:44Z</time>
      </trkpt>
      <trkpt lat="49.39982" lon="0.15283">
        <ele>29</ele>
        <time>2020-06-17T14:52:45Z</time>
      </trkpt>
      <trkpt lat="49.3999" lon="0.15295">
        <ele>28.1</ele>
        <time>2020-06-17T14:52:46Z</time>
      </trkpt>
      <trkpt lat="49.39999" lon="0.15307">
        <ele>27.3</ele>
        <time>2020-06-17T14:52:47Z</time>
      </trkpt>
      <trkpt lat="49.40008" lon="0.15318">
        <ele>26.5</ele>
        <time>2020-06-17T14:52:48Z</time>
      </trkpt>
      <trkpt lat="49.40017" lon="0.15331">
        <ele>25.6</ele>
        <time>2020-06-17T14:52:49Z</time>
      </trkpt>
      <trkpt lat="49.40026" lon="0.15344">
        <ele>24.8</ele>
        <time>2020-06-17T14:52:50Z</time>
      </trkpt>
      <trkpt lat="49.40035" lon="0.15357">
        <ele>24</ele>
        <time>2020-06-17T14:52:51Z</time>
      </trkpt>
      <trkpt lat="49.40044" lon="0.1537">
        <ele>23.2</ele>
        <time>2020-06-17T14:52:52Z</time>
      </trkpt>
      <trkpt lat="49.40052" lon="0.15382">
        <ele>22.4</ele>
        <time>2020-06-17T14:52:53Z</time>
      </trkpt>
      <trkpt lat="49.4006" lon="0.15393">
        <ele>21.8</ele>
        <time>2020-06-17T14:52:54Z</time>
      </trkpt>
      <trkpt lat="49.40068" lon="0.15404">
        <ele>21.1</ele>
        <time>2020-06-17T14:52:55Z</time>
      </trkpt>
      <trkpt lat="49.40076" lon="0.15415">
        <ele>20.4</ele>
        <time>2020-06-17T14:52:56Z</time>
      </trkpt>
      <trkpt lat="49.40083" lon="0.15425">
        <ele>19.8</ele>
        <time>2020-06-17T14:52:57Z</time>
      </trkpt>
      <trkpt lat="49.40089" lon="0.15434">
        <ele>19.3</ele>
        <time>2020-06-17T14:52:58Z</time>
      </trkpt>
      <trkpt lat="49.40095" lon="0.15444">
        <ele>18.9</ele>
        <time>2020-06-17T14:52:59Z</time>
      </trkpt>
      <trkpt lat="49.40101" lon="0.15455">
        <ele>18.4</ele>
        <time>2020-06-17T14:53:00Z</time>
      </trkpt>
      <trkpt lat="49.40108" lon="0.15467">
        <ele>18</ele>
        <time>2020-06-17T14:53:01Z</time>
      </trkpt>
      <trkpt lat="49.40114" lon="0.15482">
        <ele>17.5</ele>
        <time>2020-06-17T14:53:02Z</time>
      </trkpt>
      <trkpt lat="49.4012" lon="0.15494">
        <ele>17.2</ele>
        <time>2020-06-17T14:53:03Z</time>
      </trkpt>
      <trkpt lat="49.40125" lon="0.15505">
        <ele>17.2</ele>
        <time>2020-06-17T14:53:04Z</time>
      </trkpt>
      <trkpt lat="49.40129" lon="0.15516">
        <ele>17</ele>
        <time>2020-06-17T14:53:05Z</time>
      </trkpt>
      <trkpt lat="49.40131" lon="0.15524">
        <ele>16.9</ele>
        <time>2020-06-17T14:53:06Z</time>
      </trkpt>
      <trkpt lat="49.40135" lon="0.15531">
        <ele>16.7</ele>
        <time>2020-06-17T14:53:07Z</time>
      </trkpt>
      <trkpt lat="49.40138" lon="0.15538">
        <ele>16.7</ele>
        <time>2020-06-17T14:53:08Z</time>
      </trkpt>
      <trkpt lat="49.40141" lon="0.15546">
        <ele>16.7</ele>
        <time>2020-06-17T14:53:09Z</time>
      </trkpt>
      <trkpt lat="49.40143" lon="0.15554">
        <ele>16.7</ele>
        <time>2020-06-17T14:53:10Z</time>
      </trkpt>
      <trkpt lat="49.40144" lon="0.15561">
        <ele>16.7</ele>
        <time>2020-06-17T14:53:11Z</time>
      </trkpt>
      <trkpt lat="49.40146" lon="0.1557">
        <ele>16.7</ele>
        <time>2020-06-17T14:53:12Z</time>
      </trkpt>
      <trkpt lat="49.40148" lon="0.15578">
        <ele>16.8</ele>
        <time>2020-06-17T14:53:13Z</time>
      </trkpt>
      <trkpt lat="49.4015" lon="0.15586">
        <ele>16.8</ele>
        <time>2020-06-17T14:53:14Z</time>
      </trkpt>
      <trkpt lat="49.40152" lon="0.15591">
        <ele>16.8</ele>
        <time>2020-06-17T14:53:15Z</time>
      </trkpt>
      <trkpt lat="49.40154" lon="0.15599">
        <ele>16.8</ele>
        <time>2020-06-17T14:53:16Z</time>
      </trkpt>
      <trkpt lat="49.40156" lon="0.1561">
        <ele>16.9</ele>
        <time>2020-06-17T14:53:17Z</time>
      </trkpt>
      <trkpt lat="49.40158" lon="0.15618">
        <ele>16.9</ele>
        <time>2020-06-17T14:53:18Z</time>
      </trkpt>
      <trkpt lat="49.4016" lon="0.15626">
        <ele>17</ele>
        <time>2020-06-17T14:53:19Z</time>
      </trkpt>
      <trkpt lat="49.40161" lon="0.15634">
        <ele>17.1</ele>
        <time>2020-06-17T14:53:20Z</time>
      </trkpt>
      <trkpt lat="49.40162" lon="0.15641">
        <ele>17.2</ele>
        <time>2020-06-17T14:53:21Z</time>
      </trkpt>
      <trkpt lat="49.40164" lon="0.1565">
        <ele>17.3</ele>
        <time>2020-06-17T14:53:22Z</time>
      </trkpt>
      <trkpt lat="49.40166" lon="0.15656">
        <ele>17.4</ele>
        <time>2020-06-17T14:53:23Z</time>
      </trkpt>
      <trkpt lat="49.40168" lon="0.15664">
        <ele>17.5</ele>
        <time>2020-06-17T14:53:24Z</time>
      </trkpt>
      <trkpt lat="49.4017" lon="0.15672">
        <ele>17.6</ele>
        <time>2020-06-17T14:53:25Z</time>
      </trkpt>
      <trkpt lat="49.40171" lon="0.15678">
        <ele>17.7</ele>
        <time>2020-06-17T14:53:26Z</time>
      </trkpt>
      <trkpt lat="49.40173" lon="0.15687">
        <ele>17.8</ele>
        <time>2020-06-17T14:53:27Z</time>
      </trkpt>
      <trkpt lat="49.40173" lon="0.15697">
        <ele>17.9</ele>
        <time>2020-06-17T14:53:28Z</time>
      </trkpt>
      <trkpt lat="49.40174" lon="0.15709">
        <ele>18</ele>
        <time>2020-06-17T14:53:29Z</time>
      </trkpt>
      <trkpt lat="49.40175" lon="0.15715">
        <ele>18</ele>
        <time>2020-06-17T14:53:30Z</time>
      </trkpt>
      <trkpt lat="49.40178" lon="0.15725">
        <ele>18.1</ele>
        <time>2020-06-17T14:53:31Z</time>
      </trkpt>
      <trkpt lat="49.4018" lon="0.15734">
        <ele>18.2</ele>
        <time>2020-06-17T14:53:32Z</time>
      </trkpt>
      <trkpt lat="49.40182" lon="0.1574">
        <ele>18.3</ele>
        <time>2020-06-17T14:53:33Z</time>
      </trkpt>
      <trkpt lat="49.40184" lon="0.15749">
        <ele>18.3</ele>
        <time>2020-06-17T14:53:34Z</time>
      </trkpt>
      <trkpt lat="49.40186" lon="0.15758">
        <ele>18.4</ele>
        <time>2020-06-17T14:53:35Z</time>
      </trkpt>
      <trkpt lat="49.40187" lon="0.15768">
        <ele>18.4</ele>
        <time>2020-06-17T14:53:36Z</time>
      </trkpt>
      <trkpt lat="49.40189" lon="0.15777">
        <ele>18.5</ele>
        <time>2020-06-17T14:53:37Z</time>
      </trkpt>
      <trkpt lat="49.40191" lon="0.15786">
        <ele>18.7</ele>
        <time>2020-06-17T14:53:38Z</time>
      </trkpt>
      <trkpt lat="49.40192" lon="0.15795">
        <ele>18.7</ele>
        <time>2020-06-17T14:53:39Z</time>
      </trkpt>
      <trkpt lat="49.40194" lon="0.15802">
        <ele>18.8</ele>
        <time>2020-06-17T14:53:40Z</time>
      </trkpt>
      <trkpt lat="49.40195" lon="0.15811">
        <ele>18.8</ele>
        <time>2020-06-17T14:53:41Z</time>
      </trkpt>
      <trkpt lat="49.40195" lon="0.15818">
        <ele>18.8</ele>
        <time>2020-06-17T14:53:42Z</time>
      </trkpt>
      <trkpt lat="49.40198" lon="0.15826">
        <ele>18.9</ele>
        <time>2020-06-17T14:53:43Z</time>
      </trkpt>
      <trkpt lat="49.402" lon="0.15833">
        <ele>18.9</ele>
        <time>2020-06-17T14:53:44Z</time>
      </trkpt>
      <trkpt lat="49.40202" lon="0.15841">
        <ele>18.9</ele>
        <time>2020-06-17T14:53:45Z</time>
      </trkpt>
      <trkpt lat="49.40205" lon="0.15849">
        <ele>18.9</ele>
        <time>2020-06-17T14:53:46Z</time>
      </trkpt>
      <trkpt lat="49.40208" lon="0.15858">
        <ele>18.8</ele>
        <time>2020-06-17T14:53:47Z</time>
      </trkpt>
      <trkpt lat="49.4021" lon="0.15867">
        <ele>18.7</ele>
        <time>2020-06-17T14:53:48Z</time>
      </trkpt>
      <trkpt lat="49.40211" lon="0.15876">
        <ele>18.7</ele>
        <time>2020-06-17T14:53:49Z</time>
      </trkpt>
      <trkpt lat="49.40213" lon="0.15886">
        <ele>18.6</ele>
        <time>2020-06-17T14:53:50Z</time>
      </trkpt>
      <trkpt lat="49.40214" lon="0.15897">
        <ele>18.5</ele>
        <time>2020-06-17T14:53:51Z</time>
      </trkpt>
      <trkpt lat="49.40216" lon="0.15907">
        <ele>18.4</ele>
        <time>2020-06-17T14:53:52Z</time>
      </trkpt>
      <trkpt lat="49.40218" lon="0.15916">
        <ele>18.3</ele>
        <time>2020-06-17T14:53:53Z</time>
      </trkpt>
      <trkpt lat="49.4022" lon="0.15925">
        <ele>18.1</ele>
        <time>2020-06-17T14:53:54Z</time>
      </trkpt>
      <trkpt lat="49.40223" lon="0.15934">
        <ele>18</ele>
        <time>2020-06-17T14:53:55Z</time>
      </trkpt>
      <trkpt lat="49.40225" lon="0.15941">
        <ele>17.9</ele>
        <time>2020-06-17T14:53:56Z</time>
      </trkpt>
      <trkpt lat="49.40227" lon="0.15948">
        <ele>17.8</ele>
        <time>2020-06-17T14:53:57Z</time>
      </trkpt>
      <trkpt lat="49.4023" lon="0.15956">
        <ele>17.6</ele>
        <time>2020-06-17T14:53:58Z</time>
      </trkpt>
      <trkpt lat="49.40233" lon="0.15964">
        <ele>17.5</ele>
        <time>2020-06-17T14:53:59Z</time>
      </trkpt>
      <trkpt lat="49.40237" lon="0.15973">
        <ele>17.4</ele>
        <time>2020-06-17T14:54:00Z</time>
      </trkpt>
      <trkpt lat="49.40241" lon="0.15982">
        <ele>17.2</ele>
        <time>2020-06-17T14:54:01Z</time>
      </trkpt>
      <trkpt lat="49.40245" lon="0.15992">
        <ele>17.1</ele>
        <time>2020-06-17T14:54:02Z</time>
      </trkpt>
      <trkpt lat="49.40249" lon="0.16001">
        <ele>17</ele>
        <time>2020-06-17T14:54:03Z</time>
      </trkpt>
      <trkpt lat="49.40252" lon="0.1601">
        <ele>17</ele>
        <time>2020-06-17T14:54:04Z</time>
      </trkpt>
      <trkpt lat="49.40255" lon="0.16021">
        <ele>17</ele>
        <time>2020-06-17T14:54:05Z</time>
      </trkpt>
      <trkpt lat="49.40259" lon="0.1603">
        <ele>16.9</ele>
        <time>2020-06-17T14:54:06Z</time>
      </trkpt>
      <trkpt lat="49.40262" lon="0.16039">
        <ele>16.9</ele>
        <time>2020-06-17T14:54:07Z</time>
      </trkpt>
      <trkpt lat="49.40266" lon="0.16047">
        <ele>16.9</ele>
        <time>2020-06-17T14:54:08Z</time>
      </trkpt>
      <trkpt lat="49.40269" lon="0.16058">
        <ele>16.8</ele>
        <time>2020-06-17T14:54:09Z</time>
      </trkpt>
      <trkpt lat="49.40273" lon="0.16068">
        <ele>16.8</ele>
        <time>2020-06-17T14:54:10Z</time>
      </trkpt>
      <trkpt lat="49.40278" lon="0.1608">
        <ele>16.8</ele>
        <time>2020-06-17T14:54:11Z</time>
      </trkpt>
      <trkpt lat="49.40282" lon="0.16089">
        <ele>16.8</ele>
        <time>2020-06-17T14:54:12Z</time>
      </trkpt>
      <trkpt lat="49.40286" lon="0.16098">
        <ele>16.9</ele>
        <time>2020-06-17T14:54:13Z</time>
      </trkpt>
      <trkpt lat="49.40291" lon="0.16109">
        <ele>17</ele>
        <time>2020-06-17T14:54:14Z</time>
      </trkpt>
      <trkpt lat="49.40294" lon="0.16119">
        <ele>17</ele>
        <time>2020-06-17T14:54:15Z</time>
      </trkpt>
      <trkpt lat="49.40299" lon="0.16129">
        <ele>17.1</ele>
        <time>2020-06-17T14:54:16Z</time>
      </trkpt>
      <trkpt lat="49.40302" lon="0.16138">
        <ele>17.2</ele>
        <time>2020-06-17T14:54:17Z</time>
      </trkpt>
      <trkpt lat="49.40305" lon="0.16147">
        <ele>17.2</ele>
        <time>2020-06-17T14:54:18Z</time>
      </trkpt>
      <trkpt lat="49.40308" lon="0.16155">
        <ele>17.3</ele>
        <time>2020-06-17T14:54:19Z</time>
      </trkpt>
      <trkpt lat="49.40312" lon="0.16164">
        <ele>17.3</ele>
        <time>2020-06-17T14:54:20Z</time>
      </trkpt>
      <trkpt lat="49.40315" lon="0.16172">
        <ele>17.4</ele>
        <time>2020-06-17T14:54:21Z</time>
      </trkpt>
      <trkpt lat="49.40319" lon="0.1618">
        <ele>17.4</ele>
        <time>2020-06-17T14:54:22Z</time>
      </trkpt>
      <trkpt lat="49.40323" lon="0.1619">
        <ele>17.4</ele>
        <time>2020-06-17T14:54:23Z</time>
      </trkpt>
      <trkpt lat="49.40327" lon="0.162">
        <ele>17.4</ele>
        <time>2020-06-17T14:54:24Z</time>
      </trkpt>
      <trkpt lat="49.4033" lon="0.16208">
        <ele>17.5</ele>
        <time>2020-06-17T14:54:25Z</time>
      </trkpt>
      <trkpt lat="49.40334" lon="0.16216">
        <ele>17.5</ele>
        <time>2020-06-17T14:54:26Z</time>
      </trkpt>
      <trkpt lat="49.40339" lon="0.16224">
        <ele>17.6</ele>
        <time>2020-06-17T14:54:27Z</time>
      </trkpt>
      <trkpt lat="49.40342" lon="0.16231">
        <ele>17.7</ele>
        <time>2020-06-17T14:54:28Z</time>
      </trkpt>
      <trkpt lat="49.40346" lon="0.16237">
        <ele>17.7</ele>
        <time>2020-06-17T14:54:29Z</time>
      </trkpt>
      <trkpt lat="49.40349" lon="0.16244">
        <ele>17.7</ele>
        <time>2020-06-17T14:54:30Z</time>
      </trkpt>
      <trkpt lat="49.40352" lon="0.16251">
        <ele>17.7</ele>
        <time>2020-06-17T14:54:31Z</time>
      </trkpt>
      <trkpt lat="49.40354" lon="0.16258">
        <ele>17.7</ele>
        <time>2020-06-17T14:54:32Z</time>
      </trkpt>
      <trkpt lat="49.40357" lon="0.16266">
        <ele>17.8</ele>
        <time>2020-06-17T14:54:33Z</time>
      </trkpt>
      <trkpt lat="49.4036" lon="0.16273">
        <ele>17.8</ele>
        <time>2020-06-17T14:54:34Z</time>
      </trkpt>
      <trkpt lat="49.40364" lon="0.1628">
        <ele>17.8</ele>
        <time>2020-06-17T14:54:35Z</time>
      </trkpt>
      <trkpt lat="49.40368" lon="0.16288">
        <ele>17.8</ele>
        <time>2020-06-17T14:54:36Z</time>
      </trkpt>
      <trkpt lat="49.40371" lon="0.16296">
        <ele>17.8</ele>
        <time>2020-06-17T14:54:37Z</time>
      </trkpt>
      <trkpt lat="49.40374" lon="0.16302">
        <ele>17.8</ele>
        <time>2020-06-17T14:54:38Z</time>
      </trkpt>
      <trkpt lat="49.40376" lon="0.1631">
        <ele>17.8</ele>
        <time>2020-06-17T14:54:39Z</time>
      </trkpt>
      <trkpt lat="49.4038" lon="0.16318">
        <ele>17.9</ele>
        <time>2020-06-17T14:54:40Z</time>
      </trkpt>
      <trkpt lat="49.40384" lon="0.16327">
        <ele>17.9</ele>
        <time>2020-06-17T14:54:41Z</time>
      </trkpt>
      <trkpt lat="49.40387" lon="0.16335">
        <ele>17.9</ele>
        <time>2020-06-17T14:54:42Z</time>
      </trkpt>
      <trkpt lat="49.40389" lon="0.16346">
        <ele>17.9</ele>
        <time>2020-06-17T14:54:43Z</time>
      </trkpt>
      <trkpt lat="49.4039" lon="0.16354">
        <ele>17.9</ele>
        <time>2020-06-17T14:54:44Z</time>
      </trkpt>
      <trkpt lat="49.40391" lon="0.16362">
        <ele>17.9</ele>
        <time>2020-06-17T14:54:45Z</time>
      </trkpt>
      <trkpt lat="49.40393" lon="0.16371">
        <ele>17.9</ele>
        <time>2020-06-17T14:54:46Z</time>
      </trkpt>
      <trkpt lat="49.40396" lon="0.16378">
        <ele>17.9</ele>
        <time>2020-06-17T14:54:47Z</time>
      </trkpt>
      <trkpt lat="49.40398" lon="0.16388">
        <ele>17.9</ele>
        <time>2020-06-17T14:54:48Z</time>
      </trkpt>
      <trkpt lat="49.40399" lon="0.16396">
        <ele>17.9</ele>
        <time>2020-06-17T14:54:49Z</time>
      </trkpt>
      <trkpt lat="49.40401" lon="0.16405">
        <ele>17.9</ele>
        <time>2020-06-17T14:54:50Z</time>
      </trkpt>
      <trkpt lat="49.40403" lon="0.16413">
        <ele>17.9</ele>
        <time>2020-06-17T14:54:51Z</time>
      </trkpt>
      <trkpt lat="49.40405" lon="0.1642">
        <ele>17.9</ele>
        <time>2020-06-17T14:54:52Z</time>
      </trkpt>
      <trkpt lat="49.40407" lon="0.16427">
        <ele>17.9</ele>
        <time>2020-06-17T14:54:53Z</time>
      </trkpt>
      <trkpt lat="49.4041" lon="0.16433">
        <ele>17.9</ele>
        <time>2020-06-17T14:54:54Z</time>
      </trkpt>
      <trkpt lat="49.40413" lon="0.1644">
        <ele>17.8</ele>
        <time>2020-06-17T14:54:55Z</time>
      </trkpt>
      <trkpt lat="49.40416" lon="0.16446">
        <ele>17.8</ele>
        <time>2020-06-17T14:54:56Z</time>
      </trkpt>
      <trkpt lat="49.4042" lon="0.16455">
        <ele>17.7</ele>
        <time>2020-06-17T14:54:57Z</time>
      </trkpt>
      <trkpt lat="49.40423" lon="0.16463">
        <ele>17.7</ele>
        <time>2020-06-17T14:54:58Z</time>
      </trkpt>
      <trkpt lat="49.40428" lon="0.16472">
        <ele>17.5</ele>
        <time>2020-06-17T14:54:59Z</time>
      </trkpt>
      <trkpt lat="49.40432" lon="0.16479">
        <ele>17.4</ele>
        <time>2020-06-17T14:55:00Z</time>
      </trkpt>
      <trkpt lat="49.40436" lon="0.16487">
        <ele>17.3</ele>
        <time>2020-06-17T14:55:01Z</time>
      </trkpt>
      <trkpt lat="49.4044" lon="0.16494">
        <ele>17.1</ele>
        <time>2020-06-17T14:55:02Z</time>
      </trkpt>
      <trkpt lat="49.40444" lon="0.16501">
        <ele>17</ele>
        <time>2020-06-17T14:55:03Z</time>
      </trkpt>
      <trkpt lat="49.40449" lon="0.16508">
        <ele>16.8</ele>
        <time>2020-06-17T14:55:04Z</time>
      </trkpt>
      <trkpt lat="49.40455" lon="0.16516">
        <ele>16.6</ele>
        <time>2020-06-17T14:55:05Z</time>
      </trkpt>
      <trkpt lat="49.40461" lon="0.16523">
        <ele>16.4</ele>
        <time>2020-06-17T14:55:06Z</time>
      </trkpt>
      <trkpt lat="49.40465" lon="0.1653">
        <ele>16.2</ele>
        <time>2020-06-17T14:55:07Z</time>
      </trkpt>
      <trkpt lat="49.40471" lon="0.1654">
        <ele>16</ele>
        <time>2020-06-17T14:55:08Z</time>
      </trkpt>
      <trkpt lat="49.40475" lon="0.16548">
        <ele>15.9</ele>
        <time>2020-06-17T14:55:09Z</time>
      </trkpt>
      <trkpt lat="49.40479" lon="0.16557">
        <ele>15.7</ele>
        <time>2020-06-17T14:55:10Z</time>
      </trkpt>
      <trkpt lat="49.40483" lon="0.16566">
        <ele>15.5</ele>
        <time>2020-06-17T14:55:11Z</time>
      </trkpt>
      <trkpt lat="49.40486" lon="0.16576">
        <ele>15.3</ele>
        <time>2020-06-17T14:55:12Z</time>
      </trkpt>
      <trkpt lat="49.4049" lon="0.16584">
        <ele>15.1</ele>
        <time>2020-06-17T14:55:13Z</time>
      </trkpt>
      <trkpt lat="49.40493" lon="0.16592">
        <ele>15</ele>
        <time>2020-06-17T14:55:14Z</time>
      </trkpt>
      <trkpt lat="49.40497" lon="0.16601">
        <ele>14.8</ele>
        <time>2020-06-17T14:55:15Z</time>
      </trkpt>
      <trkpt lat="49.40499" lon="0.16611">
        <ele>14.7</ele>
        <time>2020-06-17T14:55:16Z</time>
      </trkpt>
      <trkpt lat="49.40502" lon="0.16623">
        <ele>14.4</ele>
        <time>2020-06-17T14:55:17Z</time>
      </trkpt>
      <trkpt lat="49.40504" lon="0.16632">
        <ele>14.2</ele>
        <time>2020-06-17T14:55:18Z</time>
      </trkpt>
      <trkpt lat="49.40508" lon="0.16642">
        <ele>14</ele>
        <time>2020-06-17T14:55:19Z</time>
      </trkpt>
      <trkpt lat="49.40512" lon="0.16655">
        <ele>13.7</ele>
        <time>2020-06-17T14:55:20Z</time>
      </trkpt>
      <trkpt lat="49.40516" lon="0.16667">
        <ele>13.4</ele>
        <time>2020-06-17T14:55:21Z</time>
      </trkpt>
      <trkpt lat="49.40519" lon="0.16681">
        <ele>13.1</ele>
        <time>2020-06-17T14:55:22Z</time>
      </trkpt>
      <trkpt lat="49.40522" lon="0.16693">
        <ele>12.8</ele>
        <time>2020-06-17T14:55:23Z</time>
      </trkpt>
      <trkpt lat="49.40525" lon="0.16703">
        <ele>12.6</ele>
        <time>2020-06-17T14:55:24Z</time>
      </trkpt>
      <trkpt lat="49.40527" lon="0.16713">
        <ele>12.4</ele>
        <time>2020-06-17T14:55:25Z</time>
      </trkpt>
      <trkpt lat="49.4053" lon="0.16724">
        <ele>12.2</ele>
        <time>2020-06-17T14:55:26Z</time>
      </trkpt>
      <trkpt lat="49.40533" lon="0.16734">
        <ele>12.1</ele>
        <time>2020-06-17T14:55:27Z</time>
      </trkpt>
      <trkpt lat="49.40536" lon="0.16745">
        <ele>11.9</ele>
        <time>2020-06-17T14:55:28Z</time>
      </trkpt>
      <trkpt lat="49.40539" lon="0.16755">
        <ele>11.7</ele>
        <time>2020-06-17T14:55:29Z</time>
      </trkpt>
      <trkpt lat="49.40541" lon="0.16768">
        <ele>11.5</ele>
        <time>2020-06-17T14:55:30Z</time>
      </trkpt>
      <trkpt lat="49.40544" lon="0.16785">
        <ele>11.3</ele>
        <time>2020-06-17T14:55:31Z</time>
      </trkpt>
      <trkpt lat="49.40546" lon="0.16802">
        <ele>11.1</ele>
        <time>2020-06-17T14:55:32Z</time>
      </trkpt>
      <trkpt lat="49.40548" lon="0.16816">
        <ele>10.9</ele>
        <time>2020-06-17T14:55:33Z</time>
      </trkpt>
      <trkpt lat="49.4055" lon="0.16832">
        <ele>10.7</ele>
        <time>2020-06-17T14:55:34Z</time>
      </trkpt>
      <trkpt lat="49.40551" lon="0.16845">
        <ele>10.5</ele>
        <time>2020-06-17T14:55:35Z</time>
      </trkpt>
      <trkpt lat="49.40554" lon="0.16858">
        <ele>10.3</ele>
        <time>2020-06-17T14:55:36Z</time>
      </trkpt>
      <trkpt lat="49.40557" lon="0.16869">
        <ele>10.2</ele>
        <time>2020-06-17T14:55:37Z</time>
      </trkpt>
      <trkpt lat="49.40561" lon="0.16882">
        <ele>10</ele>
        <time>2020-06-17T14:55:38Z</time>
      </trkpt>
      <trkpt lat="49.40564" lon="0.16896">
        <ele>9.7</ele>
        <time>2020-06-17T14:55:39Z</time>
      </trkpt>
      <trkpt lat="49.40567" lon="0.16909">
        <ele>9.5</ele>
        <time>2020-06-17T14:55:40Z</time>
      </trkpt>
      <trkpt lat="49.4057" lon="0.1692">
        <ele>9.3</ele>
        <time>2020-06-17T14:55:41Z</time>
      </trkpt>
      <trkpt lat="49.40574" lon="0.16931">
        <ele>9.1</ele>
        <time>2020-06-17T14:55:42Z</time>
      </trkpt>
      <trkpt lat="49.40577" lon="0.16941">
        <ele>8.9</ele>
        <time>2020-06-17T14:55:43Z</time>
      </trkpt>
      <trkpt lat="49.4058" lon="0.16952">
        <ele>8.8</ele>
        <time>2020-06-17T14:55:44Z</time>
      </trkpt>
      <trkpt lat="49.40583" lon="0.16963">
        <ele>8.6</ele>
        <time>2020-06-17T14:55:45Z</time>
      </trkpt>
      <trkpt lat="49.40586" lon="0.16974">
        <ele>8.5</ele>
        <time>2020-06-17T14:55:46Z</time>
      </trkpt>
      <trkpt lat="49.40589" lon="0.16985">
        <ele>8.3</ele>
        <time>2020-06-17T14:55:47Z</time>
      </trkpt>
      <trkpt lat="49.40592" lon="0.16994">
        <ele>8.2</ele>
        <time>2020-06-17T14:55:48Z</time>
      </trkpt>
      <trkpt lat="49.40594" lon="0.17004">
        <ele>8</ele>
        <time>2020-06-17T14:55:49Z</time>
      </trkpt>
      <trkpt lat="49.40597" lon="0.17013">
        <ele>7.9</ele>
        <time>2020-06-17T14:55:50Z</time>
      </trkpt>
      <trkpt lat="49.40599" lon="0.17022">
        <ele>7.9</ele>
        <time>2020-06-17T14:55:51Z</time>
      </trkpt>
      <trkpt lat="49.40601" lon="0.17029">
        <ele>7.9</ele>
        <time>2020-06-17T14:55:52Z</time>
      </trkpt>
      <trkpt lat="49.40602" lon="0.17036">
        <ele>7.9</ele>
        <time>2020-06-17T14:55:53Z</time>
      </trkpt>
      <trkpt lat="49.40603" lon="0.17044">
        <ele>7.9</ele>
        <time>2020-06-17T14:55:54Z</time>
      </trkpt>
      <trkpt lat="49.40603" lon="0.17051">
        <ele>7.9</ele>
        <time>2020-06-17T14:55:55Z</time>
      </trkpt>
      <trkpt lat="49.40604" lon="0.1706">
        <ele>7.8</ele>
        <time>2020-06-17T14:55:56Z</time>
      </trkpt>
      <trkpt lat="49.40605" lon="0.17068">
        <ele>7.8</ele>
        <time>2020-06-17T14:55:57Z</time>
      </trkpt>
      <trkpt lat="49.40607" lon="0.17079">
        <ele>7.7</ele>
        <time>2020-06-17T14:55:58Z</time>
      </trkpt>
      <trkpt lat="49.40608" lon="0.1709">
        <ele>7.7</ele>
        <time>2020-06-17T14:55:59Z</time>
      </trkpt>
      <trkpt lat="49.4061" lon="0.17102">
        <ele>7.6</ele>
        <time>2020-06-17T14:56:00Z</time>
      </trkpt>
      <trkpt lat="49.4061" lon="0.17112">
        <ele>7.6</ele>
        <time>2020-06-17T14:56:01Z</time>
      </trkpt>
      <trkpt lat="49.4061" lon="0.17123">
        <ele>7.5</ele>
        <time>2020-06-17T14:56:02Z</time>
      </trkpt>
      <trkpt lat="49.40609" lon="0.17132">
        <ele>7.5</ele>
        <time>2020-06-17T14:56:03Z</time>
      </trkpt>
      <trkpt lat="49.40609" lon="0.17141">
        <ele>7.4</ele>
        <time>2020-06-17T14:56:04Z</time>
      </trkpt>
      <trkpt lat="49.40609" lon="0.17152">
        <ele>7.4</ele>
        <time>2020-06-17T14:56:05Z</time>
      </trkpt>
      <trkpt lat="49.4061" lon="0.17162">
        <ele>7.5</ele>
        <time>2020-06-17T14:56:06Z</time>
      </trkpt>
      <trkpt lat="49.4061" lon="0.17173">
        <ele>7.5</ele>
        <time>2020-06-17T14:56:07Z</time>
      </trkpt>
      <trkpt lat="49.4061" lon="0.17182">
        <ele>7.6</ele>
        <time>2020-06-17T14:56:08Z</time>
      </trkpt>
      <trkpt lat="49.4061" lon="0.17193">
        <ele>7.7</ele>
        <time>2020-06-17T14:56:09Z</time>
      </trkpt>
      <trkpt lat="49.40609" lon="0.17205">
        <ele>7.8</ele>
        <time>2020-06-17T14:56:10Z</time>
      </trkpt>
      <trkpt lat="49.40609" lon="0.17215">
        <ele>7.9</ele>
        <time>2020-06-17T14:56:11Z</time>
      </trkpt>
      <trkpt lat="49.4061" lon="0.17227">
        <ele>8</ele>
        <time>2020-06-17T14:56:12Z</time>
      </trkpt>
      <trkpt lat="49.4061" lon="0.17238">
        <ele>8.2</ele>
        <time>2020-06-17T14:56:13Z</time>
      </trkpt>
      <trkpt lat="49.40611" lon="0.17247">
        <ele>8.2</ele>
        <time>2020-06-17T14:56:14Z</time>
      </trkpt>
      <trkpt lat="49.40612" lon="0.17256">
        <ele>8.3</ele>
        <time>2020-06-17T14:56:15Z</time>
      </trkpt>
      <trkpt lat="49.40614" lon="0.17264">
        <ele>8.4</ele>
        <time>2020-06-17T14:56:16Z</time>
      </trkpt>
      <trkpt lat="49.40615" lon="0.17273">
        <ele>8.4</ele>
        <time>2020-06-17T14:56:17Z</time>
      </trkpt>
      <trkpt lat="49.40616" lon="0.1728">
        <ele>8.5</ele>
        <time>2020-06-17T14:56:18Z</time>
      </trkpt>
      <trkpt lat="49.40618" lon="0.17288">
        <ele>8.5</ele>
        <time>2020-06-17T14:56:19Z</time>
      </trkpt>
      <trkpt lat="49.40619" lon="0.17297">
        <ele>8.6</ele>
        <time>2020-06-17T14:56:20Z</time>
      </trkpt>
      <trkpt lat="49.4062" lon="0.17306">
        <ele>8.6</ele>
        <time>2020-06-17T14:56:21Z</time>
      </trkpt>
      <trkpt lat="49.40622" lon="0.17314">
        <ele>8.7</ele>
        <time>2020-06-17T14:56:22Z</time>
      </trkpt>
      <trkpt lat="49.40624" lon="0.17322">
        <ele>8.7</ele>
        <time>2020-06-17T14:56:23Z</time>
      </trkpt>
      <trkpt lat="49.40627" lon="0.1733">
        <ele>8.7</ele>
        <time>2020-06-17T14:56:24Z</time>
      </trkpt>
      <trkpt lat="49.4063" lon="0.17337">
        <ele>8.8</ele>
        <time>2020-06-17T14:56:25Z</time>
      </trkpt>
      <trkpt lat="49.40633" lon="0.17344">
        <ele>8.9</ele>
        <time>2020-06-17T14:56:26Z</time>
      </trkpt>
      <trkpt lat="49.40636" lon="0.17353">
        <ele>9</ele>
        <time>2020-06-17T14:56:27Z</time>
      </trkpt>
      <trkpt lat="49.40639" lon="0.17361">
        <ele>9.2</ele>
        <time>2020-06-17T14:56:28Z</time>
      </trkpt>
      <trkpt lat="49.40642" lon="0.1737">
        <ele>9.4</ele>
        <time>2020-06-17T14:56:29Z</time>
      </trkpt>
      <trkpt lat="49.40645" lon="0.17378">
        <ele>9.6</ele>
        <time>2020-06-17T14:56:30Z</time>
      </trkpt>
      <trkpt lat="49.40647" lon="0.17387">
        <ele>9.8</ele>
        <time>2020-06-17T14:56:31Z</time>
      </trkpt>
      <trkpt lat="49.4065" lon="0.17395">
        <ele>10</ele>
        <time>2020-06-17T14:56:32Z</time>
      </trkpt>
      <trkpt lat="49.40653" lon="0.17403">
        <ele>10.2</ele>
        <time>2020-06-17T14:56:33Z</time>
      </trkpt>
      <trkpt lat="49.40656" lon="0.17409">
        <ele>10.4</ele>
        <time>2020-06-17T14:56:34Z</time>
      </trkpt>
      <trkpt lat="49.40658" lon="0.17416">
        <ele>10.6</ele>
        <time>2020-06-17T14:56:35Z</time>
      </trkpt>
      <trkpt lat="49.40661" lon="0.17422">
        <ele>10.8</ele>
        <time>2020-06-17T14:56:36Z</time>
      </trkpt>
      <trkpt lat="49.40664" lon="0.17428">
        <ele>11</ele>
        <time>2020-06-17T14:56:37Z</time>
      </trkpt>
      <trkpt lat="49.40666" lon="0.17434">
        <ele>11.2</ele>
        <time>2020-06-17T14:56:38Z</time>
      </trkpt>
      <trkpt lat="49.40669" lon="0.17441">
        <ele>11.5</ele>
        <time>2020-06-17T14:56:39Z</time>
      </trkpt>
      <trkpt lat="49.40671" lon="0.17446">
        <ele>11.7</ele>
        <time>2020-06-17T14:56:40Z</time>
      </trkpt>
      <trkpt lat="49.40674" lon="0.17452">
        <ele>12</ele>
        <time>2020-06-17T14:56:41Z</time>
      </trkpt>
      <trkpt lat="49.40677" lon="0.17458">
        <ele>12.3</ele>
        <time>2020-06-17T14:56:42Z</time>
      </trkpt>
      <trkpt lat="49.40678" lon="0.17463">
        <ele>12.5</ele>
        <time>2020-06-17T14:56:43Z</time>
      </trkpt>
      <trkpt lat="49.40681" lon="0.17469">
        <ele>12.8</ele>
        <time>2020-06-17T14:56:44Z</time>
      </trkpt>
      <trkpt lat="49.40684" lon="0.17474">
        <ele>13</ele>
        <time>2020-06-17T14:56:45Z</time>
      </trkpt>
      <trkpt lat="49.40687" lon="0.1748">
        <ele>13.3</ele>
        <time>2020-06-17T14:56:46Z</time>
      </trkpt>
      <trkpt lat="49.40689" lon="0.17485">
        <ele>13.6</ele>
        <time>2020-06-17T14:56:47Z</time>
      </trkpt>
      <trkpt lat="49.40692" lon="0.17491">
        <ele>13.9</ele>
        <time>2020-06-17T14:56:48Z</time>
      </trkpt>
      <trkpt lat="49.40694" lon="0.17495">
        <ele>14.1</ele>
        <time>2020-06-17T14:56:49Z</time>
      </trkpt>
      <trkpt lat="49.40695" lon="0.17499">
        <ele>14.3</ele>
        <time>2020-06-17T14:56:50Z</time>
      </trkpt>
      <trkpt lat="49.40698" lon="0.17504">
        <ele>14.6</ele>
        <time>2020-06-17T14:56:51Z</time>
      </trkpt>
      <trkpt lat="49.407" lon="0.17509">
        <ele>14.8</ele>
        <time>2020-06-17T14:56:52Z</time>
      </trkpt>
      <trkpt lat="49.40702" lon="0.17513">
        <ele>15.1</ele>
        <time>2020-06-17T14:56:53Z</time>
      </trkpt>
      <trkpt lat="49.40704" lon="0.17517">
        <ele>15.3</ele>
        <time>2020-06-17T14:56:54Z</time>
      </trkpt>
      <trkpt lat="49.40707" lon="0.17522">
        <ele>15.6</ele>
        <time>2020-06-17T14:56:55Z</time>
      </trkpt>
      <trkpt lat="49.40709" lon="0.17527">
        <ele>15.8</ele>
        <time>2020-06-17T14:56:56Z</time>
      </trkpt>
      <trkpt lat="49.40711" lon="0.17531">
        <ele>16.1</ele>
        <time>2020-06-17T14:56:57Z</time>
      </trkpt>
      <trkpt lat="49.40713" lon="0.17536">
        <ele>16.4</ele>
        <time>2020-06-17T14:56:58Z</time>
      </trkpt>
      <trkpt lat="49.40715" lon="0.1754">
        <ele>16.6</ele>
        <time>2020-06-17T14:56:59Z</time>
      </trkpt>
      <trkpt lat="49.40717" lon="0.17544">
        <ele>16.8</ele>
        <time>2020-06-17T14:57:00Z</time>
      </trkpt>
      <trkpt lat="49.40719" lon="0.17547">
        <ele>17</ele>
        <time>2020-06-17T14:57:01Z</time>
      </trkpt>
      <trkpt lat="49.4072" lon="0.17551">
        <ele>17.2</ele>
        <time>2020-06-17T14:57:02Z</time>
      </trkpt>
      <trkpt lat="49.40723" lon="0.17555">
        <ele>17.4</ele>
        <time>2020-06-17T14:57:03Z</time>
      </trkpt>
      <trkpt lat="49.40725" lon="0.17558">
        <ele>17.6</ele>
        <time>2020-06-17T14:57:04Z</time>
      </trkpt>
      <trkpt lat="49.40727" lon="0.17562">
        <ele>17.8</ele>
        <time>2020-06-17T14:57:05Z</time>
      </trkpt>
      <trkpt lat="49.4073" lon="0.17565">
        <ele>18</ele>
        <time>2020-06-17T14:57:06Z</time>
      </trkpt>
      <trkpt lat="49.4073" lon="0.17566">
        <ele>18</ele>
        <time>2020-06-17T14:57:07Z</time>
      </trkpt>
      <trkpt lat="49.40733" lon="0.17571">
        <ele>18.3</ele>
        <time>2020-06-17T14:57:08Z</time>
      </trkpt>
      <trkpt lat="49.40734" lon="0.17573">
        <ele>18.4</ele>
        <time>2020-06-17T14:57:09Z</time>
      </trkpt>
      <trkpt lat="49.40736" lon="0.17578">
        <ele>18.6</ele>
        <time>2020-06-17T14:57:10Z</time>
      </trkpt>
      <trkpt lat="49.40738" lon="0.17581">
        <ele>18.8</ele>
        <time>2020-06-17T14:57:11Z</time>
      </trkpt>
      <trkpt lat="49.4074" lon="0.17587">
        <ele>19.1</ele>
        <time>2020-06-17T14:57:12Z</time>
      </trkpt>
      <trkpt lat="49.40743" lon="0.17593">
        <ele>19.2</ele>
        <time>2020-06-17T14:57:13Z</time>
      </trkpt>
      <trkpt lat="49.40743" lon="0.17594">
        <ele>19.3</ele>
        <time>2020-06-17T14:57:14Z</time>
      </trkpt>
      <trkpt lat="49.40745" lon="0.17598">
        <ele>19.4</ele>
        <time>2020-06-17T14:57:15Z</time>
      </trkpt>
      <trkpt lat="49.40748" lon="0.17602">
        <ele>19.5</ele>
        <time>2020-06-17T14:57:16Z</time>
      </trkpt>
      <trkpt lat="49.4075" lon="0.17607">
        <ele>19.6</ele>
        <time>2020-06-17T14:57:17Z</time>
      </trkpt>
      <trkpt lat="49.40751" lon="0.1761">
        <ele>19.7</ele>
        <time>2020-06-17T14:57:18Z</time>
      </trkpt>
      <trkpt lat="49.40753" lon="0.17615">
        <ele>19.8</ele>
        <time>2020-06-17T14:57:19Z</time>
      </trkpt>
      <trkpt lat="49.40755" lon="0.17619">
        <ele>19.9</ele>
        <time>2020-06-17T14:57:20Z</time>
      </trkpt>
      <trkpt lat="49.40757" lon="0.17624">
        <ele>20</ele>
        <time>2020-06-17T14:57:21Z</time>
      </trkpt>
      <trkpt lat="49.40759" lon="0.17629">
        <ele>20.2</ele>
        <time>2020-06-17T14:57:22Z</time>
      </trkpt>
      <trkpt lat="49.40761" lon="0.17635">
        <ele>20.3</ele>
        <time>2020-06-17T14:57:23Z</time>
      </trkpt>
      <trkpt lat="49.40764" lon="0.17641">
        <ele>20.4</ele>
        <time>2020-06-17T14:57:24Z</time>
      </trkpt>
      <trkpt lat="49.40766" lon="0.17647">
        <ele>20.5</ele>
        <time>2020-06-17T14:57:25Z</time>
      </trkpt>
      <trkpt lat="49.40769" lon="0.17654">
        <ele>20.6</ele>
        <time>2020-06-17T14:57:26Z</time>
      </trkpt>
      <trkpt lat="49.40771" lon="0.1766">
        <ele>20.7</ele>
        <time>2020-06-17T14:57:27Z</time>
      </trkpt>
      <trkpt lat="49.40775" lon="0.17665">
        <ele>20.8</ele>
        <time>2020-06-17T14:57:28Z</time>
      </trkpt>
      <trkpt lat="49.40778" lon="0.1767">
        <ele>20.9</ele>
        <time>2020-06-17T14:57:29Z</time>
      </trkpt>
      <trkpt lat="49.40782" lon="0.17676">
        <ele>21</ele>
        <time>2020-06-17T14:57:30Z</time>
      </trkpt>
      <trkpt lat="49.40785" lon="0.1768">
        <ele>21.1</ele>
        <time>2020-06-17T14:57:31Z</time>
      </trkpt>
      <trkpt lat="49.40788" lon="0.17686">
        <ele>21.2</ele>
        <time>2020-06-17T14:57:32Z</time>
      </trkpt>
      <trkpt lat="49.40791" lon="0.17692">
        <ele>21.3</ele>
        <time>2020-06-17T14:57:33Z</time>
      </trkpt>
      <trkpt lat="49.40794" lon="0.17698">
        <ele>21.4</ele>
        <time>2020-06-17T14:57:34Z</time>
      </trkpt>
      <trkpt lat="49.40797" lon="0.17703">
        <ele>21.5</ele>
        <time>2020-06-17T14:57:35Z</time>
      </trkpt>
      <trkpt lat="49.408" lon="0.17708">
        <ele>21.6</ele>
        <time>2020-06-17T14:57:36Z</time>
      </trkpt>
      <trkpt lat="49.40802" lon="0.17713">
        <ele>21.7</ele>
        <time>2020-06-17T14:57:37Z</time>
      </trkpt>
      <trkpt lat="49.40806" lon="0.17718">
        <ele>21.8</ele>
        <time>2020-06-17T14:57:38Z</time>
      </trkpt>
      <trkpt lat="49.40809" lon="0.17723">
        <ele>21.9</ele>
        <time>2020-06-17T14:57:39Z</time>
      </trkpt>
      <trkpt lat="49.40812" lon="0.17728">
        <ele>22</ele>
        <time>2020-06-17T14:57:40Z</time>
      </trkpt>
      <trkpt lat="49.40814" lon="0.17733">
        <ele>22.1</ele>
        <time>2020-06-17T14:57:41Z</time>
      </trkpt>
      <trkpt lat="49.40817" lon="0.17738">
        <ele>22.2</ele>
        <time>2020-06-17T14:57:42Z</time>
      </trkpt>
      <trkpt lat="49.40819" lon="0.17744">
        <ele>22.3</ele>
        <time>2020-06-17T14:57:43Z</time>
      </trkpt>
      <trkpt lat="49.40821" lon="0.17749">
        <ele>22.4</ele>
        <time>2020-06-17T14:57:44Z</time>
      </trkpt>
      <trkpt lat="49.40822" lon="0.17755">
        <ele>22.5</ele>
        <time>2020-06-17T14:57:45Z</time>
      </trkpt>
      <trkpt lat="49.40824" lon="0.17761">
        <ele>22.6</ele>
        <time>2020-06-17T14:57:46Z</time>
      </trkpt>
      <trkpt lat="49.40826" lon="0.17767">
        <ele>22.7</ele>
        <time>2020-06-17T14:57:47Z</time>
      </trkpt>
      <trkpt lat="49.40828" lon="0.17772">
        <ele>22.8</ele>
        <time>2020-06-17T14:57:48Z</time>
      </trkpt>
      <trkpt lat="49.40829" lon="0.17778">
        <ele>22.8</ele>
        <time>2020-06-17T14:57:49Z</time>
      </trkpt>
      <trkpt lat="49.40831" lon="0.17783">
        <ele>22.9</ele>
        <time>2020-06-17T14:57:50Z</time>
      </trkpt>
      <trkpt lat="49.40833" lon="0.17789">
        <ele>23</ele>
        <time>2020-06-17T14:57:51Z</time>
      </trkpt>
      <trkpt lat="49.40836" lon="0.17795">
        <ele>23.1</ele>
        <time>2020-06-17T14:57:52Z</time>
      </trkpt>
      <trkpt lat="49.4084" lon="0.178">
        <ele>23.2</ele>
        <time>2020-06-17T14:57:53Z</time>
      </trkpt>
      <trkpt lat="49.40843" lon="0.17806">
        <ele>23.2</ele>
        <time>2020-06-17T14:57:54Z</time>
      </trkpt>
      <trkpt lat="49.40847" lon="0.17812">
        <ele>23.3</ele>
        <time>2020-06-17T14:57:55Z</time>
      </trkpt>
      <trkpt lat="49.4085" lon="0.17818">
        <ele>23.4</ele>
        <time>2020-06-17T14:57:56Z</time>
      </trkpt>
      <trkpt lat="49.40854" lon="0.17826">
        <ele>23.5</ele>
        <time>2020-06-17T14:57:57Z</time>
      </trkpt>
      <trkpt lat="49.40859" lon="0.17836">
        <ele>23.6</ele>
        <time>2020-06-17T14:57:58Z</time>
      </trkpt>
      <trkpt lat="49.40862" lon="0.17842">
        <ele>23.7</ele>
        <time>2020-06-17T14:57:59Z</time>
      </trkpt>
      <trkpt lat="49.40867" lon="0.17849">
        <ele>23.8</ele>
        <time>2020-06-17T14:58:00Z</time>
      </trkpt>
      <trkpt lat="49.40871" lon="0.17855">
        <ele>23.8</ele>
        <time>2020-06-17T14:58:01Z</time>
      </trkpt>
      <trkpt lat="49.40875" lon="0.17862">
        <ele>23.9</ele>
        <time>2020-06-17T14:58:02Z</time>
      </trkpt>
      <trkpt lat="49.40878" lon="0.17868">
        <ele>23.9</ele>
        <time>2020-06-17T14:58:03Z</time>
      </trkpt>
      <trkpt lat="49.40882" lon="0.17874">
        <ele>24</ele>
        <time>2020-06-17T14:58:04Z</time>
      </trkpt>
      <trkpt lat="49.40885" lon="0.1788">
        <ele>24</ele>
        <time>2020-06-17T14:58:05Z</time>
      </trkpt>
      <trkpt lat="49.40889" lon="0.17886">
        <ele>24.1</ele>
        <time>2020-06-17T14:58:06Z</time>
      </trkpt>
      <trkpt lat="49.40892" lon="0.17891">
        <ele>24.1</ele>
        <time>2020-06-17T14:58:07Z</time>
      </trkpt>
      <trkpt lat="49.40896" lon="0.17896">
        <ele>24.2</ele>
        <time>2020-06-17T14:58:08Z</time>
      </trkpt>
      <trkpt lat="49.40899" lon="0.17902">
        <ele>24.2</ele>
        <time>2020-06-17T14:58:09Z</time>
      </trkpt>
      <trkpt lat="49.40902" lon="0.17907">
        <ele>24.3</ele>
        <time>2020-06-17T14:58:10Z</time>
      </trkpt>
      <trkpt lat="49.40906" lon="0.17914">
        <ele>24.3</ele>
        <time>2020-06-17T14:58:11Z</time>
      </trkpt>
      <trkpt lat="49.40909" lon="0.1792">
        <ele>24.4</ele>
        <time>2020-06-17T14:58:12Z</time>
      </trkpt>
      <trkpt lat="49.40911" lon="0.17924">
        <ele>24.4</ele>
        <time>2020-06-17T14:58:13Z</time>
      </trkpt>
      <trkpt lat="49.40913" lon="0.17929">
        <ele>24.4</ele>
        <time>2020-06-17T14:58:14Z</time>
      </trkpt>
      <trkpt lat="49.40915" lon="0.17934">
        <ele>24.5</ele>
        <time>2020-06-17T14:58:15Z</time>
      </trkpt>
      <trkpt lat="49.40918" lon="0.1794">
        <ele>24.5</ele>
        <time>2020-06-17T14:58:16Z</time>
      </trkpt>
      <trkpt lat="49.40922" lon="0.17946">
        <ele>24.5</ele>
        <time>2020-06-17T14:58:17Z</time>
      </trkpt>
      <trkpt lat="49.40926" lon="0.17952">
        <ele>24.6</ele>
        <time>2020-06-17T14:58:18Z</time>
      </trkpt>
      <trkpt lat="49.4093" lon="0.17959">
        <ele>24.7</ele>
        <time>2020-06-17T14:58:19Z</time>
      </trkpt>
      <trkpt lat="49.40934" lon="0.17965">
        <ele>24.8</ele>
        <time>2020-06-17T14:58:20Z</time>
      </trkpt>
      <trkpt lat="49.40938" lon="0.1797">
        <ele>24.9</ele>
        <time>2020-06-17T14:58:21Z</time>
      </trkpt>
      <trkpt lat="49.40942" lon="0.17975">
        <ele>25</ele>
        <time>2020-06-17T14:58:22Z</time>
      </trkpt>
      <trkpt lat="49.40945" lon="0.17981">
        <ele>25.1</ele>
        <time>2020-06-17T14:58:23Z</time>
      </trkpt>
      <trkpt lat="49.40948" lon="0.17986">
        <ele>25.3</ele>
        <time>2020-06-17T14:58:24Z</time>
      </trkpt>
      <trkpt lat="49.40952" lon="0.17991">
        <ele>25.5</ele>
        <time>2020-06-17T14:58:25Z</time>
      </trkpt>
      <trkpt lat="49.40955" lon="0.17996">
        <ele>25.7</ele>
        <time>2020-06-17T14:58:26Z</time>
      </trkpt>
      <trkpt lat="49.40958" lon="0.18002">
        <ele>25.9</ele>
        <time>2020-06-17T14:58:27Z</time>
      </trkpt>
      <trkpt lat="49.4096" lon="0.18007">
        <ele>26</ele>
        <time>2020-06-17T14:58:28Z</time>
      </trkpt>
      <trkpt lat="49.40962" lon="0.18012">
        <ele>26.3</ele>
        <time>2020-06-17T14:58:29Z</time>
      </trkpt>
      <trkpt lat="49.40963" lon="0.18019">
        <ele>26.4</ele>
        <time>2020-06-17T14:58:30Z</time>
      </trkpt>
      <trkpt lat="49.40966" lon="0.18026">
        <ele>26.6</ele>
        <time>2020-06-17T14:58:31Z</time>
      </trkpt>
      <trkpt lat="49.40968" lon="0.18034">
        <ele>26.8</ele>
        <time>2020-06-17T14:58:32Z</time>
      </trkpt>
      <trkpt lat="49.4097" lon="0.18041">
        <ele>26.9</ele>
        <time>2020-06-17T14:58:33Z</time>
      </trkpt>
      <trkpt lat="49.40971" lon="0.18045">
        <ele>27</ele>
        <time>2020-06-17T14:58:34Z</time>
      </trkpt>
      <trkpt lat="49.40974" lon="0.1805">
        <ele>27.1</ele>
        <time>2020-06-17T14:58:35Z</time>
      </trkpt>
      <trkpt lat="49.40976" lon="0.18054">
        <ele>27.2</ele>
        <time>2020-06-17T14:58:36Z</time>
      </trkpt>
      <trkpt lat="49.40978" lon="0.18059">
        <ele>27.3</ele>
        <time>2020-06-17T14:58:37Z</time>
      </trkpt>
      <trkpt lat="49.40979" lon="0.18064">
        <ele>27.4</ele>
        <time>2020-06-17T14:58:38Z</time>
      </trkpt>
      <trkpt lat="49.40979" lon="0.18066">
        <ele>27.4</ele>
        <time>2020-06-17T14:58:39Z</time>
      </trkpt>
      <trkpt lat="49.40982" lon="0.18071">
        <ele>27.4</ele>
        <time>2020-06-17T14:58:40Z</time>
      </trkpt>
      <trkpt lat="49.40984" lon="0.18075">
        <ele>27.5</ele>
        <time>2020-06-17T14:58:41Z</time>
      </trkpt>
      <trkpt lat="49.40986" lon="0.18078">
        <ele>27.5</ele>
        <time>2020-06-17T14:58:42Z</time>
      </trkpt>
      <trkpt lat="49.40988" lon="0.18083">
        <ele>27.5</ele>
        <time>2020-06-17T14:58:43Z</time>
      </trkpt>
      <trkpt lat="49.40991" lon="0.18088">
        <ele>27.5</ele>
        <time>2020-06-17T14:58:44Z</time>
      </trkpt>
      <trkpt lat="49.40994" lon="0.18093">
        <ele>27.4</ele>
        <time>2020-06-17T14:58:45Z</time>
      </trkpt>
      <trkpt lat="49.40999" lon="0.18101">
        <ele>27.3</ele>
        <time>2020-06-17T14:58:46Z</time>
      </trkpt>
      <trkpt lat="49.41" lon="0.18104">
        <ele>27.2</ele>
        <time>2020-06-17T14:58:47Z</time>
      </trkpt>
      <trkpt lat="49.41003" lon="0.1811">
        <ele>27.1</ele>
        <time>2020-06-17T14:58:48Z</time>
      </trkpt>
      <trkpt lat="49.41007" lon="0.18116">
        <ele>27</ele>
        <time>2020-06-17T14:58:49Z</time>
      </trkpt>
      <trkpt lat="49.41012" lon="0.18123">
        <ele>26.7</ele>
        <time>2020-06-17T14:58:50Z</time>
      </trkpt>
      <trkpt lat="49.41017" lon="0.1813">
        <ele>26.4</ele>
        <time>2020-06-17T14:58:51Z</time>
      </trkpt>
      <trkpt lat="49.41021" lon="0.18137">
        <ele>26.2</ele>
        <time>2020-06-17T14:58:52Z</time>
      </trkpt>
      <trkpt lat="49.41025" lon="0.18144">
        <ele>25.9</ele>
        <time>2020-06-17T14:58:53Z</time>
      </trkpt>
      <trkpt lat="49.41029" lon="0.18151">
        <ele>25.6</ele>
        <time>2020-06-17T14:58:54Z</time>
      </trkpt>
      <trkpt lat="49.41033" lon="0.18159">
        <ele>25.4</ele>
        <time>2020-06-17T14:58:55Z</time>
      </trkpt>
      <trkpt lat="49.41037" lon="0.18167">
        <ele>25.2</ele>
        <time>2020-06-17T14:58:56Z</time>
      </trkpt>
      <trkpt lat="49.41041" lon="0.18173">
        <ele>25</ele>
        <time>2020-06-17T14:58:57Z</time>
      </trkpt>
      <trkpt lat="49.41044" lon="0.1818">
        <ele>24.9</ele>
        <time>2020-06-17T14:58:58Z</time>
      </trkpt>
      <trkpt lat="49.41047" lon="0.18188">
        <ele>24.7</ele>
        <time>2020-06-17T14:58:59Z</time>
      </trkpt>
      <trkpt lat="49.4105" lon="0.18195">
        <ele>24.6</ele>
        <time>2020-06-17T14:59:00Z</time>
      </trkpt>
      <trkpt lat="49.41054" lon="0.18204">
        <ele>24.5</ele>
        <time>2020-06-17T14:59:01Z</time>
      </trkpt>
      <trkpt lat="49.41059" lon="0.18212">
        <ele>24.4</ele>
        <time>2020-06-17T14:59:02Z</time>
      </trkpt>
      <trkpt lat="49.41063" lon="0.18221">
        <ele>24.3</ele>
        <time>2020-06-17T14:59:03Z</time>
      </trkpt>
      <trkpt lat="49.41067" lon="0.1823">
        <ele>24.2</ele>
        <time>2020-06-17T14:59:04Z</time>
      </trkpt>
      <trkpt lat="49.41072" lon="0.18242">
        <ele>24.2</ele>
        <time>2020-06-17T14:59:05Z</time>
      </trkpt>
      <trkpt lat="49.41077" lon="0.18252">
        <ele>24.2</ele>
        <time>2020-06-17T14:59:06Z</time>
      </trkpt>
      <trkpt lat="49.41084" lon="0.18262">
        <ele>24.2</ele>
        <time>2020-06-17T14:59:07Z</time>
      </trkpt>
      <trkpt lat="49.41088" lon="0.1827">
        <ele>24.2</ele>
        <time>2020-06-17T14:59:08Z</time>
      </trkpt>
      <trkpt lat="49.41092" lon="0.18279">
        <ele>24.2</ele>
        <time>2020-06-17T14:59:09Z</time>
      </trkpt>
      <trkpt lat="49.41096" lon="0.18288">
        <ele>24.1</ele>
        <time>2020-06-17T14:59:10Z</time>
      </trkpt>
      <trkpt lat="49.411" lon="0.18299">
        <ele>24.1</ele>
        <time>2020-06-17T14:59:11Z</time>
      </trkpt>
      <trkpt lat="49.41103" lon="0.18308">
        <ele>24</ele>
        <time>2020-06-17T14:59:12Z</time>
      </trkpt>
      <trkpt lat="49.41108" lon="0.18317">
        <ele>24</ele>
        <time>2020-06-17T14:59:13Z</time>
      </trkpt>
      <trkpt lat="49.41112" lon="0.18325">
        <ele>23.9</ele>
        <time>2020-06-17T14:59:14Z</time>
      </trkpt>
      <trkpt lat="49.41115" lon="0.18333">
        <ele>23.8</ele>
        <time>2020-06-17T14:59:15Z</time>
      </trkpt>
      <trkpt lat="49.41119" lon="0.18339">
        <ele>23.8</ele>
        <time>2020-06-17T14:59:16Z</time>
      </trkpt>
      <trkpt lat="49.41123" lon="0.18346">
        <ele>23.7</ele>
        <time>2020-06-17T14:59:17Z</time>
      </trkpt>
      <trkpt lat="49.41129" lon="0.18354">
        <ele>23.6</ele>
        <time>2020-06-17T14:59:18Z</time>
      </trkpt>
      <trkpt lat="49.41135" lon="0.18363">
        <ele>23.5</ele>
        <time>2020-06-17T14:59:19Z</time>
      </trkpt>
      <trkpt lat="49.41139" lon="0.18369">
        <ele>23.3</ele>
        <time>2020-06-17T14:59:20Z</time>
      </trkpt>
      <trkpt lat="49.41143" lon="0.18377">
        <ele>23.2</ele>
        <time>2020-06-17T14:59:21Z</time>
      </trkpt>
      <trkpt lat="49.41147" lon="0.18384">
        <ele>23</ele>
        <time>2020-06-17T14:59:22Z</time>
      </trkpt>
      <trkpt lat="49.41151" lon="0.18391">
        <ele>22.9</ele>
        <time>2020-06-17T14:59:23Z</time>
      </trkpt>
      <trkpt lat="49.41155" lon="0.18399">
        <ele>22.8</ele>
        <time>2020-06-17T14:59:24Z</time>
      </trkpt>
      <trkpt lat="49.4116" lon="0.18407">
        <ele>22.6</ele>
        <time>2020-06-17T14:59:25Z</time>
      </trkpt>
      <trkpt lat="49.41165" lon="0.18414">
        <ele>22.6</ele>
        <time>2020-06-17T14:59:26Z</time>
      </trkpt>
      <trkpt lat="49.41169" lon="0.18421">
        <ele>22.6</ele>
        <time>2020-06-17T14:59:27Z</time>
      </trkpt>
      <trkpt lat="49.41173" lon="0.18428">
        <ele>22.6</ele>
        <time>2020-06-17T14:59:28Z</time>
      </trkpt>
      <trkpt lat="49.41178" lon="0.18435">
        <ele>22.3</ele>
        <time>2020-06-17T14:59:29Z</time>
      </trkpt>
      <trkpt lat="49.41185" lon="0.18443">
        <ele>22.1</ele>
        <time>2020-06-17T14:59:30Z</time>
      </trkpt>
      <trkpt lat="49.41191" lon="0.1845">
        <ele>21.9</ele>
        <time>2020-06-17T14:59:31Z</time>
      </trkpt>
      <trkpt lat="49.41199" lon="0.18458">
        <ele>21.6</ele>
        <time>2020-06-17T14:59:32Z</time>
      </trkpt>
      <trkpt lat="49.41206" lon="0.18467">
        <ele>21.4</ele>
        <time>2020-06-17T14:59:33Z</time>
      </trkpt>
      <trkpt lat="49.41212" lon="0.18474">
        <ele>21.3</ele>
        <time>2020-06-17T14:59:34Z</time>
      </trkpt>
      <trkpt lat="49.41221" lon="0.18484">
        <ele>21.2</ele>
        <time>2020-06-17T14:59:35Z</time>
      </trkpt>
      <trkpt lat="49.41223" lon="0.18488">
        <ele>21.2</ele>
        <time>2020-06-17T14:59:36Z</time>
      </trkpt>
      <trkpt lat="49.41229" lon="0.18495">
        <ele>21.2</ele>
        <time>2020-06-17T14:59:37Z</time>
      </trkpt>
      <trkpt lat="49.41235" lon="0.18503">
        <ele>21.1</ele>
        <time>2020-06-17T14:59:38Z</time>
      </trkpt>
      <trkpt lat="49.4124" lon="0.1851">
        <ele>21.1</ele>
        <time>2020-06-17T14:59:39Z</time>
      </trkpt>
      <trkpt lat="49.41246" lon="0.1852">
        <ele>21.1</ele>
        <time>2020-06-17T14:59:40Z</time>
      </trkpt>
      <trkpt lat="49.41252" lon="0.18527">
        <ele>21</ele>
        <time>2020-06-17T14:59:41Z</time>
      </trkpt>
      <trkpt lat="49.41258" lon="0.18536">
        <ele>21</ele>
        <time>2020-06-17T14:59:42Z</time>
      </trkpt>
      <trkpt lat="49.41263" lon="0.18544">
        <ele>21</ele>
        <time>2020-06-17T14:59:43Z</time>
      </trkpt>
      <trkpt lat="49.41269" lon="0.18552">
        <ele>21.1</ele>
        <time>2020-06-17T14:59:44Z</time>
      </trkpt>
      <trkpt lat="49.41274" lon="0.1856">
        <ele>21.1</ele>
        <time>2020-06-17T14:59:45Z</time>
      </trkpt>
      <trkpt lat="49.4128" lon="0.18566">
        <ele>21.2</ele>
        <time>2020-06-17T14:59:46Z</time>
      </trkpt>
      <trkpt lat="49.41286" lon="0.18572">
        <ele>21.2</ele>
        <time>2020-06-17T14:59:47Z</time>
      </trkpt>
      <trkpt lat="49.41291" lon="0.18578">
        <ele>21.2</ele>
        <time>2020-06-17T14:59:48Z</time>
      </trkpt>
      <trkpt lat="49.41296" lon="0.18583">
        <ele>21.2</ele>
        <time>2020-06-17T14:59:49Z</time>
      </trkpt>
      <trkpt lat="49.41299" lon="0.18589">
        <ele>21.2</ele>
        <time>2020-06-17T14:59:50Z</time>
      </trkpt>
      <trkpt lat="49.41301" lon="0.18595">
        <ele>21.3</ele>
        <time>2020-06-17T14:59:51Z</time>
      </trkpt>
      <trkpt lat="49.41306" lon="0.18603">
        <ele>21.4</ele>
        <time>2020-06-17T14:59:52Z</time>
      </trkpt>
      <trkpt lat="49.41309" lon="0.18614">
        <ele>21.5</ele>
        <time>2020-06-17T14:59:53Z</time>
      </trkpt>
      <trkpt lat="49.41313" lon="0.18621">
        <ele>21.5</ele>
        <time>2020-06-17T14:59:54Z</time>
      </trkpt>
      <trkpt lat="49.41318" lon="0.1863">
        <ele>21.6</ele>
        <time>2020-06-17T14:59:55Z</time>
      </trkpt>
      <trkpt lat="49.41322" lon="0.18637">
        <ele>21.7</ele>
        <time>2020-06-17T14:59:56Z</time>
      </trkpt>
      <trkpt lat="49.41326" lon="0.18644">
        <ele>21.7</ele>
        <time>2020-06-17T14:59:57Z</time>
      </trkpt>
      <trkpt lat="49.41331" lon="0.18651">
        <ele>21.6</ele>
        <time>2020-06-17T14:59:58Z</time>
      </trkpt>
      <trkpt lat="49.41335" lon="0.18659">
        <ele>21.6</ele>
        <time>2020-06-17T14:59:59Z</time>
      </trkpt>
      <trkpt lat="49.41339" lon="0.18666">
        <ele>21.5</ele>
        <time>2020-06-17T15:00:00Z</time>
      </trkpt>
      <trkpt lat="49.41343" lon="0.18674">
        <ele>21.4</ele>
        <time>2020-06-17T15:00:01Z</time>
      </trkpt>
      <trkpt lat="49.41348" lon="0.18683">
        <ele>21.2</ele>
        <time>2020-06-17T15:00:02Z</time>
      </trkpt>
      <trkpt lat="49.41353" lon="0.18691">
        <ele>21</ele>
        <time>2020-06-17T15:00:03Z</time>
      </trkpt>
      <trkpt lat="49.41357" lon="0.18697">
        <ele>20.8</ele>
        <time>2020-06-17T15:00:04Z</time>
      </trkpt>
      <trkpt lat="49.41363" lon="0.18704">
        <ele>20.6</ele>
        <time>2020-06-17T15:00:05Z</time>
      </trkpt>
      <trkpt lat="49.41369" lon="0.18712">
        <ele>20.4</ele>
        <time>2020-06-17T15:00:06Z</time>
      </trkpt>
      <trkpt lat="49.41375" lon="0.1872">
        <ele>20.2</ele>
        <time>2020-06-17T15:00:07Z</time>
      </trkpt>
      <trkpt lat="49.41381" lon="0.18728">
        <ele>20</ele>
        <time>2020-06-17T15:00:08Z</time>
      </trkpt>
      <trkpt lat="49.41386" lon="0.18735">
        <ele>19.8</ele>
        <time>2020-06-17T15:00:09Z</time>
      </trkpt>
      <trkpt lat="49.41391" lon="0.18742">
        <ele>19.6</ele>
        <time>2020-06-17T15:00:10Z</time>
      </trkpt>
      <trkpt lat="49.41398" lon="0.1875">
        <ele>19.3</ele>
        <time>2020-06-17T15:00:11Z</time>
      </trkpt>
      <trkpt lat="49.41404" lon="0.18757">
        <ele>19.1</ele>
        <time>2020-06-17T15:00:12Z</time>
      </trkpt>
      <trkpt lat="49.41409" lon="0.18765">
        <ele>18.9</ele>
        <time>2020-06-17T15:00:13Z</time>
      </trkpt>
      <trkpt lat="49.41415" lon="0.18772">
        <ele>18.8</ele>
        <time>2020-06-17T15:00:14Z</time>
      </trkpt>
      <trkpt lat="49.41421" lon="0.1878">
        <ele>18.6</ele>
        <time>2020-06-17T15:00:15Z</time>
      </trkpt>
      <trkpt lat="49.41427" lon="0.18785">
        <ele>18.5</ele>
        <time>2020-06-17T15:00:16Z</time>
      </trkpt>
      <trkpt lat="49.41432" lon="0.1879">
        <ele>18.4</ele>
        <time>2020-06-17T15:00:17Z</time>
      </trkpt>
      <trkpt lat="49.41438" lon="0.18794">
        <ele>18.3</ele>
        <time>2020-06-17T15:00:18Z</time>
      </trkpt>
      <trkpt lat="49.41442" lon="0.18799">
        <ele>18.2</ele>
        <time>2020-06-17T15:00:19Z</time>
      </trkpt>
      <trkpt lat="49.41447" lon="0.18804">
        <ele>18.1</ele>
        <time>2020-06-17T15:00:20Z</time>
      </trkpt>
      <trkpt lat="49.41453" lon="0.18809">
        <ele>17.8</ele>
        <time>2020-06-17T15:00:21Z</time>
      </trkpt>
      <trkpt lat="49.41462" lon="0.18815">
        <ele>17.5</ele>
        <time>2020-06-17T15:00:22Z</time>
      </trkpt>
      <trkpt lat="49.41465" lon="0.18818">
        <ele>17.4</ele>
        <time>2020-06-17T15:00:23Z</time>
      </trkpt>
      <trkpt lat="49.41475" lon="0.18826">
        <ele>17.1</ele>
        <time>2020-06-17T15:00:24Z</time>
      </trkpt>
      <trkpt lat="49.41478" lon="0.18829">
        <ele>17</ele>
        <time>2020-06-17T15:00:25Z</time>
      </trkpt>
      <trkpt lat="49.41487" lon="0.18839">
        <ele>16.8</ele>
        <time>2020-06-17T15:00:26Z</time>
      </trkpt>
      <trkpt lat="49.4149" lon="0.18842">
        <ele>16.8</ele>
        <time>2020-06-17T15:00:27Z</time>
      </trkpt>
      <trkpt lat="49.41498" lon="0.18852">
        <ele>16.6</ele>
        <time>2020-06-17T15:00:28Z</time>
      </trkpt>
      <trkpt lat="49.41501" lon="0.18856">
        <ele>16.6</ele>
        <time>2020-06-17T15:00:29Z</time>
      </trkpt>
      <trkpt lat="49.41507" lon="0.18863">
        <ele>16.4</ele>
        <time>2020-06-17T15:00:30Z</time>
      </trkpt>
      <trkpt lat="49.41512" lon="0.18869">
        <ele>16.3</ele>
        <time>2020-06-17T15:00:31Z</time>
      </trkpt>
      <trkpt lat="49.41516" lon="0.18873">
        <ele>16.2</ele>
        <time>2020-06-17T15:00:32Z</time>
      </trkpt>
      <trkpt lat="49.4152" lon="0.18879">
        <ele>16</ele>
        <time>2020-06-17T15:00:33Z</time>
      </trkpt>
      <trkpt lat="49.41525" lon="0.18891">
        <ele>15.7</ele>
        <time>2020-06-17T15:00:34Z</time>
      </trkpt>
      <trkpt lat="49.41531" lon="0.18898">
        <ele>15.5</ele>
        <time>2020-06-17T15:00:35Z</time>
      </trkpt>
      <trkpt lat="49.41537" lon="0.18909">
        <ele>15.1</ele>
        <time>2020-06-17T15:00:36Z</time>
      </trkpt>
      <trkpt lat="49.41543" lon="0.18921">
        <ele>14.8</ele>
        <time>2020-06-17T15:00:37Z</time>
      </trkpt>
      <trkpt lat="49.41549" lon="0.18933">
        <ele>14.6</ele>
        <time>2020-06-17T15:00:38Z</time>
      </trkpt>
      <trkpt lat="49.41556" lon="0.18946">
        <ele>14.3</ele>
        <time>2020-06-17T15:00:39Z</time>
      </trkpt>
      <trkpt lat="49.41561" lon="0.18956">
        <ele>14.2</ele>
        <time>2020-06-17T15:00:40Z</time>
      </trkpt>
      <trkpt lat="49.41566" lon="0.18965">
        <ele>14.1</ele>
        <time>2020-06-17T15:00:41Z</time>
      </trkpt>
      <trkpt lat="49.41571" lon="0.18975">
        <ele>14</ele>
        <time>2020-06-17T15:00:42Z</time>
      </trkpt>
      <trkpt lat="49.41575" lon="0.18987">
        <ele>14</ele>
        <time>2020-06-17T15:00:43Z</time>
      </trkpt>
      <trkpt lat="49.41582" lon="0.18998">
        <ele>13.9</ele>
        <time>2020-06-17T15:00:44Z</time>
      </trkpt>
      <trkpt lat="49.41588" lon="0.19007">
        <ele>13.7</ele>
        <time>2020-06-17T15:00:45Z</time>
      </trkpt>
      <trkpt lat="49.41594" lon="0.19017">
        <ele>13.6</ele>
        <time>2020-06-17T15:00:46Z</time>
      </trkpt>
      <trkpt lat="49.41598" lon="0.19027">
        <ele>13.5</ele>
        <time>2020-06-17T15:00:47Z</time>
      </trkpt>
      <trkpt lat="49.41602" lon="0.19036">
        <ele>13.5</ele>
        <time>2020-06-17T15:00:48Z</time>
      </trkpt>
      <trkpt lat="49.41606" lon="0.19046">
        <ele>13.4</ele>
        <time>2020-06-17T15:00:49Z</time>
      </trkpt>
      <trkpt lat="49.4161" lon="0.19055">
        <ele>13.4</ele>
        <time>2020-06-17T15:00:50Z</time>
      </trkpt>
      <trkpt lat="49.41614" lon="0.19064">
        <ele>13.3</ele>
        <time>2020-06-17T15:00:51Z</time>
      </trkpt>
      <trkpt lat="49.41619" lon="0.19073">
        <ele>13.3</ele>
        <time>2020-06-17T15:00:52Z</time>
      </trkpt>
      <trkpt lat="49.41623" lon="0.1908">
        <ele>13.2</ele>
        <time>2020-06-17T15:00:53Z</time>
      </trkpt>
      <trkpt lat="49.41627" lon="0.19089">
        <ele>13.1</ele>
        <time>2020-06-17T15:00:54Z</time>
      </trkpt>
      <trkpt lat="49.41631" lon="0.19095">
        <ele>13.1</ele>
        <time>2020-06-17T15:00:55Z</time>
      </trkpt>
      <trkpt lat="49.41637" lon="0.19103">
        <ele>13</ele>
        <time>2020-06-17T15:00:56Z</time>
      </trkpt>
      <trkpt lat="49.41642" lon="0.19111">
        <ele>12.9</ele>
        <time>2020-06-17T15:00:57Z</time>
      </trkpt>
      <trkpt lat="49.41646" lon="0.19119">
        <ele>12.8</ele>
        <time>2020-06-17T15:00:58Z</time>
      </trkpt>
      <trkpt lat="49.41652" lon="0.19127">
        <ele>12.7</ele>
        <time>2020-06-17T15:00:59Z</time>
      </trkpt>
      <trkpt lat="49.41656" lon="0.19134">
        <ele>12.7</ele>
        <time>2020-06-17T15:01:00Z</time>
      </trkpt>
      <trkpt lat="49.41661" lon="0.19142">
        <ele>12.6</ele>
        <time>2020-06-17T15:01:01Z</time>
      </trkpt>
      <trkpt lat="49.41666" lon="0.19151">
        <ele>12.5</ele>
        <time>2020-06-17T15:01:02Z</time>
      </trkpt>
      <trkpt lat="49.41672" lon="0.19159">
        <ele>12.4</ele>
        <time>2020-06-17T15:01:03Z</time>
      </trkpt>
      <trkpt lat="49.41676" lon="0.19167">
        <ele>12.4</ele>
        <time>2020-06-17T15:01:04Z</time>
      </trkpt>
      <trkpt lat="49.4168" lon="0.19176">
        <ele>12.3</ele>
        <time>2020-06-17T15:01:05Z</time>
      </trkpt>
      <trkpt lat="49.41685" lon="0.19185">
        <ele>12.3</ele>
        <time>2020-06-17T15:01:06Z</time>
      </trkpt>
      <trkpt lat="49.41689" lon="0.19194">
        <ele>12.2</ele>
        <time>2020-06-17T15:01:07Z</time>
      </trkpt>
      <trkpt lat="49.41693" lon="0.19202">
        <ele>12.1</ele>
        <time>2020-06-17T15:01:08Z</time>
      </trkpt>
      <trkpt lat="49.41697" lon="0.19212">
        <ele>12.1</ele>
        <time>2020-06-17T15:01:09Z</time>
      </trkpt>
      <trkpt lat="49.41701" lon="0.19221">
        <ele>12</ele>
        <time>2020-06-17T15:01:10Z</time>
      </trkpt>
      <trkpt lat="49.41705" lon="0.1923">
        <ele>11.9</ele>
        <time>2020-06-17T15:01:11Z</time>
      </trkpt>
      <trkpt lat="49.41708" lon="0.19239">
        <ele>11.9</ele>
        <time>2020-06-17T15:01:12Z</time>
      </trkpt>
      <trkpt lat="49.41712" lon="0.19248">
        <ele>11.8</ele>
        <time>2020-06-17T15:01:13Z</time>
      </trkpt>
      <trkpt lat="49.41716" lon="0.19256">
        <ele>11.8</ele>
        <time>2020-06-17T15:01:14Z</time>
      </trkpt>
      <trkpt lat="49.4172" lon="0.19265">
        <ele>11.8</ele>
        <time>2020-06-17T15:01:15Z</time>
      </trkpt>
      <trkpt lat="49.41724" lon="0.19274">
        <ele>11.8</ele>
        <time>2020-06-17T15:01:16Z</time>
      </trkpt>
      <trkpt lat="49.41728" lon="0.19283">
        <ele>11.8</ele>
        <time>2020-06-17T15:01:17Z</time>
      </trkpt>
      <trkpt lat="49.41732" lon="0.19292">
        <ele>11.8</ele>
        <time>2020-06-17T15:01:18Z</time>
      </trkpt>
      <trkpt lat="49.41736" lon="0.19301">
        <ele>11.8</ele>
        <time>2020-06-17T15:01:19Z</time>
      </trkpt>
      <trkpt lat="49.41738" lon="0.19309">
        <ele>11.8</ele>
        <time>2020-06-17T15:01:20Z</time>
      </trkpt>
      <trkpt lat="49.41742" lon="0.19318">
        <ele>11.8</ele>
        <time>2020-06-17T15:01:21Z</time>
      </trkpt>
      <trkpt lat="49.41745" lon="0.19327">
        <ele>11.8</ele>
        <time>2020-06-17T15:01:22Z</time>
      </trkpt>
      <trkpt lat="49.41749" lon="0.19335">
        <ele>11.8</ele>
        <time>2020-06-17T15:01:23Z</time>
      </trkpt>
      <trkpt lat="49.41752" lon="0.19342">
        <ele>11.9</ele>
        <time>2020-06-17T15:01:24Z</time>
      </trkpt>
      <trkpt lat="49.41756" lon="0.1935">
        <ele>11.9</ele>
        <time>2020-06-17T15:01:25Z</time>
      </trkpt>
      <trkpt lat="49.4176" lon="0.19358">
        <ele>11.9</ele>
        <time>2020-06-17T15:01:26Z</time>
      </trkpt>
      <trkpt lat="49.41764" lon="0.19366">
        <ele>12</ele>
        <time>2020-06-17T15:01:27Z</time>
      </trkpt>
      <trkpt lat="49.41767" lon="0.19375">
        <ele>12</ele>
        <time>2020-06-17T15:01:28Z</time>
      </trkpt>
      <trkpt lat="49.4177" lon="0.19384">
        <ele>12</ele>
        <time>2020-06-17T15:01:29Z</time>
      </trkpt>
      <trkpt lat="49.41773" lon="0.19392">
        <ele>12.1</ele>
        <time>2020-06-17T15:01:30Z</time>
      </trkpt>
      <trkpt lat="49.41776" lon="0.19401">
        <ele>12.1</ele>
        <time>2020-06-17T15:01:31Z</time>
      </trkpt>
      <trkpt lat="49.41779" lon="0.1941">
        <ele>12.1</ele>
        <time>2020-06-17T15:01:32Z</time>
      </trkpt>
      <trkpt lat="49.41782" lon="0.19418">
        <ele>12.2</ele>
        <time>2020-06-17T15:01:33Z</time>
      </trkpt>
      <trkpt lat="49.41784" lon="0.19426">
        <ele>12.2</ele>
        <time>2020-06-17T15:01:34Z</time>
      </trkpt>
      <trkpt lat="49.41787" lon="0.19434">
        <ele>12.2</ele>
        <time>2020-06-17T15:01:35Z</time>
      </trkpt>
      <trkpt lat="49.41789" lon="0.19442">
        <ele>12.3</ele>
        <time>2020-06-17T15:01:36Z</time>
      </trkpt>
      <trkpt lat="49.41792" lon="0.19451">
        <ele>12.3</ele>
        <time>2020-06-17T15:01:37Z</time>
      </trkpt>
      <trkpt lat="49.41794" lon="0.19459">
        <ele>12.3</ele>
        <time>2020-06-17T15:01:38Z</time>
      </trkpt>
      <trkpt lat="49.41797" lon="0.19468">
        <ele>12.4</ele>
        <time>2020-06-17T15:01:39Z</time>
      </trkpt>
      <trkpt lat="49.41799" lon="0.19477">
        <ele>12.4</ele>
        <time>2020-06-17T15:01:40Z</time>
      </trkpt>
      <trkpt lat="49.41802" lon="0.19485">
        <ele>12.5</ele>
        <time>2020-06-17T15:01:41Z</time>
      </trkpt>
      <trkpt lat="49.41805" lon="0.19494">
        <ele>12.5</ele>
        <time>2020-06-17T15:01:42Z</time>
      </trkpt>
      <trkpt lat="49.41808" lon="0.19501">
        <ele>12.6</ele>
        <time>2020-06-17T15:01:43Z</time>
      </trkpt>
      <trkpt lat="49.41811" lon="0.19509">
        <ele>12.6</ele>
        <time>2020-06-17T15:01:44Z</time>
      </trkpt>
      <trkpt lat="49.41814" lon="0.19517">
        <ele>12.7</ele>
        <time>2020-06-17T15:01:45Z</time>
      </trkpt>
      <trkpt lat="49.41818" lon="0.19524">
        <ele>12.8</ele>
        <time>2020-06-17T15:01:46Z</time>
      </trkpt>
      <trkpt lat="49.41821" lon="0.19531">
        <ele>12.9</ele>
        <time>2020-06-17T15:01:47Z</time>
      </trkpt>
      <trkpt lat="49.41825" lon="0.19538">
        <ele>12.9</ele>
        <time>2020-06-17T15:01:48Z</time>
      </trkpt>
      <trkpt lat="49.41829" lon="0.19544">
        <ele>13</ele>
        <time>2020-06-17T15:01:49Z</time>
      </trkpt>
      <trkpt lat="49.41833" lon="0.19552">
        <ele>13.1</ele>
        <time>2020-06-17T15:01:50Z</time>
      </trkpt>
      <trkpt lat="49.41836" lon="0.19561">
        <ele>13.2</ele>
        <time>2020-06-17T15:01:51Z</time>
      </trkpt>
      <trkpt lat="49.41839" lon="0.19569">
        <ele>13.3</ele>
        <time>2020-06-17T15:01:52Z</time>
      </trkpt>
      <trkpt lat="49.41843" lon="0.19576">
        <ele>13.4</ele>
        <time>2020-06-17T15:01:53Z</time>
      </trkpt>
      <trkpt lat="49.41846" lon="0.19583">
        <ele>13.5</ele>
        <time>2020-06-17T15:01:54Z</time>
      </trkpt>
      <trkpt lat="49.4185" lon="0.1959">
        <ele>13.6</ele>
        <time>2020-06-17T15:01:55Z</time>
      </trkpt>
      <trkpt lat="49.41854" lon="0.19599">
        <ele>13.7</ele>
        <time>2020-06-17T15:01:56Z</time>
      </trkpt>
      <trkpt lat="49.41858" lon="0.19606">
        <ele>13.7</ele>
        <time>2020-06-17T15:01:57Z</time>
      </trkpt>
      <trkpt lat="49.41861" lon="0.19613">
        <ele>13.8</ele>
        <time>2020-06-17T15:01:58Z</time>
      </trkpt>
      <trkpt lat="49.41865" lon="0.19619">
        <ele>13.9</ele>
        <time>2020-06-17T15:01:59Z</time>
      </trkpt>
      <trkpt lat="49.41868" lon="0.19625">
        <ele>14</ele>
        <time>2020-06-17T15:02:00Z</time>
      </trkpt>
      <trkpt lat="49.41872" lon="0.19632">
        <ele>14.1</ele>
        <time>2020-06-17T15:02:01Z</time>
      </trkpt>
      <trkpt lat="49.41876" lon="0.19638">
        <ele>14.2</ele>
        <time>2020-06-17T15:02:02Z</time>
      </trkpt>
      <trkpt lat="49.41879" lon="0.19644">
        <ele>14.4</ele>
        <time>2020-06-17T15:02:03Z</time>
      </trkpt>
      <trkpt lat="49.41883" lon="0.19651">
        <ele>14.6</ele>
        <time>2020-06-17T15:02:04Z</time>
      </trkpt>
      <trkpt lat="49.41886" lon="0.19658">
        <ele>14.9</ele>
        <time>2020-06-17T15:02:05Z</time>
      </trkpt>
      <trkpt lat="49.41888" lon="0.19663">
        <ele>15</ele>
        <time>2020-06-17T15:02:06Z</time>
      </trkpt>
      <trkpt lat="49.4189" lon="0.19671">
        <ele>15.3</ele>
        <time>2020-06-17T15:02:07Z</time>
      </trkpt>
      <trkpt lat="49.41891" lon="0.19677">
        <ele>15.5</ele>
        <time>2020-06-17T15:02:08Z</time>
      </trkpt>
      <trkpt lat="49.41892" lon="0.19684">
        <ele>15.7</ele>
        <time>2020-06-17T15:02:09Z</time>
      </trkpt>
      <trkpt lat="49.41893" lon="0.19692">
        <ele>16.1</ele>
        <time>2020-06-17T15:02:10Z</time>
      </trkpt>
      <trkpt lat="49.41894" lon="0.19698">
        <ele>16.3</ele>
        <time>2020-06-17T15:02:11Z</time>
      </trkpt>
      <trkpt lat="49.41894" lon="0.19706">
        <ele>16.6</ele>
        <time>2020-06-17T15:02:12Z</time>
      </trkpt>
      <trkpt lat="49.41894" lon="0.19713">
        <ele>16.9</ele>
        <time>2020-06-17T15:02:13Z</time>
      </trkpt>
      <trkpt lat="49.41895" lon="0.1972">
        <ele>17.2</ele>
        <time>2020-06-17T15:02:14Z</time>
      </trkpt>
      <trkpt lat="49.41896" lon="0.19725">
        <ele>17.4</ele>
        <time>2020-06-17T15:02:15Z</time>
      </trkpt>
      <trkpt lat="49.41897" lon="0.19732">
        <ele>17.6</ele>
        <time>2020-06-17T15:02:16Z</time>
      </trkpt>
      <trkpt lat="49.41898" lon="0.19735">
        <ele>17.7</ele>
        <time>2020-06-17T15:02:17Z</time>
      </trkpt>
      <trkpt lat="49.41899" lon="0.1974">
        <ele>18</ele>
        <time>2020-06-17T15:02:18Z</time>
      </trkpt>
      <trkpt lat="49.419" lon="0.19745">
        <ele>18.2</ele>
        <time>2020-06-17T15:02:19Z</time>
      </trkpt>
      <trkpt lat="49.41901" lon="0.19752">
        <ele>18.4</ele>
        <time>2020-06-17T15:02:20Z</time>
      </trkpt>
      <trkpt lat="49.41902" lon="0.19758">
        <ele>18.6</ele>
        <time>2020-06-17T15:02:21Z</time>
      </trkpt>
      <trkpt lat="49.41903" lon="0.19766">
        <ele>18.9</ele>
        <time>2020-06-17T15:02:22Z</time>
      </trkpt>
      <trkpt lat="49.41903" lon="0.19772">
        <ele>19.1</ele>
        <time>2020-06-17T15:02:23Z</time>
      </trkpt>
      <trkpt lat="49.41904" lon="0.1978">
        <ele>19.3</ele>
        <time>2020-06-17T15:02:24Z</time>
      </trkpt>
      <trkpt lat="49.41905" lon="0.19787">
        <ele>19.5</ele>
        <time>2020-06-17T15:02:25Z</time>
      </trkpt>
      <trkpt lat="49.41906" lon="0.19794">
        <ele>19.8</ele>
        <time>2020-06-17T15:02:26Z</time>
      </trkpt>
      <trkpt lat="49.41906" lon="0.198">
        <ele>19.9</ele>
        <time>2020-06-17T15:02:27Z</time>
      </trkpt>
      <trkpt lat="49.41906" lon="0.19807">
        <ele>20.2</ele>
        <time>2020-06-17T15:02:28Z</time>
      </trkpt>
      <trkpt lat="49.41905" lon="0.19815">
        <ele>20.4</ele>
        <time>2020-06-17T15:02:29Z</time>
      </trkpt>
      <trkpt lat="49.41903" lon="0.19822">
        <ele>20.6</ele>
        <time>2020-06-17T15:02:30Z</time>
      </trkpt>
      <trkpt lat="49.419" lon="0.19829">
        <ele>20.8</ele>
        <time>2020-06-17T15:02:31Z</time>
      </trkpt>
      <trkpt lat="49.41897" lon="0.19835">
        <ele>21</ele>
        <time>2020-06-17T15:02:32Z</time>
      </trkpt>
      <trkpt lat="49.41894" lon="0.19842">
        <ele>21.3</ele>
        <time>2020-06-17T15:02:33Z</time>
      </trkpt>
      <trkpt lat="49.41891" lon="0.19848">
        <ele>21.5</ele>
        <time>2020-06-17T15:02:34Z</time>
      </trkpt>
      <trkpt lat="49.41888" lon="0.19852">
        <ele>21.7</ele>
        <time>2020-06-17T15:02:35Z</time>
      </trkpt>
      <trkpt lat="49.41887" lon="0.19857">
        <ele>21.9</ele>
        <time>2020-06-17T15:02:36Z</time>
      </trkpt>
      <trkpt lat="49.41884" lon="0.19862">
        <ele>22.1</ele>
        <time>2020-06-17T15:02:37Z</time>
      </trkpt>
      <trkpt lat="49.41882" lon="0.19869">
        <ele>22.4</ele>
        <time>2020-06-17T15:02:38Z</time>
      </trkpt>
      <trkpt lat="49.41879" lon="0.19875">
        <ele>22.7</ele>
        <time>2020-06-17T15:02:39Z</time>
      </trkpt>
      <trkpt lat="49.41876" lon="0.19881">
        <ele>23</ele>
        <time>2020-06-17T15:02:40Z</time>
      </trkpt>
      <trkpt lat="49.41873" lon="0.19886">
        <ele>23.4</ele>
        <time>2020-06-17T15:02:41Z</time>
      </trkpt>
      <trkpt lat="49.41869" lon="0.1989">
        <ele>23.7</ele>
        <time>2020-06-17T15:02:42Z</time>
      </trkpt>
      <trkpt lat="49.41868" lon="0.19892">
        <ele>23.8</ele>
        <time>2020-06-17T15:02:43Z</time>
      </trkpt>
      <trkpt lat="49.41866" lon="0.19896">
        <ele>24.1</ele>
        <time>2020-06-17T15:02:44Z</time>
      </trkpt>
      <trkpt lat="49.41864" lon="0.19899">
        <ele>24.4</ele>
        <time>2020-06-17T15:02:45Z</time>
      </trkpt>
      <trkpt lat="49.41861" lon="0.19904">
        <ele>24.8</ele>
        <time>2020-06-17T15:02:46Z</time>
      </trkpt>
      <trkpt lat="49.4186" lon="0.19906">
        <ele>24.9</ele>
        <time>2020-06-17T15:02:47Z</time>
      </trkpt>
      <trkpt lat="49.41857" lon="0.19909">
        <ele>25.2</ele>
        <time>2020-06-17T15:02:48Z</time>
      </trkpt>
      <trkpt lat="49.41855" lon="0.19914">
        <ele>25.6</ele>
        <time>2020-06-17T15:02:49Z</time>
      </trkpt>
      <trkpt lat="49.41853" lon="0.19916">
        <ele>25.8</ele>
        <time>2020-06-17T15:02:50Z</time>
      </trkpt>
      <trkpt lat="49.41851" lon="0.19918">
        <ele>26.1</ele>
        <time>2020-06-17T15:02:51Z</time>
      </trkpt>
      <trkpt lat="49.41849" lon="0.19922">
        <ele>26.4</ele>
        <time>2020-06-17T15:02:52Z</time>
      </trkpt>
      <trkpt lat="49.41848" lon="0.19923">
        <ele>26.5</ele>
        <time>2020-06-17T15:02:53Z</time>
      </trkpt>
      <trkpt lat="49.41845" lon="0.19928">
        <ele>26.9</ele>
        <time>2020-06-17T15:02:54Z</time>
      </trkpt>
      <trkpt lat="49.41844" lon="0.19929">
        <ele>27.1</ele>
        <time>2020-06-17T15:02:55Z</time>
      </trkpt>
      <trkpt lat="49.41841" lon="0.19932">
        <ele>27.4</ele>
        <time>2020-06-17T15:02:56Z</time>
      </trkpt>
      <trkpt lat="49.41839" lon="0.19936">
        <ele>27.8</ele>
        <time>2020-06-17T15:02:57Z</time>
      </trkpt>
      <trkpt lat="49.41837" lon="0.1994">
        <ele>28</ele>
        <time>2020-06-17T15:02:58Z</time>
      </trkpt>
      <trkpt lat="49.41834" lon="0.19944">
        <ele>28.4</ele>
        <time>2020-06-17T15:02:59Z</time>
      </trkpt>
      <trkpt lat="49.41831" lon="0.19948">
        <ele>28.7</ele>
        <time>2020-06-17T15:03:00Z</time>
      </trkpt>
      <trkpt lat="49.41829" lon="0.19952">
        <ele>29</ele>
        <time>2020-06-17T15:03:01Z</time>
      </trkpt>
      <trkpt lat="49.41827" lon="0.19955">
        <ele>29.3</ele>
        <time>2020-06-17T15:03:02Z</time>
      </trkpt>
      <trkpt lat="49.41824" lon="0.19959">
        <ele>29.6</ele>
        <time>2020-06-17T15:03:03Z</time>
      </trkpt>
      <trkpt lat="49.41823" lon="0.1996">
        <ele>29.7</ele>
        <time>2020-06-17T15:03:04Z</time>
      </trkpt>
      <trkpt lat="49.4182" lon="0.19963">
        <ele>30.1</ele>
        <time>2020-06-17T15:03:05Z</time>
      </trkpt>
      <trkpt lat="49.41819" lon="0.19964">
        <ele>30.2</ele>
        <time>2020-06-17T15:03:06Z</time>
      </trkpt>
      <trkpt lat="49.41816" lon="0.19968">
        <ele>30.6</ele>
        <time>2020-06-17T15:03:07Z</time>
      </trkpt>
      <trkpt lat="49.41813" lon="0.19971">
        <ele>30.8</ele>
        <time>2020-06-17T15:03:08Z</time>
      </trkpt>
      <trkpt lat="49.41812" lon="0.19976">
        <ele>31</ele>
        <time>2020-06-17T15:03:09Z</time>
      </trkpt>
      <trkpt lat="49.41809" lon="0.1998">
        <ele>31.2</ele>
        <time>2020-06-17T15:03:10Z</time>
      </trkpt>
      <trkpt lat="49.41807" lon="0.19982">
        <ele>31.3</ele>
        <time>2020-06-17T15:03:11Z</time>
      </trkpt>
      <trkpt lat="49.41805" lon="0.19985">
        <ele>31.4</ele>
        <time>2020-06-17T15:03:12Z</time>
      </trkpt>
      <trkpt lat="49.41803" lon="0.19988">
        <ele>31.5</ele>
        <time>2020-06-17T15:03:13Z</time>
      </trkpt>
      <trkpt lat="49.41801" lon="0.19994">
        <ele>31.7</ele>
        <time>2020-06-17T15:03:14Z</time>
      </trkpt>
      <trkpt lat="49.418" lon="0.19996">
        <ele>31.8</ele>
        <time>2020-06-17T15:03:15Z</time>
      </trkpt>
      <trkpt lat="49.41798" lon="0.2">
        <ele>31.9</ele>
        <time>2020-06-17T15:03:16Z</time>
      </trkpt>
      <trkpt lat="49.41797" lon="0.20004">
        <ele>32</ele>
        <time>2020-06-17T15:03:17Z</time>
      </trkpt>
      <trkpt lat="49.41797" lon="0.20006">
        <ele>32.1</ele>
        <time>2020-06-17T15:03:18Z</time>
      </trkpt>
      <trkpt lat="49.41797" lon="0.20013">
        <ele>32.3</ele>
        <time>2020-06-17T15:03:19Z</time>
      </trkpt>
      <trkpt lat="49.41796" lon="0.20017">
        <ele>32.5</ele>
        <time>2020-06-17T15:03:20Z</time>
      </trkpt>
      <trkpt lat="49.41794" lon="0.20021">
        <ele>32.6</ele>
        <time>2020-06-17T15:03:21Z</time>
      </trkpt>
      <trkpt lat="49.41793" lon="0.20027">
        <ele>32.8</ele>
        <time>2020-06-17T15:03:22Z</time>
      </trkpt>
      <trkpt lat="49.41793" lon="0.20029">
        <ele>32.8</ele>
        <time>2020-06-17T15:03:23Z</time>
      </trkpt>
      <trkpt lat="49.41793" lon="0.20033">
        <ele>33</ele>
        <time>2020-06-17T15:03:24Z</time>
      </trkpt>
      <trkpt lat="49.41792" lon="0.2004">
        <ele>33.1</ele>
        <time>2020-06-17T15:03:25Z</time>
      </trkpt>
      <trkpt lat="49.41792" lon="0.20045">
        <ele>33.3</ele>
        <time>2020-06-17T15:03:26Z</time>
      </trkpt>
      <trkpt lat="49.41793" lon="0.20051">
        <ele>33.4</ele>
        <time>2020-06-17T15:03:27Z</time>
      </trkpt>
      <trkpt lat="49.41794" lon="0.20057">
        <ele>33.5</ele>
        <time>2020-06-17T15:03:28Z</time>
      </trkpt>
      <trkpt lat="49.41794" lon="0.20061">
        <ele>33.5</ele>
        <time>2020-06-17T15:03:29Z</time>
      </trkpt>
      <trkpt lat="49.41795" lon="0.20066">
        <ele>33.5</ele>
        <time>2020-06-17T15:03:30Z</time>
      </trkpt>
      <trkpt lat="49.41795" lon="0.2007">
        <ele>33.5</ele>
        <time>2020-06-17T15:03:31Z</time>
      </trkpt>
      <trkpt lat="49.41795" lon="0.20074">
        <ele>33.6</ele>
        <time>2020-06-17T15:03:32Z</time>
      </trkpt>
      <trkpt lat="49.41794" lon="0.20082">
        <ele>33.6</ele>
        <time>2020-06-17T15:03:33Z</time>
      </trkpt>
      <trkpt lat="49.41794" lon="0.20087">
        <ele>33.6</ele>
        <time>2020-06-17T15:03:34Z</time>
      </trkpt>
      <trkpt lat="49.41795" lon="0.20091">
        <ele>33.3</ele>
        <time>2020-06-17T15:03:35Z</time>
      </trkpt>
      <trkpt lat="49.41797" lon="0.20096">
        <ele>33.1</ele>
        <time>2020-06-17T15:03:36Z</time>
      </trkpt>
      <trkpt lat="49.41799" lon="0.20104">
        <ele>32.8</ele>
        <time>2020-06-17T15:03:37Z</time>
      </trkpt>
      <trkpt lat="49.41802" lon="0.20112">
        <ele>32.4</ele>
        <time>2020-06-17T15:03:38Z</time>
      </trkpt>
      <trkpt lat="49.41805" lon="0.20117">
        <ele>32.1</ele>
        <time>2020-06-17T15:03:39Z</time>
      </trkpt>
      <trkpt lat="49.41808" lon="0.20125">
        <ele>31.6</ele>
        <time>2020-06-17T15:03:40Z</time>
      </trkpt>
      <trkpt lat="49.41812" lon="0.20134">
        <ele>31</ele>
        <time>2020-06-17T15:03:41Z</time>
      </trkpt>
      <trkpt lat="49.41815" lon="0.20142">
        <ele>30.5</ele>
        <time>2020-06-17T15:03:42Z</time>
      </trkpt>
      <trkpt lat="49.4182" lon="0.20154">
        <ele>29.7</ele>
        <time>2020-06-17T15:03:43Z</time>
      </trkpt>
      <trkpt lat="49.41823" lon="0.20165">
        <ele>29</ele>
        <time>2020-06-17T15:03:44Z</time>
      </trkpt>
      <trkpt lat="49.41827" lon="0.20178">
        <ele>28.3</ele>
        <time>2020-06-17T15:03:45Z</time>
      </trkpt>
      <trkpt lat="49.41832" lon="0.2019">
        <ele>27.6</ele>
        <time>2020-06-17T15:03:46Z</time>
      </trkpt>
      <trkpt lat="49.41836" lon="0.20204">
        <ele>27</ele>
        <time>2020-06-17T15:03:47Z</time>
      </trkpt>
      <trkpt lat="49.41841" lon="0.20217">
        <ele>26.6</ele>
        <time>2020-06-17T15:03:48Z</time>
      </trkpt>
      <trkpt lat="49.41845" lon="0.2023">
        <ele>26.2</ele>
        <time>2020-06-17T15:03:49Z</time>
      </trkpt>
      <trkpt lat="49.4185" lon="0.20244">
        <ele>25.9</ele>
        <time>2020-06-17T15:03:50Z</time>
      </trkpt>
      <trkpt lat="49.41853" lon="0.20255">
        <ele>25.8</ele>
        <time>2020-06-17T15:03:51Z</time>
      </trkpt>
      <trkpt lat="49.41856" lon="0.20267">
        <ele>25.7</ele>
        <time>2020-06-17T15:03:52Z</time>
      </trkpt>
      <trkpt lat="49.41858" lon="0.20279">
        <ele>25.7</ele>
        <time>2020-06-17T15:03:53Z</time>
      </trkpt>
      <trkpt lat="49.41861" lon="0.20291">
        <ele>25.8</ele>
        <time>2020-06-17T15:03:54Z</time>
      </trkpt>
      <trkpt lat="49.41864" lon="0.20303">
        <ele>25.9</ele>
        <time>2020-06-17T15:03:55Z</time>
      </trkpt>
      <trkpt lat="49.41867" lon="0.20313">
        <ele>26.1</ele>
        <time>2020-06-17T15:03:56Z</time>
      </trkpt>
      <trkpt lat="49.41871" lon="0.20324">
        <ele>26.3</ele>
        <time>2020-06-17T15:03:57Z</time>
      </trkpt>
      <trkpt lat="49.41875" lon="0.20334">
        <ele>26.5</ele>
        <time>2020-06-17T15:03:58Z</time>
      </trkpt>
      <trkpt lat="49.41879" lon="0.20343">
        <ele>26.8</ele>
        <time>2020-06-17T15:03:59Z</time>
      </trkpt>
      <trkpt lat="49.41882" lon="0.20352">
        <ele>27.1</ele>
        <time>2020-06-17T15:04:00Z</time>
      </trkpt>
      <trkpt lat="49.41886" lon="0.20359">
        <ele>27.4</ele>
        <time>2020-06-17T15:04:01Z</time>
      </trkpt>
      <trkpt lat="49.4189" lon="0.20367">
        <ele>27.6</ele>
        <time>2020-06-17T15:04:02Z</time>
      </trkpt>
      <trkpt lat="49.41893" lon="0.20373">
        <ele>27.9</ele>
        <time>2020-06-17T15:04:03Z</time>
      </trkpt>
      <trkpt lat="49.41897" lon="0.20379">
        <ele>28.1</ele>
        <time>2020-06-17T15:04:04Z</time>
      </trkpt>
      <trkpt lat="49.41901" lon="0.20384">
        <ele>28.3</ele>
        <time>2020-06-17T15:04:05Z</time>
      </trkpt>
      <trkpt lat="49.41905" lon="0.2039">
        <ele>28.6</ele>
        <time>2020-06-17T15:04:06Z</time>
      </trkpt>
      <trkpt lat="49.41909" lon="0.20395">
        <ele>28.8</ele>
        <time>2020-06-17T15:04:07Z</time>
      </trkpt>
      <trkpt lat="49.41913" lon="0.20399">
        <ele>29</ele>
        <time>2020-06-17T15:04:08Z</time>
      </trkpt>
      <trkpt lat="49.41917" lon="0.20403">
        <ele>29.2</ele>
        <time>2020-06-17T15:04:09Z</time>
      </trkpt>
      <trkpt lat="49.41921" lon="0.20407">
        <ele>29.3</ele>
        <time>2020-06-17T15:04:10Z</time>
      </trkpt>
      <trkpt lat="49.41926" lon="0.20413">
        <ele>29.5</ele>
        <time>2020-06-17T15:04:11Z</time>
      </trkpt>
      <trkpt lat="49.4193" lon="0.20419">
        <ele>29.7</ele>
        <time>2020-06-17T15:04:12Z</time>
      </trkpt>
      <trkpt lat="49.41934" lon="0.20423">
        <ele>29.8</ele>
        <time>2020-06-17T15:04:13Z</time>
      </trkpt>
      <trkpt lat="49.41938" lon="0.20426">
        <ele>29.8</ele>
        <time>2020-06-17T15:04:14Z</time>
      </trkpt>
      <trkpt lat="49.41942" lon="0.20429">
        <ele>30</ele>
        <time>2020-06-17T15:04:15Z</time>
      </trkpt>
      <trkpt lat="49.41947" lon="0.20433">
        <ele>30.1</ele>
        <time>2020-06-17T15:04:16Z</time>
      </trkpt>
      <trkpt lat="49.41951" lon="0.20437">
        <ele>30.2</ele>
        <time>2020-06-17T15:04:17Z</time>
      </trkpt>
      <trkpt lat="49.41956" lon="0.2044">
        <ele>30.3</ele>
        <time>2020-06-17T15:04:18Z</time>
      </trkpt>
      <trkpt lat="49.41961" lon="0.20444">
        <ele>30.3</ele>
        <time>2020-06-17T15:04:19Z</time>
      </trkpt>
      <trkpt lat="49.41967" lon="0.20449">
        <ele>30.3</ele>
        <time>2020-06-17T15:04:20Z</time>
      </trkpt>
      <trkpt lat="49.41973" lon="0.20454">
        <ele>30.4</ele>
        <time>2020-06-17T15:04:21Z</time>
      </trkpt>
      <trkpt lat="49.41979" lon="0.20459">
        <ele>30.4</ele>
        <time>2020-06-17T15:04:22Z</time>
      </trkpt>
      <trkpt lat="49.41985" lon="0.20466">
        <ele>30.4</ele>
        <time>2020-06-17T15:04:23Z</time>
      </trkpt>
      <trkpt lat="49.41991" lon="0.2047">
        <ele>30.4</ele>
        <time>2020-06-17T15:04:24Z</time>
      </trkpt>
      <trkpt lat="49.41996" lon="0.20477">
        <ele>30.4</ele>
        <time>2020-06-17T15:04:25Z</time>
      </trkpt>
      <trkpt lat="49.42002" lon="0.20481">
        <ele>30.3</ele>
        <time>2020-06-17T15:04:26Z</time>
      </trkpt>
      <trkpt lat="49.42006" lon="0.20485">
        <ele>30.3</ele>
        <time>2020-06-17T15:04:27Z</time>
      </trkpt>
      <trkpt lat="49.42011" lon="0.20489">
        <ele>30.2</ele>
        <time>2020-06-17T15:04:28Z</time>
      </trkpt>
      <trkpt lat="49.42017" lon="0.20495">
        <ele>30.1</ele>
        <time>2020-06-17T15:04:29Z</time>
      </trkpt>
      <trkpt lat="49.42023" lon="0.20502">
        <ele>30</ele>
        <time>2020-06-17T15:04:30Z</time>
      </trkpt>
      <trkpt lat="49.42029" lon="0.2051">
        <ele>29.9</ele>
        <time>2020-06-17T15:04:31Z</time>
      </trkpt>
      <trkpt lat="49.42035" lon="0.20517">
        <ele>29.7</ele>
        <time>2020-06-17T15:04:32Z</time>
      </trkpt>
      <trkpt lat="49.42039" lon="0.20524">
        <ele>29.6</ele>
        <time>2020-06-17T15:04:33Z</time>
      </trkpt>
      <trkpt lat="49.42044" lon="0.20532">
        <ele>29.4</ele>
        <time>2020-06-17T15:04:34Z</time>
      </trkpt>
      <trkpt lat="49.42049" lon="0.20539">
        <ele>29.2</ele>
        <time>2020-06-17T15:04:35Z</time>
      </trkpt>
      <trkpt lat="49.42054" lon="0.20546">
        <ele>29</ele>
        <time>2020-06-17T15:04:36Z</time>
      </trkpt>
      <trkpt lat="49.42058" lon="0.20552">
        <ele>28.8</ele>
        <time>2020-06-17T15:04:37Z</time>
      </trkpt>
      <trkpt lat="49.42063" lon="0.2056">
        <ele>28.6</ele>
        <time>2020-06-17T15:04:38Z</time>
      </trkpt>
      <trkpt lat="49.42068" lon="0.20568">
        <ele>28.3</ele>
        <time>2020-06-17T15:04:39Z</time>
      </trkpt>
      <trkpt lat="49.42073" lon="0.20577">
        <ele>28.1</ele>
        <time>2020-06-17T15:04:40Z</time>
      </trkpt>
      <trkpt lat="49.42078" lon="0.20585">
        <ele>27.9</ele>
        <time>2020-06-17T15:04:41Z</time>
      </trkpt>
      <trkpt lat="49.42081" lon="0.20594">
        <ele>27.7</ele>
        <time>2020-06-17T15:04:42Z</time>
      </trkpt>
      <trkpt lat="49.42085" lon="0.20603">
        <ele>27.5</ele>
        <time>2020-06-17T15:04:43Z</time>
      </trkpt>
      <trkpt lat="49.42088" lon="0.20613">
        <ele>27.3</ele>
        <time>2020-06-17T15:04:44Z</time>
      </trkpt>
      <trkpt lat="49.42091" lon="0.20623">
        <ele>27.1</ele>
        <time>2020-06-17T15:04:45Z</time>
      </trkpt>
      <trkpt lat="49.42095" lon="0.20633">
        <ele>26.9</ele>
        <time>2020-06-17T15:04:46Z</time>
      </trkpt>
      <trkpt lat="49.42098" lon="0.20642">
        <ele>26.8</ele>
        <time>2020-06-17T15:04:47Z</time>
      </trkpt>
      <trkpt lat="49.42103" lon="0.2065">
        <ele>26.6</ele>
        <time>2020-06-17T15:04:48Z</time>
      </trkpt>
      <trkpt lat="49.42107" lon="0.20659">
        <ele>26.4</ele>
        <time>2020-06-17T15:04:49Z</time>
      </trkpt>
      <trkpt lat="49.42111" lon="0.20667">
        <ele>26.3</ele>
        <time>2020-06-17T15:04:50Z</time>
      </trkpt>
      <trkpt lat="49.42115" lon="0.20675">
        <ele>26.1</ele>
        <time>2020-06-17T15:04:51Z</time>
      </trkpt>
      <trkpt lat="49.4212" lon="0.20683">
        <ele>25.9</ele>
        <time>2020-06-17T15:04:52Z</time>
      </trkpt>
      <trkpt lat="49.42126" lon="0.2069">
        <ele>25.6</ele>
        <time>2020-06-17T15:04:53Z</time>
      </trkpt>
      <trkpt lat="49.42131" lon="0.20696">
        <ele>25.4</ele>
        <time>2020-06-17T15:04:54Z</time>
      </trkpt>
      <trkpt lat="49.42137" lon="0.20701">
        <ele>25.2</ele>
        <time>2020-06-17T15:04:55Z</time>
      </trkpt>
      <trkpt lat="49.42143" lon="0.20707">
        <ele>24.9</ele>
        <time>2020-06-17T15:04:56Z</time>
      </trkpt>
      <trkpt lat="49.4215" lon="0.20711">
        <ele>24.6</ele>
        <time>2020-06-17T15:04:57Z</time>
      </trkpt>
      <trkpt lat="49.42156" lon="0.20717">
        <ele>24.3</ele>
        <time>2020-06-17T15:04:58Z</time>
      </trkpt>
      <trkpt lat="49.42163" lon="0.20722">
        <ele>24</ele>
        <time>2020-06-17T15:04:59Z</time>
      </trkpt>
      <trkpt lat="49.42169" lon="0.20727">
        <ele>23.7</ele>
        <time>2020-06-17T15:05:00Z</time>
      </trkpt>
      <trkpt lat="49.42176" lon="0.20732">
        <ele>23.5</ele>
        <time>2020-06-17T15:05:01Z</time>
      </trkpt>
      <trkpt lat="49.42182" lon="0.20737">
        <ele>23.2</ele>
        <time>2020-06-17T15:05:02Z</time>
      </trkpt>
      <trkpt lat="49.42189" lon="0.2074">
        <ele>23</ele>
        <time>2020-06-17T15:05:03Z</time>
      </trkpt>
      <trkpt lat="49.42197" lon="0.20744">
        <ele>22.8</ele>
        <time>2020-06-17T15:05:04Z</time>
      </trkpt>
      <trkpt lat="49.42203" lon="0.20751">
        <ele>22.5</ele>
        <time>2020-06-17T15:05:05Z</time>
      </trkpt>
      <trkpt lat="49.42208" lon="0.20759">
        <ele>22.2</ele>
        <time>2020-06-17T15:05:06Z</time>
      </trkpt>
      <trkpt lat="49.42211" lon="0.20769">
        <ele>22</ele>
        <time>2020-06-17T15:05:07Z</time>
      </trkpt>
      <trkpt lat="49.42214" lon="0.2078">
        <ele>21.7</ele>
        <time>2020-06-17T15:05:08Z</time>
      </trkpt>
      <trkpt lat="49.42217" lon="0.2079">
        <ele>21.5</ele>
        <time>2020-06-17T15:05:09Z</time>
      </trkpt>
      <trkpt lat="49.4222" lon="0.20801">
        <ele>21.3</ele>
        <time>2020-06-17T15:05:10Z</time>
      </trkpt>
      <trkpt lat="49.42223" lon="0.20811">
        <ele>21.2</ele>
        <time>2020-06-17T15:05:11Z</time>
      </trkpt>
      <trkpt lat="49.42226" lon="0.20821">
        <ele>21</ele>
        <time>2020-06-17T15:05:12Z</time>
      </trkpt>
      <trkpt lat="49.42229" lon="0.20831">
        <ele>20.8</ele>
        <time>2020-06-17T15:05:13Z</time>
      </trkpt>
      <trkpt lat="49.42232" lon="0.20841">
        <ele>20.7</ele>
        <time>2020-06-17T15:05:14Z</time>
      </trkpt>
      <trkpt lat="49.42235" lon="0.20851">
        <ele>20.6</ele>
        <time>2020-06-17T15:05:15Z</time>
      </trkpt>
      <trkpt lat="49.42239" lon="0.20861">
        <ele>20.4</ele>
        <time>2020-06-17T15:05:16Z</time>
      </trkpt>
      <trkpt lat="49.42242" lon="0.20871">
        <ele>20.2</ele>
        <time>2020-06-17T15:05:17Z</time>
      </trkpt>
      <trkpt lat="49.42246" lon="0.20881">
        <ele>20</ele>
        <time>2020-06-17T15:05:18Z</time>
      </trkpt>
      <trkpt lat="49.4225" lon="0.20891">
        <ele>19.9</ele>
        <time>2020-06-17T15:05:19Z</time>
      </trkpt>
      <trkpt lat="49.42254" lon="0.20902">
        <ele>19.8</ele>
        <time>2020-06-17T15:05:20Z</time>
      </trkpt>
      <trkpt lat="49.42257" lon="0.20912">
        <ele>19.7</ele>
        <time>2020-06-17T15:05:21Z</time>
      </trkpt>
      <trkpt lat="49.42261" lon="0.20923">
        <ele>19.5</ele>
        <time>2020-06-17T15:05:22Z</time>
      </trkpt>
      <trkpt lat="49.42265" lon="0.20933">
        <ele>19.4</ele>
        <time>2020-06-17T15:05:23Z</time>
      </trkpt>
      <trkpt lat="49.42268" lon="0.20944">
        <ele>19.3</ele>
        <time>2020-06-17T15:05:24Z</time>
      </trkpt>
      <trkpt lat="49.42273" lon="0.20954">
        <ele>19.2</ele>
        <time>2020-06-17T15:05:25Z</time>
      </trkpt>
      <trkpt lat="49.42278" lon="0.20963">
        <ele>19.1</ele>
        <time>2020-06-17T15:05:26Z</time>
      </trkpt>
      <trkpt lat="49.42283" lon="0.20973">
        <ele>19</ele>
        <time>2020-06-17T15:05:27Z</time>
      </trkpt>
      <trkpt lat="49.42288" lon="0.20982">
        <ele>18.9</ele>
        <time>2020-06-17T15:05:28Z</time>
      </trkpt>
      <trkpt lat="49.42293" lon="0.2099">
        <ele>18.7</ele>
        <time>2020-06-17T15:05:29Z</time>
      </trkpt>
      <trkpt lat="49.42298" lon="0.20999">
        <ele>18.6</ele>
        <time>2020-06-17T15:05:30Z</time>
      </trkpt>
      <trkpt lat="49.42303" lon="0.21009">
        <ele>18.4</ele>
        <time>2020-06-17T15:05:31Z</time>
      </trkpt>
      <trkpt lat="49.42308" lon="0.21018">
        <ele>18.3</ele>
        <time>2020-06-17T15:05:32Z</time>
      </trkpt>
      <trkpt lat="49.42313" lon="0.21027">
        <ele>18.2</ele>
        <time>2020-06-17T15:05:33Z</time>
      </trkpt>
      <trkpt lat="49.42319" lon="0.21036">
        <ele>18</ele>
        <time>2020-06-17T15:05:34Z</time>
      </trkpt>
      <trkpt lat="49.42323" lon="0.21045">
        <ele>17.9</ele>
        <time>2020-06-17T15:05:35Z</time>
      </trkpt>
      <trkpt lat="49.42328" lon="0.21054">
        <ele>17.8</ele>
        <time>2020-06-17T15:05:36Z</time>
      </trkpt>
      <trkpt lat="49.42332" lon="0.21064">
        <ele>17.6</ele>
        <time>2020-06-17T15:05:37Z</time>
      </trkpt>
      <trkpt lat="49.42336" lon="0.21074">
        <ele>17.3</ele>
        <time>2020-06-17T15:05:38Z</time>
      </trkpt>
      <trkpt lat="49.4234" lon="0.21085">
        <ele>17.1</ele>
        <time>2020-06-17T15:05:39Z</time>
      </trkpt>
      <trkpt lat="49.42344" lon="0.21095">
        <ele>16.8</ele>
        <time>2020-06-17T15:05:40Z</time>
      </trkpt>
      <trkpt lat="49.42348" lon="0.21104">
        <ele>16.6</ele>
        <time>2020-06-17T15:05:41Z</time>
      </trkpt>
      <trkpt lat="49.42353" lon="0.21114">
        <ele>16.3</ele>
        <time>2020-06-17T15:05:42Z</time>
      </trkpt>
      <trkpt lat="49.42357" lon="0.21123">
        <ele>16.1</ele>
        <time>2020-06-17T15:05:43Z</time>
      </trkpt>
      <trkpt lat="49.42362" lon="0.21133">
        <ele>15.8</ele>
        <time>2020-06-17T15:05:44Z</time>
      </trkpt>
      <trkpt lat="49.42366" lon="0.21143">
        <ele>15.5</ele>
        <time>2020-06-17T15:05:45Z</time>
      </trkpt>
      <trkpt lat="49.42371" lon="0.21152">
        <ele>15.2</ele>
        <time>2020-06-17T15:05:46Z</time>
      </trkpt>
      <trkpt lat="49.42375" lon="0.21161">
        <ele>14.8</ele>
        <time>2020-06-17T15:05:47Z</time>
      </trkpt>
      <trkpt lat="49.4238" lon="0.2117">
        <ele>14.5</ele>
        <time>2020-06-17T15:05:48Z</time>
      </trkpt>
      <trkpt lat="49.42384" lon="0.2118">
        <ele>14.1</ele>
        <time>2020-06-17T15:05:49Z</time>
      </trkpt>
      <trkpt lat="49.42388" lon="0.2119">
        <ele>13.8</ele>
        <time>2020-06-17T15:05:50Z</time>
      </trkpt>
      <trkpt lat="49.42393" lon="0.21199">
        <ele>13.4</ele>
        <time>2020-06-17T15:05:51Z</time>
      </trkpt>
      <trkpt lat="49.42396" lon="0.21209">
        <ele>13.1</ele>
        <time>2020-06-17T15:05:52Z</time>
      </trkpt>
      <trkpt lat="49.424" lon="0.21219">
        <ele>12.8</ele>
        <time>2020-06-17T15:05:53Z</time>
      </trkpt>
      <trkpt lat="49.42404" lon="0.21228">
        <ele>12.5</ele>
        <time>2020-06-17T15:05:54Z</time>
      </trkpt>
      <trkpt lat="49.42407" lon="0.21239">
        <ele>12.2</ele>
        <time>2020-06-17T15:05:55Z</time>
      </trkpt>
      <trkpt lat="49.42411" lon="0.21249">
        <ele>11.9</ele>
        <time>2020-06-17T15:05:56Z</time>
      </trkpt>
      <trkpt lat="49.42415" lon="0.21258">
        <ele>11.6</ele>
        <time>2020-06-17T15:05:57Z</time>
      </trkpt>
      <trkpt lat="49.4242" lon="0.21268">
        <ele>11.3</ele>
        <time>2020-06-17T15:05:58Z</time>
      </trkpt>
      <trkpt lat="49.42425" lon="0.21277">
        <ele>11.1</ele>
        <time>2020-06-17T15:05:59Z</time>
      </trkpt>
      <trkpt lat="49.42429" lon="0.21288">
        <ele>10.7</ele>
        <time>2020-06-17T15:06:00Z</time>
      </trkpt>
      <trkpt lat="49.42432" lon="0.21298">
        <ele>10.6</ele>
        <time>2020-06-17T15:06:01Z</time>
      </trkpt>
      <trkpt lat="49.42434" lon="0.2131">
        <ele>10.3</ele>
        <time>2020-06-17T15:06:02Z</time>
      </trkpt>
      <trkpt lat="49.42437" lon="0.21321">
        <ele>10.1</ele>
        <time>2020-06-17T15:06:03Z</time>
      </trkpt>
      <trkpt lat="49.42441" lon="0.21332">
        <ele>9.9</ele>
        <time>2020-06-17T15:06:04Z</time>
      </trkpt>
      <trkpt lat="49.42444" lon="0.21343">
        <ele>9.7</ele>
        <time>2020-06-17T15:06:05Z</time>
      </trkpt>
      <trkpt lat="49.42447" lon="0.21354">
        <ele>9.3</ele>
        <time>2020-06-17T15:06:06Z</time>
      </trkpt>
      <trkpt lat="49.42451" lon="0.21365">
        <ele>9.1</ele>
        <time>2020-06-17T15:06:07Z</time>
      </trkpt>
      <trkpt lat="49.42454" lon="0.21376">
        <ele>8.9</ele>
        <time>2020-06-17T15:06:08Z</time>
      </trkpt>
      <trkpt lat="49.42456" lon="0.21388">
        <ele>8.6</ele>
        <time>2020-06-17T15:06:09Z</time>
      </trkpt>
      <trkpt lat="49.42459" lon="0.21399">
        <ele>8.4</ele>
        <time>2020-06-17T15:06:10Z</time>
      </trkpt>
      <trkpt lat="49.42462" lon="0.2141">
        <ele>8.2</ele>
        <time>2020-06-17T15:06:11Z</time>
      </trkpt>
      <trkpt lat="49.42464" lon="0.21422">
        <ele>8</ele>
        <time>2020-06-17T15:06:12Z</time>
      </trkpt>
      <trkpt lat="49.42465" lon="0.21434">
        <ele>7.8</ele>
        <time>2020-06-17T15:06:13Z</time>
      </trkpt>
      <trkpt lat="49.42467" lon="0.21446">
        <ele>7.6</ele>
        <time>2020-06-17T15:06:14Z</time>
      </trkpt>
      <trkpt lat="49.42469" lon="0.21458">
        <ele>7.5</ele>
        <time>2020-06-17T15:06:15Z</time>
      </trkpt>
      <trkpt lat="49.42471" lon="0.2147">
        <ele>7.4</ele>
        <time>2020-06-17T15:06:16Z</time>
      </trkpt>
      <trkpt lat="49.42474" lon="0.21481">
        <ele>7.2</ele>
        <time>2020-06-17T15:06:17Z</time>
      </trkpt>
      <trkpt lat="49.42475" lon="0.21493">
        <ele>7.1</ele>
        <time>2020-06-17T15:06:18Z</time>
      </trkpt>
      <trkpt lat="49.42477" lon="0.21506">
        <ele>7</ele>
        <time>2020-06-17T15:06:19Z</time>
      </trkpt>
      <trkpt lat="49.42478" lon="0.21518">
        <ele>6.9</ele>
        <time>2020-06-17T15:06:20Z</time>
      </trkpt>
      <trkpt lat="49.42479" lon="0.2153">
        <ele>6.8</ele>
        <time>2020-06-17T15:06:21Z</time>
      </trkpt>
      <trkpt lat="49.4248" lon="0.21542">
        <ele>6.6</ele>
        <time>2020-06-17T15:06:22Z</time>
      </trkpt>
      <trkpt lat="49.42482" lon="0.21554">
        <ele>6.6</ele>
        <time>2020-06-17T15:06:23Z</time>
      </trkpt>
      <trkpt lat="49.42483" lon="0.21565">
        <ele>6.6</ele>
        <time>2020-06-17T15:06:24Z</time>
      </trkpt>
      <trkpt lat="49.42483" lon="0.21577">
        <ele>6.6</ele>
        <time>2020-06-17T15:06:25Z</time>
      </trkpt>
      <trkpt lat="49.42483" lon="0.21588">
        <ele>6.6</ele>
        <time>2020-06-17T15:06:26Z</time>
      </trkpt>
      <trkpt lat="49.42484" lon="0.216">
        <ele>6.6</ele>
        <time>2020-06-17T15:06:27Z</time>
      </trkpt>
      <trkpt lat="49.42485" lon="0.2161">
        <ele>6.6</ele>
        <time>2020-06-17T15:06:28Z</time>
      </trkpt>
      <trkpt lat="49.42485" lon="0.21621">
        <ele>6.6</ele>
        <time>2020-06-17T15:06:29Z</time>
      </trkpt>
      <trkpt lat="49.42486" lon="0.21632">
        <ele>6.6</ele>
        <time>2020-06-17T15:06:30Z</time>
      </trkpt>
      <trkpt lat="49.42487" lon="0.21642">
        <ele>6.7</ele>
        <time>2020-06-17T15:06:31Z</time>
      </trkpt>
      <trkpt lat="49.42488" lon="0.21653">
        <ele>6.7</ele>
        <time>2020-06-17T15:06:32Z</time>
      </trkpt>
      <trkpt lat="49.4249" lon="0.21663">
        <ele>6.7</ele>
        <time>2020-06-17T15:06:33Z</time>
      </trkpt>
      <trkpt lat="49.42491" lon="0.21673">
        <ele>6.7</ele>
        <time>2020-06-17T15:06:34Z</time>
      </trkpt>
      <trkpt lat="49.42492" lon="0.21684">
        <ele>6.7</ele>
        <time>2020-06-17T15:06:35Z</time>
      </trkpt>
      <trkpt lat="49.42494" lon="0.21694">
        <ele>6.7</ele>
        <time>2020-06-17T15:06:36Z</time>
      </trkpt>
      <trkpt lat="49.42495" lon="0.21705">
        <ele>6.7</ele>
        <time>2020-06-17T15:06:37Z</time>
      </trkpt>
      <trkpt lat="49.42497" lon="0.21715">
        <ele>6.7</ele>
        <time>2020-06-17T15:06:38Z</time>
      </trkpt>
      <trkpt lat="49.42498" lon="0.21725">
        <ele>6.7</ele>
        <time>2020-06-17T15:06:39Z</time>
      </trkpt>
      <trkpt lat="49.42499" lon="0.21735">
        <ele>6.6</ele>
        <time>2020-06-17T15:06:40Z</time>
      </trkpt>
      <trkpt lat="49.42499" lon="0.21744">
        <ele>6.6</ele>
        <time>2020-06-17T15:06:41Z</time>
      </trkpt>
      <trkpt lat="49.425" lon="0.21753">
        <ele>6.6</ele>
        <time>2020-06-17T15:06:42Z</time>
      </trkpt>
      <trkpt lat="49.42501" lon="0.21763">
        <ele>6.6</ele>
        <time>2020-06-17T15:06:43Z</time>
      </trkpt>
      <trkpt lat="49.42501" lon="0.21772">
        <ele>6.6</ele>
        <time>2020-06-17T15:06:44Z</time>
      </trkpt>
      <trkpt lat="49.42501" lon="0.21781">
        <ele>6.6</ele>
        <time>2020-06-17T15:06:45Z</time>
      </trkpt>
      <trkpt lat="49.42501" lon="0.2179">
        <ele>6.7</ele>
        <time>2020-06-17T15:06:46Z</time>
      </trkpt>
      <trkpt lat="49.42501" lon="0.21799">
        <ele>6.7</ele>
        <time>2020-06-17T15:06:47Z</time>
      </trkpt>
      <trkpt lat="49.42502" lon="0.21808">
        <ele>6.7</ele>
        <time>2020-06-17T15:06:48Z</time>
      </trkpt>
      <trkpt lat="49.42503" lon="0.21816">
        <ele>6.7</ele>
        <time>2020-06-17T15:06:49Z</time>
      </trkpt>
      <trkpt lat="49.42503" lon="0.21824">
        <ele>6.7</ele>
        <time>2020-06-17T15:06:50Z</time>
      </trkpt>
      <trkpt lat="49.42505" lon="0.2183">
        <ele>6.6</ele>
        <time>2020-06-17T15:06:51Z</time>
      </trkpt>
      <trkpt lat="49.42506" lon="0.21835">
        <ele>6.6</ele>
        <time>2020-06-17T15:06:52Z</time>
      </trkpt>
      <trkpt lat="49.42506" lon="0.21838">
        <ele>6.6</ele>
        <time>2020-06-17T15:06:53Z</time>
      </trkpt>
      <trkpt lat="49.42507" lon="0.21839">
        <ele>6.5</ele>
        <time>2020-06-17T15:06:54Z</time>
      </trkpt>
      <trkpt lat="49.42508" lon="0.21841">
        <ele>6.5</ele>
        <time>2020-06-17T15:06:55Z</time>
      </trkpt>
      <trkpt lat="49.42508" lon="0.21843">
        <ele>6.5</ele>
        <time>2020-06-17T15:06:56Z</time>
      </trkpt>
      <trkpt lat="49.42507" lon="0.21847">
        <ele>6.5</ele>
        <time>2020-06-17T15:06:57Z</time>
      </trkpt>
      <trkpt lat="49.42507" lon="0.21849">
        <ele>6.5</ele>
        <time>2020-06-17T15:06:58Z</time>
      </trkpt>
      <trkpt lat="49.42507" lon="0.21853">
        <ele>6.4</ele>
        <time>2020-06-17T15:06:59Z</time>
      </trkpt>
      <trkpt lat="49.42508" lon="0.21854">
        <ele>6.4</ele>
        <time>2020-06-17T15:07:00Z</time>
      </trkpt>
      <trkpt lat="49.42508" lon="0.21859">
        <ele>6.4</ele>
        <time>2020-06-17T15:07:01Z</time>
      </trkpt>
      <trkpt lat="49.42508" lon="0.2186">
        <ele>6.4</ele>
        <time>2020-06-17T15:07:02Z</time>
      </trkpt>
      <trkpt lat="49.42507" lon="0.21863">
        <ele>6.4</ele>
        <time>2020-06-17T15:07:03Z</time>
      </trkpt>
      <trkpt lat="49.42508" lon="0.21865">
        <ele>6.4</ele>
        <time>2020-06-17T15:07:04Z</time>
      </trkpt>
      <trkpt lat="49.42509" lon="0.21869">
        <ele>6.4</ele>
        <time>2020-06-17T15:07:05Z</time>
      </trkpt>
      <trkpt lat="49.4251" lon="0.2187">
        <ele>6.4</ele>
        <time>2020-06-17T15:07:06Z</time>
      </trkpt>
      <trkpt lat="49.42509" lon="0.21873">
        <ele>6.4</ele>
        <time>2020-06-17T15:07:07Z</time>
      </trkpt>
      <trkpt lat="49.42509" lon="0.21873">
        <ele>6.4</ele>
        <time>2020-06-17T15:07:08Z</time>
      </trkpt>
      <trkpt lat="49.42509" lon="0.21874">
        <ele>6.4</ele>
        <time>2020-06-17T15:07:09Z</time>
      </trkpt>
      <trkpt lat="49.42509" lon="0.21874">
        <ele>6.4</ele>
        <time>2020-06-17T15:07:10Z</time>
      </trkpt>
      <trkpt lat="49.42509" lon="0.21875">
        <ele>6.4</ele>
        <time>2020-06-17T15:07:11Z</time>
      </trkpt>
      <trkpt lat="49.42508" lon="0.21876">
        <ele>6.4</ele>
        <time>2020-06-17T15:07:12Z</time>
      </trkpt>
      <trkpt lat="49.42508" lon="0.21877">
        <ele>6.4</ele>
        <time>2020-06-17T15:07:13Z</time>
      </trkpt>
      <trkpt lat="49.42508" lon="0.21878">
        <ele>6.4</ele>
        <time>2020-06-17T15:07:14Z</time>
      </trkpt>
      <trkpt lat="49.42508" lon="0.21879">
        <ele>6.4</ele>
        <time>2020-06-17T15:07:15Z</time>
      </trkpt>
      <trkpt lat="49.42508" lon="0.2188">
        <ele>6.4</ele>
        <time>2020-06-17T15:07:16Z</time>
      </trkpt>
      <trkpt lat="49.42508" lon="0.21881">
        <ele>6.4</ele>
        <time>2020-06-17T15:07:17Z</time>
      </trkpt>
      <trkpt lat="49.42508" lon="0.21882">
        <ele>6.4</ele>
        <time>2020-06-17T15:07:18Z</time>
      </trkpt>
      <trkpt lat="49.42508" lon="0.21883">
        <ele>6.4</ele>
        <time>2020-06-17T15:07:19Z</time>
      </trkpt>
      <trkpt lat="49.42508" lon="0.21884">
        <ele>6.4</ele>
        <time>2020-06-17T15:07:20Z</time>
      </trkpt>
      <trkpt lat="49.42508" lon="0.21885">
        <ele>6.4</ele>
        <time>2020-06-17T15:07:21Z</time>
      </trkpt>
      <trkpt lat="49.42508" lon="0.21886">
        <ele>6.4</ele>
        <time>2020-06-17T15:07:22Z</time>
      </trkpt>
      <trkpt lat="49.42508" lon="0.21887">
        <ele>6.4</ele>
        <time>2020-06-17T15:07:23Z</time>
      </trkpt>
      <trkpt lat="49.42508" lon="0.21888">
        <ele>6.4</ele>
        <time>2020-06-17T15:08:55Z</time>
      </trkpt>
      <trkpt lat="49.42508" lon="0.21889">
        <ele>6.4</ele>
        <time>2020-06-17T15:08:56Z</time>
      </trkpt>
      <trkpt lat="49.42508" lon="0.2189">
        <ele>6.4</ele>
        <time>2020-06-17T15:08:57Z</time>
      </trkpt>
      <trkpt lat="49.42508" lon="0.21895">
        <ele>6.4</ele>
        <time>2020-06-17T15:08:58Z</time>
      </trkpt>
      <trkpt lat="49.42508" lon="0.21897">
        <ele>6.4</ele>
        <time>2020-06-17T15:08:59Z</time>
      </trkpt>
      <trkpt lat="49.42509" lon="0.21901">
        <ele>6.4</ele>
        <time>2020-06-17T15:09:00Z</time>
      </trkpt>
      <trkpt lat="49.42509" lon="0.21903">
        <ele>6.4</ele>
        <time>2020-06-17T15:09:01Z</time>
      </trkpt>
      <trkpt lat="49.42509" lon="0.21909">
        <ele>6.4</ele>
        <time>2020-06-17T15:09:02Z</time>
      </trkpt>
      <trkpt lat="49.42509" lon="0.21911">
        <ele>6.4</ele>
        <time>2020-06-17T15:09:03Z</time>
      </trkpt>
      <trkpt lat="49.42509" lon="0.21916">
        <ele>6.4</ele>
        <time>2020-06-17T15:09:04Z</time>
      </trkpt>
      <trkpt lat="49.4251" lon="0.21923">
        <ele>6.4</ele>
        <time>2020-06-17T15:09:05Z</time>
      </trkpt>
      <trkpt lat="49.4251" lon="0.21925">
        <ele>6.4</ele>
        <time>2020-06-17T15:09:06Z</time>
      </trkpt>
      <trkpt lat="49.42511" lon="0.21931">
        <ele>6.4</ele>
        <time>2020-06-17T15:09:07Z</time>
      </trkpt>
      <trkpt lat="49.42511" lon="0.21936">
        <ele>6.4</ele>
        <time>2020-06-17T15:09:08Z</time>
      </trkpt>
      <trkpt lat="49.42511" lon="0.21943">
        <ele>6.4</ele>
        <time>2020-06-17T15:09:09Z</time>
      </trkpt>
      <trkpt lat="49.42512" lon="0.21949">
        <ele>6.4</ele>
        <time>2020-06-17T15:09:10Z</time>
      </trkpt>
      <trkpt lat="49.42512" lon="0.21955">
        <ele>6.4</ele>
        <time>2020-06-17T15:09:11Z</time>
      </trkpt>
      <trkpt lat="49.42514" lon="0.21961">
        <ele>6.4</ele>
        <time>2020-06-17T15:09:12Z</time>
      </trkpt>
      <trkpt lat="49.42515" lon="0.21967">
        <ele>6.4</ele>
        <time>2020-06-17T15:09:13Z</time>
      </trkpt>
      <trkpt lat="49.42516" lon="0.21973">
        <ele>6.5</ele>
        <time>2020-06-17T15:09:14Z</time>
      </trkpt>
      <trkpt lat="49.42516" lon="0.2198">
        <ele>6.5</ele>
        <time>2020-06-17T15:09:15Z</time>
      </trkpt>
      <trkpt lat="49.42517" lon="0.21986">
        <ele>6.5</ele>
        <time>2020-06-17T15:09:16Z</time>
      </trkpt>
      <trkpt lat="49.42518" lon="0.21993">
        <ele>6.5</ele>
        <time>2020-06-17T15:09:17Z</time>
      </trkpt>
      <trkpt lat="49.42519" lon="0.22">
        <ele>6.5</ele>
        <time>2020-06-17T15:09:18Z</time>
      </trkpt>
      <trkpt lat="49.4252" lon="0.22006">
        <ele>6.5</ele>
        <time>2020-06-17T15:09:19Z</time>
      </trkpt>
      <trkpt lat="49.4252" lon="0.22013">
        <ele>6.6</ele>
        <time>2020-06-17T15:09:20Z</time>
      </trkpt>
      <trkpt lat="49.42521" lon="0.2202">
        <ele>6.6</ele>
        <time>2020-06-17T15:09:21Z</time>
      </trkpt>
      <trkpt lat="49.42523" lon="0.22027">
        <ele>6.6</ele>
        <time>2020-06-17T15:09:22Z</time>
      </trkpt>
      <trkpt lat="49.42523" lon="0.22036">
        <ele>6.6</ele>
        <time>2020-06-17T15:09:23Z</time>
      </trkpt>
      <trkpt lat="49.42523" lon="0.22044">
        <ele>6.6</ele>
        <time>2020-06-17T15:09:24Z</time>
      </trkpt>
      <trkpt lat="49.42523" lon="0.22052">
        <ele>6.6</ele>
        <time>2020-06-17T15:09:25Z</time>
      </trkpt>
      <trkpt lat="49.42523" lon="0.2206">
        <ele>6.6</ele>
        <time>2020-06-17T15:09:26Z</time>
      </trkpt>
      <trkpt lat="49.42523" lon="0.22067">
        <ele>6.6</ele>
        <time>2020-06-17T15:09:27Z</time>
      </trkpt>
      <trkpt lat="49.42524" lon="0.22074">
        <ele>6.6</ele>
        <time>2020-06-17T15:09:28Z</time>
      </trkpt>
      <trkpt lat="49.42524" lon="0.22082">
        <ele>6.6</ele>
        <time>2020-06-17T15:09:29Z</time>
      </trkpt>
      <trkpt lat="49.42524" lon="0.2209">
        <ele>6.6</ele>
        <time>2020-06-17T15:09:30Z</time>
      </trkpt>
      <trkpt lat="49.42524" lon="0.22098">
        <ele>6.6</ele>
        <time>2020-06-17T15:09:31Z</time>
      </trkpt>
      <trkpt lat="49.42526" lon="0.22107">
        <ele>6.6</ele>
        <time>2020-06-17T15:09:32Z</time>
      </trkpt>
      <trkpt lat="49.42527" lon="0.22115">
        <ele>6.6</ele>
        <time>2020-06-17T15:09:33Z</time>
      </trkpt>
      <trkpt lat="49.42527" lon="0.22123">
        <ele>6.6</ele>
        <time>2020-06-17T15:09:34Z</time>
      </trkpt>
      <trkpt lat="49.42527" lon="0.22132">
        <ele>6.6</ele>
        <time>2020-06-17T15:09:35Z</time>
      </trkpt>
      <trkpt lat="49.42527" lon="0.2214">
        <ele>6.6</ele>
        <time>2020-06-17T15:09:36Z</time>
      </trkpt>
      <trkpt lat="49.42527" lon="0.22149">
        <ele>6.6</ele>
        <time>2020-06-17T15:09:37Z</time>
      </trkpt>
      <trkpt lat="49.42526" lon="0.22157">
        <ele>6.6</ele>
        <time>2020-06-17T15:09:38Z</time>
      </trkpt>
      <trkpt lat="49.42527" lon="0.22165">
        <ele>6.6</ele>
        <time>2020-06-17T15:09:39Z</time>
      </trkpt>
      <trkpt lat="49.42528" lon="0.22174">
        <ele>6.6</ele>
        <time>2020-06-17T15:09:40Z</time>
      </trkpt>
      <trkpt lat="49.42528" lon="0.22182">
        <ele>6.6</ele>
        <time>2020-06-17T15:09:41Z</time>
      </trkpt>
      <trkpt lat="49.42528" lon="0.22191">
        <ele>6.6</ele>
        <time>2020-06-17T15:09:42Z</time>
      </trkpt>
      <trkpt lat="49.42529" lon="0.222">
        <ele>6.5</ele>
        <time>2020-06-17T15:09:43Z</time>
      </trkpt>
      <trkpt lat="49.42528" lon="0.22209">
        <ele>6.5</ele>
        <time>2020-06-17T15:09:44Z</time>
      </trkpt>
      <trkpt lat="49.42528" lon="0.22218">
        <ele>6.5</ele>
        <time>2020-06-17T15:09:45Z</time>
      </trkpt>
      <trkpt lat="49.42527" lon="0.22227">
        <ele>6.5</ele>
        <time>2020-06-17T15:09:46Z</time>
      </trkpt>
      <trkpt lat="49.42526" lon="0.22236">
        <ele>6.5</ele>
        <time>2020-06-17T15:09:47Z</time>
      </trkpt>
      <trkpt lat="49.42527" lon="0.22245">
        <ele>6.5</ele>
        <time>2020-06-17T15:09:48Z</time>
      </trkpt>
      <trkpt lat="49.42527" lon="0.22253">
        <ele>6.4</ele>
        <time>2020-06-17T15:09:49Z</time>
      </trkpt>
      <trkpt lat="49.42527" lon="0.22262">
        <ele>6.4</ele>
        <time>2020-06-17T15:09:50Z</time>
      </trkpt>
      <trkpt lat="49.42528" lon="0.22271">
        <ele>6.3</ele>
        <time>2020-06-17T15:09:51Z</time>
      </trkpt>
      <trkpt lat="49.42528" lon="0.2228">
        <ele>6.3</ele>
        <time>2020-06-17T15:09:52Z</time>
      </trkpt>
      <trkpt lat="49.42528" lon="0.22288">
        <ele>6.2</ele>
        <time>2020-06-17T15:09:53Z</time>
      </trkpt>
      <trkpt lat="49.42528" lon="0.22297">
        <ele>6.2</ele>
        <time>2020-06-17T15:09:54Z</time>
      </trkpt>
      <trkpt lat="49.42528" lon="0.22306">
        <ele>6.2</ele>
        <time>2020-06-17T15:09:55Z</time>
      </trkpt>
      <trkpt lat="49.4253" lon="0.22315">
        <ele>6.2</ele>
        <time>2020-06-17T15:09:56Z</time>
      </trkpt>
      <trkpt lat="49.42531" lon="0.22325">
        <ele>6.2</ele>
        <time>2020-06-17T15:09:57Z</time>
      </trkpt>
      <trkpt lat="49.42531" lon="0.22335">
        <ele>6.3</ele>
        <time>2020-06-17T15:09:58Z</time>
      </trkpt>
      <trkpt lat="49.42532" lon="0.22345">
        <ele>6.3</ele>
        <time>2020-06-17T15:09:59Z</time>
      </trkpt>
      <trkpt lat="49.42533" lon="0.22355">
        <ele>6.3</ele>
        <time>2020-06-17T15:10:00Z</time>
      </trkpt>
      <trkpt lat="49.42533" lon="0.22365">
        <ele>6.3</ele>
        <time>2020-06-17T15:10:01Z</time>
      </trkpt>
      <trkpt lat="49.42534" lon="0.22375">
        <ele>6.3</ele>
        <time>2020-06-17T15:10:02Z</time>
      </trkpt>
      <trkpt lat="49.42534" lon="0.22385">
        <ele>6.3</ele>
        <time>2020-06-17T15:10:03Z</time>
      </trkpt>
      <trkpt lat="49.42533" lon="0.22395">
        <ele>6.3</ele>
        <time>2020-06-17T15:10:04Z</time>
      </trkpt>
      <trkpt lat="49.42534" lon="0.22406">
        <ele>6.2</ele>
        <time>2020-06-17T15:10:05Z</time>
      </trkpt>
      <trkpt lat="49.42534" lon="0.22416">
        <ele>6.2</ele>
        <time>2020-06-17T15:10:06Z</time>
      </trkpt>
      <trkpt lat="49.42534" lon="0.22427">
        <ele>6.2</ele>
        <time>2020-06-17T15:10:07Z</time>
      </trkpt>
      <trkpt lat="49.42535" lon="0.22437">
        <ele>6.2</ele>
        <time>2020-06-17T15:10:08Z</time>
      </trkpt>
      <trkpt lat="49.42535" lon="0.22447">
        <ele>6.2</ele>
        <time>2020-06-17T15:10:09Z</time>
      </trkpt>
      <trkpt lat="49.42535" lon="0.22457">
        <ele>6.2</ele>
        <time>2020-06-17T15:10:10Z</time>
      </trkpt>
      <trkpt lat="49.42537" lon="0.22468">
        <ele>6.3</ele>
        <time>2020-06-17T15:10:11Z</time>
      </trkpt>
      <trkpt lat="49.42536" lon="0.22478">
        <ele>6.3</ele>
        <time>2020-06-17T15:10:12Z</time>
      </trkpt>
      <trkpt lat="49.42536" lon="0.22487">
        <ele>6.3</ele>
        <time>2020-06-17T15:10:13Z</time>
      </trkpt>
      <trkpt lat="49.42537" lon="0.22497">
        <ele>6.3</ele>
        <time>2020-06-17T15:10:14Z</time>
      </trkpt>
      <trkpt lat="49.42537" lon="0.22507">
        <ele>6.3</ele>
        <time>2020-06-17T15:10:15Z</time>
      </trkpt>
      <trkpt lat="49.42536" lon="0.22516">
        <ele>6.4</ele>
        <time>2020-06-17T15:10:16Z</time>
      </trkpt>
      <trkpt lat="49.42536" lon="0.22526">
        <ele>6.4</ele>
        <time>2020-06-17T15:10:17Z</time>
      </trkpt>
      <trkpt lat="49.42536" lon="0.22535">
        <ele>6.4</ele>
        <time>2020-06-17T15:10:18Z</time>
      </trkpt>
      <trkpt lat="49.42536" lon="0.22544">
        <ele>6.4</ele>
        <time>2020-06-17T15:10:19Z</time>
      </trkpt>
      <trkpt lat="49.42536" lon="0.22552">
        <ele>6.4</ele>
        <time>2020-06-17T15:10:20Z</time>
      </trkpt>
      <trkpt lat="49.42537" lon="0.2256">
        <ele>6.4</ele>
        <time>2020-06-17T15:10:21Z</time>
      </trkpt>
      <trkpt lat="49.42537" lon="0.22569">
        <ele>6.4</ele>
        <time>2020-06-17T15:10:22Z</time>
      </trkpt>
      <trkpt lat="49.42537" lon="0.22578">
        <ele>6.4</ele>
        <time>2020-06-17T15:10:23Z</time>
      </trkpt>
      <trkpt lat="49.42538" lon="0.22587">
        <ele>6.4</ele>
        <time>2020-06-17T15:10:24Z</time>
      </trkpt>
      <trkpt lat="49.42539" lon="0.22595">
        <ele>6.4</ele>
        <time>2020-06-17T15:10:25Z</time>
      </trkpt>
      <trkpt lat="49.42539" lon="0.22604">
        <ele>6.4</ele>
        <time>2020-06-17T15:10:26Z</time>
      </trkpt>
      <trkpt lat="49.42539" lon="0.22613">
        <ele>6.4</ele>
        <time>2020-06-17T15:10:27Z</time>
      </trkpt>
      <trkpt lat="49.42538" lon="0.22621">
        <ele>6.4</ele>
        <time>2020-06-17T15:10:28Z</time>
      </trkpt>
      <trkpt lat="49.42538" lon="0.2263">
        <ele>6.4</ele>
        <time>2020-06-17T15:10:29Z</time>
      </trkpt>
      <trkpt lat="49.42539" lon="0.22638">
        <ele>6.4</ele>
        <time>2020-06-17T15:10:30Z</time>
      </trkpt>
      <trkpt lat="49.42537" lon="0.22646">
        <ele>6.4</ele>
        <time>2020-06-17T15:10:31Z</time>
      </trkpt>
      <trkpt lat="49.42536" lon="0.22653">
        <ele>6.4</ele>
        <time>2020-06-17T15:10:32Z</time>
      </trkpt>
      <trkpt lat="49.42535" lon="0.22661">
        <ele>6.4</ele>
        <time>2020-06-17T15:10:33Z</time>
      </trkpt>
      <trkpt lat="49.42534" lon="0.22669">
        <ele>6.4</ele>
        <time>2020-06-17T15:10:34Z</time>
      </trkpt>
      <trkpt lat="49.42534" lon="0.22677">
        <ele>6.4</ele>
        <time>2020-06-17T15:10:35Z</time>
      </trkpt>
      <trkpt lat="49.42533" lon="0.22685">
        <ele>6.5</ele>
        <time>2020-06-17T15:10:36Z</time>
      </trkpt>
      <trkpt lat="49.42531" lon="0.2269">
        <ele>6.5</ele>
        <time>2020-06-17T15:10:37Z</time>
      </trkpt>
      <trkpt lat="49.4253" lon="0.22697">
        <ele>6.5</ele>
        <time>2020-06-17T15:10:38Z</time>
      </trkpt>
      <trkpt lat="49.4253" lon="0.22703">
        <ele>6.5</ele>
        <time>2020-06-17T15:10:39Z</time>
      </trkpt>
      <trkpt lat="49.42529" lon="0.2271">
        <ele>6.5</ele>
        <time>2020-06-17T15:10:40Z</time>
      </trkpt>
      <trkpt lat="49.42527" lon="0.22718">
        <ele>6.5</ele>
        <time>2020-06-17T15:10:41Z</time>
      </trkpt>
      <trkpt lat="49.42526" lon="0.22724">
        <ele>6.5</ele>
        <time>2020-06-17T15:10:42Z</time>
      </trkpt>
      <trkpt lat="49.42524" lon="0.2273">
        <ele>6.5</ele>
        <time>2020-06-17T15:10:43Z</time>
      </trkpt>
      <trkpt lat="49.42522" lon="0.22737">
        <ele>6.4</ele>
        <time>2020-06-17T15:10:44Z</time>
      </trkpt>
      <trkpt lat="49.4252" lon="0.22743">
        <ele>6.4</ele>
        <time>2020-06-17T15:10:45Z</time>
      </trkpt>
      <trkpt lat="49.42518" lon="0.2275">
        <ele>6.4</ele>
        <time>2020-06-17T15:10:46Z</time>
      </trkpt>
      <trkpt lat="49.42516" lon="0.22757">
        <ele>6.4</ele>
        <time>2020-06-17T15:10:47Z</time>
      </trkpt>
      <trkpt lat="49.42515" lon="0.22764">
        <ele>6.4</ele>
        <time>2020-06-17T15:10:48Z</time>
      </trkpt>
      <trkpt lat="49.42513" lon="0.22771">
        <ele>6.4</ele>
        <time>2020-06-17T15:10:49Z</time>
      </trkpt>
      <trkpt lat="49.42511" lon="0.22778">
        <ele>6.4</ele>
        <time>2020-06-17T15:10:50Z</time>
      </trkpt>
      <trkpt lat="49.4251" lon="0.22785">
        <ele>6.4</ele>
        <time>2020-06-17T15:10:51Z</time>
      </trkpt>
      <trkpt lat="49.42508" lon="0.22792">
        <ele>6.4</ele>
        <time>2020-06-17T15:10:52Z</time>
      </trkpt>
      <trkpt lat="49.42506" lon="0.22799">
        <ele>6.4</ele>
        <time>2020-06-17T15:10:53Z</time>
      </trkpt>
      <trkpt lat="49.42504" lon="0.22805">
        <ele>6.4</ele>
        <time>2020-06-17T15:10:54Z</time>
      </trkpt>
      <trkpt lat="49.42503" lon="0.22812">
        <ele>6.4</ele>
        <time>2020-06-17T15:10:55Z</time>
      </trkpt>
      <trkpt lat="49.42499" lon="0.22818">
        <ele>6.4</ele>
        <time>2020-06-17T15:10:56Z</time>
      </trkpt>
      <trkpt lat="49.42497" lon="0.22824">
        <ele>6.3</ele>
        <time>2020-06-17T15:10:57Z</time>
      </trkpt>
      <trkpt lat="49.42494" lon="0.22829">
        <ele>6.3</ele>
        <time>2020-06-17T15:10:58Z</time>
      </trkpt>
      <trkpt lat="49.42492" lon="0.22836">
        <ele>6.3</ele>
        <time>2020-06-17T15:10:59Z</time>
      </trkpt>
      <trkpt lat="49.42492" lon="0.22845">
        <ele>6.3</ele>
        <time>2020-06-17T15:11:00Z</time>
      </trkpt>
      <trkpt lat="49.42489" lon="0.22852">
        <ele>6.3</ele>
        <time>2020-06-17T15:11:01Z</time>
      </trkpt>
      <trkpt lat="49.42486" lon="0.22858">
        <ele>6.4</ele>
        <time>2020-06-17T15:11:02Z</time>
      </trkpt>
      <trkpt lat="49.42483" lon="0.22864">
        <ele>6.4</ele>
        <time>2020-06-17T15:11:03Z</time>
      </trkpt>
      <trkpt lat="49.4248" lon="0.22871">
        <ele>6.5</ele>
        <time>2020-06-17T15:11:04Z</time>
      </trkpt>
      <trkpt lat="49.42477" lon="0.22876">
        <ele>6.6</ele>
        <time>2020-06-17T15:11:05Z</time>
      </trkpt>
      <trkpt lat="49.42474" lon="0.22883">
        <ele>6.6</ele>
        <time>2020-06-17T15:11:06Z</time>
      </trkpt>
      <trkpt lat="49.42471" lon="0.22888">
        <ele>6.7</ele>
        <time>2020-06-17T15:11:07Z</time>
      </trkpt>
      <trkpt lat="49.42469" lon="0.22894">
        <ele>6.7</ele>
        <time>2020-06-17T15:11:08Z</time>
      </trkpt>
      <trkpt lat="49.42468" lon="0.229">
        <ele>6.8</ele>
        <time>2020-06-17T15:11:09Z</time>
      </trkpt>
      <trkpt lat="49.42467" lon="0.22906">
        <ele>6.9</ele>
        <time>2020-06-17T15:11:10Z</time>
      </trkpt>
      <trkpt lat="49.42466" lon="0.22912">
        <ele>6.9</ele>
        <time>2020-06-17T15:11:11Z</time>
      </trkpt>
      <trkpt lat="49.42464" lon="0.22919">
        <ele>7</ele>
        <time>2020-06-17T15:11:12Z</time>
      </trkpt>
      <trkpt lat="49.42462" lon="0.22925">
        <ele>7</ele>
        <time>2020-06-17T15:11:13Z</time>
      </trkpt>
      <trkpt lat="49.42459" lon="0.2293">
        <ele>7</ele>
        <time>2020-06-17T15:11:14Z</time>
      </trkpt>
      <trkpt lat="49.42455" lon="0.22935">
        <ele>6.9</ele>
        <time>2020-06-17T15:11:15Z</time>
      </trkpt>
      <trkpt lat="49.42451" lon="0.22941">
        <ele>6.8</ele>
        <time>2020-06-17T15:11:16Z</time>
      </trkpt>
      <trkpt lat="49.42447" lon="0.22948">
        <ele>6.8</ele>
        <time>2020-06-17T15:11:17Z</time>
      </trkpt>
      <trkpt lat="49.42444" lon="0.22953">
        <ele>6.7</ele>
        <time>2020-06-17T15:11:18Z</time>
      </trkpt>
      <trkpt lat="49.42439" lon="0.22958">
        <ele>6.6</ele>
        <time>2020-06-17T15:11:19Z</time>
      </trkpt>
      <trkpt lat="49.42436" lon="0.22964">
        <ele>6.5</ele>
        <time>2020-06-17T15:11:20Z</time>
      </trkpt>
      <trkpt lat="49.42432" lon="0.22972">
        <ele>6.5</ele>
        <time>2020-06-17T15:11:21Z</time>
      </trkpt>
      <trkpt lat="49.4243" lon="0.22978">
        <ele>6.4</ele>
        <time>2020-06-17T15:11:22Z</time>
      </trkpt>
      <trkpt lat="49.42426" lon="0.22985">
        <ele>6.4</ele>
        <time>2020-06-17T15:11:23Z</time>
      </trkpt>
      <trkpt lat="49.42424" lon="0.22991">
        <ele>6.3</ele>
        <time>2020-06-17T15:11:24Z</time>
      </trkpt>
      <trkpt lat="49.42421" lon="0.22997">
        <ele>6.3</ele>
        <time>2020-06-17T15:11:25Z</time>
      </trkpt>
      <trkpt lat="49.42418" lon="0.23003">
        <ele>6.2</ele>
        <time>2020-06-17T15:11:26Z</time>
      </trkpt>
      <trkpt lat="49.42415" lon="0.23009">
        <ele>6.1</ele>
        <time>2020-06-17T15:11:27Z</time>
      </trkpt>
      <trkpt lat="49.42412" lon="0.23014">
        <ele>6.1</ele>
        <time>2020-06-17T15:11:28Z</time>
      </trkpt>
      <trkpt lat="49.42409" lon="0.2302">
        <ele>6.1</ele>
        <time>2020-06-17T15:11:29Z</time>
      </trkpt>
      <trkpt lat="49.42406" lon="0.23026">
        <ele>6</ele>
        <time>2020-06-17T15:11:30Z</time>
      </trkpt>
      <trkpt lat="49.42404" lon="0.23031">
        <ele>6</ele>
        <time>2020-06-17T15:11:31Z</time>
      </trkpt>
      <trkpt lat="49.42402" lon="0.23037">
        <ele>6</ele>
        <time>2020-06-17T15:11:32Z</time>
      </trkpt>
      <trkpt lat="49.424" lon="0.23042">
        <ele>6</ele>
        <time>2020-06-17T15:11:33Z</time>
      </trkpt>
      <trkpt lat="49.42397" lon="0.23047">
        <ele>6</ele>
        <time>2020-06-17T15:11:34Z</time>
      </trkpt>
      <trkpt lat="49.42395" lon="0.23053">
        <ele>5.9</ele>
        <time>2020-06-17T15:11:35Z</time>
      </trkpt>
      <trkpt lat="49.42392" lon="0.23057">
        <ele>5.9</ele>
        <time>2020-06-17T15:11:36Z</time>
      </trkpt>
      <trkpt lat="49.4239" lon="0.23062">
        <ele>5.9</ele>
        <time>2020-06-17T15:11:37Z</time>
      </trkpt>
      <trkpt lat="49.42388" lon="0.23068">
        <ele>5.8</ele>
        <time>2020-06-17T15:11:38Z</time>
      </trkpt>
      <trkpt lat="49.42385" lon="0.23073">
        <ele>5.8</ele>
        <time>2020-06-17T15:11:39Z</time>
      </trkpt>
      <trkpt lat="49.42382" lon="0.23078">
        <ele>5.8</ele>
        <time>2020-06-17T15:11:40Z</time>
      </trkpt>
      <trkpt lat="49.42378" lon="0.23083">
        <ele>5.8</ele>
        <time>2020-06-17T15:11:41Z</time>
      </trkpt>
      <trkpt lat="49.42375" lon="0.23089">
        <ele>5.8</ele>
        <time>2020-06-17T15:11:42Z</time>
      </trkpt>
      <trkpt lat="49.42372" lon="0.23093">
        <ele>5.8</ele>
        <time>2020-06-17T15:11:43Z</time>
      </trkpt>
      <trkpt lat="49.4237" lon="0.23096">
        <ele>5.7</ele>
        <time>2020-06-17T15:11:44Z</time>
      </trkpt>
      <trkpt lat="49.42369" lon="0.231">
        <ele>5.7</ele>
        <time>2020-06-17T15:11:45Z</time>
      </trkpt>
      <trkpt lat="49.42369" lon="0.23101">
        <ele>5.7</ele>
        <time>2020-06-17T15:11:46Z</time>
      </trkpt>
      <trkpt lat="49.42369" lon="0.23102">
        <ele>5.7</ele>
        <time>2020-06-17T15:11:47Z</time>
      </trkpt>
      <trkpt lat="49.42368" lon="0.23102">
        <ele>5.7</ele>
        <time>2020-06-17T15:11:48Z</time>
      </trkpt>
      <trkpt lat="49.42368" lon="0.23103">
        <ele>5.7</ele>
        <time>2020-06-17T15:11:49Z</time>
      </trkpt>
      <trkpt lat="49.42367" lon="0.23104">
        <ele>5.7</ele>
        <time>2020-06-17T15:11:50Z</time>
      </trkpt>
      <trkpt lat="49.42367" lon="0.23104">
        <ele>5.7</ele>
        <time>2020-06-17T15:11:51Z</time>
      </trkpt>
      <trkpt lat="49.42367" lon="0.23105">
        <ele>5.7</ele>
        <time>2020-06-17T15:11:52Z</time>
      </trkpt>
      <trkpt lat="49.42366" lon="0.23106">
        <ele>5.7</ele>
        <time>2020-06-17T15:11:53Z</time>
      </trkpt>
      <trkpt lat="49.42366" lon="0.23106">
        <ele>5.7</ele>
        <time>2020-06-17T15:11:54Z</time>
      </trkpt>
      <trkpt lat="49.42365" lon="0.23107">
        <ele>5.7</ele>
        <time>2020-06-17T15:11:55Z</time>
      </trkpt>
      <trkpt lat="49.42365" lon="0.23108">
        <ele>5.7</ele>
        <time>2020-06-17T15:11:56Z</time>
      </trkpt>
      <trkpt lat="49.42364" lon="0.23108">
        <ele>5.7</ele>
        <time>2020-06-17T15:11:57Z</time>
      </trkpt>
      <trkpt lat="49.42364" lon="0.23109">
        <ele>5.7</ele>
        <time>2020-06-17T15:12:49Z</time>
      </trkpt>
      <trkpt lat="49.42363" lon="0.2311">
        <ele>5.7</ele>
        <time>2020-06-17T15:12:50Z</time>
      </trkpt>
      <trkpt lat="49.42363" lon="0.2311">
        <ele>5.7</ele>
        <time>2020-06-17T15:12:51Z</time>
      </trkpt>
      <trkpt lat="49.4236" lon="0.23112">
        <ele>5.7</ele>
        <time>2020-06-17T15:12:52Z</time>
      </trkpt>
      <trkpt lat="49.42359" lon="0.23113">
        <ele>5.7</ele>
        <time>2020-06-17T15:12:53Z</time>
      </trkpt>
      <trkpt lat="49.42356" lon="0.23117">
        <ele>5.7</ele>
        <time>2020-06-17T15:12:54Z</time>
      </trkpt>
      <trkpt lat="49.42355" lon="0.23119">
        <ele>5.7</ele>
        <time>2020-06-17T15:12:55Z</time>
      </trkpt>
      <trkpt lat="49.42353" lon="0.23122">
        <ele>5.7</ele>
        <time>2020-06-17T15:12:56Z</time>
      </trkpt>
      <trkpt lat="49.42351" lon="0.23126">
        <ele>5.7</ele>
        <time>2020-06-17T15:12:57Z</time>
      </trkpt>
      <trkpt lat="49.42348" lon="0.23129">
        <ele>5.7</ele>
        <time>2020-06-17T15:12:58Z</time>
      </trkpt>
      <trkpt lat="49.42346" lon="0.23134">
        <ele>5.7</ele>
        <time>2020-06-17T15:12:59Z</time>
      </trkpt>
      <trkpt lat="49.42344" lon="0.23139">
        <ele>5.7</ele>
        <time>2020-06-17T15:13:00Z</time>
      </trkpt>
      <trkpt lat="49.42342" lon="0.23143">
        <ele>5.7</ele>
        <time>2020-06-17T15:13:01Z</time>
      </trkpt>
      <trkpt lat="49.4234" lon="0.23149">
        <ele>5.7</ele>
        <time>2020-06-17T15:13:02Z</time>
      </trkpt>
      <trkpt lat="49.42338" lon="0.23154">
        <ele>5.7</ele>
        <time>2020-06-17T15:13:03Z</time>
      </trkpt>
      <trkpt lat="49.42335" lon="0.23158">
        <ele>5.7</ele>
        <time>2020-06-17T15:13:04Z</time>
      </trkpt>
      <trkpt lat="49.42333" lon="0.23163">
        <ele>5.8</ele>
        <time>2020-06-17T15:13:05Z</time>
      </trkpt>
      <trkpt lat="49.42331" lon="0.23168">
        <ele>5.8</ele>
        <time>2020-06-17T15:13:06Z</time>
      </trkpt>
      <trkpt lat="49.42328" lon="0.23172">
        <ele>5.9</ele>
        <time>2020-06-17T15:13:07Z</time>
      </trkpt>
      <trkpt lat="49.42326" lon="0.23176">
        <ele>5.9</ele>
        <time>2020-06-17T15:13:08Z</time>
      </trkpt>
      <trkpt lat="49.42324" lon="0.23181">
        <ele>6</ele>
        <time>2020-06-17T15:13:09Z</time>
      </trkpt>
      <trkpt lat="49.42322" lon="0.23185">
        <ele>6</ele>
        <time>2020-06-17T15:13:10Z</time>
      </trkpt>
      <trkpt lat="49.4232" lon="0.2319">
        <ele>6.1</ele>
        <time>2020-06-17T15:13:11Z</time>
      </trkpt>
      <trkpt lat="49.42317" lon="0.23194">
        <ele>6.2</ele>
        <time>2020-06-17T15:13:12Z</time>
      </trkpt>
      <trkpt lat="49.42314" lon="0.23199">
        <ele>6.1</ele>
        <time>2020-06-17T15:13:13Z</time>
      </trkpt>
      <trkpt lat="49.42312" lon="0.23204">
        <ele>6.1</ele>
        <time>2020-06-17T15:13:14Z</time>
      </trkpt>
      <trkpt lat="49.42309" lon="0.23208">
        <ele>6.1</ele>
        <time>2020-06-17T15:13:15Z</time>
      </trkpt>
      <trkpt lat="49.42306" lon="0.23213">
        <ele>6.1</ele>
        <time>2020-06-17T15:13:16Z</time>
      </trkpt>
      <trkpt lat="49.42303" lon="0.23217">
        <ele>6.1</ele>
        <time>2020-06-17T15:13:17Z</time>
      </trkpt>
      <trkpt lat="49.423" lon="0.23223">
        <ele>6.1</ele>
        <time>2020-06-17T15:13:18Z</time>
      </trkpt>
      <trkpt lat="49.42297" lon="0.23227">
        <ele>6.1</ele>
        <time>2020-06-17T15:13:19Z</time>
      </trkpt>
      <trkpt lat="49.42295" lon="0.23233">
        <ele>6</ele>
        <time>2020-06-17T15:13:20Z</time>
      </trkpt>
      <trkpt lat="49.42292" lon="0.23239">
        <ele>6</ele>
        <time>2020-06-17T15:13:21Z</time>
      </trkpt>
      <trkpt lat="49.4229" lon="0.23244">
        <ele>6</ele>
        <time>2020-06-17T15:13:22Z</time>
      </trkpt>
      <trkpt lat="49.42287" lon="0.23251">
        <ele>6</ele>
        <time>2020-06-17T15:13:23Z</time>
      </trkpt>
      <trkpt lat="49.42284" lon="0.23256">
        <ele>6</ele>
        <time>2020-06-17T15:13:24Z</time>
      </trkpt>
      <trkpt lat="49.42281" lon="0.2326">
        <ele>6</ele>
        <time>2020-06-17T15:13:25Z</time>
      </trkpt>
      <trkpt lat="49.42278" lon="0.23266">
        <ele>6</ele>
        <time>2020-06-17T15:13:26Z</time>
      </trkpt>
      <trkpt lat="49.42275" lon="0.23271">
        <ele>6</ele>
        <time>2020-06-17T15:13:27Z</time>
      </trkpt>
      <trkpt lat="49.42272" lon="0.23276">
        <ele>6</ele>
        <time>2020-06-17T15:13:28Z</time>
      </trkpt>
      <trkpt lat="49.42269" lon="0.23282">
        <ele>6</ele>
        <time>2020-06-17T15:13:29Z</time>
      </trkpt>
      <trkpt lat="49.42266" lon="0.23286">
        <ele>5.9</ele>
        <time>2020-06-17T15:13:30Z</time>
      </trkpt>
      <trkpt lat="49.42263" lon="0.23291">
        <ele>5.9</ele>
        <time>2020-06-17T15:13:31Z</time>
      </trkpt>
      <trkpt lat="49.42261" lon="0.23296">
        <ele>5.9</ele>
        <time>2020-06-17T15:13:32Z</time>
      </trkpt>
      <trkpt lat="49.42258" lon="0.23301">
        <ele>6</ele>
        <time>2020-06-17T15:13:33Z</time>
      </trkpt>
      <trkpt lat="49.42255" lon="0.23307">
        <ele>6</ele>
        <time>2020-06-17T15:13:34Z</time>
      </trkpt>
      <trkpt lat="49.42252" lon="0.23312">
        <ele>6</ele>
        <time>2020-06-17T15:13:35Z</time>
      </trkpt>
      <trkpt lat="49.42249" lon="0.23317">
        <ele>6</ele>
        <time>2020-06-17T15:13:36Z</time>
      </trkpt>
      <trkpt lat="49.42246" lon="0.23321">
        <ele>6.1</ele>
        <time>2020-06-17T15:13:37Z</time>
      </trkpt>
      <trkpt lat="49.42244" lon="0.23325">
        <ele>6.1</ele>
        <time>2020-06-17T15:13:38Z</time>
      </trkpt>
      <trkpt lat="49.42241" lon="0.23329">
        <ele>6.1</ele>
        <time>2020-06-17T15:13:39Z</time>
      </trkpt>
      <trkpt lat="49.42238" lon="0.23333">
        <ele>6.2</ele>
        <time>2020-06-17T15:13:40Z</time>
      </trkpt>
      <trkpt lat="49.42236" lon="0.23337">
        <ele>6.2</ele>
        <time>2020-06-17T15:13:41Z</time>
      </trkpt>
      <trkpt lat="49.42234" lon="0.23341">
        <ele>6.2</ele>
        <time>2020-06-17T15:13:42Z</time>
      </trkpt>
      <trkpt lat="49.42232" lon="0.23345">
        <ele>6.2</ele>
        <time>2020-06-17T15:13:43Z</time>
      </trkpt>
      <trkpt lat="49.4223" lon="0.23349">
        <ele>6.2</ele>
        <time>2020-06-17T15:13:44Z</time>
      </trkpt>
      <trkpt lat="49.42229" lon="0.23353">
        <ele>6.2</ele>
        <time>2020-06-17T15:13:45Z</time>
      </trkpt>
      <trkpt lat="49.42228" lon="0.23355">
        <ele>6.2</ele>
        <time>2020-06-17T15:13:46Z</time>
      </trkpt>
      <trkpt lat="49.42225" lon="0.23358">
        <ele>6.2</ele>
        <time>2020-06-17T15:13:47Z</time>
      </trkpt>
      <trkpt lat="49.42224" lon="0.23359">
        <ele>6.2</ele>
        <time>2020-06-17T15:13:48Z</time>
      </trkpt>
      <trkpt lat="49.42222" lon="0.23363">
        <ele>6.2</ele>
        <time>2020-06-17T15:13:49Z</time>
      </trkpt>
      <trkpt lat="49.42222" lon="0.23365">
        <ele>6.2</ele>
        <time>2020-06-17T15:13:50Z</time>
      </trkpt>
      <trkpt lat="49.42219" lon="0.23368">
        <ele>6.1</ele>
        <time>2020-06-17T15:13:51Z</time>
      </trkpt>
      <trkpt lat="49.42218" lon="0.23369">
        <ele>6.1</ele>
        <time>2020-06-17T15:13:52Z</time>
      </trkpt>
      <trkpt lat="49.42215" lon="0.2337">
        <ele>6.1</ele>
        <time>2020-06-17T15:13:53Z</time>
      </trkpt>
      <trkpt lat="49.42213" lon="0.23375">
        <ele>6.1</ele>
        <time>2020-06-17T15:13:54Z</time>
      </trkpt>
      <trkpt lat="49.42212" lon="0.23377">
        <ele>6</ele>
        <time>2020-06-17T15:13:55Z</time>
      </trkpt>
      <trkpt lat="49.42211" lon="0.23381">
        <ele>6</ele>
        <time>2020-06-17T15:13:56Z</time>
      </trkpt>
      <trkpt lat="49.42209" lon="0.23385">
        <ele>6</ele>
        <time>2020-06-17T15:13:57Z</time>
      </trkpt>
      <trkpt lat="49.42208" lon="0.23387">
        <ele>6</ele>
        <time>2020-06-17T15:13:58Z</time>
      </trkpt>
      <trkpt lat="49.42206" lon="0.23391">
        <ele>6</ele>
        <time>2020-06-17T15:13:59Z</time>
      </trkpt>
      <trkpt lat="49.42206" lon="0.23392">
        <ele>6</ele>
        <time>2020-06-17T15:14:00Z</time>
      </trkpt>
      <trkpt lat="49.42204" lon="0.23396">
        <ele>6</ele>
        <time>2020-06-17T15:14:01Z</time>
      </trkpt>
      <trkpt lat="49.42204" lon="0.23397">
        <ele>6</ele>
        <time>2020-06-17T15:14:02Z</time>
      </trkpt>
      <trkpt lat="49.42203" lon="0.23399">
        <ele>6</ele>
        <time>2020-06-17T15:14:03Z</time>
      </trkpt>
      <trkpt lat="49.42203" lon="0.23401">
        <ele>6</ele>
        <time>2020-06-17T15:14:04Z</time>
      </trkpt>
      <trkpt lat="49.42203" lon="0.23402">
        <ele>6</ele>
        <time>2020-06-17T15:14:05Z</time>
      </trkpt>
      <trkpt lat="49.42202" lon="0.23403">
        <ele>6</ele>
        <time>2020-06-17T15:14:06Z</time>
      </trkpt>
      <trkpt lat="49.42201" lon="0.23403">
        <ele>6</ele>
        <time>2020-06-17T15:14:07Z</time>
      </trkpt>
      <trkpt lat="49.422" lon="0.23404">
        <ele>6</ele>
        <time>2020-06-17T15:14:08Z</time>
      </trkpt>
      <trkpt lat="49.42199" lon="0.23404">
        <ele>6</ele>
        <time>2020-06-17T15:14:09Z</time>
      </trkpt>
      <trkpt lat="49.42198" lon="0.23405">
        <ele>6</ele>
        <time>2020-06-17T15:14:10Z</time>
      </trkpt>
      <trkpt lat="49.42197" lon="0.23405">
        <ele>6</ele>
        <time>2020-06-17T15:14:11Z</time>
      </trkpt>
      <trkpt lat="49.42197" lon="0.23406">
        <ele>6</ele>
        <time>2020-06-17T15:14:12Z</time>
      </trkpt>
      <trkpt lat="49.42196" lon="0.23406">
        <ele>6</ele>
        <time>2020-06-17T15:14:13Z</time>
      </trkpt>
      <trkpt lat="49.42195" lon="0.23407">
        <ele>6</ele>
        <time>2020-06-17T15:14:14Z</time>
      </trkpt>
      <trkpt lat="49.42194" lon="0.23407">
        <ele>6</ele>
        <time>2020-06-17T15:14:15Z</time>
      </trkpt>
      <trkpt lat="49.42193" lon="0.23408">
        <ele>6</ele>
        <time>2020-06-17T15:14:16Z</time>
      </trkpt>
      <trkpt lat="49.42192" lon="0.23408">
        <ele>6</ele>
        <time>2020-06-17T15:18:37Z</time>
      </trkpt>
      <trkpt lat="49.42191" lon="0.23409">
        <ele>6</ele>
        <time>2020-06-17T15:18:38Z</time>
      </trkpt>
      <trkpt lat="49.4219" lon="0.23409">
        <ele>6</ele>
        <time>2020-06-17T15:18:39Z</time>
      </trkpt>
      <trkpt lat="49.42187" lon="0.23409">
        <ele>6</ele>
        <time>2020-06-17T15:18:40Z</time>
      </trkpt>
      <trkpt lat="49.42186" lon="0.23409">
        <ele>6.1</ele>
        <time>2020-06-17T15:18:41Z</time>
      </trkpt>
      <trkpt lat="49.42182" lon="0.23407">
        <ele>6.1</ele>
        <time>2020-06-17T15:18:42Z</time>
      </trkpt>
      <trkpt lat="49.4218" lon="0.23407">
        <ele>6.1</ele>
        <time>2020-06-17T15:18:43Z</time>
      </trkpt>
      <trkpt lat="49.42178" lon="0.23405">
        <ele>6.2</ele>
        <time>2020-06-17T15:18:44Z</time>
      </trkpt>
      <trkpt lat="49.42175" lon="0.23404">
        <ele>6.2</ele>
        <time>2020-06-17T15:18:45Z</time>
      </trkpt>
      <trkpt lat="49.42171" lon="0.23402">
        <ele>6.3</ele>
        <time>2020-06-17T15:18:46Z</time>
      </trkpt>
      <trkpt lat="49.42169" lon="0.23398">
        <ele>6.3</ele>
        <time>2020-06-17T15:18:47Z</time>
      </trkpt>
      <trkpt lat="49.42166" lon="0.23393">
        <ele>6.4</ele>
        <time>2020-06-17T15:18:48Z</time>
      </trkpt>
      <trkpt lat="49.42163" lon="0.23389">
        <ele>6.5</ele>
        <time>2020-06-17T15:18:49Z</time>
      </trkpt>
      <trkpt lat="49.4216" lon="0.23386">
        <ele>6.6</ele>
        <time>2020-06-17T15:18:50Z</time>
      </trkpt>
      <trkpt lat="49.42157" lon="0.23382">
        <ele>6.7</ele>
        <time>2020-06-17T15:18:51Z</time>
      </trkpt>
      <trkpt lat="49.42153" lon="0.23377">
        <ele>6.8</ele>
        <time>2020-06-17T15:18:52Z</time>
      </trkpt>
      <trkpt lat="49.4215" lon="0.23371">
        <ele>6.9</ele>
        <time>2020-06-17T15:18:53Z</time>
      </trkpt>
      <trkpt lat="49.42147" lon="0.23367">
        <ele>7</ele>
        <time>2020-06-17T15:18:54Z</time>
      </trkpt>
      <trkpt lat="49.42144" lon="0.23362">
        <ele>7.1</ele>
        <time>2020-06-17T15:18:55Z</time>
      </trkpt>
      <trkpt lat="49.42142" lon="0.23358">
        <ele>7.2</ele>
        <time>2020-06-17T15:18:56Z</time>
      </trkpt>
      <trkpt lat="49.4214" lon="0.23355">
        <ele>7.3</ele>
        <time>2020-06-17T15:18:57Z</time>
      </trkpt>
      <trkpt lat="49.42138" lon="0.2335">
        <ele>7.4</ele>
        <time>2020-06-17T15:18:58Z</time>
      </trkpt>
      <trkpt lat="49.42137" lon="0.23349">
        <ele>7.4</ele>
        <time>2020-06-17T15:18:59Z</time>
      </trkpt>
      <trkpt lat="49.42135" lon="0.23347">
        <ele>7.5</ele>
        <time>2020-06-17T15:19:00Z</time>
      </trkpt>
      <trkpt lat="49.42134" lon="0.23347">
        <ele>7.5</ele>
        <time>2020-06-17T15:19:01Z</time>
      </trkpt>
      <trkpt lat="49.42133" lon="0.23346">
        <ele>7.5</ele>
        <time>2020-06-17T15:19:02Z</time>
      </trkpt>
      <trkpt lat="49.42131" lon="0.23347">
        <ele>7.5</ele>
        <time>2020-06-17T15:19:03Z</time>
      </trkpt>
      <trkpt lat="49.4213" lon="0.23349">
        <ele>7.5</ele>
        <time>2020-06-17T15:19:04Z</time>
      </trkpt>
      <trkpt lat="49.42127" lon="0.23354">
        <ele>7.4</ele>
        <time>2020-06-17T15:19:05Z</time>
      </trkpt>
      <trkpt lat="49.42126" lon="0.23355">
        <ele>7.4</ele>
        <time>2020-06-17T15:19:06Z</time>
      </trkpt>
      <trkpt lat="49.42123" lon="0.23359">
        <ele>7.3</ele>
        <time>2020-06-17T15:19:07Z</time>
      </trkpt>
      <trkpt lat="49.4212" lon="0.23362">
        <ele>7.2</ele>
        <time>2020-06-17T15:19:08Z</time>
      </trkpt>
      <trkpt lat="49.42118" lon="0.23366">
        <ele>7.1</ele>
        <time>2020-06-17T15:19:09Z</time>
      </trkpt>
      <trkpt lat="49.42117" lon="0.23367">
        <ele>7.1</ele>
        <time>2020-06-17T15:19:10Z</time>
      </trkpt>
      <trkpt lat="49.42114" lon="0.23371">
        <ele>7</ele>
        <time>2020-06-17T15:19:11Z</time>
      </trkpt>
      <trkpt lat="49.42111" lon="0.23375">
        <ele>6.9</ele>
        <time>2020-06-17T15:19:12Z</time>
      </trkpt>
      <trkpt lat="49.42109" lon="0.23378">
        <ele>6.8</ele>
        <time>2020-06-17T15:19:13Z</time>
      </trkpt>
      <trkpt lat="49.42107" lon="0.23379">
        <ele>6.8</ele>
        <time>2020-06-17T15:19:14Z</time>
      </trkpt>
      <trkpt lat="49.42105" lon="0.23383">
        <ele>6.7</ele>
        <time>2020-06-17T15:19:15Z</time>
      </trkpt>
      <trkpt lat="49.42102" lon="0.23385">
        <ele>6.7</ele>
        <time>2020-06-17T15:19:16Z</time>
      </trkpt>
      <trkpt lat="49.42102" lon="0.23387">
        <ele>6.6</ele>
        <time>2020-06-17T15:19:17Z</time>
      </trkpt>
      <trkpt lat="49.42098" lon="0.2339">
        <ele>6.5</ele>
        <time>2020-06-17T15:19:18Z</time>
      </trkpt>
      <trkpt lat="49.42097" lon="0.23391">
        <ele>6.5</ele>
        <time>2020-06-17T15:19:19Z</time>
      </trkpt>
      <trkpt lat="49.42095" lon="0.23394">
        <ele>6.4</ele>
        <time>2020-06-17T15:19:20Z</time>
      </trkpt>
      <trkpt lat="49.42093" lon="0.23396">
        <ele>6.4</ele>
        <time>2020-06-17T15:19:21Z</time>
      </trkpt>
      <trkpt lat="49.42092" lon="0.23396">
        <ele>6.4</ele>
        <time>2020-06-17T15:19:22Z</time>
      </trkpt>
      <trkpt lat="49.42091" lon="0.23397">
        <ele>6.4</ele>
        <time>2020-06-17T15:19:23Z</time>
      </trkpt>
      <trkpt lat="49.42088" lon="0.23401">
        <ele>6.3</ele>
        <time>2020-06-17T15:19:24Z</time>
      </trkpt>
      <trkpt lat="49.42087" lon="0.23402">
        <ele>6.3</ele>
        <time>2020-06-17T15:19:25Z</time>
      </trkpt>
      <trkpt lat="49.42084" lon="0.23407">
        <ele>6.2</ele>
        <time>2020-06-17T15:19:26Z</time>
      </trkpt>
      <trkpt lat="49.42082" lon="0.23412">
        <ele>6.1</ele>
        <time>2020-06-17T15:19:27Z</time>
      </trkpt>
      <trkpt lat="49.4208" lon="0.23416">
        <ele>6.1</ele>
        <time>2020-06-17T15:19:28Z</time>
      </trkpt>
      <trkpt lat="49.42077" lon="0.2342">
        <ele>6.1</ele>
        <time>2020-06-17T15:19:29Z</time>
      </trkpt>
      <trkpt lat="49.42074" lon="0.23423">
        <ele>6</ele>
        <time>2020-06-17T15:19:30Z</time>
      </trkpt>
      <trkpt lat="49.4207" lon="0.23427">
        <ele>6</ele>
        <time>2020-06-17T15:19:31Z</time>
      </trkpt>
      <trkpt lat="49.42067" lon="0.23432">
        <ele>6</ele>
        <time>2020-06-17T15:19:32Z</time>
      </trkpt>
      <trkpt lat="49.42063" lon="0.23435">
        <ele>5.9</ele>
        <time>2020-06-17T15:19:33Z</time>
      </trkpt>
      <trkpt lat="49.4206" lon="0.23439">
        <ele>5.9</ele>
        <time>2020-06-17T15:19:34Z</time>
      </trkpt>
      <trkpt lat="49.42057" lon="0.23441">
        <ele>5.8</ele>
        <time>2020-06-17T15:19:35Z</time>
      </trkpt>
      <trkpt lat="49.42053" lon="0.23445">
        <ele>5.8</ele>
        <time>2020-06-17T15:19:36Z</time>
      </trkpt>
      <trkpt lat="49.42049" lon="0.23449">
        <ele>5.7</ele>
        <time>2020-06-17T15:19:37Z</time>
      </trkpt>
      <trkpt lat="49.42046" lon="0.23454">
        <ele>5.7</ele>
        <time>2020-06-17T15:19:38Z</time>
      </trkpt>
      <trkpt lat="49.42043" lon="0.23459">
        <ele>5.7</ele>
        <time>2020-06-17T15:19:39Z</time>
      </trkpt>
      <trkpt lat="49.42039" lon="0.23463">
        <ele>5.7</ele>
        <time>2020-06-17T15:19:40Z</time>
      </trkpt>
      <trkpt lat="49.42036" lon="0.23466">
        <ele>5.7</ele>
        <time>2020-06-17T15:19:41Z</time>
      </trkpt>
      <trkpt lat="49.42033" lon="0.23471">
        <ele>5.7</ele>
        <time>2020-06-17T15:19:42Z</time>
      </trkpt>
      <trkpt lat="49.4203" lon="0.23475">
        <ele>5.7</ele>
        <time>2020-06-17T15:19:43Z</time>
      </trkpt>
      <trkpt lat="49.42027" lon="0.23479">
        <ele>5.7</ele>
        <time>2020-06-17T15:19:44Z</time>
      </trkpt>
      <trkpt lat="49.42023" lon="0.23483">
        <ele>5.7</ele>
        <time>2020-06-17T15:19:45Z</time>
      </trkpt>
      <trkpt lat="49.4202" lon="0.23487">
        <ele>5.7</ele>
        <time>2020-06-17T15:19:46Z</time>
      </trkpt>
      <trkpt lat="49.42018" lon="0.23492">
        <ele>5.7</ele>
        <time>2020-06-17T15:19:47Z</time>
      </trkpt>
      <trkpt lat="49.42015" lon="0.23496">
        <ele>5.7</ele>
        <time>2020-06-17T15:19:48Z</time>
      </trkpt>
      <trkpt lat="49.42013" lon="0.235">
        <ele>5.7</ele>
        <time>2020-06-17T15:19:49Z</time>
      </trkpt>
      <trkpt lat="49.42009" lon="0.23504">
        <ele>5.7</ele>
        <time>2020-06-17T15:19:50Z</time>
      </trkpt>
      <trkpt lat="49.42006" lon="0.2351">
        <ele>5.7</ele>
        <time>2020-06-17T15:19:51Z</time>
      </trkpt>
      <trkpt lat="49.42003" lon="0.23516">
        <ele>5.7</ele>
        <time>2020-06-17T15:19:52Z</time>
      </trkpt>
      <trkpt lat="49.42" lon="0.23521">
        <ele>5.7</ele>
        <time>2020-06-17T15:19:53Z</time>
      </trkpt>
      <trkpt lat="49.41996" lon="0.23527">
        <ele>5.7</ele>
        <time>2020-06-17T15:19:54Z</time>
      </trkpt>
      <trkpt lat="49.41993" lon="0.23534">
        <ele>5.7</ele>
        <time>2020-06-17T15:19:55Z</time>
      </trkpt>
      <trkpt lat="49.4199" lon="0.23539">
        <ele>5.7</ele>
        <time>2020-06-17T15:19:56Z</time>
      </trkpt>
      <trkpt lat="49.41985" lon="0.23547">
        <ele>5.6</ele>
        <time>2020-06-17T15:19:57Z</time>
      </trkpt>
      <trkpt lat="49.41981" lon="0.23551">
        <ele>5.6</ele>
        <time>2020-06-17T15:19:58Z</time>
      </trkpt>
      <trkpt lat="49.41978" lon="0.23556">
        <ele>5.7</ele>
        <time>2020-06-17T15:19:59Z</time>
      </trkpt>
      <trkpt lat="49.41975" lon="0.23562">
        <ele>5.7</ele>
        <time>2020-06-17T15:20:00Z</time>
      </trkpt>
      <trkpt lat="49.41973" lon="0.23566">
        <ele>5.8</ele>
        <time>2020-06-17T15:20:01Z</time>
      </trkpt>
      <trkpt lat="49.4197" lon="0.23569">
        <ele>5.8</ele>
        <time>2020-06-17T15:20:02Z</time>
      </trkpt>
      <trkpt lat="49.41967" lon="0.23573">
        <ele>5.9</ele>
        <time>2020-06-17T15:20:03Z</time>
      </trkpt>
      <trkpt lat="49.41963" lon="0.23575">
        <ele>5.9</ele>
        <time>2020-06-17T15:20:04Z</time>
      </trkpt>
      <trkpt lat="49.41958" lon="0.23576">
        <ele>6</ele>
        <time>2020-06-17T15:20:05Z</time>
      </trkpt>
      <trkpt lat="49.41953" lon="0.23576">
        <ele>6.1</ele>
        <time>2020-06-17T15:20:06Z</time>
      </trkpt>
      <trkpt lat="49.41948" lon="0.23577">
        <ele>6.1</ele>
        <time>2020-06-17T15:20:07Z</time>
      </trkpt>
      <trkpt lat="49.41942" lon="0.23578">
        <ele>6.2</ele>
        <time>2020-06-17T15:20:08Z</time>
      </trkpt>
      <trkpt lat="49.41937" lon="0.23576">
        <ele>6.2</ele>
        <time>2020-06-17T15:20:09Z</time>
      </trkpt>
      <trkpt lat="49.41933" lon="0.23576">
        <ele>6.2</ele>
        <time>2020-06-17T15:20:10Z</time>
      </trkpt>
      <trkpt lat="49.41928" lon="0.23575">
        <ele>6.3</ele>
        <time>2020-06-17T15:20:11Z</time>
      </trkpt>
      <trkpt lat="49.41924" lon="0.23573">
        <ele>6.3</ele>
        <time>2020-06-17T15:20:12Z</time>
      </trkpt>
      <trkpt lat="49.4192" lon="0.23573">
        <ele>6.3</ele>
        <time>2020-06-17T15:20:13Z</time>
      </trkpt>
      <trkpt lat="49.41915" lon="0.2357">
        <ele>6.4</ele>
        <time>2020-06-17T15:20:14Z</time>
      </trkpt>
      <trkpt lat="49.41911" lon="0.23569">
        <ele>6.4</ele>
        <time>2020-06-17T15:20:15Z</time>
      </trkpt>
      <trkpt lat="49.41906" lon="0.23568">
        <ele>6.4</ele>
        <time>2020-06-17T15:20:16Z</time>
      </trkpt>
      <trkpt lat="49.41902" lon="0.23568">
        <ele>6.4</ele>
        <time>2020-06-17T15:20:17Z</time>
      </trkpt>
      <trkpt lat="49.41898" lon="0.23567">
        <ele>6.5</ele>
        <time>2020-06-17T15:20:18Z</time>
      </trkpt>
      <trkpt lat="49.41894" lon="0.23565">
        <ele>6.5</ele>
        <time>2020-06-17T15:20:19Z</time>
      </trkpt>
      <trkpt lat="49.4189" lon="0.23564">
        <ele>6.6</ele>
        <time>2020-06-17T15:20:20Z</time>
      </trkpt>
      <trkpt lat="49.41887" lon="0.23562">
        <ele>6.6</ele>
        <time>2020-06-17T15:20:21Z</time>
      </trkpt>
      <trkpt lat="49.41883" lon="0.23561">
        <ele>6.7</ele>
        <time>2020-06-17T15:20:22Z</time>
      </trkpt>
      <trkpt lat="49.41879" lon="0.2356">
        <ele>6.7</ele>
        <time>2020-06-17T15:20:23Z</time>
      </trkpt>
      <trkpt lat="49.41876" lon="0.23558">
        <ele>6.7</ele>
        <time>2020-06-17T15:20:24Z</time>
      </trkpt>
      <trkpt lat="49.41872" lon="0.23557">
        <ele>6.9</ele>
        <time>2020-06-17T15:20:25Z</time>
      </trkpt>
      <trkpt lat="49.41868" lon="0.23556">
        <ele>6.9</ele>
        <time>2020-06-17T15:20:26Z</time>
      </trkpt>
      <trkpt lat="49.41865" lon="0.23554">
        <ele>7</ele>
        <time>2020-06-17T15:20:27Z</time>
      </trkpt>
      <trkpt lat="49.41861" lon="0.23552">
        <ele>7.1</ele>
        <time>2020-06-17T15:20:28Z</time>
      </trkpt>
      <trkpt lat="49.41856" lon="0.23554">
        <ele>7.3</ele>
        <time>2020-06-17T15:20:29Z</time>
      </trkpt>
      <trkpt lat="49.41851" lon="0.23558">
        <ele>7.4</ele>
        <time>2020-06-17T15:20:30Z</time>
      </trkpt>
      <trkpt lat="49.41848" lon="0.23563">
        <ele>7.5</ele>
        <time>2020-06-17T15:20:31Z</time>
      </trkpt>
      <trkpt lat="49.41845" lon="0.23569">
        <ele>7.6</ele>
        <time>2020-06-17T15:20:32Z</time>
      </trkpt>
      <trkpt lat="49.41844" lon="0.23575">
        <ele>7.6</ele>
        <time>2020-06-17T15:20:33Z</time>
      </trkpt>
      <trkpt lat="49.41843" lon="0.23582">
        <ele>7.7</ele>
        <time>2020-06-17T15:20:34Z</time>
      </trkpt>
      <trkpt lat="49.41843" lon="0.23589">
        <ele>7.8</ele>
        <time>2020-06-17T15:20:35Z</time>
      </trkpt>
      <trkpt lat="49.41842" lon="0.23598">
        <ele>7.9</ele>
        <time>2020-06-17T15:20:36Z</time>
      </trkpt>
      <trkpt lat="49.41841" lon="0.23608">
        <ele>7.9</ele>
        <time>2020-06-17T15:20:37Z</time>
      </trkpt>
      <trkpt lat="49.41842" lon="0.23615">
        <ele>7.8</ele>
        <time>2020-06-17T15:20:38Z</time>
      </trkpt>
      <trkpt lat="49.41843" lon="0.23622">
        <ele>7.7</ele>
        <time>2020-06-17T15:20:39Z</time>
      </trkpt>
      <trkpt lat="49.41844" lon="0.23628">
        <ele>7.6</ele>
        <time>2020-06-17T15:20:40Z</time>
      </trkpt>
      <trkpt lat="49.41846" lon="0.23635">
        <ele>7.5</ele>
        <time>2020-06-17T15:20:41Z</time>
      </trkpt>
      <trkpt lat="49.41847" lon="0.23643">
        <ele>7.4</ele>
        <time>2020-06-17T15:20:42Z</time>
      </trkpt>
      <trkpt lat="49.41849" lon="0.23651">
        <ele>7.2</ele>
        <time>2020-06-17T15:20:43Z</time>
      </trkpt>
      <trkpt lat="49.4185" lon="0.23658">
        <ele>7.1</ele>
        <time>2020-06-17T15:20:44Z</time>
      </trkpt>
      <trkpt lat="49.41852" lon="0.23667">
        <ele>6.9</ele>
        <time>2020-06-17T15:20:45Z</time>
      </trkpt>
      <trkpt lat="49.41854" lon="0.23674">
        <ele>6.8</ele>
        <time>2020-06-17T15:20:46Z</time>
      </trkpt>
      <trkpt lat="49.41855" lon="0.23681">
        <ele>6.7</ele>
        <time>2020-06-17T15:20:47Z</time>
      </trkpt>
      <trkpt lat="49.41856" lon="0.23691">
        <ele>6.6</ele>
        <time>2020-06-17T15:20:48Z</time>
      </trkpt>
      <trkpt lat="49.41856" lon="0.237">
        <ele>6.5</ele>
        <time>2020-06-17T15:20:49Z</time>
      </trkpt>
      <trkpt lat="49.41857" lon="0.23709">
        <ele>6.4</ele>
        <time>2020-06-17T15:20:50Z</time>
      </trkpt>
      <trkpt lat="49.41859" lon="0.2372">
        <ele>6.4</ele>
        <time>2020-06-17T15:20:51Z</time>
      </trkpt>
      <trkpt lat="49.4186" lon="0.23729">
        <ele>6.3</ele>
        <time>2020-06-17T15:20:52Z</time>
      </trkpt>
      <trkpt lat="49.4186" lon="0.23739">
        <ele>6.2</ele>
        <time>2020-06-17T15:20:53Z</time>
      </trkpt>
      <trkpt lat="49.4186" lon="0.23748">
        <ele>6.2</ele>
        <time>2020-06-17T15:20:54Z</time>
      </trkpt>
      <trkpt lat="49.41859" lon="0.23758">
        <ele>6.2</ele>
        <time>2020-06-17T15:20:55Z</time>
      </trkpt>
      <trkpt lat="49.41859" lon="0.23768">
        <ele>6.1</ele>
        <time>2020-06-17T15:20:56Z</time>
      </trkpt>
      <trkpt lat="49.41858" lon="0.23779">
        <ele>6</ele>
        <time>2020-06-17T15:20:57Z</time>
      </trkpt>
      <trkpt lat="49.41857" lon="0.23789">
        <ele>5.9</ele>
        <time>2020-06-17T15:20:58Z</time>
      </trkpt>
      <trkpt lat="49.41856" lon="0.23797">
        <ele>5.9</ele>
        <time>2020-06-17T15:20:59Z</time>
      </trkpt>
      <trkpt lat="49.41852" lon="0.23806">
        <ele>5.9</ele>
        <time>2020-06-17T15:21:00Z</time>
      </trkpt>
      <trkpt lat="49.41848" lon="0.23816">
        <ele>5.9</ele>
        <time>2020-06-17T15:21:01Z</time>
      </trkpt>
      <trkpt lat="49.41845" lon="0.23826">
        <ele>5.9</ele>
        <time>2020-06-17T15:21:02Z</time>
      </trkpt>
      <trkpt lat="49.41841" lon="0.23833">
        <ele>5.9</ele>
        <time>2020-06-17T15:21:03Z</time>
      </trkpt>
      <trkpt lat="49.41838" lon="0.23842">
        <ele>5.9</ele>
        <time>2020-06-17T15:21:04Z</time>
      </trkpt>
      <trkpt lat="49.41834" lon="0.2385">
        <ele>5.9</ele>
        <time>2020-06-17T15:21:05Z</time>
      </trkpt>
      <trkpt lat="49.4183" lon="0.23857">
        <ele>5.8</ele>
        <time>2020-06-17T15:21:06Z</time>
      </trkpt>
      <trkpt lat="49.41826" lon="0.23865">
        <ele>5.8</ele>
        <time>2020-06-17T15:21:07Z</time>
      </trkpt>
      <trkpt lat="49.41822" lon="0.23873">
        <ele>5.8</ele>
        <time>2020-06-17T15:21:08Z</time>
      </trkpt>
      <trkpt lat="49.41818" lon="0.2388">
        <ele>5.7</ele>
        <time>2020-06-17T15:21:09Z</time>
      </trkpt>
      <trkpt lat="49.41814" lon="0.23888">
        <ele>5.7</ele>
        <time>2020-06-17T15:21:10Z</time>
      </trkpt>
      <trkpt lat="49.41811" lon="0.23896">
        <ele>5.7</ele>
        <time>2020-06-17T15:21:11Z</time>
      </trkpt>
      <trkpt lat="49.41808" lon="0.23902">
        <ele>5.6</ele>
        <time>2020-06-17T15:21:12Z</time>
      </trkpt>
      <trkpt lat="49.41804" lon="0.2391">
        <ele>5.6</ele>
        <time>2020-06-17T15:21:13Z</time>
      </trkpt>
      <trkpt lat="49.418" lon="0.23918">
        <ele>5.6</ele>
        <time>2020-06-17T15:21:14Z</time>
      </trkpt>
      <trkpt lat="49.41797" lon="0.23925">
        <ele>5.6</ele>
        <time>2020-06-17T15:21:15Z</time>
      </trkpt>
      <trkpt lat="49.41795" lon="0.23931">
        <ele>5.6</ele>
        <time>2020-06-17T15:21:16Z</time>
      </trkpt>
      <trkpt lat="49.41792" lon="0.23938">
        <ele>5.6</ele>
        <time>2020-06-17T15:21:17Z</time>
      </trkpt>
      <trkpt lat="49.41789" lon="0.23945">
        <ele>5.6</ele>
        <time>2020-06-17T15:21:18Z</time>
      </trkpt>
      <trkpt lat="49.41787" lon="0.23952">
        <ele>5.7</ele>
        <time>2020-06-17T15:21:19Z</time>
      </trkpt>
      <trkpt lat="49.41784" lon="0.2396">
        <ele>5.7</ele>
        <time>2020-06-17T15:21:20Z</time>
      </trkpt>
      <trkpt lat="49.41783" lon="0.23968">
        <ele>5.8</ele>
        <time>2020-06-17T15:21:21Z</time>
      </trkpt>
      <trkpt lat="49.41781" lon="0.23977">
        <ele>5.8</ele>
        <time>2020-06-17T15:21:22Z</time>
      </trkpt>
      <trkpt lat="49.4178" lon="0.23984">
        <ele>5.9</ele>
        <time>2020-06-17T15:21:23Z</time>
      </trkpt>
      <trkpt lat="49.41778" lon="0.23993">
        <ele>7</ele>
        <time>2020-06-17T15:21:24Z</time>
      </trkpt>
      <trkpt lat="49.41775" lon="0.24">
        <ele>6.9</ele>
        <time>2020-06-17T15:21:25Z</time>
      </trkpt>
      <trkpt lat="49.41772" lon="0.24007">
        <ele>6.8</ele>
        <time>2020-06-17T15:21:26Z</time>
      </trkpt>
      <trkpt lat="49.41769" lon="0.24013">
        <ele>6.7</ele>
        <time>2020-06-17T15:21:27Z</time>
      </trkpt>
      <trkpt lat="49.41766" lon="0.24019">
        <ele>6.7</ele>
        <time>2020-06-17T15:21:28Z</time>
      </trkpt>
      <trkpt lat="49.41763" lon="0.24025">
        <ele>6.6</ele>
        <time>2020-06-17T15:21:29Z</time>
      </trkpt>
      <trkpt lat="49.41761" lon="0.2403">
        <ele>6.6</ele>
        <time>2020-06-17T15:21:30Z</time>
      </trkpt>
      <trkpt lat="49.41759" lon="0.24035">
        <ele>6.6</ele>
        <time>2020-06-17T15:21:31Z</time>
      </trkpt>
      <trkpt lat="49.41757" lon="0.2404">
        <ele>6.6</ele>
        <time>2020-06-17T15:21:32Z</time>
      </trkpt>
      <trkpt lat="49.41752" lon="0.24045">
        <ele>6.5</ele>
        <time>2020-06-17T15:21:33Z</time>
      </trkpt>
      <trkpt lat="49.41747" lon="0.2405">
        <ele>6.5</ele>
        <time>2020-06-17T15:21:34Z</time>
      </trkpt>
      <trkpt lat="49.41742" lon="0.24055">
        <ele>6.5</ele>
        <time>2020-06-17T15:21:35Z</time>
      </trkpt>
      <trkpt lat="49.41737" lon="0.2406">
        <ele>6.5</ele>
        <time>2020-06-17T15:21:36Z</time>
      </trkpt>
      <trkpt lat="49.41732" lon="0.24065">
        <ele>6.6</ele>
        <time>2020-06-17T15:21:37Z</time>
      </trkpt>
      <trkpt lat="49.41727" lon="0.24069">
        <ele>6.6</ele>
        <time>2020-06-17T15:21:38Z</time>
      </trkpt>
      <trkpt lat="49.4172" lon="0.24074">
        <ele>6.6</ele>
        <time>2020-06-17T15:21:39Z</time>
      </trkpt>
      <trkpt lat="49.41715" lon="0.24078">
        <ele>6.7</ele>
        <time>2020-06-17T15:21:40Z</time>
      </trkpt>
      <trkpt lat="49.41711" lon="0.24085">
        <ele>6.7</ele>
        <time>2020-06-17T15:21:41Z</time>
      </trkpt>
      <trkpt lat="49.41707" lon="0.24091">
        <ele>6.7</ele>
        <time>2020-06-17T15:21:42Z</time>
      </trkpt>
      <trkpt lat="49.41703" lon="0.24097">
        <ele>6.7</ele>
        <time>2020-06-17T15:21:43Z</time>
      </trkpt>
      <trkpt lat="49.417" lon="0.24105">
        <ele>6.7</ele>
        <time>2020-06-17T15:21:44Z</time>
      </trkpt>
      <trkpt lat="49.41697" lon="0.24113">
        <ele>6.7</ele>
        <time>2020-06-17T15:21:45Z</time>
      </trkpt>
      <trkpt lat="49.41694" lon="0.24121">
        <ele>6.8</ele>
        <time>2020-06-17T15:21:46Z</time>
      </trkpt>
      <trkpt lat="49.41691" lon="0.24127">
        <ele>6.8</ele>
        <time>2020-06-17T15:21:47Z</time>
      </trkpt>
      <trkpt lat="49.41688" lon="0.24134">
        <ele>6.8</ele>
        <time>2020-06-17T15:21:48Z</time>
      </trkpt>
      <trkpt lat="49.41685" lon="0.24141">
        <ele>6.8</ele>
        <time>2020-06-17T15:21:49Z</time>
      </trkpt>
      <trkpt lat="49.41682" lon="0.24148">
        <ele>6.8</ele>
        <time>2020-06-17T15:21:50Z</time>
      </trkpt>
      <trkpt lat="49.41679" lon="0.24156">
        <ele>6.8</ele>
        <time>2020-06-17T15:21:51Z</time>
      </trkpt>
      <trkpt lat="49.41675" lon="0.24164">
        <ele>6.8</ele>
        <time>2020-06-17T15:21:52Z</time>
      </trkpt>
      <trkpt lat="49.41671" lon="0.24171">
        <ele>6.8</ele>
        <time>2020-06-17T15:21:53Z</time>
      </trkpt>
      <trkpt lat="49.41668" lon="0.24178">
        <ele>6.9</ele>
        <time>2020-06-17T15:21:54Z</time>
      </trkpt>
      <trkpt lat="49.41664" lon="0.24186">
        <ele>6.9</ele>
        <time>2020-06-17T15:21:55Z</time>
      </trkpt>
      <trkpt lat="49.41661" lon="0.24193">
        <ele>6.8</ele>
        <time>2020-06-17T15:21:56Z</time>
      </trkpt>
      <trkpt lat="49.41657" lon="0.242">
        <ele>6.8</ele>
        <time>2020-06-17T15:21:57Z</time>
      </trkpt>
      <trkpt lat="49.41654" lon="0.24207">
        <ele>6.8</ele>
        <time>2020-06-17T15:21:58Z</time>
      </trkpt>
      <trkpt lat="49.41651" lon="0.24213">
        <ele>6.8</ele>
        <time>2020-06-17T15:21:59Z</time>
      </trkpt>
      <trkpt lat="49.41647" lon="0.24219">
        <ele>6.8</ele>
        <time>2020-06-17T15:22:00Z</time>
      </trkpt>
      <trkpt lat="49.41644" lon="0.24227">
        <ele>6.8</ele>
        <time>2020-06-17T15:22:01Z</time>
      </trkpt>
      <trkpt lat="49.41641" lon="0.24234">
        <ele>6.9</ele>
        <time>2020-06-17T15:22:02Z</time>
      </trkpt>
      <trkpt lat="49.41637" lon="0.24242">
        <ele>6.9</ele>
        <time>2020-06-17T15:22:03Z</time>
      </trkpt>
      <trkpt lat="49.41634" lon="0.2425">
        <ele>6.9</ele>
        <time>2020-06-17T15:22:04Z</time>
      </trkpt>
      <trkpt lat="49.4163" lon="0.24257">
        <ele>6.9</ele>
        <time>2020-06-17T15:22:05Z</time>
      </trkpt>
      <trkpt lat="49.41627" lon="0.24263">
        <ele>6.9</ele>
        <time>2020-06-17T15:22:06Z</time>
      </trkpt>
      <trkpt lat="49.41624" lon="0.2427">
        <ele>6.9</ele>
        <time>2020-06-17T15:22:07Z</time>
      </trkpt>
      <trkpt lat="49.4162" lon="0.24275">
        <ele>7</ele>
        <time>2020-06-17T15:22:08Z</time>
      </trkpt>
      <trkpt lat="49.41617" lon="0.24282">
        <ele>7</ele>
        <time>2020-06-17T15:22:09Z</time>
      </trkpt>
      <trkpt lat="49.41614" lon="0.24288">
        <ele>7</ele>
        <time>2020-06-17T15:22:10Z</time>
      </trkpt>
      <trkpt lat="49.41611" lon="0.24295">
        <ele>7</ele>
        <time>2020-06-17T15:22:11Z</time>
      </trkpt>
      <trkpt lat="49.41608" lon="0.24301">
        <ele>7</ele>
        <time>2020-06-17T15:22:12Z</time>
      </trkpt>
      <trkpt lat="49.41605" lon="0.24307">
        <ele>7</ele>
        <time>2020-06-17T15:22:13Z</time>
      </trkpt>
      <trkpt lat="49.41602" lon="0.24314">
        <ele>7</ele>
        <time>2020-06-17T15:22:14Z</time>
      </trkpt>
      <trkpt lat="49.41599" lon="0.24319">
        <ele>7</ele>
        <time>2020-06-17T15:22:15Z</time>
      </trkpt>
      <trkpt lat="49.41596" lon="0.24325">
        <ele>7</ele>
        <time>2020-06-17T15:22:16Z</time>
      </trkpt>
      <trkpt lat="49.41595" lon="0.24331">
        <ele>7</ele>
        <time>2020-06-17T15:22:17Z</time>
      </trkpt>
      <trkpt lat="49.41592" lon="0.24336">
        <ele>7</ele>
        <time>2020-06-17T15:22:18Z</time>
      </trkpt>
      <trkpt lat="49.4159" lon="0.24341">
        <ele>7</ele>
        <time>2020-06-17T15:22:19Z</time>
      </trkpt>
      <trkpt lat="49.41589" lon="0.24345">
        <ele>7</ele>
        <time>2020-06-17T15:22:20Z</time>
      </trkpt>
      <trkpt lat="49.41587" lon="0.2435">
        <ele>7.1</ele>
        <time>2020-06-17T15:22:21Z</time>
      </trkpt>
      <trkpt lat="49.41585" lon="0.24355">
        <ele>7.1</ele>
        <time>2020-06-17T15:22:22Z</time>
      </trkpt>
      <trkpt lat="49.41583" lon="0.24358">
        <ele>7.1</ele>
        <time>2020-06-17T15:22:23Z</time>
      </trkpt>
      <trkpt lat="49.41583" lon="0.24365">
        <ele>7.1</ele>
        <time>2020-06-17T15:22:24Z</time>
      </trkpt>
      <trkpt lat="49.41583" lon="0.24369">
        <ele>7.1</ele>
        <time>2020-06-17T15:22:25Z</time>
      </trkpt>
      <trkpt lat="49.41582" lon="0.24374">
        <ele>7.2</ele>
        <time>2020-06-17T15:22:26Z</time>
      </trkpt>
      <trkpt lat="49.41579" lon="0.24378">
        <ele>7.2</ele>
        <time>2020-06-17T15:22:27Z</time>
      </trkpt>
      <trkpt lat="49.41578" lon="0.2438">
        <ele>7.2</ele>
        <time>2020-06-17T15:22:28Z</time>
      </trkpt>
      <trkpt lat="49.41576" lon="0.24385">
        <ele>7.3</ele>
        <time>2020-06-17T15:22:29Z</time>
      </trkpt>
      <trkpt lat="49.41574" lon="0.24388">
        <ele>7.3</ele>
        <time>2020-06-17T15:22:30Z</time>
      </trkpt>
      <trkpt lat="49.41571" lon="0.24392">
        <ele>7.4</ele>
        <time>2020-06-17T15:22:31Z</time>
      </trkpt>
      <trkpt lat="49.41569" lon="0.24397">
        <ele>7.4</ele>
        <time>2020-06-17T15:22:32Z</time>
      </trkpt>
      <trkpt lat="49.41566" lon="0.24401">
        <ele>7.3</ele>
        <time>2020-06-17T15:22:33Z</time>
      </trkpt>
      <trkpt lat="49.41563" lon="0.24406">
        <ele>7.3</ele>
        <time>2020-06-17T15:22:34Z</time>
      </trkpt>
      <trkpt lat="49.41561" lon="0.24411">
        <ele>7.3</ele>
        <time>2020-06-17T15:22:35Z</time>
      </trkpt>
      <trkpt lat="49.41559" lon="0.24416">
        <ele>7.3</ele>
        <time>2020-06-17T15:22:36Z</time>
      </trkpt>
      <trkpt lat="49.41556" lon="0.24422">
        <ele>7.3</ele>
        <time>2020-06-17T15:22:37Z</time>
      </trkpt>
      <trkpt lat="49.41554" lon="0.24427">
        <ele>7.3</ele>
        <time>2020-06-17T15:22:38Z</time>
      </trkpt>
      <trkpt lat="49.41552" lon="0.24431">
        <ele>7.3</ele>
        <time>2020-06-17T15:22:39Z</time>
      </trkpt>
      <trkpt lat="49.4155" lon="0.24435">
        <ele>7.3</ele>
        <time>2020-06-17T15:22:40Z</time>
      </trkpt>
      <trkpt lat="49.41548" lon="0.24439">
        <ele>7.3</ele>
        <time>2020-06-17T15:22:41Z</time>
      </trkpt>
      <trkpt lat="49.41546" lon="0.24442">
        <ele>7.3</ele>
        <time>2020-06-17T15:22:42Z</time>
      </trkpt>
      <trkpt lat="49.41543" lon="0.24447">
        <ele>7.3</ele>
        <time>2020-06-17T15:22:43Z</time>
      </trkpt>
      <trkpt lat="49.41541" lon="0.24451">
        <ele>7.3</ele>
        <time>2020-06-17T15:22:44Z</time>
      </trkpt>
      <trkpt lat="49.41539" lon="0.24456">
        <ele>7.3</ele>
        <time>2020-06-17T15:22:45Z</time>
      </trkpt>
      <trkpt lat="49.41536" lon="0.24461">
        <ele>7.3</ele>
        <time>2020-06-17T15:22:46Z</time>
      </trkpt>
      <trkpt lat="49.41533" lon="0.24466">
        <ele>7.3</ele>
        <time>2020-06-17T15:22:47Z</time>
      </trkpt>
      <trkpt lat="49.4153" lon="0.24473">
        <ele>7.4</ele>
        <time>2020-06-17T15:22:48Z</time>
      </trkpt>
      <trkpt lat="49.41527" lon="0.24478">
        <ele>7.4</ele>
        <time>2020-06-17T15:22:49Z</time>
      </trkpt>
      <trkpt lat="49.41523" lon="0.24484">
        <ele>7.4</ele>
        <time>2020-06-17T15:22:50Z</time>
      </trkpt>
      <trkpt lat="49.4152" lon="0.2449">
        <ele>7.4</ele>
        <time>2020-06-17T15:22:51Z</time>
      </trkpt>
      <trkpt lat="49.41517" lon="0.24494">
        <ele>7.4</ele>
        <time>2020-06-17T15:22:52Z</time>
      </trkpt>
      <trkpt lat="49.41514" lon="0.24501">
        <ele>7.4</ele>
        <time>2020-06-17T15:22:53Z</time>
      </trkpt>
      <trkpt lat="49.41511" lon="0.24505">
        <ele>7.4</ele>
        <time>2020-06-17T15:22:54Z</time>
      </trkpt>
      <trkpt lat="49.41509" lon="0.24508">
        <ele>7.4</ele>
        <time>2020-06-17T15:22:55Z</time>
      </trkpt>
      <trkpt lat="49.41508" lon="0.24513">
        <ele>7.4</ele>
        <time>2020-06-17T15:22:56Z</time>
      </trkpt>
      <trkpt lat="49.41507" lon="0.24518">
        <ele>7.4</ele>
        <time>2020-06-17T15:22:57Z</time>
      </trkpt>
      <trkpt lat="49.41505" lon="0.24523">
        <ele>7.4</ele>
        <time>2020-06-17T15:22:58Z</time>
      </trkpt>
      <trkpt lat="49.41504" lon="0.24525">
        <ele>7.4</ele>
        <time>2020-06-17T15:22:59Z</time>
      </trkpt>
      <trkpt lat="49.41501" lon="0.24528">
        <ele>7.5</ele>
        <time>2020-06-17T15:23:00Z</time>
      </trkpt>
      <trkpt lat="49.415" lon="0.24529">
        <ele>7.5</ele>
        <time>2020-06-17T15:23:01Z</time>
      </trkpt>
      <trkpt lat="49.41498" lon="0.24532">
        <ele>7.5</ele>
        <time>2020-06-17T15:23:02Z</time>
      </trkpt>
      <trkpt lat="49.41496" lon="0.24535">
        <ele>7.5</ele>
        <time>2020-06-17T15:23:03Z</time>
      </trkpt>
      <trkpt lat="49.41494" lon="0.24539">
        <ele>7.5</ele>
        <time>2020-06-17T15:23:04Z</time>
      </trkpt>
      <trkpt lat="49.4149" lon="0.24543">
        <ele>7.5</ele>
        <time>2020-06-17T15:23:05Z</time>
      </trkpt>
      <trkpt lat="49.41487" lon="0.24546">
        <ele>7.5</ele>
        <time>2020-06-17T15:23:06Z</time>
      </trkpt>
      <trkpt lat="49.41484" lon="0.24547">
        <ele>7.5</ele>
        <time>2020-06-17T15:23:07Z</time>
      </trkpt>
      <trkpt lat="49.41482" lon="0.24549">
        <ele>7.5</ele>
        <time>2020-06-17T15:23:08Z</time>
      </trkpt>
      <trkpt lat="49.41481" lon="0.24549">
        <ele>7.5</ele>
        <time>2020-06-17T15:23:09Z</time>
      </trkpt>
      <trkpt lat="49.41481" lon="0.24548">
        <ele>7.5</ele>
        <time>2020-06-17T15:23:10Z</time>
      </trkpt>
      <trkpt lat="49.4148" lon="0.24548">
        <ele>7.5</ele>
        <time>2020-06-17T15:23:11Z</time>
      </trkpt>
      <trkpt lat="49.4148" lon="0.24549">
        <ele>7.5</ele>
        <time>2020-06-17T15:23:12Z</time>
      </trkpt>
      <trkpt lat="49.4148" lon="0.24549">
        <ele>7.5</ele>
        <time>2020-06-17T15:23:13Z</time>
      </trkpt>
      <trkpt lat="49.41479" lon="0.2455">
        <ele>7.5</ele>
        <time>2020-06-17T15:23:14Z</time>
      </trkpt>
      <trkpt lat="49.4148" lon="0.24551">
        <ele>7.5</ele>
        <time>2020-06-17T15:23:15Z</time>
      </trkpt>
      <trkpt lat="49.41479" lon="0.24552">
        <ele>7.6</ele>
        <time>2020-06-17T15:23:16Z</time>
      </trkpt>
      <trkpt lat="49.41478" lon="0.24555">
        <ele>7.6</ele>
        <time>2020-06-17T15:23:17Z</time>
      </trkpt>
      <trkpt lat="49.41478" lon="0.24556">
        <ele>7.6</ele>
        <time>2020-06-17T15:23:18Z</time>
      </trkpt>
      <trkpt lat="49.41477" lon="0.24558">
        <ele>7.6</ele>
        <time>2020-06-17T15:23:19Z</time>
      </trkpt>
      <trkpt lat="49.41476" lon="0.24562">
        <ele>7.6</ele>
        <time>2020-06-17T15:23:20Z</time>
      </trkpt>
      <trkpt lat="49.41474" lon="0.24567">
        <ele>7.6</ele>
        <time>2020-06-17T15:23:21Z</time>
      </trkpt>
      <trkpt lat="49.41473" lon="0.24571">
        <ele>7.6</ele>
        <time>2020-06-17T15:23:22Z</time>
      </trkpt>
      <trkpt lat="49.41471" lon="0.24577">
        <ele>7.7</ele>
        <time>2020-06-17T15:23:23Z</time>
      </trkpt>
      <trkpt lat="49.4147" lon="0.24581">
        <ele>7.7</ele>
        <time>2020-06-17T15:23:24Z</time>
      </trkpt>
      <trkpt lat="49.41468" lon="0.24587">
        <ele>7.7</ele>
        <time>2020-06-17T15:23:25Z</time>
      </trkpt>
      <trkpt lat="49.41466" lon="0.24593">
        <ele>7.6</ele>
        <time>2020-06-17T15:23:26Z</time>
      </trkpt>
      <trkpt lat="49.41465" lon="0.24599">
        <ele>7.6</ele>
        <time>2020-06-17T15:23:27Z</time>
      </trkpt>
      <trkpt lat="49.41462" lon="0.24604">
        <ele>7.6</ele>
        <time>2020-06-17T15:23:28Z</time>
      </trkpt>
      <trkpt lat="49.4146" lon="0.2461">
        <ele>7.6</ele>
        <time>2020-06-17T15:23:29Z</time>
      </trkpt>
      <trkpt lat="49.41457" lon="0.24616">
        <ele>7.6</ele>
        <time>2020-06-17T15:23:30Z</time>
      </trkpt>
      <trkpt lat="49.41454" lon="0.24623">
        <ele>7.6</ele>
        <time>2020-06-17T15:23:31Z</time>
      </trkpt>
      <trkpt lat="49.41452" lon="0.24628">
        <ele>7.6</ele>
        <time>2020-06-17T15:23:32Z</time>
      </trkpt>
      <trkpt lat="49.41449" lon="0.24636">
        <ele>7.6</ele>
        <time>2020-06-17T15:23:33Z</time>
      </trkpt>
      <trkpt lat="49.41446" lon="0.24643">
        <ele>7.6</ele>
        <time>2020-06-17T15:23:34Z</time>
      </trkpt>
      <trkpt lat="49.41443" lon="0.24651">
        <ele>7.6</ele>
        <time>2020-06-17T15:23:35Z</time>
      </trkpt>
      <trkpt lat="49.41441" lon="0.2466">
        <ele>7.6</ele>
        <time>2020-06-17T15:23:36Z</time>
      </trkpt>
      <trkpt lat="49.41438" lon="0.24668">
        <ele>7.6</ele>
        <time>2020-06-17T15:23:37Z</time>
      </trkpt>
      <trkpt lat="49.41434" lon="0.24675">
        <ele>7.6</ele>
        <time>2020-06-17T15:23:38Z</time>
      </trkpt>
      <trkpt lat="49.4143" lon="0.24683">
        <ele>7.6</ele>
        <time>2020-06-17T15:23:39Z</time>
      </trkpt>
      <trkpt lat="49.41427" lon="0.24691">
        <ele>7.6</ele>
        <time>2020-06-17T15:23:40Z</time>
      </trkpt>
      <trkpt lat="49.41424" lon="0.24699">
        <ele>7.5</ele>
        <time>2020-06-17T15:23:41Z</time>
      </trkpt>
      <trkpt lat="49.41421" lon="0.24707">
        <ele>7.5</ele>
        <time>2020-06-17T15:23:42Z</time>
      </trkpt>
      <trkpt lat="49.41417" lon="0.24714">
        <ele>7.5</ele>
        <time>2020-06-17T15:23:43Z</time>
      </trkpt>
      <trkpt lat="49.41414" lon="0.24721">
        <ele>7.6</ele>
        <time>2020-06-17T15:23:44Z</time>
      </trkpt>
      <trkpt lat="49.4141" lon="0.24728">
        <ele>7.6</ele>
        <time>2020-06-17T15:23:45Z</time>
      </trkpt>
      <trkpt lat="49.41406" lon="0.24736">
        <ele>7.6</ele>
        <time>2020-06-17T15:23:46Z</time>
      </trkpt>
      <trkpt lat="49.41401" lon="0.24743">
        <ele>7.6</ele>
        <time>2020-06-17T15:23:47Z</time>
      </trkpt>
      <trkpt lat="49.41398" lon="0.24751">
        <ele>7.6</ele>
        <time>2020-06-17T15:23:48Z</time>
      </trkpt>
      <trkpt lat="49.41393" lon="0.24759">
        <ele>7.6</ele>
        <time>2020-06-17T15:23:49Z</time>
      </trkpt>
      <trkpt lat="49.41389" lon="0.24766">
        <ele>7.6</ele>
        <time>2020-06-17T15:23:50Z</time>
      </trkpt>
      <trkpt lat="49.41385" lon="0.24774">
        <ele>7.6</ele>
        <time>2020-06-17T15:23:51Z</time>
      </trkpt>
      <trkpt lat="49.41382" lon="0.24782">
        <ele>7.6</ele>
        <time>2020-06-17T15:23:52Z</time>
      </trkpt>
      <trkpt lat="49.41379" lon="0.24791">
        <ele>7.6</ele>
        <time>2020-06-17T15:23:53Z</time>
      </trkpt>
      <trkpt lat="49.41375" lon="0.248">
        <ele>7.6</ele>
        <time>2020-06-17T15:23:54Z</time>
      </trkpt>
      <trkpt lat="49.41371" lon="0.2481">
        <ele>7.6</ele>
        <time>2020-06-17T15:23:55Z</time>
      </trkpt>
      <trkpt lat="49.41368" lon="0.24817">
        <ele>7.6</ele>
        <time>2020-06-17T15:23:56Z</time>
      </trkpt>
      <trkpt lat="49.41363" lon="0.24825">
        <ele>7.6</ele>
        <time>2020-06-17T15:23:57Z</time>
      </trkpt>
      <trkpt lat="49.4136" lon="0.24833">
        <ele>7.5</ele>
        <time>2020-06-17T15:23:58Z</time>
      </trkpt>
      <trkpt lat="49.41356" lon="0.24841">
        <ele>7.5</ele>
        <time>2020-06-17T15:23:59Z</time>
      </trkpt>
      <trkpt lat="49.41352" lon="0.2485">
        <ele>7.5</ele>
        <time>2020-06-17T15:24:00Z</time>
      </trkpt>
      <trkpt lat="49.41348" lon="0.24857">
        <ele>7.4</ele>
        <time>2020-06-17T15:24:01Z</time>
      </trkpt>
      <trkpt lat="49.41344" lon="0.24864">
        <ele>7.4</ele>
        <time>2020-06-17T15:24:02Z</time>
      </trkpt>
      <trkpt lat="49.41339" lon="0.24872">
        <ele>7.4</ele>
        <time>2020-06-17T15:24:03Z</time>
      </trkpt>
      <trkpt lat="49.41335" lon="0.2488">
        <ele>7.4</ele>
        <time>2020-06-17T15:24:04Z</time>
      </trkpt>
      <trkpt lat="49.41331" lon="0.24888">
        <ele>7.4</ele>
        <time>2020-06-17T15:24:05Z</time>
      </trkpt>
      <trkpt lat="49.41327" lon="0.24896">
        <ele>7.4</ele>
        <time>2020-06-17T15:24:06Z</time>
      </trkpt>
      <trkpt lat="49.41322" lon="0.24904">
        <ele>7.4</ele>
        <time>2020-06-17T15:24:07Z</time>
      </trkpt>
      <trkpt lat="49.41318" lon="0.24912">
        <ele>7.4</ele>
        <time>2020-06-17T15:24:08Z</time>
      </trkpt>
      <trkpt lat="49.41314" lon="0.2492">
        <ele>7.4</ele>
        <time>2020-06-17T15:24:09Z</time>
      </trkpt>
      <trkpt lat="49.4131" lon="0.24928">
        <ele>7.4</ele>
        <time>2020-06-17T15:24:10Z</time>
      </trkpt>
      <trkpt lat="49.41305" lon="0.24936">
        <ele>7.4</ele>
        <time>2020-06-17T15:24:11Z</time>
      </trkpt>
      <trkpt lat="49.41301" lon="0.24943">
        <ele>7.4</ele>
        <time>2020-06-17T15:24:12Z</time>
      </trkpt>
      <trkpt lat="49.41297" lon="0.24951">
        <ele>7.4</ele>
        <time>2020-06-17T15:24:13Z</time>
      </trkpt>
      <trkpt lat="49.41293" lon="0.24959">
        <ele>7.5</ele>
        <time>2020-06-17T15:24:14Z</time>
      </trkpt>
      <trkpt lat="49.41288" lon="0.24967">
        <ele>7.5</ele>
        <time>2020-06-17T15:24:15Z</time>
      </trkpt>
      <trkpt lat="49.41283" lon="0.24975">
        <ele>7.6</ele>
        <time>2020-06-17T15:24:16Z</time>
      </trkpt>
      <trkpt lat="49.41279" lon="0.24982">
        <ele>7.6</ele>
        <time>2020-06-17T15:24:17Z</time>
      </trkpt>
      <trkpt lat="49.41275" lon="0.2499">
        <ele>7.7</ele>
        <time>2020-06-17T15:24:18Z</time>
      </trkpt>
      <trkpt lat="49.4127" lon="0.24997">
        <ele>7.7</ele>
        <time>2020-06-17T15:24:19Z</time>
      </trkpt>
      <trkpt lat="49.41266" lon="0.25007">
        <ele>7.8</ele>
        <time>2020-06-17T15:24:20Z</time>
      </trkpt>
      <trkpt lat="49.41262" lon="0.25014">
        <ele>7.8</ele>
        <time>2020-06-17T15:24:21Z</time>
      </trkpt>
      <trkpt lat="49.41256" lon="0.25021">
        <ele>7.8</ele>
        <time>2020-06-17T15:24:22Z</time>
      </trkpt>
      <trkpt lat="49.41252" lon="0.25029">
        <ele>7.9</ele>
        <time>2020-06-17T15:24:23Z</time>
      </trkpt>
      <trkpt lat="49.41248" lon="0.25036">
        <ele>7.9</ele>
        <time>2020-06-17T15:24:24Z</time>
      </trkpt>
      <trkpt lat="49.41244" lon="0.25043">
        <ele>8</ele>
        <time>2020-06-17T15:24:25Z</time>
      </trkpt>
      <trkpt lat="49.4124" lon="0.25049">
        <ele>8.1</ele>
        <time>2020-06-17T15:24:26Z</time>
      </trkpt>
      <trkpt lat="49.41236" lon="0.25056">
        <ele>8.1</ele>
        <time>2020-06-17T15:24:27Z</time>
      </trkpt>
      <trkpt lat="49.41232" lon="0.25064">
        <ele>8.2</ele>
        <time>2020-06-17T15:24:28Z</time>
      </trkpt>
      <trkpt lat="49.41228" lon="0.25071">
        <ele>8.2</ele>
        <time>2020-06-17T15:24:29Z</time>
      </trkpt>
      <trkpt lat="49.41224" lon="0.25079">
        <ele>8.3</ele>
        <time>2020-06-17T15:24:30Z</time>
      </trkpt>
      <trkpt lat="49.4122" lon="0.25088">
        <ele>8.4</ele>
        <time>2020-06-17T15:24:31Z</time>
      </trkpt>
      <trkpt lat="49.41216" lon="0.25096">
        <ele>8.4</ele>
        <time>2020-06-17T15:24:32Z</time>
      </trkpt>
      <trkpt lat="49.41212" lon="0.25104">
        <ele>8.4</ele>
        <time>2020-06-17T15:24:33Z</time>
      </trkpt>
      <trkpt lat="49.41209" lon="0.25111">
        <ele>8.4</ele>
        <time>2020-06-17T15:24:34Z</time>
      </trkpt>
      <trkpt lat="49.41205" lon="0.25118">
        <ele>8.4</ele>
        <time>2020-06-17T15:24:35Z</time>
      </trkpt>
      <trkpt lat="49.41201" lon="0.25127">
        <ele>8.5</ele>
        <time>2020-06-17T15:24:36Z</time>
      </trkpt>
      <trkpt lat="49.41198" lon="0.25133">
        <ele>8.6</ele>
        <time>2020-06-17T15:24:37Z</time>
      </trkpt>
      <trkpt lat="49.41194" lon="0.25142">
        <ele>8.7</ele>
        <time>2020-06-17T15:24:38Z</time>
      </trkpt>
      <trkpt lat="49.4119" lon="0.25149">
        <ele>8.8</ele>
        <time>2020-06-17T15:24:39Z</time>
      </trkpt>
      <trkpt lat="49.41187" lon="0.25157">
        <ele>9</ele>
        <time>2020-06-17T15:24:40Z</time>
      </trkpt>
      <trkpt lat="49.41184" lon="0.25166">
        <ele>9.1</ele>
        <time>2020-06-17T15:24:41Z</time>
      </trkpt>
      <trkpt lat="49.41182" lon="0.25174">
        <ele>9.2</ele>
        <time>2020-06-17T15:24:42Z</time>
      </trkpt>
      <trkpt lat="49.4118" lon="0.25181">
        <ele>9.3</ele>
        <time>2020-06-17T15:24:43Z</time>
      </trkpt>
      <trkpt lat="49.41177" lon="0.25187">
        <ele>9.4</ele>
        <time>2020-06-17T15:24:44Z</time>
      </trkpt>
      <trkpt lat="49.41174" lon="0.25194">
        <ele>9.5</ele>
        <time>2020-06-17T15:24:45Z</time>
      </trkpt>
      <trkpt lat="49.41172" lon="0.252">
        <ele>9.6</ele>
        <time>2020-06-17T15:24:46Z</time>
      </trkpt>
      <trkpt lat="49.41169" lon="0.25202">
        <ele>9.6</ele>
        <time>2020-06-17T15:24:47Z</time>
      </trkpt>
      <trkpt lat="49.41166" lon="0.25202">
        <ele>10.3</ele>
        <time>2020-06-17T15:24:48Z</time>
      </trkpt>
      <trkpt lat="49.41161" lon="0.25202">
        <ele>10.3</ele>
        <time>2020-06-17T15:24:49Z</time>
      </trkpt>
      <trkpt lat="49.41157" lon="0.25203">
        <ele>10.3</ele>
        <time>2020-06-17T15:24:50Z</time>
      </trkpt>
      <trkpt lat="49.41153" lon="0.25205">
        <ele>10.3</ele>
        <time>2020-06-17T15:24:51Z</time>
      </trkpt>
      <trkpt lat="49.41149" lon="0.25206">
        <ele>10.3</ele>
        <time>2020-06-17T15:24:52Z</time>
      </trkpt>
      <trkpt lat="49.41146" lon="0.2521">
        <ele>10.4</ele>
        <time>2020-06-17T15:24:53Z</time>
      </trkpt>
      <trkpt lat="49.41144" lon="0.25214">
        <ele>10.4</ele>
        <time>2020-06-17T15:24:54Z</time>
      </trkpt>
      <trkpt lat="49.41143" lon="0.2522">
        <ele>10.5</ele>
        <time>2020-06-17T15:24:55Z</time>
      </trkpt>
      <trkpt lat="49.41142" lon="0.25225">
        <ele>10.5</ele>
        <time>2020-06-17T15:24:56Z</time>
      </trkpt>
      <trkpt lat="49.41143" lon="0.25231">
        <ele>10.7</ele>
        <time>2020-06-17T15:24:57Z</time>
      </trkpt>
      <trkpt lat="49.41143" lon="0.25239">
        <ele>10.6</ele>
        <time>2020-06-17T15:24:58Z</time>
      </trkpt>
      <trkpt lat="49.41145" lon="0.25248">
        <ele>10.5</ele>
        <time>2020-06-17T15:24:59Z</time>
      </trkpt>
      <trkpt lat="49.41146" lon="0.25256">
        <ele>10.2</ele>
        <time>2020-06-17T15:25:00Z</time>
      </trkpt>
      <trkpt lat="49.41148" lon="0.25264">
        <ele>10.1</ele>
        <time>2020-06-17T15:25:01Z</time>
      </trkpt>
      <trkpt lat="49.41148" lon="0.25272">
        <ele>9.9</ele>
        <time>2020-06-17T15:25:02Z</time>
      </trkpt>
      <trkpt lat="49.41147" lon="0.25281">
        <ele>9.8</ele>
        <time>2020-06-17T15:25:03Z</time>
      </trkpt>
      <trkpt lat="49.41146" lon="0.2529">
        <ele>9.7</ele>
        <time>2020-06-17T15:25:04Z</time>
      </trkpt>
      <trkpt lat="49.41143" lon="0.25297">
        <ele>9.6</ele>
        <time>2020-06-17T15:25:05Z</time>
      </trkpt>
      <trkpt lat="49.4114" lon="0.25305">
        <ele>9.6</ele>
        <time>2020-06-17T15:25:06Z</time>
      </trkpt>
      <trkpt lat="49.41136" lon="0.25312">
        <ele>9.5</ele>
        <time>2020-06-17T15:25:07Z</time>
      </trkpt>
      <trkpt lat="49.41132" lon="0.2532">
        <ele>9.5</ele>
        <time>2020-06-17T15:25:08Z</time>
      </trkpt>
      <trkpt lat="49.41128" lon="0.25328">
        <ele>9.4</ele>
        <time>2020-06-17T15:25:09Z</time>
      </trkpt>
      <trkpt lat="49.41126" lon="0.25335">
        <ele>9.4</ele>
        <time>2020-06-17T15:25:10Z</time>
      </trkpt>
      <trkpt lat="49.41123" lon="0.25344">
        <ele>9.4</ele>
        <time>2020-06-17T15:25:11Z</time>
      </trkpt>
      <trkpt lat="49.4112" lon="0.25354">
        <ele>9.4</ele>
        <time>2020-06-17T15:25:12Z</time>
      </trkpt>
      <trkpt lat="49.41118" lon="0.25362">
        <ele>9.4</ele>
        <time>2020-06-17T15:25:13Z</time>
      </trkpt>
      <trkpt lat="49.41115" lon="0.2537">
        <ele>9.3</ele>
        <time>2020-06-17T15:25:14Z</time>
      </trkpt>
      <trkpt lat="49.41111" lon="0.2538">
        <ele>9.3</ele>
        <time>2020-06-17T15:25:15Z</time>
      </trkpt>
      <trkpt lat="49.41108" lon="0.25389">
        <ele>9.3</ele>
        <time>2020-06-17T15:25:16Z</time>
      </trkpt>
      <trkpt lat="49.41106" lon="0.254">
        <ele>9.3</ele>
        <time>2020-06-17T15:25:17Z</time>
      </trkpt>
      <trkpt lat="49.41103" lon="0.2541">
        <ele>9.3</ele>
        <time>2020-06-17T15:25:18Z</time>
      </trkpt>
      <trkpt lat="49.41101" lon="0.25419">
        <ele>9.2</ele>
        <time>2020-06-17T15:25:19Z</time>
      </trkpt>
      <trkpt lat="49.41098" lon="0.25429">
        <ele>9.2</ele>
        <time>2020-06-17T15:25:20Z</time>
      </trkpt>
      <trkpt lat="49.41095" lon="0.2544">
        <ele>9.1</ele>
        <time>2020-06-17T15:25:21Z</time>
      </trkpt>
      <trkpt lat="49.41091" lon="0.2545">
        <ele>9</ele>
        <time>2020-06-17T15:25:22Z</time>
      </trkpt>
      <trkpt lat="49.41089" lon="0.25461">
        <ele>8.9</ele>
        <time>2020-06-17T15:25:23Z</time>
      </trkpt>
      <trkpt lat="49.41087" lon="0.25471">
        <ele>8.8</ele>
        <time>2020-06-17T15:25:24Z</time>
      </trkpt>
      <trkpt lat="49.41085" lon="0.25481">
        <ele>8.7</ele>
        <time>2020-06-17T15:25:25Z</time>
      </trkpt>
      <trkpt lat="49.41083" lon="0.25492">
        <ele>8.6</ele>
        <time>2020-06-17T15:25:26Z</time>
      </trkpt>
      <trkpt lat="49.41082" lon="0.25504">
        <ele>8.5</ele>
        <time>2020-06-17T15:25:27Z</time>
      </trkpt>
      <trkpt lat="49.4108" lon="0.25516">
        <ele>8.4</ele>
        <time>2020-06-17T15:25:28Z</time>
      </trkpt>
      <trkpt lat="49.41078" lon="0.25527">
        <ele>8.2</ele>
        <time>2020-06-17T15:25:29Z</time>
      </trkpt>
      <trkpt lat="49.41077" lon="0.2554">
        <ele>8.1</ele>
        <time>2020-06-17T15:25:30Z</time>
      </trkpt>
      <trkpt lat="49.41076" lon="0.25553">
        <ele>7.9</ele>
        <time>2020-06-17T15:25:31Z</time>
      </trkpt>
      <trkpt lat="49.41075" lon="0.25566">
        <ele>7.7</ele>
        <time>2020-06-17T15:25:32Z</time>
      </trkpt>
      <trkpt lat="49.41075" lon="0.25578">
        <ele>7.5</ele>
        <time>2020-06-17T15:25:33Z</time>
      </trkpt>
      <trkpt lat="49.41075" lon="0.2559">
        <ele>7.3</ele>
        <time>2020-06-17T15:25:34Z</time>
      </trkpt>
      <trkpt lat="49.41075" lon="0.25603">
        <ele>7.1</ele>
        <time>2020-06-17T15:25:35Z</time>
      </trkpt>
      <trkpt lat="49.41075" lon="0.25615">
        <ele>6.9</ele>
        <time>2020-06-17T15:25:36Z</time>
      </trkpt>
      <trkpt lat="49.41076" lon="0.25628">
        <ele>6.7</ele>
        <time>2020-06-17T15:25:37Z</time>
      </trkpt>
      <trkpt lat="49.41077" lon="0.2564">
        <ele>6.5</ele>
        <time>2020-06-17T15:25:38Z</time>
      </trkpt>
      <trkpt lat="49.41079" lon="0.25652">
        <ele>6.2</ele>
        <time>2020-06-17T15:25:39Z</time>
      </trkpt>
      <trkpt lat="49.4108" lon="0.25663">
        <ele>6</ele>
        <time>2020-06-17T15:25:40Z</time>
      </trkpt>
      <trkpt lat="49.41081" lon="0.25673">
        <ele>5.9</ele>
        <time>2020-06-17T15:25:41Z</time>
      </trkpt>
      <trkpt lat="49.41083" lon="0.25682">
        <ele>5.8</ele>
        <time>2020-06-17T15:25:42Z</time>
      </trkpt>
      <trkpt lat="49.41084" lon="0.2569">
        <ele>5.7</ele>
        <time>2020-06-17T15:25:43Z</time>
      </trkpt>
      <trkpt lat="49.41086" lon="0.25696">
        <ele>5.6</ele>
        <time>2020-06-17T15:25:44Z</time>
      </trkpt>
      <trkpt lat="49.41087" lon="0.25702">
        <ele>5.6</ele>
        <time>2020-06-17T15:25:45Z</time>
      </trkpt>
      <trkpt lat="49.41089" lon="0.25707">
        <ele>5.5</ele>
        <time>2020-06-17T15:25:46Z</time>
      </trkpt>
      <trkpt lat="49.41089" lon="0.2571">
        <ele>5.4</ele>
        <time>2020-06-17T15:25:47Z</time>
      </trkpt>
      <trkpt lat="49.41089" lon="0.25712">
        <ele>5.4</ele>
        <time>2020-06-17T15:25:48Z</time>
      </trkpt>
      <trkpt lat="49.41089" lon="0.25712">
        <ele>5.4</ele>
        <time>2020-06-17T15:25:49Z</time>
      </trkpt>
      <trkpt lat="49.41089" lon="0.25713">
        <ele>5.3</ele>
        <time>2020-06-17T15:25:50Z</time>
      </trkpt>
      <trkpt lat="49.4109" lon="0.25713">
        <ele>5.3</ele>
        <time>2020-06-17T15:25:51Z</time>
      </trkpt>
      <trkpt lat="49.4109" lon="0.25713">
        <ele>5.3</ele>
        <time>2020-06-17T15:25:52Z</time>
      </trkpt>
      <trkpt lat="49.4109" lon="0.25712">
        <ele>5.3</ele>
        <time>2020-06-17T15:25:53Z</time>
      </trkpt>
      <trkpt lat="49.4109" lon="0.25712">
        <ele>5.3</ele>
        <time>2020-06-17T15:25:54Z</time>
      </trkpt>
      <trkpt lat="49.41091" lon="0.25712">
        <ele>5.3</ele>
        <time>2020-06-17T15:25:55Z</time>
      </trkpt>
      <trkpt lat="49.41091" lon="0.25712">
        <ele>5.3</ele>
        <time>2020-06-17T15:25:56Z</time>
      </trkpt>
      <trkpt lat="49.41091" lon="0.25712">
        <ele>5.3</ele>
        <time>2020-06-17T15:25:57Z</time>
      </trkpt>
      <trkpt lat="49.41091" lon="0.25712">
        <ele>5.3</ele>
        <time>2020-06-17T15:25:58Z</time>
      </trkpt>
      <trkpt lat="49.41092" lon="0.25712">
        <ele>5.3</ele>
        <time>2020-06-17T15:25:59Z</time>
      </trkpt>
      <trkpt lat="49.41099" lon="0.25717">
        <ele>5.1</ele>
        <time>2020-06-17T15:28:53Z</time>
      </trkpt>
      <trkpt lat="49.411" lon="0.2572">
        <ele>5</ele>
        <time>2020-06-17T15:28:54Z</time>
      </trkpt>
      <trkpt lat="49.411" lon="0.25724">
        <ele>5</ele>
        <time>2020-06-17T15:28:55Z</time>
      </trkpt>
      <trkpt lat="49.41099" lon="0.2573">
        <ele>4.9</ele>
        <time>2020-06-17T15:28:56Z</time>
      </trkpt>
      <trkpt lat="49.41101" lon="0.25735">
        <ele>4.8</ele>
        <time>2020-06-17T15:28:57Z</time>
      </trkpt>
      <trkpt lat="49.41103" lon="0.25742">
        <ele>4.7</ele>
        <time>2020-06-17T15:28:58Z</time>
      </trkpt>
      <trkpt lat="49.41105" lon="0.25749">
        <ele>4.6</ele>
        <time>2020-06-17T15:28:59Z</time>
      </trkpt>
      <trkpt lat="49.41108" lon="0.25756">
        <ele>4.5</ele>
        <time>2020-06-17T15:29:00Z</time>
      </trkpt>
      <trkpt lat="49.41109" lon="0.25763">
        <ele>4.4</ele>
        <time>2020-06-17T15:29:01Z</time>
      </trkpt>
      <trkpt lat="49.41111" lon="0.2577">
        <ele>4.3</ele>
        <time>2020-06-17T15:29:02Z</time>
      </trkpt>
      <trkpt lat="49.41112" lon="0.25777">
        <ele>4.2</ele>
        <time>2020-06-17T15:29:03Z</time>
      </trkpt>
      <trkpt lat="49.41114" lon="0.25785">
        <ele>4.2</ele>
        <time>2020-06-17T15:29:04Z</time>
      </trkpt>
      <trkpt lat="49.41115" lon="0.25791">
        <ele>4.1</ele>
        <time>2020-06-17T15:29:05Z</time>
      </trkpt>
      <trkpt lat="49.41117" lon="0.25799">
        <ele>4.1</ele>
        <time>2020-06-17T15:29:06Z</time>
      </trkpt>
      <trkpt lat="49.41118" lon="0.25807">
        <ele>4</ele>
        <time>2020-06-17T15:29:07Z</time>
      </trkpt>
      <trkpt lat="49.41119" lon="0.25815">
        <ele>4</ele>
        <time>2020-06-17T15:29:08Z</time>
      </trkpt>
      <trkpt lat="49.4112" lon="0.25822">
        <ele>4.1</ele>
        <time>2020-06-17T15:29:09Z</time>
      </trkpt>
      <trkpt lat="49.41122" lon="0.25829">
        <ele>4.1</ele>
        <time>2020-06-17T15:29:10Z</time>
      </trkpt>
      <trkpt lat="49.41123" lon="0.25836">
        <ele>4.1</ele>
        <time>2020-06-17T15:29:11Z</time>
      </trkpt>
      <trkpt lat="49.41124" lon="0.25843">
        <ele>4.1</ele>
        <time>2020-06-17T15:29:12Z</time>
      </trkpt>
      <trkpt lat="49.41125" lon="0.25848">
        <ele>4.2</ele>
        <time>2020-06-17T15:29:13Z</time>
      </trkpt>
      <trkpt lat="49.41125" lon="0.25854">
        <ele>4.2</ele>
        <time>2020-06-17T15:29:14Z</time>
      </trkpt>
      <trkpt lat="49.41126" lon="0.25862">
        <ele>4.2</ele>
        <time>2020-06-17T15:29:15Z</time>
      </trkpt>
      <trkpt lat="49.41125" lon="0.25872">
        <ele>4.2</ele>
        <time>2020-06-17T15:29:16Z</time>
      </trkpt>
      <trkpt lat="49.41123" lon="0.25881">
        <ele>4.2</ele>
        <time>2020-06-17T15:29:17Z</time>
      </trkpt>
      <trkpt lat="49.41121" lon="0.2589">
        <ele>4.2</ele>
        <time>2020-06-17T15:29:18Z</time>
      </trkpt>
      <trkpt lat="49.41119" lon="0.25896">
        <ele>4.2</ele>
        <time>2020-06-17T15:29:19Z</time>
      </trkpt>
      <trkpt lat="49.41117" lon="0.25905">
        <ele>4.2</ele>
        <time>2020-06-17T15:29:20Z</time>
      </trkpt>
      <trkpt lat="49.41117" lon="0.25913">
        <ele>4.2</ele>
        <time>2020-06-17T15:29:21Z</time>
      </trkpt>
      <trkpt lat="49.41119" lon="0.25921">
        <ele>4.2</ele>
        <time>2020-06-17T15:29:22Z</time>
      </trkpt>
      <trkpt lat="49.41121" lon="0.25929">
        <ele>4.2</ele>
        <time>2020-06-17T15:29:23Z</time>
      </trkpt>
      <trkpt lat="49.41124" lon="0.25934">
        <ele>4.1</ele>
        <time>2020-06-17T15:29:24Z</time>
      </trkpt>
      <trkpt lat="49.41127" lon="0.2594">
        <ele>4.1</ele>
        <time>2020-06-17T15:29:25Z</time>
      </trkpt>
      <trkpt lat="49.41131" lon="0.25945">
        <ele>4.1</ele>
        <time>2020-06-17T15:29:26Z</time>
      </trkpt>
      <trkpt lat="49.41136" lon="0.25949">
        <ele>4.1</ele>
        <time>2020-06-17T15:29:27Z</time>
      </trkpt>
      <trkpt lat="49.4114" lon="0.25952">
        <ele>4.1</ele>
        <time>2020-06-17T15:29:28Z</time>
      </trkpt>
      <trkpt lat="49.41144" lon="0.25957">
        <ele>4.1</ele>
        <time>2020-06-17T15:29:29Z</time>
      </trkpt>
      <trkpt lat="49.41147" lon="0.25964">
        <ele>4.1</ele>
        <time>2020-06-17T15:29:30Z</time>
      </trkpt>
      <trkpt lat="49.41149" lon="0.25969">
        <ele>4.1</ele>
        <time>2020-06-17T15:29:31Z</time>
      </trkpt>
      <trkpt lat="49.4115" lon="0.25974">
        <ele>4.1</ele>
        <time>2020-06-17T15:29:32Z</time>
      </trkpt>
      <trkpt lat="49.41151" lon="0.2598">
        <ele>4.1</ele>
        <time>2020-06-17T15:29:33Z</time>
      </trkpt>
      <trkpt lat="49.41152" lon="0.25984">
        <ele>4.1</ele>
        <time>2020-06-17T15:29:34Z</time>
      </trkpt>
      <trkpt lat="49.41153" lon="0.25989">
        <ele>4.1</ele>
        <time>2020-06-17T15:29:35Z</time>
      </trkpt>
      <trkpt lat="49.41153" lon="0.2599">
        <ele>4.1</ele>
        <time>2020-06-17T15:29:36Z</time>
      </trkpt>
      <trkpt lat="49.41153" lon="0.25992">
        <ele>4.1</ele>
        <time>2020-06-17T15:29:37Z</time>
      </trkpt>
      <trkpt lat="49.41154" lon="0.25992">
        <ele>4.1</ele>
        <time>2020-06-17T15:29:38Z</time>
      </trkpt>
      <trkpt lat="49.41154" lon="0.25992">
        <ele>4.1</ele>
        <time>2020-06-17T15:29:39Z</time>
      </trkpt>
      <trkpt lat="49.41155" lon="0.25992">
        <ele>4.1</ele>
        <time>2020-06-17T15:29:40Z</time>
      </trkpt>
      <trkpt lat="49.41155" lon="0.25992">
        <ele>4.1</ele>
        <time>2020-06-17T15:29:41Z</time>
      </trkpt>
      <trkpt lat="49.41156" lon="0.25992">
        <ele>4.1</ele>
        <time>2020-06-17T15:29:42Z</time>
      </trkpt>
      <trkpt lat="49.41156" lon="0.25992">
        <ele>4.1</ele>
        <time>2020-06-17T15:29:43Z</time>
      </trkpt>
      <trkpt lat="49.41156" lon="0.25992">
        <ele>4.1</ele>
        <time>2020-06-17T15:29:44Z</time>
      </trkpt>
      <trkpt lat="49.41157" lon="0.25992">
        <ele>4.1</ele>
        <time>2020-06-17T15:29:45Z</time>
      </trkpt>
      <trkpt lat="49.41158" lon="0.25991">
        <ele>4.1</ele>
        <time>2020-06-17T15:29:46Z</time>
      </trkpt>
      <trkpt lat="49.41158" lon="0.2599">
        <ele>4.1</ele>
        <time>2020-06-17T15:29:47Z</time>
      </trkpt>
      <trkpt lat="49.41159" lon="0.25987">
        <ele>4.1</ele>
        <time>2020-06-17T15:29:48Z</time>
      </trkpt>
      <trkpt lat="49.41159" lon="0.25983">
        <ele>4.2</ele>
        <time>2020-06-17T15:29:49Z</time>
      </trkpt>
      <trkpt lat="49.41159" lon="0.2598">
        <ele>4.2</ele>
        <time>2020-06-17T15:29:50Z</time>
      </trkpt>
      <trkpt lat="49.41159" lon="0.25979">
        <ele>4.2</ele>
        <time>2020-06-17T15:29:51Z</time>
      </trkpt>
      <trkpt lat="49.41159" lon="0.25979">
        <ele>4.2</ele>
        <time>2020-06-17T15:29:52Z</time>
      </trkpt>
      <trkpt lat="49.41159" lon="0.25978">
        <ele>4.2</ele>
        <time>2020-06-17T15:29:53Z</time>
      </trkpt>
      <trkpt lat="49.41159" lon="0.25979">
        <ele>4.2</ele>
        <time>2020-06-17T15:29:54Z</time>
      </trkpt>
      <trkpt lat="49.41159" lon="0.25976">
        <ele>4.2</ele>
        <time>2020-06-17T15:29:55Z</time>
      </trkpt>
      <trkpt lat="49.4116" lon="0.25973">
        <ele>4.2</ele>
        <time>2020-06-17T15:29:56Z</time>
      </trkpt>
      <trkpt lat="49.41159" lon="0.25968">
        <ele>4.2</ele>
        <time>2020-06-17T15:29:57Z</time>
      </trkpt>
      <trkpt lat="49.41159" lon="0.25966">
        <ele>4.2</ele>
        <time>2020-06-17T15:29:58Z</time>
      </trkpt>
      <trkpt lat="49.41159" lon="0.25962">
        <ele>4.2</ele>
        <time>2020-06-17T15:29:59Z</time>
      </trkpt>
      <trkpt lat="49.4116" lon="0.25961">
        <ele>4.2</ele>
        <time>2020-06-17T15:30:00Z</time>
      </trkpt>
      <trkpt lat="49.4116" lon="0.25957">
        <ele>4.2</ele>
        <time>2020-06-17T15:30:01Z</time>
      </trkpt>
      <trkpt lat="49.41161" lon="0.25955">
        <ele>4.3</ele>
        <time>2020-06-17T15:30:02Z</time>
      </trkpt>
      <trkpt lat="49.41162" lon="0.2595">
        <ele>4.3</ele>
        <time>2020-06-17T15:30:03Z</time>
      </trkpt>
      <trkpt lat="49.41163" lon="0.25948">
        <ele>4.3</ele>
        <time>2020-06-17T15:30:04Z</time>
      </trkpt>
      <trkpt lat="49.41164" lon="0.25943">
        <ele>4.3</ele>
        <time>2020-06-17T15:30:05Z</time>
      </trkpt>
      <trkpt lat="49.41166" lon="0.25939">
        <ele>4.4</ele>
        <time>2020-06-17T15:30:06Z</time>
      </trkpt>
      <trkpt lat="49.41167" lon="0.25934">
        <ele>4.4</ele>
        <time>2020-06-17T15:30:07Z</time>
      </trkpt>
      <trkpt lat="49.41168" lon="0.2593">
        <ele>4.5</ele>
        <time>2020-06-17T15:30:08Z</time>
      </trkpt>
      <trkpt lat="49.4117" lon="0.25926">
        <ele>4.5</ele>
        <time>2020-06-17T15:30:09Z</time>
      </trkpt>
      <trkpt lat="49.41172" lon="0.25921">
        <ele>4.5</ele>
        <time>2020-06-17T15:30:10Z</time>
      </trkpt>
      <trkpt lat="49.41175" lon="0.25916">
        <ele>4.6</ele>
        <time>2020-06-17T15:30:11Z</time>
      </trkpt>
      <trkpt lat="49.41177" lon="0.25914">
        <ele>4.6</ele>
        <time>2020-06-17T15:30:12Z</time>
      </trkpt>
      <trkpt lat="49.41183" lon="0.25913">
        <ele>4.7</ele>
        <time>2020-06-17T15:30:13Z</time>
      </trkpt>
      <trkpt lat="49.41189" lon="0.25912">
        <ele>4.7</ele>
        <time>2020-06-17T15:30:14Z</time>
      </trkpt>
      <trkpt lat="49.41196" lon="0.25911">
        <ele>4.7</ele>
        <time>2020-06-17T15:30:15Z</time>
      </trkpt>
      <trkpt lat="49.41201" lon="0.25909">
        <ele>4.8</ele>
        <time>2020-06-17T15:30:16Z</time>
      </trkpt>
      <trkpt lat="49.41209" lon="0.25909">
        <ele>4.9</ele>
        <time>2020-06-17T15:30:17Z</time>
      </trkpt>
      <trkpt lat="49.41214" lon="0.25908">
        <ele>4.9</ele>
        <time>2020-06-17T15:30:18Z</time>
      </trkpt>
      <trkpt lat="49.41219" lon="0.25907">
        <ele>5</ele>
        <time>2020-06-17T15:30:19Z</time>
      </trkpt>
      <trkpt lat="49.41225" lon="0.25905">
        <ele>5.1</ele>
        <time>2020-06-17T15:30:20Z</time>
      </trkpt>
      <trkpt lat="49.41234" lon="0.25904">
        <ele>5.2</ele>
        <time>2020-06-17T15:30:21Z</time>
      </trkpt>
      <trkpt lat="49.41238" lon="0.25902">
        <ele>5.2</ele>
        <time>2020-06-17T15:30:22Z</time>
      </trkpt>
      <trkpt lat="49.4124" lon="0.25901">
        <ele>5.2</ele>
        <time>2020-06-17T15:30:23Z</time>
      </trkpt>
      <trkpt lat="49.41244" lon="0.259">
        <ele>5.3</ele>
        <time>2020-06-17T15:30:24Z</time>
      </trkpt>
      <trkpt lat="49.41248" lon="0.259">
        <ele>5.3</ele>
        <time>2020-06-17T15:30:25Z</time>
      </trkpt>
      <trkpt lat="49.41254" lon="0.25899">
        <ele>5.4</ele>
        <time>2020-06-17T15:30:26Z</time>
      </trkpt>
      <trkpt lat="49.4126" lon="0.259">
        <ele>5.4</ele>
        <time>2020-06-17T15:30:27Z</time>
      </trkpt>
      <trkpt lat="49.41265" lon="0.25899">
        <ele>5.4</ele>
        <time>2020-06-17T15:30:28Z</time>
      </trkpt>
      <trkpt lat="49.41271" lon="0.25899">
        <ele>5.5</ele>
        <time>2020-06-17T15:30:29Z</time>
      </trkpt>
      <trkpt lat="49.41277" lon="0.259">
        <ele>5.5</ele>
        <time>2020-06-17T15:30:30Z</time>
      </trkpt>
      <trkpt lat="49.41282" lon="0.25901">
        <ele>5.5</ele>
        <time>2020-06-17T15:30:31Z</time>
      </trkpt>
      <trkpt lat="49.41288" lon="0.25902">
        <ele>5.5</ele>
        <time>2020-06-17T15:30:32Z</time>
      </trkpt>
      <trkpt lat="49.41294" lon="0.25903">
        <ele>5.5</ele>
        <time>2020-06-17T15:30:33Z</time>
      </trkpt>
      <trkpt lat="49.41299" lon="0.25904">
        <ele>5.5</ele>
        <time>2020-06-17T15:30:34Z</time>
      </trkpt>
      <trkpt lat="49.41305" lon="0.25904">
        <ele>5.5</ele>
        <time>2020-06-17T15:30:35Z</time>
      </trkpt>
      <trkpt lat="49.41314" lon="0.25907">
        <ele>5.5</ele>
        <time>2020-06-17T15:30:36Z</time>
      </trkpt>
      <trkpt lat="49.4132" lon="0.25908">
        <ele>5.5</ele>
        <time>2020-06-17T15:30:37Z</time>
      </trkpt>
      <trkpt lat="49.41326" lon="0.25908">
        <ele>5.5</ele>
        <time>2020-06-17T15:30:38Z</time>
      </trkpt>
      <trkpt lat="49.41331" lon="0.25908">
        <ele>5.6</ele>
        <time>2020-06-17T15:30:39Z</time>
      </trkpt>
      <trkpt lat="49.41336" lon="0.25908">
        <ele>5.6</ele>
        <time>2020-06-17T15:30:40Z</time>
      </trkpt>
      <trkpt lat="49.41341" lon="0.25909">
        <ele>5.6</ele>
        <time>2020-06-17T15:30:41Z</time>
      </trkpt>
      <trkpt lat="49.41346" lon="0.2591">
        <ele>5.6</ele>
        <time>2020-06-17T15:30:42Z</time>
      </trkpt>
      <trkpt lat="49.41351" lon="0.25911">
        <ele>5.6</ele>
        <time>2020-06-17T15:30:43Z</time>
      </trkpt>
      <trkpt lat="49.41356" lon="0.25912">
        <ele>5.6</ele>
        <time>2020-06-17T15:30:44Z</time>
      </trkpt>
      <trkpt lat="49.4136" lon="0.25911">
        <ele>5.7</ele>
        <time>2020-06-17T15:30:45Z</time>
      </trkpt>
      <trkpt lat="49.41365" lon="0.25912">
        <ele>5.7</ele>
        <time>2020-06-17T15:30:46Z</time>
      </trkpt>
      <trkpt lat="49.41371" lon="0.25912">
        <ele>5.7</ele>
        <time>2020-06-17T15:30:47Z</time>
      </trkpt>
      <trkpt lat="49.41376" lon="0.25913">
        <ele>5.7</ele>
        <time>2020-06-17T15:30:48Z</time>
      </trkpt>
      <trkpt lat="49.41383" lon="0.25914">
        <ele>5.7</ele>
        <time>2020-06-17T15:30:49Z</time>
      </trkpt>
      <trkpt lat="49.41388" lon="0.25915">
        <ele>5.7</ele>
        <time>2020-06-17T15:30:50Z</time>
      </trkpt>
      <trkpt lat="49.41394" lon="0.25914">
        <ele>5.7</ele>
        <time>2020-06-17T15:30:51Z</time>
      </trkpt>
      <trkpt lat="49.41399" lon="0.25914">
        <ele>5.7</ele>
        <time>2020-06-17T15:30:52Z</time>
      </trkpt>
      <trkpt lat="49.41405" lon="0.25914">
        <ele>5.7</ele>
        <time>2020-06-17T15:30:53Z</time>
      </trkpt>
      <trkpt lat="49.4141" lon="0.25914">
        <ele>5.7</ele>
        <time>2020-06-17T15:30:54Z</time>
      </trkpt>
      <trkpt lat="49.41415" lon="0.25914">
        <ele>5.7</ele>
        <time>2020-06-17T15:30:55Z</time>
      </trkpt>
      <trkpt lat="49.4142" lon="0.25914">
        <ele>5.7</ele>
        <time>2020-06-17T15:30:56Z</time>
      </trkpt>
      <trkpt lat="49.41425" lon="0.25914">
        <ele>5.7</ele>
        <time>2020-06-17T15:30:57Z</time>
      </trkpt>
      <trkpt lat="49.41431" lon="0.25915">
        <ele>5.7</ele>
        <time>2020-06-17T15:30:58Z</time>
      </trkpt>
      <trkpt lat="49.41436" lon="0.25916">
        <ele>5.7</ele>
        <time>2020-06-17T15:30:59Z</time>
      </trkpt>
      <trkpt lat="49.41442" lon="0.25916">
        <ele>5.7</ele>
        <time>2020-06-17T15:31:00Z</time>
      </trkpt>
      <trkpt lat="49.41447" lon="0.25917">
        <ele>5.8</ele>
        <time>2020-06-17T15:31:01Z</time>
      </trkpt>
      <trkpt lat="49.41453" lon="0.25917">
        <ele>5.8</ele>
        <time>2020-06-17T15:31:02Z</time>
      </trkpt>
      <trkpt lat="49.41457" lon="0.25916">
        <ele>5.8</ele>
        <time>2020-06-17T15:31:03Z</time>
      </trkpt>
      <trkpt lat="49.41463" lon="0.25917">
        <ele>5.8</ele>
        <time>2020-06-17T15:31:04Z</time>
      </trkpt>
      <trkpt lat="49.41468" lon="0.25918">
        <ele>5.8</ele>
        <time>2020-06-17T15:31:05Z</time>
      </trkpt>
      <trkpt lat="49.41473" lon="0.25921">
        <ele>5.8</ele>
        <time>2020-06-17T15:31:06Z</time>
      </trkpt>
      <trkpt lat="49.41478" lon="0.25922">
        <ele>5.8</ele>
        <time>2020-06-17T15:31:07Z</time>
      </trkpt>
      <trkpt lat="49.41484" lon="0.25923">
        <ele>5.8</ele>
        <time>2020-06-17T15:31:08Z</time>
      </trkpt>
      <trkpt lat="49.4149" lon="0.25923">
        <ele>5.8</ele>
        <time>2020-06-17T15:31:09Z</time>
      </trkpt>
      <trkpt lat="49.41496" lon="0.25924">
        <ele>5.8</ele>
        <time>2020-06-17T15:31:10Z</time>
      </trkpt>
      <trkpt lat="49.41502" lon="0.25925">
        <ele>5.8</ele>
        <time>2020-06-17T15:31:11Z</time>
      </trkpt>
      <trkpt lat="49.41508" lon="0.25926">
        <ele>5.8</ele>
        <time>2020-06-17T15:31:12Z</time>
      </trkpt>
      <trkpt lat="49.41514" lon="0.25927">
        <ele>5.8</ele>
        <time>2020-06-17T15:31:13Z</time>
      </trkpt>
      <trkpt lat="49.41519" lon="0.25929">
        <ele>5.8</ele>
        <time>2020-06-17T15:31:14Z</time>
      </trkpt>
      <trkpt lat="49.41525" lon="0.25929">
        <ele>5.8</ele>
        <time>2020-06-17T15:31:15Z</time>
      </trkpt>
      <trkpt lat="49.41529" lon="0.2593">
        <ele>5.8</ele>
        <time>2020-06-17T15:31:16Z</time>
      </trkpt>
      <trkpt lat="49.41534" lon="0.25932">
        <ele>5.8</ele>
        <time>2020-06-17T15:31:17Z</time>
      </trkpt>
      <trkpt lat="49.41539" lon="0.25933">
        <ele>5.9</ele>
        <time>2020-06-17T15:31:18Z</time>
      </trkpt>
      <trkpt lat="49.41544" lon="0.25934">
        <ele>5.9</ele>
        <time>2020-06-17T15:31:19Z</time>
      </trkpt>
      <trkpt lat="49.4155" lon="0.25935">
        <ele>5.9</ele>
        <time>2020-06-17T15:31:20Z</time>
      </trkpt>
      <trkpt lat="49.41556" lon="0.25936">
        <ele>5.9</ele>
        <time>2020-06-17T15:31:21Z</time>
      </trkpt>
      <trkpt lat="49.41562" lon="0.25937">
        <ele>5.9</ele>
        <time>2020-06-17T15:31:22Z</time>
      </trkpt>
      <trkpt lat="49.41568" lon="0.25939">
        <ele>5.9</ele>
        <time>2020-06-17T15:31:23Z</time>
      </trkpt>
      <trkpt lat="49.41574" lon="0.25941">
        <ele>5.9</ele>
        <time>2020-06-17T15:31:24Z</time>
      </trkpt>
      <trkpt lat="49.4158" lon="0.25943">
        <ele>5.9</ele>
        <time>2020-06-17T15:31:25Z</time>
      </trkpt>
      <trkpt lat="49.41587" lon="0.25945">
        <ele>5.9</ele>
        <time>2020-06-17T15:31:26Z</time>
      </trkpt>
      <trkpt lat="49.41592" lon="0.25946">
        <ele>5.9</ele>
        <time>2020-06-17T15:31:27Z</time>
      </trkpt>
      <trkpt lat="49.41598" lon="0.25947">
        <ele>5.9</ele>
        <time>2020-06-17T15:31:28Z</time>
      </trkpt>
      <trkpt lat="49.41603" lon="0.25948">
        <ele>5.9</ele>
        <time>2020-06-17T15:31:29Z</time>
      </trkpt>
      <trkpt lat="49.4161" lon="0.25948">
        <ele>5.9</ele>
        <time>2020-06-17T15:31:30Z</time>
      </trkpt>
      <trkpt lat="49.41616" lon="0.25949">
        <ele>6</ele>
        <time>2020-06-17T15:31:31Z</time>
      </trkpt>
      <trkpt lat="49.41621" lon="0.2595">
        <ele>6</ele>
        <time>2020-06-17T15:31:32Z</time>
      </trkpt>
      <trkpt lat="49.41627" lon="0.25951">
        <ele>6</ele>
        <time>2020-06-17T15:31:33Z</time>
      </trkpt>
      <trkpt lat="49.41633" lon="0.25952">
        <ele>6.1</ele>
        <time>2020-06-17T15:31:34Z</time>
      </trkpt>
      <trkpt lat="49.41639" lon="0.25953">
        <ele>6.1</ele>
        <time>2020-06-17T15:31:35Z</time>
      </trkpt>
      <trkpt lat="49.41644" lon="0.25954">
        <ele>6.2</ele>
        <time>2020-06-17T15:31:36Z</time>
      </trkpt>
      <trkpt lat="49.4165" lon="0.25955">
        <ele>6.3</ele>
        <time>2020-06-17T15:31:37Z</time>
      </trkpt>
      <trkpt lat="49.41654" lon="0.25956">
        <ele>6.4</ele>
        <time>2020-06-17T15:31:38Z</time>
      </trkpt>
      <trkpt lat="49.41659" lon="0.25956">
        <ele>6.4</ele>
        <time>2020-06-17T15:31:39Z</time>
      </trkpt>
      <trkpt lat="49.41665" lon="0.25957">
        <ele>6.5</ele>
        <time>2020-06-17T15:31:40Z</time>
      </trkpt>
      <trkpt lat="49.4167" lon="0.25958">
        <ele>6.4</ele>
        <time>2020-06-17T15:31:41Z</time>
      </trkpt>
      <trkpt lat="49.41676" lon="0.25959">
        <ele>6.3</ele>
        <time>2020-06-17T15:31:42Z</time>
      </trkpt>
      <trkpt lat="49.41682" lon="0.2596">
        <ele>6.3</ele>
        <time>2020-06-17T15:31:43Z</time>
      </trkpt>
      <trkpt lat="49.41689" lon="0.25961">
        <ele>6.3</ele>
        <time>2020-06-17T15:31:44Z</time>
      </trkpt>
      <trkpt lat="49.41695" lon="0.25961">
        <ele>6.3</ele>
        <time>2020-06-17T15:31:45Z</time>
      </trkpt>
      <trkpt lat="49.41701" lon="0.25961">
        <ele>6.3</ele>
        <time>2020-06-17T15:31:46Z</time>
      </trkpt>
      <trkpt lat="49.41709" lon="0.25962">
        <ele>6.3</ele>
        <time>2020-06-17T15:31:47Z</time>
      </trkpt>
      <trkpt lat="49.41714" lon="0.25964">
        <ele>6.3</ele>
        <time>2020-06-17T15:31:48Z</time>
      </trkpt>
      <trkpt lat="49.41721" lon="0.25964">
        <ele>6.2</ele>
        <time>2020-06-17T15:31:49Z</time>
      </trkpt>
      <trkpt lat="49.41728" lon="0.25966">
        <ele>6.2</ele>
        <time>2020-06-17T15:31:50Z</time>
      </trkpt>
      <trkpt lat="49.41736" lon="0.25966">
        <ele>6.2</ele>
        <time>2020-06-17T15:31:51Z</time>
      </trkpt>
      <trkpt lat="49.41742" lon="0.25967">
        <ele>6.2</ele>
        <time>2020-06-17T15:31:52Z</time>
      </trkpt>
      <trkpt lat="49.41749" lon="0.25969">
        <ele>6.2</ele>
        <time>2020-06-17T15:31:53Z</time>
      </trkpt>
      <trkpt lat="49.41755" lon="0.25969">
        <ele>6.1</ele>
        <time>2020-06-17T15:31:54Z</time>
      </trkpt>
      <trkpt lat="49.41761" lon="0.2597">
        <ele>6.1</ele>
        <time>2020-06-17T15:31:55Z</time>
      </trkpt>
      <trkpt lat="49.41767" lon="0.25971">
        <ele>6.1</ele>
        <time>2020-06-17T15:31:56Z</time>
      </trkpt>
      <trkpt lat="49.41774" lon="0.25971">
        <ele>6.1</ele>
        <time>2020-06-17T15:31:57Z</time>
      </trkpt>
      <trkpt lat="49.41781" lon="0.25973">
        <ele>6</ele>
        <time>2020-06-17T15:31:58Z</time>
      </trkpt>
      <trkpt lat="49.41788" lon="0.25974">
        <ele>6</ele>
        <time>2020-06-17T15:31:59Z</time>
      </trkpt>
      <trkpt lat="49.41794" lon="0.25975">
        <ele>6</ele>
        <time>2020-06-17T15:32:00Z</time>
      </trkpt>
      <trkpt lat="49.41801" lon="0.25975">
        <ele>6</ele>
        <time>2020-06-17T15:32:01Z</time>
      </trkpt>
      <trkpt lat="49.41808" lon="0.25976">
        <ele>6</ele>
        <time>2020-06-17T15:32:02Z</time>
      </trkpt>
      <trkpt lat="49.41815" lon="0.25977">
        <ele>6</ele>
        <time>2020-06-17T15:32:03Z</time>
      </trkpt>
      <trkpt lat="49.41821" lon="0.25978">
        <ele>6.1</ele>
        <time>2020-06-17T15:32:04Z</time>
      </trkpt>
      <trkpt lat="49.41828" lon="0.25978">
        <ele>6.2</ele>
        <time>2020-06-17T15:32:05Z</time>
      </trkpt>
      <trkpt lat="49.41835" lon="0.25979">
        <ele>6.1</ele>
        <time>2020-06-17T15:32:06Z</time>
      </trkpt>
      <trkpt lat="49.41841" lon="0.25979">
        <ele>6</ele>
        <time>2020-06-17T15:32:07Z</time>
      </trkpt>
      <trkpt lat="49.41848" lon="0.2598">
        <ele>6</ele>
        <time>2020-06-17T15:32:08Z</time>
      </trkpt>
      <trkpt lat="49.41854" lon="0.2598">
        <ele>6</ele>
        <time>2020-06-17T15:32:09Z</time>
      </trkpt>
      <trkpt lat="49.4186" lon="0.25981">
        <ele>5.9</ele>
        <time>2020-06-17T15:32:10Z</time>
      </trkpt>
      <trkpt lat="49.41866" lon="0.25983">
        <ele>5.9</ele>
        <time>2020-06-17T15:32:11Z</time>
      </trkpt>
      <trkpt lat="49.41873" lon="0.25984">
        <ele>5.9</ele>
        <time>2020-06-17T15:32:12Z</time>
      </trkpt>
      <trkpt lat="49.41879" lon="0.25984">
        <ele>5.9</ele>
        <time>2020-06-17T15:32:13Z</time>
      </trkpt>
      <trkpt lat="49.41885" lon="0.25984">
        <ele>5.9</ele>
        <time>2020-06-17T15:32:14Z</time>
      </trkpt>
      <trkpt lat="49.41891" lon="0.25986">
        <ele>5.9</ele>
        <time>2020-06-17T15:32:15Z</time>
      </trkpt>
      <trkpt lat="49.41897" lon="0.25987">
        <ele>5.9</ele>
        <time>2020-06-17T15:32:16Z</time>
      </trkpt>
      <trkpt lat="49.41903" lon="0.25988">
        <ele>5.9</ele>
        <time>2020-06-17T15:32:17Z</time>
      </trkpt>
      <trkpt lat="49.41909" lon="0.25988">
        <ele>5.9</ele>
        <time>2020-06-17T15:32:18Z</time>
      </trkpt>
      <trkpt lat="49.41915" lon="0.25988">
        <ele>5.9</ele>
        <time>2020-06-17T15:32:19Z</time>
      </trkpt>
      <trkpt lat="49.41922" lon="0.2599">
        <ele>5.9</ele>
        <time>2020-06-17T15:32:20Z</time>
      </trkpt>
      <trkpt lat="49.41929" lon="0.25991">
        <ele>5.9</ele>
        <time>2020-06-17T15:32:21Z</time>
      </trkpt>
      <trkpt lat="49.41933" lon="0.25992">
        <ele>5.9</ele>
        <time>2020-06-17T15:32:22Z</time>
      </trkpt>
      <trkpt lat="49.4194" lon="0.25994">
        <ele>5.9</ele>
        <time>2020-06-17T15:32:23Z</time>
      </trkpt>
      <trkpt lat="49.41945" lon="0.25994">
        <ele>5.9</ele>
        <time>2020-06-17T15:32:24Z</time>
      </trkpt>
      <trkpt lat="49.41951" lon="0.25995">
        <ele>5.9</ele>
        <time>2020-06-17T15:32:25Z</time>
      </trkpt>
      <trkpt lat="49.41957" lon="0.25995">
        <ele>5.9</ele>
        <time>2020-06-17T15:32:26Z</time>
      </trkpt>
      <trkpt lat="49.41963" lon="0.25996">
        <ele>5.9</ele>
        <time>2020-06-17T15:32:27Z</time>
      </trkpt>
      <trkpt lat="49.41969" lon="0.25997">
        <ele>6</ele>
        <time>2020-06-17T15:32:28Z</time>
      </trkpt>
      <trkpt lat="49.41975" lon="0.25999">
        <ele>6</ele>
        <time>2020-06-17T15:32:29Z</time>
      </trkpt>
      <trkpt lat="49.41981" lon="0.26">
        <ele>6</ele>
        <time>2020-06-17T15:32:30Z</time>
      </trkpt>
      <trkpt lat="49.41986" lon="0.26001">
        <ele>6</ele>
        <time>2020-06-17T15:32:31Z</time>
      </trkpt>
      <trkpt lat="49.41992" lon="0.26002">
        <ele>6.1</ele>
        <time>2020-06-17T15:32:32Z</time>
      </trkpt>
      <trkpt lat="49.41999" lon="0.26003">
        <ele>6.1</ele>
        <time>2020-06-17T15:32:33Z</time>
      </trkpt>
      <trkpt lat="49.42005" lon="0.26005">
        <ele>6.1</ele>
        <time>2020-06-17T15:32:34Z</time>
      </trkpt>
      <trkpt lat="49.42013" lon="0.26006">
        <ele>6.1</ele>
        <time>2020-06-17T15:32:35Z</time>
      </trkpt>
      <trkpt lat="49.42018" lon="0.26007">
        <ele>6.1</ele>
        <time>2020-06-17T15:32:36Z</time>
      </trkpt>
      <trkpt lat="49.42025" lon="0.26007">
        <ele>6.1</ele>
        <time>2020-06-17T15:32:37Z</time>
      </trkpt>
      <trkpt lat="49.42032" lon="0.26009">
        <ele>6.2</ele>
        <time>2020-06-17T15:32:38Z</time>
      </trkpt>
      <trkpt lat="49.42038" lon="0.2601">
        <ele>6.2</ele>
        <time>2020-06-17T15:32:39Z</time>
      </trkpt>
      <trkpt lat="49.42044" lon="0.26011">
        <ele>6.2</ele>
        <time>2020-06-17T15:32:40Z</time>
      </trkpt>
      <trkpt lat="49.42052" lon="0.26011">
        <ele>6.3</ele>
        <time>2020-06-17T15:32:41Z</time>
      </trkpt>
      <trkpt lat="49.42057" lon="0.2601">
        <ele>6.3</ele>
        <time>2020-06-17T15:32:42Z</time>
      </trkpt>
      <trkpt lat="49.42063" lon="0.26009">
        <ele>6.3</ele>
        <time>2020-06-17T15:32:43Z</time>
      </trkpt>
      <trkpt lat="49.42069" lon="0.26008">
        <ele>6.3</ele>
        <time>2020-06-17T15:32:44Z</time>
      </trkpt>
      <trkpt lat="49.42076" lon="0.26007">
        <ele>6.4</ele>
        <time>2020-06-17T15:32:45Z</time>
      </trkpt>
      <trkpt lat="49.42081" lon="0.26006">
        <ele>6.4</ele>
        <time>2020-06-17T15:32:46Z</time>
      </trkpt>
      <trkpt lat="49.42085" lon="0.26005">
        <ele>6.4</ele>
        <time>2020-06-17T15:32:47Z</time>
      </trkpt>
      <trkpt lat="49.4209" lon="0.26004">
        <ele>6.5</ele>
        <time>2020-06-17T15:32:48Z</time>
      </trkpt>
      <trkpt lat="49.42094" lon="0.26004">
        <ele>6.5</ele>
        <time>2020-06-17T15:32:49Z</time>
      </trkpt>
      <trkpt lat="49.42099" lon="0.26004">
        <ele>6.5</ele>
        <time>2020-06-17T15:32:50Z</time>
      </trkpt>
      <trkpt lat="49.42104" lon="0.26004">
        <ele>6.6</ele>
        <time>2020-06-17T15:32:51Z</time>
      </trkpt>
      <trkpt lat="49.42109" lon="0.26004">
        <ele>6.6</ele>
        <time>2020-06-17T15:32:52Z</time>
      </trkpt>
      <trkpt lat="49.42114" lon="0.26003">
        <ele>6.6</ele>
        <time>2020-06-17T15:32:53Z</time>
      </trkpt>
      <trkpt lat="49.4212" lon="0.26002">
        <ele>6.5</ele>
        <time>2020-06-17T15:32:54Z</time>
      </trkpt>
      <trkpt lat="49.42125" lon="0.26002">
        <ele>6.5</ele>
        <time>2020-06-17T15:32:55Z</time>
      </trkpt>
      <trkpt lat="49.4213" lon="0.26001">
        <ele>6.5</ele>
        <time>2020-06-17T15:32:56Z</time>
      </trkpt>
      <trkpt lat="49.42136" lon="0.26001">
        <ele>6.4</ele>
        <time>2020-06-17T15:32:57Z</time>
      </trkpt>
      <trkpt lat="49.42141" lon="0.26001">
        <ele>6.4</ele>
        <time>2020-06-17T15:32:58Z</time>
      </trkpt>
      <trkpt lat="49.42148" lon="0.26001">
        <ele>6.4</ele>
        <time>2020-06-17T15:32:59Z</time>
      </trkpt>
      <trkpt lat="49.42154" lon="0.26001">
        <ele>6.4</ele>
        <time>2020-06-17T15:33:00Z</time>
      </trkpt>
      <trkpt lat="49.4216" lon="0.26001">
        <ele>6.3</ele>
        <time>2020-06-17T15:33:01Z</time>
      </trkpt>
      <trkpt lat="49.42165" lon="0.26001">
        <ele>6.3</ele>
        <time>2020-06-17T15:33:02Z</time>
      </trkpt>
      <trkpt lat="49.42173" lon="0.26001">
        <ele>6.3</ele>
        <time>2020-06-17T15:33:03Z</time>
      </trkpt>
      <trkpt lat="49.42179" lon="0.26001">
        <ele>6.2</ele>
        <time>2020-06-17T15:33:04Z</time>
      </trkpt>
      <trkpt lat="49.42185" lon="0.25999">
        <ele>6.2</ele>
        <time>2020-06-17T15:33:05Z</time>
      </trkpt>
      <trkpt lat="49.42192" lon="0.25999">
        <ele>6.2</ele>
        <time>2020-06-17T15:33:06Z</time>
      </trkpt>
      <trkpt lat="49.42199" lon="0.25998">
        <ele>6.1</ele>
        <time>2020-06-17T15:33:07Z</time>
      </trkpt>
      <trkpt lat="49.42205" lon="0.25998">
        <ele>6</ele>
        <time>2020-06-17T15:33:08Z</time>
      </trkpt>
      <trkpt lat="49.4221" lon="0.25998">
        <ele>5.9</ele>
        <time>2020-06-17T15:33:09Z</time>
      </trkpt>
      <trkpt lat="49.42216" lon="0.25998">
        <ele>5.9</ele>
        <time>2020-06-17T15:33:10Z</time>
      </trkpt>
      <trkpt lat="49.42223" lon="0.25997">
        <ele>5.8</ele>
        <time>2020-06-17T15:33:11Z</time>
      </trkpt>
      <trkpt lat="49.42229" lon="0.25997">
        <ele>5.7</ele>
        <time>2020-06-17T15:33:12Z</time>
      </trkpt>
      <trkpt lat="49.42235" lon="0.25997">
        <ele>5.6</ele>
        <time>2020-06-17T15:33:13Z</time>
      </trkpt>
      <trkpt lat="49.4224" lon="0.25996">
        <ele>5.6</ele>
        <time>2020-06-17T15:33:14Z</time>
      </trkpt>
      <trkpt lat="49.42246" lon="0.25996">
        <ele>5.6</ele>
        <time>2020-06-17T15:33:15Z</time>
      </trkpt>
      <trkpt lat="49.42251" lon="0.25996">
        <ele>5.5</ele>
        <time>2020-06-17T15:33:16Z</time>
      </trkpt>
      <trkpt lat="49.42255" lon="0.25994">
        <ele>5.6</ele>
        <time>2020-06-17T15:33:17Z</time>
      </trkpt>
      <trkpt lat="49.42261" lon="0.25995">
        <ele>5.6</ele>
        <time>2020-06-17T15:33:18Z</time>
      </trkpt>
      <trkpt lat="49.42267" lon="0.25996">
        <ele>5.6</ele>
        <time>2020-06-17T15:33:19Z</time>
      </trkpt>
      <trkpt lat="49.42273" lon="0.25996">
        <ele>5.5</ele>
        <time>2020-06-17T15:33:20Z</time>
      </trkpt>
      <trkpt lat="49.42278" lon="0.25995">
        <ele>5.5</ele>
        <time>2020-06-17T15:33:21Z</time>
      </trkpt>
      <trkpt lat="49.42282" lon="0.25996">
        <ele>5.5</ele>
        <time>2020-06-17T15:33:22Z</time>
      </trkpt>
      <trkpt lat="49.42288" lon="0.25996">
        <ele>5.4</ele>
        <time>2020-06-17T15:33:23Z</time>
      </trkpt>
      <trkpt lat="49.42293" lon="0.25996">
        <ele>5.4</ele>
        <time>2020-06-17T15:33:24Z</time>
      </trkpt>
      <trkpt lat="49.42297" lon="0.25996">
        <ele>5.4</ele>
        <time>2020-06-17T15:33:25Z</time>
      </trkpt>
      <trkpt lat="49.42302" lon="0.25995">
        <ele>5.3</ele>
        <time>2020-06-17T15:33:26Z</time>
      </trkpt>
      <trkpt lat="49.42306" lon="0.25994">
        <ele>5.3</ele>
        <time>2020-06-17T15:33:27Z</time>
      </trkpt>
      <trkpt lat="49.4231" lon="0.25994">
        <ele>5.3</ele>
        <time>2020-06-17T15:33:28Z</time>
      </trkpt>
      <trkpt lat="49.42315" lon="0.25994">
        <ele>5.2</ele>
        <time>2020-06-17T15:33:29Z</time>
      </trkpt>
      <trkpt lat="49.4232" lon="0.25994">
        <ele>5.2</ele>
        <time>2020-06-17T15:33:30Z</time>
      </trkpt>
      <trkpt lat="49.42325" lon="0.25993">
        <ele>5.1</ele>
        <time>2020-06-17T15:33:31Z</time>
      </trkpt>
      <trkpt lat="49.4233" lon="0.25994">
        <ele>5.1</ele>
        <time>2020-06-17T15:33:32Z</time>
      </trkpt>
      <trkpt lat="49.42336" lon="0.25994">
        <ele>5.1</ele>
        <time>2020-06-17T15:33:33Z</time>
      </trkpt>
      <trkpt lat="49.42342" lon="0.25994">
        <ele>5</ele>
        <time>2020-06-17T15:33:34Z</time>
      </trkpt>
      <trkpt lat="49.42348" lon="0.25992">
        <ele>5</ele>
        <time>2020-06-17T15:33:35Z</time>
      </trkpt>
      <trkpt lat="49.42352" lon="0.25992">
        <ele>5</ele>
        <time>2020-06-17T15:33:36Z</time>
      </trkpt>
      <trkpt lat="49.42357" lon="0.25991">
        <ele>5.1</ele>
        <time>2020-06-17T15:33:37Z</time>
      </trkpt>
      <trkpt lat="49.42363" lon="0.25991">
        <ele>5.1</ele>
        <time>2020-06-17T15:33:38Z</time>
      </trkpt>
      <trkpt lat="49.4237" lon="0.2599">
        <ele>5.1</ele>
        <time>2020-06-17T15:33:39Z</time>
      </trkpt>
      <trkpt lat="49.42375" lon="0.2599">
        <ele>5.1</ele>
        <time>2020-06-17T15:33:40Z</time>
      </trkpt>
      <trkpt lat="49.4238" lon="0.2599">
        <ele>5.1</ele>
        <time>2020-06-17T15:33:41Z</time>
      </trkpt>
      <trkpt lat="49.42386" lon="0.25989">
        <ele>5.1</ele>
        <time>2020-06-17T15:33:42Z</time>
      </trkpt>
      <trkpt lat="49.42391" lon="0.25989">
        <ele>5.1</ele>
        <time>2020-06-17T15:33:43Z</time>
      </trkpt>
      <trkpt lat="49.42395" lon="0.25989">
        <ele>5.1</ele>
        <time>2020-06-17T15:33:44Z</time>
      </trkpt>
      <trkpt lat="49.42401" lon="0.2599">
        <ele>5.1</ele>
        <time>2020-06-17T15:33:45Z</time>
      </trkpt>
      <trkpt lat="49.42407" lon="0.25989">
        <ele>5.2</ele>
        <time>2020-06-17T15:33:46Z</time>
      </trkpt>
      <trkpt lat="49.42412" lon="0.25989">
        <ele>5.2</ele>
        <time>2020-06-17T15:33:47Z</time>
      </trkpt>
      <trkpt lat="49.42418" lon="0.25989">
        <ele>5.3</ele>
        <time>2020-06-17T15:33:48Z</time>
      </trkpt>
      <trkpt lat="49.42424" lon="0.25988">
        <ele>5.3</ele>
        <time>2020-06-17T15:33:49Z</time>
      </trkpt>
      <trkpt lat="49.4243" lon="0.25989">
        <ele>5.4</ele>
        <time>2020-06-17T15:33:50Z</time>
      </trkpt>
      <trkpt lat="49.42435" lon="0.2599">
        <ele>5.4</ele>
        <time>2020-06-17T15:33:51Z</time>
      </trkpt>
      <trkpt lat="49.42441" lon="0.2599">
        <ele>5.5</ele>
        <time>2020-06-17T15:33:52Z</time>
      </trkpt>
      <trkpt lat="49.42447" lon="0.2599">
        <ele>5.5</ele>
        <time>2020-06-17T15:33:53Z</time>
      </trkpt>
      <trkpt lat="49.42453" lon="0.2599">
        <ele>5.6</ele>
        <time>2020-06-17T15:33:54Z</time>
      </trkpt>
      <trkpt lat="49.42458" lon="0.2599">
        <ele>5.7</ele>
        <time>2020-06-17T15:33:55Z</time>
      </trkpt>
      <trkpt lat="49.42461" lon="0.2599">
        <ele>5.7</ele>
        <time>2020-06-17T15:33:56Z</time>
      </trkpt>
      <trkpt lat="49.42463" lon="0.2599">
        <ele>5.7</ele>
        <time>2020-06-17T15:33:57Z</time>
      </trkpt>
      <trkpt lat="49.42467" lon="0.25991">
        <ele>5.7</ele>
        <time>2020-06-17T15:33:58Z</time>
      </trkpt>
      <trkpt lat="49.42472" lon="0.25991">
        <ele>5.7</ele>
        <time>2020-06-17T15:33:59Z</time>
      </trkpt>
      <trkpt lat="49.42478" lon="0.2599">
        <ele>5.7</ele>
        <time>2020-06-17T15:34:00Z</time>
      </trkpt>
      <trkpt lat="49.42484" lon="0.2599">
        <ele>5.7</ele>
        <time>2020-06-17T15:34:01Z</time>
      </trkpt>
      <trkpt lat="49.42489" lon="0.25989">
        <ele>5.8</ele>
        <time>2020-06-17T15:34:02Z</time>
      </trkpt>
      <trkpt lat="49.42494" lon="0.25988">
        <ele>5.8</ele>
        <time>2020-06-17T15:34:03Z</time>
      </trkpt>
      <trkpt lat="49.42499" lon="0.25988">
        <ele>5.8</ele>
        <time>2020-06-17T15:34:04Z</time>
      </trkpt>
      <trkpt lat="49.42503" lon="0.25989">
        <ele>5.8</ele>
        <time>2020-06-17T15:34:05Z</time>
      </trkpt>
      <trkpt lat="49.42507" lon="0.25989">
        <ele>5.8</ele>
        <time>2020-06-17T15:34:06Z</time>
      </trkpt>
      <trkpt lat="49.42512" lon="0.25989">
        <ele>5.8</ele>
        <time>2020-06-17T15:34:07Z</time>
      </trkpt>
      <trkpt lat="49.42516" lon="0.25988">
        <ele>5.8</ele>
        <time>2020-06-17T15:34:08Z</time>
      </trkpt>
      <trkpt lat="49.4252" lon="0.25988">
        <ele>5.8</ele>
        <time>2020-06-17T15:34:09Z</time>
      </trkpt>
      <trkpt lat="49.42524" lon="0.25988">
        <ele>5.8</ele>
        <time>2020-06-17T15:34:10Z</time>
      </trkpt>
      <trkpt lat="49.42528" lon="0.25989">
        <ele>5.8</ele>
        <time>2020-06-17T15:34:11Z</time>
      </trkpt>
      <trkpt lat="49.42532" lon="0.25989">
        <ele>5.8</ele>
        <time>2020-06-17T15:34:12Z</time>
      </trkpt>
      <trkpt lat="49.42535" lon="0.25988">
        <ele>5.8</ele>
        <time>2020-06-17T15:34:13Z</time>
      </trkpt>
      <trkpt lat="49.4254" lon="0.25989">
        <ele>5.8</ele>
        <time>2020-06-17T15:34:14Z</time>
      </trkpt>
      <trkpt lat="49.42543" lon="0.2599">
        <ele>5.8</ele>
        <time>2020-06-17T15:34:15Z</time>
      </trkpt>
      <trkpt lat="49.42545" lon="0.2599">
        <ele>5.8</ele>
        <time>2020-06-17T15:34:16Z</time>
      </trkpt>
      <trkpt lat="49.42546" lon="0.25991">
        <ele>5.8</ele>
        <time>2020-06-17T15:34:17Z</time>
      </trkpt>
      <trkpt lat="49.42547" lon="0.25992">
        <ele>5.8</ele>
        <time>2020-06-17T15:34:18Z</time>
      </trkpt>
      <trkpt lat="49.42549" lon="0.25991">
        <ele>5.8</ele>
        <time>2020-06-17T15:34:19Z</time>
      </trkpt>
      <trkpt lat="49.42551" lon="0.2599">
        <ele>5.8</ele>
        <time>2020-06-17T15:34:20Z</time>
      </trkpt>
      <trkpt lat="49.42551" lon="0.2599">
        <ele>5.8</ele>
        <time>2020-06-17T15:34:21Z</time>
      </trkpt>
      <trkpt lat="49.42551" lon="0.2599">
        <ele>5.8</ele>
        <time>2020-06-17T15:34:22Z</time>
      </trkpt>
      <trkpt lat="49.42552" lon="0.25989">
        <ele>5.8</ele>
        <time>2020-06-17T15:34:23Z</time>
      </trkpt>
      <trkpt lat="49.42551" lon="0.25987">
        <ele>5.8</ele>
        <time>2020-06-17T15:34:24Z</time>
      </trkpt>
      <trkpt lat="49.4255" lon="0.25986">
        <ele>5.8</ele>
        <time>2020-06-17T15:34:25Z</time>
      </trkpt>
      <trkpt lat="49.4255" lon="0.25985">
        <ele>5.8</ele>
        <time>2020-06-17T15:34:26Z</time>
      </trkpt>
      <trkpt lat="49.42549" lon="0.25984">
        <ele>5.8</ele>
        <time>2020-06-17T15:34:27Z</time>
      </trkpt>
      <trkpt lat="49.42547" lon="0.25982">
        <ele>5.8</ele>
        <time>2020-06-17T15:34:28Z</time>
      </trkpt>
      <trkpt lat="49.42546" lon="0.25982">
        <ele>5.8</ele>
        <time>2020-06-17T15:34:29Z</time>
      </trkpt>
      <trkpt lat="49.42545" lon="0.25982">
        <ele>5.8</ele>
        <time>2020-06-17T15:34:30Z</time>
      </trkpt>
      <trkpt lat="49.42542" lon="0.25982">
        <ele>5.8</ele>
        <time>2020-06-17T15:34:31Z</time>
      </trkpt>
      <trkpt lat="49.42541" lon="0.25982">
        <ele>5.8</ele>
        <time>2020-06-17T15:34:32Z</time>
      </trkpt>
      <trkpt lat="49.42538" lon="0.25982">
        <ele>5.8</ele>
        <time>2020-06-17T15:34:33Z</time>
      </trkpt>
      <trkpt lat="49.42537" lon="0.25983">
        <ele>5.8</ele>
        <time>2020-06-17T15:34:34Z</time>
      </trkpt>
      <trkpt lat="49.42536" lon="0.25982">
        <ele>5.8</ele>
        <time>2020-06-17T15:34:35Z</time>
      </trkpt>
      <trkpt lat="49.42535" lon="0.25981">
        <ele>5.8</ele>
        <time>2020-06-17T15:34:36Z</time>
      </trkpt>
      <trkpt lat="49.42533" lon="0.25982">
        <ele>5.8</ele>
        <time>2020-06-17T15:34:37Z</time>
      </trkpt>
      <trkpt lat="49.42531" lon="0.25982">
        <ele>5.8</ele>
        <time>2020-06-17T15:34:38Z</time>
      </trkpt>
      <trkpt lat="49.42529" lon="0.25982">
        <ele>5.8</ele>
        <time>2020-06-17T15:34:39Z</time>
      </trkpt>
      <trkpt lat="49.42528" lon="0.25982">
        <ele>5.8</ele>
        <time>2020-06-17T15:34:40Z</time>
      </trkpt>
      <trkpt lat="49.42528" lon="0.25981">
        <ele>5.8</ele>
        <time>2020-06-17T15:34:41Z</time>
      </trkpt>
      <trkpt lat="49.42527" lon="0.25981">
        <ele>5.8</ele>
        <time>2020-06-17T15:34:42Z</time>
      </trkpt>
      <trkpt lat="49.42526" lon="0.25981">
        <ele>5.8</ele>
        <time>2020-06-17T15:34:43Z</time>
      </trkpt>
      <trkpt lat="49.42525" lon="0.25981">
        <ele>5.8</ele>
        <time>2020-06-17T15:34:44Z</time>
      </trkpt>
      <trkpt lat="49.42523" lon="0.25982">
        <ele>5.8</ele>
        <time>2020-06-17T15:34:45Z</time>
      </trkpt>
      <trkpt lat="49.42521" lon="0.25982">
        <ele>5.8</ele>
        <time>2020-06-17T15:34:46Z</time>
      </trkpt>
      <trkpt lat="49.42518" lon="0.25983">
        <ele>5.8</ele>
        <time>2020-06-17T15:34:47Z</time>
      </trkpt>
      <trkpt lat="49.42514" lon="0.25983">
        <ele>5.8</ele>
        <time>2020-06-17T15:34:48Z</time>
      </trkpt>
      <trkpt lat="49.42507" lon="0.2598">
        <ele>5.8</ele>
        <time>2020-06-17T15:34:49Z</time>
      </trkpt>
      <trkpt lat="49.42503" lon="0.2598">
        <ele>5.8</ele>
        <time>2020-06-17T15:34:50Z</time>
      </trkpt>
      <trkpt lat="49.42499" lon="0.25981">
        <ele>5.8</ele>
        <time>2020-06-17T15:34:51Z</time>
      </trkpt>
      <trkpt lat="49.42495" lon="0.25982">
        <ele>5.8</ele>
        <time>2020-06-17T15:34:52Z</time>
      </trkpt>
      <trkpt lat="49.42491" lon="0.25982">
        <ele>5.8</ele>
        <time>2020-06-17T15:34:53Z</time>
      </trkpt>
      <trkpt lat="49.42487" lon="0.25983">
        <ele>5.8</ele>
        <time>2020-06-17T15:34:54Z</time>
      </trkpt>
      <trkpt lat="49.42482" lon="0.25983">
        <ele>5.7</ele>
        <time>2020-06-17T15:34:55Z</time>
      </trkpt>
      <trkpt lat="49.42477" lon="0.25982">
        <ele>5.7</ele>
        <time>2020-06-17T15:34:56Z</time>
      </trkpt>
      <trkpt lat="49.42473" lon="0.25982">
        <ele>5.7</ele>
        <time>2020-06-17T15:34:57Z</time>
      </trkpt>
      <trkpt lat="49.42468" lon="0.25982">
        <ele>5.7</ele>
        <time>2020-06-17T15:34:58Z</time>
      </trkpt>
      <trkpt lat="49.42463" lon="0.25983">
        <ele>5.7</ele>
        <time>2020-06-17T15:34:59Z</time>
      </trkpt>
      <trkpt lat="49.42458" lon="0.25984">
        <ele>5.7</ele>
        <time>2020-06-17T15:35:00Z</time>
      </trkpt>
      <trkpt lat="49.42453" lon="0.25984">
        <ele>5.6</ele>
        <time>2020-06-17T15:35:01Z</time>
      </trkpt>
      <trkpt lat="49.42448" lon="0.25985">
        <ele>5.5</ele>
        <time>2020-06-17T15:35:02Z</time>
      </trkpt>
      <trkpt lat="49.42443" lon="0.25985">
        <ele>5.5</ele>
        <time>2020-06-17T15:35:03Z</time>
      </trkpt>
      <trkpt lat="49.42438" lon="0.25984">
        <ele>5.4</ele>
        <time>2020-06-17T15:35:04Z</time>
      </trkpt>
      <trkpt lat="49.42433" lon="0.25987">
        <ele>5.4</ele>
        <time>2020-06-17T15:35:05Z</time>
      </trkpt>
      <trkpt lat="49.42428" lon="0.25987">
        <ele>5.3</ele>
        <time>2020-06-17T15:35:06Z</time>
      </trkpt>
      <trkpt lat="49.42424" lon="0.25987">
        <ele>5.3</ele>
        <time>2020-06-17T15:35:07Z</time>
      </trkpt>
      <trkpt lat="49.42419" lon="0.25986">
        <ele>5.3</ele>
        <time>2020-06-17T15:35:08Z</time>
      </trkpt>
      <trkpt lat="49.42414" lon="0.25987">
        <ele>5.2</ele>
        <time>2020-06-17T15:35:09Z</time>
      </trkpt>
      <trkpt lat="49.42409" lon="0.25988">
        <ele>5.2</ele>
        <time>2020-06-17T15:35:10Z</time>
      </trkpt>
      <trkpt lat="49.42404" lon="0.25989">
        <ele>5.2</ele>
        <time>2020-06-17T15:35:11Z</time>
      </trkpt>
      <trkpt lat="49.42399" lon="0.25988">
        <ele>5.1</ele>
        <time>2020-06-17T15:35:12Z</time>
      </trkpt>
      <trkpt lat="49.42395" lon="0.25988">
        <ele>5.1</ele>
        <time>2020-06-17T15:35:13Z</time>
      </trkpt>
      <trkpt lat="49.4239" lon="0.25987">
        <ele>5.1</ele>
        <time>2020-06-17T15:35:14Z</time>
      </trkpt>
      <trkpt lat="49.42386" lon="0.25987">
        <ele>5.1</ele>
        <time>2020-06-17T15:35:15Z</time>
      </trkpt>
      <trkpt lat="49.42382" lon="0.25987">
        <ele>5.1</ele>
        <time>2020-06-17T15:35:16Z</time>
      </trkpt>
      <trkpt lat="49.42377" lon="0.25987">
        <ele>5.1</ele>
        <time>2020-06-17T15:35:17Z</time>
      </trkpt>
      <trkpt lat="49.42373" lon="0.25987">
        <ele>5.1</ele>
        <time>2020-06-17T15:35:18Z</time>
      </trkpt>
      <trkpt lat="49.42369" lon="0.25987">
        <ele>5.1</ele>
        <time>2020-06-17T15:35:19Z</time>
      </trkpt>
      <trkpt lat="49.42364" lon="0.25987">
        <ele>5.1</ele>
        <time>2020-06-17T15:35:20Z</time>
      </trkpt>
      <trkpt lat="49.42361" lon="0.25987">
        <ele>5.1</ele>
        <time>2020-06-17T15:35:21Z</time>
      </trkpt>
      <trkpt lat="49.42357" lon="0.25988">
        <ele>5.1</ele>
        <time>2020-06-17T15:35:22Z</time>
      </trkpt>
      <trkpt lat="49.42352" lon="0.25988">
        <ele>5</ele>
        <time>2020-06-17T15:35:23Z</time>
      </trkpt>
      <trkpt lat="49.42348" lon="0.2599">
        <ele>5</ele>
        <time>2020-06-17T15:35:24Z</time>
      </trkpt>
      <trkpt lat="49.42345" lon="0.2599">
        <ele>5</ele>
        <time>2020-06-17T15:35:25Z</time>
      </trkpt>
      <trkpt lat="49.42341" lon="0.2599">
        <ele>5</ele>
        <time>2020-06-17T15:35:26Z</time>
      </trkpt>
      <trkpt lat="49.42338" lon="0.2599">
        <ele>5</ele>
        <time>2020-06-17T15:35:27Z</time>
      </trkpt>
      <trkpt lat="49.42335" lon="0.25991">
        <ele>5.1</ele>
        <time>2020-06-17T15:35:28Z</time>
      </trkpt>
      <trkpt lat="49.42331" lon="0.25991">
        <ele>5.1</ele>
        <time>2020-06-17T15:35:29Z</time>
      </trkpt>
      <trkpt lat="49.4233" lon="0.25991">
        <ele>5.1</ele>
        <time>2020-06-17T15:35:30Z</time>
      </trkpt>
      <trkpt lat="49.42327" lon="0.25992">
        <ele>5.1</ele>
        <time>2020-06-17T15:35:31Z</time>
      </trkpt>
      <trkpt lat="49.42324" lon="0.25993">
        <ele>5.1</ele>
        <time>2020-06-17T15:35:32Z</time>
      </trkpt>
      <trkpt lat="49.4232" lon="0.25994">
        <ele>5.2</ele>
        <time>2020-06-17T15:35:33Z</time>
      </trkpt>
      <trkpt lat="49.42317" lon="0.25996">
        <ele>5.2</ele>
        <time>2020-06-17T15:35:34Z</time>
      </trkpt>
      <trkpt lat="49.42314" lon="0.25995">
        <ele>5.2</ele>
        <time>2020-06-17T15:35:35Z</time>
      </trkpt>
      <trkpt lat="49.4231" lon="0.25995">
        <ele>5.3</ele>
        <time>2020-06-17T15:35:36Z</time>
      </trkpt>
      <trkpt lat="49.42306" lon="0.25995">
        <ele>5.3</ele>
        <time>2020-06-17T15:35:37Z</time>
      </trkpt>
      <trkpt lat="49.42303" lon="0.25995">
        <ele>5.3</ele>
        <time>2020-06-17T15:35:38Z</time>
      </trkpt>
      <trkpt lat="49.42299" lon="0.25995">
        <ele>5.3</ele>
        <time>2020-06-17T15:35:39Z</time>
      </trkpt>
      <trkpt lat="49.42294" lon="0.25993">
        <ele>5.4</ele>
        <time>2020-06-17T15:35:40Z</time>
      </trkpt>
      <trkpt lat="49.42289" lon="0.25993">
        <ele>5.4</ele>
        <time>2020-06-17T15:35:41Z</time>
      </trkpt>
      <trkpt lat="49.42284" lon="0.25993">
        <ele>5.5</ele>
        <time>2020-06-17T15:35:42Z</time>
      </trkpt>
      <trkpt lat="49.42279" lon="0.25992">
        <ele>5.5</ele>
        <time>2020-06-17T15:35:43Z</time>
      </trkpt>
      <trkpt lat="49.42274" lon="0.2599">
        <ele>5.5</ele>
        <time>2020-06-17T15:35:44Z</time>
      </trkpt>
      <trkpt lat="49.4227" lon="0.2599">
        <ele>5.6</ele>
        <time>2020-06-17T15:35:45Z</time>
      </trkpt>
      <trkpt lat="49.42267" lon="0.25991">
        <ele>5.6</ele>
        <time>2020-06-17T15:35:46Z</time>
      </trkpt>
      <trkpt lat="49.42264" lon="0.25991">
        <ele>5.6</ele>
        <time>2020-06-17T15:35:47Z</time>
      </trkpt>
      <trkpt lat="49.4226" lon="0.25993">
        <ele>5.6</ele>
        <time>2020-06-17T15:35:48Z</time>
      </trkpt>
      <trkpt lat="49.42257" lon="0.25995">
        <ele>5.6</ele>
        <time>2020-06-17T15:35:49Z</time>
      </trkpt>
      <trkpt lat="49.42254" lon="0.25995">
        <ele>5.6</ele>
        <time>2020-06-17T15:35:50Z</time>
      </trkpt>
      <trkpt lat="49.42251" lon="0.25995">
        <ele>5.5</ele>
        <time>2020-06-17T15:35:51Z</time>
      </trkpt>
      <trkpt lat="49.42247" lon="0.25996">
        <ele>5.5</ele>
        <time>2020-06-17T15:35:52Z</time>
      </trkpt>
      <trkpt lat="49.42244" lon="0.25996">
        <ele>5.6</ele>
        <time>2020-06-17T15:35:53Z</time>
      </trkpt>
      <trkpt lat="49.42241" lon="0.25996">
        <ele>5.6</ele>
        <time>2020-06-17T15:35:54Z</time>
      </trkpt>
      <trkpt lat="49.42238" lon="0.25996">
        <ele>5.6</ele>
        <time>2020-06-17T15:35:55Z</time>
      </trkpt>
      <trkpt lat="49.42234" lon="0.25996">
        <ele>5.7</ele>
        <time>2020-06-17T15:35:56Z</time>
      </trkpt>
      <trkpt lat="49.4223" lon="0.25996">
        <ele>5.7</ele>
        <time>2020-06-17T15:35:57Z</time>
      </trkpt>
      <trkpt lat="49.42225" lon="0.25996">
        <ele>5.8</ele>
        <time>2020-06-17T15:35:58Z</time>
      </trkpt>
      <trkpt lat="49.4222" lon="0.25995">
        <ele>5.8</ele>
        <time>2020-06-17T15:35:59Z</time>
      </trkpt>
      <trkpt lat="49.42216" lon="0.25996">
        <ele>5.9</ele>
        <time>2020-06-17T15:36:00Z</time>
      </trkpt>
      <trkpt lat="49.42212" lon="0.25996">
        <ele>5.9</ele>
        <time>2020-06-17T15:36:01Z</time>
      </trkpt>
      <trkpt lat="49.42208" lon="0.25996">
        <ele>6</ele>
        <time>2020-06-17T15:36:02Z</time>
      </trkpt>
      <trkpt lat="49.42204" lon="0.25995">
        <ele>6</ele>
        <time>2020-06-17T15:36:03Z</time>
      </trkpt>
      <trkpt lat="49.422" lon="0.25997">
        <ele>6.1</ele>
        <time>2020-06-17T15:36:04Z</time>
      </trkpt>
      <trkpt lat="49.42196" lon="0.25997">
        <ele>6.1</ele>
        <time>2020-06-17T15:36:05Z</time>
      </trkpt>
      <trkpt lat="49.42192" lon="0.25997">
        <ele>6.2</ele>
        <time>2020-06-17T15:36:06Z</time>
      </trkpt>
      <trkpt lat="49.42188" lon="0.25997">
        <ele>6.2</ele>
        <time>2020-06-17T15:36:07Z</time>
      </trkpt>
      <trkpt lat="49.42184" lon="0.25996">
        <ele>6.2</ele>
        <time>2020-06-17T15:36:08Z</time>
      </trkpt>
      <trkpt lat="49.42179" lon="0.25997">
        <ele>6.2</ele>
        <time>2020-06-17T15:36:09Z</time>
      </trkpt>
      <trkpt lat="49.42175" lon="0.25997">
        <ele>6.3</ele>
        <time>2020-06-17T15:36:10Z</time>
      </trkpt>
      <trkpt lat="49.4217" lon="0.25997">
        <ele>6.3</ele>
        <time>2020-06-17T15:36:11Z</time>
      </trkpt>
      <trkpt lat="49.42165" lon="0.25997">
        <ele>6.3</ele>
        <time>2020-06-17T15:36:12Z</time>
      </trkpt>
      <trkpt lat="49.42161" lon="0.25998">
        <ele>6.3</ele>
        <time>2020-06-17T15:36:13Z</time>
      </trkpt>
      <trkpt lat="49.42157" lon="0.25997">
        <ele>6.3</ele>
        <time>2020-06-17T15:36:14Z</time>
      </trkpt>
      <trkpt lat="49.42153" lon="0.25997">
        <ele>6.4</ele>
        <time>2020-06-17T15:36:15Z</time>
      </trkpt>
      <trkpt lat="49.42148" lon="0.25997">
        <ele>6.4</ele>
        <time>2020-06-17T15:36:16Z</time>
      </trkpt>
      <trkpt lat="49.42143" lon="0.25998">
        <ele>6.4</ele>
        <time>2020-06-17T15:36:17Z</time>
      </trkpt>
      <trkpt lat="49.42138" lon="0.25998">
        <ele>6.4</ele>
        <time>2020-06-17T15:36:18Z</time>
      </trkpt>
      <trkpt lat="49.42133" lon="0.25998">
        <ele>6.4</ele>
        <time>2020-06-17T15:36:19Z</time>
      </trkpt>
      <trkpt lat="49.42129" lon="0.25999">
        <ele>6.5</ele>
        <time>2020-06-17T15:36:20Z</time>
      </trkpt>
      <trkpt lat="49.42124" lon="0.26">
        <ele>6.5</ele>
        <time>2020-06-17T15:36:21Z</time>
      </trkpt>
      <trkpt lat="49.42119" lon="0.26">
        <ele>6.5</ele>
        <time>2020-06-17T15:36:22Z</time>
      </trkpt>
      <trkpt lat="49.42114" lon="0.26001">
        <ele>6.6</ele>
        <time>2020-06-17T15:36:23Z</time>
      </trkpt>
      <trkpt lat="49.42108" lon="0.26">
        <ele>6.6</ele>
        <time>2020-06-17T15:36:24Z</time>
      </trkpt>
      <trkpt lat="49.42102" lon="0.26">
        <ele>6.6</ele>
        <time>2020-06-17T15:36:25Z</time>
      </trkpt>
      <trkpt lat="49.42098" lon="0.25999">
        <ele>6.5</ele>
        <time>2020-06-17T15:36:26Z</time>
      </trkpt>
      <trkpt lat="49.42094" lon="0.25998">
        <ele>6.5</ele>
        <time>2020-06-17T15:36:27Z</time>
      </trkpt>
      <trkpt lat="49.4209" lon="0.25999">
        <ele>6.5</ele>
        <time>2020-06-17T15:36:28Z</time>
      </trkpt>
      <trkpt lat="49.42086" lon="0.25999">
        <ele>6.5</ele>
        <time>2020-06-17T15:36:29Z</time>
      </trkpt>
      <trkpt lat="49.42082" lon="0.26">
        <ele>6.4</ele>
        <time>2020-06-17T15:36:30Z</time>
      </trkpt>
      <trkpt lat="49.42077" lon="0.26">
        <ele>6.4</ele>
        <time>2020-06-17T15:36:31Z</time>
      </trkpt>
      <trkpt lat="49.42072" lon="0.26">
        <ele>6.4</ele>
        <time>2020-06-17T15:36:32Z</time>
      </trkpt>
      <trkpt lat="49.42067" lon="0.26001">
        <ele>6.3</ele>
        <time>2020-06-17T15:36:33Z</time>
      </trkpt>
      <trkpt lat="49.42062" lon="0.26002">
        <ele>6.3</ele>
        <time>2020-06-17T15:36:34Z</time>
      </trkpt>
      <trkpt lat="49.42057" lon="0.26002">
        <ele>6.3</ele>
        <time>2020-06-17T15:36:35Z</time>
      </trkpt>
      <trkpt lat="49.42052" lon="0.26002">
        <ele>6.3</ele>
        <time>2020-06-17T15:36:36Z</time>
      </trkpt>
      <trkpt lat="49.42047" lon="0.26002">
        <ele>6.2</ele>
        <time>2020-06-17T15:36:37Z</time>
      </trkpt>
      <trkpt lat="49.42042" lon="0.26002">
        <ele>6.2</ele>
        <time>2020-06-17T15:36:38Z</time>
      </trkpt>
      <trkpt lat="49.42038" lon="0.26002">
        <ele>6.2</ele>
        <time>2020-06-17T15:36:39Z</time>
      </trkpt>
      <trkpt lat="49.42034" lon="0.26002">
        <ele>6.2</ele>
        <time>2020-06-17T15:36:40Z</time>
      </trkpt>
      <trkpt lat="49.4203" lon="0.26003">
        <ele>6.2</ele>
        <time>2020-06-17T15:36:41Z</time>
      </trkpt>
      <trkpt lat="49.42026" lon="0.26003">
        <ele>6.1</ele>
        <time>2020-06-17T15:36:42Z</time>
      </trkpt>
      <trkpt lat="49.42021" lon="0.26003">
        <ele>6.1</ele>
        <time>2020-06-17T15:36:43Z</time>
      </trkpt>
      <trkpt lat="49.42017" lon="0.26004">
        <ele>6.1</ele>
        <time>2020-06-17T15:36:44Z</time>
      </trkpt>
      <trkpt lat="49.42013" lon="0.26006">
        <ele>6.1</ele>
        <time>2020-06-17T15:36:45Z</time>
      </trkpt>
      <trkpt lat="49.4201" lon="0.26007">
        <ele>6.1</ele>
        <time>2020-06-17T15:36:46Z</time>
      </trkpt>
      <trkpt lat="49.42006" lon="0.26012">
        <ele>6.1</ele>
        <time>2020-06-17T15:36:47Z</time>
      </trkpt>
      <trkpt lat="49.42005" lon="0.26018">
        <ele>5.8</ele>
        <time>2020-06-17T15:36:48Z</time>
      </trkpt>
      <trkpt lat="49.42003" lon="0.26025">
        <ele>5.7</ele>
        <time>2020-06-17T15:36:49Z</time>
      </trkpt>
      <trkpt lat="49.42002" lon="0.26031">
        <ele>5.6</ele>
        <time>2020-06-17T15:36:50Z</time>
      </trkpt>
      <trkpt lat="49.42001" lon="0.26036">
        <ele>5.5</ele>
        <time>2020-06-17T15:36:51Z</time>
      </trkpt>
      <trkpt lat="49.42002" lon="0.26044">
        <ele>5.4</ele>
        <time>2020-06-17T15:36:52Z</time>
      </trkpt>
      <trkpt lat="49.42003" lon="0.26051">
        <ele>5.3</ele>
        <time>2020-06-17T15:36:53Z</time>
      </trkpt>
      <trkpt lat="49.42003" lon="0.26058">
        <ele>5.3</ele>
        <time>2020-06-17T15:36:54Z</time>
      </trkpt>
      <trkpt lat="49.42003" lon="0.26065">
        <ele>5.2</ele>
        <time>2020-06-17T15:36:55Z</time>
      </trkpt>
      <trkpt lat="49.42003" lon="0.26071">
        <ele>5.2</ele>
        <time>2020-06-17T15:36:56Z</time>
      </trkpt>
      <trkpt lat="49.42003" lon="0.26078">
        <ele>5.2</ele>
        <time>2020-06-17T15:36:57Z</time>
      </trkpt>
      <trkpt lat="49.42003" lon="0.26088">
        <ele>5.2</ele>
        <time>2020-06-17T15:36:58Z</time>
      </trkpt>
      <trkpt lat="49.42002" lon="0.26096">
        <ele>5.2</ele>
        <time>2020-06-17T15:36:59Z</time>
      </trkpt>
      <trkpt lat="49.42002" lon="0.26105">
        <ele>5.2</ele>
        <time>2020-06-17T15:37:00Z</time>
      </trkpt>
      <trkpt lat="49.42002" lon="0.26113">
        <ele>5.1</ele>
        <time>2020-06-17T15:37:01Z</time>
      </trkpt>
      <trkpt lat="49.42002" lon="0.26121">
        <ele>5.1</ele>
        <time>2020-06-17T15:37:02Z</time>
      </trkpt>
      <trkpt lat="49.42002" lon="0.26128">
        <ele>5.1</ele>
        <time>2020-06-17T15:37:03Z</time>
      </trkpt>
      <trkpt lat="49.42002" lon="0.26135">
        <ele>5.1</ele>
        <time>2020-06-17T15:37:04Z</time>
      </trkpt>
      <trkpt lat="49.42002" lon="0.26143">
        <ele>5.1</ele>
        <time>2020-06-17T15:37:05Z</time>
      </trkpt>
      <trkpt lat="49.42002" lon="0.26149">
        <ele>5.1</ele>
        <time>2020-06-17T15:37:06Z</time>
      </trkpt>
      <trkpt lat="49.42002" lon="0.26156">
        <ele>5.2</ele>
        <time>2020-06-17T15:37:07Z</time>
      </trkpt>
      <trkpt lat="49.42001" lon="0.26164">
        <ele>5.2</ele>
        <time>2020-06-17T15:37:08Z</time>
      </trkpt>
      <trkpt lat="49.42001" lon="0.26171">
        <ele>5.2</ele>
        <time>2020-06-17T15:37:09Z</time>
      </trkpt>
      <trkpt lat="49.42" lon="0.26178">
        <ele>5.2</ele>
        <time>2020-06-17T15:37:10Z</time>
      </trkpt>
      <trkpt lat="49.42" lon="0.26186">
        <ele>5.2</ele>
        <time>2020-06-17T15:37:11Z</time>
      </trkpt>
      <trkpt lat="49.41999" lon="0.26194">
        <ele>5.2</ele>
        <time>2020-06-17T15:37:12Z</time>
      </trkpt>
      <trkpt lat="49.41999" lon="0.26201">
        <ele>5.2</ele>
        <time>2020-06-17T15:37:13Z</time>
      </trkpt>
      <trkpt lat="49.41998" lon="0.2621">
        <ele>5.2</ele>
        <time>2020-06-17T15:37:14Z</time>
      </trkpt>
      <trkpt lat="49.41998" lon="0.26219">
        <ele>5.2</ele>
        <time>2020-06-17T15:37:15Z</time>
      </trkpt>
      <trkpt lat="49.41997" lon="0.26228">
        <ele>5.2</ele>
        <time>2020-06-17T15:37:16Z</time>
      </trkpt>
      <trkpt lat="49.41997" lon="0.26236">
        <ele>5.2</ele>
        <time>2020-06-17T15:37:17Z</time>
      </trkpt>
      <trkpt lat="49.41997" lon="0.26245">
        <ele>5.2</ele>
        <time>2020-06-17T15:37:18Z</time>
      </trkpt>
      <trkpt lat="49.41997" lon="0.26253">
        <ele>5.2</ele>
        <time>2020-06-17T15:37:19Z</time>
      </trkpt>
      <trkpt lat="49.41997" lon="0.26261">
        <ele>5.2</ele>
        <time>2020-06-17T15:37:20Z</time>
      </trkpt>
      <trkpt lat="49.41997" lon="0.26268">
        <ele>5.2</ele>
        <time>2020-06-17T15:37:21Z</time>
      </trkpt>
      <trkpt lat="49.41996" lon="0.26276">
        <ele>5.2</ele>
        <time>2020-06-17T15:37:22Z</time>
      </trkpt>
      <trkpt lat="49.41996" lon="0.26283">
        <ele>5.3</ele>
        <time>2020-06-17T15:37:23Z</time>
      </trkpt>
      <trkpt lat="49.41995" lon="0.2629">
        <ele>5.3</ele>
        <time>2020-06-17T15:37:24Z</time>
      </trkpt>
      <trkpt lat="49.41994" lon="0.26298">
        <ele>5.3</ele>
        <time>2020-06-17T15:37:25Z</time>
      </trkpt>
      <trkpt lat="49.41993" lon="0.26305">
        <ele>5.4</ele>
        <time>2020-06-17T15:37:26Z</time>
      </trkpt>
      <trkpt lat="49.41992" lon="0.26314">
        <ele>5.4</ele>
        <time>2020-06-17T15:37:27Z</time>
      </trkpt>
      <trkpt lat="49.41993" lon="0.26322">
        <ele>5.4</ele>
        <time>2020-06-17T15:37:28Z</time>
      </trkpt>
      <trkpt lat="49.41992" lon="0.2633">
        <ele>5.4</ele>
        <time>2020-06-17T15:37:29Z</time>
      </trkpt>
      <trkpt lat="49.41991" lon="0.26339">
        <ele>5.5</ele>
        <time>2020-06-17T15:37:30Z</time>
      </trkpt>
      <trkpt lat="49.41991" lon="0.26346">
        <ele>5.5</ele>
        <time>2020-06-17T15:37:31Z</time>
      </trkpt>
      <trkpt lat="49.41991" lon="0.26353">
        <ele>5.5</ele>
        <time>2020-06-17T15:37:32Z</time>
      </trkpt>
      <trkpt lat="49.41991" lon="0.2636">
        <ele>5.5</ele>
        <time>2020-06-17T15:37:33Z</time>
      </trkpt>
      <trkpt lat="49.4199" lon="0.26368">
        <ele>5.5</ele>
        <time>2020-06-17T15:37:34Z</time>
      </trkpt>
      <trkpt lat="49.4199" lon="0.26377">
        <ele>5.5</ele>
        <time>2020-06-17T15:37:35Z</time>
      </trkpt>
      <trkpt lat="49.41988" lon="0.26384">
        <ele>5.5</ele>
        <time>2020-06-17T15:37:36Z</time>
      </trkpt>
      <trkpt lat="49.41988" lon="0.26392">
        <ele>5.5</ele>
        <time>2020-06-17T15:37:37Z</time>
      </trkpt>
      <trkpt lat="49.41988" lon="0.26401">
        <ele>5.4</ele>
        <time>2020-06-17T15:37:38Z</time>
      </trkpt>
      <trkpt lat="49.41988" lon="0.2641">
        <ele>5.4</ele>
        <time>2020-06-17T15:37:39Z</time>
      </trkpt>
      <trkpt lat="49.41988" lon="0.26418">
        <ele>5.4</ele>
        <time>2020-06-17T15:37:40Z</time>
      </trkpt>
      <trkpt lat="49.41988" lon="0.26427">
        <ele>5.4</ele>
        <time>2020-06-17T15:37:41Z</time>
      </trkpt>
      <trkpt lat="49.41988" lon="0.26435">
        <ele>5.4</ele>
        <time>2020-06-17T15:37:42Z</time>
      </trkpt>
      <trkpt lat="49.41987" lon="0.26443">
        <ele>5.4</ele>
        <time>2020-06-17T15:37:43Z</time>
      </trkpt>
      <trkpt lat="49.41987" lon="0.26452">
        <ele>5.4</ele>
        <time>2020-06-17T15:37:44Z</time>
      </trkpt>
      <trkpt lat="49.41987" lon="0.26461">
        <ele>5.4</ele>
        <time>2020-06-17T15:37:45Z</time>
      </trkpt>
      <trkpt lat="49.41987" lon="0.2647">
        <ele>5.4</ele>
        <time>2020-06-17T15:37:46Z</time>
      </trkpt>
      <trkpt lat="49.41986" lon="0.2648">
        <ele>5.4</ele>
        <time>2020-06-17T15:37:47Z</time>
      </trkpt>
      <trkpt lat="49.41986" lon="0.26489">
        <ele>5.4</ele>
        <time>2020-06-17T15:37:48Z</time>
      </trkpt>
      <trkpt lat="49.41985" lon="0.26496">
        <ele>5.4</ele>
        <time>2020-06-17T15:37:49Z</time>
      </trkpt>
      <trkpt lat="49.41984" lon="0.26503">
        <ele>5.4</ele>
        <time>2020-06-17T15:37:50Z</time>
      </trkpt>
      <trkpt lat="49.41984" lon="0.26512">
        <ele>5.4</ele>
        <time>2020-06-17T15:37:51Z</time>
      </trkpt>
      <trkpt lat="49.41983" lon="0.2652">
        <ele>5.4</ele>
        <time>2020-06-17T15:37:52Z</time>
      </trkpt>
      <trkpt lat="49.41983" lon="0.26528">
        <ele>5.4</ele>
        <time>2020-06-17T15:37:53Z</time>
      </trkpt>
      <trkpt lat="49.41982" lon="0.26537">
        <ele>5.4</ele>
        <time>2020-06-17T15:37:54Z</time>
      </trkpt>
      <trkpt lat="49.41981" lon="0.26546">
        <ele>5.4</ele>
        <time>2020-06-17T15:37:55Z</time>
      </trkpt>
      <trkpt lat="49.4198" lon="0.26555">
        <ele>5.4</ele>
        <time>2020-06-17T15:37:56Z</time>
      </trkpt>
      <trkpt lat="49.4198" lon="0.26565">
        <ele>5.4</ele>
        <time>2020-06-17T15:37:57Z</time>
      </trkpt>
      <trkpt lat="49.41979" lon="0.26574">
        <ele>5.4</ele>
        <time>2020-06-17T15:37:58Z</time>
      </trkpt>
      <trkpt lat="49.41978" lon="0.26583">
        <ele>5.4</ele>
        <time>2020-06-17T15:37:59Z</time>
      </trkpt>
      <trkpt lat="49.41979" lon="0.2659">
        <ele>5.4</ele>
        <time>2020-06-17T15:38:00Z</time>
      </trkpt>
      <trkpt lat="49.41979" lon="0.26598">
        <ele>5.4</ele>
        <time>2020-06-17T15:38:01Z</time>
      </trkpt>
      <trkpt lat="49.41978" lon="0.26608">
        <ele>5.4</ele>
        <time>2020-06-17T15:38:02Z</time>
      </trkpt>
      <trkpt lat="49.41978" lon="0.26617">
        <ele>5.4</ele>
        <time>2020-06-17T15:38:03Z</time>
      </trkpt>
      <trkpt lat="49.41978" lon="0.26626">
        <ele>5.4</ele>
        <time>2020-06-17T15:38:04Z</time>
      </trkpt>
      <trkpt lat="49.41976" lon="0.26634">
        <ele>5.4</ele>
        <time>2020-06-17T15:38:05Z</time>
      </trkpt>
      <trkpt lat="49.41976" lon="0.26643">
        <ele>5.4</ele>
        <time>2020-06-17T15:38:06Z</time>
      </trkpt>
      <trkpt lat="49.41976" lon="0.2665">
        <ele>5.4</ele>
        <time>2020-06-17T15:38:07Z</time>
      </trkpt>
      <trkpt lat="49.41975" lon="0.26659">
        <ele>5.4</ele>
        <time>2020-06-17T15:38:08Z</time>
      </trkpt>
      <trkpt lat="49.41975" lon="0.26668">
        <ele>5.4</ele>
        <time>2020-06-17T15:38:09Z</time>
      </trkpt>
      <trkpt lat="49.41975" lon="0.26678">
        <ele>5.4</ele>
        <time>2020-06-17T15:38:10Z</time>
      </trkpt>
      <trkpt lat="49.41975" lon="0.26687">
        <ele>5.4</ele>
        <time>2020-06-17T15:38:11Z</time>
      </trkpt>
      <trkpt lat="49.41973" lon="0.26695">
        <ele>5.4</ele>
        <time>2020-06-17T15:38:12Z</time>
      </trkpt>
      <trkpt lat="49.41972" lon="0.26704">
        <ele>5.4</ele>
        <time>2020-06-17T15:38:13Z</time>
      </trkpt>
      <trkpt lat="49.4197" lon="0.26712">
        <ele>5.5</ele>
        <time>2020-06-17T15:38:14Z</time>
      </trkpt>
      <trkpt lat="49.41968" lon="0.26721">
        <ele>5.4</ele>
        <time>2020-06-17T15:38:15Z</time>
      </trkpt>
      <trkpt lat="49.41967" lon="0.26731">
        <ele>5.4</ele>
        <time>2020-06-17T15:38:16Z</time>
      </trkpt>
      <trkpt lat="49.41966" lon="0.2674">
        <ele>5.4</ele>
        <time>2020-06-17T15:38:17Z</time>
      </trkpt>
      <trkpt lat="49.41965" lon="0.26748">
        <ele>5.4</ele>
        <time>2020-06-17T15:38:18Z</time>
      </trkpt>
      <trkpt lat="49.41964" lon="0.26757">
        <ele>5.5</ele>
        <time>2020-06-17T15:38:19Z</time>
      </trkpt>
      <trkpt lat="49.41964" lon="0.26766">
        <ele>5.5</ele>
        <time>2020-06-17T15:38:20Z</time>
      </trkpt>
      <trkpt lat="49.41963" lon="0.26775">
        <ele>5.5</ele>
        <time>2020-06-17T15:38:21Z</time>
      </trkpt>
      <trkpt lat="49.41963" lon="0.26784">
        <ele>5.5</ele>
        <time>2020-06-17T15:38:22Z</time>
      </trkpt>
      <trkpt lat="49.41963" lon="0.26792">
        <ele>5.5</ele>
        <time>2020-06-17T15:38:23Z</time>
      </trkpt>
      <trkpt lat="49.41962" lon="0.26801">
        <ele>5.5</ele>
        <time>2020-06-17T15:38:24Z</time>
      </trkpt>
      <trkpt lat="49.41962" lon="0.2681">
        <ele>5.4</ele>
        <time>2020-06-17T15:38:25Z</time>
      </trkpt>
      <trkpt lat="49.41961" lon="0.26818">
        <ele>5.4</ele>
        <time>2020-06-17T15:38:26Z</time>
      </trkpt>
      <trkpt lat="49.4196" lon="0.26826">
        <ele>5.4</ele>
        <time>2020-06-17T15:38:27Z</time>
      </trkpt>
      <trkpt lat="49.41959" lon="0.26834">
        <ele>5.3</ele>
        <time>2020-06-17T15:38:28Z</time>
      </trkpt>
      <trkpt lat="49.41959" lon="0.26843">
        <ele>5.3</ele>
        <time>2020-06-17T15:38:29Z</time>
      </trkpt>
      <trkpt lat="49.41958" lon="0.26851">
        <ele>5.3</ele>
        <time>2020-06-17T15:38:30Z</time>
      </trkpt>
      <trkpt lat="49.41958" lon="0.2686">
        <ele>5.3</ele>
        <time>2020-06-17T15:38:31Z</time>
      </trkpt>
      <trkpt lat="49.41957" lon="0.2687">
        <ele>5.2</ele>
        <time>2020-06-17T15:38:32Z</time>
      </trkpt>
      <trkpt lat="49.41957" lon="0.2688">
        <ele>5.2</ele>
        <time>2020-06-17T15:38:33Z</time>
      </trkpt>
      <trkpt lat="49.41957" lon="0.26889">
        <ele>5.3</ele>
        <time>2020-06-17T15:38:34Z</time>
      </trkpt>
      <trkpt lat="49.41957" lon="0.26898">
        <ele>5.3</ele>
        <time>2020-06-17T15:38:35Z</time>
      </trkpt>
      <trkpt lat="49.41956" lon="0.26907">
        <ele>5.3</ele>
        <time>2020-06-17T15:38:36Z</time>
      </trkpt>
      <trkpt lat="49.41955" lon="0.26916">
        <ele>5.3</ele>
        <time>2020-06-17T15:38:37Z</time>
      </trkpt>
      <trkpt lat="49.41955" lon="0.26925">
        <ele>5.3</ele>
        <time>2020-06-17T15:38:38Z</time>
      </trkpt>
      <trkpt lat="49.41954" lon="0.26934">
        <ele>5.3</ele>
        <time>2020-06-17T15:38:39Z</time>
      </trkpt>
      <trkpt lat="49.41953" lon="0.26942">
        <ele>5.3</ele>
        <time>2020-06-17T15:38:40Z</time>
      </trkpt>
      <trkpt lat="49.41953" lon="0.26951">
        <ele>5.3</ele>
        <time>2020-06-17T15:38:41Z</time>
      </trkpt>
      <trkpt lat="49.41952" lon="0.2696">
        <ele>5.2</ele>
        <time>2020-06-17T15:38:42Z</time>
      </trkpt>
      <trkpt lat="49.41951" lon="0.26969">
        <ele>5.2</ele>
        <time>2020-06-17T15:38:43Z</time>
      </trkpt>
      <trkpt lat="49.41951" lon="0.26977">
        <ele>5.3</ele>
        <time>2020-06-17T15:38:44Z</time>
      </trkpt>
      <trkpt lat="49.41951" lon="0.26986">
        <ele>5.3</ele>
        <time>2020-06-17T15:38:45Z</time>
      </trkpt>
      <trkpt lat="49.4195" lon="0.26994">
        <ele>5.3</ele>
        <time>2020-06-17T15:38:46Z</time>
      </trkpt>
      <trkpt lat="49.4195" lon="0.27003">
        <ele>5.3</ele>
        <time>2020-06-17T15:38:47Z</time>
      </trkpt>
      <trkpt lat="49.4195" lon="0.27012">
        <ele>5.3</ele>
        <time>2020-06-17T15:38:48Z</time>
      </trkpt>
      <trkpt lat="49.4195" lon="0.27019">
        <ele>5.3</ele>
        <time>2020-06-17T15:38:49Z</time>
      </trkpt>
      <trkpt lat="49.41948" lon="0.27027">
        <ele>5.3</ele>
        <time>2020-06-17T15:38:50Z</time>
      </trkpt>
      <trkpt lat="49.41947" lon="0.27036">
        <ele>5.3</ele>
        <time>2020-06-17T15:38:51Z</time>
      </trkpt>
      <trkpt lat="49.41946" lon="0.27045">
        <ele>5.3</ele>
        <time>2020-06-17T15:38:52Z</time>
      </trkpt>
      <trkpt lat="49.41946" lon="0.27054">
        <ele>5.3</ele>
        <time>2020-06-17T15:38:53Z</time>
      </trkpt>
      <trkpt lat="49.41946" lon="0.27063">
        <ele>5.3</ele>
        <time>2020-06-17T15:38:54Z</time>
      </trkpt>
      <trkpt lat="49.41946" lon="0.27072">
        <ele>5.3</ele>
        <time>2020-06-17T15:38:55Z</time>
      </trkpt>
      <trkpt lat="49.41947" lon="0.27079">
        <ele>5.3</ele>
        <time>2020-06-17T15:38:56Z</time>
      </trkpt>
      <trkpt lat="49.41947" lon="0.27086">
        <ele>5.3</ele>
        <time>2020-06-17T15:38:57Z</time>
      </trkpt>
      <trkpt lat="49.41946" lon="0.27095">
        <ele>5.3</ele>
        <time>2020-06-17T15:38:58Z</time>
      </trkpt>
      <trkpt lat="49.41946" lon="0.27104">
        <ele>5.3</ele>
        <time>2020-06-17T15:38:59Z</time>
      </trkpt>
      <trkpt lat="49.41944" lon="0.27113">
        <ele>5.4</ele>
        <time>2020-06-17T15:39:00Z</time>
      </trkpt>
      <trkpt lat="49.41943" lon="0.27121">
        <ele>5.4</ele>
        <time>2020-06-17T15:39:01Z</time>
      </trkpt>
      <trkpt lat="49.41943" lon="0.2713">
        <ele>5.4</ele>
        <time>2020-06-17T15:39:02Z</time>
      </trkpt>
      <trkpt lat="49.41942" lon="0.27137">
        <ele>5.4</ele>
        <time>2020-06-17T15:39:03Z</time>
      </trkpt>
      <trkpt lat="49.41942" lon="0.27146">
        <ele>5.4</ele>
        <time>2020-06-17T15:39:04Z</time>
      </trkpt>
      <trkpt lat="49.41941" lon="0.27155">
        <ele>5.4</ele>
        <time>2020-06-17T15:39:05Z</time>
      </trkpt>
      <trkpt lat="49.41942" lon="0.2716">
        <ele>5.4</ele>
        <time>2020-06-17T15:39:06Z</time>
      </trkpt>
      <trkpt lat="49.41943" lon="0.27168">
        <ele>5.4</ele>
        <time>2020-06-17T15:39:07Z</time>
      </trkpt>
      <trkpt lat="49.41943" lon="0.27176">
        <ele>5.4</ele>
        <time>2020-06-17T15:39:08Z</time>
      </trkpt>
      <trkpt lat="49.41943" lon="0.27184">
        <ele>5.4</ele>
        <time>2020-06-17T15:39:09Z</time>
      </trkpt>
      <trkpt lat="49.41943" lon="0.27192">
        <ele>5.4</ele>
        <time>2020-06-17T15:39:10Z</time>
      </trkpt>
      <trkpt lat="49.41943" lon="0.272">
        <ele>5.4</ele>
        <time>2020-06-17T15:39:11Z</time>
      </trkpt>
      <trkpt lat="49.41943" lon="0.2721">
        <ele>5.4</ele>
        <time>2020-06-17T15:39:12Z</time>
      </trkpt>
      <trkpt lat="49.41943" lon="0.27218">
        <ele>5.4</ele>
        <time>2020-06-17T15:39:13Z</time>
      </trkpt>
      <trkpt lat="49.41943" lon="0.27227">
        <ele>5.4</ele>
        <time>2020-06-17T15:39:14Z</time>
      </trkpt>
      <trkpt lat="49.41943" lon="0.27236">
        <ele>5.4</ele>
        <time>2020-06-17T15:39:15Z</time>
      </trkpt>
      <trkpt lat="49.41942" lon="0.27244">
        <ele>5.4</ele>
        <time>2020-06-17T15:39:16Z</time>
      </trkpt>
      <trkpt lat="49.41942" lon="0.27253">
        <ele>5.4</ele>
        <time>2020-06-17T15:39:17Z</time>
      </trkpt>
      <trkpt lat="49.41942" lon="0.27261">
        <ele>5.4</ele>
        <time>2020-06-17T15:39:18Z</time>
      </trkpt>
      <trkpt lat="49.41942" lon="0.27269">
        <ele>5.3</ele>
        <time>2020-06-17T15:39:19Z</time>
      </trkpt>
      <trkpt lat="49.41941" lon="0.27278">
        <ele>5.3</ele>
        <time>2020-06-17T15:39:20Z</time>
      </trkpt>
      <trkpt lat="49.4194" lon="0.27286">
        <ele>5.3</ele>
        <time>2020-06-17T15:39:21Z</time>
      </trkpt>
      <trkpt lat="49.4194" lon="0.27294">
        <ele>5.3</ele>
        <time>2020-06-17T15:39:22Z</time>
      </trkpt>
      <trkpt lat="49.41939" lon="0.27302">
        <ele>5.3</ele>
        <time>2020-06-17T15:39:23Z</time>
      </trkpt>
      <trkpt lat="49.41939" lon="0.27311">
        <ele>5.3</ele>
        <time>2020-06-17T15:39:24Z</time>
      </trkpt>
      <trkpt lat="49.41939" lon="0.27317">
        <ele>5.3</ele>
        <time>2020-06-17T15:39:25Z</time>
      </trkpt>
      <trkpt lat="49.41939" lon="0.27324">
        <ele>5.3</ele>
        <time>2020-06-17T15:39:26Z</time>
      </trkpt>
      <trkpt lat="49.41936" lon="0.27332">
        <ele>5.3</ele>
        <time>2020-06-17T15:39:27Z</time>
      </trkpt>
      <trkpt lat="49.41935" lon="0.2734">
        <ele>5.3</ele>
        <time>2020-06-17T15:39:28Z</time>
      </trkpt>
      <trkpt lat="49.41933" lon="0.27347">
        <ele>5.3</ele>
        <time>2020-06-17T15:39:29Z</time>
      </trkpt>
      <trkpt lat="49.41932" lon="0.27353">
        <ele>5.3</ele>
        <time>2020-06-17T15:39:30Z</time>
      </trkpt>
      <trkpt lat="49.41931" lon="0.27361">
        <ele>5.3</ele>
        <time>2020-06-17T15:39:31Z</time>
      </trkpt>
      <trkpt lat="49.4193" lon="0.27369">
        <ele>5.4</ele>
        <time>2020-06-17T15:39:32Z</time>
      </trkpt>
      <trkpt lat="49.4193" lon="0.27377">
        <ele>5.4</ele>
        <time>2020-06-17T15:39:33Z</time>
      </trkpt>
      <trkpt lat="49.4193" lon="0.27384">
        <ele>5.4</ele>
        <time>2020-06-17T15:39:34Z</time>
      </trkpt>
      <trkpt lat="49.41929" lon="0.27391">
        <ele>5.4</ele>
        <time>2020-06-17T15:39:35Z</time>
      </trkpt>
      <trkpt lat="49.41928" lon="0.27398">
        <ele>5.5</ele>
        <time>2020-06-17T15:39:36Z</time>
      </trkpt>
      <trkpt lat="49.41928" lon="0.27403">
        <ele>5.5</ele>
        <time>2020-06-17T15:39:37Z</time>
      </trkpt>
      <trkpt lat="49.41927" lon="0.27409">
        <ele>5.5</ele>
        <time>2020-06-17T15:39:38Z</time>
      </trkpt>
      <trkpt lat="49.41928" lon="0.27415">
        <ele>5.5</ele>
        <time>2020-06-17T15:39:39Z</time>
      </trkpt>
      <trkpt lat="49.41927" lon="0.27419">
        <ele>5.5</ele>
        <time>2020-06-17T15:39:40Z</time>
      </trkpt>
      <trkpt lat="49.41925" lon="0.27425">
        <ele>5.6</ele>
        <time>2020-06-17T15:39:41Z</time>
      </trkpt>
      <trkpt lat="49.41924" lon="0.27431">
        <ele>5.6</ele>
        <time>2020-06-17T15:39:42Z</time>
      </trkpt>
      <trkpt lat="49.41924" lon="0.27438">
        <ele>5.6</ele>
        <time>2020-06-17T15:39:43Z</time>
      </trkpt>
      <trkpt lat="49.41923" lon="0.27446">
        <ele>5.6</ele>
        <time>2020-06-17T15:39:44Z</time>
      </trkpt>
      <trkpt lat="49.41923" lon="0.27453">
        <ele>5.6</ele>
        <time>2020-06-17T15:39:45Z</time>
      </trkpt>
      <trkpt lat="49.41924" lon="0.2746">
        <ele>5.6</ele>
        <time>2020-06-17T15:39:46Z</time>
      </trkpt>
      <trkpt lat="49.41923" lon="0.27467">
        <ele>5.6</ele>
        <time>2020-06-17T15:39:47Z</time>
      </trkpt>
      <trkpt lat="49.41923" lon="0.27474">
        <ele>5.6</ele>
        <time>2020-06-17T15:39:48Z</time>
      </trkpt>
      <trkpt lat="49.41924" lon="0.27482">
        <ele>5.6</ele>
        <time>2020-06-17T15:39:49Z</time>
      </trkpt>
      <trkpt lat="49.41924" lon="0.27489">
        <ele>5.7</ele>
        <time>2020-06-17T15:39:50Z</time>
      </trkpt>
      <trkpt lat="49.41924" lon="0.27495">
        <ele>5.7</ele>
        <time>2020-06-17T15:39:51Z</time>
      </trkpt>
      <trkpt lat="49.41925" lon="0.27502">
        <ele>5.7</ele>
        <time>2020-06-17T15:39:52Z</time>
      </trkpt>
      <trkpt lat="49.41926" lon="0.27508">
        <ele>5.7</ele>
        <time>2020-06-17T15:39:53Z</time>
      </trkpt>
      <trkpt lat="49.41927" lon="0.27515">
        <ele>5.8</ele>
        <time>2020-06-17T15:39:54Z</time>
      </trkpt>
      <trkpt lat="49.41925" lon="0.27523">
        <ele>5.8</ele>
        <time>2020-06-17T15:39:55Z</time>
      </trkpt>
      <trkpt lat="49.41926" lon="0.27528">
        <ele>5.8</ele>
        <time>2020-06-17T15:39:56Z</time>
      </trkpt>
      <trkpt lat="49.41926" lon="0.27534">
        <ele>5.8</ele>
        <time>2020-06-17T15:39:57Z</time>
      </trkpt>
      <trkpt lat="49.41926" lon="0.27536">
        <ele>5.8</ele>
        <time>2020-06-17T15:39:58Z</time>
      </trkpt>
      <trkpt lat="49.41927" lon="0.27542">
        <ele>5.8</ele>
        <time>2020-06-17T15:39:59Z</time>
      </trkpt>
      <trkpt lat="49.41926" lon="0.27546">
        <ele>5.8</ele>
        <time>2020-06-17T15:40:00Z</time>
      </trkpt>
      <trkpt lat="49.41925" lon="0.27552">
        <ele>5.8</ele>
        <time>2020-06-17T15:40:01Z</time>
      </trkpt>
      <trkpt lat="49.41924" lon="0.27558">
        <ele>5.9</ele>
        <time>2020-06-17T15:40:02Z</time>
      </trkpt>
      <trkpt lat="49.41924" lon="0.27564">
        <ele>5.9</ele>
        <time>2020-06-17T15:40:03Z</time>
      </trkpt>
      <trkpt lat="49.41924" lon="0.2757">
        <ele>5.9</ele>
        <time>2020-06-17T15:40:04Z</time>
      </trkpt>
      <trkpt lat="49.41926" lon="0.27576">
        <ele>5.9</ele>
        <time>2020-06-17T15:40:05Z</time>
      </trkpt>
      <trkpt lat="49.41928" lon="0.27579">
        <ele>5.9</ele>
        <time>2020-06-17T15:40:06Z</time>
      </trkpt>
      <trkpt lat="49.41931" lon="0.27581">
        <ele>5.9</ele>
        <time>2020-06-17T15:40:07Z</time>
      </trkpt>
      <trkpt lat="49.41935" lon="0.27582">
        <ele>5.9</ele>
        <time>2020-06-17T15:40:08Z</time>
      </trkpt>
      <trkpt lat="49.41938" lon="0.27583">
        <ele>6</ele>
        <time>2020-06-17T15:40:09Z</time>
      </trkpt>
      <trkpt lat="49.41939" lon="0.27584">
        <ele>6</ele>
        <time>2020-06-17T15:40:10Z</time>
      </trkpt>
      <trkpt lat="49.41941" lon="0.27585">
        <ele>6</ele>
        <time>2020-06-17T15:40:11Z</time>
      </trkpt>
      <trkpt lat="49.41942" lon="0.27585">
        <ele>6</ele>
        <time>2020-06-17T15:40:12Z</time>
      </trkpt>
      <trkpt lat="49.41945" lon="0.27587">
        <ele>6</ele>
        <time>2020-06-17T15:40:13Z</time>
      </trkpt>
      <trkpt lat="49.41946" lon="0.27587">
        <ele>6</ele>
        <time>2020-06-17T15:40:14Z</time>
      </trkpt>
      <trkpt lat="49.41949" lon="0.27586">
        <ele>6</ele>
        <time>2020-06-17T15:40:15Z</time>
      </trkpt>
      <trkpt lat="49.4195" lon="0.27587">
        <ele>6</ele>
        <time>2020-06-17T15:40:16Z</time>
      </trkpt>
      <trkpt lat="49.41953" lon="0.27586">
        <ele>6</ele>
        <time>2020-06-17T15:40:17Z</time>
      </trkpt>
      <trkpt lat="49.41954" lon="0.27586">
        <ele>6</ele>
        <time>2020-06-17T15:40:18Z</time>
      </trkpt>
      <trkpt lat="49.41956" lon="0.27586">
        <ele>6</ele>
        <time>2020-06-17T15:40:19Z</time>
      </trkpt>
      <trkpt lat="49.41957" lon="0.27588">
        <ele>6</ele>
        <time>2020-06-17T15:40:20Z</time>
      </trkpt>
      <trkpt lat="49.41959" lon="0.27588">
        <ele>6</ele>
        <time>2020-06-17T15:40:21Z</time>
      </trkpt>
      <trkpt lat="49.41961" lon="0.27589">
        <ele>6</ele>
        <time>2020-06-17T15:40:22Z</time>
      </trkpt>
      <trkpt lat="49.41963" lon="0.2759">
        <ele>6</ele>
        <time>2020-06-17T15:40:23Z</time>
      </trkpt>
      <trkpt lat="49.41967" lon="0.27589">
        <ele>6</ele>
        <time>2020-06-17T15:40:24Z</time>
      </trkpt>
      <trkpt lat="49.41968" lon="0.27588">
        <ele>6</ele>
        <time>2020-06-17T15:40:25Z</time>
      </trkpt>
      <trkpt lat="49.41972" lon="0.27588">
        <ele>6</ele>
        <time>2020-06-17T15:40:26Z</time>
      </trkpt>
      <trkpt lat="49.41975" lon="0.27589">
        <ele>6</ele>
        <time>2020-06-17T15:40:27Z</time>
      </trkpt>
      <trkpt lat="49.41977" lon="0.2759">
        <ele>6</ele>
        <time>2020-06-17T15:40:28Z</time>
      </trkpt>
      <trkpt lat="49.41981" lon="0.27589">
        <ele>6</ele>
        <time>2020-06-17T15:40:29Z</time>
      </trkpt>
      <trkpt lat="49.41984" lon="0.2759">
        <ele>6</ele>
        <time>2020-06-17T15:40:30Z</time>
      </trkpt>
      <trkpt lat="49.41986" lon="0.27591">
        <ele>6</ele>
        <time>2020-06-17T15:40:31Z</time>
      </trkpt>
      <trkpt lat="49.4199" lon="0.27592">
        <ele>6</ele>
        <time>2020-06-17T15:40:32Z</time>
      </trkpt>
      <trkpt lat="49.41991" lon="0.27593">
        <ele>6</ele>
        <time>2020-06-17T15:40:33Z</time>
      </trkpt>
      <trkpt lat="49.41994" lon="0.27594">
        <ele>6</ele>
        <time>2020-06-17T15:40:34Z</time>
      </trkpt>
      <trkpt lat="49.41997" lon="0.27595">
        <ele>6</ele>
        <time>2020-06-17T15:40:35Z</time>
      </trkpt>
      <trkpt lat="49.42" lon="0.27597">
        <ele>6</ele>
        <time>2020-06-17T15:40:36Z</time>
      </trkpt>
      <trkpt lat="49.42004" lon="0.27597">
        <ele>6</ele>
        <time>2020-06-17T15:40:37Z</time>
      </trkpt>
      <trkpt lat="49.42007" lon="0.27598">
        <ele>6.1</ele>
        <time>2020-06-17T15:40:38Z</time>
      </trkpt>
      <trkpt lat="49.42012" lon="0.27599">
        <ele>6.1</ele>
        <time>2020-06-17T15:40:39Z</time>
      </trkpt>
      <trkpt lat="49.42016" lon="0.27598">
        <ele>6.2</ele>
        <time>2020-06-17T15:40:40Z</time>
      </trkpt>
      <trkpt lat="49.4202" lon="0.276">
        <ele>6.2</ele>
        <time>2020-06-17T15:40:41Z</time>
      </trkpt>
      <trkpt lat="49.42024" lon="0.27601">
        <ele>6.2</ele>
        <time>2020-06-17T15:40:42Z</time>
      </trkpt>
      <trkpt lat="49.42028" lon="0.27603">
        <ele>6.3</ele>
        <time>2020-06-17T15:40:43Z</time>
      </trkpt>
      <trkpt lat="49.42031" lon="0.27604">
        <ele>6.3</ele>
        <time>2020-06-17T15:40:44Z</time>
      </trkpt>
      <trkpt lat="49.42035" lon="0.27605">
        <ele>6.3</ele>
        <time>2020-06-17T15:40:45Z</time>
      </trkpt>
      <trkpt lat="49.42038" lon="0.27606">
        <ele>6.3</ele>
        <time>2020-06-17T15:40:46Z</time>
      </trkpt>
      <trkpt lat="49.42041" lon="0.27606">
        <ele>6.3</ele>
        <time>2020-06-17T15:40:47Z</time>
      </trkpt>
      <trkpt lat="49.42044" lon="0.27605">
        <ele>6.3</ele>
        <time>2020-06-17T15:40:48Z</time>
      </trkpt>
      <trkpt lat="49.42048" lon="0.27604">
        <ele>6.3</ele>
        <time>2020-06-17T15:40:49Z</time>
      </trkpt>
      <trkpt lat="49.42051" lon="0.27604">
        <ele>6.3</ele>
        <time>2020-06-17T15:40:50Z</time>
      </trkpt>
      <trkpt lat="49.42053" lon="0.27603">
        <ele>6.4</ele>
        <time>2020-06-17T15:40:51Z</time>
      </trkpt>
      <trkpt lat="49.42056" lon="0.27603">
        <ele>6.4</ele>
        <time>2020-06-17T15:40:52Z</time>
      </trkpt>
      <trkpt lat="49.42058" lon="0.27603">
        <ele>6.4</ele>
        <time>2020-06-17T15:40:53Z</time>
      </trkpt>
      <trkpt lat="49.4206" lon="0.27602">
        <ele>6.4</ele>
        <time>2020-06-17T15:40:54Z</time>
      </trkpt>
      <trkpt lat="49.42064" lon="0.27601">
        <ele>6.3</ele>
        <time>2020-06-17T15:40:55Z</time>
      </trkpt>
      <trkpt lat="49.42065" lon="0.276">
        <ele>6.3</ele>
        <time>2020-06-17T15:40:56Z</time>
      </trkpt>
      <trkpt lat="49.42068" lon="0.27599">
        <ele>6.3</ele>
        <time>2020-06-17T15:40:57Z</time>
      </trkpt>
      <trkpt lat="49.42071" lon="0.27598">
        <ele>6.2</ele>
        <time>2020-06-17T15:40:58Z</time>
      </trkpt>
      <trkpt lat="49.42074" lon="0.27594">
        <ele>6.2</ele>
        <time>2020-06-17T15:40:59Z</time>
      </trkpt>
      <trkpt lat="49.42077" lon="0.27593">
        <ele>6.1</ele>
        <time>2020-06-17T15:41:00Z</time>
      </trkpt>
      <trkpt lat="49.42081" lon="0.27592">
        <ele>6.1</ele>
        <time>2020-06-17T15:41:01Z</time>
      </trkpt>
      <trkpt lat="49.42084" lon="0.27591">
        <ele>6</ele>
        <time>2020-06-17T15:41:02Z</time>
      </trkpt>
      <trkpt lat="49.42088" lon="0.2759">
        <ele>6</ele>
        <time>2020-06-17T15:41:03Z</time>
      </trkpt>
      <trkpt lat="49.42092" lon="0.2759">
        <ele>6.1</ele>
        <time>2020-06-17T15:41:04Z</time>
      </trkpt>
      <trkpt lat="49.42095" lon="0.27587">
        <ele>6.1</ele>
        <time>2020-06-17T15:41:05Z</time>
      </trkpt>
      <trkpt lat="49.42098" lon="0.27586">
        <ele>6.2</ele>
        <time>2020-06-17T15:41:06Z</time>
      </trkpt>
      <trkpt lat="49.42102" lon="0.27584">
        <ele>6.2</ele>
        <time>2020-06-17T15:41:07Z</time>
      </trkpt>
      <trkpt lat="49.42105" lon="0.27582">
        <ele>6.3</ele>
        <time>2020-06-17T15:41:08Z</time>
      </trkpt>
      <trkpt lat="49.42108" lon="0.27582">
        <ele>6.3</ele>
        <time>2020-06-17T15:41:09Z</time>
      </trkpt>
      <trkpt lat="49.42112" lon="0.27582">
        <ele>6.4</ele>
        <time>2020-06-17T15:41:10Z</time>
      </trkpt>
      <trkpt lat="49.42115" lon="0.27581">
        <ele>6.5</ele>
        <time>2020-06-17T15:41:11Z</time>
      </trkpt>
      <trkpt lat="49.42118" lon="0.27581">
        <ele>6.6</ele>
        <time>2020-06-17T15:41:12Z</time>
      </trkpt>
      <trkpt lat="49.42122" lon="0.27582">
        <ele>6.7</ele>
        <time>2020-06-17T15:41:13Z</time>
      </trkpt>
      <trkpt lat="49.42125" lon="0.2758">
        <ele>6.8</ele>
        <time>2020-06-17T15:41:14Z</time>
      </trkpt>
      <trkpt lat="49.42129" lon="0.27578">
        <ele>6.9</ele>
        <time>2020-06-17T15:41:15Z</time>
      </trkpt>
      <trkpt lat="49.42133" lon="0.27577">
        <ele>7</ele>
        <time>2020-06-17T15:41:16Z</time>
      </trkpt>
      <trkpt lat="49.42135" lon="0.27577">
        <ele>7.1</ele>
        <time>2020-06-17T15:41:17Z</time>
      </trkpt>
      <trkpt lat="49.42138" lon="0.27577">
        <ele>7.2</ele>
        <time>2020-06-17T15:41:18Z</time>
      </trkpt>
      <trkpt lat="49.42142" lon="0.27576">
        <ele>7.3</ele>
        <time>2020-06-17T15:41:19Z</time>
      </trkpt>
      <trkpt lat="49.42145" lon="0.27574">
        <ele>7.3</ele>
        <time>2020-06-17T15:41:20Z</time>
      </trkpt>
      <trkpt lat="49.42149" lon="0.27571">
        <ele>7.4</ele>
        <time>2020-06-17T15:41:21Z</time>
      </trkpt>
      <trkpt lat="49.42152" lon="0.27569">
        <ele>7.5</ele>
        <time>2020-06-17T15:41:22Z</time>
      </trkpt>
      <trkpt lat="49.42155" lon="0.27568">
        <ele>7.6</ele>
        <time>2020-06-17T15:41:23Z</time>
      </trkpt>
      <trkpt lat="49.42159" lon="0.27568">
        <ele>7.7</ele>
        <time>2020-06-17T15:41:24Z</time>
      </trkpt>
      <trkpt lat="49.42163" lon="0.27568">
        <ele>7.8</ele>
        <time>2020-06-17T15:41:25Z</time>
      </trkpt>
      <trkpt lat="49.42167" lon="0.27568">
        <ele>8</ele>
        <time>2020-06-17T15:41:26Z</time>
      </trkpt>
      <trkpt lat="49.42171" lon="0.27567">
        <ele>8.1</ele>
        <time>2020-06-17T15:41:27Z</time>
      </trkpt>
      <trkpt lat="49.42175" lon="0.27567">
        <ele>8.2</ele>
        <time>2020-06-17T15:41:28Z</time>
      </trkpt>
      <trkpt lat="49.42178" lon="0.27566">
        <ele>8.4</ele>
        <time>2020-06-17T15:41:29Z</time>
      </trkpt>
      <trkpt lat="49.42182" lon="0.27566">
        <ele>8.5</ele>
        <time>2020-06-17T15:41:30Z</time>
      </trkpt>
      <trkpt lat="49.42184" lon="0.27566">
        <ele>8.6</ele>
        <time>2020-06-17T15:41:31Z</time>
      </trkpt>
      <trkpt lat="49.42188" lon="0.27564">
        <ele>8.8</ele>
        <time>2020-06-17T15:41:32Z</time>
      </trkpt>
      <trkpt lat="49.4219" lon="0.27564">
        <ele>8.9</ele>
        <time>2020-06-17T15:41:33Z</time>
      </trkpt>
      <trkpt lat="49.42193" lon="0.27564">
        <ele>9</ele>
        <time>2020-06-17T15:41:34Z</time>
      </trkpt>
      <trkpt lat="49.42196" lon="0.27564">
        <ele>9.2</ele>
        <time>2020-06-17T15:41:35Z</time>
      </trkpt>
      <trkpt lat="49.42199" lon="0.27562">
        <ele>9.3</ele>
        <time>2020-06-17T15:41:36Z</time>
      </trkpt>
      <trkpt lat="49.422" lon="0.27562">
        <ele>9.3</ele>
        <time>2020-06-17T15:41:37Z</time>
      </trkpt>
      <trkpt lat="49.42201" lon="0.27561">
        <ele>9.4</ele>
        <time>2020-06-17T15:41:38Z</time>
      </trkpt>
      <trkpt lat="49.42205" lon="0.2756">
        <ele>9.6</ele>
        <time>2020-06-17T15:41:39Z</time>
      </trkpt>
      <trkpt lat="49.42206" lon="0.27559">
        <ele>9.6</ele>
        <time>2020-06-17T15:41:40Z</time>
      </trkpt>
      <trkpt lat="49.4221" lon="0.27558">
        <ele>9.8</ele>
        <time>2020-06-17T15:41:41Z</time>
      </trkpt>
      <trkpt lat="49.42213" lon="0.27557">
        <ele>9.9</ele>
        <time>2020-06-17T15:41:42Z</time>
      </trkpt>
      <trkpt lat="49.42216" lon="0.27555">
        <ele>10</ele>
        <time>2020-06-17T15:41:43Z</time>
      </trkpt>
      <trkpt lat="49.42219" lon="0.27556">
        <ele>10.2</ele>
        <time>2020-06-17T15:41:44Z</time>
      </trkpt>
      <trkpt lat="49.42222" lon="0.27555">
        <ele>10.3</ele>
        <time>2020-06-17T15:41:45Z</time>
      </trkpt>
      <trkpt lat="49.42225" lon="0.27555">
        <ele>10.3</ele>
        <time>2020-06-17T15:41:46Z</time>
      </trkpt>
      <trkpt lat="49.42229" lon="0.27554">
        <ele>10.4</ele>
        <time>2020-06-17T15:41:47Z</time>
      </trkpt>
      <trkpt lat="49.42232" lon="0.27552">
        <ele>10.4</ele>
        <time>2020-06-17T15:41:48Z</time>
      </trkpt>
      <trkpt lat="49.42235" lon="0.27552">
        <ele>10.3</ele>
        <time>2020-06-17T15:41:49Z</time>
      </trkpt>
      <trkpt lat="49.42237" lon="0.2755">
        <ele>10.3</ele>
        <time>2020-06-17T15:41:50Z</time>
      </trkpt>
      <trkpt lat="49.4224" lon="0.27547">
        <ele>14.6</ele>
        <time>2020-06-17T15:41:51Z</time>
      </trkpt>
      <trkpt lat="49.42241" lon="0.27546">
        <ele>14.7</ele>
        <time>2020-06-17T15:41:52Z</time>
      </trkpt>
      <trkpt lat="49.42244" lon="0.27544">
        <ele>14.8</ele>
        <time>2020-06-17T15:41:53Z</time>
      </trkpt>
      <trkpt lat="49.42247" lon="0.27544">
        <ele>14.9</ele>
        <time>2020-06-17T15:41:54Z</time>
      </trkpt>
      <trkpt lat="49.4225" lon="0.27544">
        <ele>15</ele>
        <time>2020-06-17T15:41:55Z</time>
      </trkpt>
      <trkpt lat="49.42253" lon="0.27545">
        <ele>15.1</ele>
        <time>2020-06-17T15:41:56Z</time>
      </trkpt>
      <trkpt lat="49.42254" lon="0.27545">
        <ele>15.2</ele>
        <time>2020-06-17T15:41:57Z</time>
      </trkpt>
      <trkpt lat="49.42257" lon="0.27545">
        <ele>15.3</ele>
        <time>2020-06-17T15:41:58Z</time>
      </trkpt>
      <trkpt lat="49.4226" lon="0.27544">
        <ele>15.4</ele>
        <time>2020-06-17T15:41:59Z</time>
      </trkpt>
      <trkpt lat="49.42264" lon="0.27544">
        <ele>15.6</ele>
        <time>2020-06-17T15:42:00Z</time>
      </trkpt>
      <trkpt lat="49.42266" lon="0.27544">
        <ele>15.7</ele>
        <time>2020-06-17T15:42:01Z</time>
      </trkpt>
      <trkpt lat="49.4227" lon="0.27544">
        <ele>15.8</ele>
        <time>2020-06-17T15:42:02Z</time>
      </trkpt>
      <trkpt lat="49.42273" lon="0.27543">
        <ele>16</ele>
        <time>2020-06-17T15:42:03Z</time>
      </trkpt>
      <trkpt lat="49.42276" lon="0.27541">
        <ele>16.1</ele>
        <time>2020-06-17T15:42:04Z</time>
      </trkpt>
      <trkpt lat="49.42277" lon="0.2754">
        <ele>16.1</ele>
        <time>2020-06-17T15:42:05Z</time>
      </trkpt>
      <trkpt lat="49.42281" lon="0.27539">
        <ele>16.3</ele>
        <time>2020-06-17T15:42:06Z</time>
      </trkpt>
      <trkpt lat="49.42282" lon="0.27538">
        <ele>16.4</ele>
        <time>2020-06-17T15:42:07Z</time>
      </trkpt>
      <trkpt lat="49.42285" lon="0.27538">
        <ele>16.5</ele>
        <time>2020-06-17T15:42:08Z</time>
      </trkpt>
      <trkpt lat="49.42289" lon="0.27538">
        <ele>16.7</ele>
        <time>2020-06-17T15:42:09Z</time>
      </trkpt>
      <trkpt lat="49.42291" lon="0.27537">
        <ele>16.8</ele>
        <time>2020-06-17T15:42:10Z</time>
      </trkpt>
      <trkpt lat="49.42294" lon="0.27536">
        <ele>16.9</ele>
        <time>2020-06-17T15:42:11Z</time>
      </trkpt>
      <trkpt lat="49.42298" lon="0.27536">
        <ele>17.1</ele>
        <time>2020-06-17T15:42:12Z</time>
      </trkpt>
      <trkpt lat="49.42301" lon="0.27536">
        <ele>17.2</ele>
        <time>2020-06-17T15:42:13Z</time>
      </trkpt>
      <trkpt lat="49.42305" lon="0.27536">
        <ele>17.4</ele>
        <time>2020-06-17T15:42:14Z</time>
      </trkpt>
      <trkpt lat="49.42306" lon="0.27536">
        <ele>17.5</ele>
        <time>2020-06-17T15:42:15Z</time>
      </trkpt>
      <trkpt lat="49.42309" lon="0.27534">
        <ele>17.6</ele>
        <time>2020-06-17T15:42:16Z</time>
      </trkpt>
      <trkpt lat="49.42311" lon="0.27534">
        <ele>17.7</ele>
        <time>2020-06-17T15:42:17Z</time>
      </trkpt>
      <trkpt lat="49.42313" lon="0.27532">
        <ele>17.8</ele>
        <time>2020-06-17T15:42:18Z</time>
      </trkpt>
      <trkpt lat="49.42316" lon="0.27532">
        <ele>18</ele>
        <time>2020-06-17T15:42:19Z</time>
      </trkpt>
      <trkpt lat="49.42319" lon="0.27532">
        <ele>18.1</ele>
        <time>2020-06-17T15:42:20Z</time>
      </trkpt>
      <trkpt lat="49.42322" lon="0.27532">
        <ele>18.3</ele>
        <time>2020-06-17T15:42:21Z</time>
      </trkpt>
      <trkpt lat="49.42325" lon="0.2753">
        <ele>18.5</ele>
        <time>2020-06-17T15:42:22Z</time>
      </trkpt>
      <trkpt lat="49.42328" lon="0.2753">
        <ele>18.7</ele>
        <time>2020-06-17T15:42:23Z</time>
      </trkpt>
      <trkpt lat="49.42331" lon="0.27529">
        <ele>18.8</ele>
        <time>2020-06-17T15:42:24Z</time>
      </trkpt>
      <trkpt lat="49.42334" lon="0.27528">
        <ele>19</ele>
        <time>2020-06-17T15:42:25Z</time>
      </trkpt>
      <trkpt lat="49.42337" lon="0.27528">
        <ele>19.2</ele>
        <time>2020-06-17T15:42:26Z</time>
      </trkpt>
      <trkpt lat="49.4234" lon="0.27528">
        <ele>19.4</ele>
        <time>2020-06-17T15:42:27Z</time>
      </trkpt>
      <trkpt lat="49.42344" lon="0.27527">
        <ele>19.7</ele>
        <time>2020-06-17T15:42:28Z</time>
      </trkpt>
      <trkpt lat="49.42346" lon="0.27527">
        <ele>19.8</ele>
        <time>2020-06-17T15:42:29Z</time>
      </trkpt>
      <trkpt lat="49.42348" lon="0.27527">
        <ele>20</ele>
        <time>2020-06-17T15:42:30Z</time>
      </trkpt>
      <trkpt lat="49.42351" lon="0.27527">
        <ele>20.3</ele>
        <time>2020-06-17T15:42:31Z</time>
      </trkpt>
      <trkpt lat="49.42355" lon="0.27526">
        <ele>20.5</ele>
        <time>2020-06-17T15:42:32Z</time>
      </trkpt>
      <trkpt lat="49.42356" lon="0.27526">
        <ele>20.6</ele>
        <time>2020-06-17T15:42:33Z</time>
      </trkpt>
      <trkpt lat="49.42359" lon="0.27526">
        <ele>20.8</ele>
        <time>2020-06-17T15:42:34Z</time>
      </trkpt>
      <trkpt lat="49.42363" lon="0.27525">
        <ele>21.1</ele>
        <time>2020-06-17T15:42:35Z</time>
      </trkpt>
      <trkpt lat="49.42365" lon="0.27525">
        <ele>21.2</ele>
        <time>2020-06-17T15:42:36Z</time>
      </trkpt>
      <trkpt lat="49.42368" lon="0.27525">
        <ele>21.4</ele>
        <time>2020-06-17T15:42:37Z</time>
      </trkpt>
      <trkpt lat="49.42371" lon="0.27524">
        <ele>21.6</ele>
        <time>2020-06-17T15:42:38Z</time>
      </trkpt>
      <trkpt lat="49.42372" lon="0.27524">
        <ele>21.7</ele>
        <time>2020-06-17T15:42:39Z</time>
      </trkpt>
      <trkpt lat="49.42375" lon="0.27524">
        <ele>21.9</ele>
        <time>2020-06-17T15:42:40Z</time>
      </trkpt>
      <trkpt lat="49.42378" lon="0.27524">
        <ele>22.1</ele>
        <time>2020-06-17T15:42:41Z</time>
      </trkpt>
      <trkpt lat="49.42381" lon="0.27524">
        <ele>22.4</ele>
        <time>2020-06-17T15:42:42Z</time>
      </trkpt>
      <trkpt lat="49.42384" lon="0.27524">
        <ele>22.6</ele>
        <time>2020-06-17T15:42:43Z</time>
      </trkpt>
      <trkpt lat="49.42388" lon="0.27523">
        <ele>22.8</ele>
        <time>2020-06-17T15:42:44Z</time>
      </trkpt>
      <trkpt lat="49.4239" lon="0.27521">
        <ele>23</ele>
        <time>2020-06-17T15:42:45Z</time>
      </trkpt>
      <trkpt lat="49.42393" lon="0.2752">
        <ele>23.2</ele>
        <time>2020-06-17T15:42:46Z</time>
      </trkpt>
      <trkpt lat="49.42395" lon="0.2752">
        <ele>23.3</ele>
        <time>2020-06-17T15:42:47Z</time>
      </trkpt>
      <trkpt lat="49.42398" lon="0.27519">
        <ele>23.5</ele>
        <time>2020-06-17T15:42:48Z</time>
      </trkpt>
      <trkpt lat="49.42399" lon="0.27519">
        <ele>23.6</ele>
        <time>2020-06-17T15:42:49Z</time>
      </trkpt>
      <trkpt lat="49.42401" lon="0.27518">
        <ele>23.7</ele>
        <time>2020-06-17T15:42:50Z</time>
      </trkpt>
      <trkpt lat="49.42405" lon="0.27518">
        <ele>24</ele>
        <time>2020-06-17T15:42:51Z</time>
      </trkpt>
      <trkpt lat="49.42408" lon="0.27518">
        <ele>24.2</ele>
        <time>2020-06-17T15:42:52Z</time>
      </trkpt>
      <trkpt lat="49.42411" lon="0.27517">
        <ele>24.4</ele>
        <time>2020-06-17T15:42:53Z</time>
      </trkpt>
      <trkpt lat="49.42414" lon="0.27516">
        <ele>24.6</ele>
        <time>2020-06-17T15:42:54Z</time>
      </trkpt>
      <trkpt lat="49.42418" lon="0.27514">
        <ele>24.8</ele>
        <time>2020-06-17T15:42:55Z</time>
      </trkpt>
      <trkpt lat="49.42419" lon="0.27514">
        <ele>24.9</ele>
        <time>2020-06-17T15:42:56Z</time>
      </trkpt>
      <trkpt lat="49.42423" lon="0.27513">
        <ele>25.2</ele>
        <time>2020-06-17T15:42:57Z</time>
      </trkpt>
      <trkpt lat="49.42425" lon="0.27512">
        <ele>25.3</ele>
        <time>2020-06-17T15:42:58Z</time>
      </trkpt>
      <trkpt lat="49.42428" lon="0.27511">
        <ele>25.5</ele>
        <time>2020-06-17T15:42:59Z</time>
      </trkpt>
      <trkpt lat="49.42432" lon="0.27511">
        <ele>25.8</ele>
        <time>2020-06-17T15:43:00Z</time>
      </trkpt>
      <trkpt lat="49.42436" lon="0.27512">
        <ele>26</ele>
        <time>2020-06-17T15:43:01Z</time>
      </trkpt>
      <trkpt lat="49.42439" lon="0.27513">
        <ele>26.3</ele>
        <time>2020-06-17T15:43:02Z</time>
      </trkpt>
      <trkpt lat="49.42443" lon="0.27513">
        <ele>26.6</ele>
        <time>2020-06-17T15:43:03Z</time>
      </trkpt>
      <trkpt lat="49.42447" lon="0.27512">
        <ele>26.8</ele>
        <time>2020-06-17T15:43:04Z</time>
      </trkpt>
      <trkpt lat="49.42451" lon="0.27512">
        <ele>27.1</ele>
        <time>2020-06-17T15:43:05Z</time>
      </trkpt>
      <trkpt lat="49.42454" lon="0.27512">
        <ele>27.3</ele>
        <time>2020-06-17T15:43:06Z</time>
      </trkpt>
      <trkpt lat="49.42458" lon="0.27511">
        <ele>27.6</ele>
        <time>2020-06-17T15:43:07Z</time>
      </trkpt>
      <trkpt lat="49.42462" lon="0.2751">
        <ele>27.8</ele>
        <time>2020-06-17T15:43:08Z</time>
      </trkpt>
      <trkpt lat="49.42465" lon="0.27509">
        <ele>28</ele>
        <time>2020-06-17T15:43:09Z</time>
      </trkpt>
      <trkpt lat="49.42468" lon="0.27509">
        <ele>28.2</ele>
        <time>2020-06-17T15:43:10Z</time>
      </trkpt>
      <trkpt lat="49.4247" lon="0.27509">
        <ele>28.3</ele>
        <time>2020-06-17T15:43:11Z</time>
      </trkpt>
      <trkpt lat="49.42473" lon="0.27509">
        <ele>28.6</ele>
        <time>2020-06-17T15:43:12Z</time>
      </trkpt>
      <trkpt lat="49.42474" lon="0.27509">
        <ele>28.6</ele>
        <time>2020-06-17T15:43:13Z</time>
      </trkpt>
      <trkpt lat="49.42477" lon="0.27509">
        <ele>28.9</ele>
        <time>2020-06-17T15:43:14Z</time>
      </trkpt>
      <trkpt lat="49.42479" lon="0.27509">
        <ele>29</ele>
        <time>2020-06-17T15:43:15Z</time>
      </trkpt>
      <trkpt lat="49.42482" lon="0.27509">
        <ele>29.1</ele>
        <time>2020-06-17T15:43:16Z</time>
      </trkpt>
      <trkpt lat="49.42485" lon="0.27509">
        <ele>29.4</ele>
        <time>2020-06-17T15:43:17Z</time>
      </trkpt>
      <trkpt lat="49.42488" lon="0.27508">
        <ele>29.6</ele>
        <time>2020-06-17T15:43:18Z</time>
      </trkpt>
      <trkpt lat="49.42491" lon="0.27507">
        <ele>29.8</ele>
        <time>2020-06-17T15:43:19Z</time>
      </trkpt>
      <trkpt lat="49.42494" lon="0.27506">
        <ele>30</ele>
        <time>2020-06-17T15:43:20Z</time>
      </trkpt>
      <trkpt lat="49.42498" lon="0.27505">
        <ele>30.3</ele>
        <time>2020-06-17T15:43:21Z</time>
      </trkpt>
      <trkpt lat="49.42502" lon="0.27506">
        <ele>30.5</ele>
        <time>2020-06-17T15:43:22Z</time>
      </trkpt>
      <trkpt lat="49.42503" lon="0.27505">
        <ele>30.6</ele>
        <time>2020-06-17T15:43:23Z</time>
      </trkpt>
      <trkpt lat="49.42506" lon="0.27506">
        <ele>30.8</ele>
        <time>2020-06-17T15:43:24Z</time>
      </trkpt>
      <trkpt lat="49.42509" lon="0.27505">
        <ele>31</ele>
        <time>2020-06-17T15:43:25Z</time>
      </trkpt>
      <trkpt lat="49.42511" lon="0.27506">
        <ele>31.1</ele>
        <time>2020-06-17T15:43:26Z</time>
      </trkpt>
      <trkpt lat="49.42515" lon="0.27506">
        <ele>31.4</ele>
        <time>2020-06-17T15:43:27Z</time>
      </trkpt>
      <trkpt lat="49.42518" lon="0.27505">
        <ele>31.6</ele>
        <time>2020-06-17T15:43:28Z</time>
      </trkpt>
      <trkpt lat="49.42522" lon="0.27505">
        <ele>31.8</ele>
        <time>2020-06-17T15:43:29Z</time>
      </trkpt>
      <trkpt lat="49.42526" lon="0.27505">
        <ele>32.2</ele>
        <time>2020-06-17T15:43:30Z</time>
      </trkpt>
      <trkpt lat="49.4253" lon="0.27504">
        <ele>32.4</ele>
        <time>2020-06-17T15:43:31Z</time>
      </trkpt>
      <trkpt lat="49.42534" lon="0.27503">
        <ele>32.7</ele>
        <time>2020-06-17T15:43:32Z</time>
      </trkpt>
      <trkpt lat="49.42537" lon="0.27503">
        <ele>32.9</ele>
        <time>2020-06-17T15:43:33Z</time>
      </trkpt>
      <trkpt lat="49.4254" lon="0.27502">
        <ele>33.1</ele>
        <time>2020-06-17T15:43:34Z</time>
      </trkpt>
      <trkpt lat="49.42542" lon="0.27502">
        <ele>33.3</ele>
        <time>2020-06-17T15:43:35Z</time>
      </trkpt>
      <trkpt lat="49.42543" lon="0.27501">
        <ele>33.4</ele>
        <time>2020-06-17T15:43:36Z</time>
      </trkpt>
      <trkpt lat="49.42546" lon="0.27502">
        <ele>33.6</ele>
        <time>2020-06-17T15:43:37Z</time>
      </trkpt>
      <trkpt lat="49.42548" lon="0.27502">
        <ele>33.7</ele>
        <time>2020-06-17T15:43:38Z</time>
      </trkpt>
      <trkpt lat="49.42551" lon="0.27501">
        <ele>33.9</ele>
        <time>2020-06-17T15:43:39Z</time>
      </trkpt>
      <trkpt lat="49.42554" lon="0.275">
        <ele>34.1</ele>
        <time>2020-06-17T15:43:40Z</time>
      </trkpt>
      <trkpt lat="49.42558" lon="0.27499">
        <ele>34.3</ele>
        <time>2020-06-17T15:43:41Z</time>
      </trkpt>
      <trkpt lat="49.4256" lon="0.27498">
        <ele>34.4</ele>
        <time>2020-06-17T15:43:42Z</time>
      </trkpt>
      <trkpt lat="49.42563" lon="0.27498">
        <ele>34.7</ele>
        <time>2020-06-17T15:43:43Z</time>
      </trkpt>
      <trkpt lat="49.42566" lon="0.27498">
        <ele>34.9</ele>
        <time>2020-06-17T15:43:44Z</time>
      </trkpt>
      <trkpt lat="49.42568" lon="0.27498">
        <ele>35</ele>
        <time>2020-06-17T15:43:45Z</time>
      </trkpt>
      <trkpt lat="49.42571" lon="0.27498">
        <ele>35.2</ele>
        <time>2020-06-17T15:43:46Z</time>
      </trkpt>
      <trkpt lat="49.42574" lon="0.27498">
        <ele>35.4</ele>
        <time>2020-06-17T15:43:47Z</time>
      </trkpt>
      <trkpt lat="49.42577" lon="0.27497">
        <ele>35.6</ele>
        <time>2020-06-17T15:43:48Z</time>
      </trkpt>
      <trkpt lat="49.4258" lon="0.27497">
        <ele>35.8</ele>
        <time>2020-06-17T15:43:49Z</time>
      </trkpt>
      <trkpt lat="49.42583" lon="0.27496">
        <ele>36</ele>
        <time>2020-06-17T15:43:50Z</time>
      </trkpt>
      <trkpt lat="49.42587" lon="0.27497">
        <ele>36.3</ele>
        <time>2020-06-17T15:43:51Z</time>
      </trkpt>
      <trkpt lat="49.42588" lon="0.27497">
        <ele>36.3</ele>
        <time>2020-06-17T15:43:52Z</time>
      </trkpt>
      <trkpt lat="49.42591" lon="0.27497">
        <ele>36.6</ele>
        <time>2020-06-17T15:43:53Z</time>
      </trkpt>
      <trkpt lat="49.42595" lon="0.27496">
        <ele>36.8</ele>
        <time>2020-06-17T15:43:54Z</time>
      </trkpt>
      <trkpt lat="49.42597" lon="0.27494">
        <ele>37</ele>
        <time>2020-06-17T15:43:55Z</time>
      </trkpt>
      <trkpt lat="49.426" lon="0.27493">
        <ele>37.2</ele>
        <time>2020-06-17T15:43:56Z</time>
      </trkpt>
      <trkpt lat="49.42604" lon="0.27493">
        <ele>37.5</ele>
        <time>2020-06-17T15:43:57Z</time>
      </trkpt>
      <trkpt lat="49.42605" lon="0.27492">
        <ele>37.6</ele>
        <time>2020-06-17T15:43:58Z</time>
      </trkpt>
      <trkpt lat="49.42608" lon="0.27493">
        <ele>37.8</ele>
        <time>2020-06-17T15:43:59Z</time>
      </trkpt>
      <trkpt lat="49.42609" lon="0.27492">
        <ele>37.9</ele>
        <time>2020-06-17T15:44:00Z</time>
      </trkpt>
      <trkpt lat="49.42613" lon="0.27493">
        <ele>38.1</ele>
        <time>2020-06-17T15:44:01Z</time>
      </trkpt>
      <trkpt lat="49.42614" lon="0.27493">
        <ele>38.2</ele>
        <time>2020-06-17T15:44:02Z</time>
      </trkpt>
      <trkpt lat="49.42616" lon="0.27493">
        <ele>38.3</ele>
        <time>2020-06-17T15:44:03Z</time>
      </trkpt>
      <trkpt lat="49.4262" lon="0.27493">
        <ele>38.6</ele>
        <time>2020-06-17T15:44:04Z</time>
      </trkpt>
      <trkpt lat="49.42622" lon="0.27492">
        <ele>38.7</ele>
        <time>2020-06-17T15:44:05Z</time>
      </trkpt>
      <trkpt lat="49.42625" lon="0.27492">
        <ele>38.9</ele>
        <time>2020-06-17T15:44:06Z</time>
      </trkpt>
      <trkpt lat="49.42628" lon="0.27492">
        <ele>39.1</ele>
        <time>2020-06-17T15:44:07Z</time>
      </trkpt>
      <trkpt lat="49.42629" lon="0.27492">
        <ele>39.2</ele>
        <time>2020-06-17T15:44:08Z</time>
      </trkpt>
      <trkpt lat="49.42633" lon="0.27491">
        <ele>39.4</ele>
        <time>2020-06-17T15:44:09Z</time>
      </trkpt>
      <trkpt lat="49.42635" lon="0.27491">
        <ele>39.5</ele>
        <time>2020-06-17T15:44:10Z</time>
      </trkpt>
      <trkpt lat="49.42639" lon="0.27491">
        <ele>39.8</ele>
        <time>2020-06-17T15:44:11Z</time>
      </trkpt>
      <trkpt lat="49.4264" lon="0.27491">
        <ele>39.9</ele>
        <time>2020-06-17T15:44:12Z</time>
      </trkpt>
      <trkpt lat="49.42643" lon="0.27491">
        <ele>40.1</ele>
        <time>2020-06-17T15:44:13Z</time>
      </trkpt>
      <trkpt lat="49.42646" lon="0.2749">
        <ele>40.3</ele>
        <time>2020-06-17T15:44:14Z</time>
      </trkpt>
      <trkpt lat="49.4265" lon="0.2749">
        <ele>40.6</ele>
        <time>2020-06-17T15:44:15Z</time>
      </trkpt>
      <trkpt lat="49.42652" lon="0.2749">
        <ele>40.7</ele>
        <time>2020-06-17T15:44:16Z</time>
      </trkpt>
      <trkpt lat="49.42654" lon="0.27489">
        <ele>40.9</ele>
        <time>2020-06-17T15:44:17Z</time>
      </trkpt>
      <trkpt lat="49.42657" lon="0.27488">
        <ele>41.1</ele>
        <time>2020-06-17T15:44:18Z</time>
      </trkpt>
      <trkpt lat="49.42661" lon="0.27487">
        <ele>41.3</ele>
        <time>2020-06-17T15:44:19Z</time>
      </trkpt>
      <trkpt lat="49.42662" lon="0.27487">
        <ele>41.4</ele>
        <time>2020-06-17T15:44:20Z</time>
      </trkpt>
      <trkpt lat="49.42666" lon="0.27487">
        <ele>41.6</ele>
        <time>2020-06-17T15:44:21Z</time>
      </trkpt>
      <trkpt lat="49.42667" lon="0.27487">
        <ele>41.7</ele>
        <time>2020-06-17T15:44:22Z</time>
      </trkpt>
      <trkpt lat="49.42671" lon="0.27486">
        <ele>42</ele>
        <time>2020-06-17T15:44:23Z</time>
      </trkpt>
      <trkpt lat="49.42673" lon="0.27486">
        <ele>42.1</ele>
        <time>2020-06-17T15:44:24Z</time>
      </trkpt>
      <trkpt lat="49.42676" lon="0.27486">
        <ele>42.3</ele>
        <time>2020-06-17T15:44:25Z</time>
      </trkpt>
      <trkpt lat="49.42679" lon="0.27486">
        <ele>42.5</ele>
        <time>2020-06-17T15:44:26Z</time>
      </trkpt>
      <trkpt lat="49.42681" lon="0.27486">
        <ele>42.6</ele>
        <time>2020-06-17T15:44:27Z</time>
      </trkpt>
      <trkpt lat="49.42684" lon="0.27486">
        <ele>42.8</ele>
        <time>2020-06-17T15:44:28Z</time>
      </trkpt>
      <trkpt lat="49.42686" lon="0.27486">
        <ele>42.9</ele>
        <time>2020-06-17T15:44:29Z</time>
      </trkpt>
      <trkpt lat="49.42689" lon="0.27485">
        <ele>43.2</ele>
        <time>2020-06-17T15:44:30Z</time>
      </trkpt>
      <trkpt lat="49.4269" lon="0.27485">
        <ele>43.3</ele>
        <time>2020-06-17T15:44:31Z</time>
      </trkpt>
      <trkpt lat="49.42694" lon="0.27486">
        <ele>43.5</ele>
        <time>2020-06-17T15:44:32Z</time>
      </trkpt>
      <trkpt lat="49.42697" lon="0.27485">
        <ele>43.7</ele>
        <time>2020-06-17T15:44:33Z</time>
      </trkpt>
      <trkpt lat="49.42699" lon="0.27483">
        <ele>43.9</ele>
        <time>2020-06-17T15:44:34Z</time>
      </trkpt>
      <trkpt lat="49.42703" lon="0.27483">
        <ele>44.1</ele>
        <time>2020-06-17T15:44:35Z</time>
      </trkpt>
      <trkpt lat="49.42704" lon="0.27482">
        <ele>44.2</ele>
        <time>2020-06-17T15:44:36Z</time>
      </trkpt>
      <trkpt lat="49.42708" lon="0.27481">
        <ele>44.5</ele>
        <time>2020-06-17T15:44:37Z</time>
      </trkpt>
      <trkpt lat="49.42709" lon="0.27481">
        <ele>44.6</ele>
        <time>2020-06-17T15:44:38Z</time>
      </trkpt>
      <trkpt lat="49.42712" lon="0.2748">
        <ele>44.8</ele>
        <time>2020-06-17T15:44:39Z</time>
      </trkpt>
      <trkpt lat="49.42713" lon="0.2748">
        <ele>44.9</ele>
        <time>2020-06-17T15:44:40Z</time>
      </trkpt>
      <trkpt lat="49.42718" lon="0.27479">
        <ele>45.2</ele>
        <time>2020-06-17T15:44:41Z</time>
      </trkpt>
      <trkpt lat="49.4272" lon="0.27479">
        <ele>45.3</ele>
        <time>2020-06-17T15:44:42Z</time>
      </trkpt>
      <trkpt lat="49.42723" lon="0.27479">
        <ele>45.5</ele>
        <time>2020-06-17T15:44:43Z</time>
      </trkpt>
      <trkpt lat="49.42727" lon="0.27479">
        <ele>45.7</ele>
        <time>2020-06-17T15:44:44Z</time>
      </trkpt>
      <trkpt lat="49.42728" lon="0.27479">
        <ele>45.9</ele>
        <time>2020-06-17T15:44:45Z</time>
      </trkpt>
      <trkpt lat="49.42732" lon="0.27478">
        <ele>46.1</ele>
        <time>2020-06-17T15:44:46Z</time>
      </trkpt>
      <trkpt lat="49.42734" lon="0.27478">
        <ele>46.2</ele>
        <time>2020-06-17T15:44:47Z</time>
      </trkpt>
      <trkpt lat="49.42737" lon="0.27477">
        <ele>46.4</ele>
        <time>2020-06-17T15:44:48Z</time>
      </trkpt>
      <trkpt lat="49.4274" lon="0.27476">
        <ele>46.6</ele>
        <time>2020-06-17T15:44:49Z</time>
      </trkpt>
      <trkpt lat="49.42741" lon="0.27476">
        <ele>46.7</ele>
        <time>2020-06-17T15:44:50Z</time>
      </trkpt>
      <trkpt lat="49.42742" lon="0.27476">
        <ele>46.8</ele>
        <time>2020-06-17T15:44:51Z</time>
      </trkpt>
      <trkpt lat="49.42744" lon="0.27475">
        <ele>46.9</ele>
        <time>2020-06-17T15:44:52Z</time>
      </trkpt>
      <trkpt lat="49.42746" lon="0.27475">
        <ele>47</ele>
        <time>2020-06-17T15:44:53Z</time>
      </trkpt>
      <trkpt lat="49.42748" lon="0.27475">
        <ele>47.2</ele>
        <time>2020-06-17T15:44:54Z</time>
      </trkpt>
      <trkpt lat="49.42751" lon="0.27474">
        <ele>47.4</ele>
        <time>2020-06-17T15:44:55Z</time>
      </trkpt>
      <trkpt lat="49.42753" lon="0.27474">
        <ele>47.5</ele>
        <time>2020-06-17T15:44:56Z</time>
      </trkpt>
      <trkpt lat="49.42757" lon="0.27473">
        <ele>47.8</ele>
        <time>2020-06-17T15:44:57Z</time>
      </trkpt>
      <trkpt lat="49.42758" lon="0.27473">
        <ele>47.9</ele>
        <time>2020-06-17T15:44:58Z</time>
      </trkpt>
      <trkpt lat="49.42762" lon="0.27471">
        <ele>48.1</ele>
        <time>2020-06-17T15:44:59Z</time>
      </trkpt>
      <trkpt lat="49.42765" lon="0.27471">
        <ele>48.4</ele>
        <time>2020-06-17T15:45:00Z</time>
      </trkpt>
      <trkpt lat="49.42768" lon="0.27469">
        <ele>48.5</ele>
        <time>2020-06-17T15:45:01Z</time>
      </trkpt>
      <trkpt lat="49.4277" lon="0.27467">
        <ele>48.7</ele>
        <time>2020-06-17T15:45:02Z</time>
      </trkpt>
      <trkpt lat="49.42773" lon="0.27467">
        <ele>48.9</ele>
        <time>2020-06-17T15:45:03Z</time>
      </trkpt>
      <trkpt lat="49.42774" lon="0.27467">
        <ele>48.9</ele>
        <time>2020-06-17T15:45:04Z</time>
      </trkpt>
      <trkpt lat="49.42777" lon="0.27466">
        <ele>49.1</ele>
        <time>2020-06-17T15:45:05Z</time>
      </trkpt>
      <trkpt lat="49.42778" lon="0.27466">
        <ele>49.2</ele>
        <time>2020-06-17T15:45:06Z</time>
      </trkpt>
      <trkpt lat="49.42782" lon="0.27466">
        <ele>49.4</ele>
        <time>2020-06-17T15:45:07Z</time>
      </trkpt>
      <trkpt lat="49.42783" lon="0.27465">
        <ele>49.5</ele>
        <time>2020-06-17T15:45:08Z</time>
      </trkpt>
      <trkpt lat="49.42786" lon="0.27466">
        <ele>49.7</ele>
        <time>2020-06-17T15:45:09Z</time>
      </trkpt>
      <trkpt lat="49.4279" lon="0.27466">
        <ele>50</ele>
        <time>2020-06-17T15:45:10Z</time>
      </trkpt>
      <trkpt lat="49.42792" lon="0.27466">
        <ele>50.1</ele>
        <time>2020-06-17T15:45:11Z</time>
      </trkpt>
      <trkpt lat="49.42793" lon="0.27465">
        <ele>50.2</ele>
        <time>2020-06-17T15:45:12Z</time>
      </trkpt>
      <trkpt lat="49.42794" lon="0.27464">
        <ele>50.3</ele>
        <time>2020-06-17T15:45:13Z</time>
      </trkpt>
      <trkpt lat="49.42795" lon="0.27464">
        <ele>50.3</ele>
        <time>2020-06-17T15:45:14Z</time>
      </trkpt>
      <trkpt lat="49.42798" lon="0.27463">
        <ele>50.5</ele>
        <time>2020-06-17T15:45:15Z</time>
      </trkpt>
      <trkpt lat="49.42801" lon="0.27464">
        <ele>50.8</ele>
        <time>2020-06-17T15:45:16Z</time>
      </trkpt>
      <trkpt lat="49.42804" lon="0.27464">
        <ele>51</ele>
        <time>2020-06-17T15:45:17Z</time>
      </trkpt>
      <trkpt lat="49.42807" lon="0.27463">
        <ele>51.2</ele>
        <time>2020-06-17T15:45:18Z</time>
      </trkpt>
      <trkpt lat="49.42811" lon="0.27463">
        <ele>51.5</ele>
        <time>2020-06-17T15:45:19Z</time>
      </trkpt>
      <trkpt lat="49.42812" lon="0.27462">
        <ele>51.6</ele>
        <time>2020-06-17T15:45:20Z</time>
      </trkpt>
      <trkpt lat="49.42816" lon="0.27462">
        <ele>51.8</ele>
        <time>2020-06-17T15:45:21Z</time>
      </trkpt>
      <trkpt lat="49.42817" lon="0.27461">
        <ele>51.9</ele>
        <time>2020-06-17T15:45:22Z</time>
      </trkpt>
      <trkpt lat="49.4282" lon="0.2746">
        <ele>52.1</ele>
        <time>2020-06-17T15:45:23Z</time>
      </trkpt>
      <trkpt lat="49.42821" lon="0.2746">
        <ele>52.2</ele>
        <time>2020-06-17T15:45:24Z</time>
      </trkpt>
      <trkpt lat="49.42824" lon="0.2746">
        <ele>52.4</ele>
        <time>2020-06-17T15:45:25Z</time>
      </trkpt>
      <trkpt lat="49.42825" lon="0.2746">
        <ele>52.5</ele>
        <time>2020-06-17T15:45:26Z</time>
      </trkpt>
      <trkpt lat="49.42827" lon="0.27459">
        <ele>52.6</ele>
        <time>2020-06-17T15:45:27Z</time>
      </trkpt>
      <trkpt lat="49.42828" lon="0.27459">
        <ele>52.7</ele>
        <time>2020-06-17T15:45:28Z</time>
      </trkpt>
      <trkpt lat="49.42832" lon="0.27459">
        <ele>52.9</ele>
        <time>2020-06-17T15:45:29Z</time>
      </trkpt>
      <trkpt lat="49.42833" lon="0.27459">
        <ele>53</ele>
        <time>2020-06-17T15:45:30Z</time>
      </trkpt>
      <trkpt lat="49.42837" lon="0.27458">
        <ele>53.3</ele>
        <time>2020-06-17T15:45:31Z</time>
      </trkpt>
      <trkpt lat="49.42838" lon="0.27458">
        <ele>53.4</ele>
        <time>2020-06-17T15:45:32Z</time>
      </trkpt>
      <trkpt lat="49.42842" lon="0.27459">
        <ele>53.7</ele>
        <time>2020-06-17T15:45:33Z</time>
      </trkpt>
      <trkpt lat="49.42844" lon="0.27461">
        <ele>53.9</ele>
        <time>2020-06-17T15:45:34Z</time>
      </trkpt>
      <trkpt lat="49.42847" lon="0.27463">
        <ele>54.1</ele>
        <time>2020-06-17T15:45:35Z</time>
      </trkpt>
      <trkpt lat="49.42849" lon="0.27463">
        <ele>54.2</ele>
        <time>2020-06-17T15:45:36Z</time>
      </trkpt>
      <trkpt lat="49.42852" lon="0.27461">
        <ele>54.5</ele>
        <time>2020-06-17T15:45:37Z</time>
      </trkpt>
      <trkpt lat="49.42853" lon="0.2746">
        <ele>54.6</ele>
        <time>2020-06-17T15:45:38Z</time>
      </trkpt>
      <trkpt lat="49.42857" lon="0.27456">
        <ele>54.9</ele>
        <time>2020-06-17T15:45:39Z</time>
      </trkpt>
      <trkpt lat="49.42861" lon="0.27455">
        <ele>55.1</ele>
        <time>2020-06-17T15:45:40Z</time>
      </trkpt>
      <trkpt lat="49.42862" lon="0.27455">
        <ele>55.1</ele>
        <time>2020-06-17T15:45:41Z</time>
      </trkpt>
      <trkpt lat="49.42863" lon="0.27454">
        <ele>55.2</ele>
        <time>2020-06-17T15:45:42Z</time>
      </trkpt>
      <trkpt lat="49.42865" lon="0.27453">
        <ele>55.3</ele>
        <time>2020-06-17T15:45:43Z</time>
      </trkpt>
      <trkpt lat="49.42867" lon="0.27451">
        <ele>55.5</ele>
        <time>2020-06-17T15:45:44Z</time>
      </trkpt>
      <trkpt lat="49.42868" lon="0.27451">
        <ele>55.5</ele>
        <time>2020-06-17T15:45:45Z</time>
      </trkpt>
      <trkpt lat="49.42871" lon="0.27451">
        <ele>55.7</ele>
        <time>2020-06-17T15:45:46Z</time>
      </trkpt>
      <trkpt lat="49.42874" lon="0.27453">
        <ele>55.9</ele>
        <time>2020-06-17T15:45:47Z</time>
      </trkpt>
      <trkpt lat="49.42877" lon="0.27453">
        <ele>56</ele>
        <time>2020-06-17T15:45:48Z</time>
      </trkpt>
      <trkpt lat="49.4288" lon="0.27453">
        <ele>56.2</ele>
        <time>2020-06-17T15:45:49Z</time>
      </trkpt>
      <trkpt lat="49.42885" lon="0.27453">
        <ele>56.5</ele>
        <time>2020-06-17T15:45:50Z</time>
      </trkpt>
      <trkpt lat="49.42886" lon="0.27452">
        <ele>56.6</ele>
        <time>2020-06-17T15:45:51Z</time>
      </trkpt>
      <trkpt lat="49.42889" lon="0.27449">
        <ele>56.8</ele>
        <time>2020-06-17T15:45:52Z</time>
      </trkpt>
      <trkpt lat="49.42892" lon="0.2745">
        <ele>57</ele>
        <time>2020-06-17T15:45:53Z</time>
      </trkpt>
      <trkpt lat="49.42893" lon="0.2745">
        <ele>57</ele>
        <time>2020-06-17T15:45:54Z</time>
      </trkpt>
      <trkpt lat="49.42896" lon="0.27451">
        <ele>57.2</ele>
        <time>2020-06-17T15:45:55Z</time>
      </trkpt>
      <trkpt lat="49.42897" lon="0.27451">
        <ele>57.3</ele>
        <time>2020-06-17T15:45:56Z</time>
      </trkpt>
      <trkpt lat="49.429" lon="0.2745">
        <ele>57.4</ele>
        <time>2020-06-17T15:45:57Z</time>
      </trkpt>
      <trkpt lat="49.42901" lon="0.27449">
        <ele>57.5</ele>
        <time>2020-06-17T15:45:58Z</time>
      </trkpt>
      <trkpt lat="49.42904" lon="0.2745">
        <ele>57.7</ele>
        <time>2020-06-17T15:45:59Z</time>
      </trkpt>
      <trkpt lat="49.42909" lon="0.27451">
        <ele>58</ele>
        <time>2020-06-17T15:46:00Z</time>
      </trkpt>
      <trkpt lat="49.42912" lon="0.2745">
        <ele>58.1</ele>
        <time>2020-06-17T15:46:01Z</time>
      </trkpt>
      <trkpt lat="49.42916" lon="0.27451">
        <ele>58.3</ele>
        <time>2020-06-17T15:46:02Z</time>
      </trkpt>
      <trkpt lat="49.42917" lon="0.27449">
        <ele>58.4</ele>
        <time>2020-06-17T15:46:03Z</time>
      </trkpt>
      <trkpt lat="49.42919" lon="0.27449">
        <ele>58.5</ele>
        <time>2020-06-17T15:46:04Z</time>
      </trkpt>
      <trkpt lat="49.42922" lon="0.2745">
        <ele>58.7</ele>
        <time>2020-06-17T15:46:05Z</time>
      </trkpt>
      <trkpt lat="49.42923" lon="0.2745">
        <ele>58.7</ele>
        <time>2020-06-17T15:46:06Z</time>
      </trkpt>
      <trkpt lat="49.42928" lon="0.27449">
        <ele>58.9</ele>
        <time>2020-06-17T15:46:07Z</time>
      </trkpt>
      <trkpt lat="49.42929" lon="0.27448">
        <ele>59</ele>
        <time>2020-06-17T15:46:08Z</time>
      </trkpt>
      <trkpt lat="49.42933" lon="0.27446">
        <ele>59.2</ele>
        <time>2020-06-17T15:46:09Z</time>
      </trkpt>
      <trkpt lat="49.42936" lon="0.27444">
        <ele>59.3</ele>
        <time>2020-06-17T15:46:10Z</time>
      </trkpt>
      <trkpt lat="49.42939" lon="0.27445">
        <ele>59.4</ele>
        <time>2020-06-17T15:46:11Z</time>
      </trkpt>
      <trkpt lat="49.42942" lon="0.27446">
        <ele>59.6</ele>
        <time>2020-06-17T15:46:12Z</time>
      </trkpt>
      <trkpt lat="49.42944" lon="0.27446">
        <ele>59.7</ele>
        <time>2020-06-17T15:46:13Z</time>
      </trkpt>
      <trkpt lat="49.42946" lon="0.27446">
        <ele>59.7</ele>
        <time>2020-06-17T15:46:14Z</time>
      </trkpt>
      <trkpt lat="49.42949" lon="0.27445">
        <ele>59.9</ele>
        <time>2020-06-17T15:46:15Z</time>
      </trkpt>
      <trkpt lat="49.4295" lon="0.27445">
        <ele>59.9</ele>
        <time>2020-06-17T15:46:16Z</time>
      </trkpt>
      <trkpt lat="49.42953" lon="0.27445">
        <ele>60</ele>
        <time>2020-06-17T15:46:17Z</time>
      </trkpt>
      <trkpt lat="49.42956" lon="0.27444">
        <ele>60.2</ele>
        <time>2020-06-17T15:46:18Z</time>
      </trkpt>
      <trkpt lat="49.42959" lon="0.27444">
        <ele>60.3</ele>
        <time>2020-06-17T15:46:19Z</time>
      </trkpt>
      <trkpt lat="49.42962" lon="0.27441">
        <ele>60.4</ele>
        <time>2020-06-17T15:46:20Z</time>
      </trkpt>
      <trkpt lat="49.42966" lon="0.27442">
        <ele>60.6</ele>
        <time>2020-06-17T15:46:21Z</time>
      </trkpt>
      <trkpt lat="49.42969" lon="0.27441">
        <ele>60.7</ele>
        <time>2020-06-17T15:46:22Z</time>
      </trkpt>
      <trkpt lat="49.42972" lon="0.27443">
        <ele>60.8</ele>
        <time>2020-06-17T15:46:23Z</time>
      </trkpt>
      <trkpt lat="49.42975" lon="0.27442">
        <ele>61</ele>
        <time>2020-06-17T15:46:24Z</time>
      </trkpt>
      <trkpt lat="49.42976" lon="0.27441">
        <ele>61</ele>
        <time>2020-06-17T15:46:25Z</time>
      </trkpt>
      <trkpt lat="49.42979" lon="0.27442">
        <ele>61.2</ele>
        <time>2020-06-17T15:46:26Z</time>
      </trkpt>
      <trkpt lat="49.42982" lon="0.27442">
        <ele>61.3</ele>
        <time>2020-06-17T15:46:27Z</time>
      </trkpt>
      <trkpt lat="49.42985" lon="0.27441">
        <ele>61.4</ele>
        <time>2020-06-17T15:46:28Z</time>
      </trkpt>
      <trkpt lat="49.42989" lon="0.2744">
        <ele>61.6</ele>
        <time>2020-06-17T15:46:29Z</time>
      </trkpt>
      <trkpt lat="49.42991" lon="0.2744">
        <ele>61.6</ele>
        <time>2020-06-17T15:46:30Z</time>
      </trkpt>
      <trkpt lat="49.42994" lon="0.27439">
        <ele>61.8</ele>
        <time>2020-06-17T15:46:31Z</time>
      </trkpt>
      <trkpt lat="49.42997" lon="0.27439">
        <ele>61.9</ele>
        <time>2020-06-17T15:46:32Z</time>
      </trkpt>
      <trkpt lat="49.43" lon="0.2744">
        <ele>62</ele>
        <time>2020-06-17T15:46:33Z</time>
      </trkpt>
      <trkpt lat="49.43003" lon="0.27439">
        <ele>62.1</ele>
        <time>2020-06-17T15:46:34Z</time>
      </trkpt>
      <trkpt lat="49.43006" lon="0.27437">
        <ele>62.3</ele>
        <time>2020-06-17T15:46:35Z</time>
      </trkpt>
      <trkpt lat="49.43007" lon="0.27436">
        <ele>62.3</ele>
        <time>2020-06-17T15:46:36Z</time>
      </trkpt>
      <trkpt lat="49.43011" lon="0.27434">
        <ele>62.5</ele>
        <time>2020-06-17T15:46:37Z</time>
      </trkpt>
      <trkpt lat="49.43012" lon="0.27434">
        <ele>62.5</ele>
        <time>2020-06-17T15:46:38Z</time>
      </trkpt>
      <trkpt lat="49.43016" lon="0.27433">
        <ele>62.7</ele>
        <time>2020-06-17T15:46:39Z</time>
      </trkpt>
      <trkpt lat="49.43017" lon="0.27432">
        <ele>62.7</ele>
        <time>2020-06-17T15:46:40Z</time>
      </trkpt>
      <trkpt lat="49.43021" lon="0.27431">
        <ele>62.9</ele>
        <time>2020-06-17T15:46:41Z</time>
      </trkpt>
      <trkpt lat="49.43024" lon="0.2743">
        <ele>63</ele>
        <time>2020-06-17T15:46:42Z</time>
      </trkpt>
      <trkpt lat="49.43027" lon="0.2743">
        <ele>63.1</ele>
        <time>2020-06-17T15:46:43Z</time>
      </trkpt>
      <trkpt lat="49.43032" lon="0.27429">
        <ele>63.3</ele>
        <time>2020-06-17T15:46:44Z</time>
      </trkpt>
      <trkpt lat="49.43033" lon="0.27428">
        <ele>63.3</ele>
        <time>2020-06-17T15:46:45Z</time>
      </trkpt>
      <trkpt lat="49.43038" lon="0.27428">
        <ele>63.5</ele>
        <time>2020-06-17T15:46:46Z</time>
      </trkpt>
      <trkpt lat="49.43039" lon="0.27428">
        <ele>63.5</ele>
        <time>2020-06-17T15:46:47Z</time>
      </trkpt>
      <trkpt lat="49.43044" lon="0.2743">
        <ele>63.7</ele>
        <time>2020-06-17T15:46:48Z</time>
      </trkpt>
      <trkpt lat="49.43047" lon="0.27432">
        <ele>63.8</ele>
        <time>2020-06-17T15:46:49Z</time>
      </trkpt>
      <trkpt lat="49.43051" lon="0.27431">
        <ele>63.9</ele>
        <time>2020-06-17T15:46:50Z</time>
      </trkpt>
      <trkpt lat="49.43055" lon="0.2743">
        <ele>64</ele>
        <time>2020-06-17T15:46:51Z</time>
      </trkpt>
      <trkpt lat="49.43057" lon="0.27429">
        <ele>64</ele>
        <time>2020-06-17T15:46:52Z</time>
      </trkpt>
      <trkpt lat="49.4306" lon="0.2743">
        <ele>64.1</ele>
        <time>2020-06-17T15:46:53Z</time>
      </trkpt>
      <trkpt lat="49.43065" lon="0.2743">
        <ele>64.3</ele>
        <time>2020-06-17T15:46:54Z</time>
      </trkpt>
      <trkpt lat="49.43068" lon="0.2743">
        <ele>64.4</ele>
        <time>2020-06-17T15:46:55Z</time>
      </trkpt>
      <trkpt lat="49.43072" lon="0.27428">
        <ele>64.5</ele>
        <time>2020-06-17T15:46:56Z</time>
      </trkpt>
      <trkpt lat="49.43073" lon="0.27428">
        <ele>64.5</ele>
        <time>2020-06-17T15:46:57Z</time>
      </trkpt>
      <trkpt lat="49.43076" lon="0.27428">
        <ele>64.6</ele>
        <time>2020-06-17T15:46:58Z</time>
      </trkpt>
      <trkpt lat="49.43078" lon="0.27425">
        <ele>64.7</ele>
        <time>2020-06-17T15:46:59Z</time>
      </trkpt>
      <trkpt lat="49.43081" lon="0.27424">
        <ele>64.7</ele>
        <time>2020-06-17T15:47:00Z</time>
      </trkpt>
      <trkpt lat="49.43085" lon="0.27424">
        <ele>64.8</ele>
        <time>2020-06-17T15:47:01Z</time>
      </trkpt>
      <trkpt lat="49.43088" lon="0.27423">
        <ele>64.9</ele>
        <time>2020-06-17T15:47:02Z</time>
      </trkpt>
      <trkpt lat="49.43092" lon="0.27423">
        <ele>65</ele>
        <time>2020-06-17T15:47:03Z</time>
      </trkpt>
      <trkpt lat="49.43097" lon="0.27422">
        <ele>65.2</ele>
        <time>2020-06-17T15:47:04Z</time>
      </trkpt>
      <trkpt lat="49.43101" lon="0.27421">
        <ele>65.3</ele>
        <time>2020-06-17T15:47:05Z</time>
      </trkpt>
      <trkpt lat="49.43105" lon="0.27421">
        <ele>65.3</ele>
        <time>2020-06-17T15:47:06Z</time>
      </trkpt>
      <trkpt lat="49.43108" lon="0.27421">
        <ele>65.4</ele>
        <time>2020-06-17T15:47:07Z</time>
      </trkpt>
      <trkpt lat="49.43111" lon="0.2742">
        <ele>65.5</ele>
        <time>2020-06-17T15:47:08Z</time>
      </trkpt>
      <trkpt lat="49.43114" lon="0.27418">
        <ele>65.5</ele>
        <time>2020-06-17T15:47:09Z</time>
      </trkpt>
      <trkpt lat="49.43116" lon="0.27418">
        <ele>65.6</ele>
        <time>2020-06-17T15:47:10Z</time>
      </trkpt>
      <trkpt lat="49.43118" lon="0.27418">
        <ele>65.6</ele>
        <time>2020-06-17T15:47:11Z</time>
      </trkpt>
      <trkpt lat="49.43122" lon="0.27416">
        <ele>65.7</ele>
        <time>2020-06-17T15:47:12Z</time>
      </trkpt>
      <trkpt lat="49.43125" lon="0.27414">
        <ele>65.7</ele>
        <time>2020-06-17T15:47:13Z</time>
      </trkpt>
      <trkpt lat="49.43129" lon="0.27414">
        <ele>65.8</ele>
        <time>2020-06-17T15:47:14Z</time>
      </trkpt>
      <trkpt lat="49.4313" lon="0.27414">
        <ele>65.8</ele>
        <time>2020-06-17T15:47:15Z</time>
      </trkpt>
      <trkpt lat="49.43133" lon="0.27415">
        <ele>65.9</ele>
        <time>2020-06-17T15:47:16Z</time>
      </trkpt>
      <trkpt lat="49.43138" lon="0.27414">
        <ele>65.9</ele>
        <time>2020-06-17T15:47:17Z</time>
      </trkpt>
      <trkpt lat="49.43141" lon="0.27412">
        <ele>66</ele>
        <time>2020-06-17T15:47:18Z</time>
      </trkpt>
      <trkpt lat="49.43145" lon="0.27413">
        <ele>66</ele>
        <time>2020-06-17T15:47:19Z</time>
      </trkpt>
      <trkpt lat="49.43148" lon="0.27412">
        <ele>66.1</ele>
        <time>2020-06-17T15:47:20Z</time>
      </trkpt>
      <trkpt lat="49.43149" lon="0.27412">
        <ele>66.1</ele>
        <time>2020-06-17T15:47:21Z</time>
      </trkpt>
      <trkpt lat="49.43153" lon="0.27413">
        <ele>66.2</ele>
        <time>2020-06-17T15:47:22Z</time>
      </trkpt>
      <trkpt lat="49.43154" lon="0.27413">
        <ele>66.2</ele>
        <time>2020-06-17T15:47:23Z</time>
      </trkpt>
      <trkpt lat="49.43157" lon="0.27412">
        <ele>66.2</ele>
        <time>2020-06-17T15:47:24Z</time>
      </trkpt>
      <trkpt lat="49.43161" lon="0.27411">
        <ele>66.3</ele>
        <time>2020-06-17T15:47:25Z</time>
      </trkpt>
      <trkpt lat="49.43162" lon="0.27411">
        <ele>66.3</ele>
        <time>2020-06-17T15:47:26Z</time>
      </trkpt>
      <trkpt lat="49.43165" lon="0.2741">
        <ele>66.3</ele>
        <time>2020-06-17T15:47:27Z</time>
      </trkpt>
      <trkpt lat="49.43168" lon="0.2741">
        <ele>66.3</ele>
        <time>2020-06-17T15:47:28Z</time>
      </trkpt>
      <trkpt lat="49.4317" lon="0.27411">
        <ele>66.4</ele>
        <time>2020-06-17T15:47:29Z</time>
      </trkpt>
      <trkpt lat="49.43173" lon="0.27412">
        <ele>66.4</ele>
        <time>2020-06-17T15:47:30Z</time>
      </trkpt>
      <trkpt lat="49.43177" lon="0.27412">
        <ele>66.4</ele>
        <time>2020-06-17T15:47:31Z</time>
      </trkpt>
      <trkpt lat="49.4318" lon="0.27412">
        <ele>66.5</ele>
        <time>2020-06-17T15:47:32Z</time>
      </trkpt>
      <trkpt lat="49.43184" lon="0.27412">
        <ele>66.5</ele>
        <time>2020-06-17T15:47:33Z</time>
      </trkpt>
      <trkpt lat="49.43188" lon="0.2741">
        <ele>66.5</ele>
        <time>2020-06-17T15:47:34Z</time>
      </trkpt>
      <trkpt lat="49.43189" lon="0.2741">
        <ele>66.5</ele>
        <time>2020-06-17T15:47:35Z</time>
      </trkpt>
      <trkpt lat="49.43192" lon="0.2741">
        <ele>66.5</ele>
        <time>2020-06-17T15:47:36Z</time>
      </trkpt>
      <trkpt lat="49.43196" lon="0.27411">
        <ele>66.5</ele>
        <time>2020-06-17T15:47:37Z</time>
      </trkpt>
      <trkpt lat="49.43199" lon="0.27411">
        <ele>66.5</ele>
        <time>2020-06-17T15:47:38Z</time>
      </trkpt>
      <trkpt lat="49.43202" lon="0.27412">
        <ele>66.5</ele>
        <time>2020-06-17T15:47:39Z</time>
      </trkpt>
      <trkpt lat="49.43204" lon="0.27411">
        <ele>66.5</ele>
        <time>2020-06-17T15:47:40Z</time>
      </trkpt>
      <trkpt lat="49.43208" lon="0.27411">
        <ele>66.5</ele>
        <time>2020-06-17T15:47:41Z</time>
      </trkpt>
      <trkpt lat="49.43209" lon="0.2741">
        <ele>66.5</ele>
        <time>2020-06-17T15:47:42Z</time>
      </trkpt>
      <trkpt lat="49.43212" lon="0.2741">
        <ele>66.5</ele>
        <time>2020-06-17T15:47:43Z</time>
      </trkpt>
      <trkpt lat="49.43213" lon="0.27409">
        <ele>66.5</ele>
        <time>2020-06-17T15:47:44Z</time>
      </trkpt>
      <trkpt lat="49.43213" lon="0.2741">
        <ele>66.5</ele>
        <time>2020-06-17T15:47:45Z</time>
      </trkpt>
      <trkpt lat="49.43213" lon="0.27412">
        <ele>66.5</ele>
        <time>2020-06-17T15:47:46Z</time>
      </trkpt>
      <trkpt lat="49.43213" lon="0.27411">
        <ele>66.5</ele>
        <time>2020-06-17T15:47:47Z</time>
      </trkpt>
      <trkpt lat="49.43214" lon="0.2741">
        <ele>66.5</ele>
        <time>2020-06-17T15:47:48Z</time>
      </trkpt>
      <trkpt lat="49.43214" lon="0.2741">
        <ele>66.5</ele>
        <time>2020-06-17T15:47:49Z</time>
      </trkpt>
      <trkpt lat="49.43213" lon="0.2741">
        <ele>66.5</ele>
        <time>2020-06-17T15:47:50Z</time>
      </trkpt>
      <trkpt lat="49.43213" lon="0.27409">
        <ele>66.5</ele>
        <time>2020-06-17T15:47:51Z</time>
      </trkpt>
      <trkpt lat="49.43214" lon="0.27409">
        <ele>66.5</ele>
        <time>2020-06-17T15:47:52Z</time>
      </trkpt>
      <trkpt lat="49.43214" lon="0.2741">
        <ele>66.5</ele>
        <time>2020-06-17T15:47:53Z</time>
      </trkpt>
      <trkpt lat="49.43214" lon="0.2741">
        <ele>66.5</ele>
        <time>2020-06-17T15:47:54Z</time>
      </trkpt>
      <trkpt lat="49.43214" lon="0.2741">
        <ele>66.5</ele>
        <time>2020-06-17T15:47:55Z</time>
      </trkpt>
      <trkpt lat="49.43214" lon="0.2741">
        <ele>66.5</ele>
        <time>2020-06-17T15:47:56Z</time>
      </trkpt>
      <trkpt lat="49.43214" lon="0.2741">
        <ele>66.5</ele>
        <time>2020-06-17T15:47:57Z</time>
      </trkpt>
      <trkpt lat="49.4322" lon="0.27409">
        <ele>66.5</ele>
        <time>2020-06-17T15:48:12Z</time>
      </trkpt>
      <trkpt lat="49.43222" lon="0.27408">
        <ele>66.5</ele>
        <time>2020-06-17T15:48:13Z</time>
      </trkpt>
      <trkpt lat="49.43226" lon="0.27408">
        <ele>66.5</ele>
        <time>2020-06-17T15:48:14Z</time>
      </trkpt>
      <trkpt lat="49.43227" lon="0.27407">
        <ele>66.5</ele>
        <time>2020-06-17T15:48:15Z</time>
      </trkpt>
      <trkpt lat="49.4323" lon="0.27406">
        <ele>66.5</ele>
        <time>2020-06-17T15:48:16Z</time>
      </trkpt>
      <trkpt lat="49.43234" lon="0.27406">
        <ele>66.5</ele>
        <time>2020-06-17T15:48:17Z</time>
      </trkpt>
      <trkpt lat="49.43237" lon="0.27406">
        <ele>66.5</ele>
        <time>2020-06-17T15:48:18Z</time>
      </trkpt>
      <trkpt lat="49.43241" lon="0.27407">
        <ele>66.5</ele>
        <time>2020-06-17T15:48:19Z</time>
      </trkpt>
      <trkpt lat="49.43246" lon="0.27407">
        <ele>66.5</ele>
        <time>2020-06-17T15:48:20Z</time>
      </trkpt>
      <trkpt lat="49.43249" lon="0.27406">
        <ele>66.5</ele>
        <time>2020-06-17T15:48:21Z</time>
      </trkpt>
      <trkpt lat="49.43253" lon="0.27406">
        <ele>66.5</ele>
        <time>2020-06-17T15:48:22Z</time>
      </trkpt>
      <trkpt lat="49.43256" lon="0.27404">
        <ele>66.4</ele>
        <time>2020-06-17T15:48:23Z</time>
      </trkpt>
      <trkpt lat="49.43259" lon="0.27403">
        <ele>66.4</ele>
        <time>2020-06-17T15:48:24Z</time>
      </trkpt>
      <trkpt lat="49.43262" lon="0.27401">
        <ele>66.4</ele>
        <time>2020-06-17T15:48:25Z</time>
      </trkpt>
      <trkpt lat="49.43266" lon="0.274">
        <ele>66.4</ele>
        <time>2020-06-17T15:48:26Z</time>
      </trkpt>
      <trkpt lat="49.43269" lon="0.27401">
        <ele>66.3</ele>
        <time>2020-06-17T15:48:27Z</time>
      </trkpt>
      <trkpt lat="49.43273" lon="0.274">
        <ele>66.3</ele>
        <time>2020-06-17T15:48:28Z</time>
      </trkpt>
      <trkpt lat="49.43277" lon="0.274">
        <ele>66.3</ele>
        <time>2020-06-17T15:48:29Z</time>
      </trkpt>
      <trkpt lat="49.43281" lon="0.27399">
        <ele>66.2</ele>
        <time>2020-06-17T15:48:30Z</time>
      </trkpt>
      <trkpt lat="49.43285" lon="0.27399">
        <ele>66.2</ele>
        <time>2020-06-17T15:48:31Z</time>
      </trkpt>
      <trkpt lat="49.43289" lon="0.27399">
        <ele>66.1</ele>
        <time>2020-06-17T15:48:32Z</time>
      </trkpt>
      <trkpt lat="49.43292" lon="0.27398">
        <ele>66.1</ele>
        <time>2020-06-17T15:48:33Z</time>
      </trkpt>
      <trkpt lat="49.43296" lon="0.27399">
        <ele>66</ele>
        <time>2020-06-17T15:48:34Z</time>
      </trkpt>
      <trkpt lat="49.433" lon="0.27399">
        <ele>66</ele>
        <time>2020-06-17T15:48:35Z</time>
      </trkpt>
      <trkpt lat="49.43303" lon="0.27398">
        <ele>65.9</ele>
        <time>2020-06-17T15:48:36Z</time>
      </trkpt>
      <trkpt lat="49.43306" lon="0.27397">
        <ele>65.9</ele>
        <time>2020-06-17T15:48:37Z</time>
      </trkpt>
      <trkpt lat="49.43309" lon="0.27395">
        <ele>65.8</ele>
        <time>2020-06-17T15:48:38Z</time>
      </trkpt>
      <trkpt lat="49.43315" lon="0.27395">
        <ele>65.7</ele>
        <time>2020-06-17T15:48:39Z</time>
      </trkpt>
      <trkpt lat="49.4332" lon="0.27393">
        <ele>65.6</ele>
        <time>2020-06-17T15:48:40Z</time>
      </trkpt>
      <trkpt lat="49.43324" lon="0.27394">
        <ele>65.6</ele>
        <time>2020-06-17T15:48:41Z</time>
      </trkpt>
      <trkpt lat="49.43326" lon="0.27395">
        <ele>65.5</ele>
        <time>2020-06-17T15:48:42Z</time>
      </trkpt>
      <trkpt lat="49.4333" lon="0.27395">
        <ele>65.4</ele>
        <time>2020-06-17T15:48:43Z</time>
      </trkpt>
      <trkpt lat="49.43332" lon="0.27395">
        <ele>65.4</ele>
        <time>2020-06-17T15:48:44Z</time>
      </trkpt>
      <trkpt lat="49.43336" lon="0.27395">
        <ele>65.3</ele>
        <time>2020-06-17T15:48:45Z</time>
      </trkpt>
      <trkpt lat="49.43341" lon="0.27391">
        <ele>65.2</ele>
        <time>2020-06-17T15:48:46Z</time>
      </trkpt>
      <trkpt lat="49.43347" lon="0.27389">
        <ele>65.1</ele>
        <time>2020-06-17T15:48:47Z</time>
      </trkpt>
      <trkpt lat="49.4335" lon="0.27388">
        <ele>65</ele>
        <time>2020-06-17T15:48:48Z</time>
      </trkpt>
      <trkpt lat="49.43353" lon="0.27389">
        <ele>65</ele>
        <time>2020-06-17T15:48:49Z</time>
      </trkpt>
      <trkpt lat="49.43357" lon="0.2739">
        <ele>64.9</ele>
        <time>2020-06-17T15:48:50Z</time>
      </trkpt>
      <trkpt lat="49.43358" lon="0.2739">
        <ele>64.9</ele>
        <time>2020-06-17T15:48:51Z</time>
      </trkpt>
      <trkpt lat="49.43361" lon="0.27389">
        <ele>64.8</ele>
        <time>2020-06-17T15:48:52Z</time>
      </trkpt>
      <trkpt lat="49.43365" lon="0.27388">
        <ele>64.7</ele>
        <time>2020-06-17T15:48:53Z</time>
      </trkpt>
      <trkpt lat="49.43368" lon="0.27387">
        <ele>64.6</ele>
        <time>2020-06-17T15:48:54Z</time>
      </trkpt>
      <trkpt lat="49.43372" lon="0.27386">
        <ele>64.5</ele>
        <time>2020-06-17T15:48:55Z</time>
      </trkpt>
      <trkpt lat="49.43375" lon="0.27386">
        <ele>64.4</ele>
        <time>2020-06-17T15:48:56Z</time>
      </trkpt>
      <trkpt lat="49.4338" lon="0.27386">
        <ele>64.2</ele>
        <time>2020-06-17T15:48:57Z</time>
      </trkpt>
      <trkpt lat="49.43384" lon="0.27385">
        <ele>64.1</ele>
        <time>2020-06-17T15:48:58Z</time>
      </trkpt>
      <trkpt lat="49.43388" lon="0.27387">
        <ele>64</ele>
        <time>2020-06-17T15:48:59Z</time>
      </trkpt>
      <trkpt lat="49.43392" lon="0.27387">
        <ele>63.9</ele>
        <time>2020-06-17T15:49:00Z</time>
      </trkpt>
      <trkpt lat="49.43397" lon="0.27385">
        <ele>63.8</ele>
        <time>2020-06-17T15:49:01Z</time>
      </trkpt>
      <trkpt lat="49.43402" lon="0.27385">
        <ele>63.7</ele>
        <time>2020-06-17T15:49:02Z</time>
      </trkpt>
      <trkpt lat="49.43406" lon="0.27382">
        <ele>63.5</ele>
        <time>2020-06-17T15:49:03Z</time>
      </trkpt>
      <trkpt lat="49.43412" lon="0.27381">
        <ele>63.3</ele>
        <time>2020-06-17T15:49:04Z</time>
      </trkpt>
      <trkpt lat="49.43416" lon="0.27381">
        <ele>63.2</ele>
        <time>2020-06-17T15:49:05Z</time>
      </trkpt>
      <trkpt lat="49.43421" lon="0.27379">
        <ele>63</ele>
        <time>2020-06-17T15:49:06Z</time>
      </trkpt>
      <trkpt lat="49.43427" lon="0.27379">
        <ele>62.8</ele>
        <time>2020-06-17T15:49:07Z</time>
      </trkpt>
      <trkpt lat="49.43431" lon="0.27378">
        <ele>62.6</ele>
        <time>2020-06-17T15:49:08Z</time>
      </trkpt>
      <trkpt lat="49.43436" lon="0.27376">
        <ele>62.5</ele>
        <time>2020-06-17T15:49:09Z</time>
      </trkpt>
      <trkpt lat="49.43442" lon="0.27376">
        <ele>62.3</ele>
        <time>2020-06-17T15:49:10Z</time>
      </trkpt>
      <trkpt lat="49.43446" lon="0.27375">
        <ele>62.1</ele>
        <time>2020-06-17T15:49:11Z</time>
      </trkpt>
      <trkpt lat="49.4345" lon="0.27373">
        <ele>62</ele>
        <time>2020-06-17T15:49:12Z</time>
      </trkpt>
      <trkpt lat="49.43453" lon="0.27373">
        <ele>61.8</ele>
        <time>2020-06-17T15:49:13Z</time>
      </trkpt>
      <trkpt lat="49.43458" lon="0.27372">
        <ele>61.7</ele>
        <time>2020-06-17T15:49:14Z</time>
      </trkpt>
      <trkpt lat="49.4346" lon="0.27371">
        <ele>61.6</ele>
        <time>2020-06-17T15:49:15Z</time>
      </trkpt>
      <trkpt lat="49.43463" lon="0.2737">
        <ele>61.5</ele>
        <time>2020-06-17T15:49:16Z</time>
      </trkpt>
      <trkpt lat="49.43466" lon="0.27368">
        <ele>61.4</ele>
        <time>2020-06-17T15:49:17Z</time>
      </trkpt>
      <trkpt lat="49.43469" lon="0.27367">
        <ele>61.3</ele>
        <time>2020-06-17T15:49:18Z</time>
      </trkpt>
      <trkpt lat="49.43475" lon="0.27369">
        <ele>61</ele>
        <time>2020-06-17T15:49:19Z</time>
      </trkpt>
      <trkpt lat="49.4348" lon="0.27368">
        <ele>60.9</ele>
        <time>2020-06-17T15:49:20Z</time>
      </trkpt>
      <trkpt lat="49.43484" lon="0.27367">
        <ele>60.7</ele>
        <time>2020-06-17T15:49:21Z</time>
      </trkpt>
      <trkpt lat="49.43488" lon="0.27366">
        <ele>60.5</ele>
        <time>2020-06-17T15:49:22Z</time>
      </trkpt>
      <trkpt lat="49.43493" lon="0.27366">
        <ele>60.3</ele>
        <time>2020-06-17T15:49:23Z</time>
      </trkpt>
      <trkpt lat="49.43498" lon="0.27366">
        <ele>60.1</ele>
        <time>2020-06-17T15:49:24Z</time>
      </trkpt>
      <trkpt lat="49.43502" lon="0.27367">
        <ele>59.9</ele>
        <time>2020-06-17T15:49:25Z</time>
      </trkpt>
      <trkpt lat="49.43506" lon="0.27367">
        <ele>59.7</ele>
        <time>2020-06-17T15:49:26Z</time>
      </trkpt>
      <trkpt lat="49.43509" lon="0.27367">
        <ele>59.5</ele>
        <time>2020-06-17T15:49:27Z</time>
      </trkpt>
      <trkpt lat="49.43513" lon="0.27366">
        <ele>59.3</ele>
        <time>2020-06-17T15:49:28Z</time>
      </trkpt>
      <trkpt lat="49.43517" lon="0.27367">
        <ele>59.1</ele>
        <time>2020-06-17T15:49:29Z</time>
      </trkpt>
      <trkpt lat="49.43522" lon="0.27367">
        <ele>58.9</ele>
        <time>2020-06-17T15:49:30Z</time>
      </trkpt>
      <trkpt lat="49.43527" lon="0.27367">
        <ele>58.5</ele>
        <time>2020-06-17T15:49:31Z</time>
      </trkpt>
      <trkpt lat="49.43531" lon="0.27368">
        <ele>58.3</ele>
        <time>2020-06-17T15:49:32Z</time>
      </trkpt>
      <trkpt lat="49.43535" lon="0.27367">
        <ele>58.1</ele>
        <time>2020-06-17T15:49:33Z</time>
      </trkpt>
      <trkpt lat="49.43539" lon="0.27365">
        <ele>57.8</ele>
        <time>2020-06-17T15:49:34Z</time>
      </trkpt>
      <trkpt lat="49.43544" lon="0.27366">
        <ele>57.5</ele>
        <time>2020-06-17T15:49:35Z</time>
      </trkpt>
      <trkpt lat="49.43548" lon="0.27364">
        <ele>57.3</ele>
        <time>2020-06-17T15:49:36Z</time>
      </trkpt>
      <trkpt lat="49.43552" lon="0.27365">
        <ele>57</ele>
        <time>2020-06-17T15:49:37Z</time>
      </trkpt>
      <trkpt lat="49.43557" lon="0.27363">
        <ele>56.7</ele>
        <time>2020-06-17T15:49:38Z</time>
      </trkpt>
      <trkpt lat="49.43561" lon="0.27362">
        <ele>56.5</ele>
        <time>2020-06-17T15:49:39Z</time>
      </trkpt>
      <trkpt lat="49.43565" lon="0.2736">
        <ele>56.2</ele>
        <time>2020-06-17T15:49:40Z</time>
      </trkpt>
      <trkpt lat="49.43569" lon="0.27361">
        <ele>55.9</ele>
        <time>2020-06-17T15:49:41Z</time>
      </trkpt>
      <trkpt lat="49.43573" lon="0.27359">
        <ele>55.7</ele>
        <time>2020-06-17T15:49:42Z</time>
      </trkpt>
      <trkpt lat="49.43577" lon="0.27359">
        <ele>55.4</ele>
        <time>2020-06-17T15:49:43Z</time>
      </trkpt>
      <trkpt lat="49.43582" lon="0.2736">
        <ele>55.1</ele>
        <time>2020-06-17T15:49:44Z</time>
      </trkpt>
      <trkpt lat="49.43586" lon="0.2736">
        <ele>54.8</ele>
        <time>2020-06-17T15:49:45Z</time>
      </trkpt>
      <trkpt lat="49.4359" lon="0.2736">
        <ele>54.6</ele>
        <time>2020-06-17T15:49:46Z</time>
      </trkpt>
      <trkpt lat="49.43593" lon="0.27359">
        <ele>54.4</ele>
        <time>2020-06-17T15:49:47Z</time>
      </trkpt>
      <trkpt lat="49.43597" lon="0.27359">
        <ele>54.2</ele>
        <time>2020-06-17T15:49:48Z</time>
      </trkpt>
      <trkpt lat="49.436" lon="0.27359">
        <ele>53.9</ele>
        <time>2020-06-17T15:49:49Z</time>
      </trkpt>
      <trkpt lat="49.43604" lon="0.27357">
        <ele>53.7</ele>
        <time>2020-06-17T15:49:50Z</time>
      </trkpt>
      <trkpt lat="49.43607" lon="0.27357">
        <ele>53.5</ele>
        <time>2020-06-17T15:49:51Z</time>
      </trkpt>
      <trkpt lat="49.43611" lon="0.27357">
        <ele>53.3</ele>
        <time>2020-06-17T15:49:52Z</time>
      </trkpt>
      <trkpt lat="49.43612" lon="0.27356">
        <ele>53.2</ele>
        <time>2020-06-17T15:49:53Z</time>
      </trkpt>
      <trkpt lat="49.43616" lon="0.27356">
        <ele>53</ele>
        <time>2020-06-17T15:49:54Z</time>
      </trkpt>
      <trkpt lat="49.43618" lon="0.27356">
        <ele>52.9</ele>
        <time>2020-06-17T15:49:55Z</time>
      </trkpt>
      <trkpt lat="49.4362" lon="0.27354">
        <ele>52.7</ele>
        <time>2020-06-17T15:49:56Z</time>
      </trkpt>
      <trkpt lat="49.43623" lon="0.27353">
        <ele>52.5</ele>
        <time>2020-06-17T15:49:57Z</time>
      </trkpt>
      <trkpt lat="49.43627" lon="0.27352">
        <ele>52.3</ele>
        <time>2020-06-17T15:49:58Z</time>
      </trkpt>
      <trkpt lat="49.43632" lon="0.27351">
        <ele>51.9</ele>
        <time>2020-06-17T15:49:59Z</time>
      </trkpt>
      <trkpt lat="49.43638" lon="0.27349">
        <ele>51.5</ele>
        <time>2020-06-17T15:50:00Z</time>
      </trkpt>
      <trkpt lat="49.43643" lon="0.27347">
        <ele>51.2</ele>
        <time>2020-06-17T15:50:01Z</time>
      </trkpt>
      <trkpt lat="49.43648" lon="0.27346">
        <ele>50.8</ele>
        <time>2020-06-17T15:50:02Z</time>
      </trkpt>
      <trkpt lat="49.43651" lon="0.27344">
        <ele>50.5</ele>
        <time>2020-06-17T15:50:03Z</time>
      </trkpt>
      <trkpt lat="49.43656" lon="0.27343">
        <ele>50.2</ele>
        <time>2020-06-17T15:50:04Z</time>
      </trkpt>
      <trkpt lat="49.4366" lon="0.27343">
        <ele>49.8</ele>
        <time>2020-06-17T15:50:05Z</time>
      </trkpt>
      <trkpt lat="49.43664" lon="0.27342">
        <ele>49.4</ele>
        <time>2020-06-17T15:50:06Z</time>
      </trkpt>
      <trkpt lat="49.43669" lon="0.27343">
        <ele>49.1</ele>
        <time>2020-06-17T15:50:07Z</time>
      </trkpt>
      <trkpt lat="49.43674" lon="0.27343">
        <ele>48.8</ele>
        <time>2020-06-17T15:50:08Z</time>
      </trkpt>
      <trkpt lat="49.43677" lon="0.27343">
        <ele>48.5</ele>
        <time>2020-06-17T15:50:09Z</time>
      </trkpt>
      <trkpt lat="49.43681" lon="0.27344">
        <ele>48.2</ele>
        <time>2020-06-17T15:50:10Z</time>
      </trkpt>
      <trkpt lat="49.43685" lon="0.27344">
        <ele>47.9</ele>
        <time>2020-06-17T15:50:11Z</time>
      </trkpt>
      <trkpt lat="49.43688" lon="0.27346">
        <ele>47.7</ele>
        <time>2020-06-17T15:50:12Z</time>
      </trkpt>
      <trkpt lat="49.43691" lon="0.27346">
        <ele>47.5</ele>
        <time>2020-06-17T15:50:13Z</time>
      </trkpt>
      <trkpt lat="49.43694" lon="0.27345">
        <ele>47.3</ele>
        <time>2020-06-17T15:50:14Z</time>
      </trkpt>
      <trkpt lat="49.43698" lon="0.27345">
        <ele>47.1</ele>
        <time>2020-06-17T15:50:15Z</time>
      </trkpt>
      <trkpt lat="49.43699" lon="0.27345">
        <ele>47</ele>
        <time>2020-06-17T15:50:16Z</time>
      </trkpt>
      <trkpt lat="49.437" lon="0.27346">
        <ele>46.9</ele>
        <time>2020-06-17T15:50:17Z</time>
      </trkpt>
      <trkpt lat="49.437" lon="0.27344">
        <ele>46.8</ele>
        <time>2020-06-17T15:50:18Z</time>
      </trkpt>
      <trkpt lat="49.43702" lon="0.27345">
        <ele>46.7</ele>
        <time>2020-06-17T15:50:19Z</time>
      </trkpt>
      <trkpt lat="49.43703" lon="0.27345">
        <ele>46.7</ele>
        <time>2020-06-17T15:50:20Z</time>
      </trkpt>
      <trkpt lat="49.43703" lon="0.27348">
        <ele>46.6</ele>
        <time>2020-06-17T15:50:21Z</time>
      </trkpt>
      <trkpt lat="49.43703" lon="0.27349">
        <ele>46.5</ele>
        <time>2020-06-17T15:50:22Z</time>
      </trkpt>
      <trkpt lat="49.43703" lon="0.2735">
        <ele>46.5</ele>
        <time>2020-06-17T15:50:23Z</time>
      </trkpt>
      <trkpt lat="49.43703" lon="0.2735">
        <ele>46.5</ele>
        <time>2020-06-17T15:50:24Z</time>
      </trkpt>
      <trkpt lat="49.43703" lon="0.2735">
        <ele>46.5</ele>
        <time>2020-06-17T15:50:25Z</time>
      </trkpt>
      <trkpt lat="49.43703" lon="0.2735">
        <ele>46.5</ele>
        <time>2020-06-17T15:50:26Z</time>
      </trkpt>
      <trkpt lat="49.43703" lon="0.2735">
        <ele>46.4</ele>
        <time>2020-06-17T15:50:27Z</time>
      </trkpt>
      <trkpt lat="49.43703" lon="0.2735">
        <ele>46.4</ele>
        <time>2020-06-17T15:50:28Z</time>
      </trkpt>
      <trkpt lat="49.43703" lon="0.2735">
        <ele>46.4</ele>
        <time>2020-06-17T15:50:29Z</time>
      </trkpt>
      <trkpt lat="49.43708" lon="0.2735">
        <ele>46.1</ele>
        <time>2020-06-17T15:50:55Z</time>
      </trkpt>
      <trkpt lat="49.4371" lon="0.27349">
        <ele>46</ele>
        <time>2020-06-17T15:50:56Z</time>
      </trkpt>
      <trkpt lat="49.43713" lon="0.27349">
        <ele>45.8</ele>
        <time>2020-06-17T15:50:57Z</time>
      </trkpt>
      <trkpt lat="49.43713" lon="0.27348">
        <ele>45.8</ele>
        <time>2020-06-17T15:50:58Z</time>
      </trkpt>
      <trkpt lat="49.43714" lon="0.27348">
        <ele>45.7</ele>
        <time>2020-06-17T15:50:59Z</time>
      </trkpt>
      <trkpt lat="49.43716" lon="0.27347">
        <ele>45.6</ele>
        <time>2020-06-17T15:51:00Z</time>
      </trkpt>
      <trkpt lat="49.43718" lon="0.27347">
        <ele>45.5</ele>
        <time>2020-06-17T15:51:01Z</time>
      </trkpt>
      <trkpt lat="49.4372" lon="0.27346">
        <ele>45.4</ele>
        <time>2020-06-17T15:51:02Z</time>
      </trkpt>
      <trkpt lat="49.43722" lon="0.27346">
        <ele>45.2</ele>
        <time>2020-06-17T15:51:03Z</time>
      </trkpt>
      <trkpt lat="49.43723" lon="0.27346">
        <ele>45.1</ele>
        <time>2020-06-17T15:51:04Z</time>
      </trkpt>
      <trkpt lat="49.43725" lon="0.27345">
        <ele>45</ele>
        <time>2020-06-17T15:51:05Z</time>
      </trkpt>
      <trkpt lat="49.43726" lon="0.27345">
        <ele>44.9</ele>
        <time>2020-06-17T15:51:06Z</time>
      </trkpt>
      <trkpt lat="49.43727" lon="0.27345">
        <ele>44.9</ele>
        <time>2020-06-17T15:51:07Z</time>
      </trkpt>
      <trkpt lat="49.43729" lon="0.27344">
        <ele>44.7</ele>
        <time>2020-06-17T15:51:08Z</time>
      </trkpt>
      <trkpt lat="49.4373" lon="0.27343">
        <ele>44.7</ele>
        <time>2020-06-17T15:51:09Z</time>
      </trkpt>
      <trkpt lat="49.43731" lon="0.27342">
        <ele>44.6</ele>
        <time>2020-06-17T15:51:10Z</time>
      </trkpt>
      <trkpt lat="49.43732" lon="0.27341">
        <ele>44.5</ele>
        <time>2020-06-17T15:51:11Z</time>
      </trkpt>
      <trkpt lat="49.43733" lon="0.27341">
        <ele>44.4</ele>
        <time>2020-06-17T15:51:12Z</time>
      </trkpt>
      <trkpt lat="49.43735" lon="0.2734">
        <ele>44.3</ele>
        <time>2020-06-17T15:51:13Z</time>
      </trkpt>
      <trkpt lat="49.43736" lon="0.27339">
        <ele>44.2</ele>
        <time>2020-06-17T15:51:14Z</time>
      </trkpt>
      <trkpt lat="49.43737" lon="0.27339">
        <ele>44.1</ele>
        <time>2020-06-17T15:51:15Z</time>
      </trkpt>
      <trkpt lat="49.43738" lon="0.2734">
        <ele>44</ele>
        <time>2020-06-17T15:51:16Z</time>
      </trkpt>
      <trkpt lat="49.43739" lon="0.2734">
        <ele>44</ele>
        <time>2020-06-17T15:51:17Z</time>
      </trkpt>
      <trkpt lat="49.4374" lon="0.2734">
        <ele>43.9</ele>
        <time>2020-06-17T15:51:18Z</time>
      </trkpt>
      <trkpt lat="49.43742" lon="0.27339">
        <ele>43.7</ele>
        <time>2020-06-17T15:51:19Z</time>
      </trkpt>
      <trkpt lat="49.43744" lon="0.27339">
        <ele>43.6</ele>
        <time>2020-06-17T15:51:20Z</time>
      </trkpt>
      <trkpt lat="49.43746" lon="0.27339">
        <ele>43.5</ele>
        <time>2020-06-17T15:51:21Z</time>
      </trkpt>
      <trkpt lat="49.43747" lon="0.27338">
        <ele>43.4</ele>
        <time>2020-06-17T15:51:22Z</time>
      </trkpt>
      <trkpt lat="49.43748" lon="0.27339">
        <ele>43.3</ele>
        <time>2020-06-17T15:51:23Z</time>
      </trkpt>
      <trkpt lat="49.43751" lon="0.27339">
        <ele>43.1</ele>
        <time>2020-06-17T15:51:24Z</time>
      </trkpt>
      <trkpt lat="49.43752" lon="0.27339">
        <ele>43.1</ele>
        <time>2020-06-17T15:51:25Z</time>
      </trkpt>
      <trkpt lat="49.43754" lon="0.27339">
        <ele>43</ele>
        <time>2020-06-17T15:51:26Z</time>
      </trkpt>
      <trkpt lat="49.43755" lon="0.27338">
        <ele>42.8</ele>
        <time>2020-06-17T15:51:27Z</time>
      </trkpt>
      <trkpt lat="49.43756" lon="0.27337">
        <ele>42.8</ele>
        <time>2020-06-17T15:51:28Z</time>
      </trkpt>
      <trkpt lat="49.43758" lon="0.27336">
        <ele>42.6</ele>
        <time>2020-06-17T15:51:29Z</time>
      </trkpt>
      <trkpt lat="49.43759" lon="0.27336">
        <ele>42.6</ele>
        <time>2020-06-17T15:51:30Z</time>
      </trkpt>
      <trkpt lat="49.4376" lon="0.27335">
        <ele>42.5</ele>
        <time>2020-06-17T15:51:31Z</time>
      </trkpt>
      <trkpt lat="49.43761" lon="0.27336">
        <ele>42.4</ele>
        <time>2020-06-17T15:51:32Z</time>
      </trkpt>
      <trkpt lat="49.43762" lon="0.27337">
        <ele>42.3</ele>
        <time>2020-06-17T15:51:33Z</time>
      </trkpt>
      <trkpt lat="49.43764" lon="0.27337">
        <ele>42.1</ele>
        <time>2020-06-17T15:51:34Z</time>
      </trkpt>
      <trkpt lat="49.43765" lon="0.27337">
        <ele>42</ele>
        <time>2020-06-17T15:51:35Z</time>
      </trkpt>
      <trkpt lat="49.43767" lon="0.27337">
        <ele>41.9</ele>
        <time>2020-06-17T15:51:36Z</time>
      </trkpt>
      <trkpt lat="49.4377" lon="0.27337">
        <ele>41.7</ele>
        <time>2020-06-17T15:51:37Z</time>
      </trkpt>
      <trkpt lat="49.43771" lon="0.27337">
        <ele>41.6</ele>
        <time>2020-06-17T15:51:38Z</time>
      </trkpt>
      <trkpt lat="49.43773" lon="0.27337">
        <ele>41.5</ele>
        <time>2020-06-17T15:51:39Z</time>
      </trkpt>
      <trkpt lat="49.43774" lon="0.27337">
        <ele>41.4</ele>
        <time>2020-06-17T15:51:40Z</time>
      </trkpt>
      <trkpt lat="49.43775" lon="0.27337">
        <ele>41.3</ele>
        <time>2020-06-17T15:51:41Z</time>
      </trkpt>
      <trkpt lat="49.43776" lon="0.27335">
        <ele>41.2</ele>
        <time>2020-06-17T15:51:42Z</time>
      </trkpt>
      <trkpt lat="49.43777" lon="0.27334">
        <ele>41.1</ele>
        <time>2020-06-17T15:51:43Z</time>
      </trkpt>
      <trkpt lat="49.43779" lon="0.27334">
        <ele>41</ele>
        <time>2020-06-17T15:51:44Z</time>
      </trkpt>
      <trkpt lat="49.4378" lon="0.27333">
        <ele>40.9</ele>
        <time>2020-06-17T15:51:45Z</time>
      </trkpt>
      <trkpt lat="49.43781" lon="0.27332">
        <ele>40.8</ele>
        <time>2020-06-17T15:51:46Z</time>
      </trkpt>
      <trkpt lat="49.43782" lon="0.27331">
        <ele>40.8</ele>
        <time>2020-06-17T15:51:47Z</time>
      </trkpt>
      <trkpt lat="49.43783" lon="0.2733">
        <ele>40.6</ele>
        <time>2020-06-17T15:51:48Z</time>
      </trkpt>
      <trkpt lat="49.43785" lon="0.2733">
        <ele>40.5</ele>
        <time>2020-06-17T15:51:49Z</time>
      </trkpt>
      <trkpt lat="49.43787" lon="0.2733">
        <ele>40.4</ele>
        <time>2020-06-17T15:51:50Z</time>
      </trkpt>
      <trkpt lat="49.43788" lon="0.27331">
        <ele>40.3</ele>
        <time>2020-06-17T15:51:51Z</time>
      </trkpt>
      <trkpt lat="49.43789" lon="0.27331">
        <ele>40.2</ele>
        <time>2020-06-17T15:51:52Z</time>
      </trkpt>
      <trkpt lat="49.4379" lon="0.27331">
        <ele>40.1</ele>
        <time>2020-06-17T15:51:53Z</time>
      </trkpt>
      <trkpt lat="49.43792" lon="0.2733">
        <ele>40</ele>
        <time>2020-06-17T15:51:54Z</time>
      </trkpt>
      <trkpt lat="49.43793" lon="0.2733">
        <ele>39.9</ele>
        <time>2020-06-17T15:51:55Z</time>
      </trkpt>
      <trkpt lat="49.43794" lon="0.2733">
        <ele>39.9</ele>
        <time>2020-06-17T15:51:56Z</time>
      </trkpt>
      <trkpt lat="49.43797" lon="0.27331">
        <ele>39.6</ele>
        <time>2020-06-17T15:51:57Z</time>
      </trkpt>
      <trkpt lat="49.43798" lon="0.27331">
        <ele>39.6</ele>
        <time>2020-06-17T15:51:58Z</time>
      </trkpt>
      <trkpt lat="49.438" lon="0.2733">
        <ele>39.5</ele>
        <time>2020-06-17T15:51:59Z</time>
      </trkpt>
      <trkpt lat="49.43801" lon="0.2733">
        <ele>39.3</ele>
        <time>2020-06-17T15:52:00Z</time>
      </trkpt>
      <trkpt lat="49.43803" lon="0.2733">
        <ele>39.2</ele>
        <time>2020-06-17T15:52:01Z</time>
      </trkpt>
      <trkpt lat="49.43805" lon="0.2733">
        <ele>39.1</ele>
        <time>2020-06-17T15:52:02Z</time>
      </trkpt>
      <trkpt lat="49.43806" lon="0.27329">
        <ele>39</ele>
        <time>2020-06-17T15:52:03Z</time>
      </trkpt>
      <trkpt lat="49.43808" lon="0.27329">
        <ele>38.9</ele>
        <time>2020-06-17T15:52:04Z</time>
      </trkpt>
      <trkpt lat="49.4381" lon="0.2733">
        <ele>38.7</ele>
        <time>2020-06-17T15:52:05Z</time>
      </trkpt>
      <trkpt lat="49.43811" lon="0.2733">
        <ele>38.7</ele>
        <time>2020-06-17T15:52:06Z</time>
      </trkpt>
      <trkpt lat="49.43813" lon="0.2733">
        <ele>38.5</ele>
        <time>2020-06-17T15:52:07Z</time>
      </trkpt>
      <trkpt lat="49.43814" lon="0.2733">
        <ele>38.5</ele>
        <time>2020-06-17T15:52:08Z</time>
      </trkpt>
      <trkpt lat="49.43815" lon="0.27329">
        <ele>38.4</ele>
        <time>2020-06-17T15:52:09Z</time>
      </trkpt>
      <trkpt lat="49.43816" lon="0.27331">
        <ele>38.3</ele>
        <time>2020-06-17T15:52:10Z</time>
      </trkpt>
      <trkpt lat="49.43818" lon="0.2733">
        <ele>38.2</ele>
        <time>2020-06-17T15:52:11Z</time>
      </trkpt>
      <trkpt lat="49.43819" lon="0.2733">
        <ele>38</ele>
        <time>2020-06-17T15:52:12Z</time>
      </trkpt>
      <trkpt lat="49.43821" lon="0.27329">
        <ele>38</ele>
        <time>2020-06-17T15:52:13Z</time>
      </trkpt>
      <trkpt lat="49.43823" lon="0.27329">
        <ele>37.8</ele>
        <time>2020-06-17T15:52:14Z</time>
      </trkpt>
      <trkpt lat="49.43825" lon="0.27329">
        <ele>37.6</ele>
        <time>2020-06-17T15:52:15Z</time>
      </trkpt>
      <trkpt lat="49.43826" lon="0.27329">
        <ele>37.5</ele>
        <time>2020-06-17T15:52:16Z</time>
      </trkpt>
      <trkpt lat="49.43828" lon="0.27328">
        <ele>37.4</ele>
        <time>2020-06-17T15:52:17Z</time>
      </trkpt>
      <trkpt lat="49.43829" lon="0.27328">
        <ele>37.3</ele>
        <time>2020-06-17T15:52:18Z</time>
      </trkpt>
      <trkpt lat="49.4383" lon="0.27328">
        <ele>37.3</ele>
        <time>2020-06-17T15:52:19Z</time>
      </trkpt>
      <trkpt lat="49.43832" lon="0.27328">
        <ele>37.1</ele>
        <time>2020-06-17T15:52:20Z</time>
      </trkpt>
      <trkpt lat="49.43833" lon="0.27328">
        <ele>37</ele>
        <time>2020-06-17T15:52:21Z</time>
      </trkpt>
      <trkpt lat="49.43834" lon="0.27328">
        <ele>37</ele>
        <time>2020-06-17T15:52:22Z</time>
      </trkpt>
      <trkpt lat="49.43835" lon="0.27327">
        <ele>36.9</ele>
        <time>2020-06-17T15:52:23Z</time>
      </trkpt>
      <trkpt lat="49.43837" lon="0.27327">
        <ele>36.8</ele>
        <time>2020-06-17T15:52:24Z</time>
      </trkpt>
      <trkpt lat="49.43838" lon="0.27328">
        <ele>36.6</ele>
        <time>2020-06-17T15:52:25Z</time>
      </trkpt>
      <trkpt lat="49.4384" lon="0.27327">
        <ele>36.6</ele>
        <time>2020-06-17T15:52:26Z</time>
      </trkpt>
      <trkpt lat="49.43841" lon="0.27326">
        <ele>36.5</ele>
        <time>2020-06-17T15:52:27Z</time>
      </trkpt>
      <trkpt lat="49.43842" lon="0.27326">
        <ele>36.4</ele>
        <time>2020-06-17T15:52:28Z</time>
      </trkpt>
      <trkpt lat="49.43842" lon="0.27326">
        <ele>36.4</ele>
        <time>2020-06-17T15:52:29Z</time>
      </trkpt>
      <trkpt lat="49.43844" lon="0.27325">
        <ele>36.2</ele>
        <time>2020-06-17T15:52:30Z</time>
      </trkpt>
      <trkpt lat="49.43845" lon="0.27324">
        <ele>36.2</ele>
        <time>2020-06-17T15:52:31Z</time>
      </trkpt>
      <trkpt lat="49.43847" lon="0.27323">
        <ele>36</ele>
        <time>2020-06-17T15:52:32Z</time>
      </trkpt>
      <trkpt lat="49.43848" lon="0.27323">
        <ele>35.9</ele>
        <time>2020-06-17T15:52:33Z</time>
      </trkpt>
      <trkpt lat="49.43849" lon="0.27323">
        <ele>35.9</ele>
        <time>2020-06-17T15:52:34Z</time>
      </trkpt>
      <trkpt lat="49.43851" lon="0.27323">
        <ele>35.7</ele>
        <time>2020-06-17T15:52:35Z</time>
      </trkpt>
      <trkpt lat="49.43851" lon="0.27323">
        <ele>35.7</ele>
        <time>2020-06-17T15:52:36Z</time>
      </trkpt>
      <trkpt lat="49.43852" lon="0.27323">
        <ele>35.6</ele>
        <time>2020-06-17T15:52:37Z</time>
      </trkpt>
      <trkpt lat="49.43854" lon="0.27323">
        <ele>35.5</ele>
        <time>2020-06-17T15:52:38Z</time>
      </trkpt>
      <trkpt lat="49.43855" lon="0.27323">
        <ele>35.4</ele>
        <time>2020-06-17T15:52:39Z</time>
      </trkpt>
      <trkpt lat="49.43858" lon="0.27323">
        <ele>35.2</ele>
        <time>2020-06-17T15:52:40Z</time>
      </trkpt>
      <trkpt lat="49.43859" lon="0.27323">
        <ele>35.1</ele>
        <time>2020-06-17T15:52:41Z</time>
      </trkpt>
      <trkpt lat="49.43862" lon="0.27324">
        <ele>34.9</ele>
        <time>2020-06-17T15:52:42Z</time>
      </trkpt>
      <trkpt lat="49.43863" lon="0.27324">
        <ele>34.9</ele>
        <time>2020-06-17T15:52:43Z</time>
      </trkpt>
      <trkpt lat="49.43866" lon="0.27324">
        <ele>34.7</ele>
        <time>2020-06-17T15:52:44Z</time>
      </trkpt>
      <trkpt lat="49.43867" lon="0.27324">
        <ele>34.6</ele>
        <time>2020-06-17T15:52:45Z</time>
      </trkpt>
      <trkpt lat="49.43868" lon="0.27324">
        <ele>34.5</ele>
        <time>2020-06-17T15:52:46Z</time>
      </trkpt>
      <trkpt lat="49.43869" lon="0.27324">
        <ele>34.4</ele>
        <time>2020-06-17T15:52:47Z</time>
      </trkpt>
      <trkpt lat="49.4387" lon="0.27324">
        <ele>34.4</ele>
        <time>2020-06-17T15:52:48Z</time>
      </trkpt>
      <trkpt lat="49.43872" lon="0.27326">
        <ele>34.2</ele>
        <time>2020-06-17T15:52:49Z</time>
      </trkpt>
      <trkpt lat="49.43873" lon="0.27325">
        <ele>34.1</ele>
        <time>2020-06-17T15:52:50Z</time>
      </trkpt>
      <trkpt lat="49.43875" lon="0.27325">
        <ele>34</ele>
        <time>2020-06-17T15:52:51Z</time>
      </trkpt>
      <trkpt lat="49.43876" lon="0.27324">
        <ele>33.9</ele>
        <time>2020-06-17T15:52:52Z</time>
      </trkpt>
      <trkpt lat="49.43878" lon="0.27324">
        <ele>33.8</ele>
        <time>2020-06-17T15:52:53Z</time>
      </trkpt>
      <trkpt lat="49.43879" lon="0.27323">
        <ele>33.7</ele>
        <time>2020-06-17T15:52:54Z</time>
      </trkpt>
      <trkpt lat="49.4388" lon="0.27323">
        <ele>33.6</ele>
        <time>2020-06-17T15:52:55Z</time>
      </trkpt>
      <trkpt lat="49.43881" lon="0.27323">
        <ele>33.6</ele>
        <time>2020-06-17T15:52:56Z</time>
      </trkpt>
      <trkpt lat="49.43882" lon="0.27323">
        <ele>33.5</ele>
        <time>2020-06-17T15:52:57Z</time>
      </trkpt>
      <trkpt lat="49.43883" lon="0.27323">
        <ele>33.4</ele>
        <time>2020-06-17T15:52:58Z</time>
      </trkpt>
      <trkpt lat="49.43884" lon="0.27323">
        <ele>33.3</ele>
        <time>2020-06-17T15:52:59Z</time>
      </trkpt>
      <trkpt lat="49.43885" lon="0.27323">
        <ele>33.3</ele>
        <time>2020-06-17T15:53:00Z</time>
      </trkpt>
      <trkpt lat="49.43887" lon="0.27323">
        <ele>33.2</ele>
        <time>2020-06-17T15:53:01Z</time>
      </trkpt>
      <trkpt lat="49.43889" lon="0.27323">
        <ele>33</ele>
        <time>2020-06-17T15:53:02Z</time>
      </trkpt>
      <trkpt lat="49.43891" lon="0.27322">
        <ele>32.8</ele>
        <time>2020-06-17T15:53:03Z</time>
      </trkpt>
      <trkpt lat="49.43892" lon="0.27321">
        <ele>32.8</ele>
        <time>2020-06-17T15:53:04Z</time>
      </trkpt>
      <trkpt lat="49.43894" lon="0.27321">
        <ele>32.7</ele>
        <time>2020-06-17T15:53:05Z</time>
      </trkpt>
      <trkpt lat="49.43895" lon="0.27321">
        <ele>32.5</ele>
        <time>2020-06-17T15:53:06Z</time>
      </trkpt>
      <trkpt lat="49.43897" lon="0.27321">
        <ele>32.4</ele>
        <time>2020-06-17T15:53:07Z</time>
      </trkpt>
      <trkpt lat="49.43899" lon="0.2732">
        <ele>32.3</ele>
        <time>2020-06-17T15:53:08Z</time>
      </trkpt>
      <trkpt lat="49.439" lon="0.2732">
        <ele>32.2</ele>
        <time>2020-06-17T15:53:09Z</time>
      </trkpt>
      <trkpt lat="49.43901" lon="0.27319">
        <ele>32.1</ele>
        <time>2020-06-17T15:53:10Z</time>
      </trkpt>
      <trkpt lat="49.43903" lon="0.27317">
        <ele>31.9</ele>
        <time>2020-06-17T15:53:11Z</time>
      </trkpt>
      <trkpt lat="49.43904" lon="0.27317">
        <ele>31.9</ele>
        <time>2020-06-17T15:53:12Z</time>
      </trkpt>
      <trkpt lat="49.43905" lon="0.27316">
        <ele>31.8</ele>
        <time>2020-06-17T15:53:13Z</time>
      </trkpt>
      <trkpt lat="49.43906" lon="0.27315">
        <ele>31.8</ele>
        <time>2020-06-17T15:53:14Z</time>
      </trkpt>
      <trkpt lat="49.43907" lon="0.27316">
        <ele>31.7</ele>
        <time>2020-06-17T15:53:15Z</time>
      </trkpt>
      <trkpt lat="49.43907" lon="0.27316">
        <ele>31.6</ele>
        <time>2020-06-17T15:53:16Z</time>
      </trkpt>
      <trkpt lat="49.4391" lon="0.27316">
        <ele>31.5</ele>
        <time>2020-06-17T15:53:17Z</time>
      </trkpt>
      <trkpt lat="49.43911" lon="0.27315">
        <ele>31.4</ele>
        <time>2020-06-17T15:53:18Z</time>
      </trkpt>
      <trkpt lat="49.43912" lon="0.27315">
        <ele>31.3</ele>
        <time>2020-06-17T15:53:19Z</time>
      </trkpt>
      <trkpt lat="49.43913" lon="0.27316">
        <ele>31.2</ele>
        <time>2020-06-17T15:53:20Z</time>
      </trkpt>
      <trkpt lat="49.43914" lon="0.27315">
        <ele>31.1</ele>
        <time>2020-06-17T15:53:21Z</time>
      </trkpt>
      <trkpt lat="49.43915" lon="0.27314">
        <ele>31.1</ele>
        <time>2020-06-17T15:53:22Z</time>
      </trkpt>
      <trkpt lat="49.43916" lon="0.27314">
        <ele>31</ele>
        <time>2020-06-17T15:53:23Z</time>
      </trkpt>
      <trkpt lat="49.43917" lon="0.27314">
        <ele>30.9</ele>
        <time>2020-06-17T15:53:24Z</time>
      </trkpt>
      <trkpt lat="49.43918" lon="0.27313">
        <ele>30.8</ele>
        <time>2020-06-17T15:53:25Z</time>
      </trkpt>
      <trkpt lat="49.43919" lon="0.27313">
        <ele>30.8</ele>
        <time>2020-06-17T15:53:26Z</time>
      </trkpt>
      <trkpt lat="49.4392" lon="0.27312">
        <ele>30.7</ele>
        <time>2020-06-17T15:53:27Z</time>
      </trkpt>
      <trkpt lat="49.43923" lon="0.27314">
        <ele>30.5</ele>
        <time>2020-06-17T15:53:28Z</time>
      </trkpt>
      <trkpt lat="49.43924" lon="0.27315">
        <ele>30.5</ele>
        <time>2020-06-17T15:53:29Z</time>
      </trkpt>
      <trkpt lat="49.43926" lon="0.27316">
        <ele>30.4</ele>
        <time>2020-06-17T15:53:30Z</time>
      </trkpt>
      <trkpt lat="49.43927" lon="0.27315">
        <ele>30.3</ele>
        <time>2020-06-17T15:53:31Z</time>
      </trkpt>
      <trkpt lat="49.43928" lon="0.27315">
        <ele>30.2</ele>
        <time>2020-06-17T15:53:32Z</time>
      </trkpt>
      <trkpt lat="49.4393" lon="0.27315">
        <ele>30.1</ele>
        <time>2020-06-17T15:53:33Z</time>
      </trkpt>
      <trkpt lat="49.43932" lon="0.27315">
        <ele>30</ele>
        <time>2020-06-17T15:53:34Z</time>
      </trkpt>
      <trkpt lat="49.43933" lon="0.27315">
        <ele>29.9</ele>
        <time>2020-06-17T15:53:35Z</time>
      </trkpt>
      <trkpt lat="49.43934" lon="0.27314">
        <ele>29.8</ele>
        <time>2020-06-17T15:53:36Z</time>
      </trkpt>
      <trkpt lat="49.43936" lon="0.27314">
        <ele>29.7</ele>
        <time>2020-06-17T15:53:37Z</time>
      </trkpt>
      <trkpt lat="49.43937" lon="0.27314">
        <ele>29.6</ele>
        <time>2020-06-17T15:53:38Z</time>
      </trkpt>
      <trkpt lat="49.43938" lon="0.27313">
        <ele>29.6</ele>
        <time>2020-06-17T15:53:39Z</time>
      </trkpt>
      <trkpt lat="49.43939" lon="0.27314">
        <ele>29.5</ele>
        <time>2020-06-17T15:53:40Z</time>
      </trkpt>
      <trkpt lat="49.43941" lon="0.27315">
        <ele>29.4</ele>
        <time>2020-06-17T15:53:41Z</time>
      </trkpt>
      <trkpt lat="49.43943" lon="0.27314">
        <ele>29.3</ele>
        <time>2020-06-17T15:53:42Z</time>
      </trkpt>
      <trkpt lat="49.43944" lon="0.27314">
        <ele>29.2</ele>
        <time>2020-06-17T15:53:43Z</time>
      </trkpt>
      <trkpt lat="49.43945" lon="0.27314">
        <ele>29.1</ele>
        <time>2020-06-17T15:53:44Z</time>
      </trkpt>
      <trkpt lat="49.43946" lon="0.27315">
        <ele>29</ele>
        <time>2020-06-17T15:53:45Z</time>
      </trkpt>
      <trkpt lat="49.43949" lon="0.27315">
        <ele>28.8</ele>
        <time>2020-06-17T15:53:46Z</time>
      </trkpt>
      <trkpt lat="49.4395" lon="0.27315">
        <ele>28.7</ele>
        <time>2020-06-17T15:53:47Z</time>
      </trkpt>
      <trkpt lat="49.43952" lon="0.27315">
        <ele>28.6</ele>
        <time>2020-06-17T15:53:48Z</time>
      </trkpt>
      <trkpt lat="49.43953" lon="0.27315">
        <ele>28.5</ele>
        <time>2020-06-17T15:53:49Z</time>
      </trkpt>
      <trkpt lat="49.43955" lon="0.27314">
        <ele>28.4</ele>
        <time>2020-06-17T15:53:50Z</time>
      </trkpt>
      <trkpt lat="49.43956" lon="0.27313">
        <ele>28.3</ele>
        <time>2020-06-17T15:53:51Z</time>
      </trkpt>
      <trkpt lat="49.43959" lon="0.27312">
        <ele>28.1</ele>
        <time>2020-06-17T15:53:52Z</time>
      </trkpt>
      <trkpt lat="49.4396" lon="0.27312">
        <ele>28.1</ele>
        <time>2020-06-17T15:53:53Z</time>
      </trkpt>
      <trkpt lat="49.4396" lon="0.27311">
        <ele>28</ele>
        <time>2020-06-17T15:53:54Z</time>
      </trkpt>
      <trkpt lat="49.43962" lon="0.27311">
        <ele>27.9</ele>
        <time>2020-06-17T15:53:55Z</time>
      </trkpt>
      <trkpt lat="49.43963" lon="0.27309">
        <ele>27.8</ele>
        <time>2020-06-17T15:53:56Z</time>
      </trkpt>
      <trkpt lat="49.43965" lon="0.2731">
        <ele>27.7</ele>
        <time>2020-06-17T15:53:57Z</time>
      </trkpt>
      <trkpt lat="49.43967" lon="0.27309">
        <ele>27.6</ele>
        <time>2020-06-17T15:53:58Z</time>
      </trkpt>
      <trkpt lat="49.43968" lon="0.27309">
        <ele>27.5</ele>
        <time>2020-06-17T15:53:59Z</time>
      </trkpt>
      <trkpt lat="49.4397" lon="0.27309">
        <ele>27.4</ele>
        <time>2020-06-17T15:54:00Z</time>
      </trkpt>
      <trkpt lat="49.43971" lon="0.27307">
        <ele>27.3</ele>
        <time>2020-06-17T15:54:01Z</time>
      </trkpt>
      <trkpt lat="49.43972" lon="0.27306">
        <ele>27.2</ele>
        <time>2020-06-17T15:54:02Z</time>
      </trkpt>
      <trkpt lat="49.43975" lon="0.27306">
        <ele>27.1</ele>
        <time>2020-06-17T15:54:03Z</time>
      </trkpt>
      <trkpt lat="49.43975" lon="0.27305">
        <ele>27</ele>
        <time>2020-06-17T15:54:04Z</time>
      </trkpt>
      <trkpt lat="49.43976" lon="0.27305">
        <ele>27</ele>
        <time>2020-06-17T15:54:05Z</time>
      </trkpt>
      <trkpt lat="49.43978" lon="0.27305">
        <ele>26.9</ele>
        <time>2020-06-17T15:54:06Z</time>
      </trkpt>
      <trkpt lat="49.43979" lon="0.27305">
        <ele>26.8</ele>
        <time>2020-06-17T15:54:07Z</time>
      </trkpt>
      <trkpt lat="49.4398" lon="0.27306">
        <ele>26.7</ele>
        <time>2020-06-17T15:54:08Z</time>
      </trkpt>
      <trkpt lat="49.43982" lon="0.27305">
        <ele>26.7</ele>
        <time>2020-06-17T15:54:09Z</time>
      </trkpt>
      <trkpt lat="49.43983" lon="0.27305">
        <ele>26.6</ele>
        <time>2020-06-17T15:54:10Z</time>
      </trkpt>
      <trkpt lat="49.43984" lon="0.27306">
        <ele>26.5</ele>
        <time>2020-06-17T15:54:11Z</time>
      </trkpt>
      <trkpt lat="49.43987" lon="0.27305">
        <ele>26.4</ele>
        <time>2020-06-17T15:54:12Z</time>
      </trkpt>
      <trkpt lat="49.43988" lon="0.27304">
        <ele>26.3</ele>
        <time>2020-06-17T15:54:13Z</time>
      </trkpt>
      <trkpt lat="49.4399" lon="0.27304">
        <ele>26.2</ele>
        <time>2020-06-17T15:54:14Z</time>
      </trkpt>
      <trkpt lat="49.43991" lon="0.27303">
        <ele>26.1</ele>
        <time>2020-06-17T15:54:15Z</time>
      </trkpt>
      <trkpt lat="49.43993" lon="0.27304">
        <ele>26</ele>
        <time>2020-06-17T15:54:16Z</time>
      </trkpt>
      <trkpt lat="49.43994" lon="0.27304">
        <ele>26</ele>
        <time>2020-06-17T15:54:17Z</time>
      </trkpt>
      <trkpt lat="49.43995" lon="0.27304">
        <ele>25.9</ele>
        <time>2020-06-17T15:54:18Z</time>
      </trkpt>
      <trkpt lat="49.43996" lon="0.27304">
        <ele>25.9</ele>
        <time>2020-06-17T15:54:19Z</time>
      </trkpt>
      <trkpt lat="49.43998" lon="0.27304">
        <ele>25.8</ele>
        <time>2020-06-17T15:54:20Z</time>
      </trkpt>
      <trkpt lat="49.43999" lon="0.27303">
        <ele>25.7</ele>
        <time>2020-06-17T15:54:21Z</time>
      </trkpt>
      <trkpt lat="49.44001" lon="0.27302">
        <ele>25.7</ele>
        <time>2020-06-17T15:54:22Z</time>
      </trkpt>
      <trkpt lat="49.44003" lon="0.27302">
        <ele>25.6</ele>
        <time>2020-06-17T15:54:23Z</time>
      </trkpt>
      <trkpt lat="49.44004" lon="0.27302">
        <ele>25.6</ele>
        <time>2020-06-17T15:54:24Z</time>
      </trkpt>
      <trkpt lat="49.44005" lon="0.27302">
        <ele>25.5</ele>
        <time>2020-06-17T15:54:25Z</time>
      </trkpt>
      <trkpt lat="49.44007" lon="0.27302">
        <ele>25.5</ele>
        <time>2020-06-17T15:54:26Z</time>
      </trkpt>
      <trkpt lat="49.44008" lon="0.27303">
        <ele>25.4</ele>
        <time>2020-06-17T15:54:27Z</time>
      </trkpt>
      <trkpt lat="49.4401" lon="0.27303">
        <ele>25.4</ele>
        <time>2020-06-17T15:54:28Z</time>
      </trkpt>
      <trkpt lat="49.44012" lon="0.27303">
        <ele>25.4</ele>
        <time>2020-06-17T15:54:29Z</time>
      </trkpt>
      <trkpt lat="49.44014" lon="0.27301">
        <ele>25.3</ele>
        <time>2020-06-17T15:54:30Z</time>
      </trkpt>
      <trkpt lat="49.44015" lon="0.27301">
        <ele>25.3</ele>
        <time>2020-06-17T15:54:31Z</time>
      </trkpt>
      <trkpt lat="49.44016" lon="0.273">
        <ele>25.3</ele>
        <time>2020-06-17T15:54:32Z</time>
      </trkpt>
      <trkpt lat="49.44016" lon="0.273">
        <ele>25.3</ele>
        <time>2020-06-17T15:54:33Z</time>
      </trkpt>
      <trkpt lat="49.44017" lon="0.273">
        <ele>25.2</ele>
        <time>2020-06-17T15:54:34Z</time>
      </trkpt>
      <trkpt lat="49.44018" lon="0.27299">
        <ele>25.2</ele>
        <time>2020-06-17T15:54:35Z</time>
      </trkpt>
      <trkpt lat="49.44019" lon="0.27298">
        <ele>25.2</ele>
        <time>2020-06-17T15:54:36Z</time>
      </trkpt>
      <trkpt lat="49.4402" lon="0.27298">
        <ele>25.2</ele>
        <time>2020-06-17T15:54:37Z</time>
      </trkpt>
      <trkpt lat="49.44022" lon="0.27297">
        <ele>25.2</ele>
        <time>2020-06-17T15:54:38Z</time>
      </trkpt>
      <trkpt lat="49.44023" lon="0.27297">
        <ele>25.1</ele>
        <time>2020-06-17T15:54:39Z</time>
      </trkpt>
      <trkpt lat="49.44024" lon="0.27297">
        <ele>25.1</ele>
        <time>2020-06-17T15:54:40Z</time>
      </trkpt>
      <trkpt lat="49.44025" lon="0.27297">
        <ele>25.1</ele>
        <time>2020-06-17T15:54:41Z</time>
      </trkpt>
      <trkpt lat="49.44026" lon="0.27297">
        <ele>25</ele>
        <time>2020-06-17T15:54:42Z</time>
      </trkpt>
      <trkpt lat="49.44028" lon="0.27296">
        <ele>24.9</ele>
        <time>2020-06-17T15:54:43Z</time>
      </trkpt>
      <trkpt lat="49.44029" lon="0.27295">
        <ele>24.8</ele>
        <time>2020-06-17T15:54:44Z</time>
      </trkpt>
      <trkpt lat="49.4403" lon="0.27295">
        <ele>24.7</ele>
        <time>2020-06-17T15:54:45Z</time>
      </trkpt>
      <trkpt lat="49.44032" lon="0.27295">
        <ele>24.6</ele>
        <time>2020-06-17T15:54:46Z</time>
      </trkpt>
      <trkpt lat="49.44033" lon="0.27295">
        <ele>24.5</ele>
        <time>2020-06-17T15:54:47Z</time>
      </trkpt>
      <trkpt lat="49.44034" lon="0.27295">
        <ele>24.5</ele>
        <time>2020-06-17T15:54:48Z</time>
      </trkpt>
      <trkpt lat="49.44035" lon="0.27295">
        <ele>24.4</ele>
        <time>2020-06-17T15:54:49Z</time>
      </trkpt>
      <trkpt lat="49.44036" lon="0.27295">
        <ele>24.3</ele>
        <time>2020-06-17T15:54:50Z</time>
      </trkpt>
      <trkpt lat="49.44038" lon="0.27295">
        <ele>24.3</ele>
        <time>2020-06-17T15:54:51Z</time>
      </trkpt>
      <trkpt lat="49.4404" lon="0.27296">
        <ele>24.1</ele>
        <time>2020-06-17T15:54:52Z</time>
      </trkpt>
      <trkpt lat="49.44041" lon="0.27297">
        <ele>24</ele>
        <time>2020-06-17T15:54:53Z</time>
      </trkpt>
      <trkpt lat="49.44043" lon="0.27297">
        <ele>23.9</ele>
        <time>2020-06-17T15:54:54Z</time>
      </trkpt>
      <trkpt lat="49.44044" lon="0.27297">
        <ele>23.8</ele>
        <time>2020-06-17T15:54:55Z</time>
      </trkpt>
      <trkpt lat="49.44045" lon="0.27297">
        <ele>23.8</ele>
        <time>2020-06-17T15:54:56Z</time>
      </trkpt>
      <trkpt lat="49.44047" lon="0.27298">
        <ele>23.7</ele>
        <time>2020-06-17T15:54:57Z</time>
      </trkpt>
      <trkpt lat="49.44048" lon="0.27298">
        <ele>23.6</ele>
        <time>2020-06-17T15:54:58Z</time>
      </trkpt>
      <trkpt lat="49.44049" lon="0.27298">
        <ele>23.5</ele>
        <time>2020-06-17T15:54:59Z</time>
      </trkpt>
      <trkpt lat="49.44052" lon="0.27298">
        <ele>23.3</ele>
        <time>2020-06-17T15:55:00Z</time>
      </trkpt>
      <trkpt lat="49.44055" lon="0.27299">
        <ele>23.1</ele>
        <time>2020-06-17T15:55:01Z</time>
      </trkpt>
      <trkpt lat="49.44056" lon="0.27299">
        <ele>23</ele>
        <time>2020-06-17T15:55:02Z</time>
      </trkpt>
      <trkpt lat="49.44059" lon="0.27299">
        <ele>22.8</ele>
        <time>2020-06-17T15:55:03Z</time>
      </trkpt>
      <trkpt lat="49.4406" lon="0.27299">
        <ele>22.8</ele>
        <time>2020-06-17T15:55:04Z</time>
      </trkpt>
      <trkpt lat="49.44061" lon="0.27298">
        <ele>22.7</ele>
        <time>2020-06-17T15:55:05Z</time>
      </trkpt>
      <trkpt lat="49.44062" lon="0.27298">
        <ele>22.6</ele>
        <time>2020-06-17T15:55:06Z</time>
      </trkpt>
      <trkpt lat="49.44063" lon="0.27297">
        <ele>22.5</ele>
        <time>2020-06-17T15:55:07Z</time>
      </trkpt>
      <trkpt lat="49.44065" lon="0.27297">
        <ele>22.4</ele>
        <time>2020-06-17T15:55:08Z</time>
      </trkpt>
      <trkpt lat="49.44066" lon="0.27296">
        <ele>22.3</ele>
        <time>2020-06-17T15:55:09Z</time>
      </trkpt>
      <trkpt lat="49.44067" lon="0.27296">
        <ele>22.3</ele>
        <time>2020-06-17T15:55:10Z</time>
      </trkpt>
      <trkpt lat="49.44069" lon="0.27296">
        <ele>22.2</ele>
        <time>2020-06-17T15:55:11Z</time>
      </trkpt>
      <trkpt lat="49.4407" lon="0.27295">
        <ele>22.1</ele>
        <time>2020-06-17T15:55:12Z</time>
      </trkpt>
      <trkpt lat="49.44072" lon="0.27295">
        <ele>22</ele>
        <time>2020-06-17T15:55:13Z</time>
      </trkpt>
      <trkpt lat="49.44073" lon="0.27294">
        <ele>21.9</ele>
        <time>2020-06-17T15:55:14Z</time>
      </trkpt>
      <trkpt lat="49.44074" lon="0.27295">
        <ele>21.8</ele>
        <time>2020-06-17T15:55:15Z</time>
      </trkpt>
      <trkpt lat="49.44075" lon="0.27295">
        <ele>21.7</ele>
        <time>2020-06-17T15:55:16Z</time>
      </trkpt>
      <trkpt lat="49.44076" lon="0.27295">
        <ele>21.7</ele>
        <time>2020-06-17T15:55:17Z</time>
      </trkpt>
      <trkpt lat="49.44078" lon="0.27294">
        <ele>21.5</ele>
        <time>2020-06-17T15:55:18Z</time>
      </trkpt>
      <trkpt lat="49.44079" lon="0.27294">
        <ele>21.5</ele>
        <time>2020-06-17T15:55:19Z</time>
      </trkpt>
      <trkpt lat="49.4408" lon="0.27294">
        <ele>21.4</ele>
        <time>2020-06-17T15:55:20Z</time>
      </trkpt>
      <trkpt lat="49.44081" lon="0.27294">
        <ele>21.3</ele>
        <time>2020-06-17T15:55:21Z</time>
      </trkpt>
      <trkpt lat="49.44083" lon="0.27294">
        <ele>21.2</ele>
        <time>2020-06-17T15:55:22Z</time>
      </trkpt>
      <trkpt lat="49.44084" lon="0.27295">
        <ele>21.1</ele>
        <time>2020-06-17T15:55:23Z</time>
      </trkpt>
      <trkpt lat="49.44085" lon="0.27294">
        <ele>21.1</ele>
        <time>2020-06-17T15:55:24Z</time>
      </trkpt>
      <trkpt lat="49.44086" lon="0.27294">
        <ele>21</ele>
        <time>2020-06-17T15:55:25Z</time>
      </trkpt>
      <trkpt lat="49.44087" lon="0.27292">
        <ele>20.9</ele>
        <time>2020-06-17T15:55:26Z</time>
      </trkpt>
      <trkpt lat="49.44088" lon="0.27291">
        <ele>20.8</ele>
        <time>2020-06-17T15:55:27Z</time>
      </trkpt>
      <trkpt lat="49.44092" lon="0.27291">
        <ele>20.6</ele>
        <time>2020-06-17T15:55:28Z</time>
      </trkpt>
      <trkpt lat="49.44093" lon="0.27291">
        <ele>20.5</ele>
        <time>2020-06-17T15:55:29Z</time>
      </trkpt>
      <trkpt lat="49.44094" lon="0.27292">
        <ele>20.4</ele>
        <time>2020-06-17T15:55:30Z</time>
      </trkpt>
      <trkpt lat="49.44096" lon="0.27291">
        <ele>20.3</ele>
        <time>2020-06-17T15:55:31Z</time>
      </trkpt>
      <trkpt lat="49.44098" lon="0.2729">
        <ele>20.2</ele>
        <time>2020-06-17T15:55:32Z</time>
      </trkpt>
      <trkpt lat="49.44099" lon="0.2729">
        <ele>20.1</ele>
        <time>2020-06-17T15:55:33Z</time>
      </trkpt>
      <trkpt lat="49.44099" lon="0.27289">
        <ele>20.1</ele>
        <time>2020-06-17T15:55:34Z</time>
      </trkpt>
      <trkpt lat="49.44101" lon="0.27288">
        <ele>19.9</ele>
        <time>2020-06-17T15:55:35Z</time>
      </trkpt>
      <trkpt lat="49.44102" lon="0.27287">
        <ele>19.9</ele>
        <time>2020-06-17T15:55:36Z</time>
      </trkpt>
      <trkpt lat="49.44103" lon="0.27287">
        <ele>19.8</ele>
        <time>2020-06-17T15:55:37Z</time>
      </trkpt>
      <trkpt lat="49.44106" lon="0.27287">
        <ele>19.6</ele>
        <time>2020-06-17T15:55:38Z</time>
      </trkpt>
      <trkpt lat="49.44108" lon="0.27288">
        <ele>19.5</ele>
        <time>2020-06-17T15:55:39Z</time>
      </trkpt>
      <trkpt lat="49.44111" lon="0.27287">
        <ele>19.3</ele>
        <time>2020-06-17T15:55:40Z</time>
      </trkpt>
      <trkpt lat="49.44111" lon="0.27287">
        <ele>19.3</ele>
        <time>2020-06-17T15:55:41Z</time>
      </trkpt>
      <trkpt lat="49.44113" lon="0.27287">
        <ele>19.1</ele>
        <time>2020-06-17T15:55:42Z</time>
      </trkpt>
      <trkpt lat="49.44115" lon="0.27287">
        <ele>19.1</ele>
        <time>2020-06-17T15:55:43Z</time>
      </trkpt>
      <trkpt lat="49.44116" lon="0.27287">
        <ele>19</ele>
        <time>2020-06-17T15:55:44Z</time>
      </trkpt>
      <trkpt lat="49.44117" lon="0.27287">
        <ele>18.9</ele>
        <time>2020-06-17T15:55:45Z</time>
      </trkpt>
      <trkpt lat="49.4412" lon="0.27287">
        <ele>18.7</ele>
        <time>2020-06-17T15:55:46Z</time>
      </trkpt>
      <trkpt lat="49.4412" lon="0.27286">
        <ele>18.7</ele>
        <time>2020-06-17T15:55:47Z</time>
      </trkpt>
      <trkpt lat="49.44121" lon="0.27286">
        <ele>18.6</ele>
        <time>2020-06-17T15:55:48Z</time>
      </trkpt>
      <trkpt lat="49.44123" lon="0.27285">
        <ele>18.5</ele>
        <time>2020-06-17T15:55:49Z</time>
      </trkpt>
      <trkpt lat="49.44124" lon="0.27286">
        <ele>18.4</ele>
        <time>2020-06-17T15:55:50Z</time>
      </trkpt>
      <trkpt lat="49.44126" lon="0.27285">
        <ele>18.3</ele>
        <time>2020-06-17T15:55:51Z</time>
      </trkpt>
      <trkpt lat="49.44127" lon="0.27284">
        <ele>18.2</ele>
        <time>2020-06-17T15:55:52Z</time>
      </trkpt>
      <trkpt lat="49.44129" lon="0.27283">
        <ele>18.1</ele>
        <time>2020-06-17T15:55:53Z</time>
      </trkpt>
      <trkpt lat="49.4413" lon="0.27283">
        <ele>18</ele>
        <time>2020-06-17T15:55:54Z</time>
      </trkpt>
      <trkpt lat="49.44131" lon="0.27283">
        <ele>18</ele>
        <time>2020-06-17T15:55:55Z</time>
      </trkpt>
      <trkpt lat="49.44132" lon="0.27283">
        <ele>17.9</ele>
        <time>2020-06-17T15:55:56Z</time>
      </trkpt>
      <trkpt lat="49.44133" lon="0.27284">
        <ele>17.8</ele>
        <time>2020-06-17T15:55:57Z</time>
      </trkpt>
      <trkpt lat="49.44136" lon="0.27283">
        <ele>17.7</ele>
        <time>2020-06-17T15:55:58Z</time>
      </trkpt>
      <trkpt lat="49.44136" lon="0.27283">
        <ele>17.6</ele>
        <time>2020-06-17T15:55:59Z</time>
      </trkpt>
      <trkpt lat="49.44137" lon="0.27283">
        <ele>17.6</ele>
        <time>2020-06-17T15:56:00Z</time>
      </trkpt>
      <trkpt lat="49.44138" lon="0.27283">
        <ele>17.5</ele>
        <time>2020-06-17T15:56:01Z</time>
      </trkpt>
      <trkpt lat="49.4414" lon="0.27282">
        <ele>17.4</ele>
        <time>2020-06-17T15:56:02Z</time>
      </trkpt>
      <trkpt lat="49.44142" lon="0.27281">
        <ele>17.3</ele>
        <time>2020-06-17T15:56:03Z</time>
      </trkpt>
      <trkpt lat="49.44143" lon="0.27281">
        <ele>17.2</ele>
        <time>2020-06-17T15:56:04Z</time>
      </trkpt>
      <trkpt lat="49.44145" lon="0.27281">
        <ele>17.1</ele>
        <time>2020-06-17T15:56:05Z</time>
      </trkpt>
      <trkpt lat="49.44147" lon="0.2728">
        <ele>17</ele>
        <time>2020-06-17T15:56:06Z</time>
      </trkpt>
      <trkpt lat="49.44148" lon="0.2728">
        <ele>16.9</ele>
        <time>2020-06-17T15:56:07Z</time>
      </trkpt>
      <trkpt lat="49.4415" lon="0.2728">
        <ele>16.8</ele>
        <time>2020-06-17T15:56:08Z</time>
      </trkpt>
      <trkpt lat="49.44151" lon="0.27279">
        <ele>16.7</ele>
        <time>2020-06-17T15:56:09Z</time>
      </trkpt>
      <trkpt lat="49.44152" lon="0.27279">
        <ele>16.6</ele>
        <time>2020-06-17T15:56:10Z</time>
      </trkpt>
      <trkpt lat="49.44153" lon="0.27279">
        <ele>16.5</ele>
        <time>2020-06-17T15:56:11Z</time>
      </trkpt>
      <trkpt lat="49.44154" lon="0.27279">
        <ele>16.5</ele>
        <time>2020-06-17T15:56:12Z</time>
      </trkpt>
      <trkpt lat="49.44155" lon="0.2728">
        <ele>16.4</ele>
        <time>2020-06-17T15:56:13Z</time>
      </trkpt>
      <trkpt lat="49.44155" lon="0.2728">
        <ele>16.4</ele>
        <time>2020-06-17T15:56:14Z</time>
      </trkpt>
      <trkpt lat="49.44155" lon="0.2728">
        <ele>16.4</ele>
        <time>2020-06-17T15:56:15Z</time>
      </trkpt>
      <trkpt lat="49.44155" lon="0.2728">
        <ele>16.4</ele>
        <time>2020-06-17T15:56:16Z</time>
      </trkpt>
      <trkpt lat="49.44155" lon="0.2728">
        <ele>16.3</ele>
        <time>2020-06-17T15:56:17Z</time>
      </trkpt>
      <trkpt lat="49.44156" lon="0.2728">
        <ele>16.3</ele>
        <time>2020-06-17T15:56:18Z</time>
      </trkpt>
      <trkpt lat="49.44156" lon="0.27279">
        <ele>16.3</ele>
        <time>2020-06-17T15:56:19Z</time>
      </trkpt>
      <trkpt lat="49.44158" lon="0.27277">
        <ele>16.2</ele>
        <time>2020-06-17T15:56:20Z</time>
      </trkpt>
      <trkpt lat="49.4416" lon="0.27277">
        <ele>16</ele>
        <time>2020-06-17T15:56:21Z</time>
      </trkpt>
      <trkpt lat="49.44161" lon="0.27278">
        <ele>15.9</ele>
        <time>2020-06-17T15:56:22Z</time>
      </trkpt>
      <trkpt lat="49.44164" lon="0.27277">
        <ele>15.8</ele>
        <time>2020-06-17T15:56:23Z</time>
      </trkpt>
      <trkpt lat="49.44165" lon="0.27277">
        <ele>15.7</ele>
        <time>2020-06-17T15:56:24Z</time>
      </trkpt>
      <trkpt lat="49.44167" lon="0.27276">
        <ele>15.6</ele>
        <time>2020-06-17T15:56:25Z</time>
      </trkpt>
      <trkpt lat="49.44168" lon="0.27276">
        <ele>15.5</ele>
        <time>2020-06-17T15:56:26Z</time>
      </trkpt>
      <trkpt lat="49.4417" lon="0.27275">
        <ele>15.4</ele>
        <time>2020-06-17T15:56:27Z</time>
      </trkpt>
      <trkpt lat="49.44171" lon="0.27275">
        <ele>15.3</ele>
        <time>2020-06-17T15:56:28Z</time>
      </trkpt>
      <trkpt lat="49.44172" lon="0.27275">
        <ele>15.2</ele>
        <time>2020-06-17T15:56:29Z</time>
      </trkpt>
      <trkpt lat="49.44175" lon="0.27277">
        <ele>15</ele>
        <time>2020-06-17T15:56:30Z</time>
      </trkpt>
      <trkpt lat="49.44176" lon="0.27277">
        <ele>15</ele>
        <time>2020-06-17T15:56:31Z</time>
      </trkpt>
      <trkpt lat="49.44177" lon="0.27277">
        <ele>14.9</ele>
        <time>2020-06-17T15:56:32Z</time>
      </trkpt>
      <trkpt lat="49.44179" lon="0.27277">
        <ele>14.8</ele>
        <time>2020-06-17T15:56:33Z</time>
      </trkpt>
      <trkpt lat="49.4418" lon="0.27277">
        <ele>14.8</ele>
        <time>2020-06-17T15:56:34Z</time>
      </trkpt>
      <trkpt lat="49.44183" lon="0.27276">
        <ele>14.6</ele>
        <time>2020-06-17T15:56:35Z</time>
      </trkpt>
      <trkpt lat="49.44184" lon="0.27277">
        <ele>14.5</ele>
        <time>2020-06-17T15:56:36Z</time>
      </trkpt>
      <trkpt lat="49.44185" lon="0.27277">
        <ele>14.5</ele>
        <time>2020-06-17T15:56:37Z</time>
      </trkpt>
      <trkpt lat="49.44186" lon="0.27276">
        <ele>14.4</ele>
        <time>2020-06-17T15:56:38Z</time>
      </trkpt>
      <trkpt lat="49.44188" lon="0.27276">
        <ele>14.3</ele>
        <time>2020-06-17T15:56:39Z</time>
      </trkpt>
      <trkpt lat="49.4419" lon="0.27276">
        <ele>14.2</ele>
        <time>2020-06-17T15:56:40Z</time>
      </trkpt>
      <trkpt lat="49.44191" lon="0.27275">
        <ele>14.1</ele>
        <time>2020-06-17T15:56:41Z</time>
      </trkpt>
      <trkpt lat="49.44193" lon="0.27275">
        <ele>13.9</ele>
        <time>2020-06-17T15:56:42Z</time>
      </trkpt>
      <trkpt lat="49.44195" lon="0.27275">
        <ele>13.8</ele>
        <time>2020-06-17T15:56:43Z</time>
      </trkpt>
      <trkpt lat="49.44196" lon="0.27275">
        <ele>13.7</ele>
        <time>2020-06-17T15:56:44Z</time>
      </trkpt>
      <trkpt lat="49.44197" lon="0.27275">
        <ele>13.7</ele>
        <time>2020-06-17T15:56:45Z</time>
      </trkpt>
      <trkpt lat="49.44199" lon="0.27274">
        <ele>13.6</ele>
        <time>2020-06-17T15:56:46Z</time>
      </trkpt>
      <trkpt lat="49.44201" lon="0.27274">
        <ele>13.4</ele>
        <time>2020-06-17T15:56:47Z</time>
      </trkpt>
      <trkpt lat="49.44202" lon="0.27273">
        <ele>13.3</ele>
        <time>2020-06-17T15:56:48Z</time>
      </trkpt>
      <trkpt lat="49.44204" lon="0.27273">
        <ele>13.2</ele>
        <time>2020-06-17T15:56:49Z</time>
      </trkpt>
      <trkpt lat="49.44205" lon="0.27274">
        <ele>13.1</ele>
        <time>2020-06-17T15:56:50Z</time>
      </trkpt>
      <trkpt lat="49.44207" lon="0.27274">
        <ele>13</ele>
        <time>2020-06-17T15:56:51Z</time>
      </trkpt>
      <trkpt lat="49.44208" lon="0.27274">
        <ele>13</ele>
        <time>2020-06-17T15:56:52Z</time>
      </trkpt>
      <trkpt lat="49.44209" lon="0.27274">
        <ele>12.9</ele>
        <time>2020-06-17T15:56:53Z</time>
      </trkpt>
      <trkpt lat="49.4421" lon="0.27274">
        <ele>12.8</ele>
        <time>2020-06-17T15:56:54Z</time>
      </trkpt>
      <trkpt lat="49.44212" lon="0.27273">
        <ele>12.7</ele>
        <time>2020-06-17T15:56:55Z</time>
      </trkpt>
      <trkpt lat="49.44213" lon="0.27273">
        <ele>12.6</ele>
        <time>2020-06-17T15:56:56Z</time>
      </trkpt>
      <trkpt lat="49.44214" lon="0.27273">
        <ele>12.6</ele>
        <time>2020-06-17T15:56:57Z</time>
      </trkpt>
      <trkpt lat="49.44215" lon="0.27274">
        <ele>12.5</ele>
        <time>2020-06-17T15:56:58Z</time>
      </trkpt>
      <trkpt lat="49.44217" lon="0.27273">
        <ele>12.4</ele>
        <time>2020-06-17T15:56:59Z</time>
      </trkpt>
      <trkpt lat="49.44218" lon="0.27273">
        <ele>12.3</ele>
        <time>2020-06-17T15:57:00Z</time>
      </trkpt>
      <trkpt lat="49.44219" lon="0.27273">
        <ele>12.2</ele>
        <time>2020-06-17T15:57:01Z</time>
      </trkpt>
      <trkpt lat="49.44221" lon="0.27272">
        <ele>12.1</ele>
        <time>2020-06-17T15:57:02Z</time>
      </trkpt>
      <trkpt lat="49.44222" lon="0.27271">
        <ele>12</ele>
        <time>2020-06-17T15:57:03Z</time>
      </trkpt>
      <trkpt lat="49.44224" lon="0.27271">
        <ele>12</ele>
        <time>2020-06-17T15:57:04Z</time>
      </trkpt>
      <trkpt lat="49.44225" lon="0.2727">
        <ele>11.9</ele>
        <time>2020-06-17T15:57:05Z</time>
      </trkpt>
      <trkpt lat="49.44227" lon="0.2727">
        <ele>11.8</ele>
        <time>2020-06-17T15:57:06Z</time>
      </trkpt>
      <trkpt lat="49.44228" lon="0.2727">
        <ele>11.7</ele>
        <time>2020-06-17T15:57:07Z</time>
      </trkpt>
      <trkpt lat="49.4423" lon="0.27271">
        <ele>11.6</ele>
        <time>2020-06-17T15:57:08Z</time>
      </trkpt>
      <trkpt lat="49.44233" lon="0.27271">
        <ele>11.4</ele>
        <time>2020-06-17T15:57:09Z</time>
      </trkpt>
      <trkpt lat="49.44233" lon="0.2727">
        <ele>11.3</ele>
        <time>2020-06-17T15:57:10Z</time>
      </trkpt>
      <trkpt lat="49.44235" lon="0.27269">
        <ele>11.2</ele>
        <time>2020-06-17T15:57:11Z</time>
      </trkpt>
      <trkpt lat="49.44236" lon="0.27269">
        <ele>11.2</ele>
        <time>2020-06-17T15:57:12Z</time>
      </trkpt>
      <trkpt lat="49.44238" lon="0.27269">
        <ele>11.1</ele>
        <time>2020-06-17T15:57:13Z</time>
      </trkpt>
      <trkpt lat="49.44239" lon="0.27269">
        <ele>11</ele>
        <time>2020-06-17T15:57:14Z</time>
      </trkpt>
      <trkpt lat="49.44241" lon="0.27268">
        <ele>10.9</ele>
        <time>2020-06-17T15:57:15Z</time>
      </trkpt>
      <trkpt lat="49.44243" lon="0.27268">
        <ele>10.8</ele>
        <time>2020-06-17T15:57:16Z</time>
      </trkpt>
      <trkpt lat="49.44244" lon="0.27268">
        <ele>10.7</ele>
        <time>2020-06-17T15:57:17Z</time>
      </trkpt>
      <trkpt lat="49.44246" lon="0.27268">
        <ele>10.6</ele>
        <time>2020-06-17T15:57:18Z</time>
      </trkpt>
      <trkpt lat="49.44247" lon="0.27268">
        <ele>10.5</ele>
        <time>2020-06-17T15:57:19Z</time>
      </trkpt>
      <trkpt lat="49.44248" lon="0.27269">
        <ele>10.5</ele>
        <time>2020-06-17T15:57:20Z</time>
      </trkpt>
      <trkpt lat="49.44249" lon="0.27269">
        <ele>10.4</ele>
        <time>2020-06-17T15:57:21Z</time>
      </trkpt>
      <trkpt lat="49.44251" lon="0.2727">
        <ele>10.3</ele>
        <time>2020-06-17T15:57:22Z</time>
      </trkpt>
      <trkpt lat="49.44253" lon="0.2727">
        <ele>10.2</ele>
        <time>2020-06-17T15:57:23Z</time>
      </trkpt>
      <trkpt lat="49.44254" lon="0.2727">
        <ele>10.2</ele>
        <time>2020-06-17T15:57:24Z</time>
      </trkpt>
      <trkpt lat="49.44255" lon="0.27271">
        <ele>10.1</ele>
        <time>2020-06-17T15:57:25Z</time>
      </trkpt>
      <trkpt lat="49.44256" lon="0.27271">
        <ele>10.1</ele>
        <time>2020-06-17T15:57:26Z</time>
      </trkpt>
      <trkpt lat="49.44257" lon="0.27271">
        <ele>10</ele>
        <time>2020-06-17T15:57:27Z</time>
      </trkpt>
      <trkpt lat="49.44259" lon="0.2727">
        <ele>9.9</ele>
        <time>2020-06-17T15:57:28Z</time>
      </trkpt>
      <trkpt lat="49.4426" lon="0.2727">
        <ele>9.8</ele>
        <time>2020-06-17T15:57:29Z</time>
      </trkpt>
      <trkpt lat="49.44262" lon="0.27269">
        <ele>9.7</ele>
        <time>2020-06-17T15:57:30Z</time>
      </trkpt>
      <trkpt lat="49.44262" lon="0.2727">
        <ele>9.7</ele>
        <time>2020-06-17T15:57:31Z</time>
      </trkpt>
      <trkpt lat="49.44264" lon="0.2727">
        <ele>9.6</ele>
        <time>2020-06-17T15:57:32Z</time>
      </trkpt>
      <trkpt lat="49.44265" lon="0.27269">
        <ele>9.5</ele>
        <time>2020-06-17T15:57:33Z</time>
      </trkpt>
      <trkpt lat="49.44266" lon="0.2727">
        <ele>9.5</ele>
        <time>2020-06-17T15:57:34Z</time>
      </trkpt>
      <trkpt lat="49.44266" lon="0.2727">
        <ele>9.5</ele>
        <time>2020-06-17T15:57:35Z</time>
      </trkpt>
      <trkpt lat="49.44268" lon="0.2727">
        <ele>9.4</ele>
        <time>2020-06-17T15:57:36Z</time>
      </trkpt>
      <trkpt lat="49.44269" lon="0.2727">
        <ele>9.3</ele>
        <time>2020-06-17T15:57:37Z</time>
      </trkpt>
      <trkpt lat="49.4427" lon="0.27271">
        <ele>9.3</ele>
        <time>2020-06-17T15:57:38Z</time>
      </trkpt>
      <trkpt lat="49.44271" lon="0.2727">
        <ele>9.2</ele>
        <time>2020-06-17T15:57:39Z</time>
      </trkpt>
      <trkpt lat="49.44272" lon="0.2727">
        <ele>9.1</ele>
        <time>2020-06-17T15:57:40Z</time>
      </trkpt>
      <trkpt lat="49.44273" lon="0.2727">
        <ele>9.1</ele>
        <time>2020-06-17T15:57:41Z</time>
      </trkpt>
      <trkpt lat="49.44274" lon="0.2727">
        <ele>9</ele>
        <time>2020-06-17T15:57:42Z</time>
      </trkpt>
      <trkpt lat="49.44275" lon="0.2727">
        <ele>9</ele>
        <time>2020-06-17T15:57:43Z</time>
      </trkpt>
      <trkpt lat="49.44275" lon="0.2727">
        <ele>9</ele>
        <time>2020-06-17T15:57:44Z</time>
      </trkpt>
      <trkpt lat="49.44275" lon="0.2727">
        <ele>9</ele>
        <time>2020-06-17T15:57:45Z</time>
      </trkpt>
      <trkpt lat="49.44275" lon="0.2727">
        <ele>9</ele>
        <time>2020-06-17T15:57:46Z</time>
      </trkpt>
      <trkpt lat="49.44275" lon="0.2727">
        <ele>9</ele>
        <time>2020-06-17T15:57:47Z</time>
      </trkpt>
      <trkpt lat="49.44275" lon="0.2727">
        <ele>9</ele>
        <time>2020-06-17T15:57:48Z</time>
      </trkpt>
      <trkpt lat="49.44275" lon="0.2727">
        <ele>9</ele>
        <time>2020-06-17T15:57:49Z</time>
      </trkpt>
      <trkpt lat="49.44275" lon="0.2727">
        <ele>9</ele>
        <time>2020-06-17T15:57:50Z</time>
      </trkpt>
      <trkpt lat="49.44275" lon="0.2727">
        <ele>8.9</ele>
        <time>2020-06-17T15:57:51Z</time>
      </trkpt>
      <trkpt lat="49.44275" lon="0.2727">
        <ele>8.9</ele>
        <time>2020-06-17T15:57:52Z</time>
      </trkpt>
      <trkpt lat="49.44275" lon="0.2727">
        <ele>8.9</ele>
        <time>2020-06-17T15:57:53Z</time>
      </trkpt>
      <trkpt lat="49.44282" lon="0.2727">
        <ele>8</ele>
        <time>2020-06-17T15:58:00Z</time>
      </trkpt>
      <trkpt lat="49.44286" lon="0.27271">
        <ele>7.8</ele>
        <time>2020-06-17T15:58:01Z</time>
      </trkpt>
      <trkpt lat="49.4429" lon="0.2727">
        <ele>7.5</ele>
        <time>2020-06-17T15:58:02Z</time>
      </trkpt>
      <trkpt lat="49.44294" lon="0.27269">
        <ele>7.3</ele>
        <time>2020-06-17T15:58:03Z</time>
      </trkpt>
      <trkpt lat="49.44298" lon="0.27268">
        <ele>7.1</ele>
        <time>2020-06-17T15:58:04Z</time>
      </trkpt>
      <trkpt lat="49.44302" lon="0.27267">
        <ele>6.9</ele>
        <time>2020-06-17T15:58:05Z</time>
      </trkpt>
      <trkpt lat="49.44305" lon="0.27266">
        <ele>6.8</ele>
        <time>2020-06-17T15:58:06Z</time>
      </trkpt>
      <trkpt lat="49.44308" lon="0.27267">
        <ele>6.7</ele>
        <time>2020-06-17T15:58:07Z</time>
      </trkpt>
      <trkpt lat="49.44311" lon="0.27268">
        <ele>6.6</ele>
        <time>2020-06-17T15:58:08Z</time>
      </trkpt>
      <trkpt lat="49.44314" lon="0.27269">
        <ele>6.5</ele>
        <time>2020-06-17T15:58:09Z</time>
      </trkpt>
      <trkpt lat="49.44317" lon="0.2727">
        <ele>6.4</ele>
        <time>2020-06-17T15:58:10Z</time>
      </trkpt>
      <trkpt lat="49.4432" lon="0.27271">
        <ele>6.3</ele>
        <time>2020-06-17T15:58:11Z</time>
      </trkpt>
      <trkpt lat="49.44321" lon="0.27271">
        <ele>6.3</ele>
        <time>2020-06-17T15:58:12Z</time>
      </trkpt>
      <trkpt lat="49.44326" lon="0.27272">
        <ele>6.3</ele>
        <time>2020-06-17T15:58:13Z</time>
      </trkpt>
      <trkpt lat="49.44327" lon="0.27272">
        <ele>6.3</ele>
        <time>2020-06-17T15:58:14Z</time>
      </trkpt>
      <trkpt lat="49.4433" lon="0.27272">
        <ele>6.3</ele>
        <time>2020-06-17T15:58:15Z</time>
      </trkpt>
      <trkpt lat="49.44333" lon="0.27271">
        <ele>6.2</ele>
        <time>2020-06-17T15:58:16Z</time>
      </trkpt>
      <trkpt lat="49.44337" lon="0.27273">
        <ele>6.2</ele>
        <time>2020-06-17T15:58:17Z</time>
      </trkpt>
      <trkpt lat="49.4434" lon="0.27272">
        <ele>6.2</ele>
        <time>2020-06-17T15:58:18Z</time>
      </trkpt>
      <trkpt lat="49.44344" lon="0.27272">
        <ele>6.2</ele>
        <time>2020-06-17T15:58:19Z</time>
      </trkpt>
      <trkpt lat="49.44345" lon="0.27272">
        <ele>6.2</ele>
        <time>2020-06-17T15:58:20Z</time>
      </trkpt>
      <trkpt lat="49.44349" lon="0.27272">
        <ele>6.2</ele>
        <time>2020-06-17T15:58:21Z</time>
      </trkpt>
      <trkpt lat="49.4435" lon="0.27272">
        <ele>6.2</ele>
        <time>2020-06-17T15:58:22Z</time>
      </trkpt>
      <trkpt lat="49.44354" lon="0.27272">
        <ele>6.3</ele>
        <time>2020-06-17T15:58:23Z</time>
      </trkpt>
      <trkpt lat="49.44355" lon="0.27272">
        <ele>6.3</ele>
        <time>2020-06-17T15:58:24Z</time>
      </trkpt>
      <trkpt lat="49.44356" lon="0.27271">
        <ele>6.3</ele>
        <time>2020-06-17T15:58:25Z</time>
      </trkpt>
      <trkpt lat="49.44357" lon="0.27271">
        <ele>6.3</ele>
        <time>2020-06-17T15:58:26Z</time>
      </trkpt>
      <trkpt lat="49.44358" lon="0.27271">
        <ele>6.3</ele>
        <time>2020-06-17T15:58:27Z</time>
      </trkpt>
      <trkpt lat="49.44358" lon="0.2727">
        <ele>6.3</ele>
        <time>2020-06-17T15:58:28Z</time>
      </trkpt>
      <trkpt lat="49.44358" lon="0.2727">
        <ele>6.3</ele>
        <time>2020-06-17T15:58:29Z</time>
      </trkpt>
      <trkpt lat="49.44358" lon="0.27271">
        <ele>6.3</ele>
        <time>2020-06-17T15:58:30Z</time>
      </trkpt>
      <trkpt lat="49.44358" lon="0.27272">
        <ele>6.3</ele>
        <time>2020-06-17T15:58:31Z</time>
      </trkpt>
      <trkpt lat="49.44357" lon="0.27271">
        <ele>6.3</ele>
        <time>2020-06-17T15:58:32Z</time>
      </trkpt>
      <trkpt lat="49.44357" lon="0.27271">
        <ele>6.3</ele>
        <time>2020-06-17T15:58:33Z</time>
      </trkpt>
      <trkpt lat="49.44358" lon="0.27271">
        <ele>6.3</ele>
        <time>2020-06-17T15:58:34Z</time>
      </trkpt>
      <trkpt lat="49.44358" lon="0.27271">
        <ele>6.3</ele>
        <time>2020-06-17T15:58:35Z</time>
      </trkpt>
      <trkpt lat="49.44358" lon="0.27271">
        <ele>6.3</ele>
        <time>2020-06-17T15:58:36Z</time>
      </trkpt>
      <trkpt lat="49.44358" lon="0.27271">
        <ele>6.3</ele>
        <time>2020-06-17T15:58:37Z</time>
      </trkpt>
      <trkpt lat="49.44361" lon="0.27264">
        <ele>6.3</ele>
        <time>2020-06-17T16:02:52Z</time>
      </trkpt>
      <trkpt lat="49.44363" lon="0.27263">
        <ele>6.3</ele>
        <time>2020-06-17T16:02:53Z</time>
      </trkpt>
      <trkpt lat="49.44367" lon="0.27263">
        <ele>6.3</ele>
        <time>2020-06-17T16:02:54Z</time>
      </trkpt>
      <trkpt lat="49.44369" lon="0.27263">
        <ele>6.3</ele>
        <time>2020-06-17T16:02:55Z</time>
      </trkpt>
      <trkpt lat="49.44372" lon="0.27263">
        <ele>6.3</ele>
        <time>2020-06-17T16:02:56Z</time>
      </trkpt>
      <trkpt lat="49.44376" lon="0.27263">
        <ele>6.3</ele>
        <time>2020-06-17T16:02:57Z</time>
      </trkpt>
      <trkpt lat="49.44379" lon="0.27263">
        <ele>6.3</ele>
        <time>2020-06-17T16:02:58Z</time>
      </trkpt>
      <trkpt lat="49.44383" lon="0.27263">
        <ele>6.3</ele>
        <time>2020-06-17T16:02:59Z</time>
      </trkpt>
      <trkpt lat="49.44386" lon="0.27262">
        <ele>6.3</ele>
        <time>2020-06-17T16:03:00Z</time>
      </trkpt>
      <trkpt lat="49.4439" lon="0.27261">
        <ele>6.3</ele>
        <time>2020-06-17T16:03:01Z</time>
      </trkpt>
      <trkpt lat="49.44394" lon="0.2726">
        <ele>6.3</ele>
        <time>2020-06-17T16:03:02Z</time>
      </trkpt>
      <trkpt lat="49.44398" lon="0.27259">
        <ele>6.3</ele>
        <time>2020-06-17T16:03:03Z</time>
      </trkpt>
      <trkpt lat="49.44402" lon="0.27258">
        <ele>6.4</ele>
        <time>2020-06-17T16:03:04Z</time>
      </trkpt>
      <trkpt lat="49.44405" lon="0.27257">
        <ele>6.4</ele>
        <time>2020-06-17T16:03:05Z</time>
      </trkpt>
      <trkpt lat="49.44409" lon="0.27256">
        <ele>6.4</ele>
        <time>2020-06-17T16:03:06Z</time>
      </trkpt>
      <trkpt lat="49.44414" lon="0.27254">
        <ele>6.4</ele>
        <time>2020-06-17T16:03:07Z</time>
      </trkpt>
      <trkpt lat="49.44418" lon="0.27253">
        <ele>6.4</ele>
        <time>2020-06-17T16:03:08Z</time>
      </trkpt>
      <trkpt lat="49.44422" lon="0.27252">
        <ele>6.4</ele>
        <time>2020-06-17T16:03:09Z</time>
      </trkpt>
      <trkpt lat="49.44426" lon="0.27251">
        <ele>6.4</ele>
        <time>2020-06-17T16:03:10Z</time>
      </trkpt>
      <trkpt lat="49.4443" lon="0.2725">
        <ele>6.4</ele>
        <time>2020-06-17T16:03:11Z</time>
      </trkpt>
      <trkpt lat="49.44434" lon="0.27248">
        <ele>6.5</ele>
        <time>2020-06-17T16:03:12Z</time>
      </trkpt>
      <trkpt lat="49.44438" lon="0.27248">
        <ele>6.5</ele>
        <time>2020-06-17T16:03:13Z</time>
      </trkpt>
      <trkpt lat="49.44441" lon="0.27247">
        <ele>6.5</ele>
        <time>2020-06-17T16:03:14Z</time>
      </trkpt>
      <trkpt lat="49.44445" lon="0.27247">
        <ele>6.5</ele>
        <time>2020-06-17T16:03:15Z</time>
      </trkpt>
      <trkpt lat="49.44449" lon="0.27246">
        <ele>6.5</ele>
        <time>2020-06-17T16:03:16Z</time>
      </trkpt>
      <trkpt lat="49.44453" lon="0.27246">
        <ele>6.5</ele>
        <time>2020-06-17T16:03:17Z</time>
      </trkpt>
      <trkpt lat="49.44456" lon="0.27246">
        <ele>6.4</ele>
        <time>2020-06-17T16:03:18Z</time>
      </trkpt>
      <trkpt lat="49.4446" lon="0.27246">
        <ele>6.4</ele>
        <time>2020-06-17T16:03:19Z</time>
      </trkpt>
      <trkpt lat="49.44464" lon="0.27246">
        <ele>6.4</ele>
        <time>2020-06-17T16:03:20Z</time>
      </trkpt>
      <trkpt lat="49.44468" lon="0.27245">
        <ele>6.4</ele>
        <time>2020-06-17T16:03:21Z</time>
      </trkpt>
      <trkpt lat="49.44473" lon="0.27244">
        <ele>6.4</ele>
        <time>2020-06-17T16:03:22Z</time>
      </trkpt>
      <trkpt lat="49.44477" lon="0.27244">
        <ele>6.4</ele>
        <time>2020-06-17T16:03:23Z</time>
      </trkpt>
      <trkpt lat="49.4448" lon="0.27244">
        <ele>6.4</ele>
        <time>2020-06-17T16:03:24Z</time>
      </trkpt>
      <trkpt lat="49.44484" lon="0.27244">
        <ele>6.4</ele>
        <time>2020-06-17T16:03:25Z</time>
      </trkpt>
      <trkpt lat="49.44487" lon="0.27244">
        <ele>6.3</ele>
        <time>2020-06-17T16:03:26Z</time>
      </trkpt>
      <trkpt lat="49.44492" lon="0.27244">
        <ele>6.3</ele>
        <time>2020-06-17T16:03:27Z</time>
      </trkpt>
      <trkpt lat="49.44496" lon="0.27243">
        <ele>6.3</ele>
        <time>2020-06-17T16:03:28Z</time>
      </trkpt>
      <trkpt lat="49.44501" lon="0.27243">
        <ele>6.3</ele>
        <time>2020-06-17T16:03:29Z</time>
      </trkpt>
      <trkpt lat="49.44505" lon="0.27243">
        <ele>6.3</ele>
        <time>2020-06-17T16:03:30Z</time>
      </trkpt>
      <trkpt lat="49.4451" lon="0.27243">
        <ele>6.3</ele>
        <time>2020-06-17T16:03:31Z</time>
      </trkpt>
      <trkpt lat="49.44515" lon="0.2724">
        <ele>6.2</ele>
        <time>2020-06-17T16:03:32Z</time>
      </trkpt>
      <trkpt lat="49.4452" lon="0.2724">
        <ele>6.2</ele>
        <time>2020-06-17T16:03:33Z</time>
      </trkpt>
      <trkpt lat="49.44524" lon="0.27241">
        <ele>6.1</ele>
        <time>2020-06-17T16:03:34Z</time>
      </trkpt>
      <trkpt lat="49.44528" lon="0.2724">
        <ele>6.1</ele>
        <time>2020-06-17T16:03:35Z</time>
      </trkpt>
      <trkpt lat="49.44532" lon="0.2724">
        <ele>6.1</ele>
        <time>2020-06-17T16:03:36Z</time>
      </trkpt>
      <trkpt lat="49.44535" lon="0.2724">
        <ele>6</ele>
        <time>2020-06-17T16:03:37Z</time>
      </trkpt>
      <trkpt lat="49.44538" lon="0.27239">
        <ele>6</ele>
        <time>2020-06-17T16:03:38Z</time>
      </trkpt>
      <trkpt lat="49.44541" lon="0.27239">
        <ele>6</ele>
        <time>2020-06-17T16:03:39Z</time>
      </trkpt>
      <trkpt lat="49.44544" lon="0.27238">
        <ele>6</ele>
        <time>2020-06-17T16:03:40Z</time>
      </trkpt>
      <trkpt lat="49.44548" lon="0.27238">
        <ele>6</ele>
        <time>2020-06-17T16:03:41Z</time>
      </trkpt>
      <trkpt lat="49.44549" lon="0.27237">
        <ele>6</ele>
        <time>2020-06-17T16:03:42Z</time>
      </trkpt>
      <trkpt lat="49.44552" lon="0.27237">
        <ele>6</ele>
        <time>2020-06-17T16:03:43Z</time>
      </trkpt>
      <trkpt lat="49.44555" lon="0.27236">
        <ele>6</ele>
        <time>2020-06-17T16:03:44Z</time>
      </trkpt>
      <trkpt lat="49.44559" lon="0.27237">
        <ele>6</ele>
        <time>2020-06-17T16:03:45Z</time>
      </trkpt>
      <trkpt lat="49.44561" lon="0.27237">
        <ele>6.1</ele>
        <time>2020-06-17T16:03:46Z</time>
      </trkpt>
      <trkpt lat="49.44563" lon="0.27236">
        <ele>6.1</ele>
        <time>2020-06-17T16:03:47Z</time>
      </trkpt>
      <trkpt lat="49.44567" lon="0.27237">
        <ele>6.1</ele>
        <time>2020-06-17T16:03:48Z</time>
      </trkpt>
      <trkpt lat="49.44567" lon="0.27236">
        <ele>6.1</ele>
        <time>2020-06-17T16:03:49Z</time>
      </trkpt>
      <trkpt lat="49.4457" lon="0.27237">
        <ele>6.1</ele>
        <time>2020-06-17T16:03:50Z</time>
      </trkpt>
      <trkpt lat="49.44571" lon="0.27237">
        <ele>6.1</ele>
        <time>2020-06-17T16:03:51Z</time>
      </trkpt>
      <trkpt lat="49.44574" lon="0.27237">
        <ele>6.1</ele>
        <time>2020-06-17T16:03:52Z</time>
      </trkpt>
      <trkpt lat="49.44574" lon="0.27237">
        <ele>6.1</ele>
        <time>2020-06-17T16:03:53Z</time>
      </trkpt>
      <trkpt lat="49.44575" lon="0.27237">
        <ele>6.1</ele>
        <time>2020-06-17T16:03:54Z</time>
      </trkpt>
      <trkpt lat="49.44575" lon="0.27237">
        <ele>6.1</ele>
        <time>2020-06-17T16:03:55Z</time>
      </trkpt>
      <trkpt lat="49.44576" lon="0.27237">
        <ele>6.1</ele>
        <time>2020-06-17T16:03:56Z</time>
      </trkpt>
      <trkpt lat="49.44577" lon="0.27236">
        <ele>6.1</ele>
        <time>2020-06-17T16:03:57Z</time>
      </trkpt>
      <trkpt lat="49.44577" lon="0.27236">
        <ele>6.1</ele>
        <time>2020-06-17T16:03:58Z</time>
      </trkpt>
      <trkpt lat="49.44578" lon="0.27236">
        <ele>6.1</ele>
        <time>2020-06-17T16:03:59Z</time>
      </trkpt>
      <trkpt lat="49.44578" lon="0.27236">
        <ele>6.1</ele>
        <time>2020-06-17T16:04:00Z</time>
      </trkpt>
      <trkpt lat="49.44579" lon="0.27236">
        <ele>6.1</ele>
        <time>2020-06-17T16:04:01Z</time>
      </trkpt>
      <trkpt lat="49.4458" lon="0.27236">
        <ele>6.1</ele>
        <time>2020-06-17T16:04:02Z</time>
      </trkpt>
      <trkpt lat="49.4458" lon="0.27236">
        <ele>6.1</ele>
        <time>2020-06-17T16:04:03Z</time>
      </trkpt>
      <trkpt lat="49.44581" lon="0.27236">
        <ele>6.1</ele>
        <time>2020-06-17T16:04:04Z</time>
      </trkpt>
      <trkpt lat="49.44582" lon="0.27236">
        <ele>6.1</ele>
        <time>2020-06-17T16:09:08Z</time>
      </trkpt>
      <trkpt lat="49.44582" lon="0.27236">
        <ele>6.1</ele>
        <time>2020-06-17T16:09:09Z</time>
      </trkpt>
      <trkpt lat="49.44585" lon="0.27235">
        <ele>6.1</ele>
        <time>2020-06-17T16:09:10Z</time>
      </trkpt>
      <trkpt lat="49.4459" lon="0.27234">
        <ele>6.1</ele>
        <time>2020-06-17T16:09:11Z</time>
      </trkpt>
      <trkpt lat="49.44594" lon="0.27234">
        <ele>6.1</ele>
        <time>2020-06-17T16:09:12Z</time>
      </trkpt>
      <trkpt lat="49.44599" lon="0.27233">
        <ele>6.1</ele>
        <time>2020-06-17T16:09:13Z</time>
      </trkpt>
      <trkpt lat="49.44603" lon="0.27232">
        <ele>6.1</ele>
        <time>2020-06-17T16:09:14Z</time>
      </trkpt>
      <trkpt lat="49.44607" lon="0.2723">
        <ele>6.1</ele>
        <time>2020-06-17T16:09:15Z</time>
      </trkpt>
      <trkpt lat="49.44611" lon="0.2723">
        <ele>6.1</ele>
        <time>2020-06-17T16:09:16Z</time>
      </trkpt>
      <trkpt lat="49.44615" lon="0.2723">
        <ele>6.1</ele>
        <time>2020-06-17T16:09:17Z</time>
      </trkpt>
      <trkpt lat="49.44619" lon="0.27228">
        <ele>6.1</ele>
        <time>2020-06-17T16:09:18Z</time>
      </trkpt>
      <trkpt lat="49.44623" lon="0.27228">
        <ele>6</ele>
        <time>2020-06-17T16:09:19Z</time>
      </trkpt>
      <trkpt lat="49.44627" lon="0.27227">
        <ele>6</ele>
        <time>2020-06-17T16:09:20Z</time>
      </trkpt>
      <trkpt lat="49.44631" lon="0.27228">
        <ele>5.9</ele>
        <time>2020-06-17T16:09:21Z</time>
      </trkpt>
      <trkpt lat="49.44635" lon="0.27227">
        <ele>5.9</ele>
        <time>2020-06-17T16:09:22Z</time>
      </trkpt>
      <trkpt lat="49.44638" lon="0.27227">
        <ele>5.9</ele>
        <time>2020-06-17T16:09:23Z</time>
      </trkpt>
      <trkpt lat="49.44642" lon="0.27226">
        <ele>5.8</ele>
        <time>2020-06-17T16:09:24Z</time>
      </trkpt>
      <trkpt lat="49.44646" lon="0.27225">
        <ele>5.8</ele>
        <time>2020-06-17T16:09:25Z</time>
      </trkpt>
      <trkpt lat="49.4465" lon="0.27224">
        <ele>5.8</ele>
        <time>2020-06-17T16:09:26Z</time>
      </trkpt>
      <trkpt lat="49.44654" lon="0.27223">
        <ele>5.8</ele>
        <time>2020-06-17T16:09:27Z</time>
      </trkpt>
      <trkpt lat="49.44659" lon="0.27223">
        <ele>5.8</ele>
        <time>2020-06-17T16:09:28Z</time>
      </trkpt>
      <trkpt lat="49.44664" lon="0.27222">
        <ele>5.8</ele>
        <time>2020-06-17T16:09:29Z</time>
      </trkpt>
      <trkpt lat="49.44669" lon="0.27222">
        <ele>5.8</ele>
        <time>2020-06-17T16:09:30Z</time>
      </trkpt>
      <trkpt lat="49.44674" lon="0.27222">
        <ele>5.9</ele>
        <time>2020-06-17T16:09:31Z</time>
      </trkpt>
      <trkpt lat="49.44677" lon="0.27221">
        <ele>5.9</ele>
        <time>2020-06-17T16:09:32Z</time>
      </trkpt>
      <trkpt lat="49.44682" lon="0.2722">
        <ele>6</ele>
        <time>2020-06-17T16:09:33Z</time>
      </trkpt>
      <trkpt lat="49.44686" lon="0.27219">
        <ele>6</ele>
        <time>2020-06-17T16:09:34Z</time>
      </trkpt>
      <trkpt lat="49.44691" lon="0.27218">
        <ele>6.1</ele>
        <time>2020-06-17T16:09:35Z</time>
      </trkpt>
      <trkpt lat="49.44696" lon="0.27216">
        <ele>6.1</ele>
        <time>2020-06-17T16:09:36Z</time>
      </trkpt>
      <trkpt lat="49.44701" lon="0.27216">
        <ele>6.2</ele>
        <time>2020-06-17T16:09:37Z</time>
      </trkpt>
      <trkpt lat="49.44705" lon="0.27216">
        <ele>6.2</ele>
        <time>2020-06-17T16:09:38Z</time>
      </trkpt>
      <trkpt lat="49.4471" lon="0.27216">
        <ele>6.2</ele>
        <time>2020-06-17T16:09:39Z</time>
      </trkpt>
      <trkpt lat="49.44715" lon="0.27215">
        <ele>6.3</ele>
        <time>2020-06-17T16:09:40Z</time>
      </trkpt>
      <trkpt lat="49.4472" lon="0.27215">
        <ele>6.3</ele>
        <time>2020-06-17T16:09:41Z</time>
      </trkpt>
      <trkpt lat="49.44724" lon="0.27215">
        <ele>6.3</ele>
        <time>2020-06-17T16:09:42Z</time>
      </trkpt>
      <trkpt lat="49.44729" lon="0.27214">
        <ele>6.4</ele>
        <time>2020-06-17T16:09:43Z</time>
      </trkpt>
      <trkpt lat="49.44734" lon="0.27215">
        <ele>6.4</ele>
        <time>2020-06-17T16:09:44Z</time>
      </trkpt>
      <trkpt lat="49.44739" lon="0.27215">
        <ele>6.4</ele>
        <time>2020-06-17T16:09:45Z</time>
      </trkpt>
      <trkpt lat="49.44744" lon="0.27215">
        <ele>6.4</ele>
        <time>2020-06-17T16:09:46Z</time>
      </trkpt>
      <trkpt lat="49.44749" lon="0.27215">
        <ele>6.5</ele>
        <time>2020-06-17T16:09:47Z</time>
      </trkpt>
      <trkpt lat="49.44754" lon="0.27214">
        <ele>6.6</ele>
        <time>2020-06-17T16:09:48Z</time>
      </trkpt>
      <trkpt lat="49.44759" lon="0.27212">
        <ele>6.7</ele>
        <time>2020-06-17T16:09:49Z</time>
      </trkpt>
      <trkpt lat="49.44763" lon="0.27213">
        <ele>6.7</ele>
        <time>2020-06-17T16:09:50Z</time>
      </trkpt>
      <trkpt lat="49.44767" lon="0.27213">
        <ele>6.8</ele>
        <time>2020-06-17T16:09:51Z</time>
      </trkpt>
      <trkpt lat="49.44771" lon="0.27213">
        <ele>6.9</ele>
        <time>2020-06-17T16:09:52Z</time>
      </trkpt>
      <trkpt lat="49.44775" lon="0.27213">
        <ele>7</ele>
        <time>2020-06-17T16:09:53Z</time>
      </trkpt>
      <trkpt lat="49.44779" lon="0.27211">
        <ele>7.1</ele>
        <time>2020-06-17T16:09:54Z</time>
      </trkpt>
      <trkpt lat="49.44783" lon="0.27211">
        <ele>7.2</ele>
        <time>2020-06-17T16:09:55Z</time>
      </trkpt>
      <trkpt lat="49.44788" lon="0.2721">
        <ele>7.3</ele>
        <time>2020-06-17T16:09:56Z</time>
      </trkpt>
      <trkpt lat="49.44792" lon="0.2721">
        <ele>7.4</ele>
        <time>2020-06-17T16:09:57Z</time>
      </trkpt>
      <trkpt lat="49.44796" lon="0.27209">
        <ele>7.4</ele>
        <time>2020-06-17T16:09:58Z</time>
      </trkpt>
      <trkpt lat="49.44801" lon="0.27209">
        <ele>7.5</ele>
        <time>2020-06-17T16:09:59Z</time>
      </trkpt>
      <trkpt lat="49.44805" lon="0.27208">
        <ele>7.5</ele>
        <time>2020-06-17T16:10:00Z</time>
      </trkpt>
      <trkpt lat="49.44809" lon="0.27209">
        <ele>7.5</ele>
        <time>2020-06-17T16:10:01Z</time>
      </trkpt>
      <trkpt lat="49.44814" lon="0.27209">
        <ele>7.5</ele>
        <time>2020-06-17T16:10:02Z</time>
      </trkpt>
      <trkpt lat="49.44818" lon="0.27209">
        <ele>7.5</ele>
        <time>2020-06-17T16:10:03Z</time>
      </trkpt>
      <trkpt lat="49.44822" lon="0.27208">
        <ele>7.5</ele>
        <time>2020-06-17T16:10:04Z</time>
      </trkpt>
      <trkpt lat="49.44826" lon="0.27207">
        <ele>7.5</ele>
        <time>2020-06-17T16:10:05Z</time>
      </trkpt>
      <trkpt lat="49.4483" lon="0.27207">
        <ele>7.5</ele>
        <time>2020-06-17T16:10:06Z</time>
      </trkpt>
      <trkpt lat="49.44835" lon="0.27207">
        <ele>7.6</ele>
        <time>2020-06-17T16:10:07Z</time>
      </trkpt>
      <trkpt lat="49.44839" lon="0.27207">
        <ele>7.6</ele>
        <time>2020-06-17T16:10:08Z</time>
      </trkpt>
      <trkpt lat="49.44843" lon="0.27207">
        <ele>7.6</ele>
        <time>2020-06-17T16:10:09Z</time>
      </trkpt>
      <trkpt lat="49.44848" lon="0.27207">
        <ele>7.6</ele>
        <time>2020-06-17T16:10:10Z</time>
      </trkpt>
      <trkpt lat="49.44852" lon="0.27207">
        <ele>7.6</ele>
        <time>2020-06-17T16:10:11Z</time>
      </trkpt>
      <trkpt lat="49.44856" lon="0.27208">
        <ele>7.6</ele>
        <time>2020-06-17T16:10:12Z</time>
      </trkpt>
      <trkpt lat="49.44861" lon="0.27209">
        <ele>7.5</ele>
        <time>2020-06-17T16:10:13Z</time>
      </trkpt>
      <trkpt lat="49.44866" lon="0.2721">
        <ele>7.6</ele>
        <time>2020-06-17T16:10:14Z</time>
      </trkpt>
      <trkpt lat="49.4487" lon="0.27211">
        <ele>7.6</ele>
        <time>2020-06-17T16:10:15Z</time>
      </trkpt>
      <trkpt lat="49.44875" lon="0.27211">
        <ele>7.6</ele>
        <time>2020-06-17T16:10:16Z</time>
      </trkpt>
      <trkpt lat="49.44879" lon="0.2721">
        <ele>7.6</ele>
        <time>2020-06-17T16:10:17Z</time>
      </trkpt>
      <trkpt lat="49.44883" lon="0.2721">
        <ele>7.6</ele>
        <time>2020-06-17T16:10:18Z</time>
      </trkpt>
      <trkpt lat="49.44888" lon="0.27211">
        <ele>7.7</ele>
        <time>2020-06-17T16:10:19Z</time>
      </trkpt>
      <trkpt lat="49.44892" lon="0.2721">
        <ele>7.7</ele>
        <time>2020-06-17T16:10:20Z</time>
      </trkpt>
      <trkpt lat="49.44897" lon="0.27211">
        <ele>7.7</ele>
        <time>2020-06-17T16:10:21Z</time>
      </trkpt>
      <trkpt lat="49.44901" lon="0.27211">
        <ele>7.7</ele>
        <time>2020-06-17T16:10:22Z</time>
      </trkpt>
      <trkpt lat="49.44905" lon="0.27211">
        <ele>7.7</ele>
        <time>2020-06-17T16:10:23Z</time>
      </trkpt>
      <trkpt lat="49.4491" lon="0.27212">
        <ele>7.7</ele>
        <time>2020-06-17T16:10:24Z</time>
      </trkpt>
      <trkpt lat="49.44915" lon="0.27212">
        <ele>7.7</ele>
        <time>2020-06-17T16:10:25Z</time>
      </trkpt>
      <trkpt lat="49.4492" lon="0.27212">
        <ele>7.7</ele>
        <time>2020-06-17T16:10:26Z</time>
      </trkpt>
      <trkpt lat="49.44924" lon="0.27212">
        <ele>7.7</ele>
        <time>2020-06-17T16:10:27Z</time>
      </trkpt>
      <trkpt lat="49.44927" lon="0.27212">
        <ele>7.7</ele>
        <time>2020-06-17T16:10:28Z</time>
      </trkpt>
      <trkpt lat="49.44931" lon="0.27211">
        <ele>7.8</ele>
        <time>2020-06-17T16:10:29Z</time>
      </trkpt>
      <trkpt lat="49.44935" lon="0.27213">
        <ele>7.8</ele>
        <time>2020-06-17T16:10:30Z</time>
      </trkpt>
      <trkpt lat="49.44939" lon="0.27213">
        <ele>7.8</ele>
        <time>2020-06-17T16:10:31Z</time>
      </trkpt>
      <trkpt lat="49.44944" lon="0.27213">
        <ele>7.8</ele>
        <time>2020-06-17T16:10:32Z</time>
      </trkpt>
      <trkpt lat="49.44948" lon="0.27214">
        <ele>7.8</ele>
        <time>2020-06-17T16:10:33Z</time>
      </trkpt>
      <trkpt lat="49.44952" lon="0.27214">
        <ele>7.8</ele>
        <time>2020-06-17T16:10:34Z</time>
      </trkpt>
      <trkpt lat="49.44956" lon="0.27213">
        <ele>7.9</ele>
        <time>2020-06-17T16:10:35Z</time>
      </trkpt>
      <trkpt lat="49.4496" lon="0.27212">
        <ele>7.9</ele>
        <time>2020-06-17T16:10:36Z</time>
      </trkpt>
      <trkpt lat="49.44964" lon="0.27212">
        <ele>8</ele>
        <time>2020-06-17T16:10:37Z</time>
      </trkpt>
      <trkpt lat="49.44968" lon="0.27212">
        <ele>8</ele>
        <time>2020-06-17T16:10:38Z</time>
      </trkpt>
      <trkpt lat="49.44972" lon="0.27213">
        <ele>8.1</ele>
        <time>2020-06-17T16:10:39Z</time>
      </trkpt>
      <trkpt lat="49.44976" lon="0.27213">
        <ele>8.1</ele>
        <time>2020-06-17T16:10:40Z</time>
      </trkpt>
      <trkpt lat="49.44979" lon="0.27213">
        <ele>8.2</ele>
        <time>2020-06-17T16:10:41Z</time>
      </trkpt>
      <trkpt lat="49.44982" lon="0.27213">
        <ele>8.2</ele>
        <time>2020-06-17T16:10:42Z</time>
      </trkpt>
      <trkpt lat="49.44986" lon="0.27213">
        <ele>8.3</ele>
        <time>2020-06-17T16:10:43Z</time>
      </trkpt>
      <trkpt lat="49.44988" lon="0.27213">
        <ele>8.4</ele>
        <time>2020-06-17T16:10:44Z</time>
      </trkpt>
      <trkpt lat="49.44991" lon="0.27213">
        <ele>8.5</ele>
        <time>2020-06-17T16:10:45Z</time>
      </trkpt>
      <trkpt lat="49.44992" lon="0.27212">
        <ele>8.6</ele>
        <time>2020-06-17T16:10:46Z</time>
      </trkpt>
      <trkpt lat="49.44993" lon="0.27212">
        <ele>8.7</ele>
        <time>2020-06-17T16:10:47Z</time>
      </trkpt>
      <trkpt lat="49.44995" lon="0.27211">
        <ele>8.8</ele>
        <time>2020-06-17T16:10:48Z</time>
      </trkpt>
      <trkpt lat="49.44996" lon="0.2721">
        <ele>8.9</ele>
        <time>2020-06-17T16:10:49Z</time>
      </trkpt>
      <trkpt lat="49.44998" lon="0.27212">
        <ele>9</ele>
        <time>2020-06-17T16:10:50Z</time>
      </trkpt>
      <trkpt lat="49.44999" lon="0.27212">
        <ele>9.1</ele>
        <time>2020-06-17T16:10:51Z</time>
      </trkpt>
      <trkpt lat="49.45001" lon="0.27212">
        <ele>9.2</ele>
        <time>2020-06-17T16:10:52Z</time>
      </trkpt>
      <trkpt lat="49.45002" lon="0.27212">
        <ele>9.2</ele>
        <time>2020-06-17T16:10:53Z</time>
      </trkpt>
      <trkpt lat="49.45002" lon="0.27211">
        <ele>9.3</ele>
        <time>2020-06-17T16:10:54Z</time>
      </trkpt>
      <trkpt lat="49.45002" lon="0.27211">
        <ele>9.3</ele>
        <time>2020-06-17T16:10:55Z</time>
      </trkpt>
      <trkpt lat="49.45002" lon="0.27211">
        <ele>9.3</ele>
        <time>2020-06-17T16:10:56Z</time>
      </trkpt>
      <trkpt lat="49.45002" lon="0.27211">
        <ele>9.3</ele>
        <time>2020-06-17T16:10:57Z</time>
      </trkpt>
      <trkpt lat="49.45002" lon="0.27211">
        <ele>9.3</ele>
        <time>2020-06-17T16:10:58Z</time>
      </trkpt>
      <trkpt lat="49.45002" lon="0.27211">
        <ele>9.3</ele>
        <time>2020-06-17T16:10:59Z</time>
      </trkpt>
      <trkpt lat="49.45002" lon="0.27211">
        <ele>9.3</ele>
        <time>2020-06-17T16:11:00Z</time>
      </trkpt>
      <trkpt lat="49.45002" lon="0.27211">
        <ele>9.3</ele>
        <time>2020-06-17T16:11:01Z</time>
      </trkpt>
      <trkpt lat="49.45002" lon="0.27211">
        <ele>9.3</ele>
        <time>2020-06-17T16:11:02Z</time>
      </trkpt>
      <trkpt lat="49.45002" lon="0.27211">
        <ele>9.3</ele>
        <time>2020-06-17T16:11:03Z</time>
      </trkpt>
      <trkpt lat="49.45011" lon="0.27208">
        <ele>8.8</ele>
        <time>2020-06-17T16:11:45Z</time>
      </trkpt>
      <trkpt lat="49.45012" lon="0.27207">
        <ele>8.7</ele>
        <time>2020-06-17T16:11:46Z</time>
      </trkpt>
      <trkpt lat="49.45012" lon="0.27207">
        <ele>8.7</ele>
        <time>2020-06-17T16:11:47Z</time>
      </trkpt>
      <trkpt lat="49.45012" lon="0.27207">
        <ele>8.7</ele>
        <time>2020-06-17T16:11:48Z</time>
      </trkpt>
      <trkpt lat="49.45012" lon="0.27207">
        <ele>8.7</ele>
        <time>2020-06-17T16:11:49Z</time>
      </trkpt>
      <trkpt lat="49.45012" lon="0.27206">
        <ele>8.7</ele>
        <time>2020-06-17T16:11:50Z</time>
      </trkpt>
      <trkpt lat="49.45012" lon="0.27208">
        <ele>8.6</ele>
        <time>2020-06-17T16:11:51Z</time>
      </trkpt>
      <trkpt lat="49.45013" lon="0.27208">
        <ele>8.6</ele>
        <time>2020-06-17T16:11:52Z</time>
      </trkpt>
      <trkpt lat="49.45013" lon="0.27208">
        <ele>8.6</ele>
        <time>2020-06-17T16:11:53Z</time>
      </trkpt>
      <trkpt lat="49.45014" lon="0.27208">
        <ele>8.6</ele>
        <time>2020-06-17T16:11:54Z</time>
      </trkpt>
      <trkpt lat="49.45015" lon="0.27208">
        <ele>8.5</ele>
        <time>2020-06-17T16:11:55Z</time>
      </trkpt>
      <trkpt lat="49.45015" lon="0.27208">
        <ele>8.5</ele>
        <time>2020-06-17T16:11:56Z</time>
      </trkpt>
      <trkpt lat="49.45016" lon="0.27211">
        <ele>8.5</ele>
        <time>2020-06-17T16:11:57Z</time>
      </trkpt>
      <trkpt lat="49.45016" lon="0.27213">
        <ele>8.4</ele>
        <time>2020-06-17T16:11:58Z</time>
      </trkpt>
      <trkpt lat="49.45017" lon="0.27214">
        <ele>8.3</ele>
        <time>2020-06-17T16:11:59Z</time>
      </trkpt>
      <trkpt lat="49.45017" lon="0.27216">
        <ele>8.3</ele>
        <time>2020-06-17T16:12:00Z</time>
      </trkpt>
      <trkpt lat="49.45017" lon="0.27217">
        <ele>8.3</ele>
        <time>2020-06-17T16:12:01Z</time>
      </trkpt>
      <trkpt lat="49.45017" lon="0.27218">
        <ele>8.3</ele>
        <time>2020-06-17T16:12:02Z</time>
      </trkpt>
      <trkpt lat="49.45018" lon="0.2722">
        <ele>8.2</ele>
        <time>2020-06-17T16:12:03Z</time>
      </trkpt>
      <trkpt lat="49.45019" lon="0.27222">
        <ele>8.1</ele>
        <time>2020-06-17T16:12:04Z</time>
      </trkpt>
      <trkpt lat="49.45019" lon="0.27223">
        <ele>8.1</ele>
        <time>2020-06-17T16:12:05Z</time>
      </trkpt>
      <trkpt lat="49.45019" lon="0.27225">
        <ele>8.1</ele>
        <time>2020-06-17T16:12:06Z</time>
      </trkpt>
      <trkpt lat="49.45019" lon="0.27225">
        <ele>8</ele>
        <time>2020-06-17T16:12:07Z</time>
      </trkpt>
      <trkpt lat="49.4502" lon="0.27226">
        <ele>8</ele>
        <time>2020-06-17T16:12:08Z</time>
      </trkpt>
      <trkpt lat="49.4502" lon="0.27225">
        <ele>7.9</ele>
        <time>2020-06-17T16:12:09Z</time>
      </trkpt>
      <trkpt lat="49.45021" lon="0.27226">
        <ele>7.9</ele>
        <time>2020-06-17T16:12:10Z</time>
      </trkpt>
      <trkpt lat="49.45022" lon="0.27227">
        <ele>7.8</ele>
        <time>2020-06-17T16:12:11Z</time>
      </trkpt>
      <trkpt lat="49.45023" lon="0.27228">
        <ele>7.8</ele>
        <time>2020-06-17T16:12:12Z</time>
      </trkpt>
      <trkpt lat="49.45023" lon="0.27228">
        <ele>7.7</ele>
        <time>2020-06-17T16:12:13Z</time>
      </trkpt>
      <trkpt lat="49.45024" lon="0.27229">
        <ele>7.7</ele>
        <time>2020-06-17T16:12:14Z</time>
      </trkpt>
      <trkpt lat="49.45027" lon="0.2723">
        <ele>7.3</ele>
        <time>2020-06-17T16:12:15Z</time>
      </trkpt>
      <trkpt lat="49.4503" lon="0.27231">
        <ele>7.2</ele>
        <time>2020-06-17T16:12:16Z</time>
      </trkpt>
      <trkpt lat="49.45034" lon="0.27233">
        <ele>7.2</ele>
        <time>2020-06-17T16:12:17Z</time>
      </trkpt>
      <trkpt lat="49.45037" lon="0.27232">
        <ele>7.1</ele>
        <time>2020-06-17T16:12:18Z</time>
      </trkpt>
      <trkpt lat="49.45041" lon="0.27232">
        <ele>7.1</ele>
        <time>2020-06-17T16:12:19Z</time>
      </trkpt>
      <trkpt lat="49.45045" lon="0.27232">
        <ele>7</ele>
        <time>2020-06-17T16:12:20Z</time>
      </trkpt>
      <trkpt lat="49.45049" lon="0.27233">
        <ele>6.9</ele>
        <time>2020-06-17T16:12:21Z</time>
      </trkpt>
      <trkpt lat="49.45053" lon="0.27232">
        <ele>6.9</ele>
        <time>2020-06-17T16:12:22Z</time>
      </trkpt>
      <trkpt lat="49.45057" lon="0.27233">
        <ele>6.8</ele>
        <time>2020-06-17T16:12:23Z</time>
      </trkpt>
      <trkpt lat="49.45061" lon="0.27233">
        <ele>6.8</ele>
        <time>2020-06-17T16:12:24Z</time>
      </trkpt>
      <trkpt lat="49.45064" lon="0.27233">
        <ele>6.8</ele>
        <time>2020-06-17T16:12:25Z</time>
      </trkpt>
      <trkpt lat="49.45068" lon="0.27232">
        <ele>6.7</ele>
        <time>2020-06-17T16:12:26Z</time>
      </trkpt>
      <trkpt lat="49.45071" lon="0.27232">
        <ele>6.7</ele>
        <time>2020-06-17T16:12:27Z</time>
      </trkpt>
      <trkpt lat="49.45075" lon="0.27232">
        <ele>6.7</ele>
        <time>2020-06-17T16:12:28Z</time>
      </trkpt>
      <trkpt lat="49.45076" lon="0.27232">
        <ele>6.6</ele>
        <time>2020-06-17T16:12:29Z</time>
      </trkpt>
      <trkpt lat="49.45079" lon="0.27233">
        <ele>6.6</ele>
        <time>2020-06-17T16:12:30Z</time>
      </trkpt>
      <trkpt lat="49.45083" lon="0.27233">
        <ele>6.5</ele>
        <time>2020-06-17T16:12:31Z</time>
      </trkpt>
      <trkpt lat="49.45087" lon="0.27233">
        <ele>6.5</ele>
        <time>2020-06-17T16:12:32Z</time>
      </trkpt>
      <trkpt lat="49.45091" lon="0.27232">
        <ele>6.5</ele>
        <time>2020-06-17T16:12:33Z</time>
      </trkpt>
      <trkpt lat="49.45095" lon="0.27232">
        <ele>6.5</ele>
        <time>2020-06-17T16:12:34Z</time>
      </trkpt>
      <trkpt lat="49.45099" lon="0.27232">
        <ele>6.5</ele>
        <time>2020-06-17T16:12:35Z</time>
      </trkpt>
      <trkpt lat="49.45103" lon="0.27231">
        <ele>6.5</ele>
        <time>2020-06-17T16:12:36Z</time>
      </trkpt>
      <trkpt lat="49.45106" lon="0.27231">
        <ele>6.6</ele>
        <time>2020-06-17T16:12:37Z</time>
      </trkpt>
      <trkpt lat="49.4511" lon="0.27232">
        <ele>6.6</ele>
        <time>2020-06-17T16:12:38Z</time>
      </trkpt>
      <trkpt lat="49.4511" lon="0.27232">
        <ele>6.6</ele>
        <time>2020-06-17T16:12:39Z</time>
      </trkpt>
      <trkpt lat="49.45114" lon="0.27232">
        <ele>6.6</ele>
        <time>2020-06-17T16:12:40Z</time>
      </trkpt>
      <trkpt lat="49.45115" lon="0.27232">
        <ele>6.6</ele>
        <time>2020-06-17T16:12:41Z</time>
      </trkpt>
      <trkpt lat="49.45118" lon="0.27231">
        <ele>6.7</ele>
        <time>2020-06-17T16:12:42Z</time>
      </trkpt>
      <trkpt lat="49.45119" lon="0.27231">
        <ele>6.7</ele>
        <time>2020-06-17T16:12:43Z</time>
      </trkpt>
      <trkpt lat="49.45123" lon="0.2723">
        <ele>6.7</ele>
        <time>2020-06-17T16:12:44Z</time>
      </trkpt>
      <trkpt lat="49.45124" lon="0.2723">
        <ele>6.7</ele>
        <time>2020-06-17T16:12:45Z</time>
      </trkpt>
      <trkpt lat="49.45126" lon="0.27229">
        <ele>6.8</ele>
        <time>2020-06-17T16:12:46Z</time>
      </trkpt>
      <trkpt lat="49.45127" lon="0.27229">
        <ele>6.8</ele>
        <time>2020-06-17T16:12:47Z</time>
      </trkpt>
      <trkpt lat="49.45129" lon="0.27228">
        <ele>6.8</ele>
        <time>2020-06-17T16:12:48Z</time>
      </trkpt>
      <trkpt lat="49.4513" lon="0.27227">
        <ele>6.8</ele>
        <time>2020-06-17T16:12:49Z</time>
      </trkpt>
      <trkpt lat="49.45132" lon="0.27223">
        <ele>6.9</ele>
        <time>2020-06-17T16:12:50Z</time>
      </trkpt>
      <trkpt lat="49.45133" lon="0.27222">
        <ele>6.9</ele>
        <time>2020-06-17T16:12:51Z</time>
      </trkpt>
      <trkpt lat="49.45136" lon="0.27218">
        <ele>6.9</ele>
        <time>2020-06-17T16:12:52Z</time>
      </trkpt>
      <trkpt lat="49.45137" lon="0.27217">
        <ele>6.9</ele>
        <time>2020-06-17T16:12:53Z</time>
      </trkpt>
      <trkpt lat="49.45139" lon="0.27213">
        <ele>7</ele>
        <time>2020-06-17T16:12:54Z</time>
      </trkpt>
      <trkpt lat="49.45141" lon="0.27208">
        <ele>7</ele>
        <time>2020-06-17T16:12:55Z</time>
      </trkpt>
      <trkpt lat="49.45143" lon="0.27205">
        <ele>7</ele>
        <time>2020-06-17T16:12:56Z</time>
      </trkpt>
      <trkpt lat="49.45146" lon="0.272">
        <ele>7</ele>
        <time>2020-06-17T16:12:57Z</time>
      </trkpt>
      <trkpt lat="49.45148" lon="0.27196">
        <ele>7</ele>
        <time>2020-06-17T16:12:58Z</time>
      </trkpt>
      <trkpt lat="49.45151" lon="0.27193">
        <ele>7.1</ele>
        <time>2020-06-17T16:12:59Z</time>
      </trkpt>
      <trkpt lat="49.45153" lon="0.27188">
        <ele>7.1</ele>
        <time>2020-06-17T16:13:00Z</time>
      </trkpt>
      <trkpt lat="49.45155" lon="0.27183">
        <ele>7.1</ele>
        <time>2020-06-17T16:13:01Z</time>
      </trkpt>
      <trkpt lat="49.45156" lon="0.27179">
        <ele>7.1</ele>
        <time>2020-06-17T16:13:02Z</time>
      </trkpt>
      <trkpt lat="49.45159" lon="0.27174">
        <ele>6.9</ele>
        <time>2020-06-17T16:13:03Z</time>
      </trkpt>
      <trkpt lat="49.45159" lon="0.27172">
        <ele>6.8</ele>
        <time>2020-06-17T16:13:04Z</time>
      </trkpt>
      <trkpt lat="49.45161" lon="0.27168">
        <ele>6.6</ele>
        <time>2020-06-17T16:13:05Z</time>
      </trkpt>
      <trkpt lat="49.45162" lon="0.27167">
        <ele>6.4</ele>
        <time>2020-06-17T16:13:06Z</time>
      </trkpt>
      <trkpt lat="49.45164" lon="0.27164">
        <ele>6.4</ele>
        <time>2020-06-17T16:13:07Z</time>
      </trkpt>
      <trkpt lat="49.45165" lon="0.27163">
        <ele>6.4</ele>
        <time>2020-06-17T16:13:08Z</time>
      </trkpt>
      <trkpt lat="49.45168" lon="0.27161">
        <ele>6.3</ele>
        <time>2020-06-17T16:13:09Z</time>
      </trkpt>
      <trkpt lat="49.45169" lon="0.27161">
        <ele>6.3</ele>
        <time>2020-06-17T16:13:10Z</time>
      </trkpt>
      <trkpt lat="49.4517" lon="0.2716">
        <ele>6.3</ele>
        <time>2020-06-17T16:13:11Z</time>
      </trkpt>
      <trkpt lat="49.45172" lon="0.27161">
        <ele>6.3</ele>
        <time>2020-06-17T16:13:12Z</time>
      </trkpt>
      <trkpt lat="49.45174" lon="0.27161">
        <ele>6.3</ele>
        <time>2020-06-17T16:13:13Z</time>
      </trkpt>
      <trkpt lat="49.45175" lon="0.27161">
        <ele>6.3</ele>
        <time>2020-06-17T16:13:14Z</time>
      </trkpt>
      <trkpt lat="49.45176" lon="0.27161">
        <ele>6.3</ele>
        <time>2020-06-17T16:13:15Z</time>
      </trkpt>
      <trkpt lat="49.45179" lon="0.27161">
        <ele>6.3</ele>
        <time>2020-06-17T16:13:16Z</time>
      </trkpt>
      <trkpt lat="49.45182" lon="0.27161">
        <ele>6.3</ele>
        <time>2020-06-17T16:13:17Z</time>
      </trkpt>
      <trkpt lat="49.45186" lon="0.27161">
        <ele>6.3</ele>
        <time>2020-06-17T16:13:18Z</time>
      </trkpt>
      <trkpt lat="49.45188" lon="0.27162">
        <ele>6.2</ele>
        <time>2020-06-17T16:13:19Z</time>
      </trkpt>
      <trkpt lat="49.45192" lon="0.27162">
        <ele>6.2</ele>
        <time>2020-06-17T16:13:20Z</time>
      </trkpt>
      <trkpt lat="49.45195" lon="0.27161">
        <ele>6.2</ele>
        <time>2020-06-17T16:13:21Z</time>
      </trkpt>
      <trkpt lat="49.45199" lon="0.27161">
        <ele>6.2</ele>
        <time>2020-06-17T16:13:22Z</time>
      </trkpt>
      <trkpt lat="49.45204" lon="0.27161">
        <ele>6.2</ele>
        <time>2020-06-17T16:13:23Z</time>
      </trkpt>
      <trkpt lat="49.45208" lon="0.27163">
        <ele>6.2</ele>
        <time>2020-06-17T16:13:24Z</time>
      </trkpt>
      <trkpt lat="49.45213" lon="0.27163">
        <ele>6.2</ele>
        <time>2020-06-17T16:13:25Z</time>
      </trkpt>
      <trkpt lat="49.45218" lon="0.27164">
        <ele>6.2</ele>
        <time>2020-06-17T16:13:26Z</time>
      </trkpt>
      <trkpt lat="49.45222" lon="0.27164">
        <ele>6.3</ele>
        <time>2020-06-17T16:13:27Z</time>
      </trkpt>
      <trkpt lat="49.45226" lon="0.27164">
        <ele>6.3</ele>
        <time>2020-06-17T16:13:28Z</time>
      </trkpt>
      <trkpt lat="49.4523" lon="0.27164">
        <ele>6.3</ele>
        <time>2020-06-17T16:13:29Z</time>
      </trkpt>
      <trkpt lat="49.45234" lon="0.27163">
        <ele>6.4</ele>
        <time>2020-06-17T16:13:30Z</time>
      </trkpt>
      <trkpt lat="49.45238" lon="0.27163">
        <ele>6.5</ele>
        <time>2020-06-17T16:13:31Z</time>
      </trkpt>
      <trkpt lat="49.45242" lon="0.27163">
        <ele>6.6</ele>
        <time>2020-06-17T16:13:32Z</time>
      </trkpt>
      <trkpt lat="49.45246" lon="0.27165">
        <ele>6.6</ele>
        <time>2020-06-17T16:13:33Z</time>
      </trkpt>
      <trkpt lat="49.4525" lon="0.27167">
        <ele>6.7</ele>
        <time>2020-06-17T16:13:34Z</time>
      </trkpt>
      <trkpt lat="49.45254" lon="0.27169">
        <ele>6.8</ele>
        <time>2020-06-17T16:13:35Z</time>
      </trkpt>
      <trkpt lat="49.45258" lon="0.2717">
        <ele>6.9</ele>
        <time>2020-06-17T16:13:36Z</time>
      </trkpt>
      <trkpt lat="49.45262" lon="0.27173">
        <ele>6.9</ele>
        <time>2020-06-17T16:13:37Z</time>
      </trkpt>
      <trkpt lat="49.45265" lon="0.27176">
        <ele>7</ele>
        <time>2020-06-17T16:13:38Z</time>
      </trkpt>
      <trkpt lat="49.45267" lon="0.27181">
        <ele>7</ele>
        <time>2020-06-17T16:13:39Z</time>
      </trkpt>
      <trkpt lat="49.4527" lon="0.27186">
        <ele>7.1</ele>
        <time>2020-06-17T16:13:40Z</time>
      </trkpt>
      <trkpt lat="49.45271" lon="0.27192">
        <ele>7.1</ele>
        <time>2020-06-17T16:13:41Z</time>
      </trkpt>
      <trkpt lat="49.45273" lon="0.27201">
        <ele>7.2</ele>
        <time>2020-06-17T16:13:42Z</time>
      </trkpt>
      <trkpt lat="49.45274" lon="0.2721">
        <ele>7.2</ele>
        <time>2020-06-17T16:13:43Z</time>
      </trkpt>
      <trkpt lat="49.45275" lon="0.27217">
        <ele>7.2</ele>
        <time>2020-06-17T16:13:44Z</time>
      </trkpt>
      <trkpt lat="49.45276" lon="0.27225">
        <ele>7.2</ele>
        <time>2020-06-17T16:13:45Z</time>
      </trkpt>
      <trkpt lat="49.45276" lon="0.27231">
        <ele>7.2</ele>
        <time>2020-06-17T16:13:46Z</time>
      </trkpt>
      <trkpt lat="49.45277" lon="0.27238">
        <ele>7.1</ele>
        <time>2020-06-17T16:13:47Z</time>
      </trkpt>
      <trkpt lat="49.45279" lon="0.27245">
        <ele>7</ele>
        <time>2020-06-17T16:13:48Z</time>
      </trkpt>
      <trkpt lat="49.4528" lon="0.27251">
        <ele>6.9</ele>
        <time>2020-06-17T16:13:49Z</time>
      </trkpt>
      <trkpt lat="49.45282" lon="0.27257">
        <ele>6.8</ele>
        <time>2020-06-17T16:13:50Z</time>
      </trkpt>
      <trkpt lat="49.45285" lon="0.27265">
        <ele>6.6</ele>
        <time>2020-06-17T16:13:51Z</time>
      </trkpt>
      <trkpt lat="49.45289" lon="0.27271">
        <ele>6.4</ele>
        <time>2020-06-17T16:13:52Z</time>
      </trkpt>
      <trkpt lat="49.45293" lon="0.27276">
        <ele>6.3</ele>
        <time>2020-06-17T16:13:53Z</time>
      </trkpt>
      <trkpt lat="49.45296" lon="0.27279">
        <ele>6.2</ele>
        <time>2020-06-17T16:13:54Z</time>
      </trkpt>
      <trkpt lat="49.453" lon="0.27283">
        <ele>6.1</ele>
        <time>2020-06-17T16:13:55Z</time>
      </trkpt>
      <trkpt lat="49.45303" lon="0.27285">
        <ele>6</ele>
        <time>2020-06-17T16:13:56Z</time>
      </trkpt>
      <trkpt lat="49.45307" lon="0.27287">
        <ele>5.9</ele>
        <time>2020-06-17T16:13:57Z</time>
      </trkpt>
      <trkpt lat="49.45312" lon="0.27288">
        <ele>5.8</ele>
        <time>2020-06-17T16:13:58Z</time>
      </trkpt>
      <trkpt lat="49.45317" lon="0.27289">
        <ele>5.7</ele>
        <time>2020-06-17T16:13:59Z</time>
      </trkpt>
      <trkpt lat="49.45321" lon="0.2729">
        <ele>6.2</ele>
        <time>2020-06-17T16:14:00Z</time>
      </trkpt>
      <trkpt lat="49.45324" lon="0.2729">
        <ele>6.1</ele>
        <time>2020-06-17T16:14:01Z</time>
      </trkpt>
      <trkpt lat="49.45327" lon="0.27291">
        <ele>6.1</ele>
        <time>2020-06-17T16:14:02Z</time>
      </trkpt>
      <trkpt lat="49.45328" lon="0.27291">
        <ele>6.1</ele>
        <time>2020-06-17T16:14:03Z</time>
      </trkpt>
      <trkpt lat="49.4533" lon="0.27295">
        <ele>6</ele>
        <time>2020-06-17T16:14:04Z</time>
      </trkpt>
      <trkpt lat="49.4533" lon="0.27297">
        <ele>6</ele>
        <time>2020-06-17T16:14:05Z</time>
      </trkpt>
      <trkpt lat="49.45333" lon="0.27299">
        <ele>5.9</ele>
        <time>2020-06-17T16:14:06Z</time>
      </trkpt>
      <trkpt lat="49.45335" lon="0.27304">
        <ele>5.7</ele>
        <time>2020-06-17T16:14:07Z</time>
      </trkpt>
      <trkpt lat="49.45336" lon="0.27305">
        <ele>5.7</ele>
        <time>2020-06-17T16:14:08Z</time>
      </trkpt>
      <trkpt lat="49.45339" lon="0.27309">
        <ele>5.6</ele>
        <time>2020-06-17T16:14:09Z</time>
      </trkpt>
      <trkpt lat="49.4534" lon="0.2731">
        <ele>5.6</ele>
        <time>2020-06-17T16:14:10Z</time>
      </trkpt>
      <trkpt lat="49.45341" lon="0.27312">
        <ele>5.6</ele>
        <time>2020-06-17T16:14:11Z</time>
      </trkpt>
      <trkpt lat="49.45342" lon="0.27313">
        <ele>5.5</ele>
        <time>2020-06-17T16:14:12Z</time>
      </trkpt>
      <trkpt lat="49.45342" lon="0.27315">
        <ele>5.5</ele>
        <time>2020-06-17T16:14:13Z</time>
      </trkpt>
      <trkpt lat="49.45342" lon="0.27314">
        <ele>5.5</ele>
        <time>2020-06-17T16:14:14Z</time>
      </trkpt>
      <trkpt lat="49.45342" lon="0.27314">
        <ele>5.5</ele>
        <time>2020-06-17T16:14:15Z</time>
      </trkpt>
      <trkpt lat="49.45341" lon="0.27313">
        <ele>5.5</ele>
        <time>2020-06-17T16:14:16Z</time>
      </trkpt>
      <trkpt lat="49.45342" lon="0.27314">
        <ele>5.5</ele>
        <time>2020-06-17T16:14:17Z</time>
      </trkpt>
      <trkpt lat="49.45343" lon="0.27313">
        <ele>5.5</ele>
        <time>2020-06-17T16:14:18Z</time>
      </trkpt>
      <trkpt lat="49.45344" lon="0.27311">
        <ele>5.4</ele>
        <time>2020-06-17T16:14:19Z</time>
      </trkpt>
      <trkpt lat="49.45346" lon="0.27309">
        <ele>5.4</ele>
        <time>2020-06-17T16:14:20Z</time>
      </trkpt>
      <trkpt lat="49.45346" lon="0.27308">
        <ele>5.4</ele>
        <time>2020-06-17T16:14:21Z</time>
      </trkpt>
      <trkpt lat="49.45346" lon="0.27307">
        <ele>5.4</ele>
        <time>2020-06-17T16:14:22Z</time>
      </trkpt>
      <trkpt lat="49.45347" lon="0.27305">
        <ele>5.3</ele>
        <time>2020-06-17T16:14:23Z</time>
      </trkpt>
      <trkpt lat="49.45348" lon="0.27302">
        <ele>5.3</ele>
        <time>2020-06-17T16:14:24Z</time>
      </trkpt>
      <trkpt lat="49.45351" lon="0.27301">
        <ele>5.2</ele>
        <time>2020-06-17T16:14:25Z</time>
      </trkpt>
      <trkpt lat="49.45353" lon="0.273">
        <ele>5.2</ele>
        <time>2020-06-17T16:14:26Z</time>
      </trkpt>
      <trkpt lat="49.45356" lon="0.27298">
        <ele>5.1</ele>
        <time>2020-06-17T16:14:27Z</time>
      </trkpt>
      <trkpt lat="49.45357" lon="0.27296">
        <ele>5.1</ele>
        <time>2020-06-17T16:14:28Z</time>
      </trkpt>
      <trkpt lat="49.45359" lon="0.27293">
        <ele>5</ele>
        <time>2020-06-17T16:14:29Z</time>
      </trkpt>
      <trkpt lat="49.45362" lon="0.27288">
        <ele>5</ele>
        <time>2020-06-17T16:14:30Z</time>
      </trkpt>
      <trkpt lat="49.45363" lon="0.27286">
        <ele>5</ele>
        <time>2020-06-17T16:14:31Z</time>
      </trkpt>
      <trkpt lat="49.45364" lon="0.2728">
        <ele>5</ele>
        <time>2020-06-17T16:14:32Z</time>
      </trkpt>
      <trkpt lat="49.45365" lon="0.27274">
        <ele>5</ele>
        <time>2020-06-17T16:14:33Z</time>
      </trkpt>
      <trkpt lat="49.45364" lon="0.27267">
        <ele>5</ele>
        <time>2020-06-17T16:14:34Z</time>
      </trkpt>
      <trkpt lat="49.45364" lon="0.2726">
        <ele>5</ele>
        <time>2020-06-17T16:14:35Z</time>
      </trkpt>
      <trkpt lat="49.45363" lon="0.27254">
        <ele>5</ele>
        <time>2020-06-17T16:14:36Z</time>
      </trkpt>
      <trkpt lat="49.45363" lon="0.27247">
        <ele>4.9</ele>
        <time>2020-06-17T16:14:37Z</time>
      </trkpt>
      <trkpt lat="49.45363" lon="0.2724">
        <ele>4.9</ele>
        <time>2020-06-17T16:14:38Z</time>
      </trkpt>
      <trkpt lat="49.45363" lon="0.27231">
        <ele>4.9</ele>
        <time>2020-06-17T16:14:39Z</time>
      </trkpt>
      <trkpt lat="49.45363" lon="0.27221">
        <ele>4.9</ele>
        <time>2020-06-17T16:14:40Z</time>
      </trkpt>
      <trkpt lat="49.45363" lon="0.27212">
        <ele>4.9</ele>
        <time>2020-06-17T16:14:41Z</time>
      </trkpt>
      <trkpt lat="49.45364" lon="0.27204">
        <ele>4.9</ele>
        <time>2020-06-17T16:14:42Z</time>
      </trkpt>
      <trkpt lat="49.45365" lon="0.27198">
        <ele>4.9</ele>
        <time>2020-06-17T16:14:43Z</time>
      </trkpt>
      <trkpt lat="49.45365" lon="0.27186">
        <ele>4.9</ele>
        <time>2020-06-17T16:14:44Z</time>
      </trkpt>
      <trkpt lat="49.45365" lon="0.27179">
        <ele>4.9</ele>
        <time>2020-06-17T16:14:45Z</time>
      </trkpt>
      <trkpt lat="49.45366" lon="0.27172">
        <ele>4.8</ele>
        <time>2020-06-17T16:14:46Z</time>
      </trkpt>
      <trkpt lat="49.45366" lon="0.27162">
        <ele>4.8</ele>
        <time>2020-06-17T16:14:47Z</time>
      </trkpt>
      <trkpt lat="49.45367" lon="0.27154">
        <ele>4.8</ele>
        <time>2020-06-17T16:14:48Z</time>
      </trkpt>
      <trkpt lat="49.45368" lon="0.27145">
        <ele>4.8</ele>
        <time>2020-06-17T16:14:49Z</time>
      </trkpt>
      <trkpt lat="49.45368" lon="0.27137">
        <ele>4.8</ele>
        <time>2020-06-17T16:14:50Z</time>
      </trkpt>
      <trkpt lat="49.45369" lon="0.2713">
        <ele>4.7</ele>
        <time>2020-06-17T16:14:51Z</time>
      </trkpt>
      <trkpt lat="49.45369" lon="0.27125">
        <ele>4.7</ele>
        <time>2020-06-17T16:14:52Z</time>
      </trkpt>
      <trkpt lat="49.4537" lon="0.27118">
        <ele>4.7</ele>
        <time>2020-06-17T16:14:53Z</time>
      </trkpt>
      <trkpt lat="49.4537" lon="0.27113">
        <ele>4.7</ele>
        <time>2020-06-17T16:14:54Z</time>
      </trkpt>
      <trkpt lat="49.4537" lon="0.27106">
        <ele>4.7</ele>
        <time>2020-06-17T16:14:55Z</time>
      </trkpt>
      <trkpt lat="49.45371" lon="0.27099">
        <ele>4.7</ele>
        <time>2020-06-17T16:14:56Z</time>
      </trkpt>
      <trkpt lat="49.45372" lon="0.27092">
        <ele>4.7</ele>
        <time>2020-06-17T16:14:57Z</time>
      </trkpt>
      <trkpt lat="49.45373" lon="0.27085">
        <ele>4.7</ele>
        <time>2020-06-17T16:14:58Z</time>
      </trkpt>
      <trkpt lat="49.45374" lon="0.27078">
        <ele>4.7</ele>
        <time>2020-06-17T16:14:59Z</time>
      </trkpt>
      <trkpt lat="49.45376" lon="0.27071">
        <ele>4.7</ele>
        <time>2020-06-17T16:15:00Z</time>
      </trkpt>
      <trkpt lat="49.45376" lon="0.27065">
        <ele>4.7</ele>
        <time>2020-06-17T16:15:01Z</time>
      </trkpt>
      <trkpt lat="49.45376" lon="0.2706">
        <ele>4.7</ele>
        <time>2020-06-17T16:15:02Z</time>
      </trkpt>
      <trkpt lat="49.45376" lon="0.27054">
        <ele>4.8</ele>
        <time>2020-06-17T16:15:03Z</time>
      </trkpt>
      <trkpt lat="49.45376" lon="0.27049">
        <ele>4.8</ele>
        <time>2020-06-17T16:15:04Z</time>
      </trkpt>
      <trkpt lat="49.45376" lon="0.27044">
        <ele>4.8</ele>
        <time>2020-06-17T16:15:05Z</time>
      </trkpt>
      <trkpt lat="49.45376" lon="0.2704">
        <ele>4.7</ele>
        <time>2020-06-17T16:15:06Z</time>
      </trkpt>
      <trkpt lat="49.45375" lon="0.27035">
        <ele>4.6</ele>
        <time>2020-06-17T16:15:07Z</time>
      </trkpt>
      <trkpt lat="49.45375" lon="0.27033">
        <ele>4.6</ele>
        <time>2020-06-17T16:15:08Z</time>
      </trkpt>
      <trkpt lat="49.45378" lon="0.27029">
        <ele>4.5</ele>
        <time>2020-06-17T16:15:09Z</time>
      </trkpt>
      <trkpt lat="49.4538" lon="0.27025">
        <ele>4.4</ele>
        <time>2020-06-17T16:15:10Z</time>
      </trkpt>
      <trkpt lat="49.45382" lon="0.27019">
        <ele>4.4</ele>
        <time>2020-06-17T16:15:11Z</time>
      </trkpt>
      <trkpt lat="49.45384" lon="0.27012">
        <ele>4.3</ele>
        <time>2020-06-17T16:15:12Z</time>
      </trkpt>
      <trkpt lat="49.45385" lon="0.27004">
        <ele>4.3</ele>
        <time>2020-06-17T16:15:13Z</time>
      </trkpt>
      <trkpt lat="49.45385" lon="0.26997">
        <ele>4.3</ele>
        <time>2020-06-17T16:15:14Z</time>
      </trkpt>
      <trkpt lat="49.45384" lon="0.2699">
        <ele>4.3</ele>
        <time>2020-06-17T16:15:15Z</time>
      </trkpt>
      <trkpt lat="49.45382" lon="0.26982">
        <ele>4.3</ele>
        <time>2020-06-17T16:15:16Z</time>
      </trkpt>
      <trkpt lat="49.45381" lon="0.26975">
        <ele>4.3</ele>
        <time>2020-06-17T16:15:17Z</time>
      </trkpt>
      <trkpt lat="49.4538" lon="0.26968">
        <ele>4.4</ele>
        <time>2020-06-17T16:15:18Z</time>
      </trkpt>
      <trkpt lat="49.45379" lon="0.26961">
        <ele>4.4</ele>
        <time>2020-06-17T16:15:19Z</time>
      </trkpt>
      <trkpt lat="49.45378" lon="0.26954">
        <ele>4.4</ele>
        <time>2020-06-17T16:15:20Z</time>
      </trkpt>
      <trkpt lat="49.45379" lon="0.26947">
        <ele>4.4</ele>
        <time>2020-06-17T16:15:21Z</time>
      </trkpt>
      <trkpt lat="49.45381" lon="0.2694">
        <ele>4.4</ele>
        <time>2020-06-17T16:15:22Z</time>
      </trkpt>
      <trkpt lat="49.45382" lon="0.26933">
        <ele>4.4</ele>
        <time>2020-06-17T16:15:23Z</time>
      </trkpt>
      <trkpt lat="49.45383" lon="0.26927">
        <ele>4.4</ele>
        <time>2020-06-17T16:15:24Z</time>
      </trkpt>
      <trkpt lat="49.45384" lon="0.26922">
        <ele>4.4</ele>
        <time>2020-06-17T16:15:25Z</time>
      </trkpt>
      <trkpt lat="49.45385" lon="0.26916">
        <ele>4.4</ele>
        <time>2020-06-17T16:15:26Z</time>
      </trkpt>
      <trkpt lat="49.45386" lon="0.26911">
        <ele>4.4</ele>
        <time>2020-06-17T16:15:27Z</time>
      </trkpt>
      <trkpt lat="49.45386" lon="0.26905">
        <ele>4.4</ele>
        <time>2020-06-17T16:15:28Z</time>
      </trkpt>
      <trkpt lat="49.45386" lon="0.26903">
        <ele>4.4</ele>
        <time>2020-06-17T16:15:29Z</time>
      </trkpt>
      <trkpt lat="49.45388" lon="0.269">
        <ele>4.4</ele>
        <time>2020-06-17T16:15:30Z</time>
      </trkpt>
      <trkpt lat="49.45388" lon="0.26896">
        <ele>4.4</ele>
        <time>2020-06-17T16:15:31Z</time>
      </trkpt>
      <trkpt lat="49.45388" lon="0.26891">
        <ele>4.4</ele>
        <time>2020-06-17T16:15:32Z</time>
      </trkpt>
      <trkpt lat="49.45388" lon="0.26889">
        <ele>4.4</ele>
        <time>2020-06-17T16:15:33Z</time>
      </trkpt>
      <trkpt lat="49.45388" lon="0.26885">
        <ele>4.4</ele>
        <time>2020-06-17T16:15:34Z</time>
      </trkpt>
      <trkpt lat="49.45387" lon="0.26884">
        <ele>4.4</ele>
        <time>2020-06-17T16:15:35Z</time>
      </trkpt>
      <trkpt lat="49.45385" lon="0.26881">
        <ele>4.4</ele>
        <time>2020-06-17T16:15:36Z</time>
      </trkpt>
      <trkpt lat="49.45384" lon="0.2688">
        <ele>4.4</ele>
        <time>2020-06-17T16:15:37Z</time>
      </trkpt>
      <trkpt lat="49.45383" lon="0.26879">
        <ele>4.6</ele>
        <time>2020-06-17T16:15:38Z</time>
      </trkpt>
      <trkpt lat="49.45383" lon="0.26876">
        <ele>4.6</ele>
        <time>2020-06-17T16:15:39Z</time>
      </trkpt>
      <trkpt lat="49.45383" lon="0.26876">
        <ele>4.6</ele>
        <time>2020-06-17T16:15:40Z</time>
      </trkpt>
      <trkpt lat="49.45383" lon="0.26875">
        <ele>4.6</ele>
        <time>2020-06-17T16:15:41Z</time>
      </trkpt>
      <trkpt lat="49.45383" lon="0.26874">
        <ele>4.7</ele>
        <time>2020-06-17T16:15:42Z</time>
      </trkpt>
      <trkpt lat="49.45383" lon="0.26873">
        <ele>4.7</ele>
        <time>2020-06-17T16:15:43Z</time>
      </trkpt>
      <trkpt lat="49.45382" lon="0.26872">
        <ele>4.7</ele>
        <time>2020-06-17T16:15:44Z</time>
      </trkpt>
      <trkpt lat="49.45382" lon="0.26872">
        <ele>4.8</ele>
        <time>2020-06-17T16:15:45Z</time>
      </trkpt>
      <trkpt lat="49.45382" lon="0.26873">
        <ele>4.8</ele>
        <time>2020-06-17T16:15:46Z</time>
      </trkpt>
      <trkpt lat="49.45381" lon="0.26873">
        <ele>4.9</ele>
        <time>2020-06-17T16:15:47Z</time>
      </trkpt>
      <trkpt lat="49.45381" lon="0.26873">
        <ele>4.9</ele>
        <time>2020-06-17T16:15:48Z</time>
      </trkpt>
      <trkpt lat="49.4538" lon="0.26872">
        <ele>5</ele>
        <time>2020-06-17T16:15:49Z</time>
      </trkpt>
      <trkpt lat="49.45379" lon="0.26872">
        <ele>5</ele>
        <time>2020-06-17T16:15:50Z</time>
      </trkpt>
      <trkpt lat="49.45379" lon="0.26871">
        <ele>5</ele>
        <time>2020-06-17T16:15:51Z</time>
      </trkpt>
      <trkpt lat="49.45379" lon="0.2687">
        <ele>5.1</ele>
        <time>2020-06-17T16:15:52Z</time>
      </trkpt>
      <trkpt lat="49.45378" lon="0.26869">
        <ele>5.2</ele>
        <time>2020-06-17T16:15:53Z</time>
      </trkpt>
      <trkpt lat="49.45377" lon="0.26869">
        <ele>5.2</ele>
        <time>2020-06-17T16:15:54Z</time>
      </trkpt>
      <trkpt lat="49.45377" lon="0.26869">
        <ele>5.2</ele>
        <time>2020-06-17T16:15:55Z</time>
      </trkpt>
      <trkpt lat="49.45377" lon="0.26868">
        <ele>5.2</ele>
        <time>2020-06-17T16:15:56Z</time>
      </trkpt>
      <trkpt lat="49.45377" lon="0.26868">
        <ele>5.2</ele>
        <time>2020-06-17T16:15:57Z</time>
      </trkpt>
      <trkpt lat="49.45377" lon="0.26868">
        <ele>5.2</ele>
        <time>2020-06-17T16:15:58Z</time>
      </trkpt>
      <trkpt lat="49.45377" lon="0.26868">
        <ele>5.2</ele>
        <time>2020-06-17T16:15:59Z</time>
      </trkpt>
      <trkpt lat="49.45376" lon="0.26868">
        <ele>5.2</ele>
        <time>2020-06-17T16:16:00Z</time>
      </trkpt>
      <trkpt lat="49.45376" lon="0.26868">
        <ele>5.2</ele>
        <time>2020-06-17T16:16:01Z</time>
      </trkpt>
      <trkpt lat="49.45376" lon="0.26868">
        <ele>5.2</ele>
        <time>2020-06-17T16:16:02Z</time>
      </trkpt>
      <trkpt lat="49.45375" lon="0.26867">
        <ele>5.2</ele>
        <time>2020-06-17T16:16:03Z</time>
      </trkpt>
      <trkpt lat="49.45373" lon="0.26868">
        <ele>5.2</ele>
        <time>2020-06-17T16:16:04Z</time>
      </trkpt>
      <trkpt lat="49.45372" lon="0.26866">
        <ele>5.2</ele>
        <time>2020-06-17T16:16:05Z</time>
      </trkpt>
      <trkpt lat="49.45372" lon="0.26866">
        <ele>5.2</ele>
        <time>2020-06-17T16:16:06Z</time>
      </trkpt>
      <trkpt lat="49.45372" lon="0.26865">
        <ele>5.2</ele>
        <time>2020-06-17T16:16:07Z</time>
      </trkpt>
      <trkpt lat="49.45372" lon="0.26865">
        <ele>5.2</ele>
        <time>2020-06-17T16:16:08Z</time>
      </trkpt>
      <trkpt lat="49.45372" lon="0.26862">
        <ele>5.2</ele>
        <time>2020-06-17T16:16:09Z</time>
      </trkpt>
      <trkpt lat="49.45374" lon="0.26855">
        <ele>5.2</ele>
        <time>2020-06-17T16:16:10Z</time>
      </trkpt>
      <trkpt lat="49.45375" lon="0.26849">
        <ele>5.2</ele>
        <time>2020-06-17T16:16:11Z</time>
      </trkpt>
      <trkpt lat="49.45376" lon="0.26842">
        <ele>5.2</ele>
        <time>2020-06-17T16:16:12Z</time>
      </trkpt>
      <trkpt lat="49.45377" lon="0.26834">
        <ele>5.2</ele>
        <time>2020-06-17T16:16:13Z</time>
      </trkpt>
      <trkpt lat="49.45377" lon="0.26829">
        <ele>5.2</ele>
        <time>2020-06-17T16:16:14Z</time>
      </trkpt>
      <trkpt lat="49.45378" lon="0.26822">
        <ele>5.1</ele>
        <time>2020-06-17T16:16:15Z</time>
      </trkpt>
      <trkpt lat="49.45378" lon="0.26814">
        <ele>5.1</ele>
        <time>2020-06-17T16:16:16Z</time>
      </trkpt>
      <trkpt lat="49.45378" lon="0.26807">
        <ele>5.1</ele>
        <time>2020-06-17T16:16:17Z</time>
      </trkpt>
      <trkpt lat="49.45377" lon="0.268">
        <ele>5.1</ele>
        <time>2020-06-17T16:16:18Z</time>
      </trkpt>
      <trkpt lat="49.45377" lon="0.26793">
        <ele>5.1</ele>
        <time>2020-06-17T16:16:19Z</time>
      </trkpt>
      <trkpt lat="49.45378" lon="0.26786">
        <ele>5.1</ele>
        <time>2020-06-17T16:16:20Z</time>
      </trkpt>
      <trkpt lat="49.45378" lon="0.2678">
        <ele>5</ele>
        <time>2020-06-17T16:16:21Z</time>
      </trkpt>
      <trkpt lat="49.45378" lon="0.26773">
        <ele>5</ele>
        <time>2020-06-17T16:16:22Z</time>
      </trkpt>
      <trkpt lat="49.45379" lon="0.26766">
        <ele>5</ele>
        <time>2020-06-17T16:16:23Z</time>
      </trkpt>
      <trkpt lat="49.45379" lon="0.26758">
        <ele>5</ele>
        <time>2020-06-17T16:16:24Z</time>
      </trkpt>
      <trkpt lat="49.45379" lon="0.26751">
        <ele>4.9</ele>
        <time>2020-06-17T16:16:25Z</time>
      </trkpt>
      <trkpt lat="49.45379" lon="0.26744">
        <ele>4.9</ele>
        <time>2020-06-17T16:16:26Z</time>
      </trkpt>
      <trkpt lat="49.4538" lon="0.26738">
        <ele>4.9</ele>
        <time>2020-06-17T16:16:27Z</time>
      </trkpt>
      <trkpt lat="49.45381" lon="0.26732">
        <ele>4.9</ele>
        <time>2020-06-17T16:16:28Z</time>
      </trkpt>
      <trkpt lat="49.45382" lon="0.26725">
        <ele>4.9</ele>
        <time>2020-06-17T16:16:29Z</time>
      </trkpt>
      <trkpt lat="49.45382" lon="0.2672">
        <ele>4.9</ele>
        <time>2020-06-17T16:16:30Z</time>
      </trkpt>
      <trkpt lat="49.45383" lon="0.26714">
        <ele>4.9</ele>
        <time>2020-06-17T16:16:31Z</time>
      </trkpt>
      <trkpt lat="49.45384" lon="0.26709">
        <ele>4.9</ele>
        <time>2020-06-17T16:16:32Z</time>
      </trkpt>
      <trkpt lat="49.45385" lon="0.26703">
        <ele>4.9</ele>
        <time>2020-06-17T16:16:33Z</time>
      </trkpt>
      <trkpt lat="49.45385" lon="0.26697">
        <ele>4.9</ele>
        <time>2020-06-17T16:16:34Z</time>
      </trkpt>
      <trkpt lat="49.45385" lon="0.26689">
        <ele>4.9</ele>
        <time>2020-06-17T16:16:35Z</time>
      </trkpt>
      <trkpt lat="49.45386" lon="0.26684">
        <ele>4.9</ele>
        <time>2020-06-17T16:16:36Z</time>
      </trkpt>
      <trkpt lat="49.45386" lon="0.26676">
        <ele>4.9</ele>
        <time>2020-06-17T16:16:37Z</time>
      </trkpt>
      <trkpt lat="49.45386" lon="0.26669">
        <ele>4.9</ele>
        <time>2020-06-17T16:16:38Z</time>
      </trkpt>
      <trkpt lat="49.45386" lon="0.26663">
        <ele>4.9</ele>
        <time>2020-06-17T16:16:39Z</time>
      </trkpt>
      <trkpt lat="49.45386" lon="0.26656">
        <ele>4.9</ele>
        <time>2020-06-17T16:16:40Z</time>
      </trkpt>
      <trkpt lat="49.45386" lon="0.26649">
        <ele>4.9</ele>
        <time>2020-06-17T16:16:41Z</time>
      </trkpt>
      <trkpt lat="49.45386" lon="0.26642">
        <ele>4.9</ele>
        <time>2020-06-17T16:16:42Z</time>
      </trkpt>
      <trkpt lat="49.45387" lon="0.26636">
        <ele>4.9</ele>
        <time>2020-06-17T16:16:43Z</time>
      </trkpt>
      <trkpt lat="49.45389" lon="0.26629">
        <ele>5</ele>
        <time>2020-06-17T16:16:44Z</time>
      </trkpt>
      <trkpt lat="49.45389" lon="0.26622">
        <ele>5</ele>
        <time>2020-06-17T16:16:45Z</time>
      </trkpt>
      <trkpt lat="49.4539" lon="0.26614">
        <ele>5</ele>
        <time>2020-06-17T16:16:46Z</time>
      </trkpt>
      <trkpt lat="49.45391" lon="0.26606">
        <ele>5</ele>
        <time>2020-06-17T16:16:47Z</time>
      </trkpt>
      <trkpt lat="49.45391" lon="0.26598">
        <ele>5</ele>
        <time>2020-06-17T16:16:48Z</time>
      </trkpt>
      <trkpt lat="49.45392" lon="0.26593">
        <ele>5</ele>
        <time>2020-06-17T16:16:49Z</time>
      </trkpt>
      <trkpt lat="49.45392" lon="0.26586">
        <ele>5</ele>
        <time>2020-06-17T16:16:50Z</time>
      </trkpt>
      <trkpt lat="49.45392" lon="0.2658">
        <ele>5</ele>
        <time>2020-06-17T16:16:51Z</time>
      </trkpt>
      <trkpt lat="49.45393" lon="0.26573">
        <ele>5</ele>
        <time>2020-06-17T16:16:52Z</time>
      </trkpt>
      <trkpt lat="49.45394" lon="0.26564">
        <ele>5</ele>
        <time>2020-06-17T16:16:53Z</time>
      </trkpt>
      <trkpt lat="49.45395" lon="0.26557">
        <ele>5</ele>
        <time>2020-06-17T16:16:54Z</time>
      </trkpt>
      <trkpt lat="49.45395" lon="0.2655">
        <ele>5</ele>
        <time>2020-06-17T16:16:55Z</time>
      </trkpt>
      <trkpt lat="49.45396" lon="0.26544">
        <ele>5</ele>
        <time>2020-06-17T16:16:56Z</time>
      </trkpt>
      <trkpt lat="49.45396" lon="0.26537">
        <ele>4.9</ele>
        <time>2020-06-17T16:16:57Z</time>
      </trkpt>
      <trkpt lat="49.45395" lon="0.26531">
        <ele>4.9</ele>
        <time>2020-06-17T16:16:58Z</time>
      </trkpt>
      <trkpt lat="49.45395" lon="0.26524">
        <ele>4.9</ele>
        <time>2020-06-17T16:16:59Z</time>
      </trkpt>
      <trkpt lat="49.45395" lon="0.26517">
        <ele>4.9</ele>
        <time>2020-06-17T16:17:00Z</time>
      </trkpt>
      <trkpt lat="49.45396" lon="0.26508">
        <ele>4.9</ele>
        <time>2020-06-17T16:17:01Z</time>
      </trkpt>
      <trkpt lat="49.45397" lon="0.26502">
        <ele>4.9</ele>
        <time>2020-06-17T16:17:02Z</time>
      </trkpt>
      <trkpt lat="49.45398" lon="0.26494">
        <ele>4.9</ele>
        <time>2020-06-17T16:17:03Z</time>
      </trkpt>
      <trkpt lat="49.45399" lon="0.26487">
        <ele>4.9</ele>
        <time>2020-06-17T16:17:04Z</time>
      </trkpt>
      <trkpt lat="49.45399" lon="0.26482">
        <ele>4.9</ele>
        <time>2020-06-17T16:17:05Z</time>
      </trkpt>
      <trkpt lat="49.45399" lon="0.26475">
        <ele>4.9</ele>
        <time>2020-06-17T16:17:06Z</time>
      </trkpt>
      <trkpt lat="49.454" lon="0.26468">
        <ele>4.9</ele>
        <time>2020-06-17T16:17:07Z</time>
      </trkpt>
      <trkpt lat="49.45401" lon="0.26462">
        <ele>4.9</ele>
        <time>2020-06-17T16:17:08Z</time>
      </trkpt>
      <trkpt lat="49.45402" lon="0.26456">
        <ele>4.9</ele>
        <time>2020-06-17T16:17:09Z</time>
      </trkpt>
      <trkpt lat="49.45401" lon="0.2645">
        <ele>4.8</ele>
        <time>2020-06-17T16:17:10Z</time>
      </trkpt>
      <trkpt lat="49.45402" lon="0.26442">
        <ele>4.8</ele>
        <time>2020-06-17T16:17:11Z</time>
      </trkpt>
      <trkpt lat="49.45402" lon="0.26434">
        <ele>4.8</ele>
        <time>2020-06-17T16:17:12Z</time>
      </trkpt>
      <trkpt lat="49.45403" lon="0.26425">
        <ele>4.8</ele>
        <time>2020-06-17T16:17:13Z</time>
      </trkpt>
      <trkpt lat="49.45404" lon="0.26418">
        <ele>4.8</ele>
        <time>2020-06-17T16:17:14Z</time>
      </trkpt>
      <trkpt lat="49.45404" lon="0.26411">
        <ele>4.8</ele>
        <time>2020-06-17T16:17:15Z</time>
      </trkpt>
      <trkpt lat="49.45405" lon="0.26403">
        <ele>4.8</ele>
        <time>2020-06-17T16:17:16Z</time>
      </trkpt>
      <trkpt lat="49.45406" lon="0.26396">
        <ele>4.8</ele>
        <time>2020-06-17T16:17:17Z</time>
      </trkpt>
      <trkpt lat="49.45407" lon="0.26388">
        <ele>4.8</ele>
        <time>2020-06-17T16:17:18Z</time>
      </trkpt>
      <trkpt lat="49.45406" lon="0.26382">
        <ele>4.8</ele>
        <time>2020-06-17T16:17:19Z</time>
      </trkpt>
      <trkpt lat="49.45406" lon="0.26374">
        <ele>4.8</ele>
        <time>2020-06-17T16:17:20Z</time>
      </trkpt>
      <trkpt lat="49.45407" lon="0.26366">
        <ele>4.8</ele>
        <time>2020-06-17T16:17:21Z</time>
      </trkpt>
      <trkpt lat="49.45408" lon="0.26359">
        <ele>4.8</ele>
        <time>2020-06-17T16:17:22Z</time>
      </trkpt>
      <trkpt lat="49.45408" lon="0.26351">
        <ele>4.8</ele>
        <time>2020-06-17T16:17:23Z</time>
      </trkpt>
      <trkpt lat="49.4541" lon="0.26344">
        <ele>4.8</ele>
        <time>2020-06-17T16:17:24Z</time>
      </trkpt>
      <trkpt lat="49.4541" lon="0.26337">
        <ele>4.8</ele>
        <time>2020-06-17T16:17:25Z</time>
      </trkpt>
      <trkpt lat="49.4541" lon="0.2633">
        <ele>4.8</ele>
        <time>2020-06-17T16:17:26Z</time>
      </trkpt>
      <trkpt lat="49.45411" lon="0.26322">
        <ele>4.8</ele>
        <time>2020-06-17T16:17:27Z</time>
      </trkpt>
      <trkpt lat="49.45411" lon="0.26314">
        <ele>4.8</ele>
        <time>2020-06-17T16:17:28Z</time>
      </trkpt>
      <trkpt lat="49.45411" lon="0.26307">
        <ele>4.8</ele>
        <time>2020-06-17T16:17:29Z</time>
      </trkpt>
      <trkpt lat="49.45412" lon="0.26299">
        <ele>4.8</ele>
        <time>2020-06-17T16:17:30Z</time>
      </trkpt>
      <trkpt lat="49.45412" lon="0.26291">
        <ele>4.8</ele>
        <time>2020-06-17T16:17:31Z</time>
      </trkpt>
      <trkpt lat="49.45412" lon="0.26284">
        <ele>4.8</ele>
        <time>2020-06-17T16:17:32Z</time>
      </trkpt>
      <trkpt lat="49.45414" lon="0.26277">
        <ele>4.9</ele>
        <time>2020-06-17T16:17:33Z</time>
      </trkpt>
      <trkpt lat="49.45414" lon="0.2627">
        <ele>4.9</ele>
        <time>2020-06-17T16:17:34Z</time>
      </trkpt>
      <trkpt lat="49.45415" lon="0.26262">
        <ele>4.9</ele>
        <time>2020-06-17T16:17:35Z</time>
      </trkpt>
      <trkpt lat="49.45415" lon="0.26255">
        <ele>5</ele>
        <time>2020-06-17T16:17:36Z</time>
      </trkpt>
      <trkpt lat="49.45416" lon="0.26247">
        <ele>5</ele>
        <time>2020-06-17T16:17:37Z</time>
      </trkpt>
      <trkpt lat="49.45416" lon="0.26239">
        <ele>5.1</ele>
        <time>2020-06-17T16:17:38Z</time>
      </trkpt>
      <trkpt lat="49.45417" lon="0.26231">
        <ele>5.2</ele>
        <time>2020-06-17T16:17:39Z</time>
      </trkpt>
      <trkpt lat="49.45418" lon="0.26223">
        <ele>5.2</ele>
        <time>2020-06-17T16:17:40Z</time>
      </trkpt>
      <trkpt lat="49.45419" lon="0.26215">
        <ele>5.2</ele>
        <time>2020-06-17T16:17:41Z</time>
      </trkpt>
      <trkpt lat="49.45419" lon="0.26208">
        <ele>5.3</ele>
        <time>2020-06-17T16:17:42Z</time>
      </trkpt>
      <trkpt lat="49.4542" lon="0.262">
        <ele>5.3</ele>
        <time>2020-06-17T16:17:43Z</time>
      </trkpt>
      <trkpt lat="49.45419" lon="0.26192">
        <ele>5.3</ele>
        <time>2020-06-17T16:17:44Z</time>
      </trkpt>
      <trkpt lat="49.45418" lon="0.26184">
        <ele>5.3</ele>
        <time>2020-06-17T16:17:45Z</time>
      </trkpt>
      <trkpt lat="49.45418" lon="0.26178">
        <ele>5.4</ele>
        <time>2020-06-17T16:17:46Z</time>
      </trkpt>
      <trkpt lat="49.45418" lon="0.26171">
        <ele>5.4</ele>
        <time>2020-06-17T16:17:47Z</time>
      </trkpt>
      <trkpt lat="49.45418" lon="0.26164">
        <ele>5.4</ele>
        <time>2020-06-17T16:17:48Z</time>
      </trkpt>
      <trkpt lat="49.45418" lon="0.26156">
        <ele>5.5</ele>
        <time>2020-06-17T16:17:49Z</time>
      </trkpt>
      <trkpt lat="49.45419" lon="0.26148">
        <ele>5.5</ele>
        <time>2020-06-17T16:17:50Z</time>
      </trkpt>
      <trkpt lat="49.45419" lon="0.2614">
        <ele>5.5</ele>
        <time>2020-06-17T16:17:51Z</time>
      </trkpt>
      <trkpt lat="49.4542" lon="0.26131">
        <ele>5.6</ele>
        <time>2020-06-17T16:17:52Z</time>
      </trkpt>
      <trkpt lat="49.45422" lon="0.26124">
        <ele>5.6</ele>
        <time>2020-06-17T16:17:53Z</time>
      </trkpt>
      <trkpt lat="49.45422" lon="0.26116">
        <ele>5.6</ele>
        <time>2020-06-17T16:17:54Z</time>
      </trkpt>
      <trkpt lat="49.45423" lon="0.2611">
        <ele>5.7</ele>
        <time>2020-06-17T16:17:55Z</time>
      </trkpt>
      <trkpt lat="49.45423" lon="0.26103">
        <ele>5.7</ele>
        <time>2020-06-17T16:17:56Z</time>
      </trkpt>
      <trkpt lat="49.45425" lon="0.26095">
        <ele>5.7</ele>
        <time>2020-06-17T16:17:57Z</time>
      </trkpt>
      <trkpt lat="49.45425" lon="0.26087">
        <ele>5.7</ele>
        <time>2020-06-17T16:17:58Z</time>
      </trkpt>
      <trkpt lat="49.45426" lon="0.26079">
        <ele>5.6</ele>
        <time>2020-06-17T16:17:59Z</time>
      </trkpt>
      <trkpt lat="49.45426" lon="0.26073">
        <ele>5.6</ele>
        <time>2020-06-17T16:18:00Z</time>
      </trkpt>
      <trkpt lat="49.45427" lon="0.26065">
        <ele>5.6</ele>
        <time>2020-06-17T16:18:01Z</time>
      </trkpt>
      <trkpt lat="49.45427" lon="0.2606">
        <ele>5.6</ele>
        <time>2020-06-17T16:18:02Z</time>
      </trkpt>
      <trkpt lat="49.45427" lon="0.26052">
        <ele>5.5</ele>
        <time>2020-06-17T16:18:03Z</time>
      </trkpt>
      <trkpt lat="49.45428" lon="0.26045">
        <ele>5.5</ele>
        <time>2020-06-17T16:18:04Z</time>
      </trkpt>
      <trkpt lat="49.45428" lon="0.26038">
        <ele>5.6</ele>
        <time>2020-06-17T16:18:05Z</time>
      </trkpt>
      <trkpt lat="49.45429" lon="0.26031">
        <ele>5.6</ele>
        <time>2020-06-17T16:18:06Z</time>
      </trkpt>
      <trkpt lat="49.4543" lon="0.26026">
        <ele>5.6</ele>
        <time>2020-06-17T16:18:07Z</time>
      </trkpt>
      <trkpt lat="49.45431" lon="0.26018">
        <ele>5.6</ele>
        <time>2020-06-17T16:18:08Z</time>
      </trkpt>
      <trkpt lat="49.45432" lon="0.2601">
        <ele>5.6</ele>
        <time>2020-06-17T16:18:09Z</time>
      </trkpt>
      <trkpt lat="49.45433" lon="0.26003">
        <ele>5.6</ele>
        <time>2020-06-17T16:18:10Z</time>
      </trkpt>
      <trkpt lat="49.45432" lon="0.25996">
        <ele>5.6</ele>
        <time>2020-06-17T16:18:11Z</time>
      </trkpt>
      <trkpt lat="49.45433" lon="0.25989">
        <ele>5.6</ele>
        <time>2020-06-17T16:18:12Z</time>
      </trkpt>
      <trkpt lat="49.45432" lon="0.25984">
        <ele>5.6</ele>
        <time>2020-06-17T16:18:13Z</time>
      </trkpt>
      <trkpt lat="49.45432" lon="0.25976">
        <ele>5.6</ele>
        <time>2020-06-17T16:18:14Z</time>
      </trkpt>
      <trkpt lat="49.45432" lon="0.2597">
        <ele>5.6</ele>
        <time>2020-06-17T16:18:15Z</time>
      </trkpt>
      <trkpt lat="49.45433" lon="0.25961">
        <ele>5.6</ele>
        <time>2020-06-17T16:18:16Z</time>
      </trkpt>
      <trkpt lat="49.45435" lon="0.25954">
        <ele>5.6</ele>
        <time>2020-06-17T16:18:17Z</time>
      </trkpt>
      <trkpt lat="49.45436" lon="0.25946">
        <ele>5.6</ele>
        <time>2020-06-17T16:18:18Z</time>
      </trkpt>
      <trkpt lat="49.45436" lon="0.25939">
        <ele>5.6</ele>
        <time>2020-06-17T16:18:19Z</time>
      </trkpt>
      <trkpt lat="49.45438" lon="0.25932">
        <ele>5.6</ele>
        <time>2020-06-17T16:18:20Z</time>
      </trkpt>
      <trkpt lat="49.45439" lon="0.25924">
        <ele>5.6</ele>
        <time>2020-06-17T16:18:21Z</time>
      </trkpt>
      <trkpt lat="49.4544" lon="0.25918">
        <ele>5.6</ele>
        <time>2020-06-17T16:18:22Z</time>
      </trkpt>
      <trkpt lat="49.45441" lon="0.25912">
        <ele>5.6</ele>
        <time>2020-06-17T16:18:23Z</time>
      </trkpt>
      <trkpt lat="49.45441" lon="0.25904">
        <ele>5.6</ele>
        <time>2020-06-17T16:18:24Z</time>
      </trkpt>
      <trkpt lat="49.45441" lon="0.25897">
        <ele>5.6</ele>
        <time>2020-06-17T16:18:25Z</time>
      </trkpt>
      <trkpt lat="49.45441" lon="0.25891">
        <ele>5.5</ele>
        <time>2020-06-17T16:18:26Z</time>
      </trkpt>
      <trkpt lat="49.45442" lon="0.25884">
        <ele>5.5</ele>
        <time>2020-06-17T16:18:27Z</time>
      </trkpt>
      <trkpt lat="49.45443" lon="0.25879">
        <ele>5.5</ele>
        <time>2020-06-17T16:18:28Z</time>
      </trkpt>
      <trkpt lat="49.45443" lon="0.25874">
        <ele>5.5</ele>
        <time>2020-06-17T16:18:29Z</time>
      </trkpt>
      <trkpt lat="49.45443" lon="0.25868">
        <ele>5.5</ele>
        <time>2020-06-17T16:18:30Z</time>
      </trkpt>
      <trkpt lat="49.45445" lon="0.25862">
        <ele>5.4</ele>
        <time>2020-06-17T16:18:31Z</time>
      </trkpt>
      <trkpt lat="49.45446" lon="0.25856">
        <ele>5.4</ele>
        <time>2020-06-17T16:18:32Z</time>
      </trkpt>
      <trkpt lat="49.45447" lon="0.25849">
        <ele>5.4</ele>
        <time>2020-06-17T16:18:33Z</time>
      </trkpt>
      <trkpt lat="49.45448" lon="0.25842">
        <ele>5.4</ele>
        <time>2020-06-17T16:18:34Z</time>
      </trkpt>
      <trkpt lat="49.45449" lon="0.25834">
        <ele>5.4</ele>
        <time>2020-06-17T16:18:35Z</time>
      </trkpt>
      <trkpt lat="49.45448" lon="0.25827">
        <ele>5.4</ele>
        <time>2020-06-17T16:18:36Z</time>
      </trkpt>
      <trkpt lat="49.45448" lon="0.2582">
        <ele>5.4</ele>
        <time>2020-06-17T16:18:37Z</time>
      </trkpt>
      <trkpt lat="49.45448" lon="0.25814">
        <ele>5.4</ele>
        <time>2020-06-17T16:18:38Z</time>
      </trkpt>
      <trkpt lat="49.45448" lon="0.25807">
        <ele>5.4</ele>
        <time>2020-06-17T16:18:39Z</time>
      </trkpt>
      <trkpt lat="49.45448" lon="0.258">
        <ele>5.4</ele>
        <time>2020-06-17T16:18:40Z</time>
      </trkpt>
      <trkpt lat="49.45449" lon="0.25793">
        <ele>5.4</ele>
        <time>2020-06-17T16:18:41Z</time>
      </trkpt>
      <trkpt lat="49.45449" lon="0.25786">
        <ele>5.4</ele>
        <time>2020-06-17T16:18:42Z</time>
      </trkpt>
      <trkpt lat="49.4545" lon="0.25778">
        <ele>5.4</ele>
        <time>2020-06-17T16:18:43Z</time>
      </trkpt>
      <trkpt lat="49.4545" lon="0.2577">
        <ele>5.4</ele>
        <time>2020-06-17T16:18:44Z</time>
      </trkpt>
      <trkpt lat="49.45451" lon="0.25761">
        <ele>5.4</ele>
        <time>2020-06-17T16:18:45Z</time>
      </trkpt>
      <trkpt lat="49.45452" lon="0.25754">
        <ele>5.4</ele>
        <time>2020-06-17T16:18:46Z</time>
      </trkpt>
      <trkpt lat="49.45453" lon="0.25747">
        <ele>5.4</ele>
        <time>2020-06-17T16:18:47Z</time>
      </trkpt>
      <trkpt lat="49.45454" lon="0.25739">
        <ele>5.4</ele>
        <time>2020-06-17T16:18:48Z</time>
      </trkpt>
      <trkpt lat="49.45454" lon="0.25731">
        <ele>5.4</ele>
        <time>2020-06-17T16:18:49Z</time>
      </trkpt>
      <trkpt lat="49.45455" lon="0.25724">
        <ele>5.4</ele>
        <time>2020-06-17T16:18:50Z</time>
      </trkpt>
      <trkpt lat="49.45456" lon="0.25716">
        <ele>5.4</ele>
        <time>2020-06-17T16:18:51Z</time>
      </trkpt>
      <trkpt lat="49.45456" lon="0.25711">
        <ele>5.4</ele>
        <time>2020-06-17T16:18:52Z</time>
      </trkpt>
      <trkpt lat="49.45456" lon="0.25702">
        <ele>5.3</ele>
        <time>2020-06-17T16:18:53Z</time>
      </trkpt>
      <trkpt lat="49.45457" lon="0.25694">
        <ele>5.3</ele>
        <time>2020-06-17T16:18:54Z</time>
      </trkpt>
      <trkpt lat="49.45457" lon="0.25686">
        <ele>5.3</ele>
        <time>2020-06-17T16:18:55Z</time>
      </trkpt>
      <trkpt lat="49.45458" lon="0.25679">
        <ele>5.3</ele>
        <time>2020-06-17T16:18:56Z</time>
      </trkpt>
      <trkpt lat="49.45458" lon="0.25671">
        <ele>5.3</ele>
        <time>2020-06-17T16:18:57Z</time>
      </trkpt>
      <trkpt lat="49.45459" lon="0.25664">
        <ele>5.3</ele>
        <time>2020-06-17T16:18:58Z</time>
      </trkpt>
      <trkpt lat="49.45459" lon="0.25657">
        <ele>5.3</ele>
        <time>2020-06-17T16:18:59Z</time>
      </trkpt>
      <trkpt lat="49.4546" lon="0.2565">
        <ele>5.3</ele>
        <time>2020-06-17T16:19:00Z</time>
      </trkpt>
      <trkpt lat="49.45461" lon="0.25643">
        <ele>5.3</ele>
        <time>2020-06-17T16:19:01Z</time>
      </trkpt>
      <trkpt lat="49.45461" lon="0.25636">
        <ele>5.3</ele>
        <time>2020-06-17T16:19:02Z</time>
      </trkpt>
      <trkpt lat="49.45461" lon="0.25629">
        <ele>5.4</ele>
        <time>2020-06-17T16:19:03Z</time>
      </trkpt>
      <trkpt lat="49.45461" lon="0.25623">
        <ele>5.4</ele>
        <time>2020-06-17T16:19:04Z</time>
      </trkpt>
      <trkpt lat="49.45462" lon="0.25617">
        <ele>5.5</ele>
        <time>2020-06-17T16:19:05Z</time>
      </trkpt>
      <trkpt lat="49.45463" lon="0.2561">
        <ele>5.5</ele>
        <time>2020-06-17T16:19:06Z</time>
      </trkpt>
      <trkpt lat="49.45464" lon="0.25603">
        <ele>5.7</ele>
        <time>2020-06-17T16:19:07Z</time>
      </trkpt>
      <trkpt lat="49.45466" lon="0.25597">
        <ele>5.9</ele>
        <time>2020-06-17T16:19:08Z</time>
      </trkpt>
      <trkpt lat="49.45468" lon="0.25589">
        <ele>5.9</ele>
        <time>2020-06-17T16:19:09Z</time>
      </trkpt>
      <trkpt lat="49.45469" lon="0.25583">
        <ele>5.9</ele>
        <time>2020-06-17T16:19:10Z</time>
      </trkpt>
      <trkpt lat="49.4547" lon="0.25577">
        <ele>5.9</ele>
        <time>2020-06-17T16:19:11Z</time>
      </trkpt>
      <trkpt lat="49.45471" lon="0.25571">
        <ele>5.9</ele>
        <time>2020-06-17T16:19:12Z</time>
      </trkpt>
      <trkpt lat="49.45471" lon="0.25565">
        <ele>5.9</ele>
        <time>2020-06-17T16:19:13Z</time>
      </trkpt>
      <trkpt lat="49.45472" lon="0.25556">
        <ele>5.8</ele>
        <time>2020-06-17T16:19:14Z</time>
      </trkpt>
      <trkpt lat="49.45472" lon="0.25549">
        <ele>5.8</ele>
        <time>2020-06-17T16:19:15Z</time>
      </trkpt>
      <trkpt lat="49.45473" lon="0.25542">
        <ele>5.8</ele>
        <time>2020-06-17T16:19:16Z</time>
      </trkpt>
      <trkpt lat="49.45473" lon="0.25535">
        <ele>5.7</ele>
        <time>2020-06-17T16:19:17Z</time>
      </trkpt>
      <trkpt lat="49.45474" lon="0.25527">
        <ele>5.7</ele>
        <time>2020-06-17T16:19:18Z</time>
      </trkpt>
      <trkpt lat="49.45474" lon="0.25519">
        <ele>5.7</ele>
        <time>2020-06-17T16:19:19Z</time>
      </trkpt>
      <trkpt lat="49.45474" lon="0.25512">
        <ele>5.7</ele>
        <time>2020-06-17T16:19:20Z</time>
      </trkpt>
      <trkpt lat="49.45474" lon="0.25504">
        <ele>5.6</ele>
        <time>2020-06-17T16:19:21Z</time>
      </trkpt>
      <trkpt lat="49.45475" lon="0.25496">
        <ele>5.6</ele>
        <time>2020-06-17T16:19:22Z</time>
      </trkpt>
      <trkpt lat="49.45475" lon="0.25487">
        <ele>5.6</ele>
        <time>2020-06-17T16:19:23Z</time>
      </trkpt>
      <trkpt lat="49.45475" lon="0.25477">
        <ele>5.5</ele>
        <time>2020-06-17T16:19:24Z</time>
      </trkpt>
      <trkpt lat="49.45476" lon="0.25469">
        <ele>5.5</ele>
        <time>2020-06-17T16:19:25Z</time>
      </trkpt>
      <trkpt lat="49.45476" lon="0.25461">
        <ele>5.5</ele>
        <time>2020-06-17T16:19:26Z</time>
      </trkpt>
      <trkpt lat="49.45477" lon="0.25454">
        <ele>5.5</ele>
        <time>2020-06-17T16:19:27Z</time>
      </trkpt>
      <trkpt lat="49.45477" lon="0.25446">
        <ele>5.5</ele>
        <time>2020-06-17T16:19:28Z</time>
      </trkpt>
      <trkpt lat="49.45478" lon="0.25438">
        <ele>5.5</ele>
        <time>2020-06-17T16:19:29Z</time>
      </trkpt>
      <trkpt lat="49.45478" lon="0.25429">
        <ele>5.5</ele>
        <time>2020-06-17T16:19:30Z</time>
      </trkpt>
      <trkpt lat="49.45479" lon="0.25422">
        <ele>5.5</ele>
        <time>2020-06-17T16:19:31Z</time>
      </trkpt>
      <trkpt lat="49.45479" lon="0.25415">
        <ele>5.5</ele>
        <time>2020-06-17T16:19:32Z</time>
      </trkpt>
      <trkpt lat="49.45479" lon="0.25408">
        <ele>5.4</ele>
        <time>2020-06-17T16:19:33Z</time>
      </trkpt>
      <trkpt lat="49.4548" lon="0.25399">
        <ele>5.4</ele>
        <time>2020-06-17T16:19:34Z</time>
      </trkpt>
      <trkpt lat="49.4548" lon="0.25393">
        <ele>5.4</ele>
        <time>2020-06-17T16:19:35Z</time>
      </trkpt>
      <trkpt lat="49.45481" lon="0.25385">
        <ele>5.4</ele>
        <time>2020-06-17T16:19:36Z</time>
      </trkpt>
      <trkpt lat="49.45482" lon="0.25378">
        <ele>5.4</ele>
        <time>2020-06-17T16:19:37Z</time>
      </trkpt>
      <trkpt lat="49.45483" lon="0.25371">
        <ele>5.3</ele>
        <time>2020-06-17T16:19:38Z</time>
      </trkpt>
      <trkpt lat="49.45483" lon="0.25364">
        <ele>5.3</ele>
        <time>2020-06-17T16:19:39Z</time>
      </trkpt>
      <trkpt lat="49.45484" lon="0.25356">
        <ele>5.3</ele>
        <time>2020-06-17T16:19:40Z</time>
      </trkpt>
      <trkpt lat="49.45484" lon="0.25348">
        <ele>5.2</ele>
        <time>2020-06-17T16:19:41Z</time>
      </trkpt>
      <trkpt lat="49.45485" lon="0.25341">
        <ele>5.2</ele>
        <time>2020-06-17T16:19:42Z</time>
      </trkpt>
      <trkpt lat="49.45486" lon="0.25333">
        <ele>5.2</ele>
        <time>2020-06-17T16:19:43Z</time>
      </trkpt>
      <trkpt lat="49.45486" lon="0.25325">
        <ele>5.2</ele>
        <time>2020-06-17T16:19:44Z</time>
      </trkpt>
      <trkpt lat="49.45487" lon="0.25317">
        <ele>5.2</ele>
        <time>2020-06-17T16:19:45Z</time>
      </trkpt>
      <trkpt lat="49.45488" lon="0.25308">
        <ele>5.1</ele>
        <time>2020-06-17T16:19:46Z</time>
      </trkpt>
      <trkpt lat="49.45488" lon="0.253">
        <ele>5.1</ele>
        <time>2020-06-17T16:19:47Z</time>
      </trkpt>
      <trkpt lat="49.45489" lon="0.25291">
        <ele>5.1</ele>
        <time>2020-06-17T16:19:48Z</time>
      </trkpt>
      <trkpt lat="49.45489" lon="0.25282">
        <ele>5</ele>
        <time>2020-06-17T16:19:49Z</time>
      </trkpt>
      <trkpt lat="49.45489" lon="0.25274">
        <ele>5</ele>
        <time>2020-06-17T16:19:50Z</time>
      </trkpt>
      <trkpt lat="49.4549" lon="0.25267">
        <ele>5</ele>
        <time>2020-06-17T16:19:51Z</time>
      </trkpt>
      <trkpt lat="49.45491" lon="0.25259">
        <ele>5</ele>
        <time>2020-06-17T16:19:52Z</time>
      </trkpt>
      <trkpt lat="49.45491" lon="0.25249">
        <ele>5</ele>
        <time>2020-06-17T16:19:53Z</time>
      </trkpt>
      <trkpt lat="49.45492" lon="0.2524">
        <ele>5</ele>
        <time>2020-06-17T16:19:54Z</time>
      </trkpt>
      <trkpt lat="49.45492" lon="0.25231">
        <ele>5</ele>
        <time>2020-06-17T16:19:55Z</time>
      </trkpt>
      <trkpt lat="49.45492" lon="0.25223">
        <ele>5</ele>
        <time>2020-06-17T16:19:56Z</time>
      </trkpt>
      <trkpt lat="49.45492" lon="0.25214">
        <ele>5.1</ele>
        <time>2020-06-17T16:19:57Z</time>
      </trkpt>
      <trkpt lat="49.45493" lon="0.25205">
        <ele>5.1</ele>
        <time>2020-06-17T16:19:58Z</time>
      </trkpt>
      <trkpt lat="49.45493" lon="0.25196">
        <ele>5.1</ele>
        <time>2020-06-17T16:19:59Z</time>
      </trkpt>
      <trkpt lat="49.45493" lon="0.25186">
        <ele>5.1</ele>
        <time>2020-06-17T16:20:00Z</time>
      </trkpt>
      <trkpt lat="49.45494" lon="0.25177">
        <ele>5.1</ele>
        <time>2020-06-17T16:20:01Z</time>
      </trkpt>
      <trkpt lat="49.45494" lon="0.25169">
        <ele>5.1</ele>
        <time>2020-06-17T16:20:02Z</time>
      </trkpt>
      <trkpt lat="49.45494" lon="0.2516">
        <ele>5.1</ele>
        <time>2020-06-17T16:20:03Z</time>
      </trkpt>
      <trkpt lat="49.45495" lon="0.25151">
        <ele>5.1</ele>
        <time>2020-06-17T16:20:04Z</time>
      </trkpt>
      <trkpt lat="49.45496" lon="0.25143">
        <ele>5</ele>
        <time>2020-06-17T16:20:05Z</time>
      </trkpt>
      <trkpt lat="49.45497" lon="0.25134">
        <ele>5</ele>
        <time>2020-06-17T16:20:06Z</time>
      </trkpt>
      <trkpt lat="49.45496" lon="0.25125">
        <ele>5</ele>
        <time>2020-06-17T16:20:07Z</time>
      </trkpt>
      <trkpt lat="49.45496" lon="0.25117">
        <ele>5</ele>
        <time>2020-06-17T16:20:08Z</time>
      </trkpt>
      <trkpt lat="49.45497" lon="0.25108">
        <ele>4.9</ele>
        <time>2020-06-17T16:20:09Z</time>
      </trkpt>
      <trkpt lat="49.45498" lon="0.25099">
        <ele>4.9</ele>
        <time>2020-06-17T16:20:10Z</time>
      </trkpt>
      <trkpt lat="49.45498" lon="0.2509">
        <ele>4.9</ele>
        <time>2020-06-17T16:20:11Z</time>
      </trkpt>
      <trkpt lat="49.45499" lon="0.25081">
        <ele>4.9</ele>
        <time>2020-06-17T16:20:12Z</time>
      </trkpt>
      <trkpt lat="49.455" lon="0.25072">
        <ele>4.9</ele>
        <time>2020-06-17T16:20:13Z</time>
      </trkpt>
      <trkpt lat="49.455" lon="0.25063">
        <ele>4.9</ele>
        <time>2020-06-17T16:20:14Z</time>
      </trkpt>
      <trkpt lat="49.455" lon="0.25054">
        <ele>4.9</ele>
        <time>2020-06-17T16:20:15Z</time>
      </trkpt>
      <trkpt lat="49.45501" lon="0.25045">
        <ele>4.9</ele>
        <time>2020-06-17T16:20:16Z</time>
      </trkpt>
      <trkpt lat="49.45501" lon="0.25035">
        <ele>4.9</ele>
        <time>2020-06-17T16:20:17Z</time>
      </trkpt>
      <trkpt lat="49.45502" lon="0.25026">
        <ele>4.9</ele>
        <time>2020-06-17T16:20:18Z</time>
      </trkpt>
      <trkpt lat="49.45503" lon="0.25017">
        <ele>4.8</ele>
        <time>2020-06-17T16:20:19Z</time>
      </trkpt>
      <trkpt lat="49.45503" lon="0.25008">
        <ele>4.8</ele>
        <time>2020-06-17T16:20:20Z</time>
      </trkpt>
      <trkpt lat="49.45504" lon="0.24999">
        <ele>4.8</ele>
        <time>2020-06-17T16:20:21Z</time>
      </trkpt>
      <trkpt lat="49.45504" lon="0.2499">
        <ele>4.7</ele>
        <time>2020-06-17T16:20:22Z</time>
      </trkpt>
      <trkpt lat="49.45505" lon="0.24981">
        <ele>4.7</ele>
        <time>2020-06-17T16:20:23Z</time>
      </trkpt>
      <trkpt lat="49.45506" lon="0.24972">
        <ele>4.7</ele>
        <time>2020-06-17T16:20:24Z</time>
      </trkpt>
      <trkpt lat="49.45507" lon="0.24964">
        <ele>4.7</ele>
        <time>2020-06-17T16:20:25Z</time>
      </trkpt>
      <trkpt lat="49.45508" lon="0.24956">
        <ele>4.8</ele>
        <time>2020-06-17T16:20:26Z</time>
      </trkpt>
      <trkpt lat="49.45508" lon="0.24947">
        <ele>4.8</ele>
        <time>2020-06-17T16:20:27Z</time>
      </trkpt>
      <trkpt lat="49.45509" lon="0.24939">
        <ele>4.8</ele>
        <time>2020-06-17T16:20:28Z</time>
      </trkpt>
      <trkpt lat="49.45509" lon="0.2493">
        <ele>4.8</ele>
        <time>2020-06-17T16:20:29Z</time>
      </trkpt>
      <trkpt lat="49.4551" lon="0.2492">
        <ele>4.9</ele>
        <time>2020-06-17T16:20:30Z</time>
      </trkpt>
      <trkpt lat="49.4551" lon="0.24912">
        <ele>4.9</ele>
        <time>2020-06-17T16:20:31Z</time>
      </trkpt>
      <trkpt lat="49.45511" lon="0.24904">
        <ele>4.9</ele>
        <time>2020-06-17T16:20:32Z</time>
      </trkpt>
      <trkpt lat="49.45511" lon="0.24895">
        <ele>4.9</ele>
        <time>2020-06-17T16:20:33Z</time>
      </trkpt>
      <trkpt lat="49.45512" lon="0.24887">
        <ele>4.9</ele>
        <time>2020-06-17T16:20:34Z</time>
      </trkpt>
      <trkpt lat="49.45513" lon="0.24879">
        <ele>4.9</ele>
        <time>2020-06-17T16:20:35Z</time>
      </trkpt>
      <trkpt lat="49.45512" lon="0.24869">
        <ele>4.9</ele>
        <time>2020-06-17T16:20:36Z</time>
      </trkpt>
      <trkpt lat="49.45513" lon="0.2486">
        <ele>4.9</ele>
        <time>2020-06-17T16:20:37Z</time>
      </trkpt>
      <trkpt lat="49.45513" lon="0.24852">
        <ele>5</ele>
        <time>2020-06-17T16:20:38Z</time>
      </trkpt>
      <trkpt lat="49.45514" lon="0.24844">
        <ele>5</ele>
        <time>2020-06-17T16:20:39Z</time>
      </trkpt>
      <trkpt lat="49.45514" lon="0.24835">
        <ele>5</ele>
        <time>2020-06-17T16:20:40Z</time>
      </trkpt>
      <trkpt lat="49.45515" lon="0.24827">
        <ele>5</ele>
        <time>2020-06-17T16:20:41Z</time>
      </trkpt>
      <trkpt lat="49.45515" lon="0.24818">
        <ele>5</ele>
        <time>2020-06-17T16:20:42Z</time>
      </trkpt>
      <trkpt lat="49.45516" lon="0.24809">
        <ele>5</ele>
        <time>2020-06-17T16:20:43Z</time>
      </trkpt>
      <trkpt lat="49.45516" lon="0.24801">
        <ele>5</ele>
        <time>2020-06-17T16:20:44Z</time>
      </trkpt>
      <trkpt lat="49.45516" lon="0.24792">
        <ele>5</ele>
        <time>2020-06-17T16:20:45Z</time>
      </trkpt>
      <trkpt lat="49.45515" lon="0.24783">
        <ele>5.1</ele>
        <time>2020-06-17T16:20:46Z</time>
      </trkpt>
      <trkpt lat="49.45514" lon="0.24774">
        <ele>5.1</ele>
        <time>2020-06-17T16:20:47Z</time>
      </trkpt>
      <trkpt lat="49.45514" lon="0.24766">
        <ele>5</ele>
        <time>2020-06-17T16:20:48Z</time>
      </trkpt>
      <trkpt lat="49.45514" lon="0.24757">
        <ele>5</ele>
        <time>2020-06-17T16:20:49Z</time>
      </trkpt>
      <trkpt lat="49.45514" lon="0.24748">
        <ele>5</ele>
        <time>2020-06-17T16:20:50Z</time>
      </trkpt>
      <trkpt lat="49.45514" lon="0.2474">
        <ele>4.9</ele>
        <time>2020-06-17T16:20:51Z</time>
      </trkpt>
      <trkpt lat="49.45514" lon="0.24731">
        <ele>4.9</ele>
        <time>2020-06-17T16:20:52Z</time>
      </trkpt>
      <trkpt lat="49.45514" lon="0.24722">
        <ele>4.9</ele>
        <time>2020-06-17T16:20:53Z</time>
      </trkpt>
      <trkpt lat="49.45514" lon="0.24713">
        <ele>4.9</ele>
        <time>2020-06-17T16:20:54Z</time>
      </trkpt>
      <trkpt lat="49.45514" lon="0.24706">
        <ele>4.9</ele>
        <time>2020-06-17T16:20:55Z</time>
      </trkpt>
      <trkpt lat="49.45515" lon="0.24698">
        <ele>4.9</ele>
        <time>2020-06-17T16:20:56Z</time>
      </trkpt>
      <trkpt lat="49.45515" lon="0.2469">
        <ele>4.9</ele>
        <time>2020-06-17T16:20:57Z</time>
      </trkpt>
      <trkpt lat="49.45516" lon="0.24681">
        <ele>4.9</ele>
        <time>2020-06-17T16:20:58Z</time>
      </trkpt>
      <trkpt lat="49.45516" lon="0.24673">
        <ele>4.9</ele>
        <time>2020-06-17T16:20:59Z</time>
      </trkpt>
      <trkpt lat="49.45516" lon="0.24665">
        <ele>4.9</ele>
        <time>2020-06-17T16:21:00Z</time>
      </trkpt>
      <trkpt lat="49.45515" lon="0.24657">
        <ele>4.9</ele>
        <time>2020-06-17T16:21:01Z</time>
      </trkpt>
      <trkpt lat="49.45514" lon="0.24649">
        <ele>4.9</ele>
        <time>2020-06-17T16:21:02Z</time>
      </trkpt>
      <trkpt lat="49.45514" lon="0.24641">
        <ele>4.9</ele>
        <time>2020-06-17T16:21:03Z</time>
      </trkpt>
      <trkpt lat="49.45514" lon="0.24632">
        <ele>4.9</ele>
        <time>2020-06-17T16:21:04Z</time>
      </trkpt>
      <trkpt lat="49.45514" lon="0.24624">
        <ele>4.9</ele>
        <time>2020-06-17T16:21:05Z</time>
      </trkpt>
      <trkpt lat="49.45515" lon="0.24617">
        <ele>4.9</ele>
        <time>2020-06-17T16:21:06Z</time>
      </trkpt>
      <trkpt lat="49.45515" lon="0.24609">
        <ele>4.9</ele>
        <time>2020-06-17T16:21:07Z</time>
      </trkpt>
      <trkpt lat="49.45515" lon="0.24602">
        <ele>4.9</ele>
        <time>2020-06-17T16:21:08Z</time>
      </trkpt>
      <trkpt lat="49.45515" lon="0.24594">
        <ele>4.9</ele>
        <time>2020-06-17T16:21:09Z</time>
      </trkpt>
      <trkpt lat="49.45515" lon="0.24586">
        <ele>4.8</ele>
        <time>2020-06-17T16:21:10Z</time>
      </trkpt>
      <trkpt lat="49.45515" lon="0.24578">
        <ele>4.8</ele>
        <time>2020-06-17T16:21:11Z</time>
      </trkpt>
      <trkpt lat="49.45516" lon="0.24571">
        <ele>4.8</ele>
        <time>2020-06-17T16:21:12Z</time>
      </trkpt>
      <trkpt lat="49.45517" lon="0.24562">
        <ele>4.8</ele>
        <time>2020-06-17T16:21:13Z</time>
      </trkpt>
      <trkpt lat="49.45517" lon="0.24553">
        <ele>4.8</ele>
        <time>2020-06-17T16:21:14Z</time>
      </trkpt>
      <trkpt lat="49.45517" lon="0.24545">
        <ele>4.8</ele>
        <time>2020-06-17T16:21:15Z</time>
      </trkpt>
      <trkpt lat="49.45517" lon="0.24537">
        <ele>4.8</ele>
        <time>2020-06-17T16:21:16Z</time>
      </trkpt>
      <trkpt lat="49.45517" lon="0.24528">
        <ele>4.8</ele>
        <time>2020-06-17T16:21:17Z</time>
      </trkpt>
      <trkpt lat="49.45517" lon="0.24518">
        <ele>4.8</ele>
        <time>2020-06-17T16:21:18Z</time>
      </trkpt>
      <trkpt lat="49.45517" lon="0.24509">
        <ele>4.8</ele>
        <time>2020-06-17T16:21:19Z</time>
      </trkpt>
      <trkpt lat="49.45517" lon="0.245">
        <ele>4.8</ele>
        <time>2020-06-17T16:21:20Z</time>
      </trkpt>
      <trkpt lat="49.45518" lon="0.24492">
        <ele>4.8</ele>
        <time>2020-06-17T16:21:21Z</time>
      </trkpt>
      <trkpt lat="49.45518" lon="0.24484">
        <ele>4.8</ele>
        <time>2020-06-17T16:21:22Z</time>
      </trkpt>
      <trkpt lat="49.45519" lon="0.24476">
        <ele>4.8</ele>
        <time>2020-06-17T16:21:23Z</time>
      </trkpt>
      <trkpt lat="49.45519" lon="0.24468">
        <ele>4.9</ele>
        <time>2020-06-17T16:21:24Z</time>
      </trkpt>
      <trkpt lat="49.4552" lon="0.24459">
        <ele>5</ele>
        <time>2020-06-17T16:21:25Z</time>
      </trkpt>
      <trkpt lat="49.4552" lon="0.2445">
        <ele>5.1</ele>
        <time>2020-06-17T16:21:26Z</time>
      </trkpt>
      <trkpt lat="49.45521" lon="0.24441">
        <ele>5.2</ele>
        <time>2020-06-17T16:21:27Z</time>
      </trkpt>
      <trkpt lat="49.45521" lon="0.24433">
        <ele>5.3</ele>
        <time>2020-06-17T16:21:28Z</time>
      </trkpt>
      <trkpt lat="49.45521" lon="0.24426">
        <ele>5.4</ele>
        <time>2020-06-17T16:21:29Z</time>
      </trkpt>
      <trkpt lat="49.45521" lon="0.24419">
        <ele>5.5</ele>
        <time>2020-06-17T16:21:30Z</time>
      </trkpt>
      <trkpt lat="49.45521" lon="0.24412">
        <ele>5.7</ele>
        <time>2020-06-17T16:21:31Z</time>
      </trkpt>
      <trkpt lat="49.4552" lon="0.24404">
        <ele>5.8</ele>
        <time>2020-06-17T16:21:32Z</time>
      </trkpt>
      <trkpt lat="49.45519" lon="0.24396">
        <ele>5.9</ele>
        <time>2020-06-17T16:21:33Z</time>
      </trkpt>
      <trkpt lat="49.45519" lon="0.24389">
        <ele>6</ele>
        <time>2020-06-17T16:21:34Z</time>
      </trkpt>
      <trkpt lat="49.45519" lon="0.24382">
        <ele>6</ele>
        <time>2020-06-17T16:21:35Z</time>
      </trkpt>
      <trkpt lat="49.45519" lon="0.24373">
        <ele>6.1</ele>
        <time>2020-06-17T16:21:36Z</time>
      </trkpt>
      <trkpt lat="49.45519" lon="0.24364">
        <ele>6.2</ele>
        <time>2020-06-17T16:21:37Z</time>
      </trkpt>
      <trkpt lat="49.45519" lon="0.24355">
        <ele>6.3</ele>
        <time>2020-06-17T16:21:38Z</time>
      </trkpt>
      <trkpt lat="49.4552" lon="0.24349">
        <ele>6.4</ele>
        <time>2020-06-17T16:21:39Z</time>
      </trkpt>
      <trkpt lat="49.4552" lon="0.24342">
        <ele>6.4</ele>
        <time>2020-06-17T16:21:40Z</time>
      </trkpt>
      <trkpt lat="49.45519" lon="0.24338">
        <ele>6.5</ele>
        <time>2020-06-17T16:21:41Z</time>
      </trkpt>
      <trkpt lat="49.45519" lon="0.24332">
        <ele>6.6</ele>
        <time>2020-06-17T16:21:42Z</time>
      </trkpt>
      <trkpt lat="49.45519" lon="0.24326">
        <ele>6.7</ele>
        <time>2020-06-17T16:21:43Z</time>
      </trkpt>
      <trkpt lat="49.45519" lon="0.24321">
        <ele>6.7</ele>
        <time>2020-06-17T16:21:44Z</time>
      </trkpt>
      <trkpt lat="49.45519" lon="0.24316">
        <ele>6.8</ele>
        <time>2020-06-17T16:21:45Z</time>
      </trkpt>
      <trkpt lat="49.45518" lon="0.2431">
        <ele>6.9</ele>
        <time>2020-06-17T16:21:46Z</time>
      </trkpt>
      <trkpt lat="49.45519" lon="0.24304">
        <ele>7.1</ele>
        <time>2020-06-17T16:21:47Z</time>
      </trkpt>
      <trkpt lat="49.45519" lon="0.24297">
        <ele>7.2</ele>
        <time>2020-06-17T16:21:48Z</time>
      </trkpt>
      <trkpt lat="49.4552" lon="0.2429">
        <ele>7.3</ele>
        <time>2020-06-17T16:21:49Z</time>
      </trkpt>
      <trkpt lat="49.45521" lon="0.24282">
        <ele>7.5</ele>
        <time>2020-06-17T16:21:50Z</time>
      </trkpt>
      <trkpt lat="49.45521" lon="0.24275">
        <ele>7.6</ele>
        <time>2020-06-17T16:21:51Z</time>
      </trkpt>
      <trkpt lat="49.45521" lon="0.24269">
        <ele>7.7</ele>
        <time>2020-06-17T16:21:52Z</time>
      </trkpt>
      <trkpt lat="49.45521" lon="0.24262">
        <ele>7.8</ele>
        <time>2020-06-17T16:21:53Z</time>
      </trkpt>
      <trkpt lat="49.45521" lon="0.24255">
        <ele>8</ele>
        <time>2020-06-17T16:21:54Z</time>
      </trkpt>
      <trkpt lat="49.45522" lon="0.24248">
        <ele>8.1</ele>
        <time>2020-06-17T16:21:55Z</time>
      </trkpt>
      <trkpt lat="49.45522" lon="0.24241">
        <ele>8.3</ele>
        <time>2020-06-17T16:21:56Z</time>
      </trkpt>
      <trkpt lat="49.45523" lon="0.24234">
        <ele>8.4</ele>
        <time>2020-06-17T16:21:57Z</time>
      </trkpt>
      <trkpt lat="49.45524" lon="0.24226">
        <ele>8.6</ele>
        <time>2020-06-17T16:21:58Z</time>
      </trkpt>
      <trkpt lat="49.45525" lon="0.24218">
        <ele>8.8</ele>
        <time>2020-06-17T16:21:59Z</time>
      </trkpt>
      <trkpt lat="49.45525" lon="0.24211">
        <ele>8.9</ele>
        <time>2020-06-17T16:22:00Z</time>
      </trkpt>
      <trkpt lat="49.45526" lon="0.24204">
        <ele>9.1</ele>
        <time>2020-06-17T16:22:01Z</time>
      </trkpt>
      <trkpt lat="49.45527" lon="0.24197">
        <ele>9.2</ele>
        <time>2020-06-17T16:22:02Z</time>
      </trkpt>
      <trkpt lat="49.45527" lon="0.24191">
        <ele>9.3</ele>
        <time>2020-06-17T16:22:03Z</time>
      </trkpt>
      <trkpt lat="49.45528" lon="0.24185">
        <ele>9.4</ele>
        <time>2020-06-17T16:22:04Z</time>
      </trkpt>
      <trkpt lat="49.45529" lon="0.24179">
        <ele>9.6</ele>
        <time>2020-06-17T16:22:05Z</time>
      </trkpt>
      <trkpt lat="49.4553" lon="0.24172">
        <ele>9.7</ele>
        <time>2020-06-17T16:22:06Z</time>
      </trkpt>
      <trkpt lat="49.45531" lon="0.24165">
        <ele>9.9</ele>
        <time>2020-06-17T16:22:07Z</time>
      </trkpt>
      <trkpt lat="49.45532" lon="0.24159">
        <ele>10</ele>
        <time>2020-06-17T16:22:08Z</time>
      </trkpt>
      <trkpt lat="49.45532" lon="0.24152">
        <ele>10.2</ele>
        <time>2020-06-17T16:22:09Z</time>
      </trkpt>
      <trkpt lat="49.45532" lon="0.24147">
        <ele>10.3</ele>
        <time>2020-06-17T16:22:10Z</time>
      </trkpt>
      <trkpt lat="49.45532" lon="0.2414">
        <ele>10.4</ele>
        <time>2020-06-17T16:22:11Z</time>
      </trkpt>
      <trkpt lat="49.45533" lon="0.24134">
        <ele>10.5</ele>
        <time>2020-06-17T16:22:12Z</time>
      </trkpt>
      <trkpt lat="49.45533" lon="0.24129">
        <ele>10.6</ele>
        <time>2020-06-17T16:22:13Z</time>
      </trkpt>
      <trkpt lat="49.45533" lon="0.24123">
        <ele>10.7</ele>
        <time>2020-06-17T16:22:14Z</time>
      </trkpt>
      <trkpt lat="49.45534" lon="0.24119">
        <ele>10.8</ele>
        <time>2020-06-17T16:22:15Z</time>
      </trkpt>
      <trkpt lat="49.45534" lon="0.24114">
        <ele>10.9</ele>
        <time>2020-06-17T16:22:16Z</time>
      </trkpt>
      <trkpt lat="49.45534" lon="0.24109">
        <ele>11</ele>
        <time>2020-06-17T16:22:17Z</time>
      </trkpt>
      <trkpt lat="49.45535" lon="0.24103">
        <ele>11</ele>
        <time>2020-06-17T16:22:18Z</time>
      </trkpt>
      <trkpt lat="49.45535" lon="0.24098">
        <ele>11.1</ele>
        <time>2020-06-17T16:22:19Z</time>
      </trkpt>
      <trkpt lat="49.45536" lon="0.24093">
        <ele>11.2</ele>
        <time>2020-06-17T16:22:20Z</time>
      </trkpt>
      <trkpt lat="49.45536" lon="0.24087">
        <ele>11.3</ele>
        <time>2020-06-17T16:22:21Z</time>
      </trkpt>
      <trkpt lat="49.45536" lon="0.24081">
        <ele>11.4</ele>
        <time>2020-06-17T16:22:22Z</time>
      </trkpt>
      <trkpt lat="49.45536" lon="0.24076">
        <ele>11.5</ele>
        <time>2020-06-17T16:22:23Z</time>
      </trkpt>
      <trkpt lat="49.45536" lon="0.2407">
        <ele>11.6</ele>
        <time>2020-06-17T16:22:24Z</time>
      </trkpt>
      <trkpt lat="49.45535" lon="0.24064">
        <ele>11.7</ele>
        <time>2020-06-17T16:22:25Z</time>
      </trkpt>
      <trkpt lat="49.45536" lon="0.24057">
        <ele>11.8</ele>
        <time>2020-06-17T16:22:26Z</time>
      </trkpt>
      <trkpt lat="49.45536" lon="0.24051">
        <ele>11.9</ele>
        <time>2020-06-17T16:22:27Z</time>
      </trkpt>
      <trkpt lat="49.45537" lon="0.24045">
        <ele>11.9</ele>
        <time>2020-06-17T16:22:28Z</time>
      </trkpt>
      <trkpt lat="49.45537" lon="0.2404">
        <ele>12</ele>
        <time>2020-06-17T16:22:29Z</time>
      </trkpt>
      <trkpt lat="49.45537" lon="0.24035">
        <ele>12</ele>
        <time>2020-06-17T16:22:30Z</time>
      </trkpt>
      <trkpt lat="49.45537" lon="0.24029">
        <ele>12.1</ele>
        <time>2020-06-17T16:22:31Z</time>
      </trkpt>
      <trkpt lat="49.45537" lon="0.24023">
        <ele>12.2</ele>
        <time>2020-06-17T16:22:32Z</time>
      </trkpt>
      <trkpt lat="49.45537" lon="0.24017">
        <ele>12.2</ele>
        <time>2020-06-17T16:22:33Z</time>
      </trkpt>
      <trkpt lat="49.45537" lon="0.24012">
        <ele>12.3</ele>
        <time>2020-06-17T16:22:34Z</time>
      </trkpt>
      <trkpt lat="49.45537" lon="0.24006">
        <ele>12.4</ele>
        <time>2020-06-17T16:22:35Z</time>
      </trkpt>
      <trkpt lat="49.45537" lon="0.24">
        <ele>12.4</ele>
        <time>2020-06-17T16:22:36Z</time>
      </trkpt>
      <trkpt lat="49.45537" lon="0.23995">
        <ele>12.4</ele>
        <time>2020-06-17T16:22:37Z</time>
      </trkpt>
      <trkpt lat="49.45538" lon="0.23989">
        <ele>12.5</ele>
        <time>2020-06-17T16:22:38Z</time>
      </trkpt>
      <trkpt lat="49.45537" lon="0.23986">
        <ele>12.5</ele>
        <time>2020-06-17T16:22:39Z</time>
      </trkpt>
      <trkpt lat="49.45538" lon="0.2398">
        <ele>12.6</ele>
        <time>2020-06-17T16:22:40Z</time>
      </trkpt>
      <trkpt lat="49.45538" lon="0.23975">
        <ele>12.6</ele>
        <time>2020-06-17T16:22:41Z</time>
      </trkpt>
      <trkpt lat="49.45538" lon="0.2397">
        <ele>12.7</ele>
        <time>2020-06-17T16:22:42Z</time>
      </trkpt>
      <trkpt lat="49.45538" lon="0.23965">
        <ele>12.7</ele>
        <time>2020-06-17T16:22:43Z</time>
      </trkpt>
      <trkpt lat="49.45538" lon="0.2396">
        <ele>12.7</ele>
        <time>2020-06-17T16:22:44Z</time>
      </trkpt>
      <trkpt lat="49.45539" lon="0.23955">
        <ele>12.7</ele>
        <time>2020-06-17T16:22:45Z</time>
      </trkpt>
      <trkpt lat="49.45539" lon="0.23949">
        <ele>12.8</ele>
        <time>2020-06-17T16:22:46Z</time>
      </trkpt>
      <trkpt lat="49.45539" lon="0.23943">
        <ele>12.8</ele>
        <time>2020-06-17T16:22:47Z</time>
      </trkpt>
      <trkpt lat="49.4554" lon="0.23937">
        <ele>12.8</ele>
        <time>2020-06-17T16:22:48Z</time>
      </trkpt>
      <trkpt lat="49.4554" lon="0.23932">
        <ele>12.8</ele>
        <time>2020-06-17T16:22:49Z</time>
      </trkpt>
      <trkpt lat="49.45541" lon="0.23924">
        <ele>12.8</ele>
        <time>2020-06-17T16:22:50Z</time>
      </trkpt>
      <trkpt lat="49.45541" lon="0.23919">
        <ele>12.8</ele>
        <time>2020-06-17T16:22:51Z</time>
      </trkpt>
      <trkpt lat="49.4554" lon="0.23914">
        <ele>12.8</ele>
        <time>2020-06-17T16:22:52Z</time>
      </trkpt>
      <trkpt lat="49.4554" lon="0.2391">
        <ele>12.8</ele>
        <time>2020-06-17T16:22:53Z</time>
      </trkpt>
      <trkpt lat="49.45541" lon="0.23905">
        <ele>12.7</ele>
        <time>2020-06-17T16:22:54Z</time>
      </trkpt>
      <trkpt lat="49.45541" lon="0.23898">
        <ele>12.7</ele>
        <time>2020-06-17T16:22:55Z</time>
      </trkpt>
      <trkpt lat="49.45542" lon="0.23892">
        <ele>12.6</ele>
        <time>2020-06-17T16:22:56Z</time>
      </trkpt>
      <trkpt lat="49.45542" lon="0.23886">
        <ele>12.6</ele>
        <time>2020-06-17T16:22:57Z</time>
      </trkpt>
      <trkpt lat="49.45542" lon="0.23879">
        <ele>12.5</ele>
        <time>2020-06-17T16:22:58Z</time>
      </trkpt>
      <trkpt lat="49.45542" lon="0.23873">
        <ele>12.5</ele>
        <time>2020-06-17T16:22:59Z</time>
      </trkpt>
      <trkpt lat="49.45543" lon="0.23867">
        <ele>12.4</ele>
        <time>2020-06-17T16:23:00Z</time>
      </trkpt>
      <trkpt lat="49.45543" lon="0.23862">
        <ele>12.4</ele>
        <time>2020-06-17T16:23:01Z</time>
      </trkpt>
      <trkpt lat="49.45542" lon="0.23858">
        <ele>12.4</ele>
        <time>2020-06-17T16:23:02Z</time>
      </trkpt>
      <trkpt lat="49.45542" lon="0.23853">
        <ele>12.3</ele>
        <time>2020-06-17T16:23:03Z</time>
      </trkpt>
      <trkpt lat="49.45541" lon="0.23848">
        <ele>12.3</ele>
        <time>2020-06-17T16:23:04Z</time>
      </trkpt>
      <trkpt lat="49.45541" lon="0.23842">
        <ele>12.3</ele>
        <time>2020-06-17T16:23:05Z</time>
      </trkpt>
      <trkpt lat="49.45541" lon="0.23835">
        <ele>12.2</ele>
        <time>2020-06-17T16:23:06Z</time>
      </trkpt>
      <trkpt lat="49.45541" lon="0.2383">
        <ele>12.2</ele>
        <time>2020-06-17T16:23:07Z</time>
      </trkpt>
      <trkpt lat="49.45542" lon="0.23824">
        <ele>12.2</ele>
        <time>2020-06-17T16:23:08Z</time>
      </trkpt>
      <trkpt lat="49.45542" lon="0.23819">
        <ele>12.1</ele>
        <time>2020-06-17T16:23:09Z</time>
      </trkpt>
      <trkpt lat="49.45542" lon="0.23812">
        <ele>12.1</ele>
        <time>2020-06-17T16:23:10Z</time>
      </trkpt>
      <trkpt lat="49.45542" lon="0.23807">
        <ele>12</ele>
        <time>2020-06-17T16:23:11Z</time>
      </trkpt>
      <trkpt lat="49.45543" lon="0.23801">
        <ele>12</ele>
        <time>2020-06-17T16:23:12Z</time>
      </trkpt>
      <trkpt lat="49.45544" lon="0.23795">
        <ele>11.9</ele>
        <time>2020-06-17T16:23:13Z</time>
      </trkpt>
      <trkpt lat="49.45545" lon="0.2379">
        <ele>11.8</ele>
        <time>2020-06-17T16:23:14Z</time>
      </trkpt>
      <trkpt lat="49.45545" lon="0.23783">
        <ele>11.7</ele>
        <time>2020-06-17T16:23:15Z</time>
      </trkpt>
      <trkpt lat="49.45546" lon="0.23777">
        <ele>11.6</ele>
        <time>2020-06-17T16:23:16Z</time>
      </trkpt>
      <trkpt lat="49.45546" lon="0.23771">
        <ele>11.5</ele>
        <time>2020-06-17T16:23:17Z</time>
      </trkpt>
      <trkpt lat="49.45546" lon="0.23765">
        <ele>11.4</ele>
        <time>2020-06-17T16:23:18Z</time>
      </trkpt>
      <trkpt lat="49.45546" lon="0.23759">
        <ele>11.3</ele>
        <time>2020-06-17T16:23:19Z</time>
      </trkpt>
      <trkpt lat="49.45546" lon="0.23754">
        <ele>11.2</ele>
        <time>2020-06-17T16:23:20Z</time>
      </trkpt>
      <trkpt lat="49.45547" lon="0.23749">
        <ele>11.1</ele>
        <time>2020-06-17T16:23:21Z</time>
      </trkpt>
      <trkpt lat="49.45546" lon="0.23742">
        <ele>11</ele>
        <time>2020-06-17T16:23:22Z</time>
      </trkpt>
      <trkpt lat="49.45547" lon="0.23736">
        <ele>10.9</ele>
        <time>2020-06-17T16:23:23Z</time>
      </trkpt>
      <trkpt lat="49.45547" lon="0.2373">
        <ele>10.8</ele>
        <time>2020-06-17T16:23:24Z</time>
      </trkpt>
      <trkpt lat="49.45547" lon="0.23725">
        <ele>10.8</ele>
        <time>2020-06-17T16:23:25Z</time>
      </trkpt>
      <trkpt lat="49.45546" lon="0.2372">
        <ele>10.7</ele>
        <time>2020-06-17T16:23:26Z</time>
      </trkpt>
      <trkpt lat="49.45547" lon="0.23714">
        <ele>10.6</ele>
        <time>2020-06-17T16:23:27Z</time>
      </trkpt>
      <trkpt lat="49.45547" lon="0.23708">
        <ele>10.5</ele>
        <time>2020-06-17T16:23:28Z</time>
      </trkpt>
      <trkpt lat="49.45547" lon="0.23703">
        <ele>10.4</ele>
        <time>2020-06-17T16:23:29Z</time>
      </trkpt>
      <trkpt lat="49.45548" lon="0.23698">
        <ele>10.3</ele>
        <time>2020-06-17T16:23:30Z</time>
      </trkpt>
      <trkpt lat="49.45547" lon="0.23691">
        <ele>10.1</ele>
        <time>2020-06-17T16:23:31Z</time>
      </trkpt>
      <trkpt lat="49.45548" lon="0.23684">
        <ele>10</ele>
        <time>2020-06-17T16:23:32Z</time>
      </trkpt>
      <trkpt lat="49.45548" lon="0.23678">
        <ele>9.8</ele>
        <time>2020-06-17T16:23:33Z</time>
      </trkpt>
      <trkpt lat="49.45549" lon="0.23671">
        <ele>9.7</ele>
        <time>2020-06-17T16:23:34Z</time>
      </trkpt>
      <trkpt lat="49.45549" lon="0.23666">
        <ele>9.6</ele>
        <time>2020-06-17T16:23:35Z</time>
      </trkpt>
      <trkpt lat="49.45549" lon="0.23661">
        <ele>9.5</ele>
        <time>2020-06-17T16:23:36Z</time>
      </trkpt>
      <trkpt lat="49.45548" lon="0.23656">
        <ele>9.3</ele>
        <time>2020-06-17T16:23:37Z</time>
      </trkpt>
      <trkpt lat="49.45548" lon="0.23649">
        <ele>9.2</ele>
        <time>2020-06-17T16:23:38Z</time>
      </trkpt>
      <trkpt lat="49.45548" lon="0.23643">
        <ele>9</ele>
        <time>2020-06-17T16:23:39Z</time>
      </trkpt>
      <trkpt lat="49.45548" lon="0.23636">
        <ele>8.8</ele>
        <time>2020-06-17T16:23:40Z</time>
      </trkpt>
      <trkpt lat="49.45548" lon="0.23628">
        <ele>8.6</ele>
        <time>2020-06-17T16:23:41Z</time>
      </trkpt>
      <trkpt lat="49.45549" lon="0.2362">
        <ele>8.5</ele>
        <time>2020-06-17T16:23:42Z</time>
      </trkpt>
      <trkpt lat="49.45548" lon="0.23612">
        <ele>8.3</ele>
        <time>2020-06-17T16:23:43Z</time>
      </trkpt>
      <trkpt lat="49.45548" lon="0.23605">
        <ele>8.1</ele>
        <time>2020-06-17T16:23:44Z</time>
      </trkpt>
      <trkpt lat="49.45548" lon="0.23598">
        <ele>8</ele>
        <time>2020-06-17T16:23:45Z</time>
      </trkpt>
      <trkpt lat="49.45549" lon="0.23591">
        <ele>7.9</ele>
        <time>2020-06-17T16:23:46Z</time>
      </trkpt>
      <trkpt lat="49.45552" lon="0.23585">
        <ele>7.7</ele>
        <time>2020-06-17T16:23:47Z</time>
      </trkpt>
      <trkpt lat="49.45553" lon="0.23578">
        <ele>7.5</ele>
        <time>2020-06-17T16:23:48Z</time>
      </trkpt>
      <trkpt lat="49.45555" lon="0.23571">
        <ele>7.4</ele>
        <time>2020-06-17T16:23:49Z</time>
      </trkpt>
      <trkpt lat="49.45556" lon="0.23565">
        <ele>7.2</ele>
        <time>2020-06-17T16:23:50Z</time>
      </trkpt>
      <trkpt lat="49.45556" lon="0.23558">
        <ele>7.1</ele>
        <time>2020-06-17T16:23:51Z</time>
      </trkpt>
      <trkpt lat="49.45556" lon="0.23552">
        <ele>7</ele>
        <time>2020-06-17T16:23:52Z</time>
      </trkpt>
      <trkpt lat="49.45556" lon="0.23545">
        <ele>6.9</ele>
        <time>2020-06-17T16:23:53Z</time>
      </trkpt>
      <trkpt lat="49.45557" lon="0.23539">
        <ele>6.8</ele>
        <time>2020-06-17T16:23:54Z</time>
      </trkpt>
      <trkpt lat="49.45559" lon="0.23534">
        <ele>6.7</ele>
        <time>2020-06-17T16:23:55Z</time>
      </trkpt>
      <trkpt lat="49.4556" lon="0.23529">
        <ele>6.6</ele>
        <time>2020-06-17T16:23:56Z</time>
      </trkpt>
      <trkpt lat="49.45562" lon="0.23523">
        <ele>6.5</ele>
        <time>2020-06-17T16:23:57Z</time>
      </trkpt>
      <trkpt lat="49.45563" lon="0.23515">
        <ele>6.4</ele>
        <time>2020-06-17T16:23:58Z</time>
      </trkpt>
      <trkpt lat="49.45565" lon="0.23507">
        <ele>6.2</ele>
        <time>2020-06-17T16:23:59Z</time>
      </trkpt>
      <trkpt lat="49.45567" lon="0.235">
        <ele>6.1</ele>
        <time>2020-06-17T16:24:00Z</time>
      </trkpt>
      <trkpt lat="49.45569" lon="0.23493">
        <ele>6</ele>
        <time>2020-06-17T16:24:01Z</time>
      </trkpt>
      <trkpt lat="49.45571" lon="0.23485">
        <ele>5.8</ele>
        <time>2020-06-17T16:24:02Z</time>
      </trkpt>
      <trkpt lat="49.45573" lon="0.23478">
        <ele>5.7</ele>
        <time>2020-06-17T16:24:03Z</time>
      </trkpt>
      <trkpt lat="49.45575" lon="0.23471">
        <ele>5.6</ele>
        <time>2020-06-17T16:24:04Z</time>
      </trkpt>
      <trkpt lat="49.45577" lon="0.23463">
        <ele>5.5</ele>
        <time>2020-06-17T16:24:05Z</time>
      </trkpt>
      <trkpt lat="49.45577" lon="0.23457">
        <ele>5.3</ele>
        <time>2020-06-17T16:24:06Z</time>
      </trkpt>
      <trkpt lat="49.45578" lon="0.2345">
        <ele>5.2</ele>
        <time>2020-06-17T16:24:07Z</time>
      </trkpt>
      <trkpt lat="49.45579" lon="0.23442">
        <ele>5.1</ele>
        <time>2020-06-17T16:24:08Z</time>
      </trkpt>
      <trkpt lat="49.4558" lon="0.23435">
        <ele>5</ele>
        <time>2020-06-17T16:24:09Z</time>
      </trkpt>
      <trkpt lat="49.4558" lon="0.23427">
        <ele>4.8</ele>
        <time>2020-06-17T16:24:10Z</time>
      </trkpt>
      <trkpt lat="49.45581" lon="0.2342">
        <ele>4.7</ele>
        <time>2020-06-17T16:24:11Z</time>
      </trkpt>
      <trkpt lat="49.45583" lon="0.23412">
        <ele>4.6</ele>
        <time>2020-06-17T16:24:12Z</time>
      </trkpt>
      <trkpt lat="49.45585" lon="0.23405">
        <ele>4.5</ele>
        <time>2020-06-17T16:24:13Z</time>
      </trkpt>
      <trkpt lat="49.45587" lon="0.23397">
        <ele>4.5</ele>
        <time>2020-06-17T16:24:14Z</time>
      </trkpt>
      <trkpt lat="49.45588" lon="0.2339">
        <ele>4.4</ele>
        <time>2020-06-17T16:24:15Z</time>
      </trkpt>
      <trkpt lat="49.45589" lon="0.23384">
        <ele>4.4</ele>
        <time>2020-06-17T16:24:16Z</time>
      </trkpt>
      <trkpt lat="49.45591" lon="0.23379">
        <ele>4.4</ele>
        <time>2020-06-17T16:24:17Z</time>
      </trkpt>
      <trkpt lat="49.45591" lon="0.23377">
        <ele>4.4</ele>
        <time>2020-06-17T16:24:18Z</time>
      </trkpt>
      <trkpt lat="49.45592" lon="0.23374">
        <ele>4.4</ele>
        <time>2020-06-17T16:24:19Z</time>
      </trkpt>
      <trkpt lat="49.45592" lon="0.23373">
        <ele>4.4</ele>
        <time>2020-06-17T16:24:20Z</time>
      </trkpt>
      <trkpt lat="49.45593" lon="0.23372">
        <ele>4.4</ele>
        <time>2020-06-17T16:24:21Z</time>
      </trkpt>
      <trkpt lat="49.45594" lon="0.2337">
        <ele>4.3</ele>
        <time>2020-06-17T16:24:22Z</time>
      </trkpt>
      <trkpt lat="49.45595" lon="0.23366">
        <ele>4.3</ele>
        <time>2020-06-17T16:24:23Z</time>
      </trkpt>
      <trkpt lat="49.45596" lon="0.23364">
        <ele>4.3</ele>
        <time>2020-06-17T16:24:24Z</time>
      </trkpt>
      <trkpt lat="49.45596" lon="0.23359">
        <ele>4.3</ele>
        <time>2020-06-17T16:24:25Z</time>
      </trkpt>
      <trkpt lat="49.45597" lon="0.23355">
        <ele>4.3</ele>
        <time>2020-06-17T16:24:26Z</time>
      </trkpt>
      <trkpt lat="49.45598" lon="0.23349">
        <ele>4.3</ele>
        <time>2020-06-17T16:24:27Z</time>
      </trkpt>
      <trkpt lat="49.45599" lon="0.23345">
        <ele>4.3</ele>
        <time>2020-06-17T16:24:28Z</time>
      </trkpt>
      <trkpt lat="49.456" lon="0.23341">
        <ele>4.3</ele>
        <time>2020-06-17T16:24:29Z</time>
      </trkpt>
      <trkpt lat="49.456" lon="0.23335">
        <ele>4.3</ele>
        <time>2020-06-17T16:24:30Z</time>
      </trkpt>
      <trkpt lat="49.45601" lon="0.23333">
        <ele>4.3</ele>
        <time>2020-06-17T16:24:31Z</time>
      </trkpt>
      <trkpt lat="49.45602" lon="0.23327">
        <ele>4.3</ele>
        <time>2020-06-17T16:24:32Z</time>
      </trkpt>
      <trkpt lat="49.45603" lon="0.23322">
        <ele>4.3</ele>
        <time>2020-06-17T16:24:33Z</time>
      </trkpt>
      <trkpt lat="49.45604" lon="0.23315">
        <ele>4.3</ele>
        <time>2020-06-17T16:24:34Z</time>
      </trkpt>
      <trkpt lat="49.45605" lon="0.23308">
        <ele>4.3</ele>
        <time>2020-06-17T16:24:35Z</time>
      </trkpt>
      <trkpt lat="49.45605" lon="0.23301">
        <ele>4.3</ele>
        <time>2020-06-17T16:24:36Z</time>
      </trkpt>
      <trkpt lat="49.45606" lon="0.23293">
        <ele>4.3</ele>
        <time>2020-06-17T16:24:37Z</time>
      </trkpt>
      <trkpt lat="49.45608" lon="0.23287">
        <ele>4.3</ele>
        <time>2020-06-17T16:24:38Z</time>
      </trkpt>
      <trkpt lat="49.45609" lon="0.23279">
        <ele>4.4</ele>
        <time>2020-06-17T16:24:39Z</time>
      </trkpt>
      <trkpt lat="49.4561" lon="0.23273">
        <ele>4.4</ele>
        <time>2020-06-17T16:24:40Z</time>
      </trkpt>
      <trkpt lat="49.45611" lon="0.23268">
        <ele>4.4</ele>
        <time>2020-06-17T16:24:41Z</time>
      </trkpt>
      <trkpt lat="49.45612" lon="0.23262">
        <ele>4.3</ele>
        <time>2020-06-17T16:24:42Z</time>
      </trkpt>
      <trkpt lat="49.45612" lon="0.23256">
        <ele>4.3</ele>
        <time>2020-06-17T16:24:43Z</time>
      </trkpt>
      <trkpt lat="49.45613" lon="0.2325">
        <ele>4.3</ele>
        <time>2020-06-17T16:24:44Z</time>
      </trkpt>
      <trkpt lat="49.45612" lon="0.23243">
        <ele>4.3</ele>
        <time>2020-06-17T16:24:45Z</time>
      </trkpt>
      <trkpt lat="49.45613" lon="0.23237">
        <ele>4.3</ele>
        <time>2020-06-17T16:24:46Z</time>
      </trkpt>
      <trkpt lat="49.45612" lon="0.2323">
        <ele>4.3</ele>
        <time>2020-06-17T16:24:47Z</time>
      </trkpt>
      <trkpt lat="49.45613" lon="0.23225">
        <ele>4.3</ele>
        <time>2020-06-17T16:24:48Z</time>
      </trkpt>
      <trkpt lat="49.45614" lon="0.2322">
        <ele>4.3</ele>
        <time>2020-06-17T16:24:49Z</time>
      </trkpt>
      <trkpt lat="49.45614" lon="0.23214">
        <ele>4.3</ele>
        <time>2020-06-17T16:24:50Z</time>
      </trkpt>
      <trkpt lat="49.45614" lon="0.23209">
        <ele>4.3</ele>
        <time>2020-06-17T16:24:51Z</time>
      </trkpt>
      <trkpt lat="49.45615" lon="0.23204">
        <ele>4.4</ele>
        <time>2020-06-17T16:24:52Z</time>
      </trkpt>
      <trkpt lat="49.45615" lon="0.23199">
        <ele>4.4</ele>
        <time>2020-06-17T16:24:53Z</time>
      </trkpt>
      <trkpt lat="49.45616" lon="0.23194">
        <ele>4.4</ele>
        <time>2020-06-17T16:24:54Z</time>
      </trkpt>
      <trkpt lat="49.45616" lon="0.23189">
        <ele>4.4</ele>
        <time>2020-06-17T16:24:55Z</time>
      </trkpt>
      <trkpt lat="49.45617" lon="0.23183">
        <ele>4.4</ele>
        <time>2020-06-17T16:24:56Z</time>
      </trkpt>
      <trkpt lat="49.45617" lon="0.23179">
        <ele>4.5</ele>
        <time>2020-06-17T16:24:57Z</time>
      </trkpt>
      <trkpt lat="49.45618" lon="0.23174">
        <ele>4.5</ele>
        <time>2020-06-17T16:24:58Z</time>
      </trkpt>
      <trkpt lat="49.45618" lon="0.23169">
        <ele>4.6</ele>
        <time>2020-06-17T16:24:59Z</time>
      </trkpt>
      <trkpt lat="49.45619" lon="0.23163">
        <ele>4.6</ele>
        <time>2020-06-17T16:25:00Z</time>
      </trkpt>
      <trkpt lat="49.4562" lon="0.23158">
        <ele>4.7</ele>
        <time>2020-06-17T16:25:01Z</time>
      </trkpt>
      <trkpt lat="49.4562" lon="0.23154">
        <ele>4.7</ele>
        <time>2020-06-17T16:25:02Z</time>
      </trkpt>
      <trkpt lat="49.4562" lon="0.23149">
        <ele>4.8</ele>
        <time>2020-06-17T16:25:03Z</time>
      </trkpt>
      <trkpt lat="49.45621" lon="0.23144">
        <ele>4.9</ele>
        <time>2020-06-17T16:25:04Z</time>
      </trkpt>
      <trkpt lat="49.45621" lon="0.2314">
        <ele>4.9</ele>
        <time>2020-06-17T16:25:05Z</time>
      </trkpt>
      <trkpt lat="49.45623" lon="0.23137">
        <ele>5</ele>
        <time>2020-06-17T16:25:06Z</time>
      </trkpt>
      <trkpt lat="49.45624" lon="0.23136">
        <ele>5</ele>
        <time>2020-06-17T16:25:07Z</time>
      </trkpt>
      <trkpt lat="49.45625" lon="0.23131">
        <ele>5.1</ele>
        <time>2020-06-17T16:25:08Z</time>
      </trkpt>
      <trkpt lat="49.45625" lon="0.23129">
        <ele>5.1</ele>
        <time>2020-06-17T16:25:09Z</time>
      </trkpt>
      <trkpt lat="49.45629" lon="0.23128">
        <ele>5.3</ele>
        <time>2020-06-17T16:25:10Z</time>
      </trkpt>
      <trkpt lat="49.4563" lon="0.23127">
        <ele>5.3</ele>
        <time>2020-06-17T16:25:11Z</time>
      </trkpt>
      <trkpt lat="49.45633" lon="0.23127">
        <ele>5.5</ele>
        <time>2020-06-17T16:25:12Z</time>
      </trkpt>
      <trkpt lat="49.45636" lon="0.23125">
        <ele>5.6</ele>
        <time>2020-06-17T16:25:13Z</time>
      </trkpt>
      <trkpt lat="49.45639" lon="0.23124">
        <ele>5.9</ele>
        <time>2020-06-17T16:25:14Z</time>
      </trkpt>
      <trkpt lat="49.45641" lon="0.2312">
        <ele>5.8</ele>
        <time>2020-06-17T16:25:15Z</time>
      </trkpt>
      <trkpt lat="49.45642" lon="0.23117">
        <ele>5.7</ele>
        <time>2020-06-17T16:25:16Z</time>
      </trkpt>
      <trkpt lat="49.45643" lon="0.23112">
        <ele>5.6</ele>
        <time>2020-06-17T16:25:17Z</time>
      </trkpt>
      <trkpt lat="49.45644" lon="0.23107">
        <ele>5.5</ele>
        <time>2020-06-17T16:25:18Z</time>
      </trkpt>
      <trkpt lat="49.45644" lon="0.23101">
        <ele>5.5</ele>
        <time>2020-06-17T16:25:19Z</time>
      </trkpt>
      <trkpt lat="49.45645" lon="0.23096">
        <ele>5.4</ele>
        <time>2020-06-17T16:25:20Z</time>
      </trkpt>
      <trkpt lat="49.45646" lon="0.23091">
        <ele>5.3</ele>
        <time>2020-06-17T16:25:21Z</time>
      </trkpt>
      <trkpt lat="49.45646" lon="0.23085">
        <ele>5.2</ele>
        <time>2020-06-17T16:25:22Z</time>
      </trkpt>
      <trkpt lat="49.45647" lon="0.2308">
        <ele>5.1</ele>
        <time>2020-06-17T16:25:23Z</time>
      </trkpt>
      <trkpt lat="49.45649" lon="0.23075">
        <ele>4.9</ele>
        <time>2020-06-17T16:25:24Z</time>
      </trkpt>
      <trkpt lat="49.4565" lon="0.23069">
        <ele>4.8</ele>
        <time>2020-06-17T16:25:25Z</time>
      </trkpt>
      <trkpt lat="49.4565" lon="0.23063">
        <ele>4.8</ele>
        <time>2020-06-17T16:25:26Z</time>
      </trkpt>
      <trkpt lat="49.45651" lon="0.23057">
        <ele>4.7</ele>
        <time>2020-06-17T16:25:27Z</time>
      </trkpt>
      <trkpt lat="49.45651" lon="0.2305">
        <ele>4.6</ele>
        <time>2020-06-17T16:25:28Z</time>
      </trkpt>
      <trkpt lat="49.45651" lon="0.23043">
        <ele>4.6</ele>
        <time>2020-06-17T16:25:29Z</time>
      </trkpt>
      <trkpt lat="49.45651" lon="0.23035">
        <ele>4.5</ele>
        <time>2020-06-17T16:25:30Z</time>
      </trkpt>
      <trkpt lat="49.45651" lon="0.23028">
        <ele>4.5</ele>
        <time>2020-06-17T16:25:31Z</time>
      </trkpt>
      <trkpt lat="49.45652" lon="0.2302">
        <ele>4.4</ele>
        <time>2020-06-17T16:25:32Z</time>
      </trkpt>
      <trkpt lat="49.45653" lon="0.23013">
        <ele>4.4</ele>
        <time>2020-06-17T16:25:33Z</time>
      </trkpt>
      <trkpt lat="49.45653" lon="0.23004">
        <ele>4.4</ele>
        <time>2020-06-17T16:25:34Z</time>
      </trkpt>
      <trkpt lat="49.45653" lon="0.22995">
        <ele>4.4</ele>
        <time>2020-06-17T16:25:35Z</time>
      </trkpt>
      <trkpt lat="49.45654" lon="0.22987">
        <ele>4.4</ele>
        <time>2020-06-17T16:25:36Z</time>
      </trkpt>
      <trkpt lat="49.45655" lon="0.22979">
        <ele>4.4</ele>
        <time>2020-06-17T16:25:37Z</time>
      </trkpt>
      <trkpt lat="49.45656" lon="0.22971">
        <ele>4.4</ele>
        <time>2020-06-17T16:25:38Z</time>
      </trkpt>
      <trkpt lat="49.45656" lon="0.22963">
        <ele>4.4</ele>
        <time>2020-06-17T16:25:39Z</time>
      </trkpt>
      <trkpt lat="49.45656" lon="0.22954">
        <ele>4.4</ele>
        <time>2020-06-17T16:25:40Z</time>
      </trkpt>
      <trkpt lat="49.45657" lon="0.22946">
        <ele>4.4</ele>
        <time>2020-06-17T16:25:41Z</time>
      </trkpt>
      <trkpt lat="49.45657" lon="0.22938">
        <ele>4.4</ele>
        <time>2020-06-17T16:25:42Z</time>
      </trkpt>
      <trkpt lat="49.45658" lon="0.22929">
        <ele>4.4</ele>
        <time>2020-06-17T16:25:43Z</time>
      </trkpt>
      <trkpt lat="49.45658" lon="0.22921">
        <ele>4.5</ele>
        <time>2020-06-17T16:25:44Z</time>
      </trkpt>
      <trkpt lat="49.45659" lon="0.22913">
        <ele>4.5</ele>
        <time>2020-06-17T16:25:45Z</time>
      </trkpt>
      <trkpt lat="49.4566" lon="0.22904">
        <ele>4.5</ele>
        <time>2020-06-17T16:25:46Z</time>
      </trkpt>
      <trkpt lat="49.4566" lon="0.22896">
        <ele>4.5</ele>
        <time>2020-06-17T16:25:47Z</time>
      </trkpt>
      <trkpt lat="49.4566" lon="0.22887">
        <ele>4.5</ele>
        <time>2020-06-17T16:25:48Z</time>
      </trkpt>
      <trkpt lat="49.45661" lon="0.22879">
        <ele>4.5</ele>
        <time>2020-06-17T16:25:49Z</time>
      </trkpt>
      <trkpt lat="49.45661" lon="0.22871">
        <ele>4.5</ele>
        <time>2020-06-17T16:25:50Z</time>
      </trkpt>
      <trkpt lat="49.45661" lon="0.22862">
        <ele>4.5</ele>
        <time>2020-06-17T16:25:51Z</time>
      </trkpt>
      <trkpt lat="49.45661" lon="0.22854">
        <ele>4.5</ele>
        <time>2020-06-17T16:25:52Z</time>
      </trkpt>
      <trkpt lat="49.45661" lon="0.22846">
        <ele>4.5</ele>
        <time>2020-06-17T16:25:53Z</time>
      </trkpt>
      <trkpt lat="49.45662" lon="0.22838">
        <ele>4.5</ele>
        <time>2020-06-17T16:25:54Z</time>
      </trkpt>
      <trkpt lat="49.45662" lon="0.2283">
        <ele>4.5</ele>
        <time>2020-06-17T16:25:55Z</time>
      </trkpt>
      <trkpt lat="49.45663" lon="0.22822">
        <ele>4.5</ele>
        <time>2020-06-17T16:25:56Z</time>
      </trkpt>
      <trkpt lat="49.45664" lon="0.22814">
        <ele>4.5</ele>
        <time>2020-06-17T16:25:57Z</time>
      </trkpt>
      <trkpt lat="49.45664" lon="0.22806">
        <ele>4.4</ele>
        <time>2020-06-17T16:25:58Z</time>
      </trkpt>
      <trkpt lat="49.45665" lon="0.22799">
        <ele>4.4</ele>
        <time>2020-06-17T16:25:59Z</time>
      </trkpt>
      <trkpt lat="49.45665" lon="0.22791">
        <ele>4.4</ele>
        <time>2020-06-17T16:26:00Z</time>
      </trkpt>
      <trkpt lat="49.45666" lon="0.22783">
        <ele>4.5</ele>
        <time>2020-06-17T16:26:01Z</time>
      </trkpt>
      <trkpt lat="49.45666" lon="0.22774">
        <ele>4.5</ele>
        <time>2020-06-17T16:26:02Z</time>
      </trkpt>
      <trkpt lat="49.45666" lon="0.22766">
        <ele>4.6</ele>
        <time>2020-06-17T16:26:03Z</time>
      </trkpt>
      <trkpt lat="49.45667" lon="0.22758">
        <ele>4.6</ele>
        <time>2020-06-17T16:26:04Z</time>
      </trkpt>
      <trkpt lat="49.45668" lon="0.2275">
        <ele>4.6</ele>
        <time>2020-06-17T16:26:05Z</time>
      </trkpt>
      <trkpt lat="49.45668" lon="0.22742">
        <ele>4.6</ele>
        <time>2020-06-17T16:26:06Z</time>
      </trkpt>
      <trkpt lat="49.45669" lon="0.22734">
        <ele>4.6</ele>
        <time>2020-06-17T16:26:07Z</time>
      </trkpt>
      <trkpt lat="49.45669" lon="0.22726">
        <ele>4.6</ele>
        <time>2020-06-17T16:26:08Z</time>
      </trkpt>
      <trkpt lat="49.4567" lon="0.22718">
        <ele>4.6</ele>
        <time>2020-06-17T16:26:09Z</time>
      </trkpt>
      <trkpt lat="49.4567" lon="0.22709">
        <ele>4.5</ele>
        <time>2020-06-17T16:26:10Z</time>
      </trkpt>
      <trkpt lat="49.45671" lon="0.22701">
        <ele>4.5</ele>
        <time>2020-06-17T16:26:11Z</time>
      </trkpt>
      <trkpt lat="49.45671" lon="0.22693">
        <ele>4.5</ele>
        <time>2020-06-17T16:26:12Z</time>
      </trkpt>
      <trkpt lat="49.45672" lon="0.22684">
        <ele>4.5</ele>
        <time>2020-06-17T16:26:13Z</time>
      </trkpt>
      <trkpt lat="49.45672" lon="0.22676">
        <ele>4.5</ele>
        <time>2020-06-17T16:26:14Z</time>
      </trkpt>
      <trkpt lat="49.45673" lon="0.22667">
        <ele>4.5</ele>
        <time>2020-06-17T16:26:15Z</time>
      </trkpt>
      <trkpt lat="49.45674" lon="0.22659">
        <ele>4.5</ele>
        <time>2020-06-17T16:26:16Z</time>
      </trkpt>
      <trkpt lat="49.45675" lon="0.2265">
        <ele>4.5</ele>
        <time>2020-06-17T16:26:17Z</time>
      </trkpt>
      <trkpt lat="49.45675" lon="0.22642">
        <ele>4.5</ele>
        <time>2020-06-17T16:26:18Z</time>
      </trkpt>
      <trkpt lat="49.45676" lon="0.22633">
        <ele>4.4</ele>
        <time>2020-06-17T16:26:19Z</time>
      </trkpt>
      <trkpt lat="49.45677" lon="0.22624">
        <ele>4.4</ele>
        <time>2020-06-17T16:26:20Z</time>
      </trkpt>
      <trkpt lat="49.45677" lon="0.22616">
        <ele>4.4</ele>
        <time>2020-06-17T16:26:21Z</time>
      </trkpt>
      <trkpt lat="49.45677" lon="0.22607">
        <ele>4.4</ele>
        <time>2020-06-17T16:26:22Z</time>
      </trkpt>
      <trkpt lat="49.45678" lon="0.22599">
        <ele>4.4</ele>
        <time>2020-06-17T16:26:23Z</time>
      </trkpt>
      <trkpt lat="49.45679" lon="0.2259">
        <ele>4.4</ele>
        <time>2020-06-17T16:26:24Z</time>
      </trkpt>
      <trkpt lat="49.4568" lon="0.22581">
        <ele>4.5</ele>
        <time>2020-06-17T16:26:25Z</time>
      </trkpt>
      <trkpt lat="49.45681" lon="0.22572">
        <ele>4.5</ele>
        <time>2020-06-17T16:26:26Z</time>
      </trkpt>
      <trkpt lat="49.45681" lon="0.22563">
        <ele>4.6</ele>
        <time>2020-06-17T16:26:27Z</time>
      </trkpt>
      <trkpt lat="49.45681" lon="0.22554">
        <ele>4.7</ele>
        <time>2020-06-17T16:26:28Z</time>
      </trkpt>
      <trkpt lat="49.45682" lon="0.22545">
        <ele>4.8</ele>
        <time>2020-06-17T16:26:29Z</time>
      </trkpt>
      <trkpt lat="49.45683" lon="0.22537">
        <ele>4.9</ele>
        <time>2020-06-17T16:26:30Z</time>
      </trkpt>
      <trkpt lat="49.45683" lon="0.22528">
        <ele>4.9</ele>
        <time>2020-06-17T16:26:31Z</time>
      </trkpt>
      <trkpt lat="49.45684" lon="0.2252">
        <ele>4.9</ele>
        <time>2020-06-17T16:26:32Z</time>
      </trkpt>
      <trkpt lat="49.45685" lon="0.22511">
        <ele>4.9</ele>
        <time>2020-06-17T16:26:33Z</time>
      </trkpt>
      <trkpt lat="49.45686" lon="0.22502">
        <ele>4.8</ele>
        <time>2020-06-17T16:26:34Z</time>
      </trkpt>
      <trkpt lat="49.45686" lon="0.22492">
        <ele>4.8</ele>
        <time>2020-06-17T16:26:35Z</time>
      </trkpt>
      <trkpt lat="49.45687" lon="0.22483">
        <ele>4.8</ele>
        <time>2020-06-17T16:26:36Z</time>
      </trkpt>
      <trkpt lat="49.45688" lon="0.22474">
        <ele>4.7</ele>
        <time>2020-06-17T16:26:37Z</time>
      </trkpt>
      <trkpt lat="49.45688" lon="0.22465">
        <ele>4.7</ele>
        <time>2020-06-17T16:26:38Z</time>
      </trkpt>
      <trkpt lat="49.45688" lon="0.22456">
        <ele>4.7</ele>
        <time>2020-06-17T16:26:39Z</time>
      </trkpt>
      <trkpt lat="49.45689" lon="0.22446">
        <ele>4.7</ele>
        <time>2020-06-17T16:26:40Z</time>
      </trkpt>
      <trkpt lat="49.45689" lon="0.22437">
        <ele>4.7</ele>
        <time>2020-06-17T16:26:41Z</time>
      </trkpt>
      <trkpt lat="49.4569" lon="0.22428">
        <ele>4.7</ele>
        <time>2020-06-17T16:26:42Z</time>
      </trkpt>
      <trkpt lat="49.45691" lon="0.22419">
        <ele>4.7</ele>
        <time>2020-06-17T16:26:43Z</time>
      </trkpt>
      <trkpt lat="49.45691" lon="0.22411">
        <ele>4.7</ele>
        <time>2020-06-17T16:26:44Z</time>
      </trkpt>
      <trkpt lat="49.45691" lon="0.22402">
        <ele>4.7</ele>
        <time>2020-06-17T16:26:45Z</time>
      </trkpt>
      <trkpt lat="49.45691" lon="0.22393">
        <ele>4.6</ele>
        <time>2020-06-17T16:26:46Z</time>
      </trkpt>
      <trkpt lat="49.45691" lon="0.22384">
        <ele>4.6</ele>
        <time>2020-06-17T16:26:47Z</time>
      </trkpt>
      <trkpt lat="49.45691" lon="0.22375">
        <ele>4.6</ele>
        <time>2020-06-17T16:26:48Z</time>
      </trkpt>
      <trkpt lat="49.45692" lon="0.22366">
        <ele>4.6</ele>
        <time>2020-06-17T16:26:49Z</time>
      </trkpt>
      <trkpt lat="49.45693" lon="0.22357">
        <ele>4.6</ele>
        <time>2020-06-17T16:26:50Z</time>
      </trkpt>
      <trkpt lat="49.45693" lon="0.22348">
        <ele>4.6</ele>
        <time>2020-06-17T16:26:51Z</time>
      </trkpt>
      <trkpt lat="49.45693" lon="0.22339">
        <ele>4.7</ele>
        <time>2020-06-17T16:26:52Z</time>
      </trkpt>
      <trkpt lat="49.45694" lon="0.2233">
        <ele>4.7</ele>
        <time>2020-06-17T16:26:53Z</time>
      </trkpt>
      <trkpt lat="49.45694" lon="0.22321">
        <ele>4.7</ele>
        <time>2020-06-17T16:26:54Z</time>
      </trkpt>
      <trkpt lat="49.45695" lon="0.22313">
        <ele>4.7</ele>
        <time>2020-06-17T16:26:55Z</time>
      </trkpt>
      <trkpt lat="49.45696" lon="0.22304">
        <ele>4.7</ele>
        <time>2020-06-17T16:26:56Z</time>
      </trkpt>
      <trkpt lat="49.45697" lon="0.22295">
        <ele>4.7</ele>
        <time>2020-06-17T16:26:57Z</time>
      </trkpt>
      <trkpt lat="49.45697" lon="0.22287">
        <ele>4.7</ele>
        <time>2020-06-17T16:26:58Z</time>
      </trkpt>
      <trkpt lat="49.45698" lon="0.22278">
        <ele>4.7</ele>
        <time>2020-06-17T16:26:59Z</time>
      </trkpt>
      <trkpt lat="49.45699" lon="0.22269">
        <ele>4.7</ele>
        <time>2020-06-17T16:27:00Z</time>
      </trkpt>
      <trkpt lat="49.457" lon="0.22261">
        <ele>4.7</ele>
        <time>2020-06-17T16:27:01Z</time>
      </trkpt>
      <trkpt lat="49.45701" lon="0.22253">
        <ele>4.7</ele>
        <time>2020-06-17T16:27:02Z</time>
      </trkpt>
      <trkpt lat="49.45702" lon="0.22245">
        <ele>4.7</ele>
        <time>2020-06-17T16:27:03Z</time>
      </trkpt>
      <trkpt lat="49.45702" lon="0.22236">
        <ele>4.7</ele>
        <time>2020-06-17T16:27:04Z</time>
      </trkpt>
      <trkpt lat="49.45703" lon="0.22228">
        <ele>4.6</ele>
        <time>2020-06-17T16:27:05Z</time>
      </trkpt>
      <trkpt lat="49.45703" lon="0.2222">
        <ele>4.6</ele>
        <time>2020-06-17T16:27:06Z</time>
      </trkpt>
      <trkpt lat="49.45704" lon="0.22212">
        <ele>4.6</ele>
        <time>2020-06-17T16:27:07Z</time>
      </trkpt>
      <trkpt lat="49.45705" lon="0.22206">
        <ele>4.6</ele>
        <time>2020-06-17T16:27:08Z</time>
      </trkpt>
      <trkpt lat="49.45705" lon="0.222">
        <ele>4.6</ele>
        <time>2020-06-17T16:27:09Z</time>
      </trkpt>
      <trkpt lat="49.45705" lon="0.22195">
        <ele>4.6</ele>
        <time>2020-06-17T16:27:10Z</time>
      </trkpt>
      <trkpt lat="49.45705" lon="0.22193">
        <ele>4.6</ele>
        <time>2020-06-17T16:27:11Z</time>
      </trkpt>
      <trkpt lat="49.45702" lon="0.22193">
        <ele>4.6</ele>
        <time>2020-06-17T16:27:12Z</time>
      </trkpt>
      <trkpt lat="49.45701" lon="0.22194">
        <ele>4.6</ele>
        <time>2020-06-17T16:27:13Z</time>
      </trkpt>
      <trkpt lat="49.45701" lon="0.22199">
        <ele>4.6</ele>
        <time>2020-06-17T16:27:14Z</time>
      </trkpt>
      <trkpt lat="49.45701" lon="0.22203">
        <ele>4.6</ele>
        <time>2020-06-17T16:27:15Z</time>
      </trkpt>
      <trkpt lat="49.45701" lon="0.22209">
        <ele>4.6</ele>
        <time>2020-06-17T16:27:16Z</time>
      </trkpt>
      <trkpt lat="49.45701" lon="0.22214">
        <ele>4.6</ele>
        <time>2020-06-17T16:27:17Z</time>
      </trkpt>
      <trkpt lat="49.457" lon="0.2222">
        <ele>4.7</ele>
        <time>2020-06-17T16:27:18Z</time>
      </trkpt>
      <trkpt lat="49.457" lon="0.22225">
        <ele>4.7</ele>
        <time>2020-06-17T16:27:19Z</time>
      </trkpt>
      <trkpt lat="49.45699" lon="0.22231">
        <ele>4.7</ele>
        <time>2020-06-17T16:27:20Z</time>
      </trkpt>
      <trkpt lat="49.45698" lon="0.22237">
        <ele>4.7</ele>
        <time>2020-06-17T16:27:21Z</time>
      </trkpt>
      <trkpt lat="49.45697" lon="0.22243">
        <ele>4.7</ele>
        <time>2020-06-17T16:27:22Z</time>
      </trkpt>
      <trkpt lat="49.45696" lon="0.22248">
        <ele>4.3</ele>
        <time>2020-06-17T16:27:23Z</time>
      </trkpt>
      <trkpt lat="49.45695" lon="0.22253">
        <ele>4.1</ele>
        <time>2020-06-17T16:27:24Z</time>
      </trkpt>
      <trkpt lat="49.45692" lon="0.22258">
        <ele>4</ele>
        <time>2020-06-17T16:27:25Z</time>
      </trkpt>
      <trkpt lat="49.4569" lon="0.22262">
        <ele>3.8</ele>
        <time>2020-06-17T16:27:26Z</time>
      </trkpt>
      <trkpt lat="49.45686" lon="0.22266">
        <ele>3.7</ele>
        <time>2020-06-17T16:27:27Z</time>
      </trkpt>
      <trkpt lat="49.45683" lon="0.22269">
        <ele>3.5</ele>
        <time>2020-06-17T16:27:28Z</time>
      </trkpt>
      <trkpt lat="49.4568" lon="0.22272">
        <ele>3.3</ele>
        <time>2020-06-17T16:27:29Z</time>
      </trkpt>
      <trkpt lat="49.45676" lon="0.22276">
        <ele>3.2</ele>
        <time>2020-06-17T16:27:30Z</time>
      </trkpt>
      <trkpt lat="49.45673" lon="0.22278">
        <ele>3.2</ele>
        <time>2020-06-17T16:27:31Z</time>
      </trkpt>
      <trkpt lat="49.45669" lon="0.22281">
        <ele>3.4</ele>
        <time>2020-06-17T16:27:32Z</time>
      </trkpt>
      <trkpt lat="49.45665" lon="0.22283">
        <ele>3.5</ele>
        <time>2020-06-17T16:27:33Z</time>
      </trkpt>
      <trkpt lat="49.45662" lon="0.22283">
        <ele>3.6</ele>
        <time>2020-06-17T16:27:34Z</time>
      </trkpt>
      <trkpt lat="49.45658" lon="0.22282">
        <ele>3.5</ele>
        <time>2020-06-17T16:27:35Z</time>
      </trkpt>
      <trkpt lat="49.45654" lon="0.22283">
        <ele>3.5</ele>
        <time>2020-06-17T16:27:36Z</time>
      </trkpt>
      <trkpt lat="49.4565" lon="0.22283">
        <ele>3.5</ele>
        <time>2020-06-17T16:27:37Z</time>
      </trkpt>
      <trkpt lat="49.45647" lon="0.22283">
        <ele>3.4</ele>
        <time>2020-06-17T16:27:38Z</time>
      </trkpt>
      <trkpt lat="49.45643" lon="0.22285">
        <ele>3.3</ele>
        <time>2020-06-17T16:27:39Z</time>
      </trkpt>
      <trkpt lat="49.45639" lon="0.22287">
        <ele>3.3</ele>
        <time>2020-06-17T16:27:40Z</time>
      </trkpt>
      <trkpt lat="49.45635" lon="0.22286">
        <ele>3.2</ele>
        <time>2020-06-17T16:27:41Z</time>
      </trkpt>
      <trkpt lat="49.45632" lon="0.22286">
        <ele>3.2</ele>
        <time>2020-06-17T16:27:42Z</time>
      </trkpt>
      <trkpt lat="49.45629" lon="0.22285">
        <ele>3.1</ele>
        <time>2020-06-17T16:27:43Z</time>
      </trkpt>
      <trkpt lat="49.45625" lon="0.22284">
        <ele>3.1</ele>
        <time>2020-06-17T16:27:44Z</time>
      </trkpt>
      <trkpt lat="49.45624" lon="0.22283">
        <ele>3.1</ele>
        <time>2020-06-17T16:27:45Z</time>
      </trkpt>
      <trkpt lat="49.45621" lon="0.22281">
        <ele>3.1</ele>
        <time>2020-06-17T16:27:46Z</time>
      </trkpt>
      <trkpt lat="49.4562" lon="0.22281">
        <ele>3.1</ele>
        <time>2020-06-17T16:27:47Z</time>
      </trkpt>
      <trkpt lat="49.45617" lon="0.22282">
        <ele>3.1</ele>
        <time>2020-06-17T16:27:48Z</time>
      </trkpt>
      <trkpt lat="49.45616" lon="0.22282">
        <ele>3.1</ele>
        <time>2020-06-17T16:27:49Z</time>
      </trkpt>
      <trkpt lat="49.45615" lon="0.22282">
        <ele>3.1</ele>
        <time>2020-06-17T16:27:50Z</time>
      </trkpt>
      <trkpt lat="49.45613" lon="0.22283">
        <ele>3.1</ele>
        <time>2020-06-17T16:27:51Z</time>
      </trkpt>
      <trkpt lat="49.45611" lon="0.22283">
        <ele>3.1</ele>
        <time>2020-06-17T16:27:52Z</time>
      </trkpt>
      <trkpt lat="49.4561" lon="0.22284">
        <ele>3.1</ele>
        <time>2020-06-17T16:27:53Z</time>
      </trkpt>
      <trkpt lat="49.45608" lon="0.22283">
        <ele>3.1</ele>
        <time>2020-06-17T16:27:54Z</time>
      </trkpt>
      <trkpt lat="49.45606" lon="0.22282">
        <ele>3.1</ele>
        <time>2020-06-17T16:27:55Z</time>
      </trkpt>
      <trkpt lat="49.45604" lon="0.22281">
        <ele>3.1</ele>
        <time>2020-06-17T16:27:56Z</time>
      </trkpt>
      <trkpt lat="49.45603" lon="0.22281">
        <ele>3.1</ele>
        <time>2020-06-17T16:27:57Z</time>
      </trkpt>
      <trkpt lat="49.45601" lon="0.22282">
        <ele>3.1</ele>
        <time>2020-06-17T16:27:58Z</time>
      </trkpt>
      <trkpt lat="49.456" lon="0.22283">
        <ele>3.1</ele>
        <time>2020-06-17T16:27:59Z</time>
      </trkpt>
      <trkpt lat="49.456" lon="0.22284">
        <ele>3.1</ele>
        <time>2020-06-17T16:28:00Z</time>
      </trkpt>
      <trkpt lat="49.456" lon="0.22285">
        <ele>3.1</ele>
        <time>2020-06-17T16:28:01Z</time>
      </trkpt>
      <trkpt lat="49.456" lon="0.22285">
        <ele>3.1</ele>
        <time>2020-06-17T16:28:02Z</time>
      </trkpt>
      <trkpt lat="49.456" lon="0.22286">
        <ele>3.1</ele>
        <time>2020-06-17T16:28:03Z</time>
      </trkpt>
      <trkpt lat="49.456" lon="0.22285">
        <ele>3.1</ele>
        <time>2020-06-17T16:28:04Z</time>
      </trkpt>
      <trkpt lat="49.456" lon="0.22285">
        <ele>3.1</ele>
        <time>2020-06-17T16:28:05Z</time>
      </trkpt>
      <trkpt lat="49.45599" lon="0.22285">
        <ele>3.1</ele>
        <time>2020-06-17T16:28:06Z</time>
      </trkpt>
      <trkpt lat="49.45599" lon="0.22285">
        <ele>3.1</ele>
        <time>2020-06-17T16:28:07Z</time>
      </trkpt>
      <trkpt lat="49.45599" lon="0.22285">
        <ele>3.1</ele>
        <time>2020-06-17T16:28:08Z</time>
      </trkpt>
      <trkpt lat="49.45599" lon="0.22285">
        <ele>3.1</ele>
        <time>2020-06-17T16:28:09Z</time>
      </trkpt>
      <trkpt lat="49.45599" lon="0.22286">
        <ele>3.1</ele>
        <time>2020-06-17T16:28:10Z</time>
      </trkpt>
      <trkpt lat="49.45596" lon="0.22285">
        <ele>3.1</ele>
        <time>2020-06-17T16:28:13Z</time>
      </trkpt>
      <trkpt lat="49.45594" lon="0.22285">
        <ele>3.1</ele>
        <time>2020-06-17T16:28:14Z</time>
      </trkpt>
      <trkpt lat="49.45592" lon="0.22285">
        <ele>3.1</ele>
        <time>2020-06-17T16:28:15Z</time>
      </trkpt>
      <trkpt lat="49.45591" lon="0.22285">
        <ele>3.1</ele>
        <time>2020-06-17T16:28:16Z</time>
      </trkpt>
      <trkpt lat="49.45589" lon="0.22286">
        <ele>3.1</ele>
        <time>2020-06-17T16:28:17Z</time>
      </trkpt>
      <trkpt lat="49.45588" lon="0.22285">
        <ele>3.1</ele>
        <time>2020-06-17T16:28:18Z</time>
      </trkpt>
      <trkpt lat="49.45588" lon="0.22285">
        <ele>3.1</ele>
        <time>2020-06-17T16:28:19Z</time>
      </trkpt>
      <trkpt lat="49.45588" lon="0.22284">
        <ele>3.1</ele>
        <time>2020-06-17T16:28:20Z</time>
      </trkpt>
      <trkpt lat="49.45589" lon="0.22283">
        <ele>3.1</ele>
        <time>2020-06-17T16:28:21Z</time>
      </trkpt>
      <trkpt lat="49.45588" lon="0.22282">
        <ele>3.1</ele>
        <time>2020-06-17T16:28:22Z</time>
      </trkpt>
      <trkpt lat="49.45588" lon="0.22282">
        <ele>3.1</ele>
        <time>2020-06-17T16:28:23Z</time>
      </trkpt>
      <trkpt lat="49.45588" lon="0.22282">
        <ele>3.1</ele>
        <time>2020-06-17T16:28:24Z</time>
      </trkpt>
      <trkpt lat="49.45588" lon="0.22282">
        <ele>3.1</ele>
        <time>2020-06-17T16:28:25Z</time>
      </trkpt>
      <trkpt lat="49.45588" lon="0.22281">
        <ele>3.1</ele>
        <time>2020-06-17T16:28:26Z</time>
      </trkpt>
      <trkpt lat="49.45588" lon="0.22281">
        <ele>3.1</ele>
        <time>2020-06-17T16:28:27Z</time>
      </trkpt>
      <trkpt lat="49.45588" lon="0.22282">
        <ele>3.1</ele>
        <time>2020-06-17T16:28:28Z</time>
      </trkpt>
      <trkpt lat="49.45595" lon="0.22275">
        <ele>3.1</ele>
        <time>2020-06-17T16:28:50Z</time>
      </trkpt>
      <trkpt lat="49.45596" lon="0.22274">
        <ele>3.1</ele>
        <time>2020-06-17T16:28:51Z</time>
      </trkpt>
      <trkpt lat="49.45598" lon="0.22274">
        <ele>3.1</ele>
        <time>2020-06-17T16:28:52Z</time>
      </trkpt>
      <trkpt lat="49.456" lon="0.22278">
        <ele>3.1</ele>
        <time>2020-06-17T16:28:53Z</time>
      </trkpt>
      <trkpt lat="49.45603" lon="0.22277">
        <ele>3.1</ele>
        <time>2020-06-17T16:28:54Z</time>
      </trkpt>
      <trkpt lat="49.45604" lon="0.22276">
        <ele>3.1</ele>
        <time>2020-06-17T16:28:55Z</time>
      </trkpt>
      <trkpt lat="49.45607" lon="0.22276">
        <ele>3.1</ele>
        <time>2020-06-17T16:28:56Z</time>
      </trkpt>
      <trkpt lat="49.45608" lon="0.22276">
        <ele>3.1</ele>
        <time>2020-06-17T16:28:57Z</time>
      </trkpt>
      <trkpt lat="49.45611" lon="0.22276">
        <ele>3.1</ele>
        <time>2020-06-17T16:28:58Z</time>
      </trkpt>
      <trkpt lat="49.45612" lon="0.22275">
        <ele>3.1</ele>
        <time>2020-06-17T16:28:59Z</time>
      </trkpt>
      <trkpt lat="49.45615" lon="0.22274">
        <ele>3.1</ele>
        <time>2020-06-17T16:29:00Z</time>
      </trkpt>
      <trkpt lat="49.45616" lon="0.22273">
        <ele>3.1</ele>
        <time>2020-06-17T16:29:01Z</time>
      </trkpt>
      <trkpt lat="49.45616" lon="0.2227">
        <ele>3.2</ele>
        <time>2020-06-17T16:29:02Z</time>
      </trkpt>
      <trkpt lat="49.45616" lon="0.22268">
        <ele>3.2</ele>
        <time>2020-06-17T16:29:03Z</time>
      </trkpt>
      <trkpt lat="49.45616" lon="0.22267">
        <ele>3.2</ele>
        <time>2020-06-17T16:29:04Z</time>
      </trkpt>
      <trkpt lat="49.45615" lon="0.22265">
        <ele>3.2</ele>
        <time>2020-06-17T16:29:05Z</time>
      </trkpt>
      <trkpt lat="49.45616" lon="0.22264">
        <ele>3.2</ele>
        <time>2020-06-17T16:29:06Z</time>
      </trkpt>
      <trkpt lat="49.45616" lon="0.22263">
        <ele>3.2</ele>
        <time>2020-06-17T16:29:07Z</time>
      </trkpt>
      <trkpt lat="49.45616" lon="0.22263">
        <ele>3.2</ele>
        <time>2020-06-17T16:29:08Z</time>
      </trkpt>
      <trkpt lat="49.45615" lon="0.22263">
        <ele>3.2</ele>
        <time>2020-06-17T16:29:09Z</time>
      </trkpt>
      <trkpt lat="49.45615" lon="0.22264">
        <ele>3.2</ele>
        <time>2020-06-17T16:29:10Z</time>
      </trkpt>
      <trkpt lat="49.45615" lon="0.22264">
        <ele>3.2</ele>
        <time>2020-06-17T16:29:11Z</time>
      </trkpt>
      <trkpt lat="49.45614" lon="0.22264">
        <ele>3.2</ele>
        <time>2020-06-17T16:29:12Z</time>
      </trkpt>
      <trkpt lat="49.45614" lon="0.22264">
        <ele>3.2</ele>
        <time>2020-06-17T16:29:13Z</time>
      </trkpt>
      <trkpt lat="49.45614" lon="0.22264">
        <ele>3.2</ele>
        <time>2020-06-17T16:29:14Z</time>
      </trkpt>
      <trkpt lat="49.45613" lon="0.22264">
        <ele>3.2</ele>
        <time>2020-06-17T16:29:15Z</time>
      </trkpt>
      <trkpt lat="49.45612" lon="0.22261">
        <ele>3.2</ele>
        <time>2020-06-17T16:29:16Z</time>
      </trkpt>
      <trkpt lat="49.45611" lon="0.22257">
        <ele>3.2</ele>
        <time>2020-06-17T16:30:15Z</time>
      </trkpt>
      <trkpt lat="49.4561" lon="0.22254">
        <ele>3.2</ele>
        <time>2020-06-17T16:30:16Z</time>
      </trkpt>
      <trkpt lat="49.4561" lon="0.22248">
        <ele>3.2</ele>
        <time>2020-06-17T16:30:17Z</time>
      </trkpt>
      <trkpt lat="49.4561" lon="0.22246">
        <ele>3.2</ele>
        <time>2020-06-17T16:30:18Z</time>
      </trkpt>
      <trkpt lat="49.45609" lon="0.2224">
        <ele>3.2</ele>
        <time>2020-06-17T16:30:19Z</time>
      </trkpt>
      <trkpt lat="49.45609" lon="0.22238">
        <ele>3.2</ele>
        <time>2020-06-17T16:30:20Z</time>
      </trkpt>
      <trkpt lat="49.45609" lon="0.22232">
        <ele>3.2</ele>
        <time>2020-06-17T16:30:21Z</time>
      </trkpt>
      <trkpt lat="49.45609" lon="0.2223">
        <ele>3.2</ele>
        <time>2020-06-17T16:30:22Z</time>
      </trkpt>
      <trkpt lat="49.45609" lon="0.22226">
        <ele>3.3</ele>
        <time>2020-06-17T16:30:23Z</time>
      </trkpt>
      <trkpt lat="49.45609" lon="0.22221">
        <ele>3.3</ele>
        <time>2020-06-17T16:30:24Z</time>
      </trkpt>
      <trkpt lat="49.4561" lon="0.22215">
        <ele>3.3</ele>
        <time>2020-06-17T16:30:25Z</time>
      </trkpt>
      <trkpt lat="49.4561" lon="0.22214">
        <ele>3.3</ele>
        <time>2020-06-17T16:30:26Z</time>
      </trkpt>
      <trkpt lat="49.4561" lon="0.22208">
        <ele>3.3</ele>
        <time>2020-06-17T16:30:27Z</time>
      </trkpt>
      <trkpt lat="49.4561" lon="0.22206">
        <ele>3.3</ele>
        <time>2020-06-17T16:30:28Z</time>
      </trkpt>
      <trkpt lat="49.45609" lon="0.22201">
        <ele>3.3</ele>
        <time>2020-06-17T16:30:29Z</time>
      </trkpt>
      <trkpt lat="49.45609" lon="0.222">
        <ele>3.3</ele>
        <time>2020-06-17T16:30:30Z</time>
      </trkpt>
      <trkpt lat="49.45609" lon="0.22195">
        <ele>3.3</ele>
        <time>2020-06-17T16:30:31Z</time>
      </trkpt>
      <trkpt lat="49.45609" lon="0.22194">
        <ele>3.3</ele>
        <time>2020-06-17T16:30:32Z</time>
      </trkpt>
      <trkpt lat="49.45609" lon="0.22191">
        <ele>3.3</ele>
        <time>2020-06-17T16:30:33Z</time>
      </trkpt>
      <trkpt lat="49.45608" lon="0.22188">
        <ele>3.3</ele>
        <time>2020-06-17T16:30:34Z</time>
      </trkpt>
      <trkpt lat="49.45608" lon="0.22186">
        <ele>3.3</ele>
        <time>2020-06-17T16:30:35Z</time>
      </trkpt>
      <trkpt lat="49.45608" lon="0.22184">
        <ele>3.3</ele>
        <time>2020-06-17T16:30:36Z</time>
      </trkpt>
      <trkpt lat="49.45608" lon="0.22183">
        <ele>3.3</ele>
        <time>2020-06-17T16:30:37Z</time>
      </trkpt>
      <trkpt lat="49.45608" lon="0.22183">
        <ele>3.3</ele>
        <time>2020-06-17T16:30:38Z</time>
      </trkpt>
      <trkpt lat="49.45608" lon="0.22182">
        <ele>3.3</ele>
        <time>2020-06-17T16:30:39Z</time>
      </trkpt>
      <trkpt lat="49.45608" lon="0.22182">
        <ele>3.3</ele>
        <time>2020-06-17T16:30:40Z</time>
      </trkpt>
      <trkpt lat="49.45607" lon="0.22181">
        <ele>3.3</ele>
        <time>2020-06-17T16:30:41Z</time>
      </trkpt>
      <trkpt lat="49.45607" lon="0.22181">
        <ele>3.3</ele>
        <time>2020-06-17T16:30:42Z</time>
      </trkpt>
      <trkpt lat="49.45608" lon="0.2218">
        <ele>3.3</ele>
        <time>2020-06-17T16:30:43Z</time>
      </trkpt>
      <trkpt lat="49.45608" lon="0.2218">
        <ele>3.3</ele>
        <time>2020-06-17T16:30:44Z</time>
      </trkpt>
      <trkpt lat="49.45609" lon="0.2218">
        <ele>3.3</ele>
        <time>2020-06-17T16:30:45Z</time>
      </trkpt>
      <trkpt lat="49.45609" lon="0.2218">
        <ele>3.3</ele>
        <time>2020-06-17T16:30:46Z</time>
      </trkpt>
      <trkpt lat="49.45609" lon="0.2218">
        <ele>3.3</ele>
        <time>2020-06-17T16:30:47Z</time>
      </trkpt>
      <trkpt lat="49.45609" lon="0.2218">
        <ele>3.3</ele>
        <time>2020-06-17T16:30:48Z</time>
      </trkpt>
      <trkpt lat="49.45612" lon="0.22165">
        <ele>3.4</ele>
        <time>2020-06-17T16:32:17Z</time>
      </trkpt>
      <trkpt lat="49.45612" lon="0.22165">
        <ele>3.4</ele>
        <time>2020-06-17T16:32:18Z</time>
      </trkpt>
      <trkpt lat="49.45612" lon="0.22163">
        <ele>3.4</ele>
        <time>2020-06-17T16:32:19Z</time>
      </trkpt>
      <trkpt lat="49.45613" lon="0.22162">
        <ele>3.4</ele>
        <time>2020-06-17T16:32:20Z</time>
      </trkpt>
      <trkpt lat="49.45613" lon="0.22162">
        <ele>3.4</ele>
        <time>2020-06-17T16:32:21Z</time>
      </trkpt>
      <trkpt lat="49.45613" lon="0.22162">
        <ele>3.4</ele>
        <time>2020-06-17T16:32:22Z</time>
      </trkpt>
      <trkpt lat="49.45613" lon="0.22162">
        <ele>3.4</ele>
        <time>2020-06-17T16:32:23Z</time>
      </trkpt>
      <trkpt lat="49.45612" lon="0.22163">
        <ele>3.4</ele>
        <time>2020-06-17T16:32:24Z</time>
      </trkpt>
      <trkpt lat="49.45612" lon="0.22162">
        <ele>3.4</ele>
        <time>2020-06-17T16:32:25Z</time>
      </trkpt>
      <trkpt lat="49.45612" lon="0.22163">
        <ele>3.4</ele>
        <time>2020-06-17T16:32:26Z</time>
      </trkpt>
      <trkpt lat="49.45611" lon="0.22163">
        <ele>3.4</ele>
        <time>2020-06-17T16:32:27Z</time>
      </trkpt>
      <trkpt lat="49.4561" lon="0.22163">
        <ele>3.4</ele>
        <time>2020-06-17T16:32:28Z</time>
      </trkpt>
      <trkpt lat="49.45609" lon="0.22163">
        <ele>3.4</ele>
        <time>2020-06-17T16:32:29Z</time>
      </trkpt>
      <trkpt lat="49.45608" lon="0.22162">
        <ele>3.4</ele>
        <time>2020-06-17T16:32:30Z</time>
      </trkpt>
      <trkpt lat="49.45608" lon="0.22163">
        <ele>3.4</ele>
        <time>2020-06-17T16:32:31Z</time>
      </trkpt>
      <trkpt lat="49.45608" lon="0.22163">
        <ele>3.4</ele>
        <time>2020-06-17T16:32:32Z</time>
      </trkpt>
      <trkpt lat="49.45608" lon="0.22164">
        <ele>3.4</ele>
        <time>2020-06-17T16:32:33Z</time>
      </trkpt>
      <trkpt lat="49.45609" lon="0.22164">
        <ele>3.4</ele>
        <time>2020-06-17T16:32:34Z</time>
      </trkpt>
      <trkpt lat="49.4561" lon="0.22166">
        <ele>3.4</ele>
        <time>2020-06-17T16:32:35Z</time>
      </trkpt>
      <trkpt lat="49.45609" lon="0.22167">
        <ele>3.4</ele>
        <time>2020-06-17T16:32:36Z</time>
      </trkpt>
      <trkpt lat="49.45609" lon="0.22167">
        <ele>3.4</ele>
        <time>2020-06-17T16:32:37Z</time>
      </trkpt>
      <trkpt lat="49.45606" lon="0.22166">
        <ele>3.4</ele>
        <time>2020-06-17T16:32:38Z</time>
      </trkpt>
      <trkpt lat="49.45605" lon="0.22164">
        <ele>3.4</ele>
        <time>2020-06-17T16:32:39Z</time>
      </trkpt>
      <trkpt lat="49.45605" lon="0.22163">
        <ele>3.4</ele>
        <time>2020-06-17T16:32:40Z</time>
      </trkpt>
      <trkpt lat="49.45605" lon="0.22161">
        <ele>3.4</ele>
        <time>2020-06-17T16:32:41Z</time>
      </trkpt>
      <trkpt lat="49.45605" lon="0.2216">
        <ele>3.4</ele>
        <time>2020-06-17T16:32:42Z</time>
      </trkpt>
      <trkpt lat="49.45606" lon="0.22158">
        <ele>3.4</ele>
        <time>2020-06-17T16:32:43Z</time>
      </trkpt>
      <trkpt lat="49.45606" lon="0.22157">
        <ele>3.4</ele>
        <time>2020-06-17T16:32:44Z</time>
      </trkpt>
      <trkpt lat="49.45606" lon="0.22156">
        <ele>3.4</ele>
        <time>2020-06-17T16:32:45Z</time>
      </trkpt>
      <trkpt lat="49.45606" lon="0.22154">
        <ele>3.5</ele>
        <time>2020-06-17T16:32:54Z</time>
      </trkpt>
      <trkpt lat="49.45606" lon="0.22153">
        <ele>3.5</ele>
        <time>2020-06-17T16:32:55Z</time>
      </trkpt>
      <trkpt lat="49.45605" lon="0.22149">
        <ele>3.5</ele>
        <time>2020-06-17T16:32:56Z</time>
      </trkpt>
      <trkpt lat="49.45605" lon="0.22144">
        <ele>3.5</ele>
        <time>2020-06-17T16:32:57Z</time>
      </trkpt>
      <trkpt lat="49.45605" lon="0.22142">
        <ele>3.5</ele>
        <time>2020-06-17T16:32:58Z</time>
      </trkpt>
      <trkpt lat="49.45604" lon="0.22136">
        <ele>3.5</ele>
        <time>2020-06-17T16:32:59Z</time>
      </trkpt>
      <trkpt lat="49.45604" lon="0.22134">
        <ele>3.5</ele>
        <time>2020-06-17T16:33:00Z</time>
      </trkpt>
      <trkpt lat="49.45604" lon="0.22127">
        <ele>3.5</ele>
        <time>2020-06-17T16:33:01Z</time>
      </trkpt>
      <trkpt lat="49.45604" lon="0.22121">
        <ele>3.5</ele>
        <time>2020-06-17T16:33:02Z</time>
      </trkpt>
      <trkpt lat="49.45603" lon="0.22115">
        <ele>3.5</ele>
        <time>2020-06-17T16:33:03Z</time>
      </trkpt>
      <trkpt lat="49.45603" lon="0.22109">
        <ele>3.5</ele>
        <time>2020-06-17T16:33:04Z</time>
      </trkpt>
      <trkpt lat="49.45603" lon="0.22103">
        <ele>3.6</ele>
        <time>2020-06-17T16:33:05Z</time>
      </trkpt>
      <trkpt lat="49.45601" lon="0.22099">
        <ele>3.6</ele>
        <time>2020-06-17T16:33:06Z</time>
      </trkpt>
      <trkpt lat="49.456" lon="0.22092">
        <ele>3.6</ele>
        <time>2020-06-17T16:33:07Z</time>
      </trkpt>
      <trkpt lat="49.45598" lon="0.22087">
        <ele>3.6</ele>
        <time>2020-06-17T16:33:08Z</time>
      </trkpt>
      <trkpt lat="49.45597" lon="0.22079">
        <ele>3.6</ele>
        <time>2020-06-17T16:33:09Z</time>
      </trkpt>
      <trkpt lat="49.45597" lon="0.2207">
        <ele>3.6</ele>
        <time>2020-06-17T16:33:10Z</time>
      </trkpt>
      <trkpt lat="49.45597" lon="0.22062">
        <ele>3.6</ele>
        <time>2020-06-17T16:33:11Z</time>
      </trkpt>
      <trkpt lat="49.45597" lon="0.22056">
        <ele>3.7</ele>
        <time>2020-06-17T16:33:12Z</time>
      </trkpt>
      <trkpt lat="49.45597" lon="0.22048">
        <ele>3.7</ele>
        <time>2020-06-17T16:33:13Z</time>
      </trkpt>
      <trkpt lat="49.45596" lon="0.22041">
        <ele>3.7</ele>
        <time>2020-06-17T16:33:14Z</time>
      </trkpt>
      <trkpt lat="49.45595" lon="0.22033">
        <ele>3.7</ele>
        <time>2020-06-17T16:33:15Z</time>
      </trkpt>
      <trkpt lat="49.45595" lon="0.22025">
        <ele>3.7</ele>
        <time>2020-06-17T16:33:16Z</time>
      </trkpt>
      <trkpt lat="49.45594" lon="0.22018">
        <ele>3.7</ele>
        <time>2020-06-17T16:33:17Z</time>
      </trkpt>
      <trkpt lat="49.45593" lon="0.22011">
        <ele>3.7</ele>
        <time>2020-06-17T16:33:18Z</time>
      </trkpt>
      <trkpt lat="49.45593" lon="0.22004">
        <ele>3.8</ele>
        <time>2020-06-17T16:33:19Z</time>
      </trkpt>
      <trkpt lat="49.45592" lon="0.21996">
        <ele>3.8</ele>
        <time>2020-06-17T16:33:20Z</time>
      </trkpt>
      <trkpt lat="49.45591" lon="0.21987">
        <ele>3.8</ele>
        <time>2020-06-17T16:33:21Z</time>
      </trkpt>
      <trkpt lat="49.45591" lon="0.21979">
        <ele>3.8</ele>
        <time>2020-06-17T16:33:22Z</time>
      </trkpt>
      <trkpt lat="49.4559" lon="0.2197">
        <ele>3.8</ele>
        <time>2020-06-17T16:33:23Z</time>
      </trkpt>
      <trkpt lat="49.4559" lon="0.21961">
        <ele>3.8</ele>
        <time>2020-06-17T16:33:24Z</time>
      </trkpt>
      <trkpt lat="49.4559" lon="0.21952">
        <ele>3.9</ele>
        <time>2020-06-17T16:33:25Z</time>
      </trkpt>
      <trkpt lat="49.4559" lon="0.21944">
        <ele>3.9</ele>
        <time>2020-06-17T16:33:26Z</time>
      </trkpt>
      <trkpt lat="49.4559" lon="0.21936">
        <ele>3.9</ele>
        <time>2020-06-17T16:33:27Z</time>
      </trkpt>
      <trkpt lat="49.4559" lon="0.21927">
        <ele>3.9</ele>
        <time>2020-06-17T16:33:28Z</time>
      </trkpt>
      <trkpt lat="49.45591" lon="0.2192">
        <ele>3.9</ele>
        <time>2020-06-17T16:33:29Z</time>
      </trkpt>
      <trkpt lat="49.45591" lon="0.21912">
        <ele>3.9</ele>
        <time>2020-06-17T16:33:30Z</time>
      </trkpt>
      <trkpt lat="49.45591" lon="0.21903">
        <ele>4</ele>
        <time>2020-06-17T16:33:31Z</time>
      </trkpt>
      <trkpt lat="49.45591" lon="0.21897">
        <ele>4</ele>
        <time>2020-06-17T16:33:32Z</time>
      </trkpt>
      <trkpt lat="49.4559" lon="0.21889">
        <ele>4</ele>
        <time>2020-06-17T16:33:33Z</time>
      </trkpt>
      <trkpt lat="49.45589" lon="0.21881">
        <ele>4</ele>
        <time>2020-06-17T16:33:34Z</time>
      </trkpt>
      <trkpt lat="49.45589" lon="0.21873">
        <ele>4</ele>
        <time>2020-06-17T16:33:35Z</time>
      </trkpt>
      <trkpt lat="49.45589" lon="0.21865">
        <ele>4</ele>
        <time>2020-06-17T16:33:36Z</time>
      </trkpt>
      <trkpt lat="49.45589" lon="0.21858">
        <ele>4</ele>
        <time>2020-06-17T16:33:37Z</time>
      </trkpt>
      <trkpt lat="49.45589" lon="0.21851">
        <ele>4.1</ele>
        <time>2020-06-17T16:33:38Z</time>
      </trkpt>
      <trkpt lat="49.45589" lon="0.21843">
        <ele>4.1</ele>
        <time>2020-06-17T16:33:39Z</time>
      </trkpt>
      <trkpt lat="49.45589" lon="0.21835">
        <ele>4.1</ele>
        <time>2020-06-17T16:33:40Z</time>
      </trkpt>
      <trkpt lat="49.45588" lon="0.21828">
        <ele>4.1</ele>
        <time>2020-06-17T16:33:41Z</time>
      </trkpt>
      <trkpt lat="49.45588" lon="0.21819">
        <ele>4.1</ele>
        <time>2020-06-17T16:33:42Z</time>
      </trkpt>
      <trkpt lat="49.45588" lon="0.21812">
        <ele>4.1</ele>
        <time>2020-06-17T16:33:43Z</time>
      </trkpt>
      <trkpt lat="49.45588" lon="0.21805">
        <ele>4.1</ele>
        <time>2020-06-17T16:33:44Z</time>
      </trkpt>
      <trkpt lat="49.45588" lon="0.21798">
        <ele>4.2</ele>
        <time>2020-06-17T16:33:45Z</time>
      </trkpt>
      <trkpt lat="49.45587" lon="0.2179">
        <ele>4.2</ele>
        <time>2020-06-17T16:33:46Z</time>
      </trkpt>
      <trkpt lat="49.45587" lon="0.21783">
        <ele>4.2</ele>
        <time>2020-06-17T16:33:47Z</time>
      </trkpt>
      <trkpt lat="49.45587" lon="0.21774">
        <ele>4.2</ele>
        <time>2020-06-17T16:33:48Z</time>
      </trkpt>
      <trkpt lat="49.45586" lon="0.21766">
        <ele>4.2</ele>
        <time>2020-06-17T16:33:49Z</time>
      </trkpt>
      <trkpt lat="49.45585" lon="0.21758">
        <ele>4.2</ele>
        <time>2020-06-17T16:33:50Z</time>
      </trkpt>
      <trkpt lat="49.45586" lon="0.2175">
        <ele>4.3</ele>
        <time>2020-06-17T16:33:51Z</time>
      </trkpt>
      <trkpt lat="49.45585" lon="0.21742">
        <ele>4.3</ele>
        <time>2020-06-17T16:33:52Z</time>
      </trkpt>
      <trkpt lat="49.45585" lon="0.21733">
        <ele>4.3</ele>
        <time>2020-06-17T16:33:53Z</time>
      </trkpt>
      <trkpt lat="49.45584" lon="0.21725">
        <ele>4.3</ele>
        <time>2020-06-17T16:33:54Z</time>
      </trkpt>
      <trkpt lat="49.45583" lon="0.21717">
        <ele>4.3</ele>
        <time>2020-06-17T16:33:55Z</time>
      </trkpt>
      <trkpt lat="49.45584" lon="0.21712">
        <ele>4.3</ele>
        <time>2020-06-17T16:33:56Z</time>
      </trkpt>
      <trkpt lat="49.45583" lon="0.21704">
        <ele>4.2</ele>
        <time>2020-06-17T16:33:57Z</time>
      </trkpt>
      <trkpt lat="49.45583" lon="0.21695">
        <ele>4.2</ele>
        <time>2020-06-17T16:33:58Z</time>
      </trkpt>
      <trkpt lat="49.45582" lon="0.21688">
        <ele>4.1</ele>
        <time>2020-06-17T16:33:59Z</time>
      </trkpt>
      <trkpt lat="49.45582" lon="0.21681">
        <ele>4.1</ele>
        <time>2020-06-17T16:34:00Z</time>
      </trkpt>
      <trkpt lat="49.45581" lon="0.21674">
        <ele>4</ele>
        <time>2020-06-17T16:34:01Z</time>
      </trkpt>
      <trkpt lat="49.45581" lon="0.21667">
        <ele>4</ele>
        <time>2020-06-17T16:34:02Z</time>
      </trkpt>
      <trkpt lat="49.45581" lon="0.21659">
        <ele>3.9</ele>
        <time>2020-06-17T16:34:03Z</time>
      </trkpt>
      <trkpt lat="49.45579" lon="0.21653">
        <ele>3.9</ele>
        <time>2020-06-17T16:34:04Z</time>
      </trkpt>
      <trkpt lat="49.4558" lon="0.21647">
        <ele>3.8</ele>
        <time>2020-06-17T16:34:05Z</time>
      </trkpt>
      <trkpt lat="49.45579" lon="0.2164">
        <ele>3.8</ele>
        <time>2020-06-17T16:34:06Z</time>
      </trkpt>
      <trkpt lat="49.45579" lon="0.21634">
        <ele>3.7</ele>
        <time>2020-06-17T16:34:07Z</time>
      </trkpt>
      <trkpt lat="49.45579" lon="0.21628">
        <ele>3.7</ele>
        <time>2020-06-17T16:34:08Z</time>
      </trkpt>
      <trkpt lat="49.45579" lon="0.21622">
        <ele>3.6</ele>
        <time>2020-06-17T16:34:09Z</time>
      </trkpt>
      <trkpt lat="49.45578" lon="0.21616">
        <ele>3.6</ele>
        <time>2020-06-17T16:34:10Z</time>
      </trkpt>
      <trkpt lat="49.45578" lon="0.2161">
        <ele>3.5</ele>
        <time>2020-06-17T16:34:11Z</time>
      </trkpt>
      <trkpt lat="49.45579" lon="0.21603">
        <ele>3.5</ele>
        <time>2020-06-17T16:34:12Z</time>
      </trkpt>
      <trkpt lat="49.45579" lon="0.21597">
        <ele>3.5</ele>
        <time>2020-06-17T16:34:13Z</time>
      </trkpt>
      <trkpt lat="49.4558" lon="0.21591">
        <ele>3.4</ele>
        <time>2020-06-17T16:34:14Z</time>
      </trkpt>
      <trkpt lat="49.4558" lon="0.21586">
        <ele>3.4</ele>
        <time>2020-06-17T16:34:15Z</time>
      </trkpt>
      <trkpt lat="49.45579" lon="0.21581">
        <ele>3.3</ele>
        <time>2020-06-17T16:34:16Z</time>
      </trkpt>
      <trkpt lat="49.45579" lon="0.21576">
        <ele>3.3</ele>
        <time>2020-06-17T16:34:17Z</time>
      </trkpt>
      <trkpt lat="49.45578" lon="0.21571">
        <ele>3.3</ele>
        <time>2020-06-17T16:34:18Z</time>
      </trkpt>
      <trkpt lat="49.45578" lon="0.21566">
        <ele>3.2</ele>
        <time>2020-06-17T16:34:19Z</time>
      </trkpt>
      <trkpt lat="49.45578" lon="0.21561">
        <ele>3.2</ele>
        <time>2020-06-17T16:34:20Z</time>
      </trkpt>
      <trkpt lat="49.45579" lon="0.21554">
        <ele>3.1</ele>
        <time>2020-06-17T16:34:21Z</time>
      </trkpt>
      <trkpt lat="49.45579" lon="0.21548">
        <ele>3.1</ele>
        <time>2020-06-17T16:34:22Z</time>
      </trkpt>
      <trkpt lat="49.45579" lon="0.21542">
        <ele>3.1</ele>
        <time>2020-06-17T16:34:23Z</time>
      </trkpt>
      <trkpt lat="49.4558" lon="0.21534">
        <ele>3</ele>
        <time>2020-06-17T16:34:24Z</time>
      </trkpt>
      <trkpt lat="49.45581" lon="0.21529">
        <ele>3</ele>
        <time>2020-06-17T16:34:25Z</time>
      </trkpt>
      <trkpt lat="49.4558" lon="0.21523">
        <ele>2.9</ele>
        <time>2020-06-17T16:34:26Z</time>
      </trkpt>
      <trkpt lat="49.4558" lon="0.21518">
        <ele>2.9</ele>
        <time>2020-06-17T16:34:27Z</time>
      </trkpt>
      <trkpt lat="49.4558" lon="0.21512">
        <ele>2.9</ele>
        <time>2020-06-17T16:34:28Z</time>
      </trkpt>
      <trkpt lat="49.4558" lon="0.21506">
        <ele>2.8</ele>
        <time>2020-06-17T16:34:29Z</time>
      </trkpt>
      <trkpt lat="49.45579" lon="0.215">
        <ele>2.8</ele>
        <time>2020-06-17T16:34:30Z</time>
      </trkpt>
      <trkpt lat="49.45579" lon="0.21495">
        <ele>2.7</ele>
        <time>2020-06-17T16:34:31Z</time>
      </trkpt>
      <trkpt lat="49.45579" lon="0.21489">
        <ele>2.7</ele>
        <time>2020-06-17T16:34:32Z</time>
      </trkpt>
      <trkpt lat="49.45579" lon="0.21484">
        <ele>2.6</ele>
        <time>2020-06-17T16:34:33Z</time>
      </trkpt>
      <trkpt lat="49.45578" lon="0.21479">
        <ele>2.6</ele>
        <time>2020-06-17T16:34:34Z</time>
      </trkpt>
      <trkpt lat="49.45578" lon="0.21475">
        <ele>2.6</ele>
        <time>2020-06-17T16:34:35Z</time>
      </trkpt>
      <trkpt lat="49.45577" lon="0.2147">
        <ele>2.5</ele>
        <time>2020-06-17T16:34:36Z</time>
      </trkpt>
      <trkpt lat="49.45577" lon="0.21464">
        <ele>2.5</ele>
        <time>2020-06-17T16:34:37Z</time>
      </trkpt>
      <trkpt lat="49.45577" lon="0.21458">
        <ele>2.5</ele>
        <time>2020-06-17T16:34:38Z</time>
      </trkpt>
      <trkpt lat="49.45575" lon="0.21452">
        <ele>2.4</ele>
        <time>2020-06-17T16:34:39Z</time>
      </trkpt>
      <trkpt lat="49.45575" lon="0.21446">
        <ele>2.4</ele>
        <time>2020-06-17T16:34:40Z</time>
      </trkpt>
      <trkpt lat="49.45575" lon="0.2144">
        <ele>2.3</ele>
        <time>2020-06-17T16:34:41Z</time>
      </trkpt>
      <trkpt lat="49.45575" lon="0.21435">
        <ele>2.3</ele>
        <time>2020-06-17T16:34:42Z</time>
      </trkpt>
      <trkpt lat="49.45574" lon="0.2143">
        <ele>2.3</ele>
        <time>2020-06-17T16:34:43Z</time>
      </trkpt>
      <trkpt lat="49.45573" lon="0.21423">
        <ele>2.2</ele>
        <time>2020-06-17T16:34:44Z</time>
      </trkpt>
      <trkpt lat="49.45573" lon="0.21416">
        <ele>2.2</ele>
        <time>2020-06-17T16:34:45Z</time>
      </trkpt>
      <trkpt lat="49.45572" lon="0.21411">
        <ele>2.1</ele>
        <time>2020-06-17T16:34:46Z</time>
      </trkpt>
      <trkpt lat="49.45571" lon="0.21405">
        <ele>2.1</ele>
        <time>2020-06-17T16:34:47Z</time>
      </trkpt>
      <trkpt lat="49.45571" lon="0.214">
        <ele>2</ele>
        <time>2020-06-17T16:34:48Z</time>
      </trkpt>
      <trkpt lat="49.45571" lon="0.21395">
        <ele>2</ele>
        <time>2020-06-17T16:34:49Z</time>
      </trkpt>
      <trkpt lat="49.45572" lon="0.21389">
        <ele>2</ele>
        <time>2020-06-17T16:34:50Z</time>
      </trkpt>
      <trkpt lat="49.45573" lon="0.21383">
        <ele>1.9</ele>
        <time>2020-06-17T16:34:51Z</time>
      </trkpt>
      <trkpt lat="49.45574" lon="0.21377">
        <ele>1.9</ele>
        <time>2020-06-17T16:34:52Z</time>
      </trkpt>
      <trkpt lat="49.45575" lon="0.21372">
        <ele>1.9</ele>
        <time>2020-06-17T16:34:53Z</time>
      </trkpt>
      <trkpt lat="49.45575" lon="0.21367">
        <ele>1.9</ele>
        <time>2020-06-17T16:34:54Z</time>
      </trkpt>
      <trkpt lat="49.45575" lon="0.21362">
        <ele>1.9</ele>
        <time>2020-06-17T16:34:55Z</time>
      </trkpt>
      <trkpt lat="49.45576" lon="0.21358">
        <ele>1.9</ele>
        <time>2020-06-17T16:34:56Z</time>
      </trkpt>
      <trkpt lat="49.45578" lon="0.21353">
        <ele>2</ele>
        <time>2020-06-17T16:34:57Z</time>
      </trkpt>
      <trkpt lat="49.4558" lon="0.2135">
        <ele>2</ele>
        <time>2020-06-17T16:34:58Z</time>
      </trkpt>
      <trkpt lat="49.45583" lon="0.21349">
        <ele>2</ele>
        <time>2020-06-17T16:34:59Z</time>
      </trkpt>
      <trkpt lat="49.45586" lon="0.21348">
        <ele>2</ele>
        <time>2020-06-17T16:35:00Z</time>
      </trkpt>
      <trkpt lat="49.4559" lon="0.21348">
        <ele>2.1</ele>
        <time>2020-06-17T16:35:01Z</time>
      </trkpt>
      <trkpt lat="49.45593" lon="0.21347">
        <ele>2.1</ele>
        <time>2020-06-17T16:35:02Z</time>
      </trkpt>
      <trkpt lat="49.45598" lon="0.21347">
        <ele>2.1</ele>
        <time>2020-06-17T16:35:03Z</time>
      </trkpt>
      <trkpt lat="49.45603" lon="0.21347">
        <ele>2.2</ele>
        <time>2020-06-17T16:35:04Z</time>
      </trkpt>
      <trkpt lat="49.45607" lon="0.21347">
        <ele>2.2</ele>
        <time>2020-06-17T16:35:05Z</time>
      </trkpt>
      <trkpt lat="49.45611" lon="0.21349">
        <ele>2.2</ele>
        <time>2020-06-17T16:35:06Z</time>
      </trkpt>
      <trkpt lat="49.45615" lon="0.2135">
        <ele>2.3</ele>
        <time>2020-06-17T16:35:07Z</time>
      </trkpt>
      <trkpt lat="49.4562" lon="0.21351">
        <ele>2.3</ele>
        <time>2020-06-17T16:35:08Z</time>
      </trkpt>
      <trkpt lat="49.45624" lon="0.21351">
        <ele>2.3</ele>
        <time>2020-06-17T16:35:09Z</time>
      </trkpt>
      <trkpt lat="49.45629" lon="0.21351">
        <ele>2.4</ele>
        <time>2020-06-17T16:35:10Z</time>
      </trkpt>
      <trkpt lat="49.45632" lon="0.21351">
        <ele>2.4</ele>
        <time>2020-06-17T16:35:11Z</time>
      </trkpt>
      <trkpt lat="49.45637" lon="0.2135">
        <ele>2.4</ele>
        <time>2020-06-17T16:35:12Z</time>
      </trkpt>
      <trkpt lat="49.45642" lon="0.21349">
        <ele>2.5</ele>
        <time>2020-06-17T16:35:13Z</time>
      </trkpt>
      <trkpt lat="49.45645" lon="0.21349">
        <ele>2.5</ele>
        <time>2020-06-17T16:35:14Z</time>
      </trkpt>
      <trkpt lat="49.45649" lon="0.2135">
        <ele>2.5</ele>
        <time>2020-06-17T16:35:15Z</time>
      </trkpt>
      <trkpt lat="49.45653" lon="0.21349">
        <ele>2.6</ele>
        <time>2020-06-17T16:35:16Z</time>
      </trkpt>
      <trkpt lat="49.45657" lon="0.21348">
        <ele>2.6</ele>
        <time>2020-06-17T16:35:17Z</time>
      </trkpt>
      <trkpt lat="49.4566" lon="0.21346">
        <ele>2.6</ele>
        <time>2020-06-17T16:35:18Z</time>
      </trkpt>
      <trkpt lat="49.45663" lon="0.21346">
        <ele>2.6</ele>
        <time>2020-06-17T16:35:19Z</time>
      </trkpt>
      <trkpt lat="49.45666" lon="0.21343">
        <ele>2.7</ele>
        <time>2020-06-17T16:35:20Z</time>
      </trkpt>
      <trkpt lat="49.4567" lon="0.21342">
        <ele>2.7</ele>
        <time>2020-06-17T16:35:21Z</time>
      </trkpt>
      <trkpt lat="49.45672" lon="0.21338">
        <ele>2.7</ele>
        <time>2020-06-17T16:35:22Z</time>
      </trkpt>
      <trkpt lat="49.45675" lon="0.21335">
        <ele>2.8</ele>
        <time>2020-06-17T16:35:23Z</time>
      </trkpt>
      <trkpt lat="49.45676" lon="0.21331">
        <ele>2.8</ele>
        <time>2020-06-17T16:35:24Z</time>
      </trkpt>
      <trkpt lat="49.45677" lon="0.21326">
        <ele>2.8</ele>
        <time>2020-06-17T16:35:25Z</time>
      </trkpt>
      <trkpt lat="49.45677" lon="0.2132">
        <ele>2.8</ele>
        <time>2020-06-17T16:35:26Z</time>
      </trkpt>
      <trkpt lat="49.45678" lon="0.21315">
        <ele>2.9</ele>
        <time>2020-06-17T16:35:27Z</time>
      </trkpt>
      <trkpt lat="49.45678" lon="0.21309">
        <ele>2.9</ele>
        <time>2020-06-17T16:35:28Z</time>
      </trkpt>
      <trkpt lat="49.45677" lon="0.21304">
        <ele>2.9</ele>
        <time>2020-06-17T16:35:29Z</time>
      </trkpt>
      <trkpt lat="49.45677" lon="0.21298">
        <ele>3</ele>
        <time>2020-06-17T16:35:30Z</time>
      </trkpt>
      <trkpt lat="49.45677" lon="0.21292">
        <ele>3</ele>
        <time>2020-06-17T16:35:31Z</time>
      </trkpt>
      <trkpt lat="49.45676" lon="0.21284">
        <ele>3</ele>
        <time>2020-06-17T16:35:32Z</time>
      </trkpt>
      <trkpt lat="49.45676" lon="0.21278">
        <ele>3.1</ele>
        <time>2020-06-17T16:35:33Z</time>
      </trkpt>
      <trkpt lat="49.45676" lon="0.21272">
        <ele>3.1</ele>
        <time>2020-06-17T16:35:34Z</time>
      </trkpt>
      <trkpt lat="49.45676" lon="0.21266">
        <ele>3.1</ele>
        <time>2020-06-17T16:35:35Z</time>
      </trkpt>
      <trkpt lat="49.45676" lon="0.2126">
        <ele>3.1</ele>
        <time>2020-06-17T16:35:36Z</time>
      </trkpt>
      <trkpt lat="49.45676" lon="0.21254">
        <ele>3.2</ele>
        <time>2020-06-17T16:35:37Z</time>
      </trkpt>
      <trkpt lat="49.45676" lon="0.21249">
        <ele>3.2</ele>
        <time>2020-06-17T16:35:38Z</time>
      </trkpt>
      <trkpt lat="49.45677" lon="0.21244">
        <ele>3.2</ele>
        <time>2020-06-17T16:35:39Z</time>
      </trkpt>
      <trkpt lat="49.45677" lon="0.21238">
        <ele>3.3</ele>
        <time>2020-06-17T16:35:40Z</time>
      </trkpt>
      <trkpt lat="49.45677" lon="0.21232">
        <ele>3.3</ele>
        <time>2020-06-17T16:35:41Z</time>
      </trkpt>
      <trkpt lat="49.45677" lon="0.21227">
        <ele>3.3</ele>
        <time>2020-06-17T16:35:42Z</time>
      </trkpt>
      <trkpt lat="49.45677" lon="0.21222">
        <ele>3.3</ele>
        <time>2020-06-17T16:35:43Z</time>
      </trkpt>
      <trkpt lat="49.45678" lon="0.21216">
        <ele>3.4</ele>
        <time>2020-06-17T16:35:44Z</time>
      </trkpt>
      <trkpt lat="49.45678" lon="0.21212">
        <ele>3.4</ele>
        <time>2020-06-17T16:35:45Z</time>
      </trkpt>
      <trkpt lat="49.45678" lon="0.21206">
        <ele>3.4</ele>
        <time>2020-06-17T16:35:46Z</time>
      </trkpt>
      <trkpt lat="49.45679" lon="0.212">
        <ele>3.5</ele>
        <time>2020-06-17T16:35:47Z</time>
      </trkpt>
      <trkpt lat="49.45679" lon="0.21197">
        <ele>3.5</ele>
        <time>2020-06-17T16:35:48Z</time>
      </trkpt>
      <trkpt lat="49.45679" lon="0.21193">
        <ele>3.5</ele>
        <time>2020-06-17T16:35:49Z</time>
      </trkpt>
      <trkpt lat="49.4568" lon="0.21186">
        <ele>3.5</ele>
        <time>2020-06-17T16:35:50Z</time>
      </trkpt>
      <trkpt lat="49.4568" lon="0.21183">
        <ele>3.5</ele>
        <time>2020-06-17T16:35:51Z</time>
      </trkpt>
      <trkpt lat="49.45681" lon="0.21178">
        <ele>3.6</ele>
        <time>2020-06-17T16:35:52Z</time>
      </trkpt>
      <trkpt lat="49.4568" lon="0.21173">
        <ele>3.6</ele>
        <time>2020-06-17T16:35:53Z</time>
      </trkpt>
      <trkpt lat="49.45681" lon="0.21168">
        <ele>3.6</ele>
        <time>2020-06-17T16:35:54Z</time>
      </trkpt>
      <trkpt lat="49.45682" lon="0.21162">
        <ele>3.7</ele>
        <time>2020-06-17T16:35:55Z</time>
      </trkpt>
      <trkpt lat="49.45683" lon="0.21156">
        <ele>3.7</ele>
        <time>2020-06-17T16:35:56Z</time>
      </trkpt>
      <trkpt lat="49.45684" lon="0.21149">
        <ele>3.7</ele>
        <time>2020-06-17T16:35:57Z</time>
      </trkpt>
      <trkpt lat="49.45684" lon="0.21144">
        <ele>3.8</ele>
        <time>2020-06-17T16:35:58Z</time>
      </trkpt>
      <trkpt lat="49.45685" lon="0.21138">
        <ele>3.8</ele>
        <time>2020-06-17T16:35:59Z</time>
      </trkpt>
      <trkpt lat="49.45686" lon="0.21132">
        <ele>3.8</ele>
        <time>2020-06-17T16:36:00Z</time>
      </trkpt>
      <trkpt lat="49.45686" lon="0.21126">
        <ele>3.8</ele>
        <time>2020-06-17T16:36:01Z</time>
      </trkpt>
      <trkpt lat="49.45686" lon="0.2112">
        <ele>3.9</ele>
        <time>2020-06-17T16:36:02Z</time>
      </trkpt>
      <trkpt lat="49.45686" lon="0.21115">
        <ele>3.9</ele>
        <time>2020-06-17T16:36:03Z</time>
      </trkpt>
      <trkpt lat="49.45687" lon="0.2111">
        <ele>3.9</ele>
        <time>2020-06-17T16:36:04Z</time>
      </trkpt>
      <trkpt lat="49.45687" lon="0.21105">
        <ele>4</ele>
        <time>2020-06-17T16:36:05Z</time>
      </trkpt>
      <trkpt lat="49.45687" lon="0.21101">
        <ele>4</ele>
        <time>2020-06-17T16:36:06Z</time>
      </trkpt>
      <trkpt lat="49.45687" lon="0.21096">
        <ele>4</ele>
        <time>2020-06-17T16:36:07Z</time>
      </trkpt>
      <trkpt lat="49.45688" lon="0.2109">
        <ele>4</ele>
        <time>2020-06-17T16:36:08Z</time>
      </trkpt>
      <trkpt lat="49.45688" lon="0.21085">
        <ele>4.1</ele>
        <time>2020-06-17T16:36:09Z</time>
      </trkpt>
      <trkpt lat="49.45689" lon="0.2108">
        <ele>4.1</ele>
        <time>2020-06-17T16:36:10Z</time>
      </trkpt>
      <trkpt lat="49.45689" lon="0.21075">
        <ele>4.1</ele>
        <time>2020-06-17T16:36:11Z</time>
      </trkpt>
      <trkpt lat="49.45689" lon="0.21069">
        <ele>4.1</ele>
        <time>2020-06-17T16:36:12Z</time>
      </trkpt>
      <trkpt lat="49.4569" lon="0.21064">
        <ele>4.2</ele>
        <time>2020-06-17T16:36:13Z</time>
      </trkpt>
      <trkpt lat="49.45691" lon="0.21059">
        <ele>4.2</ele>
        <time>2020-06-17T16:36:14Z</time>
      </trkpt>
      <trkpt lat="49.45691" lon="0.21054">
        <ele>4.2</ele>
        <time>2020-06-17T16:36:15Z</time>
      </trkpt>
      <trkpt lat="49.45691" lon="0.21048">
        <ele>4.3</ele>
        <time>2020-06-17T16:36:16Z</time>
      </trkpt>
      <trkpt lat="49.45691" lon="0.21043">
        <ele>4.3</ele>
        <time>2020-06-17T16:36:17Z</time>
      </trkpt>
      <trkpt lat="49.45693" lon="0.21037">
        <ele>4.3</ele>
        <time>2020-06-17T16:36:18Z</time>
      </trkpt>
      <trkpt lat="49.45694" lon="0.21031">
        <ele>4.3</ele>
        <time>2020-06-17T16:36:19Z</time>
      </trkpt>
      <trkpt lat="49.45694" lon="0.21025">
        <ele>4.4</ele>
        <time>2020-06-17T16:36:20Z</time>
      </trkpt>
      <trkpt lat="49.45695" lon="0.21018">
        <ele>4.4</ele>
        <time>2020-06-17T16:36:21Z</time>
      </trkpt>
      <trkpt lat="49.45696" lon="0.21013">
        <ele>4.4</ele>
        <time>2020-06-17T16:36:22Z</time>
      </trkpt>
      <trkpt lat="49.45695" lon="0.21007">
        <ele>4.5</ele>
        <time>2020-06-17T16:36:23Z</time>
      </trkpt>
      <trkpt lat="49.45696" lon="0.21001">
        <ele>4.5</ele>
        <time>2020-06-17T16:36:24Z</time>
      </trkpt>
      <trkpt lat="49.45696" lon="0.20996">
        <ele>4.5</ele>
        <time>2020-06-17T16:36:25Z</time>
      </trkpt>
      <trkpt lat="49.45695" lon="0.2099">
        <ele>4.6</ele>
        <time>2020-06-17T16:36:26Z</time>
      </trkpt>
      <trkpt lat="49.45696" lon="0.20984">
        <ele>4.6</ele>
        <time>2020-06-17T16:36:27Z</time>
      </trkpt>
      <trkpt lat="49.45696" lon="0.20978">
        <ele>4.6</ele>
        <time>2020-06-17T16:36:28Z</time>
      </trkpt>
      <trkpt lat="49.45696" lon="0.20973">
        <ele>4.6</ele>
        <time>2020-06-17T16:36:29Z</time>
      </trkpt>
      <trkpt lat="49.45696" lon="0.20967">
        <ele>4.7</ele>
        <time>2020-06-17T16:36:30Z</time>
      </trkpt>
      <trkpt lat="49.45697" lon="0.20962">
        <ele>4.7</ele>
        <time>2020-06-17T16:36:31Z</time>
      </trkpt>
      <trkpt lat="49.45697" lon="0.20956">
        <ele>4.7</ele>
        <time>2020-06-17T16:36:32Z</time>
      </trkpt>
      <trkpt lat="49.45698" lon="0.2095">
        <ele>4.8</ele>
        <time>2020-06-17T16:36:33Z</time>
      </trkpt>
      <trkpt lat="49.45699" lon="0.20945">
        <ele>4.8</ele>
        <time>2020-06-17T16:36:34Z</time>
      </trkpt>
      <trkpt lat="49.45699" lon="0.20939">
        <ele>4.8</ele>
        <time>2020-06-17T16:36:35Z</time>
      </trkpt>
      <trkpt lat="49.457" lon="0.20933">
        <ele>4.9</ele>
        <time>2020-06-17T16:36:36Z</time>
      </trkpt>
      <trkpt lat="49.457" lon="0.20927">
        <ele>4.9</ele>
        <time>2020-06-17T16:36:37Z</time>
      </trkpt>
      <trkpt lat="49.45701" lon="0.2092">
        <ele>4.9</ele>
        <time>2020-06-17T16:36:38Z</time>
      </trkpt>
      <trkpt lat="49.45701" lon="0.20914">
        <ele>5</ele>
        <time>2020-06-17T16:36:39Z</time>
      </trkpt>
      <trkpt lat="49.45701" lon="0.20909">
        <ele>5</ele>
        <time>2020-06-17T16:36:40Z</time>
      </trkpt>
      <trkpt lat="49.45701" lon="0.20904">
        <ele>5</ele>
        <time>2020-06-17T16:36:41Z</time>
      </trkpt>
      <trkpt lat="49.45702" lon="0.20898">
        <ele>5</ele>
        <time>2020-06-17T16:36:42Z</time>
      </trkpt>
      <trkpt lat="49.45702" lon="0.20894">
        <ele>5.1</ele>
        <time>2020-06-17T16:36:43Z</time>
      </trkpt>
      <trkpt lat="49.45703" lon="0.20889">
        <ele>5.1</ele>
        <time>2020-06-17T16:36:44Z</time>
      </trkpt>
      <trkpt lat="49.45704" lon="0.20884">
        <ele>5.1</ele>
        <time>2020-06-17T16:36:45Z</time>
      </trkpt>
      <trkpt lat="49.45704" lon="0.20879">
        <ele>5.1</ele>
        <time>2020-06-17T16:36:46Z</time>
      </trkpt>
      <trkpt lat="49.45705" lon="0.20873">
        <ele>5.2</ele>
        <time>2020-06-17T16:36:47Z</time>
      </trkpt>
      <trkpt lat="49.45705" lon="0.20869">
        <ele>5.2</ele>
        <time>2020-06-17T16:36:48Z</time>
      </trkpt>
      <trkpt lat="49.45705" lon="0.20864">
        <ele>5.2</ele>
        <time>2020-06-17T16:36:49Z</time>
      </trkpt>
      <trkpt lat="49.45705" lon="0.2086">
        <ele>5.2</ele>
        <time>2020-06-17T16:36:50Z</time>
      </trkpt>
      <trkpt lat="49.45705" lon="0.20856">
        <ele>5.3</ele>
        <time>2020-06-17T16:36:51Z</time>
      </trkpt>
      <trkpt lat="49.45706" lon="0.20851">
        <ele>5.3</ele>
        <time>2020-06-17T16:36:52Z</time>
      </trkpt>
      <trkpt lat="49.45706" lon="0.20846">
        <ele>5.3</ele>
        <time>2020-06-17T16:36:53Z</time>
      </trkpt>
      <trkpt lat="49.45708" lon="0.20841">
        <ele>5.3</ele>
        <time>2020-06-17T16:36:54Z</time>
      </trkpt>
      <trkpt lat="49.45709" lon="0.20835">
        <ele>5.4</ele>
        <time>2020-06-17T16:36:55Z</time>
      </trkpt>
      <trkpt lat="49.4571" lon="0.20829">
        <ele>5.4</ele>
        <time>2020-06-17T16:36:56Z</time>
      </trkpt>
      <trkpt lat="49.45711" lon="0.20823">
        <ele>5.4</ele>
        <time>2020-06-17T16:36:57Z</time>
      </trkpt>
      <trkpt lat="49.45711" lon="0.20818">
        <ele>5.5</ele>
        <time>2020-06-17T16:36:58Z</time>
      </trkpt>
      <trkpt lat="49.45711" lon="0.20813">
        <ele>5.5</ele>
        <time>2020-06-17T16:36:59Z</time>
      </trkpt>
      <trkpt lat="49.45712" lon="0.20808">
        <ele>5.5</ele>
        <time>2020-06-17T16:37:00Z</time>
      </trkpt>
      <trkpt lat="49.45713" lon="0.20803">
        <ele>5.5</ele>
        <time>2020-06-17T16:37:01Z</time>
      </trkpt>
      <trkpt lat="49.45713" lon="0.20797">
        <ele>5.6</ele>
        <time>2020-06-17T16:37:02Z</time>
      </trkpt>
      <trkpt lat="49.45714" lon="0.20792">
        <ele>5.6</ele>
        <time>2020-06-17T16:37:03Z</time>
      </trkpt>
      <trkpt lat="49.45714" lon="0.20788">
        <ele>5.6</ele>
        <time>2020-06-17T16:37:04Z</time>
      </trkpt>
      <trkpt lat="49.45716" lon="0.20784">
        <ele>5.6</ele>
        <time>2020-06-17T16:37:05Z</time>
      </trkpt>
      <trkpt lat="49.45717" lon="0.2078">
        <ele>5.7</ele>
        <time>2020-06-17T16:37:06Z</time>
      </trkpt>
      <trkpt lat="49.4572" lon="0.20778">
        <ele>5.7</ele>
        <time>2020-06-17T16:37:07Z</time>
      </trkpt>
      <trkpt lat="49.45722" lon="0.20778">
        <ele>5.7</ele>
        <time>2020-06-17T16:37:08Z</time>
      </trkpt>
      <trkpt lat="49.45724" lon="0.20776">
        <ele>5.7</ele>
        <time>2020-06-17T16:37:09Z</time>
      </trkpt>
      <trkpt lat="49.45727" lon="0.20779">
        <ele>5.7</ele>
        <time>2020-06-17T16:37:10Z</time>
      </trkpt>
      <trkpt lat="49.45729" lon="0.20778">
        <ele>5.8</ele>
        <time>2020-06-17T16:37:11Z</time>
      </trkpt>
      <trkpt lat="49.4573" lon="0.20778">
        <ele>5.8</ele>
        <time>2020-06-17T16:37:12Z</time>
      </trkpt>
      <trkpt lat="49.45732" lon="0.20777">
        <ele>5.8</ele>
        <time>2020-06-17T16:37:13Z</time>
      </trkpt>
      <trkpt lat="49.45734" lon="0.20777">
        <ele>5.8</ele>
        <time>2020-06-17T16:37:14Z</time>
      </trkpt>
      <trkpt lat="49.45736" lon="0.20775">
        <ele>5.8</ele>
        <time>2020-06-17T16:37:15Z</time>
      </trkpt>
      <trkpt lat="49.45737" lon="0.20774">
        <ele>5.8</ele>
        <time>2020-06-17T16:37:16Z</time>
      </trkpt>
      <trkpt lat="49.45738" lon="0.20773">
        <ele>5.8</ele>
        <time>2020-06-17T16:37:17Z</time>
      </trkpt>
      <trkpt lat="49.45739" lon="0.20774">
        <ele>5.8</ele>
        <time>2020-06-17T16:37:18Z</time>
      </trkpt>
      <trkpt lat="49.45739" lon="0.20775">
        <ele>5.8</ele>
        <time>2020-06-17T16:37:19Z</time>
      </trkpt>
      <trkpt lat="49.4574" lon="0.20775">
        <ele>5.7</ele>
        <time>2020-06-17T16:37:20Z</time>
      </trkpt>
      <trkpt lat="49.45739" lon="0.20776">
        <ele>5.7</ele>
        <time>2020-06-17T16:37:21Z</time>
      </trkpt>
      <trkpt lat="49.45739" lon="0.20776">
        <ele>5.7</ele>
        <time>2020-06-17T16:37:22Z</time>
      </trkpt>
      <trkpt lat="49.45739" lon="0.20776">
        <ele>5.6</ele>
        <time>2020-06-17T16:37:23Z</time>
      </trkpt>
      <trkpt lat="49.45739" lon="0.20776">
        <ele>5.6</ele>
        <time>2020-06-17T16:37:24Z</time>
      </trkpt>
      <trkpt lat="49.45741" lon="0.20776">
        <ele>5.6</ele>
        <time>2020-06-17T16:37:25Z</time>
      </trkpt>
      <trkpt lat="49.45742" lon="0.20775">
        <ele>5.6</ele>
        <time>2020-06-17T16:37:26Z</time>
      </trkpt>
      <trkpt lat="49.45743" lon="0.20776">
        <ele>5.6</ele>
        <time>2020-06-17T16:37:27Z</time>
      </trkpt>
      <trkpt lat="49.45744" lon="0.20776">
        <ele>5.5</ele>
        <time>2020-06-17T16:37:28Z</time>
      </trkpt>
      <trkpt lat="49.45743" lon="0.20776">
        <ele>5.5</ele>
        <time>2020-06-17T16:37:29Z</time>
      </trkpt>
      <trkpt lat="49.45743" lon="0.20775">
        <ele>5.5</ele>
        <time>2020-06-17T16:37:30Z</time>
      </trkpt>
      <trkpt lat="49.45743" lon="0.20775">
        <ele>5.4</ele>
        <time>2020-06-17T16:37:31Z</time>
      </trkpt>
      <trkpt lat="49.45743" lon="0.20775">
        <ele>5.4</ele>
        <time>2020-06-17T16:37:32Z</time>
      </trkpt>
      <trkpt lat="49.45743" lon="0.20775">
        <ele>5.4</ele>
        <time>2020-06-17T16:37:33Z</time>
      </trkpt>
      <trkpt lat="49.45743" lon="0.20775">
        <ele>5.3</ele>
        <time>2020-06-17T16:37:34Z</time>
      </trkpt>
      <trkpt lat="49.45743" lon="0.20775">
        <ele>5.3</ele>
        <time>2020-06-17T16:37:35Z</time>
      </trkpt>
      <trkpt lat="49.45743" lon="0.20775">
        <ele>5.3</ele>
        <time>2020-06-17T16:37:36Z</time>
      </trkpt>
      <trkpt lat="49.45743" lon="0.20775">
        <ele>5.3</ele>
        <time>2020-06-17T16:37:37Z</time>
      </trkpt>
      <trkpt lat="49.45743" lon="0.20775">
        <ele>5.2</ele>
        <time>2020-06-17T16:37:38Z</time>
      </trkpt>
      <trkpt lat="49.45744" lon="0.20775">
        <ele>5.2</ele>
        <time>2020-06-17T16:37:39Z</time>
      </trkpt>
      <trkpt lat="49.45748" lon="0.20779">
        <ele>5.2</ele>
        <time>2020-06-17T16:37:45Z</time>
      </trkpt>
      <trkpt lat="49.45749" lon="0.20781">
        <ele>5.2</ele>
        <time>2020-06-17T16:37:46Z</time>
      </trkpt>
      <trkpt lat="49.45749" lon="0.20782">
        <ele>5.2</ele>
        <time>2020-06-17T16:37:47Z</time>
      </trkpt>
      <trkpt lat="49.45749" lon="0.20783">
        <ele>5.1</ele>
        <time>2020-06-17T16:37:48Z</time>
      </trkpt>
      <trkpt lat="49.45749" lon="0.20784">
        <ele>5.1</ele>
        <time>2020-06-17T16:37:49Z</time>
      </trkpt>
      <trkpt lat="49.4575" lon="0.20787">
        <ele>5.1</ele>
        <time>2020-06-17T16:37:50Z</time>
      </trkpt>
      <trkpt lat="49.4575" lon="0.20789">
        <ele>5</ele>
        <time>2020-06-17T16:37:51Z</time>
      </trkpt>
      <trkpt lat="49.45751" lon="0.20791">
        <ele>5</ele>
        <time>2020-06-17T16:37:52Z</time>
      </trkpt>
      <trkpt lat="49.45752" lon="0.20792">
        <ele>5</ele>
        <time>2020-06-17T16:37:53Z</time>
      </trkpt>
      <trkpt lat="49.45754" lon="0.20792">
        <ele>5</ele>
        <time>2020-06-17T16:37:54Z</time>
      </trkpt>
      <trkpt lat="49.45756" lon="0.20791">
        <ele>5</ele>
        <time>2020-06-17T16:37:55Z</time>
      </trkpt>
      <trkpt lat="49.45757" lon="0.20791">
        <ele>5</ele>
        <time>2020-06-17T16:37:56Z</time>
      </trkpt>
      <trkpt lat="49.45757" lon="0.20791">
        <ele>5</ele>
        <time>2020-06-17T16:37:57Z</time>
      </trkpt>
      <trkpt lat="49.45759" lon="0.2079">
        <ele>5</ele>
        <time>2020-06-17T16:37:58Z</time>
      </trkpt>
      <trkpt lat="49.45759" lon="0.2079">
        <ele>5</ele>
        <time>2020-06-17T16:37:59Z</time>
      </trkpt>
      <trkpt lat="49.4576" lon="0.20789">
        <ele>4.9</ele>
        <time>2020-06-17T16:38:00Z</time>
      </trkpt>
      <trkpt lat="49.45761" lon="0.20789">
        <ele>4.9</ele>
        <time>2020-06-17T16:38:01Z</time>
      </trkpt>
      <trkpt lat="49.45761" lon="0.20788">
        <ele>4.9</ele>
        <time>2020-06-17T16:38:02Z</time>
      </trkpt>
      <trkpt lat="49.45761" lon="0.20788">
        <ele>4.9</ele>
        <time>2020-06-17T16:38:03Z</time>
      </trkpt>
      <trkpt lat="49.45761" lon="0.20788">
        <ele>4.9</ele>
        <time>2020-06-17T16:38:04Z</time>
      </trkpt>
      <trkpt lat="49.45761" lon="0.20788">
        <ele>4.8</ele>
        <time>2020-06-17T16:38:05Z</time>
      </trkpt>
      <trkpt lat="49.45761" lon="0.20788">
        <ele>4.8</ele>
        <time>2020-06-17T16:38:06Z</time>
      </trkpt>
      <trkpt lat="49.4576" lon="0.20789">
        <ele>4.7</ele>
        <time>2020-06-17T16:38:07Z</time>
      </trkpt>
      <trkpt lat="49.4576" lon="0.2079">
        <ele>4.7</ele>
        <time>2020-06-17T16:38:08Z</time>
      </trkpt>
      <trkpt lat="49.4576" lon="0.20789">
        <ele>4.7</ele>
        <time>2020-06-17T16:38:09Z</time>
      </trkpt>
      <trkpt lat="49.4576" lon="0.20789">
        <ele>4.6</ele>
        <time>2020-06-17T16:38:10Z</time>
      </trkpt>
      <trkpt lat="49.4576" lon="0.20789">
        <ele>4.6</ele>
        <time>2020-06-17T16:38:11Z</time>
      </trkpt>
      <trkpt lat="49.45765" lon="0.20782">
        <ele>4.7</ele>
        <time>2020-06-17T16:38:16Z</time>
      </trkpt>
      <trkpt lat="49.45766" lon="0.20779">
        <ele>4.7</ele>
        <time>2020-06-17T16:38:17Z</time>
      </trkpt>
      <trkpt lat="49.45766" lon="0.20771">
        <ele>4.7</ele>
        <time>2020-06-17T16:38:18Z</time>
      </trkpt>
      <trkpt lat="49.45765" lon="0.20765">
        <ele>4.8</ele>
        <time>2020-06-17T16:38:19Z</time>
      </trkpt>
      <trkpt lat="49.45765" lon="0.2076">
        <ele>4.8</ele>
        <time>2020-06-17T16:38:20Z</time>
      </trkpt>
      <trkpt lat="49.45764" lon="0.20753">
        <ele>4.7</ele>
        <time>2020-06-17T16:38:21Z</time>
      </trkpt>
      <trkpt lat="49.45762" lon="0.20744">
        <ele>4.7</ele>
        <time>2020-06-17T16:38:22Z</time>
      </trkpt>
      <trkpt lat="49.45761" lon="0.20738">
        <ele>4.7</ele>
        <time>2020-06-17T16:38:23Z</time>
      </trkpt>
      <trkpt lat="49.45759" lon="0.20731">
        <ele>4.7</ele>
        <time>2020-06-17T16:38:24Z</time>
      </trkpt>
      <trkpt lat="49.45758" lon="0.20724">
        <ele>4.8</ele>
        <time>2020-06-17T16:38:25Z</time>
      </trkpt>
      <trkpt lat="49.45756" lon="0.20718">
        <ele>4.8</ele>
        <time>2020-06-17T16:38:26Z</time>
      </trkpt>
      <trkpt lat="49.45755" lon="0.20711">
        <ele>4.8</ele>
        <time>2020-06-17T16:38:27Z</time>
      </trkpt>
      <trkpt lat="49.45754" lon="0.20704">
        <ele>4.9</ele>
        <time>2020-06-17T16:38:28Z</time>
      </trkpt>
      <trkpt lat="49.45752" lon="0.20696">
        <ele>4.9</ele>
        <time>2020-06-17T16:38:29Z</time>
      </trkpt>
      <trkpt lat="49.45751" lon="0.2069">
        <ele>4.9</ele>
        <time>2020-06-17T16:38:30Z</time>
      </trkpt>
      <trkpt lat="49.4575" lon="0.20683">
        <ele>5</ele>
        <time>2020-06-17T16:38:31Z</time>
      </trkpt>
      <trkpt lat="49.45749" lon="0.20676">
        <ele>5</ele>
        <time>2020-06-17T16:38:32Z</time>
      </trkpt>
      <trkpt lat="49.45749" lon="0.20669">
        <ele>5</ele>
        <time>2020-06-17T16:38:33Z</time>
      </trkpt>
      <trkpt lat="49.4575" lon="0.20662">
        <ele>5</ele>
        <time>2020-06-17T16:38:34Z</time>
      </trkpt>
      <trkpt lat="49.4575" lon="0.20654">
        <ele>5</ele>
        <time>2020-06-17T16:38:35Z</time>
      </trkpt>
      <trkpt lat="49.45751" lon="0.20648">
        <ele>5</ele>
        <time>2020-06-17T16:38:36Z</time>
      </trkpt>
      <trkpt lat="49.45751" lon="0.2064">
        <ele>5</ele>
        <time>2020-06-17T16:38:37Z</time>
      </trkpt>
      <trkpt lat="49.45753" lon="0.20634">
        <ele>5</ele>
        <time>2020-06-17T16:38:38Z</time>
      </trkpt>
      <trkpt lat="49.45755" lon="0.20627">
        <ele>5</ele>
        <time>2020-06-17T16:38:39Z</time>
      </trkpt>
      <trkpt lat="49.45757" lon="0.20622">
        <ele>5</ele>
        <time>2020-06-17T16:38:40Z</time>
      </trkpt>
      <trkpt lat="49.4576" lon="0.20616">
        <ele>5</ele>
        <time>2020-06-17T16:38:41Z</time>
      </trkpt>
      <trkpt lat="49.45763" lon="0.2061">
        <ele>5</ele>
        <time>2020-06-17T16:38:42Z</time>
      </trkpt>
      <trkpt lat="49.45765" lon="0.20605">
        <ele>5</ele>
        <time>2020-06-17T16:38:43Z</time>
      </trkpt>
      <trkpt lat="49.45766" lon="0.20598">
        <ele>4.9</ele>
        <time>2020-06-17T16:38:44Z</time>
      </trkpt>
      <trkpt lat="49.45769" lon="0.20596">
        <ele>4.9</ele>
        <time>2020-06-17T16:38:45Z</time>
      </trkpt>
      <trkpt lat="49.45772" lon="0.20595">
        <ele>4.9</ele>
        <time>2020-06-17T16:38:46Z</time>
      </trkpt>
      <trkpt lat="49.45776" lon="0.20594">
        <ele>4.9</ele>
        <time>2020-06-17T16:38:47Z</time>
      </trkpt>
      <trkpt lat="49.45779" lon="0.20593">
        <ele>4.9</ele>
        <time>2020-06-17T16:38:48Z</time>
      </trkpt>
      <trkpt lat="49.45783" lon="0.20591">
        <ele>4.9</ele>
        <time>2020-06-17T16:38:49Z</time>
      </trkpt>
      <trkpt lat="49.45787" lon="0.20589">
        <ele>4.9</ele>
        <time>2020-06-17T16:38:50Z</time>
      </trkpt>
      <trkpt lat="49.45791" lon="0.20586">
        <ele>4.9</ele>
        <time>2020-06-17T16:38:51Z</time>
      </trkpt>
      <trkpt lat="49.45794" lon="0.20582">
        <ele>4.9</ele>
        <time>2020-06-17T16:38:52Z</time>
      </trkpt>
      <trkpt lat="49.45797" lon="0.20577">
        <ele>4.9</ele>
        <time>2020-06-17T16:38:53Z</time>
      </trkpt>
      <trkpt lat="49.458" lon="0.20571">
        <ele>4.9</ele>
        <time>2020-06-17T16:38:54Z</time>
      </trkpt>
      <trkpt lat="49.45802" lon="0.20564">
        <ele>4.8</ele>
        <time>2020-06-17T16:38:55Z</time>
      </trkpt>
      <trkpt lat="49.45804" lon="0.20557">
        <ele>4.8</ele>
        <time>2020-06-17T16:38:56Z</time>
      </trkpt>
      <trkpt lat="49.45804" lon="0.20549">
        <ele>4.8</ele>
        <time>2020-06-17T16:38:57Z</time>
      </trkpt>
      <trkpt lat="49.45805" lon="0.20542">
        <ele>4.8</ele>
        <time>2020-06-17T16:38:58Z</time>
      </trkpt>
      <trkpt lat="49.45805" lon="0.20535">
        <ele>4.8</ele>
        <time>2020-06-17T16:38:59Z</time>
      </trkpt>
      <trkpt lat="49.45803" lon="0.20529">
        <ele>4.8</ele>
        <time>2020-06-17T16:39:00Z</time>
      </trkpt>
      <trkpt lat="49.45801" lon="0.20524">
        <ele>4.8</ele>
        <time>2020-06-17T16:39:01Z</time>
      </trkpt>
      <trkpt lat="49.45798" lon="0.20518">
        <ele>4.9</ele>
        <time>2020-06-17T16:39:02Z</time>
      </trkpt>
      <trkpt lat="49.45795" lon="0.20511">
        <ele>4.9</ele>
        <time>2020-06-17T16:39:03Z</time>
      </trkpt>
      <trkpt lat="49.45792" lon="0.20504">
        <ele>4.9</ele>
        <time>2020-06-17T16:39:04Z</time>
      </trkpt>
      <trkpt lat="49.45789" lon="0.20498">
        <ele>4.9</ele>
        <time>2020-06-17T16:39:05Z</time>
      </trkpt>
      <trkpt lat="49.45786" lon="0.20492">
        <ele>4.9</ele>
        <time>2020-06-17T16:39:06Z</time>
      </trkpt>
      <trkpt lat="49.45783" lon="0.20486">
        <ele>4.9</ele>
        <time>2020-06-17T16:39:07Z</time>
      </trkpt>
      <trkpt lat="49.45781" lon="0.20478">
        <ele>4.9</ele>
        <time>2020-06-17T16:39:08Z</time>
      </trkpt>
      <trkpt lat="49.45781" lon="0.2047">
        <ele>5</ele>
        <time>2020-06-17T16:39:09Z</time>
      </trkpt>
      <trkpt lat="49.45782" lon="0.20461">
        <ele>5</ele>
        <time>2020-06-17T16:39:10Z</time>
      </trkpt>
      <trkpt lat="49.45783" lon="0.20453">
        <ele>5</ele>
        <time>2020-06-17T16:39:11Z</time>
      </trkpt>
      <trkpt lat="49.45785" lon="0.20444">
        <ele>5</ele>
        <time>2020-06-17T16:39:12Z</time>
      </trkpt>
      <trkpt lat="49.45786" lon="0.20436">
        <ele>5</ele>
        <time>2020-06-17T16:39:13Z</time>
      </trkpt>
      <trkpt lat="49.45786" lon="0.20428">
        <ele>5</ele>
        <time>2020-06-17T16:39:14Z</time>
      </trkpt>
      <trkpt lat="49.45786" lon="0.20419">
        <ele>5</ele>
        <time>2020-06-17T16:39:15Z</time>
      </trkpt>
      <trkpt lat="49.45787" lon="0.20409">
        <ele>5.1</ele>
        <time>2020-06-17T16:39:16Z</time>
      </trkpt>
      <trkpt lat="49.45788" lon="0.204">
        <ele>5.2</ele>
        <time>2020-06-17T16:39:17Z</time>
      </trkpt>
      <trkpt lat="49.45789" lon="0.20391">
        <ele>5.2</ele>
        <time>2020-06-17T16:39:18Z</time>
      </trkpt>
      <trkpt lat="49.4579" lon="0.20382">
        <ele>5.2</ele>
        <time>2020-06-17T16:39:19Z</time>
      </trkpt>
      <trkpt lat="49.45791" lon="0.20372">
        <ele>5.1</ele>
        <time>2020-06-17T16:39:20Z</time>
      </trkpt>
      <trkpt lat="49.45791" lon="0.20361">
        <ele>5.1</ele>
        <time>2020-06-17T16:39:21Z</time>
      </trkpt>
      <trkpt lat="49.45792" lon="0.20351">
        <ele>5.1</ele>
        <time>2020-06-17T16:39:22Z</time>
      </trkpt>
      <trkpt lat="49.45793" lon="0.20342">
        <ele>5.1</ele>
        <time>2020-06-17T16:39:23Z</time>
      </trkpt>
      <trkpt lat="49.45794" lon="0.20333">
        <ele>5.1</ele>
        <time>2020-06-17T16:39:24Z</time>
      </trkpt>
      <trkpt lat="49.45795" lon="0.20324">
        <ele>5</ele>
        <time>2020-06-17T16:39:25Z</time>
      </trkpt>
      <trkpt lat="49.45796" lon="0.20315">
        <ele>5</ele>
        <time>2020-06-17T16:39:26Z</time>
      </trkpt>
      <trkpt lat="49.45796" lon="0.20307">
        <ele>5</ele>
        <time>2020-06-17T16:39:27Z</time>
      </trkpt>
      <trkpt lat="49.45797" lon="0.20298">
        <ele>5</ele>
        <time>2020-06-17T16:39:28Z</time>
      </trkpt>
      <trkpt lat="49.45798" lon="0.20292">
        <ele>5</ele>
        <time>2020-06-17T16:39:29Z</time>
      </trkpt>
      <trkpt lat="49.45799" lon="0.20285">
        <ele>5</ele>
        <time>2020-06-17T16:39:30Z</time>
      </trkpt>
      <trkpt lat="49.458" lon="0.20278">
        <ele>5.1</ele>
        <time>2020-06-17T16:39:31Z</time>
      </trkpt>
      <trkpt lat="49.45801" lon="0.20271">
        <ele>5.1</ele>
        <time>2020-06-17T16:39:32Z</time>
      </trkpt>
      <trkpt lat="49.45802" lon="0.20266">
        <ele>5.1</ele>
        <time>2020-06-17T16:39:33Z</time>
      </trkpt>
      <trkpt lat="49.45802" lon="0.20259">
        <ele>5.1</ele>
        <time>2020-06-17T16:39:34Z</time>
      </trkpt>
      <trkpt lat="49.45804" lon="0.20251">
        <ele>5.1</ele>
        <time>2020-06-17T16:39:35Z</time>
      </trkpt>
      <trkpt lat="49.45804" lon="0.20246">
        <ele>5.1</ele>
        <time>2020-06-17T16:39:36Z</time>
      </trkpt>
      <trkpt lat="49.45805" lon="0.2024">
        <ele>5.1</ele>
        <time>2020-06-17T16:39:37Z</time>
      </trkpt>
      <trkpt lat="49.45806" lon="0.20234">
        <ele>5.1</ele>
        <time>2020-06-17T16:39:38Z</time>
      </trkpt>
      <trkpt lat="49.45806" lon="0.20231">
        <ele>5.1</ele>
        <time>2020-06-17T16:39:39Z</time>
      </trkpt>
      <trkpt lat="49.45808" lon="0.20225">
        <ele>5.1</ele>
        <time>2020-06-17T16:39:40Z</time>
      </trkpt>
      <trkpt lat="49.45811" lon="0.20219">
        <ele>5.1</ele>
        <time>2020-06-17T16:39:41Z</time>
      </trkpt>
      <trkpt lat="49.45813" lon="0.20212">
        <ele>5.1</ele>
        <time>2020-06-17T16:39:42Z</time>
      </trkpt>
      <trkpt lat="49.45816" lon="0.20204">
        <ele>5.1</ele>
        <time>2020-06-17T16:39:43Z</time>
      </trkpt>
      <trkpt lat="49.45818" lon="0.20196">
        <ele>5.1</ele>
        <time>2020-06-17T16:39:44Z</time>
      </trkpt>
      <trkpt lat="49.4582" lon="0.20188">
        <ele>5.1</ele>
        <time>2020-06-17T16:39:45Z</time>
      </trkpt>
      <trkpt lat="49.45822" lon="0.20182">
        <ele>5.1</ele>
        <time>2020-06-17T16:39:46Z</time>
      </trkpt>
      <trkpt lat="49.45825" lon="0.20173">
        <ele>5</ele>
        <time>2020-06-17T16:39:47Z</time>
      </trkpt>
      <trkpt lat="49.45828" lon="0.20166">
        <ele>5</ele>
        <time>2020-06-17T16:39:48Z</time>
      </trkpt>
      <trkpt lat="49.45831" lon="0.20159">
        <ele>5</ele>
        <time>2020-06-17T16:39:49Z</time>
      </trkpt>
      <trkpt lat="49.45834" lon="0.20153">
        <ele>5</ele>
        <time>2020-06-17T16:39:50Z</time>
      </trkpt>
      <trkpt lat="49.45837" lon="0.20146">
        <ele>5</ele>
        <time>2020-06-17T16:39:51Z</time>
      </trkpt>
      <trkpt lat="49.4584" lon="0.20137">
        <ele>5</ele>
        <time>2020-06-17T16:39:52Z</time>
      </trkpt>
      <trkpt lat="49.45843" lon="0.20129">
        <ele>5</ele>
        <time>2020-06-17T16:39:53Z</time>
      </trkpt>
      <trkpt lat="49.45846" lon="0.2012">
        <ele>5</ele>
        <time>2020-06-17T16:39:54Z</time>
      </trkpt>
      <trkpt lat="49.45848" lon="0.20113">
        <ele>4.9</ele>
        <time>2020-06-17T16:39:55Z</time>
      </trkpt>
      <trkpt lat="49.4585" lon="0.20105">
        <ele>4.9</ele>
        <time>2020-06-17T16:39:56Z</time>
      </trkpt>
      <trkpt lat="49.45852" lon="0.20096">
        <ele>4.8</ele>
        <time>2020-06-17T16:39:57Z</time>
      </trkpt>
      <trkpt lat="49.45854" lon="0.20088">
        <ele>4.8</ele>
        <time>2020-06-17T16:39:58Z</time>
      </trkpt>
      <trkpt lat="49.45856" lon="0.20079">
        <ele>4.7</ele>
        <time>2020-06-17T16:39:59Z</time>
      </trkpt>
      <trkpt lat="49.45857" lon="0.20069">
        <ele>4.7</ele>
        <time>2020-06-17T16:40:00Z</time>
      </trkpt>
      <trkpt lat="49.45857" lon="0.2006">
        <ele>4.6</ele>
        <time>2020-06-17T16:40:01Z</time>
      </trkpt>
      <trkpt lat="49.45858" lon="0.20052">
        <ele>4.6</ele>
        <time>2020-06-17T16:40:02Z</time>
      </trkpt>
      <trkpt lat="49.4586" lon="0.20043">
        <ele>4.6</ele>
        <time>2020-06-17T16:40:03Z</time>
      </trkpt>
      <trkpt lat="49.45861" lon="0.20034">
        <ele>4.6</ele>
        <time>2020-06-17T16:40:04Z</time>
      </trkpt>
      <trkpt lat="49.45861" lon="0.20026">
        <ele>4.7</ele>
        <time>2020-06-17T16:40:05Z</time>
      </trkpt>
      <trkpt lat="49.45862" lon="0.20017">
        <ele>4.7</ele>
        <time>2020-06-17T16:40:06Z</time>
      </trkpt>
      <trkpt lat="49.45862" lon="0.20008">
        <ele>4.7</ele>
        <time>2020-06-17T16:40:07Z</time>
      </trkpt>
      <trkpt lat="49.45863" lon="0.19996">
        <ele>4.7</ele>
        <time>2020-06-17T16:40:08Z</time>
      </trkpt>
      <trkpt lat="49.45863" lon="0.19986">
        <ele>4.7</ele>
        <time>2020-06-17T16:40:09Z</time>
      </trkpt>
      <trkpt lat="49.45863" lon="0.19978">
        <ele>4.7</ele>
        <time>2020-06-17T16:40:10Z</time>
      </trkpt>
      <trkpt lat="49.45864" lon="0.19968">
        <ele>4.7</ele>
        <time>2020-06-17T16:40:11Z</time>
      </trkpt>
      <trkpt lat="49.45865" lon="0.19959">
        <ele>4.7</ele>
        <time>2020-06-17T16:40:12Z</time>
      </trkpt>
      <trkpt lat="49.45865" lon="0.19949">
        <ele>4.7</ele>
        <time>2020-06-17T16:40:13Z</time>
      </trkpt>
      <trkpt lat="49.45866" lon="0.19941">
        <ele>4.8</ele>
        <time>2020-06-17T16:40:14Z</time>
      </trkpt>
      <trkpt lat="49.45867" lon="0.19932">
        <ele>4.8</ele>
        <time>2020-06-17T16:40:15Z</time>
      </trkpt>
      <trkpt lat="49.45868" lon="0.19922">
        <ele>4.8</ele>
        <time>2020-06-17T16:40:16Z</time>
      </trkpt>
      <trkpt lat="49.45869" lon="0.19913">
        <ele>4.8</ele>
        <time>2020-06-17T16:40:17Z</time>
      </trkpt>
      <trkpt lat="49.4587" lon="0.19905">
        <ele>4.8</ele>
        <time>2020-06-17T16:40:18Z</time>
      </trkpt>
      <trkpt lat="49.45871" lon="0.19897">
        <ele>4.8</ele>
        <time>2020-06-17T16:40:19Z</time>
      </trkpt>
      <trkpt lat="49.45872" lon="0.19888">
        <ele>4.7</ele>
        <time>2020-06-17T16:40:20Z</time>
      </trkpt>
      <trkpt lat="49.45874" lon="0.19879">
        <ele>4.7</ele>
        <time>2020-06-17T16:40:21Z</time>
      </trkpt>
      <trkpt lat="49.45875" lon="0.19871">
        <ele>4.7</ele>
        <time>2020-06-17T16:40:22Z</time>
      </trkpt>
      <trkpt lat="49.45876" lon="0.19862">
        <ele>4.7</ele>
        <time>2020-06-17T16:40:23Z</time>
      </trkpt>
      <trkpt lat="49.45877" lon="0.19854">
        <ele>4.7</ele>
        <time>2020-06-17T16:40:24Z</time>
      </trkpt>
      <trkpt lat="49.45879" lon="0.19845">
        <ele>4.8</ele>
        <time>2020-06-17T16:40:25Z</time>
      </trkpt>
      <trkpt lat="49.4588" lon="0.19836">
        <ele>4.8</ele>
        <time>2020-06-17T16:40:26Z</time>
      </trkpt>
      <trkpt lat="49.45881" lon="0.19826">
        <ele>4.9</ele>
        <time>2020-06-17T16:40:27Z</time>
      </trkpt>
      <trkpt lat="49.45882" lon="0.19818">
        <ele>4.9</ele>
        <time>2020-06-17T16:40:28Z</time>
      </trkpt>
      <trkpt lat="49.45883" lon="0.1981">
        <ele>4.9</ele>
        <time>2020-06-17T16:40:29Z</time>
      </trkpt>
      <trkpt lat="49.45885" lon="0.19801">
        <ele>4.9</ele>
        <time>2020-06-17T16:40:30Z</time>
      </trkpt>
      <trkpt lat="49.45886" lon="0.19791">
        <ele>4.9</ele>
        <time>2020-06-17T16:40:31Z</time>
      </trkpt>
      <trkpt lat="49.45887" lon="0.19782">
        <ele>4.9</ele>
        <time>2020-06-17T16:40:32Z</time>
      </trkpt>
      <trkpt lat="49.45888" lon="0.19772">
        <ele>4.9</ele>
        <time>2020-06-17T16:40:33Z</time>
      </trkpt>
      <trkpt lat="49.45889" lon="0.19762">
        <ele>4.9</ele>
        <time>2020-06-17T16:40:34Z</time>
      </trkpt>
      <trkpt lat="49.4589" lon="0.19753">
        <ele>4.9</ele>
        <time>2020-06-17T16:40:35Z</time>
      </trkpt>
      <trkpt lat="49.45891" lon="0.19743">
        <ele>4.8</ele>
        <time>2020-06-17T16:40:36Z</time>
      </trkpt>
      <trkpt lat="49.45893" lon="0.19733">
        <ele>4.8</ele>
        <time>2020-06-17T16:40:37Z</time>
      </trkpt>
      <trkpt lat="49.45894" lon="0.19723">
        <ele>4.8</ele>
        <time>2020-06-17T16:40:38Z</time>
      </trkpt>
      <trkpt lat="49.45895" lon="0.19714">
        <ele>4.8</ele>
        <time>2020-06-17T16:40:39Z</time>
      </trkpt>
      <trkpt lat="49.45896" lon="0.19706">
        <ele>4.8</ele>
        <time>2020-06-17T16:40:40Z</time>
      </trkpt>
      <trkpt lat="49.45898" lon="0.19697">
        <ele>4.7</ele>
        <time>2020-06-17T16:40:41Z</time>
      </trkpt>
      <trkpt lat="49.45899" lon="0.19688">
        <ele>4.7</ele>
        <time>2020-06-17T16:40:42Z</time>
      </trkpt>
      <trkpt lat="49.459" lon="0.19678">
        <ele>4.7</ele>
        <time>2020-06-17T16:40:43Z</time>
      </trkpt>
      <trkpt lat="49.45901" lon="0.19668">
        <ele>4.7</ele>
        <time>2020-06-17T16:40:44Z</time>
      </trkpt>
      <trkpt lat="49.45902" lon="0.19658">
        <ele>4.7</ele>
        <time>2020-06-17T16:40:45Z</time>
      </trkpt>
      <trkpt lat="49.45904" lon="0.19648">
        <ele>4.8</ele>
        <time>2020-06-17T16:40:46Z</time>
      </trkpt>
      <trkpt lat="49.45905" lon="0.19639">
        <ele>4.8</ele>
        <time>2020-06-17T16:40:47Z</time>
      </trkpt>
      <trkpt lat="49.45906" lon="0.1963">
        <ele>4.8</ele>
        <time>2020-06-17T16:40:48Z</time>
      </trkpt>
      <trkpt lat="49.45907" lon="0.19622">
        <ele>4.8</ele>
        <time>2020-06-17T16:40:49Z</time>
      </trkpt>
      <trkpt lat="49.45909" lon="0.19613">
        <ele>4.8</ele>
        <time>2020-06-17T16:40:50Z</time>
      </trkpt>
      <trkpt lat="49.4591" lon="0.19604">
        <ele>4.8</ele>
        <time>2020-06-17T16:40:51Z</time>
      </trkpt>
      <trkpt lat="49.45911" lon="0.19595">
        <ele>4.8</ele>
        <time>2020-06-17T16:40:52Z</time>
      </trkpt>
      <trkpt lat="49.45912" lon="0.19586">
        <ele>4.8</ele>
        <time>2020-06-17T16:40:53Z</time>
      </trkpt>
      <trkpt lat="49.45913" lon="0.19578">
        <ele>4.8</ele>
        <time>2020-06-17T16:40:54Z</time>
      </trkpt>
      <trkpt lat="49.45914" lon="0.19568">
        <ele>4.8</ele>
        <time>2020-06-17T16:40:55Z</time>
      </trkpt>
      <trkpt lat="49.45916" lon="0.19559">
        <ele>4.8</ele>
        <time>2020-06-17T16:40:56Z</time>
      </trkpt>
      <trkpt lat="49.45917" lon="0.19551">
        <ele>4.8</ele>
        <time>2020-06-17T16:40:57Z</time>
      </trkpt>
      <trkpt lat="49.45919" lon="0.19541">
        <ele>4.8</ele>
        <time>2020-06-17T16:40:58Z</time>
      </trkpt>
      <trkpt lat="49.45921" lon="0.19532">
        <ele>4.8</ele>
        <time>2020-06-17T16:40:59Z</time>
      </trkpt>
      <trkpt lat="49.45922" lon="0.19523">
        <ele>4.8</ele>
        <time>2020-06-17T16:41:00Z</time>
      </trkpt>
      <trkpt lat="49.45924" lon="0.19514">
        <ele>4.8</ele>
        <time>2020-06-17T16:41:01Z</time>
      </trkpt>
      <trkpt lat="49.45925" lon="0.19505">
        <ele>4.7</ele>
        <time>2020-06-17T16:41:02Z</time>
      </trkpt>
      <trkpt lat="49.45927" lon="0.19495">
        <ele>4.7</ele>
        <time>2020-06-17T16:41:03Z</time>
      </trkpt>
      <trkpt lat="49.45929" lon="0.19486">
        <ele>4.7</ele>
        <time>2020-06-17T16:41:04Z</time>
      </trkpt>
      <trkpt lat="49.4593" lon="0.19476">
        <ele>4.7</ele>
        <time>2020-06-17T16:41:05Z</time>
      </trkpt>
      <trkpt lat="49.45931" lon="0.19466">
        <ele>4.7</ele>
        <time>2020-06-17T16:41:06Z</time>
      </trkpt>
      <trkpt lat="49.45932" lon="0.19457">
        <ele>4.7</ele>
        <time>2020-06-17T16:41:07Z</time>
      </trkpt>
      <trkpt lat="49.45933" lon="0.19447">
        <ele>4.8</ele>
        <time>2020-06-17T16:41:08Z</time>
      </trkpt>
      <trkpt lat="49.45935" lon="0.19437">
        <ele>4.8</ele>
        <time>2020-06-17T16:41:09Z</time>
      </trkpt>
      <trkpt lat="49.45936" lon="0.19428">
        <ele>4.8</ele>
        <time>2020-06-17T16:41:10Z</time>
      </trkpt>
      <trkpt lat="49.45938" lon="0.19418">
        <ele>4.8</ele>
        <time>2020-06-17T16:41:11Z</time>
      </trkpt>
      <trkpt lat="49.45939" lon="0.19409">
        <ele>4.8</ele>
        <time>2020-06-17T16:41:12Z</time>
      </trkpt>
      <trkpt lat="49.45941" lon="0.194">
        <ele>4.8</ele>
        <time>2020-06-17T16:41:13Z</time>
      </trkpt>
      <trkpt lat="49.45942" lon="0.19391">
        <ele>4.7</ele>
        <time>2020-06-17T16:41:14Z</time>
      </trkpt>
      <trkpt lat="49.45943" lon="0.19382">
        <ele>4.6</ele>
        <time>2020-06-17T16:41:15Z</time>
      </trkpt>
      <trkpt lat="49.45945" lon="0.19373">
        <ele>4.6</ele>
        <time>2020-06-17T16:41:16Z</time>
      </trkpt>
      <trkpt lat="49.45947" lon="0.19364">
        <ele>4.5</ele>
        <time>2020-06-17T16:41:17Z</time>
      </trkpt>
      <trkpt lat="49.45948" lon="0.19356">
        <ele>4.5</ele>
        <time>2020-06-17T16:41:18Z</time>
      </trkpt>
      <trkpt lat="49.45949" lon="0.19347">
        <ele>4.4</ele>
        <time>2020-06-17T16:41:19Z</time>
      </trkpt>
      <trkpt lat="49.4595" lon="0.19337">
        <ele>4.4</ele>
        <time>2020-06-17T16:41:20Z</time>
      </trkpt>
      <trkpt lat="49.45951" lon="0.19328">
        <ele>4.3</ele>
        <time>2020-06-17T16:41:21Z</time>
      </trkpt>
      <trkpt lat="49.45951" lon="0.19319">
        <ele>4.4</ele>
        <time>2020-06-17T16:41:22Z</time>
      </trkpt>
      <trkpt lat="49.45953" lon="0.1931">
        <ele>4.4</ele>
        <time>2020-06-17T16:41:23Z</time>
      </trkpt>
      <trkpt lat="49.45954" lon="0.19301">
        <ele>4.4</ele>
        <time>2020-06-17T16:41:24Z</time>
      </trkpt>
      <trkpt lat="49.45955" lon="0.19293">
        <ele>4.4</ele>
        <time>2020-06-17T16:41:25Z</time>
      </trkpt>
      <trkpt lat="49.45957" lon="0.19283">
        <ele>4.4</ele>
        <time>2020-06-17T16:41:26Z</time>
      </trkpt>
      <trkpt lat="49.45958" lon="0.19273">
        <ele>4.5</ele>
        <time>2020-06-17T16:41:27Z</time>
      </trkpt>
      <trkpt lat="49.4596" lon="0.19263">
        <ele>4.5</ele>
        <time>2020-06-17T16:41:28Z</time>
      </trkpt>
      <trkpt lat="49.45961" lon="0.19253">
        <ele>4.5</ele>
        <time>2020-06-17T16:41:29Z</time>
      </trkpt>
      <trkpt lat="49.45962" lon="0.19244">
        <ele>4.5</ele>
        <time>2020-06-17T16:41:30Z</time>
      </trkpt>
      <trkpt lat="49.45964" lon="0.19233">
        <ele>4.5</ele>
        <time>2020-06-17T16:41:31Z</time>
      </trkpt>
      <trkpt lat="49.45965" lon="0.19223">
        <ele>4.5</ele>
        <time>2020-06-17T16:41:32Z</time>
      </trkpt>
      <trkpt lat="49.45967" lon="0.19215">
        <ele>4.6</ele>
        <time>2020-06-17T16:41:33Z</time>
      </trkpt>
      <trkpt lat="49.45968" lon="0.19206">
        <ele>4.6</ele>
        <time>2020-06-17T16:41:34Z</time>
      </trkpt>
      <trkpt lat="49.45969" lon="0.19197">
        <ele>4.6</ele>
        <time>2020-06-17T16:41:35Z</time>
      </trkpt>
      <trkpt lat="49.4597" lon="0.19188">
        <ele>4.6</ele>
        <time>2020-06-17T16:41:36Z</time>
      </trkpt>
      <trkpt lat="49.4597" lon="0.1918">
        <ele>4.6</ele>
        <time>2020-06-17T16:41:37Z</time>
      </trkpt>
      <trkpt lat="49.45971" lon="0.19171">
        <ele>4.5</ele>
        <time>2020-06-17T16:41:38Z</time>
      </trkpt>
      <trkpt lat="49.45972" lon="0.19163">
        <ele>4.5</ele>
        <time>2020-06-17T16:41:39Z</time>
      </trkpt>
      <trkpt lat="49.45973" lon="0.19154">
        <ele>4.5</ele>
        <time>2020-06-17T16:41:40Z</time>
      </trkpt>
      <trkpt lat="49.45974" lon="0.19147">
        <ele>4.5</ele>
        <time>2020-06-17T16:41:41Z</time>
      </trkpt>
      <trkpt lat="49.45975" lon="0.19136">
        <ele>4.5</ele>
        <time>2020-06-17T16:41:42Z</time>
      </trkpt>
      <trkpt lat="49.45976" lon="0.19128">
        <ele>4.6</ele>
        <time>2020-06-17T16:41:43Z</time>
      </trkpt>
      <trkpt lat="49.45978" lon="0.19119">
        <ele>4.6</ele>
        <time>2020-06-17T16:41:44Z</time>
      </trkpt>
      <trkpt lat="49.4598" lon="0.19109">
        <ele>4.7</ele>
        <time>2020-06-17T16:41:45Z</time>
      </trkpt>
      <trkpt lat="49.45981" lon="0.19099">
        <ele>4.8</ele>
        <time>2020-06-17T16:41:46Z</time>
      </trkpt>
      <trkpt lat="49.45983" lon="0.19091">
        <ele>4.8</ele>
        <time>2020-06-17T16:41:47Z</time>
      </trkpt>
      <trkpt lat="49.45984" lon="0.19083">
        <ele>4.8</ele>
        <time>2020-06-17T16:41:48Z</time>
      </trkpt>
      <trkpt lat="49.45985" lon="0.19073">
        <ele>4.7</ele>
        <time>2020-06-17T16:41:49Z</time>
      </trkpt>
      <trkpt lat="49.45987" lon="0.19064">
        <ele>4.7</ele>
        <time>2020-06-17T16:41:50Z</time>
      </trkpt>
      <trkpt lat="49.45988" lon="0.19054">
        <ele>4.7</ele>
        <time>2020-06-17T16:41:51Z</time>
      </trkpt>
      <trkpt lat="49.45989" lon="0.19044">
        <ele>4.7</ele>
        <time>2020-06-17T16:41:52Z</time>
      </trkpt>
      <trkpt lat="49.4599" lon="0.19034">
        <ele>4.7</ele>
        <time>2020-06-17T16:41:53Z</time>
      </trkpt>
      <trkpt lat="49.45991" lon="0.19025">
        <ele>4.7</ele>
        <time>2020-06-17T16:41:54Z</time>
      </trkpt>
      <trkpt lat="49.45992" lon="0.19018">
        <ele>4.7</ele>
        <time>2020-06-17T16:41:55Z</time>
      </trkpt>
      <trkpt lat="49.45993" lon="0.19009">
        <ele>4.7</ele>
        <time>2020-06-17T16:41:56Z</time>
      </trkpt>
      <trkpt lat="49.45993" lon="0.18999">
        <ele>4.7</ele>
        <time>2020-06-17T16:41:57Z</time>
      </trkpt>
      <trkpt lat="49.45995" lon="0.18991">
        <ele>4.8</ele>
        <time>2020-06-17T16:41:58Z</time>
      </trkpt>
      <trkpt lat="49.45995" lon="0.18982">
        <ele>4.8</ele>
        <time>2020-06-17T16:41:59Z</time>
      </trkpt>
      <trkpt lat="49.45996" lon="0.18972">
        <ele>4.8</ele>
        <time>2020-06-17T16:42:00Z</time>
      </trkpt>
      <trkpt lat="49.45998" lon="0.18967">
        <ele>4.8</ele>
        <time>2020-06-17T16:42:01Z</time>
      </trkpt>
      <trkpt lat="49.45999" lon="0.18961">
        <ele>4.8</ele>
        <time>2020-06-17T16:42:02Z</time>
      </trkpt>
      <trkpt lat="49.46" lon="0.18953">
        <ele>4.8</ele>
        <time>2020-06-17T16:42:03Z</time>
      </trkpt>
      <trkpt lat="49.46002" lon="0.18945">
        <ele>4.9</ele>
        <time>2020-06-17T16:42:04Z</time>
      </trkpt>
      <trkpt lat="49.46003" lon="0.18937">
        <ele>4.9</ele>
        <time>2020-06-17T16:42:05Z</time>
      </trkpt>
      <trkpt lat="49.46004" lon="0.18929">
        <ele>4.9</ele>
        <time>2020-06-17T16:42:06Z</time>
      </trkpt>
      <trkpt lat="49.46005" lon="0.18921">
        <ele>5</ele>
        <time>2020-06-17T16:42:07Z</time>
      </trkpt>
      <trkpt lat="49.46006" lon="0.18913">
        <ele>5</ele>
        <time>2020-06-17T16:42:08Z</time>
      </trkpt>
      <trkpt lat="49.46008" lon="0.18906">
        <ele>5.1</ele>
        <time>2020-06-17T16:42:09Z</time>
      </trkpt>
      <trkpt lat="49.46009" lon="0.18899">
        <ele>5.1</ele>
        <time>2020-06-17T16:42:10Z</time>
      </trkpt>
      <trkpt lat="49.4601" lon="0.18892">
        <ele>5.2</ele>
        <time>2020-06-17T16:42:11Z</time>
      </trkpt>
      <trkpt lat="49.4601" lon="0.18885">
        <ele>5.2</ele>
        <time>2020-06-17T16:42:12Z</time>
      </trkpt>
      <trkpt lat="49.46011" lon="0.18879">
        <ele>5.3</ele>
        <time>2020-06-17T16:42:13Z</time>
      </trkpt>
      <trkpt lat="49.46012" lon="0.18871">
        <ele>5.3</ele>
        <time>2020-06-17T16:42:14Z</time>
      </trkpt>
      <trkpt lat="49.46013" lon="0.18865">
        <ele>5.4</ele>
        <time>2020-06-17T16:42:15Z</time>
      </trkpt>
      <trkpt lat="49.46014" lon="0.18858">
        <ele>5.5</ele>
        <time>2020-06-17T16:42:16Z</time>
      </trkpt>
      <trkpt lat="49.46015" lon="0.18851">
        <ele>5.7</ele>
        <time>2020-06-17T16:42:17Z</time>
      </trkpt>
      <trkpt lat="49.46016" lon="0.18845">
        <ele>5.8</ele>
        <time>2020-06-17T16:42:18Z</time>
      </trkpt>
      <trkpt lat="49.46019" lon="0.18842">
        <ele>5.8</ele>
        <time>2020-06-17T16:42:19Z</time>
      </trkpt>
      <trkpt lat="49.46021" lon="0.18842">
        <ele>5.8</ele>
        <time>2020-06-17T16:42:20Z</time>
      </trkpt>
      <trkpt lat="49.46024" lon="0.18842">
        <ele>5.7</ele>
        <time>2020-06-17T16:42:21Z</time>
      </trkpt>
      <trkpt lat="49.46028" lon="0.18839">
        <ele>5.7</ele>
        <time>2020-06-17T16:42:22Z</time>
      </trkpt>
      <trkpt lat="49.46031" lon="0.18836">
        <ele>5.6</ele>
        <time>2020-06-17T16:42:23Z</time>
      </trkpt>
      <trkpt lat="49.46033" lon="0.18833">
        <ele>5.5</ele>
        <time>2020-06-17T16:42:24Z</time>
      </trkpt>
      <trkpt lat="49.46035" lon="0.18828">
        <ele>5.4</ele>
        <time>2020-06-17T16:42:25Z</time>
      </trkpt>
      <trkpt lat="49.46038" lon="0.18823">
        <ele>5.3</ele>
        <time>2020-06-17T16:42:26Z</time>
      </trkpt>
      <trkpt lat="49.46041" lon="0.18819">
        <ele>5.2</ele>
        <time>2020-06-17T16:42:27Z</time>
      </trkpt>
      <trkpt lat="49.46043" lon="0.18813">
        <ele>5.2</ele>
        <time>2020-06-17T16:42:28Z</time>
      </trkpt>
      <trkpt lat="49.46046" lon="0.18808">
        <ele>5.1</ele>
        <time>2020-06-17T16:42:29Z</time>
      </trkpt>
      <trkpt lat="49.46049" lon="0.18804">
        <ele>5.1</ele>
        <time>2020-06-17T16:42:30Z</time>
      </trkpt>
      <trkpt lat="49.46051" lon="0.18798">
        <ele>5.1</ele>
        <time>2020-06-17T16:42:31Z</time>
      </trkpt>
      <trkpt lat="49.46055" lon="0.18791">
        <ele>5</ele>
        <time>2020-06-17T16:42:32Z</time>
      </trkpt>
      <trkpt lat="49.46058" lon="0.18786">
        <ele>5</ele>
        <time>2020-06-17T16:42:33Z</time>
      </trkpt>
      <trkpt lat="49.46061" lon="0.1878">
        <ele>5</ele>
        <time>2020-06-17T16:42:34Z</time>
      </trkpt>
      <trkpt lat="49.46063" lon="0.18773">
        <ele>5</ele>
        <time>2020-06-17T16:42:35Z</time>
      </trkpt>
      <trkpt lat="49.46067" lon="0.18768">
        <ele>5</ele>
        <time>2020-06-17T16:42:36Z</time>
      </trkpt>
      <trkpt lat="49.4607" lon="0.18762">
        <ele>5</ele>
        <time>2020-06-17T16:42:37Z</time>
      </trkpt>
      <trkpt lat="49.46074" lon="0.18756">
        <ele>4.9</ele>
        <time>2020-06-17T16:42:38Z</time>
      </trkpt>
      <trkpt lat="49.46078" lon="0.1875">
        <ele>4.9</ele>
        <time>2020-06-17T16:42:39Z</time>
      </trkpt>
      <trkpt lat="49.46081" lon="0.18745">
        <ele>4.8</ele>
        <time>2020-06-17T16:42:40Z</time>
      </trkpt>
      <trkpt lat="49.46084" lon="0.18738">
        <ele>4.8</ele>
        <time>2020-06-17T16:42:41Z</time>
      </trkpt>
      <trkpt lat="49.46088" lon="0.18732">
        <ele>4.8</ele>
        <time>2020-06-17T16:42:42Z</time>
      </trkpt>
      <trkpt lat="49.46092" lon="0.18725">
        <ele>4.7</ele>
        <time>2020-06-17T16:42:43Z</time>
      </trkpt>
      <trkpt lat="49.46096" lon="0.18719">
        <ele>4.7</ele>
        <time>2020-06-17T16:42:44Z</time>
      </trkpt>
      <trkpt lat="49.461" lon="0.18713">
        <ele>4.7</ele>
        <time>2020-06-17T16:42:45Z</time>
      </trkpt>
      <trkpt lat="49.46104" lon="0.18708">
        <ele>4.7</ele>
        <time>2020-06-17T16:42:46Z</time>
      </trkpt>
      <trkpt lat="49.46107" lon="0.18702">
        <ele>4.7</ele>
        <time>2020-06-17T16:42:47Z</time>
      </trkpt>
      <trkpt lat="49.46112" lon="0.18697">
        <ele>4.7</ele>
        <time>2020-06-17T16:42:48Z</time>
      </trkpt>
      <trkpt lat="49.46116" lon="0.18692">
        <ele>4.7</ele>
        <time>2020-06-17T16:42:49Z</time>
      </trkpt>
      <trkpt lat="49.46122" lon="0.18688">
        <ele>4.7</ele>
        <time>2020-06-17T16:42:50Z</time>
      </trkpt>
      <trkpt lat="49.46127" lon="0.18684">
        <ele>4.7</ele>
        <time>2020-06-17T16:42:51Z</time>
      </trkpt>
      <trkpt lat="49.46133" lon="0.18681">
        <ele>4.7</ele>
        <time>2020-06-17T16:42:52Z</time>
      </trkpt>
      <trkpt lat="49.46137" lon="0.18677">
        <ele>4.7</ele>
        <time>2020-06-17T16:42:53Z</time>
      </trkpt>
      <trkpt lat="49.46141" lon="0.18673">
        <ele>4.7</ele>
        <time>2020-06-17T16:42:54Z</time>
      </trkpt>
      <trkpt lat="49.46147" lon="0.1867">
        <ele>4.7</ele>
        <time>2020-06-17T16:42:55Z</time>
      </trkpt>
      <trkpt lat="49.46152" lon="0.18666">
        <ele>4.7</ele>
        <time>2020-06-17T16:42:56Z</time>
      </trkpt>
      <trkpt lat="49.46158" lon="0.18663">
        <ele>4.7</ele>
        <time>2020-06-17T16:42:57Z</time>
      </trkpt>
      <trkpt lat="49.46163" lon="0.18659">
        <ele>4.7</ele>
        <time>2020-06-17T16:42:58Z</time>
      </trkpt>
      <trkpt lat="49.46168" lon="0.18657">
        <ele>4.7</ele>
        <time>2020-06-17T16:42:59Z</time>
      </trkpt>
      <trkpt lat="49.46172" lon="0.18654">
        <ele>4.7</ele>
        <time>2020-06-17T16:43:00Z</time>
      </trkpt>
      <trkpt lat="49.46177" lon="0.18651">
        <ele>4.7</ele>
        <time>2020-06-17T16:43:01Z</time>
      </trkpt>
      <trkpt lat="49.46182" lon="0.18648">
        <ele>4.7</ele>
        <time>2020-06-17T16:43:02Z</time>
      </trkpt>
      <trkpt lat="49.46188" lon="0.18645">
        <ele>4.7</ele>
        <time>2020-06-17T16:43:03Z</time>
      </trkpt>
      <trkpt lat="49.46193" lon="0.18642">
        <ele>4.7</ele>
        <time>2020-06-17T16:43:04Z</time>
      </trkpt>
      <trkpt lat="49.46198" lon="0.18639">
        <ele>4.7</ele>
        <time>2020-06-17T16:43:05Z</time>
      </trkpt>
      <trkpt lat="49.46203" lon="0.18636">
        <ele>4.7</ele>
        <time>2020-06-17T16:43:06Z</time>
      </trkpt>
      <trkpt lat="49.46207" lon="0.18633">
        <ele>4.7</ele>
        <time>2020-06-17T16:43:07Z</time>
      </trkpt>
      <trkpt lat="49.46211" lon="0.18631">
        <ele>4.7</ele>
        <time>2020-06-17T16:43:08Z</time>
      </trkpt>
      <trkpt lat="49.46214" lon="0.18628">
        <ele>4.7</ele>
        <time>2020-06-17T16:43:09Z</time>
      </trkpt>
      <trkpt lat="49.46219" lon="0.18627">
        <ele>4.7</ele>
        <time>2020-06-17T16:43:10Z</time>
      </trkpt>
      <trkpt lat="49.46223" lon="0.18624">
        <ele>4.6</ele>
        <time>2020-06-17T16:43:11Z</time>
      </trkpt>
      <trkpt lat="49.46227" lon="0.18623">
        <ele>4.6</ele>
        <time>2020-06-17T16:43:12Z</time>
      </trkpt>
      <trkpt lat="49.4623" lon="0.18621">
        <ele>4.6</ele>
        <time>2020-06-17T16:43:13Z</time>
      </trkpt>
      <trkpt lat="49.46234" lon="0.18619">
        <ele>4.6</ele>
        <time>2020-06-17T16:43:14Z</time>
      </trkpt>
      <trkpt lat="49.46237" lon="0.18617">
        <ele>4.6</ele>
        <time>2020-06-17T16:43:15Z</time>
      </trkpt>
      <trkpt lat="49.4624" lon="0.18614">
        <ele>4.6</ele>
        <time>2020-06-17T16:43:16Z</time>
      </trkpt>
      <trkpt lat="49.46243" lon="0.18612">
        <ele>4.6</ele>
        <time>2020-06-17T16:43:17Z</time>
      </trkpt>
      <trkpt lat="49.46246" lon="0.18608">
        <ele>4.6</ele>
        <time>2020-06-17T16:43:18Z</time>
      </trkpt>
      <trkpt lat="49.46247" lon="0.18607">
        <ele>4.6</ele>
        <time>2020-06-17T16:43:19Z</time>
      </trkpt>
      <trkpt lat="49.46249" lon="0.18606">
        <ele>4.6</ele>
        <time>2020-06-17T16:43:20Z</time>
      </trkpt>
      <trkpt lat="49.4625" lon="0.18605">
        <ele>4.6</ele>
        <time>2020-06-17T16:43:21Z</time>
      </trkpt>
      <trkpt lat="49.4625" lon="0.18605">
        <ele>4.6</ele>
        <time>2020-06-17T16:43:22Z</time>
      </trkpt>
      <trkpt lat="49.4625" lon="0.18605">
        <ele>4.6</ele>
        <time>2020-06-17T16:43:23Z</time>
      </trkpt>
      <trkpt lat="49.46249" lon="0.18604">
        <ele>4.6</ele>
        <time>2020-06-17T16:43:24Z</time>
      </trkpt>
      <trkpt lat="49.46249" lon="0.18605">
        <ele>4.6</ele>
        <time>2020-06-17T16:43:25Z</time>
      </trkpt>
      <trkpt lat="49.46249" lon="0.18605">
        <ele>4.6</ele>
        <time>2020-06-17T16:43:26Z</time>
      </trkpt>
      <trkpt lat="49.46249" lon="0.18605">
        <ele>4.6</ele>
        <time>2020-06-17T16:43:27Z</time>
      </trkpt>
      <trkpt lat="49.46249" lon="0.18605">
        <ele>4.6</ele>
        <time>2020-06-17T16:43:28Z</time>
      </trkpt>
      <trkpt lat="49.46249" lon="0.18605">
        <ele>4.6</ele>
        <time>2020-06-17T16:43:29Z</time>
      </trkpt>
      <trkpt lat="49.46249" lon="0.18605">
        <ele>4.6</ele>
        <time>2020-06-17T16:43:30Z</time>
      </trkpt>
      <trkpt lat="49.46249" lon="0.18605">
        <ele>4.6</ele>
        <time>2020-06-17T16:43:31Z</time>
      </trkpt>
      <trkpt lat="49.46249" lon="0.18605">
        <ele>4.6</ele>
        <time>2020-06-17T16:43:32Z</time>
      </trkpt>
      <trkpt lat="49.4625" lon="0.18605">
        <ele>4.6</ele>
        <time>2020-06-17T16:43:33Z</time>
      </trkpt>
      <trkpt lat="49.46254" lon="0.18603">
        <ele>4.6</ele>
        <time>2020-06-17T17:00:17Z</time>
      </trkpt>
      <trkpt lat="49.46255" lon="0.18603">
        <ele>4.6</ele>
        <time>2020-06-17T17:00:18Z</time>
      </trkpt>
      <trkpt lat="49.46258" lon="0.18601">
        <ele>4.6</ele>
        <time>2020-06-17T17:00:19Z</time>
      </trkpt>
      <trkpt lat="49.46261" lon="0.18599">
        <ele>4.7</ele>
        <time>2020-06-17T17:00:20Z</time>
      </trkpt>
      <trkpt lat="49.46265" lon="0.18598">
        <ele>4.7</ele>
        <time>2020-06-17T17:00:21Z</time>
      </trkpt>
      <trkpt lat="49.4627" lon="0.18596">
        <ele>4.7</ele>
        <time>2020-06-17T17:00:22Z</time>
      </trkpt>
      <trkpt lat="49.46274" lon="0.18594">
        <ele>4.7</ele>
        <time>2020-06-17T17:00:23Z</time>
      </trkpt>
      <trkpt lat="49.46277" lon="0.18592">
        <ele>4.7</ele>
        <time>2020-06-17T17:00:24Z</time>
      </trkpt>
      <trkpt lat="49.4628" lon="0.1859">
        <ele>4.7</ele>
        <time>2020-06-17T17:00:25Z</time>
      </trkpt>
      <trkpt lat="49.46283" lon="0.18588">
        <ele>4.7</ele>
        <time>2020-06-17T17:00:26Z</time>
      </trkpt>
      <trkpt lat="49.46286" lon="0.18586">
        <ele>4.7</ele>
        <time>2020-06-17T17:00:27Z</time>
      </trkpt>
      <trkpt lat="49.46289" lon="0.18585">
        <ele>4.7</ele>
        <time>2020-06-17T17:00:28Z</time>
      </trkpt>
      <trkpt lat="49.46293" lon="0.18583">
        <ele>4.7</ele>
        <time>2020-06-17T17:00:29Z</time>
      </trkpt>
      <trkpt lat="49.46297" lon="0.1858">
        <ele>4.7</ele>
        <time>2020-06-17T17:00:30Z</time>
      </trkpt>
      <trkpt lat="49.46301" lon="0.18577">
        <ele>4.7</ele>
        <time>2020-06-17T17:00:31Z</time>
      </trkpt>
      <trkpt lat="49.46305" lon="0.18575">
        <ele>4.7</ele>
        <time>2020-06-17T17:00:32Z</time>
      </trkpt>
      <trkpt lat="49.4631" lon="0.18572">
        <ele>4.7</ele>
        <time>2020-06-17T17:00:33Z</time>
      </trkpt>
      <trkpt lat="49.46313" lon="0.1857">
        <ele>4.7</ele>
        <time>2020-06-17T17:00:34Z</time>
      </trkpt>
      <trkpt lat="49.46318" lon="0.18567">
        <ele>4.7</ele>
        <time>2020-06-17T17:00:35Z</time>
      </trkpt>
      <trkpt lat="49.46321" lon="0.18565">
        <ele>4.7</ele>
        <time>2020-06-17T17:00:36Z</time>
      </trkpt>
      <trkpt lat="49.46325" lon="0.18562">
        <ele>4.7</ele>
        <time>2020-06-17T17:00:37Z</time>
      </trkpt>
      <trkpt lat="49.4633" lon="0.18559">
        <ele>4.7</ele>
        <time>2020-06-17T17:00:38Z</time>
      </trkpt>
      <trkpt lat="49.46334" lon="0.18556">
        <ele>4.7</ele>
        <time>2020-06-17T17:00:39Z</time>
      </trkpt>
      <trkpt lat="49.46339" lon="0.18554">
        <ele>4.7</ele>
        <time>2020-06-17T17:00:40Z</time>
      </trkpt>
      <trkpt lat="49.46343" lon="0.18551">
        <ele>4.7</ele>
        <time>2020-06-17T17:00:41Z</time>
      </trkpt>
      <trkpt lat="49.46348" lon="0.18549">
        <ele>4.7</ele>
        <time>2020-06-17T17:00:42Z</time>
      </trkpt>
      <trkpt lat="49.46352" lon="0.18546">
        <ele>4.7</ele>
        <time>2020-06-17T17:00:43Z</time>
      </trkpt>
      <trkpt lat="49.46356" lon="0.18542">
        <ele>4.7</ele>
        <time>2020-06-17T17:00:44Z</time>
      </trkpt>
      <trkpt lat="49.4636" lon="0.18539">
        <ele>4.6</ele>
        <time>2020-06-17T17:00:45Z</time>
      </trkpt>
      <trkpt lat="49.46364" lon="0.18536">
        <ele>4.6</ele>
        <time>2020-06-17T17:00:46Z</time>
      </trkpt>
      <trkpt lat="49.46368" lon="0.18533">
        <ele>4.6</ele>
        <time>2020-06-17T17:00:47Z</time>
      </trkpt>
      <trkpt lat="49.46372" lon="0.18531">
        <ele>4.6</ele>
        <time>2020-06-17T17:00:48Z</time>
      </trkpt>
      <trkpt lat="49.46377" lon="0.18528">
        <ele>4.6</ele>
        <time>2020-06-17T17:00:49Z</time>
      </trkpt>
      <trkpt lat="49.46381" lon="0.18526">
        <ele>4.6</ele>
        <time>2020-06-17T17:00:50Z</time>
      </trkpt>
      <trkpt lat="49.46385" lon="0.18524">
        <ele>4.6</ele>
        <time>2020-06-17T17:00:51Z</time>
      </trkpt>
      <trkpt lat="49.4639" lon="0.18522">
        <ele>4.6</ele>
        <time>2020-06-17T17:00:52Z</time>
      </trkpt>
      <trkpt lat="49.46393" lon="0.1852">
        <ele>4.6</ele>
        <time>2020-06-17T17:00:53Z</time>
      </trkpt>
      <trkpt lat="49.46398" lon="0.18517">
        <ele>4.6</ele>
        <time>2020-06-17T17:00:54Z</time>
      </trkpt>
      <trkpt lat="49.46402" lon="0.18514">
        <ele>4.5</ele>
        <time>2020-06-17T17:00:55Z</time>
      </trkpt>
      <trkpt lat="49.46406" lon="0.18511">
        <ele>4.6</ele>
        <time>2020-06-17T17:00:56Z</time>
      </trkpt>
      <trkpt lat="49.4641" lon="0.18509">
        <ele>4.6</ele>
        <time>2020-06-17T17:00:57Z</time>
      </trkpt>
      <trkpt lat="49.46414" lon="0.18506">
        <ele>4.6</ele>
        <time>2020-06-17T17:00:58Z</time>
      </trkpt>
      <trkpt lat="49.46419" lon="0.18503">
        <ele>4.6</ele>
        <time>2020-06-17T17:00:59Z</time>
      </trkpt>
      <trkpt lat="49.46423" lon="0.185">
        <ele>4.6</ele>
        <time>2020-06-17T17:01:00Z</time>
      </trkpt>
      <trkpt lat="49.46427" lon="0.18499">
        <ele>4.6</ele>
        <time>2020-06-17T17:01:01Z</time>
      </trkpt>
      <trkpt lat="49.46431" lon="0.18496">
        <ele>4.6</ele>
        <time>2020-06-17T17:01:02Z</time>
      </trkpt>
      <trkpt lat="49.46435" lon="0.18494">
        <ele>4.6</ele>
        <time>2020-06-17T17:01:03Z</time>
      </trkpt>
      <trkpt lat="49.46439" lon="0.18492">
        <ele>4.6</ele>
        <time>2020-06-17T17:01:04Z</time>
      </trkpt>
      <trkpt lat="49.46443" lon="0.18488">
        <ele>4.6</ele>
        <time>2020-06-17T17:01:05Z</time>
      </trkpt>
      <trkpt lat="49.46447" lon="0.18486">
        <ele>4.6</ele>
        <time>2020-06-17T17:01:06Z</time>
      </trkpt>
      <trkpt lat="49.46452" lon="0.18483">
        <ele>4.6</ele>
        <time>2020-06-17T17:01:07Z</time>
      </trkpt>
      <trkpt lat="49.46456" lon="0.18481">
        <ele>4.6</ele>
        <time>2020-06-17T17:01:08Z</time>
      </trkpt>
      <trkpt lat="49.4646" lon="0.18479">
        <ele>4.6</ele>
        <time>2020-06-17T17:01:09Z</time>
      </trkpt>
      <trkpt lat="49.46465" lon="0.18476">
        <ele>4.6</ele>
        <time>2020-06-17T17:01:10Z</time>
      </trkpt>
      <trkpt lat="49.46468" lon="0.18474">
        <ele>4.6</ele>
        <time>2020-06-17T17:01:11Z</time>
      </trkpt>
      <trkpt lat="49.46473" lon="0.18471">
        <ele>4.7</ele>
        <time>2020-06-17T17:01:12Z</time>
      </trkpt>
      <trkpt lat="49.46477" lon="0.18468">
        <ele>4.7</ele>
        <time>2020-06-17T17:01:13Z</time>
      </trkpt>
      <trkpt lat="49.46481" lon="0.18465">
        <ele>4.7</ele>
        <time>2020-06-17T17:01:14Z</time>
      </trkpt>
      <trkpt lat="49.46485" lon="0.18462">
        <ele>4.7</ele>
        <time>2020-06-17T17:01:15Z</time>
      </trkpt>
      <trkpt lat="49.46489" lon="0.18459">
        <ele>4.7</ele>
        <time>2020-06-17T17:01:16Z</time>
      </trkpt>
      <trkpt lat="49.46494" lon="0.18454">
        <ele>4.7</ele>
        <time>2020-06-17T17:01:17Z</time>
      </trkpt>
      <trkpt lat="49.46498" lon="0.18451">
        <ele>4.7</ele>
        <time>2020-06-17T17:01:18Z</time>
      </trkpt>
      <trkpt lat="49.46503" lon="0.18448">
        <ele>4.7</ele>
        <time>2020-06-17T17:01:19Z</time>
      </trkpt>
      <trkpt lat="49.46507" lon="0.18446">
        <ele>4.7</ele>
        <time>2020-06-17T17:01:20Z</time>
      </trkpt>
      <trkpt lat="49.4651" lon="0.18443">
        <ele>4.7</ele>
        <time>2020-06-17T17:01:21Z</time>
      </trkpt>
      <trkpt lat="49.46514" lon="0.18439">
        <ele>4.7</ele>
        <time>2020-06-17T17:01:22Z</time>
      </trkpt>
      <trkpt lat="49.46518" lon="0.18435">
        <ele>4.6</ele>
        <time>2020-06-17T17:01:23Z</time>
      </trkpt>
      <trkpt lat="49.46522" lon="0.1843">
        <ele>4.6</ele>
        <time>2020-06-17T17:01:24Z</time>
      </trkpt>
      <trkpt lat="49.46527" lon="0.18426">
        <ele>4.6</ele>
        <time>2020-06-17T17:01:25Z</time>
      </trkpt>
      <trkpt lat="49.46531" lon="0.18423">
        <ele>4.5</ele>
        <time>2020-06-17T17:01:26Z</time>
      </trkpt>
      <trkpt lat="49.46535" lon="0.18418">
        <ele>4.5</ele>
        <time>2020-06-17T17:01:27Z</time>
      </trkpt>
      <trkpt lat="49.46539" lon="0.18414">
        <ele>4.5</ele>
        <time>2020-06-17T17:01:28Z</time>
      </trkpt>
      <trkpt lat="49.46543" lon="0.1841">
        <ele>4.5</ele>
        <time>2020-06-17T17:01:29Z</time>
      </trkpt>
      <trkpt lat="49.46547" lon="0.18407">
        <ele>4.4</ele>
        <time>2020-06-17T17:01:30Z</time>
      </trkpt>
      <trkpt lat="49.46551" lon="0.18403">
        <ele>4.4</ele>
        <time>2020-06-17T17:01:31Z</time>
      </trkpt>
      <trkpt lat="49.46555" lon="0.184">
        <ele>4.4</ele>
        <time>2020-06-17T17:01:32Z</time>
      </trkpt>
      <trkpt lat="49.46559" lon="0.18396">
        <ele>4.4</ele>
        <time>2020-06-17T17:01:33Z</time>
      </trkpt>
      <trkpt lat="49.46563" lon="0.18391">
        <ele>4.4</ele>
        <time>2020-06-17T17:01:34Z</time>
      </trkpt>
      <trkpt lat="49.46566" lon="0.18386">
        <ele>4.4</ele>
        <time>2020-06-17T17:01:35Z</time>
      </trkpt>
      <trkpt lat="49.4657" lon="0.18382">
        <ele>4.4</ele>
        <time>2020-06-17T17:01:36Z</time>
      </trkpt>
      <trkpt lat="49.46573" lon="0.18379">
        <ele>4.4</ele>
        <time>2020-06-17T17:01:37Z</time>
      </trkpt>
      <trkpt lat="49.46577" lon="0.18376">
        <ele>4.4</ele>
        <time>2020-06-17T17:01:38Z</time>
      </trkpt>
      <trkpt lat="49.46581" lon="0.18372">
        <ele>4.4</ele>
        <time>2020-06-17T17:01:39Z</time>
      </trkpt>
      <trkpt lat="49.46585" lon="0.18367">
        <ele>4.4</ele>
        <time>2020-06-17T17:01:40Z</time>
      </trkpt>
      <trkpt lat="49.46589" lon="0.18363">
        <ele>4.4</ele>
        <time>2020-06-17T17:01:41Z</time>
      </trkpt>
      <trkpt lat="49.46593" lon="0.1836">
        <ele>4.4</ele>
        <time>2020-06-17T17:01:42Z</time>
      </trkpt>
      <trkpt lat="49.46597" lon="0.18356">
        <ele>4.4</ele>
        <time>2020-06-17T17:01:43Z</time>
      </trkpt>
      <trkpt lat="49.46601" lon="0.18352">
        <ele>4.4</ele>
        <time>2020-06-17T17:01:44Z</time>
      </trkpt>
      <trkpt lat="49.46605" lon="0.18348">
        <ele>4.5</ele>
        <time>2020-06-17T17:01:45Z</time>
      </trkpt>
      <trkpt lat="49.46609" lon="0.18345">
        <ele>4.5</ele>
        <time>2020-06-17T17:01:46Z</time>
      </trkpt>
      <trkpt lat="49.46613" lon="0.18341">
        <ele>4.5</ele>
        <time>2020-06-17T17:01:47Z</time>
      </trkpt>
      <trkpt lat="49.46618" lon="0.18339">
        <ele>4.5</ele>
        <time>2020-06-17T17:01:48Z</time>
      </trkpt>
      <trkpt lat="49.46623" lon="0.18338">
        <ele>4.5</ele>
        <time>2020-06-17T17:01:49Z</time>
      </trkpt>
      <trkpt lat="49.46628" lon="0.18335">
        <ele>4.5</ele>
        <time>2020-06-17T17:01:50Z</time>
      </trkpt>
      <trkpt lat="49.46631" lon="0.18332">
        <ele>4.5</ele>
        <time>2020-06-17T17:01:51Z</time>
      </trkpt>
      <trkpt lat="49.46636" lon="0.1833">
        <ele>4.5</ele>
        <time>2020-06-17T17:01:52Z</time>
      </trkpt>
      <trkpt lat="49.4664" lon="0.18327">
        <ele>4.5</ele>
        <time>2020-06-17T17:01:53Z</time>
      </trkpt>
      <trkpt lat="49.46644" lon="0.18323">
        <ele>4.5</ele>
        <time>2020-06-17T17:01:54Z</time>
      </trkpt>
      <trkpt lat="49.46648" lon="0.18319">
        <ele>4.5</ele>
        <time>2020-06-17T17:01:55Z</time>
      </trkpt>
      <trkpt lat="49.46652" lon="0.18317">
        <ele>4.4</ele>
        <time>2020-06-17T17:01:56Z</time>
      </trkpt>
      <trkpt lat="49.46656" lon="0.18313">
        <ele>4.4</ele>
        <time>2020-06-17T17:01:57Z</time>
      </trkpt>
      <trkpt lat="49.4666" lon="0.18309">
        <ele>4.4</ele>
        <time>2020-06-17T17:01:58Z</time>
      </trkpt>
      <trkpt lat="49.46664" lon="0.18306">
        <ele>4.4</ele>
        <time>2020-06-17T17:01:59Z</time>
      </trkpt>
      <trkpt lat="49.46668" lon="0.18302">
        <ele>4.4</ele>
        <time>2020-06-17T17:02:00Z</time>
      </trkpt>
      <trkpt lat="49.46673" lon="0.18299">
        <ele>4.4</ele>
        <time>2020-06-17T17:02:01Z</time>
      </trkpt>
      <trkpt lat="49.46678" lon="0.18296">
        <ele>4.4</ele>
        <time>2020-06-17T17:02:02Z</time>
      </trkpt>
      <trkpt lat="49.46682" lon="0.18294">
        <ele>4.4</ele>
        <time>2020-06-17T17:02:03Z</time>
      </trkpt>
      <trkpt lat="49.46687" lon="0.18292">
        <ele>4.4</ele>
        <time>2020-06-17T17:02:04Z</time>
      </trkpt>
      <trkpt lat="49.46692" lon="0.18291">
        <ele>4.4</ele>
        <time>2020-06-17T17:02:05Z</time>
      </trkpt>
      <trkpt lat="49.46697" lon="0.1829">
        <ele>4.4</ele>
        <time>2020-06-17T17:02:06Z</time>
      </trkpt>
      <trkpt lat="49.46701" lon="0.1829">
        <ele>4.4</ele>
        <time>2020-06-17T17:02:07Z</time>
      </trkpt>
      <trkpt lat="49.46706" lon="0.1829">
        <ele>4.9</ele>
        <time>2020-06-17T17:02:08Z</time>
      </trkpt>
      <trkpt lat="49.4671" lon="0.18292">
        <ele>5.1</ele>
        <time>2020-06-17T17:02:09Z</time>
      </trkpt>
      <trkpt lat="49.46715" lon="0.18293">
        <ele>5.1</ele>
        <time>2020-06-17T17:02:10Z</time>
      </trkpt>
      <trkpt lat="49.4672" lon="0.18293">
        <ele>5.1</ele>
        <time>2020-06-17T17:02:11Z</time>
      </trkpt>
      <trkpt lat="49.46724" lon="0.18294">
        <ele>5</ele>
        <time>2020-06-17T17:02:12Z</time>
      </trkpt>
      <trkpt lat="49.46728" lon="0.18293">
        <ele>5</ele>
        <time>2020-06-17T17:02:13Z</time>
      </trkpt>
      <trkpt lat="49.46733" lon="0.18292">
        <ele>4.8</ele>
        <time>2020-06-17T17:02:14Z</time>
      </trkpt>
      <trkpt lat="49.46738" lon="0.18291">
        <ele>4.7</ele>
        <time>2020-06-17T17:02:15Z</time>
      </trkpt>
      <trkpt lat="49.46743" lon="0.1829">
        <ele>4.5</ele>
        <time>2020-06-17T17:02:16Z</time>
      </trkpt>
      <trkpt lat="49.46748" lon="0.18289">
        <ele>4.4</ele>
        <time>2020-06-17T17:02:17Z</time>
      </trkpt>
      <trkpt lat="49.46752" lon="0.18288">
        <ele>4.3</ele>
        <time>2020-06-17T17:02:18Z</time>
      </trkpt>
      <trkpt lat="49.46756" lon="0.18287">
        <ele>4.2</ele>
        <time>2020-06-17T17:02:19Z</time>
      </trkpt>
      <trkpt lat="49.46761" lon="0.18286">
        <ele>4.1</ele>
        <time>2020-06-17T17:02:20Z</time>
      </trkpt>
      <trkpt lat="49.46766" lon="0.18286">
        <ele>4</ele>
        <time>2020-06-17T17:02:21Z</time>
      </trkpt>
      <trkpt lat="49.46771" lon="0.18285">
        <ele>3.9</ele>
        <time>2020-06-17T17:02:22Z</time>
      </trkpt>
      <trkpt lat="49.46776" lon="0.18284">
        <ele>3.8</ele>
        <time>2020-06-17T17:02:23Z</time>
      </trkpt>
      <trkpt lat="49.46781" lon="0.18283">
        <ele>3.7</ele>
        <time>2020-06-17T17:02:24Z</time>
      </trkpt>
      <trkpt lat="49.46786" lon="0.18283">
        <ele>3.6</ele>
        <time>2020-06-17T17:02:25Z</time>
      </trkpt>
      <trkpt lat="49.46791" lon="0.18282">
        <ele>3.6</ele>
        <time>2020-06-17T17:02:26Z</time>
      </trkpt>
      <trkpt lat="49.46796" lon="0.1828">
        <ele>3.6</ele>
        <time>2020-06-17T17:02:27Z</time>
      </trkpt>
      <trkpt lat="49.46801" lon="0.18278">
        <ele>3.5</ele>
        <time>2020-06-17T17:02:28Z</time>
      </trkpt>
      <trkpt lat="49.46807" lon="0.18277">
        <ele>3.5</ele>
        <time>2020-06-17T17:02:29Z</time>
      </trkpt>
      <trkpt lat="49.46813" lon="0.18276">
        <ele>3.5</ele>
        <time>2020-06-17T17:02:30Z</time>
      </trkpt>
      <trkpt lat="49.46819" lon="0.18274">
        <ele>3.5</ele>
        <time>2020-06-17T17:02:31Z</time>
      </trkpt>
      <trkpt lat="49.46824" lon="0.18271">
        <ele>3.5</ele>
        <time>2020-06-17T17:02:32Z</time>
      </trkpt>
      <trkpt lat="49.46829" lon="0.18269">
        <ele>3.5</ele>
        <time>2020-06-17T17:02:33Z</time>
      </trkpt>
      <trkpt lat="49.46833" lon="0.18267">
        <ele>3.5</ele>
        <time>2020-06-17T17:02:34Z</time>
      </trkpt>
      <trkpt lat="49.46839" lon="0.18265">
        <ele>3.5</ele>
        <time>2020-06-17T17:02:35Z</time>
      </trkpt>
      <trkpt lat="49.46843" lon="0.18262">
        <ele>3.6</ele>
        <time>2020-06-17T17:02:36Z</time>
      </trkpt>
      <trkpt lat="49.46847" lon="0.18259">
        <ele>3.6</ele>
        <time>2020-06-17T17:02:37Z</time>
      </trkpt>
      <trkpt lat="49.46851" lon="0.18256">
        <ele>3.6</ele>
        <time>2020-06-17T17:02:38Z</time>
      </trkpt>
      <trkpt lat="49.46856" lon="0.18255">
        <ele>3.6</ele>
        <time>2020-06-17T17:02:39Z</time>
      </trkpt>
      <trkpt lat="49.46861" lon="0.18254">
        <ele>3.6</ele>
        <time>2020-06-17T17:02:40Z</time>
      </trkpt>
      <trkpt lat="49.46865" lon="0.18253">
        <ele>3.6</ele>
        <time>2020-06-17T17:02:41Z</time>
      </trkpt>
      <trkpt lat="49.46869" lon="0.18252">
        <ele>3.6</ele>
        <time>2020-06-17T17:02:42Z</time>
      </trkpt>
      <trkpt lat="49.46874" lon="0.18251">
        <ele>3.5</ele>
        <time>2020-06-17T17:02:43Z</time>
      </trkpt>
      <trkpt lat="49.46877" lon="0.1825">
        <ele>3.5</ele>
        <time>2020-06-17T17:02:44Z</time>
      </trkpt>
      <trkpt lat="49.4688" lon="0.18248">
        <ele>3.5</ele>
        <time>2020-06-17T17:02:45Z</time>
      </trkpt>
      <trkpt lat="49.46884" lon="0.18246">
        <ele>3.5</ele>
        <time>2020-06-17T17:02:46Z</time>
      </trkpt>
      <trkpt lat="49.46889" lon="0.18244">
        <ele>3.5</ele>
        <time>2020-06-17T17:02:47Z</time>
      </trkpt>
      <trkpt lat="49.46893" lon="0.18242">
        <ele>3.5</ele>
        <time>2020-06-17T17:02:48Z</time>
      </trkpt>
      <trkpt lat="49.46897" lon="0.18239">
        <ele>3.6</ele>
        <time>2020-06-17T17:02:49Z</time>
      </trkpt>
      <trkpt lat="49.46903" lon="0.18237">
        <ele>3.7</ele>
        <time>2020-06-17T17:02:50Z</time>
      </trkpt>
      <trkpt lat="49.46907" lon="0.18233">
        <ele>3.7</ele>
        <time>2020-06-17T17:02:51Z</time>
      </trkpt>
      <trkpt lat="49.46911" lon="0.18229">
        <ele>3.8</ele>
        <time>2020-06-17T17:02:52Z</time>
      </trkpt>
      <trkpt lat="49.46915" lon="0.18226">
        <ele>3.8</ele>
        <time>2020-06-17T17:02:53Z</time>
      </trkpt>
      <trkpt lat="49.46919" lon="0.18221">
        <ele>3.9</ele>
        <time>2020-06-17T17:02:54Z</time>
      </trkpt>
      <trkpt lat="49.46923" lon="0.18218">
        <ele>3.9</ele>
        <time>2020-06-17T17:02:55Z</time>
      </trkpt>
      <trkpt lat="49.46926" lon="0.18213">
        <ele>3.9</ele>
        <time>2020-06-17T17:02:56Z</time>
      </trkpt>
      <trkpt lat="49.46931" lon="0.1821">
        <ele>4</ele>
        <time>2020-06-17T17:02:57Z</time>
      </trkpt>
      <trkpt lat="49.46934" lon="0.18207">
        <ele>4</ele>
        <time>2020-06-17T17:02:58Z</time>
      </trkpt>
      <trkpt lat="49.46938" lon="0.18204">
        <ele>4</ele>
        <time>2020-06-17T17:02:59Z</time>
      </trkpt>
      <trkpt lat="49.46941" lon="0.18203">
        <ele>4</ele>
        <time>2020-06-17T17:03:00Z</time>
      </trkpt>
      <trkpt lat="49.46944" lon="0.18202">
        <ele>4</ele>
        <time>2020-06-17T17:03:01Z</time>
      </trkpt>
      <trkpt lat="49.46949" lon="0.182">
        <ele>4</ele>
        <time>2020-06-17T17:03:02Z</time>
      </trkpt>
      <trkpt lat="49.46952" lon="0.18197">
        <ele>4</ele>
        <time>2020-06-17T17:03:03Z</time>
      </trkpt>
      <trkpt lat="49.46956" lon="0.18194">
        <ele>4</ele>
        <time>2020-06-17T17:03:04Z</time>
      </trkpt>
      <trkpt lat="49.46961" lon="0.18191">
        <ele>4</ele>
        <time>2020-06-17T17:03:05Z</time>
      </trkpt>
      <trkpt lat="49.46964" lon="0.18187">
        <ele>4</ele>
        <time>2020-06-17T17:03:06Z</time>
      </trkpt>
      <trkpt lat="49.46967" lon="0.18185">
        <ele>4</ele>
        <time>2020-06-17T17:03:07Z</time>
      </trkpt>
      <trkpt lat="49.46971" lon="0.18183">
        <ele>4</ele>
        <time>2020-06-17T17:03:08Z</time>
      </trkpt>
      <trkpt lat="49.46974" lon="0.1818">
        <ele>4</ele>
        <time>2020-06-17T17:03:09Z</time>
      </trkpt>
      <trkpt lat="49.46978" lon="0.18177">
        <ele>4</ele>
        <time>2020-06-17T17:03:10Z</time>
      </trkpt>
      <trkpt lat="49.46983" lon="0.18174">
        <ele>4</ele>
        <time>2020-06-17T17:03:11Z</time>
      </trkpt>
      <trkpt lat="49.46987" lon="0.18172">
        <ele>4</ele>
        <time>2020-06-17T17:03:12Z</time>
      </trkpt>
      <trkpt lat="49.4699" lon="0.18169">
        <ele>3.9</ele>
        <time>2020-06-17T17:03:13Z</time>
      </trkpt>
      <trkpt lat="49.46994" lon="0.18168">
        <ele>3.9</ele>
        <time>2020-06-17T17:03:14Z</time>
      </trkpt>
      <trkpt lat="49.46997" lon="0.18166">
        <ele>3.9</ele>
        <time>2020-06-17T17:03:15Z</time>
      </trkpt>
      <trkpt lat="49.47001" lon="0.18164">
        <ele>3.9</ele>
        <time>2020-06-17T17:03:16Z</time>
      </trkpt>
      <trkpt lat="49.47005" lon="0.18161">
        <ele>3.8</ele>
        <time>2020-06-17T17:03:17Z</time>
      </trkpt>
      <trkpt lat="49.47011" lon="0.1816">
        <ele>3.8</ele>
        <time>2020-06-17T17:03:18Z</time>
      </trkpt>
      <trkpt lat="49.47015" lon="0.18159">
        <ele>3.7</ele>
        <time>2020-06-17T17:03:19Z</time>
      </trkpt>
      <trkpt lat="49.4702" lon="0.18157">
        <ele>3.7</ele>
        <time>2020-06-17T17:03:20Z</time>
      </trkpt>
      <trkpt lat="49.47024" lon="0.18156">
        <ele>3.7</ele>
        <time>2020-06-17T17:03:21Z</time>
      </trkpt>
      <trkpt lat="49.47028" lon="0.18155">
        <ele>3.7</ele>
        <time>2020-06-17T17:03:22Z</time>
      </trkpt>
      <trkpt lat="49.47033" lon="0.18152">
        <ele>3.7</ele>
        <time>2020-06-17T17:03:23Z</time>
      </trkpt>
      <trkpt lat="49.47038" lon="0.18151">
        <ele>3.7</ele>
        <time>2020-06-17T17:03:24Z</time>
      </trkpt>
      <trkpt lat="49.47042" lon="0.1815">
        <ele>3.7</ele>
        <time>2020-06-17T17:03:25Z</time>
      </trkpt>
      <trkpt lat="49.47046" lon="0.18148">
        <ele>3.7</ele>
        <time>2020-06-17T17:03:26Z</time>
      </trkpt>
      <trkpt lat="49.4705" lon="0.18146">
        <ele>3.7</ele>
        <time>2020-06-17T17:03:27Z</time>
      </trkpt>
      <trkpt lat="49.47055" lon="0.18143">
        <ele>3.7</ele>
        <time>2020-06-17T17:03:28Z</time>
      </trkpt>
      <trkpt lat="49.47059" lon="0.1814">
        <ele>3.8</ele>
        <time>2020-06-17T17:03:29Z</time>
      </trkpt>
      <trkpt lat="49.47064" lon="0.18138">
        <ele>3.9</ele>
        <time>2020-06-17T17:03:30Z</time>
      </trkpt>
      <trkpt lat="49.47069" lon="0.18135">
        <ele>3.9</ele>
        <time>2020-06-17T17:03:31Z</time>
      </trkpt>
      <trkpt lat="49.47072" lon="0.18132">
        <ele>4</ele>
        <time>2020-06-17T17:03:32Z</time>
      </trkpt>
      <trkpt lat="49.47077" lon="0.18129">
        <ele>4</ele>
        <time>2020-06-17T17:03:33Z</time>
      </trkpt>
      <trkpt lat="49.47082" lon="0.18126">
        <ele>4</ele>
        <time>2020-06-17T17:03:34Z</time>
      </trkpt>
      <trkpt lat="49.47087" lon="0.18123">
        <ele>4</ele>
        <time>2020-06-17T17:03:35Z</time>
      </trkpt>
      <trkpt lat="49.47091" lon="0.18121">
        <ele>4.1</ele>
        <time>2020-06-17T17:03:36Z</time>
      </trkpt>
      <trkpt lat="49.47096" lon="0.18119">
        <ele>4.1</ele>
        <time>2020-06-17T17:03:37Z</time>
      </trkpt>
      <trkpt lat="49.471" lon="0.18117">
        <ele>4.1</ele>
        <time>2020-06-17T17:03:38Z</time>
      </trkpt>
      <trkpt lat="49.47105" lon="0.18114">
        <ele>4.1</ele>
        <time>2020-06-17T17:03:39Z</time>
      </trkpt>
      <trkpt lat="49.47108" lon="0.1811">
        <ele>4.1</ele>
        <time>2020-06-17T17:03:40Z</time>
      </trkpt>
      <trkpt lat="49.47113" lon="0.18108">
        <ele>4.1</ele>
        <time>2020-06-17T17:03:41Z</time>
      </trkpt>
      <trkpt lat="49.47117" lon="0.18106">
        <ele>4.1</ele>
        <time>2020-06-17T17:03:42Z</time>
      </trkpt>
      <trkpt lat="49.47122" lon="0.18102">
        <ele>4.1</ele>
        <time>2020-06-17T17:03:43Z</time>
      </trkpt>
      <trkpt lat="49.47127" lon="0.181">
        <ele>4.1</ele>
        <time>2020-06-17T17:03:44Z</time>
      </trkpt>
      <trkpt lat="49.47132" lon="0.18097">
        <ele>4.1</ele>
        <time>2020-06-17T17:03:45Z</time>
      </trkpt>
      <trkpt lat="49.47136" lon="0.18094">
        <ele>4.1</ele>
        <time>2020-06-17T17:03:46Z</time>
      </trkpt>
      <trkpt lat="49.47141" lon="0.18091">
        <ele>4.1</ele>
        <time>2020-06-17T17:03:47Z</time>
      </trkpt>
      <trkpt lat="49.47145" lon="0.18089">
        <ele>4.1</ele>
        <time>2020-06-17T17:03:48Z</time>
      </trkpt>
      <trkpt lat="49.4715" lon="0.18086">
        <ele>4.1</ele>
        <time>2020-06-17T17:03:49Z</time>
      </trkpt>
      <trkpt lat="49.47154" lon="0.18083">
        <ele>4.1</ele>
        <time>2020-06-17T17:03:50Z</time>
      </trkpt>
      <trkpt lat="49.47158" lon="0.18079">
        <ele>4.2</ele>
        <time>2020-06-17T17:03:51Z</time>
      </trkpt>
      <trkpt lat="49.47162" lon="0.18076">
        <ele>4.2</ele>
        <time>2020-06-17T17:03:52Z</time>
      </trkpt>
      <trkpt lat="49.47166" lon="0.18073">
        <ele>4.2</ele>
        <time>2020-06-17T17:03:53Z</time>
      </trkpt>
      <trkpt lat="49.4717" lon="0.18071">
        <ele>4.3</ele>
        <time>2020-06-17T17:03:54Z</time>
      </trkpt>
      <trkpt lat="49.47175" lon="0.18069">
        <ele>4.3</ele>
        <time>2020-06-17T17:03:55Z</time>
      </trkpt>
      <trkpt lat="49.47179" lon="0.18067">
        <ele>4.3</ele>
        <time>2020-06-17T17:03:56Z</time>
      </trkpt>
      <trkpt lat="49.47183" lon="0.18063">
        <ele>4.3</ele>
        <time>2020-06-17T17:03:57Z</time>
      </trkpt>
      <trkpt lat="49.47188" lon="0.18059">
        <ele>4.3</ele>
        <time>2020-06-17T17:03:58Z</time>
      </trkpt>
      <trkpt lat="49.47193" lon="0.18056">
        <ele>4.3</ele>
        <time>2020-06-17T17:03:59Z</time>
      </trkpt>
      <trkpt lat="49.47197" lon="0.18052">
        <ele>4.2</ele>
        <time>2020-06-17T17:04:00Z</time>
      </trkpt>
      <trkpt lat="49.47202" lon="0.18048">
        <ele>4.2</ele>
        <time>2020-06-17T17:04:01Z</time>
      </trkpt>
      <trkpt lat="49.47208" lon="0.18045">
        <ele>4.2</ele>
        <time>2020-06-17T17:04:02Z</time>
      </trkpt>
      <trkpt lat="49.47213" lon="0.18042">
        <ele>4.1</ele>
        <time>2020-06-17T17:04:03Z</time>
      </trkpt>
      <trkpt lat="49.47218" lon="0.1804">
        <ele>4.1</ele>
        <time>2020-06-17T17:04:04Z</time>
      </trkpt>
      <trkpt lat="49.47223" lon="0.18037">
        <ele>4</ele>
        <time>2020-06-17T17:04:05Z</time>
      </trkpt>
      <trkpt lat="49.47226" lon="0.18033">
        <ele>4</ele>
        <time>2020-06-17T17:04:06Z</time>
      </trkpt>
      <trkpt lat="49.47231" lon="0.1803">
        <ele>4</ele>
        <time>2020-06-17T17:04:07Z</time>
      </trkpt>
      <trkpt lat="49.47236" lon="0.18027">
        <ele>4</ele>
        <time>2020-06-17T17:04:08Z</time>
      </trkpt>
      <trkpt lat="49.4724" lon="0.18024">
        <ele>4</ele>
        <time>2020-06-17T17:04:09Z</time>
      </trkpt>
      <trkpt lat="49.47245" lon="0.18021">
        <ele>4</ele>
        <time>2020-06-17T17:04:10Z</time>
      </trkpt>
      <trkpt lat="49.4725" lon="0.18018">
        <ele>4</ele>
        <time>2020-06-17T17:04:11Z</time>
      </trkpt>
      <trkpt lat="49.47254" lon="0.18014">
        <ele>4</ele>
        <time>2020-06-17T17:04:12Z</time>
      </trkpt>
      <trkpt lat="49.47259" lon="0.18012">
        <ele>4</ele>
        <time>2020-06-17T17:04:13Z</time>
      </trkpt>
      <trkpt lat="49.47264" lon="0.18008">
        <ele>4</ele>
        <time>2020-06-17T17:04:14Z</time>
      </trkpt>
      <trkpt lat="49.47269" lon="0.18006">
        <ele>4</ele>
        <time>2020-06-17T17:04:15Z</time>
      </trkpt>
      <trkpt lat="49.47274" lon="0.18003">
        <ele>4</ele>
        <time>2020-06-17T17:04:16Z</time>
      </trkpt>
      <trkpt lat="49.47279" lon="0.18">
        <ele>4</ele>
        <time>2020-06-17T17:04:17Z</time>
      </trkpt>
      <trkpt lat="49.47284" lon="0.17998">
        <ele>4.1</ele>
        <time>2020-06-17T17:04:18Z</time>
      </trkpt>
      <trkpt lat="49.47289" lon="0.17995">
        <ele>4.1</ele>
        <time>2020-06-17T17:04:19Z</time>
      </trkpt>
      <trkpt lat="49.47292" lon="0.17993">
        <ele>4.1</ele>
        <time>2020-06-17T17:04:20Z</time>
      </trkpt>
      <trkpt lat="49.47297" lon="0.17989">
        <ele>4.2</ele>
        <time>2020-06-17T17:04:21Z</time>
      </trkpt>
      <trkpt lat="49.47301" lon="0.17986">
        <ele>4.2</ele>
        <time>2020-06-17T17:04:22Z</time>
      </trkpt>
      <trkpt lat="49.47306" lon="0.17982">
        <ele>4.3</ele>
        <time>2020-06-17T17:04:23Z</time>
      </trkpt>
      <trkpt lat="49.4731" lon="0.17978">
        <ele>4.3</ele>
        <time>2020-06-17T17:04:24Z</time>
      </trkpt>
      <trkpt lat="49.47315" lon="0.17974">
        <ele>4.4</ele>
        <time>2020-06-17T17:04:25Z</time>
      </trkpt>
      <trkpt lat="49.47319" lon="0.1797">
        <ele>4.5</ele>
        <time>2020-06-17T17:04:26Z</time>
      </trkpt>
      <trkpt lat="49.47323" lon="0.17965">
        <ele>4.6</ele>
        <time>2020-06-17T17:04:27Z</time>
      </trkpt>
      <trkpt lat="49.47325" lon="0.1796">
        <ele>4.7</ele>
        <time>2020-06-17T17:04:28Z</time>
      </trkpt>
      <trkpt lat="49.47327" lon="0.17954">
        <ele>4.8</ele>
        <time>2020-06-17T17:04:29Z</time>
      </trkpt>
      <trkpt lat="49.47328" lon="0.17947">
        <ele>4.9</ele>
        <time>2020-06-17T17:04:30Z</time>
      </trkpt>
      <trkpt lat="49.47328" lon="0.1794">
        <ele>5</ele>
        <time>2020-06-17T17:04:31Z</time>
      </trkpt>
      <trkpt lat="49.47327" lon="0.17932">
        <ele>5.1</ele>
        <time>2020-06-17T17:04:32Z</time>
      </trkpt>
      <trkpt lat="49.47325" lon="0.17926">
        <ele>5.2</ele>
        <time>2020-06-17T17:04:33Z</time>
      </trkpt>
      <trkpt lat="49.47323" lon="0.17921">
        <ele>5.2</ele>
        <time>2020-06-17T17:04:34Z</time>
      </trkpt>
      <trkpt lat="49.47319" lon="0.17916">
        <ele>5.3</ele>
        <time>2020-06-17T17:04:35Z</time>
      </trkpt>
      <trkpt lat="49.47316" lon="0.17912">
        <ele>5.4</ele>
        <time>2020-06-17T17:04:36Z</time>
      </trkpt>
      <trkpt lat="49.47313" lon="0.17908">
        <ele>5.4</ele>
        <time>2020-06-17T17:04:37Z</time>
      </trkpt>
      <trkpt lat="49.4731" lon="0.17904">
        <ele>5.4</ele>
        <time>2020-06-17T17:04:38Z</time>
      </trkpt>
      <trkpt lat="49.47307" lon="0.17901">
        <ele>5.4</ele>
        <time>2020-06-17T17:04:39Z</time>
      </trkpt>
      <trkpt lat="49.47306" lon="0.17896">
        <ele>5.5</ele>
        <time>2020-06-17T17:04:40Z</time>
      </trkpt>
      <trkpt lat="49.47305" lon="0.17889">
        <ele>5.5</ele>
        <time>2020-06-17T17:04:41Z</time>
      </trkpt>
      <trkpt lat="49.47305" lon="0.17881">
        <ele>5.5</ele>
        <time>2020-06-17T17:04:42Z</time>
      </trkpt>
      <trkpt lat="49.47306" lon="0.17873">
        <ele>5.5</ele>
        <time>2020-06-17T17:04:43Z</time>
      </trkpt>
      <trkpt lat="49.47307" lon="0.17866">
        <ele>5.4</ele>
        <time>2020-06-17T17:04:44Z</time>
      </trkpt>
      <trkpt lat="49.47309" lon="0.1786">
        <ele>5.4</ele>
        <time>2020-06-17T17:04:45Z</time>
      </trkpt>
      <trkpt lat="49.47312" lon="0.17853">
        <ele>5.4</ele>
        <time>2020-06-17T17:04:46Z</time>
      </trkpt>
      <trkpt lat="49.47314" lon="0.17847">
        <ele>5.4</ele>
        <time>2020-06-17T17:04:47Z</time>
      </trkpt>
      <trkpt lat="49.47317" lon="0.17841">
        <ele>5.4</ele>
        <time>2020-06-17T17:04:48Z</time>
      </trkpt>
      <trkpt lat="49.4732" lon="0.17836">
        <ele>5.4</ele>
        <time>2020-06-17T17:04:49Z</time>
      </trkpt>
      <trkpt lat="49.47323" lon="0.1783">
        <ele>5.4</ele>
        <time>2020-06-17T17:04:50Z</time>
      </trkpt>
      <trkpt lat="49.47326" lon="0.17824">
        <ele>5.3</ele>
        <time>2020-06-17T17:04:51Z</time>
      </trkpt>
      <trkpt lat="49.47329" lon="0.17818">
        <ele>5.3</ele>
        <time>2020-06-17T17:04:52Z</time>
      </trkpt>
      <trkpt lat="49.47332" lon="0.17812">
        <ele>5.3</ele>
        <time>2020-06-17T17:04:53Z</time>
      </trkpt>
      <trkpt lat="49.47335" lon="0.17806">
        <ele>5.3</ele>
        <time>2020-06-17T17:04:54Z</time>
      </trkpt>
      <trkpt lat="49.47338" lon="0.178">
        <ele>5.3</ele>
        <time>2020-06-17T17:04:55Z</time>
      </trkpt>
      <trkpt lat="49.4734" lon="0.17794">
        <ele>5.3</ele>
        <time>2020-06-17T17:04:56Z</time>
      </trkpt>
      <trkpt lat="49.47343" lon="0.17787">
        <ele>5.3</ele>
        <time>2020-06-17T17:04:57Z</time>
      </trkpt>
      <trkpt lat="49.47346" lon="0.17781">
        <ele>5.3</ele>
        <time>2020-06-17T17:04:58Z</time>
      </trkpt>
      <trkpt lat="49.47349" lon="0.17775">
        <ele>5.2</ele>
        <time>2020-06-17T17:04:59Z</time>
      </trkpt>
      <trkpt lat="49.47352" lon="0.17769">
        <ele>5.2</ele>
        <time>2020-06-17T17:05:00Z</time>
      </trkpt>
      <trkpt lat="49.47355" lon="0.17763">
        <ele>5.2</ele>
        <time>2020-06-17T17:05:01Z</time>
      </trkpt>
      <trkpt lat="49.47358" lon="0.17756">
        <ele>5.2</ele>
        <time>2020-06-17T17:05:02Z</time>
      </trkpt>
      <trkpt lat="49.47361" lon="0.1775">
        <ele>5.2</ele>
        <time>2020-06-17T17:05:03Z</time>
      </trkpt>
      <trkpt lat="49.47364" lon="0.17744">
        <ele>5.2</ele>
        <time>2020-06-17T17:05:04Z</time>
      </trkpt>
      <trkpt lat="49.47368" lon="0.17739">
        <ele>5.2</ele>
        <time>2020-06-17T17:05:05Z</time>
      </trkpt>
      <trkpt lat="49.47371" lon="0.17734">
        <ele>5.2</ele>
        <time>2020-06-17T17:05:06Z</time>
      </trkpt>
      <trkpt lat="49.47375" lon="0.17728">
        <ele>5.3</ele>
        <time>2020-06-17T17:05:07Z</time>
      </trkpt>
      <trkpt lat="49.47378" lon="0.17723">
        <ele>5.3</ele>
        <time>2020-06-17T17:05:08Z</time>
      </trkpt>
      <trkpt lat="49.47381" lon="0.17719">
        <ele>5.3</ele>
        <time>2020-06-17T17:05:09Z</time>
      </trkpt>
      <trkpt lat="49.47384" lon="0.17714">
        <ele>5.3</ele>
        <time>2020-06-17T17:05:10Z</time>
      </trkpt>
      <trkpt lat="49.47388" lon="0.17711">
        <ele>5.4</ele>
        <time>2020-06-17T17:05:11Z</time>
      </trkpt>
      <trkpt lat="49.47392" lon="0.1771">
        <ele>5.4</ele>
        <time>2020-06-17T17:05:12Z</time>
      </trkpt>
      <trkpt lat="49.47395" lon="0.17707">
        <ele>5.4</ele>
        <time>2020-06-17T17:05:13Z</time>
      </trkpt>
      <trkpt lat="49.47397" lon="0.17704">
        <ele>5.5</ele>
        <time>2020-06-17T17:05:14Z</time>
      </trkpt>
      <trkpt lat="49.474" lon="0.17701">
        <ele>5.5</ele>
        <time>2020-06-17T17:05:15Z</time>
      </trkpt>
      <trkpt lat="49.47402" lon="0.17697">
        <ele>5.6</ele>
        <time>2020-06-17T17:05:16Z</time>
      </trkpt>
      <trkpt lat="49.47402" lon="0.17693">
        <ele>5.6</ele>
        <time>2020-06-17T17:05:17Z</time>
      </trkpt>
      <trkpt lat="49.47402" lon="0.17688">
        <ele>5.8</ele>
        <time>2020-06-17T17:05:18Z</time>
      </trkpt>
      <trkpt lat="49.47404" lon="0.17684">
        <ele>5.9</ele>
        <time>2020-06-17T17:05:19Z</time>
      </trkpt>
      <trkpt lat="49.47407" lon="0.1768">
        <ele>5.9</ele>
        <time>2020-06-17T17:05:20Z</time>
      </trkpt>
      <trkpt lat="49.4741" lon="0.17677">
        <ele>5.9</ele>
        <time>2020-06-17T17:05:21Z</time>
      </trkpt>
      <trkpt lat="49.47413" lon="0.17674">
        <ele>5.8</ele>
        <time>2020-06-17T17:05:22Z</time>
      </trkpt>
      <trkpt lat="49.47417" lon="0.17671">
        <ele>5.8</ele>
        <time>2020-06-17T17:05:23Z</time>
      </trkpt>
      <trkpt lat="49.4742" lon="0.17668">
        <ele>5.7</ele>
        <time>2020-06-17T17:05:24Z</time>
      </trkpt>
      <trkpt lat="49.47424" lon="0.17665">
        <ele>5.6</ele>
        <time>2020-06-17T17:05:25Z</time>
      </trkpt>
      <trkpt lat="49.47428" lon="0.17663">
        <ele>5.6</ele>
        <time>2020-06-17T17:05:26Z</time>
      </trkpt>
      <trkpt lat="49.47431" lon="0.17659">
        <ele>5.5</ele>
        <time>2020-06-17T17:05:27Z</time>
      </trkpt>
      <trkpt lat="49.47435" lon="0.17655">
        <ele>5.5</ele>
        <time>2020-06-17T17:05:28Z</time>
      </trkpt>
      <trkpt lat="49.47438" lon="0.17654">
        <ele>5.5</ele>
        <time>2020-06-17T17:05:29Z</time>
      </trkpt>
      <trkpt lat="49.47441" lon="0.17651">
        <ele>5.5</ele>
        <time>2020-06-17T17:05:30Z</time>
      </trkpt>
      <trkpt lat="49.47444" lon="0.17648">
        <ele>5.6</ele>
        <time>2020-06-17T17:05:31Z</time>
      </trkpt>
      <trkpt lat="49.47448" lon="0.17647">
        <ele>5.6</ele>
        <time>2020-06-17T17:05:32Z</time>
      </trkpt>
      <trkpt lat="49.47451" lon="0.17646">
        <ele>5.6</ele>
        <time>2020-06-17T17:05:33Z</time>
      </trkpt>
      <trkpt lat="49.47453" lon="0.17644">
        <ele>5.6</ele>
        <time>2020-06-17T17:05:34Z</time>
      </trkpt>
      <trkpt lat="49.47457" lon="0.17643">
        <ele>5.6</ele>
        <time>2020-06-17T17:05:35Z</time>
      </trkpt>
      <trkpt lat="49.4746" lon="0.17642">
        <ele>5.6</ele>
        <time>2020-06-17T17:05:36Z</time>
      </trkpt>
      <trkpt lat="49.47463" lon="0.17639">
        <ele>5.6</ele>
        <time>2020-06-17T17:05:37Z</time>
      </trkpt>
      <trkpt lat="49.47466" lon="0.17638">
        <ele>5.6</ele>
        <time>2020-06-17T17:05:38Z</time>
      </trkpt>
      <trkpt lat="49.4747" lon="0.17637">
        <ele>5.6</ele>
        <time>2020-06-17T17:05:39Z</time>
      </trkpt>
      <trkpt lat="49.47473" lon="0.17636">
        <ele>5.6</ele>
        <time>2020-06-17T17:05:40Z</time>
      </trkpt>
      <trkpt lat="49.47476" lon="0.17635">
        <ele>5.6</ele>
        <time>2020-06-17T17:05:41Z</time>
      </trkpt>
      <trkpt lat="49.47479" lon="0.17632">
        <ele>5.6</ele>
        <time>2020-06-17T17:05:42Z</time>
      </trkpt>
      <trkpt lat="49.47482" lon="0.17629">
        <ele>5.6</ele>
        <time>2020-06-17T17:05:43Z</time>
      </trkpt>
      <trkpt lat="49.47486" lon="0.17628">
        <ele>5.6</ele>
        <time>2020-06-17T17:05:44Z</time>
      </trkpt>
      <trkpt lat="49.47489" lon="0.17626">
        <ele>5.6</ele>
        <time>2020-06-17T17:05:45Z</time>
      </trkpt>
      <trkpt lat="49.47492" lon="0.17623">
        <ele>5.6</ele>
        <time>2020-06-17T17:05:46Z</time>
      </trkpt>
      <trkpt lat="49.47496" lon="0.17621">
        <ele>5.6</ele>
        <time>2020-06-17T17:05:47Z</time>
      </trkpt>
      <trkpt lat="49.47499" lon="0.1762">
        <ele>5.7</ele>
        <time>2020-06-17T17:05:48Z</time>
      </trkpt>
      <trkpt lat="49.47502" lon="0.17618">
        <ele>5.7</ele>
        <time>2020-06-17T17:05:49Z</time>
      </trkpt>
      <trkpt lat="49.47505" lon="0.17615">
        <ele>5.8</ele>
        <time>2020-06-17T17:05:50Z</time>
      </trkpt>
      <trkpt lat="49.47507" lon="0.17612">
        <ele>5.8</ele>
        <time>2020-06-17T17:05:51Z</time>
      </trkpt>
      <trkpt lat="49.47508" lon="0.17608">
        <ele>5.8</ele>
        <time>2020-06-17T17:05:52Z</time>
      </trkpt>
      <trkpt lat="49.47509" lon="0.17603">
        <ele>5.8</ele>
        <time>2020-06-17T17:05:53Z</time>
      </trkpt>
      <trkpt lat="49.47509" lon="0.17601">
        <ele>5.9</ele>
        <time>2020-06-17T17:05:54Z</time>
      </trkpt>
      <trkpt lat="49.47509" lon="0.17595">
        <ele>6.2</ele>
        <time>2020-06-17T17:05:55Z</time>
      </trkpt>
      <trkpt lat="49.4751" lon="0.17594">
        <ele>6.2</ele>
        <time>2020-06-17T17:05:56Z</time>
      </trkpt>
      <trkpt lat="49.4751" lon="0.17588">
        <ele>6.3</ele>
        <time>2020-06-17T17:05:57Z</time>
      </trkpt>
      <trkpt lat="49.4751" lon="0.17586">
        <ele>6.3</ele>
        <time>2020-06-17T17:05:58Z</time>
      </trkpt>
      <trkpt lat="49.4751" lon="0.17581">
        <ele>6.3</ele>
        <time>2020-06-17T17:05:59Z</time>
      </trkpt>
      <trkpt lat="49.47509" lon="0.1758">
        <ele>6.3</ele>
        <time>2020-06-17T17:06:00Z</time>
      </trkpt>
      <trkpt lat="49.47508" lon="0.17576">
        <ele>6.3</ele>
        <time>2020-06-17T17:06:01Z</time>
      </trkpt>
      <trkpt lat="49.47506" lon="0.17571">
        <ele>6.2</ele>
        <time>2020-06-17T17:06:02Z</time>
      </trkpt>
      <trkpt lat="49.47505" lon="0.17567">
        <ele>6.2</ele>
        <time>2020-06-17T17:06:03Z</time>
      </trkpt>
      <trkpt lat="49.47503" lon="0.17562">
        <ele>6.2</ele>
        <time>2020-06-17T17:06:04Z</time>
      </trkpt>
      <trkpt lat="49.47502" lon="0.17558">
        <ele>6.2</ele>
        <time>2020-06-17T17:06:05Z</time>
      </trkpt>
      <trkpt lat="49.475" lon="0.17554">
        <ele>6.2</ele>
        <time>2020-06-17T17:06:06Z</time>
      </trkpt>
      <trkpt lat="49.47499" lon="0.17549">
        <ele>6.1</ele>
        <time>2020-06-17T17:06:07Z</time>
      </trkpt>
      <trkpt lat="49.47497" lon="0.17546">
        <ele>6.1</ele>
        <time>2020-06-17T17:06:08Z</time>
      </trkpt>
      <trkpt lat="49.47496" lon="0.17542">
        <ele>6.1</ele>
        <time>2020-06-17T17:06:09Z</time>
      </trkpt>
      <trkpt lat="49.47495" lon="0.17538">
        <ele>6</ele>
        <time>2020-06-17T17:06:10Z</time>
      </trkpt>
      <trkpt lat="49.47495" lon="0.17533">
        <ele>6</ele>
        <time>2020-06-17T17:06:11Z</time>
      </trkpt>
      <trkpt lat="49.47494" lon="0.17528">
        <ele>6</ele>
        <time>2020-06-17T17:06:12Z</time>
      </trkpt>
      <trkpt lat="49.47494" lon="0.17524">
        <ele>5.9</ele>
        <time>2020-06-17T17:06:13Z</time>
      </trkpt>
      <trkpt lat="49.47494" lon="0.17518">
        <ele>5.9</ele>
        <time>2020-06-17T17:06:14Z</time>
      </trkpt>
      <trkpt lat="49.47494" lon="0.17516">
        <ele>5.9</ele>
        <time>2020-06-17T17:06:15Z</time>
      </trkpt>
      <trkpt lat="49.47495" lon="0.17512">
        <ele>5.8</ele>
        <time>2020-06-17T17:06:16Z</time>
      </trkpt>
      <trkpt lat="49.47497" lon="0.17507">
        <ele>5.8</ele>
        <time>2020-06-17T17:06:17Z</time>
      </trkpt>
      <trkpt lat="49.47497" lon="0.17506">
        <ele>5.8</ele>
        <time>2020-06-17T17:06:18Z</time>
      </trkpt>
      <trkpt lat="49.475" lon="0.17503">
        <ele>5.9</ele>
        <time>2020-06-17T17:06:19Z</time>
      </trkpt>
      <trkpt lat="49.47501" lon="0.17502">
        <ele>5.9</ele>
        <time>2020-06-17T17:06:20Z</time>
      </trkpt>
      <trkpt lat="49.47503" lon="0.17501">
        <ele>5.9</ele>
        <time>2020-06-17T17:06:21Z</time>
      </trkpt>
      <trkpt lat="49.47504" lon="0.17501">
        <ele>5.9</ele>
        <time>2020-06-17T17:06:22Z</time>
      </trkpt>
      <trkpt lat="49.47508" lon="0.175">
        <ele>6</ele>
        <time>2020-06-17T17:06:23Z</time>
      </trkpt>
      <trkpt lat="49.47509" lon="0.175">
        <ele>6</ele>
        <time>2020-06-17T17:06:24Z</time>
      </trkpt>
      <trkpt lat="49.47511" lon="0.17499">
        <ele>6</ele>
        <time>2020-06-17T17:06:25Z</time>
      </trkpt>
      <trkpt lat="49.47512" lon="0.17498">
        <ele>6</ele>
        <time>2020-06-17T17:06:26Z</time>
      </trkpt>
      <trkpt lat="49.47512" lon="0.17498">
        <ele>6</ele>
        <time>2020-06-17T17:06:27Z</time>
      </trkpt>
      <trkpt lat="49.47514" lon="0.17494">
        <ele>6.1</ele>
        <time>2020-06-17T17:06:28Z</time>
      </trkpt>
      <trkpt lat="49.47516" lon="0.1749">
        <ele>6.1</ele>
        <time>2020-06-17T17:06:29Z</time>
      </trkpt>
      <trkpt lat="49.47518" lon="0.17488">
        <ele>6.2</ele>
        <time>2020-06-17T17:06:30Z</time>
      </trkpt>
      <trkpt lat="49.47519" lon="0.17487">
        <ele>6.2</ele>
        <time>2020-06-17T17:06:31Z</time>
      </trkpt>
      <trkpt lat="49.47523" lon="0.17487">
        <ele>6.2</ele>
        <time>2020-06-17T17:06:32Z</time>
      </trkpt>
      <trkpt lat="49.47524" lon="0.17486">
        <ele>6.2</ele>
        <time>2020-06-17T17:06:33Z</time>
      </trkpt>
      <trkpt lat="49.47526" lon="0.17484">
        <ele>6.3</ele>
        <time>2020-06-17T17:06:34Z</time>
      </trkpt>
      <trkpt lat="49.47527" lon="0.17482">
        <ele>6.3</ele>
        <time>2020-06-17T17:06:35Z</time>
      </trkpt>
      <trkpt lat="49.4753" lon="0.1748">
        <ele>6.3</ele>
        <time>2020-06-17T17:06:36Z</time>
      </trkpt>
      <trkpt lat="49.47531" lon="0.17479">
        <ele>6.3</ele>
        <time>2020-06-17T17:06:37Z</time>
      </trkpt>
      <trkpt lat="49.47534" lon="0.17477">
        <ele>6.4</ele>
        <time>2020-06-17T17:06:38Z</time>
      </trkpt>
      <trkpt lat="49.47535" lon="0.17476">
        <ele>6.4</ele>
        <time>2020-06-17T17:06:39Z</time>
      </trkpt>
      <trkpt lat="49.47538" lon="0.17476">
        <ele>6.4</ele>
        <time>2020-06-17T17:06:40Z</time>
      </trkpt>
      <trkpt lat="49.4754" lon="0.17477">
        <ele>6.5</ele>
        <time>2020-06-17T17:06:41Z</time>
      </trkpt>
      <trkpt lat="49.47542" lon="0.17473">
        <ele>6.5</ele>
        <time>2020-06-17T17:06:42Z</time>
      </trkpt>
      <trkpt lat="49.47542" lon="0.17471">
        <ele>6.5</ele>
        <time>2020-06-17T17:06:43Z</time>
      </trkpt>
      <trkpt lat="49.47545" lon="0.17472">
        <ele>6.5</ele>
        <time>2020-06-17T17:06:44Z</time>
      </trkpt>
      <trkpt lat="49.47546" lon="0.17471">
        <ele>6.6</ele>
        <time>2020-06-17T17:06:45Z</time>
      </trkpt>
      <trkpt lat="49.47546" lon="0.17471">
        <ele>6.6</ele>
        <time>2020-06-17T17:06:46Z</time>
      </trkpt>
      <trkpt lat="49.47547" lon="0.17471">
        <ele>6.6</ele>
        <time>2020-06-17T17:06:47Z</time>
      </trkpt>
      <trkpt lat="49.47547" lon="0.17471">
        <ele>6.6</ele>
        <time>2020-06-17T17:06:48Z</time>
      </trkpt>
      <trkpt lat="49.47547" lon="0.17471">
        <ele>6.6</ele>
        <time>2020-06-17T17:06:49Z</time>
      </trkpt>
      <trkpt lat="49.47547" lon="0.1747">
        <ele>6.6</ele>
        <time>2020-06-17T17:06:50Z</time>
      </trkpt>
      <trkpt lat="49.47546" lon="0.17469">
        <ele>6.6</ele>
        <time>2020-06-17T17:06:51Z</time>
      </trkpt>
      <trkpt lat="49.47545" lon="0.17467">
        <ele>6.6</ele>
        <time>2020-06-17T17:06:52Z</time>
      </trkpt>
      <trkpt lat="49.47545" lon="0.17467">
        <ele>6.6</ele>
        <time>2020-06-17T17:06:53Z</time>
      </trkpt>
      <trkpt lat="49.47544" lon="0.17466">
        <ele>6.7</ele>
        <time>2020-06-17T17:06:54Z</time>
      </trkpt>
      <trkpt lat="49.47544" lon="0.17465">
        <ele>6.7</ele>
        <time>2020-06-17T17:06:55Z</time>
      </trkpt>
      <trkpt lat="49.47556" lon="0.17465">
        <ele>6.8</ele>
        <time>2020-06-17T17:07:52Z</time>
      </trkpt>
      <trkpt lat="49.47558" lon="0.17463">
        <ele>6.8</ele>
        <time>2020-06-17T17:07:53Z</time>
      </trkpt>
      <trkpt lat="49.47562" lon="0.17462">
        <ele>6.9</ele>
        <time>2020-06-17T17:07:54Z</time>
      </trkpt>
      <trkpt lat="49.47566" lon="0.17461">
        <ele>6.9</ele>
        <time>2020-06-17T17:07:55Z</time>
      </trkpt>
      <trkpt lat="49.4757" lon="0.1746">
        <ele>6.9</ele>
        <time>2020-06-17T17:07:56Z</time>
      </trkpt>
      <trkpt lat="49.47574" lon="0.17461">
        <ele>6.9</ele>
        <time>2020-06-17T17:07:57Z</time>
      </trkpt>
      <trkpt lat="49.47578" lon="0.17463">
        <ele>6.9</ele>
        <time>2020-06-17T17:07:58Z</time>
      </trkpt>
      <trkpt lat="49.47583" lon="0.17464">
        <ele>7</ele>
        <time>2020-06-17T17:07:59Z</time>
      </trkpt>
      <trkpt lat="49.47587" lon="0.17467">
        <ele>7</ele>
        <time>2020-06-17T17:08:00Z</time>
      </trkpt>
      <trkpt lat="49.47592" lon="0.17469">
        <ele>7</ele>
        <time>2020-06-17T17:08:01Z</time>
      </trkpt>
      <trkpt lat="49.47596" lon="0.17471">
        <ele>7</ele>
        <time>2020-06-17T17:08:02Z</time>
      </trkpt>
      <trkpt lat="49.476" lon="0.17473">
        <ele>7.1</ele>
        <time>2020-06-17T17:08:03Z</time>
      </trkpt>
      <trkpt lat="49.47604" lon="0.17474">
        <ele>7.1</ele>
        <time>2020-06-17T17:08:04Z</time>
      </trkpt>
      <trkpt lat="49.47609" lon="0.17472">
        <ele>7.1</ele>
        <time>2020-06-17T17:08:05Z</time>
      </trkpt>
      <trkpt lat="49.47616" lon="0.17471">
        <ele>7.2</ele>
        <time>2020-06-17T17:08:06Z</time>
      </trkpt>
      <trkpt lat="49.47621" lon="0.17468">
        <ele>7.2</ele>
        <time>2020-06-17T17:08:07Z</time>
      </trkpt>
      <trkpt lat="49.47626" lon="0.17466">
        <ele>7.3</ele>
        <time>2020-06-17T17:08:08Z</time>
      </trkpt>
      <trkpt lat="49.47632" lon="0.17463">
        <ele>7.3</ele>
        <time>2020-06-17T17:08:09Z</time>
      </trkpt>
      <trkpt lat="49.47641" lon="0.1746">
        <ele>7.4</ele>
        <time>2020-06-17T17:08:10Z</time>
      </trkpt>
      <trkpt lat="49.47647" lon="0.17456">
        <ele>7.4</ele>
        <time>2020-06-17T17:08:11Z</time>
      </trkpt>
      <trkpt lat="49.47652" lon="0.17453">
        <ele>7.5</ele>
        <time>2020-06-17T17:08:12Z</time>
      </trkpt>
      <trkpt lat="49.47658" lon="0.1745">
        <ele>7.5</ele>
        <time>2020-06-17T17:08:13Z</time>
      </trkpt>
      <trkpt lat="49.47662" lon="0.17447">
        <ele>7.5</ele>
        <time>2020-06-17T17:08:14Z</time>
      </trkpt>
      <trkpt lat="49.47667" lon="0.17443">
        <ele>7.6</ele>
        <time>2020-06-17T17:08:15Z</time>
      </trkpt>
      <trkpt lat="49.47674" lon="0.17441">
        <ele>7.6</ele>
        <time>2020-06-17T17:08:16Z</time>
      </trkpt>
      <trkpt lat="49.47677" lon="0.17437">
        <ele>7.6</ele>
        <time>2020-06-17T17:08:17Z</time>
      </trkpt>
      <trkpt lat="49.47683" lon="0.17436">
        <ele>7.6</ele>
        <time>2020-06-17T17:08:18Z</time>
      </trkpt>
      <trkpt lat="49.47688" lon="0.17435">
        <ele>7.7</ele>
        <time>2020-06-17T17:08:19Z</time>
      </trkpt>
      <trkpt lat="49.47691" lon="0.17432">
        <ele>7.8</ele>
        <time>2020-06-17T17:08:20Z</time>
      </trkpt>
      <trkpt lat="49.47693" lon="0.1743">
        <ele>7.8</ele>
        <time>2020-06-17T17:08:21Z</time>
      </trkpt>
      <trkpt lat="49.47696" lon="0.17428">
        <ele>7.8</ele>
        <time>2020-06-17T17:08:22Z</time>
      </trkpt>
      <trkpt lat="49.477" lon="0.17426">
        <ele>7.9</ele>
        <time>2020-06-17T17:08:23Z</time>
      </trkpt>
      <trkpt lat="49.47703" lon="0.17423">
        <ele>7.8</ele>
        <time>2020-06-17T17:08:24Z</time>
      </trkpt>
      <trkpt lat="49.47706" lon="0.17419">
        <ele>7.7</ele>
        <time>2020-06-17T17:08:25Z</time>
      </trkpt>
      <trkpt lat="49.47708" lon="0.17417">
        <ele>7.6</ele>
        <time>2020-06-17T17:08:26Z</time>
      </trkpt>
      <trkpt lat="49.47709" lon="0.17412">
        <ele>7.5</ele>
        <time>2020-06-17T17:08:27Z</time>
      </trkpt>
      <trkpt lat="49.47708" lon="0.17406">
        <ele>7.4</ele>
        <time>2020-06-17T17:08:28Z</time>
      </trkpt>
      <trkpt lat="49.47707" lon="0.17397">
        <ele>7.2</ele>
        <time>2020-06-17T17:08:29Z</time>
      </trkpt>
      <trkpt lat="49.47705" lon="0.1739">
        <ele>7</ele>
        <time>2020-06-17T17:08:30Z</time>
      </trkpt>
      <trkpt lat="49.47703" lon="0.17383">
        <ele>6.9</ele>
        <time>2020-06-17T17:08:31Z</time>
      </trkpt>
      <trkpt lat="49.477" lon="0.17375">
        <ele>6.7</ele>
        <time>2020-06-17T17:08:32Z</time>
      </trkpt>
      <trkpt lat="49.47698" lon="0.17369">
        <ele>6.5</ele>
        <time>2020-06-17T17:08:33Z</time>
      </trkpt>
      <trkpt lat="49.47697" lon="0.17362">
        <ele>6.3</ele>
        <time>2020-06-17T17:08:34Z</time>
      </trkpt>
      <trkpt lat="49.47696" lon="0.17356">
        <ele>6.1</ele>
        <time>2020-06-17T17:08:35Z</time>
      </trkpt>
      <trkpt lat="49.47694" lon="0.17349">
        <ele>5.9</ele>
        <time>2020-06-17T17:08:36Z</time>
      </trkpt>
      <trkpt lat="49.47693" lon="0.17341">
        <ele>5.7</ele>
        <time>2020-06-17T17:08:37Z</time>
      </trkpt>
      <trkpt lat="49.47691" lon="0.17333">
        <ele>5.5</ele>
        <time>2020-06-17T17:08:38Z</time>
      </trkpt>
      <trkpt lat="49.47689" lon="0.17325">
        <ele>5.3</ele>
        <time>2020-06-17T17:08:39Z</time>
      </trkpt>
      <trkpt lat="49.47686" lon="0.17318">
        <ele>5.3</ele>
        <time>2020-06-17T17:08:40Z</time>
      </trkpt>
      <trkpt lat="49.47684" lon="0.17311">
        <ele>5.3</ele>
        <time>2020-06-17T17:08:41Z</time>
      </trkpt>
      <trkpt lat="49.47681" lon="0.17302">
        <ele>5.3</ele>
        <time>2020-06-17T17:08:42Z</time>
      </trkpt>
      <trkpt lat="49.47679" lon="0.17298">
        <ele>5.3</ele>
        <time>2020-06-17T17:08:43Z</time>
      </trkpt>
      <trkpt lat="49.47676" lon="0.17289">
        <ele>5.3</ele>
        <time>2020-06-17T17:08:44Z</time>
      </trkpt>
      <trkpt lat="49.47673" lon="0.17282">
        <ele>5.2</ele>
        <time>2020-06-17T17:08:45Z</time>
      </trkpt>
      <trkpt lat="49.47672" lon="0.17276">
        <ele>5.2</ele>
        <time>2020-06-17T17:08:46Z</time>
      </trkpt>
      <trkpt lat="49.4767" lon="0.17269">
        <ele>5.1</ele>
        <time>2020-06-17T17:08:47Z</time>
      </trkpt>
      <trkpt lat="49.47668" lon="0.17262">
        <ele>5</ele>
        <time>2020-06-17T17:08:48Z</time>
      </trkpt>
      <trkpt lat="49.47667" lon="0.17256">
        <ele>4.9</ele>
        <time>2020-06-17T17:08:49Z</time>
      </trkpt>
      <trkpt lat="49.47666" lon="0.1725">
        <ele>4.9</ele>
        <time>2020-06-17T17:08:50Z</time>
      </trkpt>
      <trkpt lat="49.47666" lon="0.17244">
        <ele>4.8</ele>
        <time>2020-06-17T17:08:51Z</time>
      </trkpt>
      <trkpt lat="49.47665" lon="0.17238">
        <ele>4.8</ele>
        <time>2020-06-17T17:08:52Z</time>
      </trkpt>
      <trkpt lat="49.47664" lon="0.17233">
        <ele>4.7</ele>
        <time>2020-06-17T17:08:53Z</time>
      </trkpt>
      <trkpt lat="49.47664" lon="0.17228">
        <ele>4.8</ele>
        <time>2020-06-17T17:08:54Z</time>
      </trkpt>
      <trkpt lat="49.47668" lon="0.17227">
        <ele>4.8</ele>
        <time>2020-06-17T17:08:55Z</time>
      </trkpt>
      <trkpt lat="49.47672" lon="0.17225">
        <ele>4.9</ele>
        <time>2020-06-17T17:08:56Z</time>
      </trkpt>
      <trkpt lat="49.47675" lon="0.17223">
        <ele>4.9</ele>
        <time>2020-06-17T17:08:57Z</time>
      </trkpt>
      <trkpt lat="49.47678" lon="0.17221">
        <ele>5</ele>
        <time>2020-06-17T17:08:58Z</time>
      </trkpt>
      <trkpt lat="49.47681" lon="0.17219">
        <ele>5.2</ele>
        <time>2020-06-17T17:08:59Z</time>
      </trkpt>
      <trkpt lat="49.47684" lon="0.17217">
        <ele>5.4</ele>
        <time>2020-06-17T17:09:00Z</time>
      </trkpt>
      <trkpt lat="49.47687" lon="0.17216">
        <ele>5.6</ele>
        <time>2020-06-17T17:09:01Z</time>
      </trkpt>
      <trkpt lat="49.47689" lon="0.17215">
        <ele>5.5</ele>
        <time>2020-06-17T17:09:02Z</time>
      </trkpt>
      <trkpt lat="49.47693" lon="0.17214">
        <ele>5.4</ele>
        <time>2020-06-17T17:09:03Z</time>
      </trkpt>
      <trkpt lat="49.47697" lon="0.17213">
        <ele>5.4</ele>
        <time>2020-06-17T17:09:04Z</time>
      </trkpt>
      <trkpt lat="49.47698" lon="0.17212">
        <ele>5.4</ele>
        <time>2020-06-17T17:09:05Z</time>
      </trkpt>
      <trkpt lat="49.47702" lon="0.17212">
        <ele>5.3</ele>
        <time>2020-06-17T17:09:06Z</time>
      </trkpt>
      <trkpt lat="49.47706" lon="0.17211">
        <ele>5.3</ele>
        <time>2020-06-17T17:09:07Z</time>
      </trkpt>
      <trkpt lat="49.47709" lon="0.17209">
        <ele>5.2</ele>
        <time>2020-06-17T17:09:08Z</time>
      </trkpt>
      <trkpt lat="49.47713" lon="0.17206">
        <ele>5.1</ele>
        <time>2020-06-17T17:09:09Z</time>
      </trkpt>
      <trkpt lat="49.47716" lon="0.17203">
        <ele>5.1</ele>
        <time>2020-06-17T17:09:10Z</time>
      </trkpt>
      <trkpt lat="49.47721" lon="0.172">
        <ele>5</ele>
        <time>2020-06-17T17:09:11Z</time>
      </trkpt>
      <trkpt lat="49.47724" lon="0.17197">
        <ele>5</ele>
        <time>2020-06-17T17:09:12Z</time>
      </trkpt>
      <trkpt lat="49.47727" lon="0.17192">
        <ele>4.9</ele>
        <time>2020-06-17T17:09:13Z</time>
      </trkpt>
      <trkpt lat="49.47731" lon="0.17184">
        <ele>4.8</ele>
        <time>2020-06-17T17:09:14Z</time>
      </trkpt>
      <trkpt lat="49.47736" lon="0.17178">
        <ele>4.7</ele>
        <time>2020-06-17T17:09:15Z</time>
      </trkpt>
      <trkpt lat="49.4774" lon="0.17172">
        <ele>4.6</ele>
        <time>2020-06-17T17:09:16Z</time>
      </trkpt>
      <trkpt lat="49.47743" lon="0.17167">
        <ele>4.6</ele>
        <time>2020-06-17T17:09:17Z</time>
      </trkpt>
      <trkpt lat="49.47748" lon="0.1716">
        <ele>4.5</ele>
        <time>2020-06-17T17:09:18Z</time>
      </trkpt>
      <trkpt lat="49.47752" lon="0.17153">
        <ele>4.4</ele>
        <time>2020-06-17T17:09:19Z</time>
      </trkpt>
      <trkpt lat="49.47757" lon="0.17148">
        <ele>4.4</ele>
        <time>2020-06-17T17:09:20Z</time>
      </trkpt>
      <trkpt lat="49.47761" lon="0.17141">
        <ele>4.4</ele>
        <time>2020-06-17T17:09:21Z</time>
      </trkpt>
      <trkpt lat="49.47765" lon="0.17135">
        <ele>4.4</ele>
        <time>2020-06-17T17:09:22Z</time>
      </trkpt>
      <trkpt lat="49.47769" lon="0.17129">
        <ele>4.4</ele>
        <time>2020-06-17T17:09:23Z</time>
      </trkpt>
      <trkpt lat="49.47772" lon="0.17123">
        <ele>4.4</ele>
        <time>2020-06-17T17:09:24Z</time>
      </trkpt>
      <trkpt lat="49.47776" lon="0.17116">
        <ele>4.3</ele>
        <time>2020-06-17T17:09:25Z</time>
      </trkpt>
      <trkpt lat="49.4778" lon="0.17109">
        <ele>4.3</ele>
        <time>2020-06-17T17:09:26Z</time>
      </trkpt>
      <trkpt lat="49.47784" lon="0.17103">
        <ele>4.3</ele>
        <time>2020-06-17T17:09:27Z</time>
      </trkpt>
      <trkpt lat="49.47788" lon="0.17097">
        <ele>4.2</ele>
        <time>2020-06-17T17:09:28Z</time>
      </trkpt>
      <trkpt lat="49.47792" lon="0.1709">
        <ele>4.2</ele>
        <time>2020-06-17T17:09:29Z</time>
      </trkpt>
      <trkpt lat="49.47796" lon="0.17084">
        <ele>4.2</ele>
        <time>2020-06-17T17:09:30Z</time>
      </trkpt>
      <trkpt lat="49.478" lon="0.17078">
        <ele>4.2</ele>
        <time>2020-06-17T17:09:31Z</time>
      </trkpt>
      <trkpt lat="49.47805" lon="0.17073">
        <ele>4.2</ele>
        <time>2020-06-17T17:09:32Z</time>
      </trkpt>
      <trkpt lat="49.47809" lon="0.17066">
        <ele>4.2</ele>
        <time>2020-06-17T17:09:33Z</time>
      </trkpt>
      <trkpt lat="49.47813" lon="0.1706">
        <ele>4.1</ele>
        <time>2020-06-17T17:09:34Z</time>
      </trkpt>
      <trkpt lat="49.47818" lon="0.17054">
        <ele>4.1</ele>
        <time>2020-06-17T17:09:35Z</time>
      </trkpt>
      <trkpt lat="49.47822" lon="0.17048">
        <ele>4.1</ele>
        <time>2020-06-17T17:09:36Z</time>
      </trkpt>
      <trkpt lat="49.47826" lon="0.17043">
        <ele>4</ele>
        <time>2020-06-17T17:09:37Z</time>
      </trkpt>
      <trkpt lat="49.47831" lon="0.17039">
        <ele>4</ele>
        <time>2020-06-17T17:09:38Z</time>
      </trkpt>
      <trkpt lat="49.47835" lon="0.17034">
        <ele>3.9</ele>
        <time>2020-06-17T17:09:39Z</time>
      </trkpt>
      <trkpt lat="49.47839" lon="0.1703">
        <ele>3.9</ele>
        <time>2020-06-17T17:09:40Z</time>
      </trkpt>
      <trkpt lat="49.47844" lon="0.17025">
        <ele>3.8</ele>
        <time>2020-06-17T17:09:41Z</time>
      </trkpt>
      <trkpt lat="49.47848" lon="0.1702">
        <ele>3.8</ele>
        <time>2020-06-17T17:09:42Z</time>
      </trkpt>
      <trkpt lat="49.47853" lon="0.17015">
        <ele>3.7</ele>
        <time>2020-06-17T17:09:43Z</time>
      </trkpt>
      <trkpt lat="49.47858" lon="0.1701">
        <ele>3.5</ele>
        <time>2020-06-17T17:09:44Z</time>
      </trkpt>
      <trkpt lat="49.47863" lon="0.17005">
        <ele>3.4</ele>
        <time>2020-06-17T17:09:45Z</time>
      </trkpt>
      <trkpt lat="49.47868" lon="0.17">
        <ele>3.1</ele>
        <time>2020-06-17T17:09:46Z</time>
      </trkpt>
      <trkpt lat="49.47873" lon="0.16994">
        <ele>2.7</ele>
        <time>2020-06-17T17:09:47Z</time>
      </trkpt>
      <trkpt lat="49.47879" lon="0.16988">
        <ele>2.3</ele>
        <time>2020-06-17T17:09:48Z</time>
      </trkpt>
      <trkpt lat="49.47885" lon="0.16982">
        <ele>1.9</ele>
        <time>2020-06-17T17:09:49Z</time>
      </trkpt>
      <trkpt lat="49.47891" lon="0.16975">
        <ele>1.4</ele>
        <time>2020-06-17T17:09:50Z</time>
      </trkpt>
      <trkpt lat="49.47898" lon="0.16968">
        <ele>0.9</ele>
        <time>2020-06-17T17:09:51Z</time>
      </trkpt>
      <trkpt lat="49.47904" lon="0.16959">
        <ele>0.3</ele>
        <time>2020-06-17T17:09:52Z</time>
      </trkpt>
      <trkpt lat="49.47911" lon="0.1695">
        <ele>-0.2</ele>
        <time>2020-06-17T17:09:53Z</time>
      </trkpt>
      <trkpt lat="49.47917" lon="0.16941">
        <ele>-0.5</ele>
        <time>2020-06-17T17:09:54Z</time>
      </trkpt>
      <trkpt lat="49.47923" lon="0.16933">
        <ele>-0.8</ele>
        <time>2020-06-17T17:09:55Z</time>
      </trkpt>
      <trkpt lat="49.47931" lon="0.16924">
        <ele>-1.1</ele>
        <time>2020-06-17T17:09:56Z</time>
      </trkpt>
      <trkpt lat="49.47936" lon="0.16919">
        <ele>-1.3</ele>
        <time>2020-06-17T17:09:57Z</time>
      </trkpt>
      <trkpt lat="49.47943" lon="0.16911">
        <ele>-1.4</ele>
        <time>2020-06-17T17:09:58Z</time>
      </trkpt>
      <trkpt lat="49.47954" lon="0.16898">
        <ele>-1.5</ele>
        <time>2020-06-17T17:09:59Z</time>
      </trkpt>
      <trkpt lat="49.47957" lon="0.16894">
        <ele>-1.5</ele>
        <time>2020-06-17T17:10:00Z</time>
      </trkpt>
      <trkpt lat="49.47964" lon="0.16886">
        <ele>-1.6</ele>
        <time>2020-06-17T17:10:01Z</time>
      </trkpt>
      <trkpt lat="49.47974" lon="0.16876">
        <ele>-1.5</ele>
        <time>2020-06-17T17:10:02Z</time>
      </trkpt>
      <trkpt lat="49.4798" lon="0.16867">
        <ele>-1.2</ele>
        <time>2020-06-17T17:10:03Z</time>
      </trkpt>
      <trkpt lat="49.47988" lon="0.16858">
        <ele>-0.8</ele>
        <time>2020-06-17T17:10:04Z</time>
      </trkpt>
      <trkpt lat="49.47997" lon="0.16846">
        <ele>5.2</ele>
        <time>2020-06-17T17:10:05Z</time>
      </trkpt>
      <trkpt lat="49.48005" lon="0.16842">
        <ele>0.6</ele>
        <time>2020-06-17T17:10:06Z</time>
      </trkpt>
      <trkpt lat="49.48012" lon="0.16836">
        <ele>1.2</ele>
        <time>2020-06-17T17:10:07Z</time>
      </trkpt>
      <trkpt lat="49.48018" lon="0.1683">
        <ele>1.7</ele>
        <time>2020-06-17T17:10:08Z</time>
      </trkpt>
      <trkpt lat="49.48024" lon="0.16824">
        <ele>2.2</ele>
        <time>2020-06-17T17:10:09Z</time>
      </trkpt>
      <trkpt lat="49.4803" lon="0.16819">
        <ele>2.7</ele>
        <time>2020-06-17T17:10:10Z</time>
      </trkpt>
      <trkpt lat="49.48035" lon="0.16814">
        <ele>3</ele>
        <time>2020-06-17T17:10:11Z</time>
      </trkpt>
      <trkpt lat="49.4804" lon="0.1681">
        <ele>3.3</ele>
        <time>2020-06-17T17:10:12Z</time>
      </trkpt>
      <trkpt lat="49.48044" lon="0.16805">
        <ele>3.6</ele>
        <time>2020-06-17T17:10:13Z</time>
      </trkpt>
      <trkpt lat="49.48049" lon="0.16801">
        <ele>3.8</ele>
        <time>2020-06-17T17:10:14Z</time>
      </trkpt>
      <trkpt lat="49.48053" lon="0.16797">
        <ele>4</ele>
        <time>2020-06-17T17:10:15Z</time>
      </trkpt>
      <trkpt lat="49.48057" lon="0.16793">
        <ele>4.1</ele>
        <time>2020-06-17T17:10:16Z</time>
      </trkpt>
      <trkpt lat="49.4806" lon="0.16788">
        <ele>4.2</ele>
        <time>2020-06-17T17:10:17Z</time>
      </trkpt>
      <trkpt lat="49.48064" lon="0.16784">
        <ele>4.3</ele>
        <time>2020-06-17T17:10:18Z</time>
      </trkpt>
      <trkpt lat="49.48069" lon="0.1678">
        <ele>4.3</ele>
        <time>2020-06-17T17:10:19Z</time>
      </trkpt>
      <trkpt lat="49.48073" lon="0.16775">
        <ele>4.4</ele>
        <time>2020-06-17T17:10:20Z</time>
      </trkpt>
      <trkpt lat="49.48078" lon="0.1677">
        <ele>4.4</ele>
        <time>2020-06-17T17:10:21Z</time>
      </trkpt>
      <trkpt lat="49.48082" lon="0.16765">
        <ele>4.4</ele>
        <time>2020-06-17T17:10:22Z</time>
      </trkpt>
      <trkpt lat="49.48087" lon="0.1676">
        <ele>4.4</ele>
        <time>2020-06-17T17:10:23Z</time>
      </trkpt>
      <trkpt lat="49.48092" lon="0.16756">
        <ele>4.4</ele>
        <time>2020-06-17T17:10:24Z</time>
      </trkpt>
      <trkpt lat="49.48097" lon="0.16751">
        <ele>4.4</ele>
        <time>2020-06-17T17:10:25Z</time>
      </trkpt>
      <trkpt lat="49.48102" lon="0.16747">
        <ele>4.4</ele>
        <time>2020-06-17T17:10:26Z</time>
      </trkpt>
      <trkpt lat="49.48107" lon="0.16741">
        <ele>4.4</ele>
        <time>2020-06-17T17:10:27Z</time>
      </trkpt>
      <trkpt lat="49.48112" lon="0.16737">
        <ele>4.4</ele>
        <time>2020-06-17T17:10:28Z</time>
      </trkpt>
      <trkpt lat="49.48116" lon="0.16732">
        <ele>4.4</ele>
        <time>2020-06-17T17:10:29Z</time>
      </trkpt>
      <trkpt lat="49.48121" lon="0.16726">
        <ele>4.5</ele>
        <time>2020-06-17T17:10:30Z</time>
      </trkpt>
      <trkpt lat="49.48126" lon="0.1672">
        <ele>4.5</ele>
        <time>2020-06-17T17:10:31Z</time>
      </trkpt>
      <trkpt lat="49.48131" lon="0.16714">
        <ele>4.5</ele>
        <time>2020-06-17T17:10:32Z</time>
      </trkpt>
      <trkpt lat="49.48136" lon="0.16709">
        <ele>4.5</ele>
        <time>2020-06-17T17:10:33Z</time>
      </trkpt>
      <trkpt lat="49.48141" lon="0.16703">
        <ele>4.6</ele>
        <time>2020-06-17T17:10:34Z</time>
      </trkpt>
      <trkpt lat="49.48146" lon="0.16698">
        <ele>4.6</ele>
        <time>2020-06-17T17:10:35Z</time>
      </trkpt>
      <trkpt lat="49.48151" lon="0.16692">
        <ele>4.5</ele>
        <time>2020-06-17T17:10:36Z</time>
      </trkpt>
      <trkpt lat="49.48156" lon="0.16686">
        <ele>4.5</ele>
        <time>2020-06-17T17:10:37Z</time>
      </trkpt>
      <trkpt lat="49.48161" lon="0.16682">
        <ele>4.5</ele>
        <time>2020-06-17T17:10:38Z</time>
      </trkpt>
      <trkpt lat="49.48166" lon="0.16677">
        <ele>4.4</ele>
        <time>2020-06-17T17:10:39Z</time>
      </trkpt>
      <trkpt lat="49.48171" lon="0.16672">
        <ele>4.4</ele>
        <time>2020-06-17T17:10:40Z</time>
      </trkpt>
      <trkpt lat="49.48177" lon="0.16666">
        <ele>4.5</ele>
        <time>2020-06-17T17:10:41Z</time>
      </trkpt>
      <trkpt lat="49.48182" lon="0.1666">
        <ele>4.5</ele>
        <time>2020-06-17T17:10:42Z</time>
      </trkpt>
      <trkpt lat="49.48187" lon="0.16655">
        <ele>4.5</ele>
        <time>2020-06-17T17:10:43Z</time>
      </trkpt>
      <trkpt lat="49.48192" lon="0.16651">
        <ele>4.5</ele>
        <time>2020-06-17T17:10:44Z</time>
      </trkpt>
      <trkpt lat="49.48197" lon="0.16646">
        <ele>4.6</ele>
        <time>2020-06-17T17:10:45Z</time>
      </trkpt>
      <trkpt lat="49.48202" lon="0.16641">
        <ele>4.6</ele>
        <time>2020-06-17T17:10:46Z</time>
      </trkpt>
      <trkpt lat="49.48207" lon="0.16635">
        <ele>4.7</ele>
        <time>2020-06-17T17:10:47Z</time>
      </trkpt>
      <trkpt lat="49.48211" lon="0.16631">
        <ele>4.7</ele>
        <time>2020-06-17T17:10:48Z</time>
      </trkpt>
      <trkpt lat="49.48215" lon="0.16627">
        <ele>4.6</ele>
        <time>2020-06-17T17:10:49Z</time>
      </trkpt>
      <trkpt lat="49.48219" lon="0.16623">
        <ele>4.5</ele>
        <time>2020-06-17T17:10:50Z</time>
      </trkpt>
      <trkpt lat="49.48224" lon="0.16619">
        <ele>4.5</ele>
        <time>2020-06-17T17:10:51Z</time>
      </trkpt>
      <trkpt lat="49.48228" lon="0.16615">
        <ele>4.4</ele>
        <time>2020-06-17T17:10:52Z</time>
      </trkpt>
      <trkpt lat="49.48233" lon="0.1661">
        <ele>4.4</ele>
        <time>2020-06-17T17:10:53Z</time>
      </trkpt>
      <trkpt lat="49.48238" lon="0.16606">
        <ele>4.3</ele>
        <time>2020-06-17T17:10:54Z</time>
      </trkpt>
      <trkpt lat="49.48243" lon="0.16602">
        <ele>4.3</ele>
        <time>2020-06-17T17:10:55Z</time>
      </trkpt>
      <trkpt lat="49.48247" lon="0.16598">
        <ele>4.2</ele>
        <time>2020-06-17T17:10:56Z</time>
      </trkpt>
      <trkpt lat="49.48252" lon="0.16594">
        <ele>4.2</ele>
        <time>2020-06-17T17:10:57Z</time>
      </trkpt>
      <trkpt lat="49.48256" lon="0.16591">
        <ele>4.2</ele>
        <time>2020-06-17T17:10:58Z</time>
      </trkpt>
      <trkpt lat="49.48261" lon="0.16586">
        <ele>4.1</ele>
        <time>2020-06-17T17:10:59Z</time>
      </trkpt>
      <trkpt lat="49.48265" lon="0.16582">
        <ele>4.1</ele>
        <time>2020-06-17T17:11:00Z</time>
      </trkpt>
      <trkpt lat="49.4827" lon="0.16579">
        <ele>4</ele>
        <time>2020-06-17T17:11:01Z</time>
      </trkpt>
      <trkpt lat="49.48275" lon="0.16574">
        <ele>4</ele>
        <time>2020-06-17T17:11:02Z</time>
      </trkpt>
      <trkpt lat="49.48279" lon="0.1657">
        <ele>4</ele>
        <time>2020-06-17T17:11:03Z</time>
      </trkpt>
      <trkpt lat="49.48283" lon="0.16568">
        <ele>4</ele>
        <time>2020-06-17T17:11:04Z</time>
      </trkpt>
      <trkpt lat="49.48286" lon="0.16566">
        <ele>4</ele>
        <time>2020-06-17T17:11:05Z</time>
      </trkpt>
      <trkpt lat="49.48291" lon="0.16566">
        <ele>4</ele>
        <time>2020-06-17T17:11:06Z</time>
      </trkpt>
      <trkpt lat="49.48295" lon="0.16567">
        <ele>4</ele>
        <time>2020-06-17T17:11:07Z</time>
      </trkpt>
      <trkpt lat="49.48299" lon="0.16571">
        <ele>4</ele>
        <time>2020-06-17T17:11:08Z</time>
      </trkpt>
      <trkpt lat="49.48305" lon="0.16574">
        <ele>4</ele>
        <time>2020-06-17T17:11:09Z</time>
      </trkpt>
      <trkpt lat="49.4831" lon="0.16577">
        <ele>4.1</ele>
        <time>2020-06-17T17:11:10Z</time>
      </trkpt>
      <trkpt lat="49.48315" lon="0.16578">
        <ele>4.1</ele>
        <time>2020-06-17T17:11:11Z</time>
      </trkpt>
      <trkpt lat="49.4832" lon="0.16577">
        <ele>4.1</ele>
        <time>2020-06-17T17:11:12Z</time>
      </trkpt>
      <trkpt lat="49.48326" lon="0.16576">
        <ele>4.1</ele>
        <time>2020-06-17T17:11:13Z</time>
      </trkpt>
      <trkpt lat="49.48331" lon="0.16572">
        <ele>4.1</ele>
        <time>2020-06-17T17:11:14Z</time>
      </trkpt>
      <trkpt lat="49.48335" lon="0.16568">
        <ele>4.1</ele>
        <time>2020-06-17T17:11:15Z</time>
      </trkpt>
      <trkpt lat="49.48339" lon="0.16561">
        <ele>4.1</ele>
        <time>2020-06-17T17:11:16Z</time>
      </trkpt>
      <trkpt lat="49.48341" lon="0.16554">
        <ele>4.1</ele>
        <time>2020-06-17T17:11:17Z</time>
      </trkpt>
      <trkpt lat="49.48344" lon="0.16548">
        <ele>4.1</ele>
        <time>2020-06-17T17:11:18Z</time>
      </trkpt>
      <trkpt lat="49.48346" lon="0.16541">
        <ele>4.1</ele>
        <time>2020-06-17T17:11:19Z</time>
      </trkpt>
      <trkpt lat="49.48347" lon="0.16537">
        <ele>4.1</ele>
        <time>2020-06-17T17:11:20Z</time>
      </trkpt>
      <trkpt lat="49.48348" lon="0.1653">
        <ele>4.1</ele>
        <time>2020-06-17T17:11:21Z</time>
      </trkpt>
      <trkpt lat="49.4835" lon="0.16523">
        <ele>4.1</ele>
        <time>2020-06-17T17:11:22Z</time>
      </trkpt>
      <trkpt lat="49.48352" lon="0.16516">
        <ele>4.1</ele>
        <time>2020-06-17T17:11:23Z</time>
      </trkpt>
      <trkpt lat="49.48355" lon="0.1651">
        <ele>4.1</ele>
        <time>2020-06-17T17:11:24Z</time>
      </trkpt>
      <trkpt lat="49.48359" lon="0.16505">
        <ele>4.1</ele>
        <time>2020-06-17T17:11:25Z</time>
      </trkpt>
      <trkpt lat="49.48362" lon="0.16502">
        <ele>4</ele>
        <time>2020-06-17T17:11:26Z</time>
      </trkpt>
      <trkpt lat="49.48366" lon="0.16498">
        <ele>4</ele>
        <time>2020-06-17T17:11:27Z</time>
      </trkpt>
      <trkpt lat="49.48369" lon="0.16493">
        <ele>4</ele>
        <time>2020-06-17T17:11:28Z</time>
      </trkpt>
      <trkpt lat="49.48373" lon="0.16489">
        <ele>4</ele>
        <time>2020-06-17T17:11:29Z</time>
      </trkpt>
      <trkpt lat="49.48376" lon="0.16487">
        <ele>4</ele>
        <time>2020-06-17T17:11:30Z</time>
      </trkpt>
      <trkpt lat="49.48379" lon="0.16483">
        <ele>4</ele>
        <time>2020-06-17T17:11:31Z</time>
      </trkpt>
      <trkpt lat="49.48381" lon="0.1648">
        <ele>4.1</ele>
        <time>2020-06-17T17:11:32Z</time>
      </trkpt>
      <trkpt lat="49.48385" lon="0.16477">
        <ele>4.1</ele>
        <time>2020-06-17T17:11:33Z</time>
      </trkpt>
      <trkpt lat="49.48388" lon="0.16475">
        <ele>4.1</ele>
        <time>2020-06-17T17:11:34Z</time>
      </trkpt>
      <trkpt lat="49.48391" lon="0.16472">
        <ele>4.1</ele>
        <time>2020-06-17T17:11:35Z</time>
      </trkpt>
      <trkpt lat="49.48394" lon="0.16469">
        <ele>4.1</ele>
        <time>2020-06-17T17:11:36Z</time>
      </trkpt>
      <trkpt lat="49.48397" lon="0.16466">
        <ele>4.2</ele>
        <time>2020-06-17T17:11:37Z</time>
      </trkpt>
      <trkpt lat="49.484" lon="0.16463">
        <ele>4.2</ele>
        <time>2020-06-17T17:11:38Z</time>
      </trkpt>
      <trkpt lat="49.48403" lon="0.1646">
        <ele>4.2</ele>
        <time>2020-06-17T17:11:39Z</time>
      </trkpt>
      <trkpt lat="49.48408" lon="0.16455">
        <ele>4.3</ele>
        <time>2020-06-17T17:11:40Z</time>
      </trkpt>
      <trkpt lat="49.48412" lon="0.16451">
        <ele>4.4</ele>
        <time>2020-06-17T17:11:41Z</time>
      </trkpt>
      <trkpt lat="49.48415" lon="0.16449">
        <ele>4.4</ele>
        <time>2020-06-17T17:11:42Z</time>
      </trkpt>
      <trkpt lat="49.48418" lon="0.16446">
        <ele>4.5</ele>
        <time>2020-06-17T17:11:43Z</time>
      </trkpt>
      <trkpt lat="49.48422" lon="0.16443">
        <ele>4.5</ele>
        <time>2020-06-17T17:11:44Z</time>
      </trkpt>
      <trkpt lat="49.48425" lon="0.16441">
        <ele>4.5</ele>
        <time>2020-06-17T17:11:45Z</time>
      </trkpt>
      <trkpt lat="49.48429" lon="0.16438">
        <ele>4.6</ele>
        <time>2020-06-17T17:11:46Z</time>
      </trkpt>
      <trkpt lat="49.48433" lon="0.16435">
        <ele>4.6</ele>
        <time>2020-06-17T17:11:47Z</time>
      </trkpt>
      <trkpt lat="49.48437" lon="0.16432">
        <ele>4.7</ele>
        <time>2020-06-17T17:11:48Z</time>
      </trkpt>
      <trkpt lat="49.48442" lon="0.16428">
        <ele>4.7</ele>
        <time>2020-06-17T17:11:49Z</time>
      </trkpt>
      <trkpt lat="49.48447" lon="0.16425">
        <ele>4.8</ele>
        <time>2020-06-17T17:11:50Z</time>
      </trkpt>
      <trkpt lat="49.48451" lon="0.16421">
        <ele>4.8</ele>
        <time>2020-06-17T17:11:51Z</time>
      </trkpt>
      <trkpt lat="49.48455" lon="0.16418">
        <ele>4.9</ele>
        <time>2020-06-17T17:11:52Z</time>
      </trkpt>
      <trkpt lat="49.4846" lon="0.16413">
        <ele>4.9</ele>
        <time>2020-06-17T17:11:53Z</time>
      </trkpt>
      <trkpt lat="49.48465" lon="0.16411">
        <ele>4.9</ele>
        <time>2020-06-17T17:11:54Z</time>
      </trkpt>
      <trkpt lat="49.48469" lon="0.16409">
        <ele>5</ele>
        <time>2020-06-17T17:11:55Z</time>
      </trkpt>
      <trkpt lat="49.48473" lon="0.16407">
        <ele>5</ele>
        <time>2020-06-17T17:11:56Z</time>
      </trkpt>
      <trkpt lat="49.48478" lon="0.16403">
        <ele>5</ele>
        <time>2020-06-17T17:11:57Z</time>
      </trkpt>
      <trkpt lat="49.48483" lon="0.164">
        <ele>5.1</ele>
        <time>2020-06-17T17:11:58Z</time>
      </trkpt>
      <trkpt lat="49.48488" lon="0.16397">
        <ele>5.1</ele>
        <time>2020-06-17T17:11:59Z</time>
      </trkpt>
      <trkpt lat="49.48492" lon="0.16394">
        <ele>5.1</ele>
        <time>2020-06-17T17:12:00Z</time>
      </trkpt>
      <trkpt lat="49.48496" lon="0.16392">
        <ele>5.1</ele>
        <time>2020-06-17T17:12:01Z</time>
      </trkpt>
      <trkpt lat="49.485" lon="0.1639">
        <ele>5.1</ele>
        <time>2020-06-17T17:12:02Z</time>
      </trkpt>
      <trkpt lat="49.48504" lon="0.16388">
        <ele>5.1</ele>
        <time>2020-06-17T17:12:03Z</time>
      </trkpt>
      <trkpt lat="49.48507" lon="0.16385">
        <ele>5.1</ele>
        <time>2020-06-17T17:12:04Z</time>
      </trkpt>
      <trkpt lat="49.48511" lon="0.16384">
        <ele>5</ele>
        <time>2020-06-17T17:12:05Z</time>
      </trkpt>
      <trkpt lat="49.48515" lon="0.16383">
        <ele>5</ele>
        <time>2020-06-17T17:12:06Z</time>
      </trkpt>
      <trkpt lat="49.48519" lon="0.16381">
        <ele>4.9</ele>
        <time>2020-06-17T17:12:07Z</time>
      </trkpt>
      <trkpt lat="49.48523" lon="0.16379">
        <ele>4.8</ele>
        <time>2020-06-17T17:12:08Z</time>
      </trkpt>
      <trkpt lat="49.48526" lon="0.16375">
        <ele>4.7</ele>
        <time>2020-06-17T17:12:09Z</time>
      </trkpt>
      <trkpt lat="49.48529" lon="0.16371">
        <ele>4.7</ele>
        <time>2020-06-17T17:12:10Z</time>
      </trkpt>
      <trkpt lat="49.48532" lon="0.16367">
        <ele>4.7</ele>
        <time>2020-06-17T17:12:11Z</time>
      </trkpt>
      <trkpt lat="49.48535" lon="0.16363">
        <ele>4.7</ele>
        <time>2020-06-17T17:12:12Z</time>
      </trkpt>
      <trkpt lat="49.48538" lon="0.16358">
        <ele>4.7</ele>
        <time>2020-06-17T17:12:13Z</time>
      </trkpt>
      <trkpt lat="49.48541" lon="0.16354">
        <ele>4.7</ele>
        <time>2020-06-17T17:12:14Z</time>
      </trkpt>
      <trkpt lat="49.48544" lon="0.16349">
        <ele>4.6</ele>
        <time>2020-06-17T17:12:15Z</time>
      </trkpt>
      <trkpt lat="49.48547" lon="0.16346">
        <ele>4.6</ele>
        <time>2020-06-17T17:12:16Z</time>
      </trkpt>
      <trkpt lat="49.48549" lon="0.16342">
        <ele>4.6</ele>
        <time>2020-06-17T17:12:17Z</time>
      </trkpt>
      <trkpt lat="49.48553" lon="0.1634">
        <ele>4.6</ele>
        <time>2020-06-17T17:12:18Z</time>
      </trkpt>
      <trkpt lat="49.48557" lon="0.16339">
        <ele>4.6</ele>
        <time>2020-06-17T17:12:19Z</time>
      </trkpt>
      <trkpt lat="49.48561" lon="0.16339">
        <ele>4.5</ele>
        <time>2020-06-17T17:12:20Z</time>
      </trkpt>
      <trkpt lat="49.48566" lon="0.16338">
        <ele>4.5</ele>
        <time>2020-06-17T17:12:21Z</time>
      </trkpt>
      <trkpt lat="49.48571" lon="0.16336">
        <ele>4.5</ele>
        <time>2020-06-17T17:12:22Z</time>
      </trkpt>
      <trkpt lat="49.48575" lon="0.16336">
        <ele>4.5</ele>
        <time>2020-06-17T17:12:23Z</time>
      </trkpt>
      <trkpt lat="49.4858" lon="0.16337">
        <ele>4.5</ele>
        <time>2020-06-17T17:12:24Z</time>
      </trkpt>
      <trkpt lat="49.48585" lon="0.16335">
        <ele>4.5</ele>
        <time>2020-06-17T17:12:25Z</time>
      </trkpt>
      <trkpt lat="49.48589" lon="0.16333">
        <ele>4.5</ele>
        <time>2020-06-17T17:12:26Z</time>
      </trkpt>
      <trkpt lat="49.48594" lon="0.16332">
        <ele>4.4</ele>
        <time>2020-06-17T17:12:27Z</time>
      </trkpt>
      <trkpt lat="49.48599" lon="0.16331">
        <ele>4.4</ele>
        <time>2020-06-17T17:12:28Z</time>
      </trkpt>
      <trkpt lat="49.48605" lon="0.16333">
        <ele>4.4</ele>
        <time>2020-06-17T17:12:29Z</time>
      </trkpt>
      <trkpt lat="49.4861" lon="0.16332">
        <ele>4.4</ele>
        <time>2020-06-17T17:12:30Z</time>
      </trkpt>
      <trkpt lat="49.48616" lon="0.16331">
        <ele>4.4</ele>
        <time>2020-06-17T17:12:31Z</time>
      </trkpt>
      <trkpt lat="49.48621" lon="0.16331">
        <ele>4.4</ele>
        <time>2020-06-17T17:12:32Z</time>
      </trkpt>
      <trkpt lat="49.48627" lon="0.1633">
        <ele>4.5</ele>
        <time>2020-06-17T17:12:33Z</time>
      </trkpt>
      <trkpt lat="49.48633" lon="0.16329">
        <ele>4.5</ele>
        <time>2020-06-17T17:12:34Z</time>
      </trkpt>
      <trkpt lat="49.48639" lon="0.16328">
        <ele>4.6</ele>
        <time>2020-06-17T17:12:35Z</time>
      </trkpt>
      <trkpt lat="49.48645" lon="0.16328">
        <ele>4.7</ele>
        <time>2020-06-17T17:12:36Z</time>
      </trkpt>
      <trkpt lat="49.48651" lon="0.16327">
        <ele>4.8</ele>
        <time>2020-06-17T17:12:37Z</time>
      </trkpt>
      <trkpt lat="49.48657" lon="0.16327">
        <ele>4.8</ele>
        <time>2020-06-17T17:12:38Z</time>
      </trkpt>
      <trkpt lat="49.48663" lon="0.16327">
        <ele>4.7</ele>
        <time>2020-06-17T17:12:39Z</time>
      </trkpt>
      <trkpt lat="49.48668" lon="0.16326">
        <ele>4.7</ele>
        <time>2020-06-17T17:12:40Z</time>
      </trkpt>
      <trkpt lat="49.48674" lon="0.16325">
        <ele>4.7</ele>
        <time>2020-06-17T17:12:41Z</time>
      </trkpt>
      <trkpt lat="49.4868" lon="0.16324">
        <ele>4.7</ele>
        <time>2020-06-17T17:12:42Z</time>
      </trkpt>
      <trkpt lat="49.48685" lon="0.16324">
        <ele>4.8</ele>
        <time>2020-06-17T17:12:43Z</time>
      </trkpt>
      <trkpt lat="49.48691" lon="0.16324">
        <ele>4.8</ele>
        <time>2020-06-17T17:12:44Z</time>
      </trkpt>
      <trkpt lat="49.48696" lon="0.16323">
        <ele>4.8</ele>
        <time>2020-06-17T17:12:45Z</time>
      </trkpt>
      <trkpt lat="49.48702" lon="0.16324">
        <ele>4.9</ele>
        <time>2020-06-17T17:12:46Z</time>
      </trkpt>
      <trkpt lat="49.48708" lon="0.16324">
        <ele>4.9</ele>
        <time>2020-06-17T17:12:47Z</time>
      </trkpt>
      <trkpt lat="49.48713" lon="0.16323">
        <ele>5</ele>
        <time>2020-06-17T17:12:48Z</time>
      </trkpt>
      <trkpt lat="49.48718" lon="0.16322">
        <ele>5</ele>
        <time>2020-06-17T17:12:49Z</time>
      </trkpt>
      <trkpt lat="49.48723" lon="0.16322">
        <ele>5</ele>
        <time>2020-06-17T17:12:50Z</time>
      </trkpt>
      <trkpt lat="49.48728" lon="0.16321">
        <ele>5</ele>
        <time>2020-06-17T17:12:51Z</time>
      </trkpt>
      <trkpt lat="49.48733" lon="0.1632">
        <ele>5</ele>
        <time>2020-06-17T17:12:52Z</time>
      </trkpt>
      <trkpt lat="49.48738" lon="0.16319">
        <ele>5</ele>
        <time>2020-06-17T17:12:53Z</time>
      </trkpt>
      <trkpt lat="49.48743" lon="0.16319">
        <ele>5</ele>
        <time>2020-06-17T17:12:54Z</time>
      </trkpt>
      <trkpt lat="49.48748" lon="0.16319">
        <ele>5</ele>
        <time>2020-06-17T17:12:55Z</time>
      </trkpt>
      <trkpt lat="49.48752" lon="0.16318">
        <ele>5</ele>
        <time>2020-06-17T17:12:56Z</time>
      </trkpt>
      <trkpt lat="49.48756" lon="0.16318">
        <ele>5</ele>
        <time>2020-06-17T17:12:57Z</time>
      </trkpt>
      <trkpt lat="49.4876" lon="0.16317">
        <ele>5</ele>
        <time>2020-06-17T17:12:58Z</time>
      </trkpt>
      <trkpt lat="49.48764" lon="0.16321">
        <ele>5</ele>
        <time>2020-06-17T17:12:59Z</time>
      </trkpt>
      <trkpt lat="49.48768" lon="0.16321">
        <ele>5</ele>
        <time>2020-06-17T17:13:00Z</time>
      </trkpt>
      <trkpt lat="49.48773" lon="0.16322">
        <ele>5</ele>
        <time>2020-06-17T17:13:01Z</time>
      </trkpt>
      <trkpt lat="49.48778" lon="0.16322">
        <ele>5</ele>
        <time>2020-06-17T17:13:02Z</time>
      </trkpt>
      <trkpt lat="49.48783" lon="0.16322">
        <ele>5</ele>
        <time>2020-06-17T17:13:03Z</time>
      </trkpt>
      <trkpt lat="49.48789" lon="0.16323">
        <ele>5</ele>
        <time>2020-06-17T17:13:04Z</time>
      </trkpt>
      <trkpt lat="49.48794" lon="0.16321">
        <ele>5.1</ele>
        <time>2020-06-17T17:13:05Z</time>
      </trkpt>
      <trkpt lat="49.488" lon="0.16322">
        <ele>5.1</ele>
        <time>2020-06-17T17:13:06Z</time>
      </trkpt>
      <trkpt lat="49.48805" lon="0.16321">
        <ele>5.1</ele>
        <time>2020-06-17T17:13:07Z</time>
      </trkpt>
      <trkpt lat="49.48811" lon="0.16321">
        <ele>5.1</ele>
        <time>2020-06-17T17:13:08Z</time>
      </trkpt>
      <trkpt lat="49.48816" lon="0.16319">
        <ele>5.1</ele>
        <time>2020-06-17T17:13:09Z</time>
      </trkpt>
      <trkpt lat="49.48822" lon="0.16317">
        <ele>5.2</ele>
        <time>2020-06-17T17:13:10Z</time>
      </trkpt>
      <trkpt lat="49.48827" lon="0.16316">
        <ele>5.2</ele>
        <time>2020-06-17T17:13:11Z</time>
      </trkpt>
      <trkpt lat="49.48833" lon="0.16314">
        <ele>5.1</ele>
        <time>2020-06-17T17:13:12Z</time>
      </trkpt>
      <trkpt lat="49.48839" lon="0.16313">
        <ele>5.1</ele>
        <time>2020-06-17T17:13:13Z</time>
      </trkpt>
      <trkpt lat="49.48844" lon="0.16312">
        <ele>5.1</ele>
        <time>2020-06-17T17:13:14Z</time>
      </trkpt>
      <trkpt lat="49.4885" lon="0.16312">
        <ele>5.1</ele>
        <time>2020-06-17T17:13:15Z</time>
      </trkpt>
      <trkpt lat="49.48856" lon="0.1631">
        <ele>5.1</ele>
        <time>2020-06-17T17:13:16Z</time>
      </trkpt>
      <trkpt lat="49.48862" lon="0.16309">
        <ele>5.2</ele>
        <time>2020-06-17T17:13:17Z</time>
      </trkpt>
      <trkpt lat="49.48867" lon="0.16307">
        <ele>5.2</ele>
        <time>2020-06-17T17:13:18Z</time>
      </trkpt>
      <trkpt lat="49.48873" lon="0.16308">
        <ele>5.2</ele>
        <time>2020-06-17T17:13:19Z</time>
      </trkpt>
      <trkpt lat="49.48878" lon="0.16305">
        <ele>5.3</ele>
        <time>2020-06-17T17:13:20Z</time>
      </trkpt>
      <trkpt lat="49.48883" lon="0.16304">
        <ele>5.3</ele>
        <time>2020-06-17T17:13:21Z</time>
      </trkpt>
      <trkpt lat="49.48887" lon="0.16303">
        <ele>5.3</ele>
        <time>2020-06-17T17:13:22Z</time>
      </trkpt>
      <trkpt lat="49.48891" lon="0.16301">
        <ele>5.3</ele>
        <time>2020-06-17T17:13:23Z</time>
      </trkpt>
      <trkpt lat="49.48895" lon="0.16301">
        <ele>5.3</ele>
        <time>2020-06-17T17:13:24Z</time>
      </trkpt>
      <trkpt lat="49.48898" lon="0.16302">
        <ele>5.3</ele>
        <time>2020-06-17T17:13:25Z</time>
      </trkpt>
      <trkpt lat="49.48899" lon="0.16302">
        <ele>5.3</ele>
        <time>2020-06-17T17:13:26Z</time>
      </trkpt>
      <trkpt lat="49.489" lon="0.16304">
        <ele>5.3</ele>
        <time>2020-06-17T17:13:27Z</time>
      </trkpt>
      <trkpt lat="49.489" lon="0.16304">
        <ele>5.3</ele>
        <time>2020-06-17T17:13:28Z</time>
      </trkpt>
      <trkpt lat="49.489" lon="0.16302">
        <ele>5.3</ele>
        <time>2020-06-17T17:13:29Z</time>
      </trkpt>
      <trkpt lat="49.489" lon="0.16301">
        <ele>5.3</ele>
        <time>2020-06-17T17:13:30Z</time>
      </trkpt>
      <trkpt lat="49.489" lon="0.16301">
        <ele>5.3</ele>
        <time>2020-06-17T17:13:31Z</time>
      </trkpt>
      <trkpt lat="49.48901" lon="0.16302">
        <ele>5.3</ele>
        <time>2020-06-17T17:13:32Z</time>
      </trkpt>
      <trkpt lat="49.48901" lon="0.16302">
        <ele>5.3</ele>
        <time>2020-06-17T17:13:33Z</time>
      </trkpt>
      <trkpt lat="49.48901" lon="0.16303">
        <ele>5.3</ele>
        <time>2020-06-17T17:13:34Z</time>
      </trkpt>
      <trkpt lat="49.48901" lon="0.16305">
        <ele>5.3</ele>
        <time>2020-06-17T17:13:35Z</time>
      </trkpt>
      <trkpt lat="49.48905" lon="0.16305">
        <ele>5.3</ele>
        <time>2020-06-17T17:13:36Z</time>
      </trkpt>
      <trkpt lat="49.48909" lon="0.16305">
        <ele>5.3</ele>
        <time>2020-06-17T17:13:37Z</time>
      </trkpt>
      <trkpt lat="49.48914" lon="0.16304">
        <ele>5.3</ele>
        <time>2020-06-17T17:14:33Z</time>
      </trkpt>
      <trkpt lat="49.48918" lon="0.16304">
        <ele>5.4</ele>
        <time>2020-06-17T17:14:34Z</time>
      </trkpt>
      <trkpt lat="49.48921" lon="0.16303">
        <ele>5.4</ele>
        <time>2020-06-17T17:14:35Z</time>
      </trkpt>
      <trkpt lat="49.48925" lon="0.163">
        <ele>5.4</ele>
        <time>2020-06-17T17:14:36Z</time>
      </trkpt>
      <trkpt lat="49.48929" lon="0.16298">
        <ele>5.4</ele>
        <time>2020-06-17T17:14:37Z</time>
      </trkpt>
      <trkpt lat="49.48934" lon="0.16297">
        <ele>5.4</ele>
        <time>2020-06-17T17:14:38Z</time>
      </trkpt>
      <trkpt lat="49.48938" lon="0.16296">
        <ele>5.4</ele>
        <time>2020-06-17T17:14:39Z</time>
      </trkpt>
      <trkpt lat="49.48942" lon="0.16295">
        <ele>5.4</ele>
        <time>2020-06-17T17:14:40Z</time>
      </trkpt>
      <trkpt lat="49.48946" lon="0.16293">
        <ele>5.4</ele>
        <time>2020-06-17T17:14:41Z</time>
      </trkpt>
      <trkpt lat="49.4895" lon="0.16292">
        <ele>5.4</ele>
        <time>2020-06-17T17:14:42Z</time>
      </trkpt>
      <trkpt lat="49.48954" lon="0.1629">
        <ele>5.3</ele>
        <time>2020-06-17T17:14:43Z</time>
      </trkpt>
      <trkpt lat="49.48959" lon="0.16291">
        <ele>5.3</ele>
        <time>2020-06-17T17:14:44Z</time>
      </trkpt>
      <trkpt lat="49.48964" lon="0.16292">
        <ele>5.3</ele>
        <time>2020-06-17T17:14:45Z</time>
      </trkpt>
      <trkpt lat="49.48969" lon="0.16292">
        <ele>5.3</ele>
        <time>2020-06-17T17:14:46Z</time>
      </trkpt>
      <trkpt lat="49.48975" lon="0.16291">
        <ele>5.2</ele>
        <time>2020-06-17T17:14:47Z</time>
      </trkpt>
      <trkpt lat="49.4898" lon="0.1629">
        <ele>5.2</ele>
        <time>2020-06-17T17:14:48Z</time>
      </trkpt>
      <trkpt lat="49.48985" lon="0.1629">
        <ele>5.2</ele>
        <time>2020-06-17T17:14:49Z</time>
      </trkpt>
      <trkpt lat="49.48991" lon="0.16289">
        <ele>5.2</ele>
        <time>2020-06-17T17:14:50Z</time>
      </trkpt>
      <trkpt lat="49.48996" lon="0.16289">
        <ele>5.2</ele>
        <time>2020-06-17T17:14:51Z</time>
      </trkpt>
      <trkpt lat="49.49001" lon="0.16289">
        <ele>5.2</ele>
        <time>2020-06-17T17:14:52Z</time>
      </trkpt>
      <trkpt lat="49.49007" lon="0.16289">
        <ele>5.2</ele>
        <time>2020-06-17T17:14:53Z</time>
      </trkpt>
      <trkpt lat="49.49012" lon="0.16289">
        <ele>5.2</ele>
        <time>2020-06-17T17:14:54Z</time>
      </trkpt>
      <trkpt lat="49.49018" lon="0.16288">
        <ele>5.1</ele>
        <time>2020-06-17T17:14:55Z</time>
      </trkpt>
      <trkpt lat="49.49024" lon="0.16287">
        <ele>5.1</ele>
        <time>2020-06-17T17:14:56Z</time>
      </trkpt>
      <trkpt lat="49.4903" lon="0.16287">
        <ele>5.1</ele>
        <time>2020-06-17T17:14:57Z</time>
      </trkpt>
      <trkpt lat="49.49035" lon="0.16287">
        <ele>5.1</ele>
        <time>2020-06-17T17:14:58Z</time>
      </trkpt>
      <trkpt lat="49.4904" lon="0.16286">
        <ele>5.1</ele>
        <time>2020-06-17T17:14:59Z</time>
      </trkpt>
      <trkpt lat="49.49046" lon="0.16285">
        <ele>5.2</ele>
        <time>2020-06-17T17:15:00Z</time>
      </trkpt>
      <trkpt lat="49.49051" lon="0.16285">
        <ele>5.2</ele>
        <time>2020-06-17T17:15:01Z</time>
      </trkpt>
      <trkpt lat="49.49057" lon="0.16283">
        <ele>5.2</ele>
        <time>2020-06-17T17:15:02Z</time>
      </trkpt>
      <trkpt lat="49.49063" lon="0.16282">
        <ele>5.2</ele>
        <time>2020-06-17T17:15:03Z</time>
      </trkpt>
      <trkpt lat="49.49069" lon="0.16281">
        <ele>5.3</ele>
        <time>2020-06-17T17:15:04Z</time>
      </trkpt>
      <trkpt lat="49.49075" lon="0.1628">
        <ele>5.3</ele>
        <time>2020-06-17T17:15:05Z</time>
      </trkpt>
      <trkpt lat="49.4908" lon="0.16279">
        <ele>5.4</ele>
        <time>2020-06-17T17:15:06Z</time>
      </trkpt>
      <trkpt lat="49.49086" lon="0.16278">
        <ele>5.4</ele>
        <time>2020-06-17T17:15:07Z</time>
      </trkpt>
      <trkpt lat="49.49092" lon="0.16277">
        <ele>5.5</ele>
        <time>2020-06-17T17:15:08Z</time>
      </trkpt>
      <trkpt lat="49.49097" lon="0.16277">
        <ele>5.6</ele>
        <time>2020-06-17T17:15:09Z</time>
      </trkpt>
      <trkpt lat="49.49103" lon="0.16276">
        <ele>5.6</ele>
        <time>2020-06-17T17:15:10Z</time>
      </trkpt>
      <trkpt lat="49.49108" lon="0.16275">
        <ele>5.6</ele>
        <time>2020-06-17T17:15:11Z</time>
      </trkpt>
      <trkpt lat="49.49114" lon="0.16275">
        <ele>5.7</ele>
        <time>2020-06-17T17:15:12Z</time>
      </trkpt>
      <trkpt lat="49.49119" lon="0.16275">
        <ele>5.7</ele>
        <time>2020-06-17T17:15:13Z</time>
      </trkpt>
      <trkpt lat="49.49124" lon="0.16274">
        <ele>5.7</ele>
        <time>2020-06-17T17:15:14Z</time>
      </trkpt>
      <trkpt lat="49.4913" lon="0.16273">
        <ele>5.7</ele>
        <time>2020-06-17T17:15:15Z</time>
      </trkpt>
      <trkpt lat="49.49135" lon="0.16273">
        <ele>5.7</ele>
        <time>2020-06-17T17:15:16Z</time>
      </trkpt>
      <trkpt lat="49.4914" lon="0.16273">
        <ele>5.7</ele>
        <time>2020-06-17T17:15:17Z</time>
      </trkpt>
      <trkpt lat="49.49145" lon="0.16273">
        <ele>5.8</ele>
        <time>2020-06-17T17:15:18Z</time>
      </trkpt>
      <trkpt lat="49.49151" lon="0.16274">
        <ele>5.7</ele>
        <time>2020-06-17T17:15:19Z</time>
      </trkpt>
      <trkpt lat="49.49156" lon="0.16274">
        <ele>5.7</ele>
        <time>2020-06-17T17:15:20Z</time>
      </trkpt>
      <trkpt lat="49.49161" lon="0.16275">
        <ele>5.7</ele>
        <time>2020-06-17T17:15:21Z</time>
      </trkpt>
      <trkpt lat="49.49166" lon="0.16274">
        <ele>5.7</ele>
        <time>2020-06-17T17:15:22Z</time>
      </trkpt>
      <trkpt lat="49.49171" lon="0.16276">
        <ele>5.7</ele>
        <time>2020-06-17T17:15:23Z</time>
      </trkpt>
      <trkpt lat="49.49176" lon="0.16278">
        <ele>5.7</ele>
        <time>2020-06-17T17:15:24Z</time>
      </trkpt>
      <trkpt lat="49.49181" lon="0.16278">
        <ele>5.7</ele>
        <time>2020-06-17T17:15:25Z</time>
      </trkpt>
      <trkpt lat="49.49186" lon="0.16279">
        <ele>5.7</ele>
        <time>2020-06-17T17:15:26Z</time>
      </trkpt>
      <trkpt lat="49.49192" lon="0.16282">
        <ele>5.7</ele>
        <time>2020-06-17T17:15:27Z</time>
      </trkpt>
      <trkpt lat="49.49197" lon="0.16284">
        <ele>5.7</ele>
        <time>2020-06-17T17:15:28Z</time>
      </trkpt>
      <trkpt lat="49.49202" lon="0.16288">
        <ele>5.7</ele>
        <time>2020-06-17T17:15:29Z</time>
      </trkpt>
      <trkpt lat="49.49208" lon="0.1629">
        <ele>5.6</ele>
        <time>2020-06-17T17:15:30Z</time>
      </trkpt>
      <trkpt lat="49.49215" lon="0.16291">
        <ele>5.6</ele>
        <time>2020-06-17T17:15:31Z</time>
      </trkpt>
      <trkpt lat="49.49221" lon="0.16293">
        <ele>5.6</ele>
        <time>2020-06-17T17:15:32Z</time>
      </trkpt>
      <trkpt lat="49.49227" lon="0.16295">
        <ele>5.6</ele>
        <time>2020-06-17T17:15:33Z</time>
      </trkpt>
      <trkpt lat="49.49232" lon="0.16297">
        <ele>5.5</ele>
        <time>2020-06-17T17:15:34Z</time>
      </trkpt>
      <trkpt lat="49.49238" lon="0.16298">
        <ele>5.5</ele>
        <time>2020-06-17T17:15:35Z</time>
      </trkpt>
      <trkpt lat="49.49244" lon="0.16301">
        <ele>5.5</ele>
        <time>2020-06-17T17:15:36Z</time>
      </trkpt>
      <trkpt lat="49.49249" lon="0.16304">
        <ele>5.5</ele>
        <time>2020-06-17T17:15:37Z</time>
      </trkpt>
      <trkpt lat="49.49255" lon="0.16306">
        <ele>5.4</ele>
        <time>2020-06-17T17:15:38Z</time>
      </trkpt>
      <trkpt lat="49.4926" lon="0.16308">
        <ele>5.4</ele>
        <time>2020-06-17T17:15:39Z</time>
      </trkpt>
      <trkpt lat="49.49265" lon="0.1631">
        <ele>5.4</ele>
        <time>2020-06-17T17:15:40Z</time>
      </trkpt>
      <trkpt lat="49.4927" lon="0.16313">
        <ele>5.4</ele>
        <time>2020-06-17T17:15:41Z</time>
      </trkpt>
      <trkpt lat="49.49276" lon="0.16315">
        <ele>5.4</ele>
        <time>2020-06-17T17:15:42Z</time>
      </trkpt>
      <trkpt lat="49.49281" lon="0.16318">
        <ele>5.4</ele>
        <time>2020-06-17T17:15:43Z</time>
      </trkpt>
      <trkpt lat="49.49286" lon="0.16322">
        <ele>5.4</ele>
        <time>2020-06-17T17:15:44Z</time>
      </trkpt>
      <trkpt lat="49.49291" lon="0.16325">
        <ele>5.4</ele>
        <time>2020-06-17T17:15:45Z</time>
      </trkpt>
      <trkpt lat="49.49297" lon="0.16328">
        <ele>5.3</ele>
        <time>2020-06-17T17:15:46Z</time>
      </trkpt>
      <trkpt lat="49.49302" lon="0.16332">
        <ele>5.3</ele>
        <time>2020-06-17T17:15:47Z</time>
      </trkpt>
      <trkpt lat="49.49308" lon="0.16336">
        <ele>5.3</ele>
        <time>2020-06-17T17:15:48Z</time>
      </trkpt>
      <trkpt lat="49.49313" lon="0.1634">
        <ele>5.3</ele>
        <time>2020-06-17T17:15:49Z</time>
      </trkpt>
      <trkpt lat="49.49318" lon="0.16344">
        <ele>5.3</ele>
        <time>2020-06-17T17:15:50Z</time>
      </trkpt>
      <trkpt lat="49.49323" lon="0.16348">
        <ele>5.3</ele>
        <time>2020-06-17T17:15:51Z</time>
      </trkpt>
      <trkpt lat="49.49329" lon="0.16353">
        <ele>5.3</ele>
        <time>2020-06-17T17:15:52Z</time>
      </trkpt>
      <trkpt lat="49.49334" lon="0.16356">
        <ele>5.2</ele>
        <time>2020-06-17T17:15:53Z</time>
      </trkpt>
      <trkpt lat="49.4934" lon="0.16361">
        <ele>5.2</ele>
        <time>2020-06-17T17:15:54Z</time>
      </trkpt>
      <trkpt lat="49.49345" lon="0.16365">
        <ele>5.2</ele>
        <time>2020-06-17T17:15:55Z</time>
      </trkpt>
      <trkpt lat="49.4935" lon="0.16369">
        <ele>5.2</ele>
        <time>2020-06-17T17:15:56Z</time>
      </trkpt>
      <trkpt lat="49.49355" lon="0.16374">
        <ele>5.2</ele>
        <time>2020-06-17T17:15:57Z</time>
      </trkpt>
      <trkpt lat="49.4936" lon="0.16378">
        <ele>5.2</ele>
        <time>2020-06-17T17:15:58Z</time>
      </trkpt>
      <trkpt lat="49.49365" lon="0.16382">
        <ele>5.2</ele>
        <time>2020-06-17T17:15:59Z</time>
      </trkpt>
      <trkpt lat="49.4937" lon="0.16387">
        <ele>5.2</ele>
        <time>2020-06-17T17:16:00Z</time>
      </trkpt>
      <trkpt lat="49.49375" lon="0.16392">
        <ele>5.2</ele>
        <time>2020-06-17T17:16:01Z</time>
      </trkpt>
      <trkpt lat="49.4938" lon="0.16397">
        <ele>5.2</ele>
        <time>2020-06-17T17:16:02Z</time>
      </trkpt>
      <trkpt lat="49.49384" lon="0.16402">
        <ele>5.1</ele>
        <time>2020-06-17T17:16:03Z</time>
      </trkpt>
      <trkpt lat="49.49388" lon="0.16407">
        <ele>5.1</ele>
        <time>2020-06-17T17:16:04Z</time>
      </trkpt>
      <trkpt lat="49.49393" lon="0.16413">
        <ele>5</ele>
        <time>2020-06-17T17:16:05Z</time>
      </trkpt>
      <trkpt lat="49.49397" lon="0.16418">
        <ele>5</ele>
        <time>2020-06-17T17:16:06Z</time>
      </trkpt>
      <trkpt lat="49.49401" lon="0.16422">
        <ele>5</ele>
        <time>2020-06-17T17:16:07Z</time>
      </trkpt>
      <trkpt lat="49.49406" lon="0.16427">
        <ele>4.9</ele>
        <time>2020-06-17T17:16:08Z</time>
      </trkpt>
      <trkpt lat="49.4941" lon="0.16431">
        <ele>4.9</ele>
        <time>2020-06-17T17:16:09Z</time>
      </trkpt>
      <trkpt lat="49.49415" lon="0.16435">
        <ele>4.9</ele>
        <time>2020-06-17T17:16:10Z</time>
      </trkpt>
      <trkpt lat="49.49419" lon="0.16439">
        <ele>4.8</ele>
        <time>2020-06-17T17:16:11Z</time>
      </trkpt>
      <trkpt lat="49.49423" lon="0.16444">
        <ele>4.8</ele>
        <time>2020-06-17T17:16:12Z</time>
      </trkpt>
      <trkpt lat="49.49427" lon="0.1645">
        <ele>4.8</ele>
        <time>2020-06-17T17:16:13Z</time>
      </trkpt>
      <trkpt lat="49.4943" lon="0.16454">
        <ele>4.8</ele>
        <time>2020-06-17T17:16:14Z</time>
      </trkpt>
      <trkpt lat="49.49434" lon="0.1646">
        <ele>4.7</ele>
        <time>2020-06-17T17:16:15Z</time>
      </trkpt>
      <trkpt lat="49.49438" lon="0.16464">
        <ele>4.7</ele>
        <time>2020-06-17T17:16:16Z</time>
      </trkpt>
      <trkpt lat="49.49442" lon="0.16469">
        <ele>4.7</ele>
        <time>2020-06-17T17:16:17Z</time>
      </trkpt>
      <trkpt lat="49.49445" lon="0.16475">
        <ele>4.7</ele>
        <time>2020-06-17T17:16:18Z</time>
      </trkpt>
      <trkpt lat="49.49449" lon="0.16481">
        <ele>4.7</ele>
        <time>2020-06-17T17:16:19Z</time>
      </trkpt>
      <trkpt lat="49.49452" lon="0.16486">
        <ele>4.6</ele>
        <time>2020-06-17T17:16:20Z</time>
      </trkpt>
      <trkpt lat="49.49457" lon="0.16491">
        <ele>4.6</ele>
        <time>2020-06-17T17:16:21Z</time>
      </trkpt>
      <trkpt lat="49.49461" lon="0.16495">
        <ele>4.6</ele>
        <time>2020-06-17T17:16:22Z</time>
      </trkpt>
      <trkpt lat="49.49465" lon="0.16498">
        <ele>4.6</ele>
        <time>2020-06-17T17:16:23Z</time>
      </trkpt>
      <trkpt lat="49.4947" lon="0.165">
        <ele>4.6</ele>
        <time>2020-06-17T17:16:24Z</time>
      </trkpt>
      <trkpt lat="49.49475" lon="0.16499">
        <ele>4.6</ele>
        <time>2020-06-17T17:16:25Z</time>
      </trkpt>
      <trkpt lat="49.4948" lon="0.16497">
        <ele>4.5</ele>
        <time>2020-06-17T17:16:26Z</time>
      </trkpt>
      <trkpt lat="49.49484" lon="0.16495">
        <ele>4.5</ele>
        <time>2020-06-17T17:16:27Z</time>
      </trkpt>
      <trkpt lat="49.4949" lon="0.16495">
        <ele>4.4</ele>
        <time>2020-06-17T17:16:28Z</time>
      </trkpt>
      <trkpt lat="49.49495" lon="0.16492">
        <ele>4.4</ele>
        <time>2020-06-17T17:16:29Z</time>
      </trkpt>
      <trkpt lat="49.495" lon="0.16488">
        <ele>4.3</ele>
        <time>2020-06-17T17:16:30Z</time>
      </trkpt>
      <trkpt lat="49.49504" lon="0.16483">
        <ele>4.3</ele>
        <time>2020-06-17T17:16:31Z</time>
      </trkpt>
      <trkpt lat="49.49508" lon="0.16479">
        <ele>4.3</ele>
        <time>2020-06-17T17:16:32Z</time>
      </trkpt>
      <trkpt lat="49.49512" lon="0.16474">
        <ele>4.3</ele>
        <time>2020-06-17T17:16:33Z</time>
      </trkpt>
      <trkpt lat="49.49516" lon="0.16469">
        <ele>4.3</ele>
        <time>2020-06-17T17:16:34Z</time>
      </trkpt>
      <trkpt lat="49.49521" lon="0.16465">
        <ele>4.4</ele>
        <time>2020-06-17T17:16:35Z</time>
      </trkpt>
      <trkpt lat="49.49525" lon="0.16461">
        <ele>4.4</ele>
        <time>2020-06-17T17:16:36Z</time>
      </trkpt>
      <trkpt lat="49.49529" lon="0.16457">
        <ele>4.5</ele>
        <time>2020-06-17T17:16:37Z</time>
      </trkpt>
      <trkpt lat="49.49534" lon="0.16453">
        <ele>4.5</ele>
        <time>2020-06-17T17:16:38Z</time>
      </trkpt>
      <trkpt lat="49.49538" lon="0.16449">
        <ele>4.5</ele>
        <time>2020-06-17T17:16:39Z</time>
      </trkpt>
      <trkpt lat="49.49543" lon="0.16445">
        <ele>4.5</ele>
        <time>2020-06-17T17:16:40Z</time>
      </trkpt>
      <trkpt lat="49.49548" lon="0.16441">
        <ele>4.6</ele>
        <time>2020-06-17T17:16:41Z</time>
      </trkpt>
      <trkpt lat="49.49553" lon="0.16438">
        <ele>4.6</ele>
        <time>2020-06-17T17:16:42Z</time>
      </trkpt>
      <trkpt lat="49.49558" lon="0.16435">
        <ele>4.6</ele>
        <time>2020-06-17T17:16:43Z</time>
      </trkpt>
      <trkpt lat="49.49563" lon="0.16432">
        <ele>4.6</ele>
        <time>2020-06-17T17:16:44Z</time>
      </trkpt>
      <trkpt lat="49.49568" lon="0.16431">
        <ele>4.7</ele>
        <time>2020-06-17T17:16:45Z</time>
      </trkpt>
      <trkpt lat="49.49574" lon="0.16428">
        <ele>4.7</ele>
        <time>2020-06-17T17:16:46Z</time>
      </trkpt>
      <trkpt lat="49.49579" lon="0.16426">
        <ele>4.7</ele>
        <time>2020-06-17T17:16:47Z</time>
      </trkpt>
      <trkpt lat="49.49585" lon="0.16423">
        <ele>4.7</ele>
        <time>2020-06-17T17:16:48Z</time>
      </trkpt>
      <trkpt lat="49.4959" lon="0.1642">
        <ele>4.8</ele>
        <time>2020-06-17T17:16:49Z</time>
      </trkpt>
      <trkpt lat="49.49595" lon="0.16416">
        <ele>4.8</ele>
        <time>2020-06-17T17:16:50Z</time>
      </trkpt>
      <trkpt lat="49.496" lon="0.16414">
        <ele>4.8</ele>
        <time>2020-06-17T17:16:51Z</time>
      </trkpt>
      <trkpt lat="49.49606" lon="0.1641">
        <ele>4.8</ele>
        <time>2020-06-17T17:16:52Z</time>
      </trkpt>
      <trkpt lat="49.49611" lon="0.16407">
        <ele>4.9</ele>
        <time>2020-06-17T17:16:53Z</time>
      </trkpt>
      <trkpt lat="49.49617" lon="0.16403">
        <ele>4.9</ele>
        <time>2020-06-17T17:16:54Z</time>
      </trkpt>
      <trkpt lat="49.49622" lon="0.164">
        <ele>4.9</ele>
        <time>2020-06-17T17:16:55Z</time>
      </trkpt>
      <trkpt lat="49.49628" lon="0.16397">
        <ele>5</ele>
        <time>2020-06-17T17:16:56Z</time>
      </trkpt>
      <trkpt lat="49.49633" lon="0.16394">
        <ele>5</ele>
        <time>2020-06-17T17:16:57Z</time>
      </trkpt>
      <trkpt lat="49.49638" lon="0.16391">
        <ele>5</ele>
        <time>2020-06-17T17:16:58Z</time>
      </trkpt>
      <trkpt lat="49.49643" lon="0.16389">
        <ele>5</ele>
        <time>2020-06-17T17:16:59Z</time>
      </trkpt>
      <trkpt lat="49.49649" lon="0.16387">
        <ele>5</ele>
        <time>2020-06-17T17:17:00Z</time>
      </trkpt>
      <trkpt lat="49.49654" lon="0.16385">
        <ele>5.1</ele>
        <time>2020-06-17T17:17:01Z</time>
      </trkpt>
      <trkpt lat="49.4966" lon="0.16385">
        <ele>5.1</ele>
        <time>2020-06-17T17:17:02Z</time>
      </trkpt>
      <trkpt lat="49.49665" lon="0.16383">
        <ele>5.1</ele>
        <time>2020-06-17T17:17:03Z</time>
      </trkpt>
      <trkpt lat="49.4967" lon="0.16381">
        <ele>5.1</ele>
        <time>2020-06-17T17:17:04Z</time>
      </trkpt>
      <trkpt lat="49.49675" lon="0.16379">
        <ele>5.1</ele>
        <time>2020-06-17T17:17:05Z</time>
      </trkpt>
      <trkpt lat="49.49681" lon="0.16379">
        <ele>5.2</ele>
        <time>2020-06-17T17:17:06Z</time>
      </trkpt>
      <trkpt lat="49.49685" lon="0.16375">
        <ele>5.2</ele>
        <time>2020-06-17T17:17:07Z</time>
      </trkpt>
      <trkpt lat="49.49691" lon="0.16373">
        <ele>5.3</ele>
        <time>2020-06-17T17:17:08Z</time>
      </trkpt>
      <trkpt lat="49.49696" lon="0.1637">
        <ele>5.3</ele>
        <time>2020-06-17T17:17:09Z</time>
      </trkpt>
      <trkpt lat="49.49701" lon="0.16368">
        <ele>5.4</ele>
        <time>2020-06-17T17:17:10Z</time>
      </trkpt>
      <trkpt lat="49.49706" lon="0.16366">
        <ele>5.4</ele>
        <time>2020-06-17T17:17:11Z</time>
      </trkpt>
      <trkpt lat="49.4971" lon="0.16364">
        <ele>5.5</ele>
        <time>2020-06-17T17:17:12Z</time>
      </trkpt>
      <trkpt lat="49.49715" lon="0.16363">
        <ele>5.6</ele>
        <time>2020-06-17T17:17:13Z</time>
      </trkpt>
      <trkpt lat="49.49719" lon="0.16363">
        <ele>5.7</ele>
        <time>2020-06-17T17:17:14Z</time>
      </trkpt>
      <trkpt lat="49.49723" lon="0.16362">
        <ele>5.7</ele>
        <time>2020-06-17T17:17:15Z</time>
      </trkpt>
      <trkpt lat="49.49726" lon="0.16361">
        <ele>5.8</ele>
        <time>2020-06-17T17:17:16Z</time>
      </trkpt>
      <trkpt lat="49.49729" lon="0.1636">
        <ele>5.8</ele>
        <time>2020-06-17T17:17:17Z</time>
      </trkpt>
      <trkpt lat="49.4973" lon="0.1636">
        <ele>5.8</ele>
        <time>2020-06-17T17:17:18Z</time>
      </trkpt>
      <trkpt lat="49.49733" lon="0.1636">
        <ele>5.9</ele>
        <time>2020-06-17T17:17:19Z</time>
      </trkpt>
      <trkpt lat="49.49734" lon="0.16359">
        <ele>5.9</ele>
        <time>2020-06-17T17:17:20Z</time>
      </trkpt>
      <trkpt lat="49.49737" lon="0.16356">
        <ele>5.9</ele>
        <time>2020-06-17T17:17:21Z</time>
      </trkpt>
      <trkpt lat="49.49738" lon="0.16355">
        <ele>6</ele>
        <time>2020-06-17T17:17:22Z</time>
      </trkpt>
      <trkpt lat="49.49742" lon="0.16355">
        <ele>6</ele>
        <time>2020-06-17T17:17:23Z</time>
      </trkpt>
      <trkpt lat="49.49745" lon="0.16353">
        <ele>6</ele>
        <time>2020-06-17T17:17:24Z</time>
      </trkpt>
      <trkpt lat="49.49749" lon="0.16351">
        <ele>6</ele>
        <time>2020-06-17T17:17:25Z</time>
      </trkpt>
      <trkpt lat="49.49753" lon="0.16349">
        <ele>6</ele>
        <time>2020-06-17T17:17:26Z</time>
      </trkpt>
      <trkpt lat="49.49756" lon="0.16346">
        <ele>6</ele>
        <time>2020-06-17T17:17:27Z</time>
      </trkpt>
      <trkpt lat="49.4976" lon="0.16343">
        <ele>6</ele>
        <time>2020-06-17T17:17:28Z</time>
      </trkpt>
      <trkpt lat="49.49764" lon="0.1634">
        <ele>6</ele>
        <time>2020-06-17T17:17:29Z</time>
      </trkpt>
      <trkpt lat="49.49767" lon="0.16337">
        <ele>6</ele>
        <time>2020-06-17T17:17:30Z</time>
      </trkpt>
      <trkpt lat="49.49771" lon="0.16334">
        <ele>6</ele>
        <time>2020-06-17T17:17:31Z</time>
      </trkpt>
      <trkpt lat="49.49776" lon="0.16333">
        <ele>6</ele>
        <time>2020-06-17T17:17:32Z</time>
      </trkpt>
      <trkpt lat="49.4978" lon="0.16331">
        <ele>6.1</ele>
        <time>2020-06-17T17:17:33Z</time>
      </trkpt>
      <trkpt lat="49.49784" lon="0.1633">
        <ele>6.1</ele>
        <time>2020-06-17T17:17:34Z</time>
      </trkpt>
      <trkpt lat="49.49788" lon="0.16328">
        <ele>6.2</ele>
        <time>2020-06-17T17:17:35Z</time>
      </trkpt>
      <trkpt lat="49.49793" lon="0.16329">
        <ele>6.2</ele>
        <time>2020-06-17T17:17:36Z</time>
      </trkpt>
      <trkpt lat="49.49797" lon="0.16326">
        <ele>6.3</ele>
        <time>2020-06-17T17:17:37Z</time>
      </trkpt>
      <trkpt lat="49.49801" lon="0.16322">
        <ele>6.4</ele>
        <time>2020-06-17T17:17:38Z</time>
      </trkpt>
      <trkpt lat="49.49805" lon="0.16319">
        <ele>6.5</ele>
        <time>2020-06-17T17:17:39Z</time>
      </trkpt>
      <trkpt lat="49.49809" lon="0.16315">
        <ele>6.6</ele>
        <time>2020-06-17T17:17:40Z</time>
      </trkpt>
      <trkpt lat="49.49812" lon="0.1631">
        <ele>6.7</ele>
        <time>2020-06-17T17:17:41Z</time>
      </trkpt>
      <trkpt lat="49.49816" lon="0.16305">
        <ele>6.9</ele>
        <time>2020-06-17T17:17:42Z</time>
      </trkpt>
      <trkpt lat="49.4982" lon="0.163">
        <ele>7</ele>
        <time>2020-06-17T17:17:43Z</time>
      </trkpt>
      <trkpt lat="49.49824" lon="0.16296">
        <ele>7.1</ele>
        <time>2020-06-17T17:17:44Z</time>
      </trkpt>
      <trkpt lat="49.49827" lon="0.16292">
        <ele>7.3</ele>
        <time>2020-06-17T17:17:45Z</time>
      </trkpt>
      <trkpt lat="49.49831" lon="0.16288">
        <ele>7.4</ele>
        <time>2020-06-17T17:17:46Z</time>
      </trkpt>
      <trkpt lat="49.49835" lon="0.16286">
        <ele>7.5</ele>
        <time>2020-06-17T17:17:47Z</time>
      </trkpt>
      <trkpt lat="49.49839" lon="0.16283">
        <ele>7.6</ele>
        <time>2020-06-17T17:17:48Z</time>
      </trkpt>
      <trkpt lat="49.49843" lon="0.16281">
        <ele>7.7</ele>
        <time>2020-06-17T17:17:49Z</time>
      </trkpt>
      <trkpt lat="49.49847" lon="0.16278">
        <ele>7.9</ele>
        <time>2020-06-17T17:17:50Z</time>
      </trkpt>
      <trkpt lat="49.49851" lon="0.16276">
        <ele>8.1</ele>
        <time>2020-06-17T17:17:51Z</time>
      </trkpt>
      <trkpt lat="49.49855" lon="0.16274">
        <ele>8.2</ele>
        <time>2020-06-17T17:17:52Z</time>
      </trkpt>
      <trkpt lat="49.49859" lon="0.16271">
        <ele>8.4</ele>
        <time>2020-06-17T17:17:53Z</time>
      </trkpt>
      <trkpt lat="49.49863" lon="0.1627">
        <ele>8.6</ele>
        <time>2020-06-17T17:17:54Z</time>
      </trkpt>
      <trkpt lat="49.49868" lon="0.16268">
        <ele>8.8</ele>
        <time>2020-06-17T17:17:55Z</time>
      </trkpt>
      <trkpt lat="49.49872" lon="0.16266">
        <ele>9</ele>
        <time>2020-06-17T17:17:56Z</time>
      </trkpt>
      <trkpt lat="49.49876" lon="0.16269">
        <ele>9.3</ele>
        <time>2020-06-17T17:17:57Z</time>
      </trkpt>
      <trkpt lat="49.4988" lon="0.16267">
        <ele>9.5</ele>
        <time>2020-06-17T17:17:58Z</time>
      </trkpt>
      <trkpt lat="49.49883" lon="0.16265">
        <ele>9.7</ele>
        <time>2020-06-17T17:17:59Z</time>
      </trkpt>
      <trkpt lat="49.49886" lon="0.16264">
        <ele>9.9</ele>
        <time>2020-06-17T17:18:00Z</time>
      </trkpt>
      <trkpt lat="49.49889" lon="0.16262">
        <ele>10.1</ele>
        <time>2020-06-17T17:18:01Z</time>
      </trkpt>
      <trkpt lat="49.49893" lon="0.16262">
        <ele>10.3</ele>
        <time>2020-06-17T17:18:02Z</time>
      </trkpt>
      <trkpt lat="49.49896" lon="0.16262">
        <ele>10.4</ele>
        <time>2020-06-17T17:18:03Z</time>
      </trkpt>
      <trkpt lat="49.499" lon="0.16261">
        <ele>10.6</ele>
        <time>2020-06-17T17:18:04Z</time>
      </trkpt>
      <trkpt lat="49.49903" lon="0.16259">
        <ele>10.8</ele>
        <time>2020-06-17T17:18:05Z</time>
      </trkpt>
      <trkpt lat="49.49906" lon="0.16258">
        <ele>11</ele>
        <time>2020-06-17T17:18:06Z</time>
      </trkpt>
      <trkpt lat="49.49909" lon="0.16258">
        <ele>11.1</ele>
        <time>2020-06-17T17:18:07Z</time>
      </trkpt>
      <trkpt lat="49.49912" lon="0.16258">
        <ele>11.3</ele>
        <time>2020-06-17T17:18:08Z</time>
      </trkpt>
      <trkpt lat="49.49916" lon="0.16259">
        <ele>11.5</ele>
        <time>2020-06-17T17:18:09Z</time>
      </trkpt>
      <trkpt lat="49.49919" lon="0.16259">
        <ele>11.6</ele>
        <time>2020-06-17T17:18:10Z</time>
      </trkpt>
      <trkpt lat="49.49922" lon="0.16259">
        <ele>11.8</ele>
        <time>2020-06-17T17:18:11Z</time>
      </trkpt>
      <trkpt lat="49.49925" lon="0.1626">
        <ele>11.9</ele>
        <time>2020-06-17T17:18:12Z</time>
      </trkpt>
      <trkpt lat="49.49928" lon="0.1626">
        <ele>12.1</ele>
        <time>2020-06-17T17:18:13Z</time>
      </trkpt>
      <trkpt lat="49.49931" lon="0.1626">
        <ele>12.2</ele>
        <time>2020-06-17T17:18:14Z</time>
      </trkpt>
      <trkpt lat="49.49934" lon="0.1626">
        <ele>12.3</ele>
        <time>2020-06-17T17:18:15Z</time>
      </trkpt>
      <trkpt lat="49.49937" lon="0.16259">
        <ele>12.4</ele>
        <time>2020-06-17T17:18:16Z</time>
      </trkpt>
      <trkpt lat="49.4994" lon="0.16258">
        <ele>12.5</ele>
        <time>2020-06-17T17:18:17Z</time>
      </trkpt>
      <trkpt lat="49.49943" lon="0.16257">
        <ele>12.6</ele>
        <time>2020-06-17T17:18:18Z</time>
      </trkpt>
      <trkpt lat="49.49946" lon="0.16258">
        <ele>12.7</ele>
        <time>2020-06-17T17:18:19Z</time>
      </trkpt>
      <trkpt lat="49.49949" lon="0.16258">
        <ele>12.8</ele>
        <time>2020-06-17T17:18:20Z</time>
      </trkpt>
      <trkpt lat="49.49953" lon="0.16258">
        <ele>12.9</ele>
        <time>2020-06-17T17:18:21Z</time>
      </trkpt>
      <trkpt lat="49.49956" lon="0.16257">
        <ele>12.9</ele>
        <time>2020-06-17T17:18:22Z</time>
      </trkpt>
      <trkpt lat="49.49959" lon="0.16256">
        <ele>13</ele>
        <time>2020-06-17T17:18:23Z</time>
      </trkpt>
      <trkpt lat="49.49962" lon="0.16256">
        <ele>13.1</ele>
        <time>2020-06-17T17:18:24Z</time>
      </trkpt>
      <trkpt lat="49.49965" lon="0.16256">
        <ele>13.1</ele>
        <time>2020-06-17T17:18:25Z</time>
      </trkpt>
      <trkpt lat="49.49968" lon="0.16256">
        <ele>13.2</ele>
        <time>2020-06-17T17:18:26Z</time>
      </trkpt>
      <trkpt lat="49.49971" lon="0.16257">
        <ele>13.2</ele>
        <time>2020-06-17T17:18:27Z</time>
      </trkpt>
      <trkpt lat="49.49973" lon="0.16257">
        <ele>13.2</ele>
        <time>2020-06-17T17:18:28Z</time>
      </trkpt>
      <trkpt lat="49.49976" lon="0.16257">
        <ele>13.3</ele>
        <time>2020-06-17T17:18:29Z</time>
      </trkpt>
      <trkpt lat="49.4998" lon="0.16257">
        <ele>13.3</ele>
        <time>2020-06-17T17:18:30Z</time>
      </trkpt>
      <trkpt lat="49.49982" lon="0.16257">
        <ele>13.3</ele>
        <time>2020-06-17T17:18:31Z</time>
      </trkpt>
      <trkpt lat="49.49984" lon="0.16257">
        <ele>13.3</ele>
        <time>2020-06-17T17:18:32Z</time>
      </trkpt>
      <trkpt lat="49.49987" lon="0.16257">
        <ele>13.3</ele>
        <time>2020-06-17T17:18:33Z</time>
      </trkpt>
      <trkpt lat="49.49991" lon="0.16259">
        <ele>13.3</ele>
        <time>2020-06-17T17:18:34Z</time>
      </trkpt>
      <trkpt lat="49.49992" lon="0.16259">
        <ele>13.3</ele>
        <time>2020-06-17T17:18:35Z</time>
      </trkpt>
      <trkpt lat="49.49996" lon="0.16259">
        <ele>13.3</ele>
        <time>2020-06-17T17:18:36Z</time>
      </trkpt>
      <trkpt lat="49.49998" lon="0.1626">
        <ele>13.3</ele>
        <time>2020-06-17T17:18:37Z</time>
      </trkpt>
      <trkpt lat="49.50001" lon="0.16259">
        <ele>13.2</ele>
        <time>2020-06-17T17:18:38Z</time>
      </trkpt>
      <trkpt lat="49.50004" lon="0.16258">
        <ele>13.2</ele>
        <time>2020-06-17T17:18:39Z</time>
      </trkpt>
      <trkpt lat="49.50007" lon="0.16257">
        <ele>13.1</ele>
        <time>2020-06-17T17:18:40Z</time>
      </trkpt>
      <trkpt lat="49.50011" lon="0.16257">
        <ele>13</ele>
        <time>2020-06-17T17:18:41Z</time>
      </trkpt>
      <trkpt lat="49.50015" lon="0.16257">
        <ele>12.9</ele>
        <time>2020-06-17T17:18:42Z</time>
      </trkpt>
      <trkpt lat="49.50019" lon="0.16258">
        <ele>12.8</ele>
        <time>2020-06-17T17:18:43Z</time>
      </trkpt>
      <trkpt lat="49.50023" lon="0.1626">
        <ele>12.7</ele>
        <time>2020-06-17T17:18:44Z</time>
      </trkpt>
      <trkpt lat="49.50027" lon="0.16261">
        <ele>12.5</ele>
        <time>2020-06-17T17:18:45Z</time>
      </trkpt>
      <trkpt lat="49.50031" lon="0.16261">
        <ele>12.4</ele>
        <time>2020-06-17T17:18:46Z</time>
      </trkpt>
      <trkpt lat="49.50035" lon="0.16261">
        <ele>12.2</ele>
        <time>2020-06-17T17:18:47Z</time>
      </trkpt>
      <trkpt lat="49.50039" lon="0.16262">
        <ele>12.1</ele>
        <time>2020-06-17T17:18:48Z</time>
      </trkpt>
      <trkpt lat="49.50043" lon="0.16262">
        <ele>12</ele>
        <time>2020-06-17T17:18:49Z</time>
      </trkpt>
      <trkpt lat="49.50047" lon="0.16262">
        <ele>11.8</ele>
        <time>2020-06-17T17:18:50Z</time>
      </trkpt>
      <trkpt lat="49.50051" lon="0.16261">
        <ele>11.8</ele>
        <time>2020-06-17T17:18:51Z</time>
      </trkpt>
      <trkpt lat="49.50056" lon="0.16261">
        <ele>11.9</ele>
        <time>2020-06-17T17:18:52Z</time>
      </trkpt>
      <trkpt lat="49.5006" lon="0.16261">
        <ele>11.9</ele>
        <time>2020-06-17T17:18:53Z</time>
      </trkpt>
      <trkpt lat="49.50065" lon="0.16262">
        <ele>12</ele>
        <time>2020-06-17T17:18:54Z</time>
      </trkpt>
      <trkpt lat="49.5007" lon="0.16261">
        <ele>12</ele>
        <time>2020-06-17T17:18:55Z</time>
      </trkpt>
      <trkpt lat="49.50075" lon="0.1626">
        <ele>12</ele>
        <time>2020-06-17T17:18:56Z</time>
      </trkpt>
      <trkpt lat="49.5008" lon="0.1626">
        <ele>12.1</ele>
        <time>2020-06-17T17:18:57Z</time>
      </trkpt>
      <trkpt lat="49.50085" lon="0.16258">
        <ele>12.1</ele>
        <time>2020-06-17T17:18:58Z</time>
      </trkpt>
      <trkpt lat="49.5009" lon="0.16257">
        <ele>12.1</ele>
        <time>2020-06-17T17:18:59Z</time>
      </trkpt>
      <trkpt lat="49.50095" lon="0.16258">
        <ele>11.9</ele>
        <time>2020-06-17T17:19:00Z</time>
      </trkpt>
      <trkpt lat="49.501" lon="0.16258">
        <ele>11.9</ele>
        <time>2020-06-17T17:19:01Z</time>
      </trkpt>
      <trkpt lat="49.50105" lon="0.16257">
        <ele>11.9</ele>
        <time>2020-06-17T17:19:02Z</time>
      </trkpt>
      <trkpt lat="49.50109" lon="0.16255">
        <ele>11.9</ele>
        <time>2020-06-17T17:19:03Z</time>
      </trkpt>
      <trkpt lat="49.50114" lon="0.16253">
        <ele>11.9</ele>
        <time>2020-06-17T17:19:04Z</time>
      </trkpt>
      <trkpt lat="49.50118" lon="0.16251">
        <ele>11.9</ele>
        <time>2020-06-17T17:19:05Z</time>
      </trkpt>
      <trkpt lat="49.50122" lon="0.16249">
        <ele>12.1</ele>
        <time>2020-06-17T17:19:06Z</time>
      </trkpt>
      <trkpt lat="49.50126" lon="0.16248">
        <ele>12.4</ele>
        <time>2020-06-17T17:19:07Z</time>
      </trkpt>
      <trkpt lat="49.5013" lon="0.16247">
        <ele>12.6</ele>
        <time>2020-06-17T17:19:08Z</time>
      </trkpt>
      <trkpt lat="49.50134" lon="0.16247">
        <ele>12.8</ele>
        <time>2020-06-17T17:19:09Z</time>
      </trkpt>
      <trkpt lat="49.50138" lon="0.16245">
        <ele>13.1</ele>
        <time>2020-06-17T17:19:10Z</time>
      </trkpt>
      <trkpt lat="49.50141" lon="0.16245">
        <ele>13.3</ele>
        <time>2020-06-17T17:19:11Z</time>
      </trkpt>
      <trkpt lat="49.50145" lon="0.16243">
        <ele>13.6</ele>
        <time>2020-06-17T17:19:12Z</time>
      </trkpt>
      <trkpt lat="49.50148" lon="0.16241">
        <ele>13.8</ele>
        <time>2020-06-17T17:19:13Z</time>
      </trkpt>
      <trkpt lat="49.5015" lon="0.16241">
        <ele>14</ele>
        <time>2020-06-17T17:19:14Z</time>
      </trkpt>
      <trkpt lat="49.50154" lon="0.16243">
        <ele>14.3</ele>
        <time>2020-06-17T17:19:15Z</time>
      </trkpt>
      <trkpt lat="49.50156" lon="0.16244">
        <ele>14.5</ele>
        <time>2020-06-17T17:19:16Z</time>
      </trkpt>
      <trkpt lat="49.50159" lon="0.16247">
        <ele>14.7</ele>
        <time>2020-06-17T17:19:17Z</time>
      </trkpt>
      <trkpt lat="49.50163" lon="0.16247">
        <ele>15</ele>
        <time>2020-06-17T17:19:18Z</time>
      </trkpt>
      <trkpt lat="49.50164" lon="0.16248">
        <ele>15.1</ele>
        <time>2020-06-17T17:19:19Z</time>
      </trkpt>
      <trkpt lat="49.50167" lon="0.1625">
        <ele>15.6</ele>
        <time>2020-06-17T17:19:20Z</time>
      </trkpt>
      <trkpt lat="49.5017" lon="0.16251">
        <ele>15.6</ele>
        <time>2020-06-17T17:19:21Z</time>
      </trkpt>
      <trkpt lat="49.50173" lon="0.1625">
        <ele>15.7</ele>
        <time>2020-06-17T17:19:22Z</time>
      </trkpt>
      <trkpt lat="49.50177" lon="0.1625">
        <ele>15.7</ele>
        <time>2020-06-17T17:19:23Z</time>
      </trkpt>
      <trkpt lat="49.50178" lon="0.16249">
        <ele>15.7</ele>
        <time>2020-06-17T17:19:24Z</time>
      </trkpt>
      <trkpt lat="49.50181" lon="0.16248">
        <ele>16</ele>
        <time>2020-06-17T17:19:25Z</time>
      </trkpt>
      <trkpt lat="49.50185" lon="0.16249">
        <ele>16.2</ele>
        <time>2020-06-17T17:19:26Z</time>
      </trkpt>
      <trkpt lat="49.50185" lon="0.1625">
        <ele>16.3</ele>
        <time>2020-06-17T17:19:27Z</time>
      </trkpt>
      <trkpt lat="49.50187" lon="0.16254">
        <ele>16.5</ele>
        <time>2020-06-17T17:19:28Z</time>
      </trkpt>
      <trkpt lat="49.50188" lon="0.16256">
        <ele>16.5</ele>
        <time>2020-06-17T17:19:29Z</time>
      </trkpt>
      <trkpt lat="49.5019" lon="0.16259">
        <ele>16.7</ele>
        <time>2020-06-17T17:19:30Z</time>
      </trkpt>
      <trkpt lat="49.50192" lon="0.16262">
        <ele>16.9</ele>
        <time>2020-06-17T17:19:31Z</time>
      </trkpt>
      <trkpt lat="49.50195" lon="0.16264">
        <ele>17.1</ele>
        <time>2020-06-17T17:19:32Z</time>
      </trkpt>
      <trkpt lat="49.50197" lon="0.16266">
        <ele>17.4</ele>
        <time>2020-06-17T17:19:33Z</time>
      </trkpt>
      <trkpt lat="49.502" lon="0.1627">
        <ele>17.7</ele>
        <time>2020-06-17T17:19:34Z</time>
      </trkpt>
      <trkpt lat="49.50201" lon="0.16271">
        <ele>17.8</ele>
        <time>2020-06-17T17:19:35Z</time>
      </trkpt>
      <trkpt lat="49.50204" lon="0.16275">
        <ele>18.2</ele>
        <time>2020-06-17T17:19:36Z</time>
      </trkpt>
      <trkpt lat="49.50205" lon="0.16277">
        <ele>18.3</ele>
        <time>2020-06-17T17:19:37Z</time>
      </trkpt>
      <trkpt lat="49.50207" lon="0.1628">
        <ele>18.6</ele>
        <time>2020-06-17T17:19:38Z</time>
      </trkpt>
      <trkpt lat="49.50208" lon="0.16282">
        <ele>18.7</ele>
        <time>2020-06-17T17:19:39Z</time>
      </trkpt>
      <trkpt lat="49.50211" lon="0.16284">
        <ele>19</ele>
        <time>2020-06-17T17:19:40Z</time>
      </trkpt>
      <trkpt lat="49.50211" lon="0.16284">
        <ele>19</ele>
        <time>2020-06-17T17:19:41Z</time>
      </trkpt>
      <trkpt lat="49.50213" lon="0.16286">
        <ele>19.2</ele>
        <time>2020-06-17T17:19:42Z</time>
      </trkpt>
      <trkpt lat="49.50214" lon="0.16287">
        <ele>19.4</ele>
        <time>2020-06-17T17:19:43Z</time>
      </trkpt>
      <trkpt lat="49.50215" lon="0.16289">
        <ele>19.5</ele>
        <time>2020-06-17T17:19:44Z</time>
      </trkpt>
      <trkpt lat="49.50217" lon="0.1629">
        <ele>19.6</ele>
        <time>2020-06-17T17:19:45Z</time>
      </trkpt>
      <trkpt lat="49.50218" lon="0.1629">
        <ele>19.8</ele>
        <time>2020-06-17T17:19:46Z</time>
      </trkpt>
      <trkpt lat="49.50219" lon="0.16291">
        <ele>19.9</ele>
        <time>2020-06-17T17:19:47Z</time>
      </trkpt>
      <trkpt lat="49.5022" lon="0.16293">
        <ele>20</ele>
        <time>2020-06-17T17:19:48Z</time>
      </trkpt>
      <trkpt lat="49.5022" lon="0.16296">
        <ele>20.1</ele>
        <time>2020-06-17T17:19:49Z</time>
      </trkpt>
      <trkpt lat="49.5022" lon="0.16298">
        <ele>20.2</ele>
        <time>2020-06-17T17:19:50Z</time>
      </trkpt>
      <trkpt lat="49.50221" lon="0.163">
        <ele>20.4</ele>
        <time>2020-06-17T17:19:51Z</time>
      </trkpt>
      <trkpt lat="49.50222" lon="0.16301">
        <ele>20.4</ele>
        <time>2020-06-17T17:19:52Z</time>
      </trkpt>
      <trkpt lat="49.50223" lon="0.16301">
        <ele>20.5</ele>
        <time>2020-06-17T17:19:53Z</time>
      </trkpt>
      <trkpt lat="49.50224" lon="0.16302">
        <ele>20.6</ele>
        <time>2020-06-17T17:19:54Z</time>
      </trkpt>
      <trkpt lat="49.50225" lon="0.16303">
        <ele>20.7</ele>
        <time>2020-06-17T17:19:55Z</time>
      </trkpt>
      <trkpt lat="49.50226" lon="0.16303">
        <ele>20.7</ele>
        <time>2020-06-17T17:19:56Z</time>
      </trkpt>
      <trkpt lat="49.50226" lon="0.16303">
        <ele>20.8</ele>
        <time>2020-06-17T17:19:57Z</time>
      </trkpt>
      <trkpt lat="49.50226" lon="0.16304">
        <ele>20.8</ele>
        <time>2020-06-17T17:19:58Z</time>
      </trkpt>
      <trkpt lat="49.50226" lon="0.16304">
        <ele>20.8</ele>
        <time>2020-06-17T17:19:59Z</time>
      </trkpt>
      <trkpt lat="49.50227" lon="0.16304">
        <ele>20.8</ele>
        <time>2020-06-17T17:20:00Z</time>
      </trkpt>
      <trkpt lat="49.5023" lon="0.16304">
        <ele>21</ele>
        <time>2020-06-17T17:20:01Z</time>
      </trkpt>
      <trkpt lat="49.50232" lon="0.16303">
        <ele>21.1</ele>
        <time>2020-06-17T17:20:02Z</time>
      </trkpt>
      <trkpt lat="49.50234" lon="0.16302">
        <ele>21.3</ele>
        <time>2020-06-17T17:20:26Z</time>
      </trkpt>
      <trkpt lat="49.50237" lon="0.16302">
        <ele>21.7</ele>
        <time>2020-06-17T17:20:27Z</time>
      </trkpt>
      <trkpt lat="49.50238" lon="0.16301">
        <ele>21.8</ele>
        <time>2020-06-17T17:20:28Z</time>
      </trkpt>
      <trkpt lat="49.50239" lon="0.16301">
        <ele>21.9</ele>
        <time>2020-06-17T17:20:29Z</time>
      </trkpt>
      <trkpt lat="49.50241" lon="0.16301">
        <ele>22</ele>
        <time>2020-06-17T17:20:30Z</time>
      </trkpt>
      <trkpt lat="49.50243" lon="0.16302">
        <ele>22.1</ele>
        <time>2020-06-17T17:20:31Z</time>
      </trkpt>
      <trkpt lat="49.50246" lon="0.16302">
        <ele>22.4</ele>
        <time>2020-06-17T17:20:32Z</time>
      </trkpt>
      <trkpt lat="49.50247" lon="0.16302">
        <ele>22.5</ele>
        <time>2020-06-17T17:20:33Z</time>
      </trkpt>
      <trkpt lat="49.50249" lon="0.16303">
        <ele>22.6</ele>
        <time>2020-06-17T17:20:34Z</time>
      </trkpt>
      <trkpt lat="49.5025" lon="0.16304">
        <ele>22.7</ele>
        <time>2020-06-17T17:20:35Z</time>
      </trkpt>
      <trkpt lat="49.50252" lon="0.16305">
        <ele>22.9</ele>
        <time>2020-06-17T17:20:36Z</time>
      </trkpt>
      <trkpt lat="49.50253" lon="0.16307">
        <ele>23</ele>
        <time>2020-06-17T17:20:37Z</time>
      </trkpt>
      <trkpt lat="49.50254" lon="0.16308">
        <ele>23.2</ele>
        <time>2020-06-17T17:20:38Z</time>
      </trkpt>
      <trkpt lat="49.50255" lon="0.1631">
        <ele>23.3</ele>
        <time>2020-06-17T17:20:39Z</time>
      </trkpt>
      <trkpt lat="49.50257" lon="0.16312">
        <ele>23.4</ele>
        <time>2020-06-17T17:20:40Z</time>
      </trkpt>
      <trkpt lat="49.50258" lon="0.16314">
        <ele>23.6</ele>
        <time>2020-06-17T17:20:41Z</time>
      </trkpt>
      <trkpt lat="49.50258" lon="0.16317">
        <ele>23.7</ele>
        <time>2020-06-17T17:20:42Z</time>
      </trkpt>
      <trkpt lat="49.50259" lon="0.16318">
        <ele>23.9</ele>
        <time>2020-06-17T17:20:43Z</time>
      </trkpt>
      <trkpt lat="49.50261" lon="0.16323">
        <ele>24.1</ele>
        <time>2020-06-17T17:20:44Z</time>
      </trkpt>
      <trkpt lat="49.50261" lon="0.16324">
        <ele>24.2</ele>
        <time>2020-06-17T17:20:45Z</time>
      </trkpt>
      <trkpt lat="49.50262" lon="0.16328">
        <ele>24.4</ele>
        <time>2020-06-17T17:20:46Z</time>
      </trkpt>
      <trkpt lat="49.50263" lon="0.16329">
        <ele>24.5</ele>
        <time>2020-06-17T17:20:47Z</time>
      </trkpt>
      <trkpt lat="49.50265" lon="0.16333">
        <ele>24.8</ele>
        <time>2020-06-17T17:20:48Z</time>
      </trkpt>
      <trkpt lat="49.50265" lon="0.16334">
        <ele>24.8</ele>
        <time>2020-06-17T17:20:49Z</time>
      </trkpt>
      <trkpt lat="49.50268" lon="0.16335">
        <ele>25.1</ele>
        <time>2020-06-17T17:20:50Z</time>
      </trkpt>
      <trkpt lat="49.50269" lon="0.16336">
        <ele>25.2</ele>
        <time>2020-06-17T17:20:51Z</time>
      </trkpt>
      <trkpt lat="49.50272" lon="0.16339">
        <ele>25.4</ele>
        <time>2020-06-17T17:20:52Z</time>
      </trkpt>
      <trkpt lat="49.50272" lon="0.1634">
        <ele>25.5</ele>
        <time>2020-06-17T17:20:53Z</time>
      </trkpt>
      <trkpt lat="49.50274" lon="0.16343">
        <ele>25.8</ele>
        <time>2020-06-17T17:20:54Z</time>
      </trkpt>
      <trkpt lat="49.50275" lon="0.16344">
        <ele>25.9</ele>
        <time>2020-06-17T17:20:55Z</time>
      </trkpt>
      <trkpt lat="49.50277" lon="0.16347">
        <ele>26.8</ele>
        <time>2020-06-17T17:20:56Z</time>
      </trkpt>
      <trkpt lat="49.50278" lon="0.16348">
        <ele>26.9</ele>
        <time>2020-06-17T17:20:57Z</time>
      </trkpt>
      <trkpt lat="49.50281" lon="0.1635">
        <ele>27.3</ele>
        <time>2020-06-17T17:20:58Z</time>
      </trkpt>
      <trkpt lat="49.50282" lon="0.16351">
        <ele>27.5</ele>
        <time>2020-06-17T17:20:59Z</time>
      </trkpt>
      <trkpt lat="49.50285" lon="0.16352">
        <ele>27.9</ele>
        <time>2020-06-17T17:21:00Z</time>
      </trkpt>
      <trkpt lat="49.50286" lon="0.16353">
        <ele>28</ele>
        <time>2020-06-17T17:21:01Z</time>
      </trkpt>
      <trkpt lat="49.50287" lon="0.16355">
        <ele>28.2</ele>
        <time>2020-06-17T17:21:02Z</time>
      </trkpt>
      <trkpt lat="49.50289" lon="0.16355">
        <ele>28.4</ele>
        <time>2020-06-17T17:21:03Z</time>
      </trkpt>
      <trkpt lat="49.5029" lon="0.16357">
        <ele>28.6</ele>
        <time>2020-06-17T17:21:04Z</time>
      </trkpt>
      <trkpt lat="49.50292" lon="0.16358">
        <ele>28.9</ele>
        <time>2020-06-17T17:21:05Z</time>
      </trkpt>
      <trkpt lat="49.50293" lon="0.1636">
        <ele>29.1</ele>
        <time>2020-06-17T17:21:06Z</time>
      </trkpt>
      <trkpt lat="49.50294" lon="0.16361">
        <ele>29.3</ele>
        <time>2020-06-17T17:21:07Z</time>
      </trkpt>
      <trkpt lat="49.50295" lon="0.16364">
        <ele>29.5</ele>
        <time>2020-06-17T17:21:08Z</time>
      </trkpt>
      <trkpt lat="49.50296" lon="0.16365">
        <ele>29.7</ele>
        <time>2020-06-17T17:21:09Z</time>
      </trkpt>
      <trkpt lat="49.50297" lon="0.16367">
        <ele>29.9</ele>
        <time>2020-06-17T17:21:10Z</time>
      </trkpt>
      <trkpt lat="49.50298" lon="0.16368">
        <ele>30.1</ele>
        <time>2020-06-17T17:21:11Z</time>
      </trkpt>
      <trkpt lat="49.503" lon="0.1637">
        <ele>30.4</ele>
        <time>2020-06-17T17:21:12Z</time>
      </trkpt>
      <trkpt lat="49.50301" lon="0.16372">
        <ele>30.6</ele>
        <time>2020-06-17T17:21:13Z</time>
      </trkpt>
      <trkpt lat="49.50302" lon="0.16373">
        <ele>30.9</ele>
        <time>2020-06-17T17:21:14Z</time>
      </trkpt>
      <trkpt lat="49.50304" lon="0.16374">
        <ele>31.1</ele>
        <time>2020-06-17T17:21:15Z</time>
      </trkpt>
      <trkpt lat="49.50306" lon="0.16377">
        <ele>31.4</ele>
        <time>2020-06-17T17:21:16Z</time>
      </trkpt>
      <trkpt lat="49.50307" lon="0.16377">
        <ele>31.6</ele>
        <time>2020-06-17T17:21:17Z</time>
      </trkpt>
      <trkpt lat="49.50308" lon="0.16378">
        <ele>31.7</ele>
        <time>2020-06-17T17:21:18Z</time>
      </trkpt>
      <trkpt lat="49.5031" lon="0.1638">
        <ele>32.1</ele>
        <time>2020-06-17T17:21:19Z</time>
      </trkpt>
      <trkpt lat="49.50311" lon="0.16381">
        <ele>32.3</ele>
        <time>2020-06-17T17:21:20Z</time>
      </trkpt>
      <trkpt lat="49.50313" lon="0.16383">
        <ele>32.6</ele>
        <time>2020-06-17T17:21:21Z</time>
      </trkpt>
      <trkpt lat="49.50314" lon="0.16385">
        <ele>32.8</ele>
        <time>2020-06-17T17:21:22Z</time>
      </trkpt>
      <trkpt lat="49.50314" lon="0.16386">
        <ele>33</ele>
        <time>2020-06-17T17:21:23Z</time>
      </trkpt>
      <trkpt lat="49.50315" lon="0.16389">
        <ele>33.2</ele>
        <time>2020-06-17T17:21:24Z</time>
      </trkpt>
      <trkpt lat="49.50316" lon="0.16391">
        <ele>33.4</ele>
        <time>2020-06-17T17:21:25Z</time>
      </trkpt>
      <trkpt lat="49.50317" lon="0.16392">
        <ele>33.6</ele>
        <time>2020-06-17T17:21:26Z</time>
      </trkpt>
      <trkpt lat="49.50318" lon="0.16393">
        <ele>33.7</ele>
        <time>2020-06-17T17:21:27Z</time>
      </trkpt>
      <trkpt lat="49.50318" lon="0.16394">
        <ele>33.8</ele>
        <time>2020-06-17T17:21:28Z</time>
      </trkpt>
      <trkpt lat="49.5032" lon="0.16395">
        <ele>34.1</ele>
        <time>2020-06-17T17:21:29Z</time>
      </trkpt>
      <trkpt lat="49.50321" lon="0.16397">
        <ele>34.3</ele>
        <time>2020-06-17T17:21:30Z</time>
      </trkpt>
      <trkpt lat="49.50322" lon="0.16397">
        <ele>34.5</ele>
        <time>2020-06-17T17:21:31Z</time>
      </trkpt>
      <trkpt lat="49.50323" lon="0.16399">
        <ele>34.7</ele>
        <time>2020-06-17T17:21:32Z</time>
      </trkpt>
      <trkpt lat="49.50323" lon="0.16401">
        <ele>34.9</ele>
        <time>2020-06-17T17:21:33Z</time>
      </trkpt>
      <trkpt lat="49.50324" lon="0.16402">
        <ele>35</ele>
        <time>2020-06-17T17:21:34Z</time>
      </trkpt>
      <trkpt lat="49.50325" lon="0.16403">
        <ele>35.2</ele>
        <time>2020-06-17T17:21:35Z</time>
      </trkpt>
      <trkpt lat="49.50325" lon="0.16404">
        <ele>35.3</ele>
        <time>2020-06-17T17:21:36Z</time>
      </trkpt>
      <trkpt lat="49.50326" lon="0.16406">
        <ele>35.5</ele>
        <time>2020-06-17T17:21:37Z</time>
      </trkpt>
      <trkpt lat="49.50327" lon="0.16409">
        <ele>35.8</ele>
        <time>2020-06-17T17:21:38Z</time>
      </trkpt>
      <trkpt lat="49.50328" lon="0.16411">
        <ele>36.1</ele>
        <time>2020-06-17T17:21:39Z</time>
      </trkpt>
      <trkpt lat="49.50329" lon="0.16412">
        <ele>36.3</ele>
        <time>2020-06-17T17:21:40Z</time>
      </trkpt>
      <trkpt lat="49.5033" lon="0.16415">
        <ele>36.5</ele>
        <time>2020-06-17T17:21:41Z</time>
      </trkpt>
      <trkpt lat="49.50331" lon="0.16416">
        <ele>36.7</ele>
        <time>2020-06-17T17:21:42Z</time>
      </trkpt>
      <trkpt lat="49.50332" lon="0.16417">
        <ele>36.8</ele>
        <time>2020-06-17T17:21:43Z</time>
      </trkpt>
      <trkpt lat="49.50332" lon="0.16418">
        <ele>37</ele>
        <time>2020-06-17T17:21:44Z</time>
      </trkpt>
      <trkpt lat="49.50333" lon="0.16419">
        <ele>37.1</ele>
        <time>2020-06-17T17:21:45Z</time>
      </trkpt>
      <trkpt lat="49.50334" lon="0.1642">
        <ele>37.2</ele>
        <time>2020-06-17T17:21:46Z</time>
      </trkpt>
      <trkpt lat="49.50334" lon="0.1642">
        <ele>37.3</ele>
        <time>2020-06-17T17:21:47Z</time>
      </trkpt>
      <trkpt lat="49.50335" lon="0.16421">
        <ele>37.5</ele>
        <time>2020-06-17T17:21:48Z</time>
      </trkpt>
      <trkpt lat="49.50336" lon="0.16423">
        <ele>37.7</ele>
        <time>2020-06-17T17:21:49Z</time>
      </trkpt>
      <trkpt lat="49.50336" lon="0.16425">
        <ele>37.8</ele>
        <time>2020-06-17T17:21:50Z</time>
      </trkpt>
      <trkpt lat="49.50336" lon="0.16427">
        <ele>38</ele>
        <time>2020-06-17T17:21:51Z</time>
      </trkpt>
      <trkpt lat="49.50336" lon="0.16429">
        <ele>38.3</ele>
        <time>2020-06-17T17:21:52Z</time>
      </trkpt>
      <trkpt lat="49.50335" lon="0.16432">
        <ele>38.6</ele>
        <time>2020-06-17T17:21:53Z</time>
      </trkpt>
      <trkpt lat="49.50335" lon="0.16434">
        <ele>38.7</ele>
        <time>2020-06-17T17:21:54Z</time>
      </trkpt>
      <trkpt lat="49.50335" lon="0.16435">
        <ele>38.9</ele>
        <time>2020-06-17T17:21:55Z</time>
      </trkpt>
      <trkpt lat="49.50334" lon="0.16437">
        <ele>39.1</ele>
        <time>2020-06-17T17:21:56Z</time>
      </trkpt>
      <trkpt lat="49.50333" lon="0.16439">
        <ele>39.3</ele>
        <time>2020-06-17T17:21:57Z</time>
      </trkpt>
      <trkpt lat="49.50333" lon="0.16441">
        <ele>39.4</ele>
        <time>2020-06-17T17:21:58Z</time>
      </trkpt>
      <trkpt lat="49.50332" lon="0.16444">
        <ele>39.4</ele>
        <time>2020-06-17T17:21:59Z</time>
      </trkpt>
      <trkpt lat="49.50331" lon="0.16446">
        <ele>39.3</ele>
        <time>2020-06-17T17:22:00Z</time>
      </trkpt>
      <trkpt lat="49.5033" lon="0.16448">
        <ele>39.3</ele>
        <time>2020-06-17T17:22:01Z</time>
      </trkpt>
      <trkpt lat="49.50329" lon="0.16449">
        <ele>39.3</ele>
        <time>2020-06-17T17:22:02Z</time>
      </trkpt>
      <trkpt lat="49.50327" lon="0.1645">
        <ele>39.3</ele>
        <time>2020-06-17T17:22:03Z</time>
      </trkpt>
      <trkpt lat="49.50326" lon="0.16451">
        <ele>39.2</ele>
        <time>2020-06-17T17:22:04Z</time>
      </trkpt>
      <trkpt lat="49.50325" lon="0.16451">
        <ele>39.2</ele>
        <time>2020-06-17T17:22:05Z</time>
      </trkpt>
      <trkpt lat="49.50324" lon="0.16452">
        <ele>39.2</ele>
        <time>2020-06-17T17:22:06Z</time>
      </trkpt>
      <trkpt lat="49.50323" lon="0.16455">
        <ele>39.2</ele>
        <time>2020-06-17T17:22:07Z</time>
      </trkpt>
      <trkpt lat="49.50323" lon="0.16456">
        <ele>39.2</ele>
        <time>2020-06-17T17:22:08Z</time>
      </trkpt>
      <trkpt lat="49.50322" lon="0.16458">
        <ele>39.2</ele>
        <time>2020-06-17T17:22:09Z</time>
      </trkpt>
      <trkpt lat="49.50321" lon="0.16459">
        <ele>39.1</ele>
        <time>2020-06-17T17:22:10Z</time>
      </trkpt>
      <trkpt lat="49.5032" lon="0.16461">
        <ele>39.1</ele>
        <time>2020-06-17T17:22:11Z</time>
      </trkpt>
      <trkpt lat="49.50318" lon="0.16465">
        <ele>39</ele>
        <time>2020-06-17T17:22:12Z</time>
      </trkpt>
      <trkpt lat="49.50318" lon="0.16467">
        <ele>39</ele>
        <time>2020-06-17T17:22:13Z</time>
      </trkpt>
      <trkpt lat="49.50316" lon="0.16471">
        <ele>39</ele>
        <time>2020-06-17T17:22:14Z</time>
      </trkpt>
      <trkpt lat="49.50315" lon="0.16473">
        <ele>39</ele>
        <time>2020-06-17T17:22:15Z</time>
      </trkpt>
      <trkpt lat="49.50314" lon="0.16477">
        <ele>39</ele>
        <time>2020-06-17T17:22:16Z</time>
      </trkpt>
      <trkpt lat="49.50312" lon="0.16482">
        <ele>38.9</ele>
        <time>2020-06-17T17:22:17Z</time>
      </trkpt>
      <trkpt lat="49.50312" lon="0.16483">
        <ele>38.9</ele>
        <time>2020-06-17T17:22:18Z</time>
      </trkpt>
      <trkpt lat="49.5031" lon="0.16487">
        <ele>38.9</ele>
        <time>2020-06-17T17:22:19Z</time>
      </trkpt>
      <trkpt lat="49.50309" lon="0.16489">
        <ele>38.9</ele>
        <time>2020-06-17T17:22:20Z</time>
      </trkpt>
      <trkpt lat="49.50309" lon="0.16492">
        <ele>38.9</ele>
        <time>2020-06-17T17:22:21Z</time>
      </trkpt>
      <trkpt lat="49.50308" lon="0.16494">
        <ele>38.9</ele>
        <time>2020-06-17T17:22:22Z</time>
      </trkpt>
      <trkpt lat="49.50307" lon="0.16495">
        <ele>38.9</ele>
        <time>2020-06-17T17:22:23Z</time>
      </trkpt>
      <trkpt lat="49.50307" lon="0.16497">
        <ele>38.9</ele>
        <time>2020-06-17T17:22:24Z</time>
      </trkpt>
      <trkpt lat="49.50306" lon="0.16497">
        <ele>38.9</ele>
        <time>2020-06-17T17:22:25Z</time>
      </trkpt>
      <trkpt lat="49.50305" lon="0.16499">
        <ele>38.9</ele>
        <time>2020-06-17T17:22:26Z</time>
      </trkpt>
      <trkpt lat="49.50304" lon="0.16502">
        <ele>38.9</ele>
        <time>2020-06-17T17:22:27Z</time>
      </trkpt>
      <trkpt lat="49.50303" lon="0.16504">
        <ele>39</ele>
        <time>2020-06-17T17:22:28Z</time>
      </trkpt>
      <trkpt lat="49.50303" lon="0.16506">
        <ele>39</ele>
        <time>2020-06-17T17:22:29Z</time>
      </trkpt>
      <trkpt lat="49.50302" lon="0.16509">
        <ele>39</ele>
        <time>2020-06-17T17:22:30Z</time>
      </trkpt>
      <trkpt lat="49.50301" lon="0.16511">
        <ele>39</ele>
        <time>2020-06-17T17:22:31Z</time>
      </trkpt>
      <trkpt lat="49.50301" lon="0.16515">
        <ele>39.1</ele>
        <time>2020-06-17T17:22:32Z</time>
      </trkpt>
      <trkpt lat="49.50301" lon="0.16517">
        <ele>39.1</ele>
        <time>2020-06-17T17:22:33Z</time>
      </trkpt>
      <trkpt lat="49.50302" lon="0.16518">
        <ele>39.1</ele>
        <time>2020-06-17T17:22:34Z</time>
      </trkpt>
      <trkpt lat="49.50302" lon="0.1652">
        <ele>39.1</ele>
        <time>2020-06-17T17:22:35Z</time>
      </trkpt>
      <trkpt lat="49.50302" lon="0.16522">
        <ele>39.1</ele>
        <time>2020-06-17T17:22:36Z</time>
      </trkpt>
      <trkpt lat="49.50301" lon="0.16524">
        <ele>39.1</ele>
        <time>2020-06-17T17:22:37Z</time>
      </trkpt>
      <trkpt lat="49.50301" lon="0.16525">
        <ele>39.2</ele>
        <time>2020-06-17T17:22:38Z</time>
      </trkpt>
      <trkpt lat="49.50301" lon="0.16526">
        <ele>39.2</ele>
        <time>2020-06-17T17:22:39Z</time>
      </trkpt>
      <trkpt lat="49.503" lon="0.16527">
        <ele>39.2</ele>
        <time>2020-06-17T17:22:40Z</time>
      </trkpt>
      <trkpt lat="49.503" lon="0.16529">
        <ele>39.2</ele>
        <time>2020-06-17T17:22:41Z</time>
      </trkpt>
      <trkpt lat="49.503" lon="0.16531">
        <ele>39.2</ele>
        <time>2020-06-17T17:22:42Z</time>
      </trkpt>
      <trkpt lat="49.503" lon="0.16533">
        <ele>39.2</ele>
        <time>2020-06-17T17:22:43Z</time>
      </trkpt>
      <trkpt lat="49.503" lon="0.16534">
        <ele>39.3</ele>
        <time>2020-06-17T17:22:44Z</time>
      </trkpt>
      <trkpt lat="49.50299" lon="0.16536">
        <ele>39.3</ele>
        <time>2020-06-17T17:22:45Z</time>
      </trkpt>
      <trkpt lat="49.50299" lon="0.16537">
        <ele>39.3</ele>
        <time>2020-06-17T17:22:46Z</time>
      </trkpt>
      <trkpt lat="49.50299" lon="0.1654">
        <ele>39.4</ele>
        <time>2020-06-17T17:22:47Z</time>
      </trkpt>
      <trkpt lat="49.50299" lon="0.16543">
        <ele>39.4</ele>
        <time>2020-06-17T17:22:48Z</time>
      </trkpt>
      <trkpt lat="49.50299" lon="0.16545">
        <ele>39.5</ele>
        <time>2020-06-17T17:22:49Z</time>
      </trkpt>
      <trkpt lat="49.50298" lon="0.16549">
        <ele>39.6</ele>
        <time>2020-06-17T17:22:50Z</time>
      </trkpt>
      <trkpt lat="49.50298" lon="0.1655">
        <ele>39.7</ele>
        <time>2020-06-17T17:22:51Z</time>
      </trkpt>
      <trkpt lat="49.50298" lon="0.16551">
        <ele>39.7</ele>
        <time>2020-06-17T17:22:52Z</time>
      </trkpt>
      <trkpt lat="49.50297" lon="0.16553">
        <ele>39.8</ele>
        <time>2020-06-17T17:22:53Z</time>
      </trkpt>
      <trkpt lat="49.50297" lon="0.16555">
        <ele>39.9</ele>
        <time>2020-06-17T17:22:54Z</time>
      </trkpt>
      <trkpt lat="49.50297" lon="0.16559">
        <ele>40.1</ele>
        <time>2020-06-17T17:22:55Z</time>
      </trkpt>
      <trkpt lat="49.50297" lon="0.16561">
        <ele>40.3</ele>
        <time>2020-06-17T17:22:56Z</time>
      </trkpt>
      <trkpt lat="49.50297" lon="0.16564">
        <ele>40.4</ele>
        <time>2020-06-17T17:22:57Z</time>
      </trkpt>
      <trkpt lat="49.50297" lon="0.16567">
        <ele>40.6</ele>
        <time>2020-06-17T17:22:58Z</time>
      </trkpt>
      <trkpt lat="49.50297" lon="0.16568">
        <ele>40.7</ele>
        <time>2020-06-17T17:22:59Z</time>
      </trkpt>
      <trkpt lat="49.50297" lon="0.1657">
        <ele>40.9</ele>
        <time>2020-06-17T17:23:00Z</time>
      </trkpt>
      <trkpt lat="49.50296" lon="0.16572">
        <ele>41</ele>
        <time>2020-06-17T17:23:01Z</time>
      </trkpt>
      <trkpt lat="49.50296" lon="0.16573">
        <ele>41.1</ele>
        <time>2020-06-17T17:23:02Z</time>
      </trkpt>
      <trkpt lat="49.50296" lon="0.16575">
        <ele>41.2</ele>
        <time>2020-06-17T17:23:03Z</time>
      </trkpt>
      <trkpt lat="49.50296" lon="0.16577">
        <ele>41.4</ele>
        <time>2020-06-17T17:23:04Z</time>
      </trkpt>
      <trkpt lat="49.50295" lon="0.16579">
        <ele>41.6</ele>
        <time>2020-06-17T17:23:05Z</time>
      </trkpt>
      <trkpt lat="49.50295" lon="0.16581">
        <ele>41.7</ele>
        <time>2020-06-17T17:23:06Z</time>
      </trkpt>
      <trkpt lat="49.50296" lon="0.16583">
        <ele>41.8</ele>
        <time>2020-06-17T17:23:07Z</time>
      </trkpt>
      <trkpt lat="49.50296" lon="0.16584">
        <ele>41.9</ele>
        <time>2020-06-17T17:23:08Z</time>
      </trkpt>
      <trkpt lat="49.50296" lon="0.16586">
        <ele>42.1</ele>
        <time>2020-06-17T17:23:09Z</time>
      </trkpt>
      <trkpt lat="49.50295" lon="0.16591">
        <ele>42.4</ele>
        <time>2020-06-17T17:23:10Z</time>
      </trkpt>
      <trkpt lat="49.50294" lon="0.16592">
        <ele>42.6</ele>
        <time>2020-06-17T17:23:11Z</time>
      </trkpt>
      <trkpt lat="49.50293" lon="0.16597">
        <ele>43</ele>
        <time>2020-06-17T17:23:12Z</time>
      </trkpt>
      <trkpt lat="49.50293" lon="0.16598">
        <ele>43</ele>
        <time>2020-06-17T17:23:13Z</time>
      </trkpt>
      <trkpt lat="49.50293" lon="0.16601">
        <ele>43.3</ele>
        <time>2020-06-17T17:23:14Z</time>
      </trkpt>
      <trkpt lat="49.50293" lon="0.16604">
        <ele>43.5</ele>
        <time>2020-06-17T17:23:15Z</time>
      </trkpt>
      <trkpt lat="49.50293" lon="0.16606">
        <ele>43.7</ele>
        <time>2020-06-17T17:23:16Z</time>
      </trkpt>
      <trkpt lat="49.50294" lon="0.16609">
        <ele>43.9</ele>
        <time>2020-06-17T17:23:17Z</time>
      </trkpt>
      <trkpt lat="49.50294" lon="0.16611">
        <ele>44</ele>
        <time>2020-06-17T17:23:18Z</time>
      </trkpt>
      <trkpt lat="49.50294" lon="0.16612">
        <ele>44.2</ele>
        <time>2020-06-17T17:23:19Z</time>
      </trkpt>
      <trkpt lat="49.50295" lon="0.16615">
        <ele>44.3</ele>
        <time>2020-06-17T17:23:20Z</time>
      </trkpt>
      <trkpt lat="49.50296" lon="0.16618">
        <ele>44.6</ele>
        <time>2020-06-17T17:23:21Z</time>
      </trkpt>
      <trkpt lat="49.50296" lon="0.16619">
        <ele>44.7</ele>
        <time>2020-06-17T17:23:22Z</time>
      </trkpt>
      <trkpt lat="49.50296" lon="0.16621">
        <ele>44.8</ele>
        <time>2020-06-17T17:23:23Z</time>
      </trkpt>
      <trkpt lat="49.50297" lon="0.16624">
        <ele>45.1</ele>
        <time>2020-06-17T17:23:24Z</time>
      </trkpt>
      <trkpt lat="49.50297" lon="0.16625">
        <ele>45.2</ele>
        <time>2020-06-17T17:23:25Z</time>
      </trkpt>
      <trkpt lat="49.50298" lon="0.16627">
        <ele>45.2</ele>
        <time>2020-06-17T17:23:26Z</time>
      </trkpt>
      <trkpt lat="49.50298" lon="0.16628">
        <ele>45.4</ele>
        <time>2020-06-17T17:23:27Z</time>
      </trkpt>
      <trkpt lat="49.50299" lon="0.16628">
        <ele>45.4</ele>
        <time>2020-06-17T17:23:28Z</time>
      </trkpt>
      <trkpt lat="49.50299" lon="0.16629">
        <ele>45.5</ele>
        <time>2020-06-17T17:23:29Z</time>
      </trkpt>
      <trkpt lat="49.50299" lon="0.16629">
        <ele>45.5</ele>
        <time>2020-06-17T17:23:30Z</time>
      </trkpt>
      <trkpt lat="49.503" lon="0.16631">
        <ele>45.7</ele>
        <time>2020-06-17T17:23:31Z</time>
      </trkpt>
      <trkpt lat="49.50301" lon="0.16632">
        <ele>45.8</ele>
        <time>2020-06-17T17:23:32Z</time>
      </trkpt>
      <trkpt lat="49.50301" lon="0.16633">
        <ele>45.9</ele>
        <time>2020-06-17T17:23:33Z</time>
      </trkpt>
      <trkpt lat="49.50302" lon="0.16634">
        <ele>46</ele>
        <time>2020-06-17T17:23:34Z</time>
      </trkpt>
      <trkpt lat="49.50302" lon="0.16634">
        <ele>46.1</ele>
        <time>2020-06-17T17:23:35Z</time>
      </trkpt>
      <trkpt lat="49.50303" lon="0.16635">
        <ele>46.1</ele>
        <time>2020-06-17T17:23:36Z</time>
      </trkpt>
      <trkpt lat="49.50304" lon="0.16636">
        <ele>46.3</ele>
        <time>2020-06-17T17:23:37Z</time>
      </trkpt>
      <trkpt lat="49.50306" lon="0.16637">
        <ele>46.5</ele>
        <time>2020-06-17T17:23:38Z</time>
      </trkpt>
      <trkpt lat="49.50307" lon="0.16638">
        <ele>46.7</ele>
        <time>2020-06-17T17:23:39Z</time>
      </trkpt>
      <trkpt lat="49.50308" lon="0.1664">
        <ele>46.9</ele>
        <time>2020-06-17T17:23:40Z</time>
      </trkpt>
      <trkpt lat="49.50309" lon="0.16642">
        <ele>47.1</ele>
        <time>2020-06-17T17:23:41Z</time>
      </trkpt>
      <trkpt lat="49.5031" lon="0.16643">
        <ele>47.2</ele>
        <time>2020-06-17T17:23:42Z</time>
      </trkpt>
      <trkpt lat="49.5031" lon="0.16643">
        <ele>47.3</ele>
        <time>2020-06-17T17:23:43Z</time>
      </trkpt>
      <trkpt lat="49.5031" lon="0.16644">
        <ele>47.4</ele>
        <time>2020-06-17T17:23:44Z</time>
      </trkpt>
      <trkpt lat="49.50311" lon="0.16645">
        <ele>47.5</ele>
        <time>2020-06-17T17:23:45Z</time>
      </trkpt>
      <trkpt lat="49.50311" lon="0.16646">
        <ele>47.6</ele>
        <time>2020-06-17T17:23:46Z</time>
      </trkpt>
      <trkpt lat="49.50311" lon="0.16647">
        <ele>47.7</ele>
        <time>2020-06-17T17:23:47Z</time>
      </trkpt>
      <trkpt lat="49.50312" lon="0.16648">
        <ele>47.8</ele>
        <time>2020-06-17T17:23:48Z</time>
      </trkpt>
      <trkpt lat="49.50312" lon="0.16648">
        <ele>47.8</ele>
        <time>2020-06-17T17:23:49Z</time>
      </trkpt>
      <trkpt lat="49.50312" lon="0.16649">
        <ele>47.9</ele>
        <time>2020-06-17T17:23:50Z</time>
      </trkpt>
      <trkpt lat="49.50312" lon="0.1665">
        <ele>48</ele>
        <time>2020-06-17T17:23:51Z</time>
      </trkpt>
      <trkpt lat="49.50313" lon="0.1665">
        <ele>48.1</ele>
        <time>2020-06-17T17:23:52Z</time>
      </trkpt>
      <trkpt lat="49.50314" lon="0.16651">
        <ele>48.3</ele>
        <time>2020-06-17T17:23:53Z</time>
      </trkpt>
      <trkpt lat="49.50314" lon="0.16651">
        <ele>48.3</ele>
        <time>2020-06-17T17:23:54Z</time>
      </trkpt>
      <trkpt lat="49.50314" lon="0.1665">
        <ele>48.4</ele>
        <time>2020-06-17T17:23:55Z</time>
      </trkpt>
      <trkpt lat="49.50314" lon="0.1665">
        <ele>48.4</ele>
        <time>2020-06-17T17:23:56Z</time>
      </trkpt>
      <trkpt lat="49.50314" lon="0.1665">
        <ele>48.4</ele>
        <time>2020-06-17T17:23:57Z</time>
      </trkpt>
      <trkpt lat="49.50315" lon="0.1665">
        <ele>48.5</ele>
        <time>2020-06-17T17:23:58Z</time>
      </trkpt>
      <trkpt lat="49.50315" lon="0.16651">
        <ele>48.6</ele>
        <time>2020-06-17T17:23:59Z</time>
      </trkpt>
      <trkpt lat="49.50315" lon="0.16651">
        <ele>48.6</ele>
        <time>2020-06-17T17:24:00Z</time>
      </trkpt>
      <trkpt lat="49.50316" lon="0.16651">
        <ele>48.7</ele>
        <time>2020-06-17T17:24:01Z</time>
      </trkpt>
      <trkpt lat="49.50317" lon="0.16651">
        <ele>48.8</ele>
        <time>2020-06-17T17:24:02Z</time>
      </trkpt>
      <trkpt lat="49.50317" lon="0.16651">
        <ele>48.9</ele>
        <time>2020-06-17T17:24:03Z</time>
      </trkpt>
      <trkpt lat="49.50318" lon="0.1665">
        <ele>49</ele>
        <time>2020-06-17T17:24:04Z</time>
      </trkpt>
      <trkpt lat="49.5032" lon="0.16652">
        <ele>49.3</ele>
        <time>2020-06-17T17:24:05Z</time>
      </trkpt>
      <trkpt lat="49.50321" lon="0.16653">
        <ele>49.6</ele>
        <time>2020-06-17T17:24:06Z</time>
      </trkpt>
      <trkpt lat="49.50322" lon="0.16655">
        <ele>49.8</ele>
        <time>2020-06-17T17:24:07Z</time>
      </trkpt>
      <trkpt lat="49.50323" lon="0.16657">
        <ele>50.1</ele>
        <time>2020-06-17T17:24:08Z</time>
      </trkpt>
      <trkpt lat="49.50324" lon="0.16657">
        <ele>50.2</ele>
        <time>2020-06-17T17:24:09Z</time>
      </trkpt>
      <trkpt lat="49.50324" lon="0.16657">
        <ele>50.2</ele>
        <time>2020-06-17T17:24:10Z</time>
      </trkpt>
      <trkpt lat="49.50325" lon="0.16658">
        <ele>50.3</ele>
        <time>2020-06-17T17:24:11Z</time>
      </trkpt>
      <trkpt lat="49.50325" lon="0.16658">
        <ele>50.4</ele>
        <time>2020-06-17T17:24:12Z</time>
      </trkpt>
      <trkpt lat="49.50326" lon="0.16658">
        <ele>50.5</ele>
        <time>2020-06-17T17:24:13Z</time>
      </trkpt>
      <trkpt lat="49.50327" lon="0.16658">
        <ele>50.6</ele>
        <time>2020-06-17T17:24:14Z</time>
      </trkpt>
      <trkpt lat="49.50329" lon="0.16658">
        <ele>50.9</ele>
        <time>2020-06-17T17:24:15Z</time>
      </trkpt>
      <trkpt lat="49.5033" lon="0.16658">
        <ele>51.1</ele>
        <time>2020-06-17T17:24:16Z</time>
      </trkpt>
      <trkpt lat="49.50331" lon="0.16659">
        <ele>51.2</ele>
        <time>2020-06-17T17:24:17Z</time>
      </trkpt>
      <trkpt lat="49.50331" lon="0.16659">
        <ele>51.3</ele>
        <time>2020-06-17T17:24:18Z</time>
      </trkpt>
      <trkpt lat="49.50332" lon="0.16658">
        <ele>51.4</ele>
        <time>2020-06-17T17:24:19Z</time>
      </trkpt>
      <trkpt lat="49.50332" lon="0.16658">
        <ele>51.4</ele>
        <time>2020-06-17T17:24:20Z</time>
      </trkpt>
      <trkpt lat="49.50333" lon="0.16658">
        <ele>51.6</ele>
        <time>2020-06-17T17:24:21Z</time>
      </trkpt>
      <trkpt lat="49.50333" lon="0.16658">
        <ele>51.6</ele>
        <time>2020-06-17T17:24:22Z</time>
      </trkpt>
      <trkpt lat="49.50334" lon="0.16659">
        <ele>51.6</ele>
        <time>2020-06-17T17:24:23Z</time>
      </trkpt>
      <trkpt lat="49.50334" lon="0.16658">
        <ele>51.7</ele>
        <time>2020-06-17T17:24:24Z</time>
      </trkpt>
      <trkpt lat="49.50334" lon="0.16658">
        <ele>51.7</ele>
        <time>2020-06-17T17:24:25Z</time>
      </trkpt>
      <trkpt lat="49.50334" lon="0.16658">
        <ele>51.7</ele>
        <time>2020-06-17T17:24:26Z</time>
      </trkpt>
      <trkpt lat="49.50334" lon="0.16658">
        <ele>51.7</ele>
        <time>2020-06-17T17:24:27Z</time>
      </trkpt>
      <trkpt lat="49.50334" lon="0.16658">
        <ele>51.7</ele>
        <time>2020-06-17T17:24:28Z</time>
      </trkpt>
      <trkpt lat="49.50334" lon="0.16658">
        <ele>51.8</ele>
        <time>2020-06-17T17:24:29Z</time>
      </trkpt>
      <trkpt lat="49.50335" lon="0.16658">
        <ele>51.8</ele>
        <time>2020-06-17T17:24:30Z</time>
      </trkpt>
      <trkpt lat="49.50336" lon="0.16659">
        <ele>52</ele>
        <time>2020-06-17T17:24:31Z</time>
      </trkpt>
      <trkpt lat="49.50336" lon="0.16659">
        <ele>52</ele>
        <time>2020-06-17T17:24:32Z</time>
      </trkpt>
      <trkpt lat="49.50337" lon="0.16659">
        <ele>52.1</ele>
        <time>2020-06-17T17:24:33Z</time>
      </trkpt>
      <trkpt lat="49.50337" lon="0.16659">
        <ele>52.2</ele>
        <time>2020-06-17T17:24:34Z</time>
      </trkpt>
      <trkpt lat="49.50338" lon="0.1666">
        <ele>52.2</ele>
        <time>2020-06-17T17:24:35Z</time>
      </trkpt>
      <trkpt lat="49.50338" lon="0.16659">
        <ele>52.2</ele>
        <time>2020-06-17T17:24:36Z</time>
      </trkpt>
      <trkpt lat="49.50338" lon="0.1666">
        <ele>52.2</ele>
        <time>2020-06-17T17:24:37Z</time>
      </trkpt>
      <trkpt lat="49.50338" lon="0.1666">
        <ele>52.3</ele>
        <time>2020-06-17T17:24:38Z</time>
      </trkpt>
      <trkpt lat="49.50338" lon="0.16661">
        <ele>52.3</ele>
        <time>2020-06-17T17:24:39Z</time>
      </trkpt>
      <trkpt lat="49.50338" lon="0.16661">
        <ele>52.4</ele>
        <time>2020-06-17T17:24:40Z</time>
      </trkpt>
      <trkpt lat="49.50339" lon="0.16661">
        <ele>52.4</ele>
        <time>2020-06-17T17:24:41Z</time>
      </trkpt>
      <trkpt lat="49.50339" lon="0.16663">
        <ele>52.5</ele>
        <time>2020-06-17T17:24:42Z</time>
      </trkpt>
      <trkpt lat="49.50339" lon="0.16665">
        <ele>52.6</ele>
        <time>2020-06-17T17:24:43Z</time>
      </trkpt>
      <trkpt lat="49.5034" lon="0.16666">
        <ele>52.8</ele>
        <time>2020-06-17T17:24:44Z</time>
      </trkpt>
      <trkpt lat="49.5034" lon="0.16667">
        <ele>52.9</ele>
        <time>2020-06-17T17:24:45Z</time>
      </trkpt>
      <trkpt lat="49.5034" lon="0.16668">
        <ele>52.9</ele>
        <time>2020-06-17T17:24:46Z</time>
      </trkpt>
      <trkpt lat="49.5034" lon="0.16669">
        <ele>53</ele>
        <time>2020-06-17T17:24:47Z</time>
      </trkpt>
      <trkpt lat="49.5034" lon="0.16669">
        <ele>53</ele>
        <time>2020-06-17T17:24:48Z</time>
      </trkpt>
      <trkpt lat="49.5034" lon="0.16669">
        <ele>53</ele>
        <time>2020-06-17T17:24:49Z</time>
      </trkpt>
      <trkpt lat="49.5034" lon="0.16669">
        <ele>53</ele>
        <time>2020-06-17T17:24:50Z</time>
      </trkpt>
      <trkpt lat="49.5034" lon="0.16669">
        <ele>53</ele>
        <time>2020-06-17T17:24:51Z</time>
      </trkpt>
      <trkpt lat="49.5034" lon="0.16669">
        <ele>53</ele>
        <time>2020-06-17T17:24:52Z</time>
      </trkpt>
      <trkpt lat="49.5034" lon="0.16669">
        <ele>53</ele>
        <time>2020-06-17T17:24:53Z</time>
      </trkpt>
      <trkpt lat="49.5034" lon="0.1667">
        <ele>53</ele>
        <time>2020-06-17T17:24:54Z</time>
      </trkpt>
      <trkpt lat="49.5034" lon="0.1667">
        <ele>53</ele>
        <time>2020-06-17T17:24:55Z</time>
      </trkpt>
      <trkpt lat="49.5034" lon="0.1667">
        <ele>53</ele>
        <time>2020-06-17T17:24:56Z</time>
      </trkpt>
      <trkpt lat="49.5034" lon="0.1667">
        <ele>53</ele>
        <time>2020-06-17T17:24:57Z</time>
      </trkpt>
      <trkpt lat="49.50345" lon="0.16679">
        <ele>53.7</ele>
        <time>2020-06-17T17:25:22Z</time>
      </trkpt>
      <trkpt lat="49.50346" lon="0.16681">
        <ele>53.8</ele>
        <time>2020-06-17T17:25:23Z</time>
      </trkpt>
      <trkpt lat="49.50346" lon="0.16686">
        <ele>54</ele>
        <time>2020-06-17T17:25:24Z</time>
      </trkpt>
      <trkpt lat="49.50346" lon="0.16688">
        <ele>54.1</ele>
        <time>2020-06-17T17:25:25Z</time>
      </trkpt>
      <trkpt lat="49.50347" lon="0.16692">
        <ele>55.4</ele>
        <time>2020-06-17T17:25:26Z</time>
      </trkpt>
      <trkpt lat="49.50348" lon="0.16694">
        <ele>55.7</ele>
        <time>2020-06-17T17:25:27Z</time>
      </trkpt>
      <trkpt lat="49.50349" lon="0.16698">
        <ele>56.1</ele>
        <time>2020-06-17T17:25:28Z</time>
      </trkpt>
      <trkpt lat="49.50349" lon="0.167">
        <ele>56.3</ele>
        <time>2020-06-17T17:25:29Z</time>
      </trkpt>
      <trkpt lat="49.50349" lon="0.16702">
        <ele>56.5</ele>
        <time>2020-06-17T17:25:30Z</time>
      </trkpt>
      <trkpt lat="49.5035" lon="0.16704">
        <ele>56.7</ele>
        <time>2020-06-17T17:25:31Z</time>
      </trkpt>
      <trkpt lat="49.5035" lon="0.16706">
        <ele>56.9</ele>
        <time>2020-06-17T17:25:32Z</time>
      </trkpt>
      <trkpt lat="49.50351" lon="0.16708">
        <ele>57.1</ele>
        <time>2020-06-17T17:25:33Z</time>
      </trkpt>
      <trkpt lat="49.50352" lon="0.1671">
        <ele>57.4</ele>
        <time>2020-06-17T17:25:34Z</time>
      </trkpt>
      <trkpt lat="49.50354" lon="0.16711">
        <ele>57.6</ele>
        <time>2020-06-17T17:25:35Z</time>
      </trkpt>
      <trkpt lat="49.50355" lon="0.16713">
        <ele>57.9</ele>
        <time>2020-06-17T17:25:36Z</time>
      </trkpt>
      <trkpt lat="49.50356" lon="0.16714">
        <ele>58</ele>
        <time>2020-06-17T17:25:37Z</time>
      </trkpt>
      <trkpt lat="49.50356" lon="0.16715">
        <ele>58.1</ele>
        <time>2020-06-17T17:25:38Z</time>
      </trkpt>
      <trkpt lat="49.50357" lon="0.16717">
        <ele>58.3</ele>
        <time>2020-06-17T17:25:39Z</time>
      </trkpt>
      <trkpt lat="49.50358" lon="0.1672">
        <ele>58.6</ele>
        <time>2020-06-17T17:25:40Z</time>
      </trkpt>
      <trkpt lat="49.50358" lon="0.16723">
        <ele>58.9</ele>
        <time>2020-06-17T17:25:41Z</time>
      </trkpt>
      <trkpt lat="49.50359" lon="0.16725">
        <ele>59.1</ele>
        <time>2020-06-17T17:25:42Z</time>
      </trkpt>
      <trkpt lat="49.50359" lon="0.16729">
        <ele>59.4</ele>
        <time>2020-06-17T17:25:43Z</time>
      </trkpt>
      <trkpt lat="49.50359" lon="0.1673">
        <ele>59.5</ele>
        <time>2020-06-17T17:25:44Z</time>
      </trkpt>
      <trkpt lat="49.50359" lon="0.16732">
        <ele>59.7</ele>
        <time>2020-06-17T17:25:45Z</time>
      </trkpt>
      <trkpt lat="49.50359" lon="0.16735">
        <ele>60</ele>
        <time>2020-06-17T17:25:46Z</time>
      </trkpt>
      <trkpt lat="49.5036" lon="0.16736">
        <ele>60.1</ele>
        <time>2020-06-17T17:25:47Z</time>
      </trkpt>
      <trkpt lat="49.5036" lon="0.16738">
        <ele>60.2</ele>
        <time>2020-06-17T17:25:48Z</time>
      </trkpt>
      <trkpt lat="49.50361" lon="0.16741">
        <ele>60.5</ele>
        <time>2020-06-17T17:25:49Z</time>
      </trkpt>
      <trkpt lat="49.50362" lon="0.16742">
        <ele>60.6</ele>
        <time>2020-06-17T17:25:50Z</time>
      </trkpt>
      <trkpt lat="49.50362" lon="0.16743">
        <ele>60.7</ele>
        <time>2020-06-17T17:25:51Z</time>
      </trkpt>
      <trkpt lat="49.50362" lon="0.16745">
        <ele>60.9</ele>
        <time>2020-06-17T17:25:52Z</time>
      </trkpt>
      <trkpt lat="49.50362" lon="0.16747">
        <ele>61.1</ele>
        <time>2020-06-17T17:25:53Z</time>
      </trkpt>
      <trkpt lat="49.50361" lon="0.16749">
        <ele>61.3</ele>
        <time>2020-06-17T17:25:54Z</time>
      </trkpt>
      <trkpt lat="49.50361" lon="0.16752">
        <ele>61.6</ele>
        <time>2020-06-17T17:25:55Z</time>
      </trkpt>
      <trkpt lat="49.50361" lon="0.16755">
        <ele>61.8</ele>
        <time>2020-06-17T17:25:56Z</time>
      </trkpt>
      <trkpt lat="49.5036" lon="0.16757">
        <ele>62</ele>
        <time>2020-06-17T17:25:57Z</time>
      </trkpt>
      <trkpt lat="49.50359" lon="0.1676">
        <ele>62.3</ele>
        <time>2020-06-17T17:25:58Z</time>
      </trkpt>
      <trkpt lat="49.50359" lon="0.16761">
        <ele>62.4</ele>
        <time>2020-06-17T17:25:59Z</time>
      </trkpt>
      <trkpt lat="49.50359" lon="0.16763">
        <ele>62.5</ele>
        <time>2020-06-17T17:26:00Z</time>
      </trkpt>
      <trkpt lat="49.50359" lon="0.16765">
        <ele>62.7</ele>
        <time>2020-06-17T17:26:01Z</time>
      </trkpt>
      <trkpt lat="49.50359" lon="0.16768">
        <ele>63</ele>
        <time>2020-06-17T17:26:02Z</time>
      </trkpt>
      <trkpt lat="49.50359" lon="0.16771">
        <ele>63.2</ele>
        <time>2020-06-17T17:26:03Z</time>
      </trkpt>
      <trkpt lat="49.50359" lon="0.16773">
        <ele>63.4</ele>
        <time>2020-06-17T17:26:04Z</time>
      </trkpt>
      <trkpt lat="49.50359" lon="0.16776">
        <ele>63.7</ele>
        <time>2020-06-17T17:26:05Z</time>
      </trkpt>
      <trkpt lat="49.50359" lon="0.16778">
        <ele>63.9</ele>
        <time>2020-06-17T17:26:06Z</time>
      </trkpt>
      <trkpt lat="49.5036" lon="0.16781">
        <ele>64.2</ele>
        <time>2020-06-17T17:26:07Z</time>
      </trkpt>
      <trkpt lat="49.5036" lon="0.16783">
        <ele>64.4</ele>
        <time>2020-06-17T17:26:08Z</time>
      </trkpt>
      <trkpt lat="49.50362" lon="0.16784">
        <ele>64.6</ele>
        <time>2020-06-17T17:26:09Z</time>
      </trkpt>
      <trkpt lat="49.50363" lon="0.16784">
        <ele>64.7</ele>
        <time>2020-06-17T17:26:10Z</time>
      </trkpt>
      <trkpt lat="49.50364" lon="0.16785">
        <ele>64.8</ele>
        <time>2020-06-17T17:26:11Z</time>
      </trkpt>
      <trkpt lat="49.50366" lon="0.16786">
        <ele>65.1</ele>
        <time>2020-06-17T17:26:12Z</time>
      </trkpt>
      <trkpt lat="49.50367" lon="0.16785">
        <ele>65.3</ele>
        <time>2020-06-17T17:26:13Z</time>
      </trkpt>
      <trkpt lat="49.50368" lon="0.16785">
        <ele>65.4</ele>
        <time>2020-06-17T17:26:14Z</time>
      </trkpt>
      <trkpt lat="49.50369" lon="0.16785">
        <ele>66.1</ele>
        <time>2020-06-17T17:26:15Z</time>
      </trkpt>
      <trkpt lat="49.5037" lon="0.16783">
        <ele>66.3</ele>
        <time>2020-06-17T17:26:16Z</time>
      </trkpt>
      <trkpt lat="49.50371" lon="0.16782">
        <ele>66.4</ele>
        <time>2020-06-17T17:26:17Z</time>
      </trkpt>
      <trkpt lat="49.50373" lon="0.16781">
        <ele>66.6</ele>
        <time>2020-06-17T17:26:18Z</time>
      </trkpt>
      <trkpt lat="49.50374" lon="0.1678">
        <ele>66.8</ele>
        <time>2020-06-17T17:26:19Z</time>
      </trkpt>
      <trkpt lat="49.50376" lon="0.16781">
        <ele>67</ele>
        <time>2020-06-17T17:26:20Z</time>
      </trkpt>
      <trkpt lat="49.50377" lon="0.1678">
        <ele>67.1</ele>
        <time>2020-06-17T17:26:21Z</time>
      </trkpt>
      <trkpt lat="49.50379" lon="0.16779">
        <ele>67.3</ele>
        <time>2020-06-17T17:26:22Z</time>
      </trkpt>
      <trkpt lat="49.5038" lon="0.16778">
        <ele>67.5</ele>
        <time>2020-06-17T17:26:23Z</time>
      </trkpt>
      <trkpt lat="49.50381" lon="0.16776">
        <ele>67.6</ele>
        <time>2020-06-17T17:26:24Z</time>
      </trkpt>
      <trkpt lat="49.50382" lon="0.16775">
        <ele>67.8</ele>
        <time>2020-06-17T17:26:25Z</time>
      </trkpt>
      <trkpt lat="49.50383" lon="0.16773">
        <ele>68</ele>
        <time>2020-06-17T17:26:26Z</time>
      </trkpt>
      <trkpt lat="49.50384" lon="0.16773">
        <ele>68</ele>
        <time>2020-06-17T17:26:27Z</time>
      </trkpt>
      <trkpt lat="49.50385" lon="0.16771">
        <ele>68.2</ele>
        <time>2020-06-17T17:26:28Z</time>
      </trkpt>
      <trkpt lat="49.50385" lon="0.16769">
        <ele>68.4</ele>
        <time>2020-06-17T17:26:29Z</time>
      </trkpt>
      <trkpt lat="49.50385" lon="0.16766">
        <ele>68.6</ele>
        <time>2020-06-17T17:26:30Z</time>
      </trkpt>
      <trkpt lat="49.50385" lon="0.16764">
        <ele>68.7</ele>
        <time>2020-06-17T17:26:31Z</time>
      </trkpt>
      <trkpt lat="49.50385" lon="0.16763">
        <ele>68.9</ele>
        <time>2020-06-17T17:26:32Z</time>
      </trkpt>
      <trkpt lat="49.50387" lon="0.16761">
        <ele>69.1</ele>
        <time>2020-06-17T17:26:33Z</time>
      </trkpt>
      <trkpt lat="49.50387" lon="0.16758">
        <ele>69.3</ele>
        <time>2020-06-17T17:26:34Z</time>
      </trkpt>
      <trkpt lat="49.50388" lon="0.16754">
        <ele>69.6</ele>
        <time>2020-06-17T17:26:35Z</time>
      </trkpt>
      <trkpt lat="49.50388" lon="0.16753">
        <ele>69.7</ele>
        <time>2020-06-17T17:26:36Z</time>
      </trkpt>
      <trkpt lat="49.50389" lon="0.1675">
        <ele>70</ele>
        <time>2020-06-17T17:26:37Z</time>
      </trkpt>
      <trkpt lat="49.50389" lon="0.16748">
        <ele>70.2</ele>
        <time>2020-06-17T17:26:38Z</time>
      </trkpt>
      <trkpt lat="49.5039" lon="0.16744">
        <ele>70.5</ele>
        <time>2020-06-17T17:26:39Z</time>
      </trkpt>
      <trkpt lat="49.5039" lon="0.16742">
        <ele>70.6</ele>
        <time>2020-06-17T17:26:40Z</time>
      </trkpt>
      <trkpt lat="49.50391" lon="0.16739">
        <ele>70.8</ele>
        <time>2020-06-17T17:26:41Z</time>
      </trkpt>
      <trkpt lat="49.50391" lon="0.16737">
        <ele>71</ele>
        <time>2020-06-17T17:26:42Z</time>
      </trkpt>
      <trkpt lat="49.50392" lon="0.16733">
        <ele>71.3</ele>
        <time>2020-06-17T17:26:43Z</time>
      </trkpt>
      <trkpt lat="49.50393" lon="0.16732">
        <ele>71.4</ele>
        <time>2020-06-17T17:26:44Z</time>
      </trkpt>
      <trkpt lat="49.50395" lon="0.16728">
        <ele>71.7</ele>
        <time>2020-06-17T17:26:45Z</time>
      </trkpt>
      <trkpt lat="49.50395" lon="0.16727">
        <ele>71.8</ele>
        <time>2020-06-17T17:26:46Z</time>
      </trkpt>
      <trkpt lat="49.50396" lon="0.16725">
        <ele>72</ele>
        <time>2020-06-17T17:26:47Z</time>
      </trkpt>
      <trkpt lat="49.50397" lon="0.16723">
        <ele>72.2</ele>
        <time>2020-06-17T17:26:48Z</time>
      </trkpt>
      <trkpt lat="49.50397" lon="0.1672">
        <ele>72.4</ele>
        <time>2020-06-17T17:26:49Z</time>
      </trkpt>
      <trkpt lat="49.50398" lon="0.16717">
        <ele>72.5</ele>
        <time>2020-06-17T17:26:50Z</time>
      </trkpt>
      <trkpt lat="49.50398" lon="0.16714">
        <ele>72.8</ele>
        <time>2020-06-17T17:26:51Z</time>
      </trkpt>
      <trkpt lat="49.50397" lon="0.16712">
        <ele>72.9</ele>
        <time>2020-06-17T17:26:52Z</time>
      </trkpt>
      <trkpt lat="49.50397" lon="0.16707">
        <ele>73.2</ele>
        <time>2020-06-17T17:26:53Z</time>
      </trkpt>
      <trkpt lat="49.50398" lon="0.16703">
        <ele>73.5</ele>
        <time>2020-06-17T17:26:54Z</time>
      </trkpt>
      <trkpt lat="49.50398" lon="0.16702">
        <ele>73.6</ele>
        <time>2020-06-17T17:26:55Z</time>
      </trkpt>
      <trkpt lat="49.50399" lon="0.16697">
        <ele>73.9</ele>
        <time>2020-06-17T17:26:56Z</time>
      </trkpt>
      <trkpt lat="49.50399" lon="0.16696">
        <ele>74</ele>
        <time>2020-06-17T17:26:57Z</time>
      </trkpt>
      <trkpt lat="49.504" lon="0.16692">
        <ele>74.3</ele>
        <time>2020-06-17T17:26:58Z</time>
      </trkpt>
      <trkpt lat="49.504" lon="0.16691">
        <ele>74.4</ele>
        <time>2020-06-17T17:26:59Z</time>
      </trkpt>
      <trkpt lat="49.50401" lon="0.16689">
        <ele>74.6</ele>
        <time>2020-06-17T17:27:00Z</time>
      </trkpt>
      <trkpt lat="49.50401" lon="0.16686">
        <ele>74.8</ele>
        <time>2020-06-17T17:27:01Z</time>
      </trkpt>
      <trkpt lat="49.50401" lon="0.16684">
        <ele>75</ele>
        <time>2020-06-17T17:27:02Z</time>
      </trkpt>
      <trkpt lat="49.50401" lon="0.16681">
        <ele>75.1</ele>
        <time>2020-06-17T17:27:03Z</time>
      </trkpt>
      <trkpt lat="49.50401" lon="0.16678">
        <ele>75.3</ele>
        <time>2020-06-17T17:27:04Z</time>
      </trkpt>
      <trkpt lat="49.50401" lon="0.16675">
        <ele>75.5</ele>
        <time>2020-06-17T17:27:05Z</time>
      </trkpt>
      <trkpt lat="49.50401" lon="0.16673">
        <ele>75.7</ele>
        <time>2020-06-17T17:27:06Z</time>
      </trkpt>
      <trkpt lat="49.50401" lon="0.1667">
        <ele>75.8</ele>
        <time>2020-06-17T17:27:07Z</time>
      </trkpt>
      <trkpt lat="49.50402" lon="0.16667">
        <ele>76</ele>
        <time>2020-06-17T17:27:08Z</time>
      </trkpt>
      <trkpt lat="49.50401" lon="0.16665">
        <ele>76.2</ele>
        <time>2020-06-17T17:27:09Z</time>
      </trkpt>
      <trkpt lat="49.50401" lon="0.16663">
        <ele>76.3</ele>
        <time>2020-06-17T17:27:10Z</time>
      </trkpt>
      <trkpt lat="49.50401" lon="0.1666">
        <ele>76.5</ele>
        <time>2020-06-17T17:27:11Z</time>
      </trkpt>
      <trkpt lat="49.50401" lon="0.16659">
        <ele>76.5</ele>
        <time>2020-06-17T17:27:12Z</time>
      </trkpt>
      <trkpt lat="49.50401" lon="0.16657">
        <ele>76.7</ele>
        <time>2020-06-17T17:27:13Z</time>
      </trkpt>
      <trkpt lat="49.50401" lon="0.16655">
        <ele>76.8</ele>
        <time>2020-06-17T17:27:14Z</time>
      </trkpt>
      <trkpt lat="49.50401" lon="0.16652">
        <ele>76.9</ele>
        <time>2020-06-17T17:27:15Z</time>
      </trkpt>
      <trkpt lat="49.50402" lon="0.16649">
        <ele>77</ele>
        <time>2020-06-17T17:27:16Z</time>
      </trkpt>
      <trkpt lat="49.50402" lon="0.16647">
        <ele>77.2</ele>
        <time>2020-06-17T17:27:17Z</time>
      </trkpt>
      <trkpt lat="49.50403" lon="0.16645">
        <ele>77.3</ele>
        <time>2020-06-17T17:27:18Z</time>
      </trkpt>
      <trkpt lat="49.50403" lon="0.16642">
        <ele>77.4</ele>
        <time>2020-06-17T17:27:19Z</time>
      </trkpt>
      <trkpt lat="49.50403" lon="0.1664">
        <ele>77.5</ele>
        <time>2020-06-17T17:27:20Z</time>
      </trkpt>
      <trkpt lat="49.50404" lon="0.16638">
        <ele>77.7</ele>
        <time>2020-06-17T17:27:21Z</time>
      </trkpt>
      <trkpt lat="49.50405" lon="0.16636">
        <ele>77.8</ele>
        <time>2020-06-17T17:27:22Z</time>
      </trkpt>
      <trkpt lat="49.50405" lon="0.16633">
        <ele>77.9</ele>
        <time>2020-06-17T17:27:23Z</time>
      </trkpt>
      <trkpt lat="49.50406" lon="0.16631">
        <ele>78</ele>
        <time>2020-06-17T17:27:24Z</time>
      </trkpt>
      <trkpt lat="49.50408" lon="0.16628">
        <ele>78.4</ele>
        <time>2020-06-17T17:27:25Z</time>
      </trkpt>
      <trkpt lat="49.50408" lon="0.16627">
        <ele>78.4</ele>
        <time>2020-06-17T17:27:26Z</time>
      </trkpt>
      <trkpt lat="49.5041" lon="0.16625">
        <ele>78.4</ele>
        <time>2020-06-17T17:27:27Z</time>
      </trkpt>
      <trkpt lat="49.50411" lon="0.16625">
        <ele>78.4</ele>
        <time>2020-06-17T17:27:28Z</time>
      </trkpt>
      <trkpt lat="49.50413" lon="0.16625">
        <ele>78.5</ele>
        <time>2020-06-17T17:27:29Z</time>
      </trkpt>
      <trkpt lat="49.50414" lon="0.16625">
        <ele>78.5</ele>
        <time>2020-06-17T17:27:30Z</time>
      </trkpt>
      <trkpt lat="49.50417" lon="0.16627">
        <ele>78.5</ele>
        <time>2020-06-17T17:27:31Z</time>
      </trkpt>
      <trkpt lat="49.50418" lon="0.16628">
        <ele>78.5</ele>
        <time>2020-06-17T17:27:32Z</time>
      </trkpt>
      <trkpt lat="49.5042" lon="0.1663">
        <ele>78.5</ele>
        <time>2020-06-17T17:27:33Z</time>
      </trkpt>
      <trkpt lat="49.50421" lon="0.16631">
        <ele>78.5</ele>
        <time>2020-06-17T17:27:34Z</time>
      </trkpt>
      <trkpt lat="49.50423" lon="0.16635">
        <ele>79.2</ele>
        <time>2020-06-17T17:27:35Z</time>
      </trkpt>
      <trkpt lat="49.50423" lon="0.16637">
        <ele>79.2</ele>
        <time>2020-06-17T17:27:36Z</time>
      </trkpt>
      <trkpt lat="49.50423" lon="0.16638">
        <ele>79.3</ele>
        <time>2020-06-17T17:27:37Z</time>
      </trkpt>
      <trkpt lat="49.50423" lon="0.16641">
        <ele>79.4</ele>
        <time>2020-06-17T17:27:38Z</time>
      </trkpt>
      <trkpt lat="49.50423" lon="0.16646">
        <ele>79.6</ele>
        <time>2020-06-17T17:27:39Z</time>
      </trkpt>
      <trkpt lat="49.50423" lon="0.16647">
        <ele>79.7</ele>
        <time>2020-06-17T17:27:40Z</time>
      </trkpt>
      <trkpt lat="49.50424" lon="0.16652">
        <ele>79.8</ele>
        <time>2020-06-17T17:27:41Z</time>
      </trkpt>
      <trkpt lat="49.50424" lon="0.16653">
        <ele>79.9</ele>
        <time>2020-06-17T17:27:42Z</time>
      </trkpt>
      <trkpt lat="49.50424" lon="0.16659">
        <ele>80</ele>
        <time>2020-06-17T17:27:43Z</time>
      </trkpt>
      <trkpt lat="49.50424" lon="0.1666">
        <ele>80.1</ele>
        <time>2020-06-17T17:27:44Z</time>
      </trkpt>
      <trkpt lat="49.50424" lon="0.16665">
        <ele>80.3</ele>
        <time>2020-06-17T17:27:45Z</time>
      </trkpt>
      <trkpt lat="49.50424" lon="0.16667">
        <ele>80.3</ele>
        <time>2020-06-17T17:27:46Z</time>
      </trkpt>
      <trkpt lat="49.50424" lon="0.16673">
        <ele>80.5</ele>
        <time>2020-06-17T17:27:47Z</time>
      </trkpt>
      <trkpt lat="49.50424" lon="0.16675">
        <ele>80.6</ele>
        <time>2020-06-17T17:27:48Z</time>
      </trkpt>
      <trkpt lat="49.50424" lon="0.16681">
        <ele>80.8</ele>
        <time>2020-06-17T17:27:49Z</time>
      </trkpt>
      <trkpt lat="49.50424" lon="0.16684">
        <ele>80.8</ele>
        <time>2020-06-17T17:27:50Z</time>
      </trkpt>
      <trkpt lat="49.50424" lon="0.16688">
        <ele>81</ele>
        <time>2020-06-17T17:27:51Z</time>
      </trkpt>
      <trkpt lat="49.50424" lon="0.16692">
        <ele>81.1</ele>
        <time>2020-06-17T17:27:52Z</time>
      </trkpt>
      <trkpt lat="49.50424" lon="0.16696">
        <ele>81.2</ele>
        <time>2020-06-17T17:27:53Z</time>
      </trkpt>
      <trkpt lat="49.50424" lon="0.16701">
        <ele>81.3</ele>
        <time>2020-06-17T17:27:54Z</time>
      </trkpt>
      <trkpt lat="49.50425" lon="0.16705">
        <ele>81.5</ele>
        <time>2020-06-17T17:27:55Z</time>
      </trkpt>
      <trkpt lat="49.50426" lon="0.1671">
        <ele>81.6</ele>
        <time>2020-06-17T17:27:56Z</time>
      </trkpt>
      <trkpt lat="49.50426" lon="0.16715">
        <ele>81.7</ele>
        <time>2020-06-17T17:27:57Z</time>
      </trkpt>
      <trkpt lat="49.50427" lon="0.1672">
        <ele>81.8</ele>
        <time>2020-06-17T17:27:58Z</time>
      </trkpt>
      <trkpt lat="49.50428" lon="0.16724">
        <ele>81.9</ele>
        <time>2020-06-17T17:27:59Z</time>
      </trkpt>
      <trkpt lat="49.50429" lon="0.16729">
        <ele>82.1</ele>
        <time>2020-06-17T17:28:00Z</time>
      </trkpt>
      <trkpt lat="49.50431" lon="0.16733">
        <ele>82.2</ele>
        <time>2020-06-17T17:28:01Z</time>
      </trkpt>
      <trkpt lat="49.50431" lon="0.16738">
        <ele>82.3</ele>
        <time>2020-06-17T17:28:02Z</time>
      </trkpt>
      <trkpt lat="49.50432" lon="0.16743">
        <ele>82.4</ele>
        <time>2020-06-17T17:28:03Z</time>
      </trkpt>
      <trkpt lat="49.50432" lon="0.16748">
        <ele>82.5</ele>
        <time>2020-06-17T17:28:04Z</time>
      </trkpt>
      <trkpt lat="49.50432" lon="0.16753">
        <ele>82.7</ele>
        <time>2020-06-17T17:28:05Z</time>
      </trkpt>
      <trkpt lat="49.50433" lon="0.16758">
        <ele>82.8</ele>
        <time>2020-06-17T17:28:06Z</time>
      </trkpt>
      <trkpt lat="49.50434" lon="0.16763">
        <ele>82.9</ele>
        <time>2020-06-17T17:28:07Z</time>
      </trkpt>
      <trkpt lat="49.50434" lon="0.16768">
        <ele>83.1</ele>
        <time>2020-06-17T17:28:08Z</time>
      </trkpt>
      <trkpt lat="49.50434" lon="0.16773">
        <ele>83.2</ele>
        <time>2020-06-17T17:28:09Z</time>
      </trkpt>
      <trkpt lat="49.50435" lon="0.16778">
        <ele>83.3</ele>
        <time>2020-06-17T17:28:10Z</time>
      </trkpt>
      <trkpt lat="49.50436" lon="0.16782">
        <ele>83.4</ele>
        <time>2020-06-17T17:28:11Z</time>
      </trkpt>
      <trkpt lat="49.50437" lon="0.16786">
        <ele>83.5</ele>
        <time>2020-06-17T17:28:12Z</time>
      </trkpt>
      <trkpt lat="49.50438" lon="0.16791">
        <ele>83.7</ele>
        <time>2020-06-17T17:28:13Z</time>
      </trkpt>
      <trkpt lat="49.50438" lon="0.16795">
        <ele>83.8</ele>
        <time>2020-06-17T17:28:14Z</time>
      </trkpt>
      <trkpt lat="49.50439" lon="0.16799">
        <ele>83.9</ele>
        <time>2020-06-17T17:28:15Z</time>
      </trkpt>
      <trkpt lat="49.5044" lon="0.16803">
        <ele>84</ele>
        <time>2020-06-17T17:28:16Z</time>
      </trkpt>
      <trkpt lat="49.50441" lon="0.16808">
        <ele>84.1</ele>
        <time>2020-06-17T17:28:17Z</time>
      </trkpt>
      <trkpt lat="49.50443" lon="0.16813">
        <ele>84.2</ele>
        <time>2020-06-17T17:28:18Z</time>
      </trkpt>
      <trkpt lat="49.50444" lon="0.16817">
        <ele>84.3</ele>
        <time>2020-06-17T17:28:19Z</time>
      </trkpt>
      <trkpt lat="49.50446" lon="0.16822">
        <ele>84.5</ele>
        <time>2020-06-17T17:28:20Z</time>
      </trkpt>
      <trkpt lat="49.50448" lon="0.16827">
        <ele>84.6</ele>
        <time>2020-06-17T17:28:21Z</time>
      </trkpt>
      <trkpt lat="49.50449" lon="0.16832">
        <ele>84.7</ele>
        <time>2020-06-17T17:28:22Z</time>
      </trkpt>
      <trkpt lat="49.5045" lon="0.16836">
        <ele>84.8</ele>
        <time>2020-06-17T17:28:23Z</time>
      </trkpt>
      <trkpt lat="49.50451" lon="0.1684">
        <ele>84.9</ele>
        <time>2020-06-17T17:28:24Z</time>
      </trkpt>
      <trkpt lat="49.50452" lon="0.16845">
        <ele>84.9</ele>
        <time>2020-06-17T17:28:25Z</time>
      </trkpt>
      <trkpt lat="49.50454" lon="0.16849">
        <ele>84.9</ele>
        <time>2020-06-17T17:28:26Z</time>
      </trkpt>
      <trkpt lat="49.50456" lon="0.16853">
        <ele>85</ele>
        <time>2020-06-17T17:28:27Z</time>
      </trkpt>
      <trkpt lat="49.50458" lon="0.16856">
        <ele>85</ele>
        <time>2020-06-17T17:28:28Z</time>
      </trkpt>
      <trkpt lat="49.5046" lon="0.1686">
        <ele>85</ele>
        <time>2020-06-17T17:28:29Z</time>
      </trkpt>
      <trkpt lat="49.50462" lon="0.16863">
        <ele>85.1</ele>
        <time>2020-06-17T17:28:30Z</time>
      </trkpt>
      <trkpt lat="49.50464" lon="0.16867">
        <ele>85.1</ele>
        <time>2020-06-17T17:28:31Z</time>
      </trkpt>
      <trkpt lat="49.50467" lon="0.16871">
        <ele>85.1</ele>
        <time>2020-06-17T17:28:32Z</time>
      </trkpt>
      <trkpt lat="49.5047" lon="0.16875">
        <ele>85.1</ele>
        <time>2020-06-17T17:28:33Z</time>
      </trkpt>
      <trkpt lat="49.50472" lon="0.16877">
        <ele>85.1</ele>
        <time>2020-06-17T17:28:34Z</time>
      </trkpt>
      <trkpt lat="49.50474" lon="0.16881">
        <ele>85.1</ele>
        <time>2020-06-17T17:28:35Z</time>
      </trkpt>
      <trkpt lat="49.50476" lon="0.16884">
        <ele>85.3</ele>
        <time>2020-06-17T17:28:36Z</time>
      </trkpt>
      <trkpt lat="49.50479" lon="0.16888">
        <ele>85.4</ele>
        <time>2020-06-17T17:28:37Z</time>
      </trkpt>
      <trkpt lat="49.50482" lon="0.1689">
        <ele>85.5</ele>
        <time>2020-06-17T17:28:38Z</time>
      </trkpt>
      <trkpt lat="49.50485" lon="0.16892">
        <ele>85.6</ele>
        <time>2020-06-17T17:28:39Z</time>
      </trkpt>
      <trkpt lat="49.50488" lon="0.16895">
        <ele>85.7</ele>
        <time>2020-06-17T17:28:40Z</time>
      </trkpt>
      <trkpt lat="49.50492" lon="0.16898">
        <ele>85.8</ele>
        <time>2020-06-17T17:28:41Z</time>
      </trkpt>
      <trkpt lat="49.50495" lon="0.16901">
        <ele>85.9</ele>
        <time>2020-06-17T17:28:42Z</time>
      </trkpt>
      <trkpt lat="49.50498" lon="0.16904">
        <ele>86</ele>
        <time>2020-06-17T17:28:43Z</time>
      </trkpt>
      <trkpt lat="49.50501" lon="0.16908">
        <ele>86.1</ele>
        <time>2020-06-17T17:28:44Z</time>
      </trkpt>
      <trkpt lat="49.50503" lon="0.16911">
        <ele>86.2</ele>
        <time>2020-06-17T17:28:45Z</time>
      </trkpt>
      <trkpt lat="49.50506" lon="0.16914">
        <ele>86.3</ele>
        <time>2020-06-17T17:28:46Z</time>
      </trkpt>
      <trkpt lat="49.50509" lon="0.16917">
        <ele>86.4</ele>
        <time>2020-06-17T17:28:47Z</time>
      </trkpt>
      <trkpt lat="49.50511" lon="0.16921">
        <ele>86.5</ele>
        <time>2020-06-17T17:28:48Z</time>
      </trkpt>
      <trkpt lat="49.50514" lon="0.16924">
        <ele>86.6</ele>
        <time>2020-06-17T17:28:49Z</time>
      </trkpt>
      <trkpt lat="49.50517" lon="0.16926">
        <ele>86.7</ele>
        <time>2020-06-17T17:28:50Z</time>
      </trkpt>
      <trkpt lat="49.50519" lon="0.16931">
        <ele>86.9</ele>
        <time>2020-06-17T17:28:51Z</time>
      </trkpt>
      <trkpt lat="49.50522" lon="0.16934">
        <ele>87</ele>
        <time>2020-06-17T17:28:52Z</time>
      </trkpt>
      <trkpt lat="49.50525" lon="0.16937">
        <ele>87.2</ele>
        <time>2020-06-17T17:28:53Z</time>
      </trkpt>
      <trkpt lat="49.50528" lon="0.16942">
        <ele>87.3</ele>
        <time>2020-06-17T17:28:54Z</time>
      </trkpt>
      <trkpt lat="49.50531" lon="0.16945">
        <ele>87.5</ele>
        <time>2020-06-17T17:28:55Z</time>
      </trkpt>
      <trkpt lat="49.50534" lon="0.16949">
        <ele>87.6</ele>
        <time>2020-06-17T17:28:56Z</time>
      </trkpt>
      <trkpt lat="49.50536" lon="0.16952">
        <ele>87.9</ele>
        <time>2020-06-17T17:28:57Z</time>
      </trkpt>
      <trkpt lat="49.5054" lon="0.16956">
        <ele>88</ele>
        <time>2020-06-17T17:28:58Z</time>
      </trkpt>
      <trkpt lat="49.50542" lon="0.16959">
        <ele>88.1</ele>
        <time>2020-06-17T17:28:59Z</time>
      </trkpt>
      <trkpt lat="49.50544" lon="0.16963">
        <ele>88.3</ele>
        <time>2020-06-17T17:29:00Z</time>
      </trkpt>
      <trkpt lat="49.50547" lon="0.16967">
        <ele>88.4</ele>
        <time>2020-06-17T17:29:01Z</time>
      </trkpt>
      <trkpt lat="49.5055" lon="0.16972">
        <ele>88.6</ele>
        <time>2020-06-17T17:29:02Z</time>
      </trkpt>
      <trkpt lat="49.50553" lon="0.16974">
        <ele>88.7</ele>
        <time>2020-06-17T17:29:03Z</time>
      </trkpt>
      <trkpt lat="49.50556" lon="0.16977">
        <ele>88.8</ele>
        <time>2020-06-17T17:29:04Z</time>
      </trkpt>
      <trkpt lat="49.5056" lon="0.16979">
        <ele>89</ele>
        <time>2020-06-17T17:29:05Z</time>
      </trkpt>
      <trkpt lat="49.50564" lon="0.16982">
        <ele>89.2</ele>
        <time>2020-06-17T17:29:06Z</time>
      </trkpt>
      <trkpt lat="49.50567" lon="0.16985">
        <ele>89.3</ele>
        <time>2020-06-17T17:29:07Z</time>
      </trkpt>
      <trkpt lat="49.5057" lon="0.16989">
        <ele>89.4</ele>
        <time>2020-06-17T17:29:08Z</time>
      </trkpt>
      <trkpt lat="49.50573" lon="0.16992">
        <ele>89.6</ele>
        <time>2020-06-17T17:29:09Z</time>
      </trkpt>
      <trkpt lat="49.50574" lon="0.16993">
        <ele>89.7</ele>
        <time>2020-06-17T17:29:10Z</time>
      </trkpt>
      <trkpt lat="49.50577" lon="0.16996">
        <ele>89.8</ele>
        <time>2020-06-17T17:29:11Z</time>
      </trkpt>
      <trkpt lat="49.50581" lon="0.17">
        <ele>89.9</ele>
        <time>2020-06-17T17:29:12Z</time>
      </trkpt>
      <trkpt lat="49.50584" lon="0.17003">
        <ele>90.1</ele>
        <time>2020-06-17T17:29:13Z</time>
      </trkpt>
      <trkpt lat="49.50587" lon="0.17006">
        <ele>90.2</ele>
        <time>2020-06-17T17:29:14Z</time>
      </trkpt>
      <trkpt lat="49.50589" lon="0.1701">
        <ele>90.4</ele>
        <time>2020-06-17T17:29:15Z</time>
      </trkpt>
      <trkpt lat="49.50592" lon="0.17014">
        <ele>90.5</ele>
        <time>2020-06-17T17:29:16Z</time>
      </trkpt>
      <trkpt lat="49.50594" lon="0.17017">
        <ele>90.6</ele>
        <time>2020-06-17T17:29:17Z</time>
      </trkpt>
      <trkpt lat="49.50597" lon="0.17021">
        <ele>90.7</ele>
        <time>2020-06-17T17:29:18Z</time>
      </trkpt>
      <trkpt lat="49.50599" lon="0.17024">
        <ele>90.8</ele>
        <time>2020-06-17T17:29:19Z</time>
      </trkpt>
      <trkpt lat="49.50602" lon="0.17028">
        <ele>90.9</ele>
        <time>2020-06-17T17:29:20Z</time>
      </trkpt>
      <trkpt lat="49.50606" lon="0.1703">
        <ele>91</ele>
        <time>2020-06-17T17:29:21Z</time>
      </trkpt>
      <trkpt lat="49.50607" lon="0.17032">
        <ele>91</ele>
        <time>2020-06-17T17:29:22Z</time>
      </trkpt>
      <trkpt lat="49.5061" lon="0.17034">
        <ele>91</ele>
        <time>2020-06-17T17:29:23Z</time>
      </trkpt>
      <trkpt lat="49.50612" lon="0.17038">
        <ele>91</ele>
        <time>2020-06-17T17:29:24Z</time>
      </trkpt>
      <trkpt lat="49.50616" lon="0.17038">
        <ele>91</ele>
        <time>2020-06-17T17:29:25Z</time>
      </trkpt>
      <trkpt lat="49.50618" lon="0.1704">
        <ele>91</ele>
        <time>2020-06-17T17:29:26Z</time>
      </trkpt>
      <trkpt lat="49.50621" lon="0.17041">
        <ele>91</ele>
        <time>2020-06-17T17:29:27Z</time>
      </trkpt>
      <trkpt lat="49.50625" lon="0.1704">
        <ele>91</ele>
        <time>2020-06-17T17:29:28Z</time>
      </trkpt>
      <trkpt lat="49.50628" lon="0.17037">
        <ele>91</ele>
        <time>2020-06-17T17:29:29Z</time>
      </trkpt>
      <trkpt lat="49.50631" lon="0.17031">
        <ele>91</ele>
        <time>2020-06-17T17:29:30Z</time>
      </trkpt>
      <trkpt lat="49.50634" lon="0.17027">
        <ele>91</ele>
        <time>2020-06-17T17:29:31Z</time>
      </trkpt>
      <trkpt lat="49.50638" lon="0.17023">
        <ele>91</ele>
        <time>2020-06-17T17:29:32Z</time>
      </trkpt>
      <trkpt lat="49.50641" lon="0.17018">
        <ele>91</ele>
        <time>2020-06-17T17:29:33Z</time>
      </trkpt>
      <trkpt lat="49.50644" lon="0.17013">
        <ele>91</ele>
        <time>2020-06-17T17:29:34Z</time>
      </trkpt>
      <trkpt lat="49.50648" lon="0.17009">
        <ele>91</ele>
        <time>2020-06-17T17:29:35Z</time>
      </trkpt>
      <trkpt lat="49.50651" lon="0.17005">
        <ele>91</ele>
        <time>2020-06-17T17:29:36Z</time>
      </trkpt>
      <trkpt lat="49.50654" lon="0.17002">
        <ele>91</ele>
        <time>2020-06-17T17:29:37Z</time>
      </trkpt>
      <trkpt lat="49.50657" lon="0.16997">
        <ele>91</ele>
        <time>2020-06-17T17:29:38Z</time>
      </trkpt>
      <trkpt lat="49.5066" lon="0.16993">
        <ele>91</ele>
        <time>2020-06-17T17:29:39Z</time>
      </trkpt>
      <trkpt lat="49.50663" lon="0.16988">
        <ele>91</ele>
        <time>2020-06-17T17:29:40Z</time>
      </trkpt>
      <trkpt lat="49.50667" lon="0.16983">
        <ele>91</ele>
        <time>2020-06-17T17:29:41Z</time>
      </trkpt>
      <trkpt lat="49.5067" lon="0.16978">
        <ele>91</ele>
        <time>2020-06-17T17:29:42Z</time>
      </trkpt>
      <trkpt lat="49.50673" lon="0.16974">
        <ele>91</ele>
        <time>2020-06-17T17:29:43Z</time>
      </trkpt>
      <trkpt lat="49.50677" lon="0.1697">
        <ele>91</ele>
        <time>2020-06-17T17:29:44Z</time>
      </trkpt>
      <trkpt lat="49.5068" lon="0.16966">
        <ele>91</ele>
        <time>2020-06-17T17:29:45Z</time>
      </trkpt>
      <trkpt lat="49.50685" lon="0.16963">
        <ele>91</ele>
        <time>2020-06-17T17:29:46Z</time>
      </trkpt>
      <trkpt lat="49.50689" lon="0.16958">
        <ele>90.9</ele>
        <time>2020-06-17T17:29:47Z</time>
      </trkpt>
      <trkpt lat="49.50693" lon="0.16954">
        <ele>90.9</ele>
        <time>2020-06-17T17:29:48Z</time>
      </trkpt>
      <trkpt lat="49.50697" lon="0.16948">
        <ele>90.9</ele>
        <time>2020-06-17T17:29:49Z</time>
      </trkpt>
      <trkpt lat="49.50702" lon="0.16943">
        <ele>90.9</ele>
        <time>2020-06-17T17:29:50Z</time>
      </trkpt>
      <trkpt lat="49.50705" lon="0.16939">
        <ele>90.9</ele>
        <time>2020-06-17T17:29:51Z</time>
      </trkpt>
      <trkpt lat="49.50709" lon="0.16934">
        <ele>90.9</ele>
        <time>2020-06-17T17:29:52Z</time>
      </trkpt>
      <trkpt lat="49.50713" lon="0.16929">
        <ele>90.9</ele>
        <time>2020-06-17T17:29:53Z</time>
      </trkpt>
      <trkpt lat="49.50717" lon="0.16924">
        <ele>90.9</ele>
        <time>2020-06-17T17:29:54Z</time>
      </trkpt>
      <trkpt lat="49.50721" lon="0.16918">
        <ele>90.8</ele>
        <time>2020-06-17T17:29:55Z</time>
      </trkpt>
      <trkpt lat="49.50725" lon="0.16914">
        <ele>90.8</ele>
        <time>2020-06-17T17:29:56Z</time>
      </trkpt>
      <trkpt lat="49.5073" lon="0.16911">
        <ele>90.8</ele>
        <time>2020-06-17T17:29:57Z</time>
      </trkpt>
      <trkpt lat="49.50733" lon="0.16909">
        <ele>90.8</ele>
        <time>2020-06-17T17:29:58Z</time>
      </trkpt>
      <trkpt lat="49.50738" lon="0.16903">
        <ele>90.8</ele>
        <time>2020-06-17T17:29:59Z</time>
      </trkpt>
      <trkpt lat="49.50742" lon="0.16898">
        <ele>90.8</ele>
        <time>2020-06-17T17:30:00Z</time>
      </trkpt>
      <trkpt lat="49.50747" lon="0.16894">
        <ele>90.8</ele>
        <time>2020-06-17T17:30:01Z</time>
      </trkpt>
      <trkpt lat="49.50751" lon="0.16888">
        <ele>90.8</ele>
        <time>2020-06-17T17:30:02Z</time>
      </trkpt>
      <trkpt lat="49.50755" lon="0.16884">
        <ele>90.7</ele>
        <time>2020-06-17T17:30:03Z</time>
      </trkpt>
      <trkpt lat="49.50758" lon="0.16879">
        <ele>90.7</ele>
        <time>2020-06-17T17:30:04Z</time>
      </trkpt>
      <trkpt lat="49.50762" lon="0.16875">
        <ele>90.7</ele>
        <time>2020-06-17T17:30:05Z</time>
      </trkpt>
      <trkpt lat="49.50766" lon="0.1687">
        <ele>90.6</ele>
        <time>2020-06-17T17:30:06Z</time>
      </trkpt>
      <trkpt lat="49.50771" lon="0.16866">
        <ele>90.6</ele>
        <time>2020-06-17T17:30:07Z</time>
      </trkpt>
      <trkpt lat="49.50774" lon="0.1686">
        <ele>90.6</ele>
        <time>2020-06-17T17:30:08Z</time>
      </trkpt>
      <trkpt lat="49.50778" lon="0.16855">
        <ele>90.6</ele>
        <time>2020-06-17T17:30:09Z</time>
      </trkpt>
      <trkpt lat="49.50783" lon="0.1685">
        <ele>90.5</ele>
        <time>2020-06-17T17:30:10Z</time>
      </trkpt>
      <trkpt lat="49.50786" lon="0.16846">
        <ele>90.5</ele>
        <time>2020-06-17T17:30:11Z</time>
      </trkpt>
      <trkpt lat="49.5079" lon="0.16841">
        <ele>90.5</ele>
        <time>2020-06-17T17:30:12Z</time>
      </trkpt>
      <trkpt lat="49.50793" lon="0.16837">
        <ele>90.5</ele>
        <time>2020-06-17T17:30:13Z</time>
      </trkpt>
      <trkpt lat="49.50797" lon="0.16832">
        <ele>90.5</ele>
        <time>2020-06-17T17:30:14Z</time>
      </trkpt>
      <trkpt lat="49.50801" lon="0.16826">
        <ele>90.4</ele>
        <time>2020-06-17T17:30:15Z</time>
      </trkpt>
      <trkpt lat="49.50805" lon="0.16821">
        <ele>90.4</ele>
        <time>2020-06-17T17:30:16Z</time>
      </trkpt>
      <trkpt lat="49.5081" lon="0.16815">
        <ele>90.4</ele>
        <time>2020-06-17T17:30:17Z</time>
      </trkpt>
      <trkpt lat="49.50814" lon="0.1681">
        <ele>90.3</ele>
        <time>2020-06-17T17:30:18Z</time>
      </trkpt>
      <trkpt lat="49.50818" lon="0.16805">
        <ele>90.3</ele>
        <time>2020-06-17T17:30:19Z</time>
      </trkpt>
      <trkpt lat="49.50822" lon="0.168">
        <ele>90.3</ele>
        <time>2020-06-17T17:30:20Z</time>
      </trkpt>
      <trkpt lat="49.50825" lon="0.16795">
        <ele>90.2</ele>
        <time>2020-06-17T17:30:21Z</time>
      </trkpt>
      <trkpt lat="49.5083" lon="0.1679">
        <ele>90.2</ele>
        <time>2020-06-17T17:30:22Z</time>
      </trkpt>
      <trkpt lat="49.50833" lon="0.16785">
        <ele>90.1</ele>
        <time>2020-06-17T17:30:23Z</time>
      </trkpt>
      <trkpt lat="49.50837" lon="0.16779">
        <ele>90.1</ele>
        <time>2020-06-17T17:30:24Z</time>
      </trkpt>
      <trkpt lat="49.5084" lon="0.16775">
        <ele>90</ele>
        <time>2020-06-17T17:30:25Z</time>
      </trkpt>
      <trkpt lat="49.50844" lon="0.16771">
        <ele>90</ele>
        <time>2020-06-17T17:30:26Z</time>
      </trkpt>
      <trkpt lat="49.50848" lon="0.16765">
        <ele>90</ele>
        <time>2020-06-17T17:30:27Z</time>
      </trkpt>
      <trkpt lat="49.50852" lon="0.1676">
        <ele>90</ele>
        <time>2020-06-17T17:30:28Z</time>
      </trkpt>
      <trkpt lat="49.50857" lon="0.16755">
        <ele>89.9</ele>
        <time>2020-06-17T17:30:29Z</time>
      </trkpt>
      <trkpt lat="49.5086" lon="0.16752">
        <ele>89.9</ele>
        <time>2020-06-17T17:30:30Z</time>
      </trkpt>
      <trkpt lat="49.50865" lon="0.16747">
        <ele>89.8</ele>
        <time>2020-06-17T17:30:31Z</time>
      </trkpt>
      <trkpt lat="49.50869" lon="0.1674">
        <ele>89.8</ele>
        <time>2020-06-17T17:30:32Z</time>
      </trkpt>
      <trkpt lat="49.50874" lon="0.16734">
        <ele>89.7</ele>
        <time>2020-06-17T17:30:33Z</time>
      </trkpt>
      <trkpt lat="49.50878" lon="0.16728">
        <ele>89.6</ele>
        <time>2020-06-17T17:30:34Z</time>
      </trkpt>
      <trkpt lat="49.50882" lon="0.16723">
        <ele>89.6</ele>
        <time>2020-06-17T17:30:35Z</time>
      </trkpt>
      <trkpt lat="49.50886" lon="0.16718">
        <ele>89.5</ele>
        <time>2020-06-17T17:30:36Z</time>
      </trkpt>
      <trkpt lat="49.50891" lon="0.16714">
        <ele>89.5</ele>
        <time>2020-06-17T17:30:37Z</time>
      </trkpt>
      <trkpt lat="49.50896" lon="0.16709">
        <ele>89.4</ele>
        <time>2020-06-17T17:30:38Z</time>
      </trkpt>
      <trkpt lat="49.509" lon="0.16703">
        <ele>89.4</ele>
        <time>2020-06-17T17:30:39Z</time>
      </trkpt>
      <trkpt lat="49.50905" lon="0.16698">
        <ele>89.4</ele>
        <time>2020-06-17T17:30:40Z</time>
      </trkpt>
      <trkpt lat="49.50907" lon="0.16694">
        <ele>89.4</ele>
        <time>2020-06-17T17:30:41Z</time>
      </trkpt>
      <trkpt lat="49.50911" lon="0.16689">
        <ele>89.4</ele>
        <time>2020-06-17T17:30:42Z</time>
      </trkpt>
      <trkpt lat="49.50915" lon="0.16686">
        <ele>89.4</ele>
        <time>2020-06-17T17:30:43Z</time>
      </trkpt>
      <trkpt lat="49.50918" lon="0.16682">
        <ele>89.3</ele>
        <time>2020-06-17T17:30:44Z</time>
      </trkpt>
      <trkpt lat="49.50921" lon="0.16679">
        <ele>89.3</ele>
        <time>2020-06-17T17:30:45Z</time>
      </trkpt>
      <trkpt lat="49.50925" lon="0.16675">
        <ele>89.3</ele>
        <time>2020-06-17T17:30:46Z</time>
      </trkpt>
      <trkpt lat="49.50928" lon="0.16674">
        <ele>89.3</ele>
        <time>2020-06-17T17:30:47Z</time>
      </trkpt>
      <trkpt lat="49.50929" lon="0.16674">
        <ele>89.2</ele>
        <time>2020-06-17T17:30:48Z</time>
      </trkpt>
      <trkpt lat="49.5093" lon="0.16673">
        <ele>89.2</ele>
        <time>2020-06-17T17:30:49Z</time>
      </trkpt>
      <trkpt lat="49.50932" lon="0.16671">
        <ele>89.2</ele>
        <time>2020-06-17T17:30:50Z</time>
      </trkpt>
      <trkpt lat="49.50933" lon="0.1667">
        <ele>89.2</ele>
        <time>2020-06-17T17:30:51Z</time>
      </trkpt>
      <trkpt lat="49.50935" lon="0.16668">
        <ele>89.2</ele>
        <time>2020-06-17T17:30:52Z</time>
      </trkpt>
      <trkpt lat="49.50936" lon="0.16668">
        <ele>89.2</ele>
        <time>2020-06-17T17:30:53Z</time>
      </trkpt>
      <trkpt lat="49.50937" lon="0.16667">
        <ele>89.2</ele>
        <time>2020-06-17T17:30:54Z</time>
      </trkpt>
      <trkpt lat="49.50939" lon="0.16663">
        <ele>89.3</ele>
        <time>2020-06-17T17:30:55Z</time>
      </trkpt>
      <trkpt lat="49.5094" lon="0.16662">
        <ele>89.3</ele>
        <time>2020-06-17T17:30:56Z</time>
      </trkpt>
      <trkpt lat="49.50943" lon="0.16658">
        <ele>89.3</ele>
        <time>2020-06-17T17:30:57Z</time>
      </trkpt>
      <trkpt lat="49.50946" lon="0.16655">
        <ele>89.3</ele>
        <time>2020-06-17T17:30:58Z</time>
      </trkpt>
      <trkpt lat="49.50949" lon="0.16651">
        <ele>89.5</ele>
        <time>2020-06-17T17:30:59Z</time>
      </trkpt>
      <trkpt lat="49.50952" lon="0.16648">
        <ele>89.4</ele>
        <time>2020-06-17T17:31:00Z</time>
      </trkpt>
      <trkpt lat="49.50955" lon="0.16645">
        <ele>89.2</ele>
        <time>2020-06-17T17:31:01Z</time>
      </trkpt>
      <trkpt lat="49.50959" lon="0.16641">
        <ele>89.1</ele>
        <time>2020-06-17T17:31:02Z</time>
      </trkpt>
      <trkpt lat="49.50962" lon="0.16638">
        <ele>89</ele>
        <time>2020-06-17T17:31:03Z</time>
      </trkpt>
      <trkpt lat="49.50966" lon="0.16634">
        <ele>88.9</ele>
        <time>2020-06-17T17:31:04Z</time>
      </trkpt>
      <trkpt lat="49.5097" lon="0.16631">
        <ele>88.8</ele>
        <time>2020-06-17T17:31:05Z</time>
      </trkpt>
      <trkpt lat="49.50974" lon="0.16628">
        <ele>88.7</ele>
        <time>2020-06-17T17:31:06Z</time>
      </trkpt>
      <trkpt lat="49.50978" lon="0.16624">
        <ele>88.5</ele>
        <time>2020-06-17T17:31:07Z</time>
      </trkpt>
      <trkpt lat="49.50982" lon="0.1662">
        <ele>88.4</ele>
        <time>2020-06-17T17:31:08Z</time>
      </trkpt>
      <trkpt lat="49.50985" lon="0.16614">
        <ele>88.3</ele>
        <time>2020-06-17T17:31:09Z</time>
      </trkpt>
      <trkpt lat="49.50989" lon="0.1661">
        <ele>88.1</ele>
        <time>2020-06-17T17:31:10Z</time>
      </trkpt>
      <trkpt lat="49.50993" lon="0.16606">
        <ele>88</ele>
        <time>2020-06-17T17:31:11Z</time>
      </trkpt>
      <trkpt lat="49.50996" lon="0.16602">
        <ele>87.9</ele>
        <time>2020-06-17T17:31:12Z</time>
      </trkpt>
      <trkpt lat="49.51" lon="0.16597">
        <ele>87.8</ele>
        <time>2020-06-17T17:31:13Z</time>
      </trkpt>
      <trkpt lat="49.51003" lon="0.16592">
        <ele>87.5</ele>
        <time>2020-06-17T17:31:14Z</time>
      </trkpt>
      <trkpt lat="49.51007" lon="0.16587">
        <ele>87.5</ele>
        <time>2020-06-17T17:31:15Z</time>
      </trkpt>
      <trkpt lat="49.51011" lon="0.16582">
        <ele>87.4</ele>
        <time>2020-06-17T17:31:16Z</time>
      </trkpt>
      <trkpt lat="49.51015" lon="0.16578">
        <ele>87.2</ele>
        <time>2020-06-17T17:31:17Z</time>
      </trkpt>
      <trkpt lat="49.51019" lon="0.16575">
        <ele>87</ele>
        <time>2020-06-17T17:31:18Z</time>
      </trkpt>
      <trkpt lat="49.51024" lon="0.16571">
        <ele>86.8</ele>
        <time>2020-06-17T17:31:19Z</time>
      </trkpt>
      <trkpt lat="49.51029" lon="0.16567">
        <ele>86.6</ele>
        <time>2020-06-17T17:31:20Z</time>
      </trkpt>
      <trkpt lat="49.51032" lon="0.16563">
        <ele>86.4</ele>
        <time>2020-06-17T17:31:21Z</time>
      </trkpt>
      <trkpt lat="49.51037" lon="0.16558">
        <ele>86.2</ele>
        <time>2020-06-17T17:31:22Z</time>
      </trkpt>
      <trkpt lat="49.51041" lon="0.16554">
        <ele>86</ele>
        <time>2020-06-17T17:31:23Z</time>
      </trkpt>
      <trkpt lat="49.51045" lon="0.16549">
        <ele>85.8</ele>
        <time>2020-06-17T17:31:24Z</time>
      </trkpt>
      <trkpt lat="49.51048" lon="0.16543">
        <ele>85.7</ele>
        <time>2020-06-17T17:31:25Z</time>
      </trkpt>
      <trkpt lat="49.51051" lon="0.16538">
        <ele>85.6</ele>
        <time>2020-06-17T17:31:26Z</time>
      </trkpt>
      <trkpt lat="49.51054" lon="0.16531">
        <ele>85.4</ele>
        <time>2020-06-17T17:31:27Z</time>
      </trkpt>
      <trkpt lat="49.51058" lon="0.16527">
        <ele>85.3</ele>
        <time>2020-06-17T17:31:28Z</time>
      </trkpt>
      <trkpt lat="49.51063" lon="0.16523">
        <ele>85.2</ele>
        <time>2020-06-17T17:31:29Z</time>
      </trkpt>
      <trkpt lat="49.51067" lon="0.1652">
        <ele>85.3</ele>
        <time>2020-06-17T17:31:30Z</time>
      </trkpt>
      <trkpt lat="49.51071" lon="0.16515">
        <ele>85.3</ele>
        <time>2020-06-17T17:31:31Z</time>
      </trkpt>
      <trkpt lat="49.51075" lon="0.16511">
        <ele>85.3</ele>
        <time>2020-06-17T17:31:32Z</time>
      </trkpt>
      <trkpt lat="49.5108" lon="0.16507">
        <ele>84.8</ele>
        <time>2020-06-17T17:31:33Z</time>
      </trkpt>
      <trkpt lat="49.51085" lon="0.16502">
        <ele>84.5</ele>
        <time>2020-06-17T17:31:34Z</time>
      </trkpt>
      <trkpt lat="49.51089" lon="0.16497">
        <ele>84.3</ele>
        <time>2020-06-17T17:31:35Z</time>
      </trkpt>
      <trkpt lat="49.51094" lon="0.16491">
        <ele>83.9</ele>
        <time>2020-06-17T17:31:36Z</time>
      </trkpt>
      <trkpt lat="49.51098" lon="0.16485">
        <ele>83.6</ele>
        <time>2020-06-17T17:31:37Z</time>
      </trkpt>
      <trkpt lat="49.51102" lon="0.16478">
        <ele>83.4</ele>
        <time>2020-06-17T17:31:38Z</time>
      </trkpt>
      <trkpt lat="49.51107" lon="0.16474">
        <ele>83.2</ele>
        <time>2020-06-17T17:31:39Z</time>
      </trkpt>
      <trkpt lat="49.51111" lon="0.16469">
        <ele>83.1</ele>
        <time>2020-06-17T17:31:40Z</time>
      </trkpt>
      <trkpt lat="49.51116" lon="0.16465">
        <ele>83</ele>
        <time>2020-06-17T17:31:41Z</time>
      </trkpt>
      <trkpt lat="49.51121" lon="0.16459">
        <ele>82.8</ele>
        <time>2020-06-17T17:31:42Z</time>
      </trkpt>
      <trkpt lat="49.51125" lon="0.16453">
        <ele>82.7</ele>
        <time>2020-06-17T17:31:43Z</time>
      </trkpt>
      <trkpt lat="49.5113" lon="0.16448">
        <ele>82.6</ele>
        <time>2020-06-17T17:31:44Z</time>
      </trkpt>
      <trkpt lat="49.51135" lon="0.16444">
        <ele>82.7</ele>
        <time>2020-06-17T17:31:45Z</time>
      </trkpt>
      <trkpt lat="49.51139" lon="0.16439">
        <ele>82.8</ele>
        <time>2020-06-17T17:31:46Z</time>
      </trkpt>
      <trkpt lat="49.51143" lon="0.16433">
        <ele>82.8</ele>
        <time>2020-06-17T17:31:47Z</time>
      </trkpt>
      <trkpt lat="49.51147" lon="0.16427">
        <ele>82.7</ele>
        <time>2020-06-17T17:31:48Z</time>
      </trkpt>
      <trkpt lat="49.51151" lon="0.16421">
        <ele>82.5</ele>
        <time>2020-06-17T17:31:49Z</time>
      </trkpt>
      <trkpt lat="49.51155" lon="0.16416">
        <ele>82.4</ele>
        <time>2020-06-17T17:31:50Z</time>
      </trkpt>
      <trkpt lat="49.5116" lon="0.1641">
        <ele>82.3</ele>
        <time>2020-06-17T17:31:51Z</time>
      </trkpt>
      <trkpt lat="49.51164" lon="0.16404">
        <ele>82.1</ele>
        <time>2020-06-17T17:31:52Z</time>
      </trkpt>
      <trkpt lat="49.51169" lon="0.16398">
        <ele>81.9</ele>
        <time>2020-06-17T17:31:53Z</time>
      </trkpt>
      <trkpt lat="49.51173" lon="0.16393">
        <ele>81.7</ele>
        <time>2020-06-17T17:31:54Z</time>
      </trkpt>
      <trkpt lat="49.51177" lon="0.16387">
        <ele>81.5</ele>
        <time>2020-06-17T17:31:55Z</time>
      </trkpt>
      <trkpt lat="49.51182" lon="0.1638">
        <ele>81.3</ele>
        <time>2020-06-17T17:31:56Z</time>
      </trkpt>
      <trkpt lat="49.51187" lon="0.16374">
        <ele>81.1</ele>
        <time>2020-06-17T17:31:57Z</time>
      </trkpt>
      <trkpt lat="49.51192" lon="0.1637">
        <ele>80.8</ele>
        <time>2020-06-17T17:31:58Z</time>
      </trkpt>
      <trkpt lat="49.51196" lon="0.16366">
        <ele>80.5</ele>
        <time>2020-06-17T17:31:59Z</time>
      </trkpt>
      <trkpt lat="49.51201" lon="0.16359">
        <ele>80.1</ele>
        <time>2020-06-17T17:32:00Z</time>
      </trkpt>
      <trkpt lat="49.51205" lon="0.16353">
        <ele>79.7</ele>
        <time>2020-06-17T17:32:01Z</time>
      </trkpt>
      <trkpt lat="49.51209" lon="0.16348">
        <ele>79.3</ele>
        <time>2020-06-17T17:32:02Z</time>
      </trkpt>
      <trkpt lat="49.51214" lon="0.16342">
        <ele>78.9</ele>
        <time>2020-06-17T17:32:03Z</time>
      </trkpt>
      <trkpt lat="49.51218" lon="0.16336">
        <ele>78.5</ele>
        <time>2020-06-17T17:32:04Z</time>
      </trkpt>
      <trkpt lat="49.51224" lon="0.16331">
        <ele>77.9</ele>
        <time>2020-06-17T17:32:05Z</time>
      </trkpt>
      <trkpt lat="49.51229" lon="0.16325">
        <ele>77.5</ele>
        <time>2020-06-17T17:32:06Z</time>
      </trkpt>
      <trkpt lat="49.51234" lon="0.16319">
        <ele>77.1</ele>
        <time>2020-06-17T17:32:07Z</time>
      </trkpt>
      <trkpt lat="49.51239" lon="0.16314">
        <ele>76.5</ele>
        <time>2020-06-17T17:32:08Z</time>
      </trkpt>
      <trkpt lat="49.51243" lon="0.16308">
        <ele>76.4</ele>
        <time>2020-06-17T17:32:09Z</time>
      </trkpt>
      <trkpt lat="49.51248" lon="0.16304">
        <ele>76.3</ele>
        <time>2020-06-17T17:32:10Z</time>
      </trkpt>
      <trkpt lat="49.51251" lon="0.163">
        <ele>76.3</ele>
        <time>2020-06-17T17:32:11Z</time>
      </trkpt>
      <trkpt lat="49.51255" lon="0.16297">
        <ele>76.3</ele>
        <time>2020-06-17T17:32:12Z</time>
      </trkpt>
      <trkpt lat="49.51258" lon="0.16295">
        <ele>76.3</ele>
        <time>2020-06-17T17:32:13Z</time>
      </trkpt>
      <trkpt lat="49.51261" lon="0.16293">
        <ele>76.3</ele>
        <time>2020-06-17T17:32:14Z</time>
      </trkpt>
      <trkpt lat="49.51262" lon="0.16291">
        <ele>76.3</ele>
        <time>2020-06-17T17:32:15Z</time>
      </trkpt>
      <trkpt lat="49.51263" lon="0.16291">
        <ele>76.3</ele>
        <time>2020-06-17T17:32:16Z</time>
      </trkpt>
      <trkpt lat="49.51267" lon="0.16292">
        <ele>76.3</ele>
        <time>2020-06-17T17:32:17Z</time>
      </trkpt>
      <trkpt lat="49.51268" lon="0.16292">
        <ele>76.4</ele>
        <time>2020-06-17T17:32:18Z</time>
      </trkpt>
      <trkpt lat="49.51269" lon="0.16294">
        <ele>76.4</ele>
        <time>2020-06-17T17:32:19Z</time>
      </trkpt>
      <trkpt lat="49.5127" lon="0.16295">
        <ele>76.5</ele>
        <time>2020-06-17T17:32:20Z</time>
      </trkpt>
      <trkpt lat="49.51272" lon="0.16296">
        <ele>76.5</ele>
        <time>2020-06-17T17:32:21Z</time>
      </trkpt>
      <trkpt lat="49.51273" lon="0.16297">
        <ele>76.6</ele>
        <time>2020-06-17T17:32:22Z</time>
      </trkpt>
      <trkpt lat="49.51275" lon="0.16301">
        <ele>76.7</ele>
        <time>2020-06-17T17:32:23Z</time>
      </trkpt>
      <trkpt lat="49.51276" lon="0.16302">
        <ele>76.7</ele>
        <time>2020-06-17T17:32:24Z</time>
      </trkpt>
      <trkpt lat="49.51277" lon="0.16303">
        <ele>76.8</ele>
        <time>2020-06-17T17:32:25Z</time>
      </trkpt>
      <trkpt lat="49.51277" lon="0.16306">
        <ele>76.9</ele>
        <time>2020-06-17T17:32:26Z</time>
      </trkpt>
      <trkpt lat="49.51278" lon="0.16307">
        <ele>76.9</ele>
        <time>2020-06-17T17:32:27Z</time>
      </trkpt>
      <trkpt lat="49.5128" lon="0.16307">
        <ele>77</ele>
        <time>2020-06-17T17:32:28Z</time>
      </trkpt>
      <trkpt lat="49.51281" lon="0.16308">
        <ele>77</ele>
        <time>2020-06-17T17:32:29Z</time>
      </trkpt>
      <trkpt lat="49.51283" lon="0.16309">
        <ele>77.3</ele>
        <time>2020-06-17T17:32:30Z</time>
      </trkpt>
      <trkpt lat="49.51283" lon="0.1631">
        <ele>77.3</ele>
        <time>2020-06-17T17:32:31Z</time>
      </trkpt>
      <trkpt lat="49.51285" lon="0.16311">
        <ele>77.3</ele>
        <time>2020-06-17T17:32:32Z</time>
      </trkpt>
      <trkpt lat="49.51286" lon="0.16312">
        <ele>77.4</ele>
        <time>2020-06-17T17:32:33Z</time>
      </trkpt>
      <trkpt lat="49.51288" lon="0.16314">
        <ele>77.5</ele>
        <time>2020-06-17T17:32:34Z</time>
      </trkpt>
      <trkpt lat="49.51289" lon="0.16316">
        <ele>77.5</ele>
        <time>2020-06-17T17:32:35Z</time>
      </trkpt>
      <trkpt lat="49.51292" lon="0.16318">
        <ele>78</ele>
        <time>2020-06-17T17:32:36Z</time>
      </trkpt>
      <trkpt lat="49.51294" lon="0.1632">
        <ele>78.1</ele>
        <time>2020-06-17T17:32:37Z</time>
      </trkpt>
      <trkpt lat="49.51295" lon="0.16321">
        <ele>78.2</ele>
        <time>2020-06-17T17:32:38Z</time>
      </trkpt>
      <trkpt lat="49.51298" lon="0.16321">
        <ele>78.3</ele>
        <time>2020-06-17T17:32:39Z</time>
      </trkpt>
      <trkpt lat="49.51299" lon="0.16321">
        <ele>78.3</ele>
        <time>2020-06-17T17:32:40Z</time>
      </trkpt>
      <trkpt lat="49.51302" lon="0.16317">
        <ele>78.4</ele>
        <time>2020-06-17T17:32:41Z</time>
      </trkpt>
      <trkpt lat="49.51302" lon="0.16315">
        <ele>79.2</ele>
        <time>2020-06-17T17:32:42Z</time>
      </trkpt>
      <trkpt lat="49.51303" lon="0.1631">
        <ele>79.2</ele>
        <time>2020-06-17T17:32:43Z</time>
      </trkpt>
      <trkpt lat="49.51303" lon="0.16305">
        <ele>79.1</ele>
        <time>2020-06-17T17:32:44Z</time>
      </trkpt>
      <trkpt lat="49.51303" lon="0.16298">
        <ele>78.6</ele>
        <time>2020-06-17T17:32:45Z</time>
      </trkpt>
      <trkpt lat="49.51304" lon="0.16291">
        <ele>78.3</ele>
        <time>2020-06-17T17:32:46Z</time>
      </trkpt>
      <trkpt lat="49.51304" lon="0.16285">
        <ele>78</ele>
        <time>2020-06-17T17:32:47Z</time>
      </trkpt>
      <trkpt lat="49.51305" lon="0.16279">
        <ele>77.7</ele>
        <time>2020-06-17T17:32:48Z</time>
      </trkpt>
      <trkpt lat="49.51305" lon="0.16274">
        <ele>77.4</ele>
        <time>2020-06-17T17:32:49Z</time>
      </trkpt>
      <trkpt lat="49.51306" lon="0.16269">
        <ele>77.1</ele>
        <time>2020-06-17T17:32:50Z</time>
      </trkpt>
      <trkpt lat="49.51306" lon="0.16262">
        <ele>76.8</ele>
        <time>2020-06-17T17:32:51Z</time>
      </trkpt>
      <trkpt lat="49.51304" lon="0.16253">
        <ele>76.3</ele>
        <time>2020-06-17T17:32:52Z</time>
      </trkpt>
      <trkpt lat="49.51304" lon="0.16245">
        <ele>75.8</ele>
        <time>2020-06-17T17:32:53Z</time>
      </trkpt>
      <trkpt lat="49.51304" lon="0.16236">
        <ele>75.4</ele>
        <time>2020-06-17T17:32:54Z</time>
      </trkpt>
      <trkpt lat="49.51305" lon="0.16228">
        <ele>75.3</ele>
        <time>2020-06-17T17:32:55Z</time>
      </trkpt>
      <trkpt lat="49.51307" lon="0.16219">
        <ele>75.1</ele>
        <time>2020-06-17T17:32:56Z</time>
      </trkpt>
      <trkpt lat="49.51309" lon="0.16211">
        <ele>74.9</ele>
        <time>2020-06-17T17:32:57Z</time>
      </trkpt>
      <trkpt lat="49.51312" lon="0.16203">
        <ele>74.2</ele>
        <time>2020-06-17T17:32:58Z</time>
      </trkpt>
      <trkpt lat="49.51314" lon="0.16196">
        <ele>73.9</ele>
        <time>2020-06-17T17:32:59Z</time>
      </trkpt>
      <trkpt lat="49.51315" lon="0.16187">
        <ele>73.5</ele>
        <time>2020-06-17T17:33:00Z</time>
      </trkpt>
      <trkpt lat="49.51318" lon="0.16179">
        <ele>73.2</ele>
        <time>2020-06-17T17:33:01Z</time>
      </trkpt>
      <trkpt lat="49.5132" lon="0.16171">
        <ele>72.8</ele>
        <time>2020-06-17T17:33:02Z</time>
      </trkpt>
      <trkpt lat="49.51322" lon="0.16162">
        <ele>72.4</ele>
        <time>2020-06-17T17:33:03Z</time>
      </trkpt>
      <trkpt lat="49.51324" lon="0.16153">
        <ele>72</ele>
        <time>2020-06-17T17:33:04Z</time>
      </trkpt>
      <trkpt lat="49.51326" lon="0.16147">
        <ele>71.6</ele>
        <time>2020-06-17T17:33:05Z</time>
      </trkpt>
      <trkpt lat="49.51327" lon="0.16142">
        <ele>71.5</ele>
        <time>2020-06-17T17:33:06Z</time>
      </trkpt>
      <trkpt lat="49.51328" lon="0.16136">
        <ele>71.4</ele>
        <time>2020-06-17T17:33:07Z</time>
      </trkpt>
      <trkpt lat="49.51328" lon="0.16134">
        <ele>71.4</ele>
        <time>2020-06-17T17:33:08Z</time>
      </trkpt>
      <trkpt lat="49.51329" lon="0.1613">
        <ele>71.3</ele>
        <time>2020-06-17T17:33:09Z</time>
      </trkpt>
      <trkpt lat="49.51331" lon="0.16126">
        <ele>71.2</ele>
        <time>2020-06-17T17:33:10Z</time>
      </trkpt>
      <trkpt lat="49.51332" lon="0.16122">
        <ele>71.2</ele>
        <time>2020-06-17T17:33:11Z</time>
      </trkpt>
      <trkpt lat="49.51333" lon="0.16117">
        <ele>71.1</ele>
        <time>2020-06-17T17:33:12Z</time>
      </trkpt>
      <trkpt lat="49.51335" lon="0.16113">
        <ele>71</ele>
        <time>2020-06-17T17:33:13Z</time>
      </trkpt>
      <trkpt lat="49.51336" lon="0.16106">
        <ele>70.9</ele>
        <time>2020-06-17T17:33:14Z</time>
      </trkpt>
      <trkpt lat="49.51337" lon="0.161">
        <ele>70.9</ele>
        <time>2020-06-17T17:33:15Z</time>
      </trkpt>
      <trkpt lat="49.51339" lon="0.16092">
        <ele>70</ele>
        <time>2020-06-17T17:33:16Z</time>
      </trkpt>
      <trkpt lat="49.51341" lon="0.16083">
        <ele>69.4</ele>
        <time>2020-06-17T17:33:17Z</time>
      </trkpt>
      <trkpt lat="49.51344" lon="0.16073">
        <ele>68.7</ele>
        <time>2020-06-17T17:33:18Z</time>
      </trkpt>
      <trkpt lat="49.51346" lon="0.16064">
        <ele>68.1</ele>
        <time>2020-06-17T17:33:19Z</time>
      </trkpt>
      <trkpt lat="49.51349" lon="0.16054">
        <ele>67.3</ele>
        <time>2020-06-17T17:33:20Z</time>
      </trkpt>
      <trkpt lat="49.51351" lon="0.16043">
        <ele>66.6</ele>
        <time>2020-06-17T17:33:21Z</time>
      </trkpt>
      <trkpt lat="49.51354" lon="0.16031">
        <ele>65.8</ele>
        <time>2020-06-17T17:33:22Z</time>
      </trkpt>
      <trkpt lat="49.51357" lon="0.16022">
        <ele>65.1</ele>
        <time>2020-06-17T17:33:23Z</time>
      </trkpt>
      <trkpt lat="49.51359" lon="0.16013">
        <ele>64.6</ele>
        <time>2020-06-17T17:33:24Z</time>
      </trkpt>
      <trkpt lat="49.51361" lon="0.16003">
        <ele>64.2</ele>
        <time>2020-06-17T17:33:25Z</time>
      </trkpt>
      <trkpt lat="49.51363" lon="0.15992">
        <ele>63.6</ele>
        <time>2020-06-17T17:33:26Z</time>
      </trkpt>
      <trkpt lat="49.51366" lon="0.1598">
        <ele>63</ele>
        <time>2020-06-17T17:33:27Z</time>
      </trkpt>
      <trkpt lat="49.51368" lon="0.15967">
        <ele>62.3</ele>
        <time>2020-06-17T17:33:28Z</time>
      </trkpt>
      <trkpt lat="49.51372" lon="0.15954">
        <ele>61.7</ele>
        <time>2020-06-17T17:33:29Z</time>
      </trkpt>
      <trkpt lat="49.51375" lon="0.15942">
        <ele>61</ele>
        <time>2020-06-17T17:33:30Z</time>
      </trkpt>
      <trkpt lat="49.51377" lon="0.15932">
        <ele>60.4</ele>
        <time>2020-06-17T17:33:31Z</time>
      </trkpt>
      <trkpt lat="49.5138" lon="0.1592">
        <ele>59.6</ele>
        <time>2020-06-17T17:33:32Z</time>
      </trkpt>
      <trkpt lat="49.51382" lon="0.15911">
        <ele>59.1</ele>
        <time>2020-06-17T17:33:33Z</time>
      </trkpt>
      <trkpt lat="49.51385" lon="0.15901">
        <ele>58.6</ele>
        <time>2020-06-17T17:33:34Z</time>
      </trkpt>
      <trkpt lat="49.51387" lon="0.15891">
        <ele>58</ele>
        <time>2020-06-17T17:33:35Z</time>
      </trkpt>
      <trkpt lat="49.51389" lon="0.1588">
        <ele>57.5</ele>
        <time>2020-06-17T17:33:36Z</time>
      </trkpt>
      <trkpt lat="49.51391" lon="0.1587">
        <ele>57</ele>
        <time>2020-06-17T17:33:37Z</time>
      </trkpt>
      <trkpt lat="49.51394" lon="0.1586">
        <ele>56.5</ele>
        <time>2020-06-17T17:33:38Z</time>
      </trkpt>
      <trkpt lat="49.51396" lon="0.1585">
        <ele>55.9</ele>
        <time>2020-06-17T17:33:39Z</time>
      </trkpt>
      <trkpt lat="49.51399" lon="0.15839">
        <ele>55.3</ele>
        <time>2020-06-17T17:33:40Z</time>
      </trkpt>
      <trkpt lat="49.51402" lon="0.15828">
        <ele>54.7</ele>
        <time>2020-06-17T17:33:41Z</time>
      </trkpt>
      <trkpt lat="49.51405" lon="0.15817">
        <ele>54.1</ele>
        <time>2020-06-17T17:33:42Z</time>
      </trkpt>
      <trkpt lat="49.51408" lon="0.15806">
        <ele>53.5</ele>
        <time>2020-06-17T17:33:43Z</time>
      </trkpt>
      <trkpt lat="49.51411" lon="0.15795">
        <ele>52.9</ele>
        <time>2020-06-17T17:33:44Z</time>
      </trkpt>
      <trkpt lat="49.51415" lon="0.15786">
        <ele>52.3</ele>
        <time>2020-06-17T17:33:45Z</time>
      </trkpt>
      <trkpt lat="49.51419" lon="0.15777">
        <ele>51.7</ele>
        <time>2020-06-17T17:33:46Z</time>
      </trkpt>
      <trkpt lat="49.51422" lon="0.15769">
        <ele>51.2</ele>
        <time>2020-06-17T17:33:47Z</time>
      </trkpt>
      <trkpt lat="49.51426" lon="0.15761">
        <ele>50.7</ele>
        <time>2020-06-17T17:33:48Z</time>
      </trkpt>
      <trkpt lat="49.51431" lon="0.15753">
        <ele>50.1</ele>
        <time>2020-06-17T17:33:49Z</time>
      </trkpt>
      <trkpt lat="49.51435" lon="0.15745">
        <ele>49.6</ele>
        <time>2020-06-17T17:33:50Z</time>
      </trkpt>
      <trkpt lat="49.5144" lon="0.15737">
        <ele>49</ele>
        <time>2020-06-17T17:33:51Z</time>
      </trkpt>
      <trkpt lat="49.51446" lon="0.1573">
        <ele>48.5</ele>
        <time>2020-06-17T17:33:52Z</time>
      </trkpt>
      <trkpt lat="49.51452" lon="0.15724">
        <ele>48</ele>
        <time>2020-06-17T17:33:53Z</time>
      </trkpt>
      <trkpt lat="49.51459" lon="0.15719">
        <ele>47.4</ele>
        <time>2020-06-17T17:33:54Z</time>
      </trkpt>
      <trkpt lat="49.51465" lon="0.15714">
        <ele>46.8</ele>
        <time>2020-06-17T17:33:55Z</time>
      </trkpt>
      <trkpt lat="49.51471" lon="0.15708">
        <ele>46.3</ele>
        <time>2020-06-17T17:33:56Z</time>
      </trkpt>
      <trkpt lat="49.51477" lon="0.15702">
        <ele>45.7</ele>
        <time>2020-06-17T17:33:57Z</time>
      </trkpt>
      <trkpt lat="49.51483" lon="0.15696">
        <ele>45.2</ele>
        <time>2020-06-17T17:33:58Z</time>
      </trkpt>
      <trkpt lat="49.51489" lon="0.15692">
        <ele>44.6</ele>
        <time>2020-06-17T17:33:59Z</time>
      </trkpt>
      <trkpt lat="49.51496" lon="0.15688">
        <ele>44.1</ele>
        <time>2020-06-17T17:34:00Z</time>
      </trkpt>
      <trkpt lat="49.51502" lon="0.15685">
        <ele>43.5</ele>
        <time>2020-06-17T17:34:01Z</time>
      </trkpt>
      <trkpt lat="49.51508" lon="0.15682">
        <ele>43</ele>
        <time>2020-06-17T17:34:02Z</time>
      </trkpt>
      <trkpt lat="49.51514" lon="0.15678">
        <ele>42.5</ele>
        <time>2020-06-17T17:34:03Z</time>
      </trkpt>
      <trkpt lat="49.5152" lon="0.15675">
        <ele>42</ele>
        <time>2020-06-17T17:34:04Z</time>
      </trkpt>
      <trkpt lat="49.51526" lon="0.15672">
        <ele>41.5</ele>
        <time>2020-06-17T17:34:05Z</time>
      </trkpt>
      <trkpt lat="49.51532" lon="0.15669">
        <ele>41</ele>
        <time>2020-06-17T17:34:06Z</time>
      </trkpt>
      <trkpt lat="49.51539" lon="0.15667">
        <ele>40.4</ele>
        <time>2020-06-17T17:34:07Z</time>
      </trkpt>
      <trkpt lat="49.51545" lon="0.15663">
        <ele>39.9</ele>
        <time>2020-06-17T17:34:08Z</time>
      </trkpt>
      <trkpt lat="49.51551" lon="0.1566">
        <ele>39.3</ele>
        <time>2020-06-17T17:34:09Z</time>
      </trkpt>
      <trkpt lat="49.51557" lon="0.15656">
        <ele>38.8</ele>
        <time>2020-06-17T17:34:10Z</time>
      </trkpt>
      <trkpt lat="49.51564" lon="0.15654">
        <ele>38.3</ele>
        <time>2020-06-17T17:34:11Z</time>
      </trkpt>
      <trkpt lat="49.5157" lon="0.15653">
        <ele>37.8</ele>
        <time>2020-06-17T17:34:12Z</time>
      </trkpt>
      <trkpt lat="49.51576" lon="0.1565">
        <ele>37.5</ele>
        <time>2020-06-17T17:34:13Z</time>
      </trkpt>
      <trkpt lat="49.51582" lon="0.15647">
        <ele>37</ele>
        <time>2020-06-17T17:34:14Z</time>
      </trkpt>
      <trkpt lat="49.51588" lon="0.15645">
        <ele>36.6</ele>
        <time>2020-06-17T17:34:15Z</time>
      </trkpt>
      <trkpt lat="49.51594" lon="0.15643">
        <ele>36.1</ele>
        <time>2020-06-17T17:34:16Z</time>
      </trkpt>
      <trkpt lat="49.516" lon="0.1564">
        <ele>35.7</ele>
        <time>2020-06-17T17:34:17Z</time>
      </trkpt>
      <trkpt lat="49.51605" lon="0.15637">
        <ele>35.4</ele>
        <time>2020-06-17T17:34:18Z</time>
      </trkpt>
      <trkpt lat="49.5161" lon="0.15634">
        <ele>35</ele>
        <time>2020-06-17T17:34:19Z</time>
      </trkpt>
      <trkpt lat="49.51615" lon="0.15632">
        <ele>34.8</ele>
        <time>2020-06-17T17:34:20Z</time>
      </trkpt>
      <trkpt lat="49.51621" lon="0.15631">
        <ele>34.6</ele>
        <time>2020-06-17T17:34:21Z</time>
      </trkpt>
      <trkpt lat="49.51625" lon="0.15628">
        <ele>34.4</ele>
        <time>2020-06-17T17:34:22Z</time>
      </trkpt>
      <trkpt lat="49.51628" lon="0.15625">
        <ele>34.2</ele>
        <time>2020-06-17T17:34:23Z</time>
      </trkpt>
      <trkpt lat="49.51632" lon="0.15623">
        <ele>34.1</ele>
        <time>2020-06-17T17:34:24Z</time>
      </trkpt>
      <trkpt lat="49.51635" lon="0.15621">
        <ele>34</ele>
        <time>2020-06-17T17:34:25Z</time>
      </trkpt>
      <trkpt lat="49.51637" lon="0.1562">
        <ele>33.9</ele>
        <time>2020-06-17T17:34:26Z</time>
      </trkpt>
      <trkpt lat="49.51641" lon="0.15623">
        <ele>33.8</ele>
        <time>2020-06-17T17:34:27Z</time>
      </trkpt>
      <trkpt lat="49.51644" lon="0.1562">
        <ele>33.7</ele>
        <time>2020-06-17T17:34:28Z</time>
      </trkpt>
      <trkpt lat="49.51645" lon="0.15618">
        <ele>33.6</ele>
        <time>2020-06-17T17:34:29Z</time>
      </trkpt>
      <trkpt lat="49.51647" lon="0.15617">
        <ele>33.6</ele>
        <time>2020-06-17T17:34:30Z</time>
      </trkpt>
      <trkpt lat="49.51647" lon="0.15616">
        <ele>33.6</ele>
        <time>2020-06-17T17:34:31Z</time>
      </trkpt>
      <trkpt lat="49.51648" lon="0.15614">
        <ele>33.6</ele>
        <time>2020-06-17T17:34:32Z</time>
      </trkpt>
      <trkpt lat="49.51649" lon="0.15612">
        <ele>33.5</ele>
        <time>2020-06-17T17:34:33Z</time>
      </trkpt>
      <trkpt lat="49.5165" lon="0.15611">
        <ele>33.5</ele>
        <time>2020-06-17T17:34:34Z</time>
      </trkpt>
      <trkpt lat="49.51652" lon="0.15613">
        <ele>33.5</ele>
        <time>2020-06-17T17:34:35Z</time>
      </trkpt>
      <trkpt lat="49.51653" lon="0.15613">
        <ele>33.5</ele>
        <time>2020-06-17T17:34:36Z</time>
      </trkpt>
      <trkpt lat="49.51655" lon="0.15614">
        <ele>33.5</ele>
        <time>2020-06-17T17:34:37Z</time>
      </trkpt>
      <trkpt lat="49.51657" lon="0.15613">
        <ele>33.4</ele>
        <time>2020-06-17T17:34:38Z</time>
      </trkpt>
      <trkpt lat="49.51658" lon="0.15613">
        <ele>33.4</ele>
        <time>2020-06-17T17:34:39Z</time>
      </trkpt>
      <trkpt lat="49.51659" lon="0.15618">
        <ele>33.3</ele>
        <time>2020-06-17T17:34:40Z</time>
      </trkpt>
      <trkpt lat="49.51662" lon="0.15622">
        <ele>33.3</ele>
        <time>2020-06-17T17:34:41Z</time>
      </trkpt>
      <trkpt lat="49.51664" lon="0.15625">
        <ele>33.3</ele>
        <time>2020-06-17T17:34:42Z</time>
      </trkpt>
      <trkpt lat="49.51667" lon="0.15628">
        <ele>33.2</ele>
        <time>2020-06-17T17:34:43Z</time>
      </trkpt>
      <trkpt lat="49.5167" lon="0.15632">
        <ele>33.2</ele>
        <time>2020-06-17T17:34:44Z</time>
      </trkpt>
      <trkpt lat="49.51672" lon="0.15637">
        <ele>33.2</ele>
        <time>2020-06-17T17:34:45Z</time>
      </trkpt>
      <trkpt lat="49.51675" lon="0.15641">
        <ele>33.1</ele>
        <time>2020-06-17T17:34:46Z</time>
      </trkpt>
      <trkpt lat="49.51678" lon="0.15645">
        <ele>33.1</ele>
        <time>2020-06-17T17:34:47Z</time>
      </trkpt>
      <trkpt lat="49.51682" lon="0.15649">
        <ele>33.1</ele>
        <time>2020-06-17T17:34:48Z</time>
      </trkpt>
      <trkpt lat="49.51685" lon="0.15653">
        <ele>33</ele>
        <time>2020-06-17T17:34:49Z</time>
      </trkpt>
      <trkpt lat="49.51688" lon="0.15657">
        <ele>33</ele>
        <time>2020-06-17T17:34:50Z</time>
      </trkpt>
      <trkpt lat="49.51691" lon="0.15661">
        <ele>33</ele>
        <time>2020-06-17T17:34:51Z</time>
      </trkpt>
      <trkpt lat="49.51694" lon="0.15665">
        <ele>32.9</ele>
        <time>2020-06-17T17:34:52Z</time>
      </trkpt>
      <trkpt lat="49.51698" lon="0.1567">
        <ele>33</ele>
        <time>2020-06-17T17:34:53Z</time>
      </trkpt>
      <trkpt lat="49.51701" lon="0.15674">
        <ele>33</ele>
        <time>2020-06-17T17:34:54Z</time>
      </trkpt>
      <trkpt lat="49.51705" lon="0.15679">
        <ele>33</ele>
        <time>2020-06-17T17:34:55Z</time>
      </trkpt>
      <trkpt lat="49.51708" lon="0.15683">
        <ele>33.1</ele>
        <time>2020-06-17T17:34:56Z</time>
      </trkpt>
      <trkpt lat="49.51712" lon="0.15686">
        <ele>33.1</ele>
        <time>2020-06-17T17:34:57Z</time>
      </trkpt>
      <trkpt lat="49.51716" lon="0.15691">
        <ele>33.1</ele>
        <time>2020-06-17T17:34:58Z</time>
      </trkpt>
      <trkpt lat="49.51719" lon="0.15696">
        <ele>33.2</ele>
        <time>2020-06-17T17:34:59Z</time>
      </trkpt>
      <trkpt lat="49.51721" lon="0.157">
        <ele>33.2</ele>
        <time>2020-06-17T17:35:00Z</time>
      </trkpt>
      <trkpt lat="49.51724" lon="0.15704">
        <ele>33.2</ele>
        <time>2020-06-17T17:35:01Z</time>
      </trkpt>
      <trkpt lat="49.51727" lon="0.15706">
        <ele>33.2</ele>
        <time>2020-06-17T17:35:02Z</time>
      </trkpt>
      <trkpt lat="49.51729" lon="0.1571">
        <ele>33.3</ele>
        <time>2020-06-17T17:35:03Z</time>
      </trkpt>
      <trkpt lat="49.51729" lon="0.15711">
        <ele>33.3</ele>
        <time>2020-06-17T17:35:04Z</time>
      </trkpt>
      <trkpt lat="49.51728" lon="0.15712">
        <ele>33.3</ele>
        <time>2020-06-17T17:35:05Z</time>
      </trkpt>
      <trkpt lat="49.51728" lon="0.15712">
        <ele>33.3</ele>
        <time>2020-06-17T17:35:06Z</time>
      </trkpt>
      <trkpt lat="49.51729" lon="0.15712">
        <ele>33.3</ele>
        <time>2020-06-17T17:35:07Z</time>
      </trkpt>
      <trkpt lat="49.51729" lon="0.15711">
        <ele>33.3</ele>
        <time>2020-06-17T17:35:08Z</time>
      </trkpt>
      <trkpt lat="49.51729" lon="0.15711">
        <ele>33.3</ele>
        <time>2020-06-17T17:35:09Z</time>
      </trkpt>
      <trkpt lat="49.51729" lon="0.1571">
        <ele>33.3</ele>
        <time>2020-06-17T17:35:10Z</time>
      </trkpt>
      <trkpt lat="49.51729" lon="0.15711">
        <ele>33.3</ele>
        <time>2020-06-17T17:35:11Z</time>
      </trkpt>
      <trkpt lat="49.51729" lon="0.1571">
        <ele>33.3</ele>
        <time>2020-06-17T17:35:12Z</time>
      </trkpt>
      <trkpt lat="49.51728" lon="0.1571">
        <ele>33.3</ele>
        <time>2020-06-17T17:35:13Z</time>
      </trkpt>
      <trkpt lat="49.51729" lon="0.15711">
        <ele>33.3</ele>
        <time>2020-06-17T17:35:14Z</time>
      </trkpt>
      <trkpt lat="49.51736" lon="0.15717">
        <ele>33.3</ele>
        <time>2020-06-17T17:35:48Z</time>
      </trkpt>
      <trkpt lat="49.51737" lon="0.15717">
        <ele>33.4</ele>
        <time>2020-06-17T17:35:49Z</time>
      </trkpt>
      <trkpt lat="49.51741" lon="0.15717">
        <ele>33.4</ele>
        <time>2020-06-17T17:35:50Z</time>
      </trkpt>
      <trkpt lat="49.51742" lon="0.15717">
        <ele>33.4</ele>
        <time>2020-06-17T17:35:51Z</time>
      </trkpt>
      <trkpt lat="49.51745" lon="0.1572">
        <ele>33.5</ele>
        <time>2020-06-17T17:35:52Z</time>
      </trkpt>
      <trkpt lat="49.51747" lon="0.15722">
        <ele>33.5</ele>
        <time>2020-06-17T17:35:53Z</time>
      </trkpt>
      <trkpt lat="49.51749" lon="0.15724">
        <ele>33.5</ele>
        <time>2020-06-17T17:35:54Z</time>
      </trkpt>
      <trkpt lat="49.51753" lon="0.15724">
        <ele>33.5</ele>
        <time>2020-06-17T17:35:55Z</time>
      </trkpt>
      <trkpt lat="49.51756" lon="0.15723">
        <ele>33.6</ele>
        <time>2020-06-17T17:35:56Z</time>
      </trkpt>
      <trkpt lat="49.51759" lon="0.1572">
        <ele>33.7</ele>
        <time>2020-06-17T17:35:57Z</time>
      </trkpt>
      <trkpt lat="49.51763" lon="0.15718">
        <ele>33.8</ele>
        <time>2020-06-17T17:35:58Z</time>
      </trkpt>
      <trkpt lat="49.51766" lon="0.15716">
        <ele>33.9</ele>
        <time>2020-06-17T17:35:59Z</time>
      </trkpt>
      <trkpt lat="49.51769" lon="0.15714">
        <ele>34</ele>
        <time>2020-06-17T17:36:00Z</time>
      </trkpt>
      <trkpt lat="49.51772" lon="0.15711">
        <ele>34.2</ele>
        <time>2020-06-17T17:36:01Z</time>
      </trkpt>
      <trkpt lat="49.51774" lon="0.15708">
        <ele>34.3</ele>
        <time>2020-06-17T17:36:02Z</time>
      </trkpt>
      <trkpt lat="49.51777" lon="0.15705">
        <ele>34.4</ele>
        <time>2020-06-17T17:36:03Z</time>
      </trkpt>
      <trkpt lat="49.5178" lon="0.15701">
        <ele>34.5</ele>
        <time>2020-06-17T17:36:04Z</time>
      </trkpt>
      <trkpt lat="49.51783" lon="0.15698">
        <ele>34.7</ele>
        <time>2020-06-17T17:36:05Z</time>
      </trkpt>
      <trkpt lat="49.51786" lon="0.15696">
        <ele>34.8</ele>
        <time>2020-06-17T17:36:06Z</time>
      </trkpt>
      <trkpt lat="49.51789" lon="0.15696">
        <ele>35</ele>
        <time>2020-06-17T17:36:07Z</time>
      </trkpt>
      <trkpt lat="49.51792" lon="0.15694">
        <ele>35.1</ele>
        <time>2020-06-17T17:36:08Z</time>
      </trkpt>
      <trkpt lat="49.51796" lon="0.15693">
        <ele>35.3</ele>
        <time>2020-06-17T17:36:09Z</time>
      </trkpt>
      <trkpt lat="49.518" lon="0.15692">
        <ele>35.5</ele>
        <time>2020-06-17T17:36:10Z</time>
      </trkpt>
      <trkpt lat="49.51803" lon="0.15692">
        <ele>35.7</ele>
        <time>2020-06-17T17:36:11Z</time>
      </trkpt>
      <trkpt lat="49.51807" lon="0.15691">
        <ele>35.8</ele>
        <time>2020-06-17T17:36:12Z</time>
      </trkpt>
      <trkpt lat="49.51811" lon="0.15691">
        <ele>36</ele>
        <time>2020-06-17T17:36:13Z</time>
      </trkpt>
      <trkpt lat="49.51815" lon="0.1569">
        <ele>36.3</ele>
        <time>2020-06-17T17:36:14Z</time>
      </trkpt>
      <trkpt lat="49.51819" lon="0.15688">
        <ele>36.5</ele>
        <time>2020-06-17T17:36:15Z</time>
      </trkpt>
      <trkpt lat="49.51822" lon="0.15687">
        <ele>36.7</ele>
        <time>2020-06-17T17:36:16Z</time>
      </trkpt>
      <trkpt lat="49.51825" lon="0.15687">
        <ele>36.8</ele>
        <time>2020-06-17T17:36:17Z</time>
      </trkpt>
      <trkpt lat="49.51828" lon="0.15687">
        <ele>37</ele>
        <time>2020-06-17T17:36:18Z</time>
      </trkpt>
      <trkpt lat="49.51832" lon="0.15685">
        <ele>37.3</ele>
        <time>2020-06-17T17:36:19Z</time>
      </trkpt>
      <trkpt lat="49.51834" lon="0.15684">
        <ele>37.4</ele>
        <time>2020-06-17T17:36:20Z</time>
      </trkpt>
      <trkpt lat="49.51836" lon="0.15684">
        <ele>37.5</ele>
        <time>2020-06-17T17:36:21Z</time>
      </trkpt>
      <trkpt lat="49.51838" lon="0.15684">
        <ele>37.6</ele>
        <time>2020-06-17T17:36:22Z</time>
      </trkpt>
      <trkpt lat="49.51837" lon="0.15683">
        <ele>37.6</ele>
        <time>2020-06-17T17:36:23Z</time>
      </trkpt>
      <trkpt lat="49.51839" lon="0.15683">
        <ele>37.8</ele>
        <time>2020-06-17T17:36:24Z</time>
      </trkpt>
      <trkpt lat="49.51842" lon="0.15683">
        <ele>37.9</ele>
        <time>2020-06-17T17:36:25Z</time>
      </trkpt>
      <trkpt lat="49.51843" lon="0.15684">
        <ele>38</ele>
        <time>2020-06-17T17:36:26Z</time>
      </trkpt>
      <trkpt lat="49.51847" lon="0.15684">
        <ele>38.2</ele>
        <time>2020-06-17T17:36:27Z</time>
      </trkpt>
      <trkpt lat="49.51849" lon="0.15685">
        <ele>38.3</ele>
        <time>2020-06-17T17:36:28Z</time>
      </trkpt>
      <trkpt lat="49.51852" lon="0.15685">
        <ele>38.4</ele>
        <time>2020-06-17T17:36:29Z</time>
      </trkpt>
      <trkpt lat="49.51856" lon="0.15685">
        <ele>38.7</ele>
        <time>2020-06-17T17:36:30Z</time>
      </trkpt>
      <trkpt lat="49.51859" lon="0.15685">
        <ele>38.8</ele>
        <time>2020-06-17T17:36:31Z</time>
      </trkpt>
      <trkpt lat="49.5186" lon="0.15685">
        <ele>38.9</ele>
        <time>2020-06-17T17:36:32Z</time>
      </trkpt>
      <trkpt lat="49.51862" lon="0.15685">
        <ele>39</ele>
        <time>2020-06-17T17:36:33Z</time>
      </trkpt>
      <trkpt lat="49.51863" lon="0.15685">
        <ele>39.1</ele>
        <time>2020-06-17T17:36:34Z</time>
      </trkpt>
      <trkpt lat="49.51867" lon="0.15685">
        <ele>39.3</ele>
        <time>2020-06-17T17:36:35Z</time>
      </trkpt>
      <trkpt lat="49.51871" lon="0.15686">
        <ele>39.5</ele>
        <time>2020-06-17T17:36:36Z</time>
      </trkpt>
      <trkpt lat="49.51875" lon="0.15687">
        <ele>39.7</ele>
        <time>2020-06-17T17:36:37Z</time>
      </trkpt>
      <trkpt lat="49.51877" lon="0.15687">
        <ele>39.8</ele>
        <time>2020-06-17T17:36:38Z</time>
      </trkpt>
      <trkpt lat="49.51881" lon="0.15688">
        <ele>40</ele>
        <time>2020-06-17T17:36:39Z</time>
      </trkpt>
      <trkpt lat="49.51882" lon="0.15688">
        <ele>40</ele>
        <time>2020-06-17T17:36:40Z</time>
      </trkpt>
      <trkpt lat="49.51887" lon="0.1569">
        <ele>40.3</ele>
        <time>2020-06-17T17:36:41Z</time>
      </trkpt>
      <trkpt lat="49.51891" lon="0.15692">
        <ele>40.4</ele>
        <time>2020-06-17T17:36:42Z</time>
      </trkpt>
      <trkpt lat="49.51895" lon="0.15692">
        <ele>40.6</ele>
        <time>2020-06-17T17:36:43Z</time>
      </trkpt>
      <trkpt lat="49.51899" lon="0.15693">
        <ele>40.7</ele>
        <time>2020-06-17T17:36:44Z</time>
      </trkpt>
      <trkpt lat="49.51902" lon="0.15694">
        <ele>40.8</ele>
        <time>2020-06-17T17:36:45Z</time>
      </trkpt>
      <trkpt lat="49.51906" lon="0.15695">
        <ele>41</ele>
        <time>2020-06-17T17:36:46Z</time>
      </trkpt>
      <trkpt lat="49.51907" lon="0.15695">
        <ele>41</ele>
        <time>2020-06-17T17:36:47Z</time>
      </trkpt>
      <trkpt lat="49.51911" lon="0.15696">
        <ele>41.1</ele>
        <time>2020-06-17T17:36:48Z</time>
      </trkpt>
      <trkpt lat="49.51912" lon="0.15697">
        <ele>41.1</ele>
        <time>2020-06-17T17:36:49Z</time>
      </trkpt>
      <trkpt lat="49.51916" lon="0.15699">
        <ele>41.2</ele>
        <time>2020-06-17T17:36:50Z</time>
      </trkpt>
      <trkpt lat="49.5192" lon="0.157">
        <ele>41.3</ele>
        <time>2020-06-17T17:36:51Z</time>
      </trkpt>
      <trkpt lat="49.51923" lon="0.157">
        <ele>41.4</ele>
        <time>2020-06-17T17:36:52Z</time>
      </trkpt>
      <trkpt lat="49.51926" lon="0.157">
        <ele>41.4</ele>
        <time>2020-06-17T17:36:53Z</time>
      </trkpt>
      <trkpt lat="49.51931" lon="0.15701">
        <ele>41.5</ele>
        <time>2020-06-17T17:36:54Z</time>
      </trkpt>
      <trkpt lat="49.51933" lon="0.15703">
        <ele>41.5</ele>
        <time>2020-06-17T17:36:55Z</time>
      </trkpt>
      <trkpt lat="49.51936" lon="0.15704">
        <ele>41.5</ele>
        <time>2020-06-17T17:36:56Z</time>
      </trkpt>
      <trkpt lat="49.5194" lon="0.15705">
        <ele>41.6</ele>
        <time>2020-06-17T17:36:57Z</time>
      </trkpt>
      <trkpt lat="49.51942" lon="0.15706">
        <ele>41.6</ele>
        <time>2020-06-17T17:36:58Z</time>
      </trkpt>
      <trkpt lat="49.51945" lon="0.15706">
        <ele>41.6</ele>
        <time>2020-06-17T17:36:59Z</time>
      </trkpt>
      <trkpt lat="49.51949" lon="0.15706">
        <ele>41.5</ele>
        <time>2020-06-17T17:37:00Z</time>
      </trkpt>
      <trkpt lat="49.51953" lon="0.15707">
        <ele>41.5</ele>
        <time>2020-06-17T17:37:01Z</time>
      </trkpt>
      <trkpt lat="49.51957" lon="0.15707">
        <ele>41.5</ele>
        <time>2020-06-17T17:37:02Z</time>
      </trkpt>
      <trkpt lat="49.51961" lon="0.15708">
        <ele>41.4</ele>
        <time>2020-06-17T17:37:03Z</time>
      </trkpt>
      <trkpt lat="49.51962" lon="0.15708">
        <ele>41.4</ele>
        <time>2020-06-17T17:37:04Z</time>
      </trkpt>
      <trkpt lat="49.51965" lon="0.15708">
        <ele>41.4</ele>
        <time>2020-06-17T17:37:05Z</time>
      </trkpt>
      <trkpt lat="49.51969" lon="0.15708">
        <ele>41.3</ele>
        <time>2020-06-17T17:37:06Z</time>
      </trkpt>
      <trkpt lat="49.51972" lon="0.15708">
        <ele>41.3</ele>
        <time>2020-06-17T17:37:07Z</time>
      </trkpt>
      <trkpt lat="49.51976" lon="0.15707">
        <ele>41.2</ele>
        <time>2020-06-17T17:37:08Z</time>
      </trkpt>
      <trkpt lat="49.51979" lon="0.15708">
        <ele>41.2</ele>
        <time>2020-06-17T17:37:09Z</time>
      </trkpt>
      <trkpt lat="49.51983" lon="0.15708">
        <ele>41.1</ele>
        <time>2020-06-17T17:37:10Z</time>
      </trkpt>
      <trkpt lat="49.51987" lon="0.15709">
        <ele>41.1</ele>
        <time>2020-06-17T17:37:11Z</time>
      </trkpt>
      <trkpt lat="49.51992" lon="0.15711">
        <ele>41</ele>
        <time>2020-06-17T17:37:12Z</time>
      </trkpt>
      <trkpt lat="49.51996" lon="0.15712">
        <ele>40.9</ele>
        <time>2020-06-17T17:37:13Z</time>
      </trkpt>
      <trkpt lat="49.52001" lon="0.15713">
        <ele>40.9</ele>
        <time>2020-06-17T17:37:14Z</time>
      </trkpt>
      <trkpt lat="49.52005" lon="0.15714">
        <ele>40.8</ele>
        <time>2020-06-17T17:37:15Z</time>
      </trkpt>
      <trkpt lat="49.5201" lon="0.15714">
        <ele>40.7</ele>
        <time>2020-06-17T17:37:16Z</time>
      </trkpt>
      <trkpt lat="49.52014" lon="0.15714">
        <ele>40.7</ele>
        <time>2020-06-17T17:37:17Z</time>
      </trkpt>
      <trkpt lat="49.5202" lon="0.15715">
        <ele>40.6</ele>
        <time>2020-06-17T17:37:18Z</time>
      </trkpt>
      <trkpt lat="49.52025" lon="0.15716">
        <ele>40.5</ele>
        <time>2020-06-17T17:37:19Z</time>
      </trkpt>
      <trkpt lat="49.5203" lon="0.15716">
        <ele>40.5</ele>
        <time>2020-06-17T17:37:20Z</time>
      </trkpt>
      <trkpt lat="49.52034" lon="0.15716">
        <ele>40.4</ele>
        <time>2020-06-17T17:37:21Z</time>
      </trkpt>
      <trkpt lat="49.52039" lon="0.15716">
        <ele>40.3</ele>
        <time>2020-06-17T17:37:22Z</time>
      </trkpt>
      <trkpt lat="49.52045" lon="0.15716">
        <ele>40.2</ele>
        <time>2020-06-17T17:37:23Z</time>
      </trkpt>
      <trkpt lat="49.52049" lon="0.15716">
        <ele>40.1</ele>
        <time>2020-06-17T17:37:24Z</time>
      </trkpt>
      <trkpt lat="49.52054" lon="0.15716">
        <ele>40</ele>
        <time>2020-06-17T17:37:25Z</time>
      </trkpt>
      <trkpt lat="49.52059" lon="0.15717">
        <ele>39.9</ele>
        <time>2020-06-17T17:37:26Z</time>
      </trkpt>
      <trkpt lat="49.52063" lon="0.15716">
        <ele>39.9</ele>
        <time>2020-06-17T17:37:27Z</time>
      </trkpt>
      <trkpt lat="49.5207" lon="0.15717">
        <ele>39.8</ele>
        <time>2020-06-17T17:37:28Z</time>
      </trkpt>
      <trkpt lat="49.52077" lon="0.15718">
        <ele>39.7</ele>
        <time>2020-06-17T17:37:29Z</time>
      </trkpt>
      <trkpt lat="49.52083" lon="0.15719">
        <ele>39.7</ele>
        <time>2020-06-17T17:37:30Z</time>
      </trkpt>
      <trkpt lat="49.52088" lon="0.1572">
        <ele>39.7</ele>
        <time>2020-06-17T17:37:31Z</time>
      </trkpt>
      <trkpt lat="49.52093" lon="0.15721">
        <ele>39.6</ele>
        <time>2020-06-17T17:37:32Z</time>
      </trkpt>
      <trkpt lat="49.521" lon="0.15722">
        <ele>39.6</ele>
        <time>2020-06-17T17:37:33Z</time>
      </trkpt>
      <trkpt lat="49.52104" lon="0.15724">
        <ele>39.6</ele>
        <time>2020-06-17T17:37:34Z</time>
      </trkpt>
      <trkpt lat="49.5211" lon="0.15724">
        <ele>39.5</ele>
        <time>2020-06-17T17:37:35Z</time>
      </trkpt>
      <trkpt lat="49.52114" lon="0.15725">
        <ele>39.5</ele>
        <time>2020-06-17T17:37:36Z</time>
      </trkpt>
      <trkpt lat="49.52119" lon="0.15726">
        <ele>39.5</ele>
        <time>2020-06-17T17:37:37Z</time>
      </trkpt>
      <trkpt lat="49.52123" lon="0.15726">
        <ele>39.4</ele>
        <time>2020-06-17T17:37:38Z</time>
      </trkpt>
      <trkpt lat="49.52128" lon="0.15726">
        <ele>39.4</ele>
        <time>2020-06-17T17:37:39Z</time>
      </trkpt>
      <trkpt lat="49.52134" lon="0.15725">
        <ele>39.4</ele>
        <time>2020-06-17T17:37:40Z</time>
      </trkpt>
      <trkpt lat="49.5214" lon="0.15725">
        <ele>39.4</ele>
        <time>2020-06-17T17:37:41Z</time>
      </trkpt>
      <trkpt lat="49.52146" lon="0.15725">
        <ele>39.4</ele>
        <time>2020-06-17T17:37:42Z</time>
      </trkpt>
      <trkpt lat="49.52151" lon="0.15727">
        <ele>39.4</ele>
        <time>2020-06-17T17:37:43Z</time>
      </trkpt>
      <trkpt lat="49.52156" lon="0.15726">
        <ele>39.4</ele>
        <time>2020-06-17T17:37:44Z</time>
      </trkpt>
      <trkpt lat="49.5216" lon="0.15727">
        <ele>39.4</ele>
        <time>2020-06-17T17:37:45Z</time>
      </trkpt>
      <trkpt lat="49.52164" lon="0.15727">
        <ele>39.3</ele>
        <time>2020-06-17T17:37:46Z</time>
      </trkpt>
      <trkpt lat="49.52169" lon="0.15727">
        <ele>39.3</ele>
        <time>2020-06-17T17:37:47Z</time>
      </trkpt>
      <trkpt lat="49.52175" lon="0.15727">
        <ele>39.3</ele>
        <time>2020-06-17T17:37:48Z</time>
      </trkpt>
      <trkpt lat="49.52181" lon="0.15728">
        <ele>39.3</ele>
        <time>2020-06-17T17:37:49Z</time>
      </trkpt>
      <trkpt lat="49.52186" lon="0.15729">
        <ele>39.3</ele>
        <time>2020-06-17T17:37:50Z</time>
      </trkpt>
      <trkpt lat="49.52192" lon="0.1573">
        <ele>39.3</ele>
        <time>2020-06-17T17:37:51Z</time>
      </trkpt>
      <trkpt lat="49.52197" lon="0.15731">
        <ele>39.2</ele>
        <time>2020-06-17T17:37:52Z</time>
      </trkpt>
      <trkpt lat="49.52202" lon="0.15732">
        <ele>39.3</ele>
        <time>2020-06-17T17:37:53Z</time>
      </trkpt>
      <trkpt lat="49.52207" lon="0.15732">
        <ele>39.3</ele>
        <time>2020-06-17T17:37:54Z</time>
      </trkpt>
      <trkpt lat="49.52212" lon="0.15733">
        <ele>39.3</ele>
        <time>2020-06-17T17:37:55Z</time>
      </trkpt>
      <trkpt lat="49.52217" lon="0.15733">
        <ele>39</ele>
        <time>2020-06-17T17:37:56Z</time>
      </trkpt>
      <trkpt lat="49.52222" lon="0.15732">
        <ele>38.9</ele>
        <time>2020-06-17T17:37:57Z</time>
      </trkpt>
      <trkpt lat="49.52226" lon="0.15731">
        <ele>38.8</ele>
        <time>2020-06-17T17:37:58Z</time>
      </trkpt>
      <trkpt lat="49.52228" lon="0.15731">
        <ele>38.7</ele>
        <time>2020-06-17T17:37:59Z</time>
      </trkpt>
      <trkpt lat="49.52228" lon="0.15731">
        <ele>38.7</ele>
        <time>2020-06-17T17:38:00Z</time>
      </trkpt>
      <trkpt lat="49.52229" lon="0.15731">
        <ele>38.7</ele>
        <time>2020-06-17T17:38:01Z</time>
      </trkpt>
      <trkpt lat="49.52229" lon="0.15731">
        <ele>38.7</ele>
        <time>2020-06-17T17:38:02Z</time>
      </trkpt>
      <trkpt lat="49.52232" lon="0.15731">
        <ele>38.6</ele>
        <time>2020-06-17T17:38:03Z</time>
      </trkpt>
      <trkpt lat="49.52234" lon="0.15731">
        <ele>38.5</ele>
        <time>2020-06-17T17:38:04Z</time>
      </trkpt>
      <trkpt lat="49.52239" lon="0.1573">
        <ele>38.4</ele>
        <time>2020-06-17T17:38:05Z</time>
      </trkpt>
      <trkpt lat="49.52242" lon="0.1573">
        <ele>38.3</ele>
        <time>2020-06-17T17:38:06Z</time>
      </trkpt>
      <trkpt lat="49.52247" lon="0.15729">
        <ele>38.2</ele>
        <time>2020-06-17T17:38:07Z</time>
      </trkpt>
      <trkpt lat="49.52252" lon="0.15728">
        <ele>38.1</ele>
        <time>2020-06-17T17:38:08Z</time>
      </trkpt>
      <trkpt lat="49.52257" lon="0.15727">
        <ele>38</ele>
        <time>2020-06-17T17:38:09Z</time>
      </trkpt>
      <trkpt lat="49.52263" lon="0.15727">
        <ele>37.9</ele>
        <time>2020-06-17T17:38:10Z</time>
      </trkpt>
      <trkpt lat="49.52268" lon="0.15727">
        <ele>37.7</ele>
        <time>2020-06-17T17:38:11Z</time>
      </trkpt>
      <trkpt lat="49.52273" lon="0.15728">
        <ele>37.6</ele>
        <time>2020-06-17T17:38:12Z</time>
      </trkpt>
      <trkpt lat="49.5228" lon="0.1573">
        <ele>37.5</ele>
        <time>2020-06-17T17:38:13Z</time>
      </trkpt>
      <trkpt lat="49.52285" lon="0.15729">
        <ele>37.4</ele>
        <time>2020-06-17T17:38:14Z</time>
      </trkpt>
      <trkpt lat="49.5229" lon="0.15728">
        <ele>37.4</ele>
        <time>2020-06-17T17:38:15Z</time>
      </trkpt>
      <trkpt lat="49.52296" lon="0.15728">
        <ele>37.4</ele>
        <time>2020-06-17T17:38:16Z</time>
      </trkpt>
      <trkpt lat="49.52301" lon="0.15727">
        <ele>37.5</ele>
        <time>2020-06-17T17:38:17Z</time>
      </trkpt>
      <trkpt lat="49.52306" lon="0.15726">
        <ele>37.5</ele>
        <time>2020-06-17T17:38:18Z</time>
      </trkpt>
      <trkpt lat="49.52311" lon="0.15725">
        <ele>37.6</ele>
        <time>2020-06-17T17:38:19Z</time>
      </trkpt>
      <trkpt lat="49.52318" lon="0.15723">
        <ele>37.7</ele>
        <time>2020-06-17T17:38:20Z</time>
      </trkpt>
      <trkpt lat="49.52323" lon="0.1572">
        <ele>37.8</ele>
        <time>2020-06-17T17:38:21Z</time>
      </trkpt>
      <trkpt lat="49.52328" lon="0.15718">
        <ele>37.8</ele>
        <time>2020-06-17T17:38:22Z</time>
      </trkpt>
      <trkpt lat="49.52333" lon="0.15716">
        <ele>37.9</ele>
        <time>2020-06-17T17:38:23Z</time>
      </trkpt>
      <trkpt lat="49.52337" lon="0.15714">
        <ele>37.9</ele>
        <time>2020-06-17T17:38:24Z</time>
      </trkpt>
      <trkpt lat="49.52341" lon="0.15712">
        <ele>37.9</ele>
        <time>2020-06-17T17:38:25Z</time>
      </trkpt>
      <trkpt lat="49.52346" lon="0.15711">
        <ele>37.9</ele>
        <time>2020-06-17T17:38:26Z</time>
      </trkpt>
      <trkpt lat="49.5235" lon="0.15707">
        <ele>37.9</ele>
        <time>2020-06-17T17:38:27Z</time>
      </trkpt>
      <trkpt lat="49.52355" lon="0.15703">
        <ele>37.8</ele>
        <time>2020-06-17T17:38:28Z</time>
      </trkpt>
      <trkpt lat="49.52358" lon="0.157">
        <ele>37.7</ele>
        <time>2020-06-17T17:38:29Z</time>
      </trkpt>
      <trkpt lat="49.52363" lon="0.15697">
        <ele>37.6</ele>
        <time>2020-06-17T17:38:30Z</time>
      </trkpt>
      <trkpt lat="49.52368" lon="0.15692">
        <ele>37.4</ele>
        <time>2020-06-17T17:38:31Z</time>
      </trkpt>
      <trkpt lat="49.52371" lon="0.15689">
        <ele>37.3</ele>
        <time>2020-06-17T17:38:32Z</time>
      </trkpt>
      <trkpt lat="49.52375" lon="0.15684">
        <ele>37.2</ele>
        <time>2020-06-17T17:38:33Z</time>
      </trkpt>
      <trkpt lat="49.52379" lon="0.15681">
        <ele>37.1</ele>
        <time>2020-06-17T17:38:34Z</time>
      </trkpt>
      <trkpt lat="49.52384" lon="0.15675">
        <ele>37</ele>
        <time>2020-06-17T17:38:35Z</time>
      </trkpt>
      <trkpt lat="49.52388" lon="0.1567">
        <ele>36.9</ele>
        <time>2020-06-17T17:38:36Z</time>
      </trkpt>
      <trkpt lat="49.52392" lon="0.15663">
        <ele>36.7</ele>
        <time>2020-06-17T17:38:37Z</time>
      </trkpt>
      <trkpt lat="49.52396" lon="0.15658">
        <ele>36.6</ele>
        <time>2020-06-17T17:38:38Z</time>
      </trkpt>
      <trkpt lat="49.524" lon="0.15652">
        <ele>36.5</ele>
        <time>2020-06-17T17:38:39Z</time>
      </trkpt>
      <trkpt lat="49.52403" lon="0.15648">
        <ele>36.3</ele>
        <time>2020-06-17T17:38:40Z</time>
      </trkpt>
      <trkpt lat="49.52408" lon="0.15642">
        <ele>36.2</ele>
        <time>2020-06-17T17:38:41Z</time>
      </trkpt>
      <trkpt lat="49.52412" lon="0.15634">
        <ele>36</ele>
        <time>2020-06-17T17:38:42Z</time>
      </trkpt>
      <trkpt lat="49.52417" lon="0.15626">
        <ele>35.8</ele>
        <time>2020-06-17T17:38:43Z</time>
      </trkpt>
      <trkpt lat="49.52422" lon="0.15618">
        <ele>35.7</ele>
        <time>2020-06-17T17:38:44Z</time>
      </trkpt>
      <trkpt lat="49.52426" lon="0.15612">
        <ele>35.6</ele>
        <time>2020-06-17T17:38:45Z</time>
      </trkpt>
      <trkpt lat="49.5243" lon="0.15605">
        <ele>35.4</ele>
        <time>2020-06-17T17:38:46Z</time>
      </trkpt>
      <trkpt lat="49.52434" lon="0.15598">
        <ele>35.3</ele>
        <time>2020-06-17T17:38:47Z</time>
      </trkpt>
      <trkpt lat="49.52439" lon="0.15589">
        <ele>35.1</ele>
        <time>2020-06-17T17:38:48Z</time>
      </trkpt>
      <trkpt lat="49.52443" lon="0.1558">
        <ele>34.9</ele>
        <time>2020-06-17T17:38:49Z</time>
      </trkpt>
      <trkpt lat="49.52447" lon="0.15572">
        <ele>34.8</ele>
        <time>2020-06-17T17:38:50Z</time>
      </trkpt>
      <trkpt lat="49.52451" lon="0.15565">
        <ele>34.6</ele>
        <time>2020-06-17T17:38:51Z</time>
      </trkpt>
      <trkpt lat="49.52456" lon="0.15559">
        <ele>34.5</ele>
        <time>2020-06-17T17:38:52Z</time>
      </trkpt>
      <trkpt lat="49.52459" lon="0.15552">
        <ele>34.4</ele>
        <time>2020-06-17T17:38:53Z</time>
      </trkpt>
      <trkpt lat="49.52463" lon="0.15545">
        <ele>34.2</ele>
        <time>2020-06-17T17:38:54Z</time>
      </trkpt>
      <trkpt lat="49.52467" lon="0.15538">
        <ele>34.1</ele>
        <time>2020-06-17T17:38:55Z</time>
      </trkpt>
      <trkpt lat="49.52471" lon="0.15531">
        <ele>34</ele>
        <time>2020-06-17T17:38:56Z</time>
      </trkpt>
      <trkpt lat="49.52475" lon="0.15525">
        <ele>33.8</ele>
        <time>2020-06-17T17:38:57Z</time>
      </trkpt>
      <trkpt lat="49.52478" lon="0.15519">
        <ele>33.7</ele>
        <time>2020-06-17T17:38:58Z</time>
      </trkpt>
      <trkpt lat="49.52482" lon="0.15513">
        <ele>33.7</ele>
        <time>2020-06-17T17:38:59Z</time>
      </trkpt>
      <trkpt lat="49.52487" lon="0.15507">
        <ele>33.6</ele>
        <time>2020-06-17T17:39:00Z</time>
      </trkpt>
      <trkpt lat="49.52491" lon="0.15501">
        <ele>33.6</ele>
        <time>2020-06-17T17:39:01Z</time>
      </trkpt>
      <trkpt lat="49.52495" lon="0.15496">
        <ele>33.5</ele>
        <time>2020-06-17T17:39:02Z</time>
      </trkpt>
      <trkpt lat="49.52499" lon="0.1549">
        <ele>33.5</ele>
        <time>2020-06-17T17:39:03Z</time>
      </trkpt>
      <trkpt lat="49.52503" lon="0.15483">
        <ele>33.4</ele>
        <time>2020-06-17T17:39:04Z</time>
      </trkpt>
      <trkpt lat="49.52506" lon="0.15477">
        <ele>33.3</ele>
        <time>2020-06-17T17:39:05Z</time>
      </trkpt>
      <trkpt lat="49.52509" lon="0.1547">
        <ele>33.2</ele>
        <time>2020-06-17T17:39:06Z</time>
      </trkpt>
      <trkpt lat="49.52514" lon="0.15463">
        <ele>33.1</ele>
        <time>2020-06-17T17:39:07Z</time>
      </trkpt>
      <trkpt lat="49.52517" lon="0.15457">
        <ele>33</ele>
        <time>2020-06-17T17:39:08Z</time>
      </trkpt>
      <trkpt lat="49.52521" lon="0.1545">
        <ele>32.9</ele>
        <time>2020-06-17T17:39:09Z</time>
      </trkpt>
      <trkpt lat="49.52525" lon="0.15443">
        <ele>32.8</ele>
        <time>2020-06-17T17:39:10Z</time>
      </trkpt>
      <trkpt lat="49.52528" lon="0.15437">
        <ele>32.7</ele>
        <time>2020-06-17T17:39:11Z</time>
      </trkpt>
      <trkpt lat="49.52531" lon="0.15432">
        <ele>32.7</ele>
        <time>2020-06-17T17:39:12Z</time>
      </trkpt>
      <trkpt lat="49.52535" lon="0.15425">
        <ele>32.6</ele>
        <time>2020-06-17T17:39:13Z</time>
      </trkpt>
      <trkpt lat="49.52538" lon="0.1542">
        <ele>32.5</ele>
        <time>2020-06-17T17:39:14Z</time>
      </trkpt>
      <trkpt lat="49.52542" lon="0.15412">
        <ele>32.4</ele>
        <time>2020-06-17T17:39:15Z</time>
      </trkpt>
      <trkpt lat="49.52546" lon="0.15406">
        <ele>32.3</ele>
        <time>2020-06-17T17:39:16Z</time>
      </trkpt>
      <trkpt lat="49.5255" lon="0.15401">
        <ele>32.3</ele>
        <time>2020-06-17T17:39:17Z</time>
      </trkpt>
      <trkpt lat="49.52554" lon="0.15395">
        <ele>32.3</ele>
        <time>2020-06-17T17:39:18Z</time>
      </trkpt>
      <trkpt lat="49.52559" lon="0.15389">
        <ele>32.2</ele>
        <time>2020-06-17T17:39:19Z</time>
      </trkpt>
      <trkpt lat="49.52563" lon="0.15384">
        <ele>32.2</ele>
        <time>2020-06-17T17:39:20Z</time>
      </trkpt>
      <trkpt lat="49.52566" lon="0.1538">
        <ele>32.1</ele>
        <time>2020-06-17T17:39:21Z</time>
      </trkpt>
      <trkpt lat="49.52569" lon="0.15374">
        <ele>32.1</ele>
        <time>2020-06-17T17:39:22Z</time>
      </trkpt>
      <trkpt lat="49.5257" lon="0.15369">
        <ele>32.1</ele>
        <time>2020-06-17T17:39:23Z</time>
      </trkpt>
      <trkpt lat="49.52569" lon="0.15364">
        <ele>32.1</ele>
        <time>2020-06-17T17:39:24Z</time>
      </trkpt>
      <trkpt lat="49.52569" lon="0.15362">
        <ele>32.1</ele>
        <time>2020-06-17T17:39:25Z</time>
      </trkpt>
      <trkpt lat="49.52568" lon="0.15357">
        <ele>32.1</ele>
        <time>2020-06-17T17:39:26Z</time>
      </trkpt>
      <trkpt lat="49.52566" lon="0.15352">
        <ele>32.1</ele>
        <time>2020-06-17T17:39:27Z</time>
      </trkpt>
      <trkpt lat="49.52565" lon="0.15345">
        <ele>31.8</ele>
        <time>2020-06-17T17:39:28Z</time>
      </trkpt>
      <trkpt lat="49.52564" lon="0.15339">
        <ele>31.7</ele>
        <time>2020-06-17T17:39:29Z</time>
      </trkpt>
      <trkpt lat="49.52563" lon="0.15335">
        <ele>31.6</ele>
        <time>2020-06-17T17:39:30Z</time>
      </trkpt>
      <trkpt lat="49.52563" lon="0.15329">
        <ele>31.5</ele>
        <time>2020-06-17T17:39:31Z</time>
      </trkpt>
      <trkpt lat="49.52565" lon="0.15323">
        <ele>31.5</ele>
        <time>2020-06-17T17:39:32Z</time>
      </trkpt>
      <trkpt lat="49.52567" lon="0.15321">
        <ele>31.4</ele>
        <time>2020-06-17T17:39:33Z</time>
      </trkpt>
      <trkpt lat="49.52569" lon="0.15316">
        <ele>31.3</ele>
        <time>2020-06-17T17:39:34Z</time>
      </trkpt>
      <trkpt lat="49.52571" lon="0.15311">
        <ele>31.3</ele>
        <time>2020-06-17T17:39:35Z</time>
      </trkpt>
      <trkpt lat="49.52573" lon="0.15306">
        <ele>31.2</ele>
        <time>2020-06-17T17:39:36Z</time>
      </trkpt>
      <trkpt lat="49.52576" lon="0.153">
        <ele>31.1</ele>
        <time>2020-06-17T17:39:37Z</time>
      </trkpt>
      <trkpt lat="49.52578" lon="0.15296">
        <ele>31.1</ele>
        <time>2020-06-17T17:39:38Z</time>
      </trkpt>
      <trkpt lat="49.52581" lon="0.1529">
        <ele>31</ele>
        <time>2020-06-17T17:39:39Z</time>
      </trkpt>
      <trkpt lat="49.52584" lon="0.15285">
        <ele>30.9</ele>
        <time>2020-06-17T17:39:40Z</time>
      </trkpt>
      <trkpt lat="49.52587" lon="0.15281">
        <ele>30.8</ele>
        <time>2020-06-17T17:39:41Z</time>
      </trkpt>
      <trkpt lat="49.5259" lon="0.15274">
        <ele>30.8</ele>
        <time>2020-06-17T17:39:42Z</time>
      </trkpt>
      <trkpt lat="49.52592" lon="0.1527">
        <ele>30.7</ele>
        <time>2020-06-17T17:39:43Z</time>
      </trkpt>
      <trkpt lat="49.52594" lon="0.15263">
        <ele>30.7</ele>
        <time>2020-06-17T17:39:44Z</time>
      </trkpt>
      <trkpt lat="49.52597" lon="0.15258">
        <ele>30.6</ele>
        <time>2020-06-17T17:39:45Z</time>
      </trkpt>
      <trkpt lat="49.52599" lon="0.15252">
        <ele>30.6</ele>
        <time>2020-06-17T17:39:46Z</time>
      </trkpt>
      <trkpt lat="49.52601" lon="0.15245">
        <ele>30.5</ele>
        <time>2020-06-17T17:39:47Z</time>
      </trkpt>
      <trkpt lat="49.52604" lon="0.1524">
        <ele>30.4</ele>
        <time>2020-06-17T17:39:48Z</time>
      </trkpt>
      <trkpt lat="49.52606" lon="0.15234">
        <ele>30.4</ele>
        <time>2020-06-17T17:39:49Z</time>
      </trkpt>
      <trkpt lat="49.52608" lon="0.15229">
        <ele>30.3</ele>
        <time>2020-06-17T17:39:50Z</time>
      </trkpt>
      <trkpt lat="49.52611" lon="0.15223">
        <ele>30.3</ele>
        <time>2020-06-17T17:39:51Z</time>
      </trkpt>
      <trkpt lat="49.52614" lon="0.15217">
        <ele>30.2</ele>
        <time>2020-06-17T17:39:52Z</time>
      </trkpt>
      <trkpt lat="49.52616" lon="0.1521">
        <ele>30.2</ele>
        <time>2020-06-17T17:39:53Z</time>
      </trkpt>
      <trkpt lat="49.52618" lon="0.15205">
        <ele>30.2</ele>
        <time>2020-06-17T17:39:54Z</time>
      </trkpt>
      <trkpt lat="49.5262" lon="0.15198">
        <ele>30.1</ele>
        <time>2020-06-17T17:39:55Z</time>
      </trkpt>
      <trkpt lat="49.52623" lon="0.15194">
        <ele>30.1</ele>
        <time>2020-06-17T17:39:56Z</time>
      </trkpt>
      <trkpt lat="49.52625" lon="0.15189">
        <ele>30.1</ele>
        <time>2020-06-17T17:39:57Z</time>
      </trkpt>
      <trkpt lat="49.52628" lon="0.15183">
        <ele>30.1</ele>
        <time>2020-06-17T17:39:58Z</time>
      </trkpt>
      <trkpt lat="49.5263" lon="0.15177">
        <ele>30.1</ele>
        <time>2020-06-17T17:39:59Z</time>
      </trkpt>
      <trkpt lat="49.52633" lon="0.15172">
        <ele>30.1</ele>
        <time>2020-06-17T17:40:00Z</time>
      </trkpt>
      <trkpt lat="49.52636" lon="0.15166">
        <ele>30.1</ele>
        <time>2020-06-17T17:40:01Z</time>
      </trkpt>
      <trkpt lat="49.52639" lon="0.15162">
        <ele>30</ele>
        <time>2020-06-17T17:40:02Z</time>
      </trkpt>
      <trkpt lat="49.52642" lon="0.15159">
        <ele>30</ele>
        <time>2020-06-17T17:40:03Z</time>
      </trkpt>
      <trkpt lat="49.52646" lon="0.15154">
        <ele>30</ele>
        <time>2020-06-17T17:40:04Z</time>
      </trkpt>
      <trkpt lat="49.52648" lon="0.1515">
        <ele>29.9</ele>
        <time>2020-06-17T17:40:05Z</time>
      </trkpt>
      <trkpt lat="49.5265" lon="0.15143">
        <ele>29.9</ele>
        <time>2020-06-17T17:40:06Z</time>
      </trkpt>
      <trkpt lat="49.52654" lon="0.15138">
        <ele>29.8</ele>
        <time>2020-06-17T17:40:07Z</time>
      </trkpt>
      <trkpt lat="49.52657" lon="0.15132">
        <ele>29.7</ele>
        <time>2020-06-17T17:40:08Z</time>
      </trkpt>
      <trkpt lat="49.52661" lon="0.15126">
        <ele>29.5</ele>
        <time>2020-06-17T17:40:09Z</time>
      </trkpt>
      <trkpt lat="49.52665" lon="0.15122">
        <ele>29.4</ele>
        <time>2020-06-17T17:40:10Z</time>
      </trkpt>
      <trkpt lat="49.52668" lon="0.15118">
        <ele>29.2</ele>
        <time>2020-06-17T17:40:11Z</time>
      </trkpt>
      <trkpt lat="49.52671" lon="0.15113">
        <ele>28.7</ele>
        <time>2020-06-17T17:40:12Z</time>
      </trkpt>
      <trkpt lat="49.52676" lon="0.15107">
        <ele>28.5</ele>
        <time>2020-06-17T17:40:13Z</time>
      </trkpt>
      <trkpt lat="49.5268" lon="0.151">
        <ele>28.2</ele>
        <time>2020-06-17T17:40:14Z</time>
      </trkpt>
      <trkpt lat="49.52684" lon="0.15095">
        <ele>28</ele>
        <time>2020-06-17T17:40:15Z</time>
      </trkpt>
      <trkpt lat="49.52689" lon="0.15087">
        <ele>27.6</ele>
        <time>2020-06-17T17:40:16Z</time>
      </trkpt>
      <trkpt lat="49.52694" lon="0.1508">
        <ele>27.3</ele>
        <time>2020-06-17T17:40:17Z</time>
      </trkpt>
      <trkpt lat="49.52699" lon="0.15072">
        <ele>27</ele>
        <time>2020-06-17T17:40:18Z</time>
      </trkpt>
      <trkpt lat="49.52703" lon="0.15064">
        <ele>26.7</ele>
        <time>2020-06-17T17:40:19Z</time>
      </trkpt>
      <trkpt lat="49.52708" lon="0.15058">
        <ele>26.4</ele>
        <time>2020-06-17T17:40:20Z</time>
      </trkpt>
      <trkpt lat="49.52712" lon="0.15052">
        <ele>26.1</ele>
        <time>2020-06-17T17:40:21Z</time>
      </trkpt>
      <trkpt lat="49.52717" lon="0.15044">
        <ele>25.8</ele>
        <time>2020-06-17T17:40:22Z</time>
      </trkpt>
      <trkpt lat="49.5272" lon="0.15038">
        <ele>25.6</ele>
        <time>2020-06-17T17:40:23Z</time>
      </trkpt>
      <trkpt lat="49.52725" lon="0.15031">
        <ele>25.5</ele>
        <time>2020-06-17T17:40:24Z</time>
      </trkpt>
      <trkpt lat="49.52729" lon="0.15025">
        <ele>25.3</ele>
        <time>2020-06-17T17:40:25Z</time>
      </trkpt>
      <trkpt lat="49.52732" lon="0.1502">
        <ele>25.2</ele>
        <time>2020-06-17T17:40:26Z</time>
      </trkpt>
      <trkpt lat="49.52734" lon="0.15016">
        <ele>25.1</ele>
        <time>2020-06-17T17:40:27Z</time>
      </trkpt>
      <trkpt lat="49.52737" lon="0.15014">
        <ele>25.1</ele>
        <time>2020-06-17T17:40:28Z</time>
      </trkpt>
      <trkpt lat="49.5274" lon="0.15011">
        <ele>25.1</ele>
        <time>2020-06-17T17:40:29Z</time>
      </trkpt>
      <trkpt lat="49.52741" lon="0.1501">
        <ele>25</ele>
        <time>2020-06-17T17:40:30Z</time>
      </trkpt>
      <trkpt lat="49.52744" lon="0.15007">
        <ele>25</ele>
        <time>2020-06-17T17:40:31Z</time>
      </trkpt>
      <trkpt lat="49.52745" lon="0.15007">
        <ele>25</ele>
        <time>2020-06-17T17:40:32Z</time>
      </trkpt>
      <trkpt lat="49.52749" lon="0.15003">
        <ele>25</ele>
        <time>2020-06-17T17:40:33Z</time>
      </trkpt>
      <trkpt lat="49.52753" lon="0.14999">
        <ele>25</ele>
        <time>2020-06-17T17:40:34Z</time>
      </trkpt>
      <trkpt lat="49.52754" lon="0.14994">
        <ele>25</ele>
        <time>2020-06-17T17:40:35Z</time>
      </trkpt>
      <trkpt lat="49.52757" lon="0.14989">
        <ele>25.1</ele>
        <time>2020-06-17T17:40:36Z</time>
      </trkpt>
      <trkpt lat="49.52758" lon="0.14987">
        <ele>25.1</ele>
        <time>2020-06-17T17:40:37Z</time>
      </trkpt>
      <trkpt lat="49.52761" lon="0.14984">
        <ele>25.1</ele>
        <time>2020-06-17T17:40:38Z</time>
      </trkpt>
      <trkpt lat="49.52764" lon="0.14982">
        <ele>25.2</ele>
        <time>2020-06-17T17:40:39Z</time>
      </trkpt>
      <trkpt lat="49.52767" lon="0.14981">
        <ele>25.2</ele>
        <time>2020-06-17T17:40:40Z</time>
      </trkpt>
      <trkpt lat="49.5277" lon="0.14978">
        <ele>25.3</ele>
        <time>2020-06-17T17:40:41Z</time>
      </trkpt>
      <trkpt lat="49.52774" lon="0.14975">
        <ele>25.4</ele>
        <time>2020-06-17T17:40:42Z</time>
      </trkpt>
      <trkpt lat="49.52777" lon="0.14972">
        <ele>25.5</ele>
        <time>2020-06-17T17:40:43Z</time>
      </trkpt>
      <trkpt lat="49.5278" lon="0.14969">
        <ele>25.6</ele>
        <time>2020-06-17T17:40:44Z</time>
      </trkpt>
      <trkpt lat="49.52783" lon="0.14967">
        <ele>25.7</ele>
        <time>2020-06-17T17:40:45Z</time>
      </trkpt>
      <trkpt lat="49.52787" lon="0.14965">
        <ele>25.9</ele>
        <time>2020-06-17T17:40:46Z</time>
      </trkpt>
      <trkpt lat="49.52791" lon="0.14964">
        <ele>26</ele>
        <time>2020-06-17T17:40:47Z</time>
      </trkpt>
      <trkpt lat="49.52794" lon="0.14962">
        <ele>26.2</ele>
        <time>2020-06-17T17:40:48Z</time>
      </trkpt>
      <trkpt lat="49.52797" lon="0.14958">
        <ele>26.3</ele>
        <time>2020-06-17T17:40:49Z</time>
      </trkpt>
      <trkpt lat="49.52801" lon="0.14954">
        <ele>26.5</ele>
        <time>2020-06-17T17:40:50Z</time>
      </trkpt>
      <trkpt lat="49.52803" lon="0.14953">
        <ele>26.6</ele>
        <time>2020-06-17T17:40:51Z</time>
      </trkpt>
      <trkpt lat="49.52806" lon="0.1495">
        <ele>26.8</ele>
        <time>2020-06-17T17:40:52Z</time>
      </trkpt>
      <trkpt lat="49.52809" lon="0.14948">
        <ele>26.9</ele>
        <time>2020-06-17T17:40:53Z</time>
      </trkpt>
      <trkpt lat="49.52812" lon="0.14944">
        <ele>27</ele>
        <time>2020-06-17T17:40:54Z</time>
      </trkpt>
      <trkpt lat="49.52813" lon="0.14943">
        <ele>27.1</ele>
        <time>2020-06-17T17:40:55Z</time>
      </trkpt>
      <trkpt lat="49.52814" lon="0.14938">
        <ele>27.4</ele>
        <time>2020-06-17T17:40:56Z</time>
      </trkpt>
      <trkpt lat="49.52817" lon="0.14935">
        <ele>27.6</ele>
        <time>2020-06-17T17:40:57Z</time>
      </trkpt>
      <trkpt lat="49.52819" lon="0.14933">
        <ele>27.7</ele>
        <time>2020-06-17T17:40:58Z</time>
      </trkpt>
      <trkpt lat="49.52821" lon="0.1493">
        <ele>27.9</ele>
        <time>2020-06-17T17:40:59Z</time>
      </trkpt>
      <trkpt lat="49.52823" lon="0.14927">
        <ele>28</ele>
        <time>2020-06-17T17:41:00Z</time>
      </trkpt>
      <trkpt lat="49.52826" lon="0.14923">
        <ele>28.1</ele>
        <time>2020-06-17T17:41:01Z</time>
      </trkpt>
      <trkpt lat="49.52829" lon="0.1492">
        <ele>28.3</ele>
        <time>2020-06-17T17:41:02Z</time>
      </trkpt>
      <trkpt lat="49.52831" lon="0.14916">
        <ele>28.4</ele>
        <time>2020-06-17T17:41:03Z</time>
      </trkpt>
      <trkpt lat="49.52833" lon="0.14913">
        <ele>28.5</ele>
        <time>2020-06-17T17:41:04Z</time>
      </trkpt>
      <trkpt lat="49.52835" lon="0.14908">
        <ele>28.6</ele>
        <time>2020-06-17T17:41:05Z</time>
      </trkpt>
      <trkpt lat="49.52839" lon="0.14904">
        <ele>28.8</ele>
        <time>2020-06-17T17:41:06Z</time>
      </trkpt>
      <trkpt lat="49.52843" lon="0.149">
        <ele>29</ele>
        <time>2020-06-17T17:41:07Z</time>
      </trkpt>
      <trkpt lat="49.52846" lon="0.14895">
        <ele>29.1</ele>
        <time>2020-06-17T17:41:08Z</time>
      </trkpt>
      <trkpt lat="49.5285" lon="0.14889">
        <ele>29.3</ele>
        <time>2020-06-17T17:41:09Z</time>
      </trkpt>
      <trkpt lat="49.52852" lon="0.14885">
        <ele>29.4</ele>
        <time>2020-06-17T17:41:10Z</time>
      </trkpt>
      <trkpt lat="49.52855" lon="0.14879">
        <ele>29.5</ele>
        <time>2020-06-17T17:41:11Z</time>
      </trkpt>
      <trkpt lat="49.52856" lon="0.14877">
        <ele>29.6</ele>
        <time>2020-06-17T17:41:12Z</time>
      </trkpt>
      <trkpt lat="49.52858" lon="0.14872">
        <ele>29.7</ele>
        <time>2020-06-17T17:41:13Z</time>
      </trkpt>
      <trkpt lat="49.5286" lon="0.14867">
        <ele>29.8</ele>
        <time>2020-06-17T17:41:14Z</time>
      </trkpt>
      <trkpt lat="49.52861" lon="0.14864">
        <ele>29.9</ele>
        <time>2020-06-17T17:41:15Z</time>
      </trkpt>
      <trkpt lat="49.52863" lon="0.1486">
        <ele>30</ele>
        <time>2020-06-17T17:41:16Z</time>
      </trkpt>
      <trkpt lat="49.52865" lon="0.14857">
        <ele>30.1</ele>
        <time>2020-06-17T17:41:17Z</time>
      </trkpt>
      <trkpt lat="49.52867" lon="0.14852">
        <ele>30.2</ele>
        <time>2020-06-17T17:41:18Z</time>
      </trkpt>
      <trkpt lat="49.5287" lon="0.14847">
        <ele>30.3</ele>
        <time>2020-06-17T17:41:19Z</time>
      </trkpt>
      <trkpt lat="49.52872" lon="0.14843">
        <ele>30.5</ele>
        <time>2020-06-17T17:41:20Z</time>
      </trkpt>
      <trkpt lat="49.52874" lon="0.14838">
        <ele>30.6</ele>
        <time>2020-06-17T17:41:21Z</time>
      </trkpt>
      <trkpt lat="49.52876" lon="0.14834">
        <ele>30.7</ele>
        <time>2020-06-17T17:41:22Z</time>
      </trkpt>
      <trkpt lat="49.52879" lon="0.14829">
        <ele>30.9</ele>
        <time>2020-06-17T17:41:23Z</time>
      </trkpt>
      <trkpt lat="49.52881" lon="0.14824">
        <ele>31.1</ele>
        <time>2020-06-17T17:41:24Z</time>
      </trkpt>
      <trkpt lat="49.52883" lon="0.1482">
        <ele>31.2</ele>
        <time>2020-06-17T17:41:25Z</time>
      </trkpt>
      <trkpt lat="49.52885" lon="0.14816">
        <ele>31.4</ele>
        <time>2020-06-17T17:41:26Z</time>
      </trkpt>
      <trkpt lat="49.52886" lon="0.14812">
        <ele>31.5</ele>
        <time>2020-06-17T17:41:27Z</time>
      </trkpt>
      <trkpt lat="49.52888" lon="0.14809">
        <ele>31.6</ele>
        <time>2020-06-17T17:41:28Z</time>
      </trkpt>
      <trkpt lat="49.5289" lon="0.14802">
        <ele>31.9</ele>
        <time>2020-06-17T17:41:29Z</time>
      </trkpt>
      <trkpt lat="49.52891" lon="0.14799">
        <ele>32</ele>
        <time>2020-06-17T17:41:30Z</time>
      </trkpt>
      <trkpt lat="49.52893" lon="0.14793">
        <ele>32.2</ele>
        <time>2020-06-17T17:41:31Z</time>
      </trkpt>
      <trkpt lat="49.52894" lon="0.14787">
        <ele>32.4</ele>
        <time>2020-06-17T17:41:32Z</time>
      </trkpt>
      <trkpt lat="49.52896" lon="0.14781">
        <ele>32.6</ele>
        <time>2020-06-17T17:41:33Z</time>
      </trkpt>
      <trkpt lat="49.52898" lon="0.14775">
        <ele>32.9</ele>
        <time>2020-06-17T17:41:34Z</time>
      </trkpt>
      <trkpt lat="49.52899" lon="0.14772">
        <ele>33</ele>
        <time>2020-06-17T17:41:35Z</time>
      </trkpt>
      <trkpt lat="49.529" lon="0.14767">
        <ele>33.2</ele>
        <time>2020-06-17T17:41:36Z</time>
      </trkpt>
      <trkpt lat="49.52902" lon="0.14762">
        <ele>33.4</ele>
        <time>2020-06-17T17:41:37Z</time>
      </trkpt>
      <trkpt lat="49.52903" lon="0.14756">
        <ele>33.6</ele>
        <time>2020-06-17T17:41:38Z</time>
      </trkpt>
      <trkpt lat="49.52905" lon="0.14751">
        <ele>33.8</ele>
        <time>2020-06-17T17:41:39Z</time>
      </trkpt>
      <trkpt lat="49.52906" lon="0.14745">
        <ele>34.1</ele>
        <time>2020-06-17T17:41:40Z</time>
      </trkpt>
      <trkpt lat="49.52907" lon="0.14741">
        <ele>34.2</ele>
        <time>2020-06-17T17:41:41Z</time>
      </trkpt>
      <trkpt lat="49.52908" lon="0.14736">
        <ele>34.4</ele>
        <time>2020-06-17T17:41:42Z</time>
      </trkpt>
      <trkpt lat="49.52909" lon="0.14731">
        <ele>34.6</ele>
        <time>2020-06-17T17:41:43Z</time>
      </trkpt>
      <trkpt lat="49.5291" lon="0.1473">
        <ele>34.7</ele>
        <time>2020-06-17T17:41:44Z</time>
      </trkpt>
      <trkpt lat="49.52911" lon="0.14725">
        <ele>34.9</ele>
        <time>2020-06-17T17:41:45Z</time>
      </trkpt>
      <trkpt lat="49.52912" lon="0.14723">
        <ele>35</ele>
        <time>2020-06-17T17:41:46Z</time>
      </trkpt>
      <trkpt lat="49.52913" lon="0.1472">
        <ele>35.2</ele>
        <time>2020-06-17T17:41:47Z</time>
      </trkpt>
      <trkpt lat="49.52916" lon="0.14715">
        <ele>35.4</ele>
        <time>2020-06-17T17:41:48Z</time>
      </trkpt>
      <trkpt lat="49.52917" lon="0.14711">
        <ele>35.6</ele>
        <time>2020-06-17T17:41:49Z</time>
      </trkpt>
      <trkpt lat="49.52919" lon="0.14705">
        <ele>35.9</ele>
        <time>2020-06-17T17:41:50Z</time>
      </trkpt>
      <trkpt lat="49.5292" lon="0.147">
        <ele>36.1</ele>
        <time>2020-06-17T17:41:51Z</time>
      </trkpt>
      <trkpt lat="49.52922" lon="0.14693">
        <ele>36.4</ele>
        <time>2020-06-17T17:41:52Z</time>
      </trkpt>
      <trkpt lat="49.52923" lon="0.1469">
        <ele>36.4</ele>
        <time>2020-06-17T17:41:53Z</time>
      </trkpt>
      <trkpt lat="49.52923" lon="0.14686">
        <ele>36.6</ele>
        <time>2020-06-17T17:41:54Z</time>
      </trkpt>
      <trkpt lat="49.52925" lon="0.14681">
        <ele>36.8</ele>
        <time>2020-06-17T17:41:55Z</time>
      </trkpt>
      <trkpt lat="49.52926" lon="0.14676">
        <ele>36.9</ele>
        <time>2020-06-17T17:41:56Z</time>
      </trkpt>
      <trkpt lat="49.52928" lon="0.14671">
        <ele>37</ele>
        <time>2020-06-17T17:41:57Z</time>
      </trkpt>
      <trkpt lat="49.5293" lon="0.14667">
        <ele>37.1</ele>
        <time>2020-06-17T17:41:58Z</time>
      </trkpt>
      <trkpt lat="49.52931" lon="0.14663">
        <ele>37.2</ele>
        <time>2020-06-17T17:41:59Z</time>
      </trkpt>
      <trkpt lat="49.5293" lon="0.14658">
        <ele>37.3</ele>
        <time>2020-06-17T17:42:00Z</time>
      </trkpt>
      <trkpt lat="49.52932" lon="0.14653">
        <ele>37.5</ele>
        <time>2020-06-17T17:42:01Z</time>
      </trkpt>
      <trkpt lat="49.52933" lon="0.14647">
        <ele>37.6</ele>
        <time>2020-06-17T17:42:02Z</time>
      </trkpt>
      <trkpt lat="49.52934" lon="0.14641">
        <ele>37.7</ele>
        <time>2020-06-17T17:42:03Z</time>
      </trkpt>
      <trkpt lat="49.52934" lon="0.14636">
        <ele>37.8</ele>
        <time>2020-06-17T17:42:04Z</time>
      </trkpt>
      <trkpt lat="49.52935" lon="0.14634">
        <ele>37.8</ele>
        <time>2020-06-17T17:42:05Z</time>
      </trkpt>
      <trkpt lat="49.52935" lon="0.14629">
        <ele>37.9</ele>
        <time>2020-06-17T17:42:06Z</time>
      </trkpt>
      <trkpt lat="49.52936" lon="0.14622">
        <ele>37.9</ele>
        <time>2020-06-17T17:42:07Z</time>
      </trkpt>
      <trkpt lat="49.52935" lon="0.14617">
        <ele>38</ele>
        <time>2020-06-17T17:42:08Z</time>
      </trkpt>
      <trkpt lat="49.52936" lon="0.14612">
        <ele>38</ele>
        <time>2020-06-17T17:42:09Z</time>
      </trkpt>
      <trkpt lat="49.52936" lon="0.14607">
        <ele>38.1</ele>
        <time>2020-06-17T17:42:10Z</time>
      </trkpt>
      <trkpt lat="49.52937" lon="0.14602">
        <ele>38.1</ele>
        <time>2020-06-17T17:42:11Z</time>
      </trkpt>
      <trkpt lat="49.52937" lon="0.14597">
        <ele>38.1</ele>
        <time>2020-06-17T17:42:12Z</time>
      </trkpt>
      <trkpt lat="49.52937" lon="0.14591">
        <ele>38.1</ele>
        <time>2020-06-17T17:42:13Z</time>
      </trkpt>
      <trkpt lat="49.52936" lon="0.14585">
        <ele>38.1</ele>
        <time>2020-06-17T17:42:14Z</time>
      </trkpt>
      <trkpt lat="49.52936" lon="0.1458">
        <ele>38.1</ele>
        <time>2020-06-17T17:42:15Z</time>
      </trkpt>
      <trkpt lat="49.52936" lon="0.14575">
        <ele>38.2</ele>
        <time>2020-06-17T17:42:16Z</time>
      </trkpt>
      <trkpt lat="49.52935" lon="0.1457">
        <ele>38.2</ele>
        <time>2020-06-17T17:42:17Z</time>
      </trkpt>
      <trkpt lat="49.52935" lon="0.14565">
        <ele>38.1</ele>
        <time>2020-06-17T17:42:18Z</time>
      </trkpt>
      <trkpt lat="49.52935" lon="0.1456">
        <ele>38.1</ele>
        <time>2020-06-17T17:42:19Z</time>
      </trkpt>
      <trkpt lat="49.52936" lon="0.14555">
        <ele>38.1</ele>
        <time>2020-06-17T17:42:20Z</time>
      </trkpt>
      <trkpt lat="49.52937" lon="0.1455">
        <ele>38.1</ele>
        <time>2020-06-17T17:42:21Z</time>
      </trkpt>
      <trkpt lat="49.52937" lon="0.14543">
        <ele>38</ele>
        <time>2020-06-17T17:42:22Z</time>
      </trkpt>
      <trkpt lat="49.52936" lon="0.14537">
        <ele>37.9</ele>
        <time>2020-06-17T17:42:23Z</time>
      </trkpt>
      <trkpt lat="49.52936" lon="0.1453">
        <ele>37.9</ele>
        <time>2020-06-17T17:42:24Z</time>
      </trkpt>
      <trkpt lat="49.52936" lon="0.14523">
        <ele>37.8</ele>
        <time>2020-06-17T17:42:25Z</time>
      </trkpt>
      <trkpt lat="49.52936" lon="0.14515">
        <ele>37.7</ele>
        <time>2020-06-17T17:42:26Z</time>
      </trkpt>
      <trkpt lat="49.52936" lon="0.14509">
        <ele>37.6</ele>
        <time>2020-06-17T17:42:27Z</time>
      </trkpt>
      <trkpt lat="49.52936" lon="0.14503">
        <ele>37.5</ele>
        <time>2020-06-17T17:42:28Z</time>
      </trkpt>
      <trkpt lat="49.52936" lon="0.14496">
        <ele>37.5</ele>
        <time>2020-06-17T17:42:29Z</time>
      </trkpt>
      <trkpt lat="49.52936" lon="0.14489">
        <ele>37.3</ele>
        <time>2020-06-17T17:42:30Z</time>
      </trkpt>
      <trkpt lat="49.52936" lon="0.14483">
        <ele>37.2</ele>
        <time>2020-06-17T17:42:31Z</time>
      </trkpt>
      <trkpt lat="49.52936" lon="0.14476">
        <ele>37</ele>
        <time>2020-06-17T17:42:32Z</time>
      </trkpt>
      <trkpt lat="49.52936" lon="0.14468">
        <ele>36.9</ele>
        <time>2020-06-17T17:42:33Z</time>
      </trkpt>
      <trkpt lat="49.52935" lon="0.14461">
        <ele>36.7</ele>
        <time>2020-06-17T17:42:34Z</time>
      </trkpt>
      <trkpt lat="49.52935" lon="0.14454">
        <ele>36.5</ele>
        <time>2020-06-17T17:42:35Z</time>
      </trkpt>
      <trkpt lat="49.52935" lon="0.14449">
        <ele>36.3</ele>
        <time>2020-06-17T17:42:36Z</time>
      </trkpt>
      <trkpt lat="49.52936" lon="0.14442">
        <ele>36.1</ele>
        <time>2020-06-17T17:42:37Z</time>
      </trkpt>
      <trkpt lat="49.52936" lon="0.14435">
        <ele>35.9</ele>
        <time>2020-06-17T17:42:38Z</time>
      </trkpt>
      <trkpt lat="49.52937" lon="0.14428">
        <ele>35.6</ele>
        <time>2020-06-17T17:42:39Z</time>
      </trkpt>
      <trkpt lat="49.52938" lon="0.1442">
        <ele>35.3</ele>
        <time>2020-06-17T17:42:40Z</time>
      </trkpt>
      <trkpt lat="49.52939" lon="0.14416">
        <ele>35.2</ele>
        <time>2020-06-17T17:42:41Z</time>
      </trkpt>
      <trkpt lat="49.5294" lon="0.14411">
        <ele>35</ele>
        <time>2020-06-17T17:42:42Z</time>
      </trkpt>
      <trkpt lat="49.52941" lon="0.14407">
        <ele>34.8</ele>
        <time>2020-06-17T17:42:43Z</time>
      </trkpt>
      <trkpt lat="49.52943" lon="0.14402">
        <ele>34.6</ele>
        <time>2020-06-17T17:42:44Z</time>
      </trkpt>
      <trkpt lat="49.52944" lon="0.144">
        <ele>34.5</ele>
        <time>2020-06-17T17:42:45Z</time>
      </trkpt>
      <trkpt lat="49.52946" lon="0.14395">
        <ele>34.3</ele>
        <time>2020-06-17T17:42:46Z</time>
      </trkpt>
      <trkpt lat="49.52949" lon="0.14391">
        <ele>34.1</ele>
        <time>2020-06-17T17:42:47Z</time>
      </trkpt>
      <trkpt lat="49.5295" lon="0.1439">
        <ele>34</ele>
        <time>2020-06-17T17:42:48Z</time>
      </trkpt>
      <trkpt lat="49.52952" lon="0.14386">
        <ele>33.9</ele>
        <time>2020-06-17T17:42:49Z</time>
      </trkpt>
      <trkpt lat="49.52955" lon="0.14382">
        <ele>33.7</ele>
        <time>2020-06-17T17:42:50Z</time>
      </trkpt>
      <trkpt lat="49.52958" lon="0.14378">
        <ele>33.6</ele>
        <time>2020-06-17T17:42:51Z</time>
      </trkpt>
      <trkpt lat="49.52962" lon="0.14376">
        <ele>33.5</ele>
        <time>2020-06-17T17:42:52Z</time>
      </trkpt>
      <trkpt lat="49.52965" lon="0.14376">
        <ele>33.4</ele>
        <time>2020-06-17T17:42:53Z</time>
      </trkpt>
      <trkpt lat="49.52969" lon="0.14373">
        <ele>33.2</ele>
        <time>2020-06-17T17:42:54Z</time>
      </trkpt>
      <trkpt lat="49.52973" lon="0.14374">
        <ele>33.1</ele>
        <time>2020-06-17T17:42:55Z</time>
      </trkpt>
      <trkpt lat="49.52977" lon="0.14375">
        <ele>32.9</ele>
        <time>2020-06-17T17:42:56Z</time>
      </trkpt>
      <trkpt lat="49.52981" lon="0.14377">
        <ele>33</ele>
        <time>2020-06-17T17:42:57Z</time>
      </trkpt>
      <trkpt lat="49.52986" lon="0.1438">
        <ele>33</ele>
        <time>2020-06-17T17:42:58Z</time>
      </trkpt>
      <trkpt lat="49.52989" lon="0.14382">
        <ele>33</ele>
        <time>2020-06-17T17:42:59Z</time>
      </trkpt>
      <trkpt lat="49.52994" lon="0.14383">
        <ele>32.8</ele>
        <time>2020-06-17T17:43:00Z</time>
      </trkpt>
      <trkpt lat="49.52999" lon="0.14383">
        <ele>32.7</ele>
        <time>2020-06-17T17:43:01Z</time>
      </trkpt>
      <trkpt lat="49.53003" lon="0.14382">
        <ele>32.6</ele>
        <time>2020-06-17T17:43:02Z</time>
      </trkpt>
      <trkpt lat="49.53007" lon="0.14379">
        <ele>32.5</ele>
        <time>2020-06-17T17:43:03Z</time>
      </trkpt>
      <trkpt lat="49.53012" lon="0.14376">
        <ele>32.4</ele>
        <time>2020-06-17T17:43:04Z</time>
      </trkpt>
      <trkpt lat="49.53016" lon="0.14374">
        <ele>32.3</ele>
        <time>2020-06-17T17:43:05Z</time>
      </trkpt>
      <trkpt lat="49.5302" lon="0.14376">
        <ele>32.3</ele>
        <time>2020-06-17T17:43:06Z</time>
      </trkpt>
      <trkpt lat="49.53025" lon="0.14377">
        <ele>32.2</ele>
        <time>2020-06-17T17:43:07Z</time>
      </trkpt>
      <trkpt lat="49.53029" lon="0.14379">
        <ele>32.1</ele>
        <time>2020-06-17T17:43:08Z</time>
      </trkpt>
      <trkpt lat="49.53034" lon="0.14382">
        <ele>32</ele>
        <time>2020-06-17T17:43:09Z</time>
      </trkpt>
      <trkpt lat="49.53039" lon="0.14385">
        <ele>32</ele>
        <time>2020-06-17T17:43:10Z</time>
      </trkpt>
      <trkpt lat="49.53044" lon="0.14388">
        <ele>32</ele>
        <time>2020-06-17T17:43:11Z</time>
      </trkpt>
      <trkpt lat="49.53049" lon="0.14391">
        <ele>32.1</ele>
        <time>2020-06-17T17:43:12Z</time>
      </trkpt>
      <trkpt lat="49.53054" lon="0.14394">
        <ele>32.2</ele>
        <time>2020-06-17T17:43:13Z</time>
      </trkpt>
      <trkpt lat="49.53058" lon="0.14396">
        <ele>32.3</ele>
        <time>2020-06-17T17:43:14Z</time>
      </trkpt>
      <trkpt lat="49.53062" lon="0.14398">
        <ele>32.5</ele>
        <time>2020-06-17T17:43:15Z</time>
      </trkpt>
      <trkpt lat="49.53066" lon="0.144">
        <ele>32.6</ele>
        <time>2020-06-17T17:43:16Z</time>
      </trkpt>
      <trkpt lat="49.5307" lon="0.14402">
        <ele>32.7</ele>
        <time>2020-06-17T17:43:17Z</time>
      </trkpt>
      <trkpt lat="49.53073" lon="0.14405">
        <ele>32.9</ele>
        <time>2020-06-17T17:43:18Z</time>
      </trkpt>
      <trkpt lat="49.53076" lon="0.14407">
        <ele>33</ele>
        <time>2020-06-17T17:43:19Z</time>
      </trkpt>
      <trkpt lat="49.53079" lon="0.14411">
        <ele>33.1</ele>
        <time>2020-06-17T17:43:20Z</time>
      </trkpt>
      <trkpt lat="49.53082" lon="0.14414">
        <ele>33.2</ele>
        <time>2020-06-17T17:43:21Z</time>
      </trkpt>
      <trkpt lat="49.53084" lon="0.14419">
        <ele>33.4</ele>
        <time>2020-06-17T17:43:22Z</time>
      </trkpt>
      <trkpt lat="49.53086" lon="0.14425">
        <ele>33.5</ele>
        <time>2020-06-17T17:43:23Z</time>
      </trkpt>
      <trkpt lat="49.53088" lon="0.14432">
        <ele>33.6</ele>
        <time>2020-06-17T17:43:24Z</time>
      </trkpt>
      <trkpt lat="49.5309" lon="0.14438">
        <ele>33.7</ele>
        <time>2020-06-17T17:43:25Z</time>
      </trkpt>
      <trkpt lat="49.53092" lon="0.14443">
        <ele>33.7</ele>
        <time>2020-06-17T17:43:26Z</time>
      </trkpt>
      <trkpt lat="49.53096" lon="0.14448">
        <ele>33.8</ele>
        <time>2020-06-17T17:43:27Z</time>
      </trkpt>
      <trkpt lat="49.53099" lon="0.14451">
        <ele>33.8</ele>
        <time>2020-06-17T17:43:28Z</time>
      </trkpt>
      <trkpt lat="49.53102" lon="0.14454">
        <ele>33.9</ele>
        <time>2020-06-17T17:43:29Z</time>
      </trkpt>
      <trkpt lat="49.53107" lon="0.14456">
        <ele>34</ele>
        <time>2020-06-17T17:43:30Z</time>
      </trkpt>
      <trkpt lat="49.53112" lon="0.14457">
        <ele>34.3</ele>
        <time>2020-06-17T17:43:31Z</time>
      </trkpt>
      <trkpt lat="49.53115" lon="0.14459">
        <ele>34.3</ele>
        <time>2020-06-17T17:43:32Z</time>
      </trkpt>
      <trkpt lat="49.53119" lon="0.14463">
        <ele>34.3</ele>
        <time>2020-06-17T17:43:33Z</time>
      </trkpt>
      <trkpt lat="49.53124" lon="0.14469">
        <ele>34.3</ele>
        <time>2020-06-17T17:43:34Z</time>
      </trkpt>
      <trkpt lat="49.53127" lon="0.14474">
        <ele>34.4</ele>
        <time>2020-06-17T17:43:35Z</time>
      </trkpt>
      <trkpt lat="49.5313" lon="0.14481">
        <ele>34.6</ele>
        <time>2020-06-17T17:43:36Z</time>
      </trkpt>
      <trkpt lat="49.53133" lon="0.14488">
        <ele>34.8</ele>
        <time>2020-06-17T17:43:37Z</time>
      </trkpt>
      <trkpt lat="49.53135" lon="0.14494">
        <ele>35</ele>
        <time>2020-06-17T17:43:38Z</time>
      </trkpt>
      <trkpt lat="49.53138" lon="0.14499">
        <ele>35.2</ele>
        <time>2020-06-17T17:43:39Z</time>
      </trkpt>
      <trkpt lat="49.53141" lon="0.14505">
        <ele>35.4</ele>
        <time>2020-06-17T17:43:40Z</time>
      </trkpt>
      <trkpt lat="49.53145" lon="0.14511">
        <ele>35.7</ele>
        <time>2020-06-17T17:43:41Z</time>
      </trkpt>
      <trkpt lat="49.53148" lon="0.14516">
        <ele>35.9</ele>
        <time>2020-06-17T17:43:42Z</time>
      </trkpt>
      <trkpt lat="49.53153" lon="0.1452">
        <ele>36.1</ele>
        <time>2020-06-17T17:43:43Z</time>
      </trkpt>
      <trkpt lat="49.53156" lon="0.14524">
        <ele>36.3</ele>
        <time>2020-06-17T17:43:44Z</time>
      </trkpt>
      <trkpt lat="49.5316" lon="0.14527">
        <ele>36.5</ele>
        <time>2020-06-17T17:43:45Z</time>
      </trkpt>
      <trkpt lat="49.53163" lon="0.1453">
        <ele>36.7</ele>
        <time>2020-06-17T17:43:46Z</time>
      </trkpt>
      <trkpt lat="49.53167" lon="0.14531">
        <ele>36.9</ele>
        <time>2020-06-17T17:43:47Z</time>
      </trkpt>
      <trkpt lat="49.53171" lon="0.14532">
        <ele>37.1</ele>
        <time>2020-06-17T17:43:48Z</time>
      </trkpt>
      <trkpt lat="49.53174" lon="0.14533">
        <ele>37.2</ele>
        <time>2020-06-17T17:43:49Z</time>
      </trkpt>
      <trkpt lat="49.53179" lon="0.14534">
        <ele>37.4</ele>
        <time>2020-06-17T17:43:50Z</time>
      </trkpt>
      <trkpt lat="49.53182" lon="0.14537">
        <ele>37.6</ele>
        <time>2020-06-17T17:43:51Z</time>
      </trkpt>
      <trkpt lat="49.53186" lon="0.14538">
        <ele>37.7</ele>
        <time>2020-06-17T17:43:52Z</time>
      </trkpt>
      <trkpt lat="49.53187" lon="0.14538">
        <ele>37.7</ele>
        <time>2020-06-17T17:43:53Z</time>
      </trkpt>
      <trkpt lat="49.5319" lon="0.14539">
        <ele>37.9</ele>
        <time>2020-06-17T17:43:54Z</time>
      </trkpt>
      <trkpt lat="49.53194" lon="0.14541">
        <ele>38</ele>
        <time>2020-06-17T17:43:55Z</time>
      </trkpt>
      <trkpt lat="49.53199" lon="0.14543">
        <ele>38.2</ele>
        <time>2020-06-17T17:43:56Z</time>
      </trkpt>
      <trkpt lat="49.53203" lon="0.14545">
        <ele>38.3</ele>
        <time>2020-06-17T17:43:57Z</time>
      </trkpt>
      <trkpt lat="49.53207" lon="0.14547">
        <ele>38.5</ele>
        <time>2020-06-17T17:43:58Z</time>
      </trkpt>
      <trkpt lat="49.53212" lon="0.1455">
        <ele>38.6</ele>
        <time>2020-06-17T17:43:59Z</time>
      </trkpt>
      <trkpt lat="49.53217" lon="0.14553">
        <ele>38.8</ele>
        <time>2020-06-17T17:44:00Z</time>
      </trkpt>
      <trkpt lat="49.53221" lon="0.14556">
        <ele>38.9</ele>
        <time>2020-06-17T17:44:01Z</time>
      </trkpt>
      <trkpt lat="49.53226" lon="0.14559">
        <ele>39.1</ele>
        <time>2020-06-17T17:44:02Z</time>
      </trkpt>
      <trkpt lat="49.53231" lon="0.1456">
        <ele>39.2</ele>
        <time>2020-06-17T17:44:03Z</time>
      </trkpt>
      <trkpt lat="49.53235" lon="0.14563">
        <ele>39.4</ele>
        <time>2020-06-17T17:44:04Z</time>
      </trkpt>
      <trkpt lat="49.53241" lon="0.14565">
        <ele>39.5</ele>
        <time>2020-06-17T17:44:05Z</time>
      </trkpt>
      <trkpt lat="49.53244" lon="0.14568">
        <ele>39.6</ele>
        <time>2020-06-17T17:44:06Z</time>
      </trkpt>
      <trkpt lat="49.53248" lon="0.14569">
        <ele>39.7</ele>
        <time>2020-06-17T17:44:07Z</time>
      </trkpt>
      <trkpt lat="49.53252" lon="0.14571">
        <ele>39.8</ele>
        <time>2020-06-17T17:44:08Z</time>
      </trkpt>
      <trkpt lat="49.53257" lon="0.14573">
        <ele>40</ele>
        <time>2020-06-17T17:44:09Z</time>
      </trkpt>
      <trkpt lat="49.5326" lon="0.14574">
        <ele>40.1</ele>
        <time>2020-06-17T17:44:10Z</time>
      </trkpt>
      <trkpt lat="49.53264" lon="0.14576">
        <ele>40.1</ele>
        <time>2020-06-17T17:44:11Z</time>
      </trkpt>
      <trkpt lat="49.53269" lon="0.14579">
        <ele>40.2</ele>
        <time>2020-06-17T17:44:12Z</time>
      </trkpt>
      <trkpt lat="49.53273" lon="0.14581">
        <ele>40.2</ele>
        <time>2020-06-17T17:44:13Z</time>
      </trkpt>
      <trkpt lat="49.53277" lon="0.14583">
        <ele>40.3</ele>
        <time>2020-06-17T17:44:14Z</time>
      </trkpt>
      <trkpt lat="49.53282" lon="0.14587">
        <ele>40.4</ele>
        <time>2020-06-17T17:44:15Z</time>
      </trkpt>
      <trkpt lat="49.53286" lon="0.14589">
        <ele>40.5</ele>
        <time>2020-06-17T17:44:16Z</time>
      </trkpt>
      <trkpt lat="49.53289" lon="0.14591">
        <ele>40.6</ele>
        <time>2020-06-17T17:44:17Z</time>
      </trkpt>
      <trkpt lat="49.53293" lon="0.14594">
        <ele>40.6</ele>
        <time>2020-06-17T17:44:18Z</time>
      </trkpt>
      <trkpt lat="49.53298" lon="0.14596">
        <ele>40.7</ele>
        <time>2020-06-17T17:44:19Z</time>
      </trkpt>
      <trkpt lat="49.53302" lon="0.14598">
        <ele>40.7</ele>
        <time>2020-06-17T17:44:20Z</time>
      </trkpt>
      <trkpt lat="49.53306" lon="0.14601">
        <ele>40.8</ele>
        <time>2020-06-17T17:44:21Z</time>
      </trkpt>
      <trkpt lat="49.5331" lon="0.14603">
        <ele>40.8</ele>
        <time>2020-06-17T17:44:22Z</time>
      </trkpt>
      <trkpt lat="49.53316" lon="0.14604">
        <ele>40.9</ele>
        <time>2020-06-17T17:44:23Z</time>
      </trkpt>
      <trkpt lat="49.53322" lon="0.14607">
        <ele>40.9</ele>
        <time>2020-06-17T17:44:24Z</time>
      </trkpt>
      <trkpt lat="49.53326" lon="0.1461">
        <ele>40.9</ele>
        <time>2020-06-17T17:44:25Z</time>
      </trkpt>
      <trkpt lat="49.53329" lon="0.14612">
        <ele>41</ele>
        <time>2020-06-17T17:44:26Z</time>
      </trkpt>
      <trkpt lat="49.53334" lon="0.14615">
        <ele>41</ele>
        <time>2020-06-17T17:44:27Z</time>
      </trkpt>
      <trkpt lat="49.53338" lon="0.14617">
        <ele>41</ele>
        <time>2020-06-17T17:44:28Z</time>
      </trkpt>
      <trkpt lat="49.53343" lon="0.14618">
        <ele>41</ele>
        <time>2020-06-17T17:44:29Z</time>
      </trkpt>
      <trkpt lat="49.53348" lon="0.1462">
        <ele>41</ele>
        <time>2020-06-17T17:44:30Z</time>
      </trkpt>
      <trkpt lat="49.53352" lon="0.14621">
        <ele>41</ele>
        <time>2020-06-17T17:44:31Z</time>
      </trkpt>
      <trkpt lat="49.53357" lon="0.14622">
        <ele>41</ele>
        <time>2020-06-17T17:44:32Z</time>
      </trkpt>
      <trkpt lat="49.53361" lon="0.14624">
        <ele>41</ele>
        <time>2020-06-17T17:44:33Z</time>
      </trkpt>
      <trkpt lat="49.53365" lon="0.14625">
        <ele>41</ele>
        <time>2020-06-17T17:44:34Z</time>
      </trkpt>
      <trkpt lat="49.53368" lon="0.14625">
        <ele>41</ele>
        <time>2020-06-17T17:44:35Z</time>
      </trkpt>
      <trkpt lat="49.53372" lon="0.14626">
        <ele>40.9</ele>
        <time>2020-06-17T17:44:36Z</time>
      </trkpt>
      <trkpt lat="49.53376" lon="0.14628">
        <ele>40.9</ele>
        <time>2020-06-17T17:44:37Z</time>
      </trkpt>
      <trkpt lat="49.53381" lon="0.14631">
        <ele>40.9</ele>
        <time>2020-06-17T17:44:38Z</time>
      </trkpt>
      <trkpt lat="49.53387" lon="0.14632">
        <ele>40.8</ele>
        <time>2020-06-17T17:44:39Z</time>
      </trkpt>
      <trkpt lat="49.53392" lon="0.14634">
        <ele>40.7</ele>
        <time>2020-06-17T17:44:40Z</time>
      </trkpt>
      <trkpt lat="49.53396" lon="0.14635">
        <ele>40.7</ele>
        <time>2020-06-17T17:44:41Z</time>
      </trkpt>
      <trkpt lat="49.53401" lon="0.14636">
        <ele>40.6</ele>
        <time>2020-06-17T17:44:42Z</time>
      </trkpt>
      <trkpt lat="49.53406" lon="0.14637">
        <ele>40.5</ele>
        <time>2020-06-17T17:44:43Z</time>
      </trkpt>
      <trkpt lat="49.53411" lon="0.14638">
        <ele>40.4</ele>
        <time>2020-06-17T17:44:44Z</time>
      </trkpt>
      <trkpt lat="49.53417" lon="0.14641">
        <ele>40.3</ele>
        <time>2020-06-17T17:44:45Z</time>
      </trkpt>
      <trkpt lat="49.53423" lon="0.14642">
        <ele>40.2</ele>
        <time>2020-06-17T17:44:46Z</time>
      </trkpt>
      <trkpt lat="49.53429" lon="0.14642">
        <ele>40.1</ele>
        <time>2020-06-17T17:44:47Z</time>
      </trkpt>
      <trkpt lat="49.53435" lon="0.14643">
        <ele>40</ele>
        <time>2020-06-17T17:44:48Z</time>
      </trkpt>
      <trkpt lat="49.5344" lon="0.14644">
        <ele>39.9</ele>
        <time>2020-06-17T17:44:49Z</time>
      </trkpt>
      <trkpt lat="49.53446" lon="0.14645">
        <ele>39.8</ele>
        <time>2020-06-17T17:44:50Z</time>
      </trkpt>
      <trkpt lat="49.53453" lon="0.14646">
        <ele>39.8</ele>
        <time>2020-06-17T17:44:51Z</time>
      </trkpt>
      <trkpt lat="49.53458" lon="0.14647">
        <ele>39.8</ele>
        <time>2020-06-17T17:44:52Z</time>
      </trkpt>
      <trkpt lat="49.53462" lon="0.14648">
        <ele>39.8</ele>
        <time>2020-06-17T17:44:53Z</time>
      </trkpt>
      <trkpt lat="49.53467" lon="0.14649">
        <ele>39.8</ele>
        <time>2020-06-17T17:44:54Z</time>
      </trkpt>
      <trkpt lat="49.53471" lon="0.1465">
        <ele>39.8</ele>
        <time>2020-06-17T17:44:55Z</time>
      </trkpt>
      <trkpt lat="49.53474" lon="0.14652">
        <ele>39.9</ele>
        <time>2020-06-17T17:44:56Z</time>
      </trkpt>
      <trkpt lat="49.5348" lon="0.14654">
        <ele>39.9</ele>
        <time>2020-06-17T17:44:57Z</time>
      </trkpt>
      <trkpt lat="49.53483" lon="0.14655">
        <ele>39.9</ele>
        <time>2020-06-17T17:44:58Z</time>
      </trkpt>
      <trkpt lat="49.53489" lon="0.14656">
        <ele>40</ele>
        <time>2020-06-17T17:44:59Z</time>
      </trkpt>
      <trkpt lat="49.53494" lon="0.14656">
        <ele>40</ele>
        <time>2020-06-17T17:45:00Z</time>
      </trkpt>
      <trkpt lat="49.53499" lon="0.14658">
        <ele>40</ele>
        <time>2020-06-17T17:45:01Z</time>
      </trkpt>
      <trkpt lat="49.53504" lon="0.14658">
        <ele>40.1</ele>
        <time>2020-06-17T17:45:02Z</time>
      </trkpt>
      <trkpt lat="49.53509" lon="0.14658">
        <ele>40.1</ele>
        <time>2020-06-17T17:45:03Z</time>
      </trkpt>
      <trkpt lat="49.53513" lon="0.14658">
        <ele>40.1</ele>
        <time>2020-06-17T17:45:04Z</time>
      </trkpt>
      <trkpt lat="49.53518" lon="0.14659">
        <ele>40.2</ele>
        <time>2020-06-17T17:45:05Z</time>
      </trkpt>
      <trkpt lat="49.53522" lon="0.14658">
        <ele>40.2</ele>
        <time>2020-06-17T17:45:06Z</time>
      </trkpt>
      <trkpt lat="49.53526" lon="0.14658">
        <ele>40.2</ele>
        <time>2020-06-17T17:45:07Z</time>
      </trkpt>
      <trkpt lat="49.53531" lon="0.14658">
        <ele>40.2</ele>
        <time>2020-06-17T17:45:08Z</time>
      </trkpt>
      <trkpt lat="49.53535" lon="0.14657">
        <ele>40.3</ele>
        <time>2020-06-17T17:45:09Z</time>
      </trkpt>
      <trkpt lat="49.53541" lon="0.14658">
        <ele>40.3</ele>
        <time>2020-06-17T17:45:10Z</time>
      </trkpt>
      <trkpt lat="49.53545" lon="0.14656">
        <ele>40.3</ele>
        <time>2020-06-17T17:45:11Z</time>
      </trkpt>
      <trkpt lat="49.53549" lon="0.14655">
        <ele>40.3</ele>
        <time>2020-06-17T17:45:12Z</time>
      </trkpt>
      <trkpt lat="49.53554" lon="0.14654">
        <ele>40.2</ele>
        <time>2020-06-17T17:45:13Z</time>
      </trkpt>
      <trkpt lat="49.53557" lon="0.14653">
        <ele>40.2</ele>
        <time>2020-06-17T17:45:14Z</time>
      </trkpt>
      <trkpt lat="49.53562" lon="0.14652">
        <ele>40.1</ele>
        <time>2020-06-17T17:45:15Z</time>
      </trkpt>
      <trkpt lat="49.53567" lon="0.14651">
        <ele>40</ele>
        <time>2020-06-17T17:45:16Z</time>
      </trkpt>
      <trkpt lat="49.53572" lon="0.1465">
        <ele>40</ele>
        <time>2020-06-17T17:45:17Z</time>
      </trkpt>
      <trkpt lat="49.53578" lon="0.14649">
        <ele>39.9</ele>
        <time>2020-06-17T17:45:18Z</time>
      </trkpt>
      <trkpt lat="49.53582" lon="0.14648">
        <ele>39.8</ele>
        <time>2020-06-17T17:45:19Z</time>
      </trkpt>
      <trkpt lat="49.53587" lon="0.14647">
        <ele>39.7</ele>
        <time>2020-06-17T17:45:20Z</time>
      </trkpt>
      <trkpt lat="49.53592" lon="0.14647">
        <ele>39.6</ele>
        <time>2020-06-17T17:45:21Z</time>
      </trkpt>
      <trkpt lat="49.53598" lon="0.14646">
        <ele>39.6</ele>
        <time>2020-06-17T17:45:22Z</time>
      </trkpt>
      <trkpt lat="49.53603" lon="0.14645">
        <ele>39.5</ele>
        <time>2020-06-17T17:45:23Z</time>
      </trkpt>
      <trkpt lat="49.53608" lon="0.14644">
        <ele>39.4</ele>
        <time>2020-06-17T17:45:24Z</time>
      </trkpt>
      <trkpt lat="49.53614" lon="0.14643">
        <ele>39.4</ele>
        <time>2020-06-17T17:45:25Z</time>
      </trkpt>
      <trkpt lat="49.53621" lon="0.14642">
        <ele>39.2</ele>
        <time>2020-06-17T17:45:26Z</time>
      </trkpt>
      <trkpt lat="49.53627" lon="0.14641">
        <ele>39.2</ele>
        <time>2020-06-17T17:45:27Z</time>
      </trkpt>
      <trkpt lat="49.53633" lon="0.1464">
        <ele>39</ele>
        <time>2020-06-17T17:45:28Z</time>
      </trkpt>
      <trkpt lat="49.53637" lon="0.14639">
        <ele>39</ele>
        <time>2020-06-17T17:45:29Z</time>
      </trkpt>
      <trkpt lat="49.53643" lon="0.14637">
        <ele>38.8</ele>
        <time>2020-06-17T17:45:30Z</time>
      </trkpt>
      <trkpt lat="49.53648" lon="0.14635">
        <ele>38.8</ele>
        <time>2020-06-17T17:45:31Z</time>
      </trkpt>
      <trkpt lat="49.53653" lon="0.14634">
        <ele>38.8</ele>
        <time>2020-06-17T17:45:32Z</time>
      </trkpt>
      <trkpt lat="49.53659" lon="0.14633">
        <ele>38.8</ele>
        <time>2020-06-17T17:45:33Z</time>
      </trkpt>
      <trkpt lat="49.53663" lon="0.1463">
        <ele>38.7</ele>
        <time>2020-06-17T17:45:34Z</time>
      </trkpt>
      <trkpt lat="49.53668" lon="0.14628">
        <ele>38.7</ele>
        <time>2020-06-17T17:45:35Z</time>
      </trkpt>
      <trkpt lat="49.53673" lon="0.14625">
        <ele>38.7</ele>
        <time>2020-06-17T17:45:36Z</time>
      </trkpt>
      <trkpt lat="49.53677" lon="0.14623">
        <ele>38.6</ele>
        <time>2020-06-17T17:45:37Z</time>
      </trkpt>
      <trkpt lat="49.53682" lon="0.14622">
        <ele>38.6</ele>
        <time>2020-06-17T17:45:38Z</time>
      </trkpt>
      <trkpt lat="49.53688" lon="0.14619">
        <ele>38.5</ele>
        <time>2020-06-17T17:45:39Z</time>
      </trkpt>
      <trkpt lat="49.53693" lon="0.14618">
        <ele>38.5</ele>
        <time>2020-06-17T17:45:40Z</time>
      </trkpt>
      <trkpt lat="49.53698" lon="0.14617">
        <ele>38.5</ele>
        <time>2020-06-17T17:45:41Z</time>
      </trkpt>
      <trkpt lat="49.53704" lon="0.14616">
        <ele>38.5</ele>
        <time>2020-06-17T17:45:42Z</time>
      </trkpt>
      <trkpt lat="49.53709" lon="0.14615">
        <ele>38.4</ele>
        <time>2020-06-17T17:45:43Z</time>
      </trkpt>
      <trkpt lat="49.53715" lon="0.14614">
        <ele>38.4</ele>
        <time>2020-06-17T17:45:44Z</time>
      </trkpt>
      <trkpt lat="49.53721" lon="0.14613">
        <ele>38.3</ele>
        <time>2020-06-17T17:45:45Z</time>
      </trkpt>
      <trkpt lat="49.53726" lon="0.14613">
        <ele>38.3</ele>
        <time>2020-06-17T17:45:46Z</time>
      </trkpt>
      <trkpt lat="49.53731" lon="0.14613">
        <ele>38.3</ele>
        <time>2020-06-17T17:45:47Z</time>
      </trkpt>
      <trkpt lat="49.53737" lon="0.14614">
        <ele>38.2</ele>
        <time>2020-06-17T17:45:48Z</time>
      </trkpt>
      <trkpt lat="49.53743" lon="0.14614">
        <ele>38.1</ele>
        <time>2020-06-17T17:45:49Z</time>
      </trkpt>
      <trkpt lat="49.53749" lon="0.14614">
        <ele>38</ele>
        <time>2020-06-17T17:45:50Z</time>
      </trkpt>
      <trkpt lat="49.53755" lon="0.14616">
        <ele>37.9</ele>
        <time>2020-06-17T17:45:51Z</time>
      </trkpt>
      <trkpt lat="49.53761" lon="0.14616">
        <ele>37.8</ele>
        <time>2020-06-17T17:45:52Z</time>
      </trkpt>
      <trkpt lat="49.53767" lon="0.14618">
        <ele>37.7</ele>
        <time>2020-06-17T17:45:53Z</time>
      </trkpt>
      <trkpt lat="49.53773" lon="0.1462">
        <ele>37.6</ele>
        <time>2020-06-17T17:45:54Z</time>
      </trkpt>
      <trkpt lat="49.53779" lon="0.14621">
        <ele>37.5</ele>
        <time>2020-06-17T17:45:55Z</time>
      </trkpt>
      <trkpt lat="49.53785" lon="0.14622">
        <ele>37.5</ele>
        <time>2020-06-17T17:45:56Z</time>
      </trkpt>
      <trkpt lat="49.53791" lon="0.14623">
        <ele>37.4</ele>
        <time>2020-06-17T17:45:57Z</time>
      </trkpt>
      <trkpt lat="49.53796" lon="0.14624">
        <ele>37.3</ele>
        <time>2020-06-17T17:45:58Z</time>
      </trkpt>
      <trkpt lat="49.53802" lon="0.14625">
        <ele>37.3</ele>
        <time>2020-06-17T17:45:59Z</time>
      </trkpt>
      <trkpt lat="49.53809" lon="0.14625">
        <ele>37.3</ele>
        <time>2020-06-17T17:46:00Z</time>
      </trkpt>
      <trkpt lat="49.53814" lon="0.14624">
        <ele>37.3</ele>
        <time>2020-06-17T17:46:01Z</time>
      </trkpt>
      <trkpt lat="49.53821" lon="0.14623">
        <ele>37.3</ele>
        <time>2020-06-17T17:46:02Z</time>
      </trkpt>
      <trkpt lat="49.53827" lon="0.14623">
        <ele>37.3</ele>
        <time>2020-06-17T17:46:03Z</time>
      </trkpt>
      <trkpt lat="49.53833" lon="0.14623">
        <ele>37.3</ele>
        <time>2020-06-17T17:46:04Z</time>
      </trkpt>
      <trkpt lat="49.53838" lon="0.14624">
        <ele>37.3</ele>
        <time>2020-06-17T17:46:05Z</time>
      </trkpt>
      <trkpt lat="49.53842" lon="0.14625">
        <ele>37.3</ele>
        <time>2020-06-17T17:46:06Z</time>
      </trkpt>
      <trkpt lat="49.53847" lon="0.14625">
        <ele>37.3</ele>
        <time>2020-06-17T17:46:07Z</time>
      </trkpt>
      <trkpt lat="49.53852" lon="0.14626">
        <ele>37.3</ele>
        <time>2020-06-17T17:46:08Z</time>
      </trkpt>
      <trkpt lat="49.53858" lon="0.14626">
        <ele>37.4</ele>
        <time>2020-06-17T17:46:09Z</time>
      </trkpt>
      <trkpt lat="49.53863" lon="0.14628">
        <ele>37.4</ele>
        <time>2020-06-17T17:46:10Z</time>
      </trkpt>
      <trkpt lat="49.53869" lon="0.14629">
        <ele>37.5</ele>
        <time>2020-06-17T17:46:11Z</time>
      </trkpt>
      <trkpt lat="49.53875" lon="0.14631">
        <ele>37.6</ele>
        <time>2020-06-17T17:46:12Z</time>
      </trkpt>
      <trkpt lat="49.53881" lon="0.14633">
        <ele>37.8</ele>
        <time>2020-06-17T17:46:13Z</time>
      </trkpt>
      <trkpt lat="49.53885" lon="0.14635">
        <ele>37.9</ele>
        <time>2020-06-17T17:46:14Z</time>
      </trkpt>
      <trkpt lat="49.5389" lon="0.14637">
        <ele>38</ele>
        <time>2020-06-17T17:46:15Z</time>
      </trkpt>
      <trkpt lat="49.53894" lon="0.14638">
        <ele>38.1</ele>
        <time>2020-06-17T17:46:16Z</time>
      </trkpt>
      <trkpt lat="49.53899" lon="0.1464">
        <ele>38.2</ele>
        <time>2020-06-17T17:46:17Z</time>
      </trkpt>
      <trkpt lat="49.53904" lon="0.14642">
        <ele>38.3</ele>
        <time>2020-06-17T17:46:18Z</time>
      </trkpt>
      <trkpt lat="49.53908" lon="0.14643">
        <ele>38.4</ele>
        <time>2020-06-17T17:46:19Z</time>
      </trkpt>
      <trkpt lat="49.53912" lon="0.14645">
        <ele>38.5</ele>
        <time>2020-06-17T17:46:20Z</time>
      </trkpt>
      <trkpt lat="49.53916" lon="0.14647">
        <ele>38.6</ele>
        <time>2020-06-17T17:46:21Z</time>
      </trkpt>
      <trkpt lat="49.5392" lon="0.1465">
        <ele>38.7</ele>
        <time>2020-06-17T17:46:22Z</time>
      </trkpt>
      <trkpt lat="49.53924" lon="0.14653">
        <ele>38.8</ele>
        <time>2020-06-17T17:46:23Z</time>
      </trkpt>
      <trkpt lat="49.53927" lon="0.14656">
        <ele>38.9</ele>
        <time>2020-06-17T17:46:24Z</time>
      </trkpt>
      <trkpt lat="49.53933" lon="0.14659">
        <ele>39.1</ele>
        <time>2020-06-17T17:46:25Z</time>
      </trkpt>
      <trkpt lat="49.53938" lon="0.14662">
        <ele>39.2</ele>
        <time>2020-06-17T17:46:26Z</time>
      </trkpt>
      <trkpt lat="49.53943" lon="0.14665">
        <ele>39.4</ele>
        <time>2020-06-17T17:46:27Z</time>
      </trkpt>
      <trkpt lat="49.53948" lon="0.14668">
        <ele>39.5</ele>
        <time>2020-06-17T17:46:28Z</time>
      </trkpt>
      <trkpt lat="49.53953" lon="0.1467">
        <ele>39.6</ele>
        <time>2020-06-17T17:46:29Z</time>
      </trkpt>
      <trkpt lat="49.53956" lon="0.14672">
        <ele>39.6</ele>
        <time>2020-06-17T17:46:30Z</time>
      </trkpt>
      <trkpt lat="49.5396" lon="0.14675">
        <ele>39.7</ele>
        <time>2020-06-17T17:46:31Z</time>
      </trkpt>
      <trkpt lat="49.53964" lon="0.14675">
        <ele>39.8</ele>
        <time>2020-06-17T17:46:32Z</time>
      </trkpt>
      <trkpt lat="49.53968" lon="0.14678">
        <ele>39.9</ele>
        <time>2020-06-17T17:46:33Z</time>
      </trkpt>
      <trkpt lat="49.53973" lon="0.14682">
        <ele>40</ele>
        <time>2020-06-17T17:46:34Z</time>
      </trkpt>
      <trkpt lat="49.53976" lon="0.14685">
        <ele>40.1</ele>
        <time>2020-06-17T17:46:35Z</time>
      </trkpt>
      <trkpt lat="49.5398" lon="0.14687">
        <ele>40.2</ele>
        <time>2020-06-17T17:46:36Z</time>
      </trkpt>
      <trkpt lat="49.53983" lon="0.14689">
        <ele>40.3</ele>
        <time>2020-06-17T17:46:37Z</time>
      </trkpt>
      <trkpt lat="49.53986" lon="0.14691">
        <ele>40.4</ele>
        <time>2020-06-17T17:46:38Z</time>
      </trkpt>
      <trkpt lat="49.53991" lon="0.14693">
        <ele>40.5</ele>
        <time>2020-06-17T17:46:39Z</time>
      </trkpt>
      <trkpt lat="49.53996" lon="0.14695">
        <ele>40.6</ele>
        <time>2020-06-17T17:46:40Z</time>
      </trkpt>
      <trkpt lat="49.53999" lon="0.14697">
        <ele>40.7</ele>
        <time>2020-06-17T17:46:41Z</time>
      </trkpt>
      <trkpt lat="49.54005" lon="0.14698">
        <ele>40.8</ele>
        <time>2020-06-17T17:46:42Z</time>
      </trkpt>
      <trkpt lat="49.54012" lon="0.14699">
        <ele>40.9</ele>
        <time>2020-06-17T17:46:43Z</time>
      </trkpt>
      <trkpt lat="49.54016" lon="0.147">
        <ele>41</ele>
        <time>2020-06-17T17:46:44Z</time>
      </trkpt>
      <trkpt lat="49.5402" lon="0.147">
        <ele>41</ele>
        <time>2020-06-17T17:46:45Z</time>
      </trkpt>
      <trkpt lat="49.54025" lon="0.147">
        <ele>41.1</ele>
        <time>2020-06-17T17:46:46Z</time>
      </trkpt>
      <trkpt lat="49.54029" lon="0.14701">
        <ele>41.1</ele>
        <time>2020-06-17T17:46:47Z</time>
      </trkpt>
      <trkpt lat="49.54034" lon="0.14703">
        <ele>41.2</ele>
        <time>2020-06-17T17:46:48Z</time>
      </trkpt>
      <trkpt lat="49.54037" lon="0.14707">
        <ele>41.3</ele>
        <time>2020-06-17T17:46:49Z</time>
      </trkpt>
      <trkpt lat="49.54042" lon="0.14711">
        <ele>41.4</ele>
        <time>2020-06-17T17:46:50Z</time>
      </trkpt>
      <trkpt lat="49.54045" lon="0.14713">
        <ele>41.6</ele>
        <time>2020-06-17T17:46:51Z</time>
      </trkpt>
      <trkpt lat="49.5405" lon="0.14711">
        <ele>41.9</ele>
        <time>2020-06-17T17:46:52Z</time>
      </trkpt>
      <trkpt lat="49.54053" lon="0.14706">
        <ele>42.2</ele>
        <time>2020-06-17T17:46:53Z</time>
      </trkpt>
      <trkpt lat="49.54055" lon="0.14701">
        <ele>42.5</ele>
        <time>2020-06-17T17:46:54Z</time>
      </trkpt>
      <trkpt lat="49.54057" lon="0.14695">
        <ele>42.1</ele>
        <time>2020-06-17T17:46:55Z</time>
      </trkpt>
      <trkpt lat="49.54061" lon="0.14691">
        <ele>42.1</ele>
        <time>2020-06-17T17:46:56Z</time>
      </trkpt>
      <trkpt lat="49.54064" lon="0.14687">
        <ele>42.1</ele>
        <time>2020-06-17T17:46:57Z</time>
      </trkpt>
      <trkpt lat="49.54067" lon="0.14682">
        <ele>42.1</ele>
        <time>2020-06-17T17:46:58Z</time>
      </trkpt>
      <trkpt lat="49.54071" lon="0.14679">
        <ele>42</ele>
        <time>2020-06-17T17:46:59Z</time>
      </trkpt>
      <trkpt lat="49.54076" lon="0.14676">
        <ele>42</ele>
        <time>2020-06-17T17:47:00Z</time>
      </trkpt>
      <trkpt lat="49.5408" lon="0.14673">
        <ele>42</ele>
        <time>2020-06-17T17:47:01Z</time>
      </trkpt>
      <trkpt lat="49.54084" lon="0.14672">
        <ele>42</ele>
        <time>2020-06-17T17:47:02Z</time>
      </trkpt>
      <trkpt lat="49.54088" lon="0.14671">
        <ele>42</ele>
        <time>2020-06-17T17:47:03Z</time>
      </trkpt>
      <trkpt lat="49.54093" lon="0.14671">
        <ele>42</ele>
        <time>2020-06-17T17:47:04Z</time>
      </trkpt>
      <trkpt lat="49.54098" lon="0.1467">
        <ele>42</ele>
        <time>2020-06-17T17:47:05Z</time>
      </trkpt>
      <trkpt lat="49.54103" lon="0.14668">
        <ele>42</ele>
        <time>2020-06-17T17:47:06Z</time>
      </trkpt>
      <trkpt lat="49.54108" lon="0.14667">
        <ele>42</ele>
        <time>2020-06-17T17:47:07Z</time>
      </trkpt>
      <trkpt lat="49.54113" lon="0.14665">
        <ele>42.1</ele>
        <time>2020-06-17T17:47:08Z</time>
      </trkpt>
      <trkpt lat="49.54118" lon="0.14663">
        <ele>42.2</ele>
        <time>2020-06-17T17:47:09Z</time>
      </trkpt>
      <trkpt lat="49.54122" lon="0.14662">
        <ele>42.2</ele>
        <time>2020-06-17T17:47:10Z</time>
      </trkpt>
      <trkpt lat="49.54129" lon="0.14662">
        <ele>42.3</ele>
        <time>2020-06-17T17:47:11Z</time>
      </trkpt>
      <trkpt lat="49.54134" lon="0.14661">
        <ele>42.4</ele>
        <time>2020-06-17T17:47:12Z</time>
      </trkpt>
      <trkpt lat="49.54139" lon="0.14659">
        <ele>42.4</ele>
        <time>2020-06-17T17:47:13Z</time>
      </trkpt>
      <trkpt lat="49.54143" lon="0.14658">
        <ele>42.5</ele>
        <time>2020-06-17T17:47:14Z</time>
      </trkpt>
      <trkpt lat="49.54148" lon="0.14657">
        <ele>42.5</ele>
        <time>2020-06-17T17:47:15Z</time>
      </trkpt>
      <trkpt lat="49.54152" lon="0.14656">
        <ele>42.6</ele>
        <time>2020-06-17T17:47:16Z</time>
      </trkpt>
      <trkpt lat="49.54157" lon="0.14655">
        <ele>42.7</ele>
        <time>2020-06-17T17:47:17Z</time>
      </trkpt>
      <trkpt lat="49.54162" lon="0.14653">
        <ele>42.7</ele>
        <time>2020-06-17T17:47:18Z</time>
      </trkpt>
      <trkpt lat="49.54166" lon="0.14652">
        <ele>42.8</ele>
        <time>2020-06-17T17:47:19Z</time>
      </trkpt>
      <trkpt lat="49.5417" lon="0.1465">
        <ele>42.9</ele>
        <time>2020-06-17T17:47:20Z</time>
      </trkpt>
      <trkpt lat="49.54174" lon="0.14649">
        <ele>42.9</ele>
        <time>2020-06-17T17:47:21Z</time>
      </trkpt>
      <trkpt lat="49.54178" lon="0.14647">
        <ele>42.9</ele>
        <time>2020-06-17T17:47:22Z</time>
      </trkpt>
      <trkpt lat="49.54183" lon="0.14645">
        <ele>43</ele>
        <time>2020-06-17T17:47:23Z</time>
      </trkpt>
      <trkpt lat="49.54187" lon="0.14642">
        <ele>43.1</ele>
        <time>2020-06-17T17:47:24Z</time>
      </trkpt>
      <trkpt lat="49.54193" lon="0.14638">
        <ele>43.1</ele>
        <time>2020-06-17T17:47:25Z</time>
      </trkpt>
      <trkpt lat="49.54197" lon="0.14636">
        <ele>43.2</ele>
        <time>2020-06-17T17:47:26Z</time>
      </trkpt>
      <trkpt lat="49.54201" lon="0.14633">
        <ele>43.3</ele>
        <time>2020-06-17T17:47:27Z</time>
      </trkpt>
      <trkpt lat="49.54206" lon="0.14631">
        <ele>43.3</ele>
        <time>2020-06-17T17:47:28Z</time>
      </trkpt>
      <trkpt lat="49.54211" lon="0.1463">
        <ele>43.4</ele>
        <time>2020-06-17T17:47:29Z</time>
      </trkpt>
      <trkpt lat="49.54215" lon="0.14626">
        <ele>43.5</ele>
        <time>2020-06-17T17:47:30Z</time>
      </trkpt>
      <trkpt lat="49.5422" lon="0.14624">
        <ele>43.6</ele>
        <time>2020-06-17T17:47:31Z</time>
      </trkpt>
      <trkpt lat="49.54224" lon="0.14622">
        <ele>43.7</ele>
        <time>2020-06-17T17:47:32Z</time>
      </trkpt>
      <trkpt lat="49.54229" lon="0.14619">
        <ele>43.8</ele>
        <time>2020-06-17T17:47:33Z</time>
      </trkpt>
      <trkpt lat="49.54233" lon="0.14616">
        <ele>43.9</ele>
        <time>2020-06-17T17:47:34Z</time>
      </trkpt>
      <trkpt lat="49.54238" lon="0.14613">
        <ele>44</ele>
        <time>2020-06-17T17:47:35Z</time>
      </trkpt>
      <trkpt lat="49.54244" lon="0.1461">
        <ele>44.1</ele>
        <time>2020-06-17T17:47:36Z</time>
      </trkpt>
      <trkpt lat="49.54248" lon="0.14607">
        <ele>44.1</ele>
        <time>2020-06-17T17:47:37Z</time>
      </trkpt>
      <trkpt lat="49.54253" lon="0.14603">
        <ele>44.2</ele>
        <time>2020-06-17T17:47:38Z</time>
      </trkpt>
      <trkpt lat="49.54257" lon="0.146">
        <ele>44.3</ele>
        <time>2020-06-17T17:47:39Z</time>
      </trkpt>
      <trkpt lat="49.54261" lon="0.14596">
        <ele>44.4</ele>
        <time>2020-06-17T17:47:40Z</time>
      </trkpt>
      <trkpt lat="49.54264" lon="0.14592">
        <ele>44.5</ele>
        <time>2020-06-17T17:47:41Z</time>
      </trkpt>
      <trkpt lat="49.54269" lon="0.14588">
        <ele>44.6</ele>
        <time>2020-06-17T17:47:42Z</time>
      </trkpt>
      <trkpt lat="49.54273" lon="0.14584">
        <ele>44.7</ele>
        <time>2020-06-17T17:47:43Z</time>
      </trkpt>
      <trkpt lat="49.54277" lon="0.14581">
        <ele>44.8</ele>
        <time>2020-06-17T17:47:44Z</time>
      </trkpt>
      <trkpt lat="49.54281" lon="0.14577">
        <ele>44.9</ele>
        <time>2020-06-17T17:47:45Z</time>
      </trkpt>
      <trkpt lat="49.54285" lon="0.14574">
        <ele>45</ele>
        <time>2020-06-17T17:47:46Z</time>
      </trkpt>
      <trkpt lat="49.5429" lon="0.14569">
        <ele>45.1</ele>
        <time>2020-06-17T17:47:47Z</time>
      </trkpt>
      <trkpt lat="49.54294" lon="0.14565">
        <ele>45.2</ele>
        <time>2020-06-17T17:47:48Z</time>
      </trkpt>
      <trkpt lat="49.54298" lon="0.14561">
        <ele>45.3</ele>
        <time>2020-06-17T17:47:49Z</time>
      </trkpt>
      <trkpt lat="49.54302" lon="0.14557">
        <ele>45.4</ele>
        <time>2020-06-17T17:47:50Z</time>
      </trkpt>
      <trkpt lat="49.54305" lon="0.14552">
        <ele>45.5</ele>
        <time>2020-06-17T17:47:51Z</time>
      </trkpt>
      <trkpt lat="49.54309" lon="0.14548">
        <ele>45.7</ele>
        <time>2020-06-17T17:47:52Z</time>
      </trkpt>
      <trkpt lat="49.54313" lon="0.14543">
        <ele>45.8</ele>
        <time>2020-06-17T17:47:53Z</time>
      </trkpt>
      <trkpt lat="49.54318" lon="0.14538">
        <ele>45.9</ele>
        <time>2020-06-17T17:47:54Z</time>
      </trkpt>
      <trkpt lat="49.54322" lon="0.14533">
        <ele>46.1</ele>
        <time>2020-06-17T17:47:55Z</time>
      </trkpt>
      <trkpt lat="49.54327" lon="0.14529">
        <ele>46.2</ele>
        <time>2020-06-17T17:47:56Z</time>
      </trkpt>
      <trkpt lat="49.54331" lon="0.14524">
        <ele>46.3</ele>
        <time>2020-06-17T17:47:57Z</time>
      </trkpt>
      <trkpt lat="49.54334" lon="0.1452">
        <ele>46.4</ele>
        <time>2020-06-17T17:47:58Z</time>
      </trkpt>
      <trkpt lat="49.54337" lon="0.14516">
        <ele>46.5</ele>
        <time>2020-06-17T17:47:59Z</time>
      </trkpt>
      <trkpt lat="49.54341" lon="0.14511">
        <ele>46.6</ele>
        <time>2020-06-17T17:48:00Z</time>
      </trkpt>
      <trkpt lat="49.54345" lon="0.14506">
        <ele>46.8</ele>
        <time>2020-06-17T17:48:01Z</time>
      </trkpt>
      <trkpt lat="49.54349" lon="0.14503">
        <ele>46.9</ele>
        <time>2020-06-17T17:48:02Z</time>
      </trkpt>
      <trkpt lat="49.54354" lon="0.14499">
        <ele>47</ele>
        <time>2020-06-17T17:48:03Z</time>
      </trkpt>
      <trkpt lat="49.54358" lon="0.14494">
        <ele>47.2</ele>
        <time>2020-06-17T17:48:04Z</time>
      </trkpt>
      <trkpt lat="49.54362" lon="0.1449">
        <ele>47.3</ele>
        <time>2020-06-17T17:48:05Z</time>
      </trkpt>
      <trkpt lat="49.54366" lon="0.14486">
        <ele>47.5</ele>
        <time>2020-06-17T17:48:06Z</time>
      </trkpt>
      <trkpt lat="49.54371" lon="0.14482">
        <ele>47.6</ele>
        <time>2020-06-17T17:48:07Z</time>
      </trkpt>
      <trkpt lat="49.54374" lon="0.14479">
        <ele>47.7</ele>
        <time>2020-06-17T17:48:08Z</time>
      </trkpt>
      <trkpt lat="49.54378" lon="0.14475">
        <ele>47.8</ele>
        <time>2020-06-17T17:48:09Z</time>
      </trkpt>
      <trkpt lat="49.54383" lon="0.1447">
        <ele>48</ele>
        <time>2020-06-17T17:48:10Z</time>
      </trkpt>
      <trkpt lat="49.54386" lon="0.14467">
        <ele>48.1</ele>
        <time>2020-06-17T17:48:11Z</time>
      </trkpt>
      <trkpt lat="49.5439" lon="0.14462">
        <ele>48.2</ele>
        <time>2020-06-17T17:48:12Z</time>
      </trkpt>
      <trkpt lat="49.54393" lon="0.14458">
        <ele>48.4</ele>
        <time>2020-06-17T17:48:13Z</time>
      </trkpt>
      <trkpt lat="49.54397" lon="0.14454">
        <ele>48.5</ele>
        <time>2020-06-17T17:48:14Z</time>
      </trkpt>
      <trkpt lat="49.54401" lon="0.1445">
        <ele>48.6</ele>
        <time>2020-06-17T17:48:15Z</time>
      </trkpt>
      <trkpt lat="49.54406" lon="0.14447">
        <ele>48.8</ele>
        <time>2020-06-17T17:48:16Z</time>
      </trkpt>
      <trkpt lat="49.54409" lon="0.14443">
        <ele>48.9</ele>
        <time>2020-06-17T17:48:17Z</time>
      </trkpt>
      <trkpt lat="49.54413" lon="0.14438">
        <ele>49</ele>
        <time>2020-06-17T17:48:18Z</time>
      </trkpt>
      <trkpt lat="49.54417" lon="0.14435">
        <ele>49.1</ele>
        <time>2020-06-17T17:48:19Z</time>
      </trkpt>
      <trkpt lat="49.5442" lon="0.14432">
        <ele>49.2</ele>
        <time>2020-06-17T17:48:20Z</time>
      </trkpt>
      <trkpt lat="49.54424" lon="0.14428">
        <ele>49.3</ele>
        <time>2020-06-17T17:48:21Z</time>
      </trkpt>
      <trkpt lat="49.54428" lon="0.14424">
        <ele>49.5</ele>
        <time>2020-06-17T17:48:22Z</time>
      </trkpt>
      <trkpt lat="49.54433" lon="0.14419">
        <ele>49.7</ele>
        <time>2020-06-17T17:48:23Z</time>
      </trkpt>
      <trkpt lat="49.54437" lon="0.14416">
        <ele>49.8</ele>
        <time>2020-06-17T17:48:24Z</time>
      </trkpt>
      <trkpt lat="49.54441" lon="0.14413">
        <ele>50</ele>
        <time>2020-06-17T17:48:25Z</time>
      </trkpt>
      <trkpt lat="49.54445" lon="0.1441">
        <ele>50.1</ele>
        <time>2020-06-17T17:48:26Z</time>
      </trkpt>
      <trkpt lat="49.5445" lon="0.14407">
        <ele>50.3</ele>
        <time>2020-06-17T17:48:27Z</time>
      </trkpt>
      <trkpt lat="49.54454" lon="0.14406">
        <ele>50.5</ele>
        <time>2020-06-17T17:48:28Z</time>
      </trkpt>
      <trkpt lat="49.54459" lon="0.14403">
        <ele>50.6</ele>
        <time>2020-06-17T17:48:29Z</time>
      </trkpt>
      <trkpt lat="49.54463" lon="0.14402">
        <ele>50.8</ele>
        <time>2020-06-17T17:48:30Z</time>
      </trkpt>
      <trkpt lat="49.54467" lon="0.14402">
        <ele>51</ele>
        <time>2020-06-17T17:48:31Z</time>
      </trkpt>
      <trkpt lat="49.54471" lon="0.14402">
        <ele>51.2</ele>
        <time>2020-06-17T17:48:32Z</time>
      </trkpt>
      <trkpt lat="49.54475" lon="0.14402">
        <ele>51.4</ele>
        <time>2020-06-17T17:48:33Z</time>
      </trkpt>
      <trkpt lat="49.5448" lon="0.14403">
        <ele>51.6</ele>
        <time>2020-06-17T17:48:34Z</time>
      </trkpt>
      <trkpt lat="49.54484" lon="0.14404">
        <ele>51.8</ele>
        <time>2020-06-17T17:48:35Z</time>
      </trkpt>
      <trkpt lat="49.54487" lon="0.14405">
        <ele>52</ele>
        <time>2020-06-17T17:48:36Z</time>
      </trkpt>
      <trkpt lat="49.5449" lon="0.14406">
        <ele>52.2</ele>
        <time>2020-06-17T17:48:37Z</time>
      </trkpt>
      <trkpt lat="49.54494" lon="0.14408">
        <ele>52.4</ele>
        <time>2020-06-17T17:48:38Z</time>
      </trkpt>
      <trkpt lat="49.54497" lon="0.1441">
        <ele>52.6</ele>
        <time>2020-06-17T17:48:39Z</time>
      </trkpt>
      <trkpt lat="49.545" lon="0.14411">
        <ele>52.8</ele>
        <time>2020-06-17T17:48:40Z</time>
      </trkpt>
      <trkpt lat="49.54503" lon="0.14414">
        <ele>53</ele>
        <time>2020-06-17T17:48:41Z</time>
      </trkpt>
      <trkpt lat="49.54506" lon="0.14417">
        <ele>53.3</ele>
        <time>2020-06-17T17:48:42Z</time>
      </trkpt>
      <trkpt lat="49.5451" lon="0.14421">
        <ele>53.5</ele>
        <time>2020-06-17T17:48:43Z</time>
      </trkpt>
      <trkpt lat="49.54512" lon="0.14423">
        <ele>53.7</ele>
        <time>2020-06-17T17:48:45Z</time>
      </trkpt>
      <trkpt lat="49.54515" lon="0.14426">
        <ele>53.9</ele>
        <time>2020-06-17T17:48:46Z</time>
      </trkpt>
      <trkpt lat="49.54518" lon="0.14429">
        <ele>54.2</ele>
        <time>2020-06-17T17:48:47Z</time>
      </trkpt>
      <trkpt lat="49.54521" lon="0.14432">
        <ele>54.4</ele>
        <time>2020-06-17T17:48:48Z</time>
      </trkpt>
      <trkpt lat="49.54524" lon="0.14436">
        <ele>54.7</ele>
        <time>2020-06-17T17:48:49Z</time>
      </trkpt>
      <trkpt lat="49.54525" lon="0.14437">
        <ele>54.8</ele>
        <time>2020-06-17T17:48:50Z</time>
      </trkpt>
      <trkpt lat="49.54528" lon="0.1444">
        <ele>55</ele>
        <time>2020-06-17T17:48:51Z</time>
      </trkpt>
      <trkpt lat="49.54529" lon="0.14441">
        <ele>55.1</ele>
        <time>2020-06-17T17:48:52Z</time>
      </trkpt>
      <trkpt lat="49.54533" lon="0.14445">
        <ele>55.4</ele>
        <time>2020-06-17T17:48:53Z</time>
      </trkpt>
      <trkpt lat="49.54536" lon="0.14447">
        <ele>55.5</ele>
        <time>2020-06-17T17:48:54Z</time>
      </trkpt>
      <trkpt lat="49.5454" lon="0.14448">
        <ele>55.8</ele>
        <time>2020-06-17T17:48:55Z</time>
      </trkpt>
      <trkpt lat="49.54542" lon="0.14449">
        <ele>55.9</ele>
        <time>2020-06-17T17:48:56Z</time>
      </trkpt>
      <trkpt lat="49.54546" lon="0.14451">
        <ele>56.1</ele>
        <time>2020-06-17T17:48:57Z</time>
      </trkpt>
      <trkpt lat="49.54549" lon="0.14452">
        <ele>56.3</ele>
        <time>2020-06-17T17:48:58Z</time>
      </trkpt>
      <trkpt lat="49.54553" lon="0.14454">
        <ele>56.5</ele>
        <time>2020-06-17T17:48:59Z</time>
      </trkpt>
      <trkpt lat="49.54556" lon="0.14455">
        <ele>56.7</ele>
        <time>2020-06-17T17:49:00Z</time>
      </trkpt>
      <trkpt lat="49.54559" lon="0.14458">
        <ele>56.9</ele>
        <time>2020-06-17T17:49:01Z</time>
      </trkpt>
      <trkpt lat="49.54564" lon="0.14458">
        <ele>57.2</ele>
        <time>2020-06-17T17:49:02Z</time>
      </trkpt>
      <trkpt lat="49.5457" lon="0.14461">
        <ele>57.5</ele>
        <time>2020-06-17T17:49:03Z</time>
      </trkpt>
      <trkpt lat="49.54575" lon="0.14462">
        <ele>57.8</ele>
        <time>2020-06-17T17:49:04Z</time>
      </trkpt>
      <trkpt lat="49.54578" lon="0.14463">
        <ele>58</ele>
        <time>2020-06-17T17:49:05Z</time>
      </trkpt>
      <trkpt lat="49.54583" lon="0.14466">
        <ele>58.3</ele>
        <time>2020-06-17T17:49:06Z</time>
      </trkpt>
      <trkpt lat="49.54588" lon="0.14467">
        <ele>58.5</ele>
        <time>2020-06-17T17:49:07Z</time>
      </trkpt>
      <trkpt lat="49.54591" lon="0.14468">
        <ele>58.8</ele>
        <time>2020-06-17T17:49:08Z</time>
      </trkpt>
      <trkpt lat="49.54594" lon="0.14468">
        <ele>58.9</ele>
        <time>2020-06-17T17:49:09Z</time>
      </trkpt>
      <trkpt lat="49.54598" lon="0.14468">
        <ele>59.1</ele>
        <time>2020-06-17T17:49:10Z</time>
      </trkpt>
      <trkpt lat="49.54601" lon="0.14468">
        <ele>59.2</ele>
        <time>2020-06-17T17:49:11Z</time>
      </trkpt>
      <trkpt lat="49.54603" lon="0.14468">
        <ele>59.4</ele>
        <time>2020-06-17T17:49:12Z</time>
      </trkpt>
      <trkpt lat="49.54607" lon="0.14469">
        <ele>59.6</ele>
        <time>2020-06-17T17:49:13Z</time>
      </trkpt>
      <trkpt lat="49.54609" lon="0.14468">
        <ele>59.7</ele>
        <time>2020-06-17T17:49:14Z</time>
      </trkpt>
      <trkpt lat="49.54612" lon="0.14468">
        <ele>59.8</ele>
        <time>2020-06-17T17:49:15Z</time>
      </trkpt>
      <trkpt lat="49.54616" lon="0.14467">
        <ele>60</ele>
        <time>2020-06-17T17:49:16Z</time>
      </trkpt>
      <trkpt lat="49.5462" lon="0.14467">
        <ele>60.2</ele>
        <time>2020-06-17T17:49:17Z</time>
      </trkpt>
      <trkpt lat="49.54623" lon="0.14467">
        <ele>60.4</ele>
        <time>2020-06-17T17:49:18Z</time>
      </trkpt>
      <trkpt lat="49.54626" lon="0.14467">
        <ele>60.4</ele>
        <time>2020-06-17T17:49:19Z</time>
      </trkpt>
      <trkpt lat="49.54629" lon="0.14467">
        <ele>60.4</ele>
        <time>2020-06-17T17:49:20Z</time>
      </trkpt>
      <trkpt lat="49.54632" lon="0.14467">
        <ele>60.4</ele>
        <time>2020-06-17T17:49:21Z</time>
      </trkpt>
      <trkpt lat="49.54636" lon="0.14468">
        <ele>60.7</ele>
        <time>2020-06-17T17:49:22Z</time>
      </trkpt>
      <trkpt lat="49.5464" lon="0.14468">
        <ele>60.9</ele>
        <time>2020-06-17T17:49:23Z</time>
      </trkpt>
      <trkpt lat="49.54641" lon="0.14468">
        <ele>61</ele>
        <time>2020-06-17T17:49:24Z</time>
      </trkpt>
      <trkpt lat="49.54644" lon="0.14469">
        <ele>61.2</ele>
        <time>2020-06-17T17:49:25Z</time>
      </trkpt>
      <trkpt lat="49.54645" lon="0.1447">
        <ele>61.2</ele>
        <time>2020-06-17T17:49:26Z</time>
      </trkpt>
      <trkpt lat="49.54648" lon="0.14472">
        <ele>61.4</ele>
        <time>2020-06-17T17:49:27Z</time>
      </trkpt>
      <trkpt lat="49.54652" lon="0.14471">
        <ele>61.6</ele>
        <time>2020-06-17T17:49:28Z</time>
      </trkpt>
      <trkpt lat="49.54655" lon="0.14472">
        <ele>61.7</ele>
        <time>2020-06-17T17:49:29Z</time>
      </trkpt>
      <trkpt lat="49.54659" lon="0.14472">
        <ele>61.9</ele>
        <time>2020-06-17T17:49:30Z</time>
      </trkpt>
      <trkpt lat="49.54662" lon="0.14473">
        <ele>62.1</ele>
        <time>2020-06-17T17:49:31Z</time>
      </trkpt>
      <trkpt lat="49.54666" lon="0.14474">
        <ele>62.3</ele>
        <time>2020-06-17T17:49:32Z</time>
      </trkpt>
      <trkpt lat="49.54669" lon="0.14474">
        <ele>62.5</ele>
        <time>2020-06-17T17:49:33Z</time>
      </trkpt>
      <trkpt lat="49.54673" lon="0.14475">
        <ele>62.7</ele>
        <time>2020-06-17T17:49:34Z</time>
      </trkpt>
      <trkpt lat="49.54677" lon="0.14476">
        <ele>62.9</ele>
        <time>2020-06-17T17:49:35Z</time>
      </trkpt>
      <trkpt lat="49.5468" lon="0.14478">
        <ele>63</ele>
        <time>2020-06-17T17:49:36Z</time>
      </trkpt>
      <trkpt lat="49.54684" lon="0.14479">
        <ele>63.2</ele>
        <time>2020-06-17T17:49:37Z</time>
      </trkpt>
      <trkpt lat="49.54686" lon="0.1448">
        <ele>63.3</ele>
        <time>2020-06-17T17:49:38Z</time>
      </trkpt>
      <trkpt lat="49.5469" lon="0.14481">
        <ele>63.5</ele>
        <time>2020-06-17T17:49:39Z</time>
      </trkpt>
      <trkpt lat="49.54695" lon="0.14484">
        <ele>63.7</ele>
        <time>2020-06-17T17:49:40Z</time>
      </trkpt>
      <trkpt lat="49.54697" lon="0.14485">
        <ele>63.8</ele>
        <time>2020-06-17T17:49:41Z</time>
      </trkpt>
      <trkpt lat="49.547" lon="0.14487">
        <ele>64</ele>
        <time>2020-06-17T17:49:42Z</time>
      </trkpt>
      <trkpt lat="49.54703" lon="0.1449">
        <ele>64.1</ele>
        <time>2020-06-17T17:49:43Z</time>
      </trkpt>
      <trkpt lat="49.54707" lon="0.14492">
        <ele>64.3</ele>
        <time>2020-06-17T17:49:44Z</time>
      </trkpt>
      <trkpt lat="49.54712" lon="0.14495">
        <ele>64.5</ele>
        <time>2020-06-17T17:49:45Z</time>
      </trkpt>
      <trkpt lat="49.54718" lon="0.14499">
        <ele>64.7</ele>
        <time>2020-06-17T17:49:46Z</time>
      </trkpt>
      <trkpt lat="49.54722" lon="0.14502">
        <ele>64.9</ele>
        <time>2020-06-17T17:49:47Z</time>
      </trkpt>
      <trkpt lat="49.54726" lon="0.14504">
        <ele>65</ele>
        <time>2020-06-17T17:49:48Z</time>
      </trkpt>
      <trkpt lat="49.54729" lon="0.14506">
        <ele>65.2</ele>
        <time>2020-06-17T17:49:49Z</time>
      </trkpt>
      <trkpt lat="49.54733" lon="0.14508">
        <ele>65.3</ele>
        <time>2020-06-17T17:49:50Z</time>
      </trkpt>
      <trkpt lat="49.54736" lon="0.14509">
        <ele>65.4</ele>
        <time>2020-06-17T17:49:51Z</time>
      </trkpt>
      <trkpt lat="49.54739" lon="0.14511">
        <ele>65.5</ele>
        <time>2020-06-17T17:49:52Z</time>
      </trkpt>
      <trkpt lat="49.54743" lon="0.14513">
        <ele>65.7</ele>
        <time>2020-06-17T17:49:53Z</time>
      </trkpt>
      <trkpt lat="49.54745" lon="0.14514">
        <ele>65.8</ele>
        <time>2020-06-17T17:49:54Z</time>
      </trkpt>
      <trkpt lat="49.54749" lon="0.14516">
        <ele>65.9</ele>
        <time>2020-06-17T17:49:55Z</time>
      </trkpt>
      <trkpt lat="49.54752" lon="0.14517">
        <ele>66</ele>
        <time>2020-06-17T17:49:56Z</time>
      </trkpt>
      <trkpt lat="49.54756" lon="0.14516">
        <ele>66.1</ele>
        <time>2020-06-17T17:49:57Z</time>
      </trkpt>
      <trkpt lat="49.54758" lon="0.14516">
        <ele>66.2</ele>
        <time>2020-06-17T17:49:58Z</time>
      </trkpt>
      <trkpt lat="49.54762" lon="0.14517">
        <ele>66.4</ele>
        <time>2020-06-17T17:49:59Z</time>
      </trkpt>
      <trkpt lat="49.54763" lon="0.14517">
        <ele>66.4</ele>
        <time>2020-06-17T17:50:00Z</time>
      </trkpt>
      <trkpt lat="49.54769" lon="0.14519">
        <ele>66.6</ele>
        <time>2020-06-17T17:50:01Z</time>
      </trkpt>
      <trkpt lat="49.54773" lon="0.1452">
        <ele>66.8</ele>
        <time>2020-06-17T17:50:02Z</time>
      </trkpt>
      <trkpt lat="49.54778" lon="0.14521">
        <ele>67</ele>
        <time>2020-06-17T17:50:03Z</time>
      </trkpt>
      <trkpt lat="49.54781" lon="0.14522">
        <ele>67.1</ele>
        <time>2020-06-17T17:50:04Z</time>
      </trkpt>
      <trkpt lat="49.54784" lon="0.14523">
        <ele>67.2</ele>
        <time>2020-06-17T17:50:05Z</time>
      </trkpt>
      <trkpt lat="49.54788" lon="0.14524">
        <ele>67.4</ele>
        <time>2020-06-17T17:50:06Z</time>
      </trkpt>
      <trkpt lat="49.54793" lon="0.14524">
        <ele>67.5</ele>
        <time>2020-06-17T17:50:07Z</time>
      </trkpt>
      <trkpt lat="49.54796" lon="0.14524">
        <ele>67.6</ele>
        <time>2020-06-17T17:50:08Z</time>
      </trkpt>
      <trkpt lat="49.548" lon="0.14524">
        <ele>67.7</ele>
        <time>2020-06-17T17:50:09Z</time>
      </trkpt>
      <trkpt lat="49.54805" lon="0.14524">
        <ele>67.9</ele>
        <time>2020-06-17T17:50:10Z</time>
      </trkpt>
      <trkpt lat="49.54808" lon="0.14524">
        <ele>68</ele>
        <time>2020-06-17T17:50:11Z</time>
      </trkpt>
      <trkpt lat="49.54812" lon="0.14524">
        <ele>68.1</ele>
        <time>2020-06-17T17:50:12Z</time>
      </trkpt>
      <trkpt lat="49.54815" lon="0.14524">
        <ele>68.2</ele>
        <time>2020-06-17T17:50:13Z</time>
      </trkpt>
      <trkpt lat="49.54819" lon="0.14524">
        <ele>68.3</ele>
        <time>2020-06-17T17:50:14Z</time>
      </trkpt>
      <trkpt lat="49.5482" lon="0.14524">
        <ele>68.3</ele>
        <time>2020-06-17T17:50:15Z</time>
      </trkpt>
      <trkpt lat="49.54823" lon="0.14524">
        <ele>68.4</ele>
        <time>2020-06-17T17:50:16Z</time>
      </trkpt>
      <trkpt lat="49.54825" lon="0.14523">
        <ele>68.5</ele>
        <time>2020-06-17T17:50:17Z</time>
      </trkpt>
      <trkpt lat="49.54828" lon="0.14525">
        <ele>68.6</ele>
        <time>2020-06-17T17:50:18Z</time>
      </trkpt>
      <trkpt lat="49.54831" lon="0.14526">
        <ele>68.7</ele>
        <time>2020-06-17T17:50:19Z</time>
      </trkpt>
      <trkpt lat="49.54835" lon="0.14526">
        <ele>68.8</ele>
        <time>2020-06-17T17:50:20Z</time>
      </trkpt>
      <trkpt lat="49.54837" lon="0.14526">
        <ele>68.8</ele>
        <time>2020-06-17T17:50:21Z</time>
      </trkpt>
      <trkpt lat="49.5484" lon="0.14526">
        <ele>68.9</ele>
        <time>2020-06-17T17:50:22Z</time>
      </trkpt>
      <trkpt lat="49.54843" lon="0.14527">
        <ele>69.1</ele>
        <time>2020-06-17T17:50:23Z</time>
      </trkpt>
      <trkpt lat="49.54846" lon="0.14529">
        <ele>69.2</ele>
        <time>2020-06-17T17:50:24Z</time>
      </trkpt>
      <trkpt lat="49.5485" lon="0.1453">
        <ele>69.3</ele>
        <time>2020-06-17T17:50:25Z</time>
      </trkpt>
      <trkpt lat="49.54854" lon="0.1453">
        <ele>69.5</ele>
        <time>2020-06-17T17:50:26Z</time>
      </trkpt>
      <trkpt lat="49.54858" lon="0.1453">
        <ele>69.8</ele>
        <time>2020-06-17T17:50:27Z</time>
      </trkpt>
      <trkpt lat="49.54863" lon="0.14529">
        <ele>69.9</ele>
        <time>2020-06-17T17:50:28Z</time>
      </trkpt>
      <trkpt lat="49.54867" lon="0.14528">
        <ele>70</ele>
        <time>2020-06-17T17:50:29Z</time>
      </trkpt>
      <trkpt lat="49.5487" lon="0.14527">
        <ele>70.2</ele>
        <time>2020-06-17T17:50:30Z</time>
      </trkpt>
      <trkpt lat="49.54873" lon="0.14528">
        <ele>70.3</ele>
        <time>2020-06-17T17:50:31Z</time>
      </trkpt>
      <trkpt lat="49.54878" lon="0.14528">
        <ele>70.4</ele>
        <time>2020-06-17T17:50:32Z</time>
      </trkpt>
      <trkpt lat="49.54881" lon="0.14529">
        <ele>70.6</ele>
        <time>2020-06-17T17:50:33Z</time>
      </trkpt>
      <trkpt lat="49.54885" lon="0.14529">
        <ele>70.7</ele>
        <time>2020-06-17T17:50:34Z</time>
      </trkpt>
      <trkpt lat="49.54889" lon="0.14528">
        <ele>70.8</ele>
        <time>2020-06-17T17:50:35Z</time>
      </trkpt>
      <trkpt lat="49.54893" lon="0.14528">
        <ele>70.9</ele>
        <time>2020-06-17T17:50:36Z</time>
      </trkpt>
      <trkpt lat="49.54897" lon="0.14529">
        <ele>71</ele>
        <time>2020-06-17T17:50:37Z</time>
      </trkpt>
      <trkpt lat="49.549" lon="0.1453">
        <ele>71.1</ele>
        <time>2020-06-17T17:50:38Z</time>
      </trkpt>
      <trkpt lat="49.54904" lon="0.1453">
        <ele>71.3</ele>
        <time>2020-06-17T17:50:39Z</time>
      </trkpt>
      <trkpt lat="49.54909" lon="0.14531">
        <ele>71.4</ele>
        <time>2020-06-17T17:50:40Z</time>
      </trkpt>
      <trkpt lat="49.54912" lon="0.14531">
        <ele>71.5</ele>
        <time>2020-06-17T17:50:41Z</time>
      </trkpt>
      <trkpt lat="49.54917" lon="0.1453">
        <ele>71.7</ele>
        <time>2020-06-17T17:50:42Z</time>
      </trkpt>
      <trkpt lat="49.54923" lon="0.14528">
        <ele>71.9</ele>
        <time>2020-06-17T17:50:43Z</time>
      </trkpt>
      <trkpt lat="49.54926" lon="0.14527">
        <ele>72</ele>
        <time>2020-06-17T17:50:44Z</time>
      </trkpt>
      <trkpt lat="49.5493" lon="0.14527">
        <ele>72.1</ele>
        <time>2020-06-17T17:50:45Z</time>
      </trkpt>
      <trkpt lat="49.54933" lon="0.14528">
        <ele>72.2</ele>
        <time>2020-06-17T17:50:46Z</time>
      </trkpt>
      <trkpt lat="49.54938" lon="0.1453">
        <ele>72.3</ele>
        <time>2020-06-17T17:50:47Z</time>
      </trkpt>
      <trkpt lat="49.54943" lon="0.14532">
        <ele>72.5</ele>
        <time>2020-06-17T17:50:48Z</time>
      </trkpt>
      <trkpt lat="49.54947" lon="0.14533">
        <ele>72.6</ele>
        <time>2020-06-17T17:50:49Z</time>
      </trkpt>
      <trkpt lat="49.54952" lon="0.14534">
        <ele>72.8</ele>
        <time>2020-06-17T17:50:50Z</time>
      </trkpt>
      <trkpt lat="49.54957" lon="0.14536">
        <ele>72.9</ele>
        <time>2020-06-17T17:50:51Z</time>
      </trkpt>
      <trkpt lat="49.54961" lon="0.14536">
        <ele>73.1</ele>
        <time>2020-06-17T17:50:52Z</time>
      </trkpt>
      <trkpt lat="49.54966" lon="0.14537">
        <ele>73.2</ele>
        <time>2020-06-17T17:50:53Z</time>
      </trkpt>
      <trkpt lat="49.5497" lon="0.14538">
        <ele>73.3</ele>
        <time>2020-06-17T17:50:54Z</time>
      </trkpt>
      <trkpt lat="49.54973" lon="0.14539">
        <ele>73.5</ele>
        <time>2020-06-17T17:50:55Z</time>
      </trkpt>
      <trkpt lat="49.54977" lon="0.1454">
        <ele>73.6</ele>
        <time>2020-06-17T17:50:56Z</time>
      </trkpt>
      <trkpt lat="49.54982" lon="0.14543">
        <ele>73.7</ele>
        <time>2020-06-17T17:50:57Z</time>
      </trkpt>
      <trkpt lat="49.54986" lon="0.14544">
        <ele>73.9</ele>
        <time>2020-06-17T17:50:58Z</time>
      </trkpt>
      <trkpt lat="49.54989" lon="0.14546">
        <ele>74</ele>
        <time>2020-06-17T17:50:59Z</time>
      </trkpt>
      <trkpt lat="49.54992" lon="0.14548">
        <ele>74.1</ele>
        <time>2020-06-17T17:51:00Z</time>
      </trkpt>
      <trkpt lat="49.54995" lon="0.1455">
        <ele>74.3</ele>
        <time>2020-06-17T17:51:01Z</time>
      </trkpt>
      <trkpt lat="49.54998" lon="0.14551">
        <ele>74.4</ele>
        <time>2020-06-17T17:51:02Z</time>
      </trkpt>
      <trkpt lat="49.55002" lon="0.14553">
        <ele>74.6</ele>
        <time>2020-06-17T17:51:03Z</time>
      </trkpt>
      <trkpt lat="49.55006" lon="0.14555">
        <ele>74.7</ele>
        <time>2020-06-17T17:51:04Z</time>
      </trkpt>
      <trkpt lat="49.55011" lon="0.14556">
        <ele>74.9</ele>
        <time>2020-06-17T17:51:05Z</time>
      </trkpt>
      <trkpt lat="49.55014" lon="0.14559">
        <ele>75.1</ele>
        <time>2020-06-17T17:51:06Z</time>
      </trkpt>
      <trkpt lat="49.55018" lon="0.14562">
        <ele>75.2</ele>
        <time>2020-06-17T17:51:07Z</time>
      </trkpt>
      <trkpt lat="49.55021" lon="0.14565">
        <ele>75.4</ele>
        <time>2020-06-17T17:51:08Z</time>
      </trkpt>
      <trkpt lat="49.55023" lon="0.14566">
        <ele>75.5</ele>
        <time>2020-06-17T17:51:09Z</time>
      </trkpt>
      <trkpt lat="49.55026" lon="0.14568">
        <ele>75.6</ele>
        <time>2020-06-17T17:51:10Z</time>
      </trkpt>
      <trkpt lat="49.55029" lon="0.14572">
        <ele>75.8</ele>
        <time>2020-06-17T17:51:11Z</time>
      </trkpt>
      <trkpt lat="49.55032" lon="0.14574">
        <ele>75.9</ele>
        <time>2020-06-17T17:51:12Z</time>
      </trkpt>
      <trkpt lat="49.55035" lon="0.14575">
        <ele>76</ele>
        <time>2020-06-17T17:51:13Z</time>
      </trkpt>
      <trkpt lat="49.55038" lon="0.14577">
        <ele>76.2</ele>
        <time>2020-06-17T17:51:14Z</time>
      </trkpt>
      <trkpt lat="49.55041" lon="0.14579">
        <ele>76.3</ele>
        <time>2020-06-17T17:51:15Z</time>
      </trkpt>
      <trkpt lat="49.55044" lon="0.14581">
        <ele>76.5</ele>
        <time>2020-06-17T17:51:16Z</time>
      </trkpt>
      <trkpt lat="49.55048" lon="0.14583">
        <ele>76.6</ele>
        <time>2020-06-17T17:51:17Z</time>
      </trkpt>
      <trkpt lat="49.55052" lon="0.14585">
        <ele>76.8</ele>
        <time>2020-06-17T17:51:18Z</time>
      </trkpt>
      <trkpt lat="49.55055" lon="0.14586">
        <ele>77</ele>
        <time>2020-06-17T17:51:19Z</time>
      </trkpt>
      <trkpt lat="49.55058" lon="0.14589">
        <ele>77.1</ele>
        <time>2020-06-17T17:51:20Z</time>
      </trkpt>
      <trkpt lat="49.55061" lon="0.14591">
        <ele>77.2</ele>
        <time>2020-06-17T17:51:21Z</time>
      </trkpt>
      <trkpt lat="49.55064" lon="0.14593">
        <ele>77.4</ele>
        <time>2020-06-17T17:51:22Z</time>
      </trkpt>
      <trkpt lat="49.55068" lon="0.14594">
        <ele>77.6</ele>
        <time>2020-06-17T17:51:23Z</time>
      </trkpt>
      <trkpt lat="49.55072" lon="0.14596">
        <ele>77.7</ele>
        <time>2020-06-17T17:51:24Z</time>
      </trkpt>
      <trkpt lat="49.55075" lon="0.14598">
        <ele>77.8</ele>
        <time>2020-06-17T17:51:25Z</time>
      </trkpt>
      <trkpt lat="49.55078" lon="0.146">
        <ele>78</ele>
        <time>2020-06-17T17:51:26Z</time>
      </trkpt>
      <trkpt lat="49.55082" lon="0.14601">
        <ele>78.1</ele>
        <time>2020-06-17T17:51:27Z</time>
      </trkpt>
      <trkpt lat="49.55085" lon="0.14604">
        <ele>78.2</ele>
        <time>2020-06-17T17:51:28Z</time>
      </trkpt>
      <trkpt lat="49.55087" lon="0.14607">
        <ele>78.3</ele>
        <time>2020-06-17T17:51:29Z</time>
      </trkpt>
      <trkpt lat="49.55091" lon="0.14611">
        <ele>78.5</ele>
        <time>2020-06-17T17:51:30Z</time>
      </trkpt>
      <trkpt lat="49.55094" lon="0.14612">
        <ele>78.6</ele>
        <time>2020-06-17T17:51:31Z</time>
      </trkpt>
      <trkpt lat="49.55097" lon="0.14614">
        <ele>78.7</ele>
        <time>2020-06-17T17:51:32Z</time>
      </trkpt>
      <trkpt lat="49.55101" lon="0.14616">
        <ele>78.9</ele>
        <time>2020-06-17T17:51:33Z</time>
      </trkpt>
      <trkpt lat="49.55104" lon="0.14618">
        <ele>79</ele>
        <time>2020-06-17T17:51:34Z</time>
      </trkpt>
      <trkpt lat="49.55107" lon="0.14619">
        <ele>79.1</ele>
        <time>2020-06-17T17:51:35Z</time>
      </trkpt>
      <trkpt lat="49.55111" lon="0.14622">
        <ele>79.3</ele>
        <time>2020-06-17T17:51:36Z</time>
      </trkpt>
      <trkpt lat="49.55114" lon="0.14625">
        <ele>79.4</ele>
        <time>2020-06-17T17:51:37Z</time>
      </trkpt>
      <trkpt lat="49.55117" lon="0.14629">
        <ele>79.5</ele>
        <time>2020-06-17T17:51:38Z</time>
      </trkpt>
      <trkpt lat="49.5512" lon="0.14631">
        <ele>79.6</ele>
        <time>2020-06-17T17:51:39Z</time>
      </trkpt>
      <trkpt lat="49.55124" lon="0.14633">
        <ele>79.7</ele>
        <time>2020-06-17T17:51:40Z</time>
      </trkpt>
      <trkpt lat="49.55126" lon="0.14636">
        <ele>79.8</ele>
        <time>2020-06-17T17:51:41Z</time>
      </trkpt>
      <trkpt lat="49.55129" lon="0.14638">
        <ele>79.8</ele>
        <time>2020-06-17T17:51:42Z</time>
      </trkpt>
      <trkpt lat="49.55131" lon="0.1464">
        <ele>79.9</ele>
        <time>2020-06-17T17:51:43Z</time>
      </trkpt>
      <trkpt lat="49.55135" lon="0.14644">
        <ele>80</ele>
        <time>2020-06-17T17:51:44Z</time>
      </trkpt>
      <trkpt lat="49.55137" lon="0.14647">
        <ele>80.1</ele>
        <time>2020-06-17T17:51:45Z</time>
      </trkpt>
      <trkpt lat="49.55139" lon="0.1465">
        <ele>80.1</ele>
        <time>2020-06-17T17:51:46Z</time>
      </trkpt>
      <trkpt lat="49.5514" lon="0.14656">
        <ele>80.3</ele>
        <time>2020-06-17T17:51:47Z</time>
      </trkpt>
      <trkpt lat="49.55141" lon="0.14658">
        <ele>80.4</ele>
        <time>2020-06-17T17:51:48Z</time>
      </trkpt>
      <trkpt lat="49.55141" lon="0.14661">
        <ele>80.4</ele>
        <time>2020-06-17T17:51:49Z</time>
      </trkpt>
      <trkpt lat="49.55143" lon="0.14663">
        <ele>80.4</ele>
        <time>2020-06-17T17:51:50Z</time>
      </trkpt>
      <trkpt lat="49.55144" lon="0.14667">
        <ele>80.5</ele>
        <time>2020-06-17T17:51:51Z</time>
      </trkpt>
      <trkpt lat="49.55144" lon="0.14669">
        <ele>80.5</ele>
        <time>2020-06-17T17:51:52Z</time>
      </trkpt>
      <trkpt lat="49.55145" lon="0.14673">
        <ele>80.6</ele>
        <time>2020-06-17T17:51:53Z</time>
      </trkpt>
      <trkpt lat="49.55145" lon="0.14678">
        <ele>80.6</ele>
        <time>2020-06-17T17:51:54Z</time>
      </trkpt>
      <trkpt lat="49.55146" lon="0.14682">
        <ele>80.7</ele>
        <time>2020-06-17T17:51:55Z</time>
      </trkpt>
      <trkpt lat="49.55148" lon="0.14686">
        <ele>80.8</ele>
        <time>2020-06-17T17:51:56Z</time>
      </trkpt>
      <trkpt lat="49.55151" lon="0.14689">
        <ele>80.8</ele>
        <time>2020-06-17T17:51:57Z</time>
      </trkpt>
      <trkpt lat="49.55154" lon="0.14692">
        <ele>80.9</ele>
        <time>2020-06-17T17:51:58Z</time>
      </trkpt>
      <trkpt lat="49.55158" lon="0.1469">
        <ele>80.9</ele>
        <time>2020-06-17T17:51:59Z</time>
      </trkpt>
      <trkpt lat="49.55162" lon="0.14688">
        <ele>80.9</ele>
        <time>2020-06-17T17:52:00Z</time>
      </trkpt>
      <trkpt lat="49.55165" lon="0.14684">
        <ele>80.9</ele>
        <time>2020-06-17T17:52:01Z</time>
      </trkpt>
      <trkpt lat="49.55169" lon="0.14678">
        <ele>80.9</ele>
        <time>2020-06-17T17:52:02Z</time>
      </trkpt>
      <trkpt lat="49.55173" lon="0.1467">
        <ele>80.9</ele>
        <time>2020-06-17T17:52:03Z</time>
      </trkpt>
      <trkpt lat="49.55177" lon="0.14662">
        <ele>80.8</ele>
        <time>2020-06-17T17:52:04Z</time>
      </trkpt>
      <trkpt lat="49.5518" lon="0.14655">
        <ele>80.8</ele>
        <time>2020-06-17T17:52:05Z</time>
      </trkpt>
      <trkpt lat="49.55184" lon="0.14649">
        <ele>80.7</ele>
        <time>2020-06-17T17:52:06Z</time>
      </trkpt>
      <trkpt lat="49.55187" lon="0.14643">
        <ele>80.7</ele>
        <time>2020-06-17T17:52:07Z</time>
      </trkpt>
      <trkpt lat="49.55191" lon="0.14638">
        <ele>80.6</ele>
        <time>2020-06-17T17:52:08Z</time>
      </trkpt>
      <trkpt lat="49.55195" lon="0.14633">
        <ele>80.6</ele>
        <time>2020-06-17T17:52:09Z</time>
      </trkpt>
      <trkpt lat="49.55199" lon="0.14627">
        <ele>80.5</ele>
        <time>2020-06-17T17:52:10Z</time>
      </trkpt>
      <trkpt lat="49.55202" lon="0.14621">
        <ele>80.5</ele>
        <time>2020-06-17T17:52:11Z</time>
      </trkpt>
      <trkpt lat="49.55205" lon="0.14616">
        <ele>80.4</ele>
        <time>2020-06-17T17:52:12Z</time>
      </trkpt>
      <trkpt lat="49.55208" lon="0.14611">
        <ele>80.4</ele>
        <time>2020-06-17T17:52:13Z</time>
      </trkpt>
      <trkpt lat="49.55213" lon="0.14608">
        <ele>80.4</ele>
        <time>2020-06-17T17:52:14Z</time>
      </trkpt>
      <trkpt lat="49.55217" lon="0.14607">
        <ele>80.5</ele>
        <time>2020-06-17T17:52:15Z</time>
      </trkpt>
      <trkpt lat="49.55221" lon="0.1461">
        <ele>80.5</ele>
        <time>2020-06-17T17:52:16Z</time>
      </trkpt>
      <trkpt lat="49.55225" lon="0.14613">
        <ele>80.6</ele>
        <time>2020-06-17T17:52:17Z</time>
      </trkpt>
      <trkpt lat="49.55228" lon="0.14617">
        <ele>80.7</ele>
        <time>2020-06-17T17:52:18Z</time>
      </trkpt>
      <trkpt lat="49.55233" lon="0.14619">
        <ele>80.9</ele>
        <time>2020-06-17T17:52:19Z</time>
      </trkpt>
      <trkpt lat="49.55236" lon="0.14624">
        <ele>81.1</ele>
        <time>2020-06-17T17:52:20Z</time>
      </trkpt>
      <trkpt lat="49.5524" lon="0.14628">
        <ele>81.3</ele>
        <time>2020-06-17T17:52:21Z</time>
      </trkpt>
      <trkpt lat="49.55243" lon="0.14632">
        <ele>81.4</ele>
        <time>2020-06-17T17:52:22Z</time>
      </trkpt>
      <trkpt lat="49.55247" lon="0.14635">
        <ele>81.5</ele>
        <time>2020-06-17T17:52:23Z</time>
      </trkpt>
      <trkpt lat="49.5525" lon="0.14639">
        <ele>81.7</ele>
        <time>2020-06-17T17:52:24Z</time>
      </trkpt>
      <trkpt lat="49.55254" lon="0.14644">
        <ele>81.9</ele>
        <time>2020-06-17T17:52:25Z</time>
      </trkpt>
      <trkpt lat="49.55257" lon="0.14647">
        <ele>82</ele>
        <time>2020-06-17T17:52:26Z</time>
      </trkpt>
      <trkpt lat="49.55262" lon="0.14648">
        <ele>82.2</ele>
        <time>2020-06-17T17:52:27Z</time>
      </trkpt>
      <trkpt lat="49.55265" lon="0.14651">
        <ele>82.3</ele>
        <time>2020-06-17T17:52:28Z</time>
      </trkpt>
      <trkpt lat="49.55269" lon="0.14655">
        <ele>82.5</ele>
        <time>2020-06-17T17:52:29Z</time>
      </trkpt>
      <trkpt lat="49.55272" lon="0.14659">
        <ele>82.7</ele>
        <time>2020-06-17T17:52:30Z</time>
      </trkpt>
      <trkpt lat="49.55276" lon="0.14663">
        <ele>82.9</ele>
        <time>2020-06-17T17:52:31Z</time>
      </trkpt>
      <trkpt lat="49.55279" lon="0.14666">
        <ele>83.1</ele>
        <time>2020-06-17T17:52:32Z</time>
      </trkpt>
      <trkpt lat="49.55282" lon="0.1467">
        <ele>83.3</ele>
        <time>2020-06-17T17:52:33Z</time>
      </trkpt>
      <trkpt lat="49.55286" lon="0.14672">
        <ele>83.4</ele>
        <time>2020-06-17T17:52:34Z</time>
      </trkpt>
      <trkpt lat="49.5529" lon="0.14675">
        <ele>83.6</ele>
        <time>2020-06-17T17:52:35Z</time>
      </trkpt>
      <trkpt lat="49.55293" lon="0.14677">
        <ele>83.8</ele>
        <time>2020-06-17T17:52:36Z</time>
      </trkpt>
      <trkpt lat="49.55298" lon="0.14682">
        <ele>84</ele>
        <time>2020-06-17T17:52:37Z</time>
      </trkpt>
      <trkpt lat="49.55301" lon="0.14685">
        <ele>84.2</ele>
        <time>2020-06-17T17:52:38Z</time>
      </trkpt>
      <trkpt lat="49.55305" lon="0.14687">
        <ele>84.4</ele>
        <time>2020-06-17T17:52:39Z</time>
      </trkpt>
      <trkpt lat="49.55309" lon="0.1469">
        <ele>84.5</ele>
        <time>2020-06-17T17:52:40Z</time>
      </trkpt>
      <trkpt lat="49.55311" lon="0.14692">
        <ele>84.7</ele>
        <time>2020-06-17T17:52:41Z</time>
      </trkpt>
      <trkpt lat="49.55315" lon="0.14694">
        <ele>84.8</ele>
        <time>2020-06-17T17:52:42Z</time>
      </trkpt>
      <trkpt lat="49.55319" lon="0.14697">
        <ele>85.1</ele>
        <time>2020-06-17T17:52:43Z</time>
      </trkpt>
      <trkpt lat="49.55322" lon="0.147">
        <ele>85.2</ele>
        <time>2020-06-17T17:52:44Z</time>
      </trkpt>
      <trkpt lat="49.55325" lon="0.14704">
        <ele>85.5</ele>
        <time>2020-06-17T17:52:45Z</time>
      </trkpt>
      <trkpt lat="49.55329" lon="0.14706">
        <ele>85.7</ele>
        <time>2020-06-17T17:52:46Z</time>
      </trkpt>
      <trkpt lat="49.55332" lon="0.14709">
        <ele>85.9</ele>
        <time>2020-06-17T17:52:47Z</time>
      </trkpt>
      <trkpt lat="49.55336" lon="0.14711">
        <ele>86.1</ele>
        <time>2020-06-17T17:52:48Z</time>
      </trkpt>
      <trkpt lat="49.55339" lon="0.14713">
        <ele>86.2</ele>
        <time>2020-06-17T17:52:49Z</time>
      </trkpt>
      <trkpt lat="49.55342" lon="0.14715">
        <ele>86.4</ele>
        <time>2020-06-17T17:52:50Z</time>
      </trkpt>
      <trkpt lat="49.55346" lon="0.14717">
        <ele>86.6</ele>
        <time>2020-06-17T17:52:51Z</time>
      </trkpt>
      <trkpt lat="49.55349" lon="0.1472">
        <ele>86.8</ele>
        <time>2020-06-17T17:52:52Z</time>
      </trkpt>
      <trkpt lat="49.55352" lon="0.14721">
        <ele>86.9</ele>
        <time>2020-06-17T17:52:53Z</time>
      </trkpt>
      <trkpt lat="49.55355" lon="0.14723">
        <ele>87.1</ele>
        <time>2020-06-17T17:52:54Z</time>
      </trkpt>
      <trkpt lat="49.55358" lon="0.14724">
        <ele>87.2</ele>
        <time>2020-06-17T17:52:55Z</time>
      </trkpt>
      <trkpt lat="49.55361" lon="0.14726">
        <ele>87.4</ele>
        <time>2020-06-17T17:52:56Z</time>
      </trkpt>
      <trkpt lat="49.55363" lon="0.1473">
        <ele>87.5</ele>
        <time>2020-06-17T17:52:57Z</time>
      </trkpt>
      <trkpt lat="49.55366" lon="0.14731">
        <ele>87.6</ele>
        <time>2020-06-17T17:52:58Z</time>
      </trkpt>
      <trkpt lat="49.5537" lon="0.14733">
        <ele>87.7</ele>
        <time>2020-06-17T17:52:59Z</time>
      </trkpt>
      <trkpt lat="49.55371" lon="0.14734">
        <ele>87.7</ele>
        <time>2020-06-17T17:53:00Z</time>
      </trkpt>
      <trkpt lat="49.55374" lon="0.14736">
        <ele>87.8</ele>
        <time>2020-06-17T17:53:01Z</time>
      </trkpt>
      <trkpt lat="49.55377" lon="0.14738">
        <ele>87.8</ele>
        <time>2020-06-17T17:53:02Z</time>
      </trkpt>
      <trkpt lat="49.55381" lon="0.14741">
        <ele>87.9</ele>
        <time>2020-06-17T17:53:03Z</time>
      </trkpt>
      <trkpt lat="49.55384" lon="0.14743">
        <ele>87.9</ele>
        <time>2020-06-17T17:53:04Z</time>
      </trkpt>
      <trkpt lat="49.55388" lon="0.14743">
        <ele>87.9</ele>
        <time>2020-06-17T17:53:05Z</time>
      </trkpt>
      <trkpt lat="49.55392" lon="0.14746">
        <ele>87.9</ele>
        <time>2020-06-17T17:53:06Z</time>
      </trkpt>
      <trkpt lat="49.55395" lon="0.14747">
        <ele>88</ele>
        <time>2020-06-17T17:53:07Z</time>
      </trkpt>
      <trkpt lat="49.55399" lon="0.14748">
        <ele>88</ele>
        <time>2020-06-17T17:53:08Z</time>
      </trkpt>
      <trkpt lat="49.55403" lon="0.14751">
        <ele>88</ele>
        <time>2020-06-17T17:53:09Z</time>
      </trkpt>
      <trkpt lat="49.55408" lon="0.14753">
        <ele>88</ele>
        <time>2020-06-17T17:53:10Z</time>
      </trkpt>
      <trkpt lat="49.55413" lon="0.14754">
        <ele>88</ele>
        <time>2020-06-17T17:53:11Z</time>
      </trkpt>
      <trkpt lat="49.55418" lon="0.14756">
        <ele>88</ele>
        <time>2020-06-17T17:53:12Z</time>
      </trkpt>
      <trkpt lat="49.55423" lon="0.14756">
        <ele>88.1</ele>
        <time>2020-06-17T17:53:13Z</time>
      </trkpt>
      <trkpt lat="49.55427" lon="0.14757">
        <ele>88.1</ele>
        <time>2020-06-17T17:53:14Z</time>
      </trkpt>
      <trkpt lat="49.55431" lon="0.14759">
        <ele>88.1</ele>
        <time>2020-06-17T17:53:15Z</time>
      </trkpt>
      <trkpt lat="49.55436" lon="0.14759">
        <ele>88.1</ele>
        <time>2020-06-17T17:53:16Z</time>
      </trkpt>
      <trkpt lat="49.55441" lon="0.1476">
        <ele>88.2</ele>
        <time>2020-06-17T17:53:17Z</time>
      </trkpt>
      <trkpt lat="49.55445" lon="0.14759">
        <ele>88.2</ele>
        <time>2020-06-17T17:53:18Z</time>
      </trkpt>
      <trkpt lat="49.5545" lon="0.14759">
        <ele>88.2</ele>
        <time>2020-06-17T17:53:19Z</time>
      </trkpt>
      <trkpt lat="49.55455" lon="0.14759">
        <ele>88.3</ele>
        <time>2020-06-17T17:53:20Z</time>
      </trkpt>
      <trkpt lat="49.55459" lon="0.14759">
        <ele>88.3</ele>
        <time>2020-06-17T17:53:21Z</time>
      </trkpt>
      <trkpt lat="49.55464" lon="0.1476">
        <ele>88.4</ele>
        <time>2020-06-17T17:53:22Z</time>
      </trkpt>
      <trkpt lat="49.55469" lon="0.14761">
        <ele>88.4</ele>
        <time>2020-06-17T17:53:23Z</time>
      </trkpt>
      <trkpt lat="49.55473" lon="0.14762">
        <ele>88.5</ele>
        <time>2020-06-17T17:53:24Z</time>
      </trkpt>
      <trkpt lat="49.55479" lon="0.14763">
        <ele>88.6</ele>
        <time>2020-06-17T17:53:25Z</time>
      </trkpt>
      <trkpt lat="49.55484" lon="0.14763">
        <ele>88.7</ele>
        <time>2020-06-17T17:53:26Z</time>
      </trkpt>
      <trkpt lat="49.55489" lon="0.14762">
        <ele>88.8</ele>
        <time>2020-06-17T17:53:27Z</time>
      </trkpt>
      <trkpt lat="49.55493" lon="0.14761">
        <ele>88.8</ele>
        <time>2020-06-17T17:53:28Z</time>
      </trkpt>
      <trkpt lat="49.55499" lon="0.1476">
        <ele>88.9</ele>
        <time>2020-06-17T17:53:29Z</time>
      </trkpt>
      <trkpt lat="49.55504" lon="0.1476">
        <ele>89</ele>
        <time>2020-06-17T17:53:30Z</time>
      </trkpt>
      <trkpt lat="49.55509" lon="0.14759">
        <ele>89</ele>
        <time>2020-06-17T17:53:31Z</time>
      </trkpt>
      <trkpt lat="49.55514" lon="0.14758">
        <ele>89.1</ele>
        <time>2020-06-17T17:53:32Z</time>
      </trkpt>
      <trkpt lat="49.55519" lon="0.14757">
        <ele>89.1</ele>
        <time>2020-06-17T17:53:33Z</time>
      </trkpt>
      <trkpt lat="49.55524" lon="0.14756">
        <ele>89.1</ele>
        <time>2020-06-17T17:53:34Z</time>
      </trkpt>
      <trkpt lat="49.55529" lon="0.14754">
        <ele>89.1</ele>
        <time>2020-06-17T17:53:35Z</time>
      </trkpt>
      <trkpt lat="49.55534" lon="0.14752">
        <ele>89</ele>
        <time>2020-06-17T17:53:36Z</time>
      </trkpt>
      <trkpt lat="49.55538" lon="0.14751">
        <ele>89</ele>
        <time>2020-06-17T17:53:37Z</time>
      </trkpt>
      <trkpt lat="49.55543" lon="0.1475">
        <ele>88.9</ele>
        <time>2020-06-17T17:53:38Z</time>
      </trkpt>
      <trkpt lat="49.55547" lon="0.1475">
        <ele>88.9</ele>
        <time>2020-06-17T17:53:39Z</time>
      </trkpt>
      <trkpt lat="49.55552" lon="0.14747">
        <ele>88.8</ele>
        <time>2020-06-17T17:53:40Z</time>
      </trkpt>
      <trkpt lat="49.55557" lon="0.14746">
        <ele>88.7</ele>
        <time>2020-06-17T17:53:41Z</time>
      </trkpt>
      <trkpt lat="49.55562" lon="0.14743">
        <ele>88.6</ele>
        <time>2020-06-17T17:53:42Z</time>
      </trkpt>
      <trkpt lat="49.55566" lon="0.1474">
        <ele>88.6</ele>
        <time>2020-06-17T17:53:43Z</time>
      </trkpt>
      <trkpt lat="49.55571" lon="0.14738">
        <ele>88.5</ele>
        <time>2020-06-17T17:53:44Z</time>
      </trkpt>
      <trkpt lat="49.55577" lon="0.14735">
        <ele>88.5</ele>
        <time>2020-06-17T17:53:45Z</time>
      </trkpt>
      <trkpt lat="49.55583" lon="0.14731">
        <ele>88.4</ele>
        <time>2020-06-17T17:53:46Z</time>
      </trkpt>
      <trkpt lat="49.55588" lon="0.14729">
        <ele>88.4</ele>
        <time>2020-06-17T17:53:47Z</time>
      </trkpt>
      <trkpt lat="49.55594" lon="0.14726">
        <ele>88.3</ele>
        <time>2020-06-17T17:53:48Z</time>
      </trkpt>
      <trkpt lat="49.55599" lon="0.14724">
        <ele>88.3</ele>
        <time>2020-06-17T17:53:49Z</time>
      </trkpt>
      <trkpt lat="49.55605" lon="0.14723">
        <ele>88.2</ele>
        <time>2020-06-17T17:53:50Z</time>
      </trkpt>
      <trkpt lat="49.5561" lon="0.14722">
        <ele>88.2</ele>
        <time>2020-06-17T17:53:51Z</time>
      </trkpt>
      <trkpt lat="49.55615" lon="0.14721">
        <ele>88.1</ele>
        <time>2020-06-17T17:53:52Z</time>
      </trkpt>
      <trkpt lat="49.55621" lon="0.14723">
        <ele>88</ele>
        <time>2020-06-17T17:53:53Z</time>
      </trkpt>
      <trkpt lat="49.55627" lon="0.14723">
        <ele>88</ele>
        <time>2020-06-17T17:53:54Z</time>
      </trkpt>
      <trkpt lat="49.55634" lon="0.14724">
        <ele>88</ele>
        <time>2020-06-17T17:53:55Z</time>
      </trkpt>
      <trkpt lat="49.5564" lon="0.14725">
        <ele>87.9</ele>
        <time>2020-06-17T17:53:56Z</time>
      </trkpt>
      <trkpt lat="49.55645" lon="0.14727">
        <ele>87.9</ele>
        <time>2020-06-17T17:53:57Z</time>
      </trkpt>
      <trkpt lat="49.5565" lon="0.14729">
        <ele>87.9</ele>
        <time>2020-06-17T17:53:58Z</time>
      </trkpt>
      <trkpt lat="49.55656" lon="0.14729">
        <ele>87.9</ele>
        <time>2020-06-17T17:53:59Z</time>
      </trkpt>
      <trkpt lat="49.55661" lon="0.1473">
        <ele>87.9</ele>
        <time>2020-06-17T17:54:00Z</time>
      </trkpt>
      <trkpt lat="49.55667" lon="0.14731">
        <ele>88</ele>
        <time>2020-06-17T17:54:01Z</time>
      </trkpt>
      <trkpt lat="49.55672" lon="0.14734">
        <ele>88</ele>
        <time>2020-06-17T17:54:02Z</time>
      </trkpt>
      <trkpt lat="49.55678" lon="0.14737">
        <ele>88</ele>
        <time>2020-06-17T17:54:03Z</time>
      </trkpt>
      <trkpt lat="49.55683" lon="0.14739">
        <ele>88</ele>
        <time>2020-06-17T17:54:04Z</time>
      </trkpt>
      <trkpt lat="49.5569" lon="0.14741">
        <ele>88</ele>
        <time>2020-06-17T17:54:05Z</time>
      </trkpt>
      <trkpt lat="49.55695" lon="0.14742">
        <ele>88.1</ele>
        <time>2020-06-17T17:54:06Z</time>
      </trkpt>
      <trkpt lat="49.557" lon="0.14744">
        <ele>88.1</ele>
        <time>2020-06-17T17:54:07Z</time>
      </trkpt>
      <trkpt lat="49.55705" lon="0.14745">
        <ele>88.1</ele>
        <time>2020-06-17T17:54:08Z</time>
      </trkpt>
      <trkpt lat="49.55711" lon="0.14747">
        <ele>88.2</ele>
        <time>2020-06-17T17:54:09Z</time>
      </trkpt>
      <trkpt lat="49.55716" lon="0.14748">
        <ele>88.3</ele>
        <time>2020-06-17T17:54:10Z</time>
      </trkpt>
      <trkpt lat="49.55721" lon="0.14749">
        <ele>88.3</ele>
        <time>2020-06-17T17:54:11Z</time>
      </trkpt>
      <trkpt lat="49.55726" lon="0.14751">
        <ele>88.4</ele>
        <time>2020-06-17T17:54:12Z</time>
      </trkpt>
      <trkpt lat="49.55731" lon="0.14752">
        <ele>88.4</ele>
        <time>2020-06-17T17:54:13Z</time>
      </trkpt>
      <trkpt lat="49.55736" lon="0.14754">
        <ele>88.4</ele>
        <time>2020-06-17T17:54:14Z</time>
      </trkpt>
      <trkpt lat="49.5574" lon="0.14755">
        <ele>88.5</ele>
        <time>2020-06-17T17:54:15Z</time>
      </trkpt>
      <trkpt lat="49.55745" lon="0.14756">
        <ele>88.5</ele>
        <time>2020-06-17T17:54:16Z</time>
      </trkpt>
      <trkpt lat="49.55749" lon="0.14757">
        <ele>88.5</ele>
        <time>2020-06-17T17:54:17Z</time>
      </trkpt>
      <trkpt lat="49.55755" lon="0.14757">
        <ele>88.5</ele>
        <time>2020-06-17T17:54:18Z</time>
      </trkpt>
      <trkpt lat="49.5576" lon="0.14758">
        <ele>88.5</ele>
        <time>2020-06-17T17:54:19Z</time>
      </trkpt>
      <trkpt lat="49.55766" lon="0.1476">
        <ele>88.5</ele>
        <time>2020-06-17T17:54:20Z</time>
      </trkpt>
      <trkpt lat="49.55771" lon="0.14762">
        <ele>88.4</ele>
        <time>2020-06-17T17:54:21Z</time>
      </trkpt>
      <trkpt lat="49.55776" lon="0.14763">
        <ele>88.4</ele>
        <time>2020-06-17T17:54:22Z</time>
      </trkpt>
      <trkpt lat="49.55781" lon="0.14764">
        <ele>88.4</ele>
        <time>2020-06-17T17:54:23Z</time>
      </trkpt>
      <trkpt lat="49.55785" lon="0.14766">
        <ele>88.4</ele>
        <time>2020-06-17T17:54:24Z</time>
      </trkpt>
      <trkpt lat="49.5579" lon="0.14768">
        <ele>88.4</ele>
        <time>2020-06-17T17:54:25Z</time>
      </trkpt>
      <trkpt lat="49.55795" lon="0.1477">
        <ele>88.3</ele>
        <time>2020-06-17T17:54:26Z</time>
      </trkpt>
      <trkpt lat="49.55801" lon="0.1477">
        <ele>88.3</ele>
        <time>2020-06-17T17:54:27Z</time>
      </trkpt>
      <trkpt lat="49.55806" lon="0.14773">
        <ele>88.3</ele>
        <time>2020-06-17T17:54:28Z</time>
      </trkpt>
      <trkpt lat="49.55812" lon="0.14774">
        <ele>88.4</ele>
        <time>2020-06-17T17:54:29Z</time>
      </trkpt>
      <trkpt lat="49.55817" lon="0.14776">
        <ele>88.4</ele>
        <time>2020-06-17T17:54:30Z</time>
      </trkpt>
      <trkpt lat="49.55823" lon="0.14777">
        <ele>88.4</ele>
        <time>2020-06-17T17:54:31Z</time>
      </trkpt>
      <trkpt lat="49.55828" lon="0.14778">
        <ele>88.5</ele>
        <time>2020-06-17T17:54:32Z</time>
      </trkpt>
      <trkpt lat="49.55834" lon="0.1478">
        <ele>88.5</ele>
        <time>2020-06-17T17:54:33Z</time>
      </trkpt>
      <trkpt lat="49.5584" lon="0.1478">
        <ele>88.5</ele>
        <time>2020-06-17T17:54:34Z</time>
      </trkpt>
      <trkpt lat="49.55845" lon="0.14782">
        <ele>88.5</ele>
        <time>2020-06-17T17:54:35Z</time>
      </trkpt>
      <trkpt lat="49.5585" lon="0.14784">
        <ele>88.5</ele>
        <time>2020-06-17T17:54:36Z</time>
      </trkpt>
      <trkpt lat="49.55856" lon="0.14786">
        <ele>88.5</ele>
        <time>2020-06-17T17:54:37Z</time>
      </trkpt>
      <trkpt lat="49.55861" lon="0.14787">
        <ele>88.5</ele>
        <time>2020-06-17T17:54:38Z</time>
      </trkpt>
      <trkpt lat="49.55866" lon="0.14788">
        <ele>88.4</ele>
        <time>2020-06-17T17:54:39Z</time>
      </trkpt>
      <trkpt lat="49.55871" lon="0.14789">
        <ele>88.4</ele>
        <time>2020-06-17T17:54:40Z</time>
      </trkpt>
      <trkpt lat="49.55876" lon="0.1479">
        <ele>88.4</ele>
        <time>2020-06-17T17:54:41Z</time>
      </trkpt>
      <trkpt lat="49.5588" lon="0.14791">
        <ele>88.3</ele>
        <time>2020-06-17T17:54:42Z</time>
      </trkpt>
      <trkpt lat="49.55885" lon="0.14792">
        <ele>88.3</ele>
        <time>2020-06-17T17:54:43Z</time>
      </trkpt>
      <trkpt lat="49.55889" lon="0.14794">
        <ele>88.3</ele>
        <time>2020-06-17T17:54:44Z</time>
      </trkpt>
      <trkpt lat="49.55895" lon="0.14795">
        <ele>88.3</ele>
        <time>2020-06-17T17:54:45Z</time>
      </trkpt>
      <trkpt lat="49.559" lon="0.14796">
        <ele>88.3</ele>
        <time>2020-06-17T17:54:46Z</time>
      </trkpt>
      <trkpt lat="49.55906" lon="0.14796">
        <ele>88.3</ele>
        <time>2020-06-17T17:54:47Z</time>
      </trkpt>
      <trkpt lat="49.55911" lon="0.14797">
        <ele>88.3</ele>
        <time>2020-06-17T17:54:48Z</time>
      </trkpt>
      <trkpt lat="49.55916" lon="0.14798">
        <ele>88.3</ele>
        <time>2020-06-17T17:54:49Z</time>
      </trkpt>
      <trkpt lat="49.5592" lon="0.148">
        <ele>88.2</ele>
        <time>2020-06-17T17:54:50Z</time>
      </trkpt>
      <trkpt lat="49.55925" lon="0.148">
        <ele>88.2</ele>
        <time>2020-06-17T17:54:51Z</time>
      </trkpt>
      <trkpt lat="49.5593" lon="0.14801">
        <ele>88.1</ele>
        <time>2020-06-17T17:54:52Z</time>
      </trkpt>
      <trkpt lat="49.55934" lon="0.14802">
        <ele>88.1</ele>
        <time>2020-06-17T17:54:53Z</time>
      </trkpt>
      <trkpt lat="49.55939" lon="0.14801">
        <ele>88</ele>
        <time>2020-06-17T17:54:54Z</time>
      </trkpt>
      <trkpt lat="49.55945" lon="0.148">
        <ele>88</ele>
        <time>2020-06-17T17:54:55Z</time>
      </trkpt>
      <trkpt lat="49.5595" lon="0.148">
        <ele>87.9</ele>
        <time>2020-06-17T17:54:56Z</time>
      </trkpt>
      <trkpt lat="49.55956" lon="0.14801">
        <ele>87.8</ele>
        <time>2020-06-17T17:54:57Z</time>
      </trkpt>
      <trkpt lat="49.55961" lon="0.14803">
        <ele>87.8</ele>
        <time>2020-06-17T17:54:58Z</time>
      </trkpt>
      <trkpt lat="49.55966" lon="0.14803">
        <ele>87.7</ele>
        <time>2020-06-17T17:54:59Z</time>
      </trkpt>
      <trkpt lat="49.55971" lon="0.14803">
        <ele>87.7</ele>
        <time>2020-06-17T17:55:00Z</time>
      </trkpt>
      <trkpt lat="49.55976" lon="0.14802">
        <ele>87.6</ele>
        <time>2020-06-17T17:55:01Z</time>
      </trkpt>
      <trkpt lat="49.55981" lon="0.14803">
        <ele>87.6</ele>
        <time>2020-06-17T17:55:02Z</time>
      </trkpt>
      <trkpt lat="49.55986" lon="0.14802">
        <ele>87.5</ele>
        <time>2020-06-17T17:55:03Z</time>
      </trkpt>
      <trkpt lat="49.55992" lon="0.14803">
        <ele>87.5</ele>
        <time>2020-06-17T17:55:04Z</time>
      </trkpt>
      <trkpt lat="49.55997" lon="0.14803">
        <ele>87.4</ele>
        <time>2020-06-17T17:55:05Z</time>
      </trkpt>
      <trkpt lat="49.56003" lon="0.14804">
        <ele>87.3</ele>
        <time>2020-06-17T17:55:06Z</time>
      </trkpt>
      <trkpt lat="49.56008" lon="0.14805">
        <ele>87.2</ele>
        <time>2020-06-17T17:55:07Z</time>
      </trkpt>
      <trkpt lat="49.56014" lon="0.14807">
        <ele>87.1</ele>
        <time>2020-06-17T17:55:08Z</time>
      </trkpt>
      <trkpt lat="49.5602" lon="0.14808">
        <ele>87</ele>
        <time>2020-06-17T17:55:09Z</time>
      </trkpt>
      <trkpt lat="49.56025" lon="0.14809">
        <ele>86.9</ele>
        <time>2020-06-17T17:55:10Z</time>
      </trkpt>
      <trkpt lat="49.5603" lon="0.1481">
        <ele>86.9</ele>
        <time>2020-06-17T17:55:11Z</time>
      </trkpt>
      <trkpt lat="49.56036" lon="0.14811">
        <ele>86.8</ele>
        <time>2020-06-17T17:55:12Z</time>
      </trkpt>
      <trkpt lat="49.56042" lon="0.14811">
        <ele>86.7</ele>
        <time>2020-06-17T17:55:13Z</time>
      </trkpt>
      <trkpt lat="49.56047" lon="0.14813">
        <ele>86.6</ele>
        <time>2020-06-17T17:55:14Z</time>
      </trkpt>
      <trkpt lat="49.56053" lon="0.14814">
        <ele>86.6</ele>
        <time>2020-06-17T17:55:15Z</time>
      </trkpt>
      <trkpt lat="49.56059" lon="0.14817">
        <ele>86.5</ele>
        <time>2020-06-17T17:55:16Z</time>
      </trkpt>
      <trkpt lat="49.56064" lon="0.14818">
        <ele>86.4</ele>
        <time>2020-06-17T17:55:17Z</time>
      </trkpt>
      <trkpt lat="49.5607" lon="0.14819">
        <ele>86.3</ele>
        <time>2020-06-17T17:55:18Z</time>
      </trkpt>
      <trkpt lat="49.56077" lon="0.14819">
        <ele>86.2</ele>
        <time>2020-06-17T17:55:19Z</time>
      </trkpt>
      <trkpt lat="49.56082" lon="0.14821">
        <ele>86.1</ele>
        <time>2020-06-17T17:55:20Z</time>
      </trkpt>
      <trkpt lat="49.56088" lon="0.14823">
        <ele>85.9</ele>
        <time>2020-06-17T17:55:21Z</time>
      </trkpt>
      <trkpt lat="49.56095" lon="0.14825">
        <ele>85.8</ele>
        <time>2020-06-17T17:55:22Z</time>
      </trkpt>
      <trkpt lat="49.56101" lon="0.14826">
        <ele>85.7</ele>
        <time>2020-06-17T17:55:23Z</time>
      </trkpt>
      <trkpt lat="49.56107" lon="0.14829">
        <ele>85.6</ele>
        <time>2020-06-17T17:55:24Z</time>
      </trkpt>
      <trkpt lat="49.56113" lon="0.14832">
        <ele>85.5</ele>
        <time>2020-06-17T17:55:25Z</time>
      </trkpt>
      <trkpt lat="49.5612" lon="0.14833">
        <ele>85.5</ele>
        <time>2020-06-17T17:55:26Z</time>
      </trkpt>
      <trkpt lat="49.56126" lon="0.14835">
        <ele>85.5</ele>
        <time>2020-06-17T17:55:27Z</time>
      </trkpt>
      <trkpt lat="49.56132" lon="0.14836">
        <ele>85.5</ele>
        <time>2020-06-17T17:55:28Z</time>
      </trkpt>
      <trkpt lat="49.56137" lon="0.14838">
        <ele>85.4</ele>
        <time>2020-06-17T17:55:29Z</time>
      </trkpt>
      <trkpt lat="49.56142" lon="0.1484">
        <ele>85.4</ele>
        <time>2020-06-17T17:55:30Z</time>
      </trkpt>
      <trkpt lat="49.56146" lon="0.14843">
        <ele>85.4</ele>
        <time>2020-06-17T17:55:31Z</time>
      </trkpt>
      <trkpt lat="49.56151" lon="0.14845">
        <ele>85.4</ele>
        <time>2020-06-17T17:55:32Z</time>
      </trkpt>
      <trkpt lat="49.56157" lon="0.14846">
        <ele>85.4</ele>
        <time>2020-06-17T17:55:33Z</time>
      </trkpt>
      <trkpt lat="49.56162" lon="0.14846">
        <ele>85.4</ele>
        <time>2020-06-17T17:55:34Z</time>
      </trkpt>
      <trkpt lat="49.56167" lon="0.14848">
        <ele>85.4</ele>
        <time>2020-06-17T17:55:35Z</time>
      </trkpt>
      <trkpt lat="49.56173" lon="0.14849">
        <ele>85.4</ele>
        <time>2020-06-17T17:55:36Z</time>
      </trkpt>
      <trkpt lat="49.56177" lon="0.1485">
        <ele>85.4</ele>
        <time>2020-06-17T17:55:37Z</time>
      </trkpt>
      <trkpt lat="49.5618" lon="0.1485">
        <ele>85.4</ele>
        <time>2020-06-17T17:55:38Z</time>
      </trkpt>
      <trkpt lat="49.56184" lon="0.14851">
        <ele>85.4</ele>
        <time>2020-06-17T17:55:39Z</time>
      </trkpt>
      <trkpt lat="49.56189" lon="0.14852">
        <ele>85.4</ele>
        <time>2020-06-17T17:55:40Z</time>
      </trkpt>
      <trkpt lat="49.56193" lon="0.14852">
        <ele>85.4</ele>
        <time>2020-06-17T17:55:41Z</time>
      </trkpt>
      <trkpt lat="49.56197" lon="0.14852">
        <ele>85.4</ele>
        <time>2020-06-17T17:55:42Z</time>
      </trkpt>
      <trkpt lat="49.56201" lon="0.1485">
        <ele>85.3</ele>
        <time>2020-06-17T17:55:43Z</time>
      </trkpt>
      <trkpt lat="49.56204" lon="0.14849">
        <ele>85.2</ele>
        <time>2020-06-17T17:55:44Z</time>
      </trkpt>
      <trkpt lat="49.56209" lon="0.1485">
        <ele>85.1</ele>
        <time>2020-06-17T17:55:45Z</time>
      </trkpt>
      <trkpt lat="49.56212" lon="0.14851">
        <ele>85.2</ele>
        <time>2020-06-17T17:55:46Z</time>
      </trkpt>
      <trkpt lat="49.56217" lon="0.14854">
        <ele>85.1</ele>
        <time>2020-06-17T17:55:47Z</time>
      </trkpt>
      <trkpt lat="49.56222" lon="0.14856">
        <ele>85.1</ele>
        <time>2020-06-17T17:55:48Z</time>
      </trkpt>
      <trkpt lat="49.56227" lon="0.14858">
        <ele>85.1</ele>
        <time>2020-06-17T17:55:49Z</time>
      </trkpt>
      <trkpt lat="49.56232" lon="0.1486">
        <ele>85.1</ele>
        <time>2020-06-17T17:55:50Z</time>
      </trkpt>
      <trkpt lat="49.56237" lon="0.1486">
        <ele>85</ele>
        <time>2020-06-17T17:55:51Z</time>
      </trkpt>
      <trkpt lat="49.56242" lon="0.14862">
        <ele>85</ele>
        <time>2020-06-17T17:55:52Z</time>
      </trkpt>
      <trkpt lat="49.56246" lon="0.14864">
        <ele>85</ele>
        <time>2020-06-17T17:55:53Z</time>
      </trkpt>
      <trkpt lat="49.56252" lon="0.14864">
        <ele>84.9</ele>
        <time>2020-06-17T17:55:54Z</time>
      </trkpt>
      <trkpt lat="49.56254" lon="0.14864">
        <ele>84.8</ele>
        <time>2020-06-17T17:55:55Z</time>
      </trkpt>
      <trkpt lat="49.5626" lon="0.14862">
        <ele>84.8</ele>
        <time>2020-06-17T17:55:56Z</time>
      </trkpt>
      <trkpt lat="49.56265" lon="0.1486">
        <ele>84.7</ele>
        <time>2020-06-17T17:55:57Z</time>
      </trkpt>
      <trkpt lat="49.56269" lon="0.14859">
        <ele>84.6</ele>
        <time>2020-06-17T17:55:58Z</time>
      </trkpt>
      <trkpt lat="49.56274" lon="0.14858">
        <ele>84.5</ele>
        <time>2020-06-17T17:55:59Z</time>
      </trkpt>
      <trkpt lat="49.56278" lon="0.14856">
        <ele>84.4</ele>
        <time>2020-06-17T17:56:00Z</time>
      </trkpt>
      <trkpt lat="49.56282" lon="0.14855">
        <ele>84.3</ele>
        <time>2020-06-17T17:56:01Z</time>
      </trkpt>
      <trkpt lat="49.56287" lon="0.14853">
        <ele>84.1</ele>
        <time>2020-06-17T17:56:02Z</time>
      </trkpt>
      <trkpt lat="49.56292" lon="0.1485">
        <ele>83.9</ele>
        <time>2020-06-17T17:56:03Z</time>
      </trkpt>
      <trkpt lat="49.56297" lon="0.14848">
        <ele>83.7</ele>
        <time>2020-06-17T17:56:04Z</time>
      </trkpt>
      <trkpt lat="49.56302" lon="0.14846">
        <ele>83.2</ele>
        <time>2020-06-17T17:56:05Z</time>
      </trkpt>
      <trkpt lat="49.56307" lon="0.14844">
        <ele>82.9</ele>
        <time>2020-06-17T17:56:06Z</time>
      </trkpt>
      <trkpt lat="49.56312" lon="0.14841">
        <ele>82.6</ele>
        <time>2020-06-17T17:56:07Z</time>
      </trkpt>
      <trkpt lat="49.56317" lon="0.14839">
        <ele>82.3</ele>
        <time>2020-06-17T17:56:08Z</time>
      </trkpt>
      <trkpt lat="49.56322" lon="0.14836">
        <ele>82</ele>
        <time>2020-06-17T17:56:09Z</time>
      </trkpt>
      <trkpt lat="49.56329" lon="0.14833">
        <ele>81.6</ele>
        <time>2020-06-17T17:56:10Z</time>
      </trkpt>
      <trkpt lat="49.56334" lon="0.14831">
        <ele>81.3</ele>
        <time>2020-06-17T17:56:11Z</time>
      </trkpt>
      <trkpt lat="49.56339" lon="0.14828">
        <ele>81</ele>
        <time>2020-06-17T17:56:12Z</time>
      </trkpt>
      <trkpt lat="49.56345" lon="0.14824">
        <ele>80.6</ele>
        <time>2020-06-17T17:56:13Z</time>
      </trkpt>
      <trkpt lat="49.56348" lon="0.14821">
        <ele>80.3</ele>
        <time>2020-06-17T17:56:14Z</time>
      </trkpt>
      <trkpt lat="49.56353" lon="0.14818">
        <ele>79.9</ele>
        <time>2020-06-17T17:56:15Z</time>
      </trkpt>
      <trkpt lat="49.5636" lon="0.14815">
        <ele>79.5</ele>
        <time>2020-06-17T17:56:16Z</time>
      </trkpt>
      <trkpt lat="49.56365" lon="0.14815">
        <ele>79.1</ele>
        <time>2020-06-17T17:56:17Z</time>
      </trkpt>
      <trkpt lat="49.56372" lon="0.14813">
        <ele>78.7</ele>
        <time>2020-06-17T17:56:18Z</time>
      </trkpt>
      <trkpt lat="49.56378" lon="0.14812">
        <ele>78.3</ele>
        <time>2020-06-17T17:56:19Z</time>
      </trkpt>
      <trkpt lat="49.56385" lon="0.14812">
        <ele>77.9</ele>
        <time>2020-06-17T17:56:20Z</time>
      </trkpt>
      <trkpt lat="49.56391" lon="0.14811">
        <ele>77.5</ele>
        <time>2020-06-17T17:56:21Z</time>
      </trkpt>
      <trkpt lat="49.56397" lon="0.1481">
        <ele>77.1</ele>
        <time>2020-06-17T17:56:22Z</time>
      </trkpt>
      <trkpt lat="49.56404" lon="0.1481">
        <ele>76.7</ele>
        <time>2020-06-17T17:56:23Z</time>
      </trkpt>
      <trkpt lat="49.56409" lon="0.14811">
        <ele>76.3</ele>
        <time>2020-06-17T17:56:24Z</time>
      </trkpt>
      <trkpt lat="49.56417" lon="0.1481">
        <ele>75.7</ele>
        <time>2020-06-17T17:56:25Z</time>
      </trkpt>
      <trkpt lat="49.56423" lon="0.1481">
        <ele>75.3</ele>
        <time>2020-06-17T17:56:26Z</time>
      </trkpt>
      <trkpt lat="49.5643" lon="0.14811">
        <ele>74.8</ele>
        <time>2020-06-17T17:56:27Z</time>
      </trkpt>
      <trkpt lat="49.56438" lon="0.14811">
        <ele>74.3</ele>
        <time>2020-06-17T17:56:28Z</time>
      </trkpt>
      <trkpt lat="49.56445" lon="0.1481">
        <ele>73.8</ele>
        <time>2020-06-17T17:56:29Z</time>
      </trkpt>
      <trkpt lat="49.56453" lon="0.14809">
        <ele>73.4</ele>
        <time>2020-06-17T17:56:30Z</time>
      </trkpt>
      <trkpt lat="49.5646" lon="0.14809">
        <ele>72.9</ele>
        <time>2020-06-17T17:56:31Z</time>
      </trkpt>
      <trkpt lat="49.56468" lon="0.14809">
        <ele>72.5</ele>
        <time>2020-06-17T17:56:32Z</time>
      </trkpt>
      <trkpt lat="49.56476" lon="0.1481">
        <ele>72.2</ele>
        <time>2020-06-17T17:56:33Z</time>
      </trkpt>
      <trkpt lat="49.56482" lon="0.1481">
        <ele>72</ele>
        <time>2020-06-17T17:56:34Z</time>
      </trkpt>
      <trkpt lat="49.56489" lon="0.1481">
        <ele>71.9</ele>
        <time>2020-06-17T17:56:35Z</time>
      </trkpt>
      <trkpt lat="49.56496" lon="0.14808">
        <ele>71.9</ele>
        <time>2020-06-17T17:56:36Z</time>
      </trkpt>
      <trkpt lat="49.56504" lon="0.14806">
        <ele>72</ele>
        <time>2020-06-17T17:56:37Z</time>
      </trkpt>
      <trkpt lat="49.56511" lon="0.14804">
        <ele>72.1</ele>
        <time>2020-06-17T17:56:38Z</time>
      </trkpt>
      <trkpt lat="49.56516" lon="0.14801">
        <ele>72.2</ele>
        <time>2020-06-17T17:56:39Z</time>
      </trkpt>
      <trkpt lat="49.56521" lon="0.14798">
        <ele>72.4</ele>
        <time>2020-06-17T17:56:40Z</time>
      </trkpt>
      <trkpt lat="49.56525" lon="0.14795">
        <ele>72.5</ele>
        <time>2020-06-17T17:56:41Z</time>
      </trkpt>
      <trkpt lat="49.5653" lon="0.14793">
        <ele>72.7</ele>
        <time>2020-06-17T17:56:42Z</time>
      </trkpt>
      <trkpt lat="49.56535" lon="0.1479">
        <ele>72.9</ele>
        <time>2020-06-17T17:56:43Z</time>
      </trkpt>
      <trkpt lat="49.5654" lon="0.14785">
        <ele>73.2</ele>
        <time>2020-06-17T17:56:44Z</time>
      </trkpt>
      <trkpt lat="49.56544" lon="0.1478">
        <ele>73.5</ele>
        <time>2020-06-17T17:56:45Z</time>
      </trkpt>
      <trkpt lat="49.56549" lon="0.14776">
        <ele>73.8</ele>
        <time>2020-06-17T17:56:46Z</time>
      </trkpt>
      <trkpt lat="49.56554" lon="0.14775">
        <ele>74.1</ele>
        <time>2020-06-17T17:56:47Z</time>
      </trkpt>
      <trkpt lat="49.5656" lon="0.14773">
        <ele>74.4</ele>
        <time>2020-06-17T17:56:48Z</time>
      </trkpt>
      <trkpt lat="49.56565" lon="0.1477">
        <ele>74.7</ele>
        <time>2020-06-17T17:56:49Z</time>
      </trkpt>
      <trkpt lat="49.56571" lon="0.14769">
        <ele>75</ele>
        <time>2020-06-17T17:56:50Z</time>
      </trkpt>
      <trkpt lat="49.56576" lon="0.14769">
        <ele>75.3</ele>
        <time>2020-06-17T17:56:51Z</time>
      </trkpt>
      <trkpt lat="49.5658" lon="0.14769">
        <ele>75.5</ele>
        <time>2020-06-17T17:56:52Z</time>
      </trkpt>
      <trkpt lat="49.56584" lon="0.14769">
        <ele>75.7</ele>
        <time>2020-06-17T17:56:53Z</time>
      </trkpt>
      <trkpt lat="49.56588" lon="0.14768">
        <ele>75.9</ele>
        <time>2020-06-17T17:56:54Z</time>
      </trkpt>
      <trkpt lat="49.56592" lon="0.14769">
        <ele>76.1</ele>
        <time>2020-06-17T17:56:55Z</time>
      </trkpt>
      <trkpt lat="49.56597" lon="0.14769">
        <ele>76.3</ele>
        <time>2020-06-17T17:56:56Z</time>
      </trkpt>
      <trkpt lat="49.56602" lon="0.1477">
        <ele>76.6</ele>
        <time>2020-06-17T17:56:57Z</time>
      </trkpt>
      <trkpt lat="49.56606" lon="0.1477">
        <ele>76.8</ele>
        <time>2020-06-17T17:56:58Z</time>
      </trkpt>
      <trkpt lat="49.5661" lon="0.14769">
        <ele>77.1</ele>
        <time>2020-06-17T17:56:59Z</time>
      </trkpt>
      <trkpt lat="49.56614" lon="0.14769">
        <ele>77.3</ele>
        <time>2020-06-17T17:57:00Z</time>
      </trkpt>
      <trkpt lat="49.56618" lon="0.14768">
        <ele>77.6</ele>
        <time>2020-06-17T17:57:01Z</time>
      </trkpt>
      <trkpt lat="49.56622" lon="0.14768">
        <ele>77.9</ele>
        <time>2020-06-17T17:57:02Z</time>
      </trkpt>
      <trkpt lat="49.56626" lon="0.14768">
        <ele>78.2</ele>
        <time>2020-06-17T17:57:03Z</time>
      </trkpt>
      <trkpt lat="49.56629" lon="0.14768">
        <ele>78.4</ele>
        <time>2020-06-17T17:57:04Z</time>
      </trkpt>
      <trkpt lat="49.56632" lon="0.14766">
        <ele>78.6</ele>
        <time>2020-06-17T17:57:05Z</time>
      </trkpt>
      <trkpt lat="49.56635" lon="0.14765">
        <ele>78.9</ele>
        <time>2020-06-17T17:57:06Z</time>
      </trkpt>
      <trkpt lat="49.56639" lon="0.14766">
        <ele>79.1</ele>
        <time>2020-06-17T17:57:07Z</time>
      </trkpt>
      <trkpt lat="49.5664" lon="0.14766">
        <ele>79.2</ele>
        <time>2020-06-17T17:57:08Z</time>
      </trkpt>
      <trkpt lat="49.56643" lon="0.14768">
        <ele>79.4</ele>
        <time>2020-06-17T17:57:09Z</time>
      </trkpt>
      <trkpt lat="49.56648" lon="0.14769">
        <ele>79.8</ele>
        <time>2020-06-17T17:57:10Z</time>
      </trkpt>
      <trkpt lat="49.56652" lon="0.1477">
        <ele>80</ele>
        <time>2020-06-17T17:57:11Z</time>
      </trkpt>
      <trkpt lat="49.56658" lon="0.14772">
        <ele>80.3</ele>
        <time>2020-06-17T17:57:12Z</time>
      </trkpt>
      <trkpt lat="49.56661" lon="0.14773">
        <ele>80.6</ele>
        <time>2020-06-17T17:57:13Z</time>
      </trkpt>
      <trkpt lat="49.56667" lon="0.14773">
        <ele>80.9</ele>
        <time>2020-06-17T17:57:14Z</time>
      </trkpt>
      <trkpt lat="49.5667" lon="0.14772">
        <ele>81.1</ele>
        <time>2020-06-17T17:57:15Z</time>
      </trkpt>
      <trkpt lat="49.56675" lon="0.14771">
        <ele>81.3</ele>
        <time>2020-06-17T17:57:16Z</time>
      </trkpt>
      <trkpt lat="49.5668" lon="0.1477">
        <ele>81.5</ele>
        <time>2020-06-17T17:57:17Z</time>
      </trkpt>
      <trkpt lat="49.56684" lon="0.1477">
        <ele>81.7</ele>
        <time>2020-06-17T17:57:18Z</time>
      </trkpt>
      <trkpt lat="49.56688" lon="0.14771">
        <ele>81.9</ele>
        <time>2020-06-17T17:57:19Z</time>
      </trkpt>
      <trkpt lat="49.56692" lon="0.14772">
        <ele>82.1</ele>
        <time>2020-06-17T17:57:20Z</time>
      </trkpt>
      <trkpt lat="49.56697" lon="0.14773">
        <ele>82.3</ele>
        <time>2020-06-17T17:57:21Z</time>
      </trkpt>
      <trkpt lat="49.56703" lon="0.14774">
        <ele>82.5</ele>
        <time>2020-06-17T17:57:22Z</time>
      </trkpt>
      <trkpt lat="49.56707" lon="0.14775">
        <ele>82.7</ele>
        <time>2020-06-17T17:57:23Z</time>
      </trkpt>
      <trkpt lat="49.56713" lon="0.14776">
        <ele>82.9</ele>
        <time>2020-06-17T17:57:24Z</time>
      </trkpt>
      <trkpt lat="49.56717" lon="0.14778">
        <ele>83.1</ele>
        <time>2020-06-17T17:57:25Z</time>
      </trkpt>
      <trkpt lat="49.56723" lon="0.14779">
        <ele>83.3</ele>
        <time>2020-06-17T17:57:26Z</time>
      </trkpt>
      <trkpt lat="49.56727" lon="0.14779">
        <ele>83.4</ele>
        <time>2020-06-17T17:57:27Z</time>
      </trkpt>
      <trkpt lat="49.56733" lon="0.14779">
        <ele>83.6</ele>
        <time>2020-06-17T17:57:28Z</time>
      </trkpt>
      <trkpt lat="49.56738" lon="0.14778">
        <ele>83.7</ele>
        <time>2020-06-17T17:57:29Z</time>
      </trkpt>
      <trkpt lat="49.56744" lon="0.14778">
        <ele>83.9</ele>
        <time>2020-06-17T17:57:30Z</time>
      </trkpt>
      <trkpt lat="49.56749" lon="0.14778">
        <ele>84</ele>
        <time>2020-06-17T17:57:31Z</time>
      </trkpt>
      <trkpt lat="49.56752" lon="0.14779">
        <ele>84</ele>
        <time>2020-06-17T17:57:32Z</time>
      </trkpt>
      <trkpt lat="49.56757" lon="0.14779">
        <ele>84.1</ele>
        <time>2020-06-17T17:57:33Z</time>
      </trkpt>
      <trkpt lat="49.56762" lon="0.1478">
        <ele>84.2</ele>
        <time>2020-06-17T17:57:34Z</time>
      </trkpt>
      <trkpt lat="49.56764" lon="0.14781">
        <ele>84.3</ele>
        <time>2020-06-17T17:57:35Z</time>
      </trkpt>
      <trkpt lat="49.56769" lon="0.14781">
        <ele>84.4</ele>
        <time>2020-06-17T17:57:36Z</time>
      </trkpt>
      <trkpt lat="49.56773" lon="0.1478">
        <ele>84.4</ele>
        <time>2020-06-17T17:57:37Z</time>
      </trkpt>
      <trkpt lat="49.56777" lon="0.14781">
        <ele>84.4</ele>
        <time>2020-06-17T17:57:38Z</time>
      </trkpt>
      <trkpt lat="49.56782" lon="0.14781">
        <ele>84.5</ele>
        <time>2020-06-17T17:57:39Z</time>
      </trkpt>
      <trkpt lat="49.56787" lon="0.14781">
        <ele>84.6</ele>
        <time>2020-06-17T17:57:40Z</time>
      </trkpt>
      <trkpt lat="49.56792" lon="0.14781">
        <ele>84.6</ele>
        <time>2020-06-17T17:57:41Z</time>
      </trkpt>
      <trkpt lat="49.56796" lon="0.1478">
        <ele>84.6</ele>
        <time>2020-06-17T17:57:42Z</time>
      </trkpt>
      <trkpt lat="49.56801" lon="0.1478">
        <ele>84.7</ele>
        <time>2020-06-17T17:57:43Z</time>
      </trkpt>
      <trkpt lat="49.56807" lon="0.14781">
        <ele>84.7</ele>
        <time>2020-06-17T17:57:44Z</time>
      </trkpt>
      <trkpt lat="49.56812" lon="0.14783">
        <ele>84.8</ele>
        <time>2020-06-17T17:57:45Z</time>
      </trkpt>
      <trkpt lat="49.56817" lon="0.14784">
        <ele>84.9</ele>
        <time>2020-06-17T17:57:46Z</time>
      </trkpt>
      <trkpt lat="49.56821" lon="0.14784">
        <ele>84.9</ele>
        <time>2020-06-17T17:57:47Z</time>
      </trkpt>
      <trkpt lat="49.56827" lon="0.14785">
        <ele>85</ele>
        <time>2020-06-17T17:57:48Z</time>
      </trkpt>
      <trkpt lat="49.56831" lon="0.14786">
        <ele>85</ele>
        <time>2020-06-17T17:57:49Z</time>
      </trkpt>
      <trkpt lat="49.56838" lon="0.14787">
        <ele>85.1</ele>
        <time>2020-06-17T17:57:50Z</time>
      </trkpt>
      <trkpt lat="49.56842" lon="0.14788">
        <ele>85.2</ele>
        <time>2020-06-17T17:57:51Z</time>
      </trkpt>
      <trkpt lat="49.56846" lon="0.14788">
        <ele>85.3</ele>
        <time>2020-06-17T17:57:52Z</time>
      </trkpt>
      <trkpt lat="49.56852" lon="0.14789">
        <ele>85.3</ele>
        <time>2020-06-17T17:57:53Z</time>
      </trkpt>
      <trkpt lat="49.56856" lon="0.14791">
        <ele>85.4</ele>
        <time>2020-06-17T17:57:54Z</time>
      </trkpt>
      <trkpt lat="49.56861" lon="0.14793">
        <ele>85.4</ele>
        <time>2020-06-17T17:57:55Z</time>
      </trkpt>
      <trkpt lat="49.56865" lon="0.14795">
        <ele>85.5</ele>
        <time>2020-06-17T17:57:56Z</time>
      </trkpt>
      <trkpt lat="49.56869" lon="0.14797">
        <ele>85.5</ele>
        <time>2020-06-17T17:57:57Z</time>
      </trkpt>
      <trkpt lat="49.56873" lon="0.14799">
        <ele>85.6</ele>
        <time>2020-06-17T17:57:58Z</time>
      </trkpt>
      <trkpt lat="49.56878" lon="0.148">
        <ele>85.7</ele>
        <time>2020-06-17T17:57:59Z</time>
      </trkpt>
      <trkpt lat="49.56882" lon="0.14802">
        <ele>85.7</ele>
        <time>2020-06-17T17:58:00Z</time>
      </trkpt>
      <trkpt lat="49.56887" lon="0.14804">
        <ele>85.8</ele>
        <time>2020-06-17T17:58:01Z</time>
      </trkpt>
      <trkpt lat="49.56893" lon="0.14806">
        <ele>85.8</ele>
        <time>2020-06-17T17:58:02Z</time>
      </trkpt>
      <trkpt lat="49.56898" lon="0.14809">
        <ele>85.9</ele>
        <time>2020-06-17T17:58:03Z</time>
      </trkpt>
      <trkpt lat="49.56901" lon="0.14812">
        <ele>85.9</ele>
        <time>2020-06-17T17:58:04Z</time>
      </trkpt>
      <trkpt lat="49.56905" lon="0.14814">
        <ele>86</ele>
        <time>2020-06-17T17:58:05Z</time>
      </trkpt>
      <trkpt lat="49.56909" lon="0.14817">
        <ele>86.1</ele>
        <time>2020-06-17T17:58:06Z</time>
      </trkpt>
      <trkpt lat="49.56915" lon="0.14819">
        <ele>86.2</ele>
        <time>2020-06-17T17:58:07Z</time>
      </trkpt>
      <trkpt lat="49.56919" lon="0.14823">
        <ele>86.3</ele>
        <time>2020-06-17T17:58:08Z</time>
      </trkpt>
      <trkpt lat="49.56923" lon="0.14826">
        <ele>86.5</ele>
        <time>2020-06-17T17:58:09Z</time>
      </trkpt>
      <trkpt lat="49.56928" lon="0.14827">
        <ele>86.6</ele>
        <time>2020-06-17T17:58:10Z</time>
      </trkpt>
      <trkpt lat="49.56932" lon="0.1483">
        <ele>86.7</ele>
        <time>2020-06-17T17:58:11Z</time>
      </trkpt>
      <trkpt lat="49.56938" lon="0.14832">
        <ele>86.9</ele>
        <time>2020-06-17T17:58:12Z</time>
      </trkpt>
      <trkpt lat="49.56941" lon="0.14834">
        <ele>87</ele>
        <time>2020-06-17T17:58:13Z</time>
      </trkpt>
      <trkpt lat="49.56946" lon="0.14837">
        <ele>87.2</ele>
        <time>2020-06-17T17:58:14Z</time>
      </trkpt>
      <trkpt lat="49.56951" lon="0.1484">
        <ele>87.3</ele>
        <time>2020-06-17T17:58:15Z</time>
      </trkpt>
      <trkpt lat="49.56954" lon="0.14841">
        <ele>87.4</ele>
        <time>2020-06-17T17:58:16Z</time>
      </trkpt>
      <trkpt lat="49.5696" lon="0.14844">
        <ele>87.6</ele>
        <time>2020-06-17T17:58:17Z</time>
      </trkpt>
      <trkpt lat="49.56963" lon="0.14847">
        <ele>87.7</ele>
        <time>2020-06-17T17:58:18Z</time>
      </trkpt>
      <trkpt lat="49.56967" lon="0.1485">
        <ele>87.8</ele>
        <time>2020-06-17T17:58:19Z</time>
      </trkpt>
      <trkpt lat="49.56971" lon="0.14854">
        <ele>88</ele>
        <time>2020-06-17T17:58:20Z</time>
      </trkpt>
      <trkpt lat="49.56974" lon="0.14858">
        <ele>88.1</ele>
        <time>2020-06-17T17:58:21Z</time>
      </trkpt>
      <trkpt lat="49.56978" lon="0.14863">
        <ele>88.2</ele>
        <time>2020-06-17T17:58:22Z</time>
      </trkpt>
      <trkpt lat="49.56981" lon="0.14867">
        <ele>88.4</ele>
        <time>2020-06-17T17:58:23Z</time>
      </trkpt>
      <trkpt lat="49.56985" lon="0.14871">
        <ele>88.5</ele>
        <time>2020-06-17T17:58:24Z</time>
      </trkpt>
      <trkpt lat="49.5699" lon="0.14876">
        <ele>88.6</ele>
        <time>2020-06-17T17:58:25Z</time>
      </trkpt>
      <trkpt lat="49.56992" lon="0.14881">
        <ele>88.6</ele>
        <time>2020-06-17T17:58:26Z</time>
      </trkpt>
      <trkpt lat="49.56995" lon="0.14886">
        <ele>88.7</ele>
        <time>2020-06-17T17:58:27Z</time>
      </trkpt>
      <trkpt lat="49.56999" lon="0.14892">
        <ele>88.8</ele>
        <time>2020-06-17T17:58:28Z</time>
      </trkpt>
      <trkpt lat="49.57002" lon="0.14898">
        <ele>88.9</ele>
        <time>2020-06-17T17:58:29Z</time>
      </trkpt>
      <trkpt lat="49.57005" lon="0.14904">
        <ele>88.9</ele>
        <time>2020-06-17T17:58:30Z</time>
      </trkpt>
      <trkpt lat="49.57009" lon="0.1491">
        <ele>89</ele>
        <time>2020-06-17T17:58:31Z</time>
      </trkpt>
      <trkpt lat="49.57011" lon="0.14915">
        <ele>89.1</ele>
        <time>2020-06-17T17:58:32Z</time>
      </trkpt>
      <trkpt lat="49.57014" lon="0.14922">
        <ele>89.2</ele>
        <time>2020-06-17T17:58:33Z</time>
      </trkpt>
      <trkpt lat="49.57017" lon="0.14926">
        <ele>89.2</ele>
        <time>2020-06-17T17:58:34Z</time>
      </trkpt>
      <trkpt lat="49.57019" lon="0.14931">
        <ele>89.3</ele>
        <time>2020-06-17T17:58:35Z</time>
      </trkpt>
      <trkpt lat="49.57021" lon="0.14935">
        <ele>89.3</ele>
        <time>2020-06-17T17:58:36Z</time>
      </trkpt>
      <trkpt lat="49.57024" lon="0.1494">
        <ele>89.4</ele>
        <time>2020-06-17T17:58:37Z</time>
      </trkpt>
      <trkpt lat="49.57026" lon="0.14947">
        <ele>89.5</ele>
        <time>2020-06-17T17:58:38Z</time>
      </trkpt>
      <trkpt lat="49.57028" lon="0.14954">
        <ele>89.5</ele>
        <time>2020-06-17T17:58:39Z</time>
      </trkpt>
      <trkpt lat="49.57029" lon="0.1496">
        <ele>89.6</ele>
        <time>2020-06-17T17:58:40Z</time>
      </trkpt>
      <trkpt lat="49.5703" lon="0.14968">
        <ele>89.6</ele>
        <time>2020-06-17T17:58:41Z</time>
      </trkpt>
      <trkpt lat="49.57032" lon="0.14976">
        <ele>89.7</ele>
        <time>2020-06-17T17:58:42Z</time>
      </trkpt>
      <trkpt lat="49.57033" lon="0.14983">
        <ele>89.8</ele>
        <time>2020-06-17T17:58:43Z</time>
      </trkpt>
      <trkpt lat="49.57034" lon="0.1499">
        <ele>89.8</ele>
        <time>2020-06-17T17:58:44Z</time>
      </trkpt>
      <trkpt lat="49.57036" lon="0.14996">
        <ele>89.8</ele>
        <time>2020-06-17T17:58:45Z</time>
      </trkpt>
      <trkpt lat="49.57038" lon="0.15004">
        <ele>89.8</ele>
        <time>2020-06-17T17:58:46Z</time>
      </trkpt>
      <trkpt lat="49.57039" lon="0.15011">
        <ele>89.9</ele>
        <time>2020-06-17T17:58:47Z</time>
      </trkpt>
      <trkpt lat="49.5704" lon="0.15018">
        <ele>89.9</ele>
        <time>2020-06-17T17:58:48Z</time>
      </trkpt>
      <trkpt lat="49.57042" lon="0.15022">
        <ele>89.9</ele>
        <time>2020-06-17T17:58:49Z</time>
      </trkpt>
      <trkpt lat="49.57043" lon="0.15029">
        <ele>89.9</ele>
        <time>2020-06-17T17:58:50Z</time>
      </trkpt>
      <trkpt lat="49.57044" lon="0.15036">
        <ele>90</ele>
        <time>2020-06-17T17:58:51Z</time>
      </trkpt>
      <trkpt lat="49.57046" lon="0.15044">
        <ele>90</ele>
        <time>2020-06-17T17:58:52Z</time>
      </trkpt>
      <trkpt lat="49.57048" lon="0.15048">
        <ele>90.1</ele>
        <time>2020-06-17T17:58:53Z</time>
      </trkpt>
      <trkpt lat="49.57049" lon="0.15055">
        <ele>90.1</ele>
        <time>2020-06-17T17:58:54Z</time>
      </trkpt>
      <trkpt lat="49.57051" lon="0.15062">
        <ele>90.2</ele>
        <time>2020-06-17T17:58:55Z</time>
      </trkpt>
      <trkpt lat="49.57053" lon="0.15069">
        <ele>90.3</ele>
        <time>2020-06-17T17:58:56Z</time>
      </trkpt>
      <trkpt lat="49.57054" lon="0.15075">
        <ele>90.4</ele>
        <time>2020-06-17T17:58:57Z</time>
      </trkpt>
      <trkpt lat="49.57056" lon="0.15081">
        <ele>90.4</ele>
        <time>2020-06-17T17:58:58Z</time>
      </trkpt>
      <trkpt lat="49.57058" lon="0.15088">
        <ele>90.4</ele>
        <time>2020-06-17T17:58:59Z</time>
      </trkpt>
      <trkpt lat="49.5706" lon="0.15093">
        <ele>90.4</ele>
        <time>2020-06-17T17:59:00Z</time>
      </trkpt>
      <trkpt lat="49.57062" lon="0.15099">
        <ele>90.4</ele>
        <time>2020-06-17T17:59:01Z</time>
      </trkpt>
      <trkpt lat="49.57065" lon="0.15105">
        <ele>90.4</ele>
        <time>2020-06-17T17:59:02Z</time>
      </trkpt>
      <trkpt lat="49.57067" lon="0.15111">
        <ele>90.4</ele>
        <time>2020-06-17T17:59:03Z</time>
      </trkpt>
      <trkpt lat="49.5707" lon="0.15117">
        <ele>90.4</ele>
        <time>2020-06-17T17:59:04Z</time>
      </trkpt>
      <trkpt lat="49.57073" lon="0.15125">
        <ele>90.5</ele>
        <time>2020-06-17T17:59:05Z</time>
      </trkpt>
      <trkpt lat="49.57075" lon="0.15131">
        <ele>90.5</ele>
        <time>2020-06-17T17:59:06Z</time>
      </trkpt>
      <trkpt lat="49.57077" lon="0.15137">
        <ele>90.5</ele>
        <time>2020-06-17T17:59:07Z</time>
      </trkpt>
      <trkpt lat="49.57079" lon="0.15143">
        <ele>90.5</ele>
        <time>2020-06-17T17:59:08Z</time>
      </trkpt>
      <trkpt lat="49.57082" lon="0.15152">
        <ele>90.6</ele>
        <time>2020-06-17T17:59:09Z</time>
      </trkpt>
      <trkpt lat="49.57085" lon="0.15158">
        <ele>90.6</ele>
        <time>2020-06-17T17:59:10Z</time>
      </trkpt>
      <trkpt lat="49.57087" lon="0.15164">
        <ele>90.5</ele>
        <time>2020-06-17T17:59:11Z</time>
      </trkpt>
      <trkpt lat="49.57089" lon="0.1517">
        <ele>90.5</ele>
        <time>2020-06-17T17:59:12Z</time>
      </trkpt>
      <trkpt lat="49.57092" lon="0.15176">
        <ele>90.5</ele>
        <time>2020-06-17T17:59:13Z</time>
      </trkpt>
      <trkpt lat="49.57095" lon="0.15184">
        <ele>90.4</ele>
        <time>2020-06-17T17:59:14Z</time>
      </trkpt>
      <trkpt lat="49.57098" lon="0.1519">
        <ele>90.4</ele>
        <time>2020-06-17T17:59:15Z</time>
      </trkpt>
      <trkpt lat="49.571" lon="0.15195">
        <ele>90.3</ele>
        <time>2020-06-17T17:59:16Z</time>
      </trkpt>
      <trkpt lat="49.57102" lon="0.15202">
        <ele>90.3</ele>
        <time>2020-06-17T17:59:17Z</time>
      </trkpt>
      <trkpt lat="49.57105" lon="0.15209">
        <ele>90.2</ele>
        <time>2020-06-17T17:59:18Z</time>
      </trkpt>
      <trkpt lat="49.57107" lon="0.15215">
        <ele>90.1</ele>
        <time>2020-06-17T17:59:19Z</time>
      </trkpt>
      <trkpt lat="49.5711" lon="0.15223">
        <ele>90.1</ele>
        <time>2020-06-17T17:59:20Z</time>
      </trkpt>
      <trkpt lat="49.57113" lon="0.1523">
        <ele>90</ele>
        <time>2020-06-17T17:59:21Z</time>
      </trkpt>
      <trkpt lat="49.57116" lon="0.15238">
        <ele>90</ele>
        <time>2020-06-17T17:59:22Z</time>
      </trkpt>
      <trkpt lat="49.57118" lon="0.15244">
        <ele>89.9</ele>
        <time>2020-06-17T17:59:23Z</time>
      </trkpt>
      <trkpt lat="49.5712" lon="0.15251">
        <ele>89.8</ele>
        <time>2020-06-17T17:59:24Z</time>
      </trkpt>
      <trkpt lat="49.57124" lon="0.15261">
        <ele>89.7</ele>
        <time>2020-06-17T17:59:25Z</time>
      </trkpt>
      <trkpt lat="49.57126" lon="0.15269">
        <ele>89.6</ele>
        <time>2020-06-17T17:59:26Z</time>
      </trkpt>
      <trkpt lat="49.5713" lon="0.15274">
        <ele>89.5</ele>
        <time>2020-06-17T17:59:27Z</time>
      </trkpt>
      <trkpt lat="49.57132" lon="0.15283">
        <ele>89.4</ele>
        <time>2020-06-17T17:59:28Z</time>
      </trkpt>
      <trkpt lat="49.57135" lon="0.1529">
        <ele>89.3</ele>
        <time>2020-06-17T17:59:29Z</time>
      </trkpt>
      <trkpt lat="49.57138" lon="0.15297">
        <ele>89.3</ele>
        <time>2020-06-17T17:59:30Z</time>
      </trkpt>
      <trkpt lat="49.5714" lon="0.15304">
        <ele>89.2</ele>
        <time>2020-06-17T17:59:31Z</time>
      </trkpt>
      <trkpt lat="49.57143" lon="0.1531">
        <ele>89.1</ele>
        <time>2020-06-17T17:59:32Z</time>
      </trkpt>
      <trkpt lat="49.57145" lon="0.15317">
        <ele>89</ele>
        <time>2020-06-17T17:59:33Z</time>
      </trkpt>
      <trkpt lat="49.57149" lon="0.15324">
        <ele>88.9</ele>
        <time>2020-06-17T17:59:34Z</time>
      </trkpt>
      <trkpt lat="49.57151" lon="0.15331">
        <ele>88.8</ele>
        <time>2020-06-17T17:59:35Z</time>
      </trkpt>
      <trkpt lat="49.57154" lon="0.15337">
        <ele>88.7</ele>
        <time>2020-06-17T17:59:36Z</time>
      </trkpt>
      <trkpt lat="49.57157" lon="0.15344">
        <ele>88.6</ele>
        <time>2020-06-17T17:59:37Z</time>
      </trkpt>
      <trkpt lat="49.5716" lon="0.1535">
        <ele>88.5</ele>
        <time>2020-06-17T17:59:38Z</time>
      </trkpt>
      <trkpt lat="49.57162" lon="0.15357">
        <ele>88.4</ele>
        <time>2020-06-17T17:59:39Z</time>
      </trkpt>
      <trkpt lat="49.57165" lon="0.15363">
        <ele>88.4</ele>
        <time>2020-06-17T17:59:40Z</time>
      </trkpt>
      <trkpt lat="49.57167" lon="0.1537">
        <ele>88.3</ele>
        <time>2020-06-17T17:59:41Z</time>
      </trkpt>
      <trkpt lat="49.57169" lon="0.15376">
        <ele>88.2</ele>
        <time>2020-06-17T17:59:42Z</time>
      </trkpt>
      <trkpt lat="49.57172" lon="0.15381">
        <ele>88.2</ele>
        <time>2020-06-17T17:59:43Z</time>
      </trkpt>
      <trkpt lat="49.57175" lon="0.15386">
        <ele>88.1</ele>
        <time>2020-06-17T17:59:44Z</time>
      </trkpt>
      <trkpt lat="49.57178" lon="0.15392">
        <ele>88</ele>
        <time>2020-06-17T17:59:45Z</time>
      </trkpt>
      <trkpt lat="49.57181" lon="0.15397">
        <ele>88</ele>
        <time>2020-06-17T17:59:46Z</time>
      </trkpt>
      <trkpt lat="49.57183" lon="0.15401">
        <ele>88</ele>
        <time>2020-06-17T17:59:47Z</time>
      </trkpt>
      <trkpt lat="49.57186" lon="0.15407">
        <ele>87.9</ele>
        <time>2020-06-17T17:59:48Z</time>
      </trkpt>
      <trkpt lat="49.57188" lon="0.15411">
        <ele>87.9</ele>
        <time>2020-06-17T17:59:49Z</time>
      </trkpt>
      <trkpt lat="49.57191" lon="0.15417">
        <ele>87.8</ele>
        <time>2020-06-17T17:59:50Z</time>
      </trkpt>
      <trkpt lat="49.57195" lon="0.15422">
        <ele>87.7</ele>
        <time>2020-06-17T17:59:51Z</time>
      </trkpt>
      <trkpt lat="49.57198" lon="0.15427">
        <ele>87.6</ele>
        <time>2020-06-17T17:59:52Z</time>
      </trkpt>
      <trkpt lat="49.57201" lon="0.15433">
        <ele>87.5</ele>
        <time>2020-06-17T17:59:53Z</time>
      </trkpt>
      <trkpt lat="49.57205" lon="0.15439">
        <ele>87.4</ele>
        <time>2020-06-17T17:59:54Z</time>
      </trkpt>
      <trkpt lat="49.57209" lon="0.15446">
        <ele>87.4</ele>
        <time>2020-06-17T17:59:55Z</time>
      </trkpt>
      <trkpt lat="49.57213" lon="0.15452">
        <ele>87.3</ele>
        <time>2020-06-17T17:59:56Z</time>
      </trkpt>
      <trkpt lat="49.57216" lon="0.15458">
        <ele>87.3</ele>
        <time>2020-06-17T17:59:57Z</time>
      </trkpt>
      <trkpt lat="49.57221" lon="0.15465">
        <ele>87.2</ele>
        <time>2020-06-17T17:59:58Z</time>
      </trkpt>
      <trkpt lat="49.57225" lon="0.15471">
        <ele>87.2</ele>
        <time>2020-06-17T17:59:59Z</time>
      </trkpt>
      <trkpt lat="49.57229" lon="0.15478">
        <ele>87.2</ele>
        <time>2020-06-17T18:00:00Z</time>
      </trkpt>
      <trkpt lat="49.57233" lon="0.15484">
        <ele>87.2</ele>
        <time>2020-06-17T18:00:01Z</time>
      </trkpt>
      <trkpt lat="49.57237" lon="0.1549">
        <ele>87.2</ele>
        <time>2020-06-17T18:00:02Z</time>
      </trkpt>
      <trkpt lat="49.57242" lon="0.15496">
        <ele>87.2</ele>
        <time>2020-06-17T18:00:03Z</time>
      </trkpt>
      <trkpt lat="49.57246" lon="0.15501">
        <ele>87.2</ele>
        <time>2020-06-17T18:00:04Z</time>
      </trkpt>
      <trkpt lat="49.57251" lon="0.15507">
        <ele>87.2</ele>
        <time>2020-06-17T18:00:05Z</time>
      </trkpt>
      <trkpt lat="49.57255" lon="0.15512">
        <ele>87.2</ele>
        <time>2020-06-17T18:00:06Z</time>
      </trkpt>
      <trkpt lat="49.57259" lon="0.15517">
        <ele>87.2</ele>
        <time>2020-06-17T18:00:07Z</time>
      </trkpt>
      <trkpt lat="49.57263" lon="0.15521">
        <ele>87.3</ele>
        <time>2020-06-17T18:00:08Z</time>
      </trkpt>
      <trkpt lat="49.57268" lon="0.15525">
        <ele>87.3</ele>
        <time>2020-06-17T18:00:09Z</time>
      </trkpt>
      <trkpt lat="49.57272" lon="0.15529">
        <ele>87.3</ele>
        <time>2020-06-17T18:00:10Z</time>
      </trkpt>
      <trkpt lat="49.57276" lon="0.15533">
        <ele>87.3</ele>
        <time>2020-06-17T18:00:11Z</time>
      </trkpt>
      <trkpt lat="49.5728" lon="0.15537">
        <ele>87.3</ele>
        <time>2020-06-17T18:00:12Z</time>
      </trkpt>
      <trkpt lat="49.57286" lon="0.15541">
        <ele>87.3</ele>
        <time>2020-06-17T18:00:13Z</time>
      </trkpt>
      <trkpt lat="49.57291" lon="0.15544">
        <ele>87.3</ele>
        <time>2020-06-17T18:00:14Z</time>
      </trkpt>
      <trkpt lat="49.57295" lon="0.15548">
        <ele>87.4</ele>
        <time>2020-06-17T18:00:15Z</time>
      </trkpt>
      <trkpt lat="49.57301" lon="0.15551">
        <ele>87.4</ele>
        <time>2020-06-17T18:00:16Z</time>
      </trkpt>
      <trkpt lat="49.57306" lon="0.15555">
        <ele>87.4</ele>
        <time>2020-06-17T18:00:17Z</time>
      </trkpt>
      <trkpt lat="49.5731" lon="0.15557">
        <ele>87.4</ele>
        <time>2020-06-17T18:00:18Z</time>
      </trkpt>
      <trkpt lat="49.57315" lon="0.15559">
        <ele>87.4</ele>
        <time>2020-06-17T18:00:19Z</time>
      </trkpt>
      <trkpt lat="49.5732" lon="0.15562">
        <ele>87.4</ele>
        <time>2020-06-17T18:00:20Z</time>
      </trkpt>
      <trkpt lat="49.57323" lon="0.15564">
        <ele>87.4</ele>
        <time>2020-06-17T18:00:21Z</time>
      </trkpt>
      <trkpt lat="49.57328" lon="0.15567">
        <ele>87.4</ele>
        <time>2020-06-17T18:00:22Z</time>
      </trkpt>
      <trkpt lat="49.57331" lon="0.1557">
        <ele>87.4</ele>
        <time>2020-06-17T18:00:23Z</time>
      </trkpt>
      <trkpt lat="49.57336" lon="0.15573">
        <ele>87.4</ele>
        <time>2020-06-17T18:00:24Z</time>
      </trkpt>
      <trkpt lat="49.57339" lon="0.15577">
        <ele>87.4</ele>
        <time>2020-06-17T18:00:25Z</time>
      </trkpt>
      <trkpt lat="49.57345" lon="0.15579">
        <ele>87.6</ele>
        <time>2020-06-17T18:00:26Z</time>
      </trkpt>
      <trkpt lat="49.57348" lon="0.15582">
        <ele>87.7</ele>
        <time>2020-06-17T18:00:27Z</time>
      </trkpt>
      <trkpt lat="49.57352" lon="0.15583">
        <ele>87.7</ele>
        <time>2020-06-17T18:00:28Z</time>
      </trkpt>
      <trkpt lat="49.57357" lon="0.15585">
        <ele>87.8</ele>
        <time>2020-06-17T18:00:29Z</time>
      </trkpt>
      <trkpt lat="49.5736" lon="0.15586">
        <ele>87.8</ele>
        <time>2020-06-17T18:00:30Z</time>
      </trkpt>
      <trkpt lat="49.57365" lon="0.15587">
        <ele>87.8</ele>
        <time>2020-06-17T18:00:31Z</time>
      </trkpt>
      <trkpt lat="49.57368" lon="0.1559">
        <ele>87.9</ele>
        <time>2020-06-17T18:00:32Z</time>
      </trkpt>
      <trkpt lat="49.57373" lon="0.15593">
        <ele>87.9</ele>
        <time>2020-06-17T18:00:33Z</time>
      </trkpt>
      <trkpt lat="49.57377" lon="0.15596">
        <ele>87.9</ele>
        <time>2020-06-17T18:00:34Z</time>
      </trkpt>
      <trkpt lat="49.57383" lon="0.15599">
        <ele>88</ele>
        <time>2020-06-17T18:00:35Z</time>
      </trkpt>
      <trkpt lat="49.57387" lon="0.15602">
        <ele>88</ele>
        <time>2020-06-17T18:00:36Z</time>
      </trkpt>
      <trkpt lat="49.57391" lon="0.15604">
        <ele>88</ele>
        <time>2020-06-17T18:00:37Z</time>
      </trkpt>
      <trkpt lat="49.57396" lon="0.15606">
        <ele>88.1</ele>
        <time>2020-06-17T18:00:38Z</time>
      </trkpt>
      <trkpt lat="49.57399" lon="0.15609">
        <ele>88.1</ele>
        <time>2020-06-17T18:00:39Z</time>
      </trkpt>
      <trkpt lat="49.57403" lon="0.1561">
        <ele>88.2</ele>
        <time>2020-06-17T18:00:40Z</time>
      </trkpt>
      <trkpt lat="49.57406" lon="0.15613">
        <ele>88.2</ele>
        <time>2020-06-17T18:00:41Z</time>
      </trkpt>
      <trkpt lat="49.57409" lon="0.15615">
        <ele>88.2</ele>
        <time>2020-06-17T18:00:42Z</time>
      </trkpt>
      <trkpt lat="49.57412" lon="0.15618">
        <ele>88.3</ele>
        <time>2020-06-17T18:00:43Z</time>
      </trkpt>
      <trkpt lat="49.57415" lon="0.1562">
        <ele>88.3</ele>
        <time>2020-06-17T18:00:44Z</time>
      </trkpt>
      <trkpt lat="49.57418" lon="0.15623">
        <ele>88.3</ele>
        <time>2020-06-17T18:00:45Z</time>
      </trkpt>
      <trkpt lat="49.57419" lon="0.15624">
        <ele>88.4</ele>
        <time>2020-06-17T18:00:46Z</time>
      </trkpt>
      <trkpt lat="49.57421" lon="0.15626">
        <ele>88.4</ele>
        <time>2020-06-17T18:00:47Z</time>
      </trkpt>
      <trkpt lat="49.57424" lon="0.15629">
        <ele>88.4</ele>
        <time>2020-06-17T18:00:48Z</time>
      </trkpt>
      <trkpt lat="49.57425" lon="0.1563">
        <ele>88.4</ele>
        <time>2020-06-17T18:00:49Z</time>
      </trkpt>
      <trkpt lat="49.57429" lon="0.15632">
        <ele>88.4</ele>
        <time>2020-06-17T18:00:50Z</time>
      </trkpt>
      <trkpt lat="49.57432" lon="0.15634">
        <ele>88.5</ele>
        <time>2020-06-17T18:00:51Z</time>
      </trkpt>
      <trkpt lat="49.57436" lon="0.15637">
        <ele>88.5</ele>
        <time>2020-06-17T18:00:52Z</time>
      </trkpt>
      <trkpt lat="49.57439" lon="0.15639">
        <ele>88.6</ele>
        <time>2020-06-17T18:00:53Z</time>
      </trkpt>
      <trkpt lat="49.57443" lon="0.15642">
        <ele>88.6</ele>
        <time>2020-06-17T18:00:54Z</time>
      </trkpt>
      <trkpt lat="49.57447" lon="0.15646">
        <ele>88.6</ele>
        <time>2020-06-17T18:00:55Z</time>
      </trkpt>
      <trkpt lat="49.5745" lon="0.15649">
        <ele>88.7</ele>
        <time>2020-06-17T18:00:56Z</time>
      </trkpt>
      <trkpt lat="49.57454" lon="0.15653">
        <ele>88.8</ele>
        <time>2020-06-17T18:00:57Z</time>
      </trkpt>
      <trkpt lat="49.57457" lon="0.15657">
        <ele>88.8</ele>
        <time>2020-06-17T18:00:58Z</time>
      </trkpt>
      <trkpt lat="49.57461" lon="0.15662">
        <ele>88.9</ele>
        <time>2020-06-17T18:00:59Z</time>
      </trkpt>
      <trkpt lat="49.57465" lon="0.15666">
        <ele>89</ele>
        <time>2020-06-17T18:01:00Z</time>
      </trkpt>
      <trkpt lat="49.57468" lon="0.15669">
        <ele>89</ele>
        <time>2020-06-17T18:01:01Z</time>
      </trkpt>
      <trkpt lat="49.57472" lon="0.15674">
        <ele>89.1</ele>
        <time>2020-06-17T18:01:02Z</time>
      </trkpt>
      <trkpt lat="49.57474" lon="0.1568">
        <ele>89.1</ele>
        <time>2020-06-17T18:01:03Z</time>
      </trkpt>
      <trkpt lat="49.57479" lon="0.15683">
        <ele>89.2</ele>
        <time>2020-06-17T18:01:04Z</time>
      </trkpt>
      <trkpt lat="49.57481" lon="0.15688">
        <ele>89.2</ele>
        <time>2020-06-17T18:01:05Z</time>
      </trkpt>
      <trkpt lat="49.57484" lon="0.15693">
        <ele>89.3</ele>
        <time>2020-06-17T18:01:06Z</time>
      </trkpt>
      <trkpt lat="49.57488" lon="0.15696">
        <ele>89.4</ele>
        <time>2020-06-17T18:01:07Z</time>
      </trkpt>
      <trkpt lat="49.57491" lon="0.15699">
        <ele>89.5</ele>
        <time>2020-06-17T18:01:08Z</time>
      </trkpt>
      <trkpt lat="49.57494" lon="0.15702">
        <ele>89.6</ele>
        <time>2020-06-17T18:01:09Z</time>
      </trkpt>
      <trkpt lat="49.57497" lon="0.15707">
        <ele>89.7</ele>
        <time>2020-06-17T18:01:10Z</time>
      </trkpt>
      <trkpt lat="49.575" lon="0.15712">
        <ele>89.8</ele>
        <time>2020-06-17T18:01:11Z</time>
      </trkpt>
      <trkpt lat="49.57504" lon="0.15717">
        <ele>89.9</ele>
        <time>2020-06-17T18:01:12Z</time>
      </trkpt>
      <trkpt lat="49.57507" lon="0.15721">
        <ele>90</ele>
        <time>2020-06-17T18:01:13Z</time>
      </trkpt>
      <trkpt lat="49.57509" lon="0.15724">
        <ele>90.1</ele>
        <time>2020-06-17T18:01:14Z</time>
      </trkpt>
      <trkpt lat="49.57512" lon="0.15729">
        <ele>90.1</ele>
        <time>2020-06-17T18:01:15Z</time>
      </trkpt>
      <trkpt lat="49.57514" lon="0.15734">
        <ele>90.2</ele>
        <time>2020-06-17T18:01:16Z</time>
      </trkpt>
      <trkpt lat="49.57517" lon="0.15738">
        <ele>90.3</ele>
        <time>2020-06-17T18:01:17Z</time>
      </trkpt>
      <trkpt lat="49.5752" lon="0.15742">
        <ele>90.4</ele>
        <time>2020-06-17T18:01:18Z</time>
      </trkpt>
      <trkpt lat="49.57523" lon="0.15746">
        <ele>90.5</ele>
        <time>2020-06-17T18:01:19Z</time>
      </trkpt>
      <trkpt lat="49.57526" lon="0.15749">
        <ele>90.6</ele>
        <time>2020-06-17T18:01:20Z</time>
      </trkpt>
      <trkpt lat="49.57528" lon="0.15752">
        <ele>90.7</ele>
        <time>2020-06-17T18:01:21Z</time>
      </trkpt>
      <trkpt lat="49.57531" lon="0.15755">
        <ele>90.8</ele>
        <time>2020-06-17T18:01:22Z</time>
      </trkpt>
      <trkpt lat="49.57535" lon="0.15758">
        <ele>90.9</ele>
        <time>2020-06-17T18:01:23Z</time>
      </trkpt>
      <trkpt lat="49.57536" lon="0.15759">
        <ele>90.9</ele>
        <time>2020-06-17T18:01:24Z</time>
      </trkpt>
      <trkpt lat="49.57538" lon="0.15762">
        <ele>90.9</ele>
        <time>2020-06-17T18:01:25Z</time>
      </trkpt>
      <trkpt lat="49.57541" lon="0.15765">
        <ele>91</ele>
        <time>2020-06-17T18:01:26Z</time>
      </trkpt>
      <trkpt lat="49.57544" lon="0.15767">
        <ele>91.1</ele>
        <time>2020-06-17T18:01:27Z</time>
      </trkpt>
      <trkpt lat="49.57547" lon="0.15771">
        <ele>91.2</ele>
        <time>2020-06-17T18:01:28Z</time>
      </trkpt>
      <trkpt lat="49.57549" lon="0.15774">
        <ele>91.2</ele>
        <time>2020-06-17T18:01:29Z</time>
      </trkpt>
      <trkpt lat="49.57552" lon="0.15777">
        <ele>91.3</ele>
        <time>2020-06-17T18:01:30Z</time>
      </trkpt>
      <trkpt lat="49.57556" lon="0.1578">
        <ele>91.3</ele>
        <time>2020-06-17T18:01:31Z</time>
      </trkpt>
      <trkpt lat="49.57559" lon="0.15782">
        <ele>91.4</ele>
        <time>2020-06-17T18:01:32Z</time>
      </trkpt>
      <trkpt lat="49.57561" lon="0.15787">
        <ele>91.5</ele>
        <time>2020-06-17T18:01:33Z</time>
      </trkpt>
      <trkpt lat="49.57566" lon="0.15793">
        <ele>91.5</ele>
        <time>2020-06-17T18:01:34Z</time>
      </trkpt>
      <trkpt lat="49.57569" lon="0.15797">
        <ele>91.6</ele>
        <time>2020-06-17T18:01:35Z</time>
      </trkpt>
      <trkpt lat="49.57573" lon="0.15801">
        <ele>91.7</ele>
        <time>2020-06-17T18:01:36Z</time>
      </trkpt>
      <trkpt lat="49.57578" lon="0.15806">
        <ele>91.8</ele>
        <time>2020-06-17T18:01:37Z</time>
      </trkpt>
      <trkpt lat="49.57582" lon="0.15812">
        <ele>91.9</ele>
        <time>2020-06-17T18:01:38Z</time>
      </trkpt>
      <trkpt lat="49.57587" lon="0.15817">
        <ele>92</ele>
        <time>2020-06-17T18:01:39Z</time>
      </trkpt>
      <trkpt lat="49.57591" lon="0.15823">
        <ele>92.1</ele>
        <time>2020-06-17T18:01:40Z</time>
      </trkpt>
      <trkpt lat="49.57595" lon="0.1583">
        <ele>92.2</ele>
        <time>2020-06-17T18:01:41Z</time>
      </trkpt>
      <trkpt lat="49.57599" lon="0.15837">
        <ele>92.3</ele>
        <time>2020-06-17T18:01:42Z</time>
      </trkpt>
      <trkpt lat="49.57603" lon="0.15841">
        <ele>92.4</ele>
        <time>2020-06-17T18:01:43Z</time>
      </trkpt>
      <trkpt lat="49.57606" lon="0.15846">
        <ele>92.5</ele>
        <time>2020-06-17T18:01:44Z</time>
      </trkpt>
      <trkpt lat="49.57609" lon="0.15851">
        <ele>92.5</ele>
        <time>2020-06-17T18:01:45Z</time>
      </trkpt>
      <trkpt lat="49.57612" lon="0.15855">
        <ele>92.6</ele>
        <time>2020-06-17T18:01:46Z</time>
      </trkpt>
      <trkpt lat="49.57616" lon="0.1586">
        <ele>92.7</ele>
        <time>2020-06-17T18:01:47Z</time>
      </trkpt>
      <trkpt lat="49.57619" lon="0.15866">
        <ele>92.7</ele>
        <time>2020-06-17T18:01:48Z</time>
      </trkpt>
      <trkpt lat="49.57623" lon="0.15871">
        <ele>92.8</ele>
        <time>2020-06-17T18:01:49Z</time>
      </trkpt>
      <trkpt lat="49.57626" lon="0.15876">
        <ele>92.8</ele>
        <time>2020-06-17T18:01:50Z</time>
      </trkpt>
      <trkpt lat="49.57629" lon="0.15881">
        <ele>92.9</ele>
        <time>2020-06-17T18:01:51Z</time>
      </trkpt>
      <trkpt lat="49.57633" lon="0.15887">
        <ele>93</ele>
        <time>2020-06-17T18:01:52Z</time>
      </trkpt>
      <trkpt lat="49.57636" lon="0.15893">
        <ele>93</ele>
        <time>2020-06-17T18:01:53Z</time>
      </trkpt>
      <trkpt lat="49.57639" lon="0.15898">
        <ele>93.1</ele>
        <time>2020-06-17T18:01:54Z</time>
      </trkpt>
      <trkpt lat="49.57642" lon="0.15903">
        <ele>93.2</ele>
        <time>2020-06-17T18:01:55Z</time>
      </trkpt>
      <trkpt lat="49.57645" lon="0.15907">
        <ele>93.3</ele>
        <time>2020-06-17T18:01:56Z</time>
      </trkpt>
      <trkpt lat="49.57648" lon="0.15912">
        <ele>93.4</ele>
        <time>2020-06-17T18:01:57Z</time>
      </trkpt>
      <trkpt lat="49.57652" lon="0.15916">
        <ele>93.6</ele>
        <time>2020-06-17T18:01:58Z</time>
      </trkpt>
      <trkpt lat="49.57655" lon="0.15921">
        <ele>93.7</ele>
        <time>2020-06-17T18:01:59Z</time>
      </trkpt>
      <trkpt lat="49.57658" lon="0.15926">
        <ele>93.8</ele>
        <time>2020-06-17T18:02:00Z</time>
      </trkpt>
      <trkpt lat="49.57661" lon="0.15931">
        <ele>93.9</ele>
        <time>2020-06-17T18:02:01Z</time>
      </trkpt>
      <trkpt lat="49.57665" lon="0.15936">
        <ele>94</ele>
        <time>2020-06-17T18:02:02Z</time>
      </trkpt>
      <trkpt lat="49.57668" lon="0.1594">
        <ele>94.2</ele>
        <time>2020-06-17T18:02:03Z</time>
      </trkpt>
      <trkpt lat="49.57672" lon="0.15944">
        <ele>94.3</ele>
        <time>2020-06-17T18:02:04Z</time>
      </trkpt>
      <trkpt lat="49.57676" lon="0.15948">
        <ele>94.4</ele>
        <time>2020-06-17T18:02:05Z</time>
      </trkpt>
      <trkpt lat="49.57679" lon="0.15953">
        <ele>94.5</ele>
        <time>2020-06-17T18:02:06Z</time>
      </trkpt>
      <trkpt lat="49.57681" lon="0.15956">
        <ele>94.6</ele>
        <time>2020-06-17T18:02:07Z</time>
      </trkpt>
      <trkpt lat="49.57683" lon="0.15959">
        <ele>94.7</ele>
        <time>2020-06-17T18:02:08Z</time>
      </trkpt>
      <trkpt lat="49.57686" lon="0.15963">
        <ele>94.8</ele>
        <time>2020-06-17T18:02:09Z</time>
      </trkpt>
      <trkpt lat="49.57689" lon="0.15967">
        <ele>94.8</ele>
        <time>2020-06-17T18:02:10Z</time>
      </trkpt>
      <trkpt lat="49.57691" lon="0.15969">
        <ele>94.9</ele>
        <time>2020-06-17T18:02:11Z</time>
      </trkpt>
      <trkpt lat="49.57695" lon="0.15973">
        <ele>95</ele>
        <time>2020-06-17T18:02:12Z</time>
      </trkpt>
      <trkpt lat="49.57697" lon="0.15976">
        <ele>95.1</ele>
        <time>2020-06-17T18:02:13Z</time>
      </trkpt>
      <trkpt lat="49.577" lon="0.1598">
        <ele>95.2</ele>
        <time>2020-06-17T18:02:14Z</time>
      </trkpt>
      <trkpt lat="49.57703" lon="0.15984">
        <ele>95.3</ele>
        <time>2020-06-17T18:02:15Z</time>
      </trkpt>
      <trkpt lat="49.57706" lon="0.15988">
        <ele>95.4</ele>
        <time>2020-06-17T18:02:16Z</time>
      </trkpt>
      <trkpt lat="49.5771" lon="0.15992">
        <ele>95.5</ele>
        <time>2020-06-17T18:02:17Z</time>
      </trkpt>
      <trkpt lat="49.57713" lon="0.15996">
        <ele>95.6</ele>
        <time>2020-06-17T18:02:18Z</time>
      </trkpt>
      <trkpt lat="49.57716" lon="0.16">
        <ele>95.7</ele>
        <time>2020-06-17T18:02:19Z</time>
      </trkpt>
      <trkpt lat="49.57719" lon="0.16003">
        <ele>95.8</ele>
        <time>2020-06-17T18:02:20Z</time>
      </trkpt>
      <trkpt lat="49.57723" lon="0.16007">
        <ele>95.9</ele>
        <time>2020-06-17T18:02:21Z</time>
      </trkpt>
      <trkpt lat="49.57726" lon="0.1601">
        <ele>96</ele>
        <time>2020-06-17T18:02:22Z</time>
      </trkpt>
      <trkpt lat="49.57728" lon="0.16015">
        <ele>96.2</ele>
        <time>2020-06-17T18:02:23Z</time>
      </trkpt>
      <trkpt lat="49.57732" lon="0.16018">
        <ele>96.3</ele>
        <time>2020-06-17T18:02:24Z</time>
      </trkpt>
      <trkpt lat="49.57734" lon="0.16022">
        <ele>96.4</ele>
        <time>2020-06-17T18:02:25Z</time>
      </trkpt>
      <trkpt lat="49.57737" lon="0.16026">
        <ele>96.6</ele>
        <time>2020-06-17T18:02:26Z</time>
      </trkpt>
      <trkpt lat="49.5774" lon="0.1603">
        <ele>96.7</ele>
        <time>2020-06-17T18:02:27Z</time>
      </trkpt>
      <trkpt lat="49.57744" lon="0.16033">
        <ele>96.9</ele>
        <time>2020-06-17T18:02:28Z</time>
      </trkpt>
      <trkpt lat="49.57747" lon="0.16037">
        <ele>97</ele>
        <time>2020-06-17T18:02:29Z</time>
      </trkpt>
      <trkpt lat="49.57751" lon="0.16041">
        <ele>97.2</ele>
        <time>2020-06-17T18:02:30Z</time>
      </trkpt>
      <trkpt lat="49.57754" lon="0.16045">
        <ele>97.4</ele>
        <time>2020-06-17T18:02:31Z</time>
      </trkpt>
      <trkpt lat="49.57757" lon="0.16048">
        <ele>97.6</ele>
        <time>2020-06-17T18:02:32Z</time>
      </trkpt>
      <trkpt lat="49.5776" lon="0.16052">
        <ele>97.7</ele>
        <time>2020-06-17T18:02:33Z</time>
      </trkpt>
      <trkpt lat="49.57762" lon="0.16055">
        <ele>97.9</ele>
        <time>2020-06-17T18:02:34Z</time>
      </trkpt>
      <trkpt lat="49.57766" lon="0.16057">
        <ele>98</ele>
        <time>2020-06-17T18:02:35Z</time>
      </trkpt>
      <trkpt lat="49.57768" lon="0.16061">
        <ele>98.2</ele>
        <time>2020-06-17T18:02:36Z</time>
      </trkpt>
      <trkpt lat="49.5777" lon="0.16063">
        <ele>98.3</ele>
        <time>2020-06-17T18:02:37Z</time>
      </trkpt>
      <trkpt lat="49.57773" lon="0.16066">
        <ele>98.5</ele>
        <time>2020-06-17T18:02:38Z</time>
      </trkpt>
      <trkpt lat="49.57776" lon="0.16069">
        <ele>98.6</ele>
        <time>2020-06-17T18:02:39Z</time>
      </trkpt>
      <trkpt lat="49.57779" lon="0.16073">
        <ele>98.8</ele>
        <time>2020-06-17T18:02:40Z</time>
      </trkpt>
      <trkpt lat="49.57781" lon="0.16076">
        <ele>98.9</ele>
        <time>2020-06-17T18:02:41Z</time>
      </trkpt>
      <trkpt lat="49.57783" lon="0.1608">
        <ele>99.1</ele>
        <time>2020-06-17T18:02:42Z</time>
      </trkpt>
      <trkpt lat="49.57787" lon="0.16084">
        <ele>99.3</ele>
        <time>2020-06-17T18:02:43Z</time>
      </trkpt>
      <trkpt lat="49.5779" lon="0.16088">
        <ele>99.4</ele>
        <time>2020-06-17T18:02:44Z</time>
      </trkpt>
      <trkpt lat="49.57793" lon="0.16091">
        <ele>99.6</ele>
        <time>2020-06-17T18:02:45Z</time>
      </trkpt>
      <trkpt lat="49.57797" lon="0.16094">
        <ele>99.7</ele>
        <time>2020-06-17T18:02:46Z</time>
      </trkpt>
      <trkpt lat="49.57799" lon="0.16098">
        <ele>99.9</ele>
        <time>2020-06-17T18:02:47Z</time>
      </trkpt>
      <trkpt lat="49.57803" lon="0.16104">
        <ele>100.1</ele>
        <time>2020-06-17T18:02:48Z</time>
      </trkpt>
      <trkpt lat="49.57806" lon="0.16108">
        <ele>100.2</ele>
        <time>2020-06-17T18:02:49Z</time>
      </trkpt>
      <trkpt lat="49.57809" lon="0.16112">
        <ele>100.3</ele>
        <time>2020-06-17T18:02:50Z</time>
      </trkpt>
      <trkpt lat="49.57811" lon="0.16116">
        <ele>100.5</ele>
        <time>2020-06-17T18:02:51Z</time>
      </trkpt>
      <trkpt lat="49.57814" lon="0.1612">
        <ele>100.6</ele>
        <time>2020-06-17T18:02:52Z</time>
      </trkpt>
      <trkpt lat="49.57817" lon="0.16125">
        <ele>100.8</ele>
        <time>2020-06-17T18:02:53Z</time>
      </trkpt>
      <trkpt lat="49.5782" lon="0.16128">
        <ele>100.9</ele>
        <time>2020-06-17T18:02:54Z</time>
      </trkpt>
      <trkpt lat="49.57823" lon="0.16131">
        <ele>101</ele>
        <time>2020-06-17T18:02:55Z</time>
      </trkpt>
      <trkpt lat="49.57826" lon="0.16135">
        <ele>101.2</ele>
        <time>2020-06-17T18:02:56Z</time>
      </trkpt>
      <trkpt lat="49.57828" lon="0.16138">
        <ele>101.3</ele>
        <time>2020-06-17T18:02:57Z</time>
      </trkpt>
      <trkpt lat="49.57831" lon="0.1614">
        <ele>101.4</ele>
        <time>2020-06-17T18:02:58Z</time>
      </trkpt>
      <trkpt lat="49.57834" lon="0.16143">
        <ele>101.5</ele>
        <time>2020-06-17T18:02:59Z</time>
      </trkpt>
      <trkpt lat="49.57838" lon="0.16146">
        <ele>101.6</ele>
        <time>2020-06-17T18:03:00Z</time>
      </trkpt>
      <trkpt lat="49.57841" lon="0.16149">
        <ele>101.7</ele>
        <time>2020-06-17T18:03:01Z</time>
      </trkpt>
      <trkpt lat="49.57844" lon="0.16153">
        <ele>101.8</ele>
        <time>2020-06-17T18:03:02Z</time>
      </trkpt>
      <trkpt lat="49.57847" lon="0.16157">
        <ele>101.9</ele>
        <time>2020-06-17T18:03:03Z</time>
      </trkpt>
      <trkpt lat="49.5785" lon="0.1616">
        <ele>102</ele>
        <time>2020-06-17T18:03:04Z</time>
      </trkpt>
      <trkpt lat="49.57854" lon="0.16163">
        <ele>102.1</ele>
        <time>2020-06-17T18:03:05Z</time>
      </trkpt>
      <trkpt lat="49.57858" lon="0.16166">
        <ele>102.2</ele>
        <time>2020-06-17T18:03:06Z</time>
      </trkpt>
      <trkpt lat="49.57861" lon="0.16169">
        <ele>102.2</ele>
        <time>2020-06-17T18:03:07Z</time>
      </trkpt>
      <trkpt lat="49.57864" lon="0.16173">
        <ele>102.3</ele>
        <time>2020-06-17T18:03:08Z</time>
      </trkpt>
      <trkpt lat="49.57868" lon="0.16177">
        <ele>102.4</ele>
        <time>2020-06-17T18:03:09Z</time>
      </trkpt>
      <trkpt lat="49.57871" lon="0.1618">
        <ele>102.4</ele>
        <time>2020-06-17T18:03:10Z</time>
      </trkpt>
      <trkpt lat="49.57876" lon="0.16183">
        <ele>102.4</ele>
        <time>2020-06-17T18:03:11Z</time>
      </trkpt>
      <trkpt lat="49.5788" lon="0.16186">
        <ele>102.5</ele>
        <time>2020-06-17T18:03:12Z</time>
      </trkpt>
      <trkpt lat="49.57883" lon="0.16189">
        <ele>102.5</ele>
        <time>2020-06-17T18:03:13Z</time>
      </trkpt>
      <trkpt lat="49.57887" lon="0.16191">
        <ele>102.5</ele>
        <time>2020-06-17T18:03:14Z</time>
      </trkpt>
      <trkpt lat="49.57892" lon="0.16194">
        <ele>102.5</ele>
        <time>2020-06-17T18:03:15Z</time>
      </trkpt>
      <trkpt lat="49.57896" lon="0.16198">
        <ele>102.5</ele>
        <time>2020-06-17T18:03:16Z</time>
      </trkpt>
      <trkpt lat="49.57899" lon="0.16202">
        <ele>102.5</ele>
        <time>2020-06-17T18:03:17Z</time>
      </trkpt>
      <trkpt lat="49.57903" lon="0.16205">
        <ele>102.5</ele>
        <time>2020-06-17T18:03:18Z</time>
      </trkpt>
      <trkpt lat="49.57908" lon="0.16208">
        <ele>102.5</ele>
        <time>2020-06-17T18:03:19Z</time>
      </trkpt>
      <trkpt lat="49.57912" lon="0.16212">
        <ele>102.5</ele>
        <time>2020-06-17T18:03:20Z</time>
      </trkpt>
      <trkpt lat="49.57916" lon="0.16215">
        <ele>102.5</ele>
        <time>2020-06-17T18:03:21Z</time>
      </trkpt>
      <trkpt lat="49.5792" lon="0.16218">
        <ele>102.5</ele>
        <time>2020-06-17T18:03:22Z</time>
      </trkpt>
      <trkpt lat="49.57923" lon="0.16221">
        <ele>102.5</ele>
        <time>2020-06-17T18:03:23Z</time>
      </trkpt>
      <trkpt lat="49.57928" lon="0.16225">
        <ele>102.5</ele>
        <time>2020-06-17T18:03:24Z</time>
      </trkpt>
      <trkpt lat="49.57932" lon="0.16228">
        <ele>102.4</ele>
        <time>2020-06-17T18:03:25Z</time>
      </trkpt>
      <trkpt lat="49.57936" lon="0.16231">
        <ele>102.4</ele>
        <time>2020-06-17T18:03:26Z</time>
      </trkpt>
      <trkpt lat="49.57941" lon="0.16235">
        <ele>102.4</ele>
        <time>2020-06-17T18:03:27Z</time>
      </trkpt>
      <trkpt lat="49.57945" lon="0.16238">
        <ele>102.4</ele>
        <time>2020-06-17T18:03:28Z</time>
      </trkpt>
      <trkpt lat="49.5795" lon="0.16241">
        <ele>102.4</ele>
        <time>2020-06-17T18:03:29Z</time>
      </trkpt>
      <trkpt lat="49.57954" lon="0.16246">
        <ele>102.4</ele>
        <time>2020-06-17T18:03:30Z</time>
      </trkpt>
      <trkpt lat="49.57957" lon="0.16249">
        <ele>102.4</ele>
        <time>2020-06-17T18:03:31Z</time>
      </trkpt>
      <trkpt lat="49.57962" lon="0.16254">
        <ele>102.4</ele>
        <time>2020-06-17T18:03:32Z</time>
      </trkpt>
      <trkpt lat="49.57966" lon="0.16257">
        <ele>102.4</ele>
        <time>2020-06-17T18:03:33Z</time>
      </trkpt>
      <trkpt lat="49.57969" lon="0.16262">
        <ele>102.4</ele>
        <time>2020-06-17T18:03:34Z</time>
      </trkpt>
      <trkpt lat="49.57973" lon="0.16266">
        <ele>102.4</ele>
        <time>2020-06-17T18:03:35Z</time>
      </trkpt>
      <trkpt lat="49.57976" lon="0.16269">
        <ele>102.3</ele>
        <time>2020-06-17T18:03:36Z</time>
      </trkpt>
      <trkpt lat="49.5798" lon="0.16273">
        <ele>102.3</ele>
        <time>2020-06-17T18:03:37Z</time>
      </trkpt>
      <trkpt lat="49.57984" lon="0.16276">
        <ele>102.2</ele>
        <time>2020-06-17T18:03:38Z</time>
      </trkpt>
      <trkpt lat="49.57988" lon="0.16281">
        <ele>102.2</ele>
        <time>2020-06-17T18:03:39Z</time>
      </trkpt>
      <trkpt lat="49.57991" lon="0.16285">
        <ele>102.2</ele>
        <time>2020-06-17T18:03:40Z</time>
      </trkpt>
      <trkpt lat="49.57995" lon="0.16289">
        <ele>102.2</ele>
        <time>2020-06-17T18:03:41Z</time>
      </trkpt>
      <trkpt lat="49.57998" lon="0.16294">
        <ele>102.3</ele>
        <time>2020-06-17T18:03:42Z</time>
      </trkpt>
      <trkpt lat="49.58002" lon="0.16299">
        <ele>102.3</ele>
        <time>2020-06-17T18:03:43Z</time>
      </trkpt>
      <trkpt lat="49.58005" lon="0.16305">
        <ele>102.3</ele>
        <time>2020-06-17T18:03:44Z</time>
      </trkpt>
      <trkpt lat="49.58009" lon="0.16309">
        <ele>102.3</ele>
        <time>2020-06-17T18:03:45Z</time>
      </trkpt>
      <trkpt lat="49.58012" lon="0.16314">
        <ele>102.4</ele>
        <time>2020-06-17T18:03:46Z</time>
      </trkpt>
      <trkpt lat="49.58016" lon="0.16319">
        <ele>102.4</ele>
        <time>2020-06-17T18:03:47Z</time>
      </trkpt>
      <trkpt lat="49.58019" lon="0.16323">
        <ele>102.4</ele>
        <time>2020-06-17T18:03:48Z</time>
      </trkpt>
      <trkpt lat="49.58022" lon="0.16327">
        <ele>102.4</ele>
        <time>2020-06-17T18:03:49Z</time>
      </trkpt>
      <trkpt lat="49.58026" lon="0.16331">
        <ele>102.5</ele>
        <time>2020-06-17T18:03:50Z</time>
      </trkpt>
      <trkpt lat="49.58028" lon="0.16335">
        <ele>102.5</ele>
        <time>2020-06-17T18:03:51Z</time>
      </trkpt>
      <trkpt lat="49.58031" lon="0.16339">
        <ele>102.6</ele>
        <time>2020-06-17T18:03:52Z</time>
      </trkpt>
      <trkpt lat="49.58034" lon="0.16343">
        <ele>102.6</ele>
        <time>2020-06-17T18:03:53Z</time>
      </trkpt>
      <trkpt lat="49.58038" lon="0.16347">
        <ele>102.7</ele>
        <time>2020-06-17T18:03:54Z</time>
      </trkpt>
      <trkpt lat="49.58042" lon="0.16352">
        <ele>102.8</ele>
        <time>2020-06-17T18:03:55Z</time>
      </trkpt>
      <trkpt lat="49.58045" lon="0.16356">
        <ele>102.9</ele>
        <time>2020-06-17T18:03:56Z</time>
      </trkpt>
      <trkpt lat="49.58049" lon="0.16361">
        <ele>102.9</ele>
        <time>2020-06-17T18:03:57Z</time>
      </trkpt>
      <trkpt lat="49.58053" lon="0.16365">
        <ele>103</ele>
        <time>2020-06-17T18:03:58Z</time>
      </trkpt>
      <trkpt lat="49.58056" lon="0.16368">
        <ele>103.1</ele>
        <time>2020-06-17T18:03:59Z</time>
      </trkpt>
      <trkpt lat="49.5806" lon="0.16373">
        <ele>103.2</ele>
        <time>2020-06-17T18:04:00Z</time>
      </trkpt>
      <trkpt lat="49.58064" lon="0.16377">
        <ele>103.2</ele>
        <time>2020-06-17T18:04:01Z</time>
      </trkpt>
      <trkpt lat="49.58068" lon="0.16383">
        <ele>103.3</ele>
        <time>2020-06-17T18:04:02Z</time>
      </trkpt>
      <trkpt lat="49.58072" lon="0.16388">
        <ele>103.4</ele>
        <time>2020-06-17T18:04:03Z</time>
      </trkpt>
      <trkpt lat="49.58075" lon="0.16392">
        <ele>103.4</ele>
        <time>2020-06-17T18:04:04Z</time>
      </trkpt>
      <trkpt lat="49.58078" lon="0.16397">
        <ele>103.5</ele>
        <time>2020-06-17T18:04:05Z</time>
      </trkpt>
      <trkpt lat="49.58082" lon="0.16402">
        <ele>103.7</ele>
        <time>2020-06-17T18:04:06Z</time>
      </trkpt>
      <trkpt lat="49.58085" lon="0.16407">
        <ele>103.7</ele>
        <time>2020-06-17T18:04:07Z</time>
      </trkpt>
      <trkpt lat="49.58089" lon="0.16411">
        <ele>103.8</ele>
        <time>2020-06-17T18:04:08Z</time>
      </trkpt>
      <trkpt lat="49.58092" lon="0.16416">
        <ele>103.9</ele>
        <time>2020-06-17T18:04:09Z</time>
      </trkpt>
      <trkpt lat="49.58095" lon="0.16421">
        <ele>103.9</ele>
        <time>2020-06-17T18:04:10Z</time>
      </trkpt>
      <trkpt lat="49.58098" lon="0.16426">
        <ele>104</ele>
        <time>2020-06-17T18:04:11Z</time>
      </trkpt>
      <trkpt lat="49.58102" lon="0.16429">
        <ele>104</ele>
        <time>2020-06-17T18:04:12Z</time>
      </trkpt>
      <trkpt lat="49.58106" lon="0.16433">
        <ele>104</ele>
        <time>2020-06-17T18:04:13Z</time>
      </trkpt>
      <trkpt lat="49.5811" lon="0.16437">
        <ele>104.1</ele>
        <time>2020-06-17T18:04:14Z</time>
      </trkpt>
      <trkpt lat="49.58113" lon="0.16442">
        <ele>104.1</ele>
        <time>2020-06-17T18:04:15Z</time>
      </trkpt>
      <trkpt lat="49.58117" lon="0.16446">
        <ele>104.1</ele>
        <time>2020-06-17T18:04:16Z</time>
      </trkpt>
      <trkpt lat="49.58121" lon="0.1645">
        <ele>104.1</ele>
        <time>2020-06-17T18:04:17Z</time>
      </trkpt>
      <trkpt lat="49.58124" lon="0.16454">
        <ele>104.1</ele>
        <time>2020-06-17T18:04:18Z</time>
      </trkpt>
      <trkpt lat="49.58128" lon="0.16459">
        <ele>104.1</ele>
        <time>2020-06-17T18:04:19Z</time>
      </trkpt>
      <trkpt lat="49.58132" lon="0.16463">
        <ele>104.1</ele>
        <time>2020-06-17T18:04:20Z</time>
      </trkpt>
      <trkpt lat="49.58136" lon="0.16468">
        <ele>104.1</ele>
        <time>2020-06-17T18:04:21Z</time>
      </trkpt>
      <trkpt lat="49.58139" lon="0.16473">
        <ele>104.1</ele>
        <time>2020-06-17T18:04:22Z</time>
      </trkpt>
      <trkpt lat="49.58142" lon="0.16478">
        <ele>104.1</ele>
        <time>2020-06-17T18:04:23Z</time>
      </trkpt>
      <trkpt lat="49.58145" lon="0.16484">
        <ele>104.1</ele>
        <time>2020-06-17T18:04:24Z</time>
      </trkpt>
      <trkpt lat="49.58149" lon="0.16489">
        <ele>104.1</ele>
        <time>2020-06-17T18:04:25Z</time>
      </trkpt>
      <trkpt lat="49.58153" lon="0.16494">
        <ele>104.1</ele>
        <time>2020-06-17T18:04:26Z</time>
      </trkpt>
      <trkpt lat="49.58157" lon="0.16497">
        <ele>104.1</ele>
        <time>2020-06-17T18:04:27Z</time>
      </trkpt>
      <trkpt lat="49.5816" lon="0.16502">
        <ele>104.1</ele>
        <time>2020-06-17T18:04:28Z</time>
      </trkpt>
      <trkpt lat="49.58165" lon="0.16507">
        <ele>104.1</ele>
        <time>2020-06-17T18:04:29Z</time>
      </trkpt>
      <trkpt lat="49.58168" lon="0.16512">
        <ele>104.1</ele>
        <time>2020-06-17T18:04:30Z</time>
      </trkpt>
      <trkpt lat="49.58172" lon="0.16517">
        <ele>104.1</ele>
        <time>2020-06-17T18:04:31Z</time>
      </trkpt>
      <trkpt lat="49.58176" lon="0.16523">
        <ele>104.1</ele>
        <time>2020-06-17T18:04:32Z</time>
      </trkpt>
      <trkpt lat="49.5818" lon="0.16528">
        <ele>104.1</ele>
        <time>2020-06-17T18:04:33Z</time>
      </trkpt>
      <trkpt lat="49.58183" lon="0.16533">
        <ele>104.1</ele>
        <time>2020-06-17T18:04:34Z</time>
      </trkpt>
      <trkpt lat="49.58187" lon="0.16538">
        <ele>104.1</ele>
        <time>2020-06-17T18:04:35Z</time>
      </trkpt>
      <trkpt lat="49.58191" lon="0.16543">
        <ele>104.1</ele>
        <time>2020-06-17T18:04:36Z</time>
      </trkpt>
      <trkpt lat="49.58193" lon="0.16547">
        <ele>104.1</ele>
        <time>2020-06-17T18:04:37Z</time>
      </trkpt>
      <trkpt lat="49.58197" lon="0.16551">
        <ele>104.2</ele>
        <time>2020-06-17T18:04:38Z</time>
      </trkpt>
      <trkpt lat="49.58201" lon="0.16556">
        <ele>104.2</ele>
        <time>2020-06-17T18:04:39Z</time>
      </trkpt>
      <trkpt lat="49.58206" lon="0.16561">
        <ele>104.3</ele>
        <time>2020-06-17T18:04:40Z</time>
      </trkpt>
      <trkpt lat="49.58208" lon="0.16568">
        <ele>104.3</ele>
        <time>2020-06-17T18:04:41Z</time>
      </trkpt>
      <trkpt lat="49.58212" lon="0.16573">
        <ele>104.4</ele>
        <time>2020-06-17T18:04:42Z</time>
      </trkpt>
      <trkpt lat="49.58214" lon="0.16578">
        <ele>104.4</ele>
        <time>2020-06-17T18:04:43Z</time>
      </trkpt>
      <trkpt lat="49.58217" lon="0.16583">
        <ele>104.5</ele>
        <time>2020-06-17T18:04:44Z</time>
      </trkpt>
      <trkpt lat="49.58221" lon="0.16588">
        <ele>104.5</ele>
        <time>2020-06-17T18:04:45Z</time>
      </trkpt>
      <trkpt lat="49.58224" lon="0.16593">
        <ele>104.5</ele>
        <time>2020-06-17T18:04:46Z</time>
      </trkpt>
      <trkpt lat="49.58227" lon="0.16597">
        <ele>104.5</ele>
        <time>2020-06-17T18:04:47Z</time>
      </trkpt>
      <trkpt lat="49.58231" lon="0.16602">
        <ele>104.5</ele>
        <time>2020-06-17T18:04:48Z</time>
      </trkpt>
      <trkpt lat="49.58234" lon="0.16607">
        <ele>104.5</ele>
        <time>2020-06-17T18:04:49Z</time>
      </trkpt>
      <trkpt lat="49.58238" lon="0.16611">
        <ele>104.5</ele>
        <time>2020-06-17T18:04:50Z</time>
      </trkpt>
      <trkpt lat="49.58241" lon="0.16616">
        <ele>104.4</ele>
        <time>2020-06-17T18:04:51Z</time>
      </trkpt>
      <trkpt lat="49.58244" lon="0.16621">
        <ele>104.4</ele>
        <time>2020-06-17T18:04:52Z</time>
      </trkpt>
      <trkpt lat="49.58247" lon="0.16626">
        <ele>104.3</ele>
        <time>2020-06-17T18:04:53Z</time>
      </trkpt>
      <trkpt lat="49.58252" lon="0.16631">
        <ele>104.2</ele>
        <time>2020-06-17T18:04:54Z</time>
      </trkpt>
      <trkpt lat="49.58255" lon="0.16636">
        <ele>104.2</ele>
        <time>2020-06-17T18:04:55Z</time>
      </trkpt>
      <trkpt lat="49.5826" lon="0.16642">
        <ele>104.2</ele>
        <time>2020-06-17T18:04:56Z</time>
      </trkpt>
      <trkpt lat="49.58264" lon="0.16647">
        <ele>104.1</ele>
        <time>2020-06-17T18:04:57Z</time>
      </trkpt>
      <trkpt lat="49.58268" lon="0.16652">
        <ele>104.1</ele>
        <time>2020-06-17T18:04:58Z</time>
      </trkpt>
      <trkpt lat="49.58271" lon="0.16657">
        <ele>104</ele>
        <time>2020-06-17T18:04:59Z</time>
      </trkpt>
      <trkpt lat="49.58275" lon="0.16663">
        <ele>104</ele>
        <time>2020-06-17T18:05:00Z</time>
      </trkpt>
      <trkpt lat="49.58279" lon="0.16668">
        <ele>103.9</ele>
        <time>2020-06-17T18:05:01Z</time>
      </trkpt>
      <trkpt lat="49.58283" lon="0.16673">
        <ele>103.9</ele>
        <time>2020-06-17T18:05:02Z</time>
      </trkpt>
      <trkpt lat="49.58287" lon="0.16678">
        <ele>103.8</ele>
        <time>2020-06-17T18:05:03Z</time>
      </trkpt>
      <trkpt lat="49.58291" lon="0.16682">
        <ele>103.8</ele>
        <time>2020-06-17T18:05:04Z</time>
      </trkpt>
      <trkpt lat="49.58294" lon="0.16687">
        <ele>103.8</ele>
        <time>2020-06-17T18:05:05Z</time>
      </trkpt>
      <trkpt lat="49.58298" lon="0.16693">
        <ele>103.7</ele>
        <time>2020-06-17T18:05:06Z</time>
      </trkpt>
      <trkpt lat="49.58301" lon="0.16698">
        <ele>103.7</ele>
        <time>2020-06-17T18:05:07Z</time>
      </trkpt>
      <trkpt lat="49.58305" lon="0.16704">
        <ele>103.6</ele>
        <time>2020-06-17T18:05:08Z</time>
      </trkpt>
      <trkpt lat="49.58309" lon="0.16711">
        <ele>103.6</ele>
        <time>2020-06-17T18:05:09Z</time>
      </trkpt>
      <trkpt lat="49.58312" lon="0.16718">
        <ele>103.5</ele>
        <time>2020-06-17T18:05:10Z</time>
      </trkpt>
      <trkpt lat="49.58316" lon="0.16724">
        <ele>103.5</ele>
        <time>2020-06-17T18:05:11Z</time>
      </trkpt>
      <trkpt lat="49.58321" lon="0.1673">
        <ele>103.5</ele>
        <time>2020-06-17T18:05:12Z</time>
      </trkpt>
      <trkpt lat="49.58325" lon="0.16736">
        <ele>103.4</ele>
        <time>2020-06-17T18:05:13Z</time>
      </trkpt>
      <trkpt lat="49.5833" lon="0.16742">
        <ele>103.4</ele>
        <time>2020-06-17T18:05:14Z</time>
      </trkpt>
      <trkpt lat="49.58334" lon="0.16749">
        <ele>103.4</ele>
        <time>2020-06-17T18:05:15Z</time>
      </trkpt>
      <trkpt lat="49.58338" lon="0.16756">
        <ele>103.4</ele>
        <time>2020-06-17T18:05:16Z</time>
      </trkpt>
      <trkpt lat="49.58342" lon="0.16763">
        <ele>103.3</ele>
        <time>2020-06-17T18:05:17Z</time>
      </trkpt>
      <trkpt lat="49.58345" lon="0.16769">
        <ele>103.3</ele>
        <time>2020-06-17T18:05:18Z</time>
      </trkpt>
      <trkpt lat="49.58349" lon="0.16776">
        <ele>103.3</ele>
        <time>2020-06-17T18:05:19Z</time>
      </trkpt>
      <trkpt lat="49.58352" lon="0.16782">
        <ele>103.3</ele>
        <time>2020-06-17T18:05:20Z</time>
      </trkpt>
      <trkpt lat="49.58356" lon="0.16788">
        <ele>103.3</ele>
        <time>2020-06-17T18:05:21Z</time>
      </trkpt>
      <trkpt lat="49.58359" lon="0.16794">
        <ele>103.3</ele>
        <time>2020-06-17T18:05:22Z</time>
      </trkpt>
      <trkpt lat="49.58362" lon="0.168">
        <ele>103.3</ele>
        <time>2020-06-17T18:05:23Z</time>
      </trkpt>
      <trkpt lat="49.58365" lon="0.16806">
        <ele>103.3</ele>
        <time>2020-06-17T18:05:24Z</time>
      </trkpt>
      <trkpt lat="49.58368" lon="0.16813">
        <ele>103.3</ele>
        <time>2020-06-17T18:05:25Z</time>
      </trkpt>
      <trkpt lat="49.58371" lon="0.16818">
        <ele>103.3</ele>
        <time>2020-06-17T18:05:26Z</time>
      </trkpt>
      <trkpt lat="49.58375" lon="0.16824">
        <ele>103.3</ele>
        <time>2020-06-17T18:05:27Z</time>
      </trkpt>
      <trkpt lat="49.58378" lon="0.16829">
        <ele>103.3</ele>
        <time>2020-06-17T18:05:28Z</time>
      </trkpt>
      <trkpt lat="49.58382" lon="0.16835">
        <ele>103.3</ele>
        <time>2020-06-17T18:05:29Z</time>
      </trkpt>
      <trkpt lat="49.58386" lon="0.16842">
        <ele>103.3</ele>
        <time>2020-06-17T18:05:30Z</time>
      </trkpt>
      <trkpt lat="49.58389" lon="0.16848">
        <ele>103.3</ele>
        <time>2020-06-17T18:05:31Z</time>
      </trkpt>
      <trkpt lat="49.58392" lon="0.16855">
        <ele>103.4</ele>
        <time>2020-06-17T18:05:32Z</time>
      </trkpt>
      <trkpt lat="49.58395" lon="0.16861">
        <ele>103.4</ele>
        <time>2020-06-17T18:05:33Z</time>
      </trkpt>
      <trkpt lat="49.58399" lon="0.16867">
        <ele>103.4</ele>
        <time>2020-06-17T18:05:34Z</time>
      </trkpt>
      <trkpt lat="49.58402" lon="0.16873">
        <ele>103.4</ele>
        <time>2020-06-17T18:05:35Z</time>
      </trkpt>
      <trkpt lat="49.58405" lon="0.16879">
        <ele>103.4</ele>
        <time>2020-06-17T18:05:36Z</time>
      </trkpt>
      <trkpt lat="49.58408" lon="0.16886">
        <ele>103.4</ele>
        <time>2020-06-17T18:05:37Z</time>
      </trkpt>
      <trkpt lat="49.58411" lon="0.16891">
        <ele>103.4</ele>
        <time>2020-06-17T18:05:38Z</time>
      </trkpt>
      <trkpt lat="49.58414" lon="0.16898">
        <ele>103.4</ele>
        <time>2020-06-17T18:05:39Z</time>
      </trkpt>
      <trkpt lat="49.58417" lon="0.16904">
        <ele>103.3</ele>
        <time>2020-06-17T18:05:40Z</time>
      </trkpt>
      <trkpt lat="49.5842" lon="0.16911">
        <ele>103.3</ele>
        <time>2020-06-17T18:05:41Z</time>
      </trkpt>
      <trkpt lat="49.58423" lon="0.16917">
        <ele>103.3</ele>
        <time>2020-06-17T18:05:42Z</time>
      </trkpt>
      <trkpt lat="49.58425" lon="0.16924">
        <ele>103.3</ele>
        <time>2020-06-17T18:05:43Z</time>
      </trkpt>
      <trkpt lat="49.58428" lon="0.1693">
        <ele>103.3</ele>
        <time>2020-06-17T18:05:44Z</time>
      </trkpt>
      <trkpt lat="49.58432" lon="0.16936">
        <ele>103.3</ele>
        <time>2020-06-17T18:05:45Z</time>
      </trkpt>
      <trkpt lat="49.58433" lon="0.16942">
        <ele>103.3</ele>
        <time>2020-06-17T18:05:46Z</time>
      </trkpt>
      <trkpt lat="49.58436" lon="0.16951">
        <ele>103.3</ele>
        <time>2020-06-17T18:05:47Z</time>
      </trkpt>
      <trkpt lat="49.58439" lon="0.1696">
        <ele>103.3</ele>
        <time>2020-06-17T18:05:48Z</time>
      </trkpt>
      <trkpt lat="49.58443" lon="0.16969">
        <ele>103.3</ele>
        <time>2020-06-17T18:05:49Z</time>
      </trkpt>
      <trkpt lat="49.58447" lon="0.16977">
        <ele>103.3</ele>
        <time>2020-06-17T18:05:50Z</time>
      </trkpt>
      <trkpt lat="49.5845" lon="0.16984">
        <ele>103.3</ele>
        <time>2020-06-17T18:05:51Z</time>
      </trkpt>
      <trkpt lat="49.58454" lon="0.16989">
        <ele>103.4</ele>
        <time>2020-06-17T18:05:52Z</time>
      </trkpt>
      <trkpt lat="49.58457" lon="0.16995">
        <ele>103.4</ele>
        <time>2020-06-17T18:05:53Z</time>
      </trkpt>
      <trkpt lat="49.58459" lon="0.17001">
        <ele>103.4</ele>
        <time>2020-06-17T18:05:54Z</time>
      </trkpt>
      <trkpt lat="49.58462" lon="0.17006">
        <ele>103.4</ele>
        <time>2020-06-17T18:05:55Z</time>
      </trkpt>
      <trkpt lat="49.58463" lon="0.1701">
        <ele>103.5</ele>
        <time>2020-06-17T18:05:56Z</time>
      </trkpt>
      <trkpt lat="49.58466" lon="0.17018">
        <ele>103.5</ele>
        <time>2020-06-17T18:05:57Z</time>
      </trkpt>
      <trkpt lat="49.58468" lon="0.17024">
        <ele>103.5</ele>
        <time>2020-06-17T18:05:58Z</time>
      </trkpt>
      <trkpt lat="49.58471" lon="0.17032">
        <ele>103.6</ele>
        <time>2020-06-17T18:05:59Z</time>
      </trkpt>
      <trkpt lat="49.58474" lon="0.17039">
        <ele>103.6</ele>
        <time>2020-06-17T18:06:00Z</time>
      </trkpt>
      <trkpt lat="49.58477" lon="0.17046">
        <ele>103.7</ele>
        <time>2020-06-17T18:06:01Z</time>
      </trkpt>
      <trkpt lat="49.5848" lon="0.17052">
        <ele>103.7</ele>
        <time>2020-06-17T18:06:02Z</time>
      </trkpt>
      <trkpt lat="49.58483" lon="0.17059">
        <ele>103.8</ele>
        <time>2020-06-17T18:06:03Z</time>
      </trkpt>
      <trkpt lat="49.58486" lon="0.17065">
        <ele>103.9</ele>
        <time>2020-06-17T18:06:04Z</time>
      </trkpt>
      <trkpt lat="49.58489" lon="0.17071">
        <ele>103.9</ele>
        <time>2020-06-17T18:06:05Z</time>
      </trkpt>
      <trkpt lat="49.58493" lon="0.17078">
        <ele>104</ele>
        <time>2020-06-17T18:06:06Z</time>
      </trkpt>
      <trkpt lat="49.58496" lon="0.17085">
        <ele>104</ele>
        <time>2020-06-17T18:06:07Z</time>
      </trkpt>
      <trkpt lat="49.58498" lon="0.17091">
        <ele>104.1</ele>
        <time>2020-06-17T18:06:08Z</time>
      </trkpt>
      <trkpt lat="49.58501" lon="0.17097">
        <ele>104.1</ele>
        <time>2020-06-17T18:06:09Z</time>
      </trkpt>
      <trkpt lat="49.58503" lon="0.17103">
        <ele>104.1</ele>
        <time>2020-06-17T18:06:10Z</time>
      </trkpt>
      <trkpt lat="49.58506" lon="0.17109">
        <ele>104.1</ele>
        <time>2020-06-17T18:06:11Z</time>
      </trkpt>
      <trkpt lat="49.58509" lon="0.17114">
        <ele>104.1</ele>
        <time>2020-06-17T18:06:12Z</time>
      </trkpt>
      <trkpt lat="49.58512" lon="0.17121">
        <ele>104.1</ele>
        <time>2020-06-17T18:06:13Z</time>
      </trkpt>
      <trkpt lat="49.58515" lon="0.17127">
        <ele>104.1</ele>
        <time>2020-06-17T18:06:14Z</time>
      </trkpt>
      <trkpt lat="49.58517" lon="0.17132">
        <ele>104.2</ele>
        <time>2020-06-17T18:06:15Z</time>
      </trkpt>
      <trkpt lat="49.5852" lon="0.17138">
        <ele>104.2</ele>
        <time>2020-06-17T18:06:16Z</time>
      </trkpt>
      <trkpt lat="49.58523" lon="0.17144">
        <ele>104.2</ele>
        <time>2020-06-17T18:06:17Z</time>
      </trkpt>
      <trkpt lat="49.58526" lon="0.1715">
        <ele>104.2</ele>
        <time>2020-06-17T18:06:18Z</time>
      </trkpt>
      <trkpt lat="49.58529" lon="0.17157">
        <ele>104.2</ele>
        <time>2020-06-17T18:06:19Z</time>
      </trkpt>
      <trkpt lat="49.58532" lon="0.17163">
        <ele>104.2</ele>
        <time>2020-06-17T18:06:20Z</time>
      </trkpt>
      <trkpt lat="49.58535" lon="0.17171">
        <ele>104.1</ele>
        <time>2020-06-17T18:06:21Z</time>
      </trkpt>
      <trkpt lat="49.58537" lon="0.17177">
        <ele>104.1</ele>
        <time>2020-06-17T18:06:22Z</time>
      </trkpt>
      <trkpt lat="49.58541" lon="0.17184">
        <ele>104</ele>
        <time>2020-06-17T18:06:23Z</time>
      </trkpt>
      <trkpt lat="49.58544" lon="0.17191">
        <ele>104</ele>
        <time>2020-06-17T18:06:24Z</time>
      </trkpt>
      <trkpt lat="49.58546" lon="0.17197">
        <ele>103.9</ele>
        <time>2020-06-17T18:06:25Z</time>
      </trkpt>
      <trkpt lat="49.58549" lon="0.17202">
        <ele>103.9</ele>
        <time>2020-06-17T18:06:26Z</time>
      </trkpt>
      <trkpt lat="49.5855" lon="0.17207">
        <ele>103.9</ele>
        <time>2020-06-17T18:06:27Z</time>
      </trkpt>
      <trkpt lat="49.58551" lon="0.17208">
        <ele>103.9</ele>
        <time>2020-06-17T18:06:28Z</time>
      </trkpt>
      <trkpt lat="49.58552" lon="0.17212">
        <ele>103.9</ele>
        <time>2020-06-17T18:06:29Z</time>
      </trkpt>
      <trkpt lat="49.58553" lon="0.17216">
        <ele>103.8</ele>
        <time>2020-06-17T18:06:30Z</time>
      </trkpt>
      <trkpt lat="49.58553" lon="0.17218">
        <ele>103.8</ele>
        <time>2020-06-17T18:06:31Z</time>
      </trkpt>
      <trkpt lat="49.58555" lon="0.17222">
        <ele>103.8</ele>
        <time>2020-06-17T18:06:32Z</time>
      </trkpt>
      <trkpt lat="49.58555" lon="0.17224">
        <ele>103.8</ele>
        <time>2020-06-17T18:06:33Z</time>
      </trkpt>
      <trkpt lat="49.58557" lon="0.17228">
        <ele>103.7</ele>
        <time>2020-06-17T18:06:34Z</time>
      </trkpt>
      <trkpt lat="49.58558" lon="0.17229">
        <ele>103.7</ele>
        <time>2020-06-17T18:06:35Z</time>
      </trkpt>
      <trkpt lat="49.5856" lon="0.17233">
        <ele>103.7</ele>
        <time>2020-06-17T18:06:36Z</time>
      </trkpt>
      <trkpt lat="49.58561" lon="0.17234">
        <ele>103.7</ele>
        <time>2020-06-17T18:06:37Z</time>
      </trkpt>
      <trkpt lat="49.58563" lon="0.17237">
        <ele>103.7</ele>
        <time>2020-06-17T18:06:38Z</time>
      </trkpt>
      <trkpt lat="49.58564" lon="0.17238">
        <ele>103.7</ele>
        <time>2020-06-17T18:06:39Z</time>
      </trkpt>
      <trkpt lat="49.58565" lon="0.17242">
        <ele>103.7</ele>
        <time>2020-06-17T18:06:40Z</time>
      </trkpt>
      <trkpt lat="49.58565" lon="0.17243">
        <ele>103.7</ele>
        <time>2020-06-17T18:06:41Z</time>
      </trkpt>
      <trkpt lat="49.58568" lon="0.17247">
        <ele>103.7</ele>
        <time>2020-06-17T18:06:42Z</time>
      </trkpt>
      <trkpt lat="49.58569" lon="0.17249">
        <ele>103.7</ele>
        <time>2020-06-17T18:06:43Z</time>
      </trkpt>
      <trkpt lat="49.58571" lon="0.17253">
        <ele>103.7</ele>
        <time>2020-06-17T18:06:44Z</time>
      </trkpt>
      <trkpt lat="49.58574" lon="0.17257">
        <ele>103.7</ele>
        <time>2020-06-17T18:06:45Z</time>
      </trkpt>
      <trkpt lat="49.58577" lon="0.17261">
        <ele>103.7</ele>
        <time>2020-06-17T18:06:46Z</time>
      </trkpt>
      <trkpt lat="49.5858" lon="0.17266">
        <ele>103.7</ele>
        <time>2020-06-17T18:06:47Z</time>
      </trkpt>
      <trkpt lat="49.58584" lon="0.17271">
        <ele>103.7</ele>
        <time>2020-06-17T18:06:48Z</time>
      </trkpt>
      <trkpt lat="49.58586" lon="0.17276">
        <ele>103.7</ele>
        <time>2020-06-17T18:06:49Z</time>
      </trkpt>
      <trkpt lat="49.58589" lon="0.17281">
        <ele>103.7</ele>
        <time>2020-06-17T18:06:50Z</time>
      </trkpt>
      <trkpt lat="49.58591" lon="0.17286">
        <ele>103.7</ele>
        <time>2020-06-17T18:06:51Z</time>
      </trkpt>
      <trkpt lat="49.58594" lon="0.17291">
        <ele>103.7</ele>
        <time>2020-06-17T18:06:52Z</time>
      </trkpt>
      <trkpt lat="49.58596" lon="0.17296">
        <ele>103.7</ele>
        <time>2020-06-17T18:06:53Z</time>
      </trkpt>
      <trkpt lat="49.58599" lon="0.17301">
        <ele>103.7</ele>
        <time>2020-06-17T18:06:54Z</time>
      </trkpt>
      <trkpt lat="49.58602" lon="0.17305">
        <ele>103.7</ele>
        <time>2020-06-17T18:06:55Z</time>
      </trkpt>
      <trkpt lat="49.58604" lon="0.1731">
        <ele>103.7</ele>
        <time>2020-06-17T18:06:56Z</time>
      </trkpt>
      <trkpt lat="49.58606" lon="0.17314">
        <ele>103.7</ele>
        <time>2020-06-17T18:06:57Z</time>
      </trkpt>
      <trkpt lat="49.58608" lon="0.17318">
        <ele>103.8</ele>
        <time>2020-06-17T18:06:58Z</time>
      </trkpt>
      <trkpt lat="49.5861" lon="0.17321">
        <ele>103.8</ele>
        <time>2020-06-17T18:06:59Z</time>
      </trkpt>
      <trkpt lat="49.58612" lon="0.17325">
        <ele>103.8</ele>
        <time>2020-06-17T18:07:00Z</time>
      </trkpt>
      <trkpt lat="49.58614" lon="0.17328">
        <ele>103.8</ele>
        <time>2020-06-17T18:07:01Z</time>
      </trkpt>
      <trkpt lat="49.58616" lon="0.17333">
        <ele>103.8</ele>
        <time>2020-06-17T18:07:02Z</time>
      </trkpt>
      <trkpt lat="49.58618" lon="0.17337">
        <ele>103.8</ele>
        <time>2020-06-17T18:07:03Z</time>
      </trkpt>
      <trkpt lat="49.58621" lon="0.17342">
        <ele>103.8</ele>
        <time>2020-06-17T18:07:04Z</time>
      </trkpt>
      <trkpt lat="49.58622" lon="0.17343">
        <ele>103.8</ele>
        <time>2020-06-17T18:07:05Z</time>
      </trkpt>
      <trkpt lat="49.58624" lon="0.17347">
        <ele>103.8</ele>
        <time>2020-06-17T18:07:06Z</time>
      </trkpt>
      <trkpt lat="49.58627" lon="0.1735">
        <ele>103.7</ele>
        <time>2020-06-17T18:07:07Z</time>
      </trkpt>
      <trkpt lat="49.58629" lon="0.17354">
        <ele>103.7</ele>
        <time>2020-06-17T18:07:08Z</time>
      </trkpt>
      <trkpt lat="49.58631" lon="0.17357">
        <ele>103.7</ele>
        <time>2020-06-17T18:07:09Z</time>
      </trkpt>
      <trkpt lat="49.58633" lon="0.17361">
        <ele>103.7</ele>
        <time>2020-06-17T18:07:10Z</time>
      </trkpt>
      <trkpt lat="49.58635" lon="0.17365">
        <ele>103.7</ele>
        <time>2020-06-17T18:07:11Z</time>
      </trkpt>
      <trkpt lat="49.58637" lon="0.17369">
        <ele>103.7</ele>
        <time>2020-06-17T18:07:12Z</time>
      </trkpt>
      <trkpt lat="49.58639" lon="0.17373">
        <ele>103.7</ele>
        <time>2020-06-17T18:07:13Z</time>
      </trkpt>
      <trkpt lat="49.58642" lon="0.17378">
        <ele>103.7</ele>
        <time>2020-06-17T18:07:14Z</time>
      </trkpt>
      <trkpt lat="49.58644" lon="0.17382">
        <ele>103.7</ele>
        <time>2020-06-17T18:07:15Z</time>
      </trkpt>
      <trkpt lat="49.58647" lon="0.17387">
        <ele>103.7</ele>
        <time>2020-06-17T18:07:16Z</time>
      </trkpt>
      <trkpt lat="49.58649" lon="0.17391">
        <ele>103.8</ele>
        <time>2020-06-17T18:07:17Z</time>
      </trkpt>
      <trkpt lat="49.58652" lon="0.17395">
        <ele>103.8</ele>
        <time>2020-06-17T18:07:18Z</time>
      </trkpt>
      <trkpt lat="49.58655" lon="0.17399">
        <ele>103.8</ele>
        <time>2020-06-17T18:07:19Z</time>
      </trkpt>
      <trkpt lat="49.58658" lon="0.17403">
        <ele>103.8</ele>
        <time>2020-06-17T18:07:20Z</time>
      </trkpt>
      <trkpt lat="49.58662" lon="0.17407">
        <ele>103.8</ele>
        <time>2020-06-17T18:07:21Z</time>
      </trkpt>
      <trkpt lat="49.58665" lon="0.17411">
        <ele>103.9</ele>
        <time>2020-06-17T18:07:22Z</time>
      </trkpt>
      <trkpt lat="49.58668" lon="0.17415">
        <ele>103.9</ele>
        <time>2020-06-17T18:07:23Z</time>
      </trkpt>
      <trkpt lat="49.58671" lon="0.17421">
        <ele>103.9</ele>
        <time>2020-06-17T18:07:24Z</time>
      </trkpt>
      <trkpt lat="49.58674" lon="0.17424">
        <ele>103.9</ele>
        <time>2020-06-17T18:07:25Z</time>
      </trkpt>
      <trkpt lat="49.58677" lon="0.1743">
        <ele>103.9</ele>
        <time>2020-06-17T18:07:26Z</time>
      </trkpt>
      <trkpt lat="49.5868" lon="0.17435">
        <ele>103.9</ele>
        <time>2020-06-17T18:07:27Z</time>
      </trkpt>
      <trkpt lat="49.58682" lon="0.1744">
        <ele>103.9</ele>
        <time>2020-06-17T18:07:28Z</time>
      </trkpt>
      <trkpt lat="49.58685" lon="0.17446">
        <ele>103.9</ele>
        <time>2020-06-17T18:07:29Z</time>
      </trkpt>
      <trkpt lat="49.58687" lon="0.17451">
        <ele>103.9</ele>
        <time>2020-06-17T18:07:30Z</time>
      </trkpt>
      <trkpt lat="49.58689" lon="0.17457">
        <ele>103.9</ele>
        <time>2020-06-17T18:07:31Z</time>
      </trkpt>
      <trkpt lat="49.58691" lon="0.17463">
        <ele>103.8</ele>
        <time>2020-06-17T18:07:32Z</time>
      </trkpt>
      <trkpt lat="49.58693" lon="0.17469">
        <ele>103.8</ele>
        <time>2020-06-17T18:07:33Z</time>
      </trkpt>
      <trkpt lat="49.58694" lon="0.17476">
        <ele>103.7</ele>
        <time>2020-06-17T18:07:34Z</time>
      </trkpt>
      <trkpt lat="49.58694" lon="0.17482">
        <ele>103.7</ele>
        <time>2020-06-17T18:07:35Z</time>
      </trkpt>
      <trkpt lat="49.58695" lon="0.17488">
        <ele>103.7</ele>
        <time>2020-06-17T18:07:36Z</time>
      </trkpt>
      <trkpt lat="49.58695" lon="0.17495">
        <ele>103.6</ele>
        <time>2020-06-17T18:07:37Z</time>
      </trkpt>
      <trkpt lat="49.58695" lon="0.175">
        <ele>103.6</ele>
        <time>2020-06-17T18:07:38Z</time>
      </trkpt>
      <trkpt lat="49.58697" lon="0.17506">
        <ele>103.6</ele>
        <time>2020-06-17T18:07:39Z</time>
      </trkpt>
      <trkpt lat="49.58697" lon="0.17512">
        <ele>103.7</ele>
        <time>2020-06-17T18:07:40Z</time>
      </trkpt>
      <trkpt lat="49.58698" lon="0.17518">
        <ele>103.7</ele>
        <time>2020-06-17T18:07:41Z</time>
      </trkpt>
      <trkpt lat="49.58699" lon="0.17524">
        <ele>103.7</ele>
        <time>2020-06-17T18:07:42Z</time>
      </trkpt>
      <trkpt lat="49.587" lon="0.1753">
        <ele>103.7</ele>
        <time>2020-06-17T18:07:43Z</time>
      </trkpt>
      <trkpt lat="49.587" lon="0.17536">
        <ele>103.8</ele>
        <time>2020-06-17T18:07:44Z</time>
      </trkpt>
      <trkpt lat="49.587" lon="0.17541">
        <ele>103.8</ele>
        <time>2020-06-17T18:07:45Z</time>
      </trkpt>
      <trkpt lat="49.587" lon="0.17547">
        <ele>103.8</ele>
        <time>2020-06-17T18:07:46Z</time>
      </trkpt>
      <trkpt lat="49.58701" lon="0.17553">
        <ele>103.8</ele>
        <time>2020-06-17T18:07:47Z</time>
      </trkpt>
      <trkpt lat="49.58702" lon="0.17558">
        <ele>103.8</ele>
        <time>2020-06-17T18:07:48Z</time>
      </trkpt>
      <trkpt lat="49.58702" lon="0.17562">
        <ele>103.9</ele>
        <time>2020-06-17T18:07:49Z</time>
      </trkpt>
      <trkpt lat="49.58703" lon="0.17567">
        <ele>103.9</ele>
        <time>2020-06-17T18:07:50Z</time>
      </trkpt>
      <trkpt lat="49.58702" lon="0.1757">
        <ele>103.9</ele>
        <time>2020-06-17T18:07:51Z</time>
      </trkpt>
      <trkpt lat="49.58702" lon="0.17572">
        <ele>103.9</ele>
        <time>2020-06-17T18:07:52Z</time>
      </trkpt>
      <trkpt lat="49.58702" lon="0.17573">
        <ele>103.9</ele>
        <time>2020-06-17T18:07:53Z</time>
      </trkpt>
      <trkpt lat="49.58703" lon="0.17574">
        <ele>103.9</ele>
        <time>2020-06-17T18:07:54Z</time>
      </trkpt>
      <trkpt lat="49.58703" lon="0.17574">
        <ele>103.9</ele>
        <time>2020-06-17T18:07:55Z</time>
      </trkpt>
      <trkpt lat="49.58703" lon="0.17575">
        <ele>103.9</ele>
        <time>2020-06-17T18:07:56Z</time>
      </trkpt>
      <trkpt lat="49.58703" lon="0.17576">
        <ele>103.9</ele>
        <time>2020-06-17T18:07:57Z</time>
      </trkpt>
      <trkpt lat="49.58703" lon="0.17576">
        <ele>103.9</ele>
        <time>2020-06-17T18:07:58Z</time>
      </trkpt>
      <trkpt lat="49.58703" lon="0.17577">
        <ele>103.9</ele>
        <time>2020-06-17T18:07:59Z</time>
      </trkpt>
      <trkpt lat="49.58704" lon="0.17577">
        <ele>103.9</ele>
        <time>2020-06-17T18:08:00Z</time>
      </trkpt>
      <trkpt lat="49.58704" lon="0.17578">
        <ele>103.9</ele>
        <time>2020-06-17T18:08:01Z</time>
      </trkpt>
      <trkpt lat="49.58704" lon="0.17579">
        <ele>103.9</ele>
        <time>2020-06-17T18:08:02Z</time>
      </trkpt>
      <trkpt lat="49.58704" lon="0.17579">
        <ele>103.9</ele>
        <time>2020-06-17T18:08:03Z</time>
      </trkpt>
      <trkpt lat="49.58704" lon="0.1758">
        <ele>103.9</ele>
        <time>2020-06-17T18:08:19Z</time>
      </trkpt>
      <trkpt lat="49.58704" lon="0.1758">
        <ele>103.9</ele>
        <time>2020-06-17T18:08:20Z</time>
      </trkpt>
      <trkpt lat="49.58704" lon="0.17581">
        <ele>103.9</ele>
        <time>2020-06-17T18:08:21Z</time>
      </trkpt>
      <trkpt lat="49.58705" lon="0.17581">
        <ele>103.9</ele>
        <time>2020-06-17T18:08:22Z</time>
      </trkpt>
      <trkpt lat="49.58705" lon="0.17582">
        <ele>103.9</ele>
        <time>2020-06-17T18:08:23Z</time>
      </trkpt>
      <trkpt lat="49.58705" lon="0.17583">
        <ele>103.9</ele>
        <time>2020-06-17T18:08:24Z</time>
      </trkpt>
      <trkpt lat="49.58705" lon="0.17583">
        <ele>103.9</ele>
        <time>2020-06-17T18:08:25Z</time>
      </trkpt>
      <trkpt lat="49.58705" lon="0.17584">
        <ele>103.9</ele>
        <time>2020-06-17T18:08:26Z</time>
      </trkpt>
      <trkpt lat="49.58705" lon="0.17584">
        <ele>103.9</ele>
        <time>2020-06-17T18:08:27Z</time>
      </trkpt>
      <trkpt lat="49.58706" lon="0.17585">
        <ele>103.9</ele>
        <time>2020-06-17T18:08:28Z</time>
      </trkpt>
      <trkpt lat="49.58706" lon="0.17585">
        <ele>103.9</ele>
        <time>2020-06-17T18:08:29Z</time>
      </trkpt>
      <trkpt lat="49.58706" lon="0.17586">
        <ele>103.9</ele>
        <time>2020-06-17T18:08:30Z</time>
      </trkpt>
      <trkpt lat="49.58706" lon="0.17587">
        <ele>103.9</ele>
        <time>2020-06-17T18:08:31Z</time>
      </trkpt>
      <trkpt lat="49.58706" lon="0.17587">
        <ele>103.9</ele>
        <time>2020-06-17T18:08:32Z</time>
      </trkpt>
      <trkpt lat="49.58706" lon="0.17588">
        <ele>103.9</ele>
        <time>2020-06-17T18:11:37Z</time>
      </trkpt>
      <trkpt lat="49.58706" lon="0.17588">
        <ele>103.9</ele>
        <time>2020-06-17T18:11:38Z</time>
      </trkpt>
      <trkpt lat="49.58707" lon="0.17589">
        <ele>104</ele>
        <time>2020-06-17T18:11:39Z</time>
      </trkpt>
      <trkpt lat="49.58707" lon="0.1759">
        <ele>104</ele>
        <time>2020-06-17T18:11:40Z</time>
      </trkpt>
      <trkpt lat="49.58707" lon="0.1759">
        <ele>104</ele>
        <time>2020-06-17T18:11:41Z</time>
      </trkpt>
      <trkpt lat="49.58707" lon="0.17591">
        <ele>104</ele>
        <time>2020-06-17T18:11:42Z</time>
      </trkpt>
      <trkpt lat="49.58707" lon="0.17591">
        <ele>104</ele>
        <time>2020-06-17T18:11:43Z</time>
      </trkpt>
      <trkpt lat="49.58707" lon="0.17592">
        <ele>104</ele>
        <time>2020-06-17T18:11:44Z</time>
      </trkpt>
      <trkpt lat="49.58708" lon="0.17592">
        <ele>104</ele>
        <time>2020-06-17T18:11:45Z</time>
      </trkpt>
      <trkpt lat="49.58708" lon="0.17593">
        <ele>104</ele>
        <time>2020-06-17T18:11:46Z</time>
      </trkpt>
      <trkpt lat="49.58708" lon="0.17594">
        <ele>104</ele>
        <time>2020-06-17T18:11:47Z</time>
      </trkpt>
      <trkpt lat="49.58708" lon="0.17594">
        <ele>104</ele>
        <time>2020-06-17T18:11:48Z</time>
      </trkpt>
      <trkpt lat="49.58708" lon="0.17595">
        <ele>104</ele>
        <time>2020-06-17T18:11:49Z</time>
      </trkpt>
      <trkpt lat="49.58708" lon="0.17595">
        <ele>104</ele>
        <time>2020-06-17T18:11:50Z</time>
      </trkpt>
      <trkpt lat="49.58709" lon="0.17596">
        <ele>104</ele>
        <time>2020-06-17T18:11:51Z</time>
      </trkpt>
      <trkpt lat="49.58709" lon="0.17596">
        <ele>104</ele>
        <time>2020-06-17T18:11:52Z</time>
      </trkpt>
      <trkpt lat="49.58709" lon="0.17597">
        <ele>104</ele>
        <time>2020-06-17T18:11:53Z</time>
      </trkpt>
      <trkpt lat="49.58709" lon="0.17598">
        <ele>104</ele>
        <time>2020-06-17T18:11:54Z</time>
      </trkpt>
      <trkpt lat="49.58709" lon="0.17598">
        <ele>104</ele>
        <time>2020-06-17T18:11:55Z</time>
      </trkpt>
      <trkpt lat="49.58709" lon="0.17599">
        <ele>104</ele>
        <time>2020-06-17T18:12:17Z</time>
      </trkpt>
      <trkpt lat="49.58709" lon="0.17599">
        <ele>104</ele>
        <time>2020-06-17T18:12:18Z</time>
      </trkpt>
      <trkpt lat="49.58711" lon="0.17604">
        <ele>104</ele>
        <time>2020-06-17T18:12:19Z</time>
      </trkpt>
      <trkpt lat="49.58714" lon="0.17607">
        <ele>104</ele>
        <time>2020-06-17T18:12:20Z</time>
      </trkpt>
      <trkpt lat="49.58717" lon="0.17609">
        <ele>104</ele>
        <time>2020-06-17T18:12:21Z</time>
      </trkpt>
      <trkpt lat="49.58719" lon="0.17611">
        <ele>103.9</ele>
        <time>2020-06-17T18:12:22Z</time>
      </trkpt>
      <trkpt lat="49.58722" lon="0.17612">
        <ele>103.9</ele>
        <time>2020-06-17T18:12:23Z</time>
      </trkpt>
      <trkpt lat="49.58726" lon="0.17614">
        <ele>103.8</ele>
        <time>2020-06-17T18:12:24Z</time>
      </trkpt>
      <trkpt lat="49.5873" lon="0.17615">
        <ele>103.8</ele>
        <time>2020-06-17T18:12:25Z</time>
      </trkpt>
      <trkpt lat="49.58733" lon="0.17616">
        <ele>103.7</ele>
        <time>2020-06-17T18:12:26Z</time>
      </trkpt>
      <trkpt lat="49.58736" lon="0.17616">
        <ele>103.7</ele>
        <time>2020-06-17T18:12:27Z</time>
      </trkpt>
      <trkpt lat="49.5874" lon="0.17613">
        <ele>103.7</ele>
        <time>2020-06-17T18:12:28Z</time>
      </trkpt>
      <trkpt lat="49.58743" lon="0.17612">
        <ele>103.6</ele>
        <time>2020-06-17T18:12:29Z</time>
      </trkpt>
      <trkpt lat="49.58747" lon="0.1761">
        <ele>103.5</ele>
        <time>2020-06-17T18:12:30Z</time>
      </trkpt>
      <trkpt lat="49.5875" lon="0.17607">
        <ele>103.5</ele>
        <time>2020-06-17T18:12:31Z</time>
      </trkpt>
      <trkpt lat="49.58754" lon="0.17605">
        <ele>103.5</ele>
        <time>2020-06-17T18:12:32Z</time>
      </trkpt>
      <trkpt lat="49.58757" lon="0.17604">
        <ele>103.4</ele>
        <time>2020-06-17T18:12:33Z</time>
      </trkpt>
      <trkpt lat="49.58761" lon="0.17602">
        <ele>103.4</ele>
        <time>2020-06-17T18:12:34Z</time>
      </trkpt>
      <trkpt lat="49.58766" lon="0.176">
        <ele>103.4</ele>
        <time>2020-06-17T18:12:35Z</time>
      </trkpt>
      <trkpt lat="49.5877" lon="0.17598">
        <ele>103.3</ele>
        <time>2020-06-17T18:12:36Z</time>
      </trkpt>
      <trkpt lat="49.58773" lon="0.17597">
        <ele>103.3</ele>
        <time>2020-06-17T18:12:37Z</time>
      </trkpt>
      <trkpt lat="49.58778" lon="0.17596">
        <ele>103.3</ele>
        <time>2020-06-17T18:12:38Z</time>
      </trkpt>
      <trkpt lat="49.58782" lon="0.17594">
        <ele>103.3</ele>
        <time>2020-06-17T18:12:39Z</time>
      </trkpt>
      <trkpt lat="49.58787" lon="0.17593">
        <ele>103.3</ele>
        <time>2020-06-17T18:12:40Z</time>
      </trkpt>
      <trkpt lat="49.5879" lon="0.17591">
        <ele>103.3</ele>
        <time>2020-06-17T18:12:41Z</time>
      </trkpt>
      <trkpt lat="49.58795" lon="0.17589">
        <ele>103.3</ele>
        <time>2020-06-17T18:12:42Z</time>
      </trkpt>
      <trkpt lat="49.58799" lon="0.17588">
        <ele>103.3</ele>
        <time>2020-06-17T18:12:43Z</time>
      </trkpt>
      <trkpt lat="49.58804" lon="0.17587">
        <ele>103.3</ele>
        <time>2020-06-17T18:12:44Z</time>
      </trkpt>
      <trkpt lat="49.58808" lon="0.17586">
        <ele>103.2</ele>
        <time>2020-06-17T18:12:45Z</time>
      </trkpt>
      <trkpt lat="49.58812" lon="0.17584">
        <ele>103.2</ele>
        <time>2020-06-17T18:12:46Z</time>
      </trkpt>
      <trkpt lat="49.58817" lon="0.17582">
        <ele>103.2</ele>
        <time>2020-06-17T18:12:47Z</time>
      </trkpt>
      <trkpt lat="49.58821" lon="0.17582">
        <ele>103.2</ele>
        <time>2020-06-17T18:12:48Z</time>
      </trkpt>
      <trkpt lat="49.58826" lon="0.1758">
        <ele>103.2</ele>
        <time>2020-06-17T18:12:49Z</time>
      </trkpt>
      <trkpt lat="49.58831" lon="0.17579">
        <ele>103.1</ele>
        <time>2020-06-17T18:12:50Z</time>
      </trkpt>
      <trkpt lat="49.58836" lon="0.17578">
        <ele>103.1</ele>
        <time>2020-06-17T18:12:51Z</time>
      </trkpt>
      <trkpt lat="49.58841" lon="0.17576">
        <ele>103.1</ele>
        <time>2020-06-17T18:12:52Z</time>
      </trkpt>
      <trkpt lat="49.58847" lon="0.17574">
        <ele>103</ele>
        <time>2020-06-17T18:12:53Z</time>
      </trkpt>
      <trkpt lat="49.58851" lon="0.17573">
        <ele>103</ele>
        <time>2020-06-17T18:12:54Z</time>
      </trkpt>
      <trkpt lat="49.58856" lon="0.17572">
        <ele>102.9</ele>
        <time>2020-06-17T18:12:55Z</time>
      </trkpt>
      <trkpt lat="49.58861" lon="0.17572">
        <ele>102.9</ele>
        <time>2020-06-17T18:12:56Z</time>
      </trkpt>
      <trkpt lat="49.58866" lon="0.1757">
        <ele>102.8</ele>
        <time>2020-06-17T18:12:57Z</time>
      </trkpt>
      <trkpt lat="49.58871" lon="0.17569">
        <ele>102.8</ele>
        <time>2020-06-17T18:12:58Z</time>
      </trkpt>
      <trkpt lat="49.58875" lon="0.17569">
        <ele>102.7</ele>
        <time>2020-06-17T18:12:59Z</time>
      </trkpt>
      <trkpt lat="49.58879" lon="0.17569">
        <ele>102.6</ele>
        <time>2020-06-17T18:13:00Z</time>
      </trkpt>
      <trkpt lat="49.58883" lon="0.17567">
        <ele>102.5</ele>
        <time>2020-06-17T18:13:01Z</time>
      </trkpt>
      <trkpt lat="49.58888" lon="0.17565">
        <ele>102.4</ele>
        <time>2020-06-17T18:13:02Z</time>
      </trkpt>
      <trkpt lat="49.58894" lon="0.17565">
        <ele>102.3</ele>
        <time>2020-06-17T18:13:03Z</time>
      </trkpt>
      <trkpt lat="49.589" lon="0.17566">
        <ele>102.2</ele>
        <time>2020-06-17T18:13:04Z</time>
      </trkpt>
      <trkpt lat="49.58906" lon="0.17565">
        <ele>102.1</ele>
        <time>2020-06-17T18:13:05Z</time>
      </trkpt>
      <trkpt lat="49.5891" lon="0.17564">
        <ele>102.1</ele>
        <time>2020-06-17T18:13:06Z</time>
      </trkpt>
      <trkpt lat="49.58915" lon="0.17561">
        <ele>102</ele>
        <time>2020-06-17T18:13:07Z</time>
      </trkpt>
      <trkpt lat="49.5892" lon="0.1756">
        <ele>101.9</ele>
        <time>2020-06-17T18:13:08Z</time>
      </trkpt>
      <trkpt lat="49.58924" lon="0.17558">
        <ele>101.8</ele>
        <time>2020-06-17T18:13:09Z</time>
      </trkpt>
      <trkpt lat="49.58929" lon="0.17557">
        <ele>101.7</ele>
        <time>2020-06-17T18:13:10Z</time>
      </trkpt>
      <trkpt lat="49.58933" lon="0.17555">
        <ele>101.6</ele>
        <time>2020-06-17T18:13:11Z</time>
      </trkpt>
      <trkpt lat="49.58937" lon="0.17554">
        <ele>101.5</ele>
        <time>2020-06-17T18:13:12Z</time>
      </trkpt>
      <trkpt lat="49.58942" lon="0.17552">
        <ele>101.5</ele>
        <time>2020-06-17T18:13:13Z</time>
      </trkpt>
      <trkpt lat="49.58946" lon="0.1755">
        <ele>101.4</ele>
        <time>2020-06-17T18:13:14Z</time>
      </trkpt>
      <trkpt lat="49.5895" lon="0.17548">
        <ele>101.3</ele>
        <time>2020-06-17T18:13:15Z</time>
      </trkpt>
      <trkpt lat="49.58955" lon="0.17545">
        <ele>101.2</ele>
        <time>2020-06-17T18:13:16Z</time>
      </trkpt>
      <trkpt lat="49.5896" lon="0.17542">
        <ele>101.2</ele>
        <time>2020-06-17T18:13:17Z</time>
      </trkpt>
      <trkpt lat="49.58965" lon="0.1754">
        <ele>101.1</ele>
        <time>2020-06-17T18:13:18Z</time>
      </trkpt>
      <trkpt lat="49.5897" lon="0.17539">
        <ele>101</ele>
        <time>2020-06-17T18:13:19Z</time>
      </trkpt>
      <trkpt lat="49.58974" lon="0.17537">
        <ele>100.9</ele>
        <time>2020-06-17T18:13:20Z</time>
      </trkpt>
      <trkpt lat="49.58978" lon="0.17533">
        <ele>100.8</ele>
        <time>2020-06-17T18:13:21Z</time>
      </trkpt>
      <trkpt lat="49.58983" lon="0.17531">
        <ele>100.7</ele>
        <time>2020-06-17T18:13:22Z</time>
      </trkpt>
      <trkpt lat="49.58988" lon="0.17528">
        <ele>100.6</ele>
        <time>2020-06-17T18:13:23Z</time>
      </trkpt>
      <trkpt lat="49.58993" lon="0.17525">
        <ele>100.5</ele>
        <time>2020-06-17T18:13:24Z</time>
      </trkpt>
      <trkpt lat="49.58997" lon="0.17522">
        <ele>100.5</ele>
        <time>2020-06-17T18:13:25Z</time>
      </trkpt>
      <trkpt lat="49.59001" lon="0.1752">
        <ele>100.4</ele>
        <time>2020-06-17T18:13:26Z</time>
      </trkpt>
      <trkpt lat="49.59006" lon="0.17518">
        <ele>100.3</ele>
        <time>2020-06-17T18:13:27Z</time>
      </trkpt>
      <trkpt lat="49.5901" lon="0.17516">
        <ele>100.2</ele>
        <time>2020-06-17T18:13:28Z</time>
      </trkpt>
      <trkpt lat="49.59015" lon="0.17514">
        <ele>100.1</ele>
        <time>2020-06-17T18:13:29Z</time>
      </trkpt>
      <trkpt lat="49.59019" lon="0.17511">
        <ele>100</ele>
        <time>2020-06-17T18:13:30Z</time>
      </trkpt>
      <trkpt lat="49.59023" lon="0.1751">
        <ele>99.9</ele>
        <time>2020-06-17T18:13:31Z</time>
      </trkpt>
      <trkpt lat="49.59028" lon="0.17508">
        <ele>99.9</ele>
        <time>2020-06-17T18:13:32Z</time>
      </trkpt>
      <trkpt lat="49.59031" lon="0.17506">
        <ele>99.8</ele>
        <time>2020-06-17T18:13:33Z</time>
      </trkpt>
      <trkpt lat="49.59036" lon="0.17503">
        <ele>99.7</ele>
        <time>2020-06-17T18:13:34Z</time>
      </trkpt>
      <trkpt lat="49.5904" lon="0.17502">
        <ele>99.6</ele>
        <time>2020-06-17T18:13:35Z</time>
      </trkpt>
      <trkpt lat="49.59044" lon="0.17501">
        <ele>99.5</ele>
        <time>2020-06-17T18:13:36Z</time>
      </trkpt>
      <trkpt lat="49.59048" lon="0.17499">
        <ele>99.5</ele>
        <time>2020-06-17T18:13:37Z</time>
      </trkpt>
      <trkpt lat="49.59052" lon="0.17497">
        <ele>99.5</ele>
        <time>2020-06-17T18:13:38Z</time>
      </trkpt>
      <trkpt lat="49.59056" lon="0.17494">
        <ele>99.4</ele>
        <time>2020-06-17T18:13:39Z</time>
      </trkpt>
      <trkpt lat="49.5906" lon="0.17493">
        <ele>99.4</ele>
        <time>2020-06-17T18:13:40Z</time>
      </trkpt>
      <trkpt lat="49.59064" lon="0.17491">
        <ele>99.4</ele>
        <time>2020-06-17T18:13:41Z</time>
      </trkpt>
      <trkpt lat="49.59069" lon="0.17489">
        <ele>99.3</ele>
        <time>2020-06-17T18:13:42Z</time>
      </trkpt>
      <trkpt lat="49.59075" lon="0.17486">
        <ele>99.2</ele>
        <time>2020-06-17T18:13:43Z</time>
      </trkpt>
      <trkpt lat="49.5908" lon="0.17483">
        <ele>99.2</ele>
        <time>2020-06-17T18:13:44Z</time>
      </trkpt>
      <trkpt lat="49.59085" lon="0.17482">
        <ele>99.1</ele>
        <time>2020-06-17T18:13:45Z</time>
      </trkpt>
      <trkpt lat="49.59091" lon="0.17481">
        <ele>99</ele>
        <time>2020-06-17T18:13:46Z</time>
      </trkpt>
      <trkpt lat="49.59096" lon="0.17479">
        <ele>99</ele>
        <time>2020-06-17T18:13:47Z</time>
      </trkpt>
      <trkpt lat="49.59101" lon="0.17479">
        <ele>98.9</ele>
        <time>2020-06-17T18:13:48Z</time>
      </trkpt>
      <trkpt lat="49.59105" lon="0.17478">
        <ele>98.8</ele>
        <time>2020-06-17T18:13:49Z</time>
      </trkpt>
      <trkpt lat="49.5911" lon="0.17478">
        <ele>98.7</ele>
        <time>2020-06-17T18:13:50Z</time>
      </trkpt>
      <trkpt lat="49.59117" lon="0.17477">
        <ele>98.5</ele>
        <time>2020-06-17T18:13:51Z</time>
      </trkpt>
      <trkpt lat="49.59123" lon="0.17476">
        <ele>98.4</ele>
        <time>2020-06-17T18:13:52Z</time>
      </trkpt>
      <trkpt lat="49.59129" lon="0.17476">
        <ele>98.2</ele>
        <time>2020-06-17T18:13:53Z</time>
      </trkpt>
      <trkpt lat="49.59134" lon="0.17475">
        <ele>98.1</ele>
        <time>2020-06-17T18:13:54Z</time>
      </trkpt>
      <trkpt lat="49.5914" lon="0.17475">
        <ele>98</ele>
        <time>2020-06-17T18:13:55Z</time>
      </trkpt>
      <trkpt lat="49.59145" lon="0.17475">
        <ele>97.9</ele>
        <time>2020-06-17T18:13:56Z</time>
      </trkpt>
      <trkpt lat="49.5915" lon="0.17475">
        <ele>97.8</ele>
        <time>2020-06-17T18:13:57Z</time>
      </trkpt>
      <trkpt lat="49.59155" lon="0.17475">
        <ele>97.7</ele>
        <time>2020-06-17T18:13:58Z</time>
      </trkpt>
      <trkpt lat="49.59162" lon="0.17475">
        <ele>97.6</ele>
        <time>2020-06-17T18:13:59Z</time>
      </trkpt>
      <trkpt lat="49.59167" lon="0.17476">
        <ele>97.5</ele>
        <time>2020-06-17T18:14:00Z</time>
      </trkpt>
      <trkpt lat="49.59172" lon="0.17477">
        <ele>97.5</ele>
        <time>2020-06-17T18:14:01Z</time>
      </trkpt>
      <trkpt lat="49.59177" lon="0.17479">
        <ele>97.4</ele>
        <time>2020-06-17T18:14:02Z</time>
      </trkpt>
      <trkpt lat="49.59183" lon="0.1748">
        <ele>97.3</ele>
        <time>2020-06-17T18:14:03Z</time>
      </trkpt>
      <trkpt lat="49.59188" lon="0.17482">
        <ele>97.2</ele>
        <time>2020-06-17T18:14:04Z</time>
      </trkpt>
      <trkpt lat="49.59193" lon="0.17485">
        <ele>97.1</ele>
        <time>2020-06-17T18:14:05Z</time>
      </trkpt>
      <trkpt lat="49.59198" lon="0.17487">
        <ele>97</ele>
        <time>2020-06-17T18:14:06Z</time>
      </trkpt>
      <trkpt lat="49.59202" lon="0.1749">
        <ele>96.9</ele>
        <time>2020-06-17T18:14:07Z</time>
      </trkpt>
      <trkpt lat="49.59208" lon="0.17493">
        <ele>96.8</ele>
        <time>2020-06-17T18:14:08Z</time>
      </trkpt>
      <trkpt lat="49.59213" lon="0.17496">
        <ele>96.7</ele>
        <time>2020-06-17T18:14:09Z</time>
      </trkpt>
      <trkpt lat="49.59217" lon="0.175">
        <ele>96.7</ele>
        <time>2020-06-17T18:14:10Z</time>
      </trkpt>
      <trkpt lat="49.59222" lon="0.17504">
        <ele>96.6</ele>
        <time>2020-06-17T18:14:11Z</time>
      </trkpt>
      <trkpt lat="49.59227" lon="0.17508">
        <ele>96.6</ele>
        <time>2020-06-17T18:14:12Z</time>
      </trkpt>
      <trkpt lat="49.59231" lon="0.17514">
        <ele>96.5</ele>
        <time>2020-06-17T18:14:13Z</time>
      </trkpt>
      <trkpt lat="49.59235" lon="0.17518">
        <ele>96.5</ele>
        <time>2020-06-17T18:14:14Z</time>
      </trkpt>
      <trkpt lat="49.5924" lon="0.17522">
        <ele>96.4</ele>
        <time>2020-06-17T18:14:15Z</time>
      </trkpt>
      <trkpt lat="49.59244" lon="0.17527">
        <ele>96.4</ele>
        <time>2020-06-17T18:14:16Z</time>
      </trkpt>
      <trkpt lat="49.59247" lon="0.1753">
        <ele>96.3</ele>
        <time>2020-06-17T18:14:17Z</time>
      </trkpt>
      <trkpt lat="49.59252" lon="0.17535">
        <ele>96.2</ele>
        <time>2020-06-17T18:14:18Z</time>
      </trkpt>
      <trkpt lat="49.59254" lon="0.17539">
        <ele>96.2</ele>
        <time>2020-06-17T18:14:19Z</time>
      </trkpt>
      <trkpt lat="49.59257" lon="0.17543">
        <ele>96.1</ele>
        <time>2020-06-17T18:14:20Z</time>
      </trkpt>
      <trkpt lat="49.5926" lon="0.17547">
        <ele>96.1</ele>
        <time>2020-06-17T18:14:21Z</time>
      </trkpt>
      <trkpt lat="49.59262" lon="0.1755">
        <ele>96</ele>
        <time>2020-06-17T18:14:22Z</time>
      </trkpt>
      <trkpt lat="49.59265" lon="0.17553">
        <ele>96</ele>
        <time>2020-06-17T18:14:23Z</time>
      </trkpt>
      <trkpt lat="49.59269" lon="0.17556">
        <ele>95.9</ele>
        <time>2020-06-17T18:14:24Z</time>
      </trkpt>
      <trkpt lat="49.59272" lon="0.17559">
        <ele>95.8</ele>
        <time>2020-06-17T18:14:25Z</time>
      </trkpt>
      <trkpt lat="49.59277" lon="0.17563">
        <ele>95.7</ele>
        <time>2020-06-17T18:14:26Z</time>
      </trkpt>
      <trkpt lat="49.59281" lon="0.17567">
        <ele>95.6</ele>
        <time>2020-06-17T18:14:27Z</time>
      </trkpt>
      <trkpt lat="49.59286" lon="0.17571">
        <ele>95.5</ele>
        <time>2020-06-17T18:14:28Z</time>
      </trkpt>
      <trkpt lat="49.59291" lon="0.17575">
        <ele>95.3</ele>
        <time>2020-06-17T18:14:29Z</time>
      </trkpt>
      <trkpt lat="49.59296" lon="0.1758">
        <ele>95.2</ele>
        <time>2020-06-17T18:14:30Z</time>
      </trkpt>
      <trkpt lat="49.59301" lon="0.17585">
        <ele>95.1</ele>
        <time>2020-06-17T18:14:31Z</time>
      </trkpt>
      <trkpt lat="49.59307" lon="0.1759">
        <ele>95</ele>
        <time>2020-06-17T18:14:32Z</time>
      </trkpt>
      <trkpt lat="49.59311" lon="0.17594">
        <ele>94.9</ele>
        <time>2020-06-17T18:14:33Z</time>
      </trkpt>
      <trkpt lat="49.59316" lon="0.17599">
        <ele>94.8</ele>
        <time>2020-06-17T18:14:34Z</time>
      </trkpt>
      <trkpt lat="49.59321" lon="0.17602">
        <ele>94.7</ele>
        <time>2020-06-17T18:14:35Z</time>
      </trkpt>
      <trkpt lat="49.59326" lon="0.17604">
        <ele>94.7</ele>
        <time>2020-06-17T18:14:36Z</time>
      </trkpt>
      <trkpt lat="49.59331" lon="0.17607">
        <ele>94.7</ele>
        <time>2020-06-17T18:14:37Z</time>
      </trkpt>
      <trkpt lat="49.59337" lon="0.1761">
        <ele>94.7</ele>
        <time>2020-06-17T18:14:38Z</time>
      </trkpt>
      <trkpt lat="49.59343" lon="0.17612">
        <ele>94.7</ele>
        <time>2020-06-17T18:14:39Z</time>
      </trkpt>
      <trkpt lat="49.59349" lon="0.17614">
        <ele>94.8</ele>
        <time>2020-06-17T18:14:40Z</time>
      </trkpt>
      <trkpt lat="49.59354" lon="0.17616">
        <ele>94.9</ele>
        <time>2020-06-17T18:14:41Z</time>
      </trkpt>
      <trkpt lat="49.5936" lon="0.17618">
        <ele>94.9</ele>
        <time>2020-06-17T18:14:42Z</time>
      </trkpt>
      <trkpt lat="49.59365" lon="0.17621">
        <ele>95</ele>
        <time>2020-06-17T18:14:43Z</time>
      </trkpt>
      <trkpt lat="49.5937" lon="0.17623">
        <ele>95.1</ele>
        <time>2020-06-17T18:14:44Z</time>
      </trkpt>
      <trkpt lat="49.59375" lon="0.17625">
        <ele>95.3</ele>
        <time>2020-06-17T18:14:45Z</time>
      </trkpt>
      <trkpt lat="49.5938" lon="0.17627">
        <ele>95.4</ele>
        <time>2020-06-17T18:14:46Z</time>
      </trkpt>
      <trkpt lat="49.59385" lon="0.17628">
        <ele>95.6</ele>
        <time>2020-06-17T18:14:47Z</time>
      </trkpt>
      <trkpt lat="49.5939" lon="0.17629">
        <ele>95.8</ele>
        <time>2020-06-17T18:14:48Z</time>
      </trkpt>
      <trkpt lat="49.59395" lon="0.17631">
        <ele>95.9</ele>
        <time>2020-06-17T18:14:49Z</time>
      </trkpt>
      <trkpt lat="49.594" lon="0.17633">
        <ele>96.1</ele>
        <time>2020-06-17T18:14:50Z</time>
      </trkpt>
      <trkpt lat="49.59405" lon="0.17636">
        <ele>96.3</ele>
        <time>2020-06-17T18:14:51Z</time>
      </trkpt>
      <trkpt lat="49.5941" lon="0.17639">
        <ele>96.5</ele>
        <time>2020-06-17T18:14:52Z</time>
      </trkpt>
      <trkpt lat="49.59415" lon="0.17642">
        <ele>96.7</ele>
        <time>2020-06-17T18:14:53Z</time>
      </trkpt>
      <trkpt lat="49.59419" lon="0.17646">
        <ele>96.9</ele>
        <time>2020-06-17T18:14:54Z</time>
      </trkpt>
      <trkpt lat="49.59424" lon="0.17649">
        <ele>97.1</ele>
        <time>2020-06-17T18:14:55Z</time>
      </trkpt>
      <trkpt lat="49.59428" lon="0.17651">
        <ele>97.2</ele>
        <time>2020-06-17T18:14:56Z</time>
      </trkpt>
      <trkpt lat="49.59432" lon="0.17654">
        <ele>97.4</ele>
        <time>2020-06-17T18:14:57Z</time>
      </trkpt>
      <trkpt lat="49.59436" lon="0.17657">
        <ele>97.5</ele>
        <time>2020-06-17T18:14:58Z</time>
      </trkpt>
      <trkpt lat="49.5944" lon="0.17659">
        <ele>97.7</ele>
        <time>2020-06-17T18:14:59Z</time>
      </trkpt>
      <trkpt lat="49.59444" lon="0.17663">
        <ele>97.8</ele>
        <time>2020-06-17T18:15:00Z</time>
      </trkpt>
      <trkpt lat="49.59449" lon="0.17666">
        <ele>97.9</ele>
        <time>2020-06-17T18:15:01Z</time>
      </trkpt>
      <trkpt lat="49.59453" lon="0.17669">
        <ele>98</ele>
        <time>2020-06-17T18:15:02Z</time>
      </trkpt>
      <trkpt lat="49.59457" lon="0.17672">
        <ele>98.1</ele>
        <time>2020-06-17T18:15:03Z</time>
      </trkpt>
      <trkpt lat="49.5946" lon="0.17674">
        <ele>98.1</ele>
        <time>2020-06-17T18:15:04Z</time>
      </trkpt>
      <trkpt lat="49.59463" lon="0.17675">
        <ele>98.2</ele>
        <time>2020-06-17T18:15:05Z</time>
      </trkpt>
      <trkpt lat="49.59466" lon="0.17675">
        <ele>98.2</ele>
        <time>2020-06-17T18:15:06Z</time>
      </trkpt>
      <trkpt lat="49.5947" lon="0.17675">
        <ele>98.3</ele>
        <time>2020-06-17T18:15:07Z</time>
      </trkpt>
      <trkpt lat="49.59473" lon="0.17675">
        <ele>98.3</ele>
        <time>2020-06-17T18:15:08Z</time>
      </trkpt>
      <trkpt lat="49.59476" lon="0.17673">
        <ele>98.3</ele>
        <time>2020-06-17T18:15:09Z</time>
      </trkpt>
      <trkpt lat="49.5948" lon="0.17669">
        <ele>98.4</ele>
        <time>2020-06-17T18:15:10Z</time>
      </trkpt>
      <trkpt lat="49.59484" lon="0.17667">
        <ele>98.4</ele>
        <time>2020-06-17T18:15:11Z</time>
      </trkpt>
      <trkpt lat="49.59488" lon="0.17663">
        <ele>98.4</ele>
        <time>2020-06-17T18:15:12Z</time>
      </trkpt>
      <trkpt lat="49.59492" lon="0.17661">
        <ele>98.5</ele>
        <time>2020-06-17T18:15:13Z</time>
      </trkpt>
      <trkpt lat="49.59495" lon="0.17659">
        <ele>98.5</ele>
        <time>2020-06-17T18:15:14Z</time>
      </trkpt>
      <trkpt lat="49.59498" lon="0.17656">
        <ele>98.5</ele>
        <time>2020-06-17T18:15:15Z</time>
      </trkpt>
      <trkpt lat="49.59502" lon="0.17652">
        <ele>98.5</ele>
        <time>2020-06-17T18:15:16Z</time>
      </trkpt>
      <trkpt lat="49.59506" lon="0.17648">
        <ele>98.5</ele>
        <time>2020-06-17T18:15:17Z</time>
      </trkpt>
      <trkpt lat="49.5951" lon="0.17645">
        <ele>98.5</ele>
        <time>2020-06-17T18:15:18Z</time>
      </trkpt>
      <trkpt lat="49.59514" lon="0.17643">
        <ele>98.5</ele>
        <time>2020-06-17T18:15:19Z</time>
      </trkpt>
      <trkpt lat="49.59518" lon="0.17642">
        <ele>98.5</ele>
        <time>2020-06-17T18:15:20Z</time>
      </trkpt>
      <trkpt lat="49.59523" lon="0.17642">
        <ele>98.5</ele>
        <time>2020-06-17T18:15:21Z</time>
      </trkpt>
      <trkpt lat="49.59526" lon="0.17642">
        <ele>98.5</ele>
        <time>2020-06-17T18:15:22Z</time>
      </trkpt>
      <trkpt lat="49.5953" lon="0.1764">
        <ele>98.5</ele>
        <time>2020-06-17T18:15:23Z</time>
      </trkpt>
      <trkpt lat="49.59534" lon="0.17638">
        <ele>98.5</ele>
        <time>2020-06-17T18:15:24Z</time>
      </trkpt>
      <trkpt lat="49.59537" lon="0.17636">
        <ele>98.5</ele>
        <time>2020-06-17T18:15:25Z</time>
      </trkpt>
      <trkpt lat="49.5954" lon="0.17637">
        <ele>98.5</ele>
        <time>2020-06-17T18:15:26Z</time>
      </trkpt>
      <trkpt lat="49.59544" lon="0.17636">
        <ele>98.5</ele>
        <time>2020-06-17T18:15:27Z</time>
      </trkpt>
      <trkpt lat="49.59547" lon="0.17635">
        <ele>98.5</ele>
        <time>2020-06-17T18:15:28Z</time>
      </trkpt>
      <trkpt lat="49.59549" lon="0.17634">
        <ele>98.5</ele>
        <time>2020-06-17T18:15:29Z</time>
      </trkpt>
      <trkpt lat="49.59551" lon="0.17632">
        <ele>98.5</ele>
        <time>2020-06-17T18:15:30Z</time>
      </trkpt>
      <trkpt lat="49.59556" lon="0.17631">
        <ele>98.5</ele>
        <time>2020-06-17T18:15:31Z</time>
      </trkpt>
      <trkpt lat="49.59557" lon="0.17631">
        <ele>98.5</ele>
        <time>2020-06-17T18:15:32Z</time>
      </trkpt>
      <trkpt lat="49.5956" lon="0.1763">
        <ele>98.5</ele>
        <time>2020-06-17T18:15:33Z</time>
      </trkpt>
      <trkpt lat="49.59561" lon="0.1763">
        <ele>98.5</ele>
        <time>2020-06-17T18:15:34Z</time>
      </trkpt>
      <trkpt lat="49.59563" lon="0.17629">
        <ele>98.5</ele>
        <time>2020-06-17T18:15:35Z</time>
      </trkpt>
      <trkpt lat="49.59563" lon="0.17629">
        <ele>98.5</ele>
        <time>2020-06-17T18:15:36Z</time>
      </trkpt>
      <trkpt lat="49.59564" lon="0.17628">
        <ele>98.5</ele>
        <time>2020-06-17T18:15:37Z</time>
      </trkpt>
      <trkpt lat="49.59564" lon="0.17628">
        <ele>98.5</ele>
        <time>2020-06-17T18:15:38Z</time>
      </trkpt>
      <trkpt lat="49.59564" lon="0.17628">
        <ele>98.5</ele>
        <time>2020-06-17T18:15:39Z</time>
      </trkpt>
      <trkpt lat="49.59564" lon="0.17628">
        <ele>98.5</ele>
        <time>2020-06-17T18:15:40Z</time>
      </trkpt>
      <trkpt lat="49.59565" lon="0.17627">
        <ele>98.5</ele>
        <time>2020-06-17T18:15:41Z</time>
      </trkpt>
      <trkpt lat="49.59565" lon="0.17627">
        <ele>98.5</ele>
        <time>2020-06-17T18:15:42Z</time>
      </trkpt>
      <trkpt lat="49.59565" lon="0.17627">
        <ele>98.5</ele>
        <time>2020-06-17T18:15:43Z</time>
      </trkpt>
      <trkpt lat="49.59565" lon="0.17627">
        <ele>98.5</ele>
        <time>2020-06-17T18:15:44Z</time>
      </trkpt>
      <trkpt lat="49.59566" lon="0.17626">
        <ele>98.5</ele>
        <time>2020-06-17T18:15:45Z</time>
      </trkpt>
      <trkpt lat="49.59566" lon="0.17626">
        <ele>98.5</ele>
        <time>2020-06-17T18:15:46Z</time>
      </trkpt>
      <trkpt lat="49.59566" lon="0.17626">
        <ele>98.5</ele>
        <time>2020-06-17T18:15:47Z</time>
      </trkpt>
      <trkpt lat="49.59566" lon="0.17626">
        <ele>98.5</ele>
        <time>2020-06-17T18:15:48Z</time>
      </trkpt>
      <trkpt lat="49.59567" lon="0.17625">
        <ele>98.5</ele>
        <time>2020-06-17T18:15:49Z</time>
      </trkpt>
      <trkpt lat="49.59567" lon="0.17625">
        <ele>98.5</ele>
        <time>2020-06-17T18:15:50Z</time>
      </trkpt>
      <trkpt lat="49.59567" lon="0.17625">
        <ele>98.5</ele>
        <time>2020-06-17T18:15:51Z</time>
      </trkpt>
      <trkpt lat="49.59567" lon="0.17625">
        <ele>98.5</ele>
        <time>2020-06-17T18:15:52Z</time>
      </trkpt>
      <trkpt lat="49.59568" lon="0.17624">
        <ele>98.5</ele>
        <time>2020-06-17T18:15:53Z</time>
      </trkpt>
      <trkpt lat="49.59568" lon="0.17624">
        <ele>98.5</ele>
        <time>2020-06-17T18:15:54Z</time>
      </trkpt>
      <trkpt lat="49.59568" lon="0.17624">
        <ele>98.5</ele>
        <time>2020-06-17T18:15:55Z</time>
      </trkpt>
      <trkpt lat="49.59568" lon="0.17624">
        <ele>98.5</ele>
        <time>2020-06-17T18:16:06Z</time>
      </trkpt>
      <trkpt lat="49.59569" lon="0.17623">
        <ele>98.5</ele>
        <time>2020-06-17T18:16:07Z</time>
      </trkpt>
      <trkpt lat="49.59572" lon="0.17619">
        <ele>98.5</ele>
        <time>2020-06-17T18:16:08Z</time>
      </trkpt>
      <trkpt lat="49.59573" lon="0.17618">
        <ele>98.4</ele>
        <time>2020-06-17T18:16:09Z</time>
      </trkpt>
      <trkpt lat="49.59575" lon="0.17614">
        <ele>98.4</ele>
        <time>2020-06-17T18:16:10Z</time>
      </trkpt>
      <trkpt lat="49.59578" lon="0.17613">
        <ele>98.4</ele>
        <time>2020-06-17T18:16:11Z</time>
      </trkpt>
      <trkpt lat="49.59579" lon="0.17613">
        <ele>98.4</ele>
        <time>2020-06-17T18:16:12Z</time>
      </trkpt>
      <trkpt lat="49.5958" lon="0.17614">
        <ele>98.4</ele>
        <time>2020-06-17T18:16:13Z</time>
      </trkpt>
      <trkpt lat="49.59582" lon="0.17616">
        <ele>98.4</ele>
        <time>2020-06-17T18:16:14Z</time>
      </trkpt>
      <trkpt lat="49.59581" lon="0.17618">
        <ele>98.4</ele>
        <time>2020-06-17T18:16:15Z</time>
      </trkpt>
      <trkpt lat="49.59581" lon="0.1762">
        <ele>98.4</ele>
        <time>2020-06-17T18:16:16Z</time>
      </trkpt>
      <trkpt lat="49.59578" lon="0.17622">
        <ele>98.3</ele>
        <time>2020-06-17T18:16:17Z</time>
      </trkpt>
      <trkpt lat="49.59577" lon="0.17623">
        <ele>98.3</ele>
        <time>2020-06-17T18:16:18Z</time>
      </trkpt>
      <trkpt lat="49.59574" lon="0.17627">
        <ele>98.3</ele>
        <time>2020-06-17T18:16:19Z</time>
      </trkpt>
      <trkpt lat="49.59573" lon="0.17628">
        <ele>98.3</ele>
        <time>2020-06-17T18:16:20Z</time>
      </trkpt>
      <trkpt lat="49.59571" lon="0.17631">
        <ele>98.3</ele>
        <time>2020-06-17T18:16:21Z</time>
      </trkpt>
      <trkpt lat="49.59569" lon="0.17634">
        <ele>98.2</ele>
        <time>2020-06-17T18:16:22Z</time>
      </trkpt>
      <trkpt lat="49.59568" lon="0.17635">
        <ele>98.2</ele>
        <time>2020-06-17T18:16:23Z</time>
      </trkpt>
      <trkpt lat="49.59565" lon="0.17638">
        <ele>98.2</ele>
        <time>2020-06-17T18:16:24Z</time>
      </trkpt>
      <trkpt lat="49.59565" lon="0.17639">
        <ele>98.2</ele>
        <time>2020-06-17T18:16:25Z</time>
      </trkpt>
      <trkpt lat="49.59564" lon="0.1764">
        <ele>98.2</ele>
        <time>2020-06-17T18:16:26Z</time>
      </trkpt>
      <trkpt lat="49.59563" lon="0.17641">
        <ele>98.2</ele>
        <time>2020-06-17T18:16:27Z</time>
      </trkpt>
      <trkpt lat="49.59563" lon="0.17641">
        <ele>98.2</ele>
        <time>2020-06-17T18:16:28Z</time>
      </trkpt>
      <trkpt lat="49.59563" lon="0.17642">
        <ele>98.2</ele>
        <time>2020-06-17T18:16:29Z</time>
      </trkpt>
      <trkpt lat="49.59562" lon="0.17643">
        <ele>98.1</ele>
        <time>2020-06-17T18:16:30Z</time>
      </trkpt>
      <trkpt lat="49.59562" lon="0.17643">
        <ele>98.1</ele>
        <time>2020-06-17T18:16:31Z</time>
      </trkpt>
      <trkpt lat="49.59562" lon="0.17643">
        <ele>98.1</ele>
        <time>2020-06-17T18:16:32Z</time>
      </trkpt>
      <trkpt lat="49.59562" lon="0.17643">
        <ele>98.1</ele>
        <time>2020-06-17T18:16:33Z</time>
      </trkpt>
      <trkpt lat="49.59561" lon="0.17645">
        <ele>98.1</ele>
        <time>2020-06-17T18:16:34Z</time>
      </trkpt>
      <trkpt lat="49.59561" lon="0.17645">
        <ele>98.1</ele>
        <time>2020-06-17T18:16:35Z</time>
      </trkpt>
      <trkpt lat="49.59561" lon="0.17645">
        <ele>98.1</ele>
        <time>2020-06-17T18:16:36Z</time>
      </trkpt>
      <trkpt lat="49.59561" lon="0.17645">
        <ele>98.1</ele>
        <time>2020-06-17T18:16:37Z</time>
      </trkpt>
      <trkpt lat="49.59561" lon="0.17645">
        <ele>98.1</ele>
        <time>2020-06-17T18:16:38Z</time>
      </trkpt>
      <trkpt lat="49.59567" lon="0.17633">
        <ele>98</ele>
        <time>2020-06-17T18:21:47Z</time>
      </trkpt>
      <trkpt lat="49.59569" lon="0.1763">
        <ele>98</ele>
        <time>2020-06-17T18:21:48Z</time>
      </trkpt>
      <trkpt lat="49.59571" lon="0.17627">
        <ele>97.9</ele>
        <time>2020-06-17T18:21:49Z</time>
      </trkpt>
      <trkpt lat="49.59574" lon="0.17625">
        <ele>97.9</ele>
        <time>2020-06-17T18:21:50Z</time>
      </trkpt>
      <trkpt lat="49.59575" lon="0.17625">
        <ele>97.9</ele>
        <time>2020-06-17T18:21:51Z</time>
      </trkpt>
      <trkpt lat="49.59578" lon="0.17622">
        <ele>97.9</ele>
        <time>2020-06-17T18:21:52Z</time>
      </trkpt>
      <trkpt lat="49.59579" lon="0.17621">
        <ele>97.8</ele>
        <time>2020-06-17T18:21:53Z</time>
      </trkpt>
      <trkpt lat="49.59581" lon="0.17617">
        <ele>97.8</ele>
        <time>2020-06-17T18:21:54Z</time>
      </trkpt>
      <trkpt lat="49.59585" lon="0.17616">
        <ele>97.8</ele>
        <time>2020-06-17T18:21:55Z</time>
      </trkpt>
      <trkpt lat="49.59586" lon="0.17616">
        <ele>97.8</ele>
        <time>2020-06-17T18:21:56Z</time>
      </trkpt>
      <trkpt lat="49.59588" lon="0.17612">
        <ele>97.7</ele>
        <time>2020-06-17T18:21:57Z</time>
      </trkpt>
      <trkpt lat="49.59589" lon="0.17611">
        <ele>97.7</ele>
        <time>2020-06-17T18:21:58Z</time>
      </trkpt>
      <trkpt lat="49.59593" lon="0.17609">
        <ele>97.7</ele>
        <time>2020-06-17T18:21:59Z</time>
      </trkpt>
      <trkpt lat="49.59594" lon="0.17608">
        <ele>97.7</ele>
        <time>2020-06-17T18:22:00Z</time>
      </trkpt>
      <trkpt lat="49.59597" lon="0.17605">
        <ele>97.6</ele>
        <time>2020-06-17T18:22:01Z</time>
      </trkpt>
      <trkpt lat="49.59598" lon="0.17604">
        <ele>97.6</ele>
        <time>2020-06-17T18:22:02Z</time>
      </trkpt>
      <trkpt lat="49.59601" lon="0.17602">
        <ele>97.6</ele>
        <time>2020-06-17T18:22:03Z</time>
      </trkpt>
      <trkpt lat="49.59604" lon="0.17601">
        <ele>97.6</ele>
        <time>2020-06-17T18:22:04Z</time>
      </trkpt>
      <trkpt lat="49.59608" lon="0.17599">
        <ele>97.6</ele>
        <time>2020-06-17T18:22:05Z</time>
      </trkpt>
      <trkpt lat="49.59612" lon="0.17596">
        <ele>97.5</ele>
        <time>2020-06-17T18:22:06Z</time>
      </trkpt>
      <trkpt lat="49.59615" lon="0.17597">
        <ele>97.4</ele>
        <time>2020-06-17T18:22:07Z</time>
      </trkpt>
      <trkpt lat="49.59619" lon="0.17597">
        <ele>97.3</ele>
        <time>2020-06-17T18:22:08Z</time>
      </trkpt>
      <trkpt lat="49.59622" lon="0.17597">
        <ele>97.2</ele>
        <time>2020-06-17T18:22:09Z</time>
      </trkpt>
      <trkpt lat="49.59627" lon="0.17597">
        <ele>97</ele>
        <time>2020-06-17T18:22:10Z</time>
      </trkpt>
      <trkpt lat="49.59632" lon="0.17597">
        <ele>96.9</ele>
        <time>2020-06-17T18:22:11Z</time>
      </trkpt>
      <trkpt lat="49.59637" lon="0.17597">
        <ele>96.7</ele>
        <time>2020-06-17T18:22:12Z</time>
      </trkpt>
      <trkpt lat="49.59642" lon="0.17598">
        <ele>96.5</ele>
        <time>2020-06-17T18:22:13Z</time>
      </trkpt>
      <trkpt lat="49.59647" lon="0.17598">
        <ele>96.3</ele>
        <time>2020-06-17T18:22:14Z</time>
      </trkpt>
      <trkpt lat="49.59652" lon="0.17598">
        <ele>96</ele>
        <time>2020-06-17T18:22:15Z</time>
      </trkpt>
      <trkpt lat="49.59659" lon="0.17599">
        <ele>95.8</ele>
        <time>2020-06-17T18:22:16Z</time>
      </trkpt>
      <trkpt lat="49.59665" lon="0.17599">
        <ele>95.5</ele>
        <time>2020-06-17T18:22:17Z</time>
      </trkpt>
      <trkpt lat="49.59673" lon="0.176">
        <ele>95.1</ele>
        <time>2020-06-17T18:22:18Z</time>
      </trkpt>
      <trkpt lat="49.5968" lon="0.17601">
        <ele>94.8</ele>
        <time>2020-06-17T18:22:19Z</time>
      </trkpt>
      <trkpt lat="49.59687" lon="0.17601">
        <ele>94.5</ele>
        <time>2020-06-17T18:22:20Z</time>
      </trkpt>
      <trkpt lat="49.59694" lon="0.176">
        <ele>94.2</ele>
        <time>2020-06-17T18:22:21Z</time>
      </trkpt>
      <trkpt lat="49.59703" lon="0.17599">
        <ele>93.9</ele>
        <time>2020-06-17T18:22:22Z</time>
      </trkpt>
      <trkpt lat="49.5971" lon="0.17599">
        <ele>93.6</ele>
        <time>2020-06-17T18:22:23Z</time>
      </trkpt>
      <trkpt lat="49.59718" lon="0.17599">
        <ele>93.3</ele>
        <time>2020-06-17T18:22:24Z</time>
      </trkpt>
      <trkpt lat="49.59725" lon="0.17599">
        <ele>93</ele>
        <time>2020-06-17T18:22:25Z</time>
      </trkpt>
      <trkpt lat="49.59732" lon="0.17599">
        <ele>92.8</ele>
        <time>2020-06-17T18:22:26Z</time>
      </trkpt>
      <trkpt lat="49.5974" lon="0.17597">
        <ele>92.5</ele>
        <time>2020-06-17T18:22:27Z</time>
      </trkpt>
      <trkpt lat="49.59749" lon="0.17594">
        <ele>92.3</ele>
        <time>2020-06-17T18:22:28Z</time>
      </trkpt>
      <trkpt lat="49.59756" lon="0.17591">
        <ele>92.1</ele>
        <time>2020-06-17T18:22:29Z</time>
      </trkpt>
      <trkpt lat="49.59764" lon="0.17588">
        <ele>91.9</ele>
        <time>2020-06-17T18:22:30Z</time>
      </trkpt>
      <trkpt lat="49.59772" lon="0.17585">
        <ele>91.6</ele>
        <time>2020-06-17T18:22:31Z</time>
      </trkpt>
      <trkpt lat="49.5978" lon="0.17582">
        <ele>91.5</ele>
        <time>2020-06-17T18:22:32Z</time>
      </trkpt>
      <trkpt lat="49.59786" lon="0.1758">
        <ele>91.4</ele>
        <time>2020-06-17T18:22:33Z</time>
      </trkpt>
      <trkpt lat="49.59793" lon="0.17576">
        <ele>91.4</ele>
        <time>2020-06-17T18:22:34Z</time>
      </trkpt>
      <trkpt lat="49.59802" lon="0.17572">
        <ele>91.3</ele>
        <time>2020-06-17T18:22:35Z</time>
      </trkpt>
      <trkpt lat="49.59809" lon="0.17568">
        <ele>91</ele>
        <time>2020-06-17T18:22:36Z</time>
      </trkpt>
      <trkpt lat="49.59816" lon="0.17566">
        <ele>90.9</ele>
        <time>2020-06-17T18:22:37Z</time>
      </trkpt>
      <trkpt lat="49.59823" lon="0.17563">
        <ele>90.8</ele>
        <time>2020-06-17T18:22:38Z</time>
      </trkpt>
      <trkpt lat="49.59829" lon="0.1756">
        <ele>90.6</ele>
        <time>2020-06-17T18:22:39Z</time>
      </trkpt>
      <trkpt lat="49.59836" lon="0.17558">
        <ele>90.4</ele>
        <time>2020-06-17T18:22:40Z</time>
      </trkpt>
      <trkpt lat="49.59843" lon="0.17555">
        <ele>90.2</ele>
        <time>2020-06-17T18:22:41Z</time>
      </trkpt>
      <trkpt lat="49.5985" lon="0.17553">
        <ele>90</ele>
        <time>2020-06-17T18:22:42Z</time>
      </trkpt>
      <trkpt lat="49.59857" lon="0.1755">
        <ele>89.8</ele>
        <time>2020-06-17T18:22:43Z</time>
      </trkpt>
      <trkpt lat="49.59865" lon="0.17547">
        <ele>89.5</ele>
        <time>2020-06-17T18:22:44Z</time>
      </trkpt>
      <trkpt lat="49.59872" lon="0.17544">
        <ele>89.3</ele>
        <time>2020-06-17T18:22:45Z</time>
      </trkpt>
      <trkpt lat="49.59879" lon="0.17541">
        <ele>89</ele>
        <time>2020-06-17T18:22:46Z</time>
      </trkpt>
      <trkpt lat="49.59887" lon="0.17537">
        <ele>88.7</ele>
        <time>2020-06-17T18:22:47Z</time>
      </trkpt>
      <trkpt lat="49.59894" lon="0.17533">
        <ele>88.5</ele>
        <time>2020-06-17T18:22:48Z</time>
      </trkpt>
      <trkpt lat="49.59902" lon="0.1753">
        <ele>88.3</ele>
        <time>2020-06-17T18:22:49Z</time>
      </trkpt>
      <trkpt lat="49.59909" lon="0.17526">
        <ele>88.1</ele>
        <time>2020-06-17T18:22:50Z</time>
      </trkpt>
      <trkpt lat="49.59915" lon="0.17523">
        <ele>88</ele>
        <time>2020-06-17T18:22:51Z</time>
      </trkpt>
      <trkpt lat="49.59921" lon="0.1752">
        <ele>87.9</ele>
        <time>2020-06-17T18:22:52Z</time>
      </trkpt>
      <trkpt lat="49.59926" lon="0.17517">
        <ele>87.7</ele>
        <time>2020-06-17T18:22:53Z</time>
      </trkpt>
      <trkpt lat="49.5993" lon="0.17514">
        <ele>87.6</ele>
        <time>2020-06-17T18:22:54Z</time>
      </trkpt>
      <trkpt lat="49.59935" lon="0.17511">
        <ele>87.5</ele>
        <time>2020-06-17T18:22:55Z</time>
      </trkpt>
      <trkpt lat="49.59939" lon="0.17508">
        <ele>87.4</ele>
        <time>2020-06-17T18:22:56Z</time>
      </trkpt>
      <trkpt lat="49.59943" lon="0.17505">
        <ele>87.3</ele>
        <time>2020-06-17T18:22:57Z</time>
      </trkpt>
      <trkpt lat="49.59946" lon="0.17501">
        <ele>87.2</ele>
        <time>2020-06-17T18:22:58Z</time>
      </trkpt>
      <trkpt lat="49.59951" lon="0.17497">
        <ele>87</ele>
        <time>2020-06-17T18:22:59Z</time>
      </trkpt>
      <trkpt lat="49.59956" lon="0.17493">
        <ele>86.8</ele>
        <time>2020-06-17T18:23:00Z</time>
      </trkpt>
      <trkpt lat="49.5996" lon="0.17489">
        <ele>86.7</ele>
        <time>2020-06-17T18:23:01Z</time>
      </trkpt>
      <trkpt lat="49.59965" lon="0.17484">
        <ele>86.6</ele>
        <time>2020-06-17T18:23:02Z</time>
      </trkpt>
      <trkpt lat="49.5997" lon="0.17479">
        <ele>86.4</ele>
        <time>2020-06-17T18:23:03Z</time>
      </trkpt>
      <trkpt lat="49.59975" lon="0.17474">
        <ele>86.3</ele>
        <time>2020-06-17T18:23:04Z</time>
      </trkpt>
      <trkpt lat="49.59981" lon="0.17467">
        <ele>86.2</ele>
        <time>2020-06-17T18:23:05Z</time>
      </trkpt>
      <trkpt lat="49.59986" lon="0.1746">
        <ele>86.1</ele>
        <time>2020-06-17T18:23:06Z</time>
      </trkpt>
      <trkpt lat="49.59991" lon="0.17455">
        <ele>86</ele>
        <time>2020-06-17T18:23:07Z</time>
      </trkpt>
      <trkpt lat="49.59996" lon="0.1745">
        <ele>85.9</ele>
        <time>2020-06-17T18:23:08Z</time>
      </trkpt>
      <trkpt lat="49.60001" lon="0.17445">
        <ele>85.8</ele>
        <time>2020-06-17T18:23:09Z</time>
      </trkpt>
      <trkpt lat="49.60006" lon="0.17439">
        <ele>85.7</ele>
        <time>2020-06-17T18:23:10Z</time>
      </trkpt>
      <trkpt lat="49.60011" lon="0.17432">
        <ele>85.7</ele>
        <time>2020-06-17T18:23:11Z</time>
      </trkpt>
      <trkpt lat="49.60016" lon="0.17427">
        <ele>85.6</ele>
        <time>2020-06-17T18:23:12Z</time>
      </trkpt>
      <trkpt lat="49.6002" lon="0.17421">
        <ele>85.6</ele>
        <time>2020-06-17T18:23:13Z</time>
      </trkpt>
      <trkpt lat="49.60024" lon="0.17415">
        <ele>85.6</ele>
        <time>2020-06-17T18:23:14Z</time>
      </trkpt>
      <trkpt lat="49.60028" lon="0.1741">
        <ele>85.6</ele>
        <time>2020-06-17T18:23:15Z</time>
      </trkpt>
      <trkpt lat="49.60032" lon="0.17406">
        <ele>85.6</ele>
        <time>2020-06-17T18:23:16Z</time>
      </trkpt>
      <trkpt lat="49.60037" lon="0.17401">
        <ele>85.6</ele>
        <time>2020-06-17T18:23:17Z</time>
      </trkpt>
      <trkpt lat="49.60041" lon="0.17397">
        <ele>85.6</ele>
        <time>2020-06-17T18:23:18Z</time>
      </trkpt>
      <trkpt lat="49.60047" lon="0.17394">
        <ele>85.6</ele>
        <time>2020-06-17T18:23:19Z</time>
      </trkpt>
      <trkpt lat="49.60052" lon="0.17392">
        <ele>85.6</ele>
        <time>2020-06-17T18:23:20Z</time>
      </trkpt>
      <trkpt lat="49.60057" lon="0.1739">
        <ele>85.6</ele>
        <time>2020-06-17T18:23:21Z</time>
      </trkpt>
      <trkpt lat="49.60062" lon="0.17389">
        <ele>85.6</ele>
        <time>2020-06-17T18:23:22Z</time>
      </trkpt>
      <trkpt lat="49.6007" lon="0.17388">
        <ele>85.6</ele>
        <time>2020-06-17T18:23:23Z</time>
      </trkpt>
      <trkpt lat="49.60078" lon="0.17387">
        <ele>85.6</ele>
        <time>2020-06-17T18:23:24Z</time>
      </trkpt>
      <trkpt lat="49.60085" lon="0.17387">
        <ele>85.6</ele>
        <time>2020-06-17T18:23:25Z</time>
      </trkpt>
      <trkpt lat="49.60092" lon="0.17389">
        <ele>85.6</ele>
        <time>2020-06-17T18:23:26Z</time>
      </trkpt>
      <trkpt lat="49.60099" lon="0.17392">
        <ele>85.6</ele>
        <time>2020-06-17T18:23:27Z</time>
      </trkpt>
      <trkpt lat="49.60105" lon="0.17395">
        <ele>85.6</ele>
        <time>2020-06-17T18:23:28Z</time>
      </trkpt>
      <trkpt lat="49.60112" lon="0.17397">
        <ele>85.6</ele>
        <time>2020-06-17T18:23:29Z</time>
      </trkpt>
      <trkpt lat="49.60118" lon="0.174">
        <ele>85.6</ele>
        <time>2020-06-17T18:23:30Z</time>
      </trkpt>
      <trkpt lat="49.60124" lon="0.17403">
        <ele>85.6</ele>
        <time>2020-06-17T18:23:31Z</time>
      </trkpt>
      <trkpt lat="49.60129" lon="0.17406">
        <ele>85.6</ele>
        <time>2020-06-17T18:23:32Z</time>
      </trkpt>
      <trkpt lat="49.60134" lon="0.17408">
        <ele>85.6</ele>
        <time>2020-06-17T18:23:33Z</time>
      </trkpt>
      <trkpt lat="49.6014" lon="0.17411">
        <ele>85.6</ele>
        <time>2020-06-17T18:23:34Z</time>
      </trkpt>
      <trkpt lat="49.60148" lon="0.17414">
        <ele>85.6</ele>
        <time>2020-06-17T18:23:35Z</time>
      </trkpt>
      <trkpt lat="49.60155" lon="0.17416">
        <ele>85.6</ele>
        <time>2020-06-17T18:23:36Z</time>
      </trkpt>
      <trkpt lat="49.60163" lon="0.17416">
        <ele>85.6</ele>
        <time>2020-06-17T18:23:37Z</time>
      </trkpt>
      <trkpt lat="49.60169" lon="0.17415">
        <ele>85.6</ele>
        <time>2020-06-17T18:23:38Z</time>
      </trkpt>
      <trkpt lat="49.60176" lon="0.17412">
        <ele>85.5</ele>
        <time>2020-06-17T18:23:39Z</time>
      </trkpt>
      <trkpt lat="49.60182" lon="0.17409">
        <ele>85.5</ele>
        <time>2020-06-17T18:23:40Z</time>
      </trkpt>
      <trkpt lat="49.60188" lon="0.17406">
        <ele>85.5</ele>
        <time>2020-06-17T18:23:41Z</time>
      </trkpt>
      <trkpt lat="49.60195" lon="0.17403">
        <ele>85.4</ele>
        <time>2020-06-17T18:23:42Z</time>
      </trkpt>
      <trkpt lat="49.60202" lon="0.17399">
        <ele>85.4</ele>
        <time>2020-06-17T18:23:43Z</time>
      </trkpt>
      <trkpt lat="49.60209" lon="0.17395">
        <ele>85.3</ele>
        <time>2020-06-17T18:23:44Z</time>
      </trkpt>
      <trkpt lat="49.60215" lon="0.17392">
        <ele>85.3</ele>
        <time>2020-06-17T18:23:45Z</time>
      </trkpt>
      <trkpt lat="49.60224" lon="0.17388">
        <ele>85.2</ele>
        <time>2020-06-17T18:23:46Z</time>
      </trkpt>
      <trkpt lat="49.60231" lon="0.17384">
        <ele>85.1</ele>
        <time>2020-06-17T18:23:47Z</time>
      </trkpt>
      <trkpt lat="49.60238" lon="0.1738">
        <ele>85</ele>
        <time>2020-06-17T18:23:48Z</time>
      </trkpt>
      <trkpt lat="49.60245" lon="0.17376">
        <ele>85</ele>
        <time>2020-06-17T18:23:49Z</time>
      </trkpt>
      <trkpt lat="49.60251" lon="0.17372">
        <ele>84.9</ele>
        <time>2020-06-17T18:23:50Z</time>
      </trkpt>
      <trkpt lat="49.60258" lon="0.17368">
        <ele>84.8</ele>
        <time>2020-06-17T18:23:51Z</time>
      </trkpt>
      <trkpt lat="49.60264" lon="0.17364">
        <ele>84.7</ele>
        <time>2020-06-17T18:23:52Z</time>
      </trkpt>
      <trkpt lat="49.6027" lon="0.1736">
        <ele>84.5</ele>
        <time>2020-06-17T18:23:53Z</time>
      </trkpt>
      <trkpt lat="49.60275" lon="0.17356">
        <ele>84.4</ele>
        <time>2020-06-17T18:23:54Z</time>
      </trkpt>
      <trkpt lat="49.60282" lon="0.17352">
        <ele>84.2</ele>
        <time>2020-06-17T18:23:55Z</time>
      </trkpt>
      <trkpt lat="49.60288" lon="0.1735">
        <ele>84</ele>
        <time>2020-06-17T18:23:56Z</time>
      </trkpt>
      <trkpt lat="49.60295" lon="0.17348">
        <ele>83.9</ele>
        <time>2020-06-17T18:23:57Z</time>
      </trkpt>
      <trkpt lat="49.60302" lon="0.17346">
        <ele>83.8</ele>
        <time>2020-06-17T18:23:58Z</time>
      </trkpt>
      <trkpt lat="49.6031" lon="0.17343">
        <ele>83.6</ele>
        <time>2020-06-17T18:23:59Z</time>
      </trkpt>
      <trkpt lat="49.60317" lon="0.17341">
        <ele>83.4</ele>
        <time>2020-06-17T18:24:00Z</time>
      </trkpt>
      <trkpt lat="49.60324" lon="0.17339">
        <ele>83.2</ele>
        <time>2020-06-17T18:24:01Z</time>
      </trkpt>
      <trkpt lat="49.60331" lon="0.17337">
        <ele>82.9</ele>
        <time>2020-06-17T18:24:02Z</time>
      </trkpt>
      <trkpt lat="49.60338" lon="0.17336">
        <ele>82.7</ele>
        <time>2020-06-17T18:24:03Z</time>
      </trkpt>
      <trkpt lat="49.60345" lon="0.17334">
        <ele>82.4</ele>
        <time>2020-06-17T18:24:04Z</time>
      </trkpt>
      <trkpt lat="49.60352" lon="0.17333">
        <ele>82.2</ele>
        <time>2020-06-17T18:24:05Z</time>
      </trkpt>
      <trkpt lat="49.6036" lon="0.17332">
        <ele>81.9</ele>
        <time>2020-06-17T18:24:06Z</time>
      </trkpt>
      <trkpt lat="49.60367" lon="0.1733">
        <ele>81.6</ele>
        <time>2020-06-17T18:24:07Z</time>
      </trkpt>
      <trkpt lat="49.60375" lon="0.17329">
        <ele>81.3</ele>
        <time>2020-06-17T18:24:08Z</time>
      </trkpt>
      <trkpt lat="49.60383" lon="0.17328">
        <ele>81</ele>
        <time>2020-06-17T18:24:09Z</time>
      </trkpt>
      <trkpt lat="49.6039" lon="0.17326">
        <ele>80.7</ele>
        <time>2020-06-17T18:24:10Z</time>
      </trkpt>
      <trkpt lat="49.60398" lon="0.17324">
        <ele>80.4</ele>
        <time>2020-06-17T18:24:11Z</time>
      </trkpt>
      <trkpt lat="49.60406" lon="0.17323">
        <ele>80.1</ele>
        <time>2020-06-17T18:24:12Z</time>
      </trkpt>
      <trkpt lat="49.60413" lon="0.17321">
        <ele>79.8</ele>
        <time>2020-06-17T18:24:13Z</time>
      </trkpt>
      <trkpt lat="49.60421" lon="0.1732">
        <ele>79.6</ele>
        <time>2020-06-17T18:24:14Z</time>
      </trkpt>
      <trkpt lat="49.60429" lon="0.17317">
        <ele>79.3</ele>
        <time>2020-06-17T18:24:15Z</time>
      </trkpt>
      <trkpt lat="49.60437" lon="0.17314">
        <ele>79.1</ele>
        <time>2020-06-17T18:24:16Z</time>
      </trkpt>
      <trkpt lat="49.60444" lon="0.1731">
        <ele>78.9</ele>
        <time>2020-06-17T18:24:17Z</time>
      </trkpt>
      <trkpt lat="49.60452" lon="0.17306">
        <ele>78.6</ele>
        <time>2020-06-17T18:24:18Z</time>
      </trkpt>
      <trkpt lat="49.60459" lon="0.17302">
        <ele>78.4</ele>
        <time>2020-06-17T18:24:19Z</time>
      </trkpt>
      <trkpt lat="49.60466" lon="0.17298">
        <ele>78.2</ele>
        <time>2020-06-17T18:24:20Z</time>
      </trkpt>
      <trkpt lat="49.60473" lon="0.17295">
        <ele>78</ele>
        <time>2020-06-17T18:24:21Z</time>
      </trkpt>
      <trkpt lat="49.6048" lon="0.17291">
        <ele>77.7</ele>
        <time>2020-06-17T18:24:22Z</time>
      </trkpt>
      <trkpt lat="49.60488" lon="0.17288">
        <ele>77.4</ele>
        <time>2020-06-17T18:24:23Z</time>
      </trkpt>
      <trkpt lat="49.60495" lon="0.17286">
        <ele>77.1</ele>
        <time>2020-06-17T18:24:24Z</time>
      </trkpt>
      <trkpt lat="49.60502" lon="0.17283">
        <ele>76.7</ele>
        <time>2020-06-17T18:24:25Z</time>
      </trkpt>
      <trkpt lat="49.6051" lon="0.17281">
        <ele>76.3</ele>
        <time>2020-06-17T18:24:26Z</time>
      </trkpt>
      <trkpt lat="49.60518" lon="0.17277">
        <ele>75.8</ele>
        <time>2020-06-17T18:24:27Z</time>
      </trkpt>
      <trkpt lat="49.60526" lon="0.17271">
        <ele>75.3</ele>
        <time>2020-06-17T18:24:28Z</time>
      </trkpt>
      <trkpt lat="49.60534" lon="0.17266">
        <ele>74.8</ele>
        <time>2020-06-17T18:24:29Z</time>
      </trkpt>
      <trkpt lat="49.60542" lon="0.1726">
        <ele>74.3</ele>
        <time>2020-06-17T18:24:30Z</time>
      </trkpt>
      <trkpt lat="49.60549" lon="0.17253">
        <ele>73.8</ele>
        <time>2020-06-17T18:24:31Z</time>
      </trkpt>
      <trkpt lat="49.60556" lon="0.17247">
        <ele>73.3</ele>
        <time>2020-06-17T18:24:32Z</time>
      </trkpt>
      <trkpt lat="49.60562" lon="0.1724">
        <ele>72.8</ele>
        <time>2020-06-17T18:24:33Z</time>
      </trkpt>
      <trkpt lat="49.60569" lon="0.17233">
        <ele>72.3</ele>
        <time>2020-06-17T18:24:34Z</time>
      </trkpt>
      <trkpt lat="49.60575" lon="0.17227">
        <ele>71.8</ele>
        <time>2020-06-17T18:24:35Z</time>
      </trkpt>
      <trkpt lat="49.60582" lon="0.17221">
        <ele>71.3</ele>
        <time>2020-06-17T18:24:36Z</time>
      </trkpt>
      <trkpt lat="49.60588" lon="0.17214">
        <ele>70.8</ele>
        <time>2020-06-17T18:24:37Z</time>
      </trkpt>
      <trkpt lat="49.60595" lon="0.17209">
        <ele>70.3</ele>
        <time>2020-06-17T18:24:38Z</time>
      </trkpt>
      <trkpt lat="49.60602" lon="0.17203">
        <ele>69.8</ele>
        <time>2020-06-17T18:24:39Z</time>
      </trkpt>
      <trkpt lat="49.6061" lon="0.17199">
        <ele>69.4</ele>
        <time>2020-06-17T18:24:40Z</time>
      </trkpt>
      <trkpt lat="49.60618" lon="0.17197">
        <ele>69</ele>
        <time>2020-06-17T18:24:41Z</time>
      </trkpt>
      <trkpt lat="49.60627" lon="0.17196">
        <ele>68.3</ele>
        <time>2020-06-17T18:24:42Z</time>
      </trkpt>
      <trkpt lat="49.60636" lon="0.17194">
        <ele>68</ele>
        <time>2020-06-17T18:24:43Z</time>
      </trkpt>
      <trkpt lat="49.60644" lon="0.17192">
        <ele>67.9</ele>
        <time>2020-06-17T18:24:44Z</time>
      </trkpt>
      <trkpt lat="49.60653" lon="0.17191">
        <ele>67.9</ele>
        <time>2020-06-17T18:24:45Z</time>
      </trkpt>
      <trkpt lat="49.60661" lon="0.17192">
        <ele>68</ele>
        <time>2020-06-17T18:24:46Z</time>
      </trkpt>
      <trkpt lat="49.6067" lon="0.17193">
        <ele>68.1</ele>
        <time>2020-06-17T18:24:47Z</time>
      </trkpt>
      <trkpt lat="49.60678" lon="0.17194">
        <ele>68.2</ele>
        <time>2020-06-17T18:24:48Z</time>
      </trkpt>
      <trkpt lat="49.60686" lon="0.17194">
        <ele>68.4</ele>
        <time>2020-06-17T18:24:49Z</time>
      </trkpt>
      <trkpt lat="49.60694" lon="0.17195">
        <ele>68.6</ele>
        <time>2020-06-17T18:24:50Z</time>
      </trkpt>
      <trkpt lat="49.60702" lon="0.17195">
        <ele>68.8</ele>
        <time>2020-06-17T18:24:51Z</time>
      </trkpt>
      <trkpt lat="49.60709" lon="0.17195">
        <ele>69.1</ele>
        <time>2020-06-17T18:24:52Z</time>
      </trkpt>
      <trkpt lat="49.60716" lon="0.17195">
        <ele>69.4</ele>
        <time>2020-06-17T18:24:53Z</time>
      </trkpt>
      <trkpt lat="49.60723" lon="0.17194">
        <ele>69.8</ele>
        <time>2020-06-17T18:24:54Z</time>
      </trkpt>
      <trkpt lat="49.60729" lon="0.17194">
        <ele>70.1</ele>
        <time>2020-06-17T18:24:55Z</time>
      </trkpt>
      <trkpt lat="49.60735" lon="0.17193">
        <ele>70.4</ele>
        <time>2020-06-17T18:24:56Z</time>
      </trkpt>
      <trkpt lat="49.6074" lon="0.17193">
        <ele>70.6</ele>
        <time>2020-06-17T18:24:57Z</time>
      </trkpt>
      <trkpt lat="49.60745" lon="0.17193">
        <ele>70.8</ele>
        <time>2020-06-17T18:24:58Z</time>
      </trkpt>
      <trkpt lat="49.6075" lon="0.17192">
        <ele>71.1</ele>
        <time>2020-06-17T18:24:59Z</time>
      </trkpt>
      <trkpt lat="49.60754" lon="0.17191">
        <ele>71.3</ele>
        <time>2020-06-17T18:25:00Z</time>
      </trkpt>
      <trkpt lat="49.60758" lon="0.17191">
        <ele>71.5</ele>
        <time>2020-06-17T18:25:01Z</time>
      </trkpt>
      <trkpt lat="49.60762" lon="0.17189">
        <ele>71.7</ele>
        <time>2020-06-17T18:25:02Z</time>
      </trkpt>
      <trkpt lat="49.60766" lon="0.17187">
        <ele>71.9</ele>
        <time>2020-06-17T18:25:03Z</time>
      </trkpt>
      <trkpt lat="49.6077" lon="0.17187">
        <ele>72.1</ele>
        <time>2020-06-17T18:25:04Z</time>
      </trkpt>
      <trkpt lat="49.60774" lon="0.17187">
        <ele>72.3</ele>
        <time>2020-06-17T18:25:05Z</time>
      </trkpt>
      <trkpt lat="49.60778" lon="0.17187">
        <ele>72.5</ele>
        <time>2020-06-17T18:25:06Z</time>
      </trkpt>
      <trkpt lat="49.60782" lon="0.17186">
        <ele>72.7</ele>
        <time>2020-06-17T18:25:07Z</time>
      </trkpt>
      <trkpt lat="49.60785" lon="0.17186">
        <ele>72.9</ele>
        <time>2020-06-17T18:25:08Z</time>
      </trkpt>
      <trkpt lat="49.60789" lon="0.17186">
        <ele>73</ele>
        <time>2020-06-17T18:25:09Z</time>
      </trkpt>
      <trkpt lat="49.60792" lon="0.17187">
        <ele>73.2</ele>
        <time>2020-06-17T18:25:10Z</time>
      </trkpt>
      <trkpt lat="49.60796" lon="0.17187">
        <ele>73.4</ele>
        <time>2020-06-17T18:25:11Z</time>
      </trkpt>
      <trkpt lat="49.60799" lon="0.17186">
        <ele>73.5</ele>
        <time>2020-06-17T18:25:12Z</time>
      </trkpt>
      <trkpt lat="49.60802" lon="0.17185">
        <ele>73.7</ele>
        <time>2020-06-17T18:25:13Z</time>
      </trkpt>
      <trkpt lat="49.60806" lon="0.17183">
        <ele>74</ele>
        <time>2020-06-17T18:25:14Z</time>
      </trkpt>
      <trkpt lat="49.60809" lon="0.17182">
        <ele>74.2</ele>
        <time>2020-06-17T18:25:15Z</time>
      </trkpt>
      <trkpt lat="49.60813" lon="0.17181">
        <ele>74.4</ele>
        <time>2020-06-17T18:25:16Z</time>
      </trkpt>
      <trkpt lat="49.60816" lon="0.1718">
        <ele>74.5</ele>
        <time>2020-06-17T18:25:17Z</time>
      </trkpt>
      <trkpt lat="49.6082" lon="0.17179">
        <ele>74.7</ele>
        <time>2020-06-17T18:25:18Z</time>
      </trkpt>
      <trkpt lat="49.60823" lon="0.17179">
        <ele>74.9</ele>
        <time>2020-06-17T18:25:19Z</time>
      </trkpt>
      <trkpt lat="49.60827" lon="0.17178">
        <ele>75.1</ele>
        <time>2020-06-17T18:25:20Z</time>
      </trkpt>
      <trkpt lat="49.6083" lon="0.17177">
        <ele>75.2</ele>
        <time>2020-06-17T18:25:21Z</time>
      </trkpt>
      <trkpt lat="49.60834" lon="0.17176">
        <ele>75.4</ele>
        <time>2020-06-17T18:25:22Z</time>
      </trkpt>
      <trkpt lat="49.60837" lon="0.17176">
        <ele>75.6</ele>
        <time>2020-06-17T18:25:23Z</time>
      </trkpt>
      <trkpt lat="49.60841" lon="0.17175">
        <ele>75.8</ele>
        <time>2020-06-17T18:25:24Z</time>
      </trkpt>
      <trkpt lat="49.60845" lon="0.17175">
        <ele>76</ele>
        <time>2020-06-17T18:25:25Z</time>
      </trkpt>
      <trkpt lat="49.60849" lon="0.17175">
        <ele>76.2</ele>
        <time>2020-06-17T18:25:26Z</time>
      </trkpt>
      <trkpt lat="49.60853" lon="0.17174">
        <ele>76.4</ele>
        <time>2020-06-17T18:25:27Z</time>
      </trkpt>
      <trkpt lat="49.60856" lon="0.17173">
        <ele>76.6</ele>
        <time>2020-06-17T18:25:28Z</time>
      </trkpt>
      <trkpt lat="49.6086" lon="0.17172">
        <ele>76.7</ele>
        <time>2020-06-17T18:25:29Z</time>
      </trkpt>
      <trkpt lat="49.60864" lon="0.17171">
        <ele>76.9</ele>
        <time>2020-06-17T18:25:30Z</time>
      </trkpt>
      <trkpt lat="49.60867" lon="0.17171">
        <ele>77.1</ele>
        <time>2020-06-17T18:25:31Z</time>
      </trkpt>
      <trkpt lat="49.60871" lon="0.17171">
        <ele>77.3</ele>
        <time>2020-06-17T18:25:32Z</time>
      </trkpt>
      <trkpt lat="49.60874" lon="0.17171">
        <ele>77.4</ele>
        <time>2020-06-17T18:25:33Z</time>
      </trkpt>
      <trkpt lat="49.60878" lon="0.17171">
        <ele>77.5</ele>
        <time>2020-06-17T18:25:34Z</time>
      </trkpt>
      <trkpt lat="49.60881" lon="0.1717">
        <ele>77.6</ele>
        <time>2020-06-17T18:25:35Z</time>
      </trkpt>
      <trkpt lat="49.60885" lon="0.17169">
        <ele>77.8</ele>
        <time>2020-06-17T18:25:36Z</time>
      </trkpt>
      <trkpt lat="49.60889" lon="0.17168">
        <ele>77.9</ele>
        <time>2020-06-17T18:25:37Z</time>
      </trkpt>
      <trkpt lat="49.60893" lon="0.17167">
        <ele>78</ele>
        <time>2020-06-17T18:25:38Z</time>
      </trkpt>
      <trkpt lat="49.60897" lon="0.17166">
        <ele>78.1</ele>
        <time>2020-06-17T18:25:39Z</time>
      </trkpt>
      <trkpt lat="49.609" lon="0.17165">
        <ele>78.2</ele>
        <time>2020-06-17T18:25:40Z</time>
      </trkpt>
      <trkpt lat="49.60905" lon="0.17162">
        <ele>78.3</ele>
        <time>2020-06-17T18:25:41Z</time>
      </trkpt>
      <trkpt lat="49.60908" lon="0.17161">
        <ele>78.4</ele>
        <time>2020-06-17T18:25:42Z</time>
      </trkpt>
      <trkpt lat="49.60911" lon="0.1716">
        <ele>78.5</ele>
        <time>2020-06-17T18:25:43Z</time>
      </trkpt>
      <trkpt lat="49.60915" lon="0.1716">
        <ele>78.6</ele>
        <time>2020-06-17T18:25:44Z</time>
      </trkpt>
      <trkpt lat="49.6092" lon="0.1716">
        <ele>78.7</ele>
        <time>2020-06-17T18:25:45Z</time>
      </trkpt>
      <trkpt lat="49.60924" lon="0.17158">
        <ele>78.8</ele>
        <time>2020-06-17T18:25:46Z</time>
      </trkpt>
      <trkpt lat="49.60928" lon="0.17157">
        <ele>78.9</ele>
        <time>2020-06-17T18:25:47Z</time>
      </trkpt>
      <trkpt lat="49.60932" lon="0.17156">
        <ele>79</ele>
        <time>2020-06-17T18:25:48Z</time>
      </trkpt>
      <trkpt lat="49.60935" lon="0.17155">
        <ele>79</ele>
        <time>2020-06-17T18:25:49Z</time>
      </trkpt>
      <trkpt lat="49.60939" lon="0.17155">
        <ele>79.1</ele>
        <time>2020-06-17T18:25:50Z</time>
      </trkpt>
      <trkpt lat="49.60942" lon="0.17154">
        <ele>79.1</ele>
        <time>2020-06-17T18:25:51Z</time>
      </trkpt>
      <trkpt lat="49.60947" lon="0.17152">
        <ele>79.2</ele>
        <time>2020-06-17T18:25:52Z</time>
      </trkpt>
      <trkpt lat="49.60951" lon="0.17149">
        <ele>79.2</ele>
        <time>2020-06-17T18:25:53Z</time>
      </trkpt>
      <trkpt lat="49.60955" lon="0.17146">
        <ele>79.3</ele>
        <time>2020-06-17T18:25:54Z</time>
      </trkpt>
      <trkpt lat="49.60959" lon="0.17144">
        <ele>79.3</ele>
        <time>2020-06-17T18:25:55Z</time>
      </trkpt>
      <trkpt lat="49.60964" lon="0.17142">
        <ele>79.4</ele>
        <time>2020-06-17T18:25:56Z</time>
      </trkpt>
      <trkpt lat="49.60969" lon="0.1714">
        <ele>79.5</ele>
        <time>2020-06-17T18:25:57Z</time>
      </trkpt>
      <trkpt lat="49.60973" lon="0.17138">
        <ele>79.6</ele>
        <time>2020-06-17T18:25:58Z</time>
      </trkpt>
      <trkpt lat="49.60978" lon="0.17137">
        <ele>79.7</ele>
        <time>2020-06-17T18:25:59Z</time>
      </trkpt>
      <trkpt lat="49.60983" lon="0.17136">
        <ele>79.7</ele>
        <time>2020-06-17T18:26:00Z</time>
      </trkpt>
      <trkpt lat="49.60988" lon="0.17134">
        <ele>79.8</ele>
        <time>2020-06-17T18:26:01Z</time>
      </trkpt>
      <trkpt lat="49.60993" lon="0.17132">
        <ele>79.9</ele>
        <time>2020-06-17T18:26:02Z</time>
      </trkpt>
      <trkpt lat="49.60998" lon="0.1713">
        <ele>80</ele>
        <time>2020-06-17T18:26:03Z</time>
      </trkpt>
      <trkpt lat="49.61003" lon="0.17128">
        <ele>80.2</ele>
        <time>2020-06-17T18:26:04Z</time>
      </trkpt>
      <trkpt lat="49.61008" lon="0.17125">
        <ele>80.3</ele>
        <time>2020-06-17T18:26:05Z</time>
      </trkpt>
      <trkpt lat="49.61013" lon="0.17123">
        <ele>80.4</ele>
        <time>2020-06-17T18:26:06Z</time>
      </trkpt>
      <trkpt lat="49.61018" lon="0.17121">
        <ele>80.6</ele>
        <time>2020-06-17T18:26:07Z</time>
      </trkpt>
      <trkpt lat="49.61022" lon="0.17119">
        <ele>80.7</ele>
        <time>2020-06-17T18:26:08Z</time>
      </trkpt>
      <trkpt lat="49.61027" lon="0.17117">
        <ele>80.8</ele>
        <time>2020-06-17T18:26:09Z</time>
      </trkpt>
      <trkpt lat="49.61032" lon="0.17116">
        <ele>81</ele>
        <time>2020-06-17T18:26:10Z</time>
      </trkpt>
      <trkpt lat="49.61036" lon="0.17114">
        <ele>81.1</ele>
        <time>2020-06-17T18:26:11Z</time>
      </trkpt>
      <trkpt lat="49.61041" lon="0.17111">
        <ele>81.3</ele>
        <time>2020-06-17T18:26:12Z</time>
      </trkpt>
      <trkpt lat="49.61045" lon="0.1711">
        <ele>81.4</ele>
        <time>2020-06-17T18:26:13Z</time>
      </trkpt>
      <trkpt lat="49.61049" lon="0.17108">
        <ele>81.6</ele>
        <time>2020-06-17T18:26:14Z</time>
      </trkpt>
      <trkpt lat="49.61054" lon="0.17107">
        <ele>81.8</ele>
        <time>2020-06-17T18:26:15Z</time>
      </trkpt>
      <trkpt lat="49.61058" lon="0.17105">
        <ele>82</ele>
        <time>2020-06-17T18:26:16Z</time>
      </trkpt>
      <trkpt lat="49.61063" lon="0.17104">
        <ele>82.1</ele>
        <time>2020-06-17T18:26:17Z</time>
      </trkpt>
      <trkpt lat="49.61067" lon="0.17103">
        <ele>82.3</ele>
        <time>2020-06-17T18:26:18Z</time>
      </trkpt>
      <trkpt lat="49.61071" lon="0.17102">
        <ele>82.5</ele>
        <time>2020-06-17T18:26:19Z</time>
      </trkpt>
      <trkpt lat="49.61075" lon="0.171">
        <ele>82.8</ele>
        <time>2020-06-17T18:26:20Z</time>
      </trkpt>
      <trkpt lat="49.61079" lon="0.17098">
        <ele>83</ele>
        <time>2020-06-17T18:26:21Z</time>
      </trkpt>
      <trkpt lat="49.61083" lon="0.17097">
        <ele>83.2</ele>
        <time>2020-06-17T18:26:22Z</time>
      </trkpt>
      <trkpt lat="49.61088" lon="0.17095">
        <ele>83.5</ele>
        <time>2020-06-17T18:26:23Z</time>
      </trkpt>
      <trkpt lat="49.61091" lon="0.17093">
        <ele>83.7</ele>
        <time>2020-06-17T18:26:24Z</time>
      </trkpt>
      <trkpt lat="49.61095" lon="0.17092">
        <ele>83.9</ele>
        <time>2020-06-17T18:26:25Z</time>
      </trkpt>
      <trkpt lat="49.61099" lon="0.1709">
        <ele>84.1</ele>
        <time>2020-06-17T18:26:26Z</time>
      </trkpt>
      <trkpt lat="49.61103" lon="0.17088">
        <ele>84.3</ele>
        <time>2020-06-17T18:26:27Z</time>
      </trkpt>
      <trkpt lat="49.61107" lon="0.17087">
        <ele>84.6</ele>
        <time>2020-06-17T18:26:28Z</time>
      </trkpt>
      <trkpt lat="49.6111" lon="0.17084">
        <ele>84.7</ele>
        <time>2020-06-17T18:26:29Z</time>
      </trkpt>
      <trkpt lat="49.61113" lon="0.17082">
        <ele>84.9</ele>
        <time>2020-06-17T18:26:30Z</time>
      </trkpt>
      <trkpt lat="49.61117" lon="0.1708">
        <ele>85.1</ele>
        <time>2020-06-17T18:26:31Z</time>
      </trkpt>
      <trkpt lat="49.6112" lon="0.17079">
        <ele>85.3</ele>
        <time>2020-06-17T18:26:32Z</time>
      </trkpt>
      <trkpt lat="49.61123" lon="0.17077">
        <ele>85.4</ele>
        <time>2020-06-17T18:26:33Z</time>
      </trkpt>
      <trkpt lat="49.61126" lon="0.17075">
        <ele>85.5</ele>
        <time>2020-06-17T18:26:34Z</time>
      </trkpt>
      <trkpt lat="49.61129" lon="0.17073">
        <ele>85.7</ele>
        <time>2020-06-17T18:26:35Z</time>
      </trkpt>
      <trkpt lat="49.61133" lon="0.1707">
        <ele>85.9</ele>
        <time>2020-06-17T18:26:36Z</time>
      </trkpt>
      <trkpt lat="49.61136" lon="0.17068">
        <ele>86</ele>
        <time>2020-06-17T18:26:37Z</time>
      </trkpt>
      <trkpt lat="49.6114" lon="0.17067">
        <ele>86.2</ele>
        <time>2020-06-17T18:26:38Z</time>
      </trkpt>
      <trkpt lat="49.61142" lon="0.17063">
        <ele>86.3</ele>
        <time>2020-06-17T18:26:39Z</time>
      </trkpt>
      <trkpt lat="49.61146" lon="0.17061">
        <ele>86.6</ele>
        <time>2020-06-17T18:26:40Z</time>
      </trkpt>
      <trkpt lat="49.61149" lon="0.17059">
        <ele>86.7</ele>
        <time>2020-06-17T18:26:41Z</time>
      </trkpt>
      <trkpt lat="49.61152" lon="0.17057">
        <ele>86.9</ele>
        <time>2020-06-17T18:26:42Z</time>
      </trkpt>
      <trkpt lat="49.61156" lon="0.17056">
        <ele>87.1</ele>
        <time>2020-06-17T18:26:43Z</time>
      </trkpt>
      <trkpt lat="49.61159" lon="0.17054">
        <ele>87.3</ele>
        <time>2020-06-17T18:26:44Z</time>
      </trkpt>
      <trkpt lat="49.61163" lon="0.17052">
        <ele>87.4</ele>
        <time>2020-06-17T18:26:45Z</time>
      </trkpt>
      <trkpt lat="49.61166" lon="0.1705">
        <ele>87.6</ele>
        <time>2020-06-17T18:26:46Z</time>
      </trkpt>
      <trkpt lat="49.6117" lon="0.17048">
        <ele>87.8</ele>
        <time>2020-06-17T18:26:47Z</time>
      </trkpt>
      <trkpt lat="49.61175" lon="0.17046">
        <ele>88</ele>
        <time>2020-06-17T18:26:48Z</time>
      </trkpt>
      <trkpt lat="49.61177" lon="0.17043">
        <ele>88.1</ele>
        <time>2020-06-17T18:26:49Z</time>
      </trkpt>
      <trkpt lat="49.61181" lon="0.1704">
        <ele>88.2</ele>
        <time>2020-06-17T18:26:50Z</time>
      </trkpt>
      <trkpt lat="49.61184" lon="0.17038">
        <ele>88.4</ele>
        <time>2020-06-17T18:26:51Z</time>
      </trkpt>
      <trkpt lat="49.61187" lon="0.17034">
        <ele>88.5</ele>
        <time>2020-06-17T18:26:52Z</time>
      </trkpt>
      <trkpt lat="49.6119" lon="0.1703">
        <ele>88.7</ele>
        <time>2020-06-17T18:26:53Z</time>
      </trkpt>
      <trkpt lat="49.61194" lon="0.17027">
        <ele>88.8</ele>
        <time>2020-06-17T18:26:54Z</time>
      </trkpt>
      <trkpt lat="49.61198" lon="0.17023">
        <ele>89</ele>
        <time>2020-06-17T18:26:55Z</time>
      </trkpt>
      <trkpt lat="49.61202" lon="0.17019">
        <ele>89.1</ele>
        <time>2020-06-17T18:26:56Z</time>
      </trkpt>
      <trkpt lat="49.61205" lon="0.17015">
        <ele>89.2</ele>
        <time>2020-06-17T18:26:57Z</time>
      </trkpt>
      <trkpt lat="49.61207" lon="0.17012">
        <ele>89.3</ele>
        <time>2020-06-17T18:26:58Z</time>
      </trkpt>
      <trkpt lat="49.61209" lon="0.17008">
        <ele>89.5</ele>
        <time>2020-06-17T18:26:59Z</time>
      </trkpt>
      <trkpt lat="49.61211" lon="0.17004">
        <ele>89.6</ele>
        <time>2020-06-17T18:27:00Z</time>
      </trkpt>
      <trkpt lat="49.61213" lon="0.16999">
        <ele>89.7</ele>
        <time>2020-06-17T18:27:01Z</time>
      </trkpt>
      <trkpt lat="49.61215" lon="0.16994">
        <ele>89.8</ele>
        <time>2020-06-17T18:27:02Z</time>
      </trkpt>
      <trkpt lat="49.61218" lon="0.16989">
        <ele>90</ele>
        <time>2020-06-17T18:27:03Z</time>
      </trkpt>
      <trkpt lat="49.61221" lon="0.16984">
        <ele>90.2</ele>
        <time>2020-06-17T18:27:04Z</time>
      </trkpt>
      <trkpt lat="49.61224" lon="0.1698">
        <ele>90.4</ele>
        <time>2020-06-17T18:27:05Z</time>
      </trkpt>
      <trkpt lat="49.61227" lon="0.16976">
        <ele>90.5</ele>
        <time>2020-06-17T18:27:06Z</time>
      </trkpt>
      <trkpt lat="49.61229" lon="0.16972">
        <ele>90.6</ele>
        <time>2020-06-17T18:27:07Z</time>
      </trkpt>
      <trkpt lat="49.61232" lon="0.16969">
        <ele>90.8</ele>
        <time>2020-06-17T18:27:08Z</time>
      </trkpt>
      <trkpt lat="49.61235" lon="0.16965">
        <ele>90.9</ele>
        <time>2020-06-17T18:27:09Z</time>
      </trkpt>
      <trkpt lat="49.61237" lon="0.16963">
        <ele>91.1</ele>
        <time>2020-06-17T18:27:10Z</time>
      </trkpt>
      <trkpt lat="49.6124" lon="0.1696">
        <ele>91.2</ele>
        <time>2020-06-17T18:27:11Z</time>
      </trkpt>
      <trkpt lat="49.61243" lon="0.16956">
        <ele>91.4</ele>
        <time>2020-06-17T18:27:12Z</time>
      </trkpt>
      <trkpt lat="49.61246" lon="0.16952">
        <ele>91.5</ele>
        <time>2020-06-17T18:27:13Z</time>
      </trkpt>
      <trkpt lat="49.61247" lon="0.1695">
        <ele>91.6</ele>
        <time>2020-06-17T18:27:14Z</time>
      </trkpt>
      <trkpt lat="49.61249" lon="0.16946">
        <ele>91.7</ele>
        <time>2020-06-17T18:27:15Z</time>
      </trkpt>
      <trkpt lat="49.61252" lon="0.16942">
        <ele>91.9</ele>
        <time>2020-06-17T18:27:16Z</time>
      </trkpt>
      <trkpt lat="49.61255" lon="0.16938">
        <ele>92</ele>
        <time>2020-06-17T18:27:17Z</time>
      </trkpt>
      <trkpt lat="49.61257" lon="0.16934">
        <ele>92.1</ele>
        <time>2020-06-17T18:27:18Z</time>
      </trkpt>
      <trkpt lat="49.6126" lon="0.16931">
        <ele>92.2</ele>
        <time>2020-06-17T18:27:19Z</time>
      </trkpt>
      <trkpt lat="49.61262" lon="0.16927">
        <ele>92.3</ele>
        <time>2020-06-17T18:27:20Z</time>
      </trkpt>
      <trkpt lat="49.61264" lon="0.16924">
        <ele>92.4</ele>
        <time>2020-06-17T18:27:21Z</time>
      </trkpt>
      <trkpt lat="49.61266" lon="0.16921">
        <ele>92.4</ele>
        <time>2020-06-17T18:27:22Z</time>
      </trkpt>
      <trkpt lat="49.61269" lon="0.16917">
        <ele>92.5</ele>
        <time>2020-06-17T18:27:23Z</time>
      </trkpt>
      <trkpt lat="49.61272" lon="0.16913">
        <ele>92.7</ele>
        <time>2020-06-17T18:27:24Z</time>
      </trkpt>
      <trkpt lat="49.61275" lon="0.16911">
        <ele>92.7</ele>
        <time>2020-06-17T18:27:25Z</time>
      </trkpt>
      <trkpt lat="49.61278" lon="0.16909">
        <ele>92.8</ele>
        <time>2020-06-17T18:27:26Z</time>
      </trkpt>
      <trkpt lat="49.6128" lon="0.16906">
        <ele>92.9</ele>
        <time>2020-06-17T18:27:27Z</time>
      </trkpt>
      <trkpt lat="49.61283" lon="0.16902">
        <ele>93</ele>
        <time>2020-06-17T18:27:28Z</time>
      </trkpt>
      <trkpt lat="49.61286" lon="0.169">
        <ele>93</ele>
        <time>2020-06-17T18:27:29Z</time>
      </trkpt>
      <trkpt lat="49.61289" lon="0.16896">
        <ele>93.1</ele>
        <time>2020-06-17T18:27:30Z</time>
      </trkpt>
      <trkpt lat="49.61292" lon="0.16893">
        <ele>93.1</ele>
        <time>2020-06-17T18:27:31Z</time>
      </trkpt>
      <trkpt lat="49.61295" lon="0.16889">
        <ele>93.2</ele>
        <time>2020-06-17T18:27:32Z</time>
      </trkpt>
      <trkpt lat="49.61298" lon="0.16885">
        <ele>93.2</ele>
        <time>2020-06-17T18:27:33Z</time>
      </trkpt>
      <trkpt lat="49.61301" lon="0.16881">
        <ele>93.2</ele>
        <time>2020-06-17T18:27:34Z</time>
      </trkpt>
      <trkpt lat="49.61304" lon="0.16878">
        <ele>93.2</ele>
        <time>2020-06-17T18:27:35Z</time>
      </trkpt>
      <trkpt lat="49.61307" lon="0.16875">
        <ele>93.3</ele>
        <time>2020-06-17T18:27:36Z</time>
      </trkpt>
      <trkpt lat="49.61309" lon="0.16872">
        <ele>93.3</ele>
        <time>2020-06-17T18:27:37Z</time>
      </trkpt>
      <trkpt lat="49.61311" lon="0.16868">
        <ele>93.3</ele>
        <time>2020-06-17T18:27:38Z</time>
      </trkpt>
      <trkpt lat="49.61314" lon="0.16865">
        <ele>93.3</ele>
        <time>2020-06-17T18:27:39Z</time>
      </trkpt>
      <trkpt lat="49.61316" lon="0.1686">
        <ele>93.3</ele>
        <time>2020-06-17T18:27:40Z</time>
      </trkpt>
      <trkpt lat="49.61318" lon="0.16857">
        <ele>93.4</ele>
        <time>2020-06-17T18:27:41Z</time>
      </trkpt>
      <trkpt lat="49.61321" lon="0.16853">
        <ele>93.4</ele>
        <time>2020-06-17T18:27:42Z</time>
      </trkpt>
      <trkpt lat="49.61323" lon="0.16849">
        <ele>93.4</ele>
        <time>2020-06-17T18:27:43Z</time>
      </trkpt>
      <trkpt lat="49.61326" lon="0.16845">
        <ele>93.4</ele>
        <time>2020-06-17T18:27:44Z</time>
      </trkpt>
      <trkpt lat="49.61329" lon="0.16841">
        <ele>93.4</ele>
        <time>2020-06-17T18:27:45Z</time>
      </trkpt>
      <trkpt lat="49.61332" lon="0.16838">
        <ele>93.4</ele>
        <time>2020-06-17T18:27:46Z</time>
      </trkpt>
      <trkpt lat="49.61334" lon="0.16834">
        <ele>93.4</ele>
        <time>2020-06-17T18:27:47Z</time>
      </trkpt>
      <trkpt lat="49.61337" lon="0.1683">
        <ele>93.4</ele>
        <time>2020-06-17T18:27:48Z</time>
      </trkpt>
      <trkpt lat="49.61339" lon="0.16827">
        <ele>93.3</ele>
        <time>2020-06-17T18:27:49Z</time>
      </trkpt>
      <trkpt lat="49.61342" lon="0.16825">
        <ele>93.3</ele>
        <time>2020-06-17T18:27:50Z</time>
      </trkpt>
      <trkpt lat="49.61345" lon="0.16822">
        <ele>93.3</ele>
        <time>2020-06-17T18:27:51Z</time>
      </trkpt>
      <trkpt lat="49.61348" lon="0.16819">
        <ele>93.3</ele>
        <time>2020-06-17T18:27:52Z</time>
      </trkpt>
      <trkpt lat="49.61351" lon="0.16817">
        <ele>93.3</ele>
        <time>2020-06-17T18:27:53Z</time>
      </trkpt>
      <trkpt lat="49.61354" lon="0.16814">
        <ele>93.2</ele>
        <time>2020-06-17T18:27:54Z</time>
      </trkpt>
      <trkpt lat="49.61356" lon="0.16812">
        <ele>93.2</ele>
        <time>2020-06-17T18:27:55Z</time>
      </trkpt>
      <trkpt lat="49.61359" lon="0.16809">
        <ele>93.1</ele>
        <time>2020-06-17T18:27:56Z</time>
      </trkpt>
      <trkpt lat="49.61362" lon="0.16805">
        <ele>93.1</ele>
        <time>2020-06-17T18:27:57Z</time>
      </trkpt>
      <trkpt lat="49.61365" lon="0.16801">
        <ele>93</ele>
        <time>2020-06-17T18:27:58Z</time>
      </trkpt>
      <trkpt lat="49.61367" lon="0.16798">
        <ele>93</ele>
        <time>2020-06-17T18:27:59Z</time>
      </trkpt>
      <trkpt lat="49.6137" lon="0.16795">
        <ele>92.9</ele>
        <time>2020-06-17T18:28:00Z</time>
      </trkpt>
      <trkpt lat="49.61374" lon="0.16792">
        <ele>92.9</ele>
        <time>2020-06-17T18:28:01Z</time>
      </trkpt>
      <trkpt lat="49.61376" lon="0.16788">
        <ele>92.8</ele>
        <time>2020-06-17T18:28:02Z</time>
      </trkpt>
      <trkpt lat="49.61379" lon="0.16786">
        <ele>92.8</ele>
        <time>2020-06-17T18:28:03Z</time>
      </trkpt>
      <trkpt lat="49.61382" lon="0.16783">
        <ele>92.7</ele>
        <time>2020-06-17T18:28:04Z</time>
      </trkpt>
      <trkpt lat="49.61385" lon="0.16781">
        <ele>92.7</ele>
        <time>2020-06-17T18:28:05Z</time>
      </trkpt>
      <trkpt lat="49.61388" lon="0.16779">
        <ele>92.6</ele>
        <time>2020-06-17T18:28:06Z</time>
      </trkpt>
      <trkpt lat="49.61391" lon="0.16776">
        <ele>92.5</ele>
        <time>2020-06-17T18:28:07Z</time>
      </trkpt>
      <trkpt lat="49.61395" lon="0.16773">
        <ele>92.5</ele>
        <time>2020-06-17T18:28:08Z</time>
      </trkpt>
      <trkpt lat="49.61398" lon="0.16769">
        <ele>92.4</ele>
        <time>2020-06-17T18:28:09Z</time>
      </trkpt>
      <trkpt lat="49.61402" lon="0.16766">
        <ele>92.3</ele>
        <time>2020-06-17T18:28:10Z</time>
      </trkpt>
      <trkpt lat="49.61405" lon="0.16762">
        <ele>92.3</ele>
        <time>2020-06-17T18:28:11Z</time>
      </trkpt>
      <trkpt lat="49.61409" lon="0.16759">
        <ele>92.2</ele>
        <time>2020-06-17T18:28:12Z</time>
      </trkpt>
      <trkpt lat="49.61413" lon="0.16755">
        <ele>92.1</ele>
        <time>2020-06-17T18:28:13Z</time>
      </trkpt>
      <trkpt lat="49.61417" lon="0.16749">
        <ele>92</ele>
        <time>2020-06-17T18:28:14Z</time>
      </trkpt>
      <trkpt lat="49.61421" lon="0.16745">
        <ele>91.9</ele>
        <time>2020-06-17T18:28:15Z</time>
      </trkpt>
      <trkpt lat="49.61426" lon="0.16741">
        <ele>91.8</ele>
        <time>2020-06-17T18:28:16Z</time>
      </trkpt>
      <trkpt lat="49.61431" lon="0.16736">
        <ele>91.6</ele>
        <time>2020-06-17T18:28:17Z</time>
      </trkpt>
      <trkpt lat="49.61436" lon="0.16731">
        <ele>91.5</ele>
        <time>2020-06-17T18:28:18Z</time>
      </trkpt>
      <trkpt lat="49.6144" lon="0.16726">
        <ele>91.4</ele>
        <time>2020-06-17T18:28:19Z</time>
      </trkpt>
      <trkpt lat="49.61445" lon="0.1672">
        <ele>91.2</ele>
        <time>2020-06-17T18:28:20Z</time>
      </trkpt>
      <trkpt lat="49.6145" lon="0.16713">
        <ele>91</ele>
        <time>2020-06-17T18:28:21Z</time>
      </trkpt>
      <trkpt lat="49.61456" lon="0.16706">
        <ele>90.8</ele>
        <time>2020-06-17T18:28:22Z</time>
      </trkpt>
      <trkpt lat="49.61461" lon="0.16698">
        <ele>90.6</ele>
        <time>2020-06-17T18:28:23Z</time>
      </trkpt>
      <trkpt lat="49.61467" lon="0.1669">
        <ele>90.3</ele>
        <time>2020-06-17T18:28:24Z</time>
      </trkpt>
      <trkpt lat="49.61473" lon="0.16683">
        <ele>90.1</ele>
        <time>2020-06-17T18:28:25Z</time>
      </trkpt>
      <trkpt lat="49.61479" lon="0.16675">
        <ele>89.9</ele>
        <time>2020-06-17T18:28:26Z</time>
      </trkpt>
      <trkpt lat="49.61484" lon="0.16666">
        <ele>89.7</ele>
        <time>2020-06-17T18:28:27Z</time>
      </trkpt>
      <trkpt lat="49.6149" lon="0.16658">
        <ele>89.5</ele>
        <time>2020-06-17T18:28:28Z</time>
      </trkpt>
      <trkpt lat="49.61495" lon="0.16649">
        <ele>89.2</ele>
        <time>2020-06-17T18:28:29Z</time>
      </trkpt>
      <trkpt lat="49.61501" lon="0.16641">
        <ele>89</ele>
        <time>2020-06-17T18:28:30Z</time>
      </trkpt>
      <trkpt lat="49.61506" lon="0.16632">
        <ele>88.7</ele>
        <time>2020-06-17T18:28:31Z</time>
      </trkpt>
      <trkpt lat="49.61511" lon="0.16624">
        <ele>88.5</ele>
        <time>2020-06-17T18:28:32Z</time>
      </trkpt>
      <trkpt lat="49.61517" lon="0.16616">
        <ele>88.3</ele>
        <time>2020-06-17T18:28:33Z</time>
      </trkpt>
      <trkpt lat="49.61522" lon="0.16607">
        <ele>88.1</ele>
        <time>2020-06-17T18:28:34Z</time>
      </trkpt>
      <trkpt lat="49.61527" lon="0.166">
        <ele>88</ele>
        <time>2020-06-17T18:28:35Z</time>
      </trkpt>
      <trkpt lat="49.61533" lon="0.16592">
        <ele>87.9</ele>
        <time>2020-06-17T18:28:36Z</time>
      </trkpt>
      <trkpt lat="49.61538" lon="0.16585">
        <ele>87.8</ele>
        <time>2020-06-17T18:28:37Z</time>
      </trkpt>
      <trkpt lat="49.61544" lon="0.16576">
        <ele>87.7</ele>
        <time>2020-06-17T18:28:38Z</time>
      </trkpt>
      <trkpt lat="49.61549" lon="0.16567">
        <ele>87.7</ele>
        <time>2020-06-17T18:28:39Z</time>
      </trkpt>
      <trkpt lat="49.61555" lon="0.16558">
        <ele>87.7</ele>
        <time>2020-06-17T18:28:40Z</time>
      </trkpt>
      <trkpt lat="49.6156" lon="0.1655">
        <ele>87.8</ele>
        <time>2020-06-17T18:28:41Z</time>
      </trkpt>
      <trkpt lat="49.61566" lon="0.16542">
        <ele>87.9</ele>
        <time>2020-06-17T18:28:42Z</time>
      </trkpt>
      <trkpt lat="49.61572" lon="0.16535">
        <ele>88</ele>
        <time>2020-06-17T18:28:43Z</time>
      </trkpt>
      <trkpt lat="49.61579" lon="0.16528">
        <ele>88.2</ele>
        <time>2020-06-17T18:28:44Z</time>
      </trkpt>
      <trkpt lat="49.61585" lon="0.16522">
        <ele>88.4</ele>
        <time>2020-06-17T18:28:45Z</time>
      </trkpt>
      <trkpt lat="49.61591" lon="0.16516">
        <ele>88.6</ele>
        <time>2020-06-17T18:28:46Z</time>
      </trkpt>
      <trkpt lat="49.61597" lon="0.1651">
        <ele>88.7</ele>
        <time>2020-06-17T18:28:47Z</time>
      </trkpt>
      <trkpt lat="49.61602" lon="0.16503">
        <ele>88.9</ele>
        <time>2020-06-17T18:28:48Z</time>
      </trkpt>
      <trkpt lat="49.61608" lon="0.16498">
        <ele>89</ele>
        <time>2020-06-17T18:28:49Z</time>
      </trkpt>
      <trkpt lat="49.61613" lon="0.16492">
        <ele>89.2</ele>
        <time>2020-06-17T18:28:50Z</time>
      </trkpt>
      <trkpt lat="49.61618" lon="0.16487">
        <ele>89.3</ele>
        <time>2020-06-17T18:28:51Z</time>
      </trkpt>
      <trkpt lat="49.61623" lon="0.16481">
        <ele>89.5</ele>
        <time>2020-06-17T18:28:52Z</time>
      </trkpt>
      <trkpt lat="49.61627" lon="0.16476">
        <ele>89.6</ele>
        <time>2020-06-17T18:28:53Z</time>
      </trkpt>
      <trkpt lat="49.61632" lon="0.16472">
        <ele>89.8</ele>
        <time>2020-06-17T18:28:54Z</time>
      </trkpt>
      <trkpt lat="49.61636" lon="0.16467">
        <ele>90</ele>
        <time>2020-06-17T18:28:55Z</time>
      </trkpt>
      <trkpt lat="49.61641" lon="0.16464">
        <ele>90.3</ele>
        <time>2020-06-17T18:28:56Z</time>
      </trkpt>
      <trkpt lat="49.61645" lon="0.1646">
        <ele>90.6</ele>
        <time>2020-06-17T18:28:57Z</time>
      </trkpt>
      <trkpt lat="49.6165" lon="0.16455">
        <ele>90.9</ele>
        <time>2020-06-17T18:28:58Z</time>
      </trkpt>
      <trkpt lat="49.61654" lon="0.16451">
        <ele>91.1</ele>
        <time>2020-06-17T18:28:59Z</time>
      </trkpt>
      <trkpt lat="49.61659" lon="0.16447">
        <ele>91.4</ele>
        <time>2020-06-17T18:29:00Z</time>
      </trkpt>
      <trkpt lat="49.61664" lon="0.16445">
        <ele>91.6</ele>
        <time>2020-06-17T18:29:01Z</time>
      </trkpt>
      <trkpt lat="49.61668" lon="0.16442">
        <ele>91.8</ele>
        <time>2020-06-17T18:29:02Z</time>
      </trkpt>
      <trkpt lat="49.61672" lon="0.16439">
        <ele>92</ele>
        <time>2020-06-17T18:29:03Z</time>
      </trkpt>
      <trkpt lat="49.61677" lon="0.16435">
        <ele>92.1</ele>
        <time>2020-06-17T18:29:04Z</time>
      </trkpt>
      <trkpt lat="49.61683" lon="0.16434">
        <ele>92.3</ele>
        <time>2020-06-17T18:29:05Z</time>
      </trkpt>
      <trkpt lat="49.61686" lon="0.1643">
        <ele>92.3</ele>
        <time>2020-06-17T18:29:06Z</time>
      </trkpt>
      <trkpt lat="49.6169" lon="0.16427">
        <ele>92.4</ele>
        <time>2020-06-17T18:29:07Z</time>
      </trkpt>
      <trkpt lat="49.61693" lon="0.16424">
        <ele>92.4</ele>
        <time>2020-06-17T18:29:08Z</time>
      </trkpt>
      <trkpt lat="49.61698" lon="0.16421">
        <ele>92.4</ele>
        <time>2020-06-17T18:29:09Z</time>
      </trkpt>
      <trkpt lat="49.61703" lon="0.16418">
        <ele>92.4</ele>
        <time>2020-06-17T18:29:10Z</time>
      </trkpt>
      <trkpt lat="49.61707" lon="0.16415">
        <ele>92.4</ele>
        <time>2020-06-17T18:29:11Z</time>
      </trkpt>
      <trkpt lat="49.61712" lon="0.16413">
        <ele>92.3</ele>
        <time>2020-06-17T18:29:12Z</time>
      </trkpt>
      <trkpt lat="49.61717" lon="0.1641">
        <ele>92.2</ele>
        <time>2020-06-17T18:29:13Z</time>
      </trkpt>
      <trkpt lat="49.61723" lon="0.16407">
        <ele>92</ele>
        <time>2020-06-17T18:29:14Z</time>
      </trkpt>
      <trkpt lat="49.61728" lon="0.16404">
        <ele>91.9</ele>
        <time>2020-06-17T18:29:15Z</time>
      </trkpt>
      <trkpt lat="49.61733" lon="0.164">
        <ele>91.7</ele>
        <time>2020-06-17T18:29:16Z</time>
      </trkpt>
      <trkpt lat="49.61739" lon="0.16398">
        <ele>91.5</ele>
        <time>2020-06-17T18:29:17Z</time>
      </trkpt>
      <trkpt lat="49.61744" lon="0.16394">
        <ele>91.3</ele>
        <time>2020-06-17T18:29:18Z</time>
      </trkpt>
      <trkpt lat="49.6175" lon="0.1639">
        <ele>91.1</ele>
        <time>2020-06-17T18:29:19Z</time>
      </trkpt>
      <trkpt lat="49.61755" lon="0.16387">
        <ele>90.9</ele>
        <time>2020-06-17T18:29:20Z</time>
      </trkpt>
      <trkpt lat="49.61761" lon="0.16384">
        <ele>90.7</ele>
        <time>2020-06-17T18:29:21Z</time>
      </trkpt>
      <trkpt lat="49.61768" lon="0.16381">
        <ele>90.5</ele>
        <time>2020-06-17T18:29:22Z</time>
      </trkpt>
      <trkpt lat="49.61775" lon="0.16377">
        <ele>90.2</ele>
        <time>2020-06-17T18:29:23Z</time>
      </trkpt>
      <trkpt lat="49.61782" lon="0.16372">
        <ele>90</ele>
        <time>2020-06-17T18:29:24Z</time>
      </trkpt>
      <trkpt lat="49.61788" lon="0.16368">
        <ele>89.8</ele>
        <time>2020-06-17T18:29:25Z</time>
      </trkpt>
      <trkpt lat="49.61795" lon="0.16363">
        <ele>89.6</ele>
        <time>2020-06-17T18:29:26Z</time>
      </trkpt>
      <trkpt lat="49.61802" lon="0.16359">
        <ele>89.2</ele>
        <time>2020-06-17T18:29:27Z</time>
      </trkpt>
      <trkpt lat="49.61809" lon="0.16353">
        <ele>89</ele>
        <time>2020-06-17T18:29:28Z</time>
      </trkpt>
      <trkpt lat="49.61815" lon="0.16348">
        <ele>88.9</ele>
        <time>2020-06-17T18:29:29Z</time>
      </trkpt>
      <trkpt lat="49.61822" lon="0.16343">
        <ele>88.7</ele>
        <time>2020-06-17T18:29:30Z</time>
      </trkpt>
      <trkpt lat="49.61828" lon="0.16338">
        <ele>88.5</ele>
        <time>2020-06-17T18:29:31Z</time>
      </trkpt>
      <trkpt lat="49.61835" lon="0.16334">
        <ele>88.4</ele>
        <time>2020-06-17T18:29:32Z</time>
      </trkpt>
      <trkpt lat="49.61841" lon="0.1633">
        <ele>88.3</ele>
        <time>2020-06-17T18:29:33Z</time>
      </trkpt>
      <trkpt lat="49.61847" lon="0.16326">
        <ele>88.2</ele>
        <time>2020-06-17T18:29:34Z</time>
      </trkpt>
      <trkpt lat="49.61853" lon="0.16321">
        <ele>88.2</ele>
        <time>2020-06-17T18:29:35Z</time>
      </trkpt>
      <trkpt lat="49.6186" lon="0.16317">
        <ele>88.1</ele>
        <time>2020-06-17T18:29:36Z</time>
      </trkpt>
      <trkpt lat="49.61866" lon="0.16312">
        <ele>88.1</ele>
        <time>2020-06-17T18:29:37Z</time>
      </trkpt>
      <trkpt lat="49.61872" lon="0.16307">
        <ele>88.1</ele>
        <time>2020-06-17T18:29:38Z</time>
      </trkpt>
      <trkpt lat="49.61878" lon="0.16303">
        <ele>88.1</ele>
        <time>2020-06-17T18:29:39Z</time>
      </trkpt>
      <trkpt lat="49.61885" lon="0.163">
        <ele>88.1</ele>
        <time>2020-06-17T18:29:40Z</time>
      </trkpt>
      <trkpt lat="49.61891" lon="0.16296">
        <ele>88.2</ele>
        <time>2020-06-17T18:29:41Z</time>
      </trkpt>
      <trkpt lat="49.61897" lon="0.16292">
        <ele>88.2</ele>
        <time>2020-06-17T18:29:42Z</time>
      </trkpt>
      <trkpt lat="49.61904" lon="0.16288">
        <ele>88.2</ele>
        <time>2020-06-17T18:29:43Z</time>
      </trkpt>
      <trkpt lat="49.6191" lon="0.16285">
        <ele>88.3</ele>
        <time>2020-06-17T18:29:44Z</time>
      </trkpt>
      <trkpt lat="49.61917" lon="0.1628">
        <ele>88.3</ele>
        <time>2020-06-17T18:29:45Z</time>
      </trkpt>
      <trkpt lat="49.61923" lon="0.16276">
        <ele>88.4</ele>
        <time>2020-06-17T18:29:46Z</time>
      </trkpt>
      <trkpt lat="49.6193" lon="0.16272">
        <ele>88.6</ele>
        <time>2020-06-17T18:29:47Z</time>
      </trkpt>
      <trkpt lat="49.61937" lon="0.16268">
        <ele>88.8</ele>
        <time>2020-06-17T18:29:48Z</time>
      </trkpt>
      <trkpt lat="49.61943" lon="0.16265">
        <ele>89</ele>
        <time>2020-06-17T18:29:49Z</time>
      </trkpt>
      <trkpt lat="49.61949" lon="0.16263">
        <ele>89.3</ele>
        <time>2020-06-17T18:29:50Z</time>
      </trkpt>
      <trkpt lat="49.61955" lon="0.16261">
        <ele>89.6</ele>
        <time>2020-06-17T18:29:51Z</time>
      </trkpt>
      <trkpt lat="49.61961" lon="0.16259">
        <ele>90</ele>
        <time>2020-06-17T18:29:52Z</time>
      </trkpt>
      <trkpt lat="49.61967" lon="0.16255">
        <ele>90.4</ele>
        <time>2020-06-17T18:29:53Z</time>
      </trkpt>
      <trkpt lat="49.61972" lon="0.16252">
        <ele>90.8</ele>
        <time>2020-06-17T18:29:54Z</time>
      </trkpt>
      <trkpt lat="49.61977" lon="0.16248">
        <ele>91.2</ele>
        <time>2020-06-17T18:29:55Z</time>
      </trkpt>
      <trkpt lat="49.61981" lon="0.16247">
        <ele>91.6</ele>
        <time>2020-06-17T18:29:56Z</time>
      </trkpt>
      <trkpt lat="49.61985" lon="0.16245">
        <ele>91.9</ele>
        <time>2020-06-17T18:29:57Z</time>
      </trkpt>
      <trkpt lat="49.61989" lon="0.16244">
        <ele>92.8</ele>
        <time>2020-06-17T18:29:58Z</time>
      </trkpt>
      <trkpt lat="49.6199" lon="0.16244">
        <ele>92.7</ele>
        <time>2020-06-17T18:29:59Z</time>
      </trkpt>
      <trkpt lat="49.61994" lon="0.16246">
        <ele>92.7</ele>
        <time>2020-06-17T18:30:00Z</time>
      </trkpt>
      <trkpt lat="49.61997" lon="0.16251">
        <ele>92.7</ele>
        <time>2020-06-17T18:30:01Z</time>
      </trkpt>
      <trkpt lat="49.62" lon="0.16257">
        <ele>92.6</ele>
        <time>2020-06-17T18:30:02Z</time>
      </trkpt>
      <trkpt lat="49.62004" lon="0.16263">
        <ele>92.6</ele>
        <time>2020-06-17T18:30:03Z</time>
      </trkpt>
      <trkpt lat="49.62008" lon="0.16268">
        <ele>92.6</ele>
        <time>2020-06-17T18:30:04Z</time>
      </trkpt>
      <trkpt lat="49.62013" lon="0.16273">
        <ele>92.6</ele>
        <time>2020-06-17T18:30:05Z</time>
      </trkpt>
      <trkpt lat="49.62017" lon="0.16279">
        <ele>92.7</ele>
        <time>2020-06-17T18:30:06Z</time>
      </trkpt>
      <trkpt lat="49.62022" lon="0.16284">
        <ele>92.8</ele>
        <time>2020-06-17T18:30:07Z</time>
      </trkpt>
      <trkpt lat="49.62026" lon="0.1629">
        <ele>92.9</ele>
        <time>2020-06-17T18:30:08Z</time>
      </trkpt>
      <trkpt lat="49.6203" lon="0.16296">
        <ele>93</ele>
        <time>2020-06-17T18:30:09Z</time>
      </trkpt>
      <trkpt lat="49.62034" lon="0.16301">
        <ele>93.1</ele>
        <time>2020-06-17T18:30:10Z</time>
      </trkpt>
      <trkpt lat="49.62038" lon="0.16307">
        <ele>93.2</ele>
        <time>2020-06-17T18:30:11Z</time>
      </trkpt>
      <trkpt lat="49.62041" lon="0.16311">
        <ele>93.3</ele>
        <time>2020-06-17T18:30:12Z</time>
      </trkpt>
      <trkpt lat="49.62044" lon="0.16315">
        <ele>93.4</ele>
        <time>2020-06-17T18:30:13Z</time>
      </trkpt>
      <trkpt lat="49.62048" lon="0.1632">
        <ele>93.5</ele>
        <time>2020-06-17T18:30:14Z</time>
      </trkpt>
      <trkpt lat="49.62051" lon="0.16324">
        <ele>93.6</ele>
        <time>2020-06-17T18:30:15Z</time>
      </trkpt>
      <trkpt lat="49.62054" lon="0.16329">
        <ele>93.7</ele>
        <time>2020-06-17T18:30:16Z</time>
      </trkpt>
      <trkpt lat="49.62057" lon="0.16334">
        <ele>93.8</ele>
        <time>2020-06-17T18:30:17Z</time>
      </trkpt>
      <trkpt lat="49.6206" lon="0.16339">
        <ele>93.9</ele>
        <time>2020-06-17T18:30:18Z</time>
      </trkpt>
      <trkpt lat="49.62065" lon="0.16346">
        <ele>94.1</ele>
        <time>2020-06-17T18:30:19Z</time>
      </trkpt>
      <trkpt lat="49.62068" lon="0.1635">
        <ele>94.2</ele>
        <time>2020-06-17T18:30:20Z</time>
      </trkpt>
      <trkpt lat="49.62071" lon="0.16355">
        <ele>94.3</ele>
        <time>2020-06-17T18:30:21Z</time>
      </trkpt>
      <trkpt lat="49.62073" lon="0.1636">
        <ele>94.4</ele>
        <time>2020-06-17T18:30:22Z</time>
      </trkpt>
      <trkpt lat="49.62076" lon="0.16364">
        <ele>94.5</ele>
        <time>2020-06-17T18:30:23Z</time>
      </trkpt>
      <trkpt lat="49.6208" lon="0.16369">
        <ele>94.6</ele>
        <time>2020-06-17T18:30:24Z</time>
      </trkpt>
      <trkpt lat="49.62083" lon="0.16373">
        <ele>94.7</ele>
        <time>2020-06-17T18:30:25Z</time>
      </trkpt>
      <trkpt lat="49.62085" lon="0.16376">
        <ele>94.8</ele>
        <time>2020-06-17T18:30:26Z</time>
      </trkpt>
      <trkpt lat="49.62088" lon="0.16381">
        <ele>95</ele>
        <time>2020-06-17T18:30:27Z</time>
      </trkpt>
      <trkpt lat="49.62091" lon="0.16384">
        <ele>95.1</ele>
        <time>2020-06-17T18:30:28Z</time>
      </trkpt>
      <trkpt lat="49.62094" lon="0.16388">
        <ele>95.2</ele>
        <time>2020-06-17T18:30:29Z</time>
      </trkpt>
      <trkpt lat="49.62097" lon="0.16393">
        <ele>95.2</ele>
        <time>2020-06-17T18:30:30Z</time>
      </trkpt>
      <trkpt lat="49.621" lon="0.16397">
        <ele>95.3</ele>
        <time>2020-06-17T18:30:31Z</time>
      </trkpt>
      <trkpt lat="49.62102" lon="0.164">
        <ele>95.4</ele>
        <time>2020-06-17T18:30:32Z</time>
      </trkpt>
      <trkpt lat="49.62104" lon="0.16404">
        <ele>95.4</ele>
        <time>2020-06-17T18:30:33Z</time>
      </trkpt>
      <trkpt lat="49.62107" lon="0.16409">
        <ele>95.4</ele>
        <time>2020-06-17T18:30:34Z</time>
      </trkpt>
      <trkpt lat="49.6211" lon="0.16413">
        <ele>95.5</ele>
        <time>2020-06-17T18:30:35Z</time>
      </trkpt>
      <trkpt lat="49.62113" lon="0.16417">
        <ele>95.7</ele>
        <time>2020-06-17T18:30:36Z</time>
      </trkpt>
      <trkpt lat="49.62117" lon="0.16421">
        <ele>95.9</ele>
        <time>2020-06-17T18:30:37Z</time>
      </trkpt>
      <trkpt lat="49.6212" lon="0.16426">
        <ele>96</ele>
        <time>2020-06-17T18:30:38Z</time>
      </trkpt>
      <trkpt lat="49.62123" lon="0.16431">
        <ele>96.1</ele>
        <time>2020-06-17T18:30:39Z</time>
      </trkpt>
      <trkpt lat="49.62126" lon="0.16437">
        <ele>96.3</ele>
        <time>2020-06-17T18:30:40Z</time>
      </trkpt>
      <trkpt lat="49.6213" lon="0.16441">
        <ele>96.4</ele>
        <time>2020-06-17T18:30:41Z</time>
      </trkpt>
      <trkpt lat="49.62133" lon="0.16446">
        <ele>96.6</ele>
        <time>2020-06-17T18:30:42Z</time>
      </trkpt>
      <trkpt lat="49.62137" lon="0.16451">
        <ele>96.7</ele>
        <time>2020-06-17T18:30:43Z</time>
      </trkpt>
      <trkpt lat="49.6214" lon="0.16456">
        <ele>96.8</ele>
        <time>2020-06-17T18:30:44Z</time>
      </trkpt>
      <trkpt lat="49.62143" lon="0.16459">
        <ele>97</ele>
        <time>2020-06-17T18:30:45Z</time>
      </trkpt>
      <trkpt lat="49.62147" lon="0.16463">
        <ele>97.1</ele>
        <time>2020-06-17T18:30:46Z</time>
      </trkpt>
      <trkpt lat="49.62151" lon="0.16468">
        <ele>97.2</ele>
        <time>2020-06-17T18:30:47Z</time>
      </trkpt>
      <trkpt lat="49.62154" lon="0.16473">
        <ele>97.3</ele>
        <time>2020-06-17T18:30:48Z</time>
      </trkpt>
      <trkpt lat="49.62159" lon="0.16478">
        <ele>97.4</ele>
        <time>2020-06-17T18:30:49Z</time>
      </trkpt>
      <trkpt lat="49.62162" lon="0.16483">
        <ele>97.5</ele>
        <time>2020-06-17T18:30:50Z</time>
      </trkpt>
      <trkpt lat="49.62166" lon="0.16489">
        <ele>97.7</ele>
        <time>2020-06-17T18:30:51Z</time>
      </trkpt>
      <trkpt lat="49.62169" lon="0.16493">
        <ele>97.8</ele>
        <time>2020-06-17T18:30:52Z</time>
      </trkpt>
      <trkpt lat="49.62172" lon="0.16498">
        <ele>97.9</ele>
        <time>2020-06-17T18:30:53Z</time>
      </trkpt>
      <trkpt lat="49.62175" lon="0.16504">
        <ele>98</ele>
        <time>2020-06-17T18:30:54Z</time>
      </trkpt>
      <trkpt lat="49.62178" lon="0.1651">
        <ele>98</ele>
        <time>2020-06-17T18:30:55Z</time>
      </trkpt>
      <trkpt lat="49.62181" lon="0.16516">
        <ele>98.1</ele>
        <time>2020-06-17T18:30:56Z</time>
      </trkpt>
      <trkpt lat="49.62185" lon="0.16522">
        <ele>98.2</ele>
        <time>2020-06-17T18:30:57Z</time>
      </trkpt>
      <trkpt lat="49.62188" lon="0.16527">
        <ele>98.3</ele>
        <time>2020-06-17T18:30:58Z</time>
      </trkpt>
      <trkpt lat="49.62191" lon="0.16532">
        <ele>98.3</ele>
        <time>2020-06-17T18:30:59Z</time>
      </trkpt>
      <trkpt lat="49.62195" lon="0.16537">
        <ele>98.4</ele>
        <time>2020-06-17T18:31:00Z</time>
      </trkpt>
      <trkpt lat="49.62198" lon="0.16542">
        <ele>98.5</ele>
        <time>2020-06-17T18:31:01Z</time>
      </trkpt>
      <trkpt lat="49.62201" lon="0.16547">
        <ele>98.5</ele>
        <time>2020-06-17T18:31:02Z</time>
      </trkpt>
      <trkpt lat="49.62205" lon="0.16552">
        <ele>98.6</ele>
        <time>2020-06-17T18:31:03Z</time>
      </trkpt>
      <trkpt lat="49.62209" lon="0.16557">
        <ele>98.7</ele>
        <time>2020-06-17T18:31:04Z</time>
      </trkpt>
      <trkpt lat="49.62212" lon="0.16563">
        <ele>98.8</ele>
        <time>2020-06-17T18:31:05Z</time>
      </trkpt>
      <trkpt lat="49.62216" lon="0.16568">
        <ele>98.8</ele>
        <time>2020-06-17T18:31:06Z</time>
      </trkpt>
      <trkpt lat="49.62219" lon="0.16573">
        <ele>98.9</ele>
        <time>2020-06-17T18:31:07Z</time>
      </trkpt>
      <trkpt lat="49.62223" lon="0.16578">
        <ele>99</ele>
        <time>2020-06-17T18:31:08Z</time>
      </trkpt>
      <trkpt lat="49.62228" lon="0.16583">
        <ele>99.1</ele>
        <time>2020-06-17T18:31:09Z</time>
      </trkpt>
      <trkpt lat="49.62232" lon="0.16587">
        <ele>99.3</ele>
        <time>2020-06-17T18:31:10Z</time>
      </trkpt>
      <trkpt lat="49.62235" lon="0.16593">
        <ele>99.5</ele>
        <time>2020-06-17T18:31:11Z</time>
      </trkpt>
      <trkpt lat="49.62239" lon="0.16598">
        <ele>99.6</ele>
        <time>2020-06-17T18:31:12Z</time>
      </trkpt>
      <trkpt lat="49.62242" lon="0.16603">
        <ele>99.7</ele>
        <time>2020-06-17T18:31:13Z</time>
      </trkpt>
      <trkpt lat="49.62245" lon="0.16608">
        <ele>99.8</ele>
        <time>2020-06-17T18:31:14Z</time>
      </trkpt>
      <trkpt lat="49.62249" lon="0.16613">
        <ele>99.9</ele>
        <time>2020-06-17T18:31:15Z</time>
      </trkpt>
      <trkpt lat="49.62252" lon="0.16619">
        <ele>100</ele>
        <time>2020-06-17T18:31:16Z</time>
      </trkpt>
      <trkpt lat="49.62255" lon="0.16624">
        <ele>100.1</ele>
        <time>2020-06-17T18:31:17Z</time>
      </trkpt>
      <trkpt lat="49.62259" lon="0.16631">
        <ele>100.2</ele>
        <time>2020-06-17T18:31:18Z</time>
      </trkpt>
      <trkpt lat="49.62262" lon="0.16635">
        <ele>100.3</ele>
        <time>2020-06-17T18:31:19Z</time>
      </trkpt>
      <trkpt lat="49.62265" lon="0.1664">
        <ele>100.4</ele>
        <time>2020-06-17T18:31:20Z</time>
      </trkpt>
      <trkpt lat="49.62268" lon="0.16645">
        <ele>100.5</ele>
        <time>2020-06-17T18:31:21Z</time>
      </trkpt>
      <trkpt lat="49.62272" lon="0.1665">
        <ele>100.7</ele>
        <time>2020-06-17T18:31:22Z</time>
      </trkpt>
      <trkpt lat="49.62275" lon="0.16655">
        <ele>100.8</ele>
        <time>2020-06-17T18:31:23Z</time>
      </trkpt>
      <trkpt lat="49.62279" lon="0.16661">
        <ele>100.9</ele>
        <time>2020-06-17T18:31:24Z</time>
      </trkpt>
      <trkpt lat="49.62282" lon="0.16666">
        <ele>101</ele>
        <time>2020-06-17T18:31:25Z</time>
      </trkpt>
      <trkpt lat="49.62285" lon="0.16671">
        <ele>101.1</ele>
        <time>2020-06-17T18:31:26Z</time>
      </trkpt>
      <trkpt lat="49.62289" lon="0.16677">
        <ele>101.2</ele>
        <time>2020-06-17T18:31:27Z</time>
      </trkpt>
      <trkpt lat="49.62293" lon="0.16682">
        <ele>101.3</ele>
        <time>2020-06-17T18:31:28Z</time>
      </trkpt>
      <trkpt lat="49.62296" lon="0.16686">
        <ele>101.4</ele>
        <time>2020-06-17T18:31:29Z</time>
      </trkpt>
      <trkpt lat="49.623" lon="0.16691">
        <ele>101.6</ele>
        <time>2020-06-17T18:31:30Z</time>
      </trkpt>
      <trkpt lat="49.62303" lon="0.16697">
        <ele>101.7</ele>
        <time>2020-06-17T18:31:31Z</time>
      </trkpt>
      <trkpt lat="49.62306" lon="0.16703">
        <ele>101.8</ele>
        <time>2020-06-17T18:31:32Z</time>
      </trkpt>
      <trkpt lat="49.6231" lon="0.16708">
        <ele>102</ele>
        <time>2020-06-17T18:31:33Z</time>
      </trkpt>
      <trkpt lat="49.62313" lon="0.16713">
        <ele>102.1</ele>
        <time>2020-06-17T18:31:34Z</time>
      </trkpt>
      <trkpt lat="49.62316" lon="0.16719">
        <ele>102.3</ele>
        <time>2020-06-17T18:31:35Z</time>
      </trkpt>
      <trkpt lat="49.6232" lon="0.16725">
        <ele>102.5</ele>
        <time>2020-06-17T18:31:36Z</time>
      </trkpt>
      <trkpt lat="49.62324" lon="0.16729">
        <ele>102.7</ele>
        <time>2020-06-17T18:31:37Z</time>
      </trkpt>
      <trkpt lat="49.62327" lon="0.16733">
        <ele>102.8</ele>
        <time>2020-06-17T18:31:38Z</time>
      </trkpt>
      <trkpt lat="49.62331" lon="0.16738">
        <ele>103</ele>
        <time>2020-06-17T18:31:39Z</time>
      </trkpt>
      <trkpt lat="49.62335" lon="0.16744">
        <ele>103.2</ele>
        <time>2020-06-17T18:31:40Z</time>
      </trkpt>
      <trkpt lat="49.62339" lon="0.16749">
        <ele>103.4</ele>
        <time>2020-06-17T18:31:41Z</time>
      </trkpt>
      <trkpt lat="49.62341" lon="0.16754">
        <ele>103.5</ele>
        <time>2020-06-17T18:31:42Z</time>
      </trkpt>
      <trkpt lat="49.62344" lon="0.16758">
        <ele>103.7</ele>
        <time>2020-06-17T18:31:43Z</time>
      </trkpt>
      <trkpt lat="49.62348" lon="0.16764">
        <ele>103.9</ele>
        <time>2020-06-17T18:31:44Z</time>
      </trkpt>
      <trkpt lat="49.62352" lon="0.16768">
        <ele>104</ele>
        <time>2020-06-17T18:31:45Z</time>
      </trkpt>
      <trkpt lat="49.62355" lon="0.16772">
        <ele>104.2</ele>
        <time>2020-06-17T18:31:46Z</time>
      </trkpt>
      <trkpt lat="49.62359" lon="0.16777">
        <ele>104.3</ele>
        <time>2020-06-17T18:31:47Z</time>
      </trkpt>
      <trkpt lat="49.62361" lon="0.16781">
        <ele>104.4</ele>
        <time>2020-06-17T18:31:48Z</time>
      </trkpt>
      <trkpt lat="49.62365" lon="0.16787">
        <ele>104.6</ele>
        <time>2020-06-17T18:31:49Z</time>
      </trkpt>
      <trkpt lat="49.62368" lon="0.16791">
        <ele>104.7</ele>
        <time>2020-06-17T18:31:50Z</time>
      </trkpt>
      <trkpt lat="49.62371" lon="0.16796">
        <ele>104.9</ele>
        <time>2020-06-17T18:31:51Z</time>
      </trkpt>
      <trkpt lat="49.62374" lon="0.16801">
        <ele>105</ele>
        <time>2020-06-17T18:31:52Z</time>
      </trkpt>
      <trkpt lat="49.62377" lon="0.16807">
        <ele>105.2</ele>
        <time>2020-06-17T18:31:53Z</time>
      </trkpt>
      <trkpt lat="49.6238" lon="0.16812">
        <ele>105.3</ele>
        <time>2020-06-17T18:31:54Z</time>
      </trkpt>
      <trkpt lat="49.62385" lon="0.16815">
        <ele>105.5</ele>
        <time>2020-06-17T18:31:55Z</time>
      </trkpt>
      <trkpt lat="49.62388" lon="0.1682">
        <ele>105.6</ele>
        <time>2020-06-17T18:31:56Z</time>
      </trkpt>
      <trkpt lat="49.62392" lon="0.16825">
        <ele>105.8</ele>
        <time>2020-06-17T18:31:57Z</time>
      </trkpt>
      <trkpt lat="49.62395" lon="0.1683">
        <ele>105.9</ele>
        <time>2020-06-17T18:31:58Z</time>
      </trkpt>
      <trkpt lat="49.62398" lon="0.16833">
        <ele>106.1</ele>
        <time>2020-06-17T18:31:59Z</time>
      </trkpt>
      <trkpt lat="49.624" lon="0.16836">
        <ele>106.2</ele>
        <time>2020-06-17T18:32:00Z</time>
      </trkpt>
      <trkpt lat="49.62403" lon="0.1684">
        <ele>106.3</ele>
        <time>2020-06-17T18:32:01Z</time>
      </trkpt>
      <trkpt lat="49.62407" lon="0.16843">
        <ele>106.4</ele>
        <time>2020-06-17T18:32:02Z</time>
      </trkpt>
      <trkpt lat="49.6241" lon="0.16846">
        <ele>106.6</ele>
        <time>2020-06-17T18:32:03Z</time>
      </trkpt>
      <trkpt lat="49.62414" lon="0.1685">
        <ele>106.7</ele>
        <time>2020-06-17T18:32:04Z</time>
      </trkpt>
      <trkpt lat="49.62417" lon="0.16853">
        <ele>106.9</ele>
        <time>2020-06-17T18:32:05Z</time>
      </trkpt>
      <trkpt lat="49.6242" lon="0.16856">
        <ele>107</ele>
        <time>2020-06-17T18:32:06Z</time>
      </trkpt>
      <trkpt lat="49.62424" lon="0.16859">
        <ele>107.1</ele>
        <time>2020-06-17T18:32:07Z</time>
      </trkpt>
      <trkpt lat="49.62427" lon="0.16865">
        <ele>107.3</ele>
        <time>2020-06-17T18:32:08Z</time>
      </trkpt>
      <trkpt lat="49.62431" lon="0.16871">
        <ele>107.5</ele>
        <time>2020-06-17T18:32:09Z</time>
      </trkpt>
      <trkpt lat="49.62434" lon="0.16877">
        <ele>107.7</ele>
        <time>2020-06-17T18:32:10Z</time>
      </trkpt>
      <trkpt lat="49.62438" lon="0.16883">
        <ele>107.9</ele>
        <time>2020-06-17T18:32:11Z</time>
      </trkpt>
      <trkpt lat="49.62442" lon="0.16889">
        <ele>108.1</ele>
        <time>2020-06-17T18:32:12Z</time>
      </trkpt>
      <trkpt lat="49.62446" lon="0.16895">
        <ele>108.3</ele>
        <time>2020-06-17T18:32:13Z</time>
      </trkpt>
      <trkpt lat="49.62448" lon="0.16899">
        <ele>108.4</ele>
        <time>2020-06-17T18:32:14Z</time>
      </trkpt>
      <trkpt lat="49.62452" lon="0.16904">
        <ele>108.6</ele>
        <time>2020-06-17T18:32:15Z</time>
      </trkpt>
      <trkpt lat="49.62456" lon="0.16909">
        <ele>108.7</ele>
        <time>2020-06-17T18:32:16Z</time>
      </trkpt>
      <trkpt lat="49.62459" lon="0.16912">
        <ele>108.9</ele>
        <time>2020-06-17T18:32:17Z</time>
      </trkpt>
      <trkpt lat="49.62462" lon="0.16916">
        <ele>109</ele>
        <time>2020-06-17T18:32:18Z</time>
      </trkpt>
      <trkpt lat="49.62465" lon="0.1692">
        <ele>109.1</ele>
        <time>2020-06-17T18:32:19Z</time>
      </trkpt>
      <trkpt lat="49.62469" lon="0.16925">
        <ele>109.2</ele>
        <time>2020-06-17T18:32:20Z</time>
      </trkpt>
      <trkpt lat="49.62472" lon="0.16928">
        <ele>109.4</ele>
        <time>2020-06-17T18:32:21Z</time>
      </trkpt>
      <trkpt lat="49.62475" lon="0.16933">
        <ele>109.5</ele>
        <time>2020-06-17T18:32:22Z</time>
      </trkpt>
      <trkpt lat="49.62478" lon="0.16939">
        <ele>109.7</ele>
        <time>2020-06-17T18:32:23Z</time>
      </trkpt>
      <trkpt lat="49.6248" lon="0.16943">
        <ele>109.8</ele>
        <time>2020-06-17T18:32:24Z</time>
      </trkpt>
      <trkpt lat="49.62483" lon="0.1695">
        <ele>110</ele>
        <time>2020-06-17T18:32:25Z</time>
      </trkpt>
      <trkpt lat="49.62486" lon="0.16955">
        <ele>110.2</ele>
        <time>2020-06-17T18:32:26Z</time>
      </trkpt>
      <trkpt lat="49.62489" lon="0.1696">
        <ele>110.3</ele>
        <time>2020-06-17T18:32:27Z</time>
      </trkpt>
      <trkpt lat="49.62492" lon="0.16965">
        <ele>110.3</ele>
        <time>2020-06-17T18:32:28Z</time>
      </trkpt>
      <trkpt lat="49.62496" lon="0.16969">
        <ele>110.4</ele>
        <time>2020-06-17T18:32:29Z</time>
      </trkpt>
      <trkpt lat="49.62499" lon="0.16974">
        <ele>110.6</ele>
        <time>2020-06-17T18:32:30Z</time>
      </trkpt>
      <trkpt lat="49.62502" lon="0.16979">
        <ele>110.6</ele>
        <time>2020-06-17T18:32:31Z</time>
      </trkpt>
      <trkpt lat="49.62506" lon="0.16983">
        <ele>110.7</ele>
        <time>2020-06-17T18:32:32Z</time>
      </trkpt>
      <trkpt lat="49.62509" lon="0.16987">
        <ele>110.8</ele>
        <time>2020-06-17T18:32:33Z</time>
      </trkpt>
      <trkpt lat="49.62513" lon="0.16992">
        <ele>110.9</ele>
        <time>2020-06-17T18:32:34Z</time>
      </trkpt>
      <trkpt lat="49.62516" lon="0.16997">
        <ele>111</ele>
        <time>2020-06-17T18:32:35Z</time>
      </trkpt>
      <trkpt lat="49.62521" lon="0.17">
        <ele>111.1</ele>
        <time>2020-06-17T18:32:36Z</time>
      </trkpt>
      <trkpt lat="49.62524" lon="0.17004">
        <ele>111.2</ele>
        <time>2020-06-17T18:32:37Z</time>
      </trkpt>
      <trkpt lat="49.62527" lon="0.1701">
        <ele>111.3</ele>
        <time>2020-06-17T18:32:38Z</time>
      </trkpt>
      <trkpt lat="49.6253" lon="0.17015">
        <ele>111.4</ele>
        <time>2020-06-17T18:32:39Z</time>
      </trkpt>
      <trkpt lat="49.62533" lon="0.1702">
        <ele>111.5</ele>
        <time>2020-06-17T18:32:40Z</time>
      </trkpt>
      <trkpt lat="49.62537" lon="0.17025">
        <ele>111.5</ele>
        <time>2020-06-17T18:32:41Z</time>
      </trkpt>
      <trkpt lat="49.62539" lon="0.17029">
        <ele>111.6</ele>
        <time>2020-06-17T18:32:42Z</time>
      </trkpt>
      <trkpt lat="49.62542" lon="0.17033">
        <ele>111.6</ele>
        <time>2020-06-17T18:32:43Z</time>
      </trkpt>
      <trkpt lat="49.62545" lon="0.17039">
        <ele>111.7</ele>
        <time>2020-06-17T18:32:44Z</time>
      </trkpt>
      <trkpt lat="49.62549" lon="0.17047">
        <ele>111.8</ele>
        <time>2020-06-17T18:32:45Z</time>
      </trkpt>
      <trkpt lat="49.62553" lon="0.17053">
        <ele>111.9</ele>
        <time>2020-06-17T18:32:46Z</time>
      </trkpt>
      <trkpt lat="49.62557" lon="0.17059">
        <ele>112</ele>
        <time>2020-06-17T18:32:47Z</time>
      </trkpt>
      <trkpt lat="49.62562" lon="0.17065">
        <ele>112.1</ele>
        <time>2020-06-17T18:32:48Z</time>
      </trkpt>
      <trkpt lat="49.62565" lon="0.17072">
        <ele>112.2</ele>
        <time>2020-06-17T18:32:49Z</time>
      </trkpt>
      <trkpt lat="49.62569" lon="0.17079">
        <ele>112.3</ele>
        <time>2020-06-17T18:32:50Z</time>
      </trkpt>
      <trkpt lat="49.62573" lon="0.17085">
        <ele>112.4</ele>
        <time>2020-06-17T18:32:51Z</time>
      </trkpt>
      <trkpt lat="49.62577" lon="0.1709">
        <ele>112.5</ele>
        <time>2020-06-17T18:32:52Z</time>
      </trkpt>
      <trkpt lat="49.6258" lon="0.17095">
        <ele>112.5</ele>
        <time>2020-06-17T18:32:53Z</time>
      </trkpt>
      <trkpt lat="49.62583" lon="0.171">
        <ele>112.6</ele>
        <time>2020-06-17T18:32:54Z</time>
      </trkpt>
      <trkpt lat="49.62587" lon="0.17106">
        <ele>112.6</ele>
        <time>2020-06-17T18:32:55Z</time>
      </trkpt>
      <trkpt lat="49.6259" lon="0.17112">
        <ele>112.7</ele>
        <time>2020-06-17T18:32:56Z</time>
      </trkpt>
      <trkpt lat="49.62594" lon="0.17117">
        <ele>112.7</ele>
        <time>2020-06-17T18:32:57Z</time>
      </trkpt>
      <trkpt lat="49.62598" lon="0.17123">
        <ele>112.8</ele>
        <time>2020-06-17T18:32:58Z</time>
      </trkpt>
      <trkpt lat="49.62602" lon="0.17128">
        <ele>112.8</ele>
        <time>2020-06-17T18:32:59Z</time>
      </trkpt>
      <trkpt lat="49.62605" lon="0.17132">
        <ele>112.8</ele>
        <time>2020-06-17T18:33:00Z</time>
      </trkpt>
      <trkpt lat="49.62609" lon="0.17137">
        <ele>112.9</ele>
        <time>2020-06-17T18:33:01Z</time>
      </trkpt>
      <trkpt lat="49.62612" lon="0.17142">
        <ele>112.9</ele>
        <time>2020-06-17T18:33:02Z</time>
      </trkpt>
      <trkpt lat="49.62616" lon="0.17148">
        <ele>112.9</ele>
        <time>2020-06-17T18:33:03Z</time>
      </trkpt>
      <trkpt lat="49.62619" lon="0.17152">
        <ele>112.9</ele>
        <time>2020-06-17T18:33:04Z</time>
      </trkpt>
      <trkpt lat="49.62624" lon="0.17158">
        <ele>113</ele>
        <time>2020-06-17T18:33:05Z</time>
      </trkpt>
      <trkpt lat="49.62628" lon="0.17163">
        <ele>113</ele>
        <time>2020-06-17T18:33:06Z</time>
      </trkpt>
      <trkpt lat="49.62631" lon="0.17169">
        <ele>113.1</ele>
        <time>2020-06-17T18:33:07Z</time>
      </trkpt>
      <trkpt lat="49.62635" lon="0.17174">
        <ele>113.1</ele>
        <time>2020-06-17T18:33:08Z</time>
      </trkpt>
      <trkpt lat="49.62639" lon="0.1718">
        <ele>113.1</ele>
        <time>2020-06-17T18:33:09Z</time>
      </trkpt>
      <trkpt lat="49.62642" lon="0.17187">
        <ele>113.2</ele>
        <time>2020-06-17T18:33:10Z</time>
      </trkpt>
      <trkpt lat="49.62646" lon="0.17192">
        <ele>113.2</ele>
        <time>2020-06-17T18:33:11Z</time>
      </trkpt>
      <trkpt lat="49.6265" lon="0.17198">
        <ele>113.2</ele>
        <time>2020-06-17T18:33:12Z</time>
      </trkpt>
      <trkpt lat="49.62653" lon="0.17205">
        <ele>113.3</ele>
        <time>2020-06-17T18:33:13Z</time>
      </trkpt>
      <trkpt lat="49.62657" lon="0.17211">
        <ele>113.3</ele>
        <time>2020-06-17T18:33:14Z</time>
      </trkpt>
      <trkpt lat="49.6266" lon="0.17216">
        <ele>113.3</ele>
        <time>2020-06-17T18:33:15Z</time>
      </trkpt>
      <trkpt lat="49.62664" lon="0.17221">
        <ele>113.4</ele>
        <time>2020-06-17T18:33:16Z</time>
      </trkpt>
      <trkpt lat="49.62669" lon="0.17226">
        <ele>113.4</ele>
        <time>2020-06-17T18:33:17Z</time>
      </trkpt>
      <trkpt lat="49.62673" lon="0.17232">
        <ele>113.5</ele>
        <time>2020-06-17T18:33:18Z</time>
      </trkpt>
      <trkpt lat="49.62676" lon="0.17238">
        <ele>113.5</ele>
        <time>2020-06-17T18:33:19Z</time>
      </trkpt>
      <trkpt lat="49.6268" lon="0.17244">
        <ele>113.5</ele>
        <time>2020-06-17T18:33:20Z</time>
      </trkpt>
      <trkpt lat="49.62683" lon="0.17251">
        <ele>113.5</ele>
        <time>2020-06-17T18:33:21Z</time>
      </trkpt>
      <trkpt lat="49.62686" lon="0.17258">
        <ele>113.5</ele>
        <time>2020-06-17T18:33:22Z</time>
      </trkpt>
      <trkpt lat="49.6269" lon="0.17264">
        <ele>113.4</ele>
        <time>2020-06-17T18:33:23Z</time>
      </trkpt>
      <trkpt lat="49.62693" lon="0.1727">
        <ele>113.4</ele>
        <time>2020-06-17T18:33:24Z</time>
      </trkpt>
      <trkpt lat="49.62697" lon="0.17276">
        <ele>113.5</ele>
        <time>2020-06-17T18:33:25Z</time>
      </trkpt>
      <trkpt lat="49.62701" lon="0.17282">
        <ele>113.5</ele>
        <time>2020-06-17T18:33:26Z</time>
      </trkpt>
      <trkpt lat="49.62706" lon="0.17287">
        <ele>113.5</ele>
        <time>2020-06-17T18:33:27Z</time>
      </trkpt>
      <trkpt lat="49.6271" lon="0.17293">
        <ele>113.5</ele>
        <time>2020-06-17T18:33:28Z</time>
      </trkpt>
      <trkpt lat="49.62714" lon="0.17299">
        <ele>113.5</ele>
        <time>2020-06-17T18:33:29Z</time>
      </trkpt>
      <trkpt lat="49.62718" lon="0.17304">
        <ele>113.5</ele>
        <time>2020-06-17T18:33:30Z</time>
      </trkpt>
      <trkpt lat="49.62722" lon="0.17311">
        <ele>113.5</ele>
        <time>2020-06-17T18:33:31Z</time>
      </trkpt>
      <trkpt lat="49.62726" lon="0.17317">
        <ele>113.6</ele>
        <time>2020-06-17T18:33:32Z</time>
      </trkpt>
      <trkpt lat="49.62729" lon="0.17323">
        <ele>113.6</ele>
        <time>2020-06-17T18:33:33Z</time>
      </trkpt>
      <trkpt lat="49.62733" lon="0.17329">
        <ele>113.6</ele>
        <time>2020-06-17T18:33:34Z</time>
      </trkpt>
      <trkpt lat="49.62737" lon="0.17335">
        <ele>113.6</ele>
        <time>2020-06-17T18:33:35Z</time>
      </trkpt>
      <trkpt lat="49.62741" lon="0.1734">
        <ele>113.6</ele>
        <time>2020-06-17T18:33:36Z</time>
      </trkpt>
      <trkpt lat="49.62745" lon="0.17344">
        <ele>113.6</ele>
        <time>2020-06-17T18:33:37Z</time>
      </trkpt>
      <trkpt lat="49.62749" lon="0.17349">
        <ele>113.7</ele>
        <time>2020-06-17T18:33:38Z</time>
      </trkpt>
      <trkpt lat="49.62753" lon="0.17354">
        <ele>113.7</ele>
        <time>2020-06-17T18:33:39Z</time>
      </trkpt>
      <trkpt lat="49.62757" lon="0.1736">
        <ele>113.7</ele>
        <time>2020-06-17T18:33:40Z</time>
      </trkpt>
      <trkpt lat="49.62761" lon="0.17365">
        <ele>113.8</ele>
        <time>2020-06-17T18:33:41Z</time>
      </trkpt>
      <trkpt lat="49.62766" lon="0.17372">
        <ele>113.8</ele>
        <time>2020-06-17T18:33:42Z</time>
      </trkpt>
      <trkpt lat="49.62771" lon="0.17378">
        <ele>113.9</ele>
        <time>2020-06-17T18:33:43Z</time>
      </trkpt>
      <trkpt lat="49.62775" lon="0.17383">
        <ele>113.9</ele>
        <time>2020-06-17T18:33:44Z</time>
      </trkpt>
      <trkpt lat="49.62779" lon="0.17389">
        <ele>114</ele>
        <time>2020-06-17T18:33:45Z</time>
      </trkpt>
      <trkpt lat="49.62783" lon="0.17395">
        <ele>114</ele>
        <time>2020-06-17T18:33:46Z</time>
      </trkpt>
      <trkpt lat="49.62787" lon="0.17401">
        <ele>114</ele>
        <time>2020-06-17T18:33:47Z</time>
      </trkpt>
      <trkpt lat="49.62791" lon="0.17408">
        <ele>114.1</ele>
        <time>2020-06-17T18:33:48Z</time>
      </trkpt>
      <trkpt lat="49.62796" lon="0.17414">
        <ele>114.1</ele>
        <time>2020-06-17T18:33:49Z</time>
      </trkpt>
      <trkpt lat="49.628" lon="0.1742">
        <ele>114.1</ele>
        <time>2020-06-17T18:33:50Z</time>
      </trkpt>
      <trkpt lat="49.62803" lon="0.17426">
        <ele>114.1</ele>
        <time>2020-06-17T18:33:51Z</time>
      </trkpt>
      <trkpt lat="49.62807" lon="0.17433">
        <ele>114.2</ele>
        <time>2020-06-17T18:33:52Z</time>
      </trkpt>
      <trkpt lat="49.62811" lon="0.17438">
        <ele>114.2</ele>
        <time>2020-06-17T18:33:53Z</time>
      </trkpt>
      <trkpt lat="49.62815" lon="0.17443">
        <ele>114.2</ele>
        <time>2020-06-17T18:33:54Z</time>
      </trkpt>
      <trkpt lat="49.62819" lon="0.17449">
        <ele>114.2</ele>
        <time>2020-06-17T18:33:55Z</time>
      </trkpt>
      <trkpt lat="49.62823" lon="0.17454">
        <ele>114.3</ele>
        <time>2020-06-17T18:33:56Z</time>
      </trkpt>
      <trkpt lat="49.62827" lon="0.17459">
        <ele>114.3</ele>
        <time>2020-06-17T18:33:57Z</time>
      </trkpt>
      <trkpt lat="49.62831" lon="0.17465">
        <ele>114.4</ele>
        <time>2020-06-17T18:33:58Z</time>
      </trkpt>
      <trkpt lat="49.62835" lon="0.17471">
        <ele>114.5</ele>
        <time>2020-06-17T18:33:59Z</time>
      </trkpt>
      <trkpt lat="49.62838" lon="0.17477">
        <ele>114.7</ele>
        <time>2020-06-17T18:34:00Z</time>
      </trkpt>
      <trkpt lat="49.62842" lon="0.17482">
        <ele>114.7</ele>
        <time>2020-06-17T18:34:01Z</time>
      </trkpt>
      <trkpt lat="49.62846" lon="0.17487">
        <ele>114.6</ele>
        <time>2020-06-17T18:34:02Z</time>
      </trkpt>
      <trkpt lat="49.6285" lon="0.17493">
        <ele>114.6</ele>
        <time>2020-06-17T18:34:03Z</time>
      </trkpt>
      <trkpt lat="49.62854" lon="0.17498">
        <ele>114.6</ele>
        <time>2020-06-17T18:34:04Z</time>
      </trkpt>
      <trkpt lat="49.62857" lon="0.17504">
        <ele>114.6</ele>
        <time>2020-06-17T18:34:05Z</time>
      </trkpt>
      <trkpt lat="49.62862" lon="0.1751">
        <ele>114.6</ele>
        <time>2020-06-17T18:34:06Z</time>
      </trkpt>
      <trkpt lat="49.62866" lon="0.17516">
        <ele>114.6</ele>
        <time>2020-06-17T18:34:07Z</time>
      </trkpt>
      <trkpt lat="49.6287" lon="0.17523">
        <ele>114.6</ele>
        <time>2020-06-17T18:34:08Z</time>
      </trkpt>
      <trkpt lat="49.62875" lon="0.1753">
        <ele>114.6</ele>
        <time>2020-06-17T18:34:09Z</time>
      </trkpt>
      <trkpt lat="49.62879" lon="0.17537">
        <ele>114.6</ele>
        <time>2020-06-17T18:34:10Z</time>
      </trkpt>
      <trkpt lat="49.62883" lon="0.17543">
        <ele>114.6</ele>
        <time>2020-06-17T18:34:11Z</time>
      </trkpt>
      <trkpt lat="49.62887" lon="0.17548">
        <ele>114.6</ele>
        <time>2020-06-17T18:34:12Z</time>
      </trkpt>
      <trkpt lat="49.62892" lon="0.17554">
        <ele>114.6</ele>
        <time>2020-06-17T18:34:13Z</time>
      </trkpt>
      <trkpt lat="49.62896" lon="0.1756">
        <ele>114.7</ele>
        <time>2020-06-17T18:34:14Z</time>
      </trkpt>
      <trkpt lat="49.62901" lon="0.17565">
        <ele>114.7</ele>
        <time>2020-06-17T18:34:15Z</time>
      </trkpt>
      <trkpt lat="49.62905" lon="0.17572">
        <ele>114.7</ele>
        <time>2020-06-17T18:34:16Z</time>
      </trkpt>
      <trkpt lat="49.6291" lon="0.17579">
        <ele>114.8</ele>
        <time>2020-06-17T18:34:17Z</time>
      </trkpt>
      <trkpt lat="49.62914" lon="0.17585">
        <ele>114.8</ele>
        <time>2020-06-17T18:34:18Z</time>
      </trkpt>
      <trkpt lat="49.62917" lon="0.1759">
        <ele>114.8</ele>
        <time>2020-06-17T18:34:19Z</time>
      </trkpt>
      <trkpt lat="49.62921" lon="0.17596">
        <ele>114.8</ele>
        <time>2020-06-17T18:34:20Z</time>
      </trkpt>
      <trkpt lat="49.62924" lon="0.17601">
        <ele>114.9</ele>
        <time>2020-06-17T18:34:21Z</time>
      </trkpt>
      <trkpt lat="49.62928" lon="0.17608">
        <ele>114.9</ele>
        <time>2020-06-17T18:34:22Z</time>
      </trkpt>
      <trkpt lat="49.62932" lon="0.17614">
        <ele>114.9</ele>
        <time>2020-06-17T18:34:23Z</time>
      </trkpt>
      <trkpt lat="49.62935" lon="0.1762">
        <ele>114.9</ele>
        <time>2020-06-17T18:34:24Z</time>
      </trkpt>
      <trkpt lat="49.62939" lon="0.17625">
        <ele>114.9</ele>
        <time>2020-06-17T18:34:25Z</time>
      </trkpt>
      <trkpt lat="49.62943" lon="0.17632">
        <ele>115</ele>
        <time>2020-06-17T18:34:26Z</time>
      </trkpt>
      <trkpt lat="49.62947" lon="0.17638">
        <ele>115</ele>
        <time>2020-06-17T18:34:27Z</time>
      </trkpt>
      <trkpt lat="49.62951" lon="0.17644">
        <ele>115.1</ele>
        <time>2020-06-17T18:34:28Z</time>
      </trkpt>
      <trkpt lat="49.62954" lon="0.1765">
        <ele>115.1</ele>
        <time>2020-06-17T18:34:29Z</time>
      </trkpt>
      <trkpt lat="49.62958" lon="0.17657">
        <ele>115.2</ele>
        <time>2020-06-17T18:34:30Z</time>
      </trkpt>
      <trkpt lat="49.62962" lon="0.17663">
        <ele>115.2</ele>
        <time>2020-06-17T18:34:31Z</time>
      </trkpt>
      <trkpt lat="49.62967" lon="0.17669">
        <ele>115.2</ele>
        <time>2020-06-17T18:34:32Z</time>
      </trkpt>
      <trkpt lat="49.62971" lon="0.17676">
        <ele>115.3</ele>
        <time>2020-06-17T18:34:33Z</time>
      </trkpt>
      <trkpt lat="49.62975" lon="0.17682">
        <ele>115.3</ele>
        <time>2020-06-17T18:34:34Z</time>
      </trkpt>
      <trkpt lat="49.62979" lon="0.17687">
        <ele>115.4</ele>
        <time>2020-06-17T18:34:35Z</time>
      </trkpt>
      <trkpt lat="49.62982" lon="0.17693">
        <ele>115.5</ele>
        <time>2020-06-17T18:34:36Z</time>
      </trkpt>
      <trkpt lat="49.62987" lon="0.17699">
        <ele>115.6</ele>
        <time>2020-06-17T18:34:37Z</time>
      </trkpt>
      <trkpt lat="49.62991" lon="0.17704">
        <ele>115.8</ele>
        <time>2020-06-17T18:34:38Z</time>
      </trkpt>
      <trkpt lat="49.62995" lon="0.1771">
        <ele>115.8</ele>
        <time>2020-06-17T18:34:39Z</time>
      </trkpt>
      <trkpt lat="49.62999" lon="0.17716">
        <ele>115.8</ele>
        <time>2020-06-17T18:34:40Z</time>
      </trkpt>
      <trkpt lat="49.63003" lon="0.17722">
        <ele>115.8</ele>
        <time>2020-06-17T18:34:41Z</time>
      </trkpt>
      <trkpt lat="49.63007" lon="0.17728">
        <ele>115.9</ele>
        <time>2020-06-17T18:34:42Z</time>
      </trkpt>
      <trkpt lat="49.63011" lon="0.17735">
        <ele>116</ele>
        <time>2020-06-17T18:34:43Z</time>
      </trkpt>
      <trkpt lat="49.63015" lon="0.17742">
        <ele>116</ele>
        <time>2020-06-17T18:34:44Z</time>
      </trkpt>
      <trkpt lat="49.63019" lon="0.17747">
        <ele>116.1</ele>
        <time>2020-06-17T18:34:45Z</time>
      </trkpt>
      <trkpt lat="49.63023" lon="0.17753">
        <ele>116.1</ele>
        <time>2020-06-17T18:34:46Z</time>
      </trkpt>
      <trkpt lat="49.63027" lon="0.17759">
        <ele>116.1</ele>
        <time>2020-06-17T18:34:47Z</time>
      </trkpt>
      <trkpt lat="49.63032" lon="0.17766">
        <ele>116.2</ele>
        <time>2020-06-17T18:34:48Z</time>
      </trkpt>
      <trkpt lat="49.63035" lon="0.17772">
        <ele>116.2</ele>
        <time>2020-06-17T18:34:49Z</time>
      </trkpt>
      <trkpt lat="49.6304" lon="0.17777">
        <ele>116.2</ele>
        <time>2020-06-17T18:34:50Z</time>
      </trkpt>
      <trkpt lat="49.63044" lon="0.17783">
        <ele>116.3</ele>
        <time>2020-06-17T18:34:51Z</time>
      </trkpt>
      <trkpt lat="49.63047" lon="0.17788">
        <ele>116.3</ele>
        <time>2020-06-17T18:34:52Z</time>
      </trkpt>
      <trkpt lat="49.63051" lon="0.17792">
        <ele>116.4</ele>
        <time>2020-06-17T18:34:53Z</time>
      </trkpt>
      <trkpt lat="49.63055" lon="0.17798">
        <ele>116.4</ele>
        <time>2020-06-17T18:34:54Z</time>
      </trkpt>
      <trkpt lat="49.6306" lon="0.17804">
        <ele>116.5</ele>
        <time>2020-06-17T18:34:55Z</time>
      </trkpt>
      <trkpt lat="49.63064" lon="0.17809">
        <ele>116.5</ele>
        <time>2020-06-17T18:34:56Z</time>
      </trkpt>
      <trkpt lat="49.63069" lon="0.17815">
        <ele>116.6</ele>
        <time>2020-06-17T18:34:57Z</time>
      </trkpt>
      <trkpt lat="49.63073" lon="0.17822">
        <ele>116.6</ele>
        <time>2020-06-17T18:34:58Z</time>
      </trkpt>
      <trkpt lat="49.63077" lon="0.17828">
        <ele>116.7</ele>
        <time>2020-06-17T18:34:59Z</time>
      </trkpt>
      <trkpt lat="49.63082" lon="0.17834">
        <ele>116.7</ele>
        <time>2020-06-17T18:35:00Z</time>
      </trkpt>
      <trkpt lat="49.63086" lon="0.1784">
        <ele>116.7</ele>
        <time>2020-06-17T18:35:01Z</time>
      </trkpt>
      <trkpt lat="49.63089" lon="0.17846">
        <ele>116.7</ele>
        <time>2020-06-17T18:35:02Z</time>
      </trkpt>
      <trkpt lat="49.63093" lon="0.17852">
        <ele>116.7</ele>
        <time>2020-06-17T18:35:03Z</time>
      </trkpt>
      <trkpt lat="49.63097" lon="0.17859">
        <ele>116.7</ele>
        <time>2020-06-17T18:35:04Z</time>
      </trkpt>
      <trkpt lat="49.631" lon="0.17865">
        <ele>116.7</ele>
        <time>2020-06-17T18:35:05Z</time>
      </trkpt>
      <trkpt lat="49.63104" lon="0.17871">
        <ele>116.7</ele>
        <time>2020-06-17T18:35:06Z</time>
      </trkpt>
      <trkpt lat="49.63108" lon="0.17878">
        <ele>116.6</ele>
        <time>2020-06-17T18:35:07Z</time>
      </trkpt>
      <trkpt lat="49.63112" lon="0.17884">
        <ele>116.6</ele>
        <time>2020-06-17T18:35:08Z</time>
      </trkpt>
      <trkpt lat="49.63117" lon="0.1789">
        <ele>116.6</ele>
        <time>2020-06-17T18:35:09Z</time>
      </trkpt>
      <trkpt lat="49.63121" lon="0.17896">
        <ele>116.5</ele>
        <time>2020-06-17T18:35:10Z</time>
      </trkpt>
      <trkpt lat="49.63125" lon="0.17903">
        <ele>116.5</ele>
        <time>2020-06-17T18:35:11Z</time>
      </trkpt>
      <trkpt lat="49.6313" lon="0.17909">
        <ele>116.4</ele>
        <time>2020-06-17T18:35:12Z</time>
      </trkpt>
      <trkpt lat="49.63134" lon="0.17915">
        <ele>116.4</ele>
        <time>2020-06-17T18:35:13Z</time>
      </trkpt>
      <trkpt lat="49.63138" lon="0.17921">
        <ele>116.3</ele>
        <time>2020-06-17T18:35:14Z</time>
      </trkpt>
      <trkpt lat="49.63142" lon="0.17928">
        <ele>116.3</ele>
        <time>2020-06-17T18:35:15Z</time>
      </trkpt>
      <trkpt lat="49.63147" lon="0.17934">
        <ele>116.3</ele>
        <time>2020-06-17T18:35:16Z</time>
      </trkpt>
      <trkpt lat="49.63151" lon="0.1794">
        <ele>116.3</ele>
        <time>2020-06-17T18:35:17Z</time>
      </trkpt>
      <trkpt lat="49.63155" lon="0.17947">
        <ele>116.3</ele>
        <time>2020-06-17T18:35:18Z</time>
      </trkpt>
      <trkpt lat="49.6316" lon="0.17953">
        <ele>116.3</ele>
        <time>2020-06-17T18:35:19Z</time>
      </trkpt>
      <trkpt lat="49.63164" lon="0.17959">
        <ele>116.4</ele>
        <time>2020-06-17T18:35:20Z</time>
      </trkpt>
      <trkpt lat="49.63169" lon="0.17966">
        <ele>116.2</ele>
        <time>2020-06-17T18:35:21Z</time>
      </trkpt>
      <trkpt lat="49.63173" lon="0.17973">
        <ele>116.1</ele>
        <time>2020-06-17T18:35:22Z</time>
      </trkpt>
      <trkpt lat="49.63178" lon="0.1798">
        <ele>116</ele>
        <time>2020-06-17T18:35:23Z</time>
      </trkpt>
      <trkpt lat="49.63183" lon="0.17987">
        <ele>115.9</ele>
        <time>2020-06-17T18:35:24Z</time>
      </trkpt>
      <trkpt lat="49.63187" lon="0.17994">
        <ele>115.8</ele>
        <time>2020-06-17T18:35:25Z</time>
      </trkpt>
      <trkpt lat="49.63192" lon="0.18001">
        <ele>115.7</ele>
        <time>2020-06-17T18:35:26Z</time>
      </trkpt>
      <trkpt lat="49.63196" lon="0.18007">
        <ele>115.7</ele>
        <time>2020-06-17T18:35:27Z</time>
      </trkpt>
      <trkpt lat="49.63201" lon="0.18015">
        <ele>115.6</ele>
        <time>2020-06-17T18:35:28Z</time>
      </trkpt>
      <trkpt lat="49.63205" lon="0.18022">
        <ele>115.5</ele>
        <time>2020-06-17T18:35:29Z</time>
      </trkpt>
      <trkpt lat="49.63209" lon="0.18029">
        <ele>115.4</ele>
        <time>2020-06-17T18:35:30Z</time>
      </trkpt>
      <trkpt lat="49.63213" lon="0.18035">
        <ele>115.4</ele>
        <time>2020-06-17T18:35:31Z</time>
      </trkpt>
      <trkpt lat="49.63218" lon="0.18042">
        <ele>115.3</ele>
        <time>2020-06-17T18:35:32Z</time>
      </trkpt>
      <trkpt lat="49.63223" lon="0.18049">
        <ele>115.2</ele>
        <time>2020-06-17T18:35:33Z</time>
      </trkpt>
      <trkpt lat="49.63228" lon="0.18056">
        <ele>115.2</ele>
        <time>2020-06-17T18:35:34Z</time>
      </trkpt>
      <trkpt lat="49.63232" lon="0.18062">
        <ele>115.1</ele>
        <time>2020-06-17T18:35:35Z</time>
      </trkpt>
      <trkpt lat="49.63237" lon="0.18069">
        <ele>115.1</ele>
        <time>2020-06-17T18:35:36Z</time>
      </trkpt>
      <trkpt lat="49.63242" lon="0.18076">
        <ele>115.1</ele>
        <time>2020-06-17T18:35:37Z</time>
      </trkpt>
      <trkpt lat="49.63246" lon="0.18082">
        <ele>115.1</ele>
        <time>2020-06-17T18:35:38Z</time>
      </trkpt>
      <trkpt lat="49.63251" lon="0.18089">
        <ele>115.1</ele>
        <time>2020-06-17T18:35:39Z</time>
      </trkpt>
      <trkpt lat="49.63256" lon="0.18095">
        <ele>115.1</ele>
        <time>2020-06-17T18:35:40Z</time>
      </trkpt>
      <trkpt lat="49.6326" lon="0.18101">
        <ele>115.2</ele>
        <time>2020-06-17T18:35:41Z</time>
      </trkpt>
      <trkpt lat="49.63264" lon="0.18107">
        <ele>115.2</ele>
        <time>2020-06-17T18:35:42Z</time>
      </trkpt>
      <trkpt lat="49.63269" lon="0.18113">
        <ele>115.2</ele>
        <time>2020-06-17T18:35:43Z</time>
      </trkpt>
      <trkpt lat="49.63272" lon="0.18119">
        <ele>115.3</ele>
        <time>2020-06-17T18:35:44Z</time>
      </trkpt>
      <trkpt lat="49.63277" lon="0.18124">
        <ele>115.3</ele>
        <time>2020-06-17T18:35:45Z</time>
      </trkpt>
      <trkpt lat="49.6328" lon="0.1813">
        <ele>115.4</ele>
        <time>2020-06-17T18:35:46Z</time>
      </trkpt>
      <trkpt lat="49.63284" lon="0.18136">
        <ele>115.5</ele>
        <time>2020-06-17T18:35:47Z</time>
      </trkpt>
      <trkpt lat="49.63288" lon="0.18142">
        <ele>115.5</ele>
        <time>2020-06-17T18:35:48Z</time>
      </trkpt>
      <trkpt lat="49.63292" lon="0.18148">
        <ele>115.6</ele>
        <time>2020-06-17T18:35:49Z</time>
      </trkpt>
      <trkpt lat="49.63295" lon="0.18154">
        <ele>115.7</ele>
        <time>2020-06-17T18:35:50Z</time>
      </trkpt>
      <trkpt lat="49.633" lon="0.1816">
        <ele>115.8</ele>
        <time>2020-06-17T18:35:51Z</time>
      </trkpt>
      <trkpt lat="49.63304" lon="0.18166">
        <ele>115.9</ele>
        <time>2020-06-17T18:35:52Z</time>
      </trkpt>
      <trkpt lat="49.63307" lon="0.18172">
        <ele>116</ele>
        <time>2020-06-17T18:35:53Z</time>
      </trkpt>
      <trkpt lat="49.63311" lon="0.18178">
        <ele>116.2</ele>
        <time>2020-06-17T18:35:54Z</time>
      </trkpt>
      <trkpt lat="49.63315" lon="0.18184">
        <ele>116.3</ele>
        <time>2020-06-17T18:35:55Z</time>
      </trkpt>
      <trkpt lat="49.63319" lon="0.1819">
        <ele>116.5</ele>
        <time>2020-06-17T18:35:56Z</time>
      </trkpt>
      <trkpt lat="49.63322" lon="0.18195">
        <ele>116.6</ele>
        <time>2020-06-17T18:35:57Z</time>
      </trkpt>
      <trkpt lat="49.63326" lon="0.18199">
        <ele>116.8</ele>
        <time>2020-06-17T18:35:58Z</time>
      </trkpt>
      <trkpt lat="49.6333" lon="0.18205">
        <ele>117</ele>
        <time>2020-06-17T18:35:59Z</time>
      </trkpt>
      <trkpt lat="49.63334" lon="0.1821">
        <ele>117.1</ele>
        <time>2020-06-17T18:36:00Z</time>
      </trkpt>
      <trkpt lat="49.63337" lon="0.18215">
        <ele>117.3</ele>
        <time>2020-06-17T18:36:01Z</time>
      </trkpt>
      <trkpt lat="49.63341" lon="0.18221">
        <ele>117.5</ele>
        <time>2020-06-17T18:36:02Z</time>
      </trkpt>
      <trkpt lat="49.63346" lon="0.18228">
        <ele>117.8</ele>
        <time>2020-06-17T18:36:03Z</time>
      </trkpt>
      <trkpt lat="49.63349" lon="0.18233">
        <ele>117.9</ele>
        <time>2020-06-17T18:36:04Z</time>
      </trkpt>
      <trkpt lat="49.63353" lon="0.18238">
        <ele>118.1</ele>
        <time>2020-06-17T18:36:05Z</time>
      </trkpt>
      <trkpt lat="49.63358" lon="0.18246">
        <ele>118.4</ele>
        <time>2020-06-17T18:36:06Z</time>
      </trkpt>
      <trkpt lat="49.63361" lon="0.18251">
        <ele>118.6</ele>
        <time>2020-06-17T18:36:07Z</time>
      </trkpt>
      <trkpt lat="49.63364" lon="0.18255">
        <ele>118.7</ele>
        <time>2020-06-17T18:36:08Z</time>
      </trkpt>
      <trkpt lat="49.63368" lon="0.1826">
        <ele>118.9</ele>
        <time>2020-06-17T18:36:09Z</time>
      </trkpt>
      <trkpt lat="49.63371" lon="0.18265">
        <ele>119.1</ele>
        <time>2020-06-17T18:36:10Z</time>
      </trkpt>
      <trkpt lat="49.63375" lon="0.1827">
        <ele>119.4</ele>
        <time>2020-06-17T18:36:11Z</time>
      </trkpt>
      <trkpt lat="49.63379" lon="0.18275">
        <ele>119.6</ele>
        <time>2020-06-17T18:36:12Z</time>
      </trkpt>
      <trkpt lat="49.63382" lon="0.18279">
        <ele>119.8</ele>
        <time>2020-06-17T18:36:13Z</time>
      </trkpt>
      <trkpt lat="49.63385" lon="0.18283">
        <ele>120</ele>
        <time>2020-06-17T18:36:14Z</time>
      </trkpt>
      <trkpt lat="49.63388" lon="0.18288">
        <ele>120.1</ele>
        <time>2020-06-17T18:36:15Z</time>
      </trkpt>
      <trkpt lat="49.63391" lon="0.18293">
        <ele>120.3</ele>
        <time>2020-06-17T18:36:16Z</time>
      </trkpt>
      <trkpt lat="49.63394" lon="0.18299">
        <ele>120.6</ele>
        <time>2020-06-17T18:36:17Z</time>
      </trkpt>
      <trkpt lat="49.63398" lon="0.18306">
        <ele>120.8</ele>
        <time>2020-06-17T18:36:18Z</time>
      </trkpt>
      <trkpt lat="49.63402" lon="0.18311">
        <ele>121.1</ele>
        <time>2020-06-17T18:36:19Z</time>
      </trkpt>
      <trkpt lat="49.63406" lon="0.18316">
        <ele>121.3</ele>
        <time>2020-06-17T18:36:20Z</time>
      </trkpt>
      <trkpt lat="49.6341" lon="0.18321">
        <ele>121.5</ele>
        <time>2020-06-17T18:36:21Z</time>
      </trkpt>
      <trkpt lat="49.63413" lon="0.18326">
        <ele>121.7</ele>
        <time>2020-06-17T18:36:22Z</time>
      </trkpt>
      <trkpt lat="49.63416" lon="0.18331">
        <ele>121.9</ele>
        <time>2020-06-17T18:36:23Z</time>
      </trkpt>
      <trkpt lat="49.6342" lon="0.18336">
        <ele>122.1</ele>
        <time>2020-06-17T18:36:24Z</time>
      </trkpt>
      <trkpt lat="49.63423" lon="0.18341">
        <ele>122.2</ele>
        <time>2020-06-17T18:36:25Z</time>
      </trkpt>
      <trkpt lat="49.63427" lon="0.18346">
        <ele>122.5</ele>
        <time>2020-06-17T18:36:26Z</time>
      </trkpt>
      <trkpt lat="49.63431" lon="0.18351">
        <ele>122.7</ele>
        <time>2020-06-17T18:36:27Z</time>
      </trkpt>
      <trkpt lat="49.63435" lon="0.18356">
        <ele>122.9</ele>
        <time>2020-06-17T18:36:28Z</time>
      </trkpt>
      <trkpt lat="49.63438" lon="0.18361">
        <ele>123.1</ele>
        <time>2020-06-17T18:36:29Z</time>
      </trkpt>
      <trkpt lat="49.63442" lon="0.18364">
        <ele>123.3</ele>
        <time>2020-06-17T18:36:30Z</time>
      </trkpt>
      <trkpt lat="49.63446" lon="0.18369">
        <ele>123.6</ele>
        <time>2020-06-17T18:36:31Z</time>
      </trkpt>
      <trkpt lat="49.63449" lon="0.18373">
        <ele>123.8</ele>
        <time>2020-06-17T18:36:32Z</time>
      </trkpt>
      <trkpt lat="49.63453" lon="0.18378">
        <ele>124.1</ele>
        <time>2020-06-17T18:36:33Z</time>
      </trkpt>
      <trkpt lat="49.63457" lon="0.18384">
        <ele>124.5</ele>
        <time>2020-06-17T18:36:34Z</time>
      </trkpt>
      <trkpt lat="49.63461" lon="0.18387">
        <ele>124.7</ele>
        <time>2020-06-17T18:36:35Z</time>
      </trkpt>
      <trkpt lat="49.63464" lon="0.18392">
        <ele>125</ele>
        <time>2020-06-17T18:36:36Z</time>
      </trkpt>
      <trkpt lat="49.63468" lon="0.18396">
        <ele>125.3</ele>
        <time>2020-06-17T18:36:37Z</time>
      </trkpt>
      <trkpt lat="49.63471" lon="0.18401">
        <ele>125.4</ele>
        <time>2020-06-17T18:36:38Z</time>
      </trkpt>
      <trkpt lat="49.63475" lon="0.18405">
        <ele>125.5</ele>
        <time>2020-06-17T18:36:39Z</time>
      </trkpt>
      <trkpt lat="49.63479" lon="0.18409">
        <ele>125.7</ele>
        <time>2020-06-17T18:36:40Z</time>
      </trkpt>
      <trkpt lat="49.63483" lon="0.18412">
        <ele>125.8</ele>
        <time>2020-06-17T18:36:41Z</time>
      </trkpt>
      <trkpt lat="49.63487" lon="0.18416">
        <ele>126</ele>
        <time>2020-06-17T18:36:42Z</time>
      </trkpt>
      <trkpt lat="49.63491" lon="0.1842">
        <ele>126.1</ele>
        <time>2020-06-17T18:36:43Z</time>
      </trkpt>
      <trkpt lat="49.63495" lon="0.18424">
        <ele>126.3</ele>
        <time>2020-06-17T18:36:44Z</time>
      </trkpt>
      <trkpt lat="49.63499" lon="0.18428">
        <ele>126.5</ele>
        <time>2020-06-17T18:36:45Z</time>
      </trkpt>
      <trkpt lat="49.63504" lon="0.18432">
        <ele>126.6</ele>
        <time>2020-06-17T18:36:46Z</time>
      </trkpt>
      <trkpt lat="49.63508" lon="0.18436">
        <ele>126.8</ele>
        <time>2020-06-17T18:36:47Z</time>
      </trkpt>
      <trkpt lat="49.63512" lon="0.18439">
        <ele>126.9</ele>
        <time>2020-06-17T18:36:48Z</time>
      </trkpt>
      <trkpt lat="49.63516" lon="0.18443">
        <ele>127.1</ele>
        <time>2020-06-17T18:36:49Z</time>
      </trkpt>
      <trkpt lat="49.6352" lon="0.18446">
        <ele>127.2</ele>
        <time>2020-06-17T18:36:50Z</time>
      </trkpt>
      <trkpt lat="49.63524" lon="0.18449">
        <ele>127.3</ele>
        <time>2020-06-17T18:36:51Z</time>
      </trkpt>
      <trkpt lat="49.63528" lon="0.18452">
        <ele>127.5</ele>
        <time>2020-06-17T18:36:52Z</time>
      </trkpt>
      <trkpt lat="49.63532" lon="0.18456">
        <ele>127.6</ele>
        <time>2020-06-17T18:36:53Z</time>
      </trkpt>
      <trkpt lat="49.63536" lon="0.18459">
        <ele>127.8</ele>
        <time>2020-06-17T18:36:54Z</time>
      </trkpt>
      <trkpt lat="49.63541" lon="0.18463">
        <ele>128</ele>
        <time>2020-06-17T18:36:55Z</time>
      </trkpt>
      <trkpt lat="49.63546" lon="0.18466">
        <ele>128.1</ele>
        <time>2020-06-17T18:36:56Z</time>
      </trkpt>
      <trkpt lat="49.63551" lon="0.18469">
        <ele>128.3</ele>
        <time>2020-06-17T18:36:57Z</time>
      </trkpt>
      <trkpt lat="49.63556" lon="0.18472">
        <ele>128.4</ele>
        <time>2020-06-17T18:36:58Z</time>
      </trkpt>
      <trkpt lat="49.63561" lon="0.18475">
        <ele>128.6</ele>
        <time>2020-06-17T18:36:59Z</time>
      </trkpt>
      <trkpt lat="49.63566" lon="0.18478">
        <ele>128.7</ele>
        <time>2020-06-17T18:37:00Z</time>
      </trkpt>
      <trkpt lat="49.6357" lon="0.1848">
        <ele>128.8</ele>
        <time>2020-06-17T18:37:01Z</time>
      </trkpt>
      <trkpt lat="49.63575" lon="0.18482">
        <ele>128.9</ele>
        <time>2020-06-17T18:37:02Z</time>
      </trkpt>
      <trkpt lat="49.6358" lon="0.18485">
        <ele>129</ele>
        <time>2020-06-17T18:37:03Z</time>
      </trkpt>
      <trkpt lat="49.63585" lon="0.18487">
        <ele>129.1</ele>
        <time>2020-06-17T18:37:04Z</time>
      </trkpt>
      <trkpt lat="49.63591" lon="0.18489">
        <ele>129.1</ele>
        <time>2020-06-17T18:37:05Z</time>
      </trkpt>
      <trkpt lat="49.63597" lon="0.1849">
        <ele>129.2</ele>
        <time>2020-06-17T18:37:06Z</time>
      </trkpt>
      <trkpt lat="49.63603" lon="0.18492">
        <ele>129.3</ele>
        <time>2020-06-17T18:37:07Z</time>
      </trkpt>
      <trkpt lat="49.63608" lon="0.18494">
        <ele>129.4</ele>
        <time>2020-06-17T18:37:08Z</time>
      </trkpt>
      <trkpt lat="49.63613" lon="0.18496">
        <ele>129.4</ele>
        <time>2020-06-17T18:37:09Z</time>
      </trkpt>
      <trkpt lat="49.63618" lon="0.18499">
        <ele>129.4</ele>
        <time>2020-06-17T18:37:10Z</time>
      </trkpt>
      <trkpt lat="49.63622" lon="0.18502">
        <ele>129.5</ele>
        <time>2020-06-17T18:37:11Z</time>
      </trkpt>
      <trkpt lat="49.63627" lon="0.18504">
        <ele>129.5</ele>
        <time>2020-06-17T18:37:12Z</time>
      </trkpt>
      <trkpt lat="49.63631" lon="0.18505">
        <ele>129.5</ele>
        <time>2020-06-17T18:37:13Z</time>
      </trkpt>
      <trkpt lat="49.63636" lon="0.18508">
        <ele>129.6</ele>
        <time>2020-06-17T18:37:14Z</time>
      </trkpt>
      <trkpt lat="49.6364" lon="0.18511">
        <ele>129.6</ele>
        <time>2020-06-17T18:37:15Z</time>
      </trkpt>
      <trkpt lat="49.63646" lon="0.18513">
        <ele>129.6</ele>
        <time>2020-06-17T18:37:16Z</time>
      </trkpt>
      <trkpt lat="49.6365" lon="0.18516">
        <ele>129.6</ele>
        <time>2020-06-17T18:37:17Z</time>
      </trkpt>
      <trkpt lat="49.63655" lon="0.18518">
        <ele>129.6</ele>
        <time>2020-06-17T18:37:18Z</time>
      </trkpt>
      <trkpt lat="49.6366" lon="0.18521">
        <ele>129.6</ele>
        <time>2020-06-17T18:37:19Z</time>
      </trkpt>
      <trkpt lat="49.63664" lon="0.18523">
        <ele>129.7</ele>
        <time>2020-06-17T18:37:20Z</time>
      </trkpt>
      <trkpt lat="49.63669" lon="0.18525">
        <ele>129.7</ele>
        <time>2020-06-17T18:37:21Z</time>
      </trkpt>
      <trkpt lat="49.63674" lon="0.18527">
        <ele>129.7</ele>
        <time>2020-06-17T18:37:22Z</time>
      </trkpt>
      <trkpt lat="49.63678" lon="0.1853">
        <ele>129.8</ele>
        <time>2020-06-17T18:37:23Z</time>
      </trkpt>
      <trkpt lat="49.63683" lon="0.18533">
        <ele>129.8</ele>
        <time>2020-06-17T18:37:24Z</time>
      </trkpt>
      <trkpt lat="49.63687" lon="0.18536">
        <ele>129.8</ele>
        <time>2020-06-17T18:37:25Z</time>
      </trkpt>
      <trkpt lat="49.63692" lon="0.18539">
        <ele>129.8</ele>
        <time>2020-06-17T18:37:26Z</time>
      </trkpt>
      <trkpt lat="49.63697" lon="0.18542">
        <ele>129.8</ele>
        <time>2020-06-17T18:37:27Z</time>
      </trkpt>
      <trkpt lat="49.63701" lon="0.18544">
        <ele>129.8</ele>
        <time>2020-06-17T18:37:28Z</time>
      </trkpt>
      <trkpt lat="49.63706" lon="0.18545">
        <ele>129.8</ele>
        <time>2020-06-17T18:37:29Z</time>
      </trkpt>
      <trkpt lat="49.63711" lon="0.18549">
        <ele>129.9</ele>
        <time>2020-06-17T18:37:30Z</time>
      </trkpt>
      <trkpt lat="49.63715" lon="0.18551">
        <ele>129.9</ele>
        <time>2020-06-17T18:37:31Z</time>
      </trkpt>
      <trkpt lat="49.6372" lon="0.18553">
        <ele>129.9</ele>
        <time>2020-06-17T18:37:32Z</time>
      </trkpt>
      <trkpt lat="49.63725" lon="0.18557">
        <ele>129.9</ele>
        <time>2020-06-17T18:37:33Z</time>
      </trkpt>
      <trkpt lat="49.6373" lon="0.1856">
        <ele>130</ele>
        <time>2020-06-17T18:37:34Z</time>
      </trkpt>
      <trkpt lat="49.63736" lon="0.18562">
        <ele>130</ele>
        <time>2020-06-17T18:37:35Z</time>
      </trkpt>
      <trkpt lat="49.63741" lon="0.18565">
        <ele>130.1</ele>
        <time>2020-06-17T18:37:36Z</time>
      </trkpt>
      <trkpt lat="49.63747" lon="0.18567">
        <ele>130.1</ele>
        <time>2020-06-17T18:37:37Z</time>
      </trkpt>
      <trkpt lat="49.63752" lon="0.18571">
        <ele>130.2</ele>
        <time>2020-06-17T18:37:38Z</time>
      </trkpt>
      <trkpt lat="49.63757" lon="0.18575">
        <ele>130.2</ele>
        <time>2020-06-17T18:37:39Z</time>
      </trkpt>
      <trkpt lat="49.63762" lon="0.18578">
        <ele>130.3</ele>
        <time>2020-06-17T18:37:40Z</time>
      </trkpt>
      <trkpt lat="49.63767" lon="0.1858">
        <ele>130.3</ele>
        <time>2020-06-17T18:37:41Z</time>
      </trkpt>
      <trkpt lat="49.63772" lon="0.18583">
        <ele>130.3</ele>
        <time>2020-06-17T18:37:42Z</time>
      </trkpt>
      <trkpt lat="49.63777" lon="0.18585">
        <ele>130.4</ele>
        <time>2020-06-17T18:37:43Z</time>
      </trkpt>
      <trkpt lat="49.63782" lon="0.18588">
        <ele>130.4</ele>
        <time>2020-06-17T18:37:44Z</time>
      </trkpt>
      <trkpt lat="49.63787" lon="0.18591">
        <ele>130.5</ele>
        <time>2020-06-17T18:37:45Z</time>
      </trkpt>
      <trkpt lat="49.63792" lon="0.18593">
        <ele>130.5</ele>
        <time>2020-06-17T18:37:46Z</time>
      </trkpt>
      <trkpt lat="49.63797" lon="0.18594">
        <ele>130.6</ele>
        <time>2020-06-17T18:37:47Z</time>
      </trkpt>
      <trkpt lat="49.63801" lon="0.18596">
        <ele>130.6</ele>
        <time>2020-06-17T18:37:48Z</time>
      </trkpt>
      <trkpt lat="49.63806" lon="0.18598">
        <ele>130.7</ele>
        <time>2020-06-17T18:37:49Z</time>
      </trkpt>
      <trkpt lat="49.63809" lon="0.18601">
        <ele>130.7</ele>
        <time>2020-06-17T18:37:50Z</time>
      </trkpt>
      <trkpt lat="49.63812" lon="0.18604">
        <ele>130.7</ele>
        <time>2020-06-17T18:37:51Z</time>
      </trkpt>
      <trkpt lat="49.63815" lon="0.18606">
        <ele>130.8</ele>
        <time>2020-06-17T18:37:52Z</time>
      </trkpt>
      <trkpt lat="49.63815" lon="0.18606">
        <ele>130.8</ele>
        <time>2020-06-17T18:37:53Z</time>
      </trkpt>
      <trkpt lat="49.63816" lon="0.18605">
        <ele>130.8</ele>
        <time>2020-06-17T18:37:54Z</time>
      </trkpt>
      <trkpt lat="49.63816" lon="0.18604">
        <ele>130.8</ele>
        <time>2020-06-17T18:37:55Z</time>
      </trkpt>
      <trkpt lat="49.63815" lon="0.18604">
        <ele>130.8</ele>
        <time>2020-06-17T18:37:56Z</time>
      </trkpt>
      <trkpt lat="49.63816" lon="0.18604">
        <ele>130.8</ele>
        <time>2020-06-17T18:37:57Z</time>
      </trkpt>
      <trkpt lat="49.63816" lon="0.18605">
        <ele>130.8</ele>
        <time>2020-06-17T18:37:58Z</time>
      </trkpt>
      <trkpt lat="49.63816" lon="0.18605">
        <ele>130.8</ele>
        <time>2020-06-17T18:37:59Z</time>
      </trkpt>
      <trkpt lat="49.63817" lon="0.18605">
        <ele>130.8</ele>
        <time>2020-06-17T18:38:00Z</time>
      </trkpt>
      <trkpt lat="49.63816" lon="0.18605">
        <ele>130.8</ele>
        <time>2020-06-17T18:38:01Z</time>
      </trkpt>
      <trkpt lat="49.63816" lon="0.18605">
        <ele>130.8</ele>
        <time>2020-06-17T18:38:02Z</time>
      </trkpt>
      <trkpt lat="49.63816" lon="0.18604">
        <ele>130.8</ele>
        <time>2020-06-17T18:38:03Z</time>
      </trkpt>
      <trkpt lat="49.63816" lon="0.18605">
        <ele>130.8</ele>
        <time>2020-06-17T18:38:04Z</time>
      </trkpt>
      <trkpt lat="49.63816" lon="0.18605">
        <ele>130.8</ele>
        <time>2020-06-17T18:38:05Z</time>
      </trkpt>
      <trkpt lat="49.63816" lon="0.18605">
        <ele>130.8</ele>
        <time>2020-06-17T18:38:06Z</time>
      </trkpt>
      <trkpt lat="49.63816" lon="0.18605">
        <ele>130.8</ele>
        <time>2020-06-17T18:38:07Z</time>
      </trkpt>
      <trkpt lat="49.63816" lon="0.18605">
        <ele>130.8</ele>
        <time>2020-06-17T18:38:08Z</time>
      </trkpt>
      <trkpt lat="49.63816" lon="0.18606">
        <ele>130.9</ele>
        <time>2020-06-17T18:38:09Z</time>
      </trkpt>
      <trkpt lat="49.63816" lon="0.18606">
        <ele>130.9</ele>
        <time>2020-06-17T18:38:10Z</time>
      </trkpt>
      <trkpt lat="49.63819" lon="0.18606">
        <ele>130.9</ele>
        <time>2020-06-17T18:38:41Z</time>
      </trkpt>
      <trkpt lat="49.6382" lon="0.18605">
        <ele>130.9</ele>
        <time>2020-06-17T18:38:42Z</time>
      </trkpt>
      <trkpt lat="49.63822" lon="0.18605">
        <ele>130.9</ele>
        <time>2020-06-17T18:38:43Z</time>
      </trkpt>
      <trkpt lat="49.63825" lon="0.18606">
        <ele>130.9</ele>
        <time>2020-06-17T18:38:44Z</time>
      </trkpt>
      <trkpt lat="49.63826" lon="0.18606">
        <ele>131</ele>
        <time>2020-06-17T18:38:45Z</time>
      </trkpt>
      <trkpt lat="49.63829" lon="0.18608">
        <ele>131</ele>
        <time>2020-06-17T18:38:46Z</time>
      </trkpt>
      <trkpt lat="49.63831" lon="0.18609">
        <ele>131</ele>
        <time>2020-06-17T18:38:47Z</time>
      </trkpt>
      <trkpt lat="49.63834" lon="0.1861">
        <ele>131</ele>
        <time>2020-06-17T18:38:48Z</time>
      </trkpt>
      <trkpt lat="49.63837" lon="0.18612">
        <ele>131.1</ele>
        <time>2020-06-17T18:38:49Z</time>
      </trkpt>
      <trkpt lat="49.63839" lon="0.18615">
        <ele>131.1</ele>
        <time>2020-06-17T18:38:50Z</time>
      </trkpt>
      <trkpt lat="49.63843" lon="0.18617">
        <ele>131.1</ele>
        <time>2020-06-17T18:38:51Z</time>
      </trkpt>
      <trkpt lat="49.63847" lon="0.1862">
        <ele>131.2</ele>
        <time>2020-06-17T18:38:52Z</time>
      </trkpt>
      <trkpt lat="49.6385" lon="0.18622">
        <ele>131.3</ele>
        <time>2020-06-17T18:38:53Z</time>
      </trkpt>
      <trkpt lat="49.63854" lon="0.18624">
        <ele>131.3</ele>
        <time>2020-06-17T18:38:54Z</time>
      </trkpt>
      <trkpt lat="49.63857" lon="0.18628">
        <ele>131.4</ele>
        <time>2020-06-17T18:38:55Z</time>
      </trkpt>
      <trkpt lat="49.6386" lon="0.18631">
        <ele>131.4</ele>
        <time>2020-06-17T18:38:56Z</time>
      </trkpt>
      <trkpt lat="49.63863" lon="0.18635">
        <ele>131.5</ele>
        <time>2020-06-17T18:38:57Z</time>
      </trkpt>
      <trkpt lat="49.63865" lon="0.18639">
        <ele>131.5</ele>
        <time>2020-06-17T18:38:58Z</time>
      </trkpt>
      <trkpt lat="49.63867" lon="0.18644">
        <ele>131.5</ele>
        <time>2020-06-17T18:38:59Z</time>
      </trkpt>
      <trkpt lat="49.63868" lon="0.18646">
        <ele>131.5</ele>
        <time>2020-06-17T18:39:00Z</time>
      </trkpt>
      <trkpt lat="49.63871" lon="0.18649">
        <ele>131.5</ele>
        <time>2020-06-17T18:39:01Z</time>
      </trkpt>
      <trkpt lat="49.63874" lon="0.18652">
        <ele>131.5</ele>
        <time>2020-06-17T18:39:02Z</time>
      </trkpt>
      <trkpt lat="49.63877" lon="0.18653">
        <ele>131.5</ele>
        <time>2020-06-17T18:39:03Z</time>
      </trkpt>
      <trkpt lat="49.63882" lon="0.18653">
        <ele>131.5</ele>
        <time>2020-06-17T18:39:04Z</time>
      </trkpt>
      <trkpt lat="49.63885" lon="0.18653">
        <ele>131.5</ele>
        <time>2020-06-17T18:39:05Z</time>
      </trkpt>
      <trkpt lat="49.63889" lon="0.18652">
        <ele>131.5</ele>
        <time>2020-06-17T18:39:06Z</time>
      </trkpt>
      <trkpt lat="49.63894" lon="0.1865">
        <ele>131.5</ele>
        <time>2020-06-17T18:39:07Z</time>
      </trkpt>
      <trkpt lat="49.63898" lon="0.18649">
        <ele>131.7</ele>
        <time>2020-06-17T18:39:08Z</time>
      </trkpt>
      <trkpt lat="49.63902" lon="0.18649">
        <ele>131.8</ele>
        <time>2020-06-17T18:39:09Z</time>
      </trkpt>
      <trkpt lat="49.63907" lon="0.18651">
        <ele>131.8</ele>
        <time>2020-06-17T18:39:10Z</time>
      </trkpt>
      <trkpt lat="49.63912" lon="0.18654">
        <ele>131.8</ele>
        <time>2020-06-17T18:39:11Z</time>
      </trkpt>
      <trkpt lat="49.63917" lon="0.18656">
        <ele>131.7</ele>
        <time>2020-06-17T18:39:12Z</time>
      </trkpt>
      <trkpt lat="49.63921" lon="0.18658">
        <ele>131.7</ele>
        <time>2020-06-17T18:39:13Z</time>
      </trkpt>
      <trkpt lat="49.63926" lon="0.18659">
        <ele>131.7</ele>
        <time>2020-06-17T18:39:14Z</time>
      </trkpt>
      <trkpt lat="49.6393" lon="0.18661">
        <ele>131.7</ele>
        <time>2020-06-17T18:39:15Z</time>
      </trkpt>
      <trkpt lat="49.63935" lon="0.18663">
        <ele>131.8</ele>
        <time>2020-06-17T18:39:16Z</time>
      </trkpt>
      <trkpt lat="49.6394" lon="0.18666">
        <ele>131.8</ele>
        <time>2020-06-17T18:39:17Z</time>
      </trkpt>
      <trkpt lat="49.63944" lon="0.18668">
        <ele>131.8</ele>
        <time>2020-06-17T18:39:18Z</time>
      </trkpt>
      <trkpt lat="49.63949" lon="0.18671">
        <ele>131.8</ele>
        <time>2020-06-17T18:39:19Z</time>
      </trkpt>
      <trkpt lat="49.63955" lon="0.18673">
        <ele>131.8</ele>
        <time>2020-06-17T18:39:20Z</time>
      </trkpt>
      <trkpt lat="49.6396" lon="0.18675">
        <ele>131.9</ele>
        <time>2020-06-17T18:39:21Z</time>
      </trkpt>
      <trkpt lat="49.63965" lon="0.18677">
        <ele>131.9</ele>
        <time>2020-06-17T18:39:22Z</time>
      </trkpt>
      <trkpt lat="49.6397" lon="0.18679">
        <ele>131.9</ele>
        <time>2020-06-17T18:39:23Z</time>
      </trkpt>
      <trkpt lat="49.63975" lon="0.18681">
        <ele>131.9</ele>
        <time>2020-06-17T18:39:24Z</time>
      </trkpt>
      <trkpt lat="49.6398" lon="0.18683">
        <ele>132</ele>
        <time>2020-06-17T18:39:25Z</time>
      </trkpt>
      <trkpt lat="49.63986" lon="0.18686">
        <ele>132</ele>
        <time>2020-06-17T18:39:26Z</time>
      </trkpt>
      <trkpt lat="49.63991" lon="0.18689">
        <ele>132</ele>
        <time>2020-06-17T18:39:27Z</time>
      </trkpt>
      <trkpt lat="49.63996" lon="0.18693">
        <ele>132</ele>
        <time>2020-06-17T18:39:28Z</time>
      </trkpt>
      <trkpt lat="49.64001" lon="0.18695">
        <ele>132</ele>
        <time>2020-06-17T18:39:29Z</time>
      </trkpt>
      <trkpt lat="49.64006" lon="0.18696">
        <ele>132</ele>
        <time>2020-06-17T18:39:30Z</time>
      </trkpt>
      <trkpt lat="49.64011" lon="0.18698">
        <ele>132</ele>
        <time>2020-06-17T18:39:31Z</time>
      </trkpt>
      <trkpt lat="49.64016" lon="0.187">
        <ele>132</ele>
        <time>2020-06-17T18:39:32Z</time>
      </trkpt>
      <trkpt lat="49.64021" lon="0.18701">
        <ele>132</ele>
        <time>2020-06-17T18:39:33Z</time>
      </trkpt>
      <trkpt lat="49.64026" lon="0.18703">
        <ele>132</ele>
        <time>2020-06-17T18:39:34Z</time>
      </trkpt>
      <trkpt lat="49.64031" lon="0.18705">
        <ele>132</ele>
        <time>2020-06-17T18:39:35Z</time>
      </trkpt>
      <trkpt lat="49.64035" lon="0.18707">
        <ele>132</ele>
        <time>2020-06-17T18:39:36Z</time>
      </trkpt>
      <trkpt lat="49.6404" lon="0.18709">
        <ele>132</ele>
        <time>2020-06-17T18:39:37Z</time>
      </trkpt>
      <trkpt lat="49.64045" lon="0.18712">
        <ele>132</ele>
        <time>2020-06-17T18:39:38Z</time>
      </trkpt>
      <trkpt lat="49.6405" lon="0.18715">
        <ele>132</ele>
        <time>2020-06-17T18:39:39Z</time>
      </trkpt>
      <trkpt lat="49.64056" lon="0.18718">
        <ele>132</ele>
        <time>2020-06-17T18:39:40Z</time>
      </trkpt>
      <trkpt lat="49.64061" lon="0.1872">
        <ele>132</ele>
        <time>2020-06-17T18:39:41Z</time>
      </trkpt>
      <trkpt lat="49.64066" lon="0.18723">
        <ele>132</ele>
        <time>2020-06-17T18:39:42Z</time>
      </trkpt>
      <trkpt lat="49.64072" lon="0.18726">
        <ele>132</ele>
        <time>2020-06-17T18:39:43Z</time>
      </trkpt>
      <trkpt lat="49.64077" lon="0.18729">
        <ele>131.9</ele>
        <time>2020-06-17T18:39:44Z</time>
      </trkpt>
      <trkpt lat="49.64082" lon="0.18732">
        <ele>131.9</ele>
        <time>2020-06-17T18:39:45Z</time>
      </trkpt>
      <trkpt lat="49.64087" lon="0.18734">
        <ele>131.9</ele>
        <time>2020-06-17T18:39:46Z</time>
      </trkpt>
      <trkpt lat="49.64092" lon="0.18736">
        <ele>131.9</ele>
        <time>2020-06-17T18:39:47Z</time>
      </trkpt>
      <trkpt lat="49.64097" lon="0.18738">
        <ele>131.8</ele>
        <time>2020-06-17T18:39:48Z</time>
      </trkpt>
      <trkpt lat="49.64103" lon="0.1874">
        <ele>131.8</ele>
        <time>2020-06-17T18:39:49Z</time>
      </trkpt>
      <trkpt lat="49.64109" lon="0.18743">
        <ele>131.8</ele>
        <time>2020-06-17T18:39:50Z</time>
      </trkpt>
      <trkpt lat="49.64114" lon="0.18746">
        <ele>131.8</ele>
        <time>2020-06-17T18:39:51Z</time>
      </trkpt>
      <trkpt lat="49.6412" lon="0.18748">
        <ele>131.8</ele>
        <time>2020-06-17T18:39:52Z</time>
      </trkpt>
      <trkpt lat="49.64126" lon="0.18751">
        <ele>131.7</ele>
        <time>2020-06-17T18:39:53Z</time>
      </trkpt>
      <trkpt lat="49.64132" lon="0.18754">
        <ele>131.7</ele>
        <time>2020-06-17T18:39:54Z</time>
      </trkpt>
      <trkpt lat="49.64138" lon="0.18757">
        <ele>131.6</ele>
        <time>2020-06-17T18:39:55Z</time>
      </trkpt>
      <trkpt lat="49.64143" lon="0.1876">
        <ele>131.6</ele>
        <time>2020-06-17T18:39:56Z</time>
      </trkpt>
      <trkpt lat="49.6415" lon="0.18763">
        <ele>131.6</ele>
        <time>2020-06-17T18:39:57Z</time>
      </trkpt>
      <trkpt lat="49.64155" lon="0.18767">
        <ele>131.5</ele>
        <time>2020-06-17T18:39:58Z</time>
      </trkpt>
      <trkpt lat="49.64161" lon="0.1877">
        <ele>131.5</ele>
        <time>2020-06-17T18:39:59Z</time>
      </trkpt>
      <trkpt lat="49.64167" lon="0.18773">
        <ele>131.5</ele>
        <time>2020-06-17T18:40:00Z</time>
      </trkpt>
      <trkpt lat="49.64173" lon="0.18775">
        <ele>131.5</ele>
        <time>2020-06-17T18:40:01Z</time>
      </trkpt>
      <trkpt lat="49.64179" lon="0.18777">
        <ele>131.5</ele>
        <time>2020-06-17T18:40:02Z</time>
      </trkpt>
      <trkpt lat="49.64184" lon="0.18779">
        <ele>131.5</ele>
        <time>2020-06-17T18:40:03Z</time>
      </trkpt>
      <trkpt lat="49.6419" lon="0.18783">
        <ele>131.5</ele>
        <time>2020-06-17T18:40:04Z</time>
      </trkpt>
      <trkpt lat="49.64196" lon="0.18785">
        <ele>131.6</ele>
        <time>2020-06-17T18:40:05Z</time>
      </trkpt>
      <trkpt lat="49.64202" lon="0.1879">
        <ele>131.6</ele>
        <time>2020-06-17T18:40:06Z</time>
      </trkpt>
      <trkpt lat="49.64208" lon="0.18793">
        <ele>131.7</ele>
        <time>2020-06-17T18:40:07Z</time>
      </trkpt>
      <trkpt lat="49.64213" lon="0.18796">
        <ele>131.8</ele>
        <time>2020-06-17T18:40:08Z</time>
      </trkpt>
      <trkpt lat="49.64219" lon="0.18798">
        <ele>131.9</ele>
        <time>2020-06-17T18:40:09Z</time>
      </trkpt>
      <trkpt lat="49.64226" lon="0.18801">
        <ele>132</ele>
        <time>2020-06-17T18:40:10Z</time>
      </trkpt>
      <trkpt lat="49.64232" lon="0.18804">
        <ele>132.1</ele>
        <time>2020-06-17T18:40:11Z</time>
      </trkpt>
      <trkpt lat="49.64237" lon="0.18806">
        <ele>132.2</ele>
        <time>2020-06-17T18:40:12Z</time>
      </trkpt>
      <trkpt lat="49.64243" lon="0.18809">
        <ele>132.2</ele>
        <time>2020-06-17T18:40:13Z</time>
      </trkpt>
      <trkpt lat="49.64247" lon="0.18811">
        <ele>132.2</ele>
        <time>2020-06-17T18:40:14Z</time>
      </trkpt>
      <trkpt lat="49.64251" lon="0.18813">
        <ele>132.3</ele>
        <time>2020-06-17T18:40:15Z</time>
      </trkpt>
      <trkpt lat="49.64256" lon="0.18815">
        <ele>132.3</ele>
        <time>2020-06-17T18:40:16Z</time>
      </trkpt>
      <trkpt lat="49.64261" lon="0.18818">
        <ele>132.4</ele>
        <time>2020-06-17T18:40:17Z</time>
      </trkpt>
      <trkpt lat="49.64265" lon="0.1882">
        <ele>132.5</ele>
        <time>2020-06-17T18:40:18Z</time>
      </trkpt>
      <trkpt lat="49.64271" lon="0.18823">
        <ele>132.6</ele>
        <time>2020-06-17T18:40:19Z</time>
      </trkpt>
      <trkpt lat="49.64277" lon="0.18826">
        <ele>132.8</ele>
        <time>2020-06-17T18:40:20Z</time>
      </trkpt>
      <trkpt lat="49.64284" lon="0.18829">
        <ele>133</ele>
        <time>2020-06-17T18:40:21Z</time>
      </trkpt>
      <trkpt lat="49.64288" lon="0.18831">
        <ele>133.1</ele>
        <time>2020-06-17T18:40:22Z</time>
      </trkpt>
      <trkpt lat="49.64294" lon="0.18834">
        <ele>133.2</ele>
        <time>2020-06-17T18:40:23Z</time>
      </trkpt>
      <trkpt lat="49.64298" lon="0.18836">
        <ele>133.3</ele>
        <time>2020-06-17T18:40:24Z</time>
      </trkpt>
      <trkpt lat="49.64304" lon="0.1884">
        <ele>133.5</ele>
        <time>2020-06-17T18:40:25Z</time>
      </trkpt>
      <trkpt lat="49.64309" lon="0.18843">
        <ele>133.6</ele>
        <time>2020-06-17T18:40:26Z</time>
      </trkpt>
      <trkpt lat="49.64314" lon="0.18846">
        <ele>133.8</ele>
        <time>2020-06-17T18:40:27Z</time>
      </trkpt>
      <trkpt lat="49.64319" lon="0.18848">
        <ele>133.9</ele>
        <time>2020-06-17T18:40:28Z</time>
      </trkpt>
      <trkpt lat="49.64324" lon="0.18851">
        <ele>134.1</ele>
        <time>2020-06-17T18:40:29Z</time>
      </trkpt>
      <trkpt lat="49.64329" lon="0.18854">
        <ele>134.2</ele>
        <time>2020-06-17T18:40:30Z</time>
      </trkpt>
      <trkpt lat="49.64333" lon="0.18856">
        <ele>134.4</ele>
        <time>2020-06-17T18:40:31Z</time>
      </trkpt>
      <trkpt lat="49.64338" lon="0.18858">
        <ele>134.5</ele>
        <time>2020-06-17T18:40:32Z</time>
      </trkpt>
      <trkpt lat="49.64343" lon="0.18861">
        <ele>134.6</ele>
        <time>2020-06-17T18:40:33Z</time>
      </trkpt>
      <trkpt lat="49.64348" lon="0.18864">
        <ele>134.8</ele>
        <time>2020-06-17T18:40:34Z</time>
      </trkpt>
      <trkpt lat="49.64353" lon="0.18866">
        <ele>134.9</ele>
        <time>2020-06-17T18:40:35Z</time>
      </trkpt>
      <trkpt lat="49.64358" lon="0.18868">
        <ele>135.1</ele>
        <time>2020-06-17T18:40:36Z</time>
      </trkpt>
      <trkpt lat="49.64363" lon="0.1887">
        <ele>135.3</ele>
        <time>2020-06-17T18:40:37Z</time>
      </trkpt>
      <trkpt lat="49.64368" lon="0.18873">
        <ele>135.4</ele>
        <time>2020-06-17T18:40:38Z</time>
      </trkpt>
      <trkpt lat="49.64374" lon="0.18875">
        <ele>135.6</ele>
        <time>2020-06-17T18:40:39Z</time>
      </trkpt>
      <trkpt lat="49.64378" lon="0.18877">
        <ele>135.8</ele>
        <time>2020-06-17T18:40:40Z</time>
      </trkpt>
      <trkpt lat="49.64383" lon="0.18879">
        <ele>135.9</ele>
        <time>2020-06-17T18:40:41Z</time>
      </trkpt>
      <trkpt lat="49.64388" lon="0.18881">
        <ele>135.9</ele>
        <time>2020-06-17T18:40:42Z</time>
      </trkpt>
      <trkpt lat="49.64392" lon="0.18883">
        <ele>136</ele>
        <time>2020-06-17T18:40:43Z</time>
      </trkpt>
      <trkpt lat="49.64396" lon="0.18886">
        <ele>136.1</ele>
        <time>2020-06-17T18:40:44Z</time>
      </trkpt>
      <trkpt lat="49.64401" lon="0.18889">
        <ele>136.2</ele>
        <time>2020-06-17T18:40:45Z</time>
      </trkpt>
      <trkpt lat="49.64406" lon="0.1889">
        <ele>136.3</ele>
        <time>2020-06-17T18:40:46Z</time>
      </trkpt>
      <trkpt lat="49.64411" lon="0.18893">
        <ele>136.5</ele>
        <time>2020-06-17T18:40:47Z</time>
      </trkpt>
      <trkpt lat="49.64416" lon="0.18895">
        <ele>136.6</ele>
        <time>2020-06-17T18:40:48Z</time>
      </trkpt>
      <trkpt lat="49.64421" lon="0.18898">
        <ele>136.8</ele>
        <time>2020-06-17T18:40:49Z</time>
      </trkpt>
      <trkpt lat="49.64425" lon="0.18901">
        <ele>136.9</ele>
        <time>2020-06-17T18:40:50Z</time>
      </trkpt>
      <trkpt lat="49.6443" lon="0.18903">
        <ele>137.1</ele>
        <time>2020-06-17T18:40:51Z</time>
      </trkpt>
      <trkpt lat="49.64435" lon="0.18905">
        <ele>137.2</ele>
        <time>2020-06-17T18:40:52Z</time>
      </trkpt>
      <trkpt lat="49.6444" lon="0.18907">
        <ele>137.4</ele>
        <time>2020-06-17T18:40:53Z</time>
      </trkpt>
      <trkpt lat="49.64445" lon="0.18909">
        <ele>137.5</ele>
        <time>2020-06-17T18:40:54Z</time>
      </trkpt>
      <trkpt lat="49.64449" lon="0.18911">
        <ele>137.6</ele>
        <time>2020-06-17T18:40:55Z</time>
      </trkpt>
      <trkpt lat="49.64454" lon="0.18913">
        <ele>137.7</ele>
        <time>2020-06-17T18:40:56Z</time>
      </trkpt>
      <trkpt lat="49.64458" lon="0.18914">
        <ele>137.8</ele>
        <time>2020-06-17T18:40:57Z</time>
      </trkpt>
      <trkpt lat="49.64463" lon="0.18916">
        <ele>137.9</ele>
        <time>2020-06-17T18:40:58Z</time>
      </trkpt>
      <trkpt lat="49.64469" lon="0.18919">
        <ele>138</ele>
        <time>2020-06-17T18:40:59Z</time>
      </trkpt>
      <trkpt lat="49.64473" lon="0.18921">
        <ele>138</ele>
        <time>2020-06-17T18:41:00Z</time>
      </trkpt>
      <trkpt lat="49.64478" lon="0.18924">
        <ele>138.1</ele>
        <time>2020-06-17T18:41:01Z</time>
      </trkpt>
      <trkpt lat="49.64482" lon="0.18926">
        <ele>138.2</ele>
        <time>2020-06-17T18:41:02Z</time>
      </trkpt>
      <trkpt lat="49.64487" lon="0.18929">
        <ele>138.3</ele>
        <time>2020-06-17T18:41:03Z</time>
      </trkpt>
      <trkpt lat="49.64492" lon="0.18931">
        <ele>138.4</ele>
        <time>2020-06-17T18:41:04Z</time>
      </trkpt>
      <trkpt lat="49.64496" lon="0.18933">
        <ele>138.5</ele>
        <time>2020-06-17T18:41:05Z</time>
      </trkpt>
      <trkpt lat="49.64501" lon="0.18936">
        <ele>138.6</ele>
        <time>2020-06-17T18:41:06Z</time>
      </trkpt>
      <trkpt lat="49.64506" lon="0.18937">
        <ele>138.6</ele>
        <time>2020-06-17T18:41:07Z</time>
      </trkpt>
      <trkpt lat="49.64511" lon="0.1894">
        <ele>138.7</ele>
        <time>2020-06-17T18:41:08Z</time>
      </trkpt>
      <trkpt lat="49.64515" lon="0.18943">
        <ele>138.8</ele>
        <time>2020-06-17T18:41:09Z</time>
      </trkpt>
      <trkpt lat="49.6452" lon="0.18946">
        <ele>138.9</ele>
        <time>2020-06-17T18:41:10Z</time>
      </trkpt>
      <trkpt lat="49.64525" lon="0.18948">
        <ele>139</ele>
        <time>2020-06-17T18:41:11Z</time>
      </trkpt>
      <trkpt lat="49.6453" lon="0.1895">
        <ele>139</ele>
        <time>2020-06-17T18:41:12Z</time>
      </trkpt>
      <trkpt lat="49.64535" lon="0.18953">
        <ele>139.1</ele>
        <time>2020-06-17T18:41:13Z</time>
      </trkpt>
      <trkpt lat="49.64539" lon="0.18956">
        <ele>139.2</ele>
        <time>2020-06-17T18:41:14Z</time>
      </trkpt>
      <trkpt lat="49.64544" lon="0.1896">
        <ele>139.3</ele>
        <time>2020-06-17T18:41:15Z</time>
      </trkpt>
      <trkpt lat="49.64549" lon="0.18964">
        <ele>139.3</ele>
        <time>2020-06-17T18:41:16Z</time>
      </trkpt>
      <trkpt lat="49.64554" lon="0.18966">
        <ele>139.4</ele>
        <time>2020-06-17T18:41:17Z</time>
      </trkpt>
      <trkpt lat="49.6456" lon="0.1897">
        <ele>139.5</ele>
        <time>2020-06-17T18:41:18Z</time>
      </trkpt>
      <trkpt lat="49.64565" lon="0.18974">
        <ele>139.5</ele>
        <time>2020-06-17T18:41:19Z</time>
      </trkpt>
      <trkpt lat="49.6457" lon="0.18977">
        <ele>139.6</ele>
        <time>2020-06-17T18:41:20Z</time>
      </trkpt>
      <trkpt lat="49.64575" lon="0.18981">
        <ele>139.6</ele>
        <time>2020-06-17T18:41:21Z</time>
      </trkpt>
      <trkpt lat="49.6458" lon="0.18982">
        <ele>139.7</ele>
        <time>2020-06-17T18:41:22Z</time>
      </trkpt>
      <trkpt lat="49.64585" lon="0.18984">
        <ele>139.7</ele>
        <time>2020-06-17T18:41:23Z</time>
      </trkpt>
      <trkpt lat="49.6459" lon="0.18986">
        <ele>139.7</ele>
        <time>2020-06-17T18:41:24Z</time>
      </trkpt>
      <trkpt lat="49.64595" lon="0.18989">
        <ele>139.7</ele>
        <time>2020-06-17T18:41:25Z</time>
      </trkpt>
      <trkpt lat="49.64599" lon="0.18991">
        <ele>139.7</ele>
        <time>2020-06-17T18:41:26Z</time>
      </trkpt>
      <trkpt lat="49.64604" lon="0.18994">
        <ele>139.7</ele>
        <time>2020-06-17T18:41:27Z</time>
      </trkpt>
      <trkpt lat="49.64609" lon="0.18996">
        <ele>139.7</ele>
        <time>2020-06-17T18:41:28Z</time>
      </trkpt>
      <trkpt lat="49.64613" lon="0.18997">
        <ele>139.7</ele>
        <time>2020-06-17T18:41:29Z</time>
      </trkpt>
      <trkpt lat="49.64617" lon="0.18999">
        <ele>139.7</ele>
        <time>2020-06-17T18:41:30Z</time>
      </trkpt>
      <trkpt lat="49.64622" lon="0.19001">
        <ele>139.7</ele>
        <time>2020-06-17T18:41:31Z</time>
      </trkpt>
      <trkpt lat="49.64627" lon="0.19002">
        <ele>139.7</ele>
        <time>2020-06-17T18:41:32Z</time>
      </trkpt>
      <trkpt lat="49.64631" lon="0.19004">
        <ele>139.7</ele>
        <time>2020-06-17T18:41:33Z</time>
      </trkpt>
      <trkpt lat="49.64637" lon="0.19006">
        <ele>139.7</ele>
        <time>2020-06-17T18:41:34Z</time>
      </trkpt>
      <trkpt lat="49.64642" lon="0.19008">
        <ele>139.6</ele>
        <time>2020-06-17T18:41:35Z</time>
      </trkpt>
      <trkpt lat="49.64647" lon="0.1901">
        <ele>139.6</ele>
        <time>2020-06-17T18:41:36Z</time>
      </trkpt>
      <trkpt lat="49.64652" lon="0.19013">
        <ele>139.6</ele>
        <time>2020-06-17T18:41:37Z</time>
      </trkpt>
      <trkpt lat="49.64657" lon="0.19017">
        <ele>139.6</ele>
        <time>2020-06-17T18:41:38Z</time>
      </trkpt>
      <trkpt lat="49.64662" lon="0.1902">
        <ele>139.6</ele>
        <time>2020-06-17T18:41:39Z</time>
      </trkpt>
      <trkpt lat="49.64667" lon="0.19023">
        <ele>139.5</ele>
        <time>2020-06-17T18:41:40Z</time>
      </trkpt>
      <trkpt lat="49.64672" lon="0.19024">
        <ele>139.4</ele>
        <time>2020-06-17T18:41:41Z</time>
      </trkpt>
      <trkpt lat="49.64678" lon="0.19028">
        <ele>139.4</ele>
        <time>2020-06-17T18:41:42Z</time>
      </trkpt>
      <trkpt lat="49.64683" lon="0.1903">
        <ele>139.3</ele>
        <time>2020-06-17T18:41:43Z</time>
      </trkpt>
      <trkpt lat="49.64688" lon="0.19034">
        <ele>139.3</ele>
        <time>2020-06-17T18:41:44Z</time>
      </trkpt>
      <trkpt lat="49.64694" lon="0.19037">
        <ele>139.2</ele>
        <time>2020-06-17T18:41:45Z</time>
      </trkpt>
      <trkpt lat="49.647" lon="0.19041">
        <ele>139.2</ele>
        <time>2020-06-17T18:41:46Z</time>
      </trkpt>
      <trkpt lat="49.64705" lon="0.19045">
        <ele>139.1</ele>
        <time>2020-06-17T18:41:47Z</time>
      </trkpt>
      <trkpt lat="49.64711" lon="0.19048">
        <ele>139</ele>
        <time>2020-06-17T18:41:48Z</time>
      </trkpt>
      <trkpt lat="49.64717" lon="0.19051">
        <ele>139</ele>
        <time>2020-06-17T18:41:49Z</time>
      </trkpt>
      <trkpt lat="49.64723" lon="0.19054">
        <ele>138.9</ele>
        <time>2020-06-17T18:41:50Z</time>
      </trkpt>
      <trkpt lat="49.64728" lon="0.19055">
        <ele>138.8</ele>
        <time>2020-06-17T18:41:51Z</time>
      </trkpt>
      <trkpt lat="49.64735" lon="0.19059">
        <ele>138.8</ele>
        <time>2020-06-17T18:41:52Z</time>
      </trkpt>
      <trkpt lat="49.64741" lon="0.19063">
        <ele>138.7</ele>
        <time>2020-06-17T18:41:53Z</time>
      </trkpt>
      <trkpt lat="49.64747" lon="0.19067">
        <ele>138.6</ele>
        <time>2020-06-17T18:41:54Z</time>
      </trkpt>
      <trkpt lat="49.64753" lon="0.1907">
        <ele>138.5</ele>
        <time>2020-06-17T18:41:55Z</time>
      </trkpt>
      <trkpt lat="49.64758" lon="0.19072">
        <ele>138.5</ele>
        <time>2020-06-17T18:41:56Z</time>
      </trkpt>
      <trkpt lat="49.64764" lon="0.19075">
        <ele>138.3</ele>
        <time>2020-06-17T18:41:57Z</time>
      </trkpt>
      <trkpt lat="49.64771" lon="0.19079">
        <ele>138.2</ele>
        <time>2020-06-17T18:41:58Z</time>
      </trkpt>
      <trkpt lat="49.64778" lon="0.19081">
        <ele>138</ele>
        <time>2020-06-17T18:41:59Z</time>
      </trkpt>
      <trkpt lat="49.64785" lon="0.19083">
        <ele>137.9</ele>
        <time>2020-06-17T18:42:00Z</time>
      </trkpt>
      <trkpt lat="49.64792" lon="0.19086">
        <ele>137.7</ele>
        <time>2020-06-17T18:42:01Z</time>
      </trkpt>
      <trkpt lat="49.64798" lon="0.19091">
        <ele>137.6</ele>
        <time>2020-06-17T18:42:02Z</time>
      </trkpt>
      <trkpt lat="49.64805" lon="0.19094">
        <ele>137.5</ele>
        <time>2020-06-17T18:42:03Z</time>
      </trkpt>
      <trkpt lat="49.64811" lon="0.19098">
        <ele>137.4</ele>
        <time>2020-06-17T18:42:04Z</time>
      </trkpt>
      <trkpt lat="49.64817" lon="0.19101">
        <ele>137.3</ele>
        <time>2020-06-17T18:42:05Z</time>
      </trkpt>
      <trkpt lat="49.64823" lon="0.19105">
        <ele>137.1</ele>
        <time>2020-06-17T18:42:06Z</time>
      </trkpt>
      <trkpt lat="49.64829" lon="0.19108">
        <ele>137</ele>
        <time>2020-06-17T18:42:07Z</time>
      </trkpt>
      <trkpt lat="49.64835" lon="0.19111">
        <ele>136.9</ele>
        <time>2020-06-17T18:42:08Z</time>
      </trkpt>
      <trkpt lat="49.64841" lon="0.19114">
        <ele>136.7</ele>
        <time>2020-06-17T18:42:09Z</time>
      </trkpt>
      <trkpt lat="49.64847" lon="0.19116">
        <ele>136.6</ele>
        <time>2020-06-17T18:42:10Z</time>
      </trkpt>
      <trkpt lat="49.64853" lon="0.19119">
        <ele>136.5</ele>
        <time>2020-06-17T18:42:11Z</time>
      </trkpt>
      <trkpt lat="49.64858" lon="0.19122">
        <ele>136.4</ele>
        <time>2020-06-17T18:42:12Z</time>
      </trkpt>
      <trkpt lat="49.64864" lon="0.19124">
        <ele>136.3</ele>
        <time>2020-06-17T18:42:13Z</time>
      </trkpt>
      <trkpt lat="49.6487" lon="0.19127">
        <ele>136.2</ele>
        <time>2020-06-17T18:42:14Z</time>
      </trkpt>
      <trkpt lat="49.64875" lon="0.1913">
        <ele>136.1</ele>
        <time>2020-06-17T18:42:15Z</time>
      </trkpt>
      <trkpt lat="49.64881" lon="0.19132">
        <ele>136.1</ele>
        <time>2020-06-17T18:42:16Z</time>
      </trkpt>
      <trkpt lat="49.64887" lon="0.19134">
        <ele>135.9</ele>
        <time>2020-06-17T18:42:17Z</time>
      </trkpt>
      <trkpt lat="49.64894" lon="0.19137">
        <ele>135.8</ele>
        <time>2020-06-17T18:42:18Z</time>
      </trkpt>
      <trkpt lat="49.64899" lon="0.19139">
        <ele>135.7</ele>
        <time>2020-06-17T18:42:19Z</time>
      </trkpt>
      <trkpt lat="49.64905" lon="0.19141">
        <ele>135.6</ele>
        <time>2020-06-17T18:42:20Z</time>
      </trkpt>
      <trkpt lat="49.64911" lon="0.19144">
        <ele>135.5</ele>
        <time>2020-06-17T18:42:21Z</time>
      </trkpt>
      <trkpt lat="49.64918" lon="0.19147">
        <ele>135.3</ele>
        <time>2020-06-17T18:42:22Z</time>
      </trkpt>
      <trkpt lat="49.64924" lon="0.19149">
        <ele>135.2</ele>
        <time>2020-06-17T18:42:23Z</time>
      </trkpt>
      <trkpt lat="49.6493" lon="0.19152">
        <ele>135.1</ele>
        <time>2020-06-17T18:42:24Z</time>
      </trkpt>
      <trkpt lat="49.64937" lon="0.19155">
        <ele>135</ele>
        <time>2020-06-17T18:42:25Z</time>
      </trkpt>
      <trkpt lat="49.64944" lon="0.19157">
        <ele>134.9</ele>
        <time>2020-06-17T18:42:26Z</time>
      </trkpt>
      <trkpt lat="49.6495" lon="0.1916">
        <ele>134.7</ele>
        <time>2020-06-17T18:42:27Z</time>
      </trkpt>
      <trkpt lat="49.64956" lon="0.19164">
        <ele>134.6</ele>
        <time>2020-06-17T18:42:28Z</time>
      </trkpt>
      <trkpt lat="49.64963" lon="0.19168">
        <ele>134.5</ele>
        <time>2020-06-17T18:42:29Z</time>
      </trkpt>
      <trkpt lat="49.6497" lon="0.19171">
        <ele>134.4</ele>
        <time>2020-06-17T18:42:30Z</time>
      </trkpt>
      <trkpt lat="49.64977" lon="0.19174">
        <ele>134.2</ele>
        <time>2020-06-17T18:42:31Z</time>
      </trkpt>
      <trkpt lat="49.64985" lon="0.19178">
        <ele>134</ele>
        <time>2020-06-17T18:42:32Z</time>
      </trkpt>
      <trkpt lat="49.64992" lon="0.19181">
        <ele>133.8</ele>
        <time>2020-06-17T18:42:33Z</time>
      </trkpt>
      <trkpt lat="49.64999" lon="0.19184">
        <ele>133.7</ele>
        <time>2020-06-17T18:42:34Z</time>
      </trkpt>
      <trkpt lat="49.65006" lon="0.19188">
        <ele>133.5</ele>
        <time>2020-06-17T18:42:35Z</time>
      </trkpt>
      <trkpt lat="49.65014" lon="0.19191">
        <ele>133.3</ele>
        <time>2020-06-17T18:42:36Z</time>
      </trkpt>
      <trkpt lat="49.65021" lon="0.19194">
        <ele>133.2</ele>
        <time>2020-06-17T18:42:37Z</time>
      </trkpt>
      <trkpt lat="49.65028" lon="0.19198">
        <ele>133</ele>
        <time>2020-06-17T18:42:38Z</time>
      </trkpt>
      <trkpt lat="49.65036" lon="0.19201">
        <ele>132.8</ele>
        <time>2020-06-17T18:42:39Z</time>
      </trkpt>
      <trkpt lat="49.65043" lon="0.19206">
        <ele>132.7</ele>
        <time>2020-06-17T18:42:40Z</time>
      </trkpt>
      <trkpt lat="49.65051" lon="0.19209">
        <ele>132.5</ele>
        <time>2020-06-17T18:42:41Z</time>
      </trkpt>
      <trkpt lat="49.65058" lon="0.19212">
        <ele>132.4</ele>
        <time>2020-06-17T18:42:42Z</time>
      </trkpt>
      <trkpt lat="49.65065" lon="0.19216">
        <ele>132.3</ele>
        <time>2020-06-17T18:42:43Z</time>
      </trkpt>
      <trkpt lat="49.65071" lon="0.1922">
        <ele>132.2</ele>
        <time>2020-06-17T18:42:44Z</time>
      </trkpt>
      <trkpt lat="49.65078" lon="0.19223">
        <ele>132.1</ele>
        <time>2020-06-17T18:42:45Z</time>
      </trkpt>
      <trkpt lat="49.65084" lon="0.19226">
        <ele>131.9</ele>
        <time>2020-06-17T18:42:46Z</time>
      </trkpt>
      <trkpt lat="49.65091" lon="0.1923">
        <ele>131.6</ele>
        <time>2020-06-17T18:42:47Z</time>
      </trkpt>
      <trkpt lat="49.65097" lon="0.19234">
        <ele>131.4</ele>
        <time>2020-06-17T18:42:48Z</time>
      </trkpt>
      <trkpt lat="49.65104" lon="0.19238">
        <ele>131.2</ele>
        <time>2020-06-17T18:42:49Z</time>
      </trkpt>
      <trkpt lat="49.6511" lon="0.19241">
        <ele>131</ele>
        <time>2020-06-17T18:42:50Z</time>
      </trkpt>
      <trkpt lat="49.65116" lon="0.19245">
        <ele>130.8</ele>
        <time>2020-06-17T18:42:51Z</time>
      </trkpt>
      <trkpt lat="49.65123" lon="0.19248">
        <ele>130.6</ele>
        <time>2020-06-17T18:42:52Z</time>
      </trkpt>
      <trkpt lat="49.65129" lon="0.1925">
        <ele>130.5</ele>
        <time>2020-06-17T18:42:53Z</time>
      </trkpt>
      <trkpt lat="49.65135" lon="0.19253">
        <ele>130.3</ele>
        <time>2020-06-17T18:42:54Z</time>
      </trkpt>
      <trkpt lat="49.65141" lon="0.19256">
        <ele>130.1</ele>
        <time>2020-06-17T18:42:55Z</time>
      </trkpt>
      <trkpt lat="49.65148" lon="0.19258">
        <ele>129.9</ele>
        <time>2020-06-17T18:42:56Z</time>
      </trkpt>
      <trkpt lat="49.65154" lon="0.19261">
        <ele>129.7</ele>
        <time>2020-06-17T18:42:57Z</time>
      </trkpt>
      <trkpt lat="49.6516" lon="0.19264">
        <ele>129.5</ele>
        <time>2020-06-17T18:42:58Z</time>
      </trkpt>
      <trkpt lat="49.65167" lon="0.19268">
        <ele>129.3</ele>
        <time>2020-06-17T18:42:59Z</time>
      </trkpt>
      <trkpt lat="49.65173" lon="0.19272">
        <ele>129.1</ele>
        <time>2020-06-17T18:43:00Z</time>
      </trkpt>
      <trkpt lat="49.65179" lon="0.19277">
        <ele>128.9</ele>
        <time>2020-06-17T18:43:01Z</time>
      </trkpt>
      <trkpt lat="49.65185" lon="0.1928">
        <ele>128.7</ele>
        <time>2020-06-17T18:43:02Z</time>
      </trkpt>
      <trkpt lat="49.65192" lon="0.19284">
        <ele>128.6</ele>
        <time>2020-06-17T18:43:03Z</time>
      </trkpt>
      <trkpt lat="49.65199" lon="0.19287">
        <ele>128.4</ele>
        <time>2020-06-17T18:43:04Z</time>
      </trkpt>
      <trkpt lat="49.65206" lon="0.1929">
        <ele>128.1</ele>
        <time>2020-06-17T18:43:05Z</time>
      </trkpt>
      <trkpt lat="49.65212" lon="0.19293">
        <ele>127.9</ele>
        <time>2020-06-17T18:43:06Z</time>
      </trkpt>
      <trkpt lat="49.65219" lon="0.19297">
        <ele>127.7</ele>
        <time>2020-06-17T18:43:07Z</time>
      </trkpt>
      <trkpt lat="49.65225" lon="0.19301">
        <ele>127.5</ele>
        <time>2020-06-17T18:43:08Z</time>
      </trkpt>
      <trkpt lat="49.65232" lon="0.19305">
        <ele>127.3</ele>
        <time>2020-06-17T18:43:09Z</time>
      </trkpt>
      <trkpt lat="49.65239" lon="0.19309">
        <ele>127</ele>
        <time>2020-06-17T18:43:10Z</time>
      </trkpt>
      <trkpt lat="49.65246" lon="0.19313">
        <ele>126.8</ele>
        <time>2020-06-17T18:43:11Z</time>
      </trkpt>
      <trkpt lat="49.65253" lon="0.19317">
        <ele>126.6</ele>
        <time>2020-06-17T18:43:12Z</time>
      </trkpt>
      <trkpt lat="49.6526" lon="0.1932">
        <ele>126.3</ele>
        <time>2020-06-17T18:43:13Z</time>
      </trkpt>
      <trkpt lat="49.65266" lon="0.19323">
        <ele>126</ele>
        <time>2020-06-17T18:43:14Z</time>
      </trkpt>
      <trkpt lat="49.65273" lon="0.19326">
        <ele>125.7</ele>
        <time>2020-06-17T18:43:15Z</time>
      </trkpt>
      <trkpt lat="49.65281" lon="0.19329">
        <ele>125.5</ele>
        <time>2020-06-17T18:43:16Z</time>
      </trkpt>
      <trkpt lat="49.65288" lon="0.19332">
        <ele>125.2</ele>
        <time>2020-06-17T18:43:17Z</time>
      </trkpt>
      <trkpt lat="49.65295" lon="0.19336">
        <ele>125</ele>
        <time>2020-06-17T18:43:18Z</time>
      </trkpt>
      <trkpt lat="49.65302" lon="0.1934">
        <ele>124.8</ele>
        <time>2020-06-17T18:43:19Z</time>
      </trkpt>
      <trkpt lat="49.65309" lon="0.19344">
        <ele>124.5</ele>
        <time>2020-06-17T18:43:20Z</time>
      </trkpt>
      <trkpt lat="49.65317" lon="0.19349">
        <ele>124.2</ele>
        <time>2020-06-17T18:43:21Z</time>
      </trkpt>
      <trkpt lat="49.65324" lon="0.19353">
        <ele>124</ele>
        <time>2020-06-17T18:43:22Z</time>
      </trkpt>
      <trkpt lat="49.65332" lon="0.19357">
        <ele>123.7</ele>
        <time>2020-06-17T18:43:23Z</time>
      </trkpt>
      <trkpt lat="49.6534" lon="0.1936">
        <ele>123.4</ele>
        <time>2020-06-17T18:43:24Z</time>
      </trkpt>
      <trkpt lat="49.65347" lon="0.19363">
        <ele>123.2</ele>
        <time>2020-06-17T18:43:25Z</time>
      </trkpt>
      <trkpt lat="49.65355" lon="0.19367">
        <ele>122.9</ele>
        <time>2020-06-17T18:43:26Z</time>
      </trkpt>
      <trkpt lat="49.65362" lon="0.19371">
        <ele>122.7</ele>
        <time>2020-06-17T18:43:27Z</time>
      </trkpt>
      <trkpt lat="49.6537" lon="0.19374">
        <ele>122.4</ele>
        <time>2020-06-17T18:43:28Z</time>
      </trkpt>
      <trkpt lat="49.65377" lon="0.19378">
        <ele>122.2</ele>
        <time>2020-06-17T18:43:29Z</time>
      </trkpt>
      <trkpt lat="49.65385" lon="0.19382">
        <ele>121.9</ele>
        <time>2020-06-17T18:43:30Z</time>
      </trkpt>
      <trkpt lat="49.65392" lon="0.19386">
        <ele>121.6</ele>
        <time>2020-06-17T18:43:31Z</time>
      </trkpt>
      <trkpt lat="49.65399" lon="0.1939">
        <ele>121.3</ele>
        <time>2020-06-17T18:43:32Z</time>
      </trkpt>
      <trkpt lat="49.65407" lon="0.19394">
        <ele>121.1</ele>
        <time>2020-06-17T18:43:33Z</time>
      </trkpt>
      <trkpt lat="49.65414" lon="0.19399">
        <ele>120.8</ele>
        <time>2020-06-17T18:43:34Z</time>
      </trkpt>
      <trkpt lat="49.65421" lon="0.19402">
        <ele>120.6</ele>
        <time>2020-06-17T18:43:35Z</time>
      </trkpt>
      <trkpt lat="49.65428" lon="0.19406">
        <ele>120.4</ele>
        <time>2020-06-17T18:43:36Z</time>
      </trkpt>
      <trkpt lat="49.65435" lon="0.1941">
        <ele>120.2</ele>
        <time>2020-06-17T18:43:37Z</time>
      </trkpt>
      <trkpt lat="49.65442" lon="0.19414">
        <ele>119.7</ele>
        <time>2020-06-17T18:43:38Z</time>
      </trkpt>
      <trkpt lat="49.65449" lon="0.19419">
        <ele>119.3</ele>
        <time>2020-06-17T18:43:39Z</time>
      </trkpt>
      <trkpt lat="49.65457" lon="0.19423">
        <ele>119</ele>
        <time>2020-06-17T18:43:40Z</time>
      </trkpt>
      <trkpt lat="49.65465" lon="0.19426">
        <ele>118.8</ele>
        <time>2020-06-17T18:43:41Z</time>
      </trkpt>
      <trkpt lat="49.65472" lon="0.19429">
        <ele>118.5</ele>
        <time>2020-06-17T18:43:42Z</time>
      </trkpt>
      <trkpt lat="49.6548" lon="0.19432">
        <ele>118.3</ele>
        <time>2020-06-17T18:43:43Z</time>
      </trkpt>
      <trkpt lat="49.65488" lon="0.19435">
        <ele>118.1</ele>
        <time>2020-06-17T18:43:44Z</time>
      </trkpt>
      <trkpt lat="49.65496" lon="0.19437">
        <ele>117.9</ele>
        <time>2020-06-17T18:43:45Z</time>
      </trkpt>
      <trkpt lat="49.65503" lon="0.1944">
        <ele>117.8</ele>
        <time>2020-06-17T18:43:46Z</time>
      </trkpt>
      <trkpt lat="49.65511" lon="0.19442">
        <ele>117.6</ele>
        <time>2020-06-17T18:43:47Z</time>
      </trkpt>
      <trkpt lat="49.65519" lon="0.19444">
        <ele>117.4</ele>
        <time>2020-06-17T18:43:48Z</time>
      </trkpt>
      <trkpt lat="49.65527" lon="0.19447">
        <ele>117.2</ele>
        <time>2020-06-17T18:43:49Z</time>
      </trkpt>
      <trkpt lat="49.65535" lon="0.1945">
        <ele>117</ele>
        <time>2020-06-17T18:43:50Z</time>
      </trkpt>
      <trkpt lat="49.65543" lon="0.19453">
        <ele>116.8</ele>
        <time>2020-06-17T18:43:51Z</time>
      </trkpt>
      <trkpt lat="49.65551" lon="0.19456">
        <ele>116.5</ele>
        <time>2020-06-17T18:43:52Z</time>
      </trkpt>
      <trkpt lat="49.65559" lon="0.19458">
        <ele>116.3</ele>
        <time>2020-06-17T18:43:53Z</time>
      </trkpt>
      <trkpt lat="49.65566" lon="0.19461">
        <ele>116</ele>
        <time>2020-06-17T18:43:54Z</time>
      </trkpt>
      <trkpt lat="49.65575" lon="0.19463">
        <ele>115.8</ele>
        <time>2020-06-17T18:43:55Z</time>
      </trkpt>
      <trkpt lat="49.65583" lon="0.19466">
        <ele>115.5</ele>
        <time>2020-06-17T18:43:56Z</time>
      </trkpt>
      <trkpt lat="49.65591" lon="0.19468">
        <ele>115.2</ele>
        <time>2020-06-17T18:43:57Z</time>
      </trkpt>
      <trkpt lat="49.65599" lon="0.19469">
        <ele>114.9</ele>
        <time>2020-06-17T18:43:58Z</time>
      </trkpt>
      <trkpt lat="49.65606" lon="0.19469">
        <ele>114.7</ele>
        <time>2020-06-17T18:43:59Z</time>
      </trkpt>
      <trkpt lat="49.65613" lon="0.1947">
        <ele>114.4</ele>
        <time>2020-06-17T18:44:00Z</time>
      </trkpt>
      <trkpt lat="49.6562" lon="0.19471">
        <ele>114.2</ele>
        <time>2020-06-17T18:44:01Z</time>
      </trkpt>
      <trkpt lat="49.65627" lon="0.19471">
        <ele>114</ele>
        <time>2020-06-17T18:44:02Z</time>
      </trkpt>
      <trkpt lat="49.65635" lon="0.19472">
        <ele>113.7</ele>
        <time>2020-06-17T18:44:03Z</time>
      </trkpt>
      <trkpt lat="49.65642" lon="0.19473">
        <ele>113.4</ele>
        <time>2020-06-17T18:44:04Z</time>
      </trkpt>
      <trkpt lat="49.6565" lon="0.19472">
        <ele>113.1</ele>
        <time>2020-06-17T18:44:05Z</time>
      </trkpt>
      <trkpt lat="49.65658" lon="0.19473">
        <ele>112.8</ele>
        <time>2020-06-17T18:44:06Z</time>
      </trkpt>
      <trkpt lat="49.65666" lon="0.19474">
        <ele>112.5</ele>
        <time>2020-06-17T18:44:07Z</time>
      </trkpt>
      <trkpt lat="49.65675" lon="0.19476">
        <ele>112.2</ele>
        <time>2020-06-17T18:44:08Z</time>
      </trkpt>
      <trkpt lat="49.65683" lon="0.19476">
        <ele>112</ele>
        <time>2020-06-17T18:44:09Z</time>
      </trkpt>
      <trkpt lat="49.65692" lon="0.19476">
        <ele>111.7</ele>
        <time>2020-06-17T18:44:10Z</time>
      </trkpt>
      <trkpt lat="49.657" lon="0.19476">
        <ele>111.4</ele>
        <time>2020-06-17T18:44:11Z</time>
      </trkpt>
      <trkpt lat="49.65708" lon="0.19476">
        <ele>111.1</ele>
        <time>2020-06-17T18:44:12Z</time>
      </trkpt>
      <trkpt lat="49.65716" lon="0.19475">
        <ele>110.9</ele>
        <time>2020-06-17T18:44:13Z</time>
      </trkpt>
      <trkpt lat="49.65724" lon="0.19473">
        <ele>110.7</ele>
        <time>2020-06-17T18:44:14Z</time>
      </trkpt>
      <trkpt lat="49.65732" lon="0.19473">
        <ele>110.4</ele>
        <time>2020-06-17T18:44:15Z</time>
      </trkpt>
      <trkpt lat="49.6574" lon="0.19472">
        <ele>110.2</ele>
        <time>2020-06-17T18:44:16Z</time>
      </trkpt>
      <trkpt lat="49.65748" lon="0.19472">
        <ele>110</ele>
        <time>2020-06-17T18:44:17Z</time>
      </trkpt>
      <trkpt lat="49.65756" lon="0.19471">
        <ele>109.8</ele>
        <time>2020-06-17T18:44:18Z</time>
      </trkpt>
      <trkpt lat="49.65764" lon="0.1947">
        <ele>109.5</ele>
        <time>2020-06-17T18:44:19Z</time>
      </trkpt>
      <trkpt lat="49.65771" lon="0.19469">
        <ele>109.4</ele>
        <time>2020-06-17T18:44:20Z</time>
      </trkpt>
      <trkpt lat="49.65779" lon="0.19468">
        <ele>109.2</ele>
        <time>2020-06-17T18:44:21Z</time>
      </trkpt>
      <trkpt lat="49.65786" lon="0.19467">
        <ele>109.1</ele>
        <time>2020-06-17T18:44:22Z</time>
      </trkpt>
      <trkpt lat="49.65793" lon="0.19465">
        <ele>109</ele>
        <time>2020-06-17T18:44:23Z</time>
      </trkpt>
      <trkpt lat="49.658" lon="0.19463">
        <ele>108.9</ele>
        <time>2020-06-17T18:44:24Z</time>
      </trkpt>
      <trkpt lat="49.65808" lon="0.19463">
        <ele>108.8</ele>
        <time>2020-06-17T18:44:25Z</time>
      </trkpt>
      <trkpt lat="49.65815" lon="0.19462">
        <ele>108.7</ele>
        <time>2020-06-17T18:44:26Z</time>
      </trkpt>
      <trkpt lat="49.65822" lon="0.19461">
        <ele>108.6</ele>
        <time>2020-06-17T18:44:27Z</time>
      </trkpt>
      <trkpt lat="49.6583" lon="0.1946">
        <ele>108.6</ele>
        <time>2020-06-17T18:44:28Z</time>
      </trkpt>
      <trkpt lat="49.65837" lon="0.19459">
        <ele>108.6</ele>
        <time>2020-06-17T18:44:29Z</time>
      </trkpt>
      <trkpt lat="49.65844" lon="0.19458">
        <ele>108.5</ele>
        <time>2020-06-17T18:44:30Z</time>
      </trkpt>
      <trkpt lat="49.65851" lon="0.19457">
        <ele>108.4</ele>
        <time>2020-06-17T18:44:31Z</time>
      </trkpt>
      <trkpt lat="49.65859" lon="0.19456">
        <ele>108.3</ele>
        <time>2020-06-17T18:44:32Z</time>
      </trkpt>
      <trkpt lat="49.65866" lon="0.19455">
        <ele>108.2</ele>
        <time>2020-06-17T18:44:33Z</time>
      </trkpt>
      <trkpt lat="49.65873" lon="0.19454">
        <ele>108.1</ele>
        <time>2020-06-17T18:44:34Z</time>
      </trkpt>
      <trkpt lat="49.6588" lon="0.19454">
        <ele>108.1</ele>
        <time>2020-06-17T18:44:35Z</time>
      </trkpt>
      <trkpt lat="49.65887" lon="0.19453">
        <ele>108</ele>
        <time>2020-06-17T18:44:36Z</time>
      </trkpt>
      <trkpt lat="49.65894" lon="0.19454">
        <ele>107.8</ele>
        <time>2020-06-17T18:44:37Z</time>
      </trkpt>
      <trkpt lat="49.65901" lon="0.19454">
        <ele>107.7</ele>
        <time>2020-06-17T18:44:38Z</time>
      </trkpt>
      <trkpt lat="49.65908" lon="0.19454">
        <ele>107.7</ele>
        <time>2020-06-17T18:44:39Z</time>
      </trkpt>
      <trkpt lat="49.65915" lon="0.19454">
        <ele>107.7</ele>
        <time>2020-06-17T18:44:40Z</time>
      </trkpt>
      <trkpt lat="49.65922" lon="0.19453">
        <ele>107.8</ele>
        <time>2020-06-17T18:44:41Z</time>
      </trkpt>
      <trkpt lat="49.65929" lon="0.19453">
        <ele>107.9</ele>
        <time>2020-06-17T18:44:42Z</time>
      </trkpt>
      <trkpt lat="49.65937" lon="0.19454">
        <ele>108</ele>
        <time>2020-06-17T18:44:43Z</time>
      </trkpt>
      <trkpt lat="49.65944" lon="0.19455">
        <ele>108.2</ele>
        <time>2020-06-17T18:44:44Z</time>
      </trkpt>
      <trkpt lat="49.6595" lon="0.19456">
        <ele>108.4</ele>
        <time>2020-06-17T18:44:45Z</time>
      </trkpt>
      <trkpt lat="49.65957" lon="0.19457">
        <ele>108.6</ele>
        <time>2020-06-17T18:44:46Z</time>
      </trkpt>
      <trkpt lat="49.65963" lon="0.19457">
        <ele>108.7</ele>
        <time>2020-06-17T18:44:47Z</time>
      </trkpt>
      <trkpt lat="49.6597" lon="0.19459">
        <ele>108.9</ele>
        <time>2020-06-17T18:44:48Z</time>
      </trkpt>
      <trkpt lat="49.65977" lon="0.19458">
        <ele>109.1</ele>
        <time>2020-06-17T18:44:49Z</time>
      </trkpt>
      <trkpt lat="49.65983" lon="0.19458">
        <ele>109.2</ele>
        <time>2020-06-17T18:44:50Z</time>
      </trkpt>
      <trkpt lat="49.6599" lon="0.19458">
        <ele>109.4</ele>
        <time>2020-06-17T18:44:51Z</time>
      </trkpt>
      <trkpt lat="49.65997" lon="0.19458">
        <ele>109.5</ele>
        <time>2020-06-17T18:44:52Z</time>
      </trkpt>
      <trkpt lat="49.66004" lon="0.19458">
        <ele>109.7</ele>
        <time>2020-06-17T18:44:53Z</time>
      </trkpt>
      <trkpt lat="49.6601" lon="0.19459">
        <ele>109.9</ele>
        <time>2020-06-17T18:44:54Z</time>
      </trkpt>
      <trkpt lat="49.66016" lon="0.19459">
        <ele>110.1</ele>
        <time>2020-06-17T18:44:55Z</time>
      </trkpt>
      <trkpt lat="49.66021" lon="0.1946">
        <ele>110.3</ele>
        <time>2020-06-17T18:44:56Z</time>
      </trkpt>
      <trkpt lat="49.66027" lon="0.1946">
        <ele>110.4</ele>
        <time>2020-06-17T18:44:57Z</time>
      </trkpt>
      <trkpt lat="49.66032" lon="0.19461">
        <ele>110.5</ele>
        <time>2020-06-17T18:44:58Z</time>
      </trkpt>
      <trkpt lat="49.66037" lon="0.19462">
        <ele>110.7</ele>
        <time>2020-06-17T18:44:59Z</time>
      </trkpt>
      <trkpt lat="49.66043" lon="0.19463">
        <ele>110.8</ele>
        <time>2020-06-17T18:45:00Z</time>
      </trkpt>
      <trkpt lat="49.66049" lon="0.19464">
        <ele>110.9</ele>
        <time>2020-06-17T18:45:01Z</time>
      </trkpt>
      <trkpt lat="49.66056" lon="0.19465">
        <ele>110.9</ele>
        <time>2020-06-17T18:45:02Z</time>
      </trkpt>
      <trkpt lat="49.66061" lon="0.19465">
        <ele>110.9</ele>
        <time>2020-06-17T18:45:03Z</time>
      </trkpt>
      <trkpt lat="49.66067" lon="0.19465">
        <ele>111</ele>
        <time>2020-06-17T18:45:04Z</time>
      </trkpt>
      <trkpt lat="49.66073" lon="0.19466">
        <ele>111</ele>
        <time>2020-06-17T18:45:05Z</time>
      </trkpt>
      <trkpt lat="49.66079" lon="0.19468">
        <ele>111.1</ele>
        <time>2020-06-17T18:45:06Z</time>
      </trkpt>
      <trkpt lat="49.66085" lon="0.19469">
        <ele>111.2</ele>
        <time>2020-06-17T18:45:07Z</time>
      </trkpt>
      <trkpt lat="49.66091" lon="0.19469">
        <ele>111.3</ele>
        <time>2020-06-17T18:45:08Z</time>
      </trkpt>
      <trkpt lat="49.66097" lon="0.1947">
        <ele>111.4</ele>
        <time>2020-06-17T18:45:09Z</time>
      </trkpt>
      <trkpt lat="49.66103" lon="0.1947">
        <ele>111.5</ele>
        <time>2020-06-17T18:45:10Z</time>
      </trkpt>
      <trkpt lat="49.66109" lon="0.1947">
        <ele>111.6</ele>
        <time>2020-06-17T18:45:11Z</time>
      </trkpt>
      <trkpt lat="49.66115" lon="0.1947">
        <ele>111.7</ele>
        <time>2020-06-17T18:45:12Z</time>
      </trkpt>
      <trkpt lat="49.6612" lon="0.19471">
        <ele>111.8</ele>
        <time>2020-06-17T18:45:13Z</time>
      </trkpt>
      <trkpt lat="49.66126" lon="0.19472">
        <ele>111.8</ele>
        <time>2020-06-17T18:45:14Z</time>
      </trkpt>
      <trkpt lat="49.66131" lon="0.19472">
        <ele>111.9</ele>
        <time>2020-06-17T18:45:15Z</time>
      </trkpt>
      <trkpt lat="49.66136" lon="0.19473">
        <ele>111.9</ele>
        <time>2020-06-17T18:45:16Z</time>
      </trkpt>
      <trkpt lat="49.66142" lon="0.19475">
        <ele>112</ele>
        <time>2020-06-17T18:45:17Z</time>
      </trkpt>
      <trkpt lat="49.66147" lon="0.19475">
        <ele>112</ele>
        <time>2020-06-17T18:45:18Z</time>
      </trkpt>
      <trkpt lat="49.66152" lon="0.19474">
        <ele>112.1</ele>
        <time>2020-06-17T18:45:19Z</time>
      </trkpt>
      <trkpt lat="49.66157" lon="0.19474">
        <ele>112.1</ele>
        <time>2020-06-17T18:45:20Z</time>
      </trkpt>
      <trkpt lat="49.66162" lon="0.19473">
        <ele>112.1</ele>
        <time>2020-06-17T18:45:21Z</time>
      </trkpt>
      <trkpt lat="49.66167" lon="0.19474">
        <ele>112.2</ele>
        <time>2020-06-17T18:45:22Z</time>
      </trkpt>
      <trkpt lat="49.66171" lon="0.19473">
        <ele>112.2</ele>
        <time>2020-06-17T18:45:23Z</time>
      </trkpt>
      <trkpt lat="49.66176" lon="0.19473">
        <ele>112.2</ele>
        <time>2020-06-17T18:45:24Z</time>
      </trkpt>
      <trkpt lat="49.66181" lon="0.19474">
        <ele>112.2</ele>
        <time>2020-06-17T18:45:25Z</time>
      </trkpt>
      <trkpt lat="49.66186" lon="0.19474">
        <ele>112.2</ele>
        <time>2020-06-17T18:45:26Z</time>
      </trkpt>
      <trkpt lat="49.66191" lon="0.19475">
        <ele>112.3</ele>
        <time>2020-06-17T18:45:27Z</time>
      </trkpt>
      <trkpt lat="49.66196" lon="0.19476">
        <ele>112.3</ele>
        <time>2020-06-17T18:45:28Z</time>
      </trkpt>
      <trkpt lat="49.66201" lon="0.19476">
        <ele>112.3</ele>
        <time>2020-06-17T18:45:29Z</time>
      </trkpt>
      <trkpt lat="49.66206" lon="0.19477">
        <ele>112.3</ele>
        <time>2020-06-17T18:45:30Z</time>
      </trkpt>
      <trkpt lat="49.66211" lon="0.19478">
        <ele>112.3</ele>
        <time>2020-06-17T18:45:31Z</time>
      </trkpt>
      <trkpt lat="49.66216" lon="0.19479">
        <ele>112.3</ele>
        <time>2020-06-17T18:45:32Z</time>
      </trkpt>
      <trkpt lat="49.66221" lon="0.19479">
        <ele>112.3</ele>
        <time>2020-06-17T18:45:33Z</time>
      </trkpt>
      <trkpt lat="49.66226" lon="0.19479">
        <ele>112.3</ele>
        <time>2020-06-17T18:45:34Z</time>
      </trkpt>
      <trkpt lat="49.66231" lon="0.1948">
        <ele>112.3</ele>
        <time>2020-06-17T18:45:35Z</time>
      </trkpt>
      <trkpt lat="49.66235" lon="0.1948">
        <ele>112.3</ele>
        <time>2020-06-17T18:45:36Z</time>
      </trkpt>
      <trkpt lat="49.66241" lon="0.19481">
        <ele>112.3</ele>
        <time>2020-06-17T18:45:37Z</time>
      </trkpt>
      <trkpt lat="49.66246" lon="0.19482">
        <ele>112.3</ele>
        <time>2020-06-17T18:45:38Z</time>
      </trkpt>
      <trkpt lat="49.66251" lon="0.19483">
        <ele>112.3</ele>
        <time>2020-06-17T18:45:39Z</time>
      </trkpt>
      <trkpt lat="49.66256" lon="0.19484">
        <ele>112.2</ele>
        <time>2020-06-17T18:45:40Z</time>
      </trkpt>
      <trkpt lat="49.66262" lon="0.19484">
        <ele>112.2</ele>
        <time>2020-06-17T18:45:41Z</time>
      </trkpt>
      <trkpt lat="49.66267" lon="0.19485">
        <ele>112.2</ele>
        <time>2020-06-17T18:45:42Z</time>
      </trkpt>
      <trkpt lat="49.66273" lon="0.19486">
        <ele>112.2</ele>
        <time>2020-06-17T18:45:43Z</time>
      </trkpt>
      <trkpt lat="49.66278" lon="0.19487">
        <ele>112.2</ele>
        <time>2020-06-17T18:45:44Z</time>
      </trkpt>
      <trkpt lat="49.66283" lon="0.19488">
        <ele>112.2</ele>
        <time>2020-06-17T18:45:45Z</time>
      </trkpt>
      <trkpt lat="49.66288" lon="0.19488">
        <ele>112.2</ele>
        <time>2020-06-17T18:45:46Z</time>
      </trkpt>
      <trkpt lat="49.66292" lon="0.19488">
        <ele>112.2</ele>
        <time>2020-06-17T18:45:47Z</time>
      </trkpt>
      <trkpt lat="49.66297" lon="0.19488">
        <ele>112.2</ele>
        <time>2020-06-17T18:45:48Z</time>
      </trkpt>
      <trkpt lat="49.66303" lon="0.19488">
        <ele>112.2</ele>
        <time>2020-06-17T18:45:49Z</time>
      </trkpt>
      <trkpt lat="49.66307" lon="0.19487">
        <ele>112.2</ele>
        <time>2020-06-17T18:45:50Z</time>
      </trkpt>
      <trkpt lat="49.66313" lon="0.19488">
        <ele>112.2</ele>
        <time>2020-06-17T18:45:51Z</time>
      </trkpt>
      <trkpt lat="49.6632" lon="0.19489">
        <ele>112.1</ele>
        <time>2020-06-17T18:45:52Z</time>
      </trkpt>
      <trkpt lat="49.66324" lon="0.19491">
        <ele>112.1</ele>
        <time>2020-06-17T18:45:53Z</time>
      </trkpt>
      <trkpt lat="49.6633" lon="0.19492">
        <ele>112.1</ele>
        <time>2020-06-17T18:45:54Z</time>
      </trkpt>
      <trkpt lat="49.66336" lon="0.19493">
        <ele>112</ele>
        <time>2020-06-17T18:45:55Z</time>
      </trkpt>
      <trkpt lat="49.66341" lon="0.19492">
        <ele>112</ele>
        <time>2020-06-17T18:45:56Z</time>
      </trkpt>
      <trkpt lat="49.66347" lon="0.19492">
        <ele>111.9</ele>
        <time>2020-06-17T18:45:57Z</time>
      </trkpt>
      <trkpt lat="49.66352" lon="0.19492">
        <ele>111.8</ele>
        <time>2020-06-17T18:45:58Z</time>
      </trkpt>
      <trkpt lat="49.66359" lon="0.19491">
        <ele>111.8</ele>
        <time>2020-06-17T18:45:59Z</time>
      </trkpt>
      <trkpt lat="49.66365" lon="0.19492">
        <ele>111.7</ele>
        <time>2020-06-17T18:46:00Z</time>
      </trkpt>
      <trkpt lat="49.66371" lon="0.19493">
        <ele>111.6</ele>
        <time>2020-06-17T18:46:01Z</time>
      </trkpt>
      <trkpt lat="49.66376" lon="0.19493">
        <ele>111.6</ele>
        <time>2020-06-17T18:46:02Z</time>
      </trkpt>
      <trkpt lat="49.66381" lon="0.19493">
        <ele>111.5</ele>
        <time>2020-06-17T18:46:03Z</time>
      </trkpt>
      <trkpt lat="49.66386" lon="0.19494">
        <ele>111.4</ele>
        <time>2020-06-17T18:46:04Z</time>
      </trkpt>
      <trkpt lat="49.66391" lon="0.19494">
        <ele>111.3</ele>
        <time>2020-06-17T18:46:05Z</time>
      </trkpt>
      <trkpt lat="49.66396" lon="0.19495">
        <ele>111.2</ele>
        <time>2020-06-17T18:46:06Z</time>
      </trkpt>
      <trkpt lat="49.66402" lon="0.19495">
        <ele>111.1</ele>
        <time>2020-06-17T18:46:07Z</time>
      </trkpt>
      <trkpt lat="49.66407" lon="0.19495">
        <ele>111</ele>
        <time>2020-06-17T18:46:08Z</time>
      </trkpt>
      <trkpt lat="49.66413" lon="0.19496">
        <ele>110.9</ele>
        <time>2020-06-17T18:46:09Z</time>
      </trkpt>
      <trkpt lat="49.66418" lon="0.19497">
        <ele>110.7</ele>
        <time>2020-06-17T18:46:10Z</time>
      </trkpt>
      <trkpt lat="49.66423" lon="0.19498">
        <ele>110.6</ele>
        <time>2020-06-17T18:46:11Z</time>
      </trkpt>
      <trkpt lat="49.66429" lon="0.19499">
        <ele>110.4</ele>
        <time>2020-06-17T18:46:12Z</time>
      </trkpt>
      <trkpt lat="49.66434" lon="0.19499">
        <ele>110.3</ele>
        <time>2020-06-17T18:46:13Z</time>
      </trkpt>
      <trkpt lat="49.6644" lon="0.195">
        <ele>110.1</ele>
        <time>2020-06-17T18:46:14Z</time>
      </trkpt>
      <trkpt lat="49.66447" lon="0.19501">
        <ele>110</ele>
        <time>2020-06-17T18:46:15Z</time>
      </trkpt>
      <trkpt lat="49.66453" lon="0.19502">
        <ele>109.8</ele>
        <time>2020-06-17T18:46:16Z</time>
      </trkpt>
      <trkpt lat="49.66459" lon="0.19501">
        <ele>109.7</ele>
        <time>2020-06-17T18:46:17Z</time>
      </trkpt>
      <trkpt lat="49.66466" lon="0.19501">
        <ele>109.3</ele>
        <time>2020-06-17T18:46:18Z</time>
      </trkpt>
      <trkpt lat="49.66473" lon="0.19501">
        <ele>109</ele>
        <time>2020-06-17T18:46:19Z</time>
      </trkpt>
      <trkpt lat="49.66479" lon="0.19501">
        <ele>108.8</ele>
        <time>2020-06-17T18:46:20Z</time>
      </trkpt>
      <trkpt lat="49.66486" lon="0.19501">
        <ele>108.5</ele>
        <time>2020-06-17T18:46:21Z</time>
      </trkpt>
      <trkpt lat="49.66493" lon="0.19503">
        <ele>108.2</ele>
        <time>2020-06-17T18:46:22Z</time>
      </trkpt>
      <trkpt lat="49.66499" lon="0.19504">
        <ele>108</ele>
        <time>2020-06-17T18:46:23Z</time>
      </trkpt>
      <trkpt lat="49.66507" lon="0.19505">
        <ele>107.6</ele>
        <time>2020-06-17T18:46:24Z</time>
      </trkpt>
      <trkpt lat="49.66514" lon="0.19507">
        <ele>107.3</ele>
        <time>2020-06-17T18:46:25Z</time>
      </trkpt>
      <trkpt lat="49.66521" lon="0.19509">
        <ele>107.1</ele>
        <time>2020-06-17T18:46:26Z</time>
      </trkpt>
      <trkpt lat="49.66529" lon="0.1951">
        <ele>106.8</ele>
        <time>2020-06-17T18:46:27Z</time>
      </trkpt>
      <trkpt lat="49.66536" lon="0.19511">
        <ele>106.5</ele>
        <time>2020-06-17T18:46:28Z</time>
      </trkpt>
      <trkpt lat="49.66544" lon="0.19511">
        <ele>106.3</ele>
        <time>2020-06-17T18:46:29Z</time>
      </trkpt>
      <trkpt lat="49.66552" lon="0.19512">
        <ele>106</ele>
        <time>2020-06-17T18:46:30Z</time>
      </trkpt>
      <trkpt lat="49.6656" lon="0.19513">
        <ele>105.7</ele>
        <time>2020-06-17T18:46:31Z</time>
      </trkpt>
      <trkpt lat="49.66568" lon="0.19513">
        <ele>105.4</ele>
        <time>2020-06-17T18:46:32Z</time>
      </trkpt>
      <trkpt lat="49.66576" lon="0.19514">
        <ele>105.1</ele>
        <time>2020-06-17T18:46:33Z</time>
      </trkpt>
      <trkpt lat="49.66584" lon="0.19515">
        <ele>104.8</ele>
        <time>2020-06-17T18:46:34Z</time>
      </trkpt>
      <trkpt lat="49.66591" lon="0.19515">
        <ele>104.6</ele>
        <time>2020-06-17T18:46:35Z</time>
      </trkpt>
      <trkpt lat="49.66599" lon="0.19516">
        <ele>104.3</ele>
        <time>2020-06-17T18:46:36Z</time>
      </trkpt>
      <trkpt lat="49.66606" lon="0.19517">
        <ele>104.1</ele>
        <time>2020-06-17T18:46:37Z</time>
      </trkpt>
      <trkpt lat="49.66614" lon="0.19518">
        <ele>103.9</ele>
        <time>2020-06-17T18:46:38Z</time>
      </trkpt>
      <trkpt lat="49.66621" lon="0.19519">
        <ele>103.7</ele>
        <time>2020-06-17T18:46:39Z</time>
      </trkpt>
      <trkpt lat="49.66629" lon="0.1952">
        <ele>103.5</ele>
        <time>2020-06-17T18:46:40Z</time>
      </trkpt>
      <trkpt lat="49.66636" lon="0.19521">
        <ele>103.3</ele>
        <time>2020-06-17T18:46:41Z</time>
      </trkpt>
      <trkpt lat="49.66644" lon="0.19523">
        <ele>103.2</ele>
        <time>2020-06-17T18:46:42Z</time>
      </trkpt>
      <trkpt lat="49.66651" lon="0.19524">
        <ele>103.1</ele>
        <time>2020-06-17T18:46:43Z</time>
      </trkpt>
      <trkpt lat="49.66658" lon="0.19526">
        <ele>103</ele>
        <time>2020-06-17T18:46:44Z</time>
      </trkpt>
      <trkpt lat="49.66665" lon="0.19528">
        <ele>102.9</ele>
        <time>2020-06-17T18:46:45Z</time>
      </trkpt>
      <trkpt lat="49.66672" lon="0.19528">
        <ele>102.8</ele>
        <time>2020-06-17T18:46:46Z</time>
      </trkpt>
      <trkpt lat="49.66679" lon="0.19529">
        <ele>102.7</ele>
        <time>2020-06-17T18:46:47Z</time>
      </trkpt>
      <trkpt lat="49.66686" lon="0.1953">
        <ele>102.7</ele>
        <time>2020-06-17T18:46:48Z</time>
      </trkpt>
      <trkpt lat="49.66693" lon="0.19531">
        <ele>102.6</ele>
        <time>2020-06-17T18:46:49Z</time>
      </trkpt>
      <trkpt lat="49.667" lon="0.19531">
        <ele>102.5</ele>
        <time>2020-06-17T18:46:50Z</time>
      </trkpt>
      <trkpt lat="49.66707" lon="0.1953">
        <ele>102.4</ele>
        <time>2020-06-17T18:46:51Z</time>
      </trkpt>
      <trkpt lat="49.66714" lon="0.1953">
        <ele>102.3</ele>
        <time>2020-06-17T18:46:52Z</time>
      </trkpt>
      <trkpt lat="49.66721" lon="0.1953">
        <ele>102.2</ele>
        <time>2020-06-17T18:46:53Z</time>
      </trkpt>
      <trkpt lat="49.66728" lon="0.19531">
        <ele>102.2</ele>
        <time>2020-06-17T18:46:54Z</time>
      </trkpt>
      <trkpt lat="49.66734" lon="0.19531">
        <ele>102.2</ele>
        <time>2020-06-17T18:46:55Z</time>
      </trkpt>
      <trkpt lat="49.66741" lon="0.19531">
        <ele>102.2</ele>
        <time>2020-06-17T18:46:56Z</time>
      </trkpt>
      <trkpt lat="49.66748" lon="0.19531">
        <ele>102.1</ele>
        <time>2020-06-17T18:46:57Z</time>
      </trkpt>
      <trkpt lat="49.66755" lon="0.19531">
        <ele>102.1</ele>
        <time>2020-06-17T18:46:58Z</time>
      </trkpt>
      <trkpt lat="49.66762" lon="0.19531">
        <ele>102.1</ele>
        <time>2020-06-17T18:46:59Z</time>
      </trkpt>
      <trkpt lat="49.66769" lon="0.19532">
        <ele>102</ele>
        <time>2020-06-17T18:47:00Z</time>
      </trkpt>
      <trkpt lat="49.66775" lon="0.19532">
        <ele>102</ele>
        <time>2020-06-17T18:47:01Z</time>
      </trkpt>
      <trkpt lat="49.66782" lon="0.19533">
        <ele>102.1</ele>
        <time>2020-06-17T18:47:02Z</time>
      </trkpt>
      <trkpt lat="49.66788" lon="0.19534">
        <ele>102.1</ele>
        <time>2020-06-17T18:47:03Z</time>
      </trkpt>
      <trkpt lat="49.66795" lon="0.19535">
        <ele>102.1</ele>
        <time>2020-06-17T18:47:04Z</time>
      </trkpt>
      <trkpt lat="49.66801" lon="0.19535">
        <ele>102.1</ele>
        <time>2020-06-17T18:47:05Z</time>
      </trkpt>
      <trkpt lat="49.66808" lon="0.19536">
        <ele>102.1</ele>
        <time>2020-06-17T18:47:06Z</time>
      </trkpt>
      <trkpt lat="49.66815" lon="0.19537">
        <ele>102.2</ele>
        <time>2020-06-17T18:47:07Z</time>
      </trkpt>
      <trkpt lat="49.66821" lon="0.19537">
        <ele>102.2</ele>
        <time>2020-06-17T18:47:08Z</time>
      </trkpt>
      <trkpt lat="49.66827" lon="0.19538">
        <ele>102.2</ele>
        <time>2020-06-17T18:47:09Z</time>
      </trkpt>
      <trkpt lat="49.66834" lon="0.19539">
        <ele>102.2</ele>
        <time>2020-06-17T18:47:10Z</time>
      </trkpt>
      <trkpt lat="49.6684" lon="0.1954">
        <ele>102.2</ele>
        <time>2020-06-17T18:47:11Z</time>
      </trkpt>
      <trkpt lat="49.66845" lon="0.1954">
        <ele>102.3</ele>
        <time>2020-06-17T18:47:12Z</time>
      </trkpt>
      <trkpt lat="49.66851" lon="0.19539">
        <ele>102.3</ele>
        <time>2020-06-17T18:47:13Z</time>
      </trkpt>
      <trkpt lat="49.66857" lon="0.19539">
        <ele>102.3</ele>
        <time>2020-06-17T18:47:14Z</time>
      </trkpt>
      <trkpt lat="49.66863" lon="0.1954">
        <ele>102.3</ele>
        <time>2020-06-17T18:47:15Z</time>
      </trkpt>
      <trkpt lat="49.6687" lon="0.19541">
        <ele>102.3</ele>
        <time>2020-06-17T18:47:16Z</time>
      </trkpt>
      <trkpt lat="49.66876" lon="0.19543">
        <ele>102.4</ele>
        <time>2020-06-17T18:47:17Z</time>
      </trkpt>
      <trkpt lat="49.66882" lon="0.19544">
        <ele>102.4</ele>
        <time>2020-06-17T18:47:18Z</time>
      </trkpt>
      <trkpt lat="49.66889" lon="0.19545">
        <ele>102.4</ele>
        <time>2020-06-17T18:47:19Z</time>
      </trkpt>
      <trkpt lat="49.66895" lon="0.19546">
        <ele>102.5</ele>
        <time>2020-06-17T18:47:20Z</time>
      </trkpt>
      <trkpt lat="49.66901" lon="0.19546">
        <ele>102.5</ele>
        <time>2020-06-17T18:47:21Z</time>
      </trkpt>
      <trkpt lat="49.66907" lon="0.19546">
        <ele>102.6</ele>
        <time>2020-06-17T18:47:22Z</time>
      </trkpt>
      <trkpt lat="49.66912" lon="0.19546">
        <ele>102.6</ele>
        <time>2020-06-17T18:47:23Z</time>
      </trkpt>
      <trkpt lat="49.66917" lon="0.19546">
        <ele>102.7</ele>
        <time>2020-06-17T18:47:24Z</time>
      </trkpt>
      <trkpt lat="49.66923" lon="0.19546">
        <ele>102.8</ele>
        <time>2020-06-17T18:47:25Z</time>
      </trkpt>
      <trkpt lat="49.66928" lon="0.19547">
        <ele>102.9</ele>
        <time>2020-06-17T18:47:26Z</time>
      </trkpt>
      <trkpt lat="49.66934" lon="0.19548">
        <ele>103</ele>
        <time>2020-06-17T18:47:27Z</time>
      </trkpt>
      <trkpt lat="49.66939" lon="0.19548">
        <ele>103</ele>
        <time>2020-06-17T18:47:28Z</time>
      </trkpt>
      <trkpt lat="49.66947" lon="0.1955">
        <ele>103</ele>
        <time>2020-06-17T18:47:29Z</time>
      </trkpt>
      <trkpt lat="49.66952" lon="0.19551">
        <ele>103</ele>
        <time>2020-06-17T18:47:30Z</time>
      </trkpt>
      <trkpt lat="49.66958" lon="0.19551">
        <ele>103</ele>
        <time>2020-06-17T18:47:31Z</time>
      </trkpt>
      <trkpt lat="49.66965" lon="0.19551">
        <ele>103</ele>
        <time>2020-06-17T18:47:32Z</time>
      </trkpt>
      <trkpt lat="49.66971" lon="0.19552">
        <ele>102.9</ele>
        <time>2020-06-17T18:47:33Z</time>
      </trkpt>
      <trkpt lat="49.66978" lon="0.19553">
        <ele>102.9</ele>
        <time>2020-06-17T18:47:34Z</time>
      </trkpt>
      <trkpt lat="49.66985" lon="0.19553">
        <ele>102.8</ele>
        <time>2020-06-17T18:47:35Z</time>
      </trkpt>
      <trkpt lat="49.66992" lon="0.19554">
        <ele>102.8</ele>
        <time>2020-06-17T18:47:36Z</time>
      </trkpt>
      <trkpt lat="49.66999" lon="0.19554">
        <ele>102.7</ele>
        <time>2020-06-17T18:47:37Z</time>
      </trkpt>
      <trkpt lat="49.67006" lon="0.19554">
        <ele>102.7</ele>
        <time>2020-06-17T18:47:38Z</time>
      </trkpt>
      <trkpt lat="49.67013" lon="0.19555">
        <ele>102.7</ele>
        <time>2020-06-17T18:47:39Z</time>
      </trkpt>
      <trkpt lat="49.67018" lon="0.19556">
        <ele>102.7</ele>
        <time>2020-06-17T18:47:40Z</time>
      </trkpt>
      <trkpt lat="49.67026" lon="0.19557">
        <ele>102.7</ele>
        <time>2020-06-17T18:47:41Z</time>
      </trkpt>
      <trkpt lat="49.67033" lon="0.19558">
        <ele>102.7</ele>
        <time>2020-06-17T18:47:42Z</time>
      </trkpt>
      <trkpt lat="49.67039" lon="0.19558">
        <ele>102.8</ele>
        <time>2020-06-17T18:47:43Z</time>
      </trkpt>
      <trkpt lat="49.67046" lon="0.19559">
        <ele>102.7</ele>
        <time>2020-06-17T18:47:44Z</time>
      </trkpt>
      <trkpt lat="49.67052" lon="0.19559">
        <ele>102.6</ele>
        <time>2020-06-17T18:47:45Z</time>
      </trkpt>
      <trkpt lat="49.67058" lon="0.1956">
        <ele>102.6</ele>
        <time>2020-06-17T18:47:46Z</time>
      </trkpt>
      <trkpt lat="49.67064" lon="0.19561">
        <ele>102.6</ele>
        <time>2020-06-17T18:47:47Z</time>
      </trkpt>
      <trkpt lat="49.67071" lon="0.19561">
        <ele>102.6</ele>
        <time>2020-06-17T18:47:48Z</time>
      </trkpt>
      <trkpt lat="49.67077" lon="0.19561">
        <ele>102.7</ele>
        <time>2020-06-17T18:47:49Z</time>
      </trkpt>
      <trkpt lat="49.67083" lon="0.19562">
        <ele>102.8</ele>
        <time>2020-06-17T18:47:50Z</time>
      </trkpt>
      <trkpt lat="49.67089" lon="0.19562">
        <ele>102.9</ele>
        <time>2020-06-17T18:47:51Z</time>
      </trkpt>
      <trkpt lat="49.67094" lon="0.19563">
        <ele>103</ele>
        <time>2020-06-17T18:47:52Z</time>
      </trkpt>
      <trkpt lat="49.671" lon="0.19564">
        <ele>103.2</ele>
        <time>2020-06-17T18:47:53Z</time>
      </trkpt>
      <trkpt lat="49.67105" lon="0.19563">
        <ele>103.3</ele>
        <time>2020-06-17T18:47:54Z</time>
      </trkpt>
      <trkpt lat="49.67111" lon="0.19564">
        <ele>103.5</ele>
        <time>2020-06-17T18:47:55Z</time>
      </trkpt>
      <trkpt lat="49.67115" lon="0.19564">
        <ele>103.6</ele>
        <time>2020-06-17T18:47:56Z</time>
      </trkpt>
      <trkpt lat="49.67121" lon="0.19565">
        <ele>103.8</ele>
        <time>2020-06-17T18:47:57Z</time>
      </trkpt>
      <trkpt lat="49.67127" lon="0.19566">
        <ele>103.9</ele>
        <time>2020-06-17T18:47:58Z</time>
      </trkpt>
      <trkpt lat="49.67131" lon="0.19566">
        <ele>104.1</ele>
        <time>2020-06-17T18:47:59Z</time>
      </trkpt>
      <trkpt lat="49.67136" lon="0.19567">
        <ele>104.2</ele>
        <time>2020-06-17T18:48:00Z</time>
      </trkpt>
      <trkpt lat="49.67142" lon="0.19568">
        <ele>104.4</ele>
        <time>2020-06-17T18:48:01Z</time>
      </trkpt>
      <trkpt lat="49.67146" lon="0.19569">
        <ele>104.6</ele>
        <time>2020-06-17T18:48:02Z</time>
      </trkpt>
      <trkpt lat="49.67152" lon="0.19569">
        <ele>104.7</ele>
        <time>2020-06-17T18:48:03Z</time>
      </trkpt>
      <trkpt lat="49.67157" lon="0.19569">
        <ele>104.9</ele>
        <time>2020-06-17T18:48:04Z</time>
      </trkpt>
      <trkpt lat="49.67163" lon="0.19571">
        <ele>105.1</ele>
        <time>2020-06-17T18:48:05Z</time>
      </trkpt>
      <trkpt lat="49.67168" lon="0.19571">
        <ele>105.2</ele>
        <time>2020-06-17T18:48:06Z</time>
      </trkpt>
      <trkpt lat="49.67174" lon="0.19572">
        <ele>105.4</ele>
        <time>2020-06-17T18:48:07Z</time>
      </trkpt>
      <trkpt lat="49.67178" lon="0.19572">
        <ele>105.5</ele>
        <time>2020-06-17T18:48:08Z</time>
      </trkpt>
      <trkpt lat="49.67182" lon="0.19571">
        <ele>105.6</ele>
        <time>2020-06-17T18:48:09Z</time>
      </trkpt>
      <trkpt lat="49.67187" lon="0.19571">
        <ele>105.8</ele>
        <time>2020-06-17T18:48:10Z</time>
      </trkpt>
      <trkpt lat="49.67192" lon="0.19572">
        <ele>105.9</ele>
        <time>2020-06-17T18:48:11Z</time>
      </trkpt>
      <trkpt lat="49.67197" lon="0.19573">
        <ele>106.1</ele>
        <time>2020-06-17T18:48:12Z</time>
      </trkpt>
      <trkpt lat="49.67202" lon="0.19574">
        <ele>106.2</ele>
        <time>2020-06-17T18:48:13Z</time>
      </trkpt>
      <trkpt lat="49.67207" lon="0.19575">
        <ele>106.3</ele>
        <time>2020-06-17T18:48:14Z</time>
      </trkpt>
      <trkpt lat="49.67211" lon="0.19576">
        <ele>106.5</ele>
        <time>2020-06-17T18:48:15Z</time>
      </trkpt>
      <trkpt lat="49.67215" lon="0.19578">
        <ele>106.6</ele>
        <time>2020-06-17T18:48:16Z</time>
      </trkpt>
      <trkpt lat="49.6722" lon="0.19579">
        <ele>106.7</ele>
        <time>2020-06-17T18:48:17Z</time>
      </trkpt>
      <trkpt lat="49.67225" lon="0.1958">
        <ele>106.9</ele>
        <time>2020-06-17T18:48:18Z</time>
      </trkpt>
      <trkpt lat="49.67229" lon="0.19582">
        <ele>107</ele>
        <time>2020-06-17T18:48:19Z</time>
      </trkpt>
      <trkpt lat="49.67234" lon="0.19584">
        <ele>107.2</ele>
        <time>2020-06-17T18:48:20Z</time>
      </trkpt>
      <trkpt lat="49.67238" lon="0.19585">
        <ele>107.3</ele>
        <time>2020-06-17T18:48:21Z</time>
      </trkpt>
      <trkpt lat="49.67242" lon="0.19587">
        <ele>107.4</ele>
        <time>2020-06-17T18:48:22Z</time>
      </trkpt>
      <trkpt lat="49.67247" lon="0.19589">
        <ele>107.6</ele>
        <time>2020-06-17T18:48:23Z</time>
      </trkpt>
      <trkpt lat="49.67252" lon="0.19591">
        <ele>107.7</ele>
        <time>2020-06-17T18:48:24Z</time>
      </trkpt>
      <trkpt lat="49.67258" lon="0.19592">
        <ele>107.8</ele>
        <time>2020-06-17T18:48:25Z</time>
      </trkpt>
      <trkpt lat="49.67262" lon="0.19594">
        <ele>108</ele>
        <time>2020-06-17T18:48:26Z</time>
      </trkpt>
      <trkpt lat="49.67267" lon="0.19596">
        <ele>108.1</ele>
        <time>2020-06-17T18:48:27Z</time>
      </trkpt>
      <trkpt lat="49.67272" lon="0.19598">
        <ele>108.2</ele>
        <time>2020-06-17T18:48:28Z</time>
      </trkpt>
      <trkpt lat="49.67276" lon="0.196">
        <ele>108.3</ele>
        <time>2020-06-17T18:48:29Z</time>
      </trkpt>
      <trkpt lat="49.6728" lon="0.19602">
        <ele>108.4</ele>
        <time>2020-06-17T18:48:30Z</time>
      </trkpt>
      <trkpt lat="49.67285" lon="0.19604">
        <ele>108.5</ele>
        <time>2020-06-17T18:48:31Z</time>
      </trkpt>
      <trkpt lat="49.6729" lon="0.19606">
        <ele>108.6</ele>
        <time>2020-06-17T18:48:32Z</time>
      </trkpt>
      <trkpt lat="49.67294" lon="0.19609">
        <ele>108.7</ele>
        <time>2020-06-17T18:48:33Z</time>
      </trkpt>
      <trkpt lat="49.67298" lon="0.19612">
        <ele>108.8</ele>
        <time>2020-06-17T18:48:34Z</time>
      </trkpt>
      <trkpt lat="49.67302" lon="0.19615">
        <ele>108.9</ele>
        <time>2020-06-17T18:48:35Z</time>
      </trkpt>
      <trkpt lat="49.67307" lon="0.19618">
        <ele>109</ele>
        <time>2020-06-17T18:48:36Z</time>
      </trkpt>
      <trkpt lat="49.67312" lon="0.19622">
        <ele>109.1</ele>
        <time>2020-06-17T18:48:37Z</time>
      </trkpt>
      <trkpt lat="49.67316" lon="0.19624">
        <ele>109.2</ele>
        <time>2020-06-17T18:48:38Z</time>
      </trkpt>
      <trkpt lat="49.67321" lon="0.19626">
        <ele>109.4</ele>
        <time>2020-06-17T18:48:39Z</time>
      </trkpt>
      <trkpt lat="49.67324" lon="0.19628">
        <ele>109.5</ele>
        <time>2020-06-17T18:48:40Z</time>
      </trkpt>
      <trkpt lat="49.67328" lon="0.1963">
        <ele>109.6</ele>
        <time>2020-06-17T18:48:41Z</time>
      </trkpt>
      <trkpt lat="49.67332" lon="0.19633">
        <ele>109.8</ele>
        <time>2020-06-17T18:48:42Z</time>
      </trkpt>
      <trkpt lat="49.67337" lon="0.19636">
        <ele>109.9</ele>
        <time>2020-06-17T18:48:43Z</time>
      </trkpt>
      <trkpt lat="49.67341" lon="0.19638">
        <ele>110.1</ele>
        <time>2020-06-17T18:48:44Z</time>
      </trkpt>
      <trkpt lat="49.67346" lon="0.19641">
        <ele>110.2</ele>
        <time>2020-06-17T18:48:45Z</time>
      </trkpt>
      <trkpt lat="49.6735" lon="0.19643">
        <ele>110.3</ele>
        <time>2020-06-17T18:48:46Z</time>
      </trkpt>
      <trkpt lat="49.67354" lon="0.19645">
        <ele>110.5</ele>
        <time>2020-06-17T18:48:47Z</time>
      </trkpt>
      <trkpt lat="49.67359" lon="0.19647">
        <ele>110.6</ele>
        <time>2020-06-17T18:48:48Z</time>
      </trkpt>
      <trkpt lat="49.67364" lon="0.1965">
        <ele>110.7</ele>
        <time>2020-06-17T18:48:49Z</time>
      </trkpt>
      <trkpt lat="49.67369" lon="0.19652">
        <ele>110.8</ele>
        <time>2020-06-17T18:48:50Z</time>
      </trkpt>
      <trkpt lat="49.67373" lon="0.19655">
        <ele>110.9</ele>
        <time>2020-06-17T18:48:51Z</time>
      </trkpt>
      <trkpt lat="49.67378" lon="0.19659">
        <ele>111.1</ele>
        <time>2020-06-17T18:48:52Z</time>
      </trkpt>
      <trkpt lat="49.67382" lon="0.1966">
        <ele>111.2</ele>
        <time>2020-06-17T18:48:53Z</time>
      </trkpt>
      <trkpt lat="49.67387" lon="0.19663">
        <ele>111.3</ele>
        <time>2020-06-17T18:48:54Z</time>
      </trkpt>
      <trkpt lat="49.6739" lon="0.19664">
        <ele>111.4</ele>
        <time>2020-06-17T18:48:55Z</time>
      </trkpt>
      <trkpt lat="49.67395" lon="0.19667">
        <ele>111.5</ele>
        <time>2020-06-17T18:48:56Z</time>
      </trkpt>
      <trkpt lat="49.67399" lon="0.19669">
        <ele>111.6</ele>
        <time>2020-06-17T18:48:57Z</time>
      </trkpt>
      <trkpt lat="49.67403" lon="0.19671">
        <ele>111.7</ele>
        <time>2020-06-17T18:48:58Z</time>
      </trkpt>
      <trkpt lat="49.67407" lon="0.19673">
        <ele>111.8</ele>
        <time>2020-06-17T18:48:59Z</time>
      </trkpt>
      <trkpt lat="49.67411" lon="0.19675">
        <ele>111.9</ele>
        <time>2020-06-17T18:49:00Z</time>
      </trkpt>
      <trkpt lat="49.67415" lon="0.19677">
        <ele>112</ele>
        <time>2020-06-17T18:49:01Z</time>
      </trkpt>
      <trkpt lat="49.6742" lon="0.19679">
        <ele>112</ele>
        <time>2020-06-17T18:49:02Z</time>
      </trkpt>
      <trkpt lat="49.67424" lon="0.19682">
        <ele>112.1</ele>
        <time>2020-06-17T18:49:03Z</time>
      </trkpt>
      <trkpt lat="49.67428" lon="0.19683">
        <ele>112.1</ele>
        <time>2020-06-17T18:49:04Z</time>
      </trkpt>
      <trkpt lat="49.67432" lon="0.19684">
        <ele>112.1</ele>
        <time>2020-06-17T18:49:05Z</time>
      </trkpt>
      <trkpt lat="49.67436" lon="0.19685">
        <ele>112.2</ele>
        <time>2020-06-17T18:49:06Z</time>
      </trkpt>
      <trkpt lat="49.6744" lon="0.19687">
        <ele>112.2</ele>
        <time>2020-06-17T18:49:07Z</time>
      </trkpt>
      <trkpt lat="49.67445" lon="0.19689">
        <ele>112.2</ele>
        <time>2020-06-17T18:49:08Z</time>
      </trkpt>
      <trkpt lat="49.67449" lon="0.19692">
        <ele>112.3</ele>
        <time>2020-06-17T18:49:09Z</time>
      </trkpt>
      <trkpt lat="49.67454" lon="0.19695">
        <ele>112.2</ele>
        <time>2020-06-17T18:49:10Z</time>
      </trkpt>
      <trkpt lat="49.67458" lon="0.19697">
        <ele>112.2</ele>
        <time>2020-06-17T18:49:11Z</time>
      </trkpt>
      <trkpt lat="49.67462" lon="0.19699">
        <ele>112.2</ele>
        <time>2020-06-17T18:49:12Z</time>
      </trkpt>
      <trkpt lat="49.67467" lon="0.19701">
        <ele>112.2</ele>
        <time>2020-06-17T18:49:13Z</time>
      </trkpt>
      <trkpt lat="49.67471" lon="0.19703">
        <ele>112.1</ele>
        <time>2020-06-17T18:49:14Z</time>
      </trkpt>
      <trkpt lat="49.67475" lon="0.19706">
        <ele>112.1</ele>
        <time>2020-06-17T18:49:15Z</time>
      </trkpt>
      <trkpt lat="49.6748" lon="0.19708">
        <ele>112.1</ele>
        <time>2020-06-17T18:49:16Z</time>
      </trkpt>
      <trkpt lat="49.67484" lon="0.19711">
        <ele>112.1</ele>
        <time>2020-06-17T18:49:17Z</time>
      </trkpt>
      <trkpt lat="49.67489" lon="0.19714">
        <ele>112.1</ele>
        <time>2020-06-17T18:49:18Z</time>
      </trkpt>
      <trkpt lat="49.67493" lon="0.19716">
        <ele>112.1</ele>
        <time>2020-06-17T18:49:19Z</time>
      </trkpt>
      <trkpt lat="49.67498" lon="0.19719">
        <ele>112.1</ele>
        <time>2020-06-17T18:49:20Z</time>
      </trkpt>
      <trkpt lat="49.67503" lon="0.19722">
        <ele>112.1</ele>
        <time>2020-06-17T18:49:21Z</time>
      </trkpt>
      <trkpt lat="49.67508" lon="0.19724">
        <ele>112</ele>
        <time>2020-06-17T18:49:22Z</time>
      </trkpt>
      <trkpt lat="49.67513" lon="0.19727">
        <ele>111.9</ele>
        <time>2020-06-17T18:49:23Z</time>
      </trkpt>
      <trkpt lat="49.67518" lon="0.19729">
        <ele>111.8</ele>
        <time>2020-06-17T18:49:24Z</time>
      </trkpt>
      <trkpt lat="49.67523" lon="0.19733">
        <ele>111.7</ele>
        <time>2020-06-17T18:49:25Z</time>
      </trkpt>
      <trkpt lat="49.67528" lon="0.19736">
        <ele>111.6</ele>
        <time>2020-06-17T18:49:26Z</time>
      </trkpt>
      <trkpt lat="49.67533" lon="0.1974">
        <ele>111.5</ele>
        <time>2020-06-17T18:49:27Z</time>
      </trkpt>
      <trkpt lat="49.67539" lon="0.19744">
        <ele>111.3</ele>
        <time>2020-06-17T18:49:28Z</time>
      </trkpt>
      <trkpt lat="49.67544" lon="0.19746">
        <ele>111.2</ele>
        <time>2020-06-17T18:49:29Z</time>
      </trkpt>
      <trkpt lat="49.6755" lon="0.19749">
        <ele>111</ele>
        <time>2020-06-17T18:49:30Z</time>
      </trkpt>
      <trkpt lat="49.67556" lon="0.19752">
        <ele>110.8</ele>
        <time>2020-06-17T18:49:31Z</time>
      </trkpt>
      <trkpt lat="49.67561" lon="0.19756">
        <ele>110.6</ele>
        <time>2020-06-17T18:49:32Z</time>
      </trkpt>
      <trkpt lat="49.67567" lon="0.19759">
        <ele>110.5</ele>
        <time>2020-06-17T18:49:33Z</time>
      </trkpt>
      <trkpt lat="49.67573" lon="0.19763">
        <ele>110.3</ele>
        <time>2020-06-17T18:49:34Z</time>
      </trkpt>
      <trkpt lat="49.67578" lon="0.19766">
        <ele>110.1</ele>
        <time>2020-06-17T18:49:35Z</time>
      </trkpt>
      <trkpt lat="49.67582" lon="0.19767">
        <ele>110</ele>
        <time>2020-06-17T18:49:36Z</time>
      </trkpt>
      <trkpt lat="49.67588" lon="0.19771">
        <ele>109.8</ele>
        <time>2020-06-17T18:49:37Z</time>
      </trkpt>
      <trkpt lat="49.67594" lon="0.19774">
        <ele>109.6</ele>
        <time>2020-06-17T18:49:38Z</time>
      </trkpt>
      <trkpt lat="49.67601" lon="0.19777">
        <ele>109.3</ele>
        <time>2020-06-17T18:49:39Z</time>
      </trkpt>
      <trkpt lat="49.67606" lon="0.1978">
        <ele>109.1</ele>
        <time>2020-06-17T18:49:40Z</time>
      </trkpt>
      <trkpt lat="49.67613" lon="0.19784">
        <ele>108.8</ele>
        <time>2020-06-17T18:49:41Z</time>
      </trkpt>
      <trkpt lat="49.6762" lon="0.19788">
        <ele>108.5</ele>
        <time>2020-06-17T18:49:42Z</time>
      </trkpt>
      <trkpt lat="49.67626" lon="0.19792">
        <ele>108.3</ele>
        <time>2020-06-17T18:49:43Z</time>
      </trkpt>
      <trkpt lat="49.67631" lon="0.19793">
        <ele>108.1</ele>
        <time>2020-06-17T18:49:44Z</time>
      </trkpt>
      <trkpt lat="49.67637" lon="0.19796">
        <ele>108</ele>
        <time>2020-06-17T18:49:45Z</time>
      </trkpt>
      <trkpt lat="49.67643" lon="0.198">
        <ele>107.8</ele>
        <time>2020-06-17T18:49:46Z</time>
      </trkpt>
      <trkpt lat="49.67648" lon="0.19801">
        <ele>107.7</ele>
        <time>2020-06-17T18:49:47Z</time>
      </trkpt>
      <trkpt lat="49.67655" lon="0.19804">
        <ele>107.6</ele>
        <time>2020-06-17T18:49:48Z</time>
      </trkpt>
      <trkpt lat="49.6766" lon="0.19806">
        <ele>107.5</ele>
        <time>2020-06-17T18:49:49Z</time>
      </trkpt>
      <trkpt lat="49.67667" lon="0.1981">
        <ele>107.3</ele>
        <time>2020-06-17T18:49:50Z</time>
      </trkpt>
      <trkpt lat="49.67673" lon="0.19813">
        <ele>107.1</ele>
        <time>2020-06-17T18:49:51Z</time>
      </trkpt>
      <trkpt lat="49.67679" lon="0.19817">
        <ele>106.9</ele>
        <time>2020-06-17T18:49:52Z</time>
      </trkpt>
      <trkpt lat="49.67686" lon="0.19819">
        <ele>106.8</ele>
        <time>2020-06-17T18:49:53Z</time>
      </trkpt>
      <trkpt lat="49.67692" lon="0.19822">
        <ele>106.6</ele>
        <time>2020-06-17T18:49:54Z</time>
      </trkpt>
      <trkpt lat="49.67699" lon="0.19825">
        <ele>106.4</ele>
        <time>2020-06-17T18:49:55Z</time>
      </trkpt>
      <trkpt lat="49.67706" lon="0.19829">
        <ele>106.2</ele>
        <time>2020-06-17T18:49:56Z</time>
      </trkpt>
      <trkpt lat="49.67711" lon="0.19832">
        <ele>106.1</ele>
        <time>2020-06-17T18:49:57Z</time>
      </trkpt>
      <trkpt lat="49.67717" lon="0.19834">
        <ele>105.9</ele>
        <time>2020-06-17T18:49:58Z</time>
      </trkpt>
      <trkpt lat="49.67723" lon="0.19837">
        <ele>105.8</ele>
        <time>2020-06-17T18:49:59Z</time>
      </trkpt>
      <trkpt lat="49.6773" lon="0.19841">
        <ele>105.8</ele>
        <time>2020-06-17T18:50:00Z</time>
      </trkpt>
      <trkpt lat="49.67736" lon="0.19844">
        <ele>105.7</ele>
        <time>2020-06-17T18:50:01Z</time>
      </trkpt>
      <trkpt lat="49.67743" lon="0.1985">
        <ele>105.6</ele>
        <time>2020-06-17T18:50:02Z</time>
      </trkpt>
      <trkpt lat="49.6775" lon="0.19853">
        <ele>105.6</ele>
        <time>2020-06-17T18:50:03Z</time>
      </trkpt>
      <trkpt lat="49.67756" lon="0.19856">
        <ele>105.6</ele>
        <time>2020-06-17T18:50:04Z</time>
      </trkpt>
      <trkpt lat="49.67761" lon="0.19859">
        <ele>105.7</ele>
        <time>2020-06-17T18:50:05Z</time>
      </trkpt>
      <trkpt lat="49.67767" lon="0.19862">
        <ele>105.8</ele>
        <time>2020-06-17T18:50:06Z</time>
      </trkpt>
      <trkpt lat="49.67773" lon="0.19865">
        <ele>105.9</ele>
        <time>2020-06-17T18:50:07Z</time>
      </trkpt>
      <trkpt lat="49.67779" lon="0.19869">
        <ele>106</ele>
        <time>2020-06-17T18:50:08Z</time>
      </trkpt>
      <trkpt lat="49.67785" lon="0.19873">
        <ele>106</ele>
        <time>2020-06-17T18:50:09Z</time>
      </trkpt>
      <trkpt lat="49.67791" lon="0.19876">
        <ele>106.1</ele>
        <time>2020-06-17T18:50:10Z</time>
      </trkpt>
      <trkpt lat="49.67797" lon="0.19879">
        <ele>106.1</ele>
        <time>2020-06-17T18:50:11Z</time>
      </trkpt>
      <trkpt lat="49.67803" lon="0.19882">
        <ele>106.1</ele>
        <time>2020-06-17T18:50:12Z</time>
      </trkpt>
      <trkpt lat="49.67809" lon="0.19886">
        <ele>106.2</ele>
        <time>2020-06-17T18:50:13Z</time>
      </trkpt>
      <trkpt lat="49.67814" lon="0.19889">
        <ele>106.2</ele>
        <time>2020-06-17T18:50:14Z</time>
      </trkpt>
      <trkpt lat="49.67819" lon="0.19892">
        <ele>106.3</ele>
        <time>2020-06-17T18:50:15Z</time>
      </trkpt>
      <trkpt lat="49.67825" lon="0.19895">
        <ele>106.4</ele>
        <time>2020-06-17T18:50:16Z</time>
      </trkpt>
      <trkpt lat="49.6783" lon="0.19897">
        <ele>106.5</ele>
        <time>2020-06-17T18:50:17Z</time>
      </trkpt>
      <trkpt lat="49.67836" lon="0.199">
        <ele>106.5</ele>
        <time>2020-06-17T18:50:18Z</time>
      </trkpt>
      <trkpt lat="49.67841" lon="0.19902">
        <ele>106.6</ele>
        <time>2020-06-17T18:50:19Z</time>
      </trkpt>
      <trkpt lat="49.67846" lon="0.19905">
        <ele>106.6</ele>
        <time>2020-06-17T18:50:20Z</time>
      </trkpt>
      <trkpt lat="49.67852" lon="0.19908">
        <ele>106.7</ele>
        <time>2020-06-17T18:50:21Z</time>
      </trkpt>
      <trkpt lat="49.67857" lon="0.19911">
        <ele>106.8</ele>
        <time>2020-06-17T18:50:22Z</time>
      </trkpt>
      <trkpt lat="49.6786" lon="0.19913">
        <ele>106.8</ele>
        <time>2020-06-17T18:50:23Z</time>
      </trkpt>
      <trkpt lat="49.67865" lon="0.19916">
        <ele>106.8</ele>
        <time>2020-06-17T18:50:24Z</time>
      </trkpt>
      <trkpt lat="49.6787" lon="0.1992">
        <ele>106.9</ele>
        <time>2020-06-17T18:50:25Z</time>
      </trkpt>
      <trkpt lat="49.67874" lon="0.19923">
        <ele>107</ele>
        <time>2020-06-17T18:50:26Z</time>
      </trkpt>
      <trkpt lat="49.6788" lon="0.19926">
        <ele>107.1</ele>
        <time>2020-06-17T18:50:27Z</time>
      </trkpt>
      <trkpt lat="49.67886" lon="0.19929">
        <ele>107.1</ele>
        <time>2020-06-17T18:50:28Z</time>
      </trkpt>
      <trkpt lat="49.67891" lon="0.19932">
        <ele>107.2</ele>
        <time>2020-06-17T18:50:29Z</time>
      </trkpt>
      <trkpt lat="49.67897" lon="0.19935">
        <ele>107.3</ele>
        <time>2020-06-17T18:50:30Z</time>
      </trkpt>
      <trkpt lat="49.67902" lon="0.19937">
        <ele>107.3</ele>
        <time>2020-06-17T18:50:31Z</time>
      </trkpt>
      <trkpt lat="49.67907" lon="0.19941">
        <ele>107.4</ele>
        <time>2020-06-17T18:50:32Z</time>
      </trkpt>
      <trkpt lat="49.67912" lon="0.19943">
        <ele>107.4</ele>
        <time>2020-06-17T18:50:33Z</time>
      </trkpt>
      <trkpt lat="49.67917" lon="0.19946">
        <ele>107.5</ele>
        <time>2020-06-17T18:50:34Z</time>
      </trkpt>
      <trkpt lat="49.67923" lon="0.1995">
        <ele>107.6</ele>
        <time>2020-06-17T18:50:35Z</time>
      </trkpt>
      <trkpt lat="49.67926" lon="0.19952">
        <ele>107.6</ele>
        <time>2020-06-17T18:50:36Z</time>
      </trkpt>
      <trkpt lat="49.6793" lon="0.19954">
        <ele>107.7</ele>
        <time>2020-06-17T18:50:37Z</time>
      </trkpt>
      <trkpt lat="49.67935" lon="0.19957">
        <ele>107.7</ele>
        <time>2020-06-17T18:50:38Z</time>
      </trkpt>
      <trkpt lat="49.67941" lon="0.19959">
        <ele>107.8</ele>
        <time>2020-06-17T18:50:39Z</time>
      </trkpt>
      <trkpt lat="49.67947" lon="0.19961">
        <ele>107.8</ele>
        <time>2020-06-17T18:50:40Z</time>
      </trkpt>
      <trkpt lat="49.67953" lon="0.19965">
        <ele>107.9</ele>
        <time>2020-06-17T18:50:41Z</time>
      </trkpt>
      <trkpt lat="49.6796" lon="0.19968">
        <ele>107.9</ele>
        <time>2020-06-17T18:50:42Z</time>
      </trkpt>
      <trkpt lat="49.67966" lon="0.1997">
        <ele>108</ele>
        <time>2020-06-17T18:50:43Z</time>
      </trkpt>
      <trkpt lat="49.67971" lon="0.19973">
        <ele>108</ele>
        <time>2020-06-17T18:50:44Z</time>
      </trkpt>
      <trkpt lat="49.67977" lon="0.19976">
        <ele>108</ele>
        <time>2020-06-17T18:50:45Z</time>
      </trkpt>
      <trkpt lat="49.67982" lon="0.19979">
        <ele>107.9</ele>
        <time>2020-06-17T18:50:46Z</time>
      </trkpt>
      <trkpt lat="49.67987" lon="0.19982">
        <ele>107.9</ele>
        <time>2020-06-17T18:50:47Z</time>
      </trkpt>
      <trkpt lat="49.67993" lon="0.19985">
        <ele>107.9</ele>
        <time>2020-06-17T18:50:48Z</time>
      </trkpt>
      <trkpt lat="49.67998" lon="0.19987">
        <ele>107.9</ele>
        <time>2020-06-17T18:50:49Z</time>
      </trkpt>
      <trkpt lat="49.68003" lon="0.1999">
        <ele>107.9</ele>
        <time>2020-06-17T18:50:50Z</time>
      </trkpt>
      <trkpt lat="49.68009" lon="0.19994">
        <ele>107.9</ele>
        <time>2020-06-17T18:50:51Z</time>
      </trkpt>
      <trkpt lat="49.68015" lon="0.19998">
        <ele>107.9</ele>
        <time>2020-06-17T18:50:52Z</time>
      </trkpt>
      <trkpt lat="49.68021" lon="0.20001">
        <ele>108</ele>
        <time>2020-06-17T18:50:53Z</time>
      </trkpt>
      <trkpt lat="49.68026" lon="0.20004">
        <ele>108</ele>
        <time>2020-06-17T18:50:54Z</time>
      </trkpt>
      <trkpt lat="49.68032" lon="0.20007">
        <ele>108.1</ele>
        <time>2020-06-17T18:50:55Z</time>
      </trkpt>
      <trkpt lat="49.68038" lon="0.20009">
        <ele>108.1</ele>
        <time>2020-06-17T18:50:56Z</time>
      </trkpt>
      <trkpt lat="49.68043" lon="0.20013">
        <ele>108.2</ele>
        <time>2020-06-17T18:50:57Z</time>
      </trkpt>
      <trkpt lat="49.68047" lon="0.20016">
        <ele>108.2</ele>
        <time>2020-06-17T18:50:58Z</time>
      </trkpt>
      <trkpt lat="49.68051" lon="0.2002">
        <ele>108.3</ele>
        <time>2020-06-17T18:50:59Z</time>
      </trkpt>
      <trkpt lat="49.68056" lon="0.20024">
        <ele>108.3</ele>
        <time>2020-06-17T18:51:00Z</time>
      </trkpt>
      <trkpt lat="49.68061" lon="0.20028">
        <ele>108.4</ele>
        <time>2020-06-17T18:51:01Z</time>
      </trkpt>
      <trkpt lat="49.68067" lon="0.20032">
        <ele>108.4</ele>
        <time>2020-06-17T18:51:02Z</time>
      </trkpt>
      <trkpt lat="49.68072" lon="0.20036">
        <ele>108.5</ele>
        <time>2020-06-17T18:51:03Z</time>
      </trkpt>
      <trkpt lat="49.68078" lon="0.20039">
        <ele>108.6</ele>
        <time>2020-06-17T18:51:04Z</time>
      </trkpt>
      <trkpt lat="49.68082" lon="0.20043">
        <ele>108.6</ele>
        <time>2020-06-17T18:51:05Z</time>
      </trkpt>
      <trkpt lat="49.68087" lon="0.20047">
        <ele>108.7</ele>
        <time>2020-06-17T18:51:06Z</time>
      </trkpt>
      <trkpt lat="49.68091" lon="0.2005">
        <ele>108.8</ele>
        <time>2020-06-17T18:51:07Z</time>
      </trkpt>
      <trkpt lat="49.68096" lon="0.20054">
        <ele>108.9</ele>
        <time>2020-06-17T18:51:08Z</time>
      </trkpt>
      <trkpt lat="49.68101" lon="0.20058">
        <ele>108.9</ele>
        <time>2020-06-17T18:51:09Z</time>
      </trkpt>
      <trkpt lat="49.68106" lon="0.20061">
        <ele>109</ele>
        <time>2020-06-17T18:51:10Z</time>
      </trkpt>
      <trkpt lat="49.68111" lon="0.20065">
        <ele>109</ele>
        <time>2020-06-17T18:51:11Z</time>
      </trkpt>
      <trkpt lat="49.68116" lon="0.2007">
        <ele>109.1</ele>
        <time>2020-06-17T18:51:12Z</time>
      </trkpt>
      <trkpt lat="49.68122" lon="0.20073">
        <ele>109.2</ele>
        <time>2020-06-17T18:51:13Z</time>
      </trkpt>
      <trkpt lat="49.68127" lon="0.20076">
        <ele>109.2</ele>
        <time>2020-06-17T18:51:14Z</time>
      </trkpt>
      <trkpt lat="49.68132" lon="0.20081">
        <ele>109.3</ele>
        <time>2020-06-17T18:51:15Z</time>
      </trkpt>
      <trkpt lat="49.68137" lon="0.20084">
        <ele>109.3</ele>
        <time>2020-06-17T18:51:16Z</time>
      </trkpt>
      <trkpt lat="49.68142" lon="0.20087">
        <ele>109.4</ele>
        <time>2020-06-17T18:51:17Z</time>
      </trkpt>
      <trkpt lat="49.68147" lon="0.20091">
        <ele>109.5</ele>
        <time>2020-06-17T18:51:18Z</time>
      </trkpt>
      <trkpt lat="49.68152" lon="0.20095">
        <ele>109.5</ele>
        <time>2020-06-17T18:51:19Z</time>
      </trkpt>
      <trkpt lat="49.68157" lon="0.20099">
        <ele>109.6</ele>
        <time>2020-06-17T18:51:20Z</time>
      </trkpt>
      <trkpt lat="49.68162" lon="0.20104">
        <ele>109.7</ele>
        <time>2020-06-17T18:51:21Z</time>
      </trkpt>
      <trkpt lat="49.68166" lon="0.20108">
        <ele>109.7</ele>
        <time>2020-06-17T18:51:22Z</time>
      </trkpt>
      <trkpt lat="49.68171" lon="0.20112">
        <ele>109.7</ele>
        <time>2020-06-17T18:51:23Z</time>
      </trkpt>
      <trkpt lat="49.68176" lon="0.20116">
        <ele>109.8</ele>
        <time>2020-06-17T18:51:24Z</time>
      </trkpt>
      <trkpt lat="49.6818" lon="0.2012">
        <ele>109.8</ele>
        <time>2020-06-17T18:51:25Z</time>
      </trkpt>
      <trkpt lat="49.68185" lon="0.20124">
        <ele>109.8</ele>
        <time>2020-06-17T18:51:26Z</time>
      </trkpt>
      <trkpt lat="49.6819" lon="0.20128">
        <ele>109.9</ele>
        <time>2020-06-17T18:51:27Z</time>
      </trkpt>
      <trkpt lat="49.68194" lon="0.20132">
        <ele>109.9</ele>
        <time>2020-06-17T18:51:28Z</time>
      </trkpt>
      <trkpt lat="49.68199" lon="0.20135">
        <ele>109.9</ele>
        <time>2020-06-17T18:51:29Z</time>
      </trkpt>
      <trkpt lat="49.68204" lon="0.20139">
        <ele>109.9</ele>
        <time>2020-06-17T18:51:30Z</time>
      </trkpt>
      <trkpt lat="49.68209" lon="0.20142">
        <ele>109.9</ele>
        <time>2020-06-17T18:51:31Z</time>
      </trkpt>
      <trkpt lat="49.68213" lon="0.20146">
        <ele>109.9</ele>
        <time>2020-06-17T18:51:32Z</time>
      </trkpt>
      <trkpt lat="49.68218" lon="0.20149">
        <ele>109.9</ele>
        <time>2020-06-17T18:51:33Z</time>
      </trkpt>
      <trkpt lat="49.68223" lon="0.20152">
        <ele>109.9</ele>
        <time>2020-06-17T18:51:34Z</time>
      </trkpt>
      <trkpt lat="49.68228" lon="0.20155">
        <ele>109.8</ele>
        <time>2020-06-17T18:51:35Z</time>
      </trkpt>
      <trkpt lat="49.68233" lon="0.20159">
        <ele>109.8</ele>
        <time>2020-06-17T18:51:36Z</time>
      </trkpt>
      <trkpt lat="49.68238" lon="0.20162">
        <ele>109.7</ele>
        <time>2020-06-17T18:51:37Z</time>
      </trkpt>
      <trkpt lat="49.68243" lon="0.20165">
        <ele>109.7</ele>
        <time>2020-06-17T18:51:38Z</time>
      </trkpt>
      <trkpt lat="49.68248" lon="0.20167">
        <ele>109.6</ele>
        <time>2020-06-17T18:51:39Z</time>
      </trkpt>
      <trkpt lat="49.68253" lon="0.20171">
        <ele>109.6</ele>
        <time>2020-06-17T18:51:40Z</time>
      </trkpt>
      <trkpt lat="49.68258" lon="0.20174">
        <ele>109.5</ele>
        <time>2020-06-17T18:51:41Z</time>
      </trkpt>
      <trkpt lat="49.68264" lon="0.20178">
        <ele>109.4</ele>
        <time>2020-06-17T18:51:42Z</time>
      </trkpt>
      <trkpt lat="49.68268" lon="0.20182">
        <ele>109.3</ele>
        <time>2020-06-17T18:51:43Z</time>
      </trkpt>
      <trkpt lat="49.68272" lon="0.20185">
        <ele>109.3</ele>
        <time>2020-06-17T18:51:44Z</time>
      </trkpt>
      <trkpt lat="49.68276" lon="0.20188">
        <ele>109.2</ele>
        <time>2020-06-17T18:51:45Z</time>
      </trkpt>
      <trkpt lat="49.68279" lon="0.2019">
        <ele>109.2</ele>
        <time>2020-06-17T18:51:46Z</time>
      </trkpt>
      <trkpt lat="49.68283" lon="0.20194">
        <ele>109.1</ele>
        <time>2020-06-17T18:51:47Z</time>
      </trkpt>
      <trkpt lat="49.68287" lon="0.20198">
        <ele>109.1</ele>
        <time>2020-06-17T18:51:48Z</time>
      </trkpt>
      <trkpt lat="49.6829" lon="0.20201">
        <ele>109</ele>
        <time>2020-06-17T18:51:49Z</time>
      </trkpt>
      <trkpt lat="49.68293" lon="0.20206">
        <ele>109</ele>
        <time>2020-06-17T18:51:50Z</time>
      </trkpt>
      <trkpt lat="49.68296" lon="0.2021">
        <ele>109</ele>
        <time>2020-06-17T18:51:51Z</time>
      </trkpt>
      <trkpt lat="49.68301" lon="0.20214">
        <ele>108.9</ele>
        <time>2020-06-17T18:51:52Z</time>
      </trkpt>
      <trkpt lat="49.68306" lon="0.20217">
        <ele>108.8</ele>
        <time>2020-06-17T18:51:53Z</time>
      </trkpt>
      <trkpt lat="49.68311" lon="0.20219">
        <ele>108.7</ele>
        <time>2020-06-17T18:51:54Z</time>
      </trkpt>
      <trkpt lat="49.68316" lon="0.20222">
        <ele>108.7</ele>
        <time>2020-06-17T18:51:55Z</time>
      </trkpt>
      <trkpt lat="49.6832" lon="0.20225">
        <ele>108.6</ele>
        <time>2020-06-17T18:51:56Z</time>
      </trkpt>
      <trkpt lat="49.68325" lon="0.20229">
        <ele>108.5</ele>
        <time>2020-06-17T18:51:57Z</time>
      </trkpt>
      <trkpt lat="49.6833" lon="0.20234">
        <ele>108.5</ele>
        <time>2020-06-17T18:51:58Z</time>
      </trkpt>
      <trkpt lat="49.68335" lon="0.20239">
        <ele>108.4</ele>
        <time>2020-06-17T18:51:59Z</time>
      </trkpt>
      <trkpt lat="49.6834" lon="0.20243">
        <ele>108.3</ele>
        <time>2020-06-17T18:52:00Z</time>
      </trkpt>
      <trkpt lat="49.68346" lon="0.20247">
        <ele>108.2</ele>
        <time>2020-06-17T18:52:01Z</time>
      </trkpt>
      <trkpt lat="49.68352" lon="0.20251">
        <ele>108.2</ele>
        <time>2020-06-17T18:52:02Z</time>
      </trkpt>
      <trkpt lat="49.68357" lon="0.20256">
        <ele>108.1</ele>
        <time>2020-06-17T18:52:03Z</time>
      </trkpt>
      <trkpt lat="49.68363" lon="0.20259">
        <ele>108</ele>
        <time>2020-06-17T18:52:04Z</time>
      </trkpt>
      <trkpt lat="49.68368" lon="0.20262">
        <ele>108</ele>
        <time>2020-06-17T18:52:05Z</time>
      </trkpt>
      <trkpt lat="49.68373" lon="0.20266">
        <ele>108</ele>
        <time>2020-06-17T18:52:06Z</time>
      </trkpt>
      <trkpt lat="49.68377" lon="0.2027">
        <ele>107.9</ele>
        <time>2020-06-17T18:52:07Z</time>
      </trkpt>
      <trkpt lat="49.68382" lon="0.20274">
        <ele>107.9</ele>
        <time>2020-06-17T18:52:08Z</time>
      </trkpt>
      <trkpt lat="49.68386" lon="0.2028">
        <ele>107.9</ele>
        <time>2020-06-17T18:52:09Z</time>
      </trkpt>
      <trkpt lat="49.68391" lon="0.20284">
        <ele>107.8</ele>
        <time>2020-06-17T18:52:10Z</time>
      </trkpt>
      <trkpt lat="49.68397" lon="0.20289">
        <ele>107.8</ele>
        <time>2020-06-17T18:52:11Z</time>
      </trkpt>
      <trkpt lat="49.68404" lon="0.20294">
        <ele>107.7</ele>
        <time>2020-06-17T18:52:12Z</time>
      </trkpt>
      <trkpt lat="49.6841" lon="0.20299">
        <ele>107.7</ele>
        <time>2020-06-17T18:52:13Z</time>
      </trkpt>
      <trkpt lat="49.68415" lon="0.20304">
        <ele>107.6</ele>
        <time>2020-06-17T18:52:14Z</time>
      </trkpt>
      <trkpt lat="49.68421" lon="0.20308">
        <ele>107.6</ele>
        <time>2020-06-17T18:52:15Z</time>
      </trkpt>
      <trkpt lat="49.68427" lon="0.20312">
        <ele>107.6</ele>
        <time>2020-06-17T18:52:16Z</time>
      </trkpt>
      <trkpt lat="49.68433" lon="0.20317">
        <ele>107.6</ele>
        <time>2020-06-17T18:52:17Z</time>
      </trkpt>
      <trkpt lat="49.6844" lon="0.20322">
        <ele>107.6</ele>
        <time>2020-06-17T18:52:18Z</time>
      </trkpt>
      <trkpt lat="49.68445" lon="0.20325">
        <ele>107.7</ele>
        <time>2020-06-17T18:52:19Z</time>
      </trkpt>
      <trkpt lat="49.6845" lon="0.20329">
        <ele>107.7</ele>
        <time>2020-06-17T18:52:20Z</time>
      </trkpt>
      <trkpt lat="49.68456" lon="0.20335">
        <ele>107.8</ele>
        <time>2020-06-17T18:52:21Z</time>
      </trkpt>
      <trkpt lat="49.68462" lon="0.2034">
        <ele>107.8</ele>
        <time>2020-06-17T18:52:22Z</time>
      </trkpt>
      <trkpt lat="49.68467" lon="0.20344">
        <ele>107.9</ele>
        <time>2020-06-17T18:52:23Z</time>
      </trkpt>
      <trkpt lat="49.68473" lon="0.20349">
        <ele>108</ele>
        <time>2020-06-17T18:52:24Z</time>
      </trkpt>
      <trkpt lat="49.68479" lon="0.20353">
        <ele>108.1</ele>
        <time>2020-06-17T18:52:25Z</time>
      </trkpt>
      <trkpt lat="49.68485" lon="0.20358">
        <ele>108.2</ele>
        <time>2020-06-17T18:52:26Z</time>
      </trkpt>
      <trkpt lat="49.68491" lon="0.20363">
        <ele>108.1</ele>
        <time>2020-06-17T18:52:27Z</time>
      </trkpt>
      <trkpt lat="49.68496" lon="0.20366">
        <ele>108.1</ele>
        <time>2020-06-17T18:52:28Z</time>
      </trkpt>
      <trkpt lat="49.68501" lon="0.2037">
        <ele>108.1</ele>
        <time>2020-06-17T18:52:29Z</time>
      </trkpt>
      <trkpt lat="49.68506" lon="0.20374">
        <ele>108.1</ele>
        <time>2020-06-17T18:52:30Z</time>
      </trkpt>
      <trkpt lat="49.6851" lon="0.20378">
        <ele>108.1</ele>
        <time>2020-06-17T18:52:31Z</time>
      </trkpt>
      <trkpt lat="49.68515" lon="0.20382">
        <ele>108.2</ele>
        <time>2020-06-17T18:52:32Z</time>
      </trkpt>
      <trkpt lat="49.68519" lon="0.20385">
        <ele>108.2</ele>
        <time>2020-06-17T18:52:33Z</time>
      </trkpt>
      <trkpt lat="49.68524" lon="0.20388">
        <ele>108.3</ele>
        <time>2020-06-17T18:52:34Z</time>
      </trkpt>
      <trkpt lat="49.68529" lon="0.20391">
        <ele>108.3</ele>
        <time>2020-06-17T18:52:35Z</time>
      </trkpt>
      <trkpt lat="49.68535" lon="0.20395">
        <ele>108.4</ele>
        <time>2020-06-17T18:52:36Z</time>
      </trkpt>
      <trkpt lat="49.68541" lon="0.20399">
        <ele>108.4</ele>
        <time>2020-06-17T18:52:37Z</time>
      </trkpt>
      <trkpt lat="49.68546" lon="0.20402">
        <ele>108.4</ele>
        <time>2020-06-17T18:52:38Z</time>
      </trkpt>
      <trkpt lat="49.68551" lon="0.20406">
        <ele>108.5</ele>
        <time>2020-06-17T18:52:39Z</time>
      </trkpt>
      <trkpt lat="49.68557" lon="0.20409">
        <ele>108.6</ele>
        <time>2020-06-17T18:52:40Z</time>
      </trkpt>
      <trkpt lat="49.68562" lon="0.20413">
        <ele>108.7</ele>
        <time>2020-06-17T18:52:41Z</time>
      </trkpt>
      <trkpt lat="49.68567" lon="0.20416">
        <ele>108.7</ele>
        <time>2020-06-17T18:52:42Z</time>
      </trkpt>
      <trkpt lat="49.68572" lon="0.20418">
        <ele>108.8</ele>
        <time>2020-06-17T18:52:43Z</time>
      </trkpt>
      <trkpt lat="49.68577" lon="0.20422">
        <ele>108.9</ele>
        <time>2020-06-17T18:52:44Z</time>
      </trkpt>
      <trkpt lat="49.68582" lon="0.20424">
        <ele>108.9</ele>
        <time>2020-06-17T18:52:45Z</time>
      </trkpt>
      <trkpt lat="49.68587" lon="0.20426">
        <ele>109</ele>
        <time>2020-06-17T18:52:46Z</time>
      </trkpt>
      <trkpt lat="49.68593" lon="0.2043">
        <ele>109</ele>
        <time>2020-06-17T18:52:47Z</time>
      </trkpt>
      <trkpt lat="49.68598" lon="0.20432">
        <ele>109.1</ele>
        <time>2020-06-17T18:52:48Z</time>
      </trkpt>
      <trkpt lat="49.68602" lon="0.20432">
        <ele>109.1</ele>
        <time>2020-06-17T18:52:49Z</time>
      </trkpt>
      <trkpt lat="49.68607" lon="0.20434">
        <ele>109.2</ele>
        <time>2020-06-17T18:52:50Z</time>
      </trkpt>
      <trkpt lat="49.68612" lon="0.20435">
        <ele>109.2</ele>
        <time>2020-06-17T18:52:51Z</time>
      </trkpt>
      <trkpt lat="49.68619" lon="0.20439">
        <ele>109.3</ele>
        <time>2020-06-17T18:52:52Z</time>
      </trkpt>
      <trkpt lat="49.68623" lon="0.20441">
        <ele>109.3</ele>
        <time>2020-06-17T18:52:53Z</time>
      </trkpt>
      <trkpt lat="49.68628" lon="0.20442">
        <ele>109.3</ele>
        <time>2020-06-17T18:52:54Z</time>
      </trkpt>
      <trkpt lat="49.68633" lon="0.20443">
        <ele>109.3</ele>
        <time>2020-06-17T18:52:55Z</time>
      </trkpt>
      <trkpt lat="49.68639" lon="0.20445">
        <ele>109.3</ele>
        <time>2020-06-17T18:52:56Z</time>
      </trkpt>
      <trkpt lat="49.68645" lon="0.20447">
        <ele>109.3</ele>
        <time>2020-06-17T18:52:57Z</time>
      </trkpt>
      <trkpt lat="49.6865" lon="0.20449">
        <ele>109.3</ele>
        <time>2020-06-17T18:52:58Z</time>
      </trkpt>
      <trkpt lat="49.68656" lon="0.20451">
        <ele>109.4</ele>
        <time>2020-06-17T18:52:59Z</time>
      </trkpt>
      <trkpt lat="49.68661" lon="0.20453">
        <ele>109.4</ele>
        <time>2020-06-17T18:53:00Z</time>
      </trkpt>
      <trkpt lat="49.68666" lon="0.20455">
        <ele>109.4</ele>
        <time>2020-06-17T18:53:01Z</time>
      </trkpt>
      <trkpt lat="49.68671" lon="0.20455">
        <ele>109.5</ele>
        <time>2020-06-17T18:53:02Z</time>
      </trkpt>
      <trkpt lat="49.68676" lon="0.20457">
        <ele>109.5</ele>
        <time>2020-06-17T18:53:03Z</time>
      </trkpt>
      <trkpt lat="49.68682" lon="0.20458">
        <ele>109.5</ele>
        <time>2020-06-17T18:53:04Z</time>
      </trkpt>
      <trkpt lat="49.68687" lon="0.2046">
        <ele>109.6</ele>
        <time>2020-06-17T18:53:05Z</time>
      </trkpt>
      <trkpt lat="49.68693" lon="0.2046">
        <ele>109.6</ele>
        <time>2020-06-17T18:53:06Z</time>
      </trkpt>
      <trkpt lat="49.68698" lon="0.20462">
        <ele>109.6</ele>
        <time>2020-06-17T18:53:07Z</time>
      </trkpt>
      <trkpt lat="49.68704" lon="0.20464">
        <ele>109.6</ele>
        <time>2020-06-17T18:53:08Z</time>
      </trkpt>
      <trkpt lat="49.68709" lon="0.20466">
        <ele>109.6</ele>
        <time>2020-06-17T18:53:09Z</time>
      </trkpt>
      <trkpt lat="49.68715" lon="0.20467">
        <ele>109.6</ele>
        <time>2020-06-17T18:53:10Z</time>
      </trkpt>
      <trkpt lat="49.6872" lon="0.20469">
        <ele>109.6</ele>
        <time>2020-06-17T18:53:11Z</time>
      </trkpt>
      <trkpt lat="49.68726" lon="0.20472">
        <ele>109.6</ele>
        <time>2020-06-17T18:53:12Z</time>
      </trkpt>
      <trkpt lat="49.68732" lon="0.20473">
        <ele>109.6</ele>
        <time>2020-06-17T18:53:13Z</time>
      </trkpt>
      <trkpt lat="49.68737" lon="0.20474">
        <ele>109.6</ele>
        <time>2020-06-17T18:53:14Z</time>
      </trkpt>
      <trkpt lat="49.68743" lon="0.20475">
        <ele>109.5</ele>
        <time>2020-06-17T18:53:15Z</time>
      </trkpt>
      <trkpt lat="49.68749" lon="0.20477">
        <ele>109.5</ele>
        <time>2020-06-17T18:53:16Z</time>
      </trkpt>
      <trkpt lat="49.68753" lon="0.20478">
        <ele>109.5</ele>
        <time>2020-06-17T18:53:17Z</time>
      </trkpt>
      <trkpt lat="49.68758" lon="0.20479">
        <ele>109.5</ele>
        <time>2020-06-17T18:53:18Z</time>
      </trkpt>
      <trkpt lat="49.68763" lon="0.20481">
        <ele>109.5</ele>
        <time>2020-06-17T18:53:19Z</time>
      </trkpt>
      <trkpt lat="49.68767" lon="0.20483">
        <ele>109.5</ele>
        <time>2020-06-17T18:53:20Z</time>
      </trkpt>
      <trkpt lat="49.68772" lon="0.20485">
        <ele>109.5</ele>
        <time>2020-06-17T18:53:21Z</time>
      </trkpt>
      <trkpt lat="49.68777" lon="0.20487">
        <ele>109.5</ele>
        <time>2020-06-17T18:53:22Z</time>
      </trkpt>
      <trkpt lat="49.68782" lon="0.20489">
        <ele>109.5</ele>
        <time>2020-06-17T18:53:23Z</time>
      </trkpt>
      <trkpt lat="49.68789" lon="0.20494">
        <ele>109.5</ele>
        <time>2020-06-17T18:53:24Z</time>
      </trkpt>
      <trkpt lat="49.68793" lon="0.20495">
        <ele>109.5</ele>
        <time>2020-06-17T18:53:25Z</time>
      </trkpt>
      <trkpt lat="49.68799" lon="0.20497">
        <ele>109.5</ele>
        <time>2020-06-17T18:53:26Z</time>
      </trkpt>
      <trkpt lat="49.68805" lon="0.20499">
        <ele>109.5</ele>
        <time>2020-06-17T18:53:27Z</time>
      </trkpt>
      <trkpt lat="49.68811" lon="0.20499">
        <ele>109.5</ele>
        <time>2020-06-17T18:53:28Z</time>
      </trkpt>
      <trkpt lat="49.68816" lon="0.20501">
        <ele>109.4</ele>
        <time>2020-06-17T18:53:29Z</time>
      </trkpt>
      <trkpt lat="49.68823" lon="0.20502">
        <ele>109.4</ele>
        <time>2020-06-17T18:53:30Z</time>
      </trkpt>
      <trkpt lat="49.6883" lon="0.20503">
        <ele>109.3</ele>
        <time>2020-06-17T18:53:31Z</time>
      </trkpt>
      <trkpt lat="49.68836" lon="0.20503">
        <ele>109.3</ele>
        <time>2020-06-17T18:53:32Z</time>
      </trkpt>
      <trkpt lat="49.68843" lon="0.20506">
        <ele>109.2</ele>
        <time>2020-06-17T18:53:33Z</time>
      </trkpt>
      <trkpt lat="49.68848" lon="0.20507">
        <ele>109.2</ele>
        <time>2020-06-17T18:53:34Z</time>
      </trkpt>
      <trkpt lat="49.68854" lon="0.20508">
        <ele>109.1</ele>
        <time>2020-06-17T18:53:35Z</time>
      </trkpt>
      <trkpt lat="49.6886" lon="0.2051">
        <ele>109</ele>
        <time>2020-06-17T18:53:36Z</time>
      </trkpt>
      <trkpt lat="49.68866" lon="0.2051">
        <ele>109</ele>
        <time>2020-06-17T18:53:37Z</time>
      </trkpt>
      <trkpt lat="49.68872" lon="0.20512">
        <ele>108.9</ele>
        <time>2020-06-17T18:53:38Z</time>
      </trkpt>
      <trkpt lat="49.68878" lon="0.20514">
        <ele>108.9</ele>
        <time>2020-06-17T18:53:39Z</time>
      </trkpt>
      <trkpt lat="49.68885" lon="0.20516">
        <ele>108.8</ele>
        <time>2020-06-17T18:53:40Z</time>
      </trkpt>
      <trkpt lat="49.68892" lon="0.20519">
        <ele>108.7</ele>
        <time>2020-06-17T18:53:41Z</time>
      </trkpt>
      <trkpt lat="49.68898" lon="0.2052">
        <ele>108.7</ele>
        <time>2020-06-17T18:53:42Z</time>
      </trkpt>
      <trkpt lat="49.68905" lon="0.20521">
        <ele>108.6</ele>
        <time>2020-06-17T18:53:43Z</time>
      </trkpt>
      <trkpt lat="49.68911" lon="0.20522">
        <ele>108.5</ele>
        <time>2020-06-17T18:53:44Z</time>
      </trkpt>
      <trkpt lat="49.68916" lon="0.20524">
        <ele>108.4</ele>
        <time>2020-06-17T18:53:45Z</time>
      </trkpt>
      <trkpt lat="49.68922" lon="0.20526">
        <ele>108.3</ele>
        <time>2020-06-17T18:53:46Z</time>
      </trkpt>
      <trkpt lat="49.68929" lon="0.20528">
        <ele>108.1</ele>
        <time>2020-06-17T18:53:47Z</time>
      </trkpt>
      <trkpt lat="49.68936" lon="0.20529">
        <ele>108</ele>
        <time>2020-06-17T18:53:48Z</time>
      </trkpt>
      <trkpt lat="49.68944" lon="0.2053">
        <ele>107.9</ele>
        <time>2020-06-17T18:53:49Z</time>
      </trkpt>
      <trkpt lat="49.68951" lon="0.2053">
        <ele>107.8</ele>
        <time>2020-06-17T18:53:50Z</time>
      </trkpt>
      <trkpt lat="49.68958" lon="0.20531">
        <ele>107.7</ele>
        <time>2020-06-17T18:53:51Z</time>
      </trkpt>
      <trkpt lat="49.68965" lon="0.20532">
        <ele>107.6</ele>
        <time>2020-06-17T18:53:52Z</time>
      </trkpt>
      <trkpt lat="49.68973" lon="0.20533">
        <ele>107.4</ele>
        <time>2020-06-17T18:53:53Z</time>
      </trkpt>
      <trkpt lat="49.6898" lon="0.20533">
        <ele>107.4</ele>
        <time>2020-06-17T18:53:54Z</time>
      </trkpt>
      <trkpt lat="49.68988" lon="0.20534">
        <ele>107.2</ele>
        <time>2020-06-17T18:53:55Z</time>
      </trkpt>
      <trkpt lat="49.68995" lon="0.20535">
        <ele>107.1</ele>
        <time>2020-06-17T18:53:56Z</time>
      </trkpt>
      <trkpt lat="49.69002" lon="0.20535">
        <ele>106.9</ele>
        <time>2020-06-17T18:53:57Z</time>
      </trkpt>
      <trkpt lat="49.69008" lon="0.20536">
        <ele>106.8</ele>
        <time>2020-06-17T18:53:58Z</time>
      </trkpt>
      <trkpt lat="49.69015" lon="0.20537">
        <ele>106.6</ele>
        <time>2020-06-17T18:53:59Z</time>
      </trkpt>
      <trkpt lat="49.69021" lon="0.20538">
        <ele>106.5</ele>
        <time>2020-06-17T18:54:00Z</time>
      </trkpt>
      <trkpt lat="49.69028" lon="0.20538">
        <ele>106.4</ele>
        <time>2020-06-17T18:54:01Z</time>
      </trkpt>
      <trkpt lat="49.69035" lon="0.20538">
        <ele>106.2</ele>
        <time>2020-06-17T18:54:02Z</time>
      </trkpt>
      <trkpt lat="49.69042" lon="0.20539">
        <ele>106.1</ele>
        <time>2020-06-17T18:54:03Z</time>
      </trkpt>
      <trkpt lat="49.6905" lon="0.20539">
        <ele>106</ele>
        <time>2020-06-17T18:54:04Z</time>
      </trkpt>
      <trkpt lat="49.69057" lon="0.20539">
        <ele>105.8</ele>
        <time>2020-06-17T18:54:05Z</time>
      </trkpt>
      <trkpt lat="49.69064" lon="0.20539">
        <ele>105.7</ele>
        <time>2020-06-17T18:54:06Z</time>
      </trkpt>
      <trkpt lat="49.69072" lon="0.20539">
        <ele>105.5</ele>
        <time>2020-06-17T18:54:07Z</time>
      </trkpt>
      <trkpt lat="49.6908" lon="0.20539">
        <ele>105.3</ele>
        <time>2020-06-17T18:54:08Z</time>
      </trkpt>
      <trkpt lat="49.69087" lon="0.2054">
        <ele>105.2</ele>
        <time>2020-06-17T18:54:09Z</time>
      </trkpt>
      <trkpt lat="49.69094" lon="0.2054">
        <ele>105</ele>
        <time>2020-06-17T18:54:10Z</time>
      </trkpt>
      <trkpt lat="49.69101" lon="0.2054">
        <ele>104.9</ele>
        <time>2020-06-17T18:54:11Z</time>
      </trkpt>
      <trkpt lat="49.69108" lon="0.2054">
        <ele>104.7</ele>
        <time>2020-06-17T18:54:12Z</time>
      </trkpt>
      <trkpt lat="49.69115" lon="0.20539">
        <ele>104.5</ele>
        <time>2020-06-17T18:54:13Z</time>
      </trkpt>
      <trkpt lat="49.69122" lon="0.20539">
        <ele>104.4</ele>
        <time>2020-06-17T18:54:14Z</time>
      </trkpt>
      <trkpt lat="49.69129" lon="0.20539">
        <ele>104.2</ele>
        <time>2020-06-17T18:54:15Z</time>
      </trkpt>
      <trkpt lat="49.69136" lon="0.2054">
        <ele>104.1</ele>
        <time>2020-06-17T18:54:16Z</time>
      </trkpt>
      <trkpt lat="49.69144" lon="0.2054">
        <ele>104</ele>
        <time>2020-06-17T18:54:17Z</time>
      </trkpt>
      <trkpt lat="49.69151" lon="0.2054">
        <ele>103.8</ele>
        <time>2020-06-17T18:54:18Z</time>
      </trkpt>
      <trkpt lat="49.69158" lon="0.20541">
        <ele>103.7</ele>
        <time>2020-06-17T18:54:19Z</time>
      </trkpt>
      <trkpt lat="49.69166" lon="0.2054">
        <ele>103.5</ele>
        <time>2020-06-17T18:54:20Z</time>
      </trkpt>
      <trkpt lat="49.69173" lon="0.2054">
        <ele>103.4</ele>
        <time>2020-06-17T18:54:21Z</time>
      </trkpt>
      <trkpt lat="49.6918" lon="0.20539">
        <ele>103.3</ele>
        <time>2020-06-17T18:54:22Z</time>
      </trkpt>
      <trkpt lat="49.69187" lon="0.20539">
        <ele>103.3</ele>
        <time>2020-06-17T18:54:23Z</time>
      </trkpt>
      <trkpt lat="49.69193" lon="0.20539">
        <ele>103.2</ele>
        <time>2020-06-17T18:54:24Z</time>
      </trkpt>
      <trkpt lat="49.69199" lon="0.2054">
        <ele>103.1</ele>
        <time>2020-06-17T18:54:25Z</time>
      </trkpt>
      <trkpt lat="49.69205" lon="0.2054">
        <ele>103</ele>
        <time>2020-06-17T18:54:26Z</time>
      </trkpt>
      <trkpt lat="49.6921" lon="0.20542">
        <ele>102.8</ele>
        <time>2020-06-17T18:54:27Z</time>
      </trkpt>
      <trkpt lat="49.69218" lon="0.20541">
        <ele>102.6</ele>
        <time>2020-06-17T18:54:28Z</time>
      </trkpt>
      <trkpt lat="49.69225" lon="0.20541">
        <ele>102.4</ele>
        <time>2020-06-17T18:54:29Z</time>
      </trkpt>
      <trkpt lat="49.69232" lon="0.20542">
        <ele>102.3</ele>
        <time>2020-06-17T18:54:30Z</time>
      </trkpt>
      <trkpt lat="49.69239" lon="0.20542">
        <ele>102.1</ele>
        <time>2020-06-17T18:54:31Z</time>
      </trkpt>
      <trkpt lat="49.69246" lon="0.20542">
        <ele>102</ele>
        <time>2020-06-17T18:54:32Z</time>
      </trkpt>
      <trkpt lat="49.69254" lon="0.20541">
        <ele>101.8</ele>
        <time>2020-06-17T18:54:33Z</time>
      </trkpt>
      <trkpt lat="49.69262" lon="0.2054">
        <ele>101.6</ele>
        <time>2020-06-17T18:54:34Z</time>
      </trkpt>
      <trkpt lat="49.69269" lon="0.20539">
        <ele>101.3</ele>
        <time>2020-06-17T18:54:35Z</time>
      </trkpt>
      <trkpt lat="49.69276" lon="0.20538">
        <ele>101.1</ele>
        <time>2020-06-17T18:54:36Z</time>
      </trkpt>
      <trkpt lat="49.69282" lon="0.20537">
        <ele>101</ele>
        <time>2020-06-17T18:54:37Z</time>
      </trkpt>
      <trkpt lat="49.69289" lon="0.20537">
        <ele>100.8</ele>
        <time>2020-06-17T18:54:38Z</time>
      </trkpt>
      <trkpt lat="49.69297" lon="0.20537">
        <ele>100.5</ele>
        <time>2020-06-17T18:54:39Z</time>
      </trkpt>
      <trkpt lat="49.69304" lon="0.20537">
        <ele>100.3</ele>
        <time>2020-06-17T18:54:40Z</time>
      </trkpt>
      <trkpt lat="49.69311" lon="0.20536">
        <ele>100</ele>
        <time>2020-06-17T18:54:41Z</time>
      </trkpt>
      <trkpt lat="49.69318" lon="0.20535">
        <ele>99.7</ele>
        <time>2020-06-17T18:54:42Z</time>
      </trkpt>
      <trkpt lat="49.69325" lon="0.20534">
        <ele>99.5</ele>
        <time>2020-06-17T18:54:43Z</time>
      </trkpt>
      <trkpt lat="49.69332" lon="0.20535">
        <ele>99.1</ele>
        <time>2020-06-17T18:54:44Z</time>
      </trkpt>
      <trkpt lat="49.6934" lon="0.20535">
        <ele>98.8</ele>
        <time>2020-06-17T18:54:45Z</time>
      </trkpt>
      <trkpt lat="49.69348" lon="0.20535">
        <ele>98.5</ele>
        <time>2020-06-17T18:54:46Z</time>
      </trkpt>
      <trkpt lat="49.69356" lon="0.20535">
        <ele>98.2</ele>
        <time>2020-06-17T18:54:47Z</time>
      </trkpt>
      <trkpt lat="49.69364" lon="0.20535">
        <ele>97.9</ele>
        <time>2020-06-17T18:54:48Z</time>
      </trkpt>
      <trkpt lat="49.69371" lon="0.20535">
        <ele>97.6</ele>
        <time>2020-06-17T18:54:49Z</time>
      </trkpt>
      <trkpt lat="49.69379" lon="0.20534">
        <ele>97.3</ele>
        <time>2020-06-17T18:54:50Z</time>
      </trkpt>
      <trkpt lat="49.69387" lon="0.20534">
        <ele>96.9</ele>
        <time>2020-06-17T18:54:51Z</time>
      </trkpt>
      <trkpt lat="49.69395" lon="0.20532">
        <ele>96.4</ele>
        <time>2020-06-17T18:54:52Z</time>
      </trkpt>
      <trkpt lat="49.69403" lon="0.20531">
        <ele>96.2</ele>
        <time>2020-06-17T18:54:53Z</time>
      </trkpt>
      <trkpt lat="49.69411" lon="0.2053">
        <ele>96</ele>
        <time>2020-06-17T18:54:54Z</time>
      </trkpt>
      <trkpt lat="49.69419" lon="0.20529">
        <ele>95.7</ele>
        <time>2020-06-17T18:54:55Z</time>
      </trkpt>
      <trkpt lat="49.69427" lon="0.20527">
        <ele>95.5</ele>
        <time>2020-06-17T18:54:56Z</time>
      </trkpt>
      <trkpt lat="49.69435" lon="0.20525">
        <ele>95.3</ele>
        <time>2020-06-17T18:54:57Z</time>
      </trkpt>
      <trkpt lat="49.69444" lon="0.20525">
        <ele>95.1</ele>
        <time>2020-06-17T18:54:58Z</time>
      </trkpt>
      <trkpt lat="49.69453" lon="0.20525">
        <ele>94.5</ele>
        <time>2020-06-17T18:54:59Z</time>
      </trkpt>
      <trkpt lat="49.69461" lon="0.20524">
        <ele>94</ele>
        <time>2020-06-17T18:55:00Z</time>
      </trkpt>
      <trkpt lat="49.6947" lon="0.20522">
        <ele>93.6</ele>
        <time>2020-06-17T18:55:01Z</time>
      </trkpt>
      <trkpt lat="49.69479" lon="0.2052">
        <ele>93.2</ele>
        <time>2020-06-17T18:55:02Z</time>
      </trkpt>
      <trkpt lat="49.69487" lon="0.20518">
        <ele>92.9</ele>
        <time>2020-06-17T18:55:03Z</time>
      </trkpt>
      <trkpt lat="49.69496" lon="0.20516">
        <ele>92.5</ele>
        <time>2020-06-17T18:55:04Z</time>
      </trkpt>
      <trkpt lat="49.69504" lon="0.20513">
        <ele>92.1</ele>
        <time>2020-06-17T18:55:05Z</time>
      </trkpt>
      <trkpt lat="49.69512" lon="0.2051">
        <ele>91.8</ele>
        <time>2020-06-17T18:55:06Z</time>
      </trkpt>
      <trkpt lat="49.69521" lon="0.20506">
        <ele>91.4</ele>
        <time>2020-06-17T18:55:07Z</time>
      </trkpt>
      <trkpt lat="49.6953" lon="0.20502">
        <ele>90.9</ele>
        <time>2020-06-17T18:55:08Z</time>
      </trkpt>
      <trkpt lat="49.69538" lon="0.20498">
        <ele>90.6</ele>
        <time>2020-06-17T18:55:09Z</time>
      </trkpt>
      <trkpt lat="49.69547" lon="0.20494">
        <ele>90.2</ele>
        <time>2020-06-17T18:55:10Z</time>
      </trkpt>
      <trkpt lat="49.69556" lon="0.2049">
        <ele>89.8</ele>
        <time>2020-06-17T18:55:11Z</time>
      </trkpt>
      <trkpt lat="49.69564" lon="0.20486">
        <ele>89.4</ele>
        <time>2020-06-17T18:55:12Z</time>
      </trkpt>
      <trkpt lat="49.69573" lon="0.20481">
        <ele>89</ele>
        <time>2020-06-17T18:55:13Z</time>
      </trkpt>
      <trkpt lat="49.69581" lon="0.20477">
        <ele>88.7</ele>
        <time>2020-06-17T18:55:14Z</time>
      </trkpt>
      <trkpt lat="49.6959" lon="0.20471">
        <ele>88.3</ele>
        <time>2020-06-17T18:55:15Z</time>
      </trkpt>
      <trkpt lat="49.69598" lon="0.20465">
        <ele>87.9</ele>
        <time>2020-06-17T18:55:16Z</time>
      </trkpt>
      <trkpt lat="49.69607" lon="0.20459">
        <ele>87.5</ele>
        <time>2020-06-17T18:55:17Z</time>
      </trkpt>
      <trkpt lat="49.69615" lon="0.20453">
        <ele>87.1</ele>
        <time>2020-06-17T18:55:18Z</time>
      </trkpt>
      <trkpt lat="49.69623" lon="0.20447">
        <ele>86.7</ele>
        <time>2020-06-17T18:55:19Z</time>
      </trkpt>
      <trkpt lat="49.69632" lon="0.2044">
        <ele>86.2</ele>
        <time>2020-06-17T18:55:20Z</time>
      </trkpt>
      <trkpt lat="49.6964" lon="0.20433">
        <ele>85.8</ele>
        <time>2020-06-17T18:55:21Z</time>
      </trkpt>
      <trkpt lat="49.69648" lon="0.20425">
        <ele>85.4</ele>
        <time>2020-06-17T18:55:22Z</time>
      </trkpt>
      <trkpt lat="49.69656" lon="0.20417">
        <ele>85</ele>
        <time>2020-06-17T18:55:23Z</time>
      </trkpt>
      <trkpt lat="49.69664" lon="0.20409">
        <ele>84.5</ele>
        <time>2020-06-17T18:55:24Z</time>
      </trkpt>
      <trkpt lat="49.69672" lon="0.204">
        <ele>83.9</ele>
        <time>2020-06-17T18:55:25Z</time>
      </trkpt>
      <trkpt lat="49.6968" lon="0.20391">
        <ele>83.4</ele>
        <time>2020-06-17T18:55:26Z</time>
      </trkpt>
      <trkpt lat="49.69688" lon="0.20381">
        <ele>82.8</ele>
        <time>2020-06-17T18:55:27Z</time>
      </trkpt>
      <trkpt lat="49.69696" lon="0.20371">
        <ele>82.1</ele>
        <time>2020-06-17T18:55:28Z</time>
      </trkpt>
      <trkpt lat="49.69704" lon="0.20361">
        <ele>81.4</ele>
        <time>2020-06-17T18:55:29Z</time>
      </trkpt>
      <trkpt lat="49.69713" lon="0.20351">
        <ele>80.7</ele>
        <time>2020-06-17T18:55:30Z</time>
      </trkpt>
      <trkpt lat="49.69722" lon="0.20341">
        <ele>79.9</ele>
        <time>2020-06-17T18:55:31Z</time>
      </trkpt>
      <trkpt lat="49.6973" lon="0.20329">
        <ele>79</ele>
        <time>2020-06-17T18:55:32Z</time>
      </trkpt>
      <trkpt lat="49.69739" lon="0.20317">
        <ele>78.2</ele>
        <time>2020-06-17T18:55:33Z</time>
      </trkpt>
      <trkpt lat="49.69748" lon="0.20306">
        <ele>77.3</ele>
        <time>2020-06-17T18:55:34Z</time>
      </trkpt>
      <trkpt lat="49.69758" lon="0.20296">
        <ele>76.4</ele>
        <time>2020-06-17T18:55:35Z</time>
      </trkpt>
      <trkpt lat="49.69767" lon="0.20285">
        <ele>75.6</ele>
        <time>2020-06-17T18:55:36Z</time>
      </trkpt>
      <trkpt lat="49.69777" lon="0.20273">
        <ele>74.7</ele>
        <time>2020-06-17T18:55:37Z</time>
      </trkpt>
      <trkpt lat="49.69786" lon="0.20261">
        <ele>73.9</ele>
        <time>2020-06-17T18:55:38Z</time>
      </trkpt>
      <trkpt lat="49.69796" lon="0.20249">
        <ele>73</ele>
        <time>2020-06-17T18:55:39Z</time>
      </trkpt>
      <trkpt lat="49.69805" lon="0.20237">
        <ele>72.1</ele>
        <time>2020-06-17T18:55:40Z</time>
      </trkpt>
      <trkpt lat="49.69814" lon="0.20224">
        <ele>71.2</ele>
        <time>2020-06-17T18:55:41Z</time>
      </trkpt>
      <trkpt lat="49.69824" lon="0.20213">
        <ele>70.2</ele>
        <time>2020-06-17T18:55:42Z</time>
      </trkpt>
      <trkpt lat="49.69834" lon="0.20202">
        <ele>69.2</ele>
        <time>2020-06-17T18:55:43Z</time>
      </trkpt>
      <trkpt lat="49.69844" lon="0.20191">
        <ele>68.3</ele>
        <time>2020-06-17T18:55:44Z</time>
      </trkpt>
      <trkpt lat="49.69854" lon="0.2018">
        <ele>67.4</ele>
        <time>2020-06-17T18:55:45Z</time>
      </trkpt>
      <trkpt lat="49.69864" lon="0.2017">
        <ele>66.5</ele>
        <time>2020-06-17T18:55:46Z</time>
      </trkpt>
      <trkpt lat="49.69873" lon="0.20162">
        <ele>65.8</ele>
        <time>2020-06-17T18:55:47Z</time>
      </trkpt>
      <trkpt lat="49.69881" lon="0.20154">
        <ele>65</ele>
        <time>2020-06-17T18:55:48Z</time>
      </trkpt>
      <trkpt lat="49.6989" lon="0.20147">
        <ele>64.3</ele>
        <time>2020-06-17T18:55:49Z</time>
      </trkpt>
      <trkpt lat="49.69898" lon="0.20139">
        <ele>63.5</ele>
        <time>2020-06-17T18:55:50Z</time>
      </trkpt>
      <trkpt lat="49.69906" lon="0.20132">
        <ele>62.7</ele>
        <time>2020-06-17T18:55:51Z</time>
      </trkpt>
      <trkpt lat="49.69913" lon="0.20126">
        <ele>62</ele>
        <time>2020-06-17T18:55:52Z</time>
      </trkpt>
      <trkpt lat="49.69921" lon="0.20119">
        <ele>61.3</ele>
        <time>2020-06-17T18:55:53Z</time>
      </trkpt>
      <trkpt lat="49.69929" lon="0.20111">
        <ele>60.6</ele>
        <time>2020-06-17T18:55:54Z</time>
      </trkpt>
      <trkpt lat="49.69937" lon="0.20104">
        <ele>59.9</ele>
        <time>2020-06-17T18:55:55Z</time>
      </trkpt>
      <trkpt lat="49.69945" lon="0.20097">
        <ele>59.2</ele>
        <time>2020-06-17T18:55:56Z</time>
      </trkpt>
      <trkpt lat="49.69952" lon="0.20091">
        <ele>58.7</ele>
        <time>2020-06-17T18:55:57Z</time>
      </trkpt>
      <trkpt lat="49.6996" lon="0.20086">
        <ele>58.1</ele>
        <time>2020-06-17T18:55:58Z</time>
      </trkpt>
      <trkpt lat="49.69967" lon="0.2008">
        <ele>57.5</ele>
        <time>2020-06-17T18:55:59Z</time>
      </trkpt>
      <trkpt lat="49.69974" lon="0.20073">
        <ele>56.9</ele>
        <time>2020-06-17T18:56:00Z</time>
      </trkpt>
      <trkpt lat="49.69982" lon="0.20067">
        <ele>56.2</ele>
        <time>2020-06-17T18:56:01Z</time>
      </trkpt>
      <trkpt lat="49.69988" lon="0.20062">
        <ele>55.7</ele>
        <time>2020-06-17T18:56:02Z</time>
      </trkpt>
      <trkpt lat="49.69995" lon="0.20058">
        <ele>55.2</ele>
        <time>2020-06-17T18:56:03Z</time>
      </trkpt>
      <trkpt lat="49.70001" lon="0.20052">
        <ele>54.6</ele>
        <time>2020-06-17T18:56:04Z</time>
      </trkpt>
      <trkpt lat="49.70008" lon="0.20047">
        <ele>54</ele>
        <time>2020-06-17T18:56:05Z</time>
      </trkpt>
      <trkpt lat="49.70014" lon="0.2004">
        <ele>53.5</ele>
        <time>2020-06-17T18:56:06Z</time>
      </trkpt>
      <trkpt lat="49.70021" lon="0.20034">
        <ele>52.9</ele>
        <time>2020-06-17T18:56:07Z</time>
      </trkpt>
      <trkpt lat="49.70028" lon="0.20028">
        <ele>52.2</ele>
        <time>2020-06-17T18:56:08Z</time>
      </trkpt>
      <trkpt lat="49.70036" lon="0.20023">
        <ele>51.5</ele>
        <time>2020-06-17T18:56:09Z</time>
      </trkpt>
      <trkpt lat="49.70043" lon="0.20019">
        <ele>50.9</ele>
        <time>2020-06-17T18:56:10Z</time>
      </trkpt>
      <trkpt lat="49.70051" lon="0.20016">
        <ele>50.2</ele>
        <time>2020-06-17T18:56:11Z</time>
      </trkpt>
      <trkpt lat="49.70059" lon="0.20014">
        <ele>49.6</ele>
        <time>2020-06-17T18:56:12Z</time>
      </trkpt>
      <trkpt lat="49.70067" lon="0.20011">
        <ele>48.9</ele>
        <time>2020-06-17T18:56:13Z</time>
      </trkpt>
      <trkpt lat="49.70075" lon="0.20009">
        <ele>48.3</ele>
        <time>2020-06-17T18:56:14Z</time>
      </trkpt>
      <trkpt lat="49.70083" lon="0.20006">
        <ele>47.6</ele>
        <time>2020-06-17T18:56:15Z</time>
      </trkpt>
      <trkpt lat="49.7009" lon="0.20002">
        <ele>46.9</ele>
        <time>2020-06-17T18:56:16Z</time>
      </trkpt>
      <trkpt lat="49.70098" lon="0.20001">
        <ele>46.1</ele>
        <time>2020-06-17T18:56:17Z</time>
      </trkpt>
      <trkpt lat="49.70106" lon="0.2">
        <ele>45.5</ele>
        <time>2020-06-17T18:56:18Z</time>
      </trkpt>
      <trkpt lat="49.70115" lon="0.20001">
        <ele>44.9</ele>
        <time>2020-06-17T18:56:19Z</time>
      </trkpt>
      <trkpt lat="49.70123" lon="0.20001">
        <ele>44.3</ele>
        <time>2020-06-17T18:56:20Z</time>
      </trkpt>
      <trkpt lat="49.70133" lon="0.20004">
        <ele>43.6</ele>
        <time>2020-06-17T18:56:21Z</time>
      </trkpt>
      <trkpt lat="49.70141" lon="0.20005">
        <ele>43</ele>
        <time>2020-06-17T18:56:22Z</time>
      </trkpt>
      <trkpt lat="49.70151" lon="0.20006">
        <ele>42.3</ele>
        <time>2020-06-17T18:56:23Z</time>
      </trkpt>
      <trkpt lat="49.70161" lon="0.20008">
        <ele>41.6</ele>
        <time>2020-06-17T18:56:24Z</time>
      </trkpt>
      <trkpt lat="49.70171" lon="0.20009">
        <ele>40.9</ele>
        <time>2020-06-17T18:56:25Z</time>
      </trkpt>
      <trkpt lat="49.70181" lon="0.2001">
        <ele>40.2</ele>
        <time>2020-06-17T18:56:26Z</time>
      </trkpt>
      <trkpt lat="49.7019" lon="0.20012">
        <ele>39.5</ele>
        <time>2020-06-17T18:56:27Z</time>
      </trkpt>
      <trkpt lat="49.702" lon="0.20014">
        <ele>38.8</ele>
        <time>2020-06-17T18:56:28Z</time>
      </trkpt>
      <trkpt lat="49.7021" lon="0.20018">
        <ele>38</ele>
        <time>2020-06-17T18:56:29Z</time>
      </trkpt>
      <trkpt lat="49.7022" lon="0.2002">
        <ele>37.3</ele>
        <time>2020-06-17T18:56:30Z</time>
      </trkpt>
      <trkpt lat="49.7023" lon="0.20021">
        <ele>36.7</ele>
        <time>2020-06-17T18:56:31Z</time>
      </trkpt>
      <trkpt lat="49.7024" lon="0.20023">
        <ele>36</ele>
        <time>2020-06-17T18:56:32Z</time>
      </trkpt>
      <trkpt lat="49.70249" lon="0.20024">
        <ele>35.4</ele>
        <time>2020-06-17T18:56:33Z</time>
      </trkpt>
      <trkpt lat="49.70259" lon="0.20026">
        <ele>34.8</ele>
        <time>2020-06-17T18:56:34Z</time>
      </trkpt>
      <trkpt lat="49.70267" lon="0.20028">
        <ele>34.3</ele>
        <time>2020-06-17T18:56:35Z</time>
      </trkpt>
      <trkpt lat="49.70277" lon="0.20029">
        <ele>33.8</ele>
        <time>2020-06-17T18:56:36Z</time>
      </trkpt>
      <trkpt lat="49.70286" lon="0.2003">
        <ele>33.3</ele>
        <time>2020-06-17T18:56:37Z</time>
      </trkpt>
      <trkpt lat="49.70296" lon="0.2003">
        <ele>32.8</ele>
        <time>2020-06-17T18:56:38Z</time>
      </trkpt>
      <trkpt lat="49.70304" lon="0.20031">
        <ele>32.4</ele>
        <time>2020-06-17T18:56:39Z</time>
      </trkpt>
      <trkpt lat="49.70312" lon="0.20033">
        <ele>31.9</ele>
        <time>2020-06-17T18:56:40Z</time>
      </trkpt>
      <trkpt lat="49.7032" lon="0.20035">
        <ele>31.5</ele>
        <time>2020-06-17T18:56:41Z</time>
      </trkpt>
      <trkpt lat="49.70327" lon="0.20038">
        <ele>31.1</ele>
        <time>2020-06-17T18:56:42Z</time>
      </trkpt>
      <trkpt lat="49.70335" lon="0.2004">
        <ele>30.6</ele>
        <time>2020-06-17T18:56:43Z</time>
      </trkpt>
      <trkpt lat="49.70342" lon="0.20043">
        <ele>30.1</ele>
        <time>2020-06-17T18:56:44Z</time>
      </trkpt>
      <trkpt lat="49.70349" lon="0.20049">
        <ele>29.5</ele>
        <time>2020-06-17T18:56:45Z</time>
      </trkpt>
      <trkpt lat="49.70356" lon="0.20056">
        <ele>29</ele>
        <time>2020-06-17T18:56:46Z</time>
      </trkpt>
      <trkpt lat="49.70362" lon="0.20062">
        <ele>28.4</ele>
        <time>2020-06-17T18:56:47Z</time>
      </trkpt>
      <trkpt lat="49.70369" lon="0.20069">
        <ele>27.9</ele>
        <time>2020-06-17T18:56:48Z</time>
      </trkpt>
      <trkpt lat="49.70375" lon="0.20075">
        <ele>27.4</ele>
        <time>2020-06-17T18:56:49Z</time>
      </trkpt>
      <trkpt lat="49.70382" lon="0.20082">
        <ele>26.9</ele>
        <time>2020-06-17T18:56:50Z</time>
      </trkpt>
      <trkpt lat="49.70388" lon="0.2009">
        <ele>26.4</ele>
        <time>2020-06-17T18:56:51Z</time>
      </trkpt>
      <trkpt lat="49.70395" lon="0.20098">
        <ele>26</ele>
        <time>2020-06-17T18:56:52Z</time>
      </trkpt>
      <trkpt lat="49.70401" lon="0.20105">
        <ele>25.5</ele>
        <time>2020-06-17T18:56:53Z</time>
      </trkpt>
      <trkpt lat="49.70408" lon="0.20112">
        <ele>25</ele>
        <time>2020-06-17T18:56:54Z</time>
      </trkpt>
      <trkpt lat="49.70414" lon="0.20119">
        <ele>24.5</ele>
        <time>2020-06-17T18:56:55Z</time>
      </trkpt>
      <trkpt lat="49.70421" lon="0.20126">
        <ele>24</ele>
        <time>2020-06-17T18:56:56Z</time>
      </trkpt>
      <trkpt lat="49.70428" lon="0.20133">
        <ele>23.5</ele>
        <time>2020-06-17T18:56:57Z</time>
      </trkpt>
      <trkpt lat="49.70435" lon="0.20142">
        <ele>22.9</ele>
        <time>2020-06-17T18:56:58Z</time>
      </trkpt>
      <trkpt lat="49.70443" lon="0.20149">
        <ele>22.3</ele>
        <time>2020-06-17T18:56:59Z</time>
      </trkpt>
      <trkpt lat="49.70449" lon="0.20158">
        <ele>21.8</ele>
        <time>2020-06-17T18:57:00Z</time>
      </trkpt>
      <trkpt lat="49.70455" lon="0.20166">
        <ele>21.3</ele>
        <time>2020-06-17T18:57:01Z</time>
      </trkpt>
      <trkpt lat="49.70461" lon="0.20175">
        <ele>20.8</ele>
        <time>2020-06-17T18:57:02Z</time>
      </trkpt>
      <trkpt lat="49.70467" lon="0.20183">
        <ele>20.4</ele>
        <time>2020-06-17T18:57:03Z</time>
      </trkpt>
      <trkpt lat="49.70473" lon="0.20189">
        <ele>20</ele>
        <time>2020-06-17T18:57:04Z</time>
      </trkpt>
      <trkpt lat="49.70479" lon="0.20198">
        <ele>19.6</ele>
        <time>2020-06-17T18:57:05Z</time>
      </trkpt>
      <trkpt lat="49.70485" lon="0.20203">
        <ele>19.2</ele>
        <time>2020-06-17T18:57:06Z</time>
      </trkpt>
      <trkpt lat="49.70492" lon="0.20208">
        <ele>18.8</ele>
        <time>2020-06-17T18:57:07Z</time>
      </trkpt>
      <trkpt lat="49.70498" lon="0.20213">
        <ele>18.4</ele>
        <time>2020-06-17T18:57:08Z</time>
      </trkpt>
      <trkpt lat="49.70505" lon="0.20219">
        <ele>18</ele>
        <time>2020-06-17T18:57:09Z</time>
      </trkpt>
      <trkpt lat="49.70512" lon="0.20223">
        <ele>17.6</ele>
        <time>2020-06-17T18:57:10Z</time>
      </trkpt>
      <trkpt lat="49.70519" lon="0.20228">
        <ele>17.2</ele>
        <time>2020-06-17T18:57:11Z</time>
      </trkpt>
      <trkpt lat="49.70525" lon="0.20234">
        <ele>16.8</ele>
        <time>2020-06-17T18:57:12Z</time>
      </trkpt>
      <trkpt lat="49.7053" lon="0.20241">
        <ele>16.2</ele>
        <time>2020-06-17T18:57:13Z</time>
      </trkpt>
      <trkpt lat="49.70536" lon="0.20247">
        <ele>16.2</ele>
        <time>2020-06-17T18:57:14Z</time>
      </trkpt>
      <trkpt lat="49.70541" lon="0.20254">
        <ele>16</ele>
        <time>2020-06-17T18:57:15Z</time>
      </trkpt>
      <trkpt lat="49.70547" lon="0.2026">
        <ele>15.9</ele>
        <time>2020-06-17T18:57:16Z</time>
      </trkpt>
      <trkpt lat="49.70552" lon="0.20266">
        <ele>15.7</ele>
        <time>2020-06-17T18:57:17Z</time>
      </trkpt>
      <trkpt lat="49.70556" lon="0.20272">
        <ele>15.5</ele>
        <time>2020-06-17T18:57:18Z</time>
      </trkpt>
      <trkpt lat="49.7056" lon="0.20276">
        <ele>15.4</ele>
        <time>2020-06-17T18:57:19Z</time>
      </trkpt>
      <trkpt lat="49.70563" lon="0.20281">
        <ele>15.3</ele>
        <time>2020-06-17T18:57:20Z</time>
      </trkpt>
      <trkpt lat="49.70564" lon="0.20286">
        <ele>15.2</ele>
        <time>2020-06-17T18:57:21Z</time>
      </trkpt>
      <trkpt lat="49.70566" lon="0.20289">
        <ele>15.1</ele>
        <time>2020-06-17T18:57:22Z</time>
      </trkpt>
      <trkpt lat="49.7057" lon="0.20293">
        <ele>14.9</ele>
        <time>2020-06-17T18:57:23Z</time>
      </trkpt>
      <trkpt lat="49.70571" lon="0.20295">
        <ele>14.8</ele>
        <time>2020-06-17T18:57:24Z</time>
      </trkpt>
      <trkpt lat="49.70573" lon="0.20299">
        <ele>14.7</ele>
        <time>2020-06-17T18:57:25Z</time>
      </trkpt>
      <trkpt lat="49.70574" lon="0.203">
        <ele>14.7</ele>
        <time>2020-06-17T18:57:26Z</time>
      </trkpt>
      <trkpt lat="49.70575" lon="0.20303">
        <ele>14.6</ele>
        <time>2020-06-17T18:57:27Z</time>
      </trkpt>
      <trkpt lat="49.70575" lon="0.20305">
        <ele>14.5</ele>
        <time>2020-06-17T18:57:28Z</time>
      </trkpt>
      <trkpt lat="49.70575" lon="0.20306">
        <ele>14.5</ele>
        <time>2020-06-17T18:57:29Z</time>
      </trkpt>
      <trkpt lat="49.70575" lon="0.20305">
        <ele>14.5</ele>
        <time>2020-06-17T18:57:30Z</time>
      </trkpt>
      <trkpt lat="49.70575" lon="0.20306">
        <ele>14.4</ele>
        <time>2020-06-17T18:57:31Z</time>
      </trkpt>
      <trkpt lat="49.70576" lon="0.20307">
        <ele>14.4</ele>
        <time>2020-06-17T18:57:32Z</time>
      </trkpt>
      <trkpt lat="49.70576" lon="0.20309">
        <ele>14.4</ele>
        <time>2020-06-17T18:57:33Z</time>
      </trkpt>
      <trkpt lat="49.70577" lon="0.20309">
        <ele>14.3</ele>
        <time>2020-06-17T18:57:34Z</time>
      </trkpt>
      <trkpt lat="49.70578" lon="0.20312">
        <ele>14.2</ele>
        <time>2020-06-17T18:57:35Z</time>
      </trkpt>
      <trkpt lat="49.70579" lon="0.20313">
        <ele>14.2</ele>
        <time>2020-06-17T18:57:36Z</time>
      </trkpt>
      <trkpt lat="49.7058" lon="0.20314">
        <ele>14.1</ele>
        <time>2020-06-17T18:57:37Z</time>
      </trkpt>
      <trkpt lat="49.70584" lon="0.20314">
        <ele>13.9</ele>
        <time>2020-06-17T18:57:38Z</time>
      </trkpt>
      <trkpt lat="49.70586" lon="0.20313">
        <ele>13.9</ele>
        <time>2020-06-17T18:57:39Z</time>
      </trkpt>
      <trkpt lat="49.7059" lon="0.20313">
        <ele>13.8</ele>
        <time>2020-06-17T18:57:40Z</time>
      </trkpt>
      <trkpt lat="49.70594" lon="0.20312">
        <ele>13.6</ele>
        <time>2020-06-17T18:57:41Z</time>
      </trkpt>
      <trkpt lat="49.70598" lon="0.2031">
        <ele>13.4</ele>
        <time>2020-06-17T18:57:42Z</time>
      </trkpt>
      <trkpt lat="49.70601" lon="0.20307">
        <ele>13.3</ele>
        <time>2020-06-17T18:57:43Z</time>
      </trkpt>
      <trkpt lat="49.70605" lon="0.20304">
        <ele>13.1</ele>
        <time>2020-06-17T18:57:44Z</time>
      </trkpt>
      <trkpt lat="49.7061" lon="0.20301">
        <ele>12.9</ele>
        <time>2020-06-17T18:57:45Z</time>
      </trkpt>
      <trkpt lat="49.70614" lon="0.203">
        <ele>12.8</ele>
        <time>2020-06-17T18:57:46Z</time>
      </trkpt>
      <trkpt lat="49.70619" lon="0.20298">
        <ele>12.6</ele>
        <time>2020-06-17T18:57:47Z</time>
      </trkpt>
      <trkpt lat="49.70623" lon="0.20295">
        <ele>12.5</ele>
        <time>2020-06-17T18:57:48Z</time>
      </trkpt>
      <trkpt lat="49.70626" lon="0.20295">
        <ele>12.4</ele>
        <time>2020-06-17T18:57:49Z</time>
      </trkpt>
      <trkpt lat="49.7063" lon="0.20296">
        <ele>12.2</ele>
        <time>2020-06-17T18:57:50Z</time>
      </trkpt>
      <trkpt lat="49.70635" lon="0.20296">
        <ele>12</ele>
        <time>2020-06-17T18:57:51Z</time>
      </trkpt>
      <trkpt lat="49.70638" lon="0.20295">
        <ele>11.9</ele>
        <time>2020-06-17T18:57:52Z</time>
      </trkpt>
      <trkpt lat="49.70642" lon="0.20295">
        <ele>11.7</ele>
        <time>2020-06-17T18:57:53Z</time>
      </trkpt>
      <trkpt lat="49.70644" lon="0.20293">
        <ele>11.6</ele>
        <time>2020-06-17T18:57:54Z</time>
      </trkpt>
      <trkpt lat="49.70647" lon="0.20292">
        <ele>11.4</ele>
        <time>2020-06-17T18:57:55Z</time>
      </trkpt>
      <trkpt lat="49.7065" lon="0.20289">
        <ele>11.3</ele>
        <time>2020-06-17T18:57:56Z</time>
      </trkpt>
      <trkpt lat="49.7065" lon="0.20287">
        <ele>11.2</ele>
        <time>2020-06-17T18:57:57Z</time>
      </trkpt>
      <trkpt lat="49.70654" lon="0.20285">
        <ele>11</ele>
        <time>2020-06-17T18:57:58Z</time>
      </trkpt>
      <trkpt lat="49.70656" lon="0.20284">
        <ele>10.9</ele>
        <time>2020-06-17T18:57:59Z</time>
      </trkpt>
      <trkpt lat="49.70659" lon="0.20281">
        <ele>10.7</ele>
        <time>2020-06-17T18:58:00Z</time>
      </trkpt>
      <trkpt lat="49.70661" lon="0.20278">
        <ele>10.6</ele>
        <time>2020-06-17T18:58:01Z</time>
      </trkpt>
      <trkpt lat="49.70664" lon="0.20275">
        <ele>10.4</ele>
        <time>2020-06-17T18:58:02Z</time>
      </trkpt>
      <trkpt lat="49.70666" lon="0.20271">
        <ele>9.8</ele>
        <time>2020-06-17T18:58:03Z</time>
      </trkpt>
      <trkpt lat="49.70669" lon="0.20267">
        <ele>9.7</ele>
        <time>2020-06-17T18:58:04Z</time>
      </trkpt>
      <trkpt lat="49.70671" lon="0.20263">
        <ele>9.6</ele>
        <time>2020-06-17T18:58:05Z</time>
      </trkpt>
      <trkpt lat="49.70673" lon="0.20258">
        <ele>9.4</ele>
        <time>2020-06-17T18:58:06Z</time>
      </trkpt>
      <trkpt lat="49.70675" lon="0.20257">
        <ele>9.4</ele>
        <time>2020-06-17T18:58:07Z</time>
      </trkpt>
      <trkpt lat="49.70677" lon="0.20252">
        <ele>9.3</ele>
        <time>2020-06-17T18:58:08Z</time>
      </trkpt>
      <trkpt lat="49.7068" lon="0.20248">
        <ele>9.1</ele>
        <time>2020-06-17T18:58:09Z</time>
      </trkpt>
      <trkpt lat="49.70681" lon="0.20243">
        <ele>9</ele>
        <time>2020-06-17T18:58:10Z</time>
      </trkpt>
      <trkpt lat="49.70684" lon="0.20239">
        <ele>9</ele>
        <time>2020-06-17T18:58:11Z</time>
      </trkpt>
      <trkpt lat="49.70689" lon="0.20234">
        <ele>8.9</ele>
        <time>2020-06-17T18:58:12Z</time>
      </trkpt>
      <trkpt lat="49.70694" lon="0.20229">
        <ele>8.8</ele>
        <time>2020-06-17T18:58:13Z</time>
      </trkpt>
      <trkpt lat="49.70701" lon="0.2022">
        <ele>8.6</ele>
        <time>2020-06-17T18:58:14Z</time>
      </trkpt>
      <trkpt lat="49.70706" lon="0.20212">
        <ele>8.5</ele>
        <time>2020-06-17T18:58:15Z</time>
      </trkpt>
      <trkpt lat="49.70708" lon="0.20206">
        <ele>8.4</ele>
        <time>2020-06-17T18:58:16Z</time>
      </trkpt>
      <trkpt lat="49.7071" lon="0.202">
        <ele>8.3</ele>
        <time>2020-06-17T18:58:17Z</time>
      </trkpt>
      <trkpt lat="49.70711" lon="0.20194">
        <ele>8.3</ele>
        <time>2020-06-17T18:58:18Z</time>
      </trkpt>
      <trkpt lat="49.70712" lon="0.20192">
        <ele>8.3</ele>
        <time>2020-06-17T18:58:19Z</time>
      </trkpt>
      <trkpt lat="49.70715" lon="0.20186">
        <ele>8.2</ele>
        <time>2020-06-17T18:58:20Z</time>
      </trkpt>
      <trkpt lat="49.70716" lon="0.20181">
        <ele>8.2</ele>
        <time>2020-06-17T18:58:21Z</time>
      </trkpt>
      <trkpt lat="49.70718" lon="0.20176">
        <ele>8.2</ele>
        <time>2020-06-17T18:58:22Z</time>
      </trkpt>
      <trkpt lat="49.70721" lon="0.20168">
        <ele>8.2</ele>
        <time>2020-06-17T18:58:23Z</time>
      </trkpt>
      <trkpt lat="49.70723" lon="0.20163">
        <ele>8.2</ele>
        <time>2020-06-17T18:58:24Z</time>
      </trkpt>
      <trkpt lat="49.70725" lon="0.20159">
        <ele>8.2</ele>
        <time>2020-06-17T18:58:25Z</time>
      </trkpt>
      <trkpt lat="49.70727" lon="0.20155">
        <ele>8.2</ele>
        <time>2020-06-17T18:58:26Z</time>
      </trkpt>
      <trkpt lat="49.70728" lon="0.2015">
        <ele>8.3</ele>
        <time>2020-06-17T18:58:27Z</time>
      </trkpt>
      <trkpt lat="49.70729" lon="0.20146">
        <ele>8.3</ele>
        <time>2020-06-17T18:58:28Z</time>
      </trkpt>
      <trkpt lat="49.7073" lon="0.20143">
        <ele>8.4</ele>
        <time>2020-06-17T18:58:29Z</time>
      </trkpt>
      <trkpt lat="49.70732" lon="0.20139">
        <ele>8.4</ele>
        <time>2020-06-17T18:58:30Z</time>
      </trkpt>
      <trkpt lat="49.70734" lon="0.20134">
        <ele>8.5</ele>
        <time>2020-06-17T18:58:31Z</time>
      </trkpt>
      <trkpt lat="49.70736" lon="0.20129">
        <ele>8.5</ele>
        <time>2020-06-17T18:58:32Z</time>
      </trkpt>
      <trkpt lat="49.70739" lon="0.20124">
        <ele>8.6</ele>
        <time>2020-06-17T18:58:33Z</time>
      </trkpt>
      <trkpt lat="49.70741" lon="0.2012">
        <ele>8.6</ele>
        <time>2020-06-17T18:58:34Z</time>
      </trkpt>
      <trkpt lat="49.70743" lon="0.20118">
        <ele>9</ele>
        <time>2020-06-17T18:58:35Z</time>
      </trkpt>
      <trkpt lat="49.70745" lon="0.20113">
        <ele>9</ele>
        <time>2020-06-17T18:58:36Z</time>
      </trkpt>
      <trkpt lat="49.70748" lon="0.20108">
        <ele>9</ele>
        <time>2020-06-17T18:58:37Z</time>
      </trkpt>
      <trkpt lat="49.70749" lon="0.20105">
        <ele>9</ele>
        <time>2020-06-17T18:58:38Z</time>
      </trkpt>
      <trkpt lat="49.70751" lon="0.20101">
        <ele>9</ele>
        <time>2020-06-17T18:58:39Z</time>
      </trkpt>
      <trkpt lat="49.70751" lon="0.201">
        <ele>9</ele>
        <time>2020-06-17T18:58:40Z</time>
      </trkpt>
      <trkpt lat="49.70753" lon="0.20097">
        <ele>9</ele>
        <time>2020-06-17T18:58:41Z</time>
      </trkpt>
      <trkpt lat="49.70754" lon="0.20096">
        <ele>9</ele>
        <time>2020-06-17T18:58:42Z</time>
      </trkpt>
      <trkpt lat="49.70755" lon="0.20094">
        <ele>8.8</ele>
        <time>2020-06-17T18:58:43Z</time>
      </trkpt>
      <trkpt lat="49.70757" lon="0.20095">
        <ele>8.8</ele>
        <time>2020-06-17T18:58:44Z</time>
      </trkpt>
      <trkpt lat="49.70758" lon="0.20094">
        <ele>8.8</ele>
        <time>2020-06-17T18:58:45Z</time>
      </trkpt>
      <trkpt lat="49.7076" lon="0.20093">
        <ele>8.8</ele>
        <time>2020-06-17T18:58:46Z</time>
      </trkpt>
      <trkpt lat="49.70761" lon="0.20092">
        <ele>8.8</ele>
        <time>2020-06-17T18:58:47Z</time>
      </trkpt>
      <trkpt lat="49.70762" lon="0.2009">
        <ele>8.8</ele>
        <time>2020-06-17T18:58:48Z</time>
      </trkpt>
      <trkpt lat="49.70764" lon="0.20086">
        <ele>8.8</ele>
        <time>2020-06-17T18:58:49Z</time>
      </trkpt>
      <trkpt lat="49.70764" lon="0.20084">
        <ele>8.8</ele>
        <time>2020-06-17T18:58:50Z</time>
      </trkpt>
      <trkpt lat="49.70765" lon="0.20082">
        <ele>8.8</ele>
        <time>2020-06-17T18:58:51Z</time>
      </trkpt>
      <trkpt lat="49.70765" lon="0.2008">
        <ele>8.8</ele>
        <time>2020-06-17T18:58:52Z</time>
      </trkpt>
      <trkpt lat="49.70765" lon="0.2008">
        <ele>8.8</ele>
        <time>2020-06-17T18:58:53Z</time>
      </trkpt>
      <trkpt lat="49.70766" lon="0.2008">
        <ele>8.8</ele>
        <time>2020-06-17T18:58:54Z</time>
      </trkpt>
      <trkpt lat="49.70766" lon="0.20081">
        <ele>8.8</ele>
        <time>2020-06-17T18:58:55Z</time>
      </trkpt>
      <trkpt lat="49.70766" lon="0.20082">
        <ele>8.8</ele>
        <time>2020-06-17T18:58:56Z</time>
      </trkpt>
      <trkpt lat="49.70766" lon="0.20082">
        <ele>8.8</ele>
        <time>2020-06-17T18:58:57Z</time>
      </trkpt>
      <trkpt lat="49.70767" lon="0.20083">
        <ele>8.8</ele>
        <time>2020-06-17T18:58:58Z</time>
      </trkpt>
      <trkpt lat="49.70767" lon="0.20084">
        <ele>8.8</ele>
        <time>2020-06-17T18:58:59Z</time>
      </trkpt>
      <trkpt lat="49.70767" lon="0.20084">
        <ele>8.8</ele>
        <time>2020-06-17T18:59:00Z</time>
      </trkpt>
      <trkpt lat="49.70768" lon="0.20085">
        <ele>8.8</ele>
        <time>2020-06-17T18:59:01Z</time>
      </trkpt>
      <trkpt lat="49.70768" lon="0.20086">
        <ele>8.8</ele>
        <time>2020-06-17T18:59:02Z</time>
      </trkpt>
      <trkpt lat="49.70768" lon="0.20086">
        <ele>8.8</ele>
        <time>2020-06-17T18:59:03Z</time>
      </trkpt>
      <trkpt lat="49.70768" lon="0.20087">
        <ele>8.8</ele>
        <time>2020-06-17T18:59:04Z</time>
      </trkpt>
      <trkpt lat="49.70769" lon="0.20088">
        <ele>8.8</ele>
        <time>2020-06-17T18:59:05Z</time>
      </trkpt>
      <trkpt lat="49.70769" lon="0.20088">
        <ele>8.8</ele>
        <time>2020-06-17T18:59:06Z</time>
      </trkpt>
      <trkpt lat="49.70769" lon="0.20089">
        <ele>8.8</ele>
        <time>2020-06-17T19:02:44Z</time>
      </trkpt>
      <trkpt lat="49.7077" lon="0.20089">
        <ele>8.8</ele>
        <time>2020-06-17T19:02:45Z</time>
      </trkpt>
      <trkpt lat="49.7077" lon="0.2009">
        <ele>8.8</ele>
        <time>2020-06-17T19:02:46Z</time>
      </trkpt>
      <trkpt lat="49.70769" lon="0.20092">
        <ele>8.8</ele>
        <time>2020-06-17T19:02:47Z</time>
      </trkpt>
      <trkpt lat="49.70768" lon="0.20093">
        <ele>8.8</ele>
        <time>2020-06-17T19:02:48Z</time>
      </trkpt>
      <trkpt lat="49.70767" lon="0.20093">
        <ele>8.8</ele>
        <time>2020-06-17T19:02:49Z</time>
      </trkpt>
      <trkpt lat="49.70767" lon="0.20093">
        <ele>8.8</ele>
        <time>2020-06-17T19:02:50Z</time>
      </trkpt>
      <trkpt lat="49.70766" lon="0.20092">
        <ele>8.8</ele>
        <time>2020-06-17T19:02:51Z</time>
      </trkpt>
      <trkpt lat="49.70765" lon="0.20093">
        <ele>8.8</ele>
        <time>2020-06-17T19:02:52Z</time>
      </trkpt>
      <trkpt lat="49.70764" lon="0.20093">
        <ele>8.8</ele>
        <time>2020-06-17T19:02:53Z</time>
      </trkpt>
      <trkpt lat="49.70762" lon="0.20093">
        <ele>8.8</ele>
        <time>2020-06-17T19:02:54Z</time>
      </trkpt>
      <trkpt lat="49.70761" lon="0.20094">
        <ele>8.8</ele>
        <time>2020-06-17T19:02:55Z</time>
      </trkpt>
      <trkpt lat="49.70759" lon="0.20095">
        <ele>8.8</ele>
        <time>2020-06-17T19:02:56Z</time>
      </trkpt>
      <trkpt lat="49.70757" lon="0.20096">
        <ele>8.8</ele>
        <time>2020-06-17T19:02:57Z</time>
      </trkpt>
      <trkpt lat="49.70756" lon="0.20095">
        <ele>8.8</ele>
        <time>2020-06-17T19:02:58Z</time>
      </trkpt>
      <trkpt lat="49.70754" lon="0.20095">
        <ele>8.8</ele>
        <time>2020-06-17T19:02:59Z</time>
      </trkpt>
      <trkpt lat="49.70751" lon="0.20096">
        <ele>9</ele>
        <time>2020-06-17T19:03:00Z</time>
      </trkpt>
      <trkpt lat="49.70748" lon="0.20098">
        <ele>9</ele>
        <time>2020-06-17T19:03:01Z</time>
      </trkpt>
      <trkpt lat="49.70746" lon="0.20103">
        <ele>9</ele>
        <time>2020-06-17T19:03:02Z</time>
      </trkpt>
      <trkpt lat="49.70745" lon="0.20105">
        <ele>9</ele>
        <time>2020-06-17T19:03:03Z</time>
      </trkpt>
      <trkpt lat="49.70744" lon="0.2011">
        <ele>9</ele>
        <time>2020-06-17T19:03:04Z</time>
      </trkpt>
      <trkpt lat="49.70744" lon="0.20117">
        <ele>9</ele>
        <time>2020-06-17T19:03:05Z</time>
      </trkpt>
      <trkpt lat="49.70746" lon="0.20124">
        <ele>8.9</ele>
        <time>2020-06-17T19:03:06Z</time>
      </trkpt>
      <trkpt lat="49.70748" lon="0.20129">
        <ele>8.8</ele>
        <time>2020-06-17T19:03:07Z</time>
      </trkpt>
      <trkpt lat="49.70749" lon="0.2013">
        <ele>8.8</ele>
        <time>2020-06-17T19:03:08Z</time>
      </trkpt>
      <trkpt lat="49.70751" lon="0.20133">
        <ele>8.7</ele>
        <time>2020-06-17T19:03:09Z</time>
      </trkpt>
      <trkpt lat="49.70753" lon="0.20139">
        <ele>8.7</ele>
        <time>2020-06-17T19:03:10Z</time>
      </trkpt>
      <trkpt lat="49.70756" lon="0.20144">
        <ele>8.6</ele>
        <time>2020-06-17T19:03:11Z</time>
      </trkpt>
      <trkpt lat="49.70756" lon="0.20146">
        <ele>8.6</ele>
        <time>2020-06-17T19:03:12Z</time>
      </trkpt>
      <trkpt lat="49.70759" lon="0.20149">
        <ele>8.6</ele>
        <time>2020-06-17T19:03:13Z</time>
      </trkpt>
      <trkpt lat="49.7076" lon="0.2015">
        <ele>8.6</ele>
        <time>2020-06-17T19:03:14Z</time>
      </trkpt>
      <trkpt lat="49.70762" lon="0.20155">
        <ele>8.6</ele>
        <time>2020-06-17T19:03:15Z</time>
      </trkpt>
      <trkpt lat="49.70763" lon="0.20157">
        <ele>8.6</ele>
        <time>2020-06-17T19:03:16Z</time>
      </trkpt>
      <trkpt lat="49.70765" lon="0.20161">
        <ele>8.6</ele>
        <time>2020-06-17T19:03:17Z</time>
      </trkpt>
      <trkpt lat="49.70766" lon="0.20163">
        <ele>8.5</ele>
        <time>2020-06-17T19:03:18Z</time>
      </trkpt>
      <trkpt lat="49.70768" lon="0.20167">
        <ele>8.5</ele>
        <time>2020-06-17T19:03:19Z</time>
      </trkpt>
      <trkpt lat="49.70771" lon="0.20171">
        <ele>8.6</ele>
        <time>2020-06-17T19:03:20Z</time>
      </trkpt>
      <trkpt lat="49.70771" lon="0.20173">
        <ele>8.6</ele>
        <time>2020-06-17T19:03:21Z</time>
      </trkpt>
      <trkpt lat="49.70773" lon="0.20178">
        <ele>8.6</ele>
        <time>2020-06-17T19:03:22Z</time>
      </trkpt>
      <trkpt lat="49.70774" lon="0.20179">
        <ele>8.6</ele>
        <time>2020-06-17T19:03:23Z</time>
      </trkpt>
      <trkpt lat="49.70776" lon="0.20183">
        <ele>8.6</ele>
        <time>2020-06-17T19:03:24Z</time>
      </trkpt>
      <trkpt lat="49.70777" lon="0.20185">
        <ele>8.6</ele>
        <time>2020-06-17T19:03:25Z</time>
      </trkpt>
      <trkpt lat="49.70779" lon="0.20189">
        <ele>8.6</ele>
        <time>2020-06-17T19:03:26Z</time>
      </trkpt>
      <trkpt lat="49.70779" lon="0.20191">
        <ele>8.6</ele>
        <time>2020-06-17T19:03:27Z</time>
      </trkpt>
      <trkpt lat="49.7078" lon="0.20196">
        <ele>8.6</ele>
        <time>2020-06-17T19:03:28Z</time>
      </trkpt>
      <trkpt lat="49.70781" lon="0.20197">
        <ele>8.6</ele>
        <time>2020-06-17T19:03:29Z</time>
      </trkpt>
      <trkpt lat="49.70782" lon="0.20201">
        <ele>8.6</ele>
        <time>2020-06-17T19:03:30Z</time>
      </trkpt>
      <trkpt lat="49.70784" lon="0.20206">
        <ele>8.6</ele>
        <time>2020-06-17T19:03:31Z</time>
      </trkpt>
      <trkpt lat="49.70787" lon="0.20209">
        <ele>8.6</ele>
        <time>2020-06-17T19:03:32Z</time>
      </trkpt>
      <trkpt lat="49.7079" lon="0.20212">
        <ele>8.6</ele>
        <time>2020-06-17T19:03:33Z</time>
      </trkpt>
      <trkpt lat="49.70793" lon="0.20215">
        <ele>8.5</ele>
        <time>2020-06-17T19:03:34Z</time>
      </trkpt>
      <trkpt lat="49.70794" lon="0.20217">
        <ele>8.5</ele>
        <time>2020-06-17T19:03:35Z</time>
      </trkpt>
      <trkpt lat="49.70797" lon="0.2022">
        <ele>8.5</ele>
        <time>2020-06-17T19:03:36Z</time>
      </trkpt>
      <trkpt lat="49.70799" lon="0.20224">
        <ele>8.5</ele>
        <time>2020-06-17T19:03:37Z</time>
      </trkpt>
      <trkpt lat="49.70802" lon="0.20228">
        <ele>8.4</ele>
        <time>2020-06-17T19:03:38Z</time>
      </trkpt>
      <trkpt lat="49.70805" lon="0.20232">
        <ele>8.4</ele>
        <time>2020-06-17T19:03:39Z</time>
      </trkpt>
      <trkpt lat="49.70808" lon="0.20236">
        <ele>8.4</ele>
        <time>2020-06-17T19:03:40Z</time>
      </trkpt>
      <trkpt lat="49.70808" lon="0.2024">
        <ele>8.4</ele>
        <time>2020-06-17T19:03:41Z</time>
      </trkpt>
      <trkpt lat="49.70808" lon="0.20242">
        <ele>8.4</ele>
        <time>2020-06-17T19:03:42Z</time>
      </trkpt>
      <trkpt lat="49.70809" lon="0.20248">
        <ele>8.4</ele>
        <time>2020-06-17T19:03:43Z</time>
      </trkpt>
      <trkpt lat="49.70809" lon="0.2025">
        <ele>8.3</ele>
        <time>2020-06-17T19:03:44Z</time>
      </trkpt>
      <trkpt lat="49.7081" lon="0.20253">
        <ele>8.3</ele>
        <time>2020-06-17T19:03:45Z</time>
      </trkpt>
      <trkpt lat="49.70811" lon="0.20255">
        <ele>8.3</ele>
        <time>2020-06-17T19:03:46Z</time>
      </trkpt>
      <trkpt lat="49.70812" lon="0.20258">
        <ele>8.3</ele>
        <time>2020-06-17T19:03:47Z</time>
      </trkpt>
      <trkpt lat="49.70812" lon="0.20259">
        <ele>8.3</ele>
        <time>2020-06-17T19:03:48Z</time>
      </trkpt>
      <trkpt lat="49.70814" lon="0.20264">
        <ele>8.3</ele>
        <time>2020-06-17T19:03:49Z</time>
      </trkpt>
      <trkpt lat="49.70815" lon="0.20266">
        <ele>8.3</ele>
        <time>2020-06-17T19:03:50Z</time>
      </trkpt>
      <trkpt lat="49.70817" lon="0.20271">
        <ele>8.3</ele>
        <time>2020-06-17T19:03:51Z</time>
      </trkpt>
      <trkpt lat="49.70818" lon="0.20273">
        <ele>8.3</ele>
        <time>2020-06-17T19:03:52Z</time>
      </trkpt>
      <trkpt lat="49.70821" lon="0.20276">
        <ele>8.3</ele>
        <time>2020-06-17T19:03:53Z</time>
      </trkpt>
      <trkpt lat="49.70823" lon="0.20277">
        <ele>8.3</ele>
        <time>2020-06-17T19:03:54Z</time>
      </trkpt>
      <trkpt lat="49.70824" lon="0.20279">
        <ele>8.3</ele>
        <time>2020-06-17T19:03:55Z</time>
      </trkpt>
      <trkpt lat="49.70826" lon="0.20279">
        <ele>8.3</ele>
        <time>2020-06-17T19:03:56Z</time>
      </trkpt>
      <trkpt lat="49.70828" lon="0.20281">
        <ele>8.3</ele>
        <time>2020-06-17T19:03:57Z</time>
      </trkpt>
      <trkpt lat="49.70831" lon="0.20285">
        <ele>8.3</ele>
        <time>2020-06-17T19:03:58Z</time>
      </trkpt>
      <trkpt lat="49.70834" lon="0.2029">
        <ele>8.4</ele>
        <time>2020-06-17T19:03:59Z</time>
      </trkpt>
      <trkpt lat="49.70837" lon="0.20295">
        <ele>8.4</ele>
        <time>2020-06-17T19:04:00Z</time>
      </trkpt>
      <trkpt lat="49.70837" lon="0.20296">
        <ele>8.4</ele>
        <time>2020-06-17T19:04:01Z</time>
      </trkpt>
      <trkpt lat="49.70839" lon="0.203">
        <ele>8.4</ele>
        <time>2020-06-17T19:04:02Z</time>
      </trkpt>
      <trkpt lat="49.7084" lon="0.20301">
        <ele>8.4</ele>
        <time>2020-06-17T19:04:03Z</time>
      </trkpt>
      <trkpt lat="49.70842" lon="0.20305">
        <ele>8.4</ele>
        <time>2020-06-17T19:04:04Z</time>
      </trkpt>
      <trkpt lat="49.70843" lon="0.20306">
        <ele>8.4</ele>
        <time>2020-06-17T19:04:05Z</time>
      </trkpt>
      <trkpt lat="49.70845" lon="0.2031">
        <ele>8.5</ele>
        <time>2020-06-17T19:04:06Z</time>
      </trkpt>
      <trkpt lat="49.70846" lon="0.20314">
        <ele>8.5</ele>
        <time>2020-06-17T19:04:07Z</time>
      </trkpt>
      <trkpt lat="49.70846" lon="0.20315">
        <ele>8.5</ele>
        <time>2020-06-17T19:04:08Z</time>
      </trkpt>
      <trkpt lat="49.70849" lon="0.2032">
        <ele>8.5</ele>
        <time>2020-06-17T19:04:09Z</time>
      </trkpt>
      <trkpt lat="49.70849" lon="0.20322">
        <ele>8.5</ele>
        <time>2020-06-17T19:04:10Z</time>
      </trkpt>
      <trkpt lat="49.7085" lon="0.20325">
        <ele>8.5</ele>
        <time>2020-06-17T19:04:11Z</time>
      </trkpt>
      <trkpt lat="49.7085" lon="0.20326">
        <ele>8.6</ele>
        <time>2020-06-17T19:04:12Z</time>
      </trkpt>
      <trkpt lat="49.7085" lon="0.20328">
        <ele>8.6</ele>
        <time>2020-06-17T19:04:13Z</time>
      </trkpt>
      <trkpt lat="49.70849" lon="0.20329">
        <ele>8.6</ele>
        <time>2020-06-17T19:04:14Z</time>
      </trkpt>
      <trkpt lat="49.70849" lon="0.2033">
        <ele>8.6</ele>
        <time>2020-06-17T19:04:15Z</time>
      </trkpt>
      <trkpt lat="49.70849" lon="0.2033">
        <ele>8.6</ele>
        <time>2020-06-17T19:04:16Z</time>
      </trkpt>
      <trkpt lat="49.7085" lon="0.20329">
        <ele>8.6</ele>
        <time>2020-06-17T19:04:17Z</time>
      </trkpt>
      <trkpt lat="49.70851" lon="0.20329">
        <ele>8.6</ele>
        <time>2020-06-17T19:04:18Z</time>
      </trkpt>
      <trkpt lat="49.70852" lon="0.20327">
        <ele>8.6</ele>
        <time>2020-06-17T19:04:19Z</time>
      </trkpt>
      <trkpt lat="49.70853" lon="0.20327">
        <ele>8.6</ele>
        <time>2020-06-17T19:04:20Z</time>
      </trkpt>
      <trkpt lat="49.70855" lon="0.20328">
        <ele>8.6</ele>
        <time>2020-06-17T19:04:21Z</time>
      </trkpt>
      <trkpt lat="49.70856" lon="0.2033">
        <ele>8.7</ele>
        <time>2020-06-17T19:04:22Z</time>
      </trkpt>
      <trkpt lat="49.70859" lon="0.20335">
        <ele>8.7</ele>
        <time>2020-06-17T19:04:23Z</time>
      </trkpt>
      <trkpt lat="49.70862" lon="0.20339">
        <ele>8.7</ele>
        <time>2020-06-17T19:04:24Z</time>
      </trkpt>
      <trkpt lat="49.70864" lon="0.20343">
        <ele>8.7</ele>
        <time>2020-06-17T19:04:25Z</time>
      </trkpt>
      <trkpt lat="49.70866" lon="0.20348">
        <ele>8.7</ele>
        <time>2020-06-17T19:04:26Z</time>
      </trkpt>
      <trkpt lat="49.70868" lon="0.20353">
        <ele>8.7</ele>
        <time>2020-06-17T19:04:27Z</time>
      </trkpt>
      <trkpt lat="49.7087" lon="0.20357">
        <ele>8.7</ele>
        <time>2020-06-17T19:04:28Z</time>
      </trkpt>
      <trkpt lat="49.70873" lon="0.20362">
        <ele>8.7</ele>
        <time>2020-06-17T19:04:29Z</time>
      </trkpt>
      <trkpt lat="49.70875" lon="0.20366">
        <ele>8.7</ele>
        <time>2020-06-17T19:04:30Z</time>
      </trkpt>
      <trkpt lat="49.70876" lon="0.2037">
        <ele>8.7</ele>
        <time>2020-06-17T19:04:31Z</time>
      </trkpt>
      <trkpt lat="49.70877" lon="0.20375">
        <ele>8.7</ele>
        <time>2020-06-17T19:04:32Z</time>
      </trkpt>
      <trkpt lat="49.70878" lon="0.2038">
        <ele>8.7</ele>
        <time>2020-06-17T19:04:33Z</time>
      </trkpt>
      <trkpt lat="49.70879" lon="0.20385">
        <ele>8.7</ele>
        <time>2020-06-17T19:04:34Z</time>
      </trkpt>
      <trkpt lat="49.70882" lon="0.20389">
        <ele>8.7</ele>
        <time>2020-06-17T19:04:35Z</time>
      </trkpt>
      <trkpt lat="49.70884" lon="0.20394">
        <ele>8.8</ele>
        <time>2020-06-17T19:04:36Z</time>
      </trkpt>
      <trkpt lat="49.70886" lon="0.20398">
        <ele>8.8</ele>
        <time>2020-06-17T19:04:37Z</time>
      </trkpt>
      <trkpt lat="49.70888" lon="0.20402">
        <ele>8.8</ele>
        <time>2020-06-17T19:04:38Z</time>
      </trkpt>
      <trkpt lat="49.70889" lon="0.20404">
        <ele>8.9</ele>
        <time>2020-06-17T19:04:39Z</time>
      </trkpt>
      <trkpt lat="49.70891" lon="0.20407">
        <ele>8.9</ele>
        <time>2020-06-17T19:04:40Z</time>
      </trkpt>
      <trkpt lat="49.70893" lon="0.20411">
        <ele>8.9</ele>
        <time>2020-06-17T19:04:41Z</time>
      </trkpt>
      <trkpt lat="49.70896" lon="0.20414">
        <ele>9</ele>
        <time>2020-06-17T19:04:42Z</time>
      </trkpt>
      <trkpt lat="49.70896" lon="0.20416">
        <ele>9</ele>
        <time>2020-06-17T19:04:43Z</time>
      </trkpt>
      <trkpt lat="49.70897" lon="0.20418">
        <ele>9</ele>
        <time>2020-06-17T19:04:44Z</time>
      </trkpt>
      <trkpt lat="49.70897" lon="0.20419">
        <ele>9.1</ele>
        <time>2020-06-17T19:04:45Z</time>
      </trkpt>
      <trkpt lat="49.70897" lon="0.20421">
        <ele>9.1</ele>
        <time>2020-06-17T19:04:46Z</time>
      </trkpt>
      <trkpt lat="49.70897" lon="0.20422">
        <ele>9.1</ele>
        <time>2020-06-17T19:04:47Z</time>
      </trkpt>
      <trkpt lat="49.70896" lon="0.20427">
        <ele>9.1</ele>
        <time>2020-06-17T19:04:48Z</time>
      </trkpt>
      <trkpt lat="49.70895" lon="0.20429">
        <ele>9.1</ele>
        <time>2020-06-17T19:04:49Z</time>
      </trkpt>
      <trkpt lat="49.70893" lon="0.20434">
        <ele>9.1</ele>
        <time>2020-06-17T19:04:50Z</time>
      </trkpt>
      <trkpt lat="49.70892" lon="0.20435">
        <ele>9.1</ele>
        <time>2020-06-17T19:04:51Z</time>
      </trkpt>
      <trkpt lat="49.7089" lon="0.20439">
        <ele>9.2</ele>
        <time>2020-06-17T19:04:52Z</time>
      </trkpt>
      <trkpt lat="49.70889" lon="0.20443">
        <ele>9.2</ele>
        <time>2020-06-17T19:04:53Z</time>
      </trkpt>
      <trkpt lat="49.70886" lon="0.20446">
        <ele>9.2</ele>
        <time>2020-06-17T19:04:54Z</time>
      </trkpt>
      <trkpt lat="49.70885" lon="0.20447">
        <ele>9.3</ele>
        <time>2020-06-17T19:04:55Z</time>
      </trkpt>
      <trkpt lat="49.70883" lon="0.20451">
        <ele>9.6</ele>
        <time>2020-06-17T19:04:56Z</time>
      </trkpt>
      <trkpt lat="49.70882" lon="0.20453">
        <ele>9.8</ele>
        <time>2020-06-17T19:04:57Z</time>
      </trkpt>
      <trkpt lat="49.70882" lon="0.20459">
        <ele>10.2</ele>
        <time>2020-06-17T19:04:58Z</time>
      </trkpt>
      <trkpt lat="49.70883" lon="0.20461">
        <ele>10.3</ele>
        <time>2020-06-17T19:04:59Z</time>
      </trkpt>
      <trkpt lat="49.70886" lon="0.20465">
        <ele>10.8</ele>
        <time>2020-06-17T19:05:00Z</time>
      </trkpt>
      <trkpt lat="49.70886" lon="0.20466">
        <ele>10.9</ele>
        <time>2020-06-17T19:05:01Z</time>
      </trkpt>
      <trkpt lat="49.70888" lon="0.20469">
        <ele>11.3</ele>
        <time>2020-06-17T19:05:02Z</time>
      </trkpt>
      <trkpt lat="49.70889" lon="0.2047">
        <ele>11.4</ele>
        <time>2020-06-17T19:05:03Z</time>
      </trkpt>
      <trkpt lat="49.7089" lon="0.2047">
        <ele>11.5</ele>
        <time>2020-06-17T19:05:04Z</time>
      </trkpt>
      <trkpt lat="49.70891" lon="0.2047">
        <ele>11.6</ele>
        <time>2020-06-17T19:05:05Z</time>
      </trkpt>
      <trkpt lat="49.70892" lon="0.20472">
        <ele>11.8</ele>
        <time>2020-06-17T19:05:06Z</time>
      </trkpt>
      <trkpt lat="49.70892" lon="0.20473">
        <ele>11.9</ele>
        <time>2020-06-17T19:05:07Z</time>
      </trkpt>
      <trkpt lat="49.70894" lon="0.20475">
        <ele>12.1</ele>
        <time>2020-06-17T19:05:08Z</time>
      </trkpt>
      <trkpt lat="49.70895" lon="0.20477">
        <ele>12.3</ele>
        <time>2020-06-17T19:05:09Z</time>
      </trkpt>
      <trkpt lat="49.70896" lon="0.20478">
        <ele>12.5</ele>
        <time>2020-06-17T19:05:10Z</time>
      </trkpt>
      <trkpt lat="49.70896" lon="0.20481">
        <ele>12.7</ele>
        <time>2020-06-17T19:05:11Z</time>
      </trkpt>
      <trkpt lat="49.70898" lon="0.20485">
        <ele>13.1</ele>
        <time>2020-06-17T19:05:12Z</time>
      </trkpt>
      <trkpt lat="49.70898" lon="0.20486">
        <ele>13.2</ele>
        <time>2020-06-17T19:05:13Z</time>
      </trkpt>
      <trkpt lat="49.70899" lon="0.20488">
        <ele>13.4</ele>
        <time>2020-06-17T19:05:14Z</time>
      </trkpt>
      <trkpt lat="49.70899" lon="0.20488">
        <ele>13.5</ele>
        <time>2020-06-17T19:05:15Z</time>
      </trkpt>
      <trkpt lat="49.70899" lon="0.20489">
        <ele>13.6</ele>
        <time>2020-06-17T19:05:16Z</time>
      </trkpt>
      <trkpt lat="49.70899" lon="0.2049">
        <ele>13.7</ele>
        <time>2020-06-17T19:05:17Z</time>
      </trkpt>
      <trkpt lat="49.70899" lon="0.20492">
        <ele>13.8</ele>
        <time>2020-06-17T19:05:18Z</time>
      </trkpt>
      <trkpt lat="49.709" lon="0.20494">
        <ele>14</ele>
        <time>2020-06-17T19:05:19Z</time>
      </trkpt>
      <trkpt lat="49.70901" lon="0.20498">
        <ele>14.3</ele>
        <time>2020-06-17T19:05:20Z</time>
      </trkpt>
      <trkpt lat="49.70901" lon="0.20499">
        <ele>14.5</ele>
        <time>2020-06-17T19:05:21Z</time>
      </trkpt>
      <trkpt lat="49.70902" lon="0.20501">
        <ele>14.6</ele>
        <time>2020-06-17T19:05:22Z</time>
      </trkpt>
      <trkpt lat="49.70903" lon="0.20507">
        <ele>15.2</ele>
        <time>2020-06-17T19:05:23Z</time>
      </trkpt>
      <trkpt lat="49.70904" lon="0.2051">
        <ele>15.4</ele>
        <time>2020-06-17T19:05:24Z</time>
      </trkpt>
      <trkpt lat="49.70906" lon="0.20513">
        <ele>15.7</ele>
        <time>2020-06-17T19:05:25Z</time>
      </trkpt>
      <trkpt lat="49.70906" lon="0.20514">
        <ele>15.8</ele>
        <time>2020-06-17T19:05:26Z</time>
      </trkpt>
      <trkpt lat="49.70907" lon="0.20514">
        <ele>15.9</ele>
        <time>2020-06-17T19:05:27Z</time>
      </trkpt>
      <trkpt lat="49.70908" lon="0.20516">
        <ele>16.2</ele>
        <time>2020-06-17T19:05:28Z</time>
      </trkpt>
      <trkpt lat="49.70909" lon="0.20518">
        <ele>16.3</ele>
        <time>2020-06-17T19:05:29Z</time>
      </trkpt>
      <trkpt lat="49.7091" lon="0.20522">
        <ele>16.7</ele>
        <time>2020-06-17T19:05:30Z</time>
      </trkpt>
      <trkpt lat="49.70911" lon="0.20523">
        <ele>16.8</ele>
        <time>2020-06-17T19:05:31Z</time>
      </trkpt>
      <trkpt lat="49.70912" lon="0.20526">
        <ele>17.2</ele>
        <time>2020-06-17T19:05:32Z</time>
      </trkpt>
      <trkpt lat="49.70913" lon="0.20527">
        <ele>17.3</ele>
        <time>2020-06-17T19:05:33Z</time>
      </trkpt>
      <trkpt lat="49.70914" lon="0.2053">
        <ele>17.5</ele>
        <time>2020-06-17T19:05:34Z</time>
      </trkpt>
      <trkpt lat="49.70915" lon="0.2053">
        <ele>17.6</ele>
        <time>2020-06-17T19:05:35Z</time>
      </trkpt>
      <trkpt lat="49.70916" lon="0.20532">
        <ele>17.8</ele>
        <time>2020-06-17T19:05:36Z</time>
      </trkpt>
      <trkpt lat="49.70918" lon="0.20534">
        <ele>18</ele>
        <time>2020-06-17T19:05:37Z</time>
      </trkpt>
      <trkpt lat="49.70918" lon="0.20536">
        <ele>18.2</ele>
        <time>2020-06-17T19:05:38Z</time>
      </trkpt>
      <trkpt lat="49.70919" lon="0.20538">
        <ele>18.4</ele>
        <time>2020-06-17T19:05:39Z</time>
      </trkpt>
      <trkpt lat="49.7092" lon="0.2054">
        <ele>18.5</ele>
        <time>2020-06-17T19:05:40Z</time>
      </trkpt>
      <trkpt lat="49.7092" lon="0.20542">
        <ele>18.5</ele>
        <time>2020-06-17T19:05:41Z</time>
      </trkpt>
      <trkpt lat="49.70921" lon="0.20545">
        <ele>18.5</ele>
        <time>2020-06-17T19:05:42Z</time>
      </trkpt>
      <trkpt lat="49.70922" lon="0.20546">
        <ele>18.5</ele>
        <time>2020-06-17T19:05:43Z</time>
      </trkpt>
      <trkpt lat="49.70923" lon="0.20547">
        <ele>18.5</ele>
        <time>2020-06-17T19:05:44Z</time>
      </trkpt>
      <trkpt lat="49.70923" lon="0.20549">
        <ele>18.5</ele>
        <time>2020-06-17T19:05:45Z</time>
      </trkpt>
      <trkpt lat="49.70924" lon="0.20551">
        <ele>18.5</ele>
        <time>2020-06-17T19:05:46Z</time>
      </trkpt>
      <trkpt lat="49.70926" lon="0.20554">
        <ele>19.3</ele>
        <time>2020-06-17T19:05:47Z</time>
      </trkpt>
      <trkpt lat="49.70926" lon="0.20555">
        <ele>19.5</ele>
        <time>2020-06-17T19:05:48Z</time>
      </trkpt>
      <trkpt lat="49.70927" lon="0.20557">
        <ele>19.7</ele>
        <time>2020-06-17T19:05:49Z</time>
      </trkpt>
      <trkpt lat="49.70928" lon="0.20559">
        <ele>19.9</ele>
        <time>2020-06-17T19:05:50Z</time>
      </trkpt>
      <trkpt lat="49.70929" lon="0.20562">
        <ele>20.2</ele>
        <time>2020-06-17T19:05:51Z</time>
      </trkpt>
      <trkpt lat="49.70929" lon="0.20564">
        <ele>20.5</ele>
        <time>2020-06-17T19:05:52Z</time>
      </trkpt>
      <trkpt lat="49.7093" lon="0.20566">
        <ele>20.7</ele>
        <time>2020-06-17T19:05:53Z</time>
      </trkpt>
      <trkpt lat="49.7093" lon="0.20568">
        <ele>20.9</ele>
        <time>2020-06-17T19:05:54Z</time>
      </trkpt>
      <trkpt lat="49.7093" lon="0.2057">
        <ele>21.1</ele>
        <time>2020-06-17T19:05:55Z</time>
      </trkpt>
      <trkpt lat="49.70931" lon="0.20571">
        <ele>21.2</ele>
        <time>2020-06-17T19:05:56Z</time>
      </trkpt>
      <trkpt lat="49.70931" lon="0.20572">
        <ele>21.3</ele>
        <time>2020-06-17T19:05:57Z</time>
      </trkpt>
      <trkpt lat="49.70932" lon="0.20574">
        <ele>21.6</ele>
        <time>2020-06-17T19:05:58Z</time>
      </trkpt>
      <trkpt lat="49.70933" lon="0.20577">
        <ele>21.8</ele>
        <time>2020-06-17T19:05:59Z</time>
      </trkpt>
      <trkpt lat="49.70933" lon="0.20578">
        <ele>22</ele>
        <time>2020-06-17T19:06:00Z</time>
      </trkpt>
      <trkpt lat="49.70934" lon="0.2058">
        <ele>22.2</ele>
        <time>2020-06-17T19:06:01Z</time>
      </trkpt>
      <trkpt lat="49.70935" lon="0.20583">
        <ele>22.5</ele>
        <time>2020-06-17T19:06:02Z</time>
      </trkpt>
      <trkpt lat="49.70936" lon="0.20585">
        <ele>22.7</ele>
        <time>2020-06-17T19:06:03Z</time>
      </trkpt>
      <trkpt lat="49.70936" lon="0.20587">
        <ele>22.9</ele>
        <time>2020-06-17T19:06:04Z</time>
      </trkpt>
      <trkpt lat="49.70937" lon="0.20589">
        <ele>23.2</ele>
        <time>2020-06-17T19:06:05Z</time>
      </trkpt>
      <trkpt lat="49.70938" lon="0.20592">
        <ele>23.5</ele>
        <time>2020-06-17T19:06:06Z</time>
      </trkpt>
      <trkpt lat="49.70938" lon="0.20594">
        <ele>23.6</ele>
        <time>2020-06-17T19:06:07Z</time>
      </trkpt>
      <trkpt lat="49.70938" lon="0.20596">
        <ele>23.8</ele>
        <time>2020-06-17T19:06:08Z</time>
      </trkpt>
      <trkpt lat="49.70938" lon="0.20599">
        <ele>24.1</ele>
        <time>2020-06-17T19:06:09Z</time>
      </trkpt>
      <trkpt lat="49.70938" lon="0.206">
        <ele>24.2</ele>
        <time>2020-06-17T19:06:10Z</time>
      </trkpt>
      <trkpt lat="49.70939" lon="0.20602">
        <ele>24.3</ele>
        <time>2020-06-17T19:06:11Z</time>
      </trkpt>
      <trkpt lat="49.70939" lon="0.20604">
        <ele>24.5</ele>
        <time>2020-06-17T19:06:12Z</time>
      </trkpt>
      <trkpt lat="49.70939" lon="0.20606">
        <ele>24.7</ele>
        <time>2020-06-17T19:06:13Z</time>
      </trkpt>
      <trkpt lat="49.7094" lon="0.20607">
        <ele>24.9</ele>
        <time>2020-06-17T19:06:14Z</time>
      </trkpt>
      <trkpt lat="49.7094" lon="0.20609">
        <ele>25.1</ele>
        <time>2020-06-17T19:06:15Z</time>
      </trkpt>
      <trkpt lat="49.7094" lon="0.20611">
        <ele>25.3</ele>
        <time>2020-06-17T19:06:16Z</time>
      </trkpt>
      <trkpt lat="49.7094" lon="0.20613">
        <ele>25.5</ele>
        <time>2020-06-17T19:06:17Z</time>
      </trkpt>
      <trkpt lat="49.7094" lon="0.20615">
        <ele>25.7</ele>
        <time>2020-06-17T19:06:18Z</time>
      </trkpt>
      <trkpt lat="49.7094" lon="0.20616">
        <ele>25.8</ele>
        <time>2020-06-17T19:06:19Z</time>
      </trkpt>
      <trkpt lat="49.7094" lon="0.20618">
        <ele>26</ele>
        <time>2020-06-17T19:06:20Z</time>
      </trkpt>
      <trkpt lat="49.70941" lon="0.20621">
        <ele>26.3</ele>
        <time>2020-06-17T19:06:21Z</time>
      </trkpt>
      <trkpt lat="49.70941" lon="0.20623">
        <ele>26.5</ele>
        <time>2020-06-17T19:06:22Z</time>
      </trkpt>
      <trkpt lat="49.70941" lon="0.20624">
        <ele>26.6</ele>
        <time>2020-06-17T19:06:23Z</time>
      </trkpt>
      <trkpt lat="49.70941" lon="0.20626">
        <ele>26.8</ele>
        <time>2020-06-17T19:06:24Z</time>
      </trkpt>
      <trkpt lat="49.70941" lon="0.20628">
        <ele>26.9</ele>
        <time>2020-06-17T19:06:25Z</time>
      </trkpt>
      <trkpt lat="49.7094" lon="0.20631">
        <ele>27.2</ele>
        <time>2020-06-17T19:06:26Z</time>
      </trkpt>
      <trkpt lat="49.7094" lon="0.20634">
        <ele>27.5</ele>
        <time>2020-06-17T19:06:27Z</time>
      </trkpt>
      <trkpt lat="49.7094" lon="0.20636">
        <ele>27.7</ele>
        <time>2020-06-17T19:06:28Z</time>
      </trkpt>
      <trkpt lat="49.7094" lon="0.20637">
        <ele>27.9</ele>
        <time>2020-06-17T19:06:29Z</time>
      </trkpt>
      <trkpt lat="49.7094" lon="0.20639">
        <ele>28.1</ele>
        <time>2020-06-17T19:06:30Z</time>
      </trkpt>
      <trkpt lat="49.7094" lon="0.2064">
        <ele>28.2</ele>
        <time>2020-06-17T19:06:31Z</time>
      </trkpt>
      <trkpt lat="49.7094" lon="0.20643">
        <ele>28.5</ele>
        <time>2020-06-17T19:06:32Z</time>
      </trkpt>
      <trkpt lat="49.70941" lon="0.20644">
        <ele>28.7</ele>
        <time>2020-06-17T19:06:33Z</time>
      </trkpt>
      <trkpt lat="49.70941" lon="0.20646">
        <ele>28.8</ele>
        <time>2020-06-17T19:06:34Z</time>
      </trkpt>
      <trkpt lat="49.70942" lon="0.20648">
        <ele>29</ele>
        <time>2020-06-17T19:06:35Z</time>
      </trkpt>
      <trkpt lat="49.70943" lon="0.2065">
        <ele>29.3</ele>
        <time>2020-06-17T19:06:36Z</time>
      </trkpt>
      <trkpt lat="49.70944" lon="0.20652">
        <ele>29.3</ele>
        <time>2020-06-17T19:06:37Z</time>
      </trkpt>
      <trkpt lat="49.70945" lon="0.20654">
        <ele>29.6</ele>
        <time>2020-06-17T19:06:38Z</time>
      </trkpt>
      <trkpt lat="49.70945" lon="0.20657">
        <ele>29.8</ele>
        <time>2020-06-17T19:06:39Z</time>
      </trkpt>
      <trkpt lat="49.70946" lon="0.20659">
        <ele>30.1</ele>
        <time>2020-06-17T19:06:40Z</time>
      </trkpt>
      <trkpt lat="49.70947" lon="0.20661">
        <ele>30.4</ele>
        <time>2020-06-17T19:06:41Z</time>
      </trkpt>
      <trkpt lat="49.70947" lon="0.20663">
        <ele>30.6</ele>
        <time>2020-06-17T19:06:42Z</time>
      </trkpt>
      <trkpt lat="49.70947" lon="0.20664">
        <ele>30.7</ele>
        <time>2020-06-17T19:06:43Z</time>
      </trkpt>
      <trkpt lat="49.70948" lon="0.20666">
        <ele>30.9</ele>
        <time>2020-06-17T19:06:44Z</time>
      </trkpt>
      <trkpt lat="49.70948" lon="0.20667">
        <ele>31.1</ele>
        <time>2020-06-17T19:06:45Z</time>
      </trkpt>
      <trkpt lat="49.70949" lon="0.20669">
        <ele>31.3</ele>
        <time>2020-06-17T19:06:46Z</time>
      </trkpt>
      <trkpt lat="49.7095" lon="0.20672">
        <ele>31.7</ele>
        <time>2020-06-17T19:06:47Z</time>
      </trkpt>
      <trkpt lat="49.7095" lon="0.20673">
        <ele>31.8</ele>
        <time>2020-06-17T19:06:48Z</time>
      </trkpt>
      <trkpt lat="49.70951" lon="0.20674">
        <ele>31.9</ele>
        <time>2020-06-17T19:06:49Z</time>
      </trkpt>
      <trkpt lat="49.70951" lon="0.20677">
        <ele>32.2</ele>
        <time>2020-06-17T19:06:50Z</time>
      </trkpt>
      <trkpt lat="49.70952" lon="0.20678">
        <ele>32.4</ele>
        <time>2020-06-17T19:06:51Z</time>
      </trkpt>
      <trkpt lat="49.70952" lon="0.2068">
        <ele>32.6</ele>
        <time>2020-06-17T19:06:52Z</time>
      </trkpt>
      <trkpt lat="49.70953" lon="0.20681">
        <ele>32.7</ele>
        <time>2020-06-17T19:06:53Z</time>
      </trkpt>
      <trkpt lat="49.70953" lon="0.20683">
        <ele>32.9</ele>
        <time>2020-06-17T19:06:54Z</time>
      </trkpt>
      <trkpt lat="49.70953" lon="0.20685">
        <ele>33.1</ele>
        <time>2020-06-17T19:06:55Z</time>
      </trkpt>
      <trkpt lat="49.70954" lon="0.20687">
        <ele>33.3</ele>
        <time>2020-06-17T19:06:56Z</time>
      </trkpt>
      <trkpt lat="49.70954" lon="0.20688">
        <ele>33.5</ele>
        <time>2020-06-17T19:06:57Z</time>
      </trkpt>
      <trkpt lat="49.70955" lon="0.20689">
        <ele>33.6</ele>
        <time>2020-06-17T19:06:58Z</time>
      </trkpt>
      <trkpt lat="49.70956" lon="0.2069">
        <ele>33.9</ele>
        <time>2020-06-17T19:06:59Z</time>
      </trkpt>
      <trkpt lat="49.70957" lon="0.20692">
        <ele>34.1</ele>
        <time>2020-06-17T19:07:00Z</time>
      </trkpt>
      <trkpt lat="49.70958" lon="0.20695">
        <ele>34.5</ele>
        <time>2020-06-17T19:07:01Z</time>
      </trkpt>
      <trkpt lat="49.70958" lon="0.20697">
        <ele>34.6</ele>
        <time>2020-06-17T19:07:02Z</time>
      </trkpt>
      <trkpt lat="49.70958" lon="0.20698">
        <ele>34.8</ele>
        <time>2020-06-17T19:07:03Z</time>
      </trkpt>
      <trkpt lat="49.70959" lon="0.207">
        <ele>35.1</ele>
        <time>2020-06-17T19:07:04Z</time>
      </trkpt>
      <trkpt lat="49.70958" lon="0.20701">
        <ele>35.2</ele>
        <time>2020-06-17T19:07:05Z</time>
      </trkpt>
      <trkpt lat="49.70958" lon="0.20703">
        <ele>35.4</ele>
        <time>2020-06-17T19:07:06Z</time>
      </trkpt>
      <trkpt lat="49.70959" lon="0.20704">
        <ele>35.5</ele>
        <time>2020-06-17T19:07:07Z</time>
      </trkpt>
      <trkpt lat="49.70959" lon="0.20705">
        <ele>35.7</ele>
        <time>2020-06-17T19:07:08Z</time>
      </trkpt>
      <trkpt lat="49.70959" lon="0.20707">
        <ele>35.8</ele>
        <time>2020-06-17T19:07:09Z</time>
      </trkpt>
      <trkpt lat="49.70959" lon="0.20708">
        <ele>36</ele>
        <time>2020-06-17T19:07:10Z</time>
      </trkpt>
      <trkpt lat="49.7096" lon="0.2071">
        <ele>36.2</ele>
        <time>2020-06-17T19:07:11Z</time>
      </trkpt>
      <trkpt lat="49.7096" lon="0.20711">
        <ele>36.4</ele>
        <time>2020-06-17T19:07:12Z</time>
      </trkpt>
      <trkpt lat="49.7096" lon="0.20713">
        <ele>36.6</ele>
        <time>2020-06-17T19:07:13Z</time>
      </trkpt>
      <trkpt lat="49.7096" lon="0.20715">
        <ele>36.8</ele>
        <time>2020-06-17T19:07:14Z</time>
      </trkpt>
      <trkpt lat="49.70961" lon="0.20717">
        <ele>37</ele>
        <time>2020-06-17T19:07:15Z</time>
      </trkpt>
      <trkpt lat="49.70961" lon="0.20718">
        <ele>37.2</ele>
        <time>2020-06-17T19:07:16Z</time>
      </trkpt>
      <trkpt lat="49.70962" lon="0.2072">
        <ele>37.4</ele>
        <time>2020-06-17T19:07:17Z</time>
      </trkpt>
      <trkpt lat="49.70962" lon="0.20722">
        <ele>37.6</ele>
        <time>2020-06-17T19:07:18Z</time>
      </trkpt>
      <trkpt lat="49.70963" lon="0.20723">
        <ele>37.8</ele>
        <time>2020-06-17T19:07:19Z</time>
      </trkpt>
      <trkpt lat="49.70963" lon="0.20724">
        <ele>37.9</ele>
        <time>2020-06-17T19:07:20Z</time>
      </trkpt>
      <trkpt lat="49.70963" lon="0.20725">
        <ele>38</ele>
        <time>2020-06-17T19:07:21Z</time>
      </trkpt>
      <trkpt lat="49.70964" lon="0.20726">
        <ele>38.2</ele>
        <time>2020-06-17T19:07:22Z</time>
      </trkpt>
      <trkpt lat="49.70964" lon="0.20727">
        <ele>38.3</ele>
        <time>2020-06-17T19:07:23Z</time>
      </trkpt>
      <trkpt lat="49.70964" lon="0.20728">
        <ele>38.4</ele>
        <time>2020-06-17T19:07:24Z</time>
      </trkpt>
      <trkpt lat="49.70964" lon="0.20729">
        <ele>38.6</ele>
        <time>2020-06-17T19:07:25Z</time>
      </trkpt>
      <trkpt lat="49.70966" lon="0.20731">
        <ele>38.9</ele>
        <time>2020-06-17T19:07:26Z</time>
      </trkpt>
      <trkpt lat="49.70967" lon="0.20732">
        <ele>39.2</ele>
        <time>2020-06-17T19:07:27Z</time>
      </trkpt>
      <trkpt lat="49.70968" lon="0.20734">
        <ele>39.5</ele>
        <time>2020-06-17T19:07:28Z</time>
      </trkpt>
      <trkpt lat="49.70969" lon="0.20736">
        <ele>39.8</ele>
        <time>2020-06-17T19:07:29Z</time>
      </trkpt>
      <trkpt lat="49.7097" lon="0.20738">
        <ele>40</ele>
        <time>2020-06-17T19:07:30Z</time>
      </trkpt>
      <trkpt lat="49.7097" lon="0.20739">
        <ele>40.2</ele>
        <time>2020-06-17T19:07:31Z</time>
      </trkpt>
      <trkpt lat="49.7097" lon="0.20741">
        <ele>40.3</ele>
        <time>2020-06-17T19:07:32Z</time>
      </trkpt>
      <trkpt lat="49.70971" lon="0.20742">
        <ele>40.5</ele>
        <time>2020-06-17T19:07:33Z</time>
      </trkpt>
      <trkpt lat="49.70971" lon="0.20743">
        <ele>40.7</ele>
        <time>2020-06-17T19:07:34Z</time>
      </trkpt>
      <trkpt lat="49.70972" lon="0.20745">
        <ele>40.9</ele>
        <time>2020-06-17T19:07:35Z</time>
      </trkpt>
      <trkpt lat="49.70972" lon="0.20746">
        <ele>41.1</ele>
        <time>2020-06-17T19:07:36Z</time>
      </trkpt>
      <trkpt lat="49.70973" lon="0.20748">
        <ele>41.3</ele>
        <time>2020-06-17T19:07:37Z</time>
      </trkpt>
      <trkpt lat="49.70974" lon="0.20749">
        <ele>41.5</ele>
        <time>2020-06-17T19:07:38Z</time>
      </trkpt>
      <trkpt lat="49.70975" lon="0.2075">
        <ele>41.7</ele>
        <time>2020-06-17T19:07:39Z</time>
      </trkpt>
      <trkpt lat="49.70976" lon="0.20751">
        <ele>41.9</ele>
        <time>2020-06-17T19:07:40Z</time>
      </trkpt>
      <trkpt lat="49.70977" lon="0.20752">
        <ele>42.1</ele>
        <time>2020-06-17T19:07:41Z</time>
      </trkpt>
      <trkpt lat="49.70977" lon="0.20754">
        <ele>42.4</ele>
        <time>2020-06-17T19:07:42Z</time>
      </trkpt>
      <trkpt lat="49.70978" lon="0.20756">
        <ele>42.5</ele>
        <time>2020-06-17T19:07:43Z</time>
      </trkpt>
      <trkpt lat="49.70978" lon="0.20757">
        <ele>42.7</ele>
        <time>2020-06-17T19:07:44Z</time>
      </trkpt>
      <trkpt lat="49.70979" lon="0.20759">
        <ele>42.9</ele>
        <time>2020-06-17T19:07:45Z</time>
      </trkpt>
      <trkpt lat="49.7098" lon="0.20761">
        <ele>43.2</ele>
        <time>2020-06-17T19:07:46Z</time>
      </trkpt>
      <trkpt lat="49.7098" lon="0.20762">
        <ele>43.3</ele>
        <time>2020-06-17T19:07:47Z</time>
      </trkpt>
      <trkpt lat="49.7098" lon="0.20762">
        <ele>43.4</ele>
        <time>2020-06-17T19:07:48Z</time>
      </trkpt>
      <trkpt lat="49.70981" lon="0.20763">
        <ele>43.5</ele>
        <time>2020-06-17T19:07:49Z</time>
      </trkpt>
      <trkpt lat="49.70982" lon="0.20763">
        <ele>43.7</ele>
        <time>2020-06-17T19:07:50Z</time>
      </trkpt>
      <trkpt lat="49.70982" lon="0.20764">
        <ele>43.8</ele>
        <time>2020-06-17T19:07:51Z</time>
      </trkpt>
      <trkpt lat="49.70983" lon="0.20764">
        <ele>43.8</ele>
        <time>2020-06-17T19:07:52Z</time>
      </trkpt>
      <trkpt lat="49.70983" lon="0.20765">
        <ele>43.9</ele>
        <time>2020-06-17T19:07:53Z</time>
      </trkpt>
      <trkpt lat="49.70983" lon="0.20766">
        <ele>44</ele>
        <time>2020-06-17T19:07:54Z</time>
      </trkpt>
      <trkpt lat="49.70984" lon="0.20767">
        <ele>44.2</ele>
        <time>2020-06-17T19:07:55Z</time>
      </trkpt>
      <trkpt lat="49.70984" lon="0.20768">
        <ele>44.4</ele>
        <time>2020-06-17T19:07:56Z</time>
      </trkpt>
      <trkpt lat="49.70985" lon="0.2077">
        <ele>44.8</ele>
        <time>2020-06-17T19:07:57Z</time>
      </trkpt>
      <trkpt lat="49.70985" lon="0.20771">
        <ele>44.9</ele>
        <time>2020-06-17T19:07:58Z</time>
      </trkpt>
      <trkpt lat="49.70986" lon="0.20772">
        <ele>45.1</ele>
        <time>2020-06-17T19:07:59Z</time>
      </trkpt>
      <trkpt lat="49.70986" lon="0.20773">
        <ele>45.3</ele>
        <time>2020-06-17T19:08:00Z</time>
      </trkpt>
      <trkpt lat="49.70987" lon="0.20777">
        <ele>45.7</ele>
        <time>2020-06-17T19:08:01Z</time>
      </trkpt>
      <trkpt lat="49.70987" lon="0.20778">
        <ele>45.8</ele>
        <time>2020-06-17T19:08:02Z</time>
      </trkpt>
      <trkpt lat="49.70987" lon="0.20779">
        <ele>46</ele>
        <time>2020-06-17T19:08:03Z</time>
      </trkpt>
      <trkpt lat="49.70987" lon="0.2078">
        <ele>46.1</ele>
        <time>2020-06-17T19:08:04Z</time>
      </trkpt>
      <trkpt lat="49.70987" lon="0.2078">
        <ele>46.1</ele>
        <time>2020-06-17T19:08:05Z</time>
      </trkpt>
      <trkpt lat="49.70988" lon="0.20782">
        <ele>46.3</ele>
        <time>2020-06-17T19:08:06Z</time>
      </trkpt>
      <trkpt lat="49.70988" lon="0.20783">
        <ele>46.5</ele>
        <time>2020-06-17T19:08:07Z</time>
      </trkpt>
      <trkpt lat="49.70988" lon="0.20784">
        <ele>47.7</ele>
        <time>2020-06-17T19:08:08Z</time>
      </trkpt>
      <trkpt lat="49.70988" lon="0.20785">
        <ele>47.8</ele>
        <time>2020-06-17T19:08:09Z</time>
      </trkpt>
      <trkpt lat="49.70988" lon="0.20786">
        <ele>47.8</ele>
        <time>2020-06-17T19:08:10Z</time>
      </trkpt>
      <trkpt lat="49.70988" lon="0.20787">
        <ele>47.8</ele>
        <time>2020-06-17T19:08:11Z</time>
      </trkpt>
      <trkpt lat="49.70987" lon="0.20788">
        <ele>47.9</ele>
        <time>2020-06-17T19:08:12Z</time>
      </trkpt>
      <trkpt lat="49.70987" lon="0.20789">
        <ele>47.9</ele>
        <time>2020-06-17T19:08:13Z</time>
      </trkpt>
      <trkpt lat="49.70987" lon="0.20789">
        <ele>48</ele>
        <time>2020-06-17T19:08:14Z</time>
      </trkpt>
      <trkpt lat="49.70987" lon="0.2079">
        <ele>48</ele>
        <time>2020-06-17T19:08:15Z</time>
      </trkpt>
      <trkpt lat="49.70987" lon="0.20792">
        <ele>48.1</ele>
        <time>2020-06-17T19:08:16Z</time>
      </trkpt>
      <trkpt lat="49.70988" lon="0.20792">
        <ele>48.1</ele>
        <time>2020-06-17T19:08:17Z</time>
      </trkpt>
      <trkpt lat="49.70988" lon="0.20792">
        <ele>48.1</ele>
        <time>2020-06-17T19:08:18Z</time>
      </trkpt>
      <trkpt lat="49.70988" lon="0.20792">
        <ele>48.1</ele>
        <time>2020-06-17T19:08:19Z</time>
      </trkpt>
      <trkpt lat="49.70988" lon="0.20791">
        <ele>48.2</ele>
        <time>2020-06-17T19:08:20Z</time>
      </trkpt>
      <trkpt lat="49.70989" lon="0.20791">
        <ele>48.2</ele>
        <time>2020-06-17T19:08:21Z</time>
      </trkpt>
      <trkpt lat="49.70989" lon="0.2079">
        <ele>48.3</ele>
        <time>2020-06-17T19:08:22Z</time>
      </trkpt>
      <trkpt lat="49.70989" lon="0.20789">
        <ele>48.3</ele>
        <time>2020-06-17T19:08:23Z</time>
      </trkpt>
      <trkpt lat="49.7099" lon="0.20788">
        <ele>48.3</ele>
        <time>2020-06-17T19:08:24Z</time>
      </trkpt>
      <trkpt lat="49.7099" lon="0.20786">
        <ele>48.4</ele>
        <time>2020-06-17T19:08:25Z</time>
      </trkpt>
      <trkpt lat="49.7099" lon="0.20784">
        <ele>48.5</ele>
        <time>2020-06-17T19:08:26Z</time>
      </trkpt>
      <trkpt lat="49.70991" lon="0.20784">
        <ele>48.5</ele>
        <time>2020-06-17T19:08:27Z</time>
      </trkpt>
      <trkpt lat="49.70993" lon="0.20781">
        <ele>48.7</ele>
        <time>2020-06-17T19:08:28Z</time>
      </trkpt>
      <trkpt lat="49.70994" lon="0.2078">
        <ele>48.7</ele>
        <time>2020-06-17T19:08:29Z</time>
      </trkpt>
      <trkpt lat="49.70996" lon="0.20776">
        <ele>48.9</ele>
        <time>2020-06-17T19:08:30Z</time>
      </trkpt>
      <trkpt lat="49.70996" lon="0.20775">
        <ele>48.9</ele>
        <time>2020-06-17T19:08:31Z</time>
      </trkpt>
      <trkpt lat="49.70998" lon="0.20771">
        <ele>49.1</ele>
        <time>2020-06-17T19:08:32Z</time>
      </trkpt>
      <trkpt lat="49.70998" lon="0.2077">
        <ele>49.2</ele>
        <time>2020-06-17T19:08:33Z</time>
      </trkpt>
      <trkpt lat="49.70999" lon="0.20765">
        <ele>49.4</ele>
        <time>2020-06-17T19:08:34Z</time>
      </trkpt>
      <trkpt lat="49.71" lon="0.20764">
        <ele>49.4</ele>
        <time>2020-06-17T19:08:35Z</time>
      </trkpt>
      <trkpt lat="49.71002" lon="0.2076">
        <ele>49.6</ele>
        <time>2020-06-17T19:08:36Z</time>
      </trkpt>
      <trkpt lat="49.71002" lon="0.20759">
        <ele>49.7</ele>
        <time>2020-06-17T19:08:37Z</time>
      </trkpt>
      <trkpt lat="49.71004" lon="0.20756">
        <ele>49.8</ele>
        <time>2020-06-17T19:08:38Z</time>
      </trkpt>
      <trkpt lat="49.71005" lon="0.20754">
        <ele>49.9</ele>
        <time>2020-06-17T19:08:39Z</time>
      </trkpt>
      <trkpt lat="49.71008" lon="0.20751">
        <ele>50.1</ele>
        <time>2020-06-17T19:08:40Z</time>
      </trkpt>
      <trkpt lat="49.71008" lon="0.2075">
        <ele>50.2</ele>
        <time>2020-06-17T19:08:41Z</time>
      </trkpt>
      <trkpt lat="49.7101" lon="0.20748">
        <ele>50.3</ele>
        <time>2020-06-17T19:08:42Z</time>
      </trkpt>
      <trkpt lat="49.7101" lon="0.20746">
        <ele>50.5</ele>
        <time>2020-06-17T19:08:43Z</time>
      </trkpt>
      <trkpt lat="49.7101" lon="0.20744">
        <ele>50.6</ele>
        <time>2020-06-17T19:08:44Z</time>
      </trkpt>
      <trkpt lat="49.71012" lon="0.20741">
        <ele>50.7</ele>
        <time>2020-06-17T19:08:45Z</time>
      </trkpt>
      <trkpt lat="49.71014" lon="0.20737">
        <ele>51</ele>
        <time>2020-06-17T19:08:46Z</time>
      </trkpt>
      <trkpt lat="49.71014" lon="0.20735">
        <ele>51.1</ele>
        <time>2020-06-17T19:08:47Z</time>
      </trkpt>
      <trkpt lat="49.71014" lon="0.20733">
        <ele>51.2</ele>
        <time>2020-06-17T19:08:48Z</time>
      </trkpt>
      <trkpt lat="49.71014" lon="0.2073">
        <ele>51.3</ele>
        <time>2020-06-17T19:08:49Z</time>
      </trkpt>
      <trkpt lat="49.71013" lon="0.20728">
        <ele>51.4</ele>
        <time>2020-06-17T19:08:50Z</time>
      </trkpt>
      <trkpt lat="49.71013" lon="0.20723">
        <ele>51.7</ele>
        <time>2020-06-17T19:08:51Z</time>
      </trkpt>
      <trkpt lat="49.71014" lon="0.20721">
        <ele>51.8</ele>
        <time>2020-06-17T19:08:52Z</time>
      </trkpt>
      <trkpt lat="49.71015" lon="0.20717">
        <ele>52</ele>
        <time>2020-06-17T19:08:53Z</time>
      </trkpt>
      <trkpt lat="49.71016" lon="0.20715">
        <ele>52.1</ele>
        <time>2020-06-17T19:08:54Z</time>
      </trkpt>
      <trkpt lat="49.71017" lon="0.20711">
        <ele>52.4</ele>
        <time>2020-06-17T19:08:55Z</time>
      </trkpt>
      <trkpt lat="49.71018" lon="0.2071">
        <ele>52.5</ele>
        <time>2020-06-17T19:08:56Z</time>
      </trkpt>
      <trkpt lat="49.71018" lon="0.20706">
        <ele>52.7</ele>
        <time>2020-06-17T19:08:57Z</time>
      </trkpt>
      <trkpt lat="49.71018" lon="0.20705">
        <ele>52.8</ele>
        <time>2020-06-17T19:08:58Z</time>
      </trkpt>
      <trkpt lat="49.7102" lon="0.20701">
        <ele>53</ele>
        <time>2020-06-17T19:08:59Z</time>
      </trkpt>
      <trkpt lat="49.7102" lon="0.20699">
        <ele>53.1</ele>
        <time>2020-06-17T19:09:00Z</time>
      </trkpt>
      <trkpt lat="49.71022" lon="0.20695">
        <ele>53.4</ele>
        <time>2020-06-17T19:09:01Z</time>
      </trkpt>
      <trkpt lat="49.71022" lon="0.20693">
        <ele>53.5</ele>
        <time>2020-06-17T19:09:02Z</time>
      </trkpt>
      <trkpt lat="49.71023" lon="0.20687">
        <ele>53.8</ele>
        <time>2020-06-17T19:09:03Z</time>
      </trkpt>
      <trkpt lat="49.71023" lon="0.20685">
        <ele>53.9</ele>
        <time>2020-06-17T19:09:04Z</time>
      </trkpt>
      <trkpt lat="49.71024" lon="0.20681">
        <ele>54.2</ele>
        <time>2020-06-17T19:09:05Z</time>
      </trkpt>
      <trkpt lat="49.71025" lon="0.20676">
        <ele>54.4</ele>
        <time>2020-06-17T19:09:06Z</time>
      </trkpt>
      <trkpt lat="49.71025" lon="0.20675">
        <ele>54.5</ele>
        <time>2020-06-17T19:09:07Z</time>
      </trkpt>
      <trkpt lat="49.71026" lon="0.2067">
        <ele>54.8</ele>
        <time>2020-06-17T19:09:08Z</time>
      </trkpt>
      <trkpt lat="49.71026" lon="0.20668">
        <ele>54.9</ele>
        <time>2020-06-17T19:09:09Z</time>
      </trkpt>
      <trkpt lat="49.71026" lon="0.20663">
        <ele>55.1</ele>
        <time>2020-06-17T19:09:10Z</time>
      </trkpt>
      <trkpt lat="49.71026" lon="0.20662">
        <ele>55.2</ele>
        <time>2020-06-17T19:09:11Z</time>
      </trkpt>
      <trkpt lat="49.71026" lon="0.20657">
        <ele>55.4</ele>
        <time>2020-06-17T19:09:12Z</time>
      </trkpt>
      <trkpt lat="49.71026" lon="0.20651">
        <ele>55.7</ele>
        <time>2020-06-17T19:09:13Z</time>
      </trkpt>
      <trkpt lat="49.71026" lon="0.20649">
        <ele>55.8</ele>
        <time>2020-06-17T19:09:14Z</time>
      </trkpt>
      <trkpt lat="49.71027" lon="0.20645">
        <ele>56.1</ele>
        <time>2020-06-17T19:09:15Z</time>
      </trkpt>
      <trkpt lat="49.71027" lon="0.20644">
        <ele>56.1</ele>
        <time>2020-06-17T19:09:16Z</time>
      </trkpt>
      <trkpt lat="49.71028" lon="0.2064">
        <ele>56.3</ele>
        <time>2020-06-17T19:09:17Z</time>
      </trkpt>
      <trkpt lat="49.71028" lon="0.20638">
        <ele>56.4</ele>
        <time>2020-06-17T19:09:18Z</time>
      </trkpt>
      <trkpt lat="49.7103" lon="0.20634">
        <ele>56.6</ele>
        <time>2020-06-17T19:09:19Z</time>
      </trkpt>
      <trkpt lat="49.7103" lon="0.20633">
        <ele>56.7</ele>
        <time>2020-06-17T19:09:20Z</time>
      </trkpt>
      <trkpt lat="49.71031" lon="0.2063">
        <ele>56.8</ele>
        <time>2020-06-17T19:09:21Z</time>
      </trkpt>
      <trkpt lat="49.71032" lon="0.20628">
        <ele>56.9</ele>
        <time>2020-06-17T19:09:22Z</time>
      </trkpt>
      <trkpt lat="49.71033" lon="0.20625">
        <ele>57.1</ele>
        <time>2020-06-17T19:09:23Z</time>
      </trkpt>
      <trkpt lat="49.71033" lon="0.20623">
        <ele>57.1</ele>
        <time>2020-06-17T19:09:24Z</time>
      </trkpt>
      <trkpt lat="49.71034" lon="0.20619">
        <ele>57.3</ele>
        <time>2020-06-17T19:09:25Z</time>
      </trkpt>
      <trkpt lat="49.71034" lon="0.20618">
        <ele>57.4</ele>
        <time>2020-06-17T19:09:26Z</time>
      </trkpt>
      <trkpt lat="49.71034" lon="0.20613">
        <ele>57.6</ele>
        <time>2020-06-17T19:09:27Z</time>
      </trkpt>
      <trkpt lat="49.71035" lon="0.20612">
        <ele>57.7</ele>
        <time>2020-06-17T19:09:28Z</time>
      </trkpt>
      <trkpt lat="49.71035" lon="0.2061">
        <ele>57.8</ele>
        <time>2020-06-17T19:09:29Z</time>
      </trkpt>
      <trkpt lat="49.71034" lon="0.20607">
        <ele>57.9</ele>
        <time>2020-06-17T19:09:30Z</time>
      </trkpt>
      <trkpt lat="49.71034" lon="0.20602">
        <ele>58.1</ele>
        <time>2020-06-17T19:09:31Z</time>
      </trkpt>
      <trkpt lat="49.71034" lon="0.20601">
        <ele>58.2</ele>
        <time>2020-06-17T19:09:32Z</time>
      </trkpt>
      <trkpt lat="49.71036" lon="0.20596">
        <ele>58.4</ele>
        <time>2020-06-17T19:09:33Z</time>
      </trkpt>
      <trkpt lat="49.71037" lon="0.20595">
        <ele>58.5</ele>
        <time>2020-06-17T19:09:34Z</time>
      </trkpt>
      <trkpt lat="49.71037" lon="0.20593">
        <ele>58.6</ele>
        <time>2020-06-17T19:09:35Z</time>
      </trkpt>
      <trkpt lat="49.71038" lon="0.2059">
        <ele>58.7</ele>
        <time>2020-06-17T19:09:36Z</time>
      </trkpt>
      <trkpt lat="49.7104" lon="0.20586">
        <ele>58.9</ele>
        <time>2020-06-17T19:09:37Z</time>
      </trkpt>
      <trkpt lat="49.7104" lon="0.20585">
        <ele>59</ele>
        <time>2020-06-17T19:09:38Z</time>
      </trkpt>
      <trkpt lat="49.71042" lon="0.2058">
        <ele>59.2</ele>
        <time>2020-06-17T19:09:39Z</time>
      </trkpt>
      <trkpt lat="49.71042" lon="0.20578">
        <ele>59.3</ele>
        <time>2020-06-17T19:09:40Z</time>
      </trkpt>
      <trkpt lat="49.71043" lon="0.20573">
        <ele>59.5</ele>
        <time>2020-06-17T19:09:41Z</time>
      </trkpt>
      <trkpt lat="49.71043" lon="0.20572">
        <ele>59.6</ele>
        <time>2020-06-17T19:09:42Z</time>
      </trkpt>
      <trkpt lat="49.71044" lon="0.20567">
        <ele>59.8</ele>
        <time>2020-06-17T19:09:43Z</time>
      </trkpt>
      <trkpt lat="49.71044" lon="0.20566">
        <ele>59.8</ele>
        <time>2020-06-17T19:09:44Z</time>
      </trkpt>
      <trkpt lat="49.71045" lon="0.20562">
        <ele>60</ele>
        <time>2020-06-17T19:09:45Z</time>
      </trkpt>
      <trkpt lat="49.71046" lon="0.2056">
        <ele>60.1</ele>
        <time>2020-06-17T19:09:46Z</time>
      </trkpt>
      <trkpt lat="49.71047" lon="0.20556">
        <ele>60.3</ele>
        <time>2020-06-17T19:09:47Z</time>
      </trkpt>
      <trkpt lat="49.71047" lon="0.20554">
        <ele>60.4</ele>
        <time>2020-06-17T19:09:48Z</time>
      </trkpt>
      <trkpt lat="49.71049" lon="0.20551">
        <ele>60.6</ele>
        <time>2020-06-17T19:09:49Z</time>
      </trkpt>
      <trkpt lat="49.7105" lon="0.2055">
        <ele>60.7</ele>
        <time>2020-06-17T19:09:50Z</time>
      </trkpt>
      <trkpt lat="49.71052" lon="0.20546">
        <ele>60.9</ele>
        <time>2020-06-17T19:09:51Z</time>
      </trkpt>
      <trkpt lat="49.71053" lon="0.20544">
        <ele>61</ele>
        <time>2020-06-17T19:09:52Z</time>
      </trkpt>
      <trkpt lat="49.71055" lon="0.20541">
        <ele>61.2</ele>
        <time>2020-06-17T19:09:53Z</time>
      </trkpt>
      <trkpt lat="49.71055" lon="0.2054">
        <ele>61.3</ele>
        <time>2020-06-17T19:09:54Z</time>
      </trkpt>
      <trkpt lat="49.71057" lon="0.20536">
        <ele>61.5</ele>
        <time>2020-06-17T19:09:55Z</time>
      </trkpt>
      <trkpt lat="49.71057" lon="0.20535">
        <ele>61.6</ele>
        <time>2020-06-17T19:09:56Z</time>
      </trkpt>
      <trkpt lat="49.7106" lon="0.20532">
        <ele>61.8</ele>
        <time>2020-06-17T19:09:57Z</time>
      </trkpt>
      <trkpt lat="49.7106" lon="0.20531">
        <ele>61.9</ele>
        <time>2020-06-17T19:09:58Z</time>
      </trkpt>
      <trkpt lat="49.71061" lon="0.20528">
        <ele>62</ele>
        <time>2020-06-17T19:09:59Z</time>
      </trkpt>
      <trkpt lat="49.71062" lon="0.20526">
        <ele>62.1</ele>
        <time>2020-06-17T19:10:00Z</time>
      </trkpt>
      <trkpt lat="49.71063" lon="0.20525">
        <ele>62.3</ele>
        <time>2020-06-17T19:10:01Z</time>
      </trkpt>
      <trkpt lat="49.71064" lon="0.20525">
        <ele>62.3</ele>
        <time>2020-06-17T19:10:02Z</time>
      </trkpt>
      <trkpt lat="49.71066" lon="0.20526">
        <ele>62.5</ele>
        <time>2020-06-17T19:10:03Z</time>
      </trkpt>
      <trkpt lat="49.71067" lon="0.20529">
        <ele>62.7</ele>
        <time>2020-06-17T19:10:04Z</time>
      </trkpt>
      <trkpt lat="49.71068" lon="0.2053">
        <ele>62.8</ele>
        <time>2020-06-17T19:10:05Z</time>
      </trkpt>
      <trkpt lat="49.71071" lon="0.20531">
        <ele>63</ele>
        <time>2020-06-17T19:10:06Z</time>
      </trkpt>
      <trkpt lat="49.71072" lon="0.20531">
        <ele>63.1</ele>
        <time>2020-06-17T19:10:07Z</time>
      </trkpt>
      <trkpt lat="49.71072" lon="0.20531">
        <ele>63.2</ele>
        <time>2020-06-17T19:10:08Z</time>
      </trkpt>
      <trkpt lat="49.71074" lon="0.20529">
        <ele>63.3</ele>
        <time>2020-06-17T19:10:09Z</time>
      </trkpt>
      <trkpt lat="49.71074" lon="0.20529">
        <ele>63.4</ele>
        <time>2020-06-17T19:10:10Z</time>
      </trkpt>
      <trkpt lat="49.71075" lon="0.20529">
        <ele>63.5</ele>
        <time>2020-06-17T19:10:11Z</time>
      </trkpt>
      <trkpt lat="49.71076" lon="0.2053">
        <ele>63.6</ele>
        <time>2020-06-17T19:10:12Z</time>
      </trkpt>
      <trkpt lat="49.71076" lon="0.20531">
        <ele>63.6</ele>
        <time>2020-06-17T19:10:13Z</time>
      </trkpt>
      <trkpt lat="49.71076" lon="0.20532">
        <ele>63.7</ele>
        <time>2020-06-17T19:10:14Z</time>
      </trkpt>
      <trkpt lat="49.71076" lon="0.20533">
        <ele>63.8</ele>
        <time>2020-06-17T19:10:15Z</time>
      </trkpt>
      <trkpt lat="49.71077" lon="0.20535">
        <ele>63.8</ele>
        <time>2020-06-17T19:10:16Z</time>
      </trkpt>
      <trkpt lat="49.71075" lon="0.20538">
        <ele>65.1</ele>
        <time>2020-06-17T19:10:17Z</time>
      </trkpt>
      <trkpt lat="49.71074" lon="0.20539">
        <ele>65.2</ele>
        <time>2020-06-17T19:10:18Z</time>
      </trkpt>
      <trkpt lat="49.71073" lon="0.20542">
        <ele>65.6</ele>
        <time>2020-06-17T19:10:19Z</time>
      </trkpt>
      <trkpt lat="49.71072" lon="0.20544">
        <ele>65.8</ele>
        <time>2020-06-17T19:10:20Z</time>
      </trkpt>
      <trkpt lat="49.7107" lon="0.20547">
        <ele>66.2</ele>
        <time>2020-06-17T19:10:21Z</time>
      </trkpt>
      <trkpt lat="49.7107" lon="0.20549">
        <ele>66.3</ele>
        <time>2020-06-17T19:10:22Z</time>
      </trkpt>
      <trkpt lat="49.71069" lon="0.20551">
        <ele>66.6</ele>
        <time>2020-06-17T19:10:23Z</time>
      </trkpt>
      <trkpt lat="49.71069" lon="0.20554">
        <ele>66.8</ele>
        <time>2020-06-17T19:10:24Z</time>
      </trkpt>
      <trkpt lat="49.71069" lon="0.20557">
        <ele>67.1</ele>
        <time>2020-06-17T19:10:25Z</time>
      </trkpt>
      <trkpt lat="49.7107" lon="0.20559">
        <ele>67.3</ele>
        <time>2020-06-17T19:10:26Z</time>
      </trkpt>
      <trkpt lat="49.7107" lon="0.20561">
        <ele>67.4</ele>
        <time>2020-06-17T19:10:27Z</time>
      </trkpt>
      <trkpt lat="49.7107" lon="0.20565">
        <ele>67.8</ele>
        <time>2020-06-17T19:10:28Z</time>
      </trkpt>
      <trkpt lat="49.7107" lon="0.20567">
        <ele>68</ele>
        <time>2020-06-17T19:10:29Z</time>
      </trkpt>
      <trkpt lat="49.7107" lon="0.20569">
        <ele>68.2</ele>
        <time>2020-06-17T19:10:30Z</time>
      </trkpt>
      <trkpt lat="49.7107" lon="0.20571">
        <ele>68.4</ele>
        <time>2020-06-17T19:10:31Z</time>
      </trkpt>
      <trkpt lat="49.71071" lon="0.20574">
        <ele>68.7</ele>
        <time>2020-06-17T19:10:32Z</time>
      </trkpt>
      <trkpt lat="49.71072" lon="0.20575">
        <ele>68.8</ele>
        <time>2020-06-17T19:10:33Z</time>
      </trkpt>
      <trkpt lat="49.71072" lon="0.20576">
        <ele>68.9</ele>
        <time>2020-06-17T19:10:34Z</time>
      </trkpt>
      <trkpt lat="49.71073" lon="0.20579">
        <ele>69.2</ele>
        <time>2020-06-17T19:10:35Z</time>
      </trkpt>
      <trkpt lat="49.71073" lon="0.20581">
        <ele>69.3</ele>
        <time>2020-06-17T19:10:36Z</time>
      </trkpt>
      <trkpt lat="49.71073" lon="0.20585">
        <ele>69.6</ele>
        <time>2020-06-17T19:10:37Z</time>
      </trkpt>
      <trkpt lat="49.71073" lon="0.20586">
        <ele>69.7</ele>
        <time>2020-06-17T19:10:38Z</time>
      </trkpt>
      <trkpt lat="49.71073" lon="0.20587">
        <ele>69.8</ele>
        <time>2020-06-17T19:10:39Z</time>
      </trkpt>
      <trkpt lat="49.71072" lon="0.2059">
        <ele>70.1</ele>
        <time>2020-06-17T19:10:40Z</time>
      </trkpt>
      <trkpt lat="49.71073" lon="0.20592">
        <ele>70.2</ele>
        <time>2020-06-17T19:10:41Z</time>
      </trkpt>
      <trkpt lat="49.71073" lon="0.20594">
        <ele>70.4</ele>
        <time>2020-06-17T19:10:42Z</time>
      </trkpt>
      <trkpt lat="49.71073" lon="0.20596">
        <ele>70.6</ele>
        <time>2020-06-17T19:10:43Z</time>
      </trkpt>
      <trkpt lat="49.71073" lon="0.20598">
        <ele>70.7</ele>
        <time>2020-06-17T19:10:44Z</time>
      </trkpt>
      <trkpt lat="49.71073" lon="0.20601">
        <ele>70.9</ele>
        <time>2020-06-17T19:10:45Z</time>
      </trkpt>
      <trkpt lat="49.71074" lon="0.20606">
        <ele>71.5</ele>
        <time>2020-06-17T19:10:46Z</time>
      </trkpt>
      <trkpt lat="49.71074" lon="0.20607">
        <ele>71.6</ele>
        <time>2020-06-17T19:10:47Z</time>
      </trkpt>
      <trkpt lat="49.71074" lon="0.20609">
        <ele>71.8</ele>
        <time>2020-06-17T19:10:48Z</time>
      </trkpt>
      <trkpt lat="49.71074" lon="0.20612">
        <ele>72</ele>
        <time>2020-06-17T19:10:49Z</time>
      </trkpt>
      <trkpt lat="49.71074" lon="0.20614">
        <ele>72.1</ele>
        <time>2020-06-17T19:10:50Z</time>
      </trkpt>
      <trkpt lat="49.71075" lon="0.20615">
        <ele>72.2</ele>
        <time>2020-06-17T19:10:51Z</time>
      </trkpt>
      <trkpt lat="49.71075" lon="0.20617">
        <ele>72.8</ele>
        <time>2020-06-17T19:10:52Z</time>
      </trkpt>
      <trkpt lat="49.71075" lon="0.20619">
        <ele>73</ele>
        <time>2020-06-17T19:10:53Z</time>
      </trkpt>
      <trkpt lat="49.71075" lon="0.20623">
        <ele>73.2</ele>
        <time>2020-06-17T19:10:54Z</time>
      </trkpt>
      <trkpt lat="49.71075" lon="0.20625">
        <ele>73.4</ele>
        <time>2020-06-17T19:10:55Z</time>
      </trkpt>
      <trkpt lat="49.71075" lon="0.20626">
        <ele>73.5</ele>
        <time>2020-06-17T19:10:56Z</time>
      </trkpt>
      <trkpt lat="49.71076" lon="0.20626">
        <ele>73.6</ele>
        <time>2020-06-17T19:10:57Z</time>
      </trkpt>
      <trkpt lat="49.71077" lon="0.20626">
        <ele>73.7</ele>
        <time>2020-06-17T19:10:58Z</time>
      </trkpt>
      <trkpt lat="49.71078" lon="0.20628">
        <ele>73.9</ele>
        <time>2020-06-17T19:10:59Z</time>
      </trkpt>
      <trkpt lat="49.71079" lon="0.2063">
        <ele>74.1</ele>
        <time>2020-06-17T19:11:00Z</time>
      </trkpt>
      <trkpt lat="49.7108" lon="0.20633">
        <ele>74.3</ele>
        <time>2020-06-17T19:11:01Z</time>
      </trkpt>
      <trkpt lat="49.7108" lon="0.20634">
        <ele>74.4</ele>
        <time>2020-06-17T19:11:02Z</time>
      </trkpt>
      <trkpt lat="49.71081" lon="0.20635">
        <ele>74.5</ele>
        <time>2020-06-17T19:11:03Z</time>
      </trkpt>
      <trkpt lat="49.71081" lon="0.20638">
        <ele>74.6</ele>
        <time>2020-06-17T19:11:04Z</time>
      </trkpt>
      <trkpt lat="49.71082" lon="0.2064">
        <ele>74.8</ele>
        <time>2020-06-17T19:11:05Z</time>
      </trkpt>
      <trkpt lat="49.71082" lon="0.20643">
        <ele>75</ele>
        <time>2020-06-17T19:11:06Z</time>
      </trkpt>
      <trkpt lat="49.71082" lon="0.20646">
        <ele>75.1</ele>
        <time>2020-06-17T19:11:07Z</time>
      </trkpt>
      <trkpt lat="49.71081" lon="0.2065">
        <ele>75.4</ele>
        <time>2020-06-17T19:11:08Z</time>
      </trkpt>
      <trkpt lat="49.71081" lon="0.20652">
        <ele>75.5</ele>
        <time>2020-06-17T19:11:09Z</time>
      </trkpt>
      <trkpt lat="49.71081" lon="0.20655">
        <ele>75.8</ele>
        <time>2020-06-17T19:11:10Z</time>
      </trkpt>
      <trkpt lat="49.7108" lon="0.20657">
        <ele>75.9</ele>
        <time>2020-06-17T19:11:11Z</time>
      </trkpt>
      <trkpt lat="49.71082" lon="0.20662">
        <ele>76.2</ele>
        <time>2020-06-17T19:11:12Z</time>
      </trkpt>
      <trkpt lat="49.71082" lon="0.20663">
        <ele>76.3</ele>
        <time>2020-06-17T19:11:13Z</time>
      </trkpt>
      <trkpt lat="49.71083" lon="0.20666">
        <ele>76.5</ele>
        <time>2020-06-17T19:11:14Z</time>
      </trkpt>
      <trkpt lat="49.71083" lon="0.20667">
        <ele>76.6</ele>
        <time>2020-06-17T19:11:15Z</time>
      </trkpt>
      <trkpt lat="49.71084" lon="0.2067">
        <ele>76.7</ele>
        <time>2020-06-17T19:11:16Z</time>
      </trkpt>
      <trkpt lat="49.71085" lon="0.20671">
        <ele>76.9</ele>
        <time>2020-06-17T19:11:17Z</time>
      </trkpt>
      <trkpt lat="49.71086" lon="0.20673">
        <ele>77</ele>
        <time>2020-06-17T19:11:18Z</time>
      </trkpt>
      <trkpt lat="49.71087" lon="0.20674">
        <ele>77.1</ele>
        <time>2020-06-17T19:11:19Z</time>
      </trkpt>
      <trkpt lat="49.71087" lon="0.20676">
        <ele>77.3</ele>
        <time>2020-06-17T19:11:20Z</time>
      </trkpt>
      <trkpt lat="49.71087" lon="0.20679">
        <ele>77.4</ele>
        <time>2020-06-17T19:11:21Z</time>
      </trkpt>
      <trkpt lat="49.71087" lon="0.20682">
        <ele>77.6</ele>
        <time>2020-06-17T19:11:22Z</time>
      </trkpt>
      <trkpt lat="49.71087" lon="0.20684">
        <ele>77.7</ele>
        <time>2020-06-17T19:11:23Z</time>
      </trkpt>
      <trkpt lat="49.71088" lon="0.20688">
        <ele>78</ele>
        <time>2020-06-17T19:11:24Z</time>
      </trkpt>
      <trkpt lat="49.71089" lon="0.2069">
        <ele>78.1</ele>
        <time>2020-06-17T19:11:25Z</time>
      </trkpt>
      <trkpt lat="49.7109" lon="0.20693">
        <ele>78.2</ele>
        <time>2020-06-17T19:11:26Z</time>
      </trkpt>
      <trkpt lat="49.7109" lon="0.20694">
        <ele>78.3</ele>
        <time>2020-06-17T19:11:27Z</time>
      </trkpt>
      <trkpt lat="49.7109" lon="0.20695">
        <ele>78.3</ele>
        <time>2020-06-17T19:11:28Z</time>
      </trkpt>
      <trkpt lat="49.7109" lon="0.20698">
        <ele>78.5</ele>
        <time>2020-06-17T19:11:29Z</time>
      </trkpt>
      <trkpt lat="49.7109" lon="0.20699">
        <ele>78.5</ele>
        <time>2020-06-17T19:11:30Z</time>
      </trkpt>
      <trkpt lat="49.71091" lon="0.20701">
        <ele>78.6</ele>
        <time>2020-06-17T19:11:31Z</time>
      </trkpt>
      <trkpt lat="49.71092" lon="0.20704">
        <ele>78.8</ele>
        <time>2020-06-17T19:11:32Z</time>
      </trkpt>
      <trkpt lat="49.71092" lon="0.20706">
        <ele>78.8</ele>
        <time>2020-06-17T19:11:33Z</time>
      </trkpt>
      <trkpt lat="49.71093" lon="0.20708">
        <ele>78.9</ele>
        <time>2020-06-17T19:11:34Z</time>
      </trkpt>
      <trkpt lat="49.71093" lon="0.2071">
        <ele>79</ele>
        <time>2020-06-17T19:11:35Z</time>
      </trkpt>
      <trkpt lat="49.71094" lon="0.20714">
        <ele>79.2</ele>
        <time>2020-06-17T19:11:36Z</time>
      </trkpt>
      <trkpt lat="49.71094" lon="0.20715">
        <ele>79.2</ele>
        <time>2020-06-17T19:11:37Z</time>
      </trkpt>
      <trkpt lat="49.71095" lon="0.20717">
        <ele>79.3</ele>
        <time>2020-06-17T19:11:38Z</time>
      </trkpt>
      <trkpt lat="49.71095" lon="0.20719">
        <ele>79.4</ele>
        <time>2020-06-17T19:11:39Z</time>
      </trkpt>
      <trkpt lat="49.71096" lon="0.20722">
        <ele>79.5</ele>
        <time>2020-06-17T19:11:40Z</time>
      </trkpt>
      <trkpt lat="49.71097" lon="0.20726">
        <ele>79.6</ele>
        <time>2020-06-17T19:11:41Z</time>
      </trkpt>
      <trkpt lat="49.71097" lon="0.20727">
        <ele>79.7</ele>
        <time>2020-06-17T19:11:42Z</time>
      </trkpt>
      <trkpt lat="49.71098" lon="0.20729">
        <ele>79.8</ele>
        <time>2020-06-17T19:11:43Z</time>
      </trkpt>
      <trkpt lat="49.71099" lon="0.20731">
        <ele>79.9</ele>
        <time>2020-06-17T19:11:44Z</time>
      </trkpt>
      <trkpt lat="49.711" lon="0.20733">
        <ele>78.8</ele>
        <time>2020-06-17T19:11:45Z</time>
      </trkpt>
      <trkpt lat="49.711" lon="0.20737">
        <ele>78.2</ele>
        <time>2020-06-17T19:11:46Z</time>
      </trkpt>
      <trkpt lat="49.711" lon="0.20741">
        <ele>77.6</ele>
        <time>2020-06-17T19:11:47Z</time>
      </trkpt>
      <trkpt lat="49.71101" lon="0.20742">
        <ele>77.3</ele>
        <time>2020-06-17T19:11:48Z</time>
      </trkpt>
      <trkpt lat="49.71101" lon="0.20745">
        <ele>76.9</ele>
        <time>2020-06-17T19:11:49Z</time>
      </trkpt>
      <trkpt lat="49.71101" lon="0.20747">
        <ele>76.6</ele>
        <time>2020-06-17T19:11:50Z</time>
      </trkpt>
      <trkpt lat="49.71102" lon="0.20749">
        <ele>76.1</ele>
        <time>2020-06-17T19:11:51Z</time>
      </trkpt>
      <trkpt lat="49.71102" lon="0.20751">
        <ele>75.8</ele>
        <time>2020-06-17T19:11:52Z</time>
      </trkpt>
      <trkpt lat="49.71103" lon="0.20754">
        <ele>75.3</ele>
        <time>2020-06-17T19:11:53Z</time>
      </trkpt>
      <trkpt lat="49.71104" lon="0.20755">
        <ele>75.1</ele>
        <time>2020-06-17T19:11:54Z</time>
      </trkpt>
      <trkpt lat="49.71104" lon="0.20757">
        <ele>74.8</ele>
        <time>2020-06-17T19:11:55Z</time>
      </trkpt>
      <trkpt lat="49.71105" lon="0.20758">
        <ele>74.5</ele>
        <time>2020-06-17T19:11:56Z</time>
      </trkpt>
      <trkpt lat="49.71105" lon="0.20759">
        <ele>74.3</ele>
        <time>2020-06-17T19:11:57Z</time>
      </trkpt>
      <trkpt lat="49.71106" lon="0.20761">
        <ele>74.4</ele>
        <time>2020-06-17T19:11:58Z</time>
      </trkpt>
      <trkpt lat="49.71107" lon="0.20763">
        <ele>74.4</ele>
        <time>2020-06-17T19:11:59Z</time>
      </trkpt>
      <trkpt lat="49.71107" lon="0.20764">
        <ele>74.5</ele>
        <time>2020-06-17T19:12:00Z</time>
      </trkpt>
      <trkpt lat="49.71108" lon="0.20765">
        <ele>74.6</ele>
        <time>2020-06-17T19:12:01Z</time>
      </trkpt>
      <trkpt lat="49.71109" lon="0.20764">
        <ele>74.6</ele>
        <time>2020-06-17T19:12:02Z</time>
      </trkpt>
      <trkpt lat="49.7111" lon="0.20763">
        <ele>74.7</ele>
        <time>2020-06-17T19:12:03Z</time>
      </trkpt>
      <trkpt lat="49.71111" lon="0.20762">
        <ele>74.8</ele>
        <time>2020-06-17T19:12:04Z</time>
      </trkpt>
      <trkpt lat="49.71112" lon="0.20761">
        <ele>74.8</ele>
        <time>2020-06-17T19:12:05Z</time>
      </trkpt>
      <trkpt lat="49.71113" lon="0.20759">
        <ele>75</ele>
        <time>2020-06-17T19:12:06Z</time>
      </trkpt>
      <trkpt lat="49.71114" lon="0.20759">
        <ele>75</ele>
        <time>2020-06-17T19:12:07Z</time>
      </trkpt>
      <trkpt lat="49.71114" lon="0.20759">
        <ele>75</ele>
        <time>2020-06-17T19:12:08Z</time>
      </trkpt>
      <trkpt lat="49.71114" lon="0.20759">
        <ele>75</ele>
        <time>2020-06-17T19:12:09Z</time>
      </trkpt>
      <trkpt lat="49.71114" lon="0.20759">
        <ele>75</ele>
        <time>2020-06-17T19:12:10Z</time>
      </trkpt>
      <trkpt lat="49.71115" lon="0.20759">
        <ele>75.1</ele>
        <time>2020-06-17T19:12:11Z</time>
      </trkpt>
      <trkpt lat="49.71116" lon="0.20759">
        <ele>75.1</ele>
        <time>2020-06-17T19:12:12Z</time>
      </trkpt>
      <trkpt lat="49.71117" lon="0.20759">
        <ele>75.2</ele>
        <time>2020-06-17T19:12:13Z</time>
      </trkpt>
      <trkpt lat="49.71117" lon="0.20759">
        <ele>75.2</ele>
        <time>2020-06-17T19:12:14Z</time>
      </trkpt>
      <trkpt lat="49.71117" lon="0.20759">
        <ele>75.2</ele>
        <time>2020-06-17T19:12:15Z</time>
      </trkpt>
      <trkpt lat="49.71117" lon="0.20759">
        <ele>75.2</ele>
        <time>2020-06-17T19:12:16Z</time>
      </trkpt>
      <trkpt lat="49.71117" lon="0.20759">
        <ele>75.2</ele>
        <time>2020-06-17T19:12:17Z</time>
      </trkpt>
      <trkpt lat="49.71117" lon="0.20758">
        <ele>75.2</ele>
        <time>2020-06-17T19:12:18Z</time>
      </trkpt>
      <trkpt lat="49.71118" lon="0.20758">
        <ele>75.3</ele>
        <time>2020-06-17T19:12:19Z</time>
      </trkpt>
      <trkpt lat="49.71118" lon="0.20757">
        <ele>75.3</ele>
        <time>2020-06-17T19:12:20Z</time>
      </trkpt>
      <trkpt lat="49.71118" lon="0.20756">
        <ele>75.4</ele>
        <time>2020-06-17T19:12:21Z</time>
      </trkpt>
      <trkpt lat="49.71119" lon="0.20755">
        <ele>75.4</ele>
        <time>2020-06-17T19:12:22Z</time>
      </trkpt>
      <trkpt lat="49.71119" lon="0.20753">
        <ele>75.5</ele>
        <time>2020-06-17T19:12:23Z</time>
      </trkpt>
      <trkpt lat="49.71119" lon="0.20753">
        <ele>75.5</ele>
        <time>2020-06-17T19:12:24Z</time>
      </trkpt>
      <trkpt lat="49.7112" lon="0.20751">
        <ele>75.5</ele>
        <time>2020-06-17T19:12:25Z</time>
      </trkpt>
      <trkpt lat="49.7112" lon="0.20751">
        <ele>75.6</ele>
        <time>2020-06-17T19:12:26Z</time>
      </trkpt>
      <trkpt lat="49.71121" lon="0.20749">
        <ele>75.7</ele>
        <time>2020-06-17T19:12:27Z</time>
      </trkpt>
      <trkpt lat="49.71121" lon="0.20748">
        <ele>75.7</ele>
        <time>2020-06-17T19:12:28Z</time>
      </trkpt>
      <trkpt lat="49.71122" lon="0.20747">
        <ele>75.7</ele>
        <time>2020-06-17T19:12:29Z</time>
      </trkpt>
      <trkpt lat="49.71123" lon="0.20747">
        <ele>75.8</ele>
        <time>2020-06-17T19:12:30Z</time>
      </trkpt>
      <trkpt lat="49.71124" lon="0.20745">
        <ele>75.9</ele>
        <time>2020-06-17T19:12:31Z</time>
      </trkpt>
      <trkpt lat="49.71124" lon="0.20743">
        <ele>75.9</ele>
        <time>2020-06-17T19:12:32Z</time>
      </trkpt>
      <trkpt lat="49.71125" lon="0.20741">
        <ele>76</ele>
        <time>2020-06-17T19:12:33Z</time>
      </trkpt>
      <trkpt lat="49.71125" lon="0.2074">
        <ele>76.1</ele>
        <time>2020-06-17T19:12:34Z</time>
      </trkpt>
      <trkpt lat="49.71125" lon="0.20738">
        <ele>76.1</ele>
        <time>2020-06-17T19:12:35Z</time>
      </trkpt>
      <trkpt lat="49.71124" lon="0.20737">
        <ele>76.2</ele>
        <time>2020-06-17T19:12:36Z</time>
      </trkpt>
      <trkpt lat="49.71124" lon="0.20736">
        <ele>76.2</ele>
        <time>2020-06-17T19:12:37Z</time>
      </trkpt>
      <trkpt lat="49.71123" lon="0.20735">
        <ele>76.3</ele>
        <time>2020-06-17T19:12:38Z</time>
      </trkpt>
      <trkpt lat="49.71123" lon="0.20735">
        <ele>76.3</ele>
        <time>2020-06-17T19:12:39Z</time>
      </trkpt>
      <trkpt lat="49.71123" lon="0.20735">
        <ele>76.3</ele>
        <time>2020-06-17T19:12:40Z</time>
      </trkpt>
      <trkpt lat="49.71123" lon="0.20735">
        <ele>76.3</ele>
        <time>2020-06-17T19:12:41Z</time>
      </trkpt>
      <trkpt lat="49.71123" lon="0.20735">
        <ele>76.3</ele>
        <time>2020-06-17T19:12:42Z</time>
      </trkpt>
      <trkpt lat="49.71123" lon="0.20736">
        <ele>76.3</ele>
        <time>2020-06-17T19:12:43Z</time>
      </trkpt>
      <trkpt lat="49.71123" lon="0.20735">
        <ele>76.3</ele>
        <time>2020-06-17T19:12:44Z</time>
      </trkpt>
      <trkpt lat="49.71123" lon="0.20736">
        <ele>76.3</ele>
        <time>2020-06-17T19:12:45Z</time>
      </trkpt>
      <trkpt lat="49.71123" lon="0.20736">
        <ele>76.3</ele>
        <time>2020-06-17T19:12:46Z</time>
      </trkpt>
      <trkpt lat="49.71123" lon="0.20736">
        <ele>76.3</ele>
        <time>2020-06-17T19:12:47Z</time>
      </trkpt>
      <trkpt lat="49.71121" lon="0.20753">
        <ele>76.9</ele>
        <time>2020-06-17T19:13:45Z</time>
      </trkpt>
      <trkpt lat="49.7112" lon="0.20754">
        <ele>77</ele>
        <time>2020-06-17T19:13:46Z</time>
      </trkpt>
      <trkpt lat="49.7112" lon="0.20755">
        <ele>77</ele>
        <time>2020-06-17T19:13:47Z</time>
      </trkpt>
      <trkpt lat="49.7112" lon="0.20755">
        <ele>77</ele>
        <time>2020-06-17T19:13:48Z</time>
      </trkpt>
      <trkpt lat="49.7112" lon="0.20755">
        <ele>77</ele>
        <time>2020-06-17T19:13:49Z</time>
      </trkpt>
      <trkpt lat="49.7112" lon="0.20755">
        <ele>77</ele>
        <time>2020-06-17T19:13:50Z</time>
      </trkpt>
      <trkpt lat="49.71119" lon="0.20755">
        <ele>77</ele>
        <time>2020-06-17T19:13:51Z</time>
      </trkpt>
      <trkpt lat="49.71119" lon="0.20755">
        <ele>77.1</ele>
        <time>2020-06-17T19:13:52Z</time>
      </trkpt>
      <trkpt lat="49.71118" lon="0.20756">
        <ele>77.1</ele>
        <time>2020-06-17T19:13:53Z</time>
      </trkpt>
      <trkpt lat="49.71118" lon="0.20756">
        <ele>77.1</ele>
        <time>2020-06-17T19:13:54Z</time>
      </trkpt>
      <trkpt lat="49.71118" lon="0.20756">
        <ele>77.1</ele>
        <time>2020-06-17T19:13:55Z</time>
      </trkpt>
      <trkpt lat="49.71118" lon="0.20756">
        <ele>77.1</ele>
        <time>2020-06-17T19:13:56Z</time>
      </trkpt>
      <trkpt lat="49.71118" lon="0.20756">
        <ele>77.1</ele>
        <time>2020-06-17T19:13:57Z</time>
      </trkpt>
      <trkpt lat="49.71118" lon="0.20756">
        <ele>77.1</ele>
        <time>2020-06-17T19:13:58Z</time>
      </trkpt>
      <trkpt lat="49.71118" lon="0.20756">
        <ele>77.1</ele>
        <time>2020-06-17T19:13:59Z</time>
      </trkpt>
      <trkpt lat="49.71118" lon="0.20756">
        <ele>77.2</ele>
        <time>2020-06-17T19:14:00Z</time>
      </trkpt>
      <trkpt lat="49.71118" lon="0.20756">
        <ele>77.2</ele>
        <time>2020-06-17T19:14:01Z</time>
      </trkpt>
      <trkpt lat="49.71118" lon="0.20756">
        <ele>77.2</ele>
        <time>2020-06-17T19:14:02Z</time>
      </trkpt>
      <trkpt lat="49.71118" lon="0.20756">
        <ele>77.2</ele>
        <time>2020-06-17T19:14:03Z</time>
      </trkpt>
      <trkpt lat="49.71115" lon="0.20758">
        <ele>77.3</ele>
        <time>2020-06-17T19:14:07Z</time>
      </trkpt>
      <trkpt lat="49.71114" lon="0.20757">
        <ele>77.4</ele>
        <time>2020-06-17T19:14:08Z</time>
      </trkpt>
      <trkpt lat="49.71113" lon="0.20757">
        <ele>77.5</ele>
        <time>2020-06-17T19:14:09Z</time>
      </trkpt>
      <trkpt lat="49.71111" lon="0.20757">
        <ele>77.6</ele>
        <time>2020-06-17T19:14:10Z</time>
      </trkpt>
      <trkpt lat="49.71109" lon="0.20757">
        <ele>77.7</ele>
        <time>2020-06-17T19:14:11Z</time>
      </trkpt>
      <trkpt lat="49.71109" lon="0.20756">
        <ele>77.7</ele>
        <time>2020-06-17T19:14:12Z</time>
      </trkpt>
      <trkpt lat="49.71108" lon="0.20756">
        <ele>77.7</ele>
        <time>2020-06-17T19:14:13Z</time>
      </trkpt>
      <trkpt lat="49.71108" lon="0.20754">
        <ele>77.8</ele>
        <time>2020-06-17T19:14:14Z</time>
      </trkpt>
      <trkpt lat="49.71108" lon="0.20752">
        <ele>77.9</ele>
        <time>2020-06-17T19:14:15Z</time>
      </trkpt>
      <trkpt lat="49.71107" lon="0.20751">
        <ele>77.9</ele>
        <time>2020-06-17T19:14:16Z</time>
      </trkpt>
      <trkpt lat="49.71107" lon="0.2075">
        <ele>77.9</ele>
        <time>2020-06-17T19:14:17Z</time>
      </trkpt>
      <trkpt lat="49.71108" lon="0.20749">
        <ele>78</ele>
        <time>2020-06-17T19:14:18Z</time>
      </trkpt>
      <trkpt lat="49.71108" lon="0.20747">
        <ele>78</ele>
        <time>2020-06-17T19:14:19Z</time>
      </trkpt>
      <trkpt lat="49.71109" lon="0.20747">
        <ele>78.1</ele>
        <time>2020-06-17T19:14:20Z</time>
      </trkpt>
      <trkpt lat="49.71109" lon="0.20748">
        <ele>78.1</ele>
        <time>2020-06-17T19:14:21Z</time>
      </trkpt>
      <trkpt lat="49.7111" lon="0.20749">
        <ele>78.2</ele>
        <time>2020-06-17T19:14:22Z</time>
      </trkpt>
      <trkpt lat="49.7111" lon="0.20748">
        <ele>78.2</ele>
        <time>2020-06-17T19:14:23Z</time>
      </trkpt>
      <trkpt lat="49.7111" lon="0.20749">
        <ele>78.2</ele>
        <time>2020-06-17T19:14:24Z</time>
      </trkpt>
      <trkpt lat="49.71109" lon="0.20749">
        <ele>78.2</ele>
        <time>2020-06-17T19:14:25Z</time>
      </trkpt>
      <trkpt lat="49.7111" lon="0.20749">
        <ele>78.3</ele>
        <time>2020-06-17T19:14:26Z</time>
      </trkpt>
      <trkpt lat="49.7111" lon="0.20751">
        <ele>78.3</ele>
        <time>2020-06-17T19:14:27Z</time>
      </trkpt>
      <trkpt lat="49.7111" lon="0.20751">
        <ele>78.3</ele>
        <time>2020-06-17T19:14:28Z</time>
      </trkpt>
      <trkpt lat="49.7111" lon="0.20751">
        <ele>78.4</ele>
        <time>2020-06-17T19:14:29Z</time>
      </trkpt>
      <trkpt lat="49.7111" lon="0.20752">
        <ele>78.4</ele>
        <time>2020-06-17T19:14:30Z</time>
      </trkpt>
      <trkpt lat="49.7111" lon="0.20752">
        <ele>78.4</ele>
        <time>2020-06-17T19:14:31Z</time>
      </trkpt>
      <trkpt lat="49.7111" lon="0.20752">
        <ele>78.4</ele>
        <time>2020-06-17T19:14:32Z</time>
      </trkpt>
      <trkpt lat="49.71109" lon="0.20752">
        <ele>78.4</ele>
        <time>2020-06-17T19:14:33Z</time>
      </trkpt>
      <trkpt lat="49.71109" lon="0.20742">
        <ele>78.8</ele>
        <time>2020-06-17T19:14:43Z</time>
      </trkpt>
      <trkpt lat="49.71109" lon="0.20739">
        <ele>78.9</ele>
        <time>2020-06-17T19:14:44Z</time>
      </trkpt>
      <trkpt lat="49.71109" lon="0.20737">
        <ele>79</ele>
        <time>2020-06-17T19:14:45Z</time>
      </trkpt>
      <trkpt lat="49.71108" lon="0.20735">
        <ele>79.1</ele>
        <time>2020-06-17T19:14:46Z</time>
      </trkpt>
      <trkpt lat="49.71109" lon="0.2073">
        <ele>79.2</ele>
        <time>2020-06-17T19:14:47Z</time>
      </trkpt>
      <trkpt lat="49.71109" lon="0.20729">
        <ele>79.3</ele>
        <time>2020-06-17T19:14:48Z</time>
      </trkpt>
      <trkpt lat="49.71109" lon="0.20724">
        <ele>79.4</ele>
        <time>2020-06-17T19:14:49Z</time>
      </trkpt>
      <trkpt lat="49.7111" lon="0.2072">
        <ele>75</ele>
        <time>2020-06-17T19:14:50Z</time>
      </trkpt>
      <trkpt lat="49.71112" lon="0.20716">
        <ele>74.1</ele>
        <time>2020-06-17T19:14:51Z</time>
      </trkpt>
      <trkpt lat="49.71114" lon="0.20712">
        <ele>72.8</ele>
        <time>2020-06-17T19:14:52Z</time>
      </trkpt>
      <trkpt lat="49.71115" lon="0.2071">
        <ele>72.4</ele>
        <time>2020-06-17T19:14:53Z</time>
      </trkpt>
      <trkpt lat="49.71118" lon="0.20706">
        <ele>71.3</ele>
        <time>2020-06-17T19:14:54Z</time>
      </trkpt>
      <trkpt lat="49.71118" lon="0.20705">
        <ele>70.9</ele>
        <time>2020-06-17T19:14:55Z</time>
      </trkpt>
      <trkpt lat="49.71121" lon="0.207">
        <ele>69.7</ele>
        <time>2020-06-17T19:14:56Z</time>
      </trkpt>
      <trkpt lat="49.71122" lon="0.20699">
        <ele>69.3</ele>
        <time>2020-06-17T19:14:57Z</time>
      </trkpt>
      <trkpt lat="49.71122" lon="0.20696">
        <ele>68.7</ele>
        <time>2020-06-17T19:14:58Z</time>
      </trkpt>
      <trkpt lat="49.71122" lon="0.20695">
        <ele>68.5</ele>
        <time>2020-06-17T19:14:59Z</time>
      </trkpt>
      <trkpt lat="49.71122" lon="0.20694">
        <ele>68.3</ele>
        <time>2020-06-17T19:15:00Z</time>
      </trkpt>
      <trkpt lat="49.71122" lon="0.20693">
        <ele>68</ele>
        <time>2020-06-17T19:15:01Z</time>
      </trkpt>
      <trkpt lat="49.71122" lon="0.20691">
        <ele>67.6</ele>
        <time>2020-06-17T19:15:02Z</time>
      </trkpt>
      <trkpt lat="49.71122" lon="0.20688">
        <ele>67.5</ele>
        <time>2020-06-17T19:15:03Z</time>
      </trkpt>
      <trkpt lat="49.71121" lon="0.20683">
        <ele>67.3</ele>
        <time>2020-06-17T19:15:04Z</time>
      </trkpt>
      <trkpt lat="49.71121" lon="0.20681">
        <ele>67.2</ele>
        <time>2020-06-17T19:15:05Z</time>
      </trkpt>
      <trkpt lat="49.71121" lon="0.20675">
        <ele>66.5</ele>
        <time>2020-06-17T19:15:06Z</time>
      </trkpt>
      <trkpt lat="49.7112" lon="0.20673">
        <ele>66.6</ele>
        <time>2020-06-17T19:15:07Z</time>
      </trkpt>
      <trkpt lat="49.7112" lon="0.20668">
        <ele>66.3</ele>
        <time>2020-06-17T19:15:08Z</time>
      </trkpt>
      <trkpt lat="49.7112" lon="0.20667">
        <ele>65.9</ele>
        <time>2020-06-17T19:15:09Z</time>
      </trkpt>
      <trkpt lat="49.71121" lon="0.20662">
        <ele>65.6</ele>
        <time>2020-06-17T19:15:10Z</time>
      </trkpt>
      <trkpt lat="49.71121" lon="0.20661">
        <ele>65.7</ele>
        <time>2020-06-17T19:15:11Z</time>
      </trkpt>
      <trkpt lat="49.71121" lon="0.20655">
        <ele>64.9</ele>
        <time>2020-06-17T19:15:12Z</time>
      </trkpt>
      <trkpt lat="49.71121" lon="0.20653">
        <ele>65.1</ele>
        <time>2020-06-17T19:15:13Z</time>
      </trkpt>
      <trkpt lat="49.71121" lon="0.20649">
        <ele>64.8</ele>
        <time>2020-06-17T19:15:14Z</time>
      </trkpt>
      <trkpt lat="49.71121" lon="0.20647">
        <ele>64.9</ele>
        <time>2020-06-17T19:15:15Z</time>
      </trkpt>
      <trkpt lat="49.71121" lon="0.20642">
        <ele>64.7</ele>
        <time>2020-06-17T19:15:16Z</time>
      </trkpt>
      <trkpt lat="49.71121" lon="0.20641">
        <ele>64.4</ele>
        <time>2020-06-17T19:15:17Z</time>
      </trkpt>
      <trkpt lat="49.71122" lon="0.20639">
        <ele>64.5</ele>
        <time>2020-06-17T19:15:18Z</time>
      </trkpt>
      <trkpt lat="49.71122" lon="0.20637">
        <ele>64.3</ele>
        <time>2020-06-17T19:15:19Z</time>
      </trkpt>
      <trkpt lat="49.71121" lon="0.20636">
        <ele>64.4</ele>
        <time>2020-06-17T19:15:20Z</time>
      </trkpt>
      <trkpt lat="49.71121" lon="0.2063">
        <ele>64.1</ele>
        <time>2020-06-17T19:15:21Z</time>
      </trkpt>
      <trkpt lat="49.7112" lon="0.20629">
        <ele>63.9</ele>
        <time>2020-06-17T19:15:22Z</time>
      </trkpt>
      <trkpt lat="49.7112" lon="0.20623">
        <ele>63.6</ele>
        <time>2020-06-17T19:15:23Z</time>
      </trkpt>
      <trkpt lat="49.71119" lon="0.20621">
        <ele>63.4</ele>
        <time>2020-06-17T19:15:24Z</time>
      </trkpt>
      <trkpt lat="49.71118" lon="0.20615">
        <ele>63.2</ele>
        <time>2020-06-17T19:15:25Z</time>
      </trkpt>
      <trkpt lat="49.71118" lon="0.20614">
        <ele>63.3</ele>
        <time>2020-06-17T19:15:26Z</time>
      </trkpt>
      <trkpt lat="49.71117" lon="0.20609">
        <ele>63</ele>
        <time>2020-06-17T19:15:27Z</time>
      </trkpt>
      <trkpt lat="49.71116" lon="0.20607">
        <ele>62.8</ele>
        <time>2020-06-17T19:15:28Z</time>
      </trkpt>
      <trkpt lat="49.71116" lon="0.20602">
        <ele>62.5</ele>
        <time>2020-06-17T19:15:29Z</time>
      </trkpt>
      <trkpt lat="49.71115" lon="0.20598">
        <ele>62.2</ele>
        <time>2020-06-17T19:15:30Z</time>
      </trkpt>
      <trkpt lat="49.71114" lon="0.20596">
        <ele>62.3</ele>
        <time>2020-06-17T19:15:31Z</time>
      </trkpt>
      <trkpt lat="49.71114" lon="0.20591">
        <ele>61.9</ele>
        <time>2020-06-17T19:15:32Z</time>
      </trkpt>
      <trkpt lat="49.71114" lon="0.20589">
        <ele>61.5</ele>
        <time>2020-06-17T19:15:33Z</time>
      </trkpt>
      <trkpt lat="49.71112" lon="0.20585">
        <ele>60.9</ele>
        <time>2020-06-17T19:15:34Z</time>
      </trkpt>
      <trkpt lat="49.71112" lon="0.20584">
        <ele>61</ele>
        <time>2020-06-17T19:15:35Z</time>
      </trkpt>
      <trkpt lat="49.71111" lon="0.20581">
        <ele>60.4</ele>
        <time>2020-06-17T19:15:36Z</time>
      </trkpt>
      <trkpt lat="49.7111" lon="0.2058">
        <ele>60.5</ele>
        <time>2020-06-17T19:15:37Z</time>
      </trkpt>
      <trkpt lat="49.7111" lon="0.20579">
        <ele>60.6</ele>
        <time>2020-06-17T19:15:38Z</time>
      </trkpt>
      <trkpt lat="49.7111" lon="0.20576">
        <ele>59.9</ele>
        <time>2020-06-17T19:15:39Z</time>
      </trkpt>
      <trkpt lat="49.71109" lon="0.20575">
        <ele>60.1</ele>
        <time>2020-06-17T19:15:40Z</time>
      </trkpt>
      <trkpt lat="49.7111" lon="0.20573">
        <ele>59.3</ele>
        <time>2020-06-17T19:15:41Z</time>
      </trkpt>
      <trkpt lat="49.7111" lon="0.20571">
        <ele>59.4</ele>
        <time>2020-06-17T19:15:42Z</time>
      </trkpt>
      <trkpt lat="49.71111" lon="0.20569">
        <ele>58.6</ele>
        <time>2020-06-17T19:15:43Z</time>
      </trkpt>
      <trkpt lat="49.71113" lon="0.20564">
        <ele>57.8</ele>
        <time>2020-06-17T19:15:44Z</time>
      </trkpt>
      <trkpt lat="49.71113" lon="0.20562">
        <ele>57.9</ele>
        <time>2020-06-17T19:15:45Z</time>
      </trkpt>
      <trkpt lat="49.71116" lon="0.20558">
        <ele>57</ele>
        <time>2020-06-17T19:15:46Z</time>
      </trkpt>
      <trkpt lat="49.71116" lon="0.20557">
        <ele>57</ele>
        <time>2020-06-17T19:15:47Z</time>
      </trkpt>
      <trkpt lat="49.71118" lon="0.20553">
        <ele>56.2</ele>
        <time>2020-06-17T19:15:48Z</time>
      </trkpt>
      <trkpt lat="49.71119" lon="0.20552">
        <ele>55.6</ele>
        <time>2020-06-17T19:15:49Z</time>
      </trkpt>
      <trkpt lat="49.71119" lon="0.2055">
        <ele>55.7</ele>
        <time>2020-06-17T19:15:50Z</time>
      </trkpt>
      <trkpt lat="49.71119" lon="0.20548">
        <ele>55.8</ele>
        <time>2020-06-17T19:15:51Z</time>
      </trkpt>
      <trkpt lat="49.71119" lon="0.20548">
        <ele>55.2</ele>
        <time>2020-06-17T19:15:52Z</time>
      </trkpt>
      <trkpt lat="49.71119" lon="0.20548">
        <ele>55.4</ele>
        <time>2020-06-17T19:15:53Z</time>
      </trkpt>
      <trkpt lat="49.7112" lon="0.20548">
        <ele>56.1</ele>
        <time>2020-06-17T19:15:54Z</time>
      </trkpt>
      <trkpt lat="49.7112" lon="0.20549">
        <ele>56.2</ele>
        <time>2020-06-17T19:15:55Z</time>
      </trkpt>
      <trkpt lat="49.7112" lon="0.20549">
        <ele>56.3</ele>
        <time>2020-06-17T19:15:56Z</time>
      </trkpt>
      <trkpt lat="49.71119" lon="0.20548">
        <ele>56.5</ele>
        <time>2020-06-17T19:15:57Z</time>
      </trkpt>
      <trkpt lat="49.71119" lon="0.20546">
        <ele>56</ele>
        <time>2020-06-17T19:15:58Z</time>
      </trkpt>
      <trkpt lat="49.71119" lon="0.20544">
        <ele>56.2</ele>
        <time>2020-06-17T19:15:59Z</time>
      </trkpt>
      <trkpt lat="49.71119" lon="0.20543">
        <ele>56.1</ele>
        <time>2020-06-17T19:16:00Z</time>
      </trkpt>
      <trkpt lat="49.7112" lon="0.20541">
        <ele>56.2</ele>
        <time>2020-06-17T19:16:01Z</time>
      </trkpt>
      <trkpt lat="49.7112" lon="0.20538">
        <ele>56.5</ele>
        <time>2020-06-17T19:16:02Z</time>
      </trkpt>
      <trkpt lat="49.71119" lon="0.20538">
        <ele>56.7</ele>
        <time>2020-06-17T19:16:03Z</time>
      </trkpt>
      <trkpt lat="49.71118" lon="0.20538">
        <ele>56.6</ele>
        <time>2020-06-17T19:16:04Z</time>
      </trkpt>
      <trkpt lat="49.71117" lon="0.20539">
        <ele>56.8</ele>
        <time>2020-06-17T19:16:05Z</time>
      </trkpt>
      <trkpt lat="49.71117" lon="0.20539">
        <ele>56.9</ele>
        <time>2020-06-17T19:16:06Z</time>
      </trkpt>
      <trkpt lat="49.71117" lon="0.20539">
        <ele>57</ele>
        <time>2020-06-17T19:16:07Z</time>
      </trkpt>
      <trkpt lat="49.71117" lon="0.20539">
        <ele>57.2</ele>
        <time>2020-06-17T19:16:08Z</time>
      </trkpt>
      <trkpt lat="49.71117" lon="0.20539">
        <ele>57.3</ele>
        <time>2020-06-17T19:16:09Z</time>
      </trkpt>
      <trkpt lat="49.71117" lon="0.20539">
        <ele>57.4</ele>
        <time>2020-06-17T19:16:10Z</time>
      </trkpt>
      <trkpt lat="49.71117" lon="0.20539">
        <ele>57.6</ele>
        <time>2020-06-17T19:16:11Z</time>
      </trkpt>
      <trkpt lat="49.71117" lon="0.20539">
        <ele>57.7</ele>
        <time>2020-06-17T19:16:12Z</time>
      </trkpt>
      <trkpt lat="49.71117" lon="0.20539">
        <ele>57.8</ele>
        <time>2020-06-17T19:16:13Z</time>
      </trkpt>
      <trkpt lat="49.71114" lon="0.20534">
        <ele>57.7</ele>
        <time>2020-06-17T19:16:54Z</time>
      </trkpt>
      <trkpt lat="49.71113" lon="0.20533">
        <ele>57.4</ele>
        <time>2020-06-17T19:16:55Z</time>
      </trkpt>
      <trkpt lat="49.71112" lon="0.20533">
        <ele>57.5</ele>
        <time>2020-06-17T19:16:56Z</time>
      </trkpt>
      <trkpt lat="49.71112" lon="0.20532">
        <ele>57.7</ele>
        <time>2020-06-17T19:16:57Z</time>
      </trkpt>
      <trkpt lat="49.7111" lon="0.20531">
        <ele>57.4</ele>
        <time>2020-06-17T19:16:58Z</time>
      </trkpt>
      <trkpt lat="49.71108" lon="0.20531">
        <ele>57.1</ele>
        <time>2020-06-17T19:16:59Z</time>
      </trkpt>
      <trkpt lat="49.71107" lon="0.20532">
        <ele>57.3</ele>
        <time>2020-06-17T19:17:00Z</time>
      </trkpt>
      <trkpt lat="49.71106" lon="0.20533">
        <ele>57.4</ele>
        <time>2020-06-17T19:17:01Z</time>
      </trkpt>
      <trkpt lat="49.71104" lon="0.20534">
        <ele>57.2</ele>
        <time>2020-06-17T19:17:02Z</time>
      </trkpt>
      <trkpt lat="49.71103" lon="0.20535">
        <ele>58.1</ele>
        <time>2020-06-17T19:17:03Z</time>
      </trkpt>
      <trkpt lat="49.71101" lon="0.20536">
        <ele>58</ele>
        <time>2020-06-17T19:17:04Z</time>
      </trkpt>
      <trkpt lat="49.711" lon="0.20538">
        <ele>58.2</ele>
        <time>2020-06-17T19:17:05Z</time>
      </trkpt>
      <trkpt lat="49.711" lon="0.2054">
        <ele>59.2</ele>
        <time>2020-06-17T19:17:06Z</time>
      </trkpt>
      <trkpt lat="49.71099" lon="0.20542">
        <ele>59.2</ele>
        <time>2020-06-17T19:17:07Z</time>
      </trkpt>
      <trkpt lat="49.71098" lon="0.20544">
        <ele>60.3</ele>
        <time>2020-06-17T19:17:08Z</time>
      </trkpt>
      <trkpt lat="49.71098" lon="0.20547">
        <ele>60.4</ele>
        <time>2020-06-17T19:17:09Z</time>
      </trkpt>
      <trkpt lat="49.71097" lon="0.20551">
        <ele>61.3</ele>
        <time>2020-06-17T19:17:10Z</time>
      </trkpt>
      <trkpt lat="49.71097" lon="0.20552">
        <ele>62.2</ele>
        <time>2020-06-17T19:17:11Z</time>
      </trkpt>
      <trkpt lat="49.71096" lon="0.20557">
        <ele>63</ele>
        <time>2020-06-17T19:17:12Z</time>
      </trkpt>
      <trkpt lat="49.71096" lon="0.20559">
        <ele>63.2</ele>
        <time>2020-06-17T19:17:13Z</time>
      </trkpt>
      <trkpt lat="49.71095" lon="0.20564">
        <ele>64.1</ele>
        <time>2020-06-17T19:17:14Z</time>
      </trkpt>
      <trkpt lat="49.71094" lon="0.20566">
        <ele>65.1</ele>
        <time>2020-06-17T19:17:15Z</time>
      </trkpt>
      <trkpt lat="49.71094" lon="0.2057">
        <ele>66</ele>
        <time>2020-06-17T19:17:16Z</time>
      </trkpt>
      <trkpt lat="49.71094" lon="0.20571">
        <ele>66.1</ele>
        <time>2020-06-17T19:17:17Z</time>
      </trkpt>
      <trkpt lat="49.71094" lon="0.20574">
        <ele>67.1</ele>
        <time>2020-06-17T19:17:18Z</time>
      </trkpt>
      <trkpt lat="49.71092" lon="0.20576">
        <ele>67.2</ele>
        <time>2020-06-17T19:17:19Z</time>
      </trkpt>
      <trkpt lat="49.7109" lon="0.20579">
        <ele>68</ele>
        <time>2020-06-17T19:17:20Z</time>
      </trkpt>
      <trkpt lat="49.71089" lon="0.2058">
        <ele>68.1</ele>
        <time>2020-06-17T19:17:21Z</time>
      </trkpt>
      <trkpt lat="49.71088" lon="0.20581">
        <ele>67.9</ele>
        <time>2020-06-17T19:17:22Z</time>
      </trkpt>
      <trkpt lat="49.71087" lon="0.20584">
        <ele>68.9</ele>
        <time>2020-06-17T19:17:23Z</time>
      </trkpt>
      <trkpt lat="49.71084" lon="0.20587">
        <ele>69.4</ele>
        <time>2020-06-17T19:17:24Z</time>
      </trkpt>
      <trkpt lat="49.71083" lon="0.20588">
        <ele>69.5</ele>
        <time>2020-06-17T19:17:25Z</time>
      </trkpt>
      <trkpt lat="49.71082" lon="0.20589">
        <ele>69.3</ele>
        <time>2020-06-17T19:17:26Z</time>
      </trkpt>
      <trkpt lat="49.71081" lon="0.20591">
        <ele>70.1</ele>
        <time>2020-06-17T19:17:27Z</time>
      </trkpt>
      <trkpt lat="49.7108" lon="0.20593">
        <ele>69.8</ele>
        <time>2020-06-17T19:17:28Z</time>
      </trkpt>
      <trkpt lat="49.71079" lon="0.20594">
        <ele>69.9</ele>
        <time>2020-06-17T19:17:29Z</time>
      </trkpt>
      <trkpt lat="49.71079" lon="0.20594">
        <ele>70.1</ele>
        <time>2020-06-17T19:17:30Z</time>
      </trkpt>
      <trkpt lat="49.71079" lon="0.20595">
        <ele>70.2</ele>
        <time>2020-06-17T19:17:31Z</time>
      </trkpt>
      <trkpt lat="49.71079" lon="0.20595">
        <ele>70.9</ele>
        <time>2020-06-17T19:17:32Z</time>
      </trkpt>
      <trkpt lat="49.71078" lon="0.20597">
        <ele>70.9</ele>
        <time>2020-06-17T19:17:33Z</time>
      </trkpt>
      <trkpt lat="49.71078" lon="0.20598">
        <ele>70.9</ele>
        <time>2020-06-17T19:17:34Z</time>
      </trkpt>
      <trkpt lat="49.71079" lon="0.206">
        <ele>70.9</ele>
        <time>2020-06-17T19:17:35Z</time>
      </trkpt>
      <trkpt lat="49.71078" lon="0.20601">
        <ele>70.9</ele>
        <time>2020-06-17T19:17:36Z</time>
      </trkpt>
      <trkpt lat="49.71078" lon="0.20602">
        <ele>70.9</ele>
        <time>2020-06-17T19:17:37Z</time>
      </trkpt>
      <trkpt lat="49.71078" lon="0.20603">
        <ele>70.9</ele>
        <time>2020-06-17T19:17:38Z</time>
      </trkpt>
      <trkpt lat="49.71078" lon="0.20603">
        <ele>70.9</ele>
        <time>2020-06-17T19:17:39Z</time>
      </trkpt>
      <trkpt lat="49.71078" lon="0.20603">
        <ele>70.9</ele>
        <time>2020-06-17T19:17:40Z</time>
      </trkpt>
      <trkpt lat="49.71078" lon="0.20603">
        <ele>70.9</ele>
        <time>2020-06-17T19:17:41Z</time>
      </trkpt>
      <trkpt lat="49.71078" lon="0.20603">
        <ele>70.9</ele>
        <time>2020-06-17T19:17:42Z</time>
      </trkpt>
      <trkpt lat="49.71078" lon="0.20603">
        <ele>70.9</ele>
        <time>2020-06-17T19:17:43Z</time>
      </trkpt>
      <trkpt lat="49.71078" lon="0.20603">
        <ele>70.9</ele>
        <time>2020-06-17T19:17:44Z</time>
      </trkpt>
      <trkpt lat="49.71078" lon="0.20603">
        <ele>70.9</ele>
        <time>2020-06-17T19:17:45Z</time>
      </trkpt>
      <trkpt lat="49.71078" lon="0.20604">
        <ele>70.9</ele>
        <time>2020-06-17T19:17:46Z</time>
      </trkpt>
      <trkpt lat="49.71078" lon="0.20604">
        <ele>70.9</ele>
        <time>2020-06-17T19:17:47Z</time>
      </trkpt>
      <trkpt lat="49.71078" lon="0.20604">
        <ele>70.9</ele>
        <time>2020-06-17T19:17:48Z</time>
      </trkpt>
      <trkpt lat="49.71075" lon="0.20597">
        <ele>70.9</ele>
        <time>2020-06-17T19:17:54Z</time>
      </trkpt>
      <trkpt lat="49.71074" lon="0.20596">
        <ele>70.7</ele>
        <time>2020-06-17T19:17:55Z</time>
      </trkpt>
      <trkpt lat="49.71073" lon="0.20594">
        <ele>70.6</ele>
        <time>2020-06-17T19:17:56Z</time>
      </trkpt>
      <trkpt lat="49.71072" lon="0.20593">
        <ele>70.4</ele>
        <time>2020-06-17T19:17:57Z</time>
      </trkpt>
      <trkpt lat="49.71072" lon="0.20591">
        <ele>70.3</ele>
        <time>2020-06-17T19:17:58Z</time>
      </trkpt>
      <trkpt lat="49.71071" lon="0.20589">
        <ele>70.1</ele>
        <time>2020-06-17T19:17:59Z</time>
      </trkpt>
      <trkpt lat="49.71071" lon="0.20586">
        <ele>69.9</ele>
        <time>2020-06-17T19:18:00Z</time>
      </trkpt>
      <trkpt lat="49.71071" lon="0.20585">
        <ele>69.8</ele>
        <time>2020-06-17T19:18:01Z</time>
      </trkpt>
      <trkpt lat="49.71071" lon="0.20583">
        <ele>69.6</ele>
        <time>2020-06-17T19:18:02Z</time>
      </trkpt>
      <trkpt lat="49.71071" lon="0.20581">
        <ele>69.4</ele>
        <time>2020-06-17T19:18:03Z</time>
      </trkpt>
      <trkpt lat="49.71071" lon="0.20578">
        <ele>69.2</ele>
        <time>2020-06-17T19:18:04Z</time>
      </trkpt>
      <trkpt lat="49.71072" lon="0.20576">
        <ele>69</ele>
        <time>2020-06-17T19:18:05Z</time>
      </trkpt>
      <trkpt lat="49.71072" lon="0.20571">
        <ele>68.5</ele>
        <time>2020-06-17T19:18:06Z</time>
      </trkpt>
      <trkpt lat="49.71072" lon="0.20569">
        <ele>68.4</ele>
        <time>2020-06-17T19:18:07Z</time>
      </trkpt>
      <trkpt lat="49.71072" lon="0.20568">
        <ele>68.3</ele>
        <time>2020-06-17T19:18:08Z</time>
      </trkpt>
      <trkpt lat="49.71072" lon="0.20566">
        <ele>68.1</ele>
        <time>2020-06-17T19:18:09Z</time>
      </trkpt>
      <trkpt lat="49.71072" lon="0.20564">
        <ele>68</ele>
        <time>2020-06-17T19:18:10Z</time>
      </trkpt>
      <trkpt lat="49.71072" lon="0.20563">
        <ele>67.8</ele>
        <time>2020-06-17T19:18:11Z</time>
      </trkpt>
      <trkpt lat="49.71072" lon="0.20561">
        <ele>67.6</ele>
        <time>2020-06-17T19:18:12Z</time>
      </trkpt>
      <trkpt lat="49.71072" lon="0.20559">
        <ele>67.5</ele>
        <time>2020-06-17T19:18:13Z</time>
      </trkpt>
      <trkpt lat="49.71072" lon="0.20558">
        <ele>67.3</ele>
        <time>2020-06-17T19:18:14Z</time>
      </trkpt>
      <trkpt lat="49.71072" lon="0.20555">
        <ele>67.1</ele>
        <time>2020-06-17T19:18:15Z</time>
      </trkpt>
      <trkpt lat="49.71073" lon="0.20551">
        <ele>66.7</ele>
        <time>2020-06-17T19:18:16Z</time>
      </trkpt>
      <trkpt lat="49.71073" lon="0.20549">
        <ele>66.5</ele>
        <time>2020-06-17T19:18:17Z</time>
      </trkpt>
      <trkpt lat="49.71073" lon="0.20544">
        <ele>66.1</ele>
        <time>2020-06-17T19:18:18Z</time>
      </trkpt>
      <trkpt lat="49.71074" lon="0.20543">
        <ele>66</ele>
        <time>2020-06-17T19:18:19Z</time>
      </trkpt>
      <trkpt lat="49.71074" lon="0.20541">
        <ele>65.7</ele>
        <time>2020-06-17T19:18:20Z</time>
      </trkpt>
      <trkpt lat="49.71074" lon="0.20539">
        <ele>65.5</ele>
        <time>2020-06-17T19:18:21Z</time>
      </trkpt>
      <trkpt lat="49.71075" lon="0.20536">
        <ele>65.3</ele>
        <time>2020-06-17T19:18:22Z</time>
      </trkpt>
      <trkpt lat="49.71075" lon="0.20533">
        <ele>65</ele>
        <time>2020-06-17T19:18:23Z</time>
      </trkpt>
      <trkpt lat="49.71075" lon="0.20532">
        <ele>64.9</ele>
        <time>2020-06-17T19:18:24Z</time>
      </trkpt>
      <trkpt lat="49.71076" lon="0.20531">
        <ele>64.8</ele>
        <time>2020-06-17T19:18:25Z</time>
      </trkpt>
      <trkpt lat="49.71077" lon="0.20529">
        <ele>64.6</ele>
        <time>2020-06-17T19:18:26Z</time>
      </trkpt>
      <trkpt lat="49.71076" lon="0.20527">
        <ele>64.4</ele>
        <time>2020-06-17T19:18:27Z</time>
      </trkpt>
      <trkpt lat="49.71076" lon="0.20526">
        <ele>64.2</ele>
        <time>2020-06-17T19:18:28Z</time>
      </trkpt>
      <trkpt lat="49.71075" lon="0.20525">
        <ele>64</ele>
        <time>2020-06-17T19:18:29Z</time>
      </trkpt>
      <trkpt lat="49.71074" lon="0.20523">
        <ele>63.8</ele>
        <time>2020-06-17T19:18:30Z</time>
      </trkpt>
      <trkpt lat="49.71073" lon="0.20521">
        <ele>63.8</ele>
        <time>2020-06-17T19:18:31Z</time>
      </trkpt>
      <trkpt lat="49.71071" lon="0.20522">
        <ele>63.6</ele>
        <time>2020-06-17T19:18:32Z</time>
      </trkpt>
      <trkpt lat="49.7107" lon="0.20523">
        <ele>63.5</ele>
        <time>2020-06-17T19:18:33Z</time>
      </trkpt>
      <trkpt lat="49.71069" lon="0.20524">
        <ele>63.4</ele>
        <time>2020-06-17T19:18:34Z</time>
      </trkpt>
      <trkpt lat="49.71067" lon="0.20525">
        <ele>63.2</ele>
        <time>2020-06-17T19:18:35Z</time>
      </trkpt>
      <trkpt lat="49.71066" lon="0.20525">
        <ele>63.1</ele>
        <time>2020-06-17T19:18:36Z</time>
      </trkpt>
      <trkpt lat="49.71064" lon="0.20525">
        <ele>62.9</ele>
        <time>2020-06-17T19:18:37Z</time>
      </trkpt>
      <trkpt lat="49.71062" lon="0.20526">
        <ele>62.7</ele>
        <time>2020-06-17T19:18:38Z</time>
      </trkpt>
      <trkpt lat="49.71061" lon="0.20526">
        <ele>62.6</ele>
        <time>2020-06-17T19:18:39Z</time>
      </trkpt>
      <trkpt lat="49.71059" lon="0.20527">
        <ele>62.5</ele>
        <time>2020-06-17T19:18:40Z</time>
      </trkpt>
      <trkpt lat="49.71058" lon="0.20528">
        <ele>62.3</ele>
        <time>2020-06-17T19:18:41Z</time>
      </trkpt>
      <trkpt lat="49.71057" lon="0.2053">
        <ele>62.2</ele>
        <time>2020-06-17T19:18:42Z</time>
      </trkpt>
      <trkpt lat="49.71055" lon="0.20532">
        <ele>62</ele>
        <time>2020-06-17T19:18:43Z</time>
      </trkpt>
      <trkpt lat="49.71054" lon="0.20533">
        <ele>61.9</ele>
        <time>2020-06-17T19:18:44Z</time>
      </trkpt>
      <trkpt lat="49.71053" lon="0.20535">
        <ele>61.8</ele>
        <time>2020-06-17T19:18:45Z</time>
      </trkpt>
      <trkpt lat="49.71052" lon="0.20537">
        <ele>61.6</ele>
        <time>2020-06-17T19:18:46Z</time>
      </trkpt>
      <trkpt lat="49.71051" lon="0.20538">
        <ele>61.5</ele>
        <time>2020-06-17T19:18:47Z</time>
      </trkpt>
      <trkpt lat="49.71049" lon="0.2054">
        <ele>61.3</ele>
        <time>2020-06-17T19:18:48Z</time>
      </trkpt>
      <trkpt lat="49.71048" lon="0.20541">
        <ele>61.3</ele>
        <time>2020-06-17T19:18:49Z</time>
      </trkpt>
      <trkpt lat="49.71048" lon="0.20542">
        <ele>61.2</ele>
        <time>2020-06-17T19:18:50Z</time>
      </trkpt>
      <trkpt lat="49.71047" lon="0.20544">
        <ele>61.1</ele>
        <time>2020-06-17T19:18:51Z</time>
      </trkpt>
      <trkpt lat="49.71046" lon="0.20546">
        <ele>61</ele>
        <time>2020-06-17T19:18:52Z</time>
      </trkpt>
      <trkpt lat="49.71045" lon="0.20549">
        <ele>60.8</ele>
        <time>2020-06-17T19:18:53Z</time>
      </trkpt>
      <trkpt lat="49.71044" lon="0.2055">
        <ele>60.7</ele>
        <time>2020-06-17T19:18:54Z</time>
      </trkpt>
      <trkpt lat="49.71043" lon="0.20554">
        <ele>60.6</ele>
        <time>2020-06-17T19:18:55Z</time>
      </trkpt>
      <trkpt lat="49.71043" lon="0.20555">
        <ele>60.5</ele>
        <time>2020-06-17T19:18:56Z</time>
      </trkpt>
      <trkpt lat="49.71042" lon="0.20556">
        <ele>60.4</ele>
        <time>2020-06-17T19:18:57Z</time>
      </trkpt>
      <trkpt lat="49.71041" lon="0.20559">
        <ele>60.3</ele>
        <time>2020-06-17T19:18:58Z</time>
      </trkpt>
      <trkpt lat="49.71041" lon="0.2056">
        <ele>60.2</ele>
        <time>2020-06-17T19:18:59Z</time>
      </trkpt>
      <trkpt lat="49.7104" lon="0.20563">
        <ele>60.1</ele>
        <time>2020-06-17T19:19:00Z</time>
      </trkpt>
      <trkpt lat="49.71039" lon="0.20566">
        <ele>59.9</ele>
        <time>2020-06-17T19:19:01Z</time>
      </trkpt>
      <trkpt lat="49.71039" lon="0.20568">
        <ele>59.8</ele>
        <time>2020-06-17T19:19:02Z</time>
      </trkpt>
      <trkpt lat="49.71039" lon="0.20569">
        <ele>59.8</ele>
        <time>2020-06-17T19:19:03Z</time>
      </trkpt>
      <trkpt lat="49.71038" lon="0.2057">
        <ele>59.7</ele>
        <time>2020-06-17T19:19:04Z</time>
      </trkpt>
      <trkpt lat="49.71038" lon="0.20571">
        <ele>59.7</ele>
        <time>2020-06-17T19:19:05Z</time>
      </trkpt>
      <trkpt lat="49.71037" lon="0.20575">
        <ele>59.5</ele>
        <time>2020-06-17T19:19:06Z</time>
      </trkpt>
      <trkpt lat="49.71037" lon="0.20576">
        <ele>59.4</ele>
        <time>2020-06-17T19:19:07Z</time>
      </trkpt>
      <trkpt lat="49.71037" lon="0.20577">
        <ele>59.4</ele>
        <time>2020-06-17T19:19:08Z</time>
      </trkpt>
      <trkpt lat="49.71036" lon="0.20579">
        <ele>59.3</ele>
        <time>2020-06-17T19:19:09Z</time>
      </trkpt>
      <trkpt lat="49.71035" lon="0.20581">
        <ele>59.2</ele>
        <time>2020-06-17T19:19:10Z</time>
      </trkpt>
      <trkpt lat="49.71035" lon="0.20582">
        <ele>59.1</ele>
        <time>2020-06-17T19:19:11Z</time>
      </trkpt>
      <trkpt lat="49.71034" lon="0.20583">
        <ele>59.1</ele>
        <time>2020-06-17T19:19:12Z</time>
      </trkpt>
      <trkpt lat="49.71034" lon="0.20584">
        <ele>59</ele>
        <time>2020-06-17T19:19:13Z</time>
      </trkpt>
      <trkpt lat="49.71034" lon="0.20586">
        <ele>58.9</ele>
        <time>2020-06-17T19:19:14Z</time>
      </trkpt>
      <trkpt lat="49.71033" lon="0.20587">
        <ele>58.9</ele>
        <time>2020-06-17T19:19:15Z</time>
      </trkpt>
      <trkpt lat="49.71032" lon="0.20589">
        <ele>58.8</ele>
        <time>2020-06-17T19:19:16Z</time>
      </trkpt>
      <trkpt lat="49.71032" lon="0.20591">
        <ele>58.7</ele>
        <time>2020-06-17T19:19:17Z</time>
      </trkpt>
      <trkpt lat="49.71032" lon="0.20594">
        <ele>58.6</ele>
        <time>2020-06-17T19:19:18Z</time>
      </trkpt>
      <trkpt lat="49.71031" lon="0.20597">
        <ele>58.4</ele>
        <time>2020-06-17T19:19:19Z</time>
      </trkpt>
      <trkpt lat="49.71031" lon="0.20598">
        <ele>58.3</ele>
        <time>2020-06-17T19:19:20Z</time>
      </trkpt>
      <trkpt lat="49.71031" lon="0.20599">
        <ele>58.3</ele>
        <time>2020-06-17T19:19:21Z</time>
      </trkpt>
      <trkpt lat="49.7103" lon="0.20601">
        <ele>58.2</ele>
        <time>2020-06-17T19:19:22Z</time>
      </trkpt>
      <trkpt lat="49.71029" lon="0.20604">
        <ele>58.1</ele>
        <time>2020-06-17T19:19:23Z</time>
      </trkpt>
      <trkpt lat="49.71029" lon="0.20605">
        <ele>58</ele>
        <time>2020-06-17T19:19:24Z</time>
      </trkpt>
      <trkpt lat="49.71029" lon="0.20607">
        <ele>57.9</ele>
        <time>2020-06-17T19:19:25Z</time>
      </trkpt>
      <trkpt lat="49.71029" lon="0.20609">
        <ele>57.8</ele>
        <time>2020-06-17T19:19:26Z</time>
      </trkpt>
      <trkpt lat="49.71028" lon="0.2061">
        <ele>57.7</ele>
        <time>2020-06-17T19:19:27Z</time>
      </trkpt>
      <trkpt lat="49.71028" lon="0.20614">
        <ele>57.6</ele>
        <time>2020-06-17T19:19:28Z</time>
      </trkpt>
      <trkpt lat="49.71028" lon="0.20616">
        <ele>57.5</ele>
        <time>2020-06-17T19:19:29Z</time>
      </trkpt>
      <trkpt lat="49.71028" lon="0.20618">
        <ele>57.4</ele>
        <time>2020-06-17T19:19:30Z</time>
      </trkpt>
      <trkpt lat="49.71027" lon="0.2062">
        <ele>57.3</ele>
        <time>2020-06-17T19:19:31Z</time>
      </trkpt>
      <trkpt lat="49.71027" lon="0.20622">
        <ele>57.2</ele>
        <time>2020-06-17T19:19:32Z</time>
      </trkpt>
      <trkpt lat="49.71027" lon="0.20624">
        <ele>57.1</ele>
        <time>2020-06-17T19:19:33Z</time>
      </trkpt>
      <trkpt lat="49.71027" lon="0.20626">
        <ele>57</ele>
        <time>2020-06-17T19:19:34Z</time>
      </trkpt>
      <trkpt lat="49.71026" lon="0.20627">
        <ele>57</ele>
        <time>2020-06-17T19:19:35Z</time>
      </trkpt>
      <trkpt lat="49.71027" lon="0.20629">
        <ele>56.9</ele>
        <time>2020-06-17T19:19:36Z</time>
      </trkpt>
      <trkpt lat="49.71027" lon="0.2063">
        <ele>56.8</ele>
        <time>2020-06-17T19:19:37Z</time>
      </trkpt>
      <trkpt lat="49.71027" lon="0.20631">
        <ele>56.7</ele>
        <time>2020-06-17T19:19:38Z</time>
      </trkpt>
      <trkpt lat="49.71027" lon="0.20633">
        <ele>56.6</ele>
        <time>2020-06-17T19:19:39Z</time>
      </trkpt>
      <trkpt lat="49.71027" lon="0.20635">
        <ele>56.5</ele>
        <time>2020-06-17T19:19:40Z</time>
      </trkpt>
      <trkpt lat="49.71027" lon="0.20636">
        <ele>56.5</ele>
        <time>2020-06-17T19:19:41Z</time>
      </trkpt>
      <trkpt lat="49.71027" lon="0.20636">
        <ele>56.5</ele>
        <time>2020-06-17T19:19:42Z</time>
      </trkpt>
      <trkpt lat="49.71027" lon="0.20636">
        <ele>56.5</ele>
        <time>2020-06-17T19:19:43Z</time>
      </trkpt>
      <trkpt lat="49.71026" lon="0.20637">
        <ele>56.5</ele>
        <time>2020-06-17T19:19:44Z</time>
      </trkpt>
      <trkpt lat="49.71026" lon="0.20636">
        <ele>56.4</ele>
        <time>2020-06-17T19:19:45Z</time>
      </trkpt>
      <trkpt lat="49.71025" lon="0.20635">
        <ele>56.3</ele>
        <time>2020-06-17T19:19:46Z</time>
      </trkpt>
      <trkpt lat="49.71025" lon="0.20635">
        <ele>56.3</ele>
        <time>2020-06-17T19:19:47Z</time>
      </trkpt>
      <trkpt lat="49.71025" lon="0.20634">
        <ele>56.3</ele>
        <time>2020-06-17T19:19:48Z</time>
      </trkpt>
      <trkpt lat="49.71025" lon="0.20634">
        <ele>56.3</ele>
        <time>2020-06-17T19:19:49Z</time>
      </trkpt>
      <trkpt lat="49.71025" lon="0.20634">
        <ele>56.3</ele>
        <time>2020-06-17T19:19:50Z</time>
      </trkpt>
      <trkpt lat="49.71025" lon="0.20635">
        <ele>56.2</ele>
        <time>2020-06-17T19:19:51Z</time>
      </trkpt>
    </trkseg>
  </trk>
</gpx>